<?xml version="1.0" encoding="UTF-8"?>
<gpx creator="Garmin Connect" version="1.1"
  xsi:schemaLocation="http://www.topografix.com/GPX/1/1 http://www.topografix.com/GPX/11.xsd"
  xmlns:ns3="http://www.garmin.com/xmlschemas/TrackPointExtension/v1"
  xmlns="http://www.topografix.com/GPX/1/1"
  xmlns:xsi="http://www.w3.org/2001/XMLSchema-instance" xmlns:ns2="http://www.garmin.com/xmlschemas/GpxExtensions/v3">
  <metadata>
    <link href="connect.garmin.com">
      <text>Garmin Connect</text>
    </link>
    <time>2026-06-17T07:40:10.000Z</time>
  </metadata>
  <trk>
    <name>Plav Mountainbiken</name>
    <type>mountain_biking</type>
    <trkseg>
      <trkpt lat="42.59404501877725124359130859375" lon="19.94275099597871303558349609375">
        <ele>957.79998779296875</ele>
        <time>2026-06-17T07:40:13.000Z</time>
        <extensions>
          <ns3:TrackPointExtension>
            <ns3:atemp>16.0</ns3:atemp>
          </ns3:TrackPointExtension>
        </extensions>
      </trkpt>
      <trkpt lat="42.59405943565070629119873046875" lon="19.94274906814098358154296875">
        <ele>957.79998779296875</ele>
        <time>2026-06-17T07:40:14.000Z</time>
        <extensions>
          <ns3:TrackPointExtension>
            <ns3:atemp>16.0</ns3:atemp>
          </ns3:TrackPointExtension>
        </extensions>
      </trkpt>
      <trkpt lat="42.59411408565938472747802734375" lon="19.942731298506259918212890625">
        <ele>958</ele>
        <time>2026-06-17T07:40:15.000Z</time>
        <extensions>
          <ns3:TrackPointExtension>
            <ns3:atemp>16.0</ns3:atemp>
          </ns3:TrackPointExtension>
        </extensions>
      </trkpt>
      <trkpt lat="42.5941274128854274749755859375" lon="19.94272836484014987945556640625">
        <ele>958</ele>
        <time>2026-06-17T07:40:16.000Z</time>
        <extensions>
          <ns3:TrackPointExtension>
            <ns3:atemp>16.0</ns3:atemp>
          </ns3:TrackPointExtension>
        </extensions>
      </trkpt>
      <trkpt lat="42.59414576925337314605712890625" lon="19.942728616297245025634765625">
        <ele>957.79998779296875</ele>
        <time>2026-06-17T07:40:17.000Z</time>
        <extensions>
          <ns3:TrackPointExtension>
            <ns3:atemp>16.0</ns3:atemp>
          </ns3:TrackPointExtension>
        </extensions>
      </trkpt>
      <trkpt lat="42.59415599517524242401123046875" lon="19.942744038999080657958984375">
        <ele>957.79998779296875</ele>
        <time>2026-06-17T07:40:18.000Z</time>
        <extensions>
          <ns3:TrackPointExtension>
            <ns3:atemp>16.0</ns3:atemp>
          </ns3:TrackPointExtension>
        </extensions>
      </trkpt>
      <trkpt lat="42.594164796173572540283203125" lon="19.942759461700916290283203125">
        <ele>957.5999755859375</ele>
        <time>2026-06-17T07:40:19.000Z</time>
        <extensions>
          <ns3:TrackPointExtension>
            <ns3:atemp>16.0</ns3:atemp>
          </ns3:TrackPointExtension>
        </extensions>
      </trkpt>
      <trkpt lat="42.59416605345904827117919921875" lon="19.94276516139507293701171875">
        <ele>957.5999755859375</ele>
        <time>2026-06-17T07:40:20.000Z</time>
        <extensions>
          <ns3:TrackPointExtension>
            <ns3:atemp>16.0</ns3:atemp>
          </ns3:TrackPointExtension>
        </extensions>
      </trkpt>
      <trkpt lat="42.594171501696109771728515625" lon="19.9427747167646884918212890625">
        <ele>957.5999755859375</ele>
        <time>2026-06-17T07:40:21.000Z</time>
        <extensions>
          <ns3:TrackPointExtension>
            <ns3:atemp>16.0</ns3:atemp>
          </ns3:TrackPointExtension>
        </extensions>
      </trkpt>
      <trkpt lat="42.59417627938091754913330078125" lon="19.94278351776301860809326171875">
        <ele>957.5999755859375</ele>
        <time>2026-06-17T07:40:22.000Z</time>
        <extensions>
          <ns3:TrackPointExtension>
            <ns3:atemp>16.0</ns3:atemp>
          </ns3:TrackPointExtension>
        </extensions>
      </trkpt>
      <trkpt lat="42.5941827334463596343994140625" lon="19.942795000970363616943359375">
        <ele>957.4000244140625</ele>
        <time>2026-06-17T07:40:23.000Z</time>
        <extensions>
          <ns3:TrackPointExtension>
            <ns3:atemp>16.0</ns3:atemp>
          </ns3:TrackPointExtension>
        </extensions>
      </trkpt>
      <trkpt lat="42.59420276619493961334228515625" lon="19.9428008683025836944580078125">
        <ele>957.4000244140625</ele>
        <time>2026-06-17T07:40:24.000Z</time>
        <extensions>
          <ns3:TrackPointExtension>
            <ns3:atemp>16.0</ns3:atemp>
          </ns3:TrackPointExtension>
        </extensions>
      </trkpt>
      <trkpt lat="42.59422489441931247711181640625" lon="19.94279894046485424041748046875">
        <ele>957.20001220703125</ele>
        <time>2026-06-17T07:40:25.000Z</time>
        <extensions>
          <ns3:TrackPointExtension>
            <ns3:atemp>16.0</ns3:atemp>
          </ns3:TrackPointExtension>
        </extensions>
      </trkpt>
      <trkpt lat="42.5942528061568737030029296875" lon="19.942789971828460693359375">
        <ele>957.20001220703125</ele>
        <time>2026-06-17T07:40:26.000Z</time>
        <extensions>
          <ns3:TrackPointExtension>
            <ns3:atemp>16.0</ns3:atemp>
          </ns3:TrackPointExtension>
        </extensions>
      </trkpt>
      <trkpt lat="42.59427920915186405181884765625" lon="19.94278670288622379302978515625">
        <ele>957</ele>
        <time>2026-06-17T07:40:27.000Z</time>
        <extensions>
          <ns3:TrackPointExtension>
            <ns3:atemp>16.0</ns3:atemp>
          </ns3:TrackPointExtension>
        </extensions>
      </trkpt>
      <trkpt lat="42.594304941594600677490234375" lon="19.942782260477542877197265625">
        <ele>957</ele>
        <time>2026-06-17T07:40:28.000Z</time>
        <extensions>
          <ns3:TrackPointExtension>
            <ns3:atemp>16.0</ns3:atemp>
          </ns3:TrackPointExtension>
        </extensions>
      </trkpt>
      <trkpt lat="42.59433402679860591888427734375" lon="19.94277656078338623046875">
        <ele>956.79998779296875</ele>
        <time>2026-06-17T07:40:29.000Z</time>
        <extensions>
          <ns3:TrackPointExtension>
            <ns3:atemp>16.0</ns3:atemp>
          </ns3:TrackPointExtension>
        </extensions>
      </trkpt>
      <trkpt lat="42.59436185471713542938232421875" lon="19.94277832098305225372314453125">
        <ele>956.79998779296875</ele>
        <time>2026-06-17T07:40:30.000Z</time>
        <extensions>
          <ns3:TrackPointExtension>
            <ns3:atemp>16.0</ns3:atemp>
          </ns3:TrackPointExtension>
        </extensions>
      </trkpt>
      <trkpt lat="42.59438574314117431640625" lon="19.94279692880809307098388671875">
        <ele>956.5999755859375</ele>
        <time>2026-06-17T07:40:31.000Z</time>
        <extensions>
          <ns3:TrackPointExtension>
            <ns3:atemp>16.0</ns3:atemp>
          </ns3:TrackPointExtension>
        </extensions>
      </trkpt>
      <trkpt lat="42.59439404122531414031982421875" lon="19.94282576255500316619873046875">
        <ele>956.4000244140625</ele>
        <time>2026-06-17T07:40:32.000Z</time>
        <extensions>
          <ns3:TrackPointExtension>
            <ns3:atemp>16.0</ns3:atemp>
          </ns3:TrackPointExtension>
        </extensions>
      </trkpt>
      <trkpt lat="42.59439789690077304840087890625" lon="19.942854009568691253662109375">
        <ele>956.4000244140625</ele>
        <time>2026-06-17T07:40:33.000Z</time>
        <extensions>
          <ns3:TrackPointExtension>
            <ns3:atemp>16.0</ns3:atemp>
          </ns3:TrackPointExtension>
        </extensions>
      </trkpt>
      <trkpt lat="42.5944043509662151336669921875" lon="19.942882843315601348876953125">
        <ele>956.4000244140625</ele>
        <time>2026-06-17T07:40:34.000Z</time>
        <extensions>
          <ns3:TrackPointExtension>
            <ns3:atemp>16.0</ns3:atemp>
          </ns3:TrackPointExtension>
        </extensions>
      </trkpt>
      <trkpt lat="42.59441331960260868072509765625" lon="19.9429229088127613067626953125">
        <ele>956.4000244140625</ele>
        <time>2026-06-17T07:40:35.000Z</time>
        <extensions>
          <ns3:TrackPointExtension>
            <ns3:atemp>16.0</ns3:atemp>
          </ns3:TrackPointExtension>
        </extensions>
      </trkpt>
      <trkpt lat="42.5944221206009387969970703125" lon="19.94295953772962093353271484375">
        <ele>956.4000244140625</ele>
        <time>2026-06-17T07:40:36.000Z</time>
        <extensions>
          <ns3:TrackPointExtension>
            <ns3:atemp>16.0</ns3:atemp>
          </ns3:TrackPointExtension>
        </extensions>
      </trkpt>
      <trkpt lat="42.59442932903766632080078125" lon="19.94299641810357570648193359375">
        <ele>956.4000244140625</ele>
        <time>2026-06-17T07:40:37.000Z</time>
        <extensions>
          <ns3:TrackPointExtension>
            <ns3:atemp>16.0</ns3:atemp>
          </ns3:TrackPointExtension>
        </extensions>
      </trkpt>
      <trkpt lat="42.5944382138550281524658203125" lon="19.94303698651492595672607421875">
        <ele>956.4000244140625</ele>
        <time>2026-06-17T07:40:38.000Z</time>
        <extensions>
          <ns3:TrackPointExtension>
            <ns3:atemp>16.0</ns3:atemp>
          </ns3:TrackPointExtension>
        </extensions>
      </trkpt>
      <trkpt lat="42.59444835595786571502685546875" lon="19.9430804885923862457275390625">
        <ele>956.4000244140625</ele>
        <time>2026-06-17T07:40:39.000Z</time>
        <extensions>
          <ns3:TrackPointExtension>
            <ns3:atemp>16.0</ns3:atemp>
          </ns3:TrackPointExtension>
        </extensions>
      </trkpt>
      <trkpt lat="42.59446210227906703948974609375" lon="19.94312097318470478057861328125">
        <ele>956.4000244140625</ele>
        <time>2026-06-17T07:40:40.000Z</time>
        <extensions>
          <ns3:TrackPointExtension>
            <ns3:atemp>16.0</ns3:atemp>
          </ns3:TrackPointExtension>
        </extensions>
      </trkpt>
      <trkpt lat="42.594479620456695556640625" lon="19.94316070340573787689208984375">
        <ele>956.5999755859375</ele>
        <time>2026-06-17T07:40:41.000Z</time>
        <extensions>
          <ns3:TrackPointExtension>
            <ns3:atemp>16.0</ns3:atemp>
          </ns3:TrackPointExtension>
        </extensions>
      </trkpt>
      <trkpt lat="42.59449479170143604278564453125" lon="19.943205378949642181396484375">
        <ele>956.5999755859375</ele>
        <time>2026-06-17T07:40:42.000Z</time>
        <extensions>
          <ns3:TrackPointExtension>
            <ns3:atemp>16.0</ns3:atemp>
          </ns3:TrackPointExtension>
        </extensions>
      </trkpt>
      <trkpt lat="42.59451306425034999847412109375" lon="19.9432471208274364471435546875">
        <ele>956.5999755859375</ele>
        <time>2026-06-17T07:40:43.000Z</time>
        <extensions>
          <ns3:TrackPointExtension>
            <ns3:atemp>16.0</ns3:atemp>
          </ns3:TrackPointExtension>
        </extensions>
      </trkpt>
      <trkpt lat="42.59452865459024906158447265625" lon="19.94329716078937053680419921875">
        <ele>956.79998779296875</ele>
        <time>2026-06-17T07:40:44.000Z</time>
        <extensions>
          <ns3:TrackPointExtension>
            <ns3:atemp>16.0</ns3:atemp>
          </ns3:TrackPointExtension>
        </extensions>
      </trkpt>
      <trkpt lat="42.59455095045268535614013671875" lon="19.9433384835720062255859375">
        <ele>956.79998779296875</ele>
        <time>2026-06-17T07:40:45.000Z</time>
        <extensions>
          <ns3:TrackPointExtension>
            <ns3:atemp>16.0</ns3:atemp>
          </ns3:TrackPointExtension>
        </extensions>
      </trkpt>
      <trkpt lat="42.594573497772216796875" lon="19.94337829761207103729248046875">
        <ele>956.79998779296875</ele>
        <time>2026-06-17T07:40:46.000Z</time>
        <extensions>
          <ns3:TrackPointExtension>
            <ns3:atemp>16.0</ns3:atemp>
          </ns3:TrackPointExtension>
        </extensions>
      </trkpt>
      <trkpt lat="42.59459302760660648345947265625" lon="19.94341400451958179473876953125">
        <ele>956.79998779296875</ele>
        <time>2026-06-17T07:40:47.000Z</time>
        <extensions>
          <ns3:TrackPointExtension>
            <ns3:atemp>16.0</ns3:atemp>
          </ns3:TrackPointExtension>
        </extensions>
      </trkpt>
      <trkpt lat="42.59461104869842529296875" lon="19.94345842860639095306396484375">
        <ele>956.79998779296875</ele>
        <time>2026-06-17T07:40:48.000Z</time>
        <extensions>
          <ns3:TrackPointExtension>
            <ns3:atemp>16.0</ns3:atemp>
          </ns3:TrackPointExtension>
        </extensions>
      </trkpt>
      <trkpt lat="42.59463074617087841033935546875" lon="19.94349380023777484893798828125">
        <ele>956.79998779296875</ele>
        <time>2026-06-17T07:40:49.000Z</time>
        <extensions>
          <ns3:TrackPointExtension>
            <ns3:atemp>16.0</ns3:atemp>
          </ns3:TrackPointExtension>
        </extensions>
      </trkpt>
      <trkpt lat="42.59465086273849010467529296875" lon="19.9435223825275897979736328125">
        <ele>956.79998779296875</ele>
        <time>2026-06-17T07:40:50.000Z</time>
        <extensions>
          <ns3:TrackPointExtension>
            <ns3:atemp>16.0</ns3:atemp>
          </ns3:TrackPointExtension>
        </extensions>
      </trkpt>
      <trkpt lat="42.59467064402997493743896484375" lon="19.943552725017070770263671875">
        <ele>956.79998779296875</ele>
        <time>2026-06-17T07:40:51.000Z</time>
        <extensions>
          <ns3:TrackPointExtension>
            <ns3:atemp>16.0</ns3:atemp>
          </ns3:TrackPointExtension>
        </extensions>
      </trkpt>
      <trkpt lat="42.5946920178830623626708984375" lon="19.9435787089169025421142578125">
        <ele>956.79998779296875</ele>
        <time>2026-06-17T07:40:52.000Z</time>
        <extensions>
          <ns3:TrackPointExtension>
            <ns3:atemp>16.0</ns3:atemp>
          </ns3:TrackPointExtension>
        </extensions>
      </trkpt>
      <trkpt lat="42.5947124697268009185791015625" lon="19.9436085484921932220458984375">
        <ele>956.79998779296875</ele>
        <time>2026-06-17T07:40:53.000Z</time>
        <extensions>
          <ns3:TrackPointExtension>
            <ns3:atemp>16.0</ns3:atemp>
          </ns3:TrackPointExtension>
        </extensions>
      </trkpt>
      <trkpt lat="42.59473551996052265167236328125" lon="19.94363687932491302490234375">
        <ele>957</ele>
        <time>2026-06-17T07:40:54.000Z</time>
        <extensions>
          <ns3:TrackPointExtension>
            <ns3:atemp>16.0</ns3:atemp>
          </ns3:TrackPointExtension>
        </extensions>
      </trkpt>
      <trkpt lat="42.5947550497949123382568359375" lon="19.9436581693589687347412109375">
        <ele>957.20001220703125</ele>
        <time>2026-06-17T07:40:55.000Z</time>
        <extensions>
          <ns3:TrackPointExtension>
            <ns3:atemp>16.0</ns3:atemp>
          </ns3:TrackPointExtension>
        </extensions>
      </trkpt>
      <trkpt lat="42.59477131068706512451171875" lon="19.94368054904043674468994140625">
        <ele>957.5999755859375</ele>
        <time>2026-06-17T07:40:56.000Z</time>
        <extensions>
          <ns3:TrackPointExtension>
            <ns3:atemp>16.0</ns3:atemp>
          </ns3:TrackPointExtension>
        </extensions>
      </trkpt>
      <trkpt lat="42.59478396736085414886474609375" lon="19.94370435364544391632080078125">
        <ele>957.79998779296875</ele>
        <time>2026-06-17T07:40:57.000Z</time>
        <extensions>
          <ns3:TrackPointExtension>
            <ns3:atemp>16.0</ns3:atemp>
          </ns3:TrackPointExtension>
        </extensions>
      </trkpt>
      <trkpt lat="42.59479016996920108795166015625" lon="19.94373612105846405029296875">
        <ele>957.79998779296875</ele>
        <time>2026-06-17T07:40:58.000Z</time>
        <extensions>
          <ns3:TrackPointExtension>
            <ns3:atemp>16.0</ns3:atemp>
          </ns3:TrackPointExtension>
        </extensions>
      </trkpt>
      <trkpt lat="42.59478715248405933380126953125" lon="19.94377509690821170806884765625">
        <ele>958</ele>
        <time>2026-06-17T07:40:59.000Z</time>
        <extensions>
          <ns3:TrackPointExtension>
            <ns3:atemp>16.0</ns3:atemp>
          </ns3:TrackPointExtension>
        </extensions>
      </trkpt>
      <trkpt lat="42.5947751663625240325927734375" lon="19.9438073672354221343994140625">
        <ele>958</ele>
        <time>2026-06-17T07:41:00.000Z</time>
        <extensions>
          <ns3:TrackPointExtension>
            <ns3:atemp>16.0</ns3:atemp>
          </ns3:TrackPointExtension>
        </extensions>
      </trkpt>
      <trkpt lat="42.594760246574878692626953125" lon="19.94383242912590503692626953125">
        <ele>958.20001220703125</ele>
        <time>2026-06-17T07:41:01.000Z</time>
        <extensions>
          <ns3:TrackPointExtension>
            <ns3:atemp>16.0</ns3:atemp>
          </ns3:TrackPointExtension>
        </extensions>
      </trkpt>
      <trkpt lat="42.59474541060626506805419921875" lon="19.94385707192122936248779296875">
        <ele>958.4000244140625</ele>
        <time>2026-06-17T07:41:02.000Z</time>
        <extensions>
          <ns3:TrackPointExtension>
            <ns3:atemp>16.0</ns3:atemp>
          </ns3:TrackPointExtension>
        </extensions>
      </trkpt>
      <trkpt lat="42.59472445584833621978759765625" lon="19.9438868276774883270263671875">
        <ele>958.5999755859375</ele>
        <time>2026-06-17T07:41:03.000Z</time>
        <extensions>
          <ns3:TrackPointExtension>
            <ns3:atemp>16.0</ns3:atemp>
          </ns3:TrackPointExtension>
        </extensions>
      </trkpt>
      <trkpt lat="42.5947044230997562408447265625" lon="19.94391742162406444549560546875">
        <ele>958.79998779296875</ele>
        <time>2026-06-17T07:41:04.000Z</time>
        <extensions>
          <ns3:TrackPointExtension>
            <ns3:atemp>16.0</ns3:atemp>
          </ns3:TrackPointExtension>
        </extensions>
      </trkpt>
      <trkpt lat="42.59468371979892253875732421875" lon="19.94394935667514801025390625">
        <ele>959</ele>
        <time>2026-06-17T07:41:05.000Z</time>
        <extensions>
          <ns3:TrackPointExtension>
            <ns3:atemp>16.0</ns3:atemp>
          </ns3:TrackPointExtension>
        </extensions>
      </trkpt>
      <trkpt lat="42.59466192685067653656005859375" lon="19.943984560668468475341796875">
        <ele>959.20001220703125</ele>
        <time>2026-06-17T07:41:06.000Z</time>
        <extensions>
          <ns3:TrackPointExtension>
            <ns3:atemp>16.0</ns3:atemp>
          </ns3:TrackPointExtension>
        </extensions>
      </trkpt>
      <trkpt lat="42.59464382193982601165771484375" lon="19.944014064967632293701171875">
        <ele>959.4000244140625</ele>
        <time>2026-06-17T07:41:07.000Z</time>
        <extensions>
          <ns3:TrackPointExtension>
            <ns3:atemp>16.0</ns3:atemp>
          </ns3:TrackPointExtension>
        </extensions>
      </trkpt>
      <trkpt lat="42.59462873451411724090576171875" lon="19.944044910371303558349609375">
        <ele>959.5999755859375</ele>
        <time>2026-06-17T07:41:08.000Z</time>
        <extensions>
          <ns3:TrackPointExtension>
            <ns3:atemp>16.0</ns3:atemp>
          </ns3:TrackPointExtension>
        </extensions>
      </trkpt>
      <trkpt lat="42.59461171925067901611328125" lon="19.944072067737579345703125">
        <ele>959.79998779296875</ele>
        <time>2026-06-17T07:41:09.000Z</time>
        <extensions>
          <ns3:TrackPointExtension>
            <ns3:atemp>16.0</ns3:atemp>
          </ns3:TrackPointExtension>
        </extensions>
      </trkpt>
      <trkpt lat="42.59459160268306732177734375" lon="19.9441029131412506103515625">
        <ele>960</ele>
        <time>2026-06-17T07:41:10.000Z</time>
        <extensions>
          <ns3:TrackPointExtension>
            <ns3:atemp>16.0</ns3:atemp>
          </ns3:TrackPointExtension>
        </extensions>
      </trkpt>
      <trkpt lat="42.5945726595818996429443359375" lon="19.944133758544921875">
        <ele>960.20001220703125</ele>
        <time>2026-06-17T07:41:11.000Z</time>
        <extensions>
          <ns3:TrackPointExtension>
            <ns3:atemp>16.0</ns3:atemp>
          </ns3:TrackPointExtension>
        </extensions>
      </trkpt>
      <trkpt lat="42.59455564431846141815185546875" lon="19.94416619651019573211669921875">
        <ele>960.4000244140625</ele>
        <time>2026-06-17T07:41:12.000Z</time>
        <extensions>
          <ns3:TrackPointExtension>
            <ns3:atemp>17.0</ns3:atemp>
          </ns3:TrackPointExtension>
        </extensions>
      </trkpt>
      <trkpt lat="42.59453418664634227752685546875" lon="19.9441962875425815582275390625">
        <ele>960.4000244140625</ele>
        <time>2026-06-17T07:41:13.000Z</time>
        <extensions>
          <ns3:TrackPointExtension>
            <ns3:atemp>17.0</ns3:atemp>
          </ns3:TrackPointExtension>
        </extensions>
      </trkpt>
      <trkpt lat="42.59451457299292087554931640625" lon="19.94422688148915767669677734375">
        <ele>960.5999755859375</ele>
        <time>2026-06-17T07:41:14.000Z</time>
        <extensions>
          <ns3:TrackPointExtension>
            <ns3:atemp>17.0</ns3:atemp>
          </ns3:TrackPointExtension>
        </extensions>
      </trkpt>
      <trkpt lat="42.5944935344159603118896484375" lon="19.9442542903125286102294921875">
        <ele>960.79998779296875</ele>
        <time>2026-06-17T07:41:15.000Z</time>
        <extensions>
          <ns3:TrackPointExtension>
            <ns3:atemp>16.0</ns3:atemp>
          </ns3:TrackPointExtension>
        </extensions>
      </trkpt>
      <trkpt lat="42.594474256038665771484375" lon="19.944281280040740966796875">
        <ele>960.79998779296875</ele>
        <time>2026-06-17T07:41:16.000Z</time>
        <extensions>
          <ns3:TrackPointExtension>
            <ns3:atemp>16.0</ns3:atemp>
          </ns3:TrackPointExtension>
        </extensions>
      </trkpt>
      <trkpt lat="42.594457827508449554443359375" lon="19.94430583901703357696533203125">
        <ele>961</ele>
        <time>2026-06-17T07:41:17.000Z</time>
        <extensions>
          <ns3:TrackPointExtension>
            <ns3:atemp>16.0</ns3:atemp>
          </ns3:TrackPointExtension>
        </extensions>
      </trkpt>
      <trkpt lat="42.59444131515920162200927734375" lon="19.9443267099559307098388671875">
        <ele>961.20001220703125</ele>
        <time>2026-06-17T07:41:18.000Z</time>
        <extensions>
          <ns3:TrackPointExtension>
            <ns3:atemp>16.0</ns3:atemp>
          </ns3:TrackPointExtension>
        </extensions>
      </trkpt>
      <trkpt lat="42.5944232940673828125" lon="19.94435059837996959686279296875">
        <ele>961.20001220703125</ele>
        <time>2026-06-17T07:41:19.000Z</time>
        <extensions>
          <ns3:TrackPointExtension>
            <ns3:atemp>16.0</ns3:atemp>
          </ns3:TrackPointExtension>
        </extensions>
      </trkpt>
      <trkpt lat="42.59440409950911998748779296875" lon="19.9443796835839748382568359375">
        <ele>961.4000244140625</ele>
        <time>2026-06-17T07:41:20.000Z</time>
        <extensions>
          <ns3:TrackPointExtension>
            <ns3:atemp>16.0</ns3:atemp>
          </ns3:TrackPointExtension>
        </extensions>
      </trkpt>
      <trkpt lat="42.59438507258892059326171875" lon="19.94440742768347263336181640625">
        <ele>961.4000244140625</ele>
        <time>2026-06-17T07:41:21.000Z</time>
        <extensions>
          <ns3:TrackPointExtension>
            <ns3:atemp>17.0</ns3:atemp>
          </ns3:TrackPointExtension>
        </extensions>
      </trkpt>
      <trkpt lat="42.5943656265735626220703125" lon="19.94444028474390506744384765625">
        <ele>961.5999755859375</ele>
        <time>2026-06-17T07:41:22.000Z</time>
        <extensions>
          <ns3:TrackPointExtension>
            <ns3:atemp>17.0</ns3:atemp>
          </ns3:TrackPointExtension>
        </extensions>
      </trkpt>
      <trkpt lat="42.59434626437723636627197265625" lon="19.94446610100567340850830078125">
        <ele>961.5999755859375</ele>
        <time>2026-06-17T07:41:23.000Z</time>
        <extensions>
          <ns3:TrackPointExtension>
            <ns3:atemp>17.0</ns3:atemp>
          </ns3:TrackPointExtension>
        </extensions>
      </trkpt>
      <trkpt lat="42.59433050639927387237548828125" lon="19.9444936774671077728271484375">
        <ele>961.79998779296875</ele>
        <time>2026-06-17T07:41:24.000Z</time>
        <extensions>
          <ns3:TrackPointExtension>
            <ns3:atemp>17.0</ns3:atemp>
          </ns3:TrackPointExtension>
        </extensions>
      </trkpt>
      <trkpt lat="42.59430988691747188568115234375" lon="19.94451890699565410614013671875">
        <ele>962</ele>
        <time>2026-06-17T07:41:25.000Z</time>
        <extensions>
          <ns3:TrackPointExtension>
            <ns3:atemp>17.0</ns3:atemp>
          </ns3:TrackPointExtension>
        </extensions>
      </trkpt>
      <trkpt lat="42.5942910276353359222412109375" lon="19.9445473216474056243896484375">
        <ele>962</ele>
        <time>2026-06-17T07:41:26.000Z</time>
        <extensions>
          <ns3:TrackPointExtension>
            <ns3:atemp>17.0</ns3:atemp>
          </ns3:TrackPointExtension>
        </extensions>
      </trkpt>
      <trkpt lat="42.5942725874483585357666015625" lon="19.944571293890476226806640625">
        <ele>962.20001220703125</ele>
        <time>2026-06-17T07:41:27.000Z</time>
        <extensions>
          <ns3:TrackPointExtension>
            <ns3:atemp>17.0</ns3:atemp>
          </ns3:TrackPointExtension>
        </extensions>
      </trkpt>
      <trkpt lat="42.5942516326904296875" lon="19.94459752924740314483642578125">
        <ele>962.4000244140625</ele>
        <time>2026-06-17T07:41:28.000Z</time>
        <extensions>
          <ns3:TrackPointExtension>
            <ns3:atemp>17.0</ns3:atemp>
          </ns3:TrackPointExtension>
        </extensions>
      </trkpt>
      <trkpt lat="42.5942283309996128082275390625" lon="19.9446286261081695556640625">
        <ele>962.4000244140625</ele>
        <time>2026-06-17T07:41:29.000Z</time>
        <extensions>
          <ns3:TrackPointExtension>
            <ns3:atemp>17.0</ns3:atemp>
          </ns3:TrackPointExtension>
        </extensions>
      </trkpt>
      <trkpt lat="42.59420494548976421356201171875" lon="19.94465888477861881256103515625">
        <ele>962.5999755859375</ele>
        <time>2026-06-17T07:41:30.000Z</time>
        <extensions>
          <ns3:TrackPointExtension>
            <ns3:atemp>17.0</ns3:atemp>
          </ns3:TrackPointExtension>
        </extensions>
      </trkpt>
      <trkpt lat="42.594180889427661895751953125" lon="19.94468755088746547698974609375">
        <ele>962.5999755859375</ele>
        <time>2026-06-17T07:41:31.000Z</time>
        <extensions>
          <ns3:TrackPointExtension>
            <ns3:atemp>17.0</ns3:atemp>
          </ns3:TrackPointExtension>
        </extensions>
      </trkpt>
      <trkpt lat="42.5941562466323375701904296875" lon="19.9447139538824558258056640625">
        <ele>962.79998779296875</ele>
        <time>2026-06-17T07:41:32.000Z</time>
        <extensions>
          <ns3:TrackPointExtension>
            <ns3:atemp>17.0</ns3:atemp>
          </ns3:TrackPointExtension>
        </extensions>
      </trkpt>
      <trkpt lat="42.59413084946572780609130859375" lon="19.94474421255290508270263671875">
        <ele>962.79998779296875</ele>
        <time>2026-06-17T07:41:33.000Z</time>
        <extensions>
          <ns3:TrackPointExtension>
            <ns3:atemp>17.0</ns3:atemp>
          </ns3:TrackPointExtension>
        </extensions>
      </trkpt>
      <trkpt lat="42.59410302154719829559326171875" lon="19.94477857835590839385986328125">
        <ele>962.79998779296875</ele>
        <time>2026-06-17T07:41:34.000Z</time>
        <extensions>
          <ns3:TrackPointExtension>
            <ns3:atemp>17.0</ns3:atemp>
          </ns3:TrackPointExtension>
        </extensions>
      </trkpt>
      <trkpt lat="42.5940724276006221771240234375" lon="19.9448145367205142974853515625">
        <ele>963</ele>
        <time>2026-06-17T07:41:35.000Z</time>
        <extensions>
          <ns3:TrackPointExtension>
            <ns3:atemp>17.0</ns3:atemp>
          </ns3:TrackPointExtension>
        </extensions>
      </trkpt>
      <trkpt lat="42.59404116310179233551025390625" lon="19.9448494054377079010009765625">
        <ele>963</ele>
        <time>2026-06-17T07:41:36.000Z</time>
        <extensions>
          <ns3:TrackPointExtension>
            <ns3:atemp>17.0</ns3:atemp>
          </ns3:TrackPointExtension>
        </extensions>
      </trkpt>
      <trkpt lat="42.59400847367942333221435546875" lon="19.94488553144037723541259765625">
        <ele>963.20001220703125</ele>
        <time>2026-06-17T07:41:37.000Z</time>
        <extensions>
          <ns3:TrackPointExtension>
            <ns3:atemp>17.0</ns3:atemp>
          </ns3:TrackPointExtension>
        </extensions>
      </trkpt>
      <trkpt lat="42.5939782150089740753173828125" lon="19.94492140598595142364501953125">
        <ele>963.20001220703125</ele>
        <time>2026-06-17T07:41:38.000Z</time>
        <extensions>
          <ns3:TrackPointExtension>
            <ns3:atemp>17.0</ns3:atemp>
          </ns3:TrackPointExtension>
        </extensions>
      </trkpt>
      <trkpt lat="42.59394787251949310302734375" lon="19.9449550174176692962646484375">
        <ele>963.20001220703125</ele>
        <time>2026-06-17T07:41:39.000Z</time>
        <extensions>
          <ns3:TrackPointExtension>
            <ns3:atemp>17.0</ns3:atemp>
          </ns3:TrackPointExtension>
        </extensions>
      </trkpt>
      <trkpt lat="42.5939165242016315460205078125" lon="19.94499147869646549224853515625">
        <ele>963.4000244140625</ele>
        <time>2026-06-17T07:41:40.000Z</time>
        <extensions>
          <ns3:TrackPointExtension>
            <ns3:atemp>17.0</ns3:atemp>
          </ns3:TrackPointExtension>
        </extensions>
      </trkpt>
      <trkpt lat="42.593887187540531158447265625" lon="19.94502986781299114227294921875">
        <ele>963.4000244140625</ele>
        <time>2026-06-17T07:41:41.000Z</time>
        <extensions>
          <ns3:TrackPointExtension>
            <ns3:atemp>17.0</ns3:atemp>
          </ns3:TrackPointExtension>
        </extensions>
      </trkpt>
      <trkpt lat="42.5938605330884456634521484375" lon="19.9450716935098171234130859375">
        <ele>963.4000244140625</ele>
        <time>2026-06-17T07:41:42.000Z</time>
        <extensions>
          <ns3:TrackPointExtension>
            <ns3:atemp>17.0</ns3:atemp>
          </ns3:TrackPointExtension>
        </extensions>
      </trkpt>
      <trkpt lat="42.5938373990356922149658203125" lon="19.94510983116924762725830078125">
        <ele>963.5999755859375</ele>
        <time>2026-06-17T07:41:43.000Z</time>
        <extensions>
          <ns3:TrackPointExtension>
            <ns3:atemp>17.0</ns3:atemp>
          </ns3:TrackPointExtension>
        </extensions>
      </trkpt>
      <trkpt lat="42.59381242096424102783203125" lon="19.9451471306383609771728515625">
        <ele>963.5999755859375</ele>
        <time>2026-06-17T07:41:44.000Z</time>
        <extensions>
          <ns3:TrackPointExtension>
            <ns3:atemp>17.0</ns3:atemp>
          </ns3:TrackPointExtension>
        </extensions>
      </trkpt>
      <trkpt lat="42.5937862694263458251953125" lon="19.94518677704036235809326171875">
        <ele>963.5999755859375</ele>
        <time>2026-06-17T07:41:45.000Z</time>
        <extensions>
          <ns3:TrackPointExtension>
            <ns3:atemp>17.0</ns3:atemp>
          </ns3:TrackPointExtension>
        </extensions>
      </trkpt>
      <trkpt lat="42.59376154281198978424072265625" lon="19.94522868655622005462646484375">
        <ele>963.79998779296875</ele>
        <time>2026-06-17T07:41:46.000Z</time>
        <extensions>
          <ns3:TrackPointExtension>
            <ns3:atemp>17.0</ns3:atemp>
          </ns3:TrackPointExtension>
        </extensions>
      </trkpt>
      <trkpt lat="42.59373773820698261260986328125" lon="19.94526824913918972015380859375">
        <ele>963.79998779296875</ele>
        <time>2026-06-17T07:41:47.000Z</time>
        <extensions>
          <ns3:TrackPointExtension>
            <ns3:atemp>17.0</ns3:atemp>
          </ns3:TrackPointExtension>
        </extensions>
      </trkpt>
      <trkpt lat="42.59371661581099033355712890625" lon="19.9453047104179859161376953125">
        <ele>964</ele>
        <time>2026-06-17T07:41:48.000Z</time>
        <extensions>
          <ns3:TrackPointExtension>
            <ns3:atemp>17.0</ns3:atemp>
          </ns3:TrackPointExtension>
        </extensions>
      </trkpt>
      <trkpt lat="42.59369381703436374664306640625" lon="19.9453462846577167510986328125">
        <ele>964.20001220703125</ele>
        <time>2026-06-17T07:41:49.000Z</time>
        <extensions>
          <ns3:TrackPointExtension>
            <ns3:atemp>17.0</ns3:atemp>
          </ns3:TrackPointExtension>
        </extensions>
      </trkpt>
      <trkpt lat="42.593669593334197998046875" lon="19.9453892000019550323486328125">
        <ele>964.20001220703125</ele>
        <time>2026-06-17T07:41:50.000Z</time>
        <extensions>
          <ns3:TrackPointExtension>
            <ns3:atemp>17.0</ns3:atemp>
          </ns3:TrackPointExtension>
        </extensions>
      </trkpt>
      <trkpt lat="42.59364889003336429595947265625" lon="19.945431612432003021240234375">
        <ele>964.20001220703125</ele>
        <time>2026-06-17T07:41:51.000Z</time>
        <extensions>
          <ns3:TrackPointExtension>
            <ns3:atemp>17.0</ns3:atemp>
          </ns3:TrackPointExtension>
        </extensions>
      </trkpt>
      <trkpt lat="42.5936275161802768707275390625" lon="19.94547226466238498687744140625">
        <ele>964.4000244140625</ele>
        <time>2026-06-17T07:41:52.000Z</time>
        <extensions>
          <ns3:TrackPointExtension>
            <ns3:atemp>17.0</ns3:atemp>
          </ns3:TrackPointExtension>
        </extensions>
      </trkpt>
      <trkpt lat="42.59360731579363346099853515625" lon="19.945509396493434906005859375">
        <ele>964.4000244140625</ele>
        <time>2026-06-17T07:41:53.000Z</time>
        <extensions>
          <ns3:TrackPointExtension>
            <ns3:atemp>17.0</ns3:atemp>
          </ns3:TrackPointExtension>
        </extensions>
      </trkpt>
      <trkpt lat="42.59359004907310009002685546875" lon="19.945547617971897125244140625">
        <ele>964.4000244140625</ele>
        <time>2026-06-17T07:41:54.000Z</time>
        <extensions>
          <ns3:TrackPointExtension>
            <ns3:atemp>17.0</ns3:atemp>
          </ns3:TrackPointExtension>
        </extensions>
      </trkpt>
      <trkpt lat="42.5935725308954715728759765625" lon="19.94558751583099365234375">
        <ele>964.5999755859375</ele>
        <time>2026-06-17T07:41:55.000Z</time>
        <extensions>
          <ns3:TrackPointExtension>
            <ns3:atemp>17.0</ns3:atemp>
          </ns3:TrackPointExtension>
        </extensions>
      </trkpt>
      <trkpt lat="42.59355786256492137908935546875" lon="19.945629425346851348876953125">
        <ele>964.5999755859375</ele>
        <time>2026-06-17T07:41:56.000Z</time>
        <extensions>
          <ns3:TrackPointExtension>
            <ns3:atemp>17.0</ns3:atemp>
          </ns3:TrackPointExtension>
        </extensions>
      </trkpt>
      <trkpt lat="42.593543864786624908447265625" lon="19.945677034556865692138671875">
        <ele>964.79998779296875</ele>
        <time>2026-06-17T07:41:57.000Z</time>
        <extensions>
          <ns3:TrackPointExtension>
            <ns3:atemp>17.0</ns3:atemp>
          </ns3:TrackPointExtension>
        </extensions>
      </trkpt>
      <trkpt lat="42.5935314595699310302734375" lon="19.9457234703004360198974609375">
        <ele>964.79998779296875</ele>
        <time>2026-06-17T07:41:58.000Z</time>
        <extensions>
          <ns3:TrackPointExtension>
            <ns3:atemp>17.0</ns3:atemp>
          </ns3:TrackPointExtension>
        </extensions>
      </trkpt>
      <trkpt lat="42.59351737797260284423828125" lon="19.945776946842670440673828125">
        <ele>965</ele>
        <time>2026-06-17T07:41:59.000Z</time>
        <extensions>
          <ns3:TrackPointExtension>
            <ns3:atemp>17.0</ns3:atemp>
          </ns3:TrackPointExtension>
        </extensions>
      </trkpt>
      <trkpt lat="42.593505643308162689208984375" lon="19.94582313112914562225341796875">
        <ele>965</ele>
        <time>2026-06-17T07:42:00.000Z</time>
        <extensions>
          <ns3:TrackPointExtension>
            <ns3:atemp>17.0</ns3:atemp>
          </ns3:TrackPointExtension>
        </extensions>
      </trkpt>
      <trkpt lat="42.59349457919597625732421875" lon="19.94586353190243244171142578125">
        <ele>965</ele>
        <time>2026-06-17T07:42:01.000Z</time>
        <extensions>
          <ns3:TrackPointExtension>
            <ns3:atemp>17.0</ns3:atemp>
          </ns3:TrackPointExtension>
        </extensions>
      </trkpt>
      <trkpt lat="42.59348544292151927947998046875" lon="19.94590510614216327667236328125">
        <ele>965.20001220703125</ele>
        <time>2026-06-17T07:42:02.000Z</time>
        <extensions>
          <ns3:TrackPointExtension>
            <ns3:atemp>17.0</ns3:atemp>
          </ns3:TrackPointExtension>
        </extensions>
      </trkpt>
      <trkpt lat="42.59347940795123577117919921875" lon="19.9459455907344818115234375">
        <ele>965.20001220703125</ele>
        <time>2026-06-17T07:42:03.000Z</time>
        <extensions>
          <ns3:TrackPointExtension>
            <ns3:atemp>17.0</ns3:atemp>
          </ns3:TrackPointExtension>
        </extensions>
      </trkpt>
      <trkpt lat="42.5934706069529056549072265625" lon="19.94598649442195892333984375">
        <ele>965.4000244140625</ele>
        <time>2026-06-17T07:42:04.000Z</time>
        <extensions>
          <ns3:TrackPointExtension>
            <ns3:atemp>17.0</ns3:atemp>
          </ns3:TrackPointExtension>
        </extensions>
      </trkpt>
      <trkpt lat="42.59346364997327327728271484375" lon="19.946029745042324066162109375">
        <ele>965.5999755859375</ele>
        <time>2026-06-17T07:42:05.000Z</time>
        <extensions>
          <ns3:TrackPointExtension>
            <ns3:atemp>17.0</ns3:atemp>
          </ns3:TrackPointExtension>
        </extensions>
      </trkpt>
      <trkpt lat="42.59345711208879947662353515625" lon="19.946074001491069793701171875">
        <ele>965.79998779296875</ele>
        <time>2026-06-17T07:42:06.000Z</time>
        <extensions>
          <ns3:TrackPointExtension>
            <ns3:atemp>17.0</ns3:atemp>
          </ns3:TrackPointExtension>
        </extensions>
      </trkpt>
      <trkpt lat="42.59345074184238910675048828125" lon="19.9461224488914012908935546875">
        <ele>966</ele>
        <time>2026-06-17T07:42:07.000Z</time>
        <extensions>
          <ns3:TrackPointExtension>
            <ns3:atemp>17.0</ns3:atemp>
          </ns3:TrackPointExtension>
        </extensions>
      </trkpt>
      <trkpt lat="42.5934488140046596527099609375" lon="19.9461682140827178955078125">
        <ele>966.20001220703125</ele>
        <time>2026-06-17T07:42:08.000Z</time>
        <extensions>
          <ns3:TrackPointExtension>
            <ns3:atemp>17.0</ns3:atemp>
          </ns3:TrackPointExtension>
        </extensions>
      </trkpt>
      <trkpt lat="42.59344940073788166046142578125" lon="19.946218840777873992919921875">
        <ele>966.20001220703125</ele>
        <time>2026-06-17T07:42:09.000Z</time>
        <extensions>
          <ns3:TrackPointExtension>
            <ns3:atemp>17.0</ns3:atemp>
          </ns3:TrackPointExtension>
        </extensions>
      </trkpt>
      <trkpt lat="42.59345258586108684539794921875" lon="19.94626686908304691314697265625">
        <ele>966.4000244140625</ele>
        <time>2026-06-17T07:42:10.000Z</time>
        <extensions>
          <ns3:TrackPointExtension>
            <ns3:atemp>17.0</ns3:atemp>
          </ns3:TrackPointExtension>
        </extensions>
      </trkpt>
      <trkpt lat="42.5934575311839580535888671875" lon="19.946313388645648956298828125">
        <ele>966.5999755859375</ele>
        <time>2026-06-17T07:42:11.000Z</time>
        <extensions>
          <ns3:TrackPointExtension>
            <ns3:atemp>17.0</ns3:atemp>
          </ns3:TrackPointExtension>
        </extensions>
      </trkpt>
      <trkpt lat="42.59346230886876583099365234375" lon="19.94635907001793384552001953125">
        <ele>966.5999755859375</ele>
        <time>2026-06-17T07:42:12.000Z</time>
        <extensions>
          <ns3:TrackPointExtension>
            <ns3:atemp>17.0</ns3:atemp>
          </ns3:TrackPointExtension>
        </extensions>
      </trkpt>
      <trkpt lat="42.593466751277446746826171875" lon="19.94640114717185497283935546875">
        <ele>966.79998779296875</ele>
        <time>2026-06-17T07:42:13.000Z</time>
        <extensions>
          <ns3:TrackPointExtension>
            <ns3:atemp>17.0</ns3:atemp>
          </ns3:TrackPointExtension>
        </extensions>
      </trkpt>
      <trkpt lat="42.5934670865535736083984375" lon="19.94644339196383953094482421875">
        <ele>967</ele>
        <time>2026-06-17T07:42:14.000Z</time>
        <extensions>
          <ns3:TrackPointExtension>
            <ns3:atemp>17.0</ns3:atemp>
          </ns3:TrackPointExtension>
        </extensions>
      </trkpt>
      <trkpt lat="42.593469433486461639404296875" lon="19.94648731313645839691162109375">
        <ele>967</ele>
        <time>2026-06-17T07:42:15.000Z</time>
        <extensions>
          <ns3:TrackPointExtension>
            <ns3:atemp>17.0</ns3:atemp>
          </ns3:TrackPointExtension>
        </extensions>
      </trkpt>
      <trkpt lat="42.59347178041934967041015625" lon="19.94653475470840930938720703125">
        <ele>967.20001220703125</ele>
        <time>2026-06-17T07:42:16.000Z</time>
        <extensions>
          <ns3:TrackPointExtension>
            <ns3:atemp>17.0</ns3:atemp>
          </ns3:TrackPointExtension>
        </extensions>
      </trkpt>
      <trkpt lat="42.593472786247730255126953125" lon="19.94658672250807285308837890625">
        <ele>967.4000244140625</ele>
        <time>2026-06-17T07:42:17.000Z</time>
        <extensions>
          <ns3:TrackPointExtension>
            <ns3:atemp>17.0</ns3:atemp>
          </ns3:TrackPointExtension>
        </extensions>
      </trkpt>
      <trkpt lat="42.5934726186096668243408203125" lon="19.9466377682983875274658203125">
        <ele>967.5999755859375</ele>
        <time>2026-06-17T07:42:18.000Z</time>
        <extensions>
          <ns3:TrackPointExtension>
            <ns3:atemp>17.0</ns3:atemp>
          </ns3:TrackPointExtension>
        </extensions>
      </trkpt>
      <trkpt lat="42.59347320534288883209228515625" lon="19.9466847069561481475830078125">
        <ele>967.79998779296875</ele>
        <time>2026-06-17T07:42:19.000Z</time>
        <extensions>
          <ns3:TrackPointExtension>
            <ns3:atemp>17.0</ns3:atemp>
          </ns3:TrackPointExtension>
        </extensions>
      </trkpt>
      <trkpt lat="42.5934719480574131011962890625" lon="19.94672670029103755950927734375">
        <ele>968</ele>
        <time>2026-06-17T07:42:20.000Z</time>
        <extensions>
          <ns3:TrackPointExtension>
            <ns3:atemp>17.0</ns3:atemp>
          </ns3:TrackPointExtension>
        </extensions>
      </trkpt>
      <trkpt lat="42.59347303770482540130615234375" lon="19.94676860980689525604248046875">
        <ele>968.20001220703125</ele>
        <time>2026-06-17T07:42:21.000Z</time>
        <extensions>
          <ns3:TrackPointExtension>
            <ns3:atemp>17.0</ns3:atemp>
          </ns3:TrackPointExtension>
        </extensions>
      </trkpt>
      <trkpt lat="42.59347320534288883209228515625" lon="19.94680096395313739776611328125">
        <ele>968.20001220703125</ele>
        <time>2026-06-17T07:42:22.000Z</time>
        <extensions>
          <ns3:TrackPointExtension>
            <ns3:atemp>17.0</ns3:atemp>
          </ns3:TrackPointExtension>
        </extensions>
      </trkpt>
      <trkpt lat="42.59347421117126941680908203125" lon="19.9468453042209148406982421875">
        <ele>968.4000244140625</ele>
        <time>2026-06-17T07:42:23.000Z</time>
        <extensions>
          <ns3:TrackPointExtension>
            <ns3:atemp>17.0</ns3:atemp>
          </ns3:TrackPointExtension>
        </extensions>
      </trkpt>
      <trkpt lat="42.59347203187644481658935546875" lon="19.94688528589904308319091796875">
        <ele>968.5999755859375</ele>
        <time>2026-06-17T07:42:24.000Z</time>
        <extensions>
          <ns3:TrackPointExtension>
            <ns3:atemp>17.0</ns3:atemp>
          </ns3:TrackPointExtension>
        </extensions>
      </trkpt>
      <trkpt lat="42.59346415288746356964111328125" lon="19.9469267763197422027587890625">
        <ele>968.79998779296875</ele>
        <time>2026-06-17T07:42:25.000Z</time>
        <extensions>
          <ns3:TrackPointExtension>
            <ns3:atemp>17.0</ns3:atemp>
          </ns3:TrackPointExtension>
        </extensions>
      </trkpt>
      <trkpt lat="42.59344839490950107574462890625" lon="19.94696642272174358367919921875">
        <ele>969</ele>
        <time>2026-06-17T07:42:26.000Z</time>
        <extensions>
          <ns3:TrackPointExtension>
            <ns3:atemp>17.0</ns3:atemp>
          </ns3:TrackPointExtension>
        </extensions>
      </trkpt>
      <trkpt lat="42.5934286974370479583740234375" lon="19.94700447656214237213134765625">
        <ele>969.20001220703125</ele>
        <time>2026-06-17T07:42:27.000Z</time>
        <extensions>
          <ns3:TrackPointExtension>
            <ns3:atemp>17.0</ns3:atemp>
          </ns3:TrackPointExtension>
        </extensions>
      </trkpt>
      <trkpt lat="42.59340782649815082550048828125" lon="19.94704060256481170654296875">
        <ele>969.4000244140625</ele>
        <time>2026-06-17T07:42:28.000Z</time>
        <extensions>
          <ns3:TrackPointExtension>
            <ns3:atemp>17.0</ns3:atemp>
          </ns3:TrackPointExtension>
        </extensions>
      </trkpt>
      <trkpt lat="42.59338368661701679229736328125" lon="19.9470759741961956024169921875">
        <ele>969.5999755859375</ele>
        <time>2026-06-17T07:42:29.000Z</time>
        <extensions>
          <ns3:TrackPointExtension>
            <ns3:atemp>17.0</ns3:atemp>
          </ns3:TrackPointExtension>
        </extensions>
      </trkpt>
      <trkpt lat="42.59335669688880443572998046875" lon="19.94710790924727916717529296875">
        <ele>969.79998779296875</ele>
        <time>2026-06-17T07:42:30.000Z</time>
        <extensions>
          <ns3:TrackPointExtension>
            <ns3:atemp>17.0</ns3:atemp>
          </ns3:TrackPointExtension>
        </extensions>
      </trkpt>
      <trkpt lat="42.593329288065433502197265625" lon="19.94713456369936466217041015625">
        <ele>970.20001220703125</ele>
        <time>2026-06-17T07:42:31.000Z</time>
        <extensions>
          <ns3:TrackPointExtension>
            <ns3:atemp>17.0</ns3:atemp>
          </ns3:TrackPointExtension>
        </extensions>
      </trkpt>
      <trkpt lat="42.59330137632787227630615234375" lon="19.94715736247599124908447265625">
        <ele>970.4000244140625</ele>
        <time>2026-06-17T07:42:32.000Z</time>
        <extensions>
          <ns3:TrackPointExtension>
            <ns3:atemp>17.0</ns3:atemp>
          </ns3:TrackPointExtension>
        </extensions>
      </trkpt>
      <trkpt lat="42.5932771526277065277099609375" lon="19.94717010296881198883056640625">
        <ele>970.5999755859375</ele>
        <time>2026-06-17T07:42:33.000Z</time>
        <extensions>
          <ns3:TrackPointExtension>
            <ns3:atemp>17.0</ns3:atemp>
          </ns3:TrackPointExtension>
        </extensions>
      </trkpt>
      <trkpt lat="42.5932469777762889862060546875" lon="19.94717546738684177398681640625">
        <ele>970.79998779296875</ele>
        <time>2026-06-17T07:42:34.000Z</time>
        <extensions>
          <ns3:TrackPointExtension>
            <ns3:atemp>17.0</ns3:atemp>
          </ns3:TrackPointExtension>
        </extensions>
      </trkpt>
      <trkpt lat="42.5932122766971588134765625" lon="19.94717814959585666656494140625">
        <ele>971.20001220703125</ele>
        <time>2026-06-17T07:42:35.000Z</time>
        <extensions>
          <ns3:TrackPointExtension>
            <ns3:atemp>17.0</ns3:atemp>
          </ns3:TrackPointExtension>
        </extensions>
      </trkpt>
      <trkpt lat="42.593181766569614410400390625" lon="19.94717328809201717376708984375">
        <ele>971.5999755859375</ele>
        <time>2026-06-17T07:42:36.000Z</time>
        <extensions>
          <ns3:TrackPointExtension>
            <ns3:atemp>17.0</ns3:atemp>
          </ns3:TrackPointExtension>
        </extensions>
      </trkpt>
      <trkpt lat="42.5931520946323871612548828125" lon="19.94716172106564044952392578125">
        <ele>971.79998779296875</ele>
        <time>2026-06-17T07:42:37.000Z</time>
        <extensions>
          <ns3:TrackPointExtension>
            <ns3:atemp>17.0</ns3:atemp>
          </ns3:TrackPointExtension>
        </extensions>
      </trkpt>
      <trkpt lat="42.59312250651419162750244140625" lon="19.94715082459151744842529296875">
        <ele>972</ele>
        <time>2026-06-17T07:42:38.000Z</time>
        <extensions>
          <ns3:TrackPointExtension>
            <ns3:atemp>17.0</ns3:atemp>
          </ns3:TrackPointExtension>
        </extensions>
      </trkpt>
      <trkpt lat="42.5930940918624401092529296875" lon="19.9471426941454410552978515625">
        <ele>972.4000244140625</ele>
        <time>2026-06-17T07:42:39.000Z</time>
        <extensions>
          <ns3:TrackPointExtension>
            <ns3:atemp>17.0</ns3:atemp>
          </ns3:TrackPointExtension>
        </extensions>
      </trkpt>
      <trkpt lat="42.5930669344961643218994140625" lon="19.94712970219552516937255859375">
        <ele>972.5999755859375</ele>
        <time>2026-06-17T07:42:40.000Z</time>
        <extensions>
          <ns3:TrackPointExtension>
            <ns3:atemp>17.0</ns3:atemp>
          </ns3:TrackPointExtension>
        </extensions>
      </trkpt>
      <trkpt lat="42.5930347479879856109619140625" lon="19.9471178837120532989501953125">
        <ele>972.79998779296875</ele>
        <time>2026-06-17T07:42:41.000Z</time>
        <extensions>
          <ns3:TrackPointExtension>
            <ns3:atemp>17.0</ns3:atemp>
          </ns3:TrackPointExtension>
        </extensions>
      </trkpt>
      <trkpt lat="42.59300448931753635406494140625" lon="19.947105310857295989990234375">
        <ele>973.20001220703125</ele>
        <time>2026-06-17T07:42:42.000Z</time>
        <extensions>
          <ns3:TrackPointExtension>
            <ns3:atemp>17.0</ns3:atemp>
          </ns3:TrackPointExtension>
        </extensions>
      </trkpt>
      <trkpt lat="42.5929740630090236663818359375" lon="19.947093911468982696533203125">
        <ele>973.4000244140625</ele>
        <time>2026-06-17T07:42:43.000Z</time>
        <extensions>
          <ns3:TrackPointExtension>
            <ns3:atemp>17.0</ns3:atemp>
          </ns3:TrackPointExtension>
        </extensions>
      </trkpt>
      <trkpt lat="42.5929442234337329864501953125" lon="19.9470828473567962646484375">
        <ele>973.5999755859375</ele>
        <time>2026-06-17T07:42:44.000Z</time>
        <extensions>
          <ns3:TrackPointExtension>
            <ns3:atemp>17.0</ns3:atemp>
          </ns3:TrackPointExtension>
        </extensions>
      </trkpt>
      <trkpt lat="42.59291253983974456787109375" lon="19.94706717319786548614501953125">
        <ele>973.79998779296875</ele>
        <time>2026-06-17T07:42:45.000Z</time>
        <extensions>
          <ns3:TrackPointExtension>
            <ns3:atemp>17.0</ns3:atemp>
          </ns3:TrackPointExtension>
        </extensions>
      </trkpt>
      <trkpt lat="42.592878676950931549072265625" lon="19.94704596698284149169921875">
        <ele>973.79998779296875</ele>
        <time>2026-06-17T07:42:46.000Z</time>
        <extensions>
          <ns3:TrackPointExtension>
            <ns3:atemp>17.0</ns3:atemp>
          </ns3:TrackPointExtension>
        </extensions>
      </trkpt>
      <trkpt lat="42.59284724481403827667236328125" lon="19.947020150721073150634765625">
        <ele>973.79998779296875</ele>
        <time>2026-06-17T07:42:47.000Z</time>
        <extensions>
          <ns3:TrackPointExtension>
            <ns3:atemp>17.0</ns3:atemp>
          </ns3:TrackPointExtension>
        </extensions>
      </trkpt>
      <trkpt lat="42.59281522594392299652099609375" lon="19.94699073024094104766845703125">
        <ele>973.79998779296875</ele>
        <time>2026-06-17T07:42:48.000Z</time>
        <extensions>
          <ns3:TrackPointExtension>
            <ns3:atemp>17.0</ns3:atemp>
          </ns3:TrackPointExtension>
        </extensions>
      </trkpt>
      <trkpt lat="42.59277935139834880828857421875" lon="19.94696072302758693695068359375">
        <ele>973.79998779296875</ele>
        <time>2026-06-17T07:42:49.000Z</time>
        <extensions>
          <ns3:TrackPointExtension>
            <ns3:atemp>17.0</ns3:atemp>
          </ns3:TrackPointExtension>
        </extensions>
      </trkpt>
      <trkpt lat="42.59274666197597980499267578125" lon="19.946932308375835418701171875">
        <ele>973.5999755859375</ele>
        <time>2026-06-17T07:42:50.000Z</time>
        <extensions>
          <ns3:TrackPointExtension>
            <ns3:atemp>17.0</ns3:atemp>
          </ns3:TrackPointExtension>
        </extensions>
      </trkpt>
      <trkpt lat="42.5927155651152133941650390625" lon="19.94690221734344959259033203125">
        <ele>973.5999755859375</ele>
        <time>2026-06-17T07:42:51.000Z</time>
        <extensions>
          <ns3:TrackPointExtension>
            <ns3:atemp>17.0</ns3:atemp>
          </ns3:TrackPointExtension>
        </extensions>
      </trkpt>
      <trkpt lat="42.59268321096897125244140625" lon="19.94687589816749095916748046875">
        <ele>973.4000244140625</ele>
        <time>2026-06-17T07:42:52.000Z</time>
        <extensions>
          <ns3:TrackPointExtension>
            <ns3:atemp>17.0</ns3:atemp>
          </ns3:TrackPointExtension>
        </extensions>
      </trkpt>
      <trkpt lat="42.5926475040614604949951171875" lon="19.94685444049537181854248046875">
        <ele>973.4000244140625</ele>
        <time>2026-06-17T07:42:53.000Z</time>
        <extensions>
          <ns3:TrackPointExtension>
            <ns3:atemp>17.0</ns3:atemp>
          </ns3:TrackPointExtension>
        </extensions>
      </trkpt>
      <trkpt lat="42.59261255152523517608642578125" lon="19.946840107440948486328125">
        <ele>973.20001220703125</ele>
        <time>2026-06-17T07:42:54.000Z</time>
        <extensions>
          <ns3:TrackPointExtension>
            <ns3:atemp>17.0</ns3:atemp>
          </ns3:TrackPointExtension>
        </extensions>
      </trkpt>
      <trkpt lat="42.592580616474151611328125" lon="19.946829713881015777587890625">
        <ele>973.20001220703125</ele>
        <time>2026-06-17T07:42:55.000Z</time>
        <extensions>
          <ns3:TrackPointExtension>
            <ns3:atemp>17.0</ns3:atemp>
          </ns3:TrackPointExtension>
        </extensions>
      </trkpt>
      <trkpt lat="42.5925395451486110687255859375" lon="19.9468275345861911773681640625">
        <ele>973.20001220703125</ele>
        <time>2026-06-17T07:42:56.000Z</time>
        <extensions>
          <ns3:TrackPointExtension>
            <ns3:atemp>17.0</ns3:atemp>
          </ns3:TrackPointExtension>
        </extensions>
      </trkpt>
      <trkpt lat="42.5925056822597980499267578125" lon="19.94682560674846172332763671875">
        <ele>973.4000244140625</ele>
        <time>2026-06-17T07:42:57.000Z</time>
        <extensions>
          <ns3:TrackPointExtension>
            <ns3:atemp>17.0</ns3:atemp>
          </ns3:TrackPointExtension>
        </extensions>
      </trkpt>
      <trkpt lat="42.5924714840948581695556640625" lon="19.94682862423360347747802734375">
        <ele>973.4000244140625</ele>
        <time>2026-06-17T07:42:58.000Z</time>
        <extensions>
          <ns3:TrackPointExtension>
            <ns3:atemp>17.0</ns3:atemp>
          </ns3:TrackPointExtension>
        </extensions>
      </trkpt>
      <trkpt lat="42.59243988431990146636962890625" lon="19.94682694785296916961669921875">
        <ele>973.5999755859375</ele>
        <time>2026-06-17T07:42:59.000Z</time>
        <extensions>
          <ns3:TrackPointExtension>
            <ns3:atemp>17.0</ns3:atemp>
          </ns3:TrackPointExtension>
        </extensions>
      </trkpt>
      <trkpt lat="42.59241038002073764801025390625" lon="19.946823008358478546142578125">
        <ele>973.79998779296875</ele>
        <time>2026-06-17T07:43:00.000Z</time>
        <extensions>
          <ns3:TrackPointExtension>
            <ns3:atemp>17.0</ns3:atemp>
          </ns3:TrackPointExtension>
        </extensions>
      </trkpt>
      <trkpt lat="42.5923834741115570068359375" lon="19.94681529700756072998046875">
        <ele>974</ele>
        <time>2026-06-17T07:43:01.000Z</time>
        <extensions>
          <ns3:TrackPointExtension>
            <ns3:atemp>17.0</ns3:atemp>
          </ns3:TrackPointExtension>
        </extensions>
      </trkpt>
      <trkpt lat="42.59235505945980548858642578125" lon="19.94680616073310375213623046875">
        <ele>974.20001220703125</ele>
        <time>2026-06-17T07:43:02.000Z</time>
        <extensions>
          <ns3:TrackPointExtension>
            <ns3:atemp>17.0</ns3:atemp>
          </ns3:TrackPointExtension>
        </extensions>
      </trkpt>
      <trkpt lat="42.59232874028384685516357421875" lon="19.946801550686359405517578125">
        <ele>974.5999755859375</ele>
        <time>2026-06-17T07:43:03.000Z</time>
        <extensions>
          <ns3:TrackPointExtension>
            <ns3:atemp>17.0</ns3:atemp>
          </ns3:TrackPointExtension>
        </extensions>
      </trkpt>
      <trkpt lat="42.59230141527950763702392578125" lon="19.946797527372837066650390625">
        <ele>974.79998779296875</ele>
        <time>2026-06-17T07:43:04.000Z</time>
        <extensions>
          <ns3:TrackPointExtension>
            <ns3:atemp>17.0</ns3:atemp>
          </ns3:TrackPointExtension>
        </extensions>
      </trkpt>
      <trkpt lat="42.59227258153259754180908203125" lon="19.9467963539063930511474609375">
        <ele>975</ele>
        <time>2026-06-17T07:43:05.000Z</time>
        <extensions>
          <ns3:TrackPointExtension>
            <ns3:atemp>17.0</ns3:atemp>
          </ns3:TrackPointExtension>
        </extensions>
      </trkpt>
      <trkpt lat="42.59224106557667255401611328125" lon="19.9468010477721691131591796875">
        <ele>975.20001220703125</ele>
        <time>2026-06-17T07:43:06.000Z</time>
        <extensions>
          <ns3:TrackPointExtension>
            <ns3:atemp>17.0</ns3:atemp>
          </ns3:TrackPointExtension>
        </extensions>
      </trkpt>
      <trkpt lat="42.59220602922141551971435546875" lon="19.94681395590305328369140625">
        <ele>975.4000244140625</ele>
        <time>2026-06-17T07:43:07.000Z</time>
        <extensions>
          <ns3:TrackPointExtension>
            <ns3:atemp>17.0</ns3:atemp>
          </ns3:TrackPointExtension>
        </extensions>
      </trkpt>
      <trkpt lat="42.5921742618083953857421875" lon="19.9468308873474597930908203125">
        <ele>975.5999755859375</ele>
        <time>2026-06-17T07:43:08.000Z</time>
        <extensions>
          <ns3:TrackPointExtension>
            <ns3:atemp>17.0</ns3:atemp>
          </ns3:TrackPointExtension>
        </extensions>
      </trkpt>
      <trkpt lat="42.5921439193189144134521484375" lon="19.94685477577149868011474609375">
        <ele>975.79998779296875</ele>
        <time>2026-06-17T07:43:09.000Z</time>
        <extensions>
          <ns3:TrackPointExtension>
            <ns3:atemp>17.0</ns3:atemp>
          </ns3:TrackPointExtension>
        </extensions>
      </trkpt>
      <trkpt lat="42.59211718104779720306396484375" lon="19.94688008911907672882080078125">
        <ele>976</ele>
        <time>2026-06-17T07:43:10.000Z</time>
        <extensions>
          <ns3:TrackPointExtension>
            <ns3:atemp>17.0</ns3:atemp>
          </ns3:TrackPointExtension>
        </extensions>
      </trkpt>
      <trkpt lat="42.59209387935698032379150390625" lon="19.9469069950282573699951171875">
        <ele>976.20001220703125</ele>
        <time>2026-06-17T07:43:11.000Z</time>
        <extensions>
          <ns3:TrackPointExtension>
            <ns3:atemp>17.0</ns3:atemp>
          </ns3:TrackPointExtension>
        </extensions>
      </trkpt>
      <trkpt lat="42.5920694880187511444091796875" lon="19.9469391815364360809326171875">
        <ele>976.5999755859375</ele>
        <time>2026-06-17T07:43:12.000Z</time>
        <extensions>
          <ns3:TrackPointExtension>
            <ns3:atemp>17.0</ns3:atemp>
          </ns3:TrackPointExtension>
        </extensions>
      </trkpt>
      <trkpt lat="42.592047192156314849853515625" lon="19.946969859302043914794921875">
        <ele>976.79998779296875</ele>
        <time>2026-06-17T07:43:13.000Z</time>
        <extensions>
          <ns3:TrackPointExtension>
            <ns3:atemp>17.0</ns3:atemp>
          </ns3:TrackPointExtension>
        </extensions>
      </trkpt>
      <trkpt lat="42.5920228846371173858642578125" lon="19.9470048956573009490966796875">
        <ele>977</ele>
        <time>2026-06-17T07:43:14.000Z</time>
        <extensions>
          <ns3:TrackPointExtension>
            <ns3:atemp>17.0</ns3:atemp>
          </ns3:TrackPointExtension>
        </extensions>
      </trkpt>
      <trkpt lat="42.59200100786983966827392578125" lon="19.94703381322324275970458984375">
        <ele>977.20001220703125</ele>
        <time>2026-06-17T07:43:15.000Z</time>
        <extensions>
          <ns3:TrackPointExtension>
            <ns3:atemp>17.0</ns3:atemp>
          </ns3:TrackPointExtension>
        </extensions>
      </trkpt>
      <trkpt lat="42.59197586216032505035400390625" lon="19.94706474244594573974609375">
        <ele>977.4000244140625</ele>
        <time>2026-06-17T07:43:16.000Z</time>
        <extensions>
          <ns3:TrackPointExtension>
            <ns3:atemp>17.0</ns3:atemp>
          </ns3:TrackPointExtension>
        </extensions>
      </trkpt>
      <trkpt lat="42.59194954298436641693115234375" lon="19.94709248654544353485107421875">
        <ele>977.79998779296875</ele>
        <time>2026-06-17T07:43:17.000Z</time>
        <extensions>
          <ns3:TrackPointExtension>
            <ns3:atemp>17.0</ns3:atemp>
          </ns3:TrackPointExtension>
        </extensions>
      </trkpt>
      <trkpt lat="42.5919243134558200836181640625" lon="19.9471155367791652679443359375">
        <ele>978</ele>
        <time>2026-06-17T07:43:18.000Z</time>
        <extensions>
          <ns3:TrackPointExtension>
            <ns3:atemp>17.0</ns3:atemp>
          </ns3:TrackPointExtension>
        </extensions>
      </trkpt>
      <trkpt lat="42.59190000593662261962890625" lon="19.9471359886229038238525390625">
        <ele>978.20001220703125</ele>
        <time>2026-06-17T07:43:19.000Z</time>
        <extensions>
          <ns3:TrackPointExtension>
            <ns3:atemp>17.0</ns3:atemp>
          </ns3:TrackPointExtension>
        </extensions>
      </trkpt>
      <trkpt lat="42.5918726809322834014892578125" lon="19.94715685956180095672607421875">
        <ele>978.4000244140625</ele>
        <time>2026-06-17T07:43:20.000Z</time>
        <extensions>
          <ns3:TrackPointExtension>
            <ns3:atemp>17.0</ns3:atemp>
          </ns3:TrackPointExtension>
        </extensions>
      </trkpt>
      <trkpt lat="42.5918465293943881988525390625" lon="19.9471735395491123199462890625">
        <ele>978.5999755859375</ele>
        <time>2026-06-17T07:43:21.000Z</time>
        <extensions>
          <ns3:TrackPointExtension>
            <ns3:atemp>17.0</ns3:atemp>
          </ns3:TrackPointExtension>
        </extensions>
      </trkpt>
      <trkpt lat="42.5918176956474781036376953125" lon="19.94719323702156543731689453125">
        <ele>979</ele>
        <time>2026-06-17T07:43:22.000Z</time>
        <extensions>
          <ns3:TrackPointExtension>
            <ns3:atemp>17.0</ns3:atemp>
          </ns3:TrackPointExtension>
        </extensions>
      </trkpt>
      <trkpt lat="42.59178911335766315460205078125" lon="19.94720983318984508514404296875">
        <ele>979.20001220703125</ele>
        <time>2026-06-17T07:43:23.000Z</time>
        <extensions>
          <ns3:TrackPointExtension>
            <ns3:atemp>17.0</ns3:atemp>
          </ns3:TrackPointExtension>
        </extensions>
      </trkpt>
      <trkpt lat="42.5917603634297847747802734375" lon="19.947220981121063232421875">
        <ele>979.4000244140625</ele>
        <time>2026-06-17T07:43:24.000Z</time>
        <extensions>
          <ns3:TrackPointExtension>
            <ns3:atemp>17.0</ns3:atemp>
          </ns3:TrackPointExtension>
        </extensions>
      </trkpt>
      <trkpt lat="42.59173027239739894866943359375" lon="19.947232045233249664306640625">
        <ele>979.5999755859375</ele>
        <time>2026-06-17T07:43:25.000Z</time>
        <extensions>
          <ns3:TrackPointExtension>
            <ns3:atemp>17.0</ns3:atemp>
          </ns3:TrackPointExtension>
        </extensions>
      </trkpt>
      <trkpt lat="42.59170018136501312255859375" lon="19.94724520482122898101806640625">
        <ele>979.5999755859375</ele>
        <time>2026-06-17T07:43:26.000Z</time>
        <extensions>
          <ns3:TrackPointExtension>
            <ns3:atemp>17.0</ns3:atemp>
          </ns3:TrackPointExtension>
        </extensions>
      </trkpt>
      <trkpt lat="42.59167193435132503509521484375" lon="19.94725962169468402862548828125">
        <ele>979.79998779296875</ele>
        <time>2026-06-17T07:43:27.000Z</time>
        <extensions>
          <ns3:TrackPointExtension>
            <ns3:atemp>17.0</ns3:atemp>
          </ns3:TrackPointExtension>
        </extensions>
      </trkpt>
      <trkpt lat="42.591639496386051177978515625" lon="19.9472751282155513763427734375">
        <ele>980</ele>
        <time>2026-06-17T07:43:28.000Z</time>
        <extensions>
          <ns3:TrackPointExtension>
            <ns3:atemp>17.0</ns3:atemp>
          </ns3:TrackPointExtension>
        </extensions>
      </trkpt>
      <trkpt lat="42.59160705842077732086181640625" lon="19.94728409685194492340087890625">
        <ele>980.20001220703125</ele>
        <time>2026-06-17T07:43:29.000Z</time>
        <extensions>
          <ns3:TrackPointExtension>
            <ns3:atemp>18.0</ns3:atemp>
          </ns3:TrackPointExtension>
        </extensions>
      </trkpt>
      <trkpt lat="42.591575793921947479248046875" lon="19.94729214347898960113525390625">
        <ele>980.20001220703125</ele>
        <time>2026-06-17T07:43:30.000Z</time>
        <extensions>
          <ns3:TrackPointExtension>
            <ns3:atemp>18.0</ns3:atemp>
          </ns3:TrackPointExtension>
        </extensions>
      </trkpt>
      <trkpt lat="42.59154804982244968414306640625" lon="19.9472985975444316864013671875">
        <ele>980.5999755859375</ele>
        <time>2026-06-17T07:43:31.000Z</time>
        <extensions>
          <ns3:TrackPointExtension>
            <ns3:atemp>18.0</ns3:atemp>
          </ns3:TrackPointExtension>
        </extensions>
      </trkpt>
      <trkpt lat="42.5915198028087615966796875" lon="19.947307147085666656494140625">
        <ele>980.5999755859375</ele>
        <time>2026-06-17T07:43:32.000Z</time>
        <extensions>
          <ns3:TrackPointExtension>
            <ns3:atemp>18.0</ns3:atemp>
          </ns3:TrackPointExtension>
        </extensions>
      </trkpt>
      <trkpt lat="42.59148736484348773956298828125" lon="19.94731561280786991119384765625">
        <ele>980.79998779296875</ele>
        <time>2026-06-17T07:43:33.000Z</time>
        <extensions>
          <ns3:TrackPointExtension>
            <ns3:atemp>18.0</ns3:atemp>
          </ns3:TrackPointExtension>
        </extensions>
      </trkpt>
      <trkpt lat="42.59145987220108509063720703125" lon="19.94732064194977283477783203125">
        <ele>981</ele>
        <time>2026-06-17T07:43:34.000Z</time>
        <extensions>
          <ns3:TrackPointExtension>
            <ns3:atemp>18.0</ns3:atemp>
          </ns3:TrackPointExtension>
        </extensions>
      </trkpt>
      <trkpt lat="42.59143204428255558013916015625" lon="19.94732801802456378936767578125">
        <ele>981.20001220703125</ele>
        <time>2026-06-17T07:43:35.000Z</time>
        <extensions>
          <ns3:TrackPointExtension>
            <ns3:atemp>18.0</ns3:atemp>
          </ns3:TrackPointExtension>
        </extensions>
      </trkpt>
      <trkpt lat="42.59140639565885066986083984375" lon="19.94733774103224277496337890625">
        <ele>981.4000244140625</ele>
        <time>2026-06-17T07:43:36.000Z</time>
        <extensions>
          <ns3:TrackPointExtension>
            <ns3:atemp>18.0</ns3:atemp>
          </ns3:TrackPointExtension>
        </extensions>
      </trkpt>
      <trkpt lat="42.591381333768367767333984375" lon="19.9473448656499385833740234375">
        <ele>981.5999755859375</ele>
        <time>2026-06-17T07:43:37.000Z</time>
        <extensions>
          <ns3:TrackPointExtension>
            <ns3:atemp>18.0</ns3:atemp>
          </ns3:TrackPointExtension>
        </extensions>
      </trkpt>
      <trkpt lat="42.59135962463915348052978515625" lon="19.94735148735344409942626953125">
        <ele>981.79998779296875</ele>
        <time>2026-06-17T07:43:38.000Z</time>
        <extensions>
          <ns3:TrackPointExtension>
            <ns3:atemp>18.0</ns3:atemp>
          </ns3:TrackPointExtension>
        </extensions>
      </trkpt>
      <trkpt lat="42.59133565239608287811279296875" lon="19.94735584594309329986572265625">
        <ele>982</ele>
        <time>2026-06-17T07:43:39.000Z</time>
        <extensions>
          <ns3:TrackPointExtension>
            <ns3:atemp>18.0</ns3:atemp>
          </ns3:TrackPointExtension>
        </extensions>
      </trkpt>
      <trkpt lat="42.591312937438488006591796875" lon="19.9473589472472667694091796875">
        <ele>982.20001220703125</ele>
        <time>2026-06-17T07:43:40.000Z</time>
        <extensions>
          <ns3:TrackPointExtension>
            <ns3:atemp>18.0</ns3:atemp>
          </ns3:TrackPointExtension>
        </extensions>
      </trkpt>
      <trkpt lat="42.5912856124341487884521484375" lon="19.94736338965594768524169921875">
        <ele>982.4000244140625</ele>
        <time>2026-06-17T07:43:41.000Z</time>
        <extensions>
          <ns3:TrackPointExtension>
            <ns3:atemp>18.0</ns3:atemp>
          </ns3:TrackPointExtension>
        </extensions>
      </trkpt>
      <trkpt lat="42.5912581197917461395263671875" lon="19.94736674241721630096435546875">
        <ele>982.5999755859375</ele>
        <time>2026-06-17T07:43:42.000Z</time>
        <extensions>
          <ns3:TrackPointExtension>
            <ns3:atemp>18.0</ns3:atemp>
          </ns3:TrackPointExtension>
        </extensions>
      </trkpt>
      <trkpt lat="42.59123188443481922149658203125" lon="19.9473659880459308624267578125">
        <ele>982.79998779296875</ele>
        <time>2026-06-17T07:43:43.000Z</time>
        <extensions>
          <ns3:TrackPointExtension>
            <ns3:atemp>18.0</ns3:atemp>
          </ns3:TrackPointExtension>
        </extensions>
      </trkpt>
      <trkpt lat="42.59120573289692401885986328125" lon="19.94736422784626483917236328125">
        <ele>983</ele>
        <time>2026-06-17T07:43:44.000Z</time>
        <extensions>
          <ns3:TrackPointExtension>
            <ns3:atemp>18.0</ns3:atemp>
          </ns3:TrackPointExtension>
        </extensions>
      </trkpt>
      <trkpt lat="42.5911823473870754241943359375" lon="19.9473626352846622467041015625">
        <ele>983.4000244140625</ele>
        <time>2026-06-17T07:43:45.000Z</time>
        <extensions>
          <ns3:TrackPointExtension>
            <ns3:atemp>18.0</ns3:atemp>
          </ns3:TrackPointExtension>
        </extensions>
      </trkpt>
      <trkpt lat="42.59115678258240222930908203125" lon="19.94736037217080593109130859375">
        <ele>983.5999755859375</ele>
        <time>2026-06-17T07:43:46.000Z</time>
        <extensions>
          <ns3:TrackPointExtension>
            <ns3:atemp>18.0</ns3:atemp>
          </ns3:TrackPointExtension>
        </extensions>
      </trkpt>
      <trkpt lat="42.5911297090351581573486328125" lon="19.9473555944859981536865234375">
        <ele>983.79998779296875</ele>
        <time>2026-06-17T07:43:47.000Z</time>
        <extensions>
          <ns3:TrackPointExtension>
            <ns3:atemp>18.0</ns3:atemp>
          </ns3:TrackPointExtension>
        </extensions>
      </trkpt>
      <trkpt lat="42.59110196493566036224365234375" lon="19.94734880514442920684814453125">
        <ele>984.20001220703125</ele>
        <time>2026-06-17T07:43:48.000Z</time>
        <extensions>
          <ns3:TrackPointExtension>
            <ns3:atemp>18.0</ns3:atemp>
          </ns3:TrackPointExtension>
        </extensions>
      </trkpt>
      <trkpt lat="42.59107430465519428253173828125" lon="19.94734344072639942169189453125">
        <ele>984.5999755859375</ele>
        <time>2026-06-17T07:43:49.000Z</time>
        <extensions>
          <ns3:TrackPointExtension>
            <ns3:atemp>18.0</ns3:atemp>
          </ns3:TrackPointExtension>
        </extensions>
      </trkpt>
      <trkpt lat="42.591045387089252471923828125" lon="19.947333969175815582275390625">
        <ele>984.79998779296875</ele>
        <time>2026-06-17T07:43:50.000Z</time>
        <extensions>
          <ns3:TrackPointExtension>
            <ns3:atemp>18.0</ns3:atemp>
          </ns3:TrackPointExtension>
        </extensions>
      </trkpt>
      <trkpt lat="42.5910157151520252227783203125" lon="19.9473230727016925811767578125">
        <ele>985.20001220703125</ele>
        <time>2026-06-17T07:43:51.000Z</time>
        <extensions>
          <ns3:TrackPointExtension>
            <ns3:atemp>18.0</ns3:atemp>
          </ns3:TrackPointExtension>
        </extensions>
      </trkpt>
      <trkpt lat="42.59098428301513195037841796875" lon="19.94730882346630096435546875">
        <ele>985.4000244140625</ele>
        <time>2026-06-17T07:43:52.000Z</time>
        <extensions>
          <ns3:TrackPointExtension>
            <ns3:atemp>18.0</ns3:atemp>
          </ns3:TrackPointExtension>
        </extensions>
      </trkpt>
      <trkpt lat="42.5909538567066192626953125" lon="19.94729314930737018585205078125">
        <ele>985.79998779296875</ele>
        <time>2026-06-17T07:43:53.000Z</time>
        <extensions>
          <ns3:TrackPointExtension>
            <ns3:atemp>18.0</ns3:atemp>
          </ns3:TrackPointExtension>
        </extensions>
      </trkpt>
      <trkpt lat="42.59092611260712146759033203125" lon="19.94727035053074359893798828125">
        <ele>986</ele>
        <time>2026-06-17T07:43:54.000Z</time>
        <extensions>
          <ns3:TrackPointExtension>
            <ns3:atemp>18.0</ns3:atemp>
          </ns3:TrackPointExtension>
        </extensions>
      </trkpt>
      <trkpt lat="42.5908980332314968109130859375" lon="19.94724537245929241180419921875">
        <ele>986.4000244140625</ele>
        <time>2026-06-17T07:43:55.000Z</time>
        <extensions>
          <ns3:TrackPointExtension>
            <ns3:atemp>18.0</ns3:atemp>
          </ns3:TrackPointExtension>
        </extensions>
      </trkpt>
      <trkpt lat="42.59087297134101390838623046875" lon="19.947218634188175201416015625">
        <ele>986.5999755859375</ele>
        <time>2026-06-17T07:43:56.000Z</time>
        <extensions>
          <ns3:TrackPointExtension>
            <ns3:atemp>18.0</ns3:atemp>
          </ns3:TrackPointExtension>
        </extensions>
      </trkpt>
      <trkpt lat="42.5908484123647212982177734375" lon="19.947194159030914306640625">
        <ele>986.79998779296875</ele>
        <time>2026-06-17T07:43:57.000Z</time>
        <extensions>
          <ns3:TrackPointExtension>
            <ns3:atemp>18.0</ns3:atemp>
          </ns3:TrackPointExtension>
        </extensions>
      </trkpt>
      <trkpt lat="42.59082452394068241119384765625" lon="19.947169683873653411865234375">
        <ele>987</ele>
        <time>2026-06-17T07:43:58.000Z</time>
        <extensions>
          <ns3:TrackPointExtension>
            <ns3:atemp>18.0</ns3:atemp>
          </ns3:TrackPointExtension>
        </extensions>
      </trkpt>
      <trkpt lat="42.5907961092889308929443359375" lon="19.94714562781155109405517578125">
        <ele>987.4000244140625</ele>
        <time>2026-06-17T07:43:59.000Z</time>
        <extensions>
          <ns3:TrackPointExtension>
            <ns3:atemp>18.0</ns3:atemp>
          </ns3:TrackPointExtension>
        </extensions>
      </trkpt>
      <trkpt lat="42.59076953865587711334228515625" lon="19.9471215717494487762451171875">
        <ele>987.5999755859375</ele>
        <time>2026-06-17T07:44:00.000Z</time>
        <extensions>
          <ns3:TrackPointExtension>
            <ns3:atemp>18.0</ns3:atemp>
          </ns3:TrackPointExtension>
        </extensions>
      </trkpt>
      <trkpt lat="42.5907411240041255950927734375" lon="19.94709885679185390472412109375">
        <ele>988</ele>
        <time>2026-06-17T07:44:01.000Z</time>
        <extensions>
          <ns3:TrackPointExtension>
            <ns3:atemp>18.0</ns3:atemp>
          </ns3:TrackPointExtension>
        </extensions>
      </trkpt>
      <trkpt lat="42.59071472100913524627685546875" lon="19.94707656092941761016845703125">
        <ele>988.20001220703125</ele>
        <time>2026-06-17T07:44:02.000Z</time>
        <extensions>
          <ns3:TrackPointExtension>
            <ns3:atemp>18.0</ns3:atemp>
          </ns3:TrackPointExtension>
        </extensions>
      </trkpt>
      <trkpt lat="42.59068764746189117431640625" lon="19.9470555223524570465087890625">
        <ele>988.5999755859375</ele>
        <time>2026-06-17T07:44:03.000Z</time>
        <extensions>
          <ns3:TrackPointExtension>
            <ns3:atemp>18.0</ns3:atemp>
          </ns3:TrackPointExtension>
        </extensions>
      </trkpt>
      <trkpt lat="42.590664513409137725830078125" lon="19.94703716598451137542724609375">
        <ele>988.79998779296875</ele>
        <time>2026-06-17T07:44:04.000Z</time>
        <extensions>
          <ns3:TrackPointExtension>
            <ns3:atemp>18.0</ns3:atemp>
          </ns3:TrackPointExtension>
        </extensions>
      </trkpt>
      <trkpt lat="42.59063978679478168487548828125" lon="19.94701906107366085052490234375">
        <ele>989.20001220703125</ele>
        <time>2026-06-17T07:44:05.000Z</time>
        <extensions>
          <ns3:TrackPointExtension>
            <ns3:atemp>18.0</ns3:atemp>
          </ns3:TrackPointExtension>
        </extensions>
      </trkpt>
      <trkpt lat="42.5906153954565525054931640625" lon="19.9469998665153980255126953125">
        <ele>989.5999755859375</ele>
        <time>2026-06-17T07:44:06.000Z</time>
        <extensions>
          <ns3:TrackPointExtension>
            <ns3:atemp>18.0</ns3:atemp>
          </ns3:TrackPointExtension>
        </extensions>
      </trkpt>
      <trkpt lat="42.5905909202992916107177734375" lon="19.94698503054678440093994140625">
        <ele>990</ele>
        <time>2026-06-17T07:44:07.000Z</time>
        <extensions>
          <ns3:TrackPointExtension>
            <ns3:atemp>18.0</ns3:atemp>
          </ns3:TrackPointExtension>
        </extensions>
      </trkpt>
      <trkpt lat="42.59056921117007732391357421875" lon="19.9469675123691558837890625">
        <ele>990.20001220703125</ele>
        <time>2026-06-17T07:44:08.000Z</time>
        <extensions>
          <ns3:TrackPointExtension>
            <ns3:atemp>18.0</ns3:atemp>
          </ns3:TrackPointExtension>
        </extensions>
      </trkpt>
      <trkpt lat="42.59054607711732387542724609375" lon="19.94694982655346393585205078125">
        <ele>990.5999755859375</ele>
        <time>2026-06-17T07:44:09.000Z</time>
        <extensions>
          <ns3:TrackPointExtension>
            <ns3:atemp>18.0</ns3:atemp>
          </ns3:TrackPointExtension>
        </extensions>
      </trkpt>
      <trkpt lat="42.59052327834069728851318359375" lon="19.94693239219486713409423828125">
        <ele>991</ele>
        <time>2026-06-17T07:44:10.000Z</time>
        <extensions>
          <ns3:TrackPointExtension>
            <ns3:atemp>18.0</ns3:atemp>
          </ns3:TrackPointExtension>
        </extensions>
      </trkpt>
      <trkpt lat="42.590498887002468109130859375" lon="19.94691696949303150177001953125">
        <ele>991.4000244140625</ele>
        <time>2026-06-17T07:44:11.000Z</time>
        <extensions>
          <ns3:TrackPointExtension>
            <ns3:atemp>18.0</ns3:atemp>
          </ns3:TrackPointExtension>
        </extensions>
      </trkpt>
      <trkpt lat="42.5904732383787631988525390625" lon="19.9469046480953693389892578125">
        <ele>991.5999755859375</ele>
        <time>2026-06-17T07:44:12.000Z</time>
        <extensions>
          <ns3:TrackPointExtension>
            <ns3:atemp>18.0</ns3:atemp>
          </ns3:TrackPointExtension>
        </extensions>
      </trkpt>
      <trkpt lat="42.59044884704053401947021484375" lon="19.94689685292541980743408203125">
        <ele>992</ele>
        <time>2026-06-17T07:44:13.000Z</time>
        <extensions>
          <ns3:TrackPointExtension>
            <ns3:atemp>18.0</ns3:atemp>
          </ns3:TrackPointExtension>
        </extensions>
      </trkpt>
      <trkpt lat="42.5904229469597339630126953125" lon="19.9468865431845188140869140625">
        <ele>992.4000244140625</ele>
        <time>2026-06-17T07:44:14.000Z</time>
        <extensions>
          <ns3:TrackPointExtension>
            <ns3:atemp>18.0</ns3:atemp>
          </ns3:TrackPointExtension>
        </extensions>
      </trkpt>
      <trkpt lat="42.5903988070785999298095703125" lon="19.94687606580555438995361328125">
        <ele>992.5999755859375</ele>
        <time>2026-06-17T07:44:15.000Z</time>
        <extensions>
          <ns3:TrackPointExtension>
            <ns3:atemp>18.0</ns3:atemp>
          </ns3:TrackPointExtension>
        </extensions>
      </trkpt>
      <trkpt lat="42.59037248790264129638671875" lon="19.946865253150463104248046875">
        <ele>993</ele>
        <time>2026-06-17T07:44:16.000Z</time>
        <extensions>
          <ns3:TrackPointExtension>
            <ns3:atemp>18.0</ns3:atemp>
          </ns3:TrackPointExtension>
        </extensions>
      </trkpt>
      <trkpt lat="42.59034759365022182464599609375" lon="19.94685427285730838775634765625">
        <ele>993.20001220703125</ele>
        <time>2026-06-17T07:44:17.000Z</time>
        <extensions>
          <ns3:TrackPointExtension>
            <ns3:atemp>18.0</ns3:atemp>
          </ns3:TrackPointExtension>
        </extensions>
      </trkpt>
      <trkpt lat="42.59031951427459716796875" lon="19.94684220291674137115478515625">
        <ele>993.4000244140625</ele>
        <time>2026-06-17T07:44:18.000Z</time>
        <extensions>
          <ns3:TrackPointExtension>
            <ns3:atemp>18.0</ns3:atemp>
          </ns3:TrackPointExtension>
        </extensions>
      </trkpt>
      <trkpt lat="42.59029294364154338836669921875" lon="19.94683675467967987060546875">
        <ele>993.79998779296875</ele>
        <time>2026-06-17T07:44:19.000Z</time>
        <extensions>
          <ns3:TrackPointExtension>
            <ns3:atemp>18.0</ns3:atemp>
          </ns3:TrackPointExtension>
        </extensions>
      </trkpt>
      <trkpt lat="42.590268887579441070556640625" lon="19.94683365337550640106201171875">
        <ele>994</ele>
        <time>2026-06-17T07:44:20.000Z</time>
        <extensions>
          <ns3:TrackPointExtension>
            <ns3:atemp>18.0</ns3:atemp>
          </ns3:TrackPointExtension>
        </extensions>
      </trkpt>
      <trkpt lat="42.59024281986057758331298828125" lon="19.94682602584362030029296875">
        <ele>994.20001220703125</ele>
        <time>2026-06-17T07:44:21.000Z</time>
        <extensions>
          <ns3:TrackPointExtension>
            <ns3:atemp>18.0</ns3:atemp>
          </ns3:TrackPointExtension>
        </extensions>
      </trkpt>
      <trkpt lat="42.59021767415106296539306640625" lon="19.94681856594979763031005859375">
        <ele>994.4000244140625</ele>
        <time>2026-06-17T07:44:22.000Z</time>
        <extensions>
          <ns3:TrackPointExtension>
            <ns3:atemp>18.0</ns3:atemp>
          </ns3:TrackPointExtension>
        </extensions>
      </trkpt>
      <trkpt lat="42.5901932828128337860107421875" lon="19.94681420736014842987060546875">
        <ele>994.5999755859375</ele>
        <time>2026-06-17T07:44:23.000Z</time>
        <extensions>
          <ns3:TrackPointExtension>
            <ns3:atemp>18.0</ns3:atemp>
          </ns3:TrackPointExtension>
        </extensions>
      </trkpt>
      <trkpt lat="42.59017056785523891448974609375" lon="19.9468067474663257598876953125">
        <ele>995</ele>
        <time>2026-06-17T07:44:24.000Z</time>
        <extensions>
          <ns3:TrackPointExtension>
            <ns3:atemp>18.0</ns3:atemp>
          </ns3:TrackPointExtension>
        </extensions>
      </trkpt>
      <trkpt lat="42.59014877490699291229248046875" lon="19.9467970244586467742919921875">
        <ele>995.20001220703125</ele>
        <time>2026-06-17T07:44:25.000Z</time>
        <extensions>
          <ns3:TrackPointExtension>
            <ns3:atemp>18.0</ns3:atemp>
          </ns3:TrackPointExtension>
        </extensions>
      </trkpt>
      <trkpt lat="42.59012899361550807952880859375" lon="19.94678788818418979644775390625">
        <ele>995.4000244140625</ele>
        <time>2026-06-17T07:44:26.000Z</time>
        <extensions>
          <ns3:TrackPointExtension>
            <ns3:atemp>18.0</ns3:atemp>
          </ns3:TrackPointExtension>
        </extensions>
      </trkpt>
      <trkpt lat="42.5901067815721035003662109375" lon="19.94678218849003314971923828125">
        <ele>995.79998779296875</ele>
        <time>2026-06-17T07:44:27.000Z</time>
        <extensions>
          <ns3:TrackPointExtension>
            <ns3:atemp>18.0</ns3:atemp>
          </ns3:TrackPointExtension>
        </extensions>
      </trkpt>
      <trkpt lat="42.590083144605159759521484375" lon="19.94677380658686161041259765625">
        <ele>996</ele>
        <time>2026-06-17T07:44:28.000Z</time>
        <extensions>
          <ns3:TrackPointExtension>
            <ns3:atemp>18.0</ns3:atemp>
          </ns3:TrackPointExtension>
        </extensions>
      </trkpt>
      <trkpt lat="42.59005908854305744171142578125" lon="19.94676701724529266357421875">
        <ele>996.20001220703125</ele>
        <time>2026-06-17T07:44:29.000Z</time>
        <extensions>
          <ns3:TrackPointExtension>
            <ns3:atemp>18.0</ns3:atemp>
          </ns3:TrackPointExtension>
        </extensions>
      </trkpt>
      <trkpt lat="42.59003746323287487030029296875" lon="19.94675771333277225494384765625">
        <ele>996.4000244140625</ele>
        <time>2026-06-17T07:44:30.000Z</time>
        <extensions>
          <ns3:TrackPointExtension>
            <ns3:atemp>18.0</ns3:atemp>
          </ns3:TrackPointExtension>
        </extensions>
      </trkpt>
      <trkpt lat="42.59001567028462886810302734375" lon="19.94674698449671268463134765625">
        <ele>996.5999755859375</ele>
        <time>2026-06-17T07:44:31.000Z</time>
        <extensions>
          <ns3:TrackPointExtension>
            <ns3:atemp>18.0</ns3:atemp>
          </ns3:TrackPointExtension>
        </extensions>
      </trkpt>
      <trkpt lat="42.58999521844089031219482421875" lon="19.94673348963260650634765625">
        <ele>996.79998779296875</ele>
        <time>2026-06-17T07:44:32.000Z</time>
        <extensions>
          <ns3:TrackPointExtension>
            <ns3:atemp>18.0</ns3:atemp>
          </ns3:TrackPointExtension>
        </extensions>
      </trkpt>
      <trkpt lat="42.5899721682071685791015625" lon="19.94671999476850032806396484375">
        <ele>996.79998779296875</ele>
        <time>2026-06-17T07:44:33.000Z</time>
        <extensions>
          <ns3:TrackPointExtension>
            <ns3:atemp>18.0</ns3:atemp>
          </ns3:TrackPointExtension>
        </extensions>
      </trkpt>
      <trkpt lat="42.58994744159281253814697265625" lon="19.9467088468372821807861328125">
        <ele>997</ele>
        <time>2026-06-17T07:44:34.000Z</time>
        <extensions>
          <ns3:TrackPointExtension>
            <ns3:atemp>18.0</ns3:atemp>
          </ns3:TrackPointExtension>
        </extensions>
      </trkpt>
      <trkpt lat="42.58992321789264678955078125" lon="19.94669451378285884857177734375">
        <ele>997</ele>
        <time>2026-06-17T07:44:35.000Z</time>
        <extensions>
          <ns3:TrackPointExtension>
            <ns3:atemp>18.0</ns3:atemp>
          </ns3:TrackPointExtension>
        </extensions>
      </trkpt>
      <trkpt lat="42.58989916183054447174072265625" lon="19.9466783367097377777099609375">
        <ele>997.20001220703125</ele>
        <time>2026-06-17T07:44:36.000Z</time>
        <extensions>
          <ns3:TrackPointExtension>
            <ns3:atemp>18.0</ns3:atemp>
          </ns3:TrackPointExtension>
        </extensions>
      </trkpt>
      <trkpt lat="42.5898761115968227386474609375" lon="19.9466609023511409759521484375">
        <ele>997.4000244140625</ele>
        <time>2026-06-17T07:44:37.000Z</time>
        <extensions>
          <ns3:TrackPointExtension>
            <ns3:atemp>18.0</ns3:atemp>
          </ns3:TrackPointExtension>
        </extensions>
      </trkpt>
      <trkpt lat="42.5898514688014984130859375" lon="19.946641959249973297119140625">
        <ele>997.4000244140625</ele>
        <time>2026-06-17T07:44:38.000Z</time>
        <extensions>
          <ns3:TrackPointExtension>
            <ns3:atemp>18.0</ns3:atemp>
          </ns3:TrackPointExtension>
        </extensions>
      </trkpt>
      <trkpt lat="42.589825652539730072021484375" lon="19.94662175886332988739013671875">
        <ele>997.5999755859375</ele>
        <time>2026-06-17T07:44:39.000Z</time>
        <extensions>
          <ns3:TrackPointExtension>
            <ns3:atemp>18.0</ns3:atemp>
          </ns3:TrackPointExtension>
        </extensions>
      </trkpt>
      <trkpt lat="42.58980478160083293914794921875" lon="19.94660046882927417755126953125">
        <ele>997.5999755859375</ele>
        <time>2026-06-17T07:44:40.000Z</time>
        <extensions>
          <ns3:TrackPointExtension>
            <ns3:atemp>18.0</ns3:atemp>
          </ns3:TrackPointExtension>
        </extensions>
      </trkpt>
      <trkpt lat="42.5897897779941558837890625" lon="19.94658051989972591400146484375">
        <ele>997.79998779296875</ele>
        <time>2026-06-17T07:44:41.000Z</time>
        <extensions>
          <ns3:TrackPointExtension>
            <ns3:atemp>18.0</ns3:atemp>
          </ns3:TrackPointExtension>
        </extensions>
      </trkpt>
      <trkpt lat="42.589772008359432220458984375" lon="19.94655285961925983428955078125">
        <ele>998</ele>
        <time>2026-06-17T07:44:42.000Z</time>
        <extensions>
          <ns3:TrackPointExtension>
            <ns3:atemp>18.0</ns3:atemp>
          </ns3:TrackPointExtension>
        </extensions>
      </trkpt>
      <trkpt lat="42.58975734002888202667236328125" lon="19.9465227685868740081787109375">
        <ele>998</ele>
        <time>2026-06-17T07:44:43.000Z</time>
        <extensions>
          <ns3:TrackPointExtension>
            <ns3:atemp>18.0</ns3:atemp>
          </ns3:TrackPointExtension>
        </extensions>
      </trkpt>
      <trkpt lat="42.5897450186312198638916015625" lon="19.9464895762503147125244140625">
        <ele>998.20001220703125</ele>
        <time>2026-06-17T07:44:44.000Z</time>
        <extensions>
          <ns3:TrackPointExtension>
            <ns3:atemp>18.0</ns3:atemp>
          </ns3:TrackPointExtension>
        </extensions>
      </trkpt>
      <trkpt lat="42.589732110500335693359375" lon="19.946457557380199432373046875">
        <ele>998.4000244140625</ele>
        <time>2026-06-17T07:44:45.000Z</time>
        <extensions>
          <ns3:TrackPointExtension>
            <ns3:atemp>18.0</ns3:atemp>
          </ns3:TrackPointExtension>
        </extensions>
      </trkpt>
      <trkpt lat="42.5897181965410709381103515625" lon="19.94642914272844791412353515625">
        <ele>998.5999755859375</ele>
        <time>2026-06-17T07:44:46.000Z</time>
        <extensions>
          <ns3:TrackPointExtension>
            <ns3:atemp>18.0</ns3:atemp>
          </ns3:TrackPointExtension>
        </extensions>
      </trkpt>
      <trkpt lat="42.58970637805759906768798828125" lon="19.94640215300023555755615234375">
        <ele>998.79998779296875</ele>
        <time>2026-06-17T07:44:47.000Z</time>
        <extensions>
          <ns3:TrackPointExtension>
            <ns3:atemp>18.0</ns3:atemp>
          </ns3:TrackPointExtension>
        </extensions>
      </trkpt>
      <trkpt lat="42.5896967388689517974853515625" lon="19.94636326096951961517333984375">
        <ele>998.79998779296875</ele>
        <time>2026-06-17T07:44:48.000Z</time>
        <extensions>
          <ns3:TrackPointExtension>
            <ns3:atemp>18.0</ns3:atemp>
          </ns3:TrackPointExtension>
        </extensions>
      </trkpt>
      <trkpt lat="42.58968508802354335784912109375" lon="19.94632319547235965728759765625">
        <ele>999</ele>
        <time>2026-06-17T07:44:49.000Z</time>
        <extensions>
          <ns3:TrackPointExtension>
            <ns3:atemp>18.0</ns3:atemp>
          </ns3:TrackPointExtension>
        </extensions>
      </trkpt>
      <trkpt lat="42.58967268280684947967529296875" lon="19.9462820403277873992919921875">
        <ele>999</ele>
        <time>2026-06-17T07:44:50.000Z</time>
        <extensions>
          <ns3:TrackPointExtension>
            <ns3:atemp>18.0</ns3:atemp>
          </ns3:TrackPointExtension>
        </extensions>
      </trkpt>
      <trkpt lat="42.58966295979917049407958984375" lon="19.9462351016700267791748046875">
        <ele>999</ele>
        <time>2026-06-17T07:44:51.000Z</time>
        <extensions>
          <ns3:TrackPointExtension>
            <ns3:atemp>18.0</ns3:atemp>
          </ns3:TrackPointExtension>
        </extensions>
      </trkpt>
      <trkpt lat="42.58965290151536464691162109375" lon="19.94618623517453670501708984375">
        <ele>999.20001220703125</ele>
        <time>2026-06-17T07:44:52.000Z</time>
        <extensions>
          <ns3:TrackPointExtension>
            <ns3:atemp>18.0</ns3:atemp>
          </ns3:TrackPointExtension>
        </extensions>
      </trkpt>
      <trkpt lat="42.5896404124796390533447265625" lon="19.9461442418396472930908203125">
        <ele>999.20001220703125</ele>
        <time>2026-06-17T07:44:53.000Z</time>
        <extensions>
          <ns3:TrackPointExtension>
            <ns3:atemp>18.0</ns3:atemp>
          </ns3:TrackPointExtension>
        </extensions>
      </trkpt>
      <trkpt lat="42.58963228203356266021728515625" lon="19.94610727764666080474853515625">
        <ele>999.20001220703125</ele>
        <time>2026-06-17T07:44:54.000Z</time>
        <extensions>
          <ns3:TrackPointExtension>
            <ns3:atemp>18.0</ns3:atemp>
          </ns3:TrackPointExtension>
        </extensions>
      </trkpt>
      <trkpt lat="42.589621804654598236083984375" lon="19.94606520049273967742919921875">
        <ele>999.4000244140625</ele>
        <time>2026-06-17T07:44:55.000Z</time>
        <extensions>
          <ns3:TrackPointExtension>
            <ns3:atemp>18.0</ns3:atemp>
          </ns3:TrackPointExtension>
        </extensions>
      </trkpt>
      <trkpt lat="42.58961250074207782745361328125" lon="19.94602396152913570404052734375">
        <ele>999.4000244140625</ele>
        <time>2026-06-17T07:44:56.000Z</time>
        <extensions>
          <ns3:TrackPointExtension>
            <ns3:atemp>18.0</ns3:atemp>
          </ns3:TrackPointExtension>
        </extensions>
      </trkpt>
      <trkpt lat="42.58960277773439884185791015625" lon="19.9459772743284702301025390625">
        <ele>999.5999755859375</ele>
        <time>2026-06-17T07:44:57.000Z</time>
        <extensions>
          <ns3:TrackPointExtension>
            <ns3:atemp>18.0</ns3:atemp>
          </ns3:TrackPointExtension>
        </extensions>
      </trkpt>
      <trkpt lat="42.58958685211837291717529296875" lon="19.94593712501227855682373046875">
        <ele>999.79998779296875</ele>
        <time>2026-06-17T07:44:58.000Z</time>
        <extensions>
          <ns3:TrackPointExtension>
            <ns3:atemp>18.0</ns3:atemp>
          </ns3:TrackPointExtension>
        </extensions>
      </trkpt>
      <trkpt lat="42.58956790901720523834228515625" lon="19.9458994902670383453369140625">
        <ele>999.79998779296875</ele>
        <time>2026-06-17T07:44:59.000Z</time>
        <extensions>
          <ns3:TrackPointExtension>
            <ns3:atemp>18.0</ns3:atemp>
          </ns3:TrackPointExtension>
        </extensions>
      </trkpt>
      <trkpt lat="42.58954770863056182861328125" lon="19.94586152024567127227783203125">
        <ele>1000</ele>
        <time>2026-06-17T07:45:00.000Z</time>
        <extensions>
          <ns3:TrackPointExtension>
            <ns3:atemp>18.0</ns3:atemp>
          </ns3:TrackPointExtension>
        </extensions>
      </trkpt>
      <trkpt lat="42.58952834643423557281494140625" lon="19.9458217062056064605712890625">
        <ele>1000</ele>
        <time>2026-06-17T07:45:01.000Z</time>
        <extensions>
          <ns3:TrackPointExtension>
            <ns3:atemp>18.0</ns3:atemp>
          </ns3:TrackPointExtension>
        </extensions>
      </trkpt>
      <trkpt lat="42.5895056314766407012939453125" lon="19.945783652365207672119140625">
        <ele>1000.20001220703125</ele>
        <time>2026-06-17T07:45:02.000Z</time>
        <extensions>
          <ns3:TrackPointExtension>
            <ns3:atemp>18.0</ns3:atemp>
          </ns3:TrackPointExtension>
        </extensions>
      </trkpt>
      <trkpt lat="42.58947663009166717529296875" lon="19.9457455985248088836669921875">
        <ele>1000.20001220703125</ele>
        <time>2026-06-17T07:45:03.000Z</time>
        <extensions>
          <ns3:TrackPointExtension>
            <ns3:atemp>18.0</ns3:atemp>
          </ns3:TrackPointExtension>
        </extensions>
      </trkpt>
      <trkpt lat="42.5894449464976787567138671875" lon="19.94570712558925151824951171875">
        <ele>1000.20001220703125</ele>
        <time>2026-06-17T07:45:04.000Z</time>
        <extensions>
          <ns3:TrackPointExtension>
            <ns3:atemp>18.0</ns3:atemp>
          </ns3:TrackPointExtension>
        </extensions>
      </trkpt>
      <trkpt lat="42.5894104130566120147705078125" lon="19.945670664310455322265625">
        <ele>1000.20001220703125</ele>
        <time>2026-06-17T07:45:05.000Z</time>
        <extensions>
          <ns3:TrackPointExtension>
            <ns3:atemp>18.0</ns3:atemp>
          </ns3:TrackPointExtension>
        </extensions>
      </trkpt>
      <trkpt lat="42.58937311358749866485595703125" lon="19.94563654996454715728759765625">
        <ele>1000.20001220703125</ele>
        <time>2026-06-17T07:45:06.000Z</time>
        <extensions>
          <ns3:TrackPointExtension>
            <ns3:atemp>19.0</ns3:atemp>
          </ns3:TrackPointExtension>
        </extensions>
      </trkpt>
      <trkpt lat="42.58933505974709987640380859375" lon="19.945603944361209869384765625">
        <ele>1000.20001220703125</ele>
        <time>2026-06-17T07:45:07.000Z</time>
        <extensions>
          <ns3:TrackPointExtension>
            <ns3:atemp>19.0</ns3:atemp>
          </ns3:TrackPointExtension>
        </extensions>
      </trkpt>
      <trkpt lat="42.58929633535444736480712890625" lon="19.94557217694818973541259765625">
        <ele>1000.20001220703125</ele>
        <time>2026-06-17T07:45:08.000Z</time>
        <extensions>
          <ns3:TrackPointExtension>
            <ns3:atemp>19.0</ns3:atemp>
          </ns3:TrackPointExtension>
        </extensions>
      </trkpt>
      <trkpt lat="42.5892560184001922607421875" lon="19.94553781114518642425537109375">
        <ele>1000.20001220703125</ele>
        <time>2026-06-17T07:45:09.000Z</time>
        <extensions>
          <ns3:TrackPointExtension>
            <ns3:atemp>19.0</ns3:atemp>
          </ns3:TrackPointExtension>
        </extensions>
      </trkpt>
      <trkpt lat="42.5892172940075397491455078125" lon="19.94550730101764202117919921875">
        <ele>1000.20001220703125</ele>
        <time>2026-06-17T07:45:10.000Z</time>
        <extensions>
          <ns3:TrackPointExtension>
            <ns3:atemp>19.0</ns3:atemp>
          </ns3:TrackPointExtension>
        </extensions>
      </trkpt>
      <trkpt lat="42.58917865343391895294189453125" lon="19.94547762908041477203369140625">
        <ele>1000.20001220703125</ele>
        <time>2026-06-17T07:45:11.000Z</time>
        <extensions>
          <ns3:TrackPointExtension>
            <ns3:atemp>19.0</ns3:atemp>
          </ns3:TrackPointExtension>
        </extensions>
      </trkpt>
      <trkpt lat="42.58913992904126644134521484375" lon="19.94544611312448978424072265625">
        <ele>1000.20001220703125</ele>
        <time>2026-06-17T07:45:12.000Z</time>
        <extensions>
          <ns3:TrackPointExtension>
            <ns3:atemp>19.0</ns3:atemp>
          </ns3:TrackPointExtension>
        </extensions>
      </trkpt>
      <trkpt lat="42.5891012884676456451416015625" lon="19.94541459716856479644775390625">
        <ele>1000.20001220703125</ele>
        <time>2026-06-17T07:45:13.000Z</time>
        <extensions>
          <ns3:TrackPointExtension>
            <ns3:atemp>19.0</ns3:atemp>
          </ns3:TrackPointExtension>
        </extensions>
      </trkpt>
      <trkpt lat="42.58906030096113681793212890625" lon="19.9453875236213207244873046875">
        <ele>1000.20001220703125</ele>
        <time>2026-06-17T07:45:14.000Z</time>
        <extensions>
          <ns3:TrackPointExtension>
            <ns3:atemp>19.0</ns3:atemp>
          </ns3:TrackPointExtension>
        </extensions>
      </trkpt>
      <trkpt lat="42.5890199840068817138671875" lon="19.9453635513782501220703125">
        <ele>1000.4000244140625</ele>
        <time>2026-06-17T07:45:15.000Z</time>
        <extensions>
          <ns3:TrackPointExtension>
            <ns3:atemp>19.0</ns3:atemp>
          </ns3:TrackPointExtension>
        </extensions>
      </trkpt>
      <trkpt lat="42.5889782421290874481201171875" lon="19.945339746773242950439453125">
        <ele>1000.4000244140625</ele>
        <time>2026-06-17T07:45:16.000Z</time>
        <extensions>
          <ns3:TrackPointExtension>
            <ns3:atemp>19.0</ns3:atemp>
          </ns3:TrackPointExtension>
        </extensions>
      </trkpt>
      <trkpt lat="42.58893943391740322113037109375" lon="19.945316277444362640380859375">
        <ele>1000.5999755859375</ele>
        <time>2026-06-17T07:45:17.000Z</time>
        <extensions>
          <ns3:TrackPointExtension>
            <ns3:atemp>19.0</ns3:atemp>
          </ns3:TrackPointExtension>
        </extensions>
      </trkpt>
      <trkpt lat="42.5888987816870212554931640625" lon="19.9452953226864337921142578125">
        <ele>1000.5999755859375</ele>
        <time>2026-06-17T07:45:18.000Z</time>
        <extensions>
          <ns3:TrackPointExtension>
            <ns3:atemp>19.0</ns3:atemp>
          </ns3:TrackPointExtension>
        </extensions>
      </trkpt>
      <trkpt lat="42.588858716189861297607421875" lon="19.94527327828109264373779296875">
        <ele>1000.79998779296875</ele>
        <time>2026-06-17T07:45:19.000Z</time>
        <extensions>
          <ns3:TrackPointExtension>
            <ns3:atemp>19.0</ns3:atemp>
          </ns3:TrackPointExtension>
        </extensions>
      </trkpt>
      <trkpt lat="42.58881588466465473175048828125" lon="19.94525265879929065704345703125">
        <ele>1000.79998779296875</ele>
        <time>2026-06-17T07:45:20.000Z</time>
        <extensions>
          <ns3:TrackPointExtension>
            <ns3:atemp>19.0</ns3:atemp>
          </ns3:TrackPointExtension>
        </extensions>
      </trkpt>
      <trkpt lat="42.588773556053638458251953125" lon="19.9452319554984569549560546875">
        <ele>1001</ele>
        <time>2026-06-17T07:45:21.000Z</time>
        <extensions>
          <ns3:TrackPointExtension>
            <ns3:atemp>19.0</ns3:atemp>
          </ns3:TrackPointExtension>
        </extensions>
      </trkpt>
      <trkpt lat="42.5887321494519710540771484375" lon="19.9452115036547183990478515625">
        <ele>1001.20001220703125</ele>
        <time>2026-06-17T07:45:22.000Z</time>
        <extensions>
          <ns3:TrackPointExtension>
            <ns3:atemp>19.0</ns3:atemp>
          </ns3:TrackPointExtension>
        </extensions>
      </trkpt>
      <trkpt lat="42.5886939279735088348388671875" lon="19.9451865255832672119140625">
        <ele>1001.20001220703125</ele>
        <time>2026-06-17T07:45:23.000Z</time>
        <extensions>
          <ns3:TrackPointExtension>
            <ns3:atemp>19.0</ns3:atemp>
          </ns3:TrackPointExtension>
        </extensions>
      </trkpt>
      <trkpt lat="42.5886590592563152313232421875" lon="19.945166744291782379150390625">
        <ele>1001.4000244140625</ele>
        <time>2026-06-17T07:45:24.000Z</time>
        <extensions>
          <ns3:TrackPointExtension>
            <ns3:atemp>19.0</ns3:atemp>
          </ns3:TrackPointExtension>
        </extensions>
      </trkpt>
      <trkpt lat="42.58862460963428020477294921875" lon="19.945151992142200469970703125">
        <ele>1001.5999755859375</ele>
        <time>2026-06-17T07:45:25.000Z</time>
        <extensions>
          <ns3:TrackPointExtension>
            <ns3:atemp>19.0</ns3:atemp>
          </ns3:TrackPointExtension>
        </extensions>
      </trkpt>
      <trkpt lat="42.5885913334786891937255859375" lon="19.945133887231349945068359375">
        <ele>1001.79998779296875</ele>
        <time>2026-06-17T07:45:26.000Z</time>
        <extensions>
          <ns3:TrackPointExtension>
            <ns3:atemp>19.0</ns3:atemp>
          </ns3:TrackPointExtension>
        </extensions>
      </trkpt>
      <trkpt lat="42.58855453692376613616943359375" lon="19.94512139819562435150146484375">
        <ele>1002</ele>
        <time>2026-06-17T07:45:27.000Z</time>
        <extensions>
          <ns3:TrackPointExtension>
            <ns3:atemp>19.0</ns3:atemp>
          </ns3:TrackPointExtension>
        </extensions>
      </trkpt>
      <trkpt lat="42.58851908147335052490234375" lon="19.94510664604604244232177734375">
        <ele>1002.20001220703125</ele>
        <time>2026-06-17T07:45:28.000Z</time>
        <extensions>
          <ns3:TrackPointExtension>
            <ns3:atemp>19.0</ns3:atemp>
          </ns3:TrackPointExtension>
        </extensions>
      </trkpt>
      <trkpt lat="42.58848488330841064453125" lon="19.94509398937225341796875">
        <ele>1002.4000244140625</ele>
        <time>2026-06-17T07:45:29.000Z</time>
        <extensions>
          <ns3:TrackPointExtension>
            <ns3:atemp>19.0</ns3:atemp>
          </ns3:TrackPointExtension>
        </extensions>
      </trkpt>
      <trkpt lat="42.588452361524105072021484375" lon="19.94508250616490840911865234375">
        <ele>1002.5999755859375</ele>
        <time>2026-06-17T07:45:30.000Z</time>
        <extensions>
          <ns3:TrackPointExtension>
            <ns3:atemp>19.0</ns3:atemp>
          </ns3:TrackPointExtension>
        </extensions>
      </trkpt>
      <trkpt lat="42.58841824717819690704345703125" lon="19.94507345370948314666748046875">
        <ele>1002.79998779296875</ele>
        <time>2026-06-17T07:45:31.000Z</time>
        <extensions>
          <ns3:TrackPointExtension>
            <ns3:atemp>19.0</ns3:atemp>
          </ns3:TrackPointExtension>
        </extensions>
      </trkpt>
      <trkpt lat="42.5883841328322887420654296875" lon="19.9450666643679141998291015625">
        <ele>1003</ele>
        <time>2026-06-17T07:45:32.000Z</time>
        <extensions>
          <ns3:TrackPointExtension>
            <ns3:atemp>19.0</ns3:atemp>
          </ns3:TrackPointExtension>
        </extensions>
      </trkpt>
      <trkpt lat="42.588350437581539154052734375" lon="19.94506247341632843017578125">
        <ele>1003.20001220703125</ele>
        <time>2026-06-17T07:45:33.000Z</time>
        <extensions>
          <ns3:TrackPointExtension>
            <ns3:atemp>19.0</ns3:atemp>
          </ns3:TrackPointExtension>
        </extensions>
      </trkpt>
      <trkpt lat="42.58831565268337726593017578125" lon="19.94505685754120349884033203125">
        <ele>1003.4000244140625</ele>
        <time>2026-06-17T07:45:34.000Z</time>
        <extensions>
          <ns3:TrackPointExtension>
            <ns3:atemp>19.0</ns3:atemp>
          </ns3:TrackPointExtension>
        </extensions>
      </trkpt>
      <trkpt lat="42.5882832147181034088134765625" lon="19.94505182839930057525634765625">
        <ele>1003.5999755859375</ele>
        <time>2026-06-17T07:45:35.000Z</time>
        <extensions>
          <ns3:TrackPointExtension>
            <ns3:atemp>19.0</ns3:atemp>
          </ns3:TrackPointExtension>
        </extensions>
      </trkpt>
      <trkpt lat="42.5882506929337978363037109375" lon="19.945050738751888275146484375">
        <ele>1003.79998779296875</ele>
        <time>2026-06-17T07:45:36.000Z</time>
        <extensions>
          <ns3:TrackPointExtension>
            <ns3:atemp>19.0</ns3:atemp>
          </ns3:TrackPointExtension>
        </extensions>
      </trkpt>
      <trkpt lat="42.5882191769778728485107421875" lon="19.945049397647380828857421875">
        <ele>1004</ele>
        <time>2026-06-17T07:45:37.000Z</time>
        <extensions>
          <ns3:TrackPointExtension>
            <ns3:atemp>19.0</ns3:atemp>
          </ns3:TrackPointExtension>
        </extensions>
      </trkpt>
      <trkpt lat="42.58818791247904300689697265625" lon="19.94504663161933422088623046875">
        <ele>1004.20001220703125</ele>
        <time>2026-06-17T07:45:38.000Z</time>
        <extensions>
          <ns3:TrackPointExtension>
            <ns3:atemp>19.0</ns3:atemp>
          </ns3:TrackPointExtension>
        </extensions>
      </trkpt>
      <trkpt lat="42.588156647980213165283203125" lon="19.9450415186583995819091796875">
        <ele>1004.4000244140625</ele>
        <time>2026-06-17T07:45:39.000Z</time>
        <extensions>
          <ns3:TrackPointExtension>
            <ns3:atemp>19.0</ns3:atemp>
          </ns3:TrackPointExtension>
        </extensions>
      </trkpt>
      <trkpt lat="42.58812588639557361602783203125" lon="19.94503699243068695068359375">
        <ele>1004.79998779296875</ele>
        <time>2026-06-17T07:45:40.000Z</time>
        <extensions>
          <ns3:TrackPointExtension>
            <ns3:atemp>19.0</ns3:atemp>
          </ns3:TrackPointExtension>
        </extensions>
      </trkpt>
      <trkpt lat="42.5880931131541728973388671875" lon="19.9450304545462131500244140625">
        <ele>1005</ele>
        <time>2026-06-17T07:45:41.000Z</time>
        <extensions>
          <ns3:TrackPointExtension>
            <ns3:atemp>19.0</ns3:atemp>
          </ns3:TrackPointExtension>
        </extensions>
      </trkpt>
      <trkpt lat="42.588058076798915863037109375" lon="19.94502249173820018768310546875">
        <ele>1005.20001220703125</ele>
        <time>2026-06-17T07:45:42.000Z</time>
        <extensions>
          <ns3:TrackPointExtension>
            <ns3:atemp>19.0</ns3:atemp>
          </ns3:TrackPointExtension>
        </extensions>
      </trkpt>
      <trkpt lat="42.58801775984466075897216796875" lon="19.94501679204404354095458984375">
        <ele>1005.4000244140625</ele>
        <time>2026-06-17T07:45:43.000Z</time>
        <extensions>
          <ns3:TrackPointExtension>
            <ns3:atemp>19.0</ns3:atemp>
          </ns3:TrackPointExtension>
        </extensions>
      </trkpt>
      <trkpt lat="42.58798087947070598602294921875" lon="19.94500556029379367828369140625">
        <ele>1005.79998779296875</ele>
        <time>2026-06-17T07:45:44.000Z</time>
        <extensions>
          <ns3:TrackPointExtension>
            <ns3:atemp>19.0</ns3:atemp>
          </ns3:TrackPointExtension>
        </extensions>
      </trkpt>
      <trkpt lat="42.58794232271611690521240234375" lon="19.9449942447245121002197265625">
        <ele>1006</ele>
        <time>2026-06-17T07:45:45.000Z</time>
        <extensions>
          <ns3:TrackPointExtension>
            <ns3:atemp>19.0</ns3:atemp>
          </ns3:TrackPointExtension>
        </extensions>
      </trkpt>
      <trkpt lat="42.58790426887571811676025390625" lon="19.94497957639396190643310546875">
        <ele>1006.20001220703125</ele>
        <time>2026-06-17T07:45:46.000Z</time>
        <extensions>
          <ns3:TrackPointExtension>
            <ns3:atemp>19.0</ns3:atemp>
          </ns3:TrackPointExtension>
        </extensions>
      </trkpt>
      <trkpt lat="42.58786889724433422088623046875" lon="19.94496524333953857421875">
        <ele>1006.5999755859375</ele>
        <time>2026-06-17T07:45:47.000Z</time>
        <extensions>
          <ns3:TrackPointExtension>
            <ns3:atemp>19.0</ns3:atemp>
          </ns3:TrackPointExtension>
        </extensions>
      </trkpt>
      <trkpt lat="42.5878326036036014556884765625" lon="19.94495107792317867279052734375">
        <ele>1007</ele>
        <time>2026-06-17T07:45:48.000Z</time>
        <extensions>
          <ns3:TrackPointExtension>
            <ns3:atemp>19.0</ns3:atemp>
          </ns3:TrackPointExtension>
        </extensions>
      </trkpt>
      <trkpt lat="42.58780167438089847564697265625" lon="19.9449338950216770172119140625">
        <ele>1007.20001220703125</ele>
        <time>2026-06-17T07:45:49.000Z</time>
        <extensions>
          <ns3:TrackPointExtension>
            <ns3:atemp>19.0</ns3:atemp>
          </ns3:TrackPointExtension>
        </extensions>
      </trkpt>
      <trkpt lat="42.58777300827205181121826171875" lon="19.944914616644382476806640625">
        <ele>1007.5999755859375</ele>
        <time>2026-06-17T07:45:50.000Z</time>
        <extensions>
          <ns3:TrackPointExtension>
            <ns3:atemp>19.0</ns3:atemp>
          </ns3:TrackPointExtension>
        </extensions>
      </trkpt>
      <trkpt lat="42.58774216286838054656982421875" lon="19.94490061886608600616455078125">
        <ele>1007.79998779296875</ele>
        <time>2026-06-17T07:45:51.000Z</time>
        <extensions>
          <ns3:TrackPointExtension>
            <ns3:atemp>19.0</ns3:atemp>
          </ns3:TrackPointExtension>
        </extensions>
      </trkpt>
      <trkpt lat="42.58770746178925037384033203125" lon="19.944879747927188873291015625">
        <ele>1008</ele>
        <time>2026-06-17T07:45:52.000Z</time>
        <extensions>
          <ns3:TrackPointExtension>
            <ns3:atemp>19.0</ns3:atemp>
          </ns3:TrackPointExtension>
        </extensions>
      </trkpt>
      <trkpt lat="42.58767393417656421661376953125" lon="19.94485686533153057098388671875">
        <ele>1008.4000244140625</ele>
        <time>2026-06-17T07:45:53.000Z</time>
        <extensions>
          <ns3:TrackPointExtension>
            <ns3:atemp>19.0</ns3:atemp>
          </ns3:TrackPointExtension>
        </extensions>
      </trkpt>
      <trkpt lat="42.5876428373157978057861328125" lon="19.944838173687458038330078125">
        <ele>1008.5999755859375</ele>
        <time>2026-06-17T07:45:54.000Z</time>
        <extensions>
          <ns3:TrackPointExtension>
            <ns3:atemp>19.0</ns3:atemp>
          </ns3:TrackPointExtension>
        </extensions>
      </trkpt>
      <trkpt lat="42.58761073462665081024169921875" lon="19.94481529109179973602294921875">
        <ele>1008.79998779296875</ele>
        <time>2026-06-17T07:45:55.000Z</time>
        <extensions>
          <ns3:TrackPointExtension>
            <ns3:atemp>19.0</ns3:atemp>
          </ns3:TrackPointExtension>
        </extensions>
      </trkpt>
      <trkpt lat="42.58757636882364749908447265625" lon="19.94479450397193431854248046875">
        <ele>1008.79998779296875</ele>
        <time>2026-06-17T07:45:56.000Z</time>
        <extensions>
          <ns3:TrackPointExtension>
            <ns3:atemp>19.0</ns3:atemp>
          </ns3:TrackPointExtension>
        </extensions>
      </trkpt>
      <trkpt lat="42.58754770271480083465576171875" lon="19.94476935826241970062255859375">
        <ele>1009</ele>
        <time>2026-06-17T07:45:57.000Z</time>
        <extensions>
          <ns3:TrackPointExtension>
            <ns3:atemp>19.0</ns3:atemp>
          </ns3:TrackPointExtension>
        </extensions>
      </trkpt>
      <trkpt lat="42.5875214673578739166259765625" lon="19.9447454698383808135986328125">
        <ele>1009</ele>
        <time>2026-06-17T07:45:58.000Z</time>
        <extensions>
          <ns3:TrackPointExtension>
            <ns3:atemp>19.0</ns3:atemp>
          </ns3:TrackPointExtension>
        </extensions>
      </trkpt>
      <trkpt lat="42.5874922983348369598388671875" lon="19.94472057558596134185791015625">
        <ele>1009.20001220703125</ele>
        <time>2026-06-17T07:45:59.000Z</time>
        <extensions>
          <ns3:TrackPointExtension>
            <ns3:atemp>19.0</ns3:atemp>
          </ns3:TrackPointExtension>
        </extensions>
      </trkpt>
      <trkpt lat="42.58746069855988025665283203125" lon="19.94469760917127132415771484375">
        <ele>1009.20001220703125</ele>
        <time>2026-06-17T07:46:00.000Z</time>
        <extensions>
          <ns3:TrackPointExtension>
            <ns3:atemp>19.0</ns3:atemp>
          </ns3:TrackPointExtension>
        </extensions>
      </trkpt>
      <trkpt lat="42.58742599748075008392333984375" lon="19.94467749260365962982177734375">
        <ele>1009.20001220703125</ele>
        <time>2026-06-17T07:46:01.000Z</time>
        <extensions>
          <ns3:TrackPointExtension>
            <ns3:atemp>19.0</ns3:atemp>
          </ns3:TrackPointExtension>
        </extensions>
      </trkpt>
      <trkpt lat="42.58738811127841472625732421875" lon="19.94465620256960391998291015625">
        <ele>1009.20001220703125</ele>
        <time>2026-06-17T07:46:02.000Z</time>
        <extensions>
          <ns3:TrackPointExtension>
            <ns3:atemp>19.0</ns3:atemp>
          </ns3:TrackPointExtension>
        </extensions>
      </trkpt>
      <trkpt lat="42.58734838105738162994384765625" lon="19.94462971575558185577392578125">
        <ele>1009.20001220703125</ele>
        <time>2026-06-17T07:46:03.000Z</time>
        <extensions>
          <ns3:TrackPointExtension>
            <ns3:atemp>19.0</ns3:atemp>
          </ns3:TrackPointExtension>
        </extensions>
      </trkpt>
      <trkpt lat="42.58730940520763397216796875" lon="19.9446026422083377838134765625">
        <ele>1009.20001220703125</ele>
        <time>2026-06-17T07:46:04.000Z</time>
        <extensions>
          <ns3:TrackPointExtension>
            <ns3:atemp>19.0</ns3:atemp>
          </ns3:TrackPointExtension>
        </extensions>
      </trkpt>
      <trkpt lat="42.5872700102627277374267578125" lon="19.944576323032379150390625">
        <ele>1009</ele>
        <time>2026-06-17T07:46:05.000Z</time>
        <extensions>
          <ns3:TrackPointExtension>
            <ns3:atemp>19.0</ns3:atemp>
          </ns3:TrackPointExtension>
        </extensions>
      </trkpt>
      <trkpt lat="42.58722902275621891021728515625" lon="19.9445516802370548248291015625">
        <ele>1009</ele>
        <time>2026-06-17T07:46:06.000Z</time>
        <extensions>
          <ns3:TrackPointExtension>
            <ns3:atemp>19.0</ns3:atemp>
          </ns3:TrackPointExtension>
        </extensions>
      </trkpt>
      <trkpt lat="42.58718795143067836761474609375" lon="19.9445238523185253143310546875">
        <ele>1009</ele>
        <time>2026-06-17T07:46:07.000Z</time>
        <extensions>
          <ns3:TrackPointExtension>
            <ns3:atemp>19.0</ns3:atemp>
          </ns3:TrackPointExtension>
        </extensions>
      </trkpt>
      <trkpt lat="42.58714369498193264007568359375" lon="19.9444936774671077728271484375">
        <ele>1009</ele>
        <time>2026-06-17T07:46:08.000Z</time>
        <extensions>
          <ns3:TrackPointExtension>
            <ns3:atemp>19.0</ns3:atemp>
          </ns3:TrackPointExtension>
        </extensions>
      </trkpt>
      <trkpt lat="42.58709742687642574310302734375" lon="19.94446760974824428558349609375">
        <ele>1009</ele>
        <time>2026-06-17T07:46:09.000Z</time>
        <extensions>
          <ns3:TrackPointExtension>
            <ns3:atemp>19.0</ns3:atemp>
          </ns3:TrackPointExtension>
        </extensions>
      </trkpt>
      <trkpt lat="42.58705216459929943084716796875" lon="19.94443793781101703643798828125">
        <ele>1009</ele>
        <time>2026-06-17T07:46:10.000Z</time>
        <extensions>
          <ns3:TrackPointExtension>
            <ns3:atemp>19.0</ns3:atemp>
          </ns3:TrackPointExtension>
        </extensions>
      </trkpt>
      <trkpt lat="42.58700740523636341094970703125" lon="19.94440692476928234100341796875">
        <ele>1008.79998779296875</ele>
        <time>2026-06-17T07:46:11.000Z</time>
        <extensions>
          <ns3:TrackPointExtension>
            <ns3:atemp>19.0</ns3:atemp>
          </ns3:TrackPointExtension>
        </extensions>
      </trkpt>
      <trkpt lat="42.58696164004504680633544921875" lon="19.9443791806697845458984375">
        <ele>1008.79998779296875</ele>
        <time>2026-06-17T07:46:12.000Z</time>
        <extensions>
          <ns3:TrackPointExtension>
            <ns3:atemp>19.0</ns3:atemp>
          </ns3:TrackPointExtension>
        </extensions>
      </trkpt>
      <trkpt lat="42.586914114654064178466796875" lon="19.94435302913188934326171875">
        <ele>1008.79998779296875</ele>
        <time>2026-06-17T07:46:13.000Z</time>
        <extensions>
          <ns3:TrackPointExtension>
            <ns3:atemp>19.0</ns3:atemp>
          </ns3:TrackPointExtension>
        </extensions>
      </trkpt>
      <trkpt lat="42.58686684072017669677734375" lon="19.94432545267045497894287109375">
        <ele>1008.79998779296875</ele>
        <time>2026-06-17T07:46:14.000Z</time>
        <extensions>
          <ns3:TrackPointExtension>
            <ns3:atemp>19.0</ns3:atemp>
          </ns3:TrackPointExtension>
        </extensions>
      </trkpt>
      <trkpt lat="42.58681730367243289947509765625" lon="19.9443029053509235382080078125">
        <ele>1008.5999755859375</ele>
        <time>2026-06-17T07:46:15.000Z</time>
        <extensions>
          <ns3:TrackPointExtension>
            <ns3:atemp>19.0</ns3:atemp>
          </ns3:TrackPointExtension>
        </extensions>
      </trkpt>
      <trkpt lat="42.5867707841098308563232421875" lon="19.94427784346044063568115234375">
        <ele>1008.5999755859375</ele>
        <time>2026-06-17T07:46:16.000Z</time>
        <extensions>
          <ns3:TrackPointExtension>
            <ns3:atemp>19.0</ns3:atemp>
          </ns3:TrackPointExtension>
        </extensions>
      </trkpt>
      <trkpt lat="42.58672602474689483642578125" lon="19.94425403885543346405029296875">
        <ele>1008.5999755859375</ele>
        <time>2026-06-17T07:46:17.000Z</time>
        <extensions>
          <ns3:TrackPointExtension>
            <ns3:atemp>19.0</ns3:atemp>
          </ns3:TrackPointExtension>
        </extensions>
      </trkpt>
      <trkpt lat="42.586680762469768524169921875" lon="19.94423224590718746185302734375">
        <ele>1008.4000244140625</ele>
        <time>2026-06-17T07:46:18.000Z</time>
        <extensions>
          <ns3:TrackPointExtension>
            <ns3:atemp>19.0</ns3:atemp>
          </ns3:TrackPointExtension>
        </extensions>
      </trkpt>
      <trkpt lat="42.58663558401167392730712890625" lon="19.94421045295894145965576171875">
        <ele>1008.4000244140625</ele>
        <time>2026-06-17T07:46:19.000Z</time>
        <extensions>
          <ns3:TrackPointExtension>
            <ns3:atemp>19.0</ns3:atemp>
          </ns3:TrackPointExtension>
        </extensions>
      </trkpt>
      <trkpt lat="42.58659283630549907684326171875" lon="19.94418782182037830352783203125">
        <ele>1008.4000244140625</ele>
        <time>2026-06-17T07:46:20.000Z</time>
        <extensions>
          <ns3:TrackPointExtension>
            <ns3:atemp>19.0</ns3:atemp>
          </ns3:TrackPointExtension>
        </extensions>
      </trkpt>
      <trkpt lat="42.58655277080833911895751953125" lon="19.94416502304375171661376953125">
        <ele>1008.4000244140625</ele>
        <time>2026-06-17T07:46:21.000Z</time>
        <extensions>
          <ns3:TrackPointExtension>
            <ns3:atemp>19.0</ns3:atemp>
          </ns3:TrackPointExtension>
        </extensions>
      </trkpt>
      <trkpt lat="42.5865132920444011688232421875" lon="19.9441429786384105682373046875">
        <ele>1008.4000244140625</ele>
        <time>2026-06-17T07:46:22.000Z</time>
        <extensions>
          <ns3:TrackPointExtension>
            <ns3:atemp>19.0</ns3:atemp>
          </ns3:TrackPointExtension>
        </extensions>
      </trkpt>
      <trkpt lat="42.58647431619465351104736328125" lon="19.9441228620707988739013671875">
        <ele>1008.4000244140625</ele>
        <time>2026-06-17T07:46:23.000Z</time>
        <extensions>
          <ns3:TrackPointExtension>
            <ns3:atemp>19.0</ns3:atemp>
          </ns3:TrackPointExtension>
        </extensions>
      </trkpt>
      <trkpt lat="42.58643391542136669158935546875" lon="19.9441010691225528717041015625">
        <ele>1008.4000244140625</ele>
        <time>2026-06-17T07:46:24.000Z</time>
        <extensions>
          <ns3:TrackPointExtension>
            <ns3:atemp>19.0</ns3:atemp>
          </ns3:TrackPointExtension>
        </extensions>
      </trkpt>
      <trkpt lat="42.5863919220864772796630859375" lon="19.94408078491687774658203125">
        <ele>1008.20001220703125</ele>
        <time>2026-06-17T07:46:25.000Z</time>
        <extensions>
          <ns3:TrackPointExtension>
            <ns3:atemp>19.0</ns3:atemp>
          </ns3:TrackPointExtension>
        </extensions>
      </trkpt>
      <trkpt lat="42.58634842000901699066162109375" lon="19.9440618418157100677490234375">
        <ele>1008.20001220703125</ele>
        <time>2026-06-17T07:46:26.000Z</time>
        <extensions>
          <ns3:TrackPointExtension>
            <ns3:atemp>19.0</ns3:atemp>
          </ns3:TrackPointExtension>
        </extensions>
      </trkpt>
      <trkpt lat="42.586307264864444732666015625" lon="19.94404365308582782745361328125">
        <ele>1008.20001220703125</ele>
        <time>2026-06-17T07:46:27.000Z</time>
        <extensions>
          <ns3:TrackPointExtension>
            <ns3:atemp>19.0</ns3:atemp>
          </ns3:TrackPointExtension>
        </extensions>
      </trkpt>
      <trkpt lat="42.58626460097730159759521484375" lon="19.94401833973824977874755859375">
        <ele>1008.20001220703125</ele>
        <time>2026-06-17T07:46:28.000Z</time>
        <extensions>
          <ns3:TrackPointExtension>
            <ns3:atemp>19.0</ns3:atemp>
          </ns3:TrackPointExtension>
        </extensions>
      </trkpt>
      <trkpt lat="42.58622445166110992431640625" lon="19.94399302639067173004150390625">
        <ele>1008.20001220703125</ele>
        <time>2026-06-17T07:46:29.000Z</time>
        <extensions>
          <ns3:TrackPointExtension>
            <ns3:atemp>19.0</ns3:atemp>
          </ns3:TrackPointExtension>
        </extensions>
      </trkpt>
      <trkpt lat="42.5861830450594425201416015625" lon="19.943965114653110504150390625">
        <ele>1008</ele>
        <time>2026-06-17T07:46:30.000Z</time>
        <extensions>
          <ns3:TrackPointExtension>
            <ns3:atemp>19.0</ns3:atemp>
          </ns3:TrackPointExtension>
        </extensions>
      </trkpt>
      <trkpt lat="42.5861404649913311004638671875" lon="19.94393083266913890838623046875">
        <ele>1008</ele>
        <time>2026-06-17T07:46:31.000Z</time>
        <extensions>
          <ns3:TrackPointExtension>
            <ns3:atemp>19.0</ns3:atemp>
          </ns3:TrackPointExtension>
        </extensions>
      </trkpt>
      <trkpt lat="42.586093358695507049560546875" lon="19.94389277882874011993408203125">
        <ele>1007.79998779296875</ele>
        <time>2026-06-17T07:46:32.000Z</time>
        <extensions>
          <ns3:TrackPointExtension>
            <ns3:atemp>19.0</ns3:atemp>
          </ns3:TrackPointExtension>
        </extensions>
      </trkpt>
      <trkpt lat="42.58604432456195354461669921875" lon="19.943846426904201507568359375">
        <ele>1007.5999755859375</ele>
        <time>2026-06-17T07:46:33.000Z</time>
        <extensions>
          <ns3:TrackPointExtension>
            <ns3:atemp>19.0</ns3:atemp>
          </ns3:TrackPointExtension>
        </extensions>
      </trkpt>
      <trkpt lat="42.585995458066463470458984375" lon="19.94379856623709201812744140625">
        <ele>1007.20001220703125</ele>
        <time>2026-06-17T07:46:34.000Z</time>
        <extensions>
          <ns3:TrackPointExtension>
            <ns3:atemp>19.0</ns3:atemp>
          </ns3:TrackPointExtension>
        </extensions>
      </trkpt>
      <trkpt lat="42.58594625629484653472900390625" lon="19.943752549588680267333984375">
        <ele>1007</ele>
        <time>2026-06-17T07:46:35.000Z</time>
        <extensions>
          <ns3:TrackPointExtension>
            <ns3:atemp>19.0</ns3:atemp>
          </ns3:TrackPointExtension>
        </extensions>
      </trkpt>
      <trkpt lat="42.58589412085711956024169921875" lon="19.9437134899199008941650390625">
        <ele>1006.79998779296875</ele>
        <time>2026-06-17T07:46:36.000Z</time>
        <extensions>
          <ns3:TrackPointExtension>
            <ns3:atemp>19.0</ns3:atemp>
          </ns3:TrackPointExtension>
        </extensions>
      </trkpt>
      <trkpt lat="42.5858410634100437164306640625" lon="19.94368138723075389862060546875">
        <ele>1006.5999755859375</ele>
        <time>2026-06-17T07:46:37.000Z</time>
        <extensions>
          <ns3:TrackPointExtension>
            <ns3:atemp>19.0</ns3:atemp>
          </ns3:TrackPointExtension>
        </extensions>
      </trkpt>
      <trkpt lat="42.5857921130955219268798828125" lon="19.9436564929783344268798828125">
        <ele>1006.5999755859375</ele>
        <time>2026-06-17T07:46:38.000Z</time>
        <extensions>
          <ns3:TrackPointExtension>
            <ns3:atemp>19.0</ns3:atemp>
          </ns3:TrackPointExtension>
        </extensions>
      </trkpt>
      <trkpt lat="42.585740983486175537109375" lon="19.9436347000300884246826171875">
        <ele>1006.5999755859375</ele>
        <time>2026-06-17T07:46:39.000Z</time>
        <extensions>
          <ns3:TrackPointExtension>
            <ns3:atemp>19.0</ns3:atemp>
          </ns3:TrackPointExtension>
        </extensions>
      </trkpt>
      <trkpt lat="42.585692703723907470703125" lon="19.9436152540147304534912109375">
        <ele>1006.5999755859375</ele>
        <time>2026-06-17T07:46:40.000Z</time>
        <extensions>
          <ns3:TrackPointExtension>
            <ns3:atemp>19.0</ns3:atemp>
          </ns3:TrackPointExtension>
        </extensions>
      </trkpt>
      <trkpt lat="42.58564450778067111968994140625" lon="19.9435951374471187591552734375">
        <ele>1006.79998779296875</ele>
        <time>2026-06-17T07:46:41.000Z</time>
        <extensions>
          <ns3:TrackPointExtension>
            <ns3:atemp>19.0</ns3:atemp>
          </ns3:TrackPointExtension>
        </extensions>
      </trkpt>
      <trkpt lat="42.58559823967516422271728515625" lon="19.9435718357563018798828125">
        <ele>1007</ele>
        <time>2026-06-17T07:46:42.000Z</time>
        <extensions>
          <ns3:TrackPointExtension>
            <ns3:atemp>19.0</ns3:atemp>
          </ns3:TrackPointExtension>
        </extensions>
      </trkpt>
      <trkpt lat="42.5855604372918605804443359375" lon="19.94354777969419956207275390625">
        <ele>1007</ele>
        <time>2026-06-17T07:46:43.000Z</time>
        <extensions>
          <ns3:TrackPointExtension>
            <ns3:atemp>19.0</ns3:atemp>
          </ns3:TrackPointExtension>
        </extensions>
      </trkpt>
      <trkpt lat="42.585525400936603546142578125" lon="19.94352431036531925201416015625">
        <ele>1007.4000244140625</ele>
        <time>2026-06-17T07:46:44.000Z</time>
        <extensions>
          <ns3:TrackPointExtension>
            <ns3:atemp>19.0</ns3:atemp>
          </ns3:TrackPointExtension>
        </extensions>
      </trkpt>
      <trkpt lat="42.58549229241907596588134765625" lon="19.943501763045787811279296875">
        <ele>1007.5999755859375</ele>
        <time>2026-06-17T07:46:45.000Z</time>
        <extensions>
          <ns3:TrackPointExtension>
            <ns3:atemp>19.0</ns3:atemp>
          </ns3:TrackPointExtension>
        </extensions>
      </trkpt>
      <trkpt lat="42.5854575075209140777587890625" lon="19.943478293716907501220703125">
        <ele>1007.79998779296875</ele>
        <time>2026-06-17T07:46:46.000Z</time>
        <extensions>
          <ns3:TrackPointExtension>
            <ns3:atemp>19.0</ns3:atemp>
          </ns3:TrackPointExtension>
        </extensions>
      </trkpt>
      <trkpt lat="42.58542171679437160491943359375" lon="19.94345851242542266845703125">
        <ele>1008</ele>
        <time>2026-06-17T07:46:47.000Z</time>
        <extensions>
          <ns3:TrackPointExtension>
            <ns3:atemp>19.0</ns3:atemp>
          </ns3:TrackPointExtension>
        </extensions>
      </trkpt>
      <trkpt lat="42.585387267172336578369140625" lon="19.94343881495296955108642578125">
        <ele>1008.20001220703125</ele>
        <time>2026-06-17T07:46:48.000Z</time>
        <extensions>
          <ns3:TrackPointExtension>
            <ns3:atemp>19.0</ns3:atemp>
          </ns3:TrackPointExtension>
        </extensions>
      </trkpt>
      <trkpt lat="42.585357092320919036865234375" lon="19.9434191174805164337158203125">
        <ele>1008.4000244140625</ele>
        <time>2026-06-17T07:46:49.000Z</time>
        <extensions>
          <ns3:TrackPointExtension>
            <ns3:atemp>19.0</ns3:atemp>
          </ns3:TrackPointExtension>
        </extensions>
      </trkpt>
      <trkpt lat="42.585325576364994049072265625" lon="19.94340092875063419342041015625">
        <ele>1008.5999755859375</ele>
        <time>2026-06-17T07:46:50.000Z</time>
        <extensions>
          <ns3:TrackPointExtension>
            <ns3:atemp>19.0</ns3:atemp>
          </ns3:TrackPointExtension>
        </extensions>
      </trkpt>
      <trkpt lat="42.58529414422810077667236328125" lon="19.9433805607259273529052734375">
        <ele>1008.79998779296875</ele>
        <time>2026-06-17T07:46:51.000Z</time>
        <extensions>
          <ns3:TrackPointExtension>
            <ns3:atemp>19.0</ns3:atemp>
          </ns3:TrackPointExtension>
        </extensions>
      </trkpt>
      <trkpt lat="42.58526279591023921966552734375" lon="19.94336136616766452789306640625">
        <ele>1008.79998779296875</ele>
        <time>2026-06-17T07:46:52.000Z</time>
        <extensions>
          <ns3:TrackPointExtension>
            <ns3:atemp>19.0</ns3:atemp>
          </ns3:TrackPointExtension>
        </extensions>
      </trkpt>
      <trkpt lat="42.58523396216332912445068359375" lon="19.94334041140973567962646484375">
        <ele>1009</ele>
        <time>2026-06-17T07:46:53.000Z</time>
        <extensions>
          <ns3:TrackPointExtension>
            <ns3:atemp>19.0</ns3:atemp>
          </ns3:TrackPointExtension>
        </extensions>
      </trkpt>
      <trkpt lat="42.58520563133060932159423828125" lon="19.94331769645214080810546875">
        <ele>1009.20001220703125</ele>
        <time>2026-06-17T07:46:54.000Z</time>
        <extensions>
          <ns3:TrackPointExtension>
            <ns3:atemp>19.0</ns3:atemp>
          </ns3:TrackPointExtension>
        </extensions>
      </trkpt>
      <trkpt lat="42.58517780341207981109619140625" lon="19.943296909332275390625">
        <ele>1009.4000244140625</ele>
        <time>2026-06-17T07:46:55.000Z</time>
        <extensions>
          <ns3:TrackPointExtension>
            <ns3:atemp>19.0</ns3:atemp>
          </ns3:TrackPointExtension>
        </extensions>
      </trkpt>
      <trkpt lat="42.58515215478837490081787109375" lon="19.943275786936283111572265625">
        <ele>1009.5999755859375</ele>
        <time>2026-06-17T07:46:56.000Z</time>
        <extensions>
          <ns3:TrackPointExtension>
            <ns3:atemp>19.0</ns3:atemp>
          </ns3:TrackPointExtension>
        </extensions>
      </trkpt>
      <trkpt lat="42.58512348867952823638916015625" lon="19.9432541616261005401611328125">
        <ele>1009.79998779296875</ele>
        <time>2026-06-17T07:46:57.000Z</time>
        <extensions>
          <ns3:TrackPointExtension>
            <ns3:atemp>19.0</ns3:atemp>
          </ns3:TrackPointExtension>
        </extensions>
      </trkpt>
      <trkpt lat="42.58509633131325244903564453125" lon="19.9432367272675037384033203125">
        <ele>1010.20001220703125</ele>
        <time>2026-06-17T07:46:58.000Z</time>
        <extensions>
          <ns3:TrackPointExtension>
            <ns3:atemp>19.0</ns3:atemp>
          </ns3:TrackPointExtension>
        </extensions>
      </trkpt>
      <trkpt lat="42.58507085032761096954345703125" lon="19.943219125270843505859375">
        <ele>1010.4000244140625</ele>
        <time>2026-06-17T07:46:59.000Z</time>
        <extensions>
          <ns3:TrackPointExtension>
            <ns3:atemp>20.0</ns3:atemp>
          </ns3:TrackPointExtension>
        </extensions>
      </trkpt>
      <trkpt lat="42.58504738099873065948486328125" lon="19.943204037845134735107421875">
        <ele>1010.5999755859375</ele>
        <time>2026-06-17T07:47:00.000Z</time>
        <extensions>
          <ns3:TrackPointExtension>
            <ns3:atemp>19.0</ns3:atemp>
          </ns3:TrackPointExtension>
        </extensions>
      </trkpt>
      <trkpt lat="42.58502223528921604156494140625" lon="19.94318316690623760223388671875">
        <ele>1010.79998779296875</ele>
        <time>2026-06-17T07:47:01.000Z</time>
        <extensions>
          <ns3:TrackPointExtension>
            <ns3:atemp>20.0</ns3:atemp>
          </ns3:TrackPointExtension>
        </extensions>
      </trkpt>
      <trkpt lat="42.5849985145032405853271484375" lon="19.9431572668254375457763671875">
        <ele>1011</ele>
        <time>2026-06-17T07:47:02.000Z</time>
        <extensions>
          <ns3:TrackPointExtension>
            <ns3:atemp>20.0</ns3:atemp>
          </ns3:TrackPointExtension>
        </extensions>
      </trkpt>
      <trkpt lat="42.58497294969856739044189453125" lon="19.943138994276523590087890625">
        <ele>1011.20001220703125</ele>
        <time>2026-06-17T07:47:03.000Z</time>
        <extensions>
          <ns3:TrackPointExtension>
            <ns3:atemp>19.0</ns3:atemp>
          </ns3:TrackPointExtension>
        </extensions>
      </trkpt>
      <trkpt lat="42.5849498994648456573486328125" lon="19.94311577640473842620849609375">
        <ele>1011.20001220703125</ele>
        <time>2026-06-17T07:47:04.000Z</time>
        <extensions>
          <ns3:TrackPointExtension>
            <ns3:atemp>20.0</ns3:atemp>
          </ns3:TrackPointExtension>
        </extensions>
      </trkpt>
      <trkpt lat="42.58492550812661647796630859375" lon="19.94308702647686004638671875">
        <ele>1011.4000244140625</ele>
        <time>2026-06-17T07:47:05.000Z</time>
        <extensions>
          <ns3:TrackPointExtension>
            <ns3:atemp>20.0</ns3:atemp>
          </ns3:TrackPointExtension>
        </extensions>
      </trkpt>
      <trkpt lat="42.58490480482578277587890625" lon="19.9430523253977298736572265625">
        <ele>1011.4000244140625</ele>
        <time>2026-06-17T07:47:06.000Z</time>
        <extensions>
          <ns3:TrackPointExtension>
            <ns3:atemp>20.0</ns3:atemp>
          </ns3:TrackPointExtension>
        </extensions>
      </trkpt>
      <trkpt lat="42.5848821736872196197509765625" lon="19.94301594793796539306640625">
        <ele>1011.4000244140625</ele>
        <time>2026-06-17T07:47:07.000Z</time>
        <extensions>
          <ns3:TrackPointExtension>
            <ns3:atemp>20.0</ns3:atemp>
          </ns3:TrackPointExtension>
        </extensions>
      </trkpt>
      <trkpt lat="42.58486188948154449462890625" lon="19.9429782293736934661865234375">
        <ele>1011.5999755859375</ele>
        <time>2026-06-17T07:47:08.000Z</time>
        <extensions>
          <ns3:TrackPointExtension>
            <ns3:atemp>20.0</ns3:atemp>
          </ns3:TrackPointExtension>
        </extensions>
      </trkpt>
      <trkpt lat="42.5848446227610111236572265625" lon="19.942935146391391754150390625">
        <ele>1011.5999755859375</ele>
        <time>2026-06-17T07:47:09.000Z</time>
        <extensions>
          <ns3:TrackPointExtension>
            <ns3:atemp>20.0</ns3:atemp>
          </ns3:TrackPointExtension>
        </extensions>
      </trkpt>
      <trkpt lat="42.5848268531262874603271484375" lon="19.94288762100040912628173828125">
        <ele>1011.4000244140625</ele>
        <time>2026-06-17T07:47:10.000Z</time>
        <extensions>
          <ns3:TrackPointExtension>
            <ns3:atemp>20.0</ns3:atemp>
          </ns3:TrackPointExtension>
        </extensions>
      </trkpt>
      <trkpt lat="42.58481671102344989776611328125" lon="19.94283682666718959808349609375">
        <ele>1011.4000244140625</ele>
        <time>2026-06-17T07:47:11.000Z</time>
        <extensions>
          <ns3:TrackPointExtension>
            <ns3:atemp>20.0</ns3:atemp>
          </ns3:TrackPointExtension>
        </extensions>
      </trkpt>
      <trkpt lat="42.5848141126334667205810546875" lon="19.94277647696435451507568359375">
        <ele>1011.20001220703125</ele>
        <time>2026-06-17T07:47:12.000Z</time>
        <extensions>
          <ns3:TrackPointExtension>
            <ns3:atemp>20.0</ns3:atemp>
          </ns3:TrackPointExtension>
        </extensions>
      </trkpt>
      <trkpt lat="42.5848194770514965057373046875" lon="19.9427090026438236236572265625">
        <ele>1011.20001220703125</ele>
        <time>2026-06-17T07:47:13.000Z</time>
        <extensions>
          <ns3:TrackPointExtension>
            <ns3:atemp>20.0</ns3:atemp>
          </ns3:TrackPointExtension>
        </extensions>
      </trkpt>
      <trkpt lat="42.58482693694531917572021484375" lon="19.94265024550259113311767578125">
        <ele>1011</ele>
        <time>2026-06-17T07:47:14.000Z</time>
        <extensions>
          <ns3:TrackPointExtension>
            <ns3:atemp>20.0</ns3:atemp>
          </ns3:TrackPointExtension>
        </extensions>
      </trkpt>
      <trkpt lat="42.58483372628688812255859375" lon="19.942590482532978057861328125">
        <ele>1011</ele>
        <time>2026-06-17T07:47:15.000Z</time>
        <extensions>
          <ns3:TrackPointExtension>
            <ns3:atemp>20.0</ns3:atemp>
          </ns3:TrackPointExtension>
        </extensions>
      </trkpt>
      <trkpt lat="42.5848412699997425079345703125" lon="19.9425232596695423126220703125">
        <ele>1011</ele>
        <time>2026-06-17T07:47:16.000Z</time>
        <extensions>
          <ns3:TrackPointExtension>
            <ns3:atemp>20.0</ns3:atemp>
          </ns3:TrackPointExtension>
        </extensions>
      </trkpt>
      <trkpt lat="42.58484990336000919342041015625" lon="19.94245779700577259063720703125">
        <ele>1011</ele>
        <time>2026-06-17T07:47:17.000Z</time>
        <extensions>
          <ns3:TrackPointExtension>
            <ns3:atemp>20.0</ns3:atemp>
          </ns3:TrackPointExtension>
        </extensions>
      </trkpt>
      <trkpt lat="42.5848607160151004791259765625" lon="19.94239208288490772247314453125">
        <ele>1011</ele>
        <time>2026-06-17T07:47:18.000Z</time>
        <extensions>
          <ns3:TrackPointExtension>
            <ns3:atemp>20.0</ns3:atemp>
          </ns3:TrackPointExtension>
        </extensions>
      </trkpt>
      <trkpt lat="42.584874294698238372802734375" lon="19.94232603348791599273681640625">
        <ele>1011</ele>
        <time>2026-06-17T07:47:19.000Z</time>
        <extensions>
          <ns3:TrackPointExtension>
            <ns3:atemp>20.0</ns3:atemp>
          </ns3:TrackPointExtension>
        </extensions>
      </trkpt>
      <trkpt lat="42.5848872028291225433349609375" lon="19.94226216338574886322021484375">
        <ele>1011</ele>
        <time>2026-06-17T07:47:20.000Z</time>
        <extensions>
          <ns3:TrackPointExtension>
            <ns3:atemp>20.0</ns3:atemp>
          </ns3:TrackPointExtension>
        </extensions>
      </trkpt>
      <trkpt lat="42.5848986022174358367919921875" lon="19.94220516644418239593505859375">
        <ele>1011.20001220703125</ele>
        <time>2026-06-17T07:47:21.000Z</time>
        <extensions>
          <ns3:TrackPointExtension>
            <ns3:atemp>20.0</ns3:atemp>
          </ns3:TrackPointExtension>
        </extensions>
      </trkpt>
      <trkpt lat="42.58491058833897113800048828125" lon="19.94214951060712337493896484375">
        <ele>1011.20001220703125</ele>
        <time>2026-06-17T07:47:22.000Z</time>
        <extensions>
          <ns3:TrackPointExtension>
            <ns3:atemp>20.0</ns3:atemp>
          </ns3:TrackPointExtension>
        </extensions>
      </trkpt>
      <trkpt lat="42.58492098189890384674072265625" lon="19.94209838099777698516845703125">
        <ele>1011.4000244140625</ele>
        <time>2026-06-17T07:47:23.000Z</time>
        <extensions>
          <ns3:TrackPointExtension>
            <ns3:atemp>20.0</ns3:atemp>
          </ns3:TrackPointExtension>
        </extensions>
      </trkpt>
      <trkpt lat="42.58492902852594852447509765625" lon="19.94205177761614322662353515625">
        <ele>1011.4000244140625</ele>
        <time>2026-06-17T07:47:24.000Z</time>
        <extensions>
          <ns3:TrackPointExtension>
            <ns3:atemp>20.0</ns3:atemp>
          </ns3:TrackPointExtension>
        </extensions>
      </trkpt>
      <trkpt lat="42.58493321947753429412841796875" lon="19.9419946968555450439453125">
        <ele>1011.5999755859375</ele>
        <time>2026-06-17T07:47:25.000Z</time>
        <extensions>
          <ns3:TrackPointExtension>
            <ns3:atemp>20.0</ns3:atemp>
          </ns3:TrackPointExtension>
        </extensions>
      </trkpt>
      <trkpt lat="42.584935314953327178955078125" lon="19.94194432161748409271240234375">
        <ele>1011.5999755859375</ele>
        <time>2026-06-17T07:47:26.000Z</time>
        <extensions>
          <ns3:TrackPointExtension>
            <ns3:atemp>20.0</ns3:atemp>
          </ns3:TrackPointExtension>
        </extensions>
      </trkpt>
      <trkpt lat="42.5849351473152637481689453125" lon="19.9418914318084716796875">
        <ele>1011.5999755859375</ele>
        <time>2026-06-17T07:47:27.000Z</time>
        <extensions>
          <ns3:TrackPointExtension>
            <ns3:atemp>20.0</ns3:atemp>
          </ns3:TrackPointExtension>
        </extensions>
      </trkpt>
      <trkpt lat="42.58492668159306049346923828125" lon="19.94183736853301525115966796875">
        <ele>1011.5999755859375</ele>
        <time>2026-06-17T07:47:28.000Z</time>
        <extensions>
          <ns3:TrackPointExtension>
            <ns3:atemp>20.0</ns3:atemp>
          </ns3:TrackPointExtension>
        </extensions>
      </trkpt>
      <trkpt lat="42.58491218090057373046875" lon="19.94178481400012969970703125">
        <ele>1011.79998779296875</ele>
        <time>2026-06-17T07:47:29.000Z</time>
        <extensions>
          <ns3:TrackPointExtension>
            <ns3:atemp>20.0</ns3:atemp>
          </ns3:TrackPointExtension>
        </extensions>
      </trkpt>
      <trkpt lat="42.58489365689456462860107421875" lon="19.94173921644687652587890625">
        <ele>1011.79998779296875</ele>
        <time>2026-06-17T07:47:30.000Z</time>
        <extensions>
          <ns3:TrackPointExtension>
            <ns3:atemp>20.0</ns3:atemp>
          </ns3:TrackPointExtension>
        </extensions>
      </trkpt>
      <trkpt lat="42.5848717801272869110107421875" lon="19.94170040823519229888916015625">
        <ele>1011.79998779296875</ele>
        <time>2026-06-17T07:47:31.000Z</time>
        <extensions>
          <ns3:TrackPointExtension>
            <ns3:atemp>20.0</ns3:atemp>
          </ns3:TrackPointExtension>
        </extensions>
      </trkpt>
      <trkpt lat="42.5848469696938991546630859375" lon="19.94166386313736438751220703125">
        <ele>1012</ele>
        <time>2026-06-17T07:47:32.000Z</time>
        <extensions>
          <ns3:TrackPointExtension>
            <ns3:atemp>20.0</ns3:atemp>
          </ns3:TrackPointExtension>
        </extensions>
      </trkpt>
      <trkpt lat="42.584817968308925628662109375" lon="19.9416320957243442535400390625">
        <ele>1012.20001220703125</ele>
        <time>2026-06-17T07:47:33.000Z</time>
        <extensions>
          <ns3:TrackPointExtension>
            <ns3:atemp>20.0</ns3:atemp>
          </ns3:TrackPointExtension>
        </extensions>
      </trkpt>
      <trkpt lat="42.58479039184749126434326171875" lon="19.94160334579646587371826171875">
        <ele>1012.4000244140625</ele>
        <time>2026-06-17T07:47:34.000Z</time>
        <extensions>
          <ns3:TrackPointExtension>
            <ns3:atemp>20.0</ns3:atemp>
          </ns3:TrackPointExtension>
        </extensions>
      </trkpt>
      <trkpt lat="42.58476323448121547698974609375" lon="19.9415821395814418792724609375">
        <ele>1012.4000244140625</ele>
        <time>2026-06-17T07:47:35.000Z</time>
        <extensions>
          <ns3:TrackPointExtension>
            <ns3:atemp>20.0</ns3:atemp>
          </ns3:TrackPointExtension>
        </extensions>
      </trkpt>
      <trkpt lat="42.58473255671560764312744140625" lon="19.94156026281416416168212890625">
        <ele>1012.5999755859375</ele>
        <time>2026-06-17T07:47:36.000Z</time>
        <extensions>
          <ns3:TrackPointExtension>
            <ns3:atemp>20.0</ns3:atemp>
          </ns3:TrackPointExtension>
        </extensions>
      </trkpt>
      <trkpt lat="42.58470254950225353240966796875" lon="19.9415365420281887054443359375">
        <ele>1012.79998779296875</ele>
        <time>2026-06-17T07:47:37.000Z</time>
        <extensions>
          <ns3:TrackPointExtension>
            <ns3:atemp>20.0</ns3:atemp>
          </ns3:TrackPointExtension>
        </extensions>
      </trkpt>
      <trkpt lat="42.5846702791750431060791015625" lon="19.94151500053703784942626953125">
        <ele>1012.79998779296875</ele>
        <time>2026-06-17T07:47:38.000Z</time>
        <extensions>
          <ns3:TrackPointExtension>
            <ns3:atemp>20.0</ns3:atemp>
          </ns3:TrackPointExtension>
        </extensions>
      </trkpt>
      <trkpt lat="42.58464018814265727996826171875" lon="19.94149245321750640869140625">
        <ele>1013</ele>
        <time>2026-06-17T07:47:39.000Z</time>
        <extensions>
          <ns3:TrackPointExtension>
            <ns3:atemp>20.0</ns3:atemp>
          </ns3:TrackPointExtension>
        </extensions>
      </trkpt>
      <trkpt lat="42.58460967801511287689208984375" lon="19.941474683582782745361328125">
        <ele>1013</ele>
        <time>2026-06-17T07:47:40.000Z</time>
        <extensions>
          <ns3:TrackPointExtension>
            <ns3:atemp>20.0</ns3:atemp>
          </ns3:TrackPointExtension>
        </extensions>
      </trkpt>
      <trkpt lat="42.58457891643047332763671875" lon="19.94145398028194904327392578125">
        <ele>1013.20001220703125</ele>
        <time>2026-06-17T07:47:41.000Z</time>
        <extensions>
          <ns3:TrackPointExtension>
            <ns3:atemp>20.0</ns3:atemp>
          </ns3:TrackPointExtension>
        </extensions>
      </trkpt>
      <trkpt lat="42.58454698137938976287841796875" lon="19.94143403135240077972412109375">
        <ele>1013.4000244140625</ele>
        <time>2026-06-17T07:47:42.000Z</time>
        <extensions>
          <ns3:TrackPointExtension>
            <ns3:atemp>20.0</ns3:atemp>
          </ns3:TrackPointExtension>
        </extensions>
      </trkpt>
      <trkpt lat="42.58451630361378192901611328125" lon="19.9414121545851230621337890625">
        <ele>1013.5999755859375</ele>
        <time>2026-06-17T07:47:43.000Z</time>
        <extensions>
          <ns3:TrackPointExtension>
            <ns3:atemp>20.0</ns3:atemp>
          </ns3:TrackPointExtension>
        </extensions>
      </trkpt>
      <trkpt lat="42.5844848714768886566162109375" lon="19.9413886852562427520751953125">
        <ele>1013.79998779296875</ele>
        <time>2026-06-17T07:47:44.000Z</time>
        <extensions>
          <ns3:TrackPointExtension>
            <ns3:atemp>20.0</ns3:atemp>
          </ns3:TrackPointExtension>
        </extensions>
      </trkpt>
      <trkpt lat="42.58445310406386852264404296875" lon="19.94136261753737926483154296875">
        <ele>1014</ele>
        <time>2026-06-17T07:47:45.000Z</time>
        <extensions>
          <ns3:TrackPointExtension>
            <ns3:atemp>20.0</ns3:atemp>
          </ns3:TrackPointExtension>
        </extensions>
      </trkpt>
      <trkpt lat="42.58442225866019725799560546875" lon="19.94133512489497661590576171875">
        <ele>1014</ele>
        <time>2026-06-17T07:47:46.000Z</time>
        <extensions>
          <ns3:TrackPointExtension>
            <ns3:atemp>20.0</ns3:atemp>
          </ns3:TrackPointExtension>
        </extensions>
      </trkpt>
      <trkpt lat="42.58439174853265285491943359375" lon="19.94131048209965229034423828125">
        <ele>1014</ele>
        <time>2026-06-17T07:47:47.000Z</time>
        <extensions>
          <ns3:TrackPointExtension>
            <ns3:atemp>20.0</ns3:atemp>
          </ns3:TrackPointExtension>
        </extensions>
      </trkpt>
      <trkpt lat="42.584359645843505859375" lon="19.94128919206559658050537109375">
        <ele>1014</ele>
        <time>2026-06-17T07:47:48.000Z</time>
        <extensions>
          <ns3:TrackPointExtension>
            <ns3:atemp>20.0</ns3:atemp>
          </ns3:TrackPointExtension>
        </extensions>
      </trkpt>
      <trkpt lat="42.5843276269733905792236328125" lon="19.94126991368830204010009765625">
        <ele>1014.20001220703125</ele>
        <time>2026-06-17T07:47:49.000Z</time>
        <extensions>
          <ns3:TrackPointExtension>
            <ns3:atemp>20.0</ns3:atemp>
          </ns3:TrackPointExtension>
        </extensions>
      </trkpt>
      <trkpt lat="42.58429887704551219940185546875" lon="19.9412482045590877532958984375">
        <ele>1014.20001220703125</ele>
        <time>2026-06-17T07:47:50.000Z</time>
        <extensions>
          <ns3:TrackPointExtension>
            <ns3:atemp>20.0</ns3:atemp>
          </ns3:TrackPointExtension>
        </extensions>
      </trkpt>
      <trkpt lat="42.584268115460872650146484375" lon="19.941230602562427520751953125">
        <ele>1014.4000244140625</ele>
        <time>2026-06-17T07:47:51.000Z</time>
        <extensions>
          <ns3:TrackPointExtension>
            <ns3:atemp>20.0</ns3:atemp>
          </ns3:TrackPointExtension>
        </extensions>
      </trkpt>
      <trkpt lat="42.58423634804785251617431640625" lon="19.941221214830875396728515625">
        <ele>1014.5999755859375</ele>
        <time>2026-06-17T07:47:52.000Z</time>
        <extensions>
          <ns3:TrackPointExtension>
            <ns3:atemp>20.0</ns3:atemp>
          </ns3:TrackPointExtension>
        </extensions>
      </trkpt>
      <trkpt lat="42.58420466445386409759521484375" lon="19.94121526367962360382080078125">
        <ele>1014.79998779296875</ele>
        <time>2026-06-17T07:47:53.000Z</time>
        <extensions>
          <ns3:TrackPointExtension>
            <ns3:atemp>20.0</ns3:atemp>
          </ns3:TrackPointExtension>
        </extensions>
      </trkpt>
      <trkpt lat="42.5841774232685565948486328125" lon="19.94121224619448184967041015625">
        <ele>1015</ele>
        <time>2026-06-17T07:47:54.000Z</time>
        <extensions>
          <ns3:TrackPointExtension>
            <ns3:atemp>20.0</ns3:atemp>
          </ns3:TrackPointExtension>
        </extensions>
      </trkpt>
      <trkpt lat="42.58414951153099536895751953125" lon="19.94121140800416469573974609375">
        <ele>1015.20001220703125</ele>
        <time>2026-06-17T07:47:55.000Z</time>
        <extensions>
          <ns3:TrackPointExtension>
            <ns3:atemp>20.0</ns3:atemp>
          </ns3:TrackPointExtension>
        </extensions>
      </trkpt>
      <trkpt lat="42.5841254554688930511474609375" lon="19.94121258147060871124267578125">
        <ele>1015.4000244140625</ele>
        <time>2026-06-17T07:47:56.000Z</time>
        <extensions>
          <ns3:TrackPointExtension>
            <ns3:atemp>20.0</ns3:atemp>
          </ns3:TrackPointExtension>
        </extensions>
      </trkpt>
      <trkpt lat="42.58410148322582244873046875" lon="19.94121643714606761932373046875">
        <ele>1015.5999755859375</ele>
        <time>2026-06-17T07:47:57.000Z</time>
        <extensions>
          <ns3:TrackPointExtension>
            <ns3:atemp>20.0</ns3:atemp>
          </ns3:TrackPointExtension>
        </extensions>
      </trkpt>
      <trkpt lat="42.5840791873633861541748046875" lon="19.94122414849698543548583984375">
        <ele>1015.79998779296875</ele>
        <time>2026-06-17T07:47:58.000Z</time>
        <extensions>
          <ns3:TrackPointExtension>
            <ns3:atemp>20.0</ns3:atemp>
          </ns3:TrackPointExtension>
        </extensions>
      </trkpt>
      <trkpt lat="42.58405747823417186737060546875" lon="19.94123755954205989837646484375">
        <ele>1016.20001220703125</ele>
        <time>2026-06-17T07:47:59.000Z</time>
        <extensions>
          <ns3:TrackPointExtension>
            <ns3:atemp>20.0</ns3:atemp>
          </ns3:TrackPointExtension>
        </extensions>
      </trkpt>
      <trkpt lat="42.5840349309146404266357421875" lon="19.94125700555741786956787109375">
        <ele>1016.4000244140625</ele>
        <time>2026-06-17T07:48:00.000Z</time>
        <extensions>
          <ns3:TrackPointExtension>
            <ns3:atemp>20.0</ns3:atemp>
          </ns3:TrackPointExtension>
        </extensions>
      </trkpt>
      <trkpt lat="42.584010623395442962646484375" lon="19.941279552876949310302734375">
        <ele>1016.5999755859375</ele>
        <time>2026-06-17T07:48:01.000Z</time>
        <extensions>
          <ns3:TrackPointExtension>
            <ns3:atemp>20.0</ns3:atemp>
          </ns3:TrackPointExtension>
        </extensions>
      </trkpt>
      <trkpt lat="42.58398757316172122955322265625" lon="19.94130126200616359710693359375">
        <ele>1016.79998779296875</ele>
        <time>2026-06-17T07:48:02.000Z</time>
        <extensions>
          <ns3:TrackPointExtension>
            <ns3:atemp>20.0</ns3:atemp>
          </ns3:TrackPointExtension>
        </extensions>
      </trkpt>
      <trkpt lat="42.583961673080921173095703125" lon="19.94132540188729763031005859375">
        <ele>1017.20001220703125</ele>
        <time>2026-06-17T07:48:03.000Z</time>
        <extensions>
          <ns3:TrackPointExtension>
            <ns3:atemp>20.0</ns3:atemp>
          </ns3:TrackPointExtension>
        </extensions>
      </trkpt>
      <trkpt lat="42.583931498229503631591796875" lon="19.94134568609297275543212890625">
        <ele>1017.4000244140625</ele>
        <time>2026-06-17T07:48:04.000Z</time>
        <extensions>
          <ns3:TrackPointExtension>
            <ns3:atemp>20.0</ns3:atemp>
          </ns3:TrackPointExtension>
        </extensions>
      </trkpt>
      <trkpt lat="42.58390090428292751312255859375" lon="19.94136504828929901123046875">
        <ele>1017.79998779296875</ele>
        <time>2026-06-17T07:48:05.000Z</time>
        <extensions>
          <ns3:TrackPointExtension>
            <ns3:atemp>20.0</ns3:atemp>
          </ns3:TrackPointExtension>
        </extensions>
      </trkpt>
      <trkpt lat="42.5838706456124782562255859375" lon="19.9413833208382129669189453125">
        <ele>1018</ele>
        <time>2026-06-17T07:48:06.000Z</time>
        <extensions>
          <ns3:TrackPointExtension>
            <ns3:atemp>20.0</ns3:atemp>
          </ns3:TrackPointExtension>
        </extensions>
      </trkpt>
      <trkpt lat="42.583836950361728668212890625" lon="19.94139648042619228363037109375">
        <ele>1018.20001220703125</ele>
        <time>2026-06-17T07:48:07.000Z</time>
        <extensions>
          <ns3:TrackPointExtension>
            <ns3:atemp>20.0</ns3:atemp>
          </ns3:TrackPointExtension>
        </extensions>
      </trkpt>
      <trkpt lat="42.5837999023497104644775390625" lon="19.94140570051968097686767578125">
        <ele>1018.5999755859375</ele>
        <time>2026-06-17T07:48:08.000Z</time>
        <extensions>
          <ns3:TrackPointExtension>
            <ns3:atemp>20.0</ns3:atemp>
          </ns3:TrackPointExtension>
        </extensions>
      </trkpt>
      <trkpt lat="42.5837586633861064910888671875" lon="19.94141005910933017730712890625">
        <ele>1018.79998779296875</ele>
        <time>2026-06-17T07:48:09.000Z</time>
        <extensions>
          <ns3:TrackPointExtension>
            <ns3:atemp>20.0</ns3:atemp>
          </ns3:TrackPointExtension>
        </extensions>
      </trkpt>
      <trkpt lat="42.58371650241315364837646484375" lon="19.9414098076522350311279296875">
        <ele>1019</ele>
        <time>2026-06-17T07:48:10.000Z</time>
        <extensions>
          <ns3:TrackPointExtension>
            <ns3:atemp>20.0</ns3:atemp>
          </ns3:TrackPointExtension>
        </extensions>
      </trkpt>
      <trkpt lat="42.58367844857275485992431640625" lon="19.94140234775841236114501953125">
        <ele>1019.4000244140625</ele>
        <time>2026-06-17T07:48:11.000Z</time>
        <extensions>
          <ns3:TrackPointExtension>
            <ns3:atemp>20.0</ns3:atemp>
          </ns3:TrackPointExtension>
        </extensions>
      </trkpt>
      <trkpt lat="42.58364106528460979461669921875" lon="19.9413910321891307830810546875">
        <ele>1019.5999755859375</ele>
        <time>2026-06-17T07:48:12.000Z</time>
        <extensions>
          <ns3:TrackPointExtension>
            <ns3:atemp>20.0</ns3:atemp>
          </ns3:TrackPointExtension>
        </extensions>
      </trkpt>
      <trkpt lat="42.58360720239579677581787109375" lon="19.94137653149664402008056640625">
        <ele>1020</ele>
        <time>2026-06-17T07:48:13.000Z</time>
        <extensions>
          <ns3:TrackPointExtension>
            <ns3:atemp>20.0</ns3:atemp>
          </ns3:TrackPointExtension>
        </extensions>
      </trkpt>
      <trkpt lat="42.58356914855539798736572265625" lon="19.941359348595142364501953125">
        <ele>1020.20001220703125</ele>
        <time>2026-06-17T07:48:14.000Z</time>
        <extensions>
          <ns3:TrackPointExtension>
            <ns3:atemp>20.0</ns3:atemp>
          </ns3:TrackPointExtension>
        </extensions>
      </trkpt>
      <trkpt lat="42.58353394456207752227783203125" lon="19.941336214542388916015625">
        <ele>1020.4000244140625</ele>
        <time>2026-06-17T07:48:15.000Z</time>
        <extensions>
          <ns3:TrackPointExtension>
            <ns3:atemp>20.0</ns3:atemp>
          </ns3:TrackPointExtension>
        </extensions>
      </trkpt>
      <trkpt lat="42.5834988243877887725830078125" lon="19.94131132028996944427490234375">
        <ele>1020.79998779296875</ele>
        <time>2026-06-17T07:48:16.000Z</time>
        <extensions>
          <ns3:TrackPointExtension>
            <ns3:atemp>20.0</ns3:atemp>
          </ns3:TrackPointExtension>
        </extensions>
      </trkpt>
      <trkpt lat="42.58346714079380035400390625" lon="19.94128734804689884185791015625">
        <ele>1021.20001220703125</ele>
        <time>2026-06-17T07:48:17.000Z</time>
        <extensions>
          <ns3:TrackPointExtension>
            <ns3:atemp>20.0</ns3:atemp>
          </ns3:TrackPointExtension>
        </extensions>
      </trkpt>
      <trkpt lat="42.5834341160953044891357421875" lon="19.941265471279621124267578125">
        <ele>1021.4000244140625</ele>
        <time>2026-06-17T07:48:18.000Z</time>
        <extensions>
          <ns3:TrackPointExtension>
            <ns3:atemp>20.0</ns3:atemp>
          </ns3:TrackPointExtension>
        </extensions>
      </trkpt>
      <trkpt lat="42.5834042765200138092041015625" lon="19.94124510325491428375244140625">
        <ele>1021.79998779296875</ele>
        <time>2026-06-17T07:48:19.000Z</time>
        <extensions>
          <ns3:TrackPointExtension>
            <ns3:atemp>20.0</ns3:atemp>
          </ns3:TrackPointExtension>
        </extensions>
      </trkpt>
      <trkpt lat="42.583378963172435760498046875" lon="19.94122515432536602020263671875">
        <ele>1022.20001220703125</ele>
        <time>2026-06-17T07:48:20.000Z</time>
        <extensions>
          <ns3:TrackPointExtension>
            <ns3:atemp>20.0</ns3:atemp>
          </ns3:TrackPointExtension>
        </extensions>
      </trkpt>
      <trkpt lat="42.5833563320338726043701171875" lon="19.94120436720550060272216796875">
        <ele>1022.5999755859375</ele>
        <time>2026-06-17T07:48:21.000Z</time>
        <extensions>
          <ns3:TrackPointExtension>
            <ns3:atemp>20.0</ns3:atemp>
          </ns3:TrackPointExtension>
        </extensions>
      </trkpt>
      <trkpt lat="42.58333177305757999420166015625" lon="19.9411868490278720855712890625">
        <ele>1023</ele>
        <time>2026-06-17T07:48:22.000Z</time>
        <extensions>
          <ns3:TrackPointExtension>
            <ns3:atemp>20.0</ns3:atemp>
          </ns3:TrackPointExtension>
        </extensions>
      </trkpt>
      <trkpt lat="42.58331023156642913818359375" lon="19.9411744438111782073974609375">
        <ele>1023.20001220703125</ele>
        <time>2026-06-17T07:48:23.000Z</time>
        <extensions>
          <ns3:TrackPointExtension>
            <ns3:atemp>20.0</ns3:atemp>
          </ns3:TrackPointExtension>
        </extensions>
      </trkpt>
      <trkpt lat="42.58328785188496112823486328125" lon="19.9411605298519134521484375">
        <ele>1023.5999755859375</ele>
        <time>2026-06-17T07:48:24.000Z</time>
        <extensions>
          <ns3:TrackPointExtension>
            <ns3:atemp>20.0</ns3:atemp>
          </ns3:TrackPointExtension>
        </extensions>
      </trkpt>
      <trkpt lat="42.58327066898345947265625" lon="19.94114217348396778106689453125">
        <ele>1023.79998779296875</ele>
        <time>2026-06-17T07:48:25.000Z</time>
        <extensions>
          <ns3:TrackPointExtension>
            <ns3:atemp>20.0</ns3:atemp>
          </ns3:TrackPointExtension>
        </extensions>
      </trkpt>
      <trkpt lat="42.58324778638780117034912109375" lon="19.941127337515354156494140625">
        <ele>1024.199951171875</ele>
        <time>2026-06-17T07:48:26.000Z</time>
        <extensions>
          <ns3:TrackPointExtension>
            <ns3:atemp>20.0</ns3:atemp>
          </ns3:TrackPointExtension>
        </extensions>
      </trkpt>
      <trkpt lat="42.5832306034862995147705078125" lon="19.941112585365772247314453125">
        <ele>1024.4000244140625</ele>
        <time>2026-06-17T07:48:27.000Z</time>
        <extensions>
          <ns3:TrackPointExtension>
            <ns3:atemp>20.0</ns3:atemp>
          </ns3:TrackPointExtension>
        </extensions>
      </trkpt>
      <trkpt lat="42.5832104869186878204345703125" lon="19.9411016888916492462158203125">
        <ele>1024.5999755859375</ele>
        <time>2026-06-17T07:48:28.000Z</time>
        <extensions>
          <ns3:TrackPointExtension>
            <ns3:atemp>20.0</ns3:atemp>
          </ns3:TrackPointExtension>
        </extensions>
      </trkpt>
      <trkpt lat="42.58319162763655185699462890625" lon="19.94108886457979679107666015625">
        <ele>1024.800048828125</ele>
        <time>2026-06-17T07:48:29.000Z</time>
        <extensions>
          <ns3:TrackPointExtension>
            <ns3:atemp>20.0</ns3:atemp>
          </ns3:TrackPointExtension>
        </extensions>
      </trkpt>
      <trkpt lat="42.5831705890595912933349609375" lon="19.941073358058929443359375">
        <ele>1025</ele>
        <time>2026-06-17T07:48:30.000Z</time>
        <extensions>
          <ns3:TrackPointExtension>
            <ns3:atemp>20.0</ns3:atemp>
          </ns3:TrackPointExtension>
        </extensions>
      </trkpt>
      <trkpt lat="42.5831491313874721527099609375" lon="19.94105818681418895721435546875">
        <ele>1025.199951171875</ele>
        <time>2026-06-17T07:48:31.000Z</time>
        <extensions>
          <ns3:TrackPointExtension>
            <ns3:atemp>20.0</ns3:atemp>
          </ns3:TrackPointExtension>
        </extensions>
      </trkpt>
      <trkpt lat="42.5831283442676067352294921875" lon="19.94104050099849700927734375">
        <ele>1025.199951171875</ele>
        <time>2026-06-17T07:48:32.000Z</time>
        <extensions>
          <ns3:TrackPointExtension>
            <ns3:atemp>20.0</ns3:atemp>
          </ns3:TrackPointExtension>
        </extensions>
      </trkpt>
      <trkpt lat="42.58310906589031219482421875" lon="19.94102574884891510009765625">
        <ele>1025.4000244140625</ele>
        <time>2026-06-17T07:48:33.000Z</time>
        <extensions>
          <ns3:TrackPointExtension>
            <ns3:atemp>20.0</ns3:atemp>
          </ns3:TrackPointExtension>
        </extensions>
      </trkpt>
      <trkpt lat="42.58308827877044677734375" lon="19.94100839830935001373291015625">
        <ele>1025.4000244140625</ele>
        <time>2026-06-17T07:48:34.000Z</time>
        <extensions>
          <ns3:TrackPointExtension>
            <ns3:atemp>20.0</ns3:atemp>
          </ns3:TrackPointExtension>
        </extensions>
      </trkpt>
      <trkpt lat="42.5830643065273761749267578125" lon="19.94099264033138751983642578125">
        <ele>1025.5999755859375</ele>
        <time>2026-06-17T07:48:35.000Z</time>
        <extensions>
          <ns3:TrackPointExtension>
            <ns3:atemp>20.0</ns3:atemp>
          </ns3:TrackPointExtension>
        </extensions>
      </trkpt>
      <trkpt lat="42.58303798735141754150390625" lon="19.94097772054374217987060546875">
        <ele>1025.800048828125</ele>
        <time>2026-06-17T07:48:36.000Z</time>
        <extensions>
          <ns3:TrackPointExtension>
            <ns3:atemp>20.0</ns3:atemp>
          </ns3:TrackPointExtension>
        </extensions>
      </trkpt>
      <trkpt lat="42.583012171089649200439453125" lon="19.940963722765445709228515625">
        <ele>1025.800048828125</ele>
        <time>2026-06-17T07:48:37.000Z</time>
        <extensions>
          <ns3:TrackPointExtension>
            <ns3:atemp>20.0</ns3:atemp>
          </ns3:TrackPointExtension>
        </extensions>
      </trkpt>
      <trkpt lat="42.58298710919916629791259765625" lon="19.9409474618732929229736328125">
        <ele>1026</ele>
        <time>2026-06-17T07:48:38.000Z</time>
        <extensions>
          <ns3:TrackPointExtension>
            <ns3:atemp>20.0</ns3:atemp>
          </ns3:TrackPointExtension>
        </extensions>
      </trkpt>
      <trkpt lat="42.582963220775127410888671875" lon="19.94093044660985469818115234375">
        <ele>1026.199951171875</ele>
        <time>2026-06-17T07:48:39.000Z</time>
        <extensions>
          <ns3:TrackPointExtension>
            <ns3:atemp>20.0</ns3:atemp>
          </ns3:TrackPointExtension>
        </extensions>
      </trkpt>
      <trkpt lat="42.58293765597045421600341796875" lon="19.9409169517457485198974609375">
        <ele>1026.4000244140625</ele>
        <time>2026-06-17T07:48:40.000Z</time>
        <extensions>
          <ns3:TrackPointExtension>
            <ns3:atemp>20.0</ns3:atemp>
          </ns3:TrackPointExtension>
        </extensions>
      </trkpt>
      <trkpt lat="42.58291368372738361358642578125" lon="19.940893650054931640625">
        <ele>1026.5999755859375</ele>
        <time>2026-06-17T07:48:41.000Z</time>
        <extensions>
          <ns3:TrackPointExtension>
            <ns3:atemp>20.0</ns3:atemp>
          </ns3:TrackPointExtension>
        </extensions>
      </trkpt>
      <trkpt lat="42.582890801131725311279296875" lon="19.94086875580251216888427734375">
        <ele>1026.800048828125</ele>
        <time>2026-06-17T07:48:42.000Z</time>
        <extensions>
          <ns3:TrackPointExtension>
            <ns3:atemp>20.0</ns3:atemp>
          </ns3:TrackPointExtension>
        </extensions>
      </trkpt>
      <trkpt lat="42.58286674506962299346923828125" lon="19.940841682255268096923828125">
        <ele>1027</ele>
        <time>2026-06-17T07:48:43.000Z</time>
        <extensions>
          <ns3:TrackPointExtension>
            <ns3:atemp>20.0</ns3:atemp>
          </ns3:TrackPointExtension>
        </extensions>
      </trkpt>
      <trkpt lat="42.58284411393105983734130859375" lon="19.94081578217446804046630859375">
        <ele>1027.199951171875</ele>
        <time>2026-06-17T07:48:44.000Z</time>
        <extensions>
          <ns3:TrackPointExtension>
            <ns3:atemp>20.0</ns3:atemp>
          </ns3:TrackPointExtension>
        </extensions>
      </trkpt>
      <trkpt lat="42.582821063697338104248046875" lon="19.9407952465116977691650390625">
        <ele>1027.199951171875</ele>
        <time>2026-06-17T07:48:45.000Z</time>
        <extensions>
          <ns3:TrackPointExtension>
            <ns3:atemp>20.0</ns3:atemp>
          </ns3:TrackPointExtension>
        </extensions>
      </trkpt>
      <trkpt lat="42.58280253969132900238037109375" lon="19.9407731182873249053955078125">
        <ele>1027.4000244140625</ele>
        <time>2026-06-17T07:48:46.000Z</time>
        <extensions>
          <ns3:TrackPointExtension>
            <ns3:atemp>20.0</ns3:atemp>
          </ns3:TrackPointExtension>
        </extensions>
      </trkpt>
      <trkpt lat="42.58278477005660533905029296875" lon="19.940747804939746856689453125">
        <ele>1027.5999755859375</ele>
        <time>2026-06-17T07:48:47.000Z</time>
        <extensions>
          <ns3:TrackPointExtension>
            <ns3:atemp>20.0</ns3:atemp>
          </ns3:TrackPointExtension>
        </extensions>
      </trkpt>
      <trkpt lat="42.582766748964786529541015625" lon="19.94072190485894680023193359375">
        <ele>1027.800048828125</ele>
        <time>2026-06-17T07:48:48.000Z</time>
        <extensions>
          <ns3:TrackPointExtension>
            <ns3:atemp>20.0</ns3:atemp>
          </ns3:TrackPointExtension>
        </extensions>
      </trkpt>
      <trkpt lat="42.58274772204458713531494140625" lon="19.94069583714008331298828125">
        <ele>1028</ele>
        <time>2026-06-17T07:48:49.000Z</time>
        <extensions>
          <ns3:TrackPointExtension>
            <ns3:atemp>20.0</ns3:atemp>
          </ns3:TrackPointExtension>
        </extensions>
      </trkpt>
      <trkpt lat="42.58272710256278514862060546875" lon="19.9406758882105350494384765625">
        <ele>1028.199951171875</ele>
        <time>2026-06-17T07:48:50.000Z</time>
        <extensions>
          <ns3:TrackPointExtension>
            <ns3:atemp>20.0</ns3:atemp>
          </ns3:TrackPointExtension>
        </extensions>
      </trkpt>
      <trkpt lat="42.5827069021761417388916015625" lon="19.9406554363667964935302734375">
        <ele>1028.199951171875</ele>
        <time>2026-06-17T07:48:51.000Z</time>
        <extensions>
          <ns3:TrackPointExtension>
            <ns3:atemp>20.0</ns3:atemp>
          </ns3:TrackPointExtension>
        </extensions>
      </trkpt>
      <trkpt lat="42.5826891325414180755615234375" lon="19.94063339196145534515380859375">
        <ele>1028.4000244140625</ele>
        <time>2026-06-17T07:48:52.000Z</time>
        <extensions>
          <ns3:TrackPointExtension>
            <ns3:atemp>20.0</ns3:atemp>
          </ns3:TrackPointExtension>
        </extensions>
      </trkpt>
      <trkpt lat="42.58266943506896495819091796875" lon="19.9406098388135433197021484375">
        <ele>1028.5999755859375</ele>
        <time>2026-06-17T07:48:53.000Z</time>
        <extensions>
          <ns3:TrackPointExtension>
            <ns3:atemp>20.0</ns3:atemp>
          </ns3:TrackPointExtension>
        </extensions>
      </trkpt>
      <trkpt lat="42.582651413977146148681640625" lon="19.9405860342085361480712890625">
        <ele>1028.800048828125</ele>
        <time>2026-06-17T07:48:54.000Z</time>
        <extensions>
          <ns3:TrackPointExtension>
            <ns3:atemp>20.0</ns3:atemp>
          </ns3:TrackPointExtension>
        </extensions>
      </trkpt>
      <trkpt lat="42.582632638514041900634765625" lon="19.94056315161287784576416015625">
        <ele>1029</ele>
        <time>2026-06-17T07:48:55.000Z</time>
        <extensions>
          <ns3:TrackPointExtension>
            <ns3:atemp>21.0</ns3:atemp>
          </ns3:TrackPointExtension>
        </extensions>
      </trkpt>
      <trkpt lat="42.58261327631771564483642578125" lon="19.94054454378783702850341796875">
        <ele>1029.199951171875</ele>
        <time>2026-06-17T07:48:56.000Z</time>
        <extensions>
          <ns3:TrackPointExtension>
            <ns3:atemp>20.0</ns3:atemp>
          </ns3:TrackPointExtension>
        </extensions>
      </trkpt>
      <trkpt lat="42.58259366266429424285888671875" lon="19.94052509777247905731201171875">
        <ele>1029.199951171875</ele>
        <time>2026-06-17T07:48:57.000Z</time>
        <extensions>
          <ns3:TrackPointExtension>
            <ns3:atemp>20.0</ns3:atemp>
          </ns3:TrackPointExtension>
        </extensions>
      </trkpt>
      <trkpt lat="42.5825727917253971099853515625" lon="19.94050648994743824005126953125">
        <ele>1029.4000244140625</ele>
        <time>2026-06-17T07:48:58.000Z</time>
        <extensions>
          <ns3:TrackPointExtension>
            <ns3:atemp>21.0</ns3:atemp>
          </ns3:TrackPointExtension>
        </extensions>
      </trkpt>
      <trkpt lat="42.58255116641521453857421875" lon="19.9404861219227313995361328125">
        <ele>1029.5999755859375</ele>
        <time>2026-06-17T07:48:59.000Z</time>
        <extensions>
          <ns3:TrackPointExtension>
            <ns3:atemp>20.0</ns3:atemp>
          </ns3:TrackPointExtension>
        </extensions>
      </trkpt>
      <trkpt lat="42.58253113366663455963134765625" lon="19.9404643289744853973388671875">
        <ele>1029.800048828125</ele>
        <time>2026-06-17T07:49:00.000Z</time>
        <extensions>
          <ns3:TrackPointExtension>
            <ns3:atemp>20.0</ns3:atemp>
          </ns3:TrackPointExtension>
        </extensions>
      </trkpt>
      <trkpt lat="42.58250883780419826507568359375" lon="19.94044044055044651031494140625">
        <ele>1029.800048828125</ele>
        <time>2026-06-17T07:49:01.000Z</time>
        <extensions>
          <ns3:TrackPointExtension>
            <ns3:atemp>21.0</ns3:atemp>
          </ns3:TrackPointExtension>
        </extensions>
      </trkpt>
      <trkpt lat="42.5824872963130474090576171875" lon="19.94041998870670795440673828125">
        <ele>1030</ele>
        <time>2026-06-17T07:49:02.000Z</time>
        <extensions>
          <ns3:TrackPointExtension>
            <ns3:atemp>20.0</ns3:atemp>
          </ns3:TrackPointExtension>
        </extensions>
      </trkpt>
      <trkpt lat="42.58246793411672115325927734375" lon="19.94039819575846195220947265625">
        <ele>1030</ele>
        <time>2026-06-17T07:49:03.000Z</time>
        <extensions>
          <ns3:TrackPointExtension>
            <ns3:atemp>20.0</ns3:atemp>
          </ns3:TrackPointExtension>
        </extensions>
      </trkpt>
      <trkpt lat="42.582446224987506866455078125" lon="19.9403788335621356964111328125">
        <ele>1030.199951171875</ele>
        <time>2026-06-17T07:49:04.000Z</time>
        <extensions>
          <ns3:TrackPointExtension>
            <ns3:atemp>20.0</ns3:atemp>
          </ns3:TrackPointExtension>
        </extensions>
      </trkpt>
      <trkpt lat="42.5824262760579586029052734375" lon="19.940358214080333709716796875">
        <ele>1030.4000244140625</ele>
        <time>2026-06-17T07:49:05.000Z</time>
        <extensions>
          <ns3:TrackPointExtension>
            <ns3:atemp>21.0</ns3:atemp>
          </ns3:TrackPointExtension>
        </extensions>
      </trkpt>
      <trkpt lat="42.582408003509044647216796875" lon="19.94033801369369029998779296875">
        <ele>1030.4000244140625</ele>
        <time>2026-06-17T07:49:06.000Z</time>
        <extensions>
          <ns3:TrackPointExtension>
            <ns3:atemp>21.0</ns3:atemp>
          </ns3:TrackPointExtension>
        </extensions>
      </trkpt>
      <trkpt lat="42.5823867134749889373779296875" lon="19.940315298736095428466796875">
        <ele>1030.5999755859375</ele>
        <time>2026-06-17T07:49:07.000Z</time>
        <extensions>
          <ns3:TrackPointExtension>
            <ns3:atemp>21.0</ns3:atemp>
          </ns3:TrackPointExtension>
        </extensions>
      </trkpt>
      <trkpt lat="42.582365758717060089111328125" lon="19.94029006920754909515380859375">
        <ele>1030.800048828125</ele>
        <time>2026-06-17T07:49:08.000Z</time>
        <extensions>
          <ns3:TrackPointExtension>
            <ns3:atemp>21.0</ns3:atemp>
          </ns3:TrackPointExtension>
        </extensions>
      </trkpt>
      <trkpt lat="42.5823458097875118255615234375" lon="19.940265677869319915771484375">
        <ele>1030.800048828125</ele>
        <time>2026-06-17T07:49:09.000Z</time>
        <extensions>
          <ns3:TrackPointExtension>
            <ns3:atemp>21.0</ns3:atemp>
          </ns3:TrackPointExtension>
        </extensions>
      </trkpt>
      <trkpt lat="42.582324184477329254150390625" lon="19.94023592211306095123291015625">
        <ele>1031</ele>
        <time>2026-06-17T07:49:10.000Z</time>
        <extensions>
          <ns3:TrackPointExtension>
            <ns3:atemp>21.0</ns3:atemp>
          </ns3:TrackPointExtension>
        </extensions>
      </trkpt>
      <trkpt lat="42.58230163715779781341552734375" lon="19.9402061663568019866943359375">
        <ele>1031</ele>
        <time>2026-06-17T07:49:11.000Z</time>
        <extensions>
          <ns3:TrackPointExtension>
            <ns3:atemp>21.0</ns3:atemp>
          </ns3:TrackPointExtension>
        </extensions>
      </trkpt>
      <trkpt lat="42.58227833546698093414306640625" lon="19.940178506076335906982421875">
        <ele>1031</ele>
        <time>2026-06-17T07:49:12.000Z</time>
        <extensions>
          <ns3:TrackPointExtension>
            <ns3:atemp>21.0</ns3:atemp>
          </ns3:TrackPointExtension>
        </extensions>
      </trkpt>
      <trkpt lat="42.5822539441287517547607421875" lon="19.94014690630137920379638671875">
        <ele>1031.199951171875</ele>
        <time>2026-06-17T07:49:13.000Z</time>
        <extensions>
          <ns3:TrackPointExtension>
            <ns3:atemp>21.0</ns3:atemp>
          </ns3:TrackPointExtension>
        </extensions>
      </trkpt>
      <trkpt lat="42.5822311453521251678466796875" lon="19.94011916220188140869140625">
        <ele>1031.4000244140625</ele>
        <time>2026-06-17T07:49:14.000Z</time>
        <extensions>
          <ns3:TrackPointExtension>
            <ns3:atemp>21.0</ns3:atemp>
          </ns3:TrackPointExtension>
        </extensions>
      </trkpt>
      <trkpt lat="42.5822098553180694580078125" lon="19.94008923880755901336669921875">
        <ele>1031.5999755859375</ele>
        <time>2026-06-17T07:49:15.000Z</time>
        <extensions>
          <ns3:TrackPointExtension>
            <ns3:atemp>21.0</ns3:atemp>
          </ns3:TrackPointExtension>
        </extensions>
      </trkpt>
      <trkpt lat="42.58218781091272830963134765625" lon="19.9400529451668262481689453125">
        <ele>1031.800048828125</ele>
        <time>2026-06-17T07:49:16.000Z</time>
        <extensions>
          <ns3:TrackPointExtension>
            <ns3:atemp>21.0</ns3:atemp>
          </ns3:TrackPointExtension>
        </extensions>
      </trkpt>
      <trkpt lat="42.58216870017349720001220703125" lon="19.94000877253711223602294921875">
        <ele>1032</ele>
        <time>2026-06-17T07:49:17.000Z</time>
        <extensions>
          <ns3:TrackPointExtension>
            <ns3:atemp>21.0</ns3:atemp>
          </ns3:TrackPointExtension>
        </extensions>
      </trkpt>
      <trkpt lat="42.582152187824249267578125" lon="19.93996359407901763916015625">
        <ele>1032</ele>
        <time>2026-06-17T07:49:18.000Z</time>
        <extensions>
          <ns3:TrackPointExtension>
            <ns3:atemp>21.0</ns3:atemp>
          </ns3:TrackPointExtension>
        </extensions>
      </trkpt>
      <trkpt lat="42.582136094570159912109375" lon="19.9399201758205890655517578125">
        <ele>1032</ele>
        <time>2026-06-17T07:49:19.000Z</time>
        <extensions>
          <ns3:TrackPointExtension>
            <ns3:atemp>21.0</ns3:atemp>
          </ns3:TrackPointExtension>
        </extensions>
      </trkpt>
      <trkpt lat="42.58212410844862461090087890625" lon="19.9398802779614925384521484375">
        <ele>1032</ele>
        <time>2026-06-17T07:49:20.000Z</time>
        <extensions>
          <ns3:TrackPointExtension>
            <ns3:atemp>21.0</ns3:atemp>
          </ns3:TrackPointExtension>
        </extensions>
      </trkpt>
      <trkpt lat="42.5821132957935333251953125" lon="19.93984096683561801910400390625">
        <ele>1032</ele>
        <time>2026-06-17T07:49:21.000Z</time>
        <extensions>
          <ns3:TrackPointExtension>
            <ns3:atemp>21.0</ns3:atemp>
          </ns3:TrackPointExtension>
        </extensions>
      </trkpt>
      <trkpt lat="42.58210265077650547027587890625" lon="19.93979863822460174560546875">
        <ele>1032</ele>
        <time>2026-06-17T07:49:22.000Z</time>
        <extensions>
          <ns3:TrackPointExtension>
            <ns3:atemp>21.0</ns3:atemp>
          </ns3:TrackPointExtension>
        </extensions>
      </trkpt>
      <trkpt lat="42.5820913352072238922119140625" lon="19.93975781835615634918212890625">
        <ele>1032.199951171875</ele>
        <time>2026-06-17T07:49:23.000Z</time>
        <extensions>
          <ns3:TrackPointExtension>
            <ns3:atemp>21.0</ns3:atemp>
          </ns3:TrackPointExtension>
        </extensions>
      </trkpt>
      <trkpt lat="42.58208488114178180694580078125" lon="19.9397139810025691986083984375">
        <ele>1032.4000244140625</ele>
        <time>2026-06-17T07:49:24.000Z</time>
        <extensions>
          <ns3:TrackPointExtension>
            <ns3:atemp>21.0</ns3:atemp>
          </ns3:TrackPointExtension>
        </extensions>
      </trkpt>
      <trkpt lat="42.58207918144762516021728515625" lon="19.9396794475615024566650390625">
        <ele>1032.5999755859375</ele>
        <time>2026-06-17T07:49:25.000Z</time>
        <extensions>
          <ns3:TrackPointExtension>
            <ns3:atemp>21.0</ns3:atemp>
          </ns3:TrackPointExtension>
        </extensions>
      </trkpt>
      <trkpt lat="42.5820749066770076751708984375" lon="19.93964415974915027618408203125">
        <ele>1032.800048828125</ele>
        <time>2026-06-17T07:49:26.000Z</time>
        <extensions>
          <ns3:TrackPointExtension>
            <ns3:atemp>21.0</ns3:atemp>
          </ns3:TrackPointExtension>
        </extensions>
      </trkpt>
      <trkpt lat="42.582071386277675628662109375" lon="19.93960526771843433380126953125">
        <ele>1032.800048828125</ele>
        <time>2026-06-17T07:49:27.000Z</time>
        <extensions>
          <ns3:TrackPointExtension>
            <ns3:atemp>21.0</ns3:atemp>
          </ns3:TrackPointExtension>
        </extensions>
      </trkpt>
      <trkpt lat="42.5820678658783435821533203125" lon="19.93956620804965496063232421875">
        <ele>1033</ele>
        <time>2026-06-17T07:49:28.000Z</time>
        <extensions>
          <ns3:TrackPointExtension>
            <ns3:atemp>21.0</ns3:atemp>
          </ns3:TrackPointExtension>
        </extensions>
      </trkpt>
      <trkpt lat="42.5820651836693286895751953125" lon="19.93952765129506587982177734375">
        <ele>1033.199951171875</ele>
        <time>2026-06-17T07:49:29.000Z</time>
        <extensions>
          <ns3:TrackPointExtension>
            <ns3:atemp>21.0</ns3:atemp>
          </ns3:TrackPointExtension>
        </extensions>
      </trkpt>
      <trkpt lat="42.5820631720125675201416015625" lon="19.9394890107214450836181640625">
        <ele>1033.4000244140625</ele>
        <time>2026-06-17T07:49:30.000Z</time>
        <extensions>
          <ns3:TrackPointExtension>
            <ns3:atemp>21.0</ns3:atemp>
          </ns3:TrackPointExtension>
        </extensions>
      </trkpt>
      <trkpt lat="42.5820611603558063507080078125" lon="19.939450956881046295166015625">
        <ele>1033.4000244140625</ele>
        <time>2026-06-17T07:49:31.000Z</time>
        <extensions>
          <ns3:TrackPointExtension>
            <ns3:atemp>21.0</ns3:atemp>
          </ns3:TrackPointExtension>
        </extensions>
      </trkpt>
      <trkpt lat="42.58206300437450408935546875" lon="19.93940779007971286773681640625">
        <ele>1033.5999755859375</ele>
        <time>2026-06-17T07:49:32.000Z</time>
        <extensions>
          <ns3:TrackPointExtension>
            <ns3:atemp>21.0</ns3:atemp>
          </ns3:TrackPointExtension>
        </extensions>
      </trkpt>
      <trkpt lat="42.5820628367364406585693359375" lon="19.93936738930642604827880859375">
        <ele>1033.800048828125</ele>
        <time>2026-06-17T07:49:33.000Z</time>
        <extensions>
          <ns3:TrackPointExtension>
            <ns3:atemp>21.0</ns3:atemp>
          </ns3:TrackPointExtension>
        </extensions>
      </trkpt>
      <trkpt lat="42.5820650160312652587890625" lon="19.939330257475376129150390625">
        <ele>1034</ele>
        <time>2026-06-17T07:49:34.000Z</time>
        <extensions>
          <ns3:TrackPointExtension>
            <ns3:atemp>21.0</ns3:atemp>
          </ns3:TrackPointExtension>
        </extensions>
      </trkpt>
      <trkpt lat="42.58206836879253387451171875" lon="19.93929077871143817901611328125">
        <ele>1034.4000244140625</ele>
        <time>2026-06-17T07:49:35.000Z</time>
        <extensions>
          <ns3:TrackPointExtension>
            <ns3:atemp>21.0</ns3:atemp>
          </ns3:TrackPointExtension>
        </extensions>
      </trkpt>
      <trkpt lat="42.58207448758184909820556640625" lon="19.93924073874950408935546875">
        <ele>1034.5999755859375</ele>
        <time>2026-06-17T07:49:36.000Z</time>
        <extensions>
          <ns3:TrackPointExtension>
            <ns3:atemp>21.0</ns3:atemp>
          </ns3:TrackPointExtension>
        </extensions>
      </trkpt>
      <trkpt lat="42.58207733742892742156982421875" lon="19.93918902240693569183349609375">
        <ele>1034.5999755859375</ele>
        <time>2026-06-17T07:49:37.000Z</time>
        <extensions>
          <ns3:TrackPointExtension>
            <ns3:atemp>21.0</ns3:atemp>
          </ns3:TrackPointExtension>
        </extensions>
      </trkpt>
      <trkpt lat="42.58207507431507110595703125" lon="19.939137808978557586669921875">
        <ele>1034.5999755859375</ele>
        <time>2026-06-17T07:49:38.000Z</time>
        <extensions>
          <ns3:TrackPointExtension>
            <ns3:atemp>21.0</ns3:atemp>
          </ns3:TrackPointExtension>
        </extensions>
      </trkpt>
      <trkpt lat="42.582067362964153289794921875" lon="19.93908491916954517364501953125">
        <ele>1034.5999755859375</ele>
        <time>2026-06-17T07:49:39.000Z</time>
        <extensions>
          <ns3:TrackPointExtension>
            <ns3:atemp>21.0</ns3:atemp>
          </ns3:TrackPointExtension>
        </extensions>
      </trkpt>
      <trkpt lat="42.5820507667958736419677734375" lon="19.93903311900794506072998046875">
        <ele>1034.4000244140625</ele>
        <time>2026-06-17T07:49:40.000Z</time>
        <extensions>
          <ns3:TrackPointExtension>
            <ns3:atemp>21.0</ns3:atemp>
          </ns3:TrackPointExtension>
        </extensions>
      </trkpt>
      <trkpt lat="42.5820242799818515777587890625" lon="19.938980229198932647705078125">
        <ele>1034.199951171875</ele>
        <time>2026-06-17T07:49:41.000Z</time>
        <extensions>
          <ns3:TrackPointExtension>
            <ns3:atemp>21.0</ns3:atemp>
          </ns3:TrackPointExtension>
        </extensions>
      </trkpt>
      <trkpt lat="42.58198815397918224334716796875" lon="19.93892599828541278839111328125">
        <ele>1034</ele>
        <time>2026-06-17T07:49:42.000Z</time>
        <extensions>
          <ns3:TrackPointExtension>
            <ns3:atemp>21.0</ns3:atemp>
          </ns3:TrackPointExtension>
        </extensions>
      </trkpt>
      <trkpt lat="42.5819438137114048004150390625" lon="19.93887470103800296783447265625">
        <ele>1033.800048828125</ele>
        <time>2026-06-17T07:49:43.000Z</time>
        <extensions>
          <ns3:TrackPointExtension>
            <ns3:atemp>21.0</ns3:atemp>
          </ns3:TrackPointExtension>
        </extensions>
      </trkpt>
      <trkpt lat="42.58188623003661632537841796875" lon="19.938838072121143341064453125">
        <ele>1033.5999755859375</ele>
        <time>2026-06-17T07:49:44.000Z</time>
        <extensions>
          <ns3:TrackPointExtension>
            <ns3:atemp>21.0</ns3:atemp>
          </ns3:TrackPointExtension>
        </extensions>
      </trkpt>
      <trkpt lat="42.58182772435247898101806640625" lon="19.938821978867053985595703125">
        <ele>1033.4000244140625</ele>
        <time>2026-06-17T07:49:45.000Z</time>
        <extensions>
          <ns3:TrackPointExtension>
            <ns3:atemp>21.0</ns3:atemp>
          </ns3:TrackPointExtension>
        </extensions>
      </trkpt>
      <trkpt lat="42.58176335133612155914306640625" lon="19.93882365524768829345703125">
        <ele>1033.4000244140625</ele>
        <time>2026-06-17T07:49:46.000Z</time>
        <extensions>
          <ns3:TrackPointExtension>
            <ns3:atemp>21.0</ns3:atemp>
          </ns3:TrackPointExtension>
        </extensions>
      </trkpt>
      <trkpt lat="42.58170090615749359130859375" lon="19.93883027695119380950927734375">
        <ele>1033.199951171875</ele>
        <time>2026-06-17T07:49:47.000Z</time>
        <extensions>
          <ns3:TrackPointExtension>
            <ns3:atemp>21.0</ns3:atemp>
          </ns3:TrackPointExtension>
        </extensions>
      </trkpt>
      <trkpt lat="42.5816385447978973388671875" lon="19.9388419277966022491455078125">
        <ele>1033.199951171875</ele>
        <time>2026-06-17T07:49:48.000Z</time>
        <extensions>
          <ns3:TrackPointExtension>
            <ns3:atemp>21.0</ns3:atemp>
          </ns3:TrackPointExtension>
        </extensions>
      </trkpt>
      <trkpt lat="42.581583559513092041015625" lon="19.93884871713817119598388671875">
        <ele>1033.4000244140625</ele>
        <time>2026-06-17T07:49:49.000Z</time>
        <extensions>
          <ns3:TrackPointExtension>
            <ns3:atemp>21.0</ns3:atemp>
          </ns3:TrackPointExtension>
        </extensions>
      </trkpt>
      <trkpt lat="42.58153100498020648956298828125" lon="19.93885626085102558135986328125">
        <ele>1033.5999755859375</ele>
        <time>2026-06-17T07:49:50.000Z</time>
        <extensions>
          <ns3:TrackPointExtension>
            <ns3:atemp>21.0</ns3:atemp>
          </ns3:TrackPointExtension>
        </extensions>
      </trkpt>
      <trkpt lat="42.5814781151711940765380859375" lon="19.93885123170912265777587890625">
        <ele>1033.800048828125</ele>
        <time>2026-06-17T07:49:51.000Z</time>
        <extensions>
          <ns3:TrackPointExtension>
            <ns3:atemp>21.0</ns3:atemp>
          </ns3:TrackPointExtension>
        </extensions>
      </trkpt>
      <trkpt lat="42.58142841048538684844970703125" lon="19.93883932940661907196044921875">
        <ele>1034</ele>
        <time>2026-06-17T07:49:52.000Z</time>
        <extensions>
          <ns3:TrackPointExtension>
            <ns3:atemp>21.0</ns3:atemp>
          </ns3:TrackPointExtension>
        </extensions>
      </trkpt>
      <trkpt lat="42.58138432167470455169677734375" lon="19.938815943896770477294921875">
        <ele>1034.199951171875</ele>
        <time>2026-06-17T07:49:53.000Z</time>
        <extensions>
          <ns3:TrackPointExtension>
            <ns3:atemp>21.0</ns3:atemp>
          </ns3:TrackPointExtension>
        </extensions>
      </trkpt>
      <trkpt lat="42.58134241215884685516357421875" lon="19.9387832544744014739990234375">
        <ele>1034.199951171875</ele>
        <time>2026-06-17T07:49:54.000Z</time>
        <extensions>
          <ns3:TrackPointExtension>
            <ns3:atemp>21.0</ns3:atemp>
          </ns3:TrackPointExtension>
        </extensions>
      </trkpt>
      <trkpt lat="42.581300251185894012451171875" lon="19.93874679319560527801513671875">
        <ele>1034.199951171875</ele>
        <time>2026-06-17T07:49:55.000Z</time>
        <extensions>
          <ns3:TrackPointExtension>
            <ns3:atemp>21.0</ns3:atemp>
          </ns3:TrackPointExtension>
        </extensions>
      </trkpt>
      <trkpt lat="42.5812575034797191619873046875" lon="19.93871309794485569000244140625">
        <ele>1034.199951171875</ele>
        <time>2026-06-17T07:49:56.000Z</time>
        <extensions>
          <ns3:TrackPointExtension>
            <ns3:atemp>21.0</ns3:atemp>
          </ns3:TrackPointExtension>
        </extensions>
      </trkpt>
      <trkpt lat="42.58121500723063945770263671875" lon="19.93867252953350543975830078125">
        <ele>1034.4000244140625</ele>
        <time>2026-06-17T07:49:57.000Z</time>
        <extensions>
          <ns3:TrackPointExtension>
            <ns3:atemp>21.0</ns3:atemp>
          </ns3:TrackPointExtension>
        </extensions>
      </trkpt>
      <trkpt lat="42.58117510937154293060302734375" lon="19.93862827308475971221923828125">
        <ele>1034.4000244140625</ele>
        <time>2026-06-17T07:49:58.000Z</time>
        <extensions>
          <ns3:TrackPointExtension>
            <ns3:atemp>21.0</ns3:atemp>
          </ns3:TrackPointExtension>
        </extensions>
      </trkpt>
      <trkpt lat="42.581137977540493011474609375" lon="19.93858133442699909210205078125">
        <ele>1034.4000244140625</ele>
        <time>2026-06-17T07:49:59.000Z</time>
        <extensions>
          <ns3:TrackPointExtension>
            <ns3:atemp>21.0</ns3:atemp>
          </ns3:TrackPointExtension>
        </extensions>
      </trkpt>
      <trkpt lat="42.5811042822897434234619140625" lon="19.9385274387896060943603515625">
        <ele>1034.4000244140625</ele>
        <time>2026-06-17T07:50:00.000Z</time>
        <extensions>
          <ns3:TrackPointExtension>
            <ns3:atemp>21.0</ns3:atemp>
          </ns3:TrackPointExtension>
        </extensions>
      </trkpt>
      <trkpt lat="42.58106932975351810455322265625" lon="19.93846080265939235687255859375">
        <ele>1034.199951171875</ele>
        <time>2026-06-17T07:50:01.000Z</time>
        <extensions>
          <ns3:TrackPointExtension>
            <ns3:atemp>21.0</ns3:atemp>
          </ns3:TrackPointExtension>
        </extensions>
      </trkpt>
      <trkpt lat="42.58103161118924617767333984375" lon="19.938388131558895111083984375">
        <ele>1034</ele>
        <time>2026-06-17T07:50:02.000Z</time>
        <extensions>
          <ns3:TrackPointExtension>
            <ns3:atemp>21.0</ns3:atemp>
          </ns3:TrackPointExtension>
        </extensions>
      </trkpt>
      <trkpt lat="42.5809948146343231201171875" lon="19.93830892257392406463623046875">
        <ele>1033.5999755859375</ele>
        <time>2026-06-17T07:50:03.000Z</time>
        <extensions>
          <ns3:TrackPointExtension>
            <ns3:atemp>21.0</ns3:atemp>
          </ns3:TrackPointExtension>
        </extensions>
      </trkpt>
      <trkpt lat="42.58095148019492626190185546875" lon="19.938230216503143310546875">
        <ele>1033.199951171875</ele>
        <time>2026-06-17T07:50:04.000Z</time>
        <extensions>
          <ns3:TrackPointExtension>
            <ns3:atemp>21.0</ns3:atemp>
          </ns3:TrackPointExtension>
        </extensions>
      </trkpt>
      <trkpt lat="42.5809024460613727569580078125" lon="19.938160479068756103515625">
        <ele>1033</ele>
        <time>2026-06-17T07:50:05.000Z</time>
        <extensions>
          <ns3:TrackPointExtension>
            <ns3:atemp>21.0</ns3:atemp>
          </ns3:TrackPointExtension>
        </extensions>
      </trkpt>
      <trkpt lat="42.58084704168140888214111328125" lon="19.93810239247977733612060546875">
        <ele>1032.5999755859375</ele>
        <time>2026-06-17T07:50:06.000Z</time>
        <extensions>
          <ns3:TrackPointExtension>
            <ns3:atemp>21.0</ns3:atemp>
          </ns3:TrackPointExtension>
        </extensions>
      </trkpt>
      <trkpt lat="42.580786608159542083740234375" lon="19.93805478326976299285888671875">
        <ele>1032.4000244140625</ele>
        <time>2026-06-17T07:50:07.000Z</time>
        <extensions>
          <ns3:TrackPointExtension>
            <ns3:atemp>21.0</ns3:atemp>
          </ns3:TrackPointExtension>
        </extensions>
      </trkpt>
      <trkpt lat="42.58072349242866039276123046875" lon="19.938015304505825042724609375">
        <ele>1032.4000244140625</ele>
        <time>2026-06-17T07:50:08.000Z</time>
        <extensions>
          <ns3:TrackPointExtension>
            <ns3:atemp>21.0</ns3:atemp>
          </ns3:TrackPointExtension>
        </extensions>
      </trkpt>
      <trkpt lat="42.58066146634519100189208984375" lon="19.93798387236893177032470703125">
        <ele>1032.4000244140625</ele>
        <time>2026-06-17T07:50:09.000Z</time>
        <extensions>
          <ns3:TrackPointExtension>
            <ns3:atemp>21.0</ns3:atemp>
          </ns3:TrackPointExtension>
        </extensions>
      </trkpt>
      <trkpt lat="42.58060698397457599639892578125" lon="19.9379544518887996673583984375">
        <ele>1032.5999755859375</ele>
        <time>2026-06-17T07:50:10.000Z</time>
        <extensions>
          <ns3:TrackPointExtension>
            <ns3:atemp>21.0</ns3:atemp>
          </ns3:TrackPointExtension>
        </extensions>
      </trkpt>
      <trkpt lat="42.58056071586906909942626953125" lon="19.9379256181418895721435546875">
        <ele>1032.800048828125</ele>
        <time>2026-06-17T07:50:11.000Z</time>
        <extensions>
          <ns3:TrackPointExtension>
            <ns3:atemp>21.0</ns3:atemp>
          </ns3:TrackPointExtension>
        </extensions>
      </trkpt>
      <trkpt lat="42.58051847107708454132080078125" lon="19.93789267726242542266845703125">
        <ele>1033</ele>
        <time>2026-06-17T07:50:12.000Z</time>
        <extensions>
          <ns3:TrackPointExtension>
            <ns3:atemp>21.0</ns3:atemp>
          </ns3:TrackPointExtension>
        </extensions>
      </trkpt>
      <trkpt lat="42.58048259653151035308837890625" lon="19.93785562925040721893310546875">
        <ele>1033.4000244140625</ele>
        <time>2026-06-17T07:50:13.000Z</time>
        <extensions>
          <ns3:TrackPointExtension>
            <ns3:atemp>21.0</ns3:atemp>
          </ns3:TrackPointExtension>
        </extensions>
      </trkpt>
      <trkpt lat="42.58044789545238018035888671875" lon="19.93781992234289646148681640625">
        <ele>1033.800048828125</ele>
        <time>2026-06-17T07:50:14.000Z</time>
        <extensions>
          <ns3:TrackPointExtension>
            <ns3:atemp>21.0</ns3:atemp>
          </ns3:TrackPointExtension>
        </extensions>
      </trkpt>
      <trkpt lat="42.5804162956774234771728515625" lon="19.93778237141668796539306640625">
        <ele>1034</ele>
        <time>2026-06-17T07:50:15.000Z</time>
        <extensions>
          <ns3:TrackPointExtension>
            <ns3:atemp>21.0</ns3:atemp>
          </ns3:TrackPointExtension>
        </extensions>
      </trkpt>
      <trkpt lat="42.58038251660764217376708984375" lon="19.937741048634052276611328125">
        <ele>1034.199951171875</ele>
        <time>2026-06-17T07:50:16.000Z</time>
        <extensions>
          <ns3:TrackPointExtension>
            <ns3:atemp>21.0</ns3:atemp>
          </ns3:TrackPointExtension>
        </extensions>
      </trkpt>
      <trkpt lat="42.58034848608076572418212890625" lon="19.937702156603336334228515625">
        <ele>1034.4000244140625</ele>
        <time>2026-06-17T07:50:17.000Z</time>
        <extensions>
          <ns3:TrackPointExtension>
            <ns3:atemp>21.0</ns3:atemp>
          </ns3:TrackPointExtension>
        </extensions>
      </trkpt>
      <trkpt lat="42.5803103484213352203369140625" lon="19.93767256848514080047607421875">
        <ele>1034.5999755859375</ele>
        <time>2026-06-17T07:50:18.000Z</time>
        <extensions>
          <ns3:TrackPointExtension>
            <ns3:atemp>21.0</ns3:atemp>
          </ns3:TrackPointExtension>
        </extensions>
      </trkpt>
      <trkpt lat="42.58026667870581150054931640625" lon="19.93764541111886501312255859375">
        <ele>1034.5999755859375</ele>
        <time>2026-06-17T07:50:19.000Z</time>
        <extensions>
          <ns3:TrackPointExtension>
            <ns3:atemp>21.0</ns3:atemp>
          </ns3:TrackPointExtension>
        </extensions>
      </trkpt>
      <trkpt lat="42.5802238471806049346923828125" lon="19.93761858902871608734130859375">
        <ele>1034.800048828125</ele>
        <time>2026-06-17T07:50:20.000Z</time>
        <extensions>
          <ns3:TrackPointExtension>
            <ns3:atemp>21.0</ns3:atemp>
          </ns3:TrackPointExtension>
        </extensions>
      </trkpt>
      <trkpt lat="42.58018151856958866119384765625" lon="19.937588162720203399658203125">
        <ele>1034.800048828125</ele>
        <time>2026-06-17T07:50:21.000Z</time>
        <extensions>
          <ns3:TrackPointExtension>
            <ns3:atemp>21.0</ns3:atemp>
          </ns3:TrackPointExtension>
        </extensions>
      </trkpt>
      <trkpt lat="42.580140866339206695556640625" lon="19.937557317316532135009765625">
        <ele>1034.800048828125</ele>
        <time>2026-06-17T07:50:22.000Z</time>
        <extensions>
          <ns3:TrackPointExtension>
            <ns3:atemp>21.0</ns3:atemp>
          </ns3:TrackPointExtension>
        </extensions>
      </trkpt>
      <trkpt lat="42.5801018066704273223876953125" lon="19.93752705864608287811279296875">
        <ele>1034.800048828125</ele>
        <time>2026-06-17T07:50:23.000Z</time>
        <extensions>
          <ns3:TrackPointExtension>
            <ns3:atemp>21.0</ns3:atemp>
          </ns3:TrackPointExtension>
        </extensions>
      </trkpt>
      <trkpt lat="42.5800632499158382415771484375" lon="19.93749302811920642852783203125">
        <ele>1035</ele>
        <time>2026-06-17T07:50:24.000Z</time>
        <extensions>
          <ns3:TrackPointExtension>
            <ns3:atemp>21.0</ns3:atemp>
          </ns3:TrackPointExtension>
        </extensions>
      </trkpt>
      <trkpt lat="42.5800270400941371917724609375" lon="19.93746109306812286376953125">
        <ele>1035</ele>
        <time>2026-06-17T07:50:25.000Z</time>
        <extensions>
          <ns3:TrackPointExtension>
            <ns3:atemp>21.0</ns3:atemp>
          </ns3:TrackPointExtension>
        </extensions>
      </trkpt>
      <trkpt lat="42.57999326102435588836669921875" lon="19.93742982856929302215576171875">
        <ele>1035.199951171875</ele>
        <time>2026-06-17T07:50:26.000Z</time>
        <extensions>
          <ns3:TrackPointExtension>
            <ns3:atemp>21.0</ns3:atemp>
          </ns3:TrackPointExtension>
        </extensions>
      </trkpt>
      <trkpt lat="42.5799586437642574310302734375" lon="19.9373955465853214263916015625">
        <ele>1035.199951171875</ele>
        <time>2026-06-17T07:50:27.000Z</time>
        <extensions>
          <ns3:TrackPointExtension>
            <ns3:atemp>21.0</ns3:atemp>
          </ns3:TrackPointExtension>
        </extensions>
      </trkpt>
      <trkpt lat="42.57992394268512725830078125" lon="19.93735824711620807647705078125">
        <ele>1035.4000244140625</ele>
        <time>2026-06-17T07:50:28.000Z</time>
        <extensions>
          <ns3:TrackPointExtension>
            <ns3:atemp>21.0</ns3:atemp>
          </ns3:TrackPointExtension>
        </extensions>
      </trkpt>
      <trkpt lat="42.57989100180566310882568359375" lon="19.93732421658933162689208984375">
        <ele>1035.5999755859375</ele>
        <time>2026-06-17T07:50:29.000Z</time>
        <extensions>
          <ns3:TrackPointExtension>
            <ns3:atemp>21.0</ns3:atemp>
          </ns3:TrackPointExtension>
        </extensions>
      </trkpt>
      <trkpt lat="42.57985764183104038238525390625" lon="19.9372942931950092315673828125">
        <ele>1035.800048828125</ele>
        <time>2026-06-17T07:50:30.000Z</time>
        <extensions>
          <ns3:TrackPointExtension>
            <ns3:atemp>21.0</ns3:atemp>
          </ns3:TrackPointExtension>
        </extensions>
      </trkpt>
      <trkpt lat="42.579824030399322509765625" lon="19.93726135231554508209228515625">
        <ele>1036</ele>
        <time>2026-06-17T07:50:31.000Z</time>
        <extensions>
          <ns3:TrackPointExtension>
            <ns3:atemp>21.0</ns3:atemp>
          </ns3:TrackPointExtension>
        </extensions>
      </trkpt>
      <trkpt lat="42.579790838062763214111328125" lon="19.9372305907309055328369140625">
        <ele>1036.199951171875</ele>
        <time>2026-06-17T07:50:32.000Z</time>
        <extensions>
          <ns3:TrackPointExtension>
            <ns3:atemp>21.0</ns3:atemp>
          </ns3:TrackPointExtension>
        </extensions>
      </trkpt>
      <trkpt lat="42.5797578133642673492431640625" lon="19.9371997453272342681884765625">
        <ele>1036.4000244140625</ele>
        <time>2026-06-17T07:50:33.000Z</time>
        <extensions>
          <ns3:TrackPointExtension>
            <ns3:atemp>21.0</ns3:atemp>
          </ns3:TrackPointExtension>
        </extensions>
      </trkpt>
      <trkpt lat="42.57972269318997859954833984375" lon="19.937169067561626434326171875">
        <ele>1036.4000244140625</ele>
        <time>2026-06-17T07:50:34.000Z</time>
        <extensions>
          <ns3:TrackPointExtension>
            <ns3:atemp>21.0</ns3:atemp>
          </ns3:TrackPointExtension>
        </extensions>
      </trkpt>
      <trkpt lat="42.57968790829181671142578125" lon="19.9371350370347499847412109375">
        <ele>1036.5999755859375</ele>
        <time>2026-06-17T07:50:35.000Z</time>
        <extensions>
          <ns3:TrackPointExtension>
            <ns3:atemp>21.0</ns3:atemp>
          </ns3:TrackPointExtension>
        </extensions>
      </trkpt>
      <trkpt lat="42.579652033746242523193359375" lon="19.93709899485111236572265625">
        <ele>1036.800048828125</ele>
        <time>2026-06-17T07:50:36.000Z</time>
        <extensions>
          <ns3:TrackPointExtension>
            <ns3:atemp>21.0</ns3:atemp>
          </ns3:TrackPointExtension>
        </extensions>
      </trkpt>
      <trkpt lat="42.5796169973909854888916015625" lon="19.93706270121037960052490234375">
        <ele>1036.800048828125</ele>
        <time>2026-06-17T07:50:37.000Z</time>
        <extensions>
          <ns3:TrackPointExtension>
            <ns3:atemp>21.0</ns3:atemp>
          </ns3:TrackPointExtension>
        </extensions>
      </trkpt>
      <trkpt lat="42.57958707399666309356689453125" lon="19.93702632375061511993408203125">
        <ele>1037</ele>
        <time>2026-06-17T07:50:38.000Z</time>
        <extensions>
          <ns3:TrackPointExtension>
            <ns3:atemp>21.0</ns3:atemp>
          </ns3:TrackPointExtension>
        </extensions>
      </trkpt>
      <trkpt lat="42.57955824024975299835205078125" lon="19.936990700662136077880859375">
        <ele>1037.199951171875</ele>
        <time>2026-06-17T07:50:39.000Z</time>
        <extensions>
          <ns3:TrackPointExtension>
            <ns3:atemp>21.0</ns3:atemp>
          </ns3:TrackPointExtension>
        </extensions>
      </trkpt>
      <trkpt lat="42.5795330107212066650390625" lon="19.93695440702140331268310546875">
        <ele>1037.4000244140625</ele>
        <time>2026-06-17T07:50:40.000Z</time>
        <extensions>
          <ns3:TrackPointExtension>
            <ns3:atemp>21.0</ns3:atemp>
          </ns3:TrackPointExtension>
        </extensions>
      </trkpt>
      <trkpt lat="42.57950627245008945465087890625" lon="19.93691660463809967041015625">
        <ele>1037.4000244140625</ele>
        <time>2026-06-17T07:50:41.000Z</time>
        <extensions>
          <ns3:TrackPointExtension>
            <ns3:atemp>21.0</ns3:atemp>
          </ns3:TrackPointExtension>
        </extensions>
      </trkpt>
      <trkpt lat="42.57947777397930622100830078125" lon="19.93687729351222515106201171875">
        <ele>1037.5999755859375</ele>
        <time>2026-06-17T07:50:42.000Z</time>
        <extensions>
          <ns3:TrackPointExtension>
            <ns3:atemp>21.0</ns3:atemp>
          </ns3:TrackPointExtension>
        </extensions>
      </trkpt>
      <trkpt lat="42.5794483534991741180419921875" lon="19.93684058077633380889892578125">
        <ele>1037.800048828125</ele>
        <time>2026-06-17T07:50:43.000Z</time>
        <extensions>
          <ns3:TrackPointExtension>
            <ns3:atemp>21.0</ns3:atemp>
          </ns3:TrackPointExtension>
        </extensions>
      </trkpt>
      <trkpt lat="42.5794168375432491302490234375" lon="19.93680738843977451324462890625">
        <ele>1037.800048828125</ele>
        <time>2026-06-17T07:50:44.000Z</time>
        <extensions>
          <ns3:TrackPointExtension>
            <ns3:atemp>21.0</ns3:atemp>
          </ns3:TrackPointExtension>
        </extensions>
      </trkpt>
      <trkpt lat="42.5793853215873241424560546875" lon="19.9367724359035491943359375">
        <ele>1037.800048828125</ele>
        <time>2026-06-17T07:50:45.000Z</time>
        <extensions>
          <ns3:TrackPointExtension>
            <ns3:atemp>21.0</ns3:atemp>
          </ns3:TrackPointExtension>
        </extensions>
      </trkpt>
      <trkpt lat="42.57935238070785999298095703125" lon="19.9367375671863555908203125">
        <ele>1038</ele>
        <time>2026-06-17T07:50:46.000Z</time>
        <extensions>
          <ns3:TrackPointExtension>
            <ns3:atemp>21.0</ns3:atemp>
          </ns3:TrackPointExtension>
        </extensions>
      </trkpt>
      <trkpt lat="42.57931835018098354339599609375" lon="19.93670328520238399505615234375">
        <ele>1038</ele>
        <time>2026-06-17T07:50:47.000Z</time>
        <extensions>
          <ns3:TrackPointExtension>
            <ns3:atemp>21.0</ns3:atemp>
          </ns3:TrackPointExtension>
        </extensions>
      </trkpt>
      <trkpt lat="42.57928297854959964752197265625" lon="19.93667009286582469940185546875">
        <ele>1038</ele>
        <time>2026-06-17T07:50:48.000Z</time>
        <extensions>
          <ns3:TrackPointExtension>
            <ns3:atemp>21.0</ns3:atemp>
          </ns3:TrackPointExtension>
        </extensions>
      </trkpt>
      <trkpt lat="42.57924660108983516693115234375" lon="19.93664042092859745025634765625">
        <ele>1038</ele>
        <time>2026-06-17T07:50:49.000Z</time>
        <extensions>
          <ns3:TrackPointExtension>
            <ns3:atemp>21.0</ns3:atemp>
          </ns3:TrackPointExtension>
        </extensions>
      </trkpt>
      <trkpt lat="42.57920703850686550140380859375" lon="19.93661351501941680908203125">
        <ele>1038</ele>
        <time>2026-06-17T07:50:50.000Z</time>
        <extensions>
          <ns3:TrackPointExtension>
            <ns3:atemp>21.0</ns3:atemp>
          </ns3:TrackPointExtension>
        </extensions>
      </trkpt>
      <trkpt lat="42.57916747592389583587646484375" lon="19.9365851841866970062255859375">
        <ele>1038</ele>
        <time>2026-06-17T07:50:51.000Z</time>
        <extensions>
          <ns3:TrackPointExtension>
            <ns3:atemp>21.0</ns3:atemp>
          </ns3:TrackPointExtension>
        </extensions>
      </trkpt>
      <trkpt lat="42.579129673540592193603515625" lon="19.9365576915442943572998046875">
        <ele>1038</ele>
        <time>2026-06-17T07:50:52.000Z</time>
        <extensions>
          <ns3:TrackPointExtension>
            <ns3:atemp>21.0</ns3:atemp>
          </ns3:TrackPointExtension>
        </extensions>
      </trkpt>
      <trkpt lat="42.57909053005278110504150390625" lon="19.9365355633199214935302734375">
        <ele>1038</ele>
        <time>2026-06-17T07:50:53.000Z</time>
        <extensions>
          <ns3:TrackPointExtension>
            <ns3:atemp>21.0</ns3:atemp>
          </ns3:TrackPointExtension>
        </extensions>
      </trkpt>
      <trkpt lat="42.57905096746981143951416015625" lon="19.93651536293327808380126953125">
        <ele>1038</ele>
        <time>2026-06-17T07:50:54.000Z</time>
        <extensions>
          <ns3:TrackPointExtension>
            <ns3:atemp>21.0</ns3:atemp>
          </ns3:TrackPointExtension>
        </extensions>
      </trkpt>
      <trkpt lat="42.57901140488684177398681640625" lon="19.93649809621274471282958984375">
        <ele>1038.199951171875</ele>
        <time>2026-06-17T07:50:55.000Z</time>
        <extensions>
          <ns3:TrackPointExtension>
            <ns3:atemp>21.0</ns3:atemp>
          </ns3:TrackPointExtension>
        </extensions>
      </trkpt>
      <trkpt lat="42.57897536270320415496826171875" lon="19.93648015893995761871337890625">
        <ele>1038.4000244140625</ele>
        <time>2026-06-17T07:50:56.000Z</time>
        <extensions>
          <ns3:TrackPointExtension>
            <ns3:atemp>21.0</ns3:atemp>
          </ns3:TrackPointExtension>
        </extensions>
      </trkpt>
      <trkpt lat="42.57894384674727916717529296875" lon="19.93646641261875629425048828125">
        <ele>1038.5999755859375</ele>
        <time>2026-06-17T07:50:57.000Z</time>
        <extensions>
          <ns3:TrackPointExtension>
            <ns3:atemp>21.0</ns3:atemp>
          </ns3:TrackPointExtension>
        </extensions>
      </trkpt>
      <trkpt lat="42.57891400717198848724365234375" lon="19.93645082227885723114013671875">
        <ele>1038.800048828125</ele>
        <time>2026-06-17T07:50:58.000Z</time>
        <extensions>
          <ns3:TrackPointExtension>
            <ns3:atemp>21.0</ns3:atemp>
          </ns3:TrackPointExtension>
        </extensions>
      </trkpt>
      <trkpt lat="42.5788874365389347076416015625" lon="19.9364383332431316375732421875">
        <ele>1039</ele>
        <time>2026-06-17T07:50:59.000Z</time>
        <extensions>
          <ns3:TrackPointExtension>
            <ns3:atemp>21.0</ns3:atemp>
          </ns3:TrackPointExtension>
        </extensions>
      </trkpt>
      <trkpt lat="42.578860111534595489501953125" lon="19.93642617948353290557861328125">
        <ele>1039.199951171875</ele>
        <time>2026-06-17T07:51:00.000Z</time>
        <extensions>
          <ns3:TrackPointExtension>
            <ns3:atemp>21.0</ns3:atemp>
          </ns3:TrackPointExtension>
        </extensions>
      </trkpt>
      <trkpt lat="42.5788364745676517486572265625" lon="19.9364182166755199432373046875">
        <ele>1039.4000244140625</ele>
        <time>2026-06-17T07:51:01.000Z</time>
        <extensions>
          <ns3:TrackPointExtension>
            <ns3:atemp>21.0</ns3:atemp>
          </ns3:TrackPointExtension>
        </extensions>
      </trkpt>
      <trkpt lat="42.57881484925746917724609375" lon="19.93640773929655551910400390625">
        <ele>1039.5999755859375</ele>
        <time>2026-06-17T07:51:02.000Z</time>
        <extensions>
          <ns3:TrackPointExtension>
            <ns3:atemp>21.0</ns3:atemp>
          </ns3:TrackPointExtension>
        </extensions>
      </trkpt>
      <trkpt lat="42.57879347540438175201416015625" lon="19.9363977648317813873291015625">
        <ele>1039.800048828125</ele>
        <time>2026-06-17T07:51:03.000Z</time>
        <extensions>
          <ns3:TrackPointExtension>
            <ns3:atemp>21.0</ns3:atemp>
          </ns3:TrackPointExtension>
        </extensions>
      </trkpt>
      <trkpt lat="42.57877050898969173431396484375" lon="19.93638820946216583251953125">
        <ele>1040</ele>
        <time>2026-06-17T07:51:04.000Z</time>
        <extensions>
          <ns3:TrackPointExtension>
            <ns3:atemp>21.0</ns3:atemp>
          </ns3:TrackPointExtension>
        </extensions>
      </trkpt>
      <trkpt lat="42.57874955423176288604736328125" lon="19.9363769777119159698486328125">
        <ele>1040.199951171875</ele>
        <time>2026-06-17T07:51:05.000Z</time>
        <extensions>
          <ns3:TrackPointExtension>
            <ns3:atemp>21.0</ns3:atemp>
          </ns3:TrackPointExtension>
        </extensions>
      </trkpt>
      <trkpt lat="42.578728012740612030029296875" lon="19.93636365048587322235107421875">
        <ele>1040.4000244140625</ele>
        <time>2026-06-17T07:51:06.000Z</time>
        <extensions>
          <ns3:TrackPointExtension>
            <ns3:atemp>21.0</ns3:atemp>
          </ns3:TrackPointExtension>
        </extensions>
      </trkpt>
      <trkpt lat="42.578709237277507781982421875" lon="19.936344288289546966552734375">
        <ele>1040.5999755859375</ele>
        <time>2026-06-17T07:51:07.000Z</time>
        <extensions>
          <ns3:TrackPointExtension>
            <ns3:atemp>21.0</ns3:atemp>
          </ns3:TrackPointExtension>
        </extensions>
      </trkpt>
      <trkpt lat="42.5786854326725006103515625" lon="19.936318807303905487060546875">
        <ele>1040.800048828125</ele>
        <time>2026-06-17T07:51:08.000Z</time>
        <extensions>
          <ns3:TrackPointExtension>
            <ns3:atemp>21.0</ns3:atemp>
          </ns3:TrackPointExtension>
        </extensions>
      </trkpt>
      <trkpt lat="42.57866322062909603118896484375" lon="19.93628938682377338409423828125">
        <ele>1040.800048828125</ele>
        <time>2026-06-17T07:51:09.000Z</time>
        <extensions>
          <ns3:TrackPointExtension>
            <ns3:atemp>21.0</ns3:atemp>
          </ns3:TrackPointExtension>
        </extensions>
      </trkpt>
      <trkpt lat="42.57864184677600860595703125" lon="19.93625585921108722686767578125">
        <ele>1040.800048828125</ele>
        <time>2026-06-17T07:51:10.000Z</time>
        <extensions>
          <ns3:TrackPointExtension>
            <ns3:atemp>21.0</ns3:atemp>
          </ns3:TrackPointExtension>
        </extensions>
      </trkpt>
      <trkpt lat="42.57862214930355548858642578125" lon="19.93621788918972015380859375">
        <ele>1040.800048828125</ele>
        <time>2026-06-17T07:51:11.000Z</time>
        <extensions>
          <ns3:TrackPointExtension>
            <ns3:atemp>21.0</ns3:atemp>
          </ns3:TrackPointExtension>
        </extensions>
      </trkpt>
      <trkpt lat="42.578609995543956756591796875" lon="19.9361761473119258880615234375">
        <ele>1040.5999755859375</ele>
        <time>2026-06-17T07:51:12.000Z</time>
        <extensions>
          <ns3:TrackPointExtension>
            <ns3:atemp>21.0</ns3:atemp>
          </ns3:TrackPointExtension>
        </extensions>
      </trkpt>
      <trkpt lat="42.5786064751446247100830078125" lon="19.9361111037433147430419921875">
        <ele>1040.5999755859375</ele>
        <time>2026-06-17T07:51:13.000Z</time>
        <extensions>
          <ns3:TrackPointExtension>
            <ns3:atemp>21.0</ns3:atemp>
          </ns3:TrackPointExtension>
        </extensions>
      </trkpt>
      <trkpt lat="42.57861058227717876434326171875" lon="19.9360428750514984130859375">
        <ele>1040.4000244140625</ele>
        <time>2026-06-17T07:51:14.000Z</time>
        <extensions>
          <ns3:TrackPointExtension>
            <ns3:atemp>21.0</ns3:atemp>
          </ns3:TrackPointExtension>
        </extensions>
      </trkpt>
      <trkpt lat="42.57862214930355548858642578125" lon="19.935981519520282745361328125">
        <ele>1040.4000244140625</ele>
        <time>2026-06-17T07:51:15.000Z</time>
        <extensions>
          <ns3:TrackPointExtension>
            <ns3:atemp>21.0</ns3:atemp>
          </ns3:TrackPointExtension>
        </extensions>
      </trkpt>
      <trkpt lat="42.57863723672926425933837890625" lon="19.9359102733433246612548828125">
        <ele>1040.199951171875</ele>
        <time>2026-06-17T07:51:16.000Z</time>
        <extensions>
          <ns3:TrackPointExtension>
            <ns3:atemp>21.0</ns3:atemp>
          </ns3:TrackPointExtension>
        </extensions>
      </trkpt>
      <trkpt lat="42.5786517374217510223388671875" lon="19.93583307601511478424072265625">
        <ele>1040</ele>
        <time>2026-06-17T07:51:17.000Z</time>
        <extensions>
          <ns3:TrackPointExtension>
            <ns3:atemp>21.0</ns3:atemp>
          </ns3:TrackPointExtension>
        </extensions>
      </trkpt>
      <trkpt lat="42.57866732776165008544921875" lon="19.935748837888240814208984375">
        <ele>1040</ele>
        <time>2026-06-17T07:51:18.000Z</time>
        <extensions>
          <ns3:TrackPointExtension>
            <ns3:atemp>21.0</ns3:atemp>
          </ns3:TrackPointExtension>
        </extensions>
      </trkpt>
      <trkpt lat="42.57867931388318538665771484375" lon="19.93566778488457202911376953125">
        <ele>1039.800048828125</ele>
        <time>2026-06-17T07:51:19.000Z</time>
        <extensions>
          <ns3:TrackPointExtension>
            <ns3:atemp>21.0</ns3:atemp>
          </ns3:TrackPointExtension>
        </extensions>
      </trkpt>
      <trkpt lat="42.578689120709896087646484375" lon="19.935579858720302581787109375">
        <ele>1039.5999755859375</ele>
        <time>2026-06-17T07:51:20.000Z</time>
        <extensions>
          <ns3:TrackPointExtension>
            <ns3:atemp>21.0</ns3:atemp>
          </ns3:TrackPointExtension>
        </extensions>
      </trkpt>
      <trkpt lat="42.57868610322475433349609375" lon="19.935494028031826019287109375">
        <ele>1039.4000244140625</ele>
        <time>2026-06-17T07:51:21.000Z</time>
        <extensions>
          <ns3:TrackPointExtension>
            <ns3:atemp>21.0</ns3:atemp>
          </ns3:TrackPointExtension>
        </extensions>
      </trkpt>
      <trkpt lat="42.57867135107517242431640625" lon="19.9354167468845844268798828125">
        <ele>1039.199951171875</ele>
        <time>2026-06-17T07:51:22.000Z</time>
        <extensions>
          <ns3:TrackPointExtension>
            <ns3:atemp>21.0</ns3:atemp>
          </ns3:TrackPointExtension>
        </extensions>
      </trkpt>
      <trkpt lat="42.578647546470165252685546875" lon="19.93533954955637454986572265625">
        <ele>1039</ele>
        <time>2026-06-17T07:51:23.000Z</time>
        <extensions>
          <ns3:TrackPointExtension>
            <ns3:atemp>21.0</ns3:atemp>
          </ns3:TrackPointExtension>
        </extensions>
      </trkpt>
      <trkpt lat="42.5786178745329380035400390625" lon="19.93526360951364040374755859375">
        <ele>1038.800048828125</ele>
        <time>2026-06-17T07:51:24.000Z</time>
        <extensions>
          <ns3:TrackPointExtension>
            <ns3:atemp>21.0</ns3:atemp>
          </ns3:TrackPointExtension>
        </extensions>
      </trkpt>
      <trkpt lat="42.5785796530544757843017578125" lon="19.93518817238509654998779296875">
        <ele>1038.5999755859375</ele>
        <time>2026-06-17T07:51:25.000Z</time>
        <extensions>
          <ns3:TrackPointExtension>
            <ns3:atemp>21.0</ns3:atemp>
          </ns3:TrackPointExtension>
        </extensions>
      </trkpt>
      <trkpt lat="42.57853413932025432586669921875" lon="19.93512094952166080474853515625">
        <ele>1038.4000244140625</ele>
        <time>2026-06-17T07:51:26.000Z</time>
        <extensions>
          <ns3:TrackPointExtension>
            <ns3:atemp>21.0</ns3:atemp>
          </ns3:TrackPointExtension>
        </extensions>
      </trkpt>
      <trkpt lat="42.57848066277801990509033203125" lon="19.9350630305707454681396484375">
        <ele>1038.199951171875</ele>
        <time>2026-06-17T07:51:27.000Z</time>
        <extensions>
          <ns3:TrackPointExtension>
            <ns3:atemp>21.0</ns3:atemp>
          </ns3:TrackPointExtension>
        </extensions>
      </trkpt>
      <trkpt lat="42.57842324674129486083984375" lon="19.93501617573201656341552734375">
        <ele>1038.199951171875</ele>
        <time>2026-06-17T07:51:28.000Z</time>
        <extensions>
          <ns3:TrackPointExtension>
            <ns3:atemp>21.0</ns3:atemp>
          </ns3:TrackPointExtension>
        </extensions>
      </trkpt>
      <trkpt lat="42.57836331613361835479736328125" lon="19.9349969811737537384033203125">
        <ele>1038.199951171875</ele>
        <time>2026-06-17T07:51:29.000Z</time>
        <extensions>
          <ns3:TrackPointExtension>
            <ns3:atemp>21.0</ns3:atemp>
          </ns3:TrackPointExtension>
        </extensions>
      </trkpt>
      <trkpt lat="42.57830061949789524078369140625" lon="19.93498734198510646820068359375">
        <ele>1038</ele>
        <time>2026-06-17T07:51:30.000Z</time>
        <extensions>
          <ns3:TrackPointExtension>
            <ns3:atemp>21.0</ns3:atemp>
          </ns3:TrackPointExtension>
        </extensions>
      </trkpt>
      <trkpt lat="42.57823741994798183441162109375" lon="19.9349842406809329986572265625">
        <ele>1038.199951171875</ele>
        <time>2026-06-17T07:51:31.000Z</time>
        <extensions>
          <ns3:TrackPointExtension>
            <ns3:atemp>21.0</ns3:atemp>
          </ns3:TrackPointExtension>
        </extensions>
      </trkpt>
      <trkpt lat="42.578174807131290435791015625" lon="19.93499052710831165313720703125">
        <ele>1038.199951171875</ele>
        <time>2026-06-17T07:51:32.000Z</time>
        <extensions>
          <ns3:TrackPointExtension>
            <ns3:atemp>21.0</ns3:atemp>
          </ns3:TrackPointExtension>
        </extensions>
      </trkpt>
      <trkpt lat="42.578115127980709075927734375" lon="19.9350144155323505401611328125">
        <ele>1038.199951171875</ele>
        <time>2026-06-17T07:51:33.000Z</time>
        <extensions>
          <ns3:TrackPointExtension>
            <ns3:atemp>21.0</ns3:atemp>
          </ns3:TrackPointExtension>
        </extensions>
      </trkpt>
      <trkpt lat="42.57805888541042804718017578125" lon="19.9350432492792606353759765625">
        <ele>1038.4000244140625</ele>
        <time>2026-06-17T07:51:34.000Z</time>
        <extensions>
          <ns3:TrackPointExtension>
            <ns3:atemp>21.0</ns3:atemp>
          </ns3:TrackPointExtension>
        </extensions>
      </trkpt>
      <trkpt lat="42.5780059956014156341552734375" lon="19.93505976162850856781005859375">
        <ele>1038.5999755859375</ele>
        <time>2026-06-17T07:51:35.000Z</time>
        <extensions>
          <ns3:TrackPointExtension>
            <ns3:atemp>21.0</ns3:atemp>
          </ns3:TrackPointExtension>
        </extensions>
      </trkpt>
      <trkpt lat="42.5779493339359760284423828125" lon="19.93506931699812412261962890625">
        <ele>1038.5999755859375</ele>
        <time>2026-06-17T07:51:36.000Z</time>
        <extensions>
          <ns3:TrackPointExtension>
            <ns3:atemp>21.0</ns3:atemp>
          </ns3:TrackPointExtension>
        </extensions>
      </trkpt>
      <trkpt lat="42.5778909958899021148681640625" lon="19.93507526814937591552734375">
        <ele>1038.800048828125</ele>
        <time>2026-06-17T07:51:37.000Z</time>
        <extensions>
          <ns3:TrackPointExtension>
            <ns3:atemp>21.0</ns3:atemp>
          </ns3:TrackPointExtension>
        </extensions>
      </trkpt>
      <trkpt lat="42.57783181965351104736328125" lon="19.93507300503551959991455078125">
        <ele>1039</ele>
        <time>2026-06-17T07:51:38.000Z</time>
        <extensions>
          <ns3:TrackPointExtension>
            <ns3:atemp>21.0</ns3:atemp>
          </ns3:TrackPointExtension>
        </extensions>
      </trkpt>
      <trkpt lat="42.57777406834065914154052734375" lon="19.93506059981882572174072265625">
        <ele>1039</ele>
        <time>2026-06-17T07:51:39.000Z</time>
        <extensions>
          <ns3:TrackPointExtension>
            <ns3:atemp>21.0</ns3:atemp>
          </ns3:TrackPointExtension>
        </extensions>
      </trkpt>
      <trkpt lat="42.5777184963226318359375" lon="19.93504651822149753570556640625">
        <ele>1039</ele>
        <time>2026-06-17T07:51:40.000Z</time>
        <extensions>
          <ns3:TrackPointExtension>
            <ns3:atemp>21.0</ns3:atemp>
          </ns3:TrackPointExtension>
        </extensions>
      </trkpt>
      <trkpt lat="42.577663846313953399658203125" lon="19.93503394536674022674560546875">
        <ele>1039</ele>
        <time>2026-06-17T07:51:41.000Z</time>
        <extensions>
          <ns3:TrackPointExtension>
            <ns3:atemp>21.0</ns3:atemp>
          </ns3:TrackPointExtension>
        </extensions>
      </trkpt>
      <trkpt lat="42.5776096992194652557373046875" lon="19.93502405472099781036376953125">
        <ele>1039</ele>
        <time>2026-06-17T07:51:42.000Z</time>
        <extensions>
          <ns3:TrackPointExtension>
            <ns3:atemp>21.0</ns3:atemp>
          </ns3:TrackPointExtension>
        </extensions>
      </trkpt>
      <trkpt lat="42.5775577314198017120361328125" lon="19.93501282297074794769287109375">
        <ele>1039</ele>
        <time>2026-06-17T07:51:43.000Z</time>
        <extensions>
          <ns3:TrackPointExtension>
            <ns3:atemp>21.0</ns3:atemp>
          </ns3:TrackPointExtension>
        </extensions>
      </trkpt>
      <trkpt lat="42.57751121185719966888427734375" lon="19.93499572388827800750732421875">
        <ele>1039</ele>
        <time>2026-06-17T07:51:44.000Z</time>
        <extensions>
          <ns3:TrackPointExtension>
            <ns3:atemp>21.0</ns3:atemp>
          </ns3:TrackPointExtension>
        </extensions>
      </trkpt>
      <trkpt lat="42.577467374503612518310546875" lon="19.93497644551098346710205078125">
        <ele>1039</ele>
        <time>2026-06-17T07:51:45.000Z</time>
        <extensions>
          <ns3:TrackPointExtension>
            <ns3:atemp>21.0</ns3:atemp>
          </ns3:TrackPointExtension>
        </extensions>
      </trkpt>
      <trkpt lat="42.5774219445884227752685546875" lon="19.934962950646877288818359375">
        <ele>1039</ele>
        <time>2026-06-17T07:51:46.000Z</time>
        <extensions>
          <ns3:TrackPointExtension>
            <ns3:atemp>21.0</ns3:atemp>
          </ns3:TrackPointExtension>
        </extensions>
      </trkpt>
      <trkpt lat="42.57737793959677219390869140625" lon="19.9349487014114856719970703125">
        <ele>1039.199951171875</ele>
        <time>2026-06-17T07:51:47.000Z</time>
        <extensions>
          <ns3:TrackPointExtension>
            <ns3:atemp>21.0</ns3:atemp>
          </ns3:TrackPointExtension>
        </extensions>
      </trkpt>
      <trkpt lat="42.57733150385320186614990234375" lon="19.9349373020231723785400390625">
        <ele>1039.4000244140625</ele>
        <time>2026-06-17T07:51:48.000Z</time>
        <extensions>
          <ns3:TrackPointExtension>
            <ns3:atemp>21.0</ns3:atemp>
          </ns3:TrackPointExtension>
        </extensions>
      </trkpt>
      <trkpt lat="42.57728858850896358489990234375" lon="19.9349262379109859466552734375">
        <ele>1039.5999755859375</ele>
        <time>2026-06-17T07:51:49.000Z</time>
        <extensions>
          <ns3:TrackPointExtension>
            <ns3:atemp>21.0</ns3:atemp>
          </ns3:TrackPointExtension>
        </extensions>
      </trkpt>
      <trkpt lat="42.57724835537374019622802734375" lon="19.93491232395172119140625">
        <ele>1039.800048828125</ele>
        <time>2026-06-17T07:51:50.000Z</time>
        <extensions>
          <ns3:TrackPointExtension>
            <ns3:atemp>21.0</ns3:atemp>
          </ns3:TrackPointExtension>
        </extensions>
      </trkpt>
      <trkpt lat="42.577209882438182830810546875" lon="19.934899248182773590087890625">
        <ele>1040</ele>
        <time>2026-06-17T07:51:51.000Z</time>
        <extensions>
          <ns3:TrackPointExtension>
            <ns3:atemp>21.0</ns3:atemp>
          </ns3:TrackPointExtension>
        </extensions>
      </trkpt>
      <trkpt lat="42.5771721638739109039306640625" lon="19.93488776497542858123779296875">
        <ele>1040.199951171875</ele>
        <time>2026-06-17T07:51:52.000Z</time>
        <extensions>
          <ns3:TrackPointExtension>
            <ns3:atemp>21.0</ns3:atemp>
          </ns3:TrackPointExtension>
        </extensions>
      </trkpt>
      <trkpt lat="42.57713838480412960052490234375" lon="19.93487720377743244171142578125">
        <ele>1040.4000244140625</ele>
        <time>2026-06-17T07:51:53.000Z</time>
        <extensions>
          <ns3:TrackPointExtension>
            <ns3:atemp>21.0</ns3:atemp>
          </ns3:TrackPointExtension>
        </extensions>
      </trkpt>
      <trkpt lat="42.5771000795066356658935546875" lon="19.9348715879023075103759765625">
        <ele>1040.4000244140625</ele>
        <time>2026-06-17T07:51:54.000Z</time>
        <extensions>
          <ns3:TrackPointExtension>
            <ns3:atemp>21.0</ns3:atemp>
          </ns3:TrackPointExtension>
        </extensions>
      </trkpt>
      <trkpt lat="42.577061019837856292724609375" lon="19.934865720570087432861328125">
        <ele>1040.5999755859375</ele>
        <time>2026-06-17T07:51:55.000Z</time>
        <extensions>
          <ns3:TrackPointExtension>
            <ns3:atemp>21.0</ns3:atemp>
          </ns3:TrackPointExtension>
        </extensions>
      </trkpt>
      <trkpt lat="42.57702338509261608123779296875" lon="19.93484887294471263885498046875">
        <ele>1040.5999755859375</ele>
        <time>2026-06-17T07:51:56.000Z</time>
        <extensions>
          <ns3:TrackPointExtension>
            <ns3:atemp>21.0</ns3:atemp>
          </ns3:TrackPointExtension>
        </extensions>
      </trkpt>
      <trkpt lat="42.57698549889028072357177734375" lon="19.93482573889195919036865234375">
        <ele>1040.5999755859375</ele>
        <time>2026-06-17T07:51:57.000Z</time>
        <extensions>
          <ns3:TrackPointExtension>
            <ns3:atemp>21.0</ns3:atemp>
          </ns3:TrackPointExtension>
        </extensions>
      </trkpt>
      <trkpt lat="42.576944343745708465576171875" lon="19.93480344302952289581298828125">
        <ele>1040.5999755859375</ele>
        <time>2026-06-17T07:51:58.000Z</time>
        <extensions>
          <ns3:TrackPointExtension>
            <ns3:atemp>21.0</ns3:atemp>
          </ns3:TrackPointExtension>
        </extensions>
      </trkpt>
      <trkpt lat="42.57690201513469219207763671875" lon="19.93477913551032543182373046875">
        <ele>1040.5999755859375</ele>
        <time>2026-06-17T07:51:59.000Z</time>
        <extensions>
          <ns3:TrackPointExtension>
            <ns3:atemp>21.0</ns3:atemp>
          </ns3:TrackPointExtension>
        </extensions>
      </trkpt>
      <trkpt lat="42.576857507228851318359375" lon="19.93474678136408329010009765625">
        <ele>1040.5999755859375</ele>
        <time>2026-06-17T07:52:00.000Z</time>
        <extensions>
          <ns3:TrackPointExtension>
            <ns3:atemp>21.0</ns3:atemp>
          </ns3:TrackPointExtension>
        </extensions>
      </trkpt>
      <trkpt lat="42.57681316696107387542724609375" lon="19.93470956571400165557861328125">
        <ele>1040.4000244140625</ele>
        <time>2026-06-17T07:52:01.000Z</time>
        <extensions>
          <ns3:TrackPointExtension>
            <ns3:atemp>21.0</ns3:atemp>
          </ns3:TrackPointExtension>
        </extensions>
      </trkpt>
      <trkpt lat="42.57676840759813785552978515625" lon="19.9346749484539031982421875">
        <ele>1040.4000244140625</ele>
        <time>2026-06-17T07:52:02.000Z</time>
        <extensions>
          <ns3:TrackPointExtension>
            <ns3:atemp>21.0</ns3:atemp>
          </ns3:TrackPointExtension>
        </extensions>
      </trkpt>
      <trkpt lat="42.57672213949263095855712890625" lon="19.93463915772736072540283203125">
        <ele>1040.199951171875</ele>
        <time>2026-06-17T07:52:03.000Z</time>
        <extensions>
          <ns3:TrackPointExtension>
            <ns3:atemp>21.0</ns3:atemp>
          </ns3:TrackPointExtension>
        </extensions>
      </trkpt>
      <trkpt lat="42.5766766257584095001220703125" lon="19.93460345081984996795654296875">
        <ele>1040.199951171875</ele>
        <time>2026-06-17T07:52:04.000Z</time>
        <extensions>
          <ns3:TrackPointExtension>
            <ns3:atemp>21.0</ns3:atemp>
          </ns3:TrackPointExtension>
        </extensions>
      </trkpt>
      <trkpt lat="42.576634548604488372802734375" lon="19.93456271477043628692626953125">
        <ele>1040</ele>
        <time>2026-06-17T07:52:05.000Z</time>
        <extensions>
          <ns3:TrackPointExtension>
            <ns3:atemp>21.0</ns3:atemp>
          </ns3:TrackPointExtension>
        </extensions>
      </trkpt>
      <trkpt lat="42.57659356109797954559326171875" lon="19.93452315218746662139892578125">
        <ele>1040</ele>
        <time>2026-06-17T07:52:06.000Z</time>
        <extensions>
          <ns3:TrackPointExtension>
            <ns3:atemp>22.0</ns3:atemp>
          </ns3:TrackPointExtension>
        </extensions>
      </trkpt>
      <trkpt lat="42.57655508816242218017578125" lon="19.93448157794773578643798828125">
        <ele>1040</ele>
        <time>2026-06-17T07:52:07.000Z</time>
        <extensions>
          <ns3:TrackPointExtension>
            <ns3:atemp>22.0</ns3:atemp>
          </ns3:TrackPointExtension>
        </extensions>
      </trkpt>
      <trkpt lat="42.5765190459787845611572265625" lon="19.93443564511835575103759765625">
        <ele>1040</ele>
        <time>2026-06-17T07:52:08.000Z</time>
        <extensions>
          <ns3:TrackPointExtension>
            <ns3:atemp>22.0</ns3:atemp>
          </ns3:TrackPointExtension>
        </extensions>
      </trkpt>
      <trkpt lat="42.57648912258446216583251953125" lon="19.9343847669661045074462890625">
        <ele>1040</ele>
        <time>2026-06-17T07:52:09.000Z</time>
        <extensions>
          <ns3:TrackPointExtension>
            <ns3:atemp>22.0</ns3:atemp>
          </ns3:TrackPointExtension>
        </extensions>
      </trkpt>
      <trkpt lat="42.5764657370746135711669921875" lon="19.93432735092937946319580078125">
        <ele>1040</ele>
        <time>2026-06-17T07:52:10.000Z</time>
        <extensions>
          <ns3:TrackPointExtension>
            <ns3:atemp>22.0</ns3:atemp>
          </ns3:TrackPointExtension>
        </extensions>
      </trkpt>
      <trkpt lat="42.576439417898654937744140625" lon="19.93427286855876445770263671875">
        <ele>1040</ele>
        <time>2026-06-17T07:52:11.000Z</time>
        <extensions>
          <ns3:TrackPointExtension>
            <ns3:atemp>22.0</ns3:atemp>
          </ns3:TrackPointExtension>
        </extensions>
      </trkpt>
      <trkpt lat="42.57641385309398174285888671875" lon="19.93421654216945171356201171875">
        <ele>1040</ele>
        <time>2026-06-17T07:52:12.000Z</time>
        <extensions>
          <ns3:TrackPointExtension>
            <ns3:atemp>22.0</ns3:atemp>
          </ns3:TrackPointExtension>
        </extensions>
      </trkpt>
      <trkpt lat="42.576393149793148040771484375" lon="19.9341634847223758697509765625">
        <ele>1040</ele>
        <time>2026-06-17T07:52:13.000Z</time>
        <extensions>
          <ns3:TrackPointExtension>
            <ns3:atemp>22.0</ns3:atemp>
          </ns3:TrackPointExtension>
        </extensions>
      </trkpt>
      <trkpt lat="42.576377391815185546875" lon="19.93410958908498287200927734375">
        <ele>1040</ele>
        <time>2026-06-17T07:52:14.000Z</time>
        <extensions>
          <ns3:TrackPointExtension>
            <ns3:atemp>22.0</ns3:atemp>
          </ns3:TrackPointExtension>
        </extensions>
      </trkpt>
      <trkpt lat="42.57636104710400104522705078125" lon="19.93405862711369991302490234375">
        <ele>1040</ele>
        <time>2026-06-17T07:52:15.000Z</time>
        <extensions>
          <ns3:TrackPointExtension>
            <ns3:atemp>22.0</ns3:atemp>
          </ns3:TrackPointExtension>
        </extensions>
      </trkpt>
      <trkpt lat="42.5763490609824657440185546875" lon="19.93400749750435352325439453125">
        <ele>1040.199951171875</ele>
        <time>2026-06-17T07:52:16.000Z</time>
        <extensions>
          <ns3:TrackPointExtension>
            <ns3:atemp>22.0</ns3:atemp>
          </ns3:TrackPointExtension>
        </extensions>
      </trkpt>
      <trkpt lat="42.576338164508342742919921875" lon="19.93395150639116764068603515625">
        <ele>1040.4000244140625</ele>
        <time>2026-06-17T07:52:17.000Z</time>
        <extensions>
          <ns3:TrackPointExtension>
            <ns3:atemp>22.0</ns3:atemp>
          </ns3:TrackPointExtension>
        </extensions>
      </trkpt>
      <trkpt lat="42.5763272680342197418212890625" lon="19.93389383889734745025634765625">
        <ele>1040.4000244140625</ele>
        <time>2026-06-17T07:52:18.000Z</time>
        <extensions>
          <ns3:TrackPointExtension>
            <ns3:atemp>22.0</ns3:atemp>
          </ns3:TrackPointExtension>
        </extensions>
      </trkpt>
      <trkpt lat="42.5763168744742870330810546875" lon="19.93384002707898616790771484375">
        <ele>1040.5999755859375</ele>
        <time>2026-06-17T07:52:19.000Z</time>
        <extensions>
          <ns3:TrackPointExtension>
            <ns3:atemp>22.0</ns3:atemp>
          </ns3:TrackPointExtension>
        </extensions>
      </trkpt>
      <trkpt lat="42.5763088278472423553466796875" lon="19.93378185667097568511962890625">
        <ele>1040.5999755859375</ele>
        <time>2026-06-17T07:52:20.000Z</time>
        <extensions>
          <ns3:TrackPointExtension>
            <ns3:atemp>22.0</ns3:atemp>
          </ns3:TrackPointExtension>
        </extensions>
      </trkpt>
      <trkpt lat="42.576301284134387969970703125" lon="19.93372469209134578704833984375">
        <ele>1040.800048828125</ele>
        <time>2026-06-17T07:52:21.000Z</time>
        <extensions>
          <ns3:TrackPointExtension>
            <ns3:atemp>22.0</ns3:atemp>
          </ns3:TrackPointExtension>
        </extensions>
      </trkpt>
      <trkpt lat="42.57629164494574069976806640625" lon="19.93366534821689128875732421875">
        <ele>1040.800048828125</ele>
        <time>2026-06-17T07:52:22.000Z</time>
        <extensions>
          <ns3:TrackPointExtension>
            <ns3:atemp>22.0</ns3:atemp>
          </ns3:TrackPointExtension>
        </extensions>
      </trkpt>
      <trkpt lat="42.57628024555742740631103515625" lon="19.933608435094356536865234375">
        <ele>1041</ele>
        <time>2026-06-17T07:52:23.000Z</time>
        <extensions>
          <ns3:TrackPointExtension>
            <ns3:atemp>22.0</ns3:atemp>
          </ns3:TrackPointExtension>
        </extensions>
      </trkpt>
      <trkpt lat="42.576271109282970428466796875" lon="19.93354900740087032318115234375">
        <ele>1041</ele>
        <time>2026-06-17T07:52:24.000Z</time>
        <extensions>
          <ns3:TrackPointExtension>
            <ns3:atemp>22.0</ns3:atemp>
          </ns3:TrackPointExtension>
        </extensions>
      </trkpt>
      <trkpt lat="42.57626046426594257354736328125" lon="19.93348983116447925567626953125">
        <ele>1041.199951171875</ele>
        <time>2026-06-17T07:52:25.000Z</time>
        <extensions>
          <ns3:TrackPointExtension>
            <ns3:atemp>22.0</ns3:atemp>
          </ns3:TrackPointExtension>
        </extensions>
      </trkpt>
      <trkpt lat="42.576248981058597564697265625" lon="19.93343166075646877288818359375">
        <ele>1041.199951171875</ele>
        <time>2026-06-17T07:52:26.000Z</time>
        <extensions>
          <ns3:TrackPointExtension>
            <ns3:atemp>22.0</ns3:atemp>
          </ns3:TrackPointExtension>
        </extensions>
      </trkpt>
      <trkpt lat="42.57623766548931598663330078125" lon="19.93337784893810749053955078125">
        <ele>1041.199951171875</ele>
        <time>2026-06-17T07:52:27.000Z</time>
        <extensions>
          <ns3:TrackPointExtension>
            <ns3:atemp>22.0</ns3:atemp>
          </ns3:TrackPointExtension>
        </extensions>
      </trkpt>
      <trkpt lat="42.57622324861586093902587890625" lon="19.93332537822425365447998046875">
        <ele>1041.199951171875</ele>
        <time>2026-06-17T07:52:28.000Z</time>
        <extensions>
          <ns3:TrackPointExtension>
            <ns3:atemp>22.0</ns3:atemp>
          </ns3:TrackPointExtension>
        </extensions>
      </trkpt>
      <trkpt lat="42.57621101103723049163818359375" lon="19.933279864490032196044921875">
        <ele>1041.4000244140625</ele>
        <time>2026-06-17T07:52:29.000Z</time>
        <extensions>
          <ns3:TrackPointExtension>
            <ns3:atemp>22.0</ns3:atemp>
          </ns3:TrackPointExtension>
        </extensions>
      </trkpt>
      <trkpt lat="42.57620195858180522918701171875" lon="19.93323669768869876861572265625">
        <ele>1041.5999755859375</ele>
        <time>2026-06-17T07:52:30.000Z</time>
        <extensions>
          <ns3:TrackPointExtension>
            <ns3:atemp>22.0</ns3:atemp>
          </ns3:TrackPointExtension>
        </extensions>
      </trkpt>
      <trkpt lat="42.57619173265993595123291015625" lon="19.93319495581090450286865234375">
        <ele>1041.800048828125</ele>
        <time>2026-06-17T07:52:31.000Z</time>
        <extensions>
          <ns3:TrackPointExtension>
            <ns3:atemp>22.0</ns3:atemp>
          </ns3:TrackPointExtension>
        </extensions>
      </trkpt>
      <trkpt lat="42.576185278594493865966796875" lon="19.93315740488469600677490234375">
        <ele>1042.199951171875</ele>
        <time>2026-06-17T07:52:32.000Z</time>
        <extensions>
          <ns3:TrackPointExtension>
            <ns3:atemp>22.0</ns3:atemp>
          </ns3:TrackPointExtension>
        </extensions>
      </trkpt>
      <trkpt lat="42.5761824287474155426025390625" lon="19.93312169797718524932861328125">
        <ele>1042.4000244140625</ele>
        <time>2026-06-17T07:52:33.000Z</time>
        <extensions>
          <ns3:TrackPointExtension>
            <ns3:atemp>22.0</ns3:atemp>
          </ns3:TrackPointExtension>
        </extensions>
      </trkpt>
      <trkpt lat="42.576181255280971527099609375" lon="19.93308766745030879974365234375">
        <ele>1042.800048828125</ele>
        <time>2026-06-17T07:52:34.000Z</time>
        <extensions>
          <ns3:TrackPointExtension>
            <ns3:atemp>22.0</ns3:atemp>
          </ns3:TrackPointExtension>
        </extensions>
      </trkpt>
      <trkpt lat="42.5761800818145275115966796875" lon="19.93305346928536891937255859375">
        <ele>1043</ele>
        <time>2026-06-17T07:52:35.000Z</time>
        <extensions>
          <ns3:TrackPointExtension>
            <ns3:atemp>22.0</ns3:atemp>
          </ns3:TrackPointExtension>
        </extensions>
      </trkpt>
      <trkpt lat="42.57617899216711521148681640625" lon="19.93302195332944393157958984375">
        <ele>1043.199951171875</ele>
        <time>2026-06-17T07:52:36.000Z</time>
        <extensions>
          <ns3:TrackPointExtension>
            <ns3:atemp>22.0</ns3:atemp>
          </ns3:TrackPointExtension>
        </extensions>
      </trkpt>
      <trkpt lat="42.57617915980517864227294921875" lon="19.932990856468677520751953125">
        <ele>1043.4000244140625</ele>
        <time>2026-06-17T07:52:37.000Z</time>
        <extensions>
          <ns3:TrackPointExtension>
            <ns3:atemp>22.0</ns3:atemp>
          </ns3:TrackPointExtension>
        </extensions>
      </trkpt>
      <trkpt lat="42.57618083618581295013427734375" lon="19.93295657448470592498779296875">
        <ele>1043.5999755859375</ele>
        <time>2026-06-17T07:52:38.000Z</time>
        <extensions>
          <ns3:TrackPointExtension>
            <ns3:atemp>22.0</ns3:atemp>
          </ns3:TrackPointExtension>
        </extensions>
      </trkpt>
      <trkpt lat="42.57618226110935211181640625" lon="19.93292489089071750640869140625">
        <ele>1043.800048828125</ele>
        <time>2026-06-17T07:52:39.000Z</time>
        <extensions>
          <ns3:TrackPointExtension>
            <ns3:atemp>22.0</ns3:atemp>
          </ns3:TrackPointExtension>
        </extensions>
      </trkpt>
      <trkpt lat="42.57618519477546215057373046875" lon="19.93289605714380741119384765625">
        <ele>1044.199951171875</ele>
        <time>2026-06-17T07:52:40.000Z</time>
        <extensions>
          <ns3:TrackPointExtension>
            <ns3:atemp>22.0</ns3:atemp>
          </ns3:TrackPointExtension>
        </extensions>
      </trkpt>
      <trkpt lat="42.57618888281285762786865234375" lon="19.932870157063007354736328125">
        <ele>1044.5999755859375</ele>
        <time>2026-06-17T07:52:41.000Z</time>
        <extensions>
          <ns3:TrackPointExtension>
            <ns3:atemp>22.0</ns3:atemp>
          </ns3:TrackPointExtension>
        </extensions>
      </trkpt>
      <trkpt lat="42.5761924870312213897705078125" lon="19.93284442462027072906494140625">
        <ele>1045</ele>
        <time>2026-06-17T07:52:42.000Z</time>
        <extensions>
          <ns3:TrackPointExtension>
            <ns3:atemp>22.0</ns3:atemp>
          </ns3:TrackPointExtension>
        </extensions>
      </trkpt>
      <trkpt lat="42.5761990249156951904296875" lon="19.93281777016818523406982421875">
        <ele>1045.199951171875</ele>
        <time>2026-06-17T07:52:43.000Z</time>
        <extensions>
          <ns3:TrackPointExtension>
            <ns3:atemp>22.0</ns3:atemp>
          </ns3:TrackPointExtension>
        </extensions>
      </trkpt>
      <trkpt lat="42.57620950229465961456298828125" lon="19.9327895231544971466064453125">
        <ele>1045.5999755859375</ele>
        <time>2026-06-17T07:52:44.000Z</time>
        <extensions>
          <ns3:TrackPointExtension>
            <ns3:atemp>22.0</ns3:atemp>
          </ns3:TrackPointExtension>
        </extensions>
      </trkpt>
      <trkpt lat="42.57622090168297290802001953125" lon="19.93275926448404788970947265625">
        <ele>1045.800048828125</ele>
        <time>2026-06-17T07:52:45.000Z</time>
        <extensions>
          <ns3:TrackPointExtension>
            <ns3:atemp>22.0</ns3:atemp>
          </ns3:TrackPointExtension>
        </extensions>
      </trkpt>
      <trkpt lat="42.57623012177646160125732421875" lon="19.93272841908037662506103515625">
        <ele>1046</ele>
        <time>2026-06-17T07:52:46.000Z</time>
        <extensions>
          <ns3:TrackPointExtension>
            <ns3:atemp>22.0</ns3:atemp>
          </ns3:TrackPointExtension>
        </extensions>
      </trkpt>
      <trkpt lat="42.576240934431552886962890625" lon="19.93269614875316619873046875">
        <ele>1046.199951171875</ele>
        <time>2026-06-17T07:52:47.000Z</time>
        <extensions>
          <ns3:TrackPointExtension>
            <ns3:atemp>22.0</ns3:atemp>
          </ns3:TrackPointExtension>
        </extensions>
      </trkpt>
      <trkpt lat="42.5762538425624370574951171875" lon="19.93266337551176548004150390625">
        <ele>1046.4000244140625</ele>
        <time>2026-06-17T07:52:48.000Z</time>
        <extensions>
          <ns3:TrackPointExtension>
            <ns3:atemp>22.0</ns3:atemp>
          </ns3:TrackPointExtension>
        </extensions>
      </trkpt>
      <trkpt lat="42.5762682594358921051025390625" lon="19.93262448348104953765869140625">
        <ele>1046.4000244140625</ele>
        <time>2026-06-17T07:52:49.000Z</time>
        <extensions>
          <ns3:TrackPointExtension>
            <ns3:atemp>22.0</ns3:atemp>
          </ns3:TrackPointExtension>
        </extensions>
      </trkpt>
      <trkpt lat="42.57628393359482288360595703125" lon="19.9325833283364772796630859375">
        <ele>1046.4000244140625</ele>
        <time>2026-06-17T07:52:50.000Z</time>
        <extensions>
          <ns3:TrackPointExtension>
            <ns3:atemp>22.0</ns3:atemp>
          </ns3:TrackPointExtension>
        </extensions>
      </trkpt>
      <trkpt lat="42.576288543641567230224609375" lon="19.932530857622623443603515625">
        <ele>1046.4000244140625</ele>
        <time>2026-06-17T07:52:51.000Z</time>
        <extensions>
          <ns3:TrackPointExtension>
            <ns3:atemp>22.0</ns3:atemp>
          </ns3:TrackPointExtension>
        </extensions>
      </trkpt>
      <trkpt lat="42.5762809999287128448486328125" lon="19.93246950209140777587890625">
        <ele>1046.199951171875</ele>
        <time>2026-06-17T07:52:52.000Z</time>
        <extensions>
          <ns3:TrackPointExtension>
            <ns3:atemp>22.0</ns3:atemp>
          </ns3:TrackPointExtension>
        </extensions>
      </trkpt>
      <trkpt lat="42.57625375874340534210205078125" lon="19.93241275660693645477294921875">
        <ele>1046</ele>
        <time>2026-06-17T07:52:53.000Z</time>
        <extensions>
          <ns3:TrackPointExtension>
            <ns3:atemp>22.0</ns3:atemp>
          </ns3:TrackPointExtension>
        </extensions>
      </trkpt>
      <trkpt lat="42.57620782591402530670166015625" lon="19.93237906135618686676025390625">
        <ele>1045.800048828125</ele>
        <time>2026-06-17T07:52:54.000Z</time>
        <extensions>
          <ns3:TrackPointExtension>
            <ns3:atemp>22.0</ns3:atemp>
          </ns3:TrackPointExtension>
        </extensions>
      </trkpt>
      <trkpt lat="42.57615384645760059356689453125" lon="19.93237034417688846588134765625">
        <ele>1045.4000244140625</ele>
        <time>2026-06-17T07:52:55.000Z</time>
        <extensions>
          <ns3:TrackPointExtension>
            <ns3:atemp>22.0</ns3:atemp>
          </ns3:TrackPointExtension>
        </extensions>
      </trkpt>
      <trkpt lat="42.5761012919247150421142578125" lon="19.93238098919391632080078125">
        <ele>1045.199951171875</ele>
        <time>2026-06-17T07:52:56.000Z</time>
        <extensions>
          <ns3:TrackPointExtension>
            <ns3:atemp>22.0</ns3:atemp>
          </ns3:TrackPointExtension>
        </extensions>
      </trkpt>
      <trkpt lat="42.57605016231536865234375" lon="19.9324059672653675079345703125">
        <ele>1045</ele>
        <time>2026-06-17T07:52:57.000Z</time>
        <extensions>
          <ns3:TrackPointExtension>
            <ns3:atemp>22.0</ns3:atemp>
          </ns3:TrackPointExtension>
        </extensions>
      </trkpt>
      <trkpt lat="42.57599852979183197021484375" lon="19.93243999779224395751953125">
        <ele>1044.800048828125</ele>
        <time>2026-06-17T07:52:58.000Z</time>
        <extensions>
          <ns3:TrackPointExtension>
            <ns3:atemp>22.0</ns3:atemp>
          </ns3:TrackPointExtension>
        </extensions>
      </trkpt>
      <trkpt lat="42.57594429887831211090087890625" lon="19.9324797280132770538330078125">
        <ele>1044.5999755859375</ele>
        <time>2026-06-17T07:52:59.000Z</time>
        <extensions>
          <ns3:TrackPointExtension>
            <ns3:atemp>22.0</ns3:atemp>
          </ns3:TrackPointExtension>
        </extensions>
      </trkpt>
      <trkpt lat="42.57589803077280521392822265625" lon="19.93253060616552829742431640625">
        <ele>1044.4000244140625</ele>
        <time>2026-06-17T07:53:00.000Z</time>
        <extensions>
          <ns3:TrackPointExtension>
            <ns3:atemp>22.0</ns3:atemp>
          </ns3:TrackPointExtension>
        </extensions>
      </trkpt>
      <trkpt lat="42.57585461251437664031982421875" lon="19.9325793050229549407958984375">
        <ele>1044.4000244140625</ele>
        <time>2026-06-17T07:53:01.000Z</time>
        <extensions>
          <ns3:TrackPointExtension>
            <ns3:atemp>22.0</ns3:atemp>
          </ns3:TrackPointExtension>
        </extensions>
      </trkpt>
      <trkpt lat="42.5758139602839946746826171875" lon="19.9326386488974094390869140625">
        <ele>1044.199951171875</ele>
        <time>2026-06-17T07:53:02.000Z</time>
        <extensions>
          <ns3:TrackPointExtension>
            <ns3:atemp>22.0</ns3:atemp>
          </ns3:TrackPointExtension>
        </extensions>
      </trkpt>
      <trkpt lat="42.5757774151861667633056640625" lon="19.93269891478121280670166015625">
        <ele>1044.199951171875</ele>
        <time>2026-06-17T07:53:03.000Z</time>
        <extensions>
          <ns3:TrackPointExtension>
            <ns3:atemp>22.0</ns3:atemp>
          </ns3:TrackPointExtension>
        </extensions>
      </trkpt>
      <trkpt lat="42.575740031898021697998046875" lon="19.93276127614080905914306640625">
        <ele>1044.199951171875</ele>
        <time>2026-06-17T07:53:04.000Z</time>
        <extensions>
          <ns3:TrackPointExtension>
            <ns3:atemp>22.0</ns3:atemp>
          </ns3:TrackPointExtension>
        </extensions>
      </trkpt>
      <trkpt lat="42.5757023133337497711181640625" lon="19.9328215420246124267578125">
        <ele>1044.199951171875</ele>
        <time>2026-06-17T07:53:05.000Z</time>
        <extensions>
          <ns3:TrackPointExtension>
            <ns3:atemp>22.0</ns3:atemp>
          </ns3:TrackPointExtension>
        </extensions>
      </trkpt>
      <trkpt lat="42.5756657682359218597412109375" lon="19.93288197554647922515869140625">
        <ele>1044.199951171875</ele>
        <time>2026-06-17T07:53:06.000Z</time>
        <extensions>
          <ns3:TrackPointExtension>
            <ns3:atemp>22.0</ns3:atemp>
          </ns3:TrackPointExtension>
        </extensions>
      </trkpt>
      <trkpt lat="42.57562930695712566375732421875" lon="19.932942576706409454345703125">
        <ele>1044.199951171875</ele>
        <time>2026-06-17T07:53:07.000Z</time>
        <extensions>
          <ns3:TrackPointExtension>
            <ns3:atemp>22.0</ns3:atemp>
          </ns3:TrackPointExtension>
        </extensions>
      </trkpt>
      <trkpt lat="42.57559343241155147552490234375" lon="19.93300435133278369903564453125">
        <ele>1044.199951171875</ele>
        <time>2026-06-17T07:53:08.000Z</time>
        <extensions>
          <ns3:TrackPointExtension>
            <ns3:atemp>22.0</ns3:atemp>
          </ns3:TrackPointExtension>
        </extensions>
      </trkpt>
      <trkpt lat="42.57555906660854816436767578125" lon="19.933069981634616851806640625">
        <ele>1044.199951171875</ele>
        <time>2026-06-17T07:53:09.000Z</time>
        <extensions>
          <ns3:TrackPointExtension>
            <ns3:atemp>22.0</ns3:atemp>
          </ns3:TrackPointExtension>
        </extensions>
      </trkpt>
      <trkpt lat="42.57552889175713062286376953125" lon="19.93313292972743511199951171875">
        <ele>1044.199951171875</ele>
        <time>2026-06-17T07:53:10.000Z</time>
        <extensions>
          <ns3:TrackPointExtension>
            <ns3:atemp>22.0</ns3:atemp>
          </ns3:TrackPointExtension>
        </extensions>
      </trkpt>
      <trkpt lat="42.57550508715212345123291015625" lon="19.93319227360188961029052734375">
        <ele>1044.199951171875</ele>
        <time>2026-06-17T07:53:11.000Z</time>
        <extensions>
          <ns3:TrackPointExtension>
            <ns3:atemp>22.0</ns3:atemp>
          </ns3:TrackPointExtension>
        </extensions>
      </trkpt>
      <trkpt lat="42.575483210384845733642578125" lon="19.933243654668331146240234375">
        <ele>1044.199951171875</ele>
        <time>2026-06-17T07:53:12.000Z</time>
        <extensions>
          <ns3:TrackPointExtension>
            <ns3:atemp>22.0</ns3:atemp>
          </ns3:TrackPointExtension>
        </extensions>
      </trkpt>
      <trkpt lat="42.57545982487499713897705078125" lon="19.93329453282058238983154296875">
        <ele>1044.199951171875</ele>
        <time>2026-06-17T07:53:13.000Z</time>
        <extensions>
          <ns3:TrackPointExtension>
            <ns3:atemp>22.0</ns3:atemp>
          </ns3:TrackPointExtension>
        </extensions>
      </trkpt>
      <trkpt lat="42.57543534971773624420166015625" lon="19.933342896401882171630859375">
        <ele>1044.199951171875</ele>
        <time>2026-06-17T07:53:14.000Z</time>
        <extensions>
          <ns3:TrackPointExtension>
            <ns3:atemp>22.0</ns3:atemp>
          </ns3:TrackPointExtension>
        </extensions>
      </trkpt>
      <trkpt lat="42.57540634833276271820068359375" lon="19.93338807485997676849365234375">
        <ele>1044.199951171875</ele>
        <time>2026-06-17T07:53:15.000Z</time>
        <extensions>
          <ns3:TrackPointExtension>
            <ns3:atemp>22.0</ns3:atemp>
          </ns3:TrackPointExtension>
        </extensions>
      </trkpt>
      <trkpt lat="42.575372569262981414794921875" lon="19.93342864327132701873779296875">
        <ele>1044.199951171875</ele>
        <time>2026-06-17T07:53:16.000Z</time>
        <extensions>
          <ns3:TrackPointExtension>
            <ns3:atemp>22.0</ns3:atemp>
          </ns3:TrackPointExtension>
        </extensions>
      </trkpt>
      <trkpt lat="42.57533208467066287994384765625" lon="19.93346334435045719146728515625">
        <ele>1044.199951171875</ele>
        <time>2026-06-17T07:53:17.000Z</time>
        <extensions>
          <ns3:TrackPointExtension>
            <ns3:atemp>22.0</ns3:atemp>
          </ns3:TrackPointExtension>
        </extensions>
      </trkpt>
      <trkpt lat="42.57528548128902912139892578125" lon="19.933493100106716156005859375">
        <ele>1044</ele>
        <time>2026-06-17T07:53:18.000Z</time>
        <extensions>
          <ns3:TrackPointExtension>
            <ns3:atemp>22.0</ns3:atemp>
          </ns3:TrackPointExtension>
        </extensions>
      </trkpt>
      <trkpt lat="42.5752387940883636474609375" lon="19.93351313285529613494873046875">
        <ele>1043.800048828125</ele>
        <time>2026-06-17T07:53:19.000Z</time>
        <extensions>
          <ns3:TrackPointExtension>
            <ns3:atemp>22.0</ns3:atemp>
          </ns3:TrackPointExtension>
        </extensions>
      </trkpt>
      <trkpt lat="42.57518456317484378814697265625" lon="19.93352905847132205963134765625">
        <ele>1043.4000244140625</ele>
        <time>2026-06-17T07:53:20.000Z</time>
        <extensions>
          <ns3:TrackPointExtension>
            <ns3:atemp>22.0</ns3:atemp>
          </ns3:TrackPointExtension>
        </extensions>
      </trkpt>
      <trkpt lat="42.575126476585865020751953125" lon="19.93354515172541141510009765625">
        <ele>1043</ele>
        <time>2026-06-17T07:53:21.000Z</time>
        <extensions>
          <ns3:TrackPointExtension>
            <ns3:atemp>22.0</ns3:atemp>
          </ns3:TrackPointExtension>
        </extensions>
      </trkpt>
      <trkpt lat="42.575070150196552276611328125" lon="19.93355847895145416259765625">
        <ele>1042.800048828125</ele>
        <time>2026-06-17T07:53:22.000Z</time>
        <extensions>
          <ns3:TrackPointExtension>
            <ns3:atemp>22.0</ns3:atemp>
          </ns3:TrackPointExtension>
        </extensions>
      </trkpt>
      <trkpt lat="42.57501105777919292449951171875" lon="19.9335633404552936553955078125">
        <ele>1042.4000244140625</ele>
        <time>2026-06-17T07:53:23.000Z</time>
        <extensions>
          <ns3:TrackPointExtension>
            <ns3:atemp>22.0</ns3:atemp>
          </ns3:TrackPointExtension>
        </extensions>
      </trkpt>
      <trkpt lat="42.57495422847568988800048828125" lon="19.93355202488601207733154296875">
        <ele>1042.199951171875</ele>
        <time>2026-06-17T07:53:24.000Z</time>
        <extensions>
          <ns3:TrackPointExtension>
            <ns3:atemp>22.0</ns3:atemp>
          </ns3:TrackPointExtension>
        </extensions>
      </trkpt>
      <trkpt lat="42.5748979859054088592529296875" lon="19.93352922610938549041748046875">
        <ele>1042</ele>
        <time>2026-06-17T07:53:25.000Z</time>
        <extensions>
          <ns3:TrackPointExtension>
            <ns3:atemp>22.0</ns3:atemp>
          </ns3:TrackPointExtension>
        </extensions>
      </trkpt>
      <trkpt lat="42.5748445093631744384765625" lon="19.93349519558250904083251953125">
        <ele>1041.800048828125</ele>
        <time>2026-06-17T07:53:26.000Z</time>
        <extensions>
          <ns3:TrackPointExtension>
            <ns3:atemp>22.0</ns3:atemp>
          </ns3:TrackPointExtension>
        </extensions>
      </trkpt>
      <trkpt lat="42.57479287683963775634765625" lon="19.9334436468780040740966796875">
        <ele>1041.5999755859375</ele>
        <time>2026-06-17T07:53:27.000Z</time>
        <extensions>
          <ns3:TrackPointExtension>
            <ns3:atemp>22.0</ns3:atemp>
          </ns3:TrackPointExtension>
        </extensions>
      </trkpt>
      <trkpt lat="42.57474451325833797454833984375" lon="19.93338681757450103759765625">
        <ele>1041.4000244140625</ele>
        <time>2026-06-17T07:53:28.000Z</time>
        <extensions>
          <ns3:TrackPointExtension>
            <ns3:atemp>22.0</ns3:atemp>
          </ns3:TrackPointExtension>
        </extensions>
      </trkpt>
      <trkpt lat="42.574701346457004547119140625" lon="19.9333231151103973388671875">
        <ele>1041.199951171875</ele>
        <time>2026-06-17T07:53:29.000Z</time>
        <extensions>
          <ns3:TrackPointExtension>
            <ns3:atemp>22.0</ns3:atemp>
          </ns3:TrackPointExtension>
        </extensions>
      </trkpt>
      <trkpt lat="42.5746592693030834197998046875" lon="19.93325480259954929351806640625">
        <ele>1040.800048828125</ele>
        <time>2026-06-17T07:53:30.000Z</time>
        <extensions>
          <ns3:TrackPointExtension>
            <ns3:atemp>22.0</ns3:atemp>
          </ns3:TrackPointExtension>
        </extensions>
      </trkpt>
      <trkpt lat="42.5746099837124347686767578125" lon="19.93318791501224040985107421875">
        <ele>1040.4000244140625</ele>
        <time>2026-06-17T07:53:31.000Z</time>
        <extensions>
          <ns3:TrackPointExtension>
            <ns3:atemp>22.0</ns3:atemp>
          </ns3:TrackPointExtension>
        </extensions>
      </trkpt>
      <trkpt lat="42.57456178776919841766357421875" lon="19.9331247992813587188720703125">
        <ele>1040.199951171875</ele>
        <time>2026-06-17T07:53:32.000Z</time>
        <extensions>
          <ns3:TrackPointExtension>
            <ns3:atemp>22.0</ns3:atemp>
          </ns3:TrackPointExtension>
        </extensions>
      </trkpt>
      <trkpt lat="42.574510909616947174072265625" lon="19.9330634437501430511474609375">
        <ele>1039.800048828125</ele>
        <time>2026-06-17T07:53:33.000Z</time>
        <extensions>
          <ns3:TrackPointExtension>
            <ns3:atemp>22.0</ns3:atemp>
          </ns3:TrackPointExtension>
        </extensions>
      </trkpt>
      <trkpt lat="42.57445667870342731475830078125" lon="19.933008961379528045654296875">
        <ele>1039.4000244140625</ele>
        <time>2026-06-17T07:53:34.000Z</time>
        <extensions>
          <ns3:TrackPointExtension>
            <ns3:atemp>22.0</ns3:atemp>
          </ns3:TrackPointExtension>
        </extensions>
      </trkpt>
      <trkpt lat="42.57439817301928997039794921875" lon="19.93295087479054927825927734375">
        <ele>1039</ele>
        <time>2026-06-17T07:53:35.000Z</time>
        <extensions>
          <ns3:TrackPointExtension>
            <ns3:atemp>22.0</ns3:atemp>
          </ns3:TrackPointExtension>
        </extensions>
      </trkpt>
      <trkpt lat="42.5743380747735500335693359375" lon="19.93289890699088573455810546875">
        <ele>1038.5999755859375</ele>
        <time>2026-06-17T07:53:36.000Z</time>
        <extensions>
          <ns3:TrackPointExtension>
            <ns3:atemp>22.0</ns3:atemp>
          </ns3:TrackPointExtension>
        </extensions>
      </trkpt>
      <trkpt lat="42.57427881471812725067138671875" lon="19.932860098779201507568359375">
        <ele>1038</ele>
        <time>2026-06-17T07:53:37.000Z</time>
        <extensions>
          <ns3:TrackPointExtension>
            <ns3:atemp>22.0</ns3:atemp>
          </ns3:TrackPointExtension>
        </extensions>
      </trkpt>
      <trkpt lat="42.574219889938831329345703125" lon="19.93284408934414386749267578125">
        <ele>1037.5999755859375</ele>
        <time>2026-06-17T07:53:38.000Z</time>
        <extensions>
          <ns3:TrackPointExtension>
            <ns3:atemp>22.0</ns3:atemp>
          </ns3:TrackPointExtension>
        </extensions>
      </trkpt>
      <trkpt lat="42.57416297681629657745361328125" lon="19.932855069637298583984375">
        <ele>1037.199951171875</ele>
        <time>2026-06-17T07:53:39.000Z</time>
        <extensions>
          <ns3:TrackPointExtension>
            <ns3:atemp>22.0</ns3:atemp>
          </ns3:TrackPointExtension>
        </extensions>
      </trkpt>
      <trkpt lat="42.57411469705402851104736328125" lon="19.932891614735126495361328125">
        <ele>1036.800048828125</ele>
        <time>2026-06-17T07:53:40.000Z</time>
        <extensions>
          <ns3:TrackPointExtension>
            <ns3:atemp>22.0</ns3:atemp>
          </ns3:TrackPointExtension>
        </extensions>
      </trkpt>
      <trkpt lat="42.57409357465803623199462890625" lon="19.93294936604797840118408203125">
        <ele>1036.4000244140625</ele>
        <time>2026-06-17T07:53:41.000Z</time>
        <extensions>
          <ns3:TrackPointExtension>
            <ns3:atemp>22.0</ns3:atemp>
          </ns3:TrackPointExtension>
        </extensions>
      </trkpt>
      <trkpt lat="42.57408888079226016998291015625" lon="19.933014996349811553955078125">
        <ele>1036.199951171875</ele>
        <time>2026-06-17T07:53:42.000Z</time>
        <extensions>
          <ns3:TrackPointExtension>
            <ns3:atemp>22.0</ns3:atemp>
          </ns3:TrackPointExtension>
        </extensions>
      </trkpt>
      <trkpt lat="42.5740889646112918853759765625" lon="19.93306989781558513641357421875">
        <ele>1036.199951171875</ele>
        <time>2026-06-17T07:53:43.000Z</time>
        <extensions>
          <ns3:TrackPointExtension>
            <ns3:atemp>22.0</ns3:atemp>
          </ns3:TrackPointExtension>
        </extensions>
      </trkpt>
      <trkpt lat="42.574096508324146270751953125" lon="19.9331251345574855804443359375">
        <ele>1036.199951171875</ele>
        <time>2026-06-17T07:53:44.000Z</time>
        <extensions>
          <ns3:TrackPointExtension>
            <ns3:atemp>22.0</ns3:atemp>
          </ns3:TrackPointExtension>
        </extensions>
      </trkpt>
      <trkpt lat="42.5740949995815753936767578125" lon="19.93318975903093814849853515625">
        <ele>1036.199951171875</ele>
        <time>2026-06-17T07:53:45.000Z</time>
        <extensions>
          <ns3:TrackPointExtension>
            <ns3:atemp>22.0</ns3:atemp>
          </ns3:TrackPointExtension>
        </extensions>
      </trkpt>
      <trkpt lat="42.57409675978124141693115234375" lon="19.9332508631050586700439453125">
        <ele>1036.4000244140625</ele>
        <time>2026-06-17T07:53:46.000Z</time>
        <extensions>
          <ns3:TrackPointExtension>
            <ns3:atemp>22.0</ns3:atemp>
          </ns3:TrackPointExtension>
        </extensions>
      </trkpt>
      <trkpt lat="42.57409642450511455535888671875" lon="19.9333108775317668914794921875">
        <ele>1036.5999755859375</ele>
        <time>2026-06-17T07:53:47.000Z</time>
        <extensions>
          <ns3:TrackPointExtension>
            <ns3:atemp>22.0</ns3:atemp>
          </ns3:TrackPointExtension>
        </extensions>
      </trkpt>
      <trkpt lat="42.57409550249576568603515625" lon="19.93337131105363368988037109375">
        <ele>1036.800048828125</ele>
        <time>2026-06-17T07:53:48.000Z</time>
        <extensions>
          <ns3:TrackPointExtension>
            <ns3:atemp>22.0</ns3:atemp>
          </ns3:TrackPointExtension>
        </extensions>
      </trkpt>
      <trkpt lat="42.57409575395286083221435546875" lon="19.93342998437583446502685546875">
        <ele>1037.199951171875</ele>
        <time>2026-06-17T07:53:49.000Z</time>
        <extensions>
          <ns3:TrackPointExtension>
            <ns3:atemp>22.0</ns3:atemp>
          </ns3:TrackPointExtension>
        </extensions>
      </trkpt>
      <trkpt lat="42.57409290410578250885009765625" lon="19.93348362855613231658935546875">
        <ele>1037.5999755859375</ele>
        <time>2026-06-17T07:53:50.000Z</time>
        <extensions>
          <ns3:TrackPointExtension>
            <ns3:atemp>22.0</ns3:atemp>
          </ns3:TrackPointExtension>
        </extensions>
      </trkpt>
      <trkpt lat="42.57408678531646728515625" lon="19.93352335877716541290283203125">
        <ele>1037.800048828125</ele>
        <time>2026-06-17T07:53:51.000Z</time>
        <extensions>
          <ns3:TrackPointExtension>
            <ns3:atemp>22.0</ns3:atemp>
          </ns3:TrackPointExtension>
        </extensions>
      </trkpt>
      <trkpt lat="42.57407731376588344573974609375" lon="19.93356359191238880157470703125">
        <ele>1038.199951171875</ele>
        <time>2026-06-17T07:53:52.000Z</time>
        <extensions>
          <ns3:TrackPointExtension>
            <ns3:atemp>22.0</ns3:atemp>
          </ns3:TrackPointExtension>
        </extensions>
      </trkpt>
      <trkpt lat="42.5740586221218109130859375" lon="19.933608435094356536865234375">
        <ele>1038.4000244140625</ele>
        <time>2026-06-17T07:53:53.000Z</time>
        <extensions>
          <ns3:TrackPointExtension>
            <ns3:atemp>22.0</ns3:atemp>
          </ns3:TrackPointExtension>
        </extensions>
      </trkpt>
      <trkpt lat="42.57403674535453319549560546875" lon="19.933653362095355987548828125">
        <ele>1038.5999755859375</ele>
        <time>2026-06-17T07:53:54.000Z</time>
        <extensions>
          <ns3:TrackPointExtension>
            <ns3:atemp>22.0</ns3:atemp>
          </ns3:TrackPointExtension>
        </extensions>
      </trkpt>
      <trkpt lat="42.574008665978908538818359375" lon="19.93369367904961109161376953125">
        <ele>1038.5999755859375</ele>
        <time>2026-06-17T07:53:55.000Z</time>
        <extensions>
          <ns3:TrackPointExtension>
            <ns3:atemp>22.0</ns3:atemp>
          </ns3:TrackPointExtension>
        </extensions>
      </trkpt>
      <trkpt lat="42.57397756911814212799072265625" lon="19.933726787567138671875">
        <ele>1038.800048828125</ele>
        <time>2026-06-17T07:53:56.000Z</time>
        <extensions>
          <ns3:TrackPointExtension>
            <ns3:atemp>22.0</ns3:atemp>
          </ns3:TrackPointExtension>
        </extensions>
      </trkpt>
      <trkpt lat="42.5739421136677265167236328125" lon="19.9337541125714778900146484375">
        <ele>1039</ele>
        <time>2026-06-17T07:53:57.000Z</time>
        <extensions>
          <ns3:TrackPointExtension>
            <ns3:atemp>22.0</ns3:atemp>
          </ns3:TrackPointExtension>
        </extensions>
      </trkpt>
      <trkpt lat="42.57389928214251995086669921875" lon="19.9337822757661342620849609375">
        <ele>1039.199951171875</ele>
        <time>2026-06-17T07:53:58.000Z</time>
        <extensions>
          <ns3:TrackPointExtension>
            <ns3:atemp>22.0</ns3:atemp>
          </ns3:TrackPointExtension>
        </extensions>
      </trkpt>
      <trkpt lat="42.5738520920276641845703125" lon="19.933806918561458587646484375">
        <ele>1039.199951171875</ele>
        <time>2026-06-17T07:53:59.000Z</time>
        <extensions>
          <ns3:TrackPointExtension>
            <ns3:atemp>22.0</ns3:atemp>
          </ns3:TrackPointExtension>
        </extensions>
      </trkpt>
      <trkpt lat="42.5738009624183177947998046875" lon="19.93382896296679973602294921875">
        <ele>1039.199951171875</ele>
        <time>2026-06-17T07:54:00.000Z</time>
        <extensions>
          <ns3:TrackPointExtension>
            <ns3:atemp>22.0</ns3:atemp>
          </ns3:TrackPointExtension>
        </extensions>
      </trkpt>
      <trkpt lat="42.57374740205705165863037109375" lon="19.93385293520987033843994140625">
        <ele>1039</ele>
        <time>2026-06-17T07:54:01.000Z</time>
        <extensions>
          <ns3:TrackPointExtension>
            <ns3:atemp>22.0</ns3:atemp>
          </ns3:TrackPointExtension>
        </extensions>
      </trkpt>
      <trkpt lat="42.57369258441030979156494140625" lon="19.93388344533741474151611328125">
        <ele>1038.800048828125</ele>
        <time>2026-06-17T07:54:02.000Z</time>
        <extensions>
          <ns3:TrackPointExtension>
            <ns3:atemp>22.0</ns3:atemp>
          </ns3:TrackPointExtension>
        </extensions>
      </trkpt>
      <trkpt lat="42.57363676093518733978271484375" lon="19.9339123629033565521240234375">
        <ele>1038.5999755859375</ele>
        <time>2026-06-17T07:54:03.000Z</time>
        <extensions>
          <ns3:TrackPointExtension>
            <ns3:atemp>22.0</ns3:atemp>
          </ns3:TrackPointExtension>
        </extensions>
      </trkpt>
      <trkpt lat="42.57358345203101634979248046875" lon="19.93394203484058380126953125">
        <ele>1038.199951171875</ele>
        <time>2026-06-17T07:54:04.000Z</time>
        <extensions>
          <ns3:TrackPointExtension>
            <ns3:atemp>22.0</ns3:atemp>
          </ns3:TrackPointExtension>
        </extensions>
      </trkpt>
      <trkpt lat="42.5735310651361942291259765625" lon="19.9339767359197139739990234375">
        <ele>1037.800048828125</ele>
        <time>2026-06-17T07:54:05.000Z</time>
        <extensions>
          <ns3:TrackPointExtension>
            <ns3:atemp>22.0</ns3:atemp>
          </ns3:TrackPointExtension>
        </extensions>
      </trkpt>
      <trkpt lat="42.5734770856797695159912109375" lon="19.9340082518756389617919921875">
        <ele>1037.5999755859375</ele>
        <time>2026-06-17T07:54:06.000Z</time>
        <extensions>
          <ns3:TrackPointExtension>
            <ns3:atemp>22.0</ns3:atemp>
          </ns3:TrackPointExtension>
        </extensions>
      </trkpt>
      <trkpt lat="42.57342386059463024139404296875" lon="19.93403499014675617218017578125">
        <ele>1037.4000244140625</ele>
        <time>2026-06-17T07:54:07.000Z</time>
        <extensions>
          <ns3:TrackPointExtension>
            <ns3:atemp>22.0</ns3:atemp>
          </ns3:TrackPointExtension>
        </extensions>
      </trkpt>
      <trkpt lat="42.57337289862334728240966796875" lon="19.93404638953506946563720703125">
        <ele>1037.4000244140625</ele>
        <time>2026-06-17T07:54:08.000Z</time>
        <extensions>
          <ns3:TrackPointExtension>
            <ns3:atemp>22.0</ns3:atemp>
          </ns3:TrackPointExtension>
        </extensions>
      </trkpt>
      <trkpt lat="42.57331975735723972320556640625" lon="19.93404421024024486541748046875">
        <ele>1037.4000244140625</ele>
        <time>2026-06-17T07:54:09.000Z</time>
        <extensions>
          <ns3:TrackPointExtension>
            <ns3:atemp>22.0</ns3:atemp>
          </ns3:TrackPointExtension>
        </extensions>
      </trkpt>
      <trkpt lat="42.57327063940465450286865234375" lon="19.93403163738548755645751953125">
        <ele>1037.4000244140625</ele>
        <time>2026-06-17T07:54:10.000Z</time>
        <extensions>
          <ns3:TrackPointExtension>
            <ns3:atemp>22.0</ns3:atemp>
          </ns3:TrackPointExtension>
        </extensions>
      </trkpt>
      <trkpt lat="42.573224790394306182861328125" lon="19.93401705287396907806396484375">
        <ele>1037.199951171875</ele>
        <time>2026-06-17T07:54:11.000Z</time>
        <extensions>
          <ns3:TrackPointExtension>
            <ns3:atemp>22.0</ns3:atemp>
          </ns3:TrackPointExtension>
        </extensions>
      </trkpt>
      <trkpt lat="42.5731815397739410400390625" lon="19.934003055095672607421875">
        <ele>1037.199951171875</ele>
        <time>2026-06-17T07:54:12.000Z</time>
        <extensions>
          <ns3:TrackPointExtension>
            <ns3:atemp>22.0</ns3:atemp>
          </ns3:TrackPointExtension>
        </extensions>
      </trkpt>
      <trkpt lat="42.57313787005841732025146484375" lon="19.93398989550769329071044921875">
        <ele>1037.199951171875</ele>
        <time>2026-06-17T07:54:13.000Z</time>
        <extensions>
          <ns3:TrackPointExtension>
            <ns3:atemp>22.0</ns3:atemp>
          </ns3:TrackPointExtension>
        </extensions>
      </trkpt>
      <trkpt lat="42.5730983912944793701171875" lon="19.933976233005523681640625">
        <ele>1037.199951171875</ele>
        <time>2026-06-17T07:54:14.000Z</time>
        <extensions>
          <ns3:TrackPointExtension>
            <ns3:atemp>22.0</ns3:atemp>
          </ns3:TrackPointExtension>
        </extensions>
      </trkpt>
      <trkpt lat="42.573062516748905181884765625" lon="19.93396357633173465728759765625">
        <ele>1037.199951171875</ele>
        <time>2026-06-17T07:54:15.000Z</time>
        <extensions>
          <ns3:TrackPointExtension>
            <ns3:atemp>22.0</ns3:atemp>
          </ns3:TrackPointExtension>
        </extensions>
      </trkpt>
      <trkpt lat="42.57302773185074329376220703125" lon="19.93395033292472362518310546875">
        <ele>1037.4000244140625</ele>
        <time>2026-06-17T07:54:16.000Z</time>
        <extensions>
          <ns3:TrackPointExtension>
            <ns3:atemp>22.0</ns3:atemp>
          </ns3:TrackPointExtension>
        </extensions>
      </trkpt>
      <trkpt lat="42.57298951037228107452392578125" lon="19.9339365027844905853271484375">
        <ele>1037.5999755859375</ele>
        <time>2026-06-17T07:54:17.000Z</time>
        <extensions>
          <ns3:TrackPointExtension>
            <ns3:atemp>22.0</ns3:atemp>
          </ns3:TrackPointExtension>
        </extensions>
      </trkpt>
      <trkpt lat="42.57294827140867710113525390625" lon="19.93392334319651126861572265625">
        <ele>1037.800048828125</ele>
        <time>2026-06-17T07:54:18.000Z</time>
        <extensions>
          <ns3:TrackPointExtension>
            <ns3:atemp>22.0</ns3:atemp>
          </ns3:TrackPointExtension>
        </extensions>
      </trkpt>
      <trkpt lat="42.57290770299732685089111328125" lon="19.9339106865227222442626953125">
        <ele>1038</ele>
        <time>2026-06-17T07:54:19.000Z</time>
        <extensions>
          <ns3:TrackPointExtension>
            <ns3:atemp>22.0</ns3:atemp>
          </ns3:TrackPointExtension>
        </extensions>
      </trkpt>
      <trkpt lat="42.57286646403372287750244140625" lon="19.933895766735076904296875">
        <ele>1038.199951171875</ele>
        <time>2026-06-17T07:54:20.000Z</time>
        <extensions>
          <ns3:TrackPointExtension>
            <ns3:atemp>22.0</ns3:atemp>
          </ns3:TrackPointExtension>
        </extensions>
      </trkpt>
      <trkpt lat="42.57282321341335773468017578125" lon="19.9338828586041927337646484375">
        <ele>1038.4000244140625</ele>
        <time>2026-06-17T07:54:21.000Z</time>
        <extensions>
          <ns3:TrackPointExtension>
            <ns3:atemp>22.0</ns3:atemp>
          </ns3:TrackPointExtension>
        </extensions>
      </trkpt>
      <trkpt lat="42.57277895696461200714111328125" lon="19.93387497961521148681640625">
        <ele>1038.4000244140625</ele>
        <time>2026-06-17T07:54:22.000Z</time>
        <extensions>
          <ns3:TrackPointExtension>
            <ns3:atemp>22.0</ns3:atemp>
          </ns3:TrackPointExtension>
        </extensions>
      </trkpt>
      <trkpt lat="42.5727317668497562408447265625" lon="19.93387456052005290985107421875">
        <ele>1038.4000244140625</ele>
        <time>2026-06-17T07:54:23.000Z</time>
        <extensions>
          <ns3:TrackPointExtension>
            <ns3:atemp>22.0</ns3:atemp>
          </ns3:TrackPointExtension>
        </extensions>
      </trkpt>
      <trkpt lat="42.5726858340203762054443359375" lon="19.93387104012072086334228515625">
        <ele>1038.4000244140625</ele>
        <time>2026-06-17T07:54:24.000Z</time>
        <extensions>
          <ns3:TrackPointExtension>
            <ns3:atemp>22.0</ns3:atemp>
          </ns3:TrackPointExtension>
        </extensions>
      </trkpt>
      <trkpt lat="42.57263462059199810028076171875" lon="19.93386751972138881683349609375">
        <ele>1038.199951171875</ele>
        <time>2026-06-17T07:54:25.000Z</time>
        <extensions>
          <ns3:TrackPointExtension>
            <ns3:atemp>22.0</ns3:atemp>
          </ns3:TrackPointExtension>
        </extensions>
      </trkpt>
      <trkpt lat="42.57258349098265171051025390625" lon="19.93385695852339267730712890625">
        <ele>1037.800048828125</ele>
        <time>2026-06-17T07:54:26.000Z</time>
        <extensions>
          <ns3:TrackPointExtension>
            <ns3:atemp>22.0</ns3:atemp>
          </ns3:TrackPointExtension>
        </extensions>
      </trkpt>
      <trkpt lat="42.57252733223140239715576171875" lon="19.933845810592174530029296875">
        <ele>1037.4000244140625</ele>
        <time>2026-06-17T07:54:27.000Z</time>
        <extensions>
          <ns3:TrackPointExtension>
            <ns3:atemp>22.0</ns3:atemp>
          </ns3:TrackPointExtension>
        </extensions>
      </trkpt>
      <trkpt lat="42.57246966473758220672607421875" lon="19.933838434517383575439453125">
        <ele>1037</ele>
        <time>2026-06-17T07:54:28.000Z</time>
        <extensions>
          <ns3:TrackPointExtension>
            <ns3:atemp>22.0</ns3:atemp>
          </ns3:TrackPointExtension>
        </extensions>
      </trkpt>
      <trkpt lat="42.57240495644509792327880859375" lon="19.9338288791477680206298828125">
        <ele>1036.5999755859375</ele>
        <time>2026-06-17T07:54:29.000Z</time>
        <extensions>
          <ns3:TrackPointExtension>
            <ns3:atemp>22.0</ns3:atemp>
          </ns3:TrackPointExtension>
        </extensions>
      </trkpt>
      <trkpt lat="42.57233790121972560882568359375" lon="19.9338355846703052520751953125">
        <ele>1036</ele>
        <time>2026-06-17T07:54:30.000Z</time>
        <extensions>
          <ns3:TrackPointExtension>
            <ns3:atemp>22.0</ns3:atemp>
          </ns3:TrackPointExtension>
        </extensions>
      </trkpt>
      <trkpt lat="42.5722764618694782257080078125" lon="19.9338541924953460693359375">
        <ele>1035.199951171875</ele>
        <time>2026-06-17T07:54:31.000Z</time>
        <extensions>
          <ns3:TrackPointExtension>
            <ns3:atemp>22.0</ns3:atemp>
          </ns3:TrackPointExtension>
        </extensions>
      </trkpt>
      <trkpt lat="42.57221116684377193450927734375" lon="19.93388411588966846466064453125">
        <ele>1034.5999755859375</ele>
        <time>2026-06-17T07:54:32.000Z</time>
        <extensions>
          <ns3:TrackPointExtension>
            <ns3:atemp>22.0</ns3:atemp>
          </ns3:TrackPointExtension>
        </extensions>
      </trkpt>
      <trkpt lat="42.57214360870420932769775390625" lon="19.93391479365527629852294921875">
        <ele>1034</ele>
        <time>2026-06-17T07:54:33.000Z</time>
        <extensions>
          <ns3:TrackPointExtension>
            <ns3:atemp>22.0</ns3:atemp>
          </ns3:TrackPointExtension>
        </extensions>
      </trkpt>
      <trkpt lat="42.5720737874507904052734375" lon="19.9339400231838226318359375">
        <ele>1033.199951171875</ele>
        <time>2026-06-17T07:54:34.000Z</time>
        <extensions>
          <ns3:TrackPointExtension>
            <ns3:atemp>22.0</ns3:atemp>
          </ns3:TrackPointExtension>
        </extensions>
      </trkpt>
      <trkpt lat="42.57199801504611968994140625" lon="19.933970868587493896484375">
        <ele>1032.5999755859375</ele>
        <time>2026-06-17T07:54:35.000Z</time>
        <extensions>
          <ns3:TrackPointExtension>
            <ns3:atemp>22.0</ns3:atemp>
          </ns3:TrackPointExtension>
        </extensions>
      </trkpt>
      <trkpt lat="42.5719267688691616058349609375" lon="19.93401520885527133941650390625">
        <ele>1032</ele>
        <time>2026-06-17T07:54:36.000Z</time>
        <extensions>
          <ns3:TrackPointExtension>
            <ns3:atemp>22.0</ns3:atemp>
          </ns3:TrackPointExtension>
        </extensions>
      </trkpt>
      <trkpt lat="42.57185854017734527587890625" lon="19.93406818248331546783447265625">
        <ele>1031.199951171875</ele>
        <time>2026-06-17T07:54:37.000Z</time>
        <extensions>
          <ns3:TrackPointExtension>
            <ns3:atemp>22.0</ns3:atemp>
          </ns3:TrackPointExtension>
        </extensions>
      </trkpt>
      <trkpt lat="42.571792490780353546142578125" lon="19.93411369621753692626953125">
        <ele>1030.800048828125</ele>
        <time>2026-06-17T07:54:38.000Z</time>
        <extensions>
          <ns3:TrackPointExtension>
            <ns3:atemp>22.0</ns3:atemp>
          </ns3:TrackPointExtension>
        </extensions>
      </trkpt>
      <trkpt lat="42.57172971032559871673583984375" lon="19.93415552191436290740966796875">
        <ele>1030.5999755859375</ele>
        <time>2026-06-17T07:54:39.000Z</time>
        <extensions>
          <ns3:TrackPointExtension>
            <ns3:atemp>22.0</ns3:atemp>
          </ns3:TrackPointExtension>
        </extensions>
      </trkpt>
      <trkpt lat="42.5716649182140827178955078125" lon="19.93418871425092220306396484375">
        <ele>1030.4000244140625</ele>
        <time>2026-06-17T07:54:40.000Z</time>
        <extensions>
          <ns3:TrackPointExtension>
            <ns3:atemp>22.0</ns3:atemp>
          </ns3:TrackPointExtension>
        </extensions>
      </trkpt>
      <trkpt lat="42.57159643806517124176025390625" lon="19.9342181347310543060302734375">
        <ele>1030</ele>
        <time>2026-06-17T07:54:41.000Z</time>
        <extensions>
          <ns3:TrackPointExtension>
            <ns3:atemp>22.0</ns3:atemp>
          </ns3:TrackPointExtension>
        </extensions>
      </trkpt>
      <trkpt lat="42.57152636535465717315673828125" lon="19.93424780666828155517578125">
        <ele>1029.800048828125</ele>
        <time>2026-06-17T07:54:42.000Z</time>
        <extensions>
          <ns3:TrackPointExtension>
            <ns3:atemp>22.0</ns3:atemp>
          </ns3:TrackPointExtension>
        </extensions>
      </trkpt>
      <trkpt lat="42.57145411334931850433349609375" lon="19.93428292684257030487060546875">
        <ele>1029.4000244140625</ele>
        <time>2026-06-17T07:54:43.000Z</time>
        <extensions>
          <ns3:TrackPointExtension>
            <ns3:atemp>22.0</ns3:atemp>
          </ns3:TrackPointExtension>
        </extensions>
      </trkpt>
      <trkpt lat="42.5713826157152652740478515625" lon="19.93430874310433864593505859375">
        <ele>1029</ele>
        <time>2026-06-17T07:54:44.000Z</time>
        <extensions>
          <ns3:TrackPointExtension>
            <ns3:atemp>22.0</ns3:atemp>
          </ns3:TrackPointExtension>
        </extensions>
      </trkpt>
      <trkpt lat="42.5713093578815460205078125" lon="19.934321902692317962646484375">
        <ele>1028.5999755859375</ele>
        <time>2026-06-17T07:54:45.000Z</time>
        <extensions>
          <ns3:TrackPointExtension>
            <ns3:atemp>22.0</ns3:atemp>
          </ns3:TrackPointExtension>
        </extensions>
      </trkpt>
      <trkpt lat="42.5712273828685283660888671875" lon="19.93433958850800991058349609375">
        <ele>1028</ele>
        <time>2026-06-17T07:54:46.000Z</time>
        <extensions>
          <ns3:TrackPointExtension>
            <ns3:atemp>22.0</ns3:atemp>
          </ns3:TrackPointExtension>
        </extensions>
      </trkpt>
      <trkpt lat="42.57113836705684661865234375" lon="19.9343691766262054443359375">
        <ele>1027.199951171875</ele>
        <time>2026-06-17T07:54:47.000Z</time>
        <extensions>
          <ns3:TrackPointExtension>
            <ns3:atemp>22.0</ns3:atemp>
          </ns3:TrackPointExtension>
        </extensions>
      </trkpt>
      <trkpt lat="42.57104340009391307830810546875" lon="19.93439289741218090057373046875">
        <ele>1026.5999755859375</ele>
        <time>2026-06-17T07:54:48.000Z</time>
        <extensions>
          <ns3:TrackPointExtension>
            <ns3:atemp>22.0</ns3:atemp>
          </ns3:TrackPointExtension>
        </extensions>
      </trkpt>
      <trkpt lat="42.57095505483448505401611328125" lon="19.9344229884445667266845703125">
        <ele>1026</ele>
        <time>2026-06-17T07:54:49.000Z</time>
        <extensions>
          <ns3:TrackPointExtension>
            <ns3:atemp>22.0</ns3:atemp>
          </ns3:TrackPointExtension>
        </extensions>
      </trkpt>
      <trkpt lat="42.57085665129125118255615234375" lon="19.93446799926459789276123046875">
        <ele>1025.199951171875</ele>
        <time>2026-06-17T07:54:50.000Z</time>
        <extensions>
          <ns3:TrackPointExtension>
            <ns3:atemp>22.0</ns3:atemp>
          </ns3:TrackPointExtension>
        </extensions>
      </trkpt>
      <trkpt lat="42.5707648694515228271484375" lon="19.93451057933270931243896484375">
        <ele>1024.5999755859375</ele>
        <time>2026-06-17T07:54:51.000Z</time>
        <extensions>
          <ns3:TrackPointExtension>
            <ns3:atemp>22.0</ns3:atemp>
          </ns3:TrackPointExtension>
        </extensions>
      </trkpt>
      <trkpt lat="42.57067434489727020263671875" lon="19.93455181829631328582763671875">
        <ele>1024</ele>
        <time>2026-06-17T07:54:52.000Z</time>
        <extensions>
          <ns3:TrackPointExtension>
            <ns3:atemp>22.0</ns3:atemp>
          </ns3:TrackPointExtension>
        </extensions>
      </trkpt>
      <trkpt lat="42.57058725692331790924072265625" lon="19.93459917604923248291015625">
        <ele>1023.4000244140625</ele>
        <time>2026-06-17T07:54:53.000Z</time>
        <extensions>
          <ns3:TrackPointExtension>
            <ns3:atemp>22.0</ns3:atemp>
          </ns3:TrackPointExtension>
        </extensions>
      </trkpt>
      <trkpt lat="42.57049555890262126922607421875" lon="19.9346375651657581329345703125">
        <ele>1023</ele>
        <time>2026-06-17T07:54:54.000Z</time>
        <extensions>
          <ns3:TrackPointExtension>
            <ns3:atemp>22.0</ns3:atemp>
          </ns3:TrackPointExtension>
        </extensions>
      </trkpt>
      <trkpt lat="42.57040889002382755279541015625" lon="19.93467084132134914398193359375">
        <ele>1022.79998779296875</ele>
        <time>2026-06-17T07:54:55.000Z</time>
        <extensions>
          <ns3:TrackPointExtension>
            <ns3:atemp>22.0</ns3:atemp>
          </ns3:TrackPointExtension>
        </extensions>
      </trkpt>
      <trkpt lat="42.57032657973468303680419921875" lon="19.93468559347093105316162109375">
        <ele>1022.4000244140625</ele>
        <time>2026-06-17T07:54:56.000Z</time>
        <extensions>
          <ns3:TrackPointExtension>
            <ns3:atemp>22.0</ns3:atemp>
          </ns3:TrackPointExtension>
        </extensions>
      </trkpt>
      <trkpt lat="42.570240497589111328125" lon="19.93468693457543849945068359375">
        <ele>1022</ele>
        <time>2026-06-17T07:54:57.000Z</time>
        <extensions>
          <ns3:TrackPointExtension>
            <ns3:atemp>22.0</ns3:atemp>
          </ns3:TrackPointExtension>
        </extensions>
      </trkpt>
      <trkpt lat="42.57015273906290531158447265625" lon="19.9346774630248546600341796875">
        <ele>1021.4000244140625</ele>
        <time>2026-06-17T07:54:58.000Z</time>
        <extensions>
          <ns3:TrackPointExtension>
            <ns3:atemp>22.0</ns3:atemp>
          </ns3:TrackPointExtension>
        </extensions>
      </trkpt>
      <trkpt lat="42.57006238214671611785888671875" lon="19.9346670694649219512939453125">
        <ele>1020.79998779296875</ele>
        <time>2026-06-17T07:54:59.000Z</time>
        <extensions>
          <ns3:TrackPointExtension>
            <ns3:atemp>22.0</ns3:atemp>
          </ns3:TrackPointExtension>
        </extensions>
      </trkpt>
      <trkpt lat="42.5699736177921295166015625" lon="19.934647120535373687744140625">
        <ele>1020.4000244140625</ele>
        <time>2026-06-17T07:55:00.000Z</time>
        <extensions>
          <ns3:TrackPointExtension>
            <ns3:atemp>22.0</ns3:atemp>
          </ns3:TrackPointExtension>
        </extensions>
      </trkpt>
      <trkpt lat="42.56988787092268466949462890625" lon="19.93462038226425647735595703125">
        <ele>1020</ele>
        <time>2026-06-17T07:55:01.000Z</time>
        <extensions>
          <ns3:TrackPointExtension>
            <ns3:atemp>22.0</ns3:atemp>
          </ns3:TrackPointExtension>
        </extensions>
      </trkpt>
      <trkpt lat="42.56980673409998416900634765625" lon="19.9345892854034900665283203125">
        <ele>1019.5999755859375</ele>
        <time>2026-06-17T07:55:02.000Z</time>
        <extensions>
          <ns3:TrackPointExtension>
            <ns3:atemp>22.0</ns3:atemp>
          </ns3:TrackPointExtension>
        </extensions>
      </trkpt>
      <trkpt lat="42.56972408853471279144287109375" lon="19.9345534108579158782958984375">
        <ele>1019.20001220703125</ele>
        <time>2026-06-17T07:55:03.000Z</time>
        <extensions>
          <ns3:TrackPointExtension>
            <ns3:atemp>22.0</ns3:atemp>
          </ns3:TrackPointExtension>
        </extensions>
      </trkpt>
      <trkpt lat="42.5696438737213611602783203125" lon="19.9345215596258640289306640625">
        <ele>1018.79998779296875</ele>
        <time>2026-06-17T07:55:04.000Z</time>
        <extensions>
          <ns3:TrackPointExtension>
            <ns3:atemp>22.0</ns3:atemp>
          </ns3:TrackPointExtension>
        </extensions>
      </trkpt>
      <trkpt lat="42.569570951163768768310546875" lon="19.9344826675951480865478515625">
        <ele>1018.5999755859375</ele>
        <time>2026-06-17T07:55:05.000Z</time>
        <extensions>
          <ns3:TrackPointExtension>
            <ns3:atemp>22.0</ns3:atemp>
          </ns3:TrackPointExtension>
        </extensions>
      </trkpt>
      <trkpt lat="42.5695037283003330230712890625" lon="19.9344293586909770965576171875">
        <ele>1018.4000244140625</ele>
        <time>2026-06-17T07:55:06.000Z</time>
        <extensions>
          <ns3:TrackPointExtension>
            <ns3:atemp>22.0</ns3:atemp>
          </ns3:TrackPointExtension>
        </extensions>
      </trkpt>
      <trkpt lat="42.5694344937801361083984375" lon="19.93437797762453556060791015625">
        <ele>1018.20001220703125</ele>
        <time>2026-06-17T07:55:07.000Z</time>
        <extensions>
          <ns3:TrackPointExtension>
            <ns3:atemp>22.0</ns3:atemp>
          </ns3:TrackPointExtension>
        </extensions>
      </trkpt>
      <trkpt lat="42.56935226731002330780029296875" lon="19.934364818036556243896484375">
        <ele>1017.79998779296875</ele>
        <time>2026-06-17T07:55:08.000Z</time>
        <extensions>
          <ns3:TrackPointExtension>
            <ns3:atemp>22.0</ns3:atemp>
          </ns3:TrackPointExtension>
        </extensions>
      </trkpt>
      <trkpt lat="42.5692764110863208770751953125" lon="19.93438216857612133026123046875">
        <ele>1017.79998779296875</ele>
        <time>2026-06-17T07:55:09.000Z</time>
        <extensions>
          <ns3:TrackPointExtension>
            <ns3:atemp>22.0</ns3:atemp>
          </ns3:TrackPointExtension>
        </extensions>
      </trkpt>
      <trkpt lat="42.5692118704319000244140625" lon="19.93440262041985988616943359375">
        <ele>1017.5999755859375</ele>
        <time>2026-06-17T07:55:10.000Z</time>
        <extensions>
          <ns3:TrackPointExtension>
            <ns3:atemp>22.0</ns3:atemp>
          </ns3:TrackPointExtension>
        </extensions>
      </trkpt>
      <trkpt lat="42.569148503243923187255859375" lon="19.93442072533071041107177734375">
        <ele>1017.5999755859375</ele>
        <time>2026-06-17T07:55:11.000Z</time>
        <extensions>
          <ns3:TrackPointExtension>
            <ns3:atemp>22.0</ns3:atemp>
          </ns3:TrackPointExtension>
        </extensions>
      </trkpt>
      <trkpt lat="42.56908639334142208099365234375" lon="19.93443162180483341217041015625">
        <ele>1017.5999755859375</ele>
        <time>2026-06-17T07:55:12.000Z</time>
        <extensions>
          <ns3:TrackPointExtension>
            <ns3:atemp>22.0</ns3:atemp>
          </ns3:TrackPointExtension>
        </extensions>
      </trkpt>
      <trkpt lat="42.56902989931404590606689453125" lon="19.9344317056238651275634765625">
        <ele>1017.79998779296875</ele>
        <time>2026-06-17T07:55:13.000Z</time>
        <extensions>
          <ns3:TrackPointExtension>
            <ns3:atemp>22.0</ns3:atemp>
          </ns3:TrackPointExtension>
        </extensions>
      </trkpt>
      <trkpt lat="42.56897692568600177764892578125" lon="19.9344296939671039581298828125">
        <ele>1017.79998779296875</ele>
        <time>2026-06-17T07:55:14.000Z</time>
        <extensions>
          <ns3:TrackPointExtension>
            <ns3:atemp>22.0</ns3:atemp>
          </ns3:TrackPointExtension>
        </extensions>
      </trkpt>
      <trkpt lat="42.56892621517181396484375" lon="19.93442491628229618072509765625">
        <ele>1018</ele>
        <time>2026-06-17T07:55:15.000Z</time>
        <extensions>
          <ns3:TrackPointExtension>
            <ns3:atemp>22.0</ns3:atemp>
          </ns3:TrackPointExtension>
        </extensions>
      </trkpt>
      <trkpt lat="42.568875253200531005859375" lon="19.9344196356832981109619140625">
        <ele>1018</ele>
        <time>2026-06-17T07:55:16.000Z</time>
        <extensions>
          <ns3:TrackPointExtension>
            <ns3:atemp>22.0</ns3:atemp>
          </ns3:TrackPointExtension>
        </extensions>
      </trkpt>
      <trkpt lat="42.56882370449602603912353515625" lon="19.9344149418175220489501953125">
        <ele>1018</ele>
        <time>2026-06-17T07:55:17.000Z</time>
        <extensions>
          <ns3:TrackPointExtension>
            <ns3:atemp>22.0</ns3:atemp>
          </ns3:TrackPointExtension>
        </extensions>
      </trkpt>
      <trkpt lat="42.5687748380005359649658203125" lon="19.9344095773994922637939453125">
        <ele>1018.20001220703125</ele>
        <time>2026-06-17T07:55:18.000Z</time>
        <extensions>
          <ns3:TrackPointExtension>
            <ns3:atemp>22.0</ns3:atemp>
          </ns3:TrackPointExtension>
        </extensions>
      </trkpt>
      <trkpt lat="42.5687255524098873138427734375" lon="19.934409745037555694580078125">
        <ele>1018.20001220703125</ele>
        <time>2026-06-17T07:55:19.000Z</time>
        <extensions>
          <ns3:TrackPointExtension>
            <ns3:atemp>22.0</ns3:atemp>
          </ns3:TrackPointExtension>
        </extensions>
      </trkpt>
      <trkpt lat="42.56867802701890468597412109375" lon="19.93440714664757251739501953125">
        <ele>1018.20001220703125</ele>
        <time>2026-06-17T07:55:20.000Z</time>
        <extensions>
          <ns3:TrackPointExtension>
            <ns3:atemp>22.0</ns3:atemp>
          </ns3:TrackPointExtension>
        </extensions>
      </trkpt>
      <trkpt lat="42.56863125599920749664306640625" lon="19.93440178222954273223876953125">
        <ele>1018.4000244140625</ele>
        <time>2026-06-17T07:55:21.000Z</time>
        <extensions>
          <ns3:TrackPointExtension>
            <ns3:atemp>22.0</ns3:atemp>
          </ns3:TrackPointExtension>
        </extensions>
      </trkpt>
      <trkpt lat="42.5685840658843517303466796875" lon="19.93440312333405017852783203125">
        <ele>1018.4000244140625</ele>
        <time>2026-06-17T07:55:22.000Z</time>
        <extensions>
          <ns3:TrackPointExtension>
            <ns3:atemp>22.0</ns3:atemp>
          </ns3:TrackPointExtension>
        </extensions>
      </trkpt>
      <trkpt lat="42.56853930652141571044921875" lon="19.93440228514373302459716796875">
        <ele>1018.4000244140625</ele>
        <time>2026-06-17T07:55:23.000Z</time>
        <extensions>
          <ns3:TrackPointExtension>
            <ns3:atemp>22.0</ns3:atemp>
          </ns3:TrackPointExtension>
        </extensions>
      </trkpt>
      <trkpt lat="42.5684945471584796905517578125" lon="19.93440203368663787841796875">
        <ele>1018.5999755859375</ele>
        <time>2026-06-17T07:55:24.000Z</time>
        <extensions>
          <ns3:TrackPointExtension>
            <ns3:atemp>22.0</ns3:atemp>
          </ns3:TrackPointExtension>
        </extensions>
      </trkpt>
      <trkpt lat="42.5684476085007190704345703125" lon="19.9343986809253692626953125">
        <ele>1018.5999755859375</ele>
        <time>2026-06-17T07:55:25.000Z</time>
        <extensions>
          <ns3:TrackPointExtension>
            <ns3:atemp>22.0</ns3:atemp>
          </ns3:TrackPointExtension>
        </extensions>
      </trkpt>
      <trkpt lat="42.56839974783360958099365234375" lon="19.9343951605260372161865234375">
        <ele>1018.5999755859375</ele>
        <time>2026-06-17T07:55:26.000Z</time>
        <extensions>
          <ns3:TrackPointExtension>
            <ns3:atemp>22.0</ns3:atemp>
          </ns3:TrackPointExtension>
        </extensions>
      </trkpt>
      <trkpt lat="42.56834627129137516021728515625" lon="19.93439557962119579315185546875">
        <ele>1018.5999755859375</ele>
        <time>2026-06-17T07:55:27.000Z</time>
        <extensions>
          <ns3:TrackPointExtension>
            <ns3:atemp>22.0</ns3:atemp>
          </ns3:TrackPointExtension>
        </extensions>
      </trkpt>
      <trkpt lat="42.5682930462062358856201171875" lon="19.93440010584890842437744140625">
        <ele>1018.5999755859375</ele>
        <time>2026-06-17T07:55:28.000Z</time>
        <extensions>
          <ns3:TrackPointExtension>
            <ns3:atemp>22.0</ns3:atemp>
          </ns3:TrackPointExtension>
        </extensions>
      </trkpt>
      <trkpt lat="42.568241246044635772705078125" lon="19.934409074485301971435546875">
        <ele>1018.5999755859375</ele>
        <time>2026-06-17T07:55:29.000Z</time>
        <extensions>
          <ns3:TrackPointExtension>
            <ns3:atemp>22.0</ns3:atemp>
          </ns3:TrackPointExtension>
        </extensions>
      </trkpt>
      <trkpt lat="42.56819053553044795989990234375" lon="19.93441955186426639556884765625">
        <ele>1018.5999755859375</ele>
        <time>2026-06-17T07:55:30.000Z</time>
        <extensions>
          <ns3:TrackPointExtension>
            <ns3:atemp>22.0</ns3:atemp>
          </ns3:TrackPointExtension>
        </extensions>
      </trkpt>
      <trkpt lat="42.56813789717853069305419921875" lon="19.93442885577678680419921875">
        <ele>1018.79998779296875</ele>
        <time>2026-06-17T07:55:31.000Z</time>
        <extensions>
          <ns3:TrackPointExtension>
            <ns3:atemp>22.0</ns3:atemp>
          </ns3:TrackPointExtension>
        </extensions>
      </trkpt>
      <trkpt lat="42.56808509118854999542236328125" lon="19.93444235064089298248291015625">
        <ele>1018.79998779296875</ele>
        <time>2026-06-17T07:55:32.000Z</time>
        <extensions>
          <ns3:TrackPointExtension>
            <ns3:atemp>22.0</ns3:atemp>
          </ns3:TrackPointExtension>
        </extensions>
      </trkpt>
      <trkpt lat="42.56803513504564762115478515625" lon="19.93445576168596744537353515625">
        <ele>1018.79998779296875</ele>
        <time>2026-06-17T07:55:33.000Z</time>
        <extensions>
          <ns3:TrackPointExtension>
            <ns3:atemp>22.0</ns3:atemp>
          </ns3:TrackPointExtension>
        </extensions>
      </trkpt>
      <trkpt lat="42.56798568181693553924560546875" lon="19.93446783162653446197509765625">
        <ele>1019</ele>
        <time>2026-06-17T07:55:34.000Z</time>
        <extensions>
          <ns3:TrackPointExtension>
            <ns3:atemp>22.0</ns3:atemp>
          </ns3:TrackPointExtension>
        </extensions>
      </trkpt>
      <trkpt lat="42.56793580949306488037109375" lon="19.934478141367435455322265625">
        <ele>1019</ele>
        <time>2026-06-17T07:55:35.000Z</time>
        <extensions>
          <ns3:TrackPointExtension>
            <ns3:atemp>22.0</ns3:atemp>
          </ns3:TrackPointExtension>
        </extensions>
      </trkpt>
      <trkpt lat="42.56788677535951137542724609375" lon="19.93448241613805294036865234375">
        <ele>1018.79998779296875</ele>
        <time>2026-06-17T07:55:36.000Z</time>
        <extensions>
          <ns3:TrackPointExtension>
            <ns3:atemp>22.0</ns3:atemp>
          </ns3:TrackPointExtension>
        </extensions>
      </trkpt>
      <trkpt lat="42.567830868065357208251953125" lon="19.9344853498041629791259765625">
        <ele>1018.79998779296875</ele>
        <time>2026-06-17T07:55:37.000Z</time>
        <extensions>
          <ns3:TrackPointExtension>
            <ns3:atemp>22.0</ns3:atemp>
          </ns3:TrackPointExtension>
        </extensions>
      </trkpt>
      <trkpt lat="42.567767836153507232666015625" lon="19.9344980902969837188720703125">
        <ele>1018.79998779296875</ele>
        <time>2026-06-17T07:55:38.000Z</time>
        <extensions>
          <ns3:TrackPointExtension>
            <ns3:atemp>22.0</ns3:atemp>
          </ns3:TrackPointExtension>
        </extensions>
      </trkpt>
      <trkpt lat="42.56770907901227474212646484375" lon="19.9345141835510730743408203125">
        <ele>1018.5999755859375</ele>
        <time>2026-06-17T07:55:39.000Z</time>
        <extensions>
          <ns3:TrackPointExtension>
            <ns3:atemp>22.0</ns3:atemp>
          </ns3:TrackPointExtension>
        </extensions>
      </trkpt>
      <trkpt lat="42.567653171718120574951171875" lon="19.93453505448997020721435546875">
        <ele>1018.4000244140625</ele>
        <time>2026-06-17T07:55:40.000Z</time>
        <extensions>
          <ns3:TrackPointExtension>
            <ns3:atemp>22.0</ns3:atemp>
          </ns3:TrackPointExtension>
        </extensions>
      </trkpt>
      <trkpt lat="42.56760413758456707000732421875" lon="19.93456204421818256378173828125">
        <ele>1018.4000244140625</ele>
        <time>2026-06-17T07:55:41.000Z</time>
        <extensions>
          <ns3:TrackPointExtension>
            <ns3:atemp>22.0</ns3:atemp>
          </ns3:TrackPointExtension>
        </extensions>
      </trkpt>
      <trkpt lat="42.5675551034510135650634765625" lon="19.93459255434572696685791015625">
        <ele>1018.4000244140625</ele>
        <time>2026-06-17T07:55:42.000Z</time>
        <extensions>
          <ns3:TrackPointExtension>
            <ns3:atemp>22.0</ns3:atemp>
          </ns3:TrackPointExtension>
        </extensions>
      </trkpt>
      <trkpt lat="42.567508332431316375732421875" lon="19.93461585603654384613037109375">
        <ele>1018.4000244140625</ele>
        <time>2026-06-17T07:55:43.000Z</time>
        <extensions>
          <ns3:TrackPointExtension>
            <ns3:atemp>22.0</ns3:atemp>
          </ns3:TrackPointExtension>
        </extensions>
      </trkpt>
      <trkpt lat="42.5674595497548580169677734375" lon="19.93463463149964809417724609375">
        <ele>1018.5999755859375</ele>
        <time>2026-06-17T07:55:44.000Z</time>
        <extensions>
          <ns3:TrackPointExtension>
            <ns3:atemp>22.0</ns3:atemp>
          </ns3:TrackPointExtension>
        </extensions>
      </trkpt>
      <trkpt lat="42.56740448065102100372314453125" lon="19.93464737199246883392333984375">
        <ele>1018.5999755859375</ele>
        <time>2026-06-17T07:55:45.000Z</time>
        <extensions>
          <ns3:TrackPointExtension>
            <ns3:atemp>22.0</ns3:atemp>
          </ns3:TrackPointExtension>
        </extensions>
      </trkpt>
      <trkpt lat="42.56735251285135746002197265625" lon="19.9346503056585788726806640625">
        <ele>1018.5999755859375</ele>
        <time>2026-06-17T07:55:46.000Z</time>
        <extensions>
          <ns3:TrackPointExtension>
            <ns3:atemp>22.0</ns3:atemp>
          </ns3:TrackPointExtension>
        </extensions>
      </trkpt>
      <trkpt lat="42.56729618646204471588134765625" lon="19.9346563406288623809814453125">
        <ele>1018.5999755859375</ele>
        <time>2026-06-17T07:55:47.000Z</time>
        <extensions>
          <ns3:TrackPointExtension>
            <ns3:atemp>22.0</ns3:atemp>
          </ns3:TrackPointExtension>
        </extensions>
      </trkpt>
      <trkpt lat="42.5672369264066219329833984375" lon="19.93467167951166629791259765625">
        <ele>1018.5999755859375</ele>
        <time>2026-06-17T07:55:48.000Z</time>
        <extensions>
          <ns3:TrackPointExtension>
            <ns3:atemp>22.0</ns3:atemp>
          </ns3:TrackPointExtension>
        </extensions>
      </trkpt>
      <trkpt lat="42.5671816058456897735595703125" lon="19.93468475528061389923095703125">
        <ele>1018.5999755859375</ele>
        <time>2026-06-17T07:55:49.000Z</time>
        <extensions>
          <ns3:TrackPointExtension>
            <ns3:atemp>22.0</ns3:atemp>
          </ns3:TrackPointExtension>
        </extensions>
      </trkpt>
      <trkpt lat="42.56712553091347217559814453125" lon="19.93469950743019580841064453125">
        <ele>1018.4000244140625</ele>
        <time>2026-06-17T07:55:50.000Z</time>
        <extensions>
          <ns3:TrackPointExtension>
            <ns3:atemp>22.0</ns3:atemp>
          </ns3:TrackPointExtension>
        </extensions>
      </trkpt>
      <trkpt lat="42.56707054562866687774658203125" lon="19.93471375666558742523193359375">
        <ele>1018.4000244140625</ele>
        <time>2026-06-17T07:55:51.000Z</time>
        <extensions>
          <ns3:TrackPointExtension>
            <ns3:atemp>22.0</ns3:atemp>
          </ns3:TrackPointExtension>
        </extensions>
      </trkpt>
      <trkpt lat="42.5670139677822589874267578125" lon="19.934727586805820465087890625">
        <ele>1018.4000244140625</ele>
        <time>2026-06-17T07:55:52.000Z</time>
        <extensions>
          <ns3:TrackPointExtension>
            <ns3:atemp>22.0</ns3:atemp>
          </ns3:TrackPointExtension>
        </extensions>
      </trkpt>
      <trkpt lat="42.56695604883134365081787109375" lon="19.93474359624087810516357421875">
        <ele>1018.4000244140625</ele>
        <time>2026-06-17T07:55:53.000Z</time>
        <extensions>
          <ns3:TrackPointExtension>
            <ns3:atemp>22.0</ns3:atemp>
          </ns3:TrackPointExtension>
        </extensions>
      </trkpt>
      <trkpt lat="42.56690156646072864532470703125" lon="19.93476907722651958465576171875">
        <ele>1018.20001220703125</ele>
        <time>2026-06-17T07:55:54.000Z</time>
        <extensions>
          <ns3:TrackPointExtension>
            <ns3:atemp>22.0</ns3:atemp>
          </ns3:TrackPointExtension>
        </extensions>
      </trkpt>
      <trkpt lat="42.5668515264987945556640625" lon="19.934809394180774688720703125">
        <ele>1018</ele>
        <time>2026-06-17T07:55:55.000Z</time>
        <extensions>
          <ns3:TrackPointExtension>
            <ns3:atemp>22.0</ns3:atemp>
          </ns3:TrackPointExtension>
        </extensions>
      </trkpt>
      <trkpt lat="42.5668071024119853973388671875" lon="19.93485658429563045501708984375">
        <ele>1017.79998779296875</ele>
        <time>2026-06-17T07:55:56.000Z</time>
        <extensions>
          <ns3:TrackPointExtension>
            <ns3:atemp>22.0</ns3:atemp>
          </ns3:TrackPointExtension>
        </extensions>
      </trkpt>
      <trkpt lat="42.566763348877429962158203125" lon="19.934909977018833160400390625">
        <ele>1017.4000244140625</ele>
        <time>2026-06-17T07:55:57.000Z</time>
        <extensions>
          <ns3:TrackPointExtension>
            <ns3:atemp>22.0</ns3:atemp>
          </ns3:TrackPointExtension>
        </extensions>
      </trkpt>
      <trkpt lat="42.56671674549579620361328125" lon="19.93496286682784557342529296875">
        <ele>1017.20001220703125</ele>
        <time>2026-06-17T07:55:58.000Z</time>
        <extensions>
          <ns3:TrackPointExtension>
            <ns3:atemp>22.0</ns3:atemp>
          </ns3:TrackPointExtension>
        </extensions>
      </trkpt>
      <trkpt lat="42.56666502915322780609130859375" lon="19.9350167624652385711669921875">
        <ele>1016.5999755859375</ele>
        <time>2026-06-17T07:55:59.000Z</time>
        <extensions>
          <ns3:TrackPointExtension>
            <ns3:atemp>22.0</ns3:atemp>
          </ns3:TrackPointExtension>
        </extensions>
      </trkpt>
      <trkpt lat="42.5666102953255176544189453125" lon="19.93507392704486846923828125">
        <ele>1016</ele>
        <time>2026-06-17T07:56:00.000Z</time>
        <extensions>
          <ns3:TrackPointExtension>
            <ns3:atemp>22.0</ns3:atemp>
          </ns3:TrackPointExtension>
        </extensions>
      </trkpt>
      <trkpt lat="42.56655187346041202545166015625" lon="19.93513838388025760650634765625">
        <ele>1015.4000244140625</ele>
        <time>2026-06-17T07:56:01.000Z</time>
        <extensions>
          <ns3:TrackPointExtension>
            <ns3:atemp>22.0</ns3:atemp>
          </ns3:TrackPointExtension>
        </extensions>
      </trkpt>
      <trkpt lat="42.566496469080448150634765625" lon="19.93520946241915225982666015625">
        <ele>1015</ele>
        <time>2026-06-17T07:56:02.000Z</time>
        <extensions>
          <ns3:TrackPointExtension>
            <ns3:atemp>22.0</ns3:atemp>
          </ns3:TrackPointExtension>
        </extensions>
      </trkpt>
      <trkpt lat="42.5664399750530719757080078125" lon="19.9352893419563770294189453125">
        <ele>1014.4000244140625</ele>
        <time>2026-06-17T07:56:03.000Z</time>
        <extensions>
          <ns3:TrackPointExtension>
            <ns3:atemp>22.0</ns3:atemp>
          </ns3:TrackPointExtension>
        </extensions>
      </trkpt>
      <trkpt lat="42.5663819722831249237060546875" lon="19.9353714846074581146240234375">
        <ele>1014</ele>
        <time>2026-06-17T07:56:04.000Z</time>
        <extensions>
          <ns3:TrackPointExtension>
            <ns3:atemp>22.0</ns3:atemp>
          </ns3:TrackPointExtension>
        </extensions>
      </trkpt>
      <trkpt lat="42.5663253106176853179931640625" lon="19.93545211851596832275390625">
        <ele>1013.5999755859375</ele>
        <time>2026-06-17T07:56:05.000Z</time>
        <extensions>
          <ns3:TrackPointExtension>
            <ns3:atemp>22.0</ns3:atemp>
          </ns3:TrackPointExtension>
        </extensions>
      </trkpt>
      <trkpt lat="42.5662716664373874664306640625" lon="19.93552831001579761505126953125">
        <ele>1013.20001220703125</ele>
        <time>2026-06-17T07:56:06.000Z</time>
        <extensions>
          <ns3:TrackPointExtension>
            <ns3:atemp>22.0</ns3:atemp>
          </ns3:TrackPointExtension>
        </extensions>
      </trkpt>
      <trkpt lat="42.56621290929615497589111328125" lon="19.93560190312564373016357421875">
        <ele>1013</ele>
        <time>2026-06-17T07:56:07.000Z</time>
        <extensions>
          <ns3:TrackPointExtension>
            <ns3:atemp>22.0</ns3:atemp>
          </ns3:TrackPointExtension>
        </extensions>
      </trkpt>
      <trkpt lat="42.5661566667258739471435546875" lon="19.93567566387355327606201171875">
        <ele>1012.79998779296875</ele>
        <time>2026-06-17T07:56:08.000Z</time>
        <extensions>
          <ns3:TrackPointExtension>
            <ns3:atemp>22.0</ns3:atemp>
          </ns3:TrackPointExtension>
        </extensions>
      </trkpt>
      <trkpt lat="42.5661000050604343414306640625" lon="19.9357451498508453369140625">
        <ele>1012.5999755859375</ele>
        <time>2026-06-17T07:56:09.000Z</time>
        <extensions>
          <ns3:TrackPointExtension>
            <ns3:atemp>22.0</ns3:atemp>
          </ns3:TrackPointExtension>
        </extensions>
      </trkpt>
      <trkpt lat="42.56605021655559539794921875" lon="19.9358163960278034210205078125">
        <ele>1012.4000244140625</ele>
        <time>2026-06-17T07:56:10.000Z</time>
        <extensions>
          <ns3:TrackPointExtension>
            <ns3:atemp>22.0</ns3:atemp>
          </ns3:TrackPointExtension>
        </extensions>
      </trkpt>
      <trkpt lat="42.56599900312721729278564453125" lon="19.9358871392905712127685546875">
        <ele>1012.4000244140625</ele>
        <time>2026-06-17T07:56:11.000Z</time>
        <extensions>
          <ns3:TrackPointExtension>
            <ns3:atemp>22.0</ns3:atemp>
          </ns3:TrackPointExtension>
        </extensions>
      </trkpt>
      <trkpt lat="42.56594401784241199493408203125" lon="19.93595930747687816619873046875">
        <ele>1012.4000244140625</ele>
        <time>2026-06-17T07:56:12.000Z</time>
        <extensions>
          <ns3:TrackPointExtension>
            <ns3:atemp>22.0</ns3:atemp>
          </ns3:TrackPointExtension>
        </extensions>
      </trkpt>
      <trkpt lat="42.56589062511920928955078125" lon="19.93602820672094821929931640625">
        <ele>1012.20001220703125</ele>
        <time>2026-06-17T07:56:13.000Z</time>
        <extensions>
          <ns3:TrackPointExtension>
            <ns3:atemp>22.0</ns3:atemp>
          </ns3:TrackPointExtension>
        </extensions>
      </trkpt>
      <trkpt lat="42.56584368646144866943359375" lon="19.93609408847987651824951171875">
        <ele>1012.20001220703125</ele>
        <time>2026-06-17T07:56:14.000Z</time>
        <extensions>
          <ns3:TrackPointExtension>
            <ns3:atemp>22.0</ns3:atemp>
          </ns3:TrackPointExtension>
        </extensions>
      </trkpt>
      <trkpt lat="42.56579934619367122650146484375" lon="19.936156533658504486083984375">
        <ele>1012.4000244140625</ele>
        <time>2026-06-17T07:56:15.000Z</time>
        <extensions>
          <ns3:TrackPointExtension>
            <ns3:atemp>22.0</ns3:atemp>
          </ns3:TrackPointExtension>
        </extensions>
      </trkpt>
      <trkpt lat="42.565757520496845245361328125" lon="19.9362090043723583221435546875">
        <ele>1012.4000244140625</ele>
        <time>2026-06-17T07:56:16.000Z</time>
        <extensions>
          <ns3:TrackPointExtension>
            <ns3:atemp>22.0</ns3:atemp>
          </ns3:TrackPointExtension>
        </extensions>
      </trkpt>
      <trkpt lat="42.5657167844474315643310546875" lon="19.93624781258404254913330078125">
        <ele>1012.5999755859375</ele>
        <time>2026-06-17T07:56:17.000Z</time>
        <extensions>
          <ns3:TrackPointExtension>
            <ns3:atemp>22.0</ns3:atemp>
          </ns3:TrackPointExtension>
        </extensions>
      </trkpt>
      <trkpt lat="42.56567294709384441375732421875" lon="19.936280585825443267822265625">
        <ele>1012.79998779296875</ele>
        <time>2026-06-17T07:56:18.000Z</time>
        <extensions>
          <ns3:TrackPointExtension>
            <ns3:atemp>22.0</ns3:atemp>
          </ns3:TrackPointExtension>
        </extensions>
      </trkpt>
      <trkpt lat="42.56562374532222747802734375" lon="19.93630229495465755462646484375">
        <ele>1013.20001220703125</ele>
        <time>2026-06-17T07:56:19.000Z</time>
        <extensions>
          <ns3:TrackPointExtension>
            <ns3:atemp>22.0</ns3:atemp>
          </ns3:TrackPointExtension>
        </extensions>
      </trkpt>
      <trkpt lat="42.565579824149608612060546875" lon="19.93631620891392230987548828125">
        <ele>1013.4000244140625</ele>
        <time>2026-06-17T07:56:20.000Z</time>
        <extensions>
          <ns3:TrackPointExtension>
            <ns3:atemp>22.0</ns3:atemp>
          </ns3:TrackPointExtension>
        </extensions>
      </trkpt>
      <trkpt lat="42.56553330458700656890869140625" lon="19.93632593192160129547119140625">
        <ele>1013.79998779296875</ele>
        <time>2026-06-17T07:56:21.000Z</time>
        <extensions>
          <ns3:TrackPointExtension>
            <ns3:atemp>22.0</ns3:atemp>
          </ns3:TrackPointExtension>
        </extensions>
      </trkpt>
      <trkpt lat="42.56548536010086536407470703125" lon="19.93633381091058254241943359375">
        <ele>1014</ele>
        <time>2026-06-17T07:56:22.000Z</time>
        <extensions>
          <ns3:TrackPointExtension>
            <ns3:atemp>22.0</ns3:atemp>
          </ns3:TrackPointExtension>
        </extensions>
      </trkpt>
      <trkpt lat="42.565436996519565582275390625" lon="19.936338253319263458251953125">
        <ele>1014</ele>
        <time>2026-06-17T07:56:23.000Z</time>
        <extensions>
          <ns3:TrackPointExtension>
            <ns3:atemp>22.0</ns3:atemp>
          </ns3:TrackPointExtension>
        </extensions>
      </trkpt>
      <trkpt lat="42.565384022891521453857421875" lon="19.93634101934731006622314453125">
        <ele>1014</ele>
        <time>2026-06-17T07:56:24.000Z</time>
        <extensions>
          <ns3:TrackPointExtension>
            <ns3:atemp>22.0</ns3:atemp>
          </ns3:TrackPointExtension>
        </extensions>
      </trkpt>
      <trkpt lat="42.5653178058564662933349609375" lon="19.93635141290724277496337890625">
        <ele>1013.79998779296875</ele>
        <time>2026-06-17T07:56:25.000Z</time>
        <extensions>
          <ns3:TrackPointExtension>
            <ns3:atemp>22.0</ns3:atemp>
          </ns3:TrackPointExtension>
        </extensions>
      </trkpt>
      <trkpt lat="42.5652403570711612701416015625" lon="19.93637211620807647705078125">
        <ele>1013.4000244140625</ele>
        <time>2026-06-17T07:56:26.000Z</time>
        <extensions>
          <ns3:TrackPointExtension>
            <ns3:atemp>22.0</ns3:atemp>
          </ns3:TrackPointExtension>
        </extensions>
      </trkpt>
      <trkpt lat="42.56515997461974620819091796875" lon="19.9363957531750202178955078125">
        <ele>1012.79998779296875</ele>
        <time>2026-06-17T07:56:27.000Z</time>
        <extensions>
          <ns3:TrackPointExtension>
            <ns3:atemp>22.0</ns3:atemp>
          </ns3:TrackPointExtension>
        </extensions>
      </trkpt>
      <trkpt lat="42.5650785863399505615234375" lon="19.9364162050187587738037109375">
        <ele>1012.4000244140625</ele>
        <time>2026-06-17T07:56:28.000Z</time>
        <extensions>
          <ns3:TrackPointExtension>
            <ns3:atemp>22.0</ns3:atemp>
          </ns3:TrackPointExtension>
        </extensions>
      </trkpt>
      <trkpt lat="42.56500340066850185394287109375" lon="19.9364423565566539764404296875">
        <ele>1011.79998779296875</ele>
        <time>2026-06-17T07:56:29.000Z</time>
        <extensions>
          <ns3:TrackPointExtension>
            <ns3:atemp>22.0</ns3:atemp>
          </ns3:TrackPointExtension>
        </extensions>
      </trkpt>
      <trkpt lat="42.56492695771157741546630859375" lon="19.9364658258855342864990234375">
        <ele>1011.4000244140625</ele>
        <time>2026-06-17T07:56:30.000Z</time>
        <extensions>
          <ns3:TrackPointExtension>
            <ns3:atemp>22.0</ns3:atemp>
          </ns3:TrackPointExtension>
        </extensions>
      </trkpt>
      <trkpt lat="42.564856968820095062255859375" lon="19.93648787029087543487548828125">
        <ele>1011.20001220703125</ele>
        <time>2026-06-17T07:56:31.000Z</time>
        <extensions>
          <ns3:TrackPointExtension>
            <ns3:atemp>22.0</ns3:atemp>
          </ns3:TrackPointExtension>
        </extensions>
      </trkpt>
      <trkpt lat="42.5647910870611667633056640625" lon="19.93650832213461399078369140625">
        <ele>1011.20001220703125</ele>
        <time>2026-06-17T07:56:32.000Z</time>
        <extensions>
          <ns3:TrackPointExtension>
            <ns3:atemp>22.0</ns3:atemp>
          </ns3:TrackPointExtension>
        </extensions>
      </trkpt>
      <trkpt lat="42.5647287257015705108642578125" lon="19.9365285225212574005126953125">
        <ele>1011</ele>
        <time>2026-06-17T07:56:33.000Z</time>
        <extensions>
          <ns3:TrackPointExtension>
            <ns3:atemp>22.0</ns3:atemp>
          </ns3:TrackPointExtension>
        </extensions>
      </trkpt>
      <trkpt lat="42.56466393359005451202392578125" lon="19.9365503154695034027099609375">
        <ele>1011</ele>
        <time>2026-06-17T07:56:34.000Z</time>
        <extensions>
          <ns3:TrackPointExtension>
            <ns3:atemp>22.0</ns3:atemp>
          </ns3:TrackPointExtension>
        </extensions>
      </trkpt>
      <trkpt lat="42.56460249423980712890625" lon="19.93657328188419342041015625">
        <ele>1011.20001220703125</ele>
        <time>2026-06-17T07:56:35.000Z</time>
        <extensions>
          <ns3:TrackPointExtension>
            <ns3:atemp>22.0</ns3:atemp>
          </ns3:TrackPointExtension>
        </extensions>
      </trkpt>
      <trkpt lat="42.5645423121750354766845703125" lon="19.93659080006182193756103515625">
        <ele>1011.20001220703125</ele>
        <time>2026-06-17T07:56:36.000Z</time>
        <extensions>
          <ns3:TrackPointExtension>
            <ns3:atemp>22.0</ns3:atemp>
          </ns3:TrackPointExtension>
        </extensions>
      </trkpt>
      <trkpt lat="42.56448405794799327850341796875" lon="19.93660907261073589324951171875">
        <ele>1011.20001220703125</ele>
        <time>2026-06-17T07:56:37.000Z</time>
        <extensions>
          <ns3:TrackPointExtension>
            <ns3:atemp>22.0</ns3:atemp>
          </ns3:TrackPointExtension>
        </extensions>
      </trkpt>
      <trkpt lat="42.56442806683480739593505859375" lon="19.93662826716899871826171875">
        <ele>1011.20001220703125</ele>
        <time>2026-06-17T07:56:38.000Z</time>
        <extensions>
          <ns3:TrackPointExtension>
            <ns3:atemp>22.0</ns3:atemp>
          </ns3:TrackPointExtension>
        </extensions>
      </trkpt>
      <trkpt lat="42.56437341682612895965576171875" lon="19.93664964102208614349365234375">
        <ele>1011.20001220703125</ele>
        <time>2026-06-17T07:56:39.000Z</time>
        <extensions>
          <ns3:TrackPointExtension>
            <ns3:atemp>22.0</ns3:atemp>
          </ns3:TrackPointExtension>
        </extensions>
      </trkpt>
      <trkpt lat="42.5643210299313068389892578125" lon="19.936668165028095245361328125">
        <ele>1011.20001220703125</ele>
        <time>2026-06-17T07:56:40.000Z</time>
        <extensions>
          <ns3:TrackPointExtension>
            <ns3:atemp>22.0</ns3:atemp>
          </ns3:TrackPointExtension>
        </extensions>
      </trkpt>
      <trkpt lat="42.56426922976970672607421875" lon="19.936687946319580078125">
        <ele>1011.20001220703125</ele>
        <time>2026-06-17T07:56:41.000Z</time>
        <extensions>
          <ns3:TrackPointExtension>
            <ns3:atemp>22.0</ns3:atemp>
          </ns3:TrackPointExtension>
        </extensions>
      </trkpt>
      <trkpt lat="42.56421801634132862091064453125" lon="19.9367122538387775421142578125">
        <ele>1011.4000244140625</ele>
        <time>2026-06-17T07:56:42.000Z</time>
        <extensions>
          <ns3:TrackPointExtension>
            <ns3:atemp>22.0</ns3:atemp>
          </ns3:TrackPointExtension>
        </extensions>
      </trkpt>
      <trkpt lat="42.56417040713131427764892578125" lon="19.93673714809119701385498046875">
        <ele>1011.4000244140625</ele>
        <time>2026-06-17T07:56:43.000Z</time>
        <extensions>
          <ns3:TrackPointExtension>
            <ns3:atemp>22.0</ns3:atemp>
          </ns3:TrackPointExtension>
        </extensions>
      </trkpt>
      <trkpt lat="42.56412447430193424224853515625" lon="19.93676430545747280120849609375">
        <ele>1011.4000244140625</ele>
        <time>2026-06-17T07:56:44.000Z</time>
        <extensions>
          <ns3:TrackPointExtension>
            <ns3:atemp>22.0</ns3:atemp>
          </ns3:TrackPointExtension>
        </extensions>
      </trkpt>
      <trkpt lat="42.564079798758029937744140625" lon="19.9367920495569705963134765625">
        <ele>1011.5999755859375</ele>
        <time>2026-06-17T07:56:45.000Z</time>
        <extensions>
          <ns3:TrackPointExtension>
            <ns3:atemp>22.0</ns3:atemp>
          </ns3:TrackPointExtension>
        </extensions>
      </trkpt>
      <trkpt lat="42.56403512321412563323974609375" lon="19.936817698180675506591796875">
        <ele>1011.5999755859375</ele>
        <time>2026-06-17T07:56:46.000Z</time>
        <extensions>
          <ns3:TrackPointExtension>
            <ns3:atemp>22.0</ns3:atemp>
          </ns3:TrackPointExtension>
        </extensions>
      </trkpt>
      <trkpt lat="42.5639921240508556365966796875" lon="19.93684611283242702484130859375">
        <ele>1011.79998779296875</ele>
        <time>2026-06-17T07:56:47.000Z</time>
        <extensions>
          <ns3:TrackPointExtension>
            <ns3:atemp>22.0</ns3:atemp>
          </ns3:TrackPointExtension>
        </extensions>
      </trkpt>
      <trkpt lat="42.5639492087066173553466796875" lon="19.936876706779003143310546875">
        <ele>1012</ele>
        <time>2026-06-17T07:56:48.000Z</time>
        <extensions>
          <ns3:TrackPointExtension>
            <ns3:atemp>22.0</ns3:atemp>
          </ns3:TrackPointExtension>
        </extensions>
      </trkpt>
      <trkpt lat="42.56390922702848911285400390625" lon="19.936907552182674407958984375">
        <ele>1012</ele>
        <time>2026-06-17T07:56:49.000Z</time>
        <extensions>
          <ns3:TrackPointExtension>
            <ns3:atemp>22.0</ns3:atemp>
          </ns3:TrackPointExtension>
        </extensions>
      </trkpt>
      <trkpt lat="42.5638674013316631317138671875" lon="19.93693697266280651092529296875">
        <ele>1012.20001220703125</ele>
        <time>2026-06-17T07:56:50.000Z</time>
        <extensions>
          <ns3:TrackPointExtension>
            <ns3:atemp>22.0</ns3:atemp>
          </ns3:TrackPointExtension>
        </extensions>
      </trkpt>
      <trkpt lat="42.56382339634001255035400390625" lon="19.93697024881839752197265625">
        <ele>1012.20001220703125</ele>
        <time>2026-06-17T07:56:51.000Z</time>
        <extensions>
          <ns3:TrackPointExtension>
            <ns3:atemp>22.0</ns3:atemp>
          </ns3:TrackPointExtension>
        </extensions>
      </trkpt>
      <trkpt lat="42.5637775473296642303466796875" lon="19.93700469844043254852294921875">
        <ele>1012.4000244140625</ele>
        <time>2026-06-17T07:56:52.000Z</time>
        <extensions>
          <ns3:TrackPointExtension>
            <ns3:atemp>22.0</ns3:atemp>
          </ns3:TrackPointExtension>
        </extensions>
      </trkpt>
      <trkpt lat="42.56373052485287189483642578125" lon="19.93704342283308506011962890625">
        <ele>1012.5999755859375</ele>
        <time>2026-06-17T07:56:53.000Z</time>
        <extensions>
          <ns3:TrackPointExtension>
            <ns3:atemp>22.0</ns3:atemp>
          </ns3:TrackPointExtension>
        </extensions>
      </trkpt>
      <trkpt lat="42.56368190981447696685791015625" lon="19.9370803870260715484619140625">
        <ele>1012.5999755859375</ele>
        <time>2026-06-17T07:56:54.000Z</time>
        <extensions>
          <ns3:TrackPointExtension>
            <ns3:atemp>22.0</ns3:atemp>
          </ns3:TrackPointExtension>
        </extensions>
      </trkpt>
      <trkpt lat="42.563633881509304046630859375" lon="19.93711642920970916748046875">
        <ele>1012.5999755859375</ele>
        <time>2026-06-17T07:56:55.000Z</time>
        <extensions>
          <ns3:TrackPointExtension>
            <ns3:atemp>22.0</ns3:atemp>
          </ns3:TrackPointExtension>
        </extensions>
      </trkpt>
      <trkpt lat="42.56358602084219455718994140625" lon="19.93715708144009113311767578125">
        <ele>1012.5999755859375</ele>
        <time>2026-06-17T07:56:56.000Z</time>
        <extensions>
          <ns3:TrackPointExtension>
            <ns3:atemp>22.0</ns3:atemp>
          </ns3:TrackPointExtension>
        </extensions>
      </trkpt>
      <trkpt lat="42.563539333641529083251953125" lon="19.937194883823394775390625">
        <ele>1012.79998779296875</ele>
        <time>2026-06-17T07:56:57.000Z</time>
        <extensions>
          <ns3:TrackPointExtension>
            <ns3:atemp>22.0</ns3:atemp>
          </ns3:TrackPointExtension>
        </extensions>
      </trkpt>
      <trkpt lat="42.56349331699311733245849609375" lon="19.93723251856863498687744140625">
        <ele>1012.5999755859375</ele>
        <time>2026-06-17T07:56:58.000Z</time>
        <extensions>
          <ns3:TrackPointExtension>
            <ns3:atemp>22.0</ns3:atemp>
          </ns3:TrackPointExtension>
        </extensions>
      </trkpt>
      <trkpt lat="42.5634452886879444122314453125" lon="19.9372711591422557830810546875">
        <ele>1012.5999755859375</ele>
        <time>2026-06-17T07:56:59.000Z</time>
        <extensions>
          <ns3:TrackPointExtension>
            <ns3:atemp>22.0</ns3:atemp>
          </ns3:TrackPointExtension>
        </extensions>
      </trkpt>
      <trkpt lat="42.56339759565889835357666015625" lon="19.93730560876429080963134765625">
        <ele>1012.5999755859375</ele>
        <time>2026-06-17T07:57:00.000Z</time>
        <extensions>
          <ns3:TrackPointExtension>
            <ns3:atemp>22.0</ns3:atemp>
          </ns3:TrackPointExtension>
        </extensions>
      </trkpt>
      <trkpt lat="42.56335065700113773345947265625" lon="19.937340728938579559326171875">
        <ele>1012.5999755859375</ele>
        <time>2026-06-17T07:57:01.000Z</time>
        <extensions>
          <ns3:TrackPointExtension>
            <ns3:atemp>22.0</ns3:atemp>
          </ns3:TrackPointExtension>
        </extensions>
      </trkpt>
      <trkpt lat="42.56330036558210849761962890625" lon="19.9373750947415828704833984375">
        <ele>1012.4000244140625</ele>
        <time>2026-06-17T07:57:02.000Z</time>
        <extensions>
          <ns3:TrackPointExtension>
            <ns3:atemp>22.0</ns3:atemp>
          </ns3:TrackPointExtension>
        </extensions>
      </trkpt>
      <trkpt lat="42.5632546842098236083984375" lon="19.93741055019199848175048828125">
        <ele>1012.4000244140625</ele>
        <time>2026-06-17T07:57:03.000Z</time>
        <extensions>
          <ns3:TrackPointExtension>
            <ns3:atemp>22.0</ns3:atemp>
          </ns3:TrackPointExtension>
        </extensions>
      </trkpt>
      <trkpt lat="42.56320933811366558074951171875" lon="19.93744709528982639312744140625">
        <ele>1012.5999755859375</ele>
        <time>2026-06-17T07:57:04.000Z</time>
        <extensions>
          <ns3:TrackPointExtension>
            <ns3:atemp>22.0</ns3:atemp>
          </ns3:TrackPointExtension>
        </extensions>
      </trkpt>
      <trkpt lat="42.56316843442618846893310546875" lon="19.93748464621603488922119140625">
        <ele>1012.5999755859375</ele>
        <time>2026-06-17T07:57:05.000Z</time>
        <extensions>
          <ns3:TrackPointExtension>
            <ns3:atemp>22.0</ns3:atemp>
          </ns3:TrackPointExtension>
        </extensions>
      </trkpt>
      <trkpt lat="42.56313105113804340362548828125" lon="19.9375216104090213775634765625">
        <ele>1012.79998779296875</ele>
        <time>2026-06-17T07:57:06.000Z</time>
        <extensions>
          <ns3:TrackPointExtension>
            <ns3:atemp>22.0</ns3:atemp>
          </ns3:TrackPointExtension>
        </extensions>
      </trkpt>
      <trkpt lat="42.56309635005891323089599609375" lon="19.93756175972521305084228515625">
        <ele>1013</ele>
        <time>2026-06-17T07:57:07.000Z</time>
        <extensions>
          <ns3:TrackPointExtension>
            <ns3:atemp>22.0</ns3:atemp>
          </ns3:TrackPointExtension>
        </extensions>
      </trkpt>
      <trkpt lat="42.56306433118879795074462890625" lon="19.9376039206981658935546875">
        <ele>1013</ele>
        <time>2026-06-17T07:57:08.000Z</time>
        <extensions>
          <ns3:TrackPointExtension>
            <ns3:atemp>22.0</ns3:atemp>
          </ns3:TrackPointExtension>
        </extensions>
      </trkpt>
      <trkpt lat="42.56302929483354091644287109375" lon="19.9376466684043407440185546875">
        <ele>1013</ele>
        <time>2026-06-17T07:57:09.000Z</time>
        <extensions>
          <ns3:TrackPointExtension>
            <ns3:atemp>22.0</ns3:atemp>
          </ns3:TrackPointExtension>
        </extensions>
      </trkpt>
      <trkpt lat="42.5629960186779499053955078125" lon="19.9376858957111835479736328125">
        <ele>1013.20001220703125</ele>
        <time>2026-06-17T07:57:10.000Z</time>
        <extensions>
          <ns3:TrackPointExtension>
            <ns3:atemp>22.0</ns3:atemp>
          </ns3:TrackPointExtension>
        </extensions>
      </trkpt>
      <trkpt lat="42.56296165287494659423828125" lon="19.937725625932216644287109375">
        <ele>1013.20001220703125</ele>
        <time>2026-06-17T07:57:11.000Z</time>
        <extensions>
          <ns3:TrackPointExtension>
            <ns3:atemp>22.0</ns3:atemp>
          </ns3:TrackPointExtension>
        </extensions>
      </trkpt>
      <trkpt lat="42.56292602978646755218505859375" lon="19.93777197785675525665283203125">
        <ele>1013.4000244140625</ele>
        <time>2026-06-17T07:57:12.000Z</time>
        <extensions>
          <ns3:TrackPointExtension>
            <ns3:atemp>22.0</ns3:atemp>
          </ns3:TrackPointExtension>
        </extensions>
      </trkpt>
      <trkpt lat="42.56289132870733737945556640625" lon="19.93781941942870616912841796875">
        <ele>1013.4000244140625</ele>
        <time>2026-06-17T07:57:13.000Z</time>
        <extensions>
          <ns3:TrackPointExtension>
            <ns3:atemp>22.0</ns3:atemp>
          </ns3:TrackPointExtension>
        </extensions>
      </trkpt>
      <trkpt lat="42.562859058380126953125" lon="19.9378682859241962432861328125">
        <ele>1013.4000244140625</ele>
        <time>2026-06-17T07:57:14.000Z</time>
        <extensions>
          <ns3:TrackPointExtension>
            <ns3:atemp>22.0</ns3:atemp>
          </ns3:TrackPointExtension>
        </extensions>
      </trkpt>
      <trkpt lat="42.56282729096710681915283203125" lon="19.93792033754289150238037109375">
        <ele>1013.4000244140625</ele>
        <time>2026-06-17T07:57:15.000Z</time>
        <extensions>
          <ns3:TrackPointExtension>
            <ns3:atemp>22.0</ns3:atemp>
          </ns3:TrackPointExtension>
        </extensions>
      </trkpt>
      <trkpt lat="42.56279795430600643157958984375" lon="19.93797431699931621551513671875">
        <ele>1013.5999755859375</ele>
        <time>2026-06-17T07:57:16.000Z</time>
        <extensions>
          <ns3:TrackPointExtension>
            <ns3:atemp>22.0</ns3:atemp>
          </ns3:TrackPointExtension>
        </extensions>
      </trkpt>
      <trkpt lat="42.56277197040617465972900390625" lon="19.93802578188478946685791015625">
        <ele>1013.5999755859375</ele>
        <time>2026-06-17T07:57:17.000Z</time>
        <extensions>
          <ns3:TrackPointExtension>
            <ns3:atemp>22.0</ns3:atemp>
          </ns3:TrackPointExtension>
        </extensions>
      </trkpt>
      <trkpt lat="42.56274699233472347259521484375" lon="19.93808194063603878021240234375">
        <ele>1013.5999755859375</ele>
        <time>2026-06-17T07:57:18.000Z</time>
        <extensions>
          <ns3:TrackPointExtension>
            <ns3:atemp>22.0</ns3:atemp>
          </ns3:TrackPointExtension>
        </extensions>
      </trkpt>
      <trkpt lat="42.56272561848163604736328125" lon="19.93813835084438323974609375">
        <ele>1013.79998779296875</ele>
        <time>2026-06-17T07:57:19.000Z</time>
        <extensions>
          <ns3:TrackPointExtension>
            <ns3:atemp>22.0</ns3:atemp>
          </ns3:TrackPointExtension>
        </extensions>
      </trkpt>
      <trkpt lat="42.562702484428882598876953125" lon="19.93820046074688434600830078125">
        <ele>1013.79998779296875</ele>
        <time>2026-06-17T07:57:20.000Z</time>
        <extensions>
          <ns3:TrackPointExtension>
            <ns3:atemp>22.0</ns3:atemp>
          </ns3:TrackPointExtension>
        </extensions>
      </trkpt>
      <trkpt lat="42.56268002092838287353515625" lon="19.93825963698327541351318359375">
        <ele>1014.20001220703125</ele>
        <time>2026-06-17T07:57:21.000Z</time>
        <extensions>
          <ns3:TrackPointExtension>
            <ns3:atemp>22.0</ns3:atemp>
          </ns3:TrackPointExtension>
        </extensions>
      </trkpt>
      <trkpt lat="42.562660239636898040771484375" lon="19.93832233361899852752685546875">
        <ele>1014.20001220703125</ele>
        <time>2026-06-17T07:57:22.000Z</time>
        <extensions>
          <ns3:TrackPointExtension>
            <ns3:atemp>22.0</ns3:atemp>
          </ns3:TrackPointExtension>
        </extensions>
      </trkpt>
      <trkpt lat="42.5626423023641109466552734375" lon="19.93838503025472164154052734375">
        <ele>1014.4000244140625</ele>
        <time>2026-06-17T07:57:23.000Z</time>
        <extensions>
          <ns3:TrackPointExtension>
            <ns3:atemp>22.0</ns3:atemp>
          </ns3:TrackPointExtension>
        </extensions>
      </trkpt>
      <trkpt lat="42.56262796930968761444091796875" lon="19.9384459666907787322998046875">
        <ele>1014.5999755859375</ele>
        <time>2026-06-17T07:57:24.000Z</time>
        <extensions>
          <ns3:TrackPointExtension>
            <ns3:atemp>22.0</ns3:atemp>
          </ns3:TrackPointExtension>
        </extensions>
      </trkpt>
      <trkpt lat="42.562609948217868804931640625" lon="19.93850874714553356170654296875">
        <ele>1014.5999755859375</ele>
        <time>2026-06-17T07:57:25.000Z</time>
        <extensions>
          <ns3:TrackPointExtension>
            <ns3:atemp>22.0</ns3:atemp>
          </ns3:TrackPointExtension>
        </extensions>
      </trkpt>
      <trkpt lat="42.56259310059249401092529296875" lon="19.938577897846698760986328125">
        <ele>1014.5999755859375</ele>
        <time>2026-06-17T07:57:26.000Z</time>
        <extensions>
          <ns3:TrackPointExtension>
            <ns3:atemp>22.0</ns3:atemp>
          </ns3:TrackPointExtension>
        </extensions>
      </trkpt>
      <trkpt lat="42.56257675588130950927734375" lon="19.9386478029191493988037109375">
        <ele>1014.4000244140625</ele>
        <time>2026-06-17T07:57:27.000Z</time>
        <extensions>
          <ns3:TrackPointExtension>
            <ns3:atemp>22.0</ns3:atemp>
          </ns3:TrackPointExtension>
        </extensions>
      </trkpt>
      <trkpt lat="42.562563680112361907958984375" lon="19.93871443904936313629150390625">
        <ele>1014.4000244140625</ele>
        <time>2026-06-17T07:57:28.000Z</time>
        <extensions>
          <ns3:TrackPointExtension>
            <ns3:atemp>22.0</ns3:atemp>
          </ns3:TrackPointExtension>
        </extensions>
      </trkpt>
      <trkpt lat="42.56255328655242919921875" lon="19.93878702633082866668701171875">
        <ele>1014.4000244140625</ele>
        <time>2026-06-17T07:57:29.000Z</time>
        <extensions>
          <ns3:TrackPointExtension>
            <ns3:atemp>22.0</ns3:atemp>
          </ns3:TrackPointExtension>
        </extensions>
      </trkpt>
      <trkpt lat="42.5625454075634479522705078125" lon="19.93885584175586700439453125">
        <ele>1014.4000244140625</ele>
        <time>2026-06-17T07:57:30.000Z</time>
        <extensions>
          <ns3:TrackPointExtension>
            <ns3:atemp>22.0</ns3:atemp>
          </ns3:TrackPointExtension>
        </extensions>
      </trkpt>
      <trkpt lat="42.5625393725931644439697265625" lon="19.93892633356153964996337890625">
        <ele>1014.4000244140625</ele>
        <time>2026-06-17T07:57:31.000Z</time>
        <extensions>
          <ns3:TrackPointExtension>
            <ns3:atemp>22.0</ns3:atemp>
          </ns3:TrackPointExtension>
        </extensions>
      </trkpt>
      <trkpt lat="42.562534846365451812744140625" lon="19.9389933049678802490234375">
        <ele>1014.4000244140625</ele>
        <time>2026-06-17T07:57:32.000Z</time>
        <extensions>
          <ns3:TrackPointExtension>
            <ns3:atemp>22.0</ns3:atemp>
          </ns3:TrackPointExtension>
        </extensions>
      </trkpt>
      <trkpt lat="42.562530823051929473876953125" lon="19.93906346149742603302001953125">
        <ele>1014.4000244140625</ele>
        <time>2026-06-17T07:57:33.000Z</time>
        <extensions>
          <ns3:TrackPointExtension>
            <ns3:atemp>22.0</ns3:atemp>
          </ns3:TrackPointExtension>
        </extensions>
      </trkpt>
      <trkpt lat="42.56252990104258060455322265625" lon="19.9391342885792255401611328125">
        <ele>1014.5999755859375</ele>
        <time>2026-06-17T07:57:34.000Z</time>
        <extensions>
          <ns3:TrackPointExtension>
            <ns3:atemp>22.0</ns3:atemp>
          </ns3:TrackPointExtension>
        </extensions>
      </trkpt>
      <trkpt lat="42.56252369843423366546630859375" lon="19.93920209817588329315185546875">
        <ele>1014.5999755859375</ele>
        <time>2026-06-17T07:57:35.000Z</time>
        <extensions>
          <ns3:TrackPointExtension>
            <ns3:atemp>22.0</ns3:atemp>
          </ns3:TrackPointExtension>
        </extensions>
      </trkpt>
      <trkpt lat="42.562520094215869903564453125" lon="19.9392704106867313385009765625">
        <ele>1014.79998779296875</ele>
        <time>2026-06-17T07:57:36.000Z</time>
        <extensions>
          <ns3:TrackPointExtension>
            <ns3:atemp>22.0</ns3:atemp>
          </ns3:TrackPointExtension>
        </extensions>
      </trkpt>
      <trkpt lat="42.5625145621597766876220703125" lon="19.93933319114148616790771484375">
        <ele>1015</ele>
        <time>2026-06-17T07:57:37.000Z</time>
        <extensions>
          <ns3:TrackPointExtension>
            <ns3:atemp>22.0</ns3:atemp>
          </ns3:TrackPointExtension>
        </extensions>
      </trkpt>
      <trkpt lat="42.56250961683690547943115234375" lon="19.93939739651978015899658203125">
        <ele>1015.20001220703125</ele>
        <time>2026-06-17T07:57:38.000Z</time>
        <extensions>
          <ns3:TrackPointExtension>
            <ns3:atemp>22.0</ns3:atemp>
          </ns3:TrackPointExtension>
        </extensions>
      </trkpt>
      <trkpt lat="42.56250576116144657135009765625" lon="19.9394561536610126495361328125">
        <ele>1015.4000244140625</ele>
        <time>2026-06-17T07:57:39.000Z</time>
        <extensions>
          <ns3:TrackPointExtension>
            <ns3:atemp>22.0</ns3:atemp>
          </ns3:TrackPointExtension>
        </extensions>
      </trkpt>
      <trkpt lat="42.5625014863908290863037109375" lon="19.93951474316418170928955078125">
        <ele>1015.5999755859375</ele>
        <time>2026-06-17T07:57:40.000Z</time>
        <extensions>
          <ns3:TrackPointExtension>
            <ns3:atemp>22.0</ns3:atemp>
          </ns3:TrackPointExtension>
        </extensions>
      </trkpt>
      <trkpt lat="42.56249503232538700103759765625" lon="19.93957425467669963836669921875">
        <ele>1015.79998779296875</ele>
        <time>2026-06-17T07:57:41.000Z</time>
        <extensions>
          <ns3:TrackPointExtension>
            <ns3:atemp>22.0</ns3:atemp>
          </ns3:TrackPointExtension>
        </extensions>
      </trkpt>
      <trkpt lat="42.56248581223189830780029296875" lon="19.939634688198566436767578125">
        <ele>1016</ele>
        <time>2026-06-17T07:57:42.000Z</time>
        <extensions>
          <ns3:TrackPointExtension>
            <ns3:atemp>22.0</ns3:atemp>
          </ns3:TrackPointExtension>
        </extensions>
      </trkpt>
      <trkpt lat="42.56247575394809246063232421875" lon="19.9396945349872112274169921875">
        <ele>1016.20001220703125</ele>
        <time>2026-06-17T07:57:43.000Z</time>
        <extensions>
          <ns3:TrackPointExtension>
            <ns3:atemp>22.0</ns3:atemp>
          </ns3:TrackPointExtension>
        </extensions>
      </trkpt>
      <trkpt lat="42.56246133707463741302490234375" lon="19.93975161574780941009521484375">
        <ele>1016.20001220703125</ele>
        <time>2026-06-17T07:57:44.000Z</time>
        <extensions>
          <ns3:TrackPointExtension>
            <ns3:atemp>22.0</ns3:atemp>
          </ns3:TrackPointExtension>
        </extensions>
      </trkpt>
      <trkpt lat="42.56244775839149951934814453125" lon="19.939808361232280731201171875">
        <ele>1016.4000244140625</ele>
        <time>2026-06-17T07:57:45.000Z</time>
        <extensions>
          <ns3:TrackPointExtension>
            <ns3:atemp>22.0</ns3:atemp>
          </ns3:TrackPointExtension>
        </extensions>
      </trkpt>
      <trkpt lat="42.5624314136803150177001953125" lon="19.9398655258119106292724609375">
        <ele>1016.5999755859375</ele>
        <time>2026-06-17T07:57:46.000Z</time>
        <extensions>
          <ns3:TrackPointExtension>
            <ns3:atemp>22.0</ns3:atemp>
          </ns3:TrackPointExtension>
        </extensions>
      </trkpt>
      <trkpt lat="42.562413476407527923583984375" lon="19.9399275518953800201416015625">
        <ele>1016.5999755859375</ele>
        <time>2026-06-17T07:57:47.000Z</time>
        <extensions>
          <ns3:TrackPointExtension>
            <ns3:atemp>22.0</ns3:atemp>
          </ns3:TrackPointExtension>
        </extensions>
      </trkpt>
      <trkpt lat="42.562391348183155059814453125" lon="19.93998496793210506439208984375">
        <ele>1016.79998779296875</ele>
        <time>2026-06-17T07:57:48.000Z</time>
        <extensions>
          <ns3:TrackPointExtension>
            <ns3:atemp>22.0</ns3:atemp>
          </ns3:TrackPointExtension>
        </extensions>
      </trkpt>
      <trkpt lat="42.5623697228729724884033203125" lon="19.94004146195948123931884765625">
        <ele>1016.79998779296875</ele>
        <time>2026-06-17T07:57:49.000Z</time>
        <extensions>
          <ns3:TrackPointExtension>
            <ns3:atemp>22.0</ns3:atemp>
          </ns3:TrackPointExtension>
        </extensions>
      </trkpt>
      <trkpt lat="42.5623454153537750244140625" lon="19.9400975368916988372802734375">
        <ele>1017</ele>
        <time>2026-06-17T07:57:50.000Z</time>
        <extensions>
          <ns3:TrackPointExtension>
            <ns3:atemp>22.0</ns3:atemp>
          </ns3:TrackPointExtension>
        </extensions>
      </trkpt>
      <trkpt lat="42.56231926381587982177734375" lon="19.9401439726352691650390625">
        <ele>1017</ele>
        <time>2026-06-17T07:57:51.000Z</time>
        <extensions>
          <ns3:TrackPointExtension>
            <ns3:atemp>22.0</ns3:atemp>
          </ns3:TrackPointExtension>
        </extensions>
      </trkpt>
      <trkpt lat="42.56228984333574771881103515625" lon="19.9401917494833469390869140625">
        <ele>1017.20001220703125</ele>
        <time>2026-06-17T07:57:52.000Z</time>
        <extensions>
          <ns3:TrackPointExtension>
            <ns3:atemp>22.0</ns3:atemp>
          </ns3:TrackPointExtension>
        </extensions>
      </trkpt>
      <trkpt lat="42.5622580759227275848388671875" lon="19.94023458100855350494384765625">
        <ele>1017.20001220703125</ele>
        <time>2026-06-17T07:57:53.000Z</time>
        <extensions>
          <ns3:TrackPointExtension>
            <ns3:atemp>22.0</ns3:atemp>
          </ns3:TrackPointExtension>
        </extensions>
      </trkpt>
      <trkpt lat="42.5622242130339145660400390625" lon="19.94027632288634777069091796875">
        <ele>1017.4000244140625</ele>
        <time>2026-06-17T07:57:54.000Z</time>
        <extensions>
          <ns3:TrackPointExtension>
            <ns3:atemp>22.0</ns3:atemp>
          </ns3:TrackPointExtension>
        </extensions>
      </trkpt>
      <trkpt lat="42.56219185888767242431640625" lon="19.940311945974826812744140625">
        <ele>1017.5999755859375</ele>
        <time>2026-06-17T07:57:55.000Z</time>
        <extensions>
          <ns3:TrackPointExtension>
            <ns3:atemp>22.0</ns3:atemp>
          </ns3:TrackPointExtension>
        </extensions>
      </trkpt>
      <trkpt lat="42.5621564872562885284423828125" lon="19.94034606032073497772216796875">
        <ele>1017.5999755859375</ele>
        <time>2026-06-17T07:57:56.000Z</time>
        <extensions>
          <ns3:TrackPointExtension>
            <ns3:atemp>22.0</ns3:atemp>
          </ns3:TrackPointExtension>
        </extensions>
      </trkpt>
      <trkpt lat="42.5621206127107143402099609375" lon="19.940381012856960296630859375">
        <ele>1017.79998779296875</ele>
        <time>2026-06-17T07:57:57.000Z</time>
        <extensions>
          <ns3:TrackPointExtension>
            <ns3:atemp>22.0</ns3:atemp>
          </ns3:TrackPointExtension>
        </extensions>
      </trkpt>
      <trkpt lat="42.5620857439935207366943359375" lon="19.94041915051639080047607421875">
        <ele>1017.79998779296875</ele>
        <time>2026-06-17T07:57:58.000Z</time>
        <extensions>
          <ns3:TrackPointExtension>
            <ns3:atemp>22.0</ns3:atemp>
          </ns3:TrackPointExtension>
        </extensions>
      </trkpt>
      <trkpt lat="42.5620515458285808563232421875" lon="19.9404656700789928436279296875">
        <ele>1018</ele>
        <time>2026-06-17T07:57:59.000Z</time>
        <extensions>
          <ns3:TrackPointExtension>
            <ns3:atemp>22.0</ns3:atemp>
          </ns3:TrackPointExtension>
        </extensions>
      </trkpt>
      <trkpt lat="42.5620235502719879150390625" lon="19.94051688350737094879150390625">
        <ele>1018.20001220703125</ele>
        <time>2026-06-17T07:58:00.000Z</time>
        <extensions>
          <ns3:TrackPointExtension>
            <ns3:atemp>22.0</ns3:atemp>
          </ns3:TrackPointExtension>
        </extensions>
      </trkpt>
      <trkpt lat="42.56200603209435939788818359375" lon="19.94057153351604938507080078125">
        <ele>1018.20001220703125</ele>
        <time>2026-06-17T07:58:01.000Z</time>
        <extensions>
          <ns3:TrackPointExtension>
            <ns3:atemp>22.0</ns3:atemp>
          </ns3:TrackPointExtension>
        </extensions>
      </trkpt>
      <trkpt lat="42.56199580617249011993408203125" lon="19.9406299553811550140380859375">
        <ele>1018.20001220703125</ele>
        <time>2026-06-17T07:58:02.000Z</time>
        <extensions>
          <ns3:TrackPointExtension>
            <ns3:atemp>22.0</ns3:atemp>
          </ns3:TrackPointExtension>
        </extensions>
      </trkpt>
      <trkpt lat="42.56198465824127197265625" lon="19.94068779051303863525390625">
        <ele>1018.4000244140625</ele>
        <time>2026-06-17T07:58:03.000Z</time>
        <extensions>
          <ns3:TrackPointExtension>
            <ns3:atemp>22.0</ns3:atemp>
          </ns3:TrackPointExtension>
        </extensions>
      </trkpt>
      <trkpt lat="42.5619667209684848785400390625" lon="19.94074587710201740264892578125">
        <ele>1018.5999755859375</ele>
        <time>2026-06-17T07:58:04.000Z</time>
        <extensions>
          <ns3:TrackPointExtension>
            <ns3:atemp>22.0</ns3:atemp>
          </ns3:TrackPointExtension>
        </extensions>
      </trkpt>
      <trkpt lat="42.56193662993609905242919921875" lon="19.94079382158815860748291015625">
        <ele>1018.5999755859375</ele>
        <time>2026-06-17T07:58:05.000Z</time>
        <extensions>
          <ns3:TrackPointExtension>
            <ns3:atemp>22.0</ns3:atemp>
          </ns3:TrackPointExtension>
        </extensions>
      </trkpt>
      <trkpt lat="42.5619000010192394256591796875" lon="19.9408294446766376495361328125">
        <ele>1018.79998779296875</ele>
        <time>2026-06-17T07:58:06.000Z</time>
        <extensions>
          <ns3:TrackPointExtension>
            <ns3:atemp>22.0</ns3:atemp>
          </ns3:TrackPointExtension>
        </extensions>
      </trkpt>
      <trkpt lat="42.5618612766265869140625" lon="19.94085903279483318328857421875">
        <ele>1019</ele>
        <time>2026-06-17T07:58:07.000Z</time>
        <extensions>
          <ns3:TrackPointExtension>
            <ns3:atemp>22.0</ns3:atemp>
          </ns3:TrackPointExtension>
        </extensions>
      </trkpt>
      <trkpt lat="42.5618181936442852020263671875" lon="19.94088627398014068603515625">
        <ele>1019.20001220703125</ele>
        <time>2026-06-17T07:58:08.000Z</time>
        <extensions>
          <ns3:TrackPointExtension>
            <ns3:atemp>22.0</ns3:atemp>
          </ns3:TrackPointExtension>
        </extensions>
      </trkpt>
      <trkpt lat="42.5617754459381103515625" lon="19.94091033004224300384521484375">
        <ele>1019.20001220703125</ele>
        <time>2026-06-17T07:58:09.000Z</time>
        <extensions>
          <ns3:TrackPointExtension>
            <ns3:atemp>22.0</ns3:atemp>
          </ns3:TrackPointExtension>
        </extensions>
      </trkpt>
      <trkpt lat="42.56173345260322093963623046875" lon="19.94093430228531360626220703125">
        <ele>1019.4000244140625</ele>
        <time>2026-06-17T07:58:10.000Z</time>
        <extensions>
          <ns3:TrackPointExtension>
            <ns3:atemp>22.0</ns3:atemp>
          </ns3:TrackPointExtension>
        </extensions>
      </trkpt>
      <trkpt lat="42.56169120781123638153076171875" lon="19.94095559231936931610107421875">
        <ele>1019.5999755859375</ele>
        <time>2026-06-17T07:58:11.000Z</time>
        <extensions>
          <ns3:TrackPointExtension>
            <ns3:atemp>22.0</ns3:atemp>
          </ns3:TrackPointExtension>
        </extensions>
      </trkpt>
      <trkpt lat="42.56165147759020328521728515625" lon="19.9409796483814716339111328125">
        <ele>1019.5999755859375</ele>
        <time>2026-06-17T07:58:12.000Z</time>
        <extensions>
          <ns3:TrackPointExtension>
            <ns3:atemp>22.0</ns3:atemp>
          </ns3:TrackPointExtension>
        </extensions>
      </trkpt>
      <trkpt lat="42.5616146810352802276611328125" lon="19.941002614796161651611328125">
        <ele>1019.5999755859375</ele>
        <time>2026-06-17T07:58:13.000Z</time>
        <extensions>
          <ns3:TrackPointExtension>
            <ns3:atemp>22.0</ns3:atemp>
          </ns3:TrackPointExtension>
        </extensions>
      </trkpt>
      <trkpt lat="42.56157763302326202392578125" lon="19.9410249106585979461669921875">
        <ele>1019.79998779296875</ele>
        <time>2026-06-17T07:58:14.000Z</time>
        <extensions>
          <ns3:TrackPointExtension>
            <ns3:atemp>22.0</ns3:atemp>
          </ns3:TrackPointExtension>
        </extensions>
      </trkpt>
      <trkpt lat="42.56154167465865612030029296875" lon="19.941046871244907379150390625">
        <ele>1019.79998779296875</ele>
        <time>2026-06-17T07:58:15.000Z</time>
        <extensions>
          <ns3:TrackPointExtension>
            <ns3:atemp>22.0</ns3:atemp>
          </ns3:TrackPointExtension>
        </extensions>
      </trkpt>
      <trkpt lat="42.56151166744530200958251953125" lon="19.9410720169544219970703125">
        <ele>1020</ele>
        <time>2026-06-17T07:58:16.000Z</time>
        <extensions>
          <ns3:TrackPointExtension>
            <ns3:atemp>22.0</ns3:atemp>
          </ns3:TrackPointExtension>
        </extensions>
      </trkpt>
      <trkpt lat="42.56148216314613819122314453125" lon="19.94109741412103176116943359375">
        <ele>1020.4000244140625</ele>
        <time>2026-06-17T07:58:17.000Z</time>
        <extensions>
          <ns3:TrackPointExtension>
            <ns3:atemp>22.0</ns3:atemp>
          </ns3:TrackPointExtension>
        </extensions>
      </trkpt>
      <trkpt lat="42.56145567633211612701416015625" lon="19.94112574495375156402587890625">
        <ele>1020.5999755859375</ele>
        <time>2026-06-17T07:58:18.000Z</time>
        <extensions>
          <ns3:TrackPointExtension>
            <ns3:atemp>22.0</ns3:atemp>
          </ns3:TrackPointExtension>
        </extensions>
      </trkpt>
      <trkpt lat="42.5614339672029018402099609375" lon="19.9411492981016635894775390625">
        <ele>1021</ele>
        <time>2026-06-17T07:58:19.000Z</time>
        <extensions>
          <ns3:TrackPointExtension>
            <ns3:atemp>22.0</ns3:atemp>
          </ns3:TrackPointExtension>
        </extensions>
      </trkpt>
      <trkpt lat="42.56141259334981441497802734375" lon="19.9411734379827976226806640625">
        <ele>1021.20001220703125</ele>
        <time>2026-06-17T07:58:20.000Z</time>
        <extensions>
          <ns3:TrackPointExtension>
            <ns3:atemp>22.0</ns3:atemp>
          </ns3:TrackPointExtension>
        </extensions>
      </trkpt>
      <trkpt lat="42.561391554772853851318359375" lon="19.94120000861585140228271484375">
        <ele>1021.5999755859375</ele>
        <time>2026-06-17T07:58:21.000Z</time>
        <extensions>
          <ns3:TrackPointExtension>
            <ns3:atemp>22.0</ns3:atemp>
          </ns3:TrackPointExtension>
        </extensions>
      </trkpt>
      <trkpt lat="42.5613726116716861724853515625" lon="19.94122414849698543548583984375">
        <ele>1022</ele>
        <time>2026-06-17T07:58:22.000Z</time>
        <extensions>
          <ns3:TrackPointExtension>
            <ns3:atemp>22.0</ns3:atemp>
          </ns3:TrackPointExtension>
        </extensions>
      </trkpt>
      <trkpt lat="42.56135408766567707061767578125" lon="19.94124795310199260711669921875">
        <ele>1022.20001220703125</ele>
        <time>2026-06-17T07:58:23.000Z</time>
        <extensions>
          <ns3:TrackPointExtension>
            <ns3:atemp>22.0</ns3:atemp>
          </ns3:TrackPointExtension>
        </extensions>
      </trkpt>
      <trkpt lat="42.5613364018499851226806640625" lon="19.94126672856509685516357421875">
        <ele>1022.4000244140625</ele>
        <time>2026-06-17T07:58:24.000Z</time>
        <extensions>
          <ns3:TrackPointExtension>
            <ns3:atemp>22.0</ns3:atemp>
          </ns3:TrackPointExtension>
        </extensions>
      </trkpt>
      <trkpt lat="42.56132148206233978271484375" lon="19.94128751568496227264404296875">
        <ele>1022.5999755859375</ele>
        <time>2026-06-17T07:58:25.000Z</time>
        <extensions>
          <ns3:TrackPointExtension>
            <ns3:atemp>22.0</ns3:atemp>
          </ns3:TrackPointExtension>
        </extensions>
      </trkpt>
      <trkpt lat="42.56130681373178958892822265625" lon="19.94130880571901798248291015625">
        <ele>1022.5999755859375</ele>
        <time>2026-06-17T07:58:26.000Z</time>
        <extensions>
          <ns3:TrackPointExtension>
            <ns3:atemp>22.0</ns3:atemp>
          </ns3:TrackPointExtension>
        </extensions>
      </trkpt>
      <trkpt lat="42.5612926483154296875" lon="19.94132992811501026153564453125">
        <ele>1022.79998779296875</ele>
        <time>2026-06-17T07:58:27.000Z</time>
        <extensions>
          <ns3:TrackPointExtension>
            <ns3:atemp>22.0</ns3:atemp>
          </ns3:TrackPointExtension>
        </extensions>
      </trkpt>
      <trkpt lat="42.5612763874232769012451171875" lon="19.94135004468262195587158203125">
        <ele>1023</ele>
        <time>2026-06-17T07:58:28.000Z</time>
        <extensions>
          <ns3:TrackPointExtension>
            <ns3:atemp>22.0</ns3:atemp>
          </ns3:TrackPointExtension>
        </extensions>
      </trkpt>
      <trkpt lat="42.5612592883408069610595703125" lon="19.94137485511600971221923828125">
        <ele>1023.20001220703125</ele>
        <time>2026-06-17T07:58:29.000Z</time>
        <extensions>
          <ns3:TrackPointExtension>
            <ns3:atemp>22.0</ns3:atemp>
          </ns3:TrackPointExtension>
        </extensions>
      </trkpt>
      <trkpt lat="42.56123908795416355133056640625" lon="19.94139765389263629913330078125">
        <ele>1023.4000244140625</ele>
        <time>2026-06-17T07:58:30.000Z</time>
        <extensions>
          <ns3:TrackPointExtension>
            <ns3:atemp>22.0</ns3:atemp>
          </ns3:TrackPointExtension>
        </extensions>
      </trkpt>
      <trkpt lat="42.56121662445366382598876953125" lon="19.94141760282218456268310546875">
        <ele>1023.5999755859375</ele>
        <time>2026-06-17T07:58:31.000Z</time>
        <extensions>
          <ns3:TrackPointExtension>
            <ns3:atemp>22.0</ns3:atemp>
          </ns3:TrackPointExtension>
        </extensions>
      </trkpt>
      <trkpt lat="42.56118544377386569976806640625" lon="19.941443167626857757568359375">
        <ele>1023.79998779296875</ele>
        <time>2026-06-17T07:58:32.000Z</time>
        <extensions>
          <ns3:TrackPointExtension>
            <ns3:atemp>22.0</ns3:atemp>
          </ns3:TrackPointExtension>
        </extensions>
      </trkpt>
      <trkpt lat="42.56115191616117954254150390625" lon="19.94146688841283321380615234375">
        <ele>1023.79998779296875</ele>
        <time>2026-06-17T07:58:33.000Z</time>
        <extensions>
          <ns3:TrackPointExtension>
            <ns3:atemp>22.0</ns3:atemp>
          </ns3:TrackPointExtension>
        </extensions>
      </trkpt>
      <trkpt lat="42.56111570633947849273681640625" lon="19.941494129598140716552734375">
        <ele>1023.79998779296875</ele>
        <time>2026-06-17T07:58:34.000Z</time>
        <extensions>
          <ns3:TrackPointExtension>
            <ns3:atemp>22.0</ns3:atemp>
          </ns3:TrackPointExtension>
        </extensions>
      </trkpt>
      <trkpt lat="42.561079747974872589111328125" lon="19.94152287952601909637451171875">
        <ele>1023.79998779296875</ele>
        <time>2026-06-17T07:58:35.000Z</time>
        <extensions>
          <ns3:TrackPointExtension>
            <ns3:atemp>22.0</ns3:atemp>
          </ns3:TrackPointExtension>
        </extensions>
      </trkpt>
      <trkpt lat="42.56104412488639354705810546875" lon="19.94155012071132659912109375">
        <ele>1023.5999755859375</ele>
        <time>2026-06-17T07:58:36.000Z</time>
        <extensions>
          <ns3:TrackPointExtension>
            <ns3:atemp>22.0</ns3:atemp>
          </ns3:TrackPointExtension>
        </extensions>
      </trkpt>
      <trkpt lat="42.56100774742662906646728515625" lon="19.94158071465790271759033203125">
        <ele>1023.4000244140625</ele>
        <time>2026-06-17T07:58:37.000Z</time>
        <extensions>
          <ns3:TrackPointExtension>
            <ns3:atemp>22.0</ns3:atemp>
          </ns3:TrackPointExtension>
        </extensions>
      </trkpt>
      <trkpt lat="42.5609682686626911163330078125" lon="19.94161055423319339752197265625">
        <ele>1023.4000244140625</ele>
        <time>2026-06-17T07:58:38.000Z</time>
        <extensions>
          <ns3:TrackPointExtension>
            <ns3:atemp>22.0</ns3:atemp>
          </ns3:TrackPointExtension>
        </extensions>
      </trkpt>
      <trkpt lat="42.56092309020459651947021484375" lon="19.94164089672267436981201171875">
        <ele>1023.20001220703125</ele>
        <time>2026-06-17T07:58:39.000Z</time>
        <extensions>
          <ns3:TrackPointExtension>
            <ns3:atemp>22.0</ns3:atemp>
          </ns3:TrackPointExtension>
        </extensions>
      </trkpt>
      <trkpt lat="42.56088151596486568450927734375" lon="19.94167526252567768096923828125">
        <ele>1023.20001220703125</ele>
        <time>2026-06-17T07:58:40.000Z</time>
        <extensions>
          <ns3:TrackPointExtension>
            <ns3:atemp>22.0</ns3:atemp>
          </ns3:TrackPointExtension>
        </extensions>
      </trkpt>
      <trkpt lat="42.56083994172513484954833984375" lon="19.9417051859200000762939453125">
        <ele>1023</ele>
        <time>2026-06-17T07:58:41.000Z</time>
        <extensions>
          <ns3:TrackPointExtension>
            <ns3:atemp>22.0</ns3:atemp>
          </ns3:TrackPointExtension>
        </extensions>
      </trkpt>
      <trkpt lat="42.56079845130443572998046875" lon="19.94173678569495677947998046875">
        <ele>1023.20001220703125</ele>
        <time>2026-06-17T07:58:42.000Z</time>
        <extensions>
          <ns3:TrackPointExtension>
            <ns3:atemp>22.0</ns3:atemp>
          </ns3:TrackPointExtension>
        </extensions>
      </trkpt>
      <trkpt lat="42.560758553445339202880859375" lon="19.94178037159144878387451171875">
        <ele>1023.20001220703125</ele>
        <time>2026-06-17T07:58:43.000Z</time>
        <extensions>
          <ns3:TrackPointExtension>
            <ns3:atemp>22.0</ns3:atemp>
          </ns3:TrackPointExtension>
        </extensions>
      </trkpt>
      <trkpt lat="42.5607208348810672760009765625" lon="19.94182848371565341949462890625">
        <ele>1023.20001220703125</ele>
        <time>2026-06-17T07:58:44.000Z</time>
        <extensions>
          <ns3:TrackPointExtension>
            <ns3:atemp>22.0</ns3:atemp>
          </ns3:TrackPointExtension>
        </extensions>
      </trkpt>
      <trkpt lat="42.560683786869049072265625" lon="19.9418741650879383087158203125">
        <ele>1023.20001220703125</ele>
        <time>2026-06-17T07:58:45.000Z</time>
        <extensions>
          <ns3:TrackPointExtension>
            <ns3:atemp>22.0</ns3:atemp>
          </ns3:TrackPointExtension>
        </extensions>
      </trkpt>
      <trkpt lat="42.56064464338123798370361328125" lon="19.9419190920889377593994140625">
        <ele>1023.4000244140625</ele>
        <time>2026-06-17T07:58:46.000Z</time>
        <extensions>
          <ns3:TrackPointExtension>
            <ns3:atemp>22.0</ns3:atemp>
          </ns3:TrackPointExtension>
        </extensions>
      </trkpt>
      <trkpt lat="42.5606081821024417877197265625" lon="19.94196678511798381805419921875">
        <ele>1023.4000244140625</ele>
        <time>2026-06-17T07:58:47.000Z</time>
        <extensions>
          <ns3:TrackPointExtension>
            <ns3:atemp>22.0</ns3:atemp>
          </ns3:TrackPointExtension>
        </extensions>
      </trkpt>
      <trkpt lat="42.560572139918804168701171875" lon="19.9420119635760784149169921875">
        <ele>1023.4000244140625</ele>
        <time>2026-06-17T07:58:48.000Z</time>
        <extensions>
          <ns3:TrackPointExtension>
            <ns3:atemp>22.0</ns3:atemp>
          </ns3:TrackPointExtension>
        </extensions>
      </trkpt>
      <trkpt lat="42.56053769029676914215087890625" lon="19.94205437600612640380859375">
        <ele>1023.4000244140625</ele>
        <time>2026-06-17T07:58:49.000Z</time>
        <extensions>
          <ns3:TrackPointExtension>
            <ns3:atemp>22.0</ns3:atemp>
          </ns3:TrackPointExtension>
        </extensions>
      </trkpt>
      <trkpt lat="42.56050298921763896942138671875" lon="19.94209184311330318450927734375">
        <ele>1023.4000244140625</ele>
        <time>2026-06-17T07:58:50.000Z</time>
        <extensions>
          <ns3:TrackPointExtension>
            <ns3:atemp>22.0</ns3:atemp>
          </ns3:TrackPointExtension>
        </extensions>
      </trkpt>
      <trkpt lat="42.56046862341463565826416015625" lon="19.94213090278208255767822265625">
        <ele>1023.5999755859375</ele>
        <time>2026-06-17T07:58:51.000Z</time>
        <extensions>
          <ns3:TrackPointExtension>
            <ns3:atemp>22.0</ns3:atemp>
          </ns3:TrackPointExtension>
        </extensions>
      </trkpt>
      <trkpt lat="42.56043509580194950103759765625" lon="19.9421671964228153228759765625">
        <ele>1023.5999755859375</ele>
        <time>2026-06-17T07:58:52.000Z</time>
        <extensions>
          <ns3:TrackPointExtension>
            <ns3:atemp>22.0</ns3:atemp>
          </ns3:TrackPointExtension>
        </extensions>
      </trkpt>
      <trkpt lat="42.56040475331246852874755859375" lon="19.942210614681243896484375">
        <ele>1023.5999755859375</ele>
        <time>2026-06-17T07:58:53.000Z</time>
        <extensions>
          <ns3:TrackPointExtension>
            <ns3:atemp>22.0</ns3:atemp>
          </ns3:TrackPointExtension>
        </extensions>
      </trkpt>
      <trkpt lat="42.5603755004703998565673828125" lon="19.94225713424384593963623046875">
        <ele>1023.79998779296875</ele>
        <time>2026-06-17T07:58:54.000Z</time>
        <extensions>
          <ns3:TrackPointExtension>
            <ns3:atemp>22.0</ns3:atemp>
          </ns3:TrackPointExtension>
        </extensions>
      </trkpt>
      <trkpt lat="42.5603471696376800537109375" lon="19.94230340234935283660888671875">
        <ele>1024</ele>
        <time>2026-06-17T07:58:55.000Z</time>
        <extensions>
          <ns3:TrackPointExtension>
            <ns3:atemp>22.0</ns3:atemp>
          </ns3:TrackPointExtension>
        </extensions>
      </trkpt>
      <trkpt lat="42.5603188388049602508544921875" lon="19.94234698824584484100341796875">
        <ele>1024.4000244140625</ele>
        <time>2026-06-17T07:58:56.000Z</time>
        <extensions>
          <ns3:TrackPointExtension>
            <ns3:atemp>22.0</ns3:atemp>
          </ns3:TrackPointExtension>
        </extensions>
      </trkpt>
      <trkpt lat="42.56029687821865081787109375" lon="19.9423914961516857147216796875">
        <ele>1024.5999755859375</ele>
        <time>2026-06-17T07:58:57.000Z</time>
        <extensions>
          <ns3:TrackPointExtension>
            <ns3:atemp>22.0</ns3:atemp>
          </ns3:TrackPointExtension>
        </extensions>
      </trkpt>
      <trkpt lat="42.5602729059755802154541015625" lon="19.94243801571428775787353515625">
        <ele>1024.5999755859375</ele>
        <time>2026-06-17T07:58:58.000Z</time>
        <extensions>
          <ns3:TrackPointExtension>
            <ns3:atemp>22.0</ns3:atemp>
          </ns3:TrackPointExtension>
        </extensions>
      </trkpt>
      <trkpt lat="42.560249269008636474609375" lon="19.94248352944850921630859375">
        <ele>1024.800048828125</ele>
        <time>2026-06-17T07:58:59.000Z</time>
        <extensions>
          <ns3:TrackPointExtension>
            <ns3:atemp>22.0</ns3:atemp>
          </ns3:TrackPointExtension>
        </extensions>
      </trkpt>
      <trkpt lat="42.56022269837558269500732421875" lon="19.94252937845885753631591796875">
        <ele>1024.800048828125</ele>
        <time>2026-06-17T07:59:00.000Z</time>
        <extensions>
          <ns3:TrackPointExtension>
            <ns3:atemp>22.0</ns3:atemp>
          </ns3:TrackPointExtension>
        </extensions>
      </trkpt>
      <trkpt lat="42.56019704975187778472900390625" lon="19.94257229380309581756591796875">
        <ele>1024.800048828125</ele>
        <time>2026-06-17T07:59:01.000Z</time>
        <extensions>
          <ns3:TrackPointExtension>
            <ns3:atemp>22.0</ns3:atemp>
          </ns3:TrackPointExtension>
        </extensions>
      </trkpt>
      <trkpt lat="42.5601696409285068511962890625" lon="19.94262007065117359161376953125">
        <ele>1025</ele>
        <time>2026-06-17T07:59:02.000Z</time>
        <extensions>
          <ns3:TrackPointExtension>
            <ns3:atemp>22.0</ns3:atemp>
          </ns3:TrackPointExtension>
        </extensions>
      </trkpt>
      <trkpt lat="42.56014038808643817901611328125" lon="19.9426634050905704498291015625">
        <ele>1025.199951171875</ele>
        <time>2026-06-17T07:59:03.000Z</time>
        <extensions>
          <ns3:TrackPointExtension>
            <ns3:atemp>22.0</ns3:atemp>
          </ns3:TrackPointExtension>
        </extensions>
      </trkpt>
      <trkpt lat="42.5601116381585597991943359375" lon="19.94270808063447475433349609375">
        <ele>1025.199951171875</ele>
        <time>2026-06-17T07:59:04.000Z</time>
        <extensions>
          <ns3:TrackPointExtension>
            <ns3:atemp>22.0</ns3:atemp>
          </ns3:TrackPointExtension>
        </extensions>
      </trkpt>
      <trkpt lat="42.56008355878293514251708984375" lon="19.9427510797977447509765625">
        <ele>1025.199951171875</ele>
        <time>2026-06-17T07:59:05.000Z</time>
        <extensions>
          <ns3:TrackPointExtension>
            <ns3:atemp>22.0</ns3:atemp>
          </ns3:TrackPointExtension>
        </extensions>
      </trkpt>
      <trkpt lat="42.56005723960697650909423828125" lon="19.942794330418109893798828125">
        <ele>1025.199951171875</ele>
        <time>2026-06-17T07:59:06.000Z</time>
        <extensions>
          <ns3:TrackPointExtension>
            <ns3:atemp>22.0</ns3:atemp>
          </ns3:TrackPointExtension>
        </extensions>
      </trkpt>
      <trkpt lat="42.560031674802303314208984375" lon="19.94283380918204784393310546875">
        <ele>1025.199951171875</ele>
        <time>2026-06-17T07:59:07.000Z</time>
        <extensions>
          <ns3:TrackPointExtension>
            <ns3:atemp>22.0</ns3:atemp>
          </ns3:TrackPointExtension>
        </extensions>
      </trkpt>
      <trkpt lat="42.560007534921169281005859375" lon="19.9428752996027469635009765625">
        <ele>1025.4000244140625</ele>
        <time>2026-06-17T07:59:08.000Z</time>
        <extensions>
          <ns3:TrackPointExtension>
            <ns3:atemp>22.0</ns3:atemp>
          </ns3:TrackPointExtension>
        </extensions>
      </trkpt>
      <trkpt lat="42.55998230539262294769287109375" lon="19.94292299263179302215576171875">
        <ele>1025.4000244140625</ele>
        <time>2026-06-17T07:59:09.000Z</time>
        <extensions>
          <ns3:TrackPointExtension>
            <ns3:atemp>22.0</ns3:atemp>
          </ns3:TrackPointExtension>
        </extensions>
      </trkpt>
      <trkpt lat="42.55995615385472774505615234375" lon="19.94297177530825138092041015625">
        <ele>1025.4000244140625</ele>
        <time>2026-06-17T07:59:10.000Z</time>
        <extensions>
          <ns3:TrackPointExtension>
            <ns3:atemp>22.0</ns3:atemp>
          </ns3:TrackPointExtension>
        </extensions>
      </trkpt>
      <trkpt lat="42.5599349476397037506103515625" lon="19.9430164508521556854248046875">
        <ele>1025.5999755859375</ele>
        <time>2026-06-17T07:59:11.000Z</time>
        <extensions>
          <ns3:TrackPointExtension>
            <ns3:atemp>22.0</ns3:atemp>
          </ns3:TrackPointExtension>
        </extensions>
      </trkpt>
      <trkpt lat="42.55991508252918720245361328125" lon="19.9430623836815357208251953125">
        <ele>1025.5999755859375</ele>
        <time>2026-06-17T07:59:12.000Z</time>
        <extensions>
          <ns3:TrackPointExtension>
            <ns3:atemp>22.0</ns3:atemp>
          </ns3:TrackPointExtension>
        </extensions>
      </trkpt>
      <trkpt lat="42.55989588797092437744140625" lon="19.9431089870631694793701171875">
        <ele>1025.5999755859375</ele>
        <time>2026-06-17T07:59:13.000Z</time>
        <extensions>
          <ns3:TrackPointExtension>
            <ns3:atemp>22.0</ns3:atemp>
          </ns3:TrackPointExtension>
        </extensions>
      </trkpt>
      <trkpt lat="42.55988088436424732208251953125" lon="19.9431545846164226531982421875">
        <ele>1025.5999755859375</ele>
        <time>2026-06-17T07:59:14.000Z</time>
        <extensions>
          <ns3:TrackPointExtension>
            <ns3:atemp>22.0</ns3:atemp>
          </ns3:TrackPointExtension>
        </extensions>
      </trkpt>
      <trkpt lat="42.5598648749291896820068359375" lon="19.9432016909122467041015625">
        <ele>1025.800048828125</ele>
        <time>2026-06-17T07:59:15.000Z</time>
        <extensions>
          <ns3:TrackPointExtension>
            <ns3:atemp>22.0</ns3:atemp>
          </ns3:TrackPointExtension>
        </extensions>
      </trkpt>
      <trkpt lat="42.5598482787609100341796875" lon="19.943251647055149078369140625">
        <ele>1025.800048828125</ele>
        <time>2026-06-17T07:59:16.000Z</time>
        <extensions>
          <ns3:TrackPointExtension>
            <ns3:atemp>22.0</ns3:atemp>
          </ns3:TrackPointExtension>
        </extensions>
      </trkpt>
      <trkpt lat="42.55983009003102779388427734375" lon="19.94330135174095630645751953125">
        <ele>1025.800048828125</ele>
        <time>2026-06-17T07:59:17.000Z</time>
        <extensions>
          <ns3:TrackPointExtension>
            <ns3:atemp>22.0</ns3:atemp>
          </ns3:TrackPointExtension>
        </extensions>
      </trkpt>
      <trkpt lat="42.559817098081111907958984375" lon="19.94335516355931758880615234375">
        <ele>1026</ele>
        <time>2026-06-17T07:59:18.000Z</time>
        <extensions>
          <ns3:TrackPointExtension>
            <ns3:atemp>22.0</ns3:atemp>
          </ns3:TrackPointExtension>
        </extensions>
      </trkpt>
      <trkpt lat="42.55980410613119602203369140625" lon="19.94340914301574230194091796875">
        <ele>1026</ele>
        <time>2026-06-17T07:59:19.000Z</time>
        <extensions>
          <ns3:TrackPointExtension>
            <ns3:atemp>22.0</ns3:atemp>
          </ns3:TrackPointExtension>
        </extensions>
      </trkpt>
      <trkpt lat="42.559793293476104736328125" lon="19.9434610269963741302490234375">
        <ele>1026</ele>
        <time>2026-06-17T07:59:20.000Z</time>
        <extensions>
          <ns3:TrackPointExtension>
            <ns3:atemp>22.0</ns3:atemp>
          </ns3:TrackPointExtension>
        </extensions>
      </trkpt>
      <trkpt lat="42.5597844086587429046630859375" lon="19.94351458735764026641845703125">
        <ele>1026</ele>
        <time>2026-06-17T07:59:21.000Z</time>
        <extensions>
          <ns3:TrackPointExtension>
            <ns3:atemp>22.0</ns3:atemp>
          </ns3:TrackPointExtension>
        </extensions>
      </trkpt>
      <trkpt lat="42.55977560766041278839111328125" lon="19.94357007555663585662841796875">
        <ele>1026</ele>
        <time>2026-06-17T07:59:22.000Z</time>
        <extensions>
          <ns3:TrackPointExtension>
            <ns3:atemp>22.0</ns3:atemp>
          </ns3:TrackPointExtension>
        </extensions>
      </trkpt>
      <trkpt lat="42.5597676448523998260498046875" lon="19.94363109581172466278076171875">
        <ele>1026</ele>
        <time>2026-06-17T07:59:23.000Z</time>
        <extensions>
          <ns3:TrackPointExtension>
            <ns3:atemp>22.0</ns3:atemp>
          </ns3:TrackPointExtension>
        </extensions>
      </trkpt>
      <trkpt lat="42.5597619451582431793212890625" lon="19.94369186460971832275390625">
        <ele>1026</ele>
        <time>2026-06-17T07:59:24.000Z</time>
        <extensions>
          <ns3:TrackPointExtension>
            <ns3:atemp>22.0</ns3:atemp>
          </ns3:TrackPointExtension>
        </extensions>
      </trkpt>
      <trkpt lat="42.55975331179797649383544921875" lon="19.943755567073822021484375">
        <ele>1026</ele>
        <time>2026-06-17T07:59:25.000Z</time>
        <extensions>
          <ns3:TrackPointExtension>
            <ns3:atemp>22.0</ns3:atemp>
          </ns3:TrackPointExtension>
        </extensions>
      </trkpt>
      <trkpt lat="42.55974425934255123138427734375" lon="19.943819604814052581787109375">
        <ele>1026</ele>
        <time>2026-06-17T07:59:26.000Z</time>
        <extensions>
          <ns3:TrackPointExtension>
            <ns3:atemp>22.0</ns3:atemp>
          </ns3:TrackPointExtension>
        </extensions>
      </trkpt>
      <trkpt lat="42.5597304292023181915283203125" lon="19.943879954516887664794921875">
        <ele>1026</ele>
        <time>2026-06-17T07:59:27.000Z</time>
        <extensions>
          <ns3:TrackPointExtension>
            <ns3:atemp>22.0</ns3:atemp>
          </ns3:TrackPointExtension>
        </extensions>
      </trkpt>
      <trkpt lat="42.55971106700599193572998046875" lon="19.94393887929618358612060546875">
        <ele>1026</ele>
        <time>2026-06-17T07:59:28.000Z</time>
        <extensions>
          <ns3:TrackPointExtension>
            <ns3:atemp>22.0</ns3:atemp>
          </ns3:TrackPointExtension>
        </extensions>
      </trkpt>
      <trkpt lat="42.5596927106380462646484375" lon="19.94400023482739925384521484375">
        <ele>1026</ele>
        <time>2026-06-17T07:59:29.000Z</time>
        <extensions>
          <ns3:TrackPointExtension>
            <ns3:atemp>22.0</ns3:atemp>
          </ns3:TrackPointExtension>
        </extensions>
      </trkpt>
      <trkpt lat="42.5596725940704345703125" lon="19.944057650864124298095703125">
        <ele>1026</ele>
        <time>2026-06-17T07:59:30.000Z</time>
        <extensions>
          <ns3:TrackPointExtension>
            <ns3:atemp>22.0</ns3:atemp>
          </ns3:TrackPointExtension>
        </extensions>
      </trkpt>
      <trkpt lat="42.55964887328445911407470703125" lon="19.94411020539700984954833984375">
        <ele>1026.199951171875</ele>
        <time>2026-06-17T07:59:31.000Z</time>
        <extensions>
          <ns3:TrackPointExtension>
            <ns3:atemp>22.0</ns3:atemp>
          </ns3:TrackPointExtension>
        </extensions>
      </trkpt>
      <trkpt lat="42.55962389521300792694091796875" lon="19.944156222045421600341796875">
        <ele>1026.199951171875</ele>
        <time>2026-06-17T07:59:32.000Z</time>
        <extensions>
          <ns3:TrackPointExtension>
            <ns3:atemp>22.0</ns3:atemp>
          </ns3:TrackPointExtension>
        </extensions>
      </trkpt>
      <trkpt lat="42.55959321744740009307861328125" lon="19.94420240633189678192138671875">
        <ele>1026.4000244140625</ele>
        <time>2026-06-17T07:59:33.000Z</time>
        <extensions>
          <ns3:TrackPointExtension>
            <ns3:atemp>22.0</ns3:atemp>
          </ns3:TrackPointExtension>
        </extensions>
      </trkpt>
      <trkpt lat="42.55955717526376247406005859375" lon="19.94424037635326385498046875">
        <ele>1026.4000244140625</ele>
        <time>2026-06-17T07:59:34.000Z</time>
        <extensions>
          <ns3:TrackPointExtension>
            <ns3:atemp>22.0</ns3:atemp>
          </ns3:TrackPointExtension>
        </extensions>
      </trkpt>
      <trkpt lat="42.55951794795691967010498046875" lon="19.9442744068801403045654296875">
        <ele>1026.4000244140625</ele>
        <time>2026-06-17T07:59:35.000Z</time>
        <extensions>
          <ns3:TrackPointExtension>
            <ns3:atemp>22.0</ns3:atemp>
          </ns3:TrackPointExtension>
        </extensions>
      </trkpt>
      <trkpt lat="42.55947788245975971221923828125" lon="19.94429804384708404541015625">
        <ele>1026.4000244140625</ele>
        <time>2026-06-17T07:59:36.000Z</time>
        <extensions>
          <ns3:TrackPointExtension>
            <ns3:atemp>22.0</ns3:atemp>
          </ns3:TrackPointExtension>
        </extensions>
      </trkpt>
      <trkpt lat="42.55944066680967807769775390625" lon="19.9443106167018413543701171875">
        <ele>1026.4000244140625</ele>
        <time>2026-06-17T07:59:37.000Z</time>
        <extensions>
          <ns3:TrackPointExtension>
            <ns3:atemp>22.0</ns3:atemp>
          </ns3:TrackPointExtension>
        </extensions>
      </trkpt>
      <trkpt lat="42.5594031997025012969970703125" lon="19.94432243518531322479248046875">
        <ele>1026.4000244140625</ele>
        <time>2026-06-17T07:59:38.000Z</time>
        <extensions>
          <ns3:TrackPointExtension>
            <ns3:atemp>22.0</ns3:atemp>
          </ns3:TrackPointExtension>
        </extensions>
      </trkpt>
      <trkpt lat="42.55936221219599246978759765625" lon="19.94433484040200710296630859375">
        <ele>1026.5999755859375</ele>
        <time>2026-06-17T07:59:39.000Z</time>
        <extensions>
          <ns3:TrackPointExtension>
            <ns3:atemp>22.0</ns3:atemp>
          </ns3:TrackPointExtension>
        </extensions>
      </trkpt>
      <trkpt lat="42.5593252480030059814453125" lon="19.94434791617095470428466796875">
        <ele>1026.5999755859375</ele>
        <time>2026-06-17T07:59:40.000Z</time>
        <extensions>
          <ns3:TrackPointExtension>
            <ns3:atemp>22.0</ns3:atemp>
          </ns3:TrackPointExtension>
        </extensions>
      </trkpt>
      <trkpt lat="42.5592922233045101165771484375" lon="19.94435562752187252044677734375">
        <ele>1026.800048828125</ele>
        <time>2026-06-17T07:59:41.000Z</time>
        <extensions>
          <ns3:TrackPointExtension>
            <ns3:atemp>22.0</ns3:atemp>
          </ns3:TrackPointExtension>
        </extensions>
      </trkpt>
      <trkpt lat="42.55926129408180713653564453125" lon="19.9443657696247100830078125">
        <ele>1027.199951171875</ele>
        <time>2026-06-17T07:59:42.000Z</time>
        <extensions>
          <ns3:TrackPointExtension>
            <ns3:atemp>22.0</ns3:atemp>
          </ns3:TrackPointExtension>
        </extensions>
      </trkpt>
      <trkpt lat="42.55922961048781871795654296875" lon="19.9443790130317211151123046875">
        <ele>1027.4000244140625</ele>
        <time>2026-06-17T07:59:43.000Z</time>
        <extensions>
          <ns3:TrackPointExtension>
            <ns3:atemp>22.0</ns3:atemp>
          </ns3:TrackPointExtension>
        </extensions>
      </trkpt>
      <trkpt lat="42.5591980107128620147705078125" lon="19.944395609200000762939453125">
        <ele>1027.5999755859375</ele>
        <time>2026-06-17T07:59:44.000Z</time>
        <extensions>
          <ns3:TrackPointExtension>
            <ns3:atemp>22.0</ns3:atemp>
          </ns3:TrackPointExtension>
        </extensions>
      </trkpt>
      <trkpt lat="42.55916842259466648101806640625" lon="19.9444075115025043487548828125">
        <ele>1027.800048828125</ele>
        <time>2026-06-17T07:59:45.000Z</time>
        <extensions>
          <ns3:TrackPointExtension>
            <ns3:atemp>22.0</ns3:atemp>
          </ns3:TrackPointExtension>
        </extensions>
      </trkpt>
      <trkpt lat="42.55913808010518550872802734375" lon="19.94441606104373931884765625">
        <ele>1028</ele>
        <time>2026-06-17T07:59:46.000Z</time>
        <extensions>
          <ns3:TrackPointExtension>
            <ns3:atemp>22.0</ns3:atemp>
          </ns3:TrackPointExtension>
        </extensions>
      </trkpt>
      <trkpt lat="42.5591081567108631134033203125" lon="19.9444279633462429046630859375">
        <ele>1028.199951171875</ele>
        <time>2026-06-17T07:59:47.000Z</time>
        <extensions>
          <ns3:TrackPointExtension>
            <ns3:atemp>22.0</ns3:atemp>
          </ns3:TrackPointExtension>
        </extensions>
      </trkpt>
      <trkpt lat="42.5590783171355724334716796875" lon="19.9444393627345561981201171875">
        <ele>1028.4000244140625</ele>
        <time>2026-06-17T07:59:48.000Z</time>
        <extensions>
          <ns3:TrackPointExtension>
            <ns3:atemp>22.0</ns3:atemp>
          </ns3:TrackPointExtension>
        </extensions>
      </trkpt>
      <trkpt lat="42.559044621884822845458984375" lon="19.944455623626708984375">
        <ele>1028.4000244140625</ele>
        <time>2026-06-17T07:59:49.000Z</time>
        <extensions>
          <ns3:TrackPointExtension>
            <ns3:atemp>22.0</ns3:atemp>
          </ns3:TrackPointExtension>
        </extensions>
      </trkpt>
      <trkpt lat="42.55901000462472438812255859375" lon="19.94446995668113231658935546875">
        <ele>1028.4000244140625</ele>
        <time>2026-06-17T07:59:50.000Z</time>
        <extensions>
          <ns3:TrackPointExtension>
            <ns3:atemp>22.0</ns3:atemp>
          </ns3:TrackPointExtension>
        </extensions>
      </trkpt>
      <trkpt lat="42.55896943621337413787841796875" lon="19.94448889978229999542236328125">
        <ele>1028.5999755859375</ele>
        <time>2026-06-17T07:59:51.000Z</time>
        <extensions>
          <ns3:TrackPointExtension>
            <ns3:atemp>22.0</ns3:atemp>
          </ns3:TrackPointExtension>
        </extensions>
      </trkpt>
      <trkpt lat="42.5589338131248950958251953125" lon="19.94450935162603855133056640625">
        <ele>1028.5999755859375</ele>
        <time>2026-06-17T07:59:52.000Z</time>
        <extensions>
          <ns3:TrackPointExtension>
            <ns3:atemp>22.0</ns3:atemp>
          </ns3:TrackPointExtension>
        </extensions>
      </trkpt>
      <trkpt lat="42.5588972680270671844482421875" lon="19.94453583844006061553955078125">
        <ele>1028.5999755859375</ele>
        <time>2026-06-17T07:59:53.000Z</time>
        <extensions>
          <ns3:TrackPointExtension>
            <ns3:atemp>22.0</ns3:atemp>
          </ns3:TrackPointExtension>
        </extensions>
      </trkpt>
      <trkpt lat="42.55886256694793701171875" lon="19.9445650912821292877197265625">
        <ele>1028.5999755859375</ele>
        <time>2026-06-17T07:59:54.000Z</time>
        <extensions>
          <ns3:TrackPointExtension>
            <ns3:atemp>22.0</ns3:atemp>
          </ns3:TrackPointExtension>
        </extensions>
      </trkpt>
      <trkpt lat="42.5588271953165531158447265625" lon="19.94460222311317920684814453125">
        <ele>1028.5999755859375</ele>
        <time>2026-06-17T07:59:55.000Z</time>
        <extensions>
          <ns3:TrackPointExtension>
            <ns3:atemp>22.0</ns3:atemp>
          </ns3:TrackPointExtension>
        </extensions>
      </trkpt>
      <trkpt lat="42.5587926618754863739013671875" lon="19.944639019668102264404296875">
        <ele>1028.5999755859375</ele>
        <time>2026-06-17T07:59:56.000Z</time>
        <extensions>
          <ns3:TrackPointExtension>
            <ns3:atemp>22.0</ns3:atemp>
          </ns3:TrackPointExtension>
        </extensions>
      </trkpt>
      <trkpt lat="42.5587604753673076629638671875" lon="19.94467464275658130645751953125">
        <ele>1028.800048828125</ele>
        <time>2026-06-17T07:59:57.000Z</time>
        <extensions>
          <ns3:TrackPointExtension>
            <ns3:atemp>22.0</ns3:atemp>
          </ns3:TrackPointExtension>
        </extensions>
      </trkpt>
      <trkpt lat="42.55872904323041439056396484375" lon="19.9447099305689334869384765625">
        <ele>1028.800048828125</ele>
        <time>2026-06-17T07:59:58.000Z</time>
        <extensions>
          <ns3:TrackPointExtension>
            <ns3:atemp>22.0</ns3:atemp>
          </ns3:TrackPointExtension>
        </extensions>
      </trkpt>
      <trkpt lat="42.5586987845599651336669921875" lon="19.944749660789966583251953125">
        <ele>1028.800048828125</ele>
        <time>2026-06-17T07:59:59.000Z</time>
        <extensions>
          <ns3:TrackPointExtension>
            <ns3:atemp>22.0</ns3:atemp>
          </ns3:TrackPointExtension>
        </extensions>
      </trkpt>
      <trkpt lat="42.55867154337465763092041015625" lon="19.94478813372552394866943359375">
        <ele>1028.800048828125</ele>
        <time>2026-06-17T08:00:00.000Z</time>
        <extensions>
          <ns3:TrackPointExtension>
            <ns3:atemp>22.0</ns3:atemp>
          </ns3:TrackPointExtension>
        </extensions>
      </trkpt>
      <trkpt lat="42.55864472128450870513916015625" lon="19.94482836686074733734130859375">
        <ele>1028.800048828125</ele>
        <time>2026-06-17T08:00:01.000Z</time>
        <extensions>
          <ns3:TrackPointExtension>
            <ns3:atemp>22.0</ns3:atemp>
          </ns3:TrackPointExtension>
        </extensions>
      </trkpt>
      <trkpt lat="42.55861722864210605621337890625" lon="19.94486809708178043365478515625">
        <ele>1029</ele>
        <time>2026-06-17T08:00:02.000Z</time>
        <extensions>
          <ns3:TrackPointExtension>
            <ns3:atemp>22.0</ns3:atemp>
          </ns3:TrackPointExtension>
        </extensions>
      </trkpt>
      <trkpt lat="42.55858990363776683807373046875" lon="19.9449075758457183837890625">
        <ele>1029</ele>
        <time>2026-06-17T08:00:03.000Z</time>
        <extensions>
          <ns3:TrackPointExtension>
            <ns3:atemp>22.0</ns3:atemp>
          </ns3:TrackPointExtension>
        </extensions>
      </trkpt>
      <trkpt lat="42.5585673563182353973388671875" lon="19.9449493177235126495361328125">
        <ele>1029</ele>
        <time>2026-06-17T08:00:04.000Z</time>
        <extensions>
          <ns3:TrackPointExtension>
            <ns3:atemp>22.0</ns3:atemp>
          </ns3:TrackPointExtension>
        </extensions>
      </trkpt>
      <trkpt lat="42.5585462339222431182861328125" lon="19.94499365799129009246826171875">
        <ele>1029.199951171875</ele>
        <time>2026-06-17T08:00:05.000Z</time>
        <extensions>
          <ns3:TrackPointExtension>
            <ns3:atemp>22.0</ns3:atemp>
          </ns3:TrackPointExtension>
        </extensions>
      </trkpt>
      <trkpt lat="42.55853022448718547821044921875" lon="19.94504026137292385101318359375">
        <ele>1029.199951171875</ele>
        <time>2026-06-17T08:00:06.000Z</time>
        <extensions>
          <ns3:TrackPointExtension>
            <ns3:atemp>22.0</ns3:atemp>
          </ns3:TrackPointExtension>
        </extensions>
      </trkpt>
      <trkpt lat="42.55851052701473236083984375" lon="19.94508518837392330169677734375">
        <ele>1029.199951171875</ele>
        <time>2026-06-17T08:00:07.000Z</time>
        <extensions>
          <ns3:TrackPointExtension>
            <ns3:atemp>22.0</ns3:atemp>
          </ns3:TrackPointExtension>
        </extensions>
      </trkpt>
      <trkpt lat="42.5584937632083892822265625" lon="19.9451370723545551300048828125">
        <ele>1029.199951171875</ele>
        <time>2026-06-17T08:00:08.000Z</time>
        <extensions>
          <ns3:TrackPointExtension>
            <ns3:atemp>22.0</ns3:atemp>
          </ns3:TrackPointExtension>
        </extensions>
      </trkpt>
      <trkpt lat="42.5584771670401096343994140625" lon="19.94518878869712352752685546875">
        <ele>1029.4000244140625</ele>
        <time>2026-06-17T08:00:09.000Z</time>
        <extensions>
          <ns3:TrackPointExtension>
            <ns3:atemp>22.0</ns3:atemp>
          </ns3:TrackPointExtension>
        </extensions>
      </trkpt>
      <trkpt lat="42.55846132524311542510986328125" lon="19.94523706845939159393310546875">
        <ele>1029.4000244140625</ele>
        <time>2026-06-17T08:00:10.000Z</time>
        <extensions>
          <ns3:TrackPointExtension>
            <ns3:atemp>22.0</ns3:atemp>
          </ns3:TrackPointExtension>
        </extensions>
      </trkpt>
      <trkpt lat="42.55844523198902606964111328125" lon="19.94528249837458133697509765625">
        <ele>1029.5999755859375</ele>
        <time>2026-06-17T08:00:11.000Z</time>
        <extensions>
          <ns3:TrackPointExtension>
            <ns3:atemp>22.0</ns3:atemp>
          </ns3:TrackPointExtension>
        </extensions>
      </trkpt>
      <trkpt lat="42.55842729471623897552490234375" lon="19.9453285150229930877685546875">
        <ele>1029.5999755859375</ele>
        <time>2026-06-17T08:00:12.000Z</time>
        <extensions>
          <ns3:TrackPointExtension>
            <ns3:atemp>22.0</ns3:atemp>
          </ns3:TrackPointExtension>
        </extensions>
      </trkpt>
      <trkpt lat="42.5584050826728343963623046875" lon="19.94537570513784885406494140625">
        <ele>1029.800048828125</ele>
        <time>2026-06-17T08:00:13.000Z</time>
        <extensions>
          <ns3:TrackPointExtension>
            <ns3:atemp>22.0</ns3:atemp>
          </ns3:TrackPointExtension>
        </extensions>
      </trkpt>
      <trkpt lat="42.5583806075155735015869140625" lon="19.94541526772081851959228515625">
        <ele>1029.800048828125</ele>
        <time>2026-06-17T08:00:14.000Z</time>
        <extensions>
          <ns3:TrackPointExtension>
            <ns3:atemp>22.0</ns3:atemp>
          </ns3:TrackPointExtension>
        </extensions>
      </trkpt>
      <trkpt lat="42.55835185758769512176513671875" lon="19.9454472027719020843505859375">
        <ele>1030</ele>
        <time>2026-06-17T08:00:15.000Z</time>
        <extensions>
          <ns3:TrackPointExtension>
            <ns3:atemp>22.0</ns3:atemp>
          </ns3:TrackPointExtension>
        </extensions>
      </trkpt>
      <trkpt lat="42.5583202578127384185791015625" lon="19.945473857223987579345703125">
        <ele>1030</ele>
        <time>2026-06-17T08:00:16.000Z</time>
        <extensions>
          <ns3:TrackPointExtension>
            <ns3:atemp>22.0</ns3:atemp>
          </ns3:TrackPointExtension>
        </extensions>
      </trkpt>
      <trkpt lat="42.55828161723911762237548828125" lon="19.94550143368542194366455078125">
        <ele>1030.199951171875</ele>
        <time>2026-06-17T08:00:17.000Z</time>
        <extensions>
          <ns3:TrackPointExtension>
            <ns3:atemp>22.0</ns3:atemp>
          </ns3:TrackPointExtension>
        </extensions>
      </trkpt>
      <trkpt lat="42.55824272520840167999267578125" lon="19.9455135874450206756591796875">
        <ele>1030.199951171875</ele>
        <time>2026-06-17T08:00:18.000Z</time>
        <extensions>
          <ns3:TrackPointExtension>
            <ns3:atemp>22.0</ns3:atemp>
          </ns3:TrackPointExtension>
        </extensions>
      </trkpt>
      <trkpt lat="42.55819561891257762908935546875" lon="19.9455209635198116302490234375">
        <ele>1030.4000244140625</ele>
        <time>2026-06-17T08:00:19.000Z</time>
        <extensions>
          <ns3:TrackPointExtension>
            <ns3:atemp>22.0</ns3:atemp>
          </ns3:TrackPointExtension>
        </extensions>
      </trkpt>
      <trkpt lat="42.55814985372126102447509765625" lon="19.94552892632782459259033203125">
        <ele>1030.4000244140625</ele>
        <time>2026-06-17T08:00:20.000Z</time>
        <extensions>
          <ns3:TrackPointExtension>
            <ns3:atemp>22.0</ns3:atemp>
          </ns3:TrackPointExtension>
        </extensions>
      </trkpt>
      <trkpt lat="42.55811012350022792816162109375" lon="19.94555407203733921051025390625">
        <ele>1030.199951171875</ele>
        <time>2026-06-17T08:00:21.000Z</time>
        <extensions>
          <ns3:TrackPointExtension>
            <ns3:atemp>22.0</ns3:atemp>
          </ns3:TrackPointExtension>
        </extensions>
      </trkpt>
      <trkpt lat="42.5580815412104129791259765625" lon="19.9456037767231464385986328125">
        <ele>1030.199951171875</ele>
        <time>2026-06-17T08:00:22.000Z</time>
        <extensions>
          <ns3:TrackPointExtension>
            <ns3:atemp>22.0</ns3:atemp>
          </ns3:TrackPointExtension>
        </extensions>
      </trkpt>
      <trkpt lat="42.5580688007175922393798828125" lon="19.94566437788307666778564453125">
        <ele>1030.199951171875</ele>
        <time>2026-06-17T08:00:23.000Z</time>
        <extensions>
          <ns3:TrackPointExtension>
            <ns3:atemp>22.0</ns3:atemp>
          </ns3:TrackPointExtension>
        </extensions>
      </trkpt>
      <trkpt lat="42.55806335248053073883056640625" lon="19.94572791270911693572998046875">
        <ele>1030</ele>
        <time>2026-06-17T08:00:24.000Z</time>
        <extensions>
          <ns3:TrackPointExtension>
            <ns3:atemp>22.0</ns3:atemp>
          </ns3:TrackPointExtension>
        </extensions>
      </trkpt>
      <trkpt lat="42.55806528031826019287109375" lon="19.94579245336353778839111328125">
        <ele>1030</ele>
        <time>2026-06-17T08:00:25.000Z</time>
        <extensions>
          <ns3:TrackPointExtension>
            <ns3:atemp>22.0</ns3:atemp>
          </ns3:TrackPointExtension>
        </extensions>
      </trkpt>
      <trkpt lat="42.5580672919750213623046875" lon="19.945864789187908172607421875">
        <ele>1030</ele>
        <time>2026-06-17T08:00:26.000Z</time>
        <extensions>
          <ns3:TrackPointExtension>
            <ns3:atemp>22.0</ns3:atemp>
          </ns3:TrackPointExtension>
        </extensions>
      </trkpt>
      <trkpt lat="42.55806318484246730804443359375" lon="19.94592748582363128662109375">
        <ele>1030</ele>
        <time>2026-06-17T08:00:27.000Z</time>
        <extensions>
          <ns3:TrackPointExtension>
            <ns3:atemp>22.0</ns3:atemp>
          </ns3:TrackPointExtension>
        </extensions>
      </trkpt>
      <trkpt lat="42.55805329419672489166259765625" lon="19.94599244557321071624755859375">
        <ele>1030</ele>
        <time>2026-06-17T08:00:28.000Z</time>
        <extensions>
          <ns3:TrackPointExtension>
            <ns3:atemp>22.0</ns3:atemp>
          </ns3:TrackPointExtension>
        </extensions>
      </trkpt>
      <trkpt lat="42.5580377876758575439453125" lon="19.9460574053227901458740234375">
        <ele>1030.199951171875</ele>
        <time>2026-06-17T08:00:29.000Z</time>
        <extensions>
          <ns3:TrackPointExtension>
            <ns3:atemp>22.0</ns3:atemp>
          </ns3:TrackPointExtension>
        </extensions>
      </trkpt>
      <trkpt lat="42.55802110768854618072509765625" lon="19.94611599482595920562744140625">
        <ele>1030.199951171875</ele>
        <time>2026-06-17T08:00:30.000Z</time>
        <extensions>
          <ns3:TrackPointExtension>
            <ns3:atemp>22.0</ns3:atemp>
          </ns3:TrackPointExtension>
        </extensions>
      </trkpt>
      <trkpt lat="42.55800618790090084075927734375" lon="19.946175254881381988525390625">
        <ele>1030.4000244140625</ele>
        <time>2026-06-17T08:00:31.000Z</time>
        <extensions>
          <ns3:TrackPointExtension>
            <ns3:atemp>22.0</ns3:atemp>
          </ns3:TrackPointExtension>
        </extensions>
      </trkpt>
      <trkpt lat="42.55799210630357265472412109375" lon="19.9462325870990753173828125">
        <ele>1030.5999755859375</ele>
        <time>2026-06-17T08:00:32.000Z</time>
        <extensions>
          <ns3:TrackPointExtension>
            <ns3:atemp>22.0</ns3:atemp>
          </ns3:TrackPointExtension>
        </extensions>
      </trkpt>
      <trkpt lat="42.557974755764007568359375" lon="19.9462884105741977691650390625">
        <ele>1031</ele>
        <time>2026-06-17T08:00:33.000Z</time>
        <extensions>
          <ns3:TrackPointExtension>
            <ns3:atemp>22.0</ns3:atemp>
          </ns3:TrackPointExtension>
        </extensions>
      </trkpt>
      <trkpt lat="42.55795991979539394378662109375" lon="19.9463420547544956207275390625">
        <ele>1031.199951171875</ele>
        <time>2026-06-17T08:00:34.000Z</time>
        <extensions>
          <ns3:TrackPointExtension>
            <ns3:atemp>22.0</ns3:atemp>
          </ns3:TrackPointExtension>
        </extensions>
      </trkpt>
      <trkpt lat="42.5579413957893848419189453125" lon="19.94639729149639606475830078125">
        <ele>1031.199951171875</ele>
        <time>2026-06-17T08:00:35.000Z</time>
        <extensions>
          <ns3:TrackPointExtension>
            <ns3:atemp>22.0</ns3:atemp>
          </ns3:TrackPointExtension>
        </extensions>
      </trkpt>
      <trkpt lat="42.557923793792724609375" lon="19.9464533664286136627197265625">
        <ele>1031.4000244140625</ele>
        <time>2026-06-17T08:00:36.000Z</time>
        <extensions>
          <ns3:TrackPointExtension>
            <ns3:atemp>22.0</ns3:atemp>
          </ns3:TrackPointExtension>
        </extensions>
      </trkpt>
      <trkpt lat="42.5579061917960643768310546875" lon="19.94650709442794322967529296875">
        <ele>1031.4000244140625</ele>
        <time>2026-06-17T08:00:37.000Z</time>
        <extensions>
          <ns3:TrackPointExtension>
            <ns3:atemp>22.0</ns3:atemp>
          </ns3:TrackPointExtension>
        </extensions>
      </trkpt>
      <trkpt lat="42.55788750015199184417724609375" lon="19.94656241498887538909912109375">
        <ele>1031.4000244140625</ele>
        <time>2026-06-17T08:00:38.000Z</time>
        <extensions>
          <ns3:TrackPointExtension>
            <ns3:atemp>22.0</ns3:atemp>
          </ns3:TrackPointExtension>
        </extensions>
      </trkpt>
      <trkpt lat="42.55786755122244358062744140625" lon="19.9466173164546489715576171875">
        <ele>1031.199951171875</ele>
        <time>2026-06-17T08:00:39.000Z</time>
        <extensions>
          <ns3:TrackPointExtension>
            <ns3:atemp>22.0</ns3:atemp>
          </ns3:TrackPointExtension>
        </extensions>
      </trkpt>
      <trkpt lat="42.55784525536000728607177734375" lon="19.94667221792042255401611328125">
        <ele>1031.4000244140625</ele>
        <time>2026-06-17T08:00:40.000Z</time>
        <extensions>
          <ns3:TrackPointExtension>
            <ns3:atemp>22.0</ns3:atemp>
          </ns3:TrackPointExtension>
        </extensions>
      </trkpt>
      <trkpt lat="42.557822875678539276123046875" lon="19.946726448833942413330078125">
        <ele>1031.4000244140625</ele>
        <time>2026-06-17T08:00:41.000Z</time>
        <extensions>
          <ns3:TrackPointExtension>
            <ns3:atemp>22.0</ns3:atemp>
          </ns3:TrackPointExtension>
        </extensions>
      </trkpt>
      <trkpt lat="42.55779982544481754302978515625" lon="19.94678487069904804229736328125">
        <ele>1031.5999755859375</ele>
        <time>2026-06-17T08:00:42.000Z</time>
        <extensions>
          <ns3:TrackPointExtension>
            <ns3:atemp>22.0</ns3:atemp>
          </ns3:TrackPointExtension>
        </extensions>
      </trkpt>
      <trkpt lat="42.55778004415333271026611328125" lon="19.9468432925641536712646484375">
        <ele>1031.800048828125</ele>
        <time>2026-06-17T08:00:43.000Z</time>
        <extensions>
          <ns3:TrackPointExtension>
            <ns3:atemp>22.0</ns3:atemp>
          </ns3:TrackPointExtension>
        </extensions>
      </trkpt>
      <trkpt lat="42.55776219069957733154296875" lon="19.9468986131250858306884765625">
        <ele>1032.199951171875</ele>
        <time>2026-06-17T08:00:44.000Z</time>
        <extensions>
          <ns3:TrackPointExtension>
            <ns3:atemp>22.0</ns3:atemp>
          </ns3:TrackPointExtension>
        </extensions>
      </trkpt>
      <trkpt lat="42.5577425770461559295654296875" lon="19.94694345630705356597900390625">
        <ele>1032.4000244140625</ele>
        <time>2026-06-17T08:00:45.000Z</time>
        <extensions>
          <ns3:TrackPointExtension>
            <ns3:atemp>22.0</ns3:atemp>
          </ns3:TrackPointExtension>
        </extensions>
      </trkpt>
      <trkpt lat="42.55772774107754230499267578125" lon="19.94699290953576564788818359375">
        <ele>1032.5999755859375</ele>
        <time>2026-06-17T08:00:46.000Z</time>
        <extensions>
          <ns3:TrackPointExtension>
            <ns3:atemp>22.0</ns3:atemp>
          </ns3:TrackPointExtension>
        </extensions>
      </trkpt>
      <trkpt lat="42.55771256983280181884765625" lon="19.94704035110771656036376953125">
        <ele>1032.800048828125</ele>
        <time>2026-06-17T08:00:47.000Z</time>
        <extensions>
          <ns3:TrackPointExtension>
            <ns3:atemp>22.0</ns3:atemp>
          </ns3:TrackPointExtension>
        </extensions>
      </trkpt>
      <trkpt lat="42.55769706331193447113037109375" lon="19.94709500111639499664306640625">
        <ele>1033</ele>
        <time>2026-06-17T08:00:48.000Z</time>
        <extensions>
          <ns3:TrackPointExtension>
            <ns3:atemp>22.0</ns3:atemp>
          </ns3:TrackPointExtension>
        </extensions>
      </trkpt>
      <trkpt lat="42.55768013186752796173095703125" lon="19.947144873440265655517578125">
        <ele>1033.199951171875</ele>
        <time>2026-06-17T08:00:49.000Z</time>
        <extensions>
          <ns3:TrackPointExtension>
            <ns3:atemp>22.0</ns3:atemp>
          </ns3:TrackPointExtension>
        </extensions>
      </trkpt>
      <trkpt lat="42.55766219459474086761474609375" lon="19.9471943266689777374267578125">
        <ele>1033.5999755859375</ele>
        <time>2026-06-17T08:00:50.000Z</time>
        <extensions>
          <ns3:TrackPointExtension>
            <ns3:atemp>22.0</ns3:atemp>
          </ns3:TrackPointExtension>
        </extensions>
      </trkpt>
      <trkpt lat="42.55764626897871494293212890625" lon="19.9472491443157196044921875">
        <ele>1033.800048828125</ele>
        <time>2026-06-17T08:00:51.000Z</time>
        <extensions>
          <ns3:TrackPointExtension>
            <ns3:atemp>22.0</ns3:atemp>
          </ns3:TrackPointExtension>
        </extensions>
      </trkpt>
      <trkpt lat="42.5576319359242916107177734375" lon="19.9473039619624614715576171875">
        <ele>1034</ele>
        <time>2026-06-17T08:00:52.000Z</time>
        <extensions>
          <ns3:TrackPointExtension>
            <ns3:atemp>22.0</ns3:atemp>
          </ns3:TrackPointExtension>
        </extensions>
      </trkpt>
      <trkpt lat="42.55762229673564434051513671875" lon="19.94736087508499622344970703125">
        <ele>1034.199951171875</ele>
        <time>2026-06-17T08:00:53.000Z</time>
        <extensions>
          <ns3:TrackPointExtension>
            <ns3:atemp>22.0</ns3:atemp>
          </ns3:TrackPointExtension>
        </extensions>
      </trkpt>
      <trkpt lat="42.557609640061855316162109375" lon="19.94742021895945072174072265625">
        <ele>1034.4000244140625</ele>
        <time>2026-06-17T08:00:54.000Z</time>
        <extensions>
          <ns3:TrackPointExtension>
            <ns3:atemp>22.0</ns3:atemp>
          </ns3:TrackPointExtension>
        </extensions>
      </trkpt>
      <trkpt lat="42.55759882740676403045654296875" lon="19.94747973047196865081787109375">
        <ele>1034.4000244140625</ele>
        <time>2026-06-17T08:00:55.000Z</time>
        <extensions>
          <ns3:TrackPointExtension>
            <ns3:atemp>22.0</ns3:atemp>
          </ns3:TrackPointExtension>
        </extensions>
      </trkpt>
      <trkpt lat="42.5575839914381504058837890625" lon="19.9475420080125331878662109375">
        <ele>1034.5999755859375</ele>
        <time>2026-06-17T08:00:56.000Z</time>
        <extensions>
          <ns3:TrackPointExtension>
            <ns3:atemp>22.0</ns3:atemp>
          </ns3:TrackPointExtension>
        </extensions>
      </trkpt>
      <trkpt lat="42.55756194703280925750732421875" lon="19.94760914705693721771240234375">
        <ele>1034.5999755859375</ele>
        <time>2026-06-17T08:00:57.000Z</time>
        <extensions>
          <ns3:TrackPointExtension>
            <ns3:atemp>22.0</ns3:atemp>
          </ns3:TrackPointExtension>
        </extensions>
      </trkpt>
      <trkpt lat="42.55754132755100727081298828125" lon="19.9476704187691211700439453125">
        <ele>1034.4000244140625</ele>
        <time>2026-06-17T08:00:58.000Z</time>
        <extensions>
          <ns3:TrackPointExtension>
            <ns3:atemp>22.0</ns3:atemp>
          </ns3:TrackPointExtension>
        </extensions>
      </trkpt>
      <trkpt lat="42.5575219653546810150146484375" lon="19.94773386977612972259521484375">
        <ele>1034.4000244140625</ele>
        <time>2026-06-17T08:00:59.000Z</time>
        <extensions>
          <ns3:TrackPointExtension>
            <ns3:atemp>22.0</ns3:atemp>
          </ns3:TrackPointExtension>
        </extensions>
      </trkpt>
      <trkpt lat="42.557506375014781951904296875" lon="19.9477981589734554290771484375">
        <ele>1034.4000244140625</ele>
        <time>2026-06-17T08:01:00.000Z</time>
        <extensions>
          <ns3:TrackPointExtension>
            <ns3:atemp>22.0</ns3:atemp>
          </ns3:TrackPointExtension>
        </extensions>
      </trkpt>
      <trkpt lat="42.557491958141326904296875" lon="19.9478642083704471588134765625">
        <ele>1034.4000244140625</ele>
        <time>2026-06-17T08:01:01.000Z</time>
        <extensions>
          <ns3:TrackPointExtension>
            <ns3:atemp>22.0</ns3:atemp>
          </ns3:TrackPointExtension>
        </extensions>
      </trkpt>
      <trkpt lat="42.55747863091528415679931640625" lon="19.94792765937745571136474609375">
        <ele>1034.4000244140625</ele>
        <time>2026-06-17T08:01:02.000Z</time>
        <extensions>
          <ns3:TrackPointExtension>
            <ns3:atemp>22.0</ns3:atemp>
          </ns3:TrackPointExtension>
        </extensions>
      </trkpt>
      <trkpt lat="42.55746354348957538604736328125" lon="19.9479882605373859405517578125">
        <ele>1034.4000244140625</ele>
        <time>2026-06-17T08:01:03.000Z</time>
        <extensions>
          <ns3:TrackPointExtension>
            <ns3:atemp>22.0</ns3:atemp>
          </ns3:TrackPointExtension>
        </extensions>
      </trkpt>
      <trkpt lat="42.55744644440710544586181640625" lon="19.9480497837066650390625">
        <ele>1034.4000244140625</ele>
        <time>2026-06-17T08:01:04.000Z</time>
        <extensions>
          <ns3:TrackPointExtension>
            <ns3:atemp>22.0</ns3:atemp>
          </ns3:TrackPointExtension>
        </extensions>
      </trkpt>
      <trkpt lat="42.55743118934333324432373046875" lon="19.9481076188385486602783203125">
        <ele>1034.5999755859375</ele>
        <time>2026-06-17T08:01:05.000Z</time>
        <extensions>
          <ns3:TrackPointExtension>
            <ns3:atemp>22.0</ns3:atemp>
          </ns3:TrackPointExtension>
        </extensions>
      </trkpt>
      <trkpt lat="42.5574207119643688201904296875" lon="19.94816972874104976654052734375">
        <ele>1034.800048828125</ele>
        <time>2026-06-17T08:01:06.000Z</time>
        <extensions>
          <ns3:TrackPointExtension>
            <ns3:atemp>22.0</ns3:atemp>
          </ns3:TrackPointExtension>
        </extensions>
      </trkpt>
      <trkpt lat="42.5574193708598613739013671875" lon="19.94822840206325054168701171875">
        <ele>1034.800048828125</ele>
        <time>2026-06-17T08:01:07.000Z</time>
        <extensions>
          <ns3:TrackPointExtension>
            <ns3:atemp>22.0</ns3:atemp>
          </ns3:TrackPointExtension>
        </extensions>
      </trkpt>
      <trkpt lat="42.55743085406720638275146484375" lon="19.9482737481594085693359375">
        <ele>1035</ele>
        <time>2026-06-17T08:01:08.000Z</time>
        <extensions>
          <ns3:TrackPointExtension>
            <ns3:atemp>22.0</ns3:atemp>
          </ns3:TrackPointExtension>
        </extensions>
      </trkpt>
      <trkpt lat="42.55744644440710544586181640625" lon="19.94832077063620090484619140625">
        <ele>1035.199951171875</ele>
        <time>2026-06-17T08:01:09.000Z</time>
        <extensions>
          <ns3:TrackPointExtension>
            <ns3:atemp>22.0</ns3:atemp>
          </ns3:TrackPointExtension>
        </extensions>
      </trkpt>
      <trkpt lat="42.55745918489992618560791015625" lon="19.94837910868227481842041015625">
        <ele>1035.4000244140625</ele>
        <time>2026-06-17T08:01:10.000Z</time>
        <extensions>
          <ns3:TrackPointExtension>
            <ns3:atemp>22.0</ns3:atemp>
          </ns3:TrackPointExtension>
        </extensions>
      </trkpt>
      <trkpt lat="42.5574673153460025787353515625" lon="19.94843224994838237762451171875">
        <ele>1035.4000244140625</ele>
        <time>2026-06-17T08:01:11.000Z</time>
        <extensions>
          <ns3:TrackPointExtension>
            <ns3:atemp>22.0</ns3:atemp>
          </ns3:TrackPointExtension>
        </extensions>
      </trkpt>
      <trkpt lat="42.55745851434767246246337890625" lon="19.94848606176674365997314453125">
        <ele>1035.5999755859375</ele>
        <time>2026-06-17T08:01:12.000Z</time>
        <extensions>
          <ns3:TrackPointExtension>
            <ns3:atemp>22.0</ns3:atemp>
          </ns3:TrackPointExtension>
        </extensions>
      </trkpt>
      <trkpt lat="42.55744443275034427642822265625" lon="19.9485384486615657806396484375">
        <ele>1035.5999755859375</ele>
        <time>2026-06-17T08:01:13.000Z</time>
        <extensions>
          <ns3:TrackPointExtension>
            <ns3:atemp>22.0</ns3:atemp>
          </ns3:TrackPointExtension>
        </extensions>
      </trkpt>
      <trkpt lat="42.55743621848523616790771484375" lon="19.948588572442531585693359375">
        <ele>1035.800048828125</ele>
        <time>2026-06-17T08:01:14.000Z</time>
        <extensions>
          <ns3:TrackPointExtension>
            <ns3:atemp>22.0</ns3:atemp>
          </ns3:TrackPointExtension>
        </extensions>
      </trkpt>
      <trkpt lat="42.5574277527630329132080078125" lon="19.94863249361515045166015625">
        <ele>1036</ele>
        <time>2026-06-17T08:01:15.000Z</time>
        <extensions>
          <ns3:TrackPointExtension>
            <ns3:atemp>22.0</ns3:atemp>
          </ns3:TrackPointExtension>
        </extensions>
      </trkpt>
      <trkpt lat="42.55741425789892673492431640625" lon="19.94868479669094085693359375">
        <ele>1036.199951171875</ele>
        <time>2026-06-17T08:01:16.000Z</time>
        <extensions>
          <ns3:TrackPointExtension>
            <ns3:atemp>22.0</ns3:atemp>
          </ns3:TrackPointExtension>
        </extensions>
      </trkpt>
      <trkpt lat="42.55740679800510406494140625" lon="19.94873198680579662322998046875">
        <ele>1036.5999755859375</ele>
        <time>2026-06-17T08:01:17.000Z</time>
        <extensions>
          <ns3:TrackPointExtension>
            <ns3:atemp>22.0</ns3:atemp>
          </ns3:TrackPointExtension>
        </extensions>
      </trkpt>
      <trkpt lat="42.55740470252931118011474609375" lon="19.94877942837774753570556640625">
        <ele>1036.800048828125</ele>
        <time>2026-06-17T08:01:18.000Z</time>
        <extensions>
          <ns3:TrackPointExtension>
            <ns3:atemp>22.0</ns3:atemp>
          </ns3:TrackPointExtension>
        </extensions>
      </trkpt>
      <trkpt lat="42.55740419961512088775634765625" lon="19.94883324019610881805419921875">
        <ele>1037.199951171875</ele>
        <time>2026-06-17T08:01:19.000Z</time>
        <extensions>
          <ns3:TrackPointExtension>
            <ns3:atemp>22.0</ns3:atemp>
          </ns3:TrackPointExtension>
        </extensions>
      </trkpt>
      <trkpt lat="42.5574076361954212188720703125" lon="19.94888084940612316131591796875">
        <ele>1037.5999755859375</ele>
        <time>2026-06-17T08:01:20.000Z</time>
        <extensions>
          <ns3:TrackPointExtension>
            <ns3:atemp>22.0</ns3:atemp>
          </ns3:TrackPointExtension>
        </extensions>
      </trkpt>
      <trkpt lat="42.5574128329753875732421875" lon="19.94892778806388378143310546875">
        <ele>1037.800048828125</ele>
        <time>2026-06-17T08:01:21.000Z</time>
        <extensions>
          <ns3:TrackPointExtension>
            <ns3:atemp>22.0</ns3:atemp>
          </ns3:TrackPointExtension>
        </extensions>
      </trkpt>
      <trkpt lat="42.55742046050727367401123046875" lon="19.94897305034101009368896484375">
        <ele>1038.199951171875</ele>
        <time>2026-06-17T08:01:22.000Z</time>
        <extensions>
          <ns3:TrackPointExtension>
            <ns3:atemp>22.0</ns3:atemp>
          </ns3:TrackPointExtension>
        </extensions>
      </trkpt>
      <trkpt lat="42.5574324466288089752197265625" lon="19.9490245990455150604248046875">
        <ele>1038.5999755859375</ele>
        <time>2026-06-17T08:01:23.000Z</time>
        <extensions>
          <ns3:TrackPointExtension>
            <ns3:atemp>22.0</ns3:atemp>
          </ns3:TrackPointExtension>
        </extensions>
      </trkpt>
      <trkpt lat="42.557441331446170806884765625" lon="19.94907782413065433502197265625">
        <ele>1038.800048828125</ele>
        <time>2026-06-17T08:01:24.000Z</time>
        <extensions>
          <ns3:TrackPointExtension>
            <ns3:atemp>22.0</ns3:atemp>
          </ns3:TrackPointExtension>
        </extensions>
      </trkpt>
      <trkpt lat="42.55744929425418376922607421875" lon="19.94913733564317226409912109375">
        <ele>1039.199951171875</ele>
        <time>2026-06-17T08:01:25.000Z</time>
        <extensions>
          <ns3:TrackPointExtension>
            <ns3:atemp>22.0</ns3:atemp>
          </ns3:TrackPointExtension>
        </extensions>
      </trkpt>
      <trkpt lat="42.55745910108089447021484375" lon="19.949193410575389862060546875">
        <ele>1039.4000244140625</ele>
        <time>2026-06-17T08:01:26.000Z</time>
        <extensions>
          <ns3:TrackPointExtension>
            <ns3:atemp>22.0</ns3:atemp>
          </ns3:TrackPointExtension>
        </extensions>
      </trkpt>
      <trkpt lat="42.5574636273086071014404296875" lon="19.94925049133598804473876953125">
        <ele>1039.5999755859375</ele>
        <time>2026-06-17T08:01:27.000Z</time>
        <extensions>
          <ns3:TrackPointExtension>
            <ns3:atemp>22.0</ns3:atemp>
          </ns3:TrackPointExtension>
        </extensions>
      </trkpt>
      <trkpt lat="42.55746689625084400177001953125" lon="19.9493042193353176116943359375">
        <ele>1039.800048828125</ele>
        <time>2026-06-17T08:01:28.000Z</time>
        <extensions>
          <ns3:TrackPointExtension>
            <ns3:atemp>22.0</ns3:atemp>
          </ns3:TrackPointExtension>
        </extensions>
      </trkpt>
      <trkpt lat="42.55746857263147830963134765625" lon="19.949348978698253631591796875">
        <ele>1039.800048828125</ele>
        <time>2026-06-17T08:01:29.000Z</time>
        <extensions>
          <ns3:TrackPointExtension>
            <ns3:atemp>22.0</ns3:atemp>
          </ns3:TrackPointExtension>
        </extensions>
      </trkpt>
      <trkpt lat="42.5574720092117786407470703125" lon="19.94939683936536312103271484375">
        <ele>1040</ele>
        <time>2026-06-17T08:01:30.000Z</time>
        <extensions>
          <ns3:TrackPointExtension>
            <ns3:atemp>22.0</ns3:atemp>
          </ns3:TrackPointExtension>
        </extensions>
      </trkpt>
      <trkpt lat="42.557476200163364410400390625" lon="19.94943707250058650970458984375">
        <ele>1040.199951171875</ele>
        <time>2026-06-17T08:01:31.000Z</time>
        <extensions>
          <ns3:TrackPointExtension>
            <ns3:atemp>22.0</ns3:atemp>
          </ns3:TrackPointExtension>
        </extensions>
      </trkpt>
      <trkpt lat="42.55748265422880649566650390625" lon="19.94948116131126880645751953125">
        <ele>1040.4000244140625</ele>
        <time>2026-06-17T08:01:32.000Z</time>
        <extensions>
          <ns3:TrackPointExtension>
            <ns3:atemp>22.0</ns3:atemp>
          </ns3:TrackPointExtension>
        </extensions>
      </trkpt>
      <trkpt lat="42.55748550407588481903076171875" lon="19.9495335482060909271240234375">
        <ele>1040.5999755859375</ele>
        <time>2026-06-17T08:01:33.000Z</time>
        <extensions>
          <ns3:TrackPointExtension>
            <ns3:atemp>22.0</ns3:atemp>
          </ns3:TrackPointExtension>
        </extensions>
      </trkpt>
      <trkpt lat="42.55748433060944080352783203125" lon="19.94958937168121337890625">
        <ele>1040.800048828125</ele>
        <time>2026-06-17T08:01:34.000Z</time>
        <extensions>
          <ns3:TrackPointExtension>
            <ns3:atemp>22.0</ns3:atemp>
          </ns3:TrackPointExtension>
        </extensions>
      </trkpt>
      <trkpt lat="42.5574827380478382110595703125" lon="19.9496398307383060455322265625">
        <ele>1040.800048828125</ele>
        <time>2026-06-17T08:01:35.000Z</time>
        <extensions>
          <ns3:TrackPointExtension>
            <ns3:atemp>22.0</ns3:atemp>
          </ns3:TrackPointExtension>
        </extensions>
      </trkpt>
      <trkpt lat="42.5574800558388233184814453125" lon="19.94969171471893787384033203125">
        <ele>1041</ele>
        <time>2026-06-17T08:01:36.000Z</time>
        <extensions>
          <ns3:TrackPointExtension>
            <ns3:atemp>22.0</ns3:atemp>
          </ns3:TrackPointExtension>
        </extensions>
      </trkpt>
      <trkpt lat="42.55747678689658641815185546875" lon="19.9497457779943943023681640625">
        <ele>1041.199951171875</ele>
        <time>2026-06-17T08:01:37.000Z</time>
        <extensions>
          <ns3:TrackPointExtension>
            <ns3:atemp>22.0</ns3:atemp>
          </ns3:TrackPointExtension>
        </extensions>
      </trkpt>
      <trkpt lat="42.55746991373598575592041015625" lon="19.94979732669889926910400390625">
        <ele>1041.199951171875</ele>
        <time>2026-06-17T08:01:38.000Z</time>
        <extensions>
          <ns3:TrackPointExtension>
            <ns3:atemp>22.0</ns3:atemp>
          </ns3:TrackPointExtension>
        </extensions>
      </trkpt>
      <trkpt lat="42.55745516158640384674072265625" lon="19.94984912686049938201904296875">
        <ele>1041.4000244140625</ele>
        <time>2026-06-17T08:01:39.000Z</time>
        <extensions>
          <ns3:TrackPointExtension>
            <ns3:atemp>22.0</ns3:atemp>
          </ns3:TrackPointExtension>
        </extensions>
      </trkpt>
      <trkpt lat="42.55743722431361675262451171875" lon="19.949891455471515655517578125">
        <ele>1041.5999755859375</ele>
        <time>2026-06-17T08:01:40.000Z</time>
        <extensions>
          <ns3:TrackPointExtension>
            <ns3:atemp>22.0</ns3:atemp>
          </ns3:TrackPointExtension>
        </extensions>
      </trkpt>
      <trkpt lat="42.5574166886508464813232421875" lon="19.9499308504164218902587890625">
        <ele>1041.800048828125</ele>
        <time>2026-06-17T08:01:41.000Z</time>
        <extensions>
          <ns3:TrackPointExtension>
            <ns3:atemp>22.0</ns3:atemp>
          </ns3:TrackPointExtension>
        </extensions>
      </trkpt>
      <trkpt lat="42.557395733892917633056640625" lon="19.94997334666550159454345703125">
        <ele>1042</ele>
        <time>2026-06-17T08:01:42.000Z</time>
        <extensions>
          <ns3:TrackPointExtension>
            <ns3:atemp>22.0</ns3:atemp>
          </ns3:TrackPointExtension>
        </extensions>
      </trkpt>
      <trkpt lat="42.557373940944671630859375" lon="19.950012154877185821533203125">
        <ele>1042.199951171875</ele>
        <time>2026-06-17T08:01:43.000Z</time>
        <extensions>
          <ns3:TrackPointExtension>
            <ns3:atemp>22.0</ns3:atemp>
          </ns3:TrackPointExtension>
        </extensions>
      </trkpt>
      <trkpt lat="42.5573529861867427825927734375" lon="19.9500520527362823486328125">
        <ele>1042.4000244140625</ele>
        <time>2026-06-17T08:01:44.000Z</time>
        <extensions>
          <ns3:TrackPointExtension>
            <ns3:atemp>22.0</ns3:atemp>
          </ns3:TrackPointExtension>
        </extensions>
      </trkpt>
      <trkpt lat="42.55733177997171878814697265625" lon="19.95008918456733226776123046875">
        <ele>1042.800048828125</ele>
        <time>2026-06-17T08:01:45.000Z</time>
        <extensions>
          <ns3:TrackPointExtension>
            <ns3:atemp>22.0</ns3:atemp>
          </ns3:TrackPointExtension>
        </extensions>
      </trkpt>
      <trkpt lat="42.55730948410928249359130859375" lon="19.9501259811222553253173828125">
        <ele>1043</ele>
        <time>2026-06-17T08:01:46.000Z</time>
        <extensions>
          <ns3:TrackPointExtension>
            <ns3:atemp>22.0</ns3:atemp>
          </ns3:TrackPointExtension>
        </extensions>
      </trkpt>
      <trkpt lat="42.55728970281779766082763671875" lon="19.95016395114362239837646484375">
        <ele>1043.199951171875</ele>
        <time>2026-06-17T08:01:47.000Z</time>
        <extensions>
          <ns3:TrackPointExtension>
            <ns3:atemp>22.0</ns3:atemp>
          </ns3:TrackPointExtension>
        </extensions>
      </trkpt>
      <trkpt lat="42.5572688318789005279541015625" lon="19.95021172799170017242431640625">
        <ele>1043.4000244140625</ele>
        <time>2026-06-17T08:01:48.000Z</time>
        <extensions>
          <ns3:TrackPointExtension>
            <ns3:atemp>22.0</ns3:atemp>
          </ns3:TrackPointExtension>
        </extensions>
      </trkpt>
      <trkpt lat="42.55724309943616390228271484375" lon="19.95026587508618831634521484375">
        <ele>1043.5999755859375</ele>
        <time>2026-06-17T08:01:49.000Z</time>
        <extensions>
          <ns3:TrackPointExtension>
            <ns3:atemp>22.0</ns3:atemp>
          </ns3:TrackPointExtension>
        </extensions>
      </trkpt>
      <trkpt lat="42.55721678026020526885986328125" lon="19.9503144063055515289306640625">
        <ele>1043.5999755859375</ele>
        <time>2026-06-17T08:01:50.000Z</time>
        <extensions>
          <ns3:TrackPointExtension>
            <ns3:atemp>22.0</ns3:atemp>
          </ns3:TrackPointExtension>
        </extensions>
      </trkpt>
      <trkpt lat="42.55719163455069065093994140625" lon="19.950366877019405364990234375">
        <ele>1043.4000244140625</ele>
        <time>2026-06-17T08:01:51.000Z</time>
        <extensions>
          <ns3:TrackPointExtension>
            <ns3:atemp>22.0</ns3:atemp>
          </ns3:TrackPointExtension>
        </extensions>
      </trkpt>
      <trkpt lat="42.5571608729660511016845703125" lon="19.9504223652184009552001953125">
        <ele>1043.4000244140625</ele>
        <time>2026-06-17T08:01:52.000Z</time>
        <extensions>
          <ns3:TrackPointExtension>
            <ns3:atemp>22.0</ns3:atemp>
          </ns3:TrackPointExtension>
        </extensions>
      </trkpt>
      <trkpt lat="42.557128854095935821533203125" lon="19.95048011653125286102294921875">
        <ele>1043.199951171875</ele>
        <time>2026-06-17T08:01:53.000Z</time>
        <extensions>
          <ns3:TrackPointExtension>
            <ns3:atemp>22.0</ns3:atemp>
          </ns3:TrackPointExtension>
        </extensions>
      </trkpt>
      <trkpt lat="42.5570991821587085723876953125" lon="19.95054465718567371368408203125">
        <ele>1043</ele>
        <time>2026-06-17T08:01:54.000Z</time>
        <extensions>
          <ns3:TrackPointExtension>
            <ns3:atemp>22.0</ns3:atemp>
          </ns3:TrackPointExtension>
        </extensions>
      </trkpt>
      <trkpt lat="42.5570659898221492767333984375" lon="19.9506111256778240203857421875">
        <ele>1042.800048828125</ele>
        <time>2026-06-17T08:01:55.000Z</time>
        <extensions>
          <ns3:TrackPointExtension>
            <ns3:atemp>22.0</ns3:atemp>
          </ns3:TrackPointExtension>
        </extensions>
      </trkpt>
      <trkpt lat="42.55703070200979709625244140625" lon="19.95067507959902286529541015625">
        <ele>1042.5999755859375</ele>
        <time>2026-06-17T08:01:56.000Z</time>
        <extensions>
          <ns3:TrackPointExtension>
            <ns3:atemp>22.0</ns3:atemp>
          </ns3:TrackPointExtension>
        </extensions>
      </trkpt>
      <trkpt lat="42.55699373781681060791015625" lon="19.95073341764509677886962890625">
        <ele>1042.4000244140625</ele>
        <time>2026-06-17T08:01:57.000Z</time>
        <extensions>
          <ns3:TrackPointExtension>
            <ns3:atemp>22.0</ns3:atemp>
          </ns3:TrackPointExtension>
        </extensions>
      </trkpt>
      <trkpt lat="42.55695618689060211181640625" lon="19.95078840292990207672119140625">
        <ele>1042.4000244140625</ele>
        <time>2026-06-17T08:01:58.000Z</time>
        <extensions>
          <ns3:TrackPointExtension>
            <ns3:atemp>22.0</ns3:atemp>
          </ns3:TrackPointExtension>
        </extensions>
      </trkpt>
      <trkpt lat="42.55691905505955219268798828125" lon="19.9508394487202167510986328125">
        <ele>1042.4000244140625</ele>
        <time>2026-06-17T08:01:59.000Z</time>
        <extensions>
          <ns3:TrackPointExtension>
            <ns3:atemp>22.0</ns3:atemp>
          </ns3:TrackPointExtension>
        </extensions>
      </trkpt>
      <trkpt lat="42.5568844377994537353515625" lon="19.95088756084442138671875">
        <ele>1042.4000244140625</ele>
        <time>2026-06-17T08:02:00.000Z</time>
        <extensions>
          <ns3:TrackPointExtension>
            <ns3:atemp>22.0</ns3:atemp>
          </ns3:TrackPointExtension>
        </extensions>
      </trkpt>
      <trkpt lat="42.55684998817741870880126953125" lon="19.95093693025410175323486328125">
        <ele>1042.5999755859375</ele>
        <time>2026-06-17T08:02:01.000Z</time>
        <extensions>
          <ns3:TrackPointExtension>
            <ns3:atemp>22.0</ns3:atemp>
          </ns3:TrackPointExtension>
        </extensions>
      </trkpt>
      <trkpt lat="42.5568165443837642669677734375" lon="19.950985796749591827392578125">
        <ele>1042.800048828125</ele>
        <time>2026-06-17T08:02:02.000Z</time>
        <extensions>
          <ns3:TrackPointExtension>
            <ns3:atemp>22.0</ns3:atemp>
          </ns3:TrackPointExtension>
        </extensions>
      </trkpt>
      <trkpt lat="42.55678796209394931793212890625" lon="19.9510416202247142791748046875">
        <ele>1042.800048828125</ele>
        <time>2026-06-17T08:02:03.000Z</time>
        <extensions>
          <ns3:TrackPointExtension>
            <ns3:atemp>22.0</ns3:atemp>
          </ns3:TrackPointExtension>
        </extensions>
      </trkpt>
      <trkpt lat="42.556762397289276123046875" lon="19.951103143393993377685546875">
        <ele>1043</ele>
        <time>2026-06-17T08:02:04.000Z</time>
        <extensions>
          <ns3:TrackPointExtension>
            <ns3:atemp>22.0</ns3:atemp>
          </ns3:TrackPointExtension>
        </extensions>
      </trkpt>
      <trkpt lat="42.55673758685588836669921875" lon="19.951167516410350799560546875">
        <ele>1043</ele>
        <time>2026-06-17T08:02:05.000Z</time>
        <extensions>
          <ns3:TrackPointExtension>
            <ns3:atemp>22.0</ns3:atemp>
          </ns3:TrackPointExtension>
        </extensions>
      </trkpt>
      <trkpt lat="42.55671554245054721832275390625" lon="19.9512370862066745758056640625">
        <ele>1043</ele>
        <time>2026-06-17T08:02:06.000Z</time>
        <extensions>
          <ns3:TrackPointExtension>
            <ns3:atemp>22.0</ns3:atemp>
          </ns3:TrackPointExtension>
        </extensions>
      </trkpt>
      <trkpt lat="42.5566921569406986236572265625" lon="19.95130673982203006744384765625">
        <ele>1042.800048828125</ele>
        <time>2026-06-17T08:02:07.000Z</time>
        <extensions>
          <ns3:TrackPointExtension>
            <ns3:atemp>22.0</ns3:atemp>
          </ns3:TrackPointExtension>
        </extensions>
      </trkpt>
      <trkpt lat="42.556670196354389190673828125" lon="19.9513728730380535125732421875">
        <ele>1042.800048828125</ele>
        <time>2026-06-17T08:02:08.000Z</time>
        <extensions>
          <ns3:TrackPointExtension>
            <ns3:atemp>22.0</ns3:atemp>
          </ns3:TrackPointExtension>
        </extensions>
      </trkpt>
      <trkpt lat="42.5566492415964603424072265625" lon="19.95143003761768341064453125">
        <ele>1042.800048828125</ele>
        <time>2026-06-17T08:02:09.000Z</time>
        <extensions>
          <ns3:TrackPointExtension>
            <ns3:atemp>22.0</ns3:atemp>
          </ns3:TrackPointExtension>
        </extensions>
      </trkpt>
      <trkpt lat="42.55662702955305576324462890625" lon="19.9514865316450595855712890625">
        <ele>1042.800048828125</ele>
        <time>2026-06-17T08:02:10.000Z</time>
        <extensions>
          <ns3:TrackPointExtension>
            <ns3:atemp>22.0</ns3:atemp>
          </ns3:TrackPointExtension>
        </extensions>
      </trkpt>
      <trkpt lat="42.55660674534738063812255859375" lon="19.9515415169298648834228515625">
        <ele>1042.800048828125</ele>
        <time>2026-06-17T08:02:11.000Z</time>
        <extensions>
          <ns3:TrackPointExtension>
            <ns3:atemp>22.0</ns3:atemp>
          </ns3:TrackPointExtension>
        </extensions>
      </trkpt>
      <trkpt lat="42.55658679641783237457275390625" lon="19.951602704823017120361328125">
        <ele>1043</ele>
        <time>2026-06-17T08:02:12.000Z</time>
        <extensions>
          <ns3:TrackPointExtension>
            <ns3:atemp>22.0</ns3:atemp>
          </ns3:TrackPointExtension>
        </extensions>
      </trkpt>
      <trkpt lat="42.5565701164305210113525390625" lon="19.9516638927161693572998046875">
        <ele>1043</ele>
        <time>2026-06-17T08:02:13.000Z</time>
        <extensions>
          <ns3:TrackPointExtension>
            <ns3:atemp>22.0</ns3:atemp>
          </ns3:TrackPointExtension>
        </extensions>
      </trkpt>
      <trkpt lat="42.55655343644320964813232421875" lon="19.9517239071428775787353515625">
        <ele>1043</ele>
        <time>2026-06-17T08:02:14.000Z</time>
        <extensions>
          <ns3:TrackPointExtension>
            <ns3:atemp>22.0</ns3:atemp>
          </ns3:TrackPointExtension>
        </extensions>
      </trkpt>
      <trkpt lat="42.55654019303619861602783203125" lon="19.9517835862934589385986328125">
        <ele>1043</ele>
        <time>2026-06-17T08:02:15.000Z</time>
        <extensions>
          <ns3:TrackPointExtension>
            <ns3:atemp>22.0</ns3:atemp>
          </ns3:TrackPointExtension>
        </extensions>
      </trkpt>
      <trkpt lat="42.55652544088661670684814453125" lon="19.95184234343469142913818359375">
        <ele>1042.800048828125</ele>
        <time>2026-06-17T08:02:16.000Z</time>
        <extensions>
          <ns3:TrackPointExtension>
            <ns3:atemp>22.0</ns3:atemp>
          </ns3:TrackPointExtension>
        </extensions>
      </trkpt>
      <trkpt lat="42.556507252156734466552734375" lon="19.95190436951816082000732421875">
        <ele>1042.800048828125</ele>
        <time>2026-06-17T08:02:17.000Z</time>
        <extensions>
          <ns3:TrackPointExtension>
            <ns3:atemp>22.0</ns3:atemp>
          </ns3:TrackPointExtension>
        </extensions>
      </trkpt>
      <trkpt lat="42.55648269318044185638427734375" lon="19.95196270756423473358154296875">
        <ele>1043</ele>
        <time>2026-06-17T08:02:18.000Z</time>
        <extensions>
          <ns3:TrackPointExtension>
            <ns3:atemp>22.0</ns3:atemp>
          </ns3:TrackPointExtension>
        </extensions>
      </trkpt>
      <trkpt lat="42.55645855329930782318115234375" lon="19.9520202912390232086181640625">
        <ele>1043</ele>
        <time>2026-06-17T08:02:19.000Z</time>
        <extensions>
          <ns3:TrackPointExtension>
            <ns3:atemp>22.0</ns3:atemp>
          </ns3:TrackPointExtension>
        </extensions>
      </trkpt>
      <trkpt lat="42.5564350001513957977294921875" lon="19.95207779109477996826171875">
        <ele>1043</ele>
        <time>2026-06-17T08:02:20.000Z</time>
        <extensions>
          <ns3:TrackPointExtension>
            <ns3:atemp>22.0</ns3:atemp>
          </ns3:TrackPointExtension>
        </extensions>
      </trkpt>
      <trkpt lat="42.5564123690128326416015625" lon="19.9521305970847606658935546875">
        <ele>1043</ele>
        <time>2026-06-17T08:02:21.000Z</time>
        <extensions>
          <ns3:TrackPointExtension>
            <ns3:atemp>22.0</ns3:atemp>
          </ns3:TrackPointExtension>
        </extensions>
      </trkpt>
      <trkpt lat="42.5563904084265232086181640625" lon="19.95218348689377307891845703125">
        <ele>1043</ele>
        <time>2026-06-17T08:02:22.000Z</time>
        <extensions>
          <ns3:TrackPointExtension>
            <ns3:atemp>22.0</ns3:atemp>
          </ns3:TrackPointExtension>
        </extensions>
      </trkpt>
      <trkpt lat="42.55636635236442089080810546875" lon="19.95223327539861202239990234375">
        <ele>1043</ele>
        <time>2026-06-17T08:02:23.000Z</time>
        <extensions>
          <ns3:TrackPointExtension>
            <ns3:atemp>22.0</ns3:atemp>
          </ns3:TrackPointExtension>
        </extensions>
      </trkpt>
      <trkpt lat="42.5563444755971431732177734375" lon="19.95228474028408527374267578125">
        <ele>1043</ele>
        <time>2026-06-17T08:02:24.000Z</time>
        <extensions>
          <ns3:TrackPointExtension>
            <ns3:atemp>22.0</ns3:atemp>
          </ns3:TrackPointExtension>
        </extensions>
      </trkpt>
      <trkpt lat="42.55632184445858001708984375" lon="19.95233654044568538665771484375">
        <ele>1043</ele>
        <time>2026-06-17T08:02:25.000Z</time>
        <extensions>
          <ns3:TrackPointExtension>
            <ns3:atemp>22.0</ns3:atemp>
          </ns3:TrackPointExtension>
        </extensions>
      </trkpt>
      <trkpt lat="42.556300051510334014892578125" lon="19.95239035226404666900634765625">
        <ele>1043</ele>
        <time>2026-06-17T08:02:26.000Z</time>
        <extensions>
          <ns3:TrackPointExtension>
            <ns3:atemp>22.0</ns3:atemp>
          </ns3:TrackPointExtension>
        </extensions>
      </trkpt>
      <trkpt lat="42.55628152750432491302490234375" lon="19.95244466699659824371337890625">
        <ele>1043.199951171875</ele>
        <time>2026-06-17T08:02:27.000Z</time>
        <extensions>
          <ns3:TrackPointExtension>
            <ns3:atemp>22.0</ns3:atemp>
          </ns3:TrackPointExtension>
        </extensions>
      </trkpt>
      <trkpt lat="42.55626308731734752655029296875" lon="19.95250401087105274200439453125">
        <ele>1043.199951171875</ele>
        <time>2026-06-17T08:02:28.000Z</time>
        <extensions>
          <ns3:TrackPointExtension>
            <ns3:atemp>22.0</ns3:atemp>
          </ns3:TrackPointExtension>
        </extensions>
      </trkpt>
      <trkpt lat="42.55624716170132160186767578125" lon="19.95256268419325351715087890625">
        <ele>1043.199951171875</ele>
        <time>2026-06-17T08:02:29.000Z</time>
        <extensions>
          <ns3:TrackPointExtension>
            <ns3:atemp>22.0</ns3:atemp>
          </ns3:TrackPointExtension>
        </extensions>
      </trkpt>
      <trkpt lat="42.55623442120850086212158203125" lon="19.9526237882673740386962890625">
        <ele>1043.4000244140625</ele>
        <time>2026-06-17T08:02:30.000Z</time>
        <extensions>
          <ns3:TrackPointExtension>
            <ns3:atemp>22.0</ns3:atemp>
          </ns3:TrackPointExtension>
        </extensions>
      </trkpt>
      <trkpt lat="42.55622168071568012237548828125" lon="19.95268438942730426788330078125">
        <ele>1043.4000244140625</ele>
        <time>2026-06-17T08:02:31.000Z</time>
        <extensions>
          <ns3:TrackPointExtension>
            <ns3:atemp>22.0</ns3:atemp>
          </ns3:TrackPointExtension>
        </extensions>
      </trkpt>
      <trkpt lat="42.55620441399514675140380859375" lon="19.95274490676820278167724609375">
        <ele>1043.5999755859375</ele>
        <time>2026-06-17T08:02:32.000Z</time>
        <extensions>
          <ns3:TrackPointExtension>
            <ns3:atemp>22.0</ns3:atemp>
          </ns3:TrackPointExtension>
        </extensions>
      </trkpt>
      <trkpt lat="42.55618639290332794189453125" lon="19.95280592702329158782958984375">
        <ele>1043.5999755859375</ele>
        <time>2026-06-17T08:02:33.000Z</time>
        <extensions>
          <ns3:TrackPointExtension>
            <ns3:atemp>22.0</ns3:atemp>
          </ns3:TrackPointExtension>
        </extensions>
      </trkpt>
      <trkpt lat="42.55616870708763599395751953125" lon="19.9528675340116024017333984375">
        <ele>1043.5999755859375</ele>
        <time>2026-06-17T08:02:34.000Z</time>
        <extensions>
          <ns3:TrackPointExtension>
            <ns3:atemp>22.0</ns3:atemp>
          </ns3:TrackPointExtension>
        </extensions>
      </trkpt>
      <trkpt lat="42.5561516918241977691650390625" lon="19.95292796753346920013427734375">
        <ele>1043.800048828125</ele>
        <time>2026-06-17T08:02:35.000Z</time>
        <extensions>
          <ns3:TrackPointExtension>
            <ns3:atemp>22.0</ns3:atemp>
          </ns3:TrackPointExtension>
        </extensions>
      </trkpt>
      <trkpt lat="42.55614071153104305267333984375" lon="19.9529878981411457061767578125">
        <ele>1043.800048828125</ele>
        <time>2026-06-17T08:02:36.000Z</time>
        <extensions>
          <ns3:TrackPointExtension>
            <ns3:atemp>22.0</ns3:atemp>
          </ns3:TrackPointExtension>
        </extensions>
      </trkpt>
      <trkpt lat="42.55613015033304691314697265625" lon="19.9530489183962345123291015625">
        <ele>1043.800048828125</ele>
        <time>2026-06-17T08:02:37.000Z</time>
        <extensions>
          <ns3:TrackPointExtension>
            <ns3:atemp>22.0</ns3:atemp>
          </ns3:TrackPointExtension>
        </extensions>
      </trkpt>
      <trkpt lat="42.5561238639056682586669921875" lon="19.95310549624264240264892578125">
        <ele>1044</ele>
        <time>2026-06-17T08:02:38.000Z</time>
        <extensions>
          <ns3:TrackPointExtension>
            <ns3:atemp>22.0</ns3:atemp>
          </ns3:TrackPointExtension>
        </extensions>
      </trkpt>
      <trkpt lat="42.55611808039247989654541015625" lon="19.95316408574581146240234375">
        <ele>1044.199951171875</ele>
        <time>2026-06-17T08:02:39.000Z</time>
        <extensions>
          <ns3:TrackPointExtension>
            <ns3:atemp>22.0</ns3:atemp>
          </ns3:TrackPointExtension>
        </extensions>
      </trkpt>
      <trkpt lat="42.55611020140349864959716796875" lon="19.9532182328402996063232421875">
        <ele>1044.199951171875</ele>
        <time>2026-06-17T08:02:40.000Z</time>
        <extensions>
          <ns3:TrackPointExtension>
            <ns3:atemp>22.0</ns3:atemp>
          </ns3:TrackPointExtension>
        </extensions>
      </trkpt>
      <trkpt lat="42.5561010651290416717529296875" lon="19.95327581651508808135986328125">
        <ele>1044.4000244140625</ele>
        <time>2026-06-17T08:02:41.000Z</time>
        <extensions>
          <ns3:TrackPointExtension>
            <ns3:atemp>22.0</ns3:atemp>
          </ns3:TrackPointExtension>
        </extensions>
      </trkpt>
      <trkpt lat="42.55608983337879180908203125" lon="19.95333583094179630279541015625">
        <ele>1044.5999755859375</ele>
        <time>2026-06-17T08:02:42.000Z</time>
        <extensions>
          <ns3:TrackPointExtension>
            <ns3:atemp>22.0</ns3:atemp>
          </ns3:TrackPointExtension>
        </extensions>
      </trkpt>
      <trkpt lat="42.55607667379081249237060546875" lon="19.95339634828269481658935546875">
        <ele>1044.5999755859375</ele>
        <time>2026-06-17T08:02:43.000Z</time>
        <extensions>
          <ns3:TrackPointExtension>
            <ns3:atemp>22.0</ns3:atemp>
          </ns3:TrackPointExtension>
        </extensions>
      </trkpt>
      <trkpt lat="42.55606393329799175262451171875" lon="19.9534569494426250457763671875">
        <ele>1044.5999755859375</ele>
        <time>2026-06-17T08:02:44.000Z</time>
        <extensions>
          <ns3:TrackPointExtension>
            <ns3:atemp>22.0</ns3:atemp>
          </ns3:TrackPointExtension>
        </extensions>
      </trkpt>
      <trkpt lat="42.55605362355709075927734375" lon="19.95351545512676239013671875">
        <ele>1044.800048828125</ele>
        <time>2026-06-17T08:02:45.000Z</time>
        <extensions>
          <ns3:TrackPointExtension>
            <ns3:atemp>22.0</ns3:atemp>
          </ns3:TrackPointExtension>
        </extensions>
      </trkpt>
      <trkpt lat="42.55603828467428684234619140625" lon="19.95357706211507320404052734375">
        <ele>1044.800048828125</ele>
        <time>2026-06-17T08:02:46.000Z</time>
        <extensions>
          <ns3:TrackPointExtension>
            <ns3:atemp>22.0</ns3:atemp>
          </ns3:TrackPointExtension>
        </extensions>
      </trkpt>
      <trkpt lat="42.55602118559181690216064453125" lon="19.953637160360813140869140625">
        <ele>1045</ele>
        <time>2026-06-17T08:02:47.000Z</time>
        <extensions>
          <ns3:TrackPointExtension>
            <ns3:atemp>22.0</ns3:atemp>
          </ns3:TrackPointExtension>
        </extensions>
      </trkpt>
      <trkpt lat="42.5559988059103488922119140625" lon="19.953692145645618438720703125">
        <ele>1045.199951171875</ele>
        <time>2026-06-17T08:02:48.000Z</time>
        <extensions>
          <ns3:TrackPointExtension>
            <ns3:atemp>22.0</ns3:atemp>
          </ns3:TrackPointExtension>
        </extensions>
      </trkpt>
      <trkpt lat="42.55597374401986598968505859375" lon="19.95374285615980625152587890625">
        <ele>1045.199951171875</ele>
        <time>2026-06-17T08:02:49.000Z</time>
        <extensions>
          <ns3:TrackPointExtension>
            <ns3:atemp>22.0</ns3:atemp>
          </ns3:TrackPointExtension>
        </extensions>
      </trkpt>
      <trkpt lat="42.55594407208263874053955078125" lon="19.95378962717950344085693359375">
        <ele>1045.4000244140625</ele>
        <time>2026-06-17T08:02:50.000Z</time>
        <extensions>
          <ns3:TrackPointExtension>
            <ns3:atemp>22.0</ns3:atemp>
          </ns3:TrackPointExtension>
        </extensions>
      </trkpt>
      <trkpt lat="42.55591590888798236846923828125" lon="19.9538339674472808837890625">
        <ele>1045.5999755859375</ele>
        <time>2026-06-17T08:02:51.000Z</time>
        <extensions>
          <ns3:TrackPointExtension>
            <ns3:atemp>22.0</ns3:atemp>
          </ns3:TrackPointExtension>
        </extensions>
      </trkpt>
      <trkpt lat="42.555886320769786834716796875" lon="19.9538804031908512115478515625">
        <ele>1045.5999755859375</ele>
        <time>2026-06-17T08:02:52.000Z</time>
        <extensions>
          <ns3:TrackPointExtension>
            <ns3:atemp>22.0</ns3:atemp>
          </ns3:TrackPointExtension>
        </extensions>
      </trkpt>
      <trkpt lat="42.5558563135564327239990234375" lon="19.9539266712963581085205078125">
        <ele>1045.800048828125</ele>
        <time>2026-06-17T08:02:53.000Z</time>
        <extensions>
          <ns3:TrackPointExtension>
            <ns3:atemp>22.0</ns3:atemp>
          </ns3:TrackPointExtension>
        </extensions>
      </trkpt>
      <trkpt lat="42.555827312171459197998046875" lon="19.95397537015378475189208984375">
        <ele>1045.800048828125</ele>
        <time>2026-06-17T08:02:54.000Z</time>
        <extensions>
          <ns3:TrackPointExtension>
            <ns3:atemp>22.0</ns3:atemp>
          </ns3:TrackPointExtension>
        </extensions>
      </trkpt>
      <trkpt lat="42.5557979755103588104248046875" lon="19.95402515865862369537353515625">
        <ele>1046</ele>
        <time>2026-06-17T08:02:55.000Z</time>
        <extensions>
          <ns3:TrackPointExtension>
            <ns3:atemp>22.0</ns3:atemp>
          </ns3:TrackPointExtension>
        </extensions>
      </trkpt>
      <trkpt lat="42.55577023141086101531982421875" lon="19.954075701534748077392578125">
        <ele>1046.199951171875</ele>
        <time>2026-06-17T08:02:56.000Z</time>
        <extensions>
          <ns3:TrackPointExtension>
            <ns3:atemp>22.0</ns3:atemp>
          </ns3:TrackPointExtension>
        </extensions>
      </trkpt>
      <trkpt lat="42.555741481482982635498046875" lon="19.9541298486292362213134765625">
        <ele>1046.4000244140625</ele>
        <time>2026-06-17T08:02:57.000Z</time>
        <extensions>
          <ns3:TrackPointExtension>
            <ns3:atemp>22.0</ns3:atemp>
          </ns3:TrackPointExtension>
        </extensions>
      </trkpt>
      <trkpt lat="42.5557121448218822479248046875" lon="19.95418374426662921905517578125">
        <ele>1046.5999755859375</ele>
        <time>2026-06-17T08:02:58.000Z</time>
        <extensions>
          <ns3:TrackPointExtension>
            <ns3:atemp>22.0</ns3:atemp>
          </ns3:TrackPointExtension>
        </extensions>
      </trkpt>
      <trkpt lat="42.555685155093669891357421875" lon="19.95423302985727787017822265625">
        <ele>1046.800048828125</ele>
        <time>2026-06-17T08:02:59.000Z</time>
        <extensions>
          <ns3:TrackPointExtension>
            <ns3:atemp>22.0</ns3:atemp>
          </ns3:TrackPointExtension>
        </extensions>
      </trkpt>
      <trkpt lat="42.555659003555774688720703125" lon="19.95428524911403656005859375">
        <ele>1047</ele>
        <time>2026-06-17T08:03:00.000Z</time>
        <extensions>
          <ns3:TrackPointExtension>
            <ns3:atemp>22.0</ns3:atemp>
          </ns3:TrackPointExtension>
        </extensions>
      </trkpt>
      <trkpt lat="42.5556333549320697784423828125" lon="19.954339899122714996337890625">
        <ele>1047</ele>
        <time>2026-06-17T08:03:01.000Z</time>
        <extensions>
          <ns3:TrackPointExtension>
            <ns3:atemp>22.0</ns3:atemp>
          </ns3:TrackPointExtension>
        </extensions>
      </trkpt>
      <trkpt lat="42.555608041584491729736328125" lon="19.95439253747463226318359375">
        <ele>1047.199951171875</ele>
        <time>2026-06-17T08:03:02.000Z</time>
        <extensions>
          <ns3:TrackPointExtension>
            <ns3:atemp>22.0</ns3:atemp>
          </ns3:TrackPointExtension>
        </extensions>
      </trkpt>
      <trkpt lat="42.555582225322723388671875" lon="19.95444559492170810699462890625">
        <ele>1047.199951171875</ele>
        <time>2026-06-17T08:03:03.000Z</time>
        <extensions>
          <ns3:TrackPointExtension>
            <ns3:atemp>22.0</ns3:atemp>
          </ns3:TrackPointExtension>
        </extensions>
      </trkpt>
      <trkpt lat="42.555556409060955047607421875" lon="19.95449437759816646575927734375">
        <ele>1047.4000244140625</ele>
        <time>2026-06-17T08:03:04.000Z</time>
        <extensions>
          <ns3:TrackPointExtension>
            <ns3:atemp>22.0</ns3:atemp>
          </ns3:TrackPointExtension>
        </extensions>
      </trkpt>
      <trkpt lat="42.5555321015417575836181640625" lon="19.95454676449298858642578125">
        <ele>1047.5999755859375</ele>
        <time>2026-06-17T08:03:05.000Z</time>
        <extensions>
          <ns3:TrackPointExtension>
            <ns3:atemp>22.0</ns3:atemp>
          </ns3:TrackPointExtension>
        </extensions>
      </trkpt>
      <trkpt lat="42.5555079616606235504150390625" lon="19.9546002410352230072021484375">
        <ele>1047.800048828125</ele>
        <time>2026-06-17T08:03:06.000Z</time>
        <extensions>
          <ns3:TrackPointExtension>
            <ns3:atemp>22.0</ns3:atemp>
          </ns3:TrackPointExtension>
        </extensions>
      </trkpt>
      <trkpt lat="42.5554871745407581329345703125" lon="19.9546558968722820281982421875">
        <ele>1048</ele>
        <time>2026-06-17T08:03:07.000Z</time>
        <extensions>
          <ns3:TrackPointExtension>
            <ns3:atemp>22.0</ns3:atemp>
          </ns3:TrackPointExtension>
        </extensions>
      </trkpt>
      <trkpt lat="42.5554668903350830078125" lon="19.9547112174332141876220703125">
        <ele>1048.199951171875</ele>
        <time>2026-06-17T08:03:08.000Z</time>
        <extensions>
          <ns3:TrackPointExtension>
            <ns3:atemp>22.0</ns3:atemp>
          </ns3:TrackPointExtension>
        </extensions>
      </trkpt>
      <trkpt lat="42.5554439239203929901123046875" lon="19.95476377196609973907470703125">
        <ele>1048.5999755859375</ele>
        <time>2026-06-17T08:03:09.000Z</time>
        <extensions>
          <ns3:TrackPointExtension>
            <ns3:atemp>22.0</ns3:atemp>
          </ns3:TrackPointExtension>
        </extensions>
      </trkpt>
      <trkpt lat="42.555424310266971588134765625" lon="19.95481272228062152862548828125">
        <ele>1048.800048828125</ele>
        <time>2026-06-17T08:03:10.000Z</time>
        <extensions>
          <ns3:TrackPointExtension>
            <ns3:atemp>22.0</ns3:atemp>
          </ns3:TrackPointExtension>
        </extensions>
      </trkpt>
      <trkpt lat="42.5554060377180576324462890625" lon="19.95486686937510967254638671875">
        <ele>1049.199951171875</ele>
        <time>2026-06-17T08:03:11.000Z</time>
        <extensions>
          <ns3:TrackPointExtension>
            <ns3:atemp>22.0</ns3:atemp>
          </ns3:TrackPointExtension>
        </extensions>
      </trkpt>
      <trkpt lat="42.555388100445270538330078125" lon="19.95492135174572467803955078125">
        <ele>1049.4000244140625</ele>
        <time>2026-06-17T08:03:12.000Z</time>
        <extensions>
          <ns3:TrackPointExtension>
            <ns3:atemp>22.0</ns3:atemp>
          </ns3:TrackPointExtension>
        </extensions>
      </trkpt>
      <trkpt lat="42.5553684867918491363525390625" lon="19.9549765884876251220703125">
        <ele>1049.5999755859375</ele>
        <time>2026-06-17T08:03:13.000Z</time>
        <extensions>
          <ns3:TrackPointExtension>
            <ns3:atemp>22.0</ns3:atemp>
          </ns3:TrackPointExtension>
        </extensions>
      </trkpt>
      <trkpt lat="42.5553487055003643035888671875" lon="19.955027215182781219482421875">
        <ele>1049.5999755859375</ele>
        <time>2026-06-17T08:03:14.000Z</time>
        <extensions>
          <ns3:TrackPointExtension>
            <ns3:atemp>22.0</ns3:atemp>
          </ns3:TrackPointExtension>
        </extensions>
      </trkpt>
      <trkpt lat="42.5553287565708160400390625" lon="19.9550758302211761474609375">
        <ele>1049.800048828125</ele>
        <time>2026-06-17T08:03:15.000Z</time>
        <extensions>
          <ns3:TrackPointExtension>
            <ns3:atemp>22.0</ns3:atemp>
          </ns3:TrackPointExtension>
        </extensions>
      </trkpt>
      <trkpt lat="42.5553098134696483612060546875" lon="19.95512503199279308319091796875">
        <ele>1050</ele>
        <time>2026-06-17T08:03:16.000Z</time>
        <extensions>
          <ns3:TrackPointExtension>
            <ns3:atemp>22.0</ns3:atemp>
          </ns3:TrackPointExtension>
        </extensions>
      </trkpt>
      <trkpt lat="42.5552900321781635284423828125" lon="19.95517398230731487274169921875">
        <ele>1050.199951171875</ele>
        <time>2026-06-17T08:03:17.000Z</time>
        <extensions>
          <ns3:TrackPointExtension>
            <ns3:atemp>22.0</ns3:atemp>
          </ns3:TrackPointExtension>
        </extensions>
      </trkpt>
      <trkpt lat="42.55527184344828128814697265625" lon="19.9552235193550586700439453125">
        <ele>1050.4000244140625</ele>
        <time>2026-06-17T08:03:18.000Z</time>
        <extensions>
          <ns3:TrackPointExtension>
            <ns3:atemp>22.0</ns3:atemp>
          </ns3:TrackPointExtension>
        </extensions>
      </trkpt>
      <trkpt lat="42.55525625310838222503662109375" lon="19.9552743136882781982421875">
        <ele>1050.5999755859375</ele>
        <time>2026-06-17T08:03:19.000Z</time>
        <extensions>
          <ns3:TrackPointExtension>
            <ns3:atemp>22.0</ns3:atemp>
          </ns3:TrackPointExtension>
        </extensions>
      </trkpt>
      <trkpt lat="42.555241920053958892822265625" lon="19.95533089153468608856201171875">
        <ele>1050.5999755859375</ele>
        <time>2026-06-17T08:03:20.000Z</time>
        <extensions>
          <ns3:TrackPointExtension>
            <ns3:atemp>22.0</ns3:atemp>
          </ns3:TrackPointExtension>
        </extensions>
      </trkpt>
      <trkpt lat="42.5552296824753284454345703125" lon="19.9553878046572208404541015625">
        <ele>1050.800048828125</ele>
        <time>2026-06-17T08:03:21.000Z</time>
        <extensions>
          <ns3:TrackPointExtension>
            <ns3:atemp>22.0</ns3:atemp>
          </ns3:TrackPointExtension>
        </extensions>
      </trkpt>
      <trkpt lat="42.5552176125347614288330078125" lon="19.9554505012929439544677734375">
        <ele>1050.800048828125</ele>
        <time>2026-06-17T08:03:22.000Z</time>
        <extensions>
          <ns3:TrackPointExtension>
            <ns3:atemp>22.0</ns3:atemp>
          </ns3:TrackPointExtension>
        </extensions>
      </trkpt>
      <trkpt lat="42.55520872771739959716796875" lon="19.95551328174769878387451171875">
        <ele>1051</ele>
        <time>2026-06-17T08:03:23.000Z</time>
        <extensions>
          <ns3:TrackPointExtension>
            <ns3:atemp>22.0</ns3:atemp>
          </ns3:TrackPointExtension>
        </extensions>
      </trkpt>
      <trkpt lat="42.5551974959671497344970703125" lon="19.95557606220245361328125">
        <ele>1051</ele>
        <time>2026-06-17T08:03:24.000Z</time>
        <extensions>
          <ns3:TrackPointExtension>
            <ns3:atemp>22.0</ns3:atemp>
          </ns3:TrackPointExtension>
        </extensions>
      </trkpt>
      <trkpt lat="42.55518735386431217193603515625" lon="19.95563582517206668853759765625">
        <ele>1051.199951171875</ele>
        <time>2026-06-17T08:03:25.000Z</time>
        <extensions>
          <ns3:TrackPointExtension>
            <ns3:atemp>22.0</ns3:atemp>
          </ns3:TrackPointExtension>
        </extensions>
      </trkpt>
      <trkpt lat="42.5551753677427768707275390625" lon="19.95569206774234771728515625">
        <ele>1051.4000244140625</ele>
        <time>2026-06-17T08:03:26.000Z</time>
        <extensions>
          <ns3:TrackPointExtension>
            <ns3:atemp>22.0</ns3:atemp>
          </ns3:TrackPointExtension>
        </extensions>
      </trkpt>
      <trkpt lat="42.55516002885997295379638671875" lon="19.95574328117072582244873046875">
        <ele>1051.5999755859375</ele>
        <time>2026-06-17T08:03:27.000Z</time>
        <extensions>
          <ns3:TrackPointExtension>
            <ns3:atemp>22.0</ns3:atemp>
          </ns3:TrackPointExtension>
        </extensions>
      </trkpt>
      <trkpt lat="42.5551371462643146514892578125" lon="19.95578351430594921112060546875">
        <ele>1051.800048828125</ele>
        <time>2026-06-17T08:03:28.000Z</time>
        <extensions>
          <ns3:TrackPointExtension>
            <ns3:atemp>22.0</ns3:atemp>
          </ns3:TrackPointExtension>
        </extensions>
      </trkpt>
      <trkpt lat="42.55510789342224597930908203125" lon="19.95582215487957000732421875">
        <ele>1052</ele>
        <time>2026-06-17T08:03:29.000Z</time>
        <extensions>
          <ns3:TrackPointExtension>
            <ns3:atemp>22.0</ns3:atemp>
          </ns3:TrackPointExtension>
        </extensions>
      </trkpt>
      <trkpt lat="42.55507067777216434478759765625" lon="19.95586247183382511138916015625">
        <ele>1052</ele>
        <time>2026-06-17T08:03:30.000Z</time>
        <extensions>
          <ns3:TrackPointExtension>
            <ns3:atemp>22.0</ns3:atemp>
          </ns3:TrackPointExtension>
        </extensions>
      </trkpt>
      <trkpt lat="42.5550342164933681488037109375" lon="19.9559004418551921844482421875">
        <ele>1052.199951171875</ele>
        <time>2026-06-17T08:03:31.000Z</time>
        <extensions>
          <ns3:TrackPointExtension>
            <ns3:atemp>22.0</ns3:atemp>
          </ns3:TrackPointExtension>
        </extensions>
      </trkpt>
      <trkpt lat="42.5550068914890289306640625" lon="19.9559319578111171722412109375">
        <ele>1052.199951171875</ele>
        <time>2026-06-17T08:03:32.000Z</time>
        <extensions>
          <ns3:TrackPointExtension>
            <ns3:atemp>22.0</ns3:atemp>
          </ns3:TrackPointExtension>
        </extensions>
      </trkpt>
      <trkpt lat="42.55497914738953113555908203125" lon="19.955963976681232452392578125">
        <ele>1052.199951171875</ele>
        <time>2026-06-17T08:03:33.000Z</time>
        <extensions>
          <ns3:TrackPointExtension>
            <ns3:atemp>22.0</ns3:atemp>
          </ns3:TrackPointExtension>
        </extensions>
      </trkpt>
      <trkpt lat="42.554958276450634002685546875" lon="19.95600177906453609466552734375">
        <ele>1052.199951171875</ele>
        <time>2026-06-17T08:03:34.000Z</time>
        <extensions>
          <ns3:TrackPointExtension>
            <ns3:atemp>22.0</ns3:atemp>
          </ns3:TrackPointExtension>
        </extensions>
      </trkpt>
      <trkpt lat="42.5549363158643245697021484375" lon="19.95604989118874073028564453125">
        <ele>1052.199951171875</ele>
        <time>2026-06-17T08:03:35.000Z</time>
        <extensions>
          <ns3:TrackPointExtension>
            <ns3:atemp>22.0</ns3:atemp>
          </ns3:TrackPointExtension>
        </extensions>
      </trkpt>
      <trkpt lat="42.554913349449634552001953125" lon="19.95609800331294536590576171875">
        <ele>1052</ele>
        <time>2026-06-17T08:03:36.000Z</time>
        <extensions>
          <ns3:TrackPointExtension>
            <ns3:atemp>22.0</ns3:atemp>
          </ns3:TrackPointExtension>
        </extensions>
      </trkpt>
      <trkpt lat="42.55488476715981960296630859375" lon="19.95613337494432926177978515625">
        <ele>1051.800048828125</ele>
        <time>2026-06-17T08:03:37.000Z</time>
        <extensions>
          <ns3:TrackPointExtension>
            <ns3:atemp>22.0</ns3:atemp>
          </ns3:TrackPointExtension>
        </extensions>
      </trkpt>
      <trkpt lat="42.5548647344112396240234375" lon="19.9561532400548458099365234375">
        <ele>1051.800048828125</ele>
        <time>2026-06-17T08:03:38.000Z</time>
        <extensions>
          <ns3:TrackPointExtension>
            <ns3:atemp>22.0</ns3:atemp>
          </ns3:TrackPointExtension>
        </extensions>
      </trkpt>
      <trkpt lat="42.5548474676907062530517578125" lon="19.9561706744134426116943359375">
        <ele>1051.800048828125</ele>
        <time>2026-06-17T08:03:39.000Z</time>
        <extensions>
          <ns3:TrackPointExtension>
            <ns3:atemp>22.0</ns3:atemp>
          </ns3:TrackPointExtension>
        </extensions>
      </trkpt>
      <trkpt lat="42.55483782850205898284912109375" lon="19.9561860971152782440185546875">
        <ele>1051.800048828125</ele>
        <time>2026-06-17T08:03:40.000Z</time>
        <extensions>
          <ns3:TrackPointExtension>
            <ns3:atemp>22.0</ns3:atemp>
          </ns3:TrackPointExtension>
        </extensions>
      </trkpt>
      <trkpt lat="42.55482760258018970489501953125" lon="19.95620445348322391510009765625">
        <ele>1052</ele>
        <time>2026-06-17T08:03:41.000Z</time>
        <extensions>
          <ns3:TrackPointExtension>
            <ns3:atemp>22.0</ns3:atemp>
          </ns3:TrackPointExtension>
        </extensions>
      </trkpt>
      <trkpt lat="42.554820477962493896484375" lon="19.95622180402278900146484375">
        <ele>1052</ele>
        <time>2026-06-17T08:03:42.000Z</time>
        <extensions>
          <ns3:TrackPointExtension>
            <ns3:atemp>22.0</ns3:atemp>
          </ns3:TrackPointExtension>
        </extensions>
      </trkpt>
      <trkpt lat="42.5548084080219268798828125" lon="19.95624368079006671905517578125">
        <ele>1052.199951171875</ele>
        <time>2026-06-17T08:03:43.000Z</time>
        <extensions>
          <ns3:TrackPointExtension>
            <ns3:atemp>22.0</ns3:atemp>
          </ns3:TrackPointExtension>
        </extensions>
      </trkpt>
      <trkpt lat="42.55479658953845500946044921875" lon="19.95626597665250301361083984375">
        <ele>1052.199951171875</ele>
        <time>2026-06-17T08:03:44.000Z</time>
        <extensions>
          <ns3:TrackPointExtension>
            <ns3:atemp>22.0</ns3:atemp>
          </ns3:TrackPointExtension>
        </extensions>
      </trkpt>
      <trkpt lat="42.5547817535698413848876953125" lon="19.956294558942317962646484375">
        <ele>1052.199951171875</ele>
        <time>2026-06-17T08:03:45.000Z</time>
        <extensions>
          <ns3:TrackPointExtension>
            <ns3:atemp>22.0</ns3:atemp>
          </ns3:TrackPointExtension>
        </extensions>
      </trkpt>
      <trkpt lat="42.55476976744830608367919921875" lon="19.9563222192227840423583984375">
        <ele>1052</ele>
        <time>2026-06-17T08:03:46.000Z</time>
        <extensions>
          <ns3:TrackPointExtension>
            <ns3:atemp>22.0</ns3:atemp>
          </ns3:TrackPointExtension>
        </extensions>
      </trkpt>
      <trkpt lat="42.55475166253745555877685546875" lon="19.95635599829256534576416015625">
        <ele>1052</ele>
        <time>2026-06-17T08:03:47.000Z</time>
        <extensions>
          <ns3:TrackPointExtension>
            <ns3:atemp>22.0</ns3:atemp>
          </ns3:TrackPointExtension>
        </extensions>
      </trkpt>
      <trkpt lat="42.5547324679791927337646484375" lon="19.95639212429523468017578125">
        <ele>1052</ele>
        <time>2026-06-17T08:03:48.000Z</time>
        <extensions>
          <ns3:TrackPointExtension>
            <ns3:atemp>22.0</ns3:atemp>
          </ns3:TrackPointExtension>
        </extensions>
      </trkpt>
      <trkpt lat="42.5547136925160884857177734375" lon="19.95642657391726970672607421875">
        <ele>1052</ele>
        <time>2026-06-17T08:03:49.000Z</time>
        <extensions>
          <ns3:TrackPointExtension>
            <ns3:atemp>22.0</ns3:atemp>
          </ns3:TrackPointExtension>
        </extensions>
      </trkpt>
      <trkpt lat="42.55469617433845996856689453125" lon="19.95646010152995586395263671875">
        <ele>1052.199951171875</ele>
        <time>2026-06-17T08:03:50.000Z</time>
        <extensions>
          <ns3:TrackPointExtension>
            <ns3:atemp>22.0</ns3:atemp>
          </ns3:TrackPointExtension>
        </extensions>
      </trkpt>
      <trkpt lat="42.5546781532466411590576171875" lon="19.9564922042191028594970703125">
        <ele>1052.199951171875</ele>
        <time>2026-06-17T08:03:51.000Z</time>
        <extensions>
          <ns3:TrackPointExtension>
            <ns3:atemp>22.0</ns3:atemp>
          </ns3:TrackPointExtension>
        </extensions>
      </trkpt>
      <trkpt lat="42.5546662509441375732421875" lon="19.95652891695499420166015625">
        <ele>1052.199951171875</ele>
        <time>2026-06-17T08:03:52.000Z</time>
        <extensions>
          <ns3:TrackPointExtension>
            <ns3:atemp>22.0</ns3:atemp>
          </ns3:TrackPointExtension>
        </extensions>
      </trkpt>
      <trkpt lat="42.5546556897461414337158203125" lon="19.9565612711012363433837890625">
        <ele>1052.4000244140625</ele>
        <time>2026-06-17T08:03:53.000Z</time>
        <extensions>
          <ns3:TrackPointExtension>
            <ns3:atemp>22.0</ns3:atemp>
          </ns3:TrackPointExtension>
        </extensions>
      </trkpt>
      <trkpt lat="42.5546469725668430328369140625" lon="19.9565993249416351318359375">
        <ele>1052.4000244140625</ele>
        <time>2026-06-17T08:03:54.000Z</time>
        <extensions>
          <ns3:TrackPointExtension>
            <ns3:atemp>22.0</ns3:atemp>
          </ns3:TrackPointExtension>
        </extensions>
      </trkpt>
      <trkpt lat="42.554640434682369232177734375" lon="19.95663821697235107421875">
        <ele>1052.4000244140625</ele>
        <time>2026-06-17T08:03:55.000Z</time>
        <extensions>
          <ns3:TrackPointExtension>
            <ns3:atemp>22.0</ns3:atemp>
          </ns3:TrackPointExtension>
        </extensions>
      </trkpt>
      <trkpt lat="42.55463331006467342376708984375" lon="19.956678114831447601318359375">
        <ele>1052.5999755859375</ele>
        <time>2026-06-17T08:03:56.000Z</time>
        <extensions>
          <ns3:TrackPointExtension>
            <ns3:atemp>22.0</ns3:atemp>
          </ns3:TrackPointExtension>
        </extensions>
      </trkpt>
      <trkpt lat="42.55462744273245334625244140625" lon="19.9567138217389583587646484375">
        <ele>1052.5999755859375</ele>
        <time>2026-06-17T08:03:57.000Z</time>
        <extensions>
          <ns3:TrackPointExtension>
            <ns3:atemp>22.0</ns3:atemp>
          </ns3:TrackPointExtension>
        </extensions>
      </trkpt>
      <trkpt lat="42.55462459288537502288818359375" lon="19.95674156583845615386962890625">
        <ele>1052.800048828125</ele>
        <time>2026-06-17T08:03:58.000Z</time>
        <extensions>
          <ns3:TrackPointExtension>
            <ns3:atemp>22.0</ns3:atemp>
          </ns3:TrackPointExtension>
        </extensions>
      </trkpt>
      <trkpt lat="42.55461738444864749908447265625" lon="19.95677039958536624908447265625">
        <ele>1053</ele>
        <time>2026-06-17T08:03:59.000Z</time>
        <extensions>
          <ns3:TrackPointExtension>
            <ns3:atemp>22.0</ns3:atemp>
          </ns3:TrackPointExtension>
        </extensions>
      </trkpt>
      <trkpt lat="42.5546094216406345367431640625" lon="19.95679722167551517486572265625">
        <ele>1053</ele>
        <time>2026-06-17T08:04:00.000Z</time>
        <extensions>
          <ns3:TrackPointExtension>
            <ns3:atemp>22.0</ns3:atemp>
          </ns3:TrackPointExtension>
        </extensions>
      </trkpt>
      <trkpt lat="42.5546033866703510284423828125" lon="19.95682404376566410064697265625">
        <ele>1053.199951171875</ele>
        <time>2026-06-17T08:04:01.000Z</time>
        <extensions>
          <ns3:TrackPointExtension>
            <ns3:atemp>22.0</ns3:atemp>
          </ns3:TrackPointExtension>
        </extensions>
      </trkpt>
      <trkpt lat="42.55458720959722995758056640625" lon="19.95685069821774959564208984375">
        <ele>1053.199951171875</ele>
        <time>2026-06-17T08:04:02.000Z</time>
        <extensions>
          <ns3:TrackPointExtension>
            <ns3:atemp>22.0</ns3:atemp>
          </ns3:TrackPointExtension>
        </extensions>
      </trkpt>
      <trkpt lat="42.55457161925733089447021484375" lon="19.95686779730021953582763671875">
        <ele>1053.4000244140625</ele>
        <time>2026-06-17T08:04:03.000Z</time>
        <extensions>
          <ns3:TrackPointExtension>
            <ns3:atemp>22.0</ns3:atemp>
          </ns3:TrackPointExtension>
        </extensions>
      </trkpt>
      <trkpt lat="42.55455837585031986236572265625" lon="19.95688489638268947601318359375">
        <ele>1053.4000244140625</ele>
        <time>2026-06-17T08:04:04.000Z</time>
        <extensions>
          <ns3:TrackPointExtension>
            <ns3:atemp>22.0</ns3:atemp>
          </ns3:TrackPointExtension>
        </extensions>
      </trkpt>
      <trkpt lat="42.55454731173813343048095703125" lon="19.9569089524447917938232421875">
        <ele>1053.5999755859375</ele>
        <time>2026-06-17T08:04:05.000Z</time>
        <extensions>
          <ns3:TrackPointExtension>
            <ns3:atemp>22.0</ns3:atemp>
          </ns3:TrackPointExtension>
        </extensions>
      </trkpt>
      <trkpt lat="42.5545380078256130218505859375" lon="19.95693116448819637298583984375">
        <ele>1053.5999755859375</ele>
        <time>2026-06-17T08:04:06.000Z</time>
        <extensions>
          <ns3:TrackPointExtension>
            <ns3:atemp>22.0</ns3:atemp>
          </ns3:TrackPointExtension>
        </extensions>
      </trkpt>
      <trkpt lat="42.55452367477118968963623046875" lon="19.956957064568996429443359375">
        <ele>1053.800048828125</ele>
        <time>2026-06-17T08:04:07.000Z</time>
        <extensions>
          <ns3:TrackPointExtension>
            <ns3:atemp>22.0</ns3:atemp>
          </ns3:TrackPointExtension>
        </extensions>
      </trkpt>
      <trkpt lat="42.554510347545146942138671875" lon="19.9569793604314327239990234375">
        <ele>1053.5999755859375</ele>
        <time>2026-06-17T08:04:08.000Z</time>
        <extensions>
          <ns3:TrackPointExtension>
            <ns3:atemp>22.0</ns3:atemp>
          </ns3:TrackPointExtension>
        </extensions>
      </trkpt>
      <trkpt lat="42.55450070835649967193603515625" lon="19.957001321017742156982421875">
        <ele>1053.5999755859375</ele>
        <time>2026-06-17T08:04:09.000Z</time>
        <extensions>
          <ns3:TrackPointExtension>
            <ns3:atemp>22.0</ns3:atemp>
          </ns3:TrackPointExtension>
        </extensions>
      </trkpt>
      <trkpt lat="42.55448880605399608612060546875" lon="19.9570209346711635589599609375">
        <ele>1053.5999755859375</ele>
        <time>2026-06-17T08:04:10.000Z</time>
        <extensions>
          <ns3:TrackPointExtension>
            <ns3:atemp>22.0</ns3:atemp>
          </ns3:TrackPointExtension>
        </extensions>
      </trkpt>
      <trkpt lat="42.554478831589221954345703125" lon="19.957040213048458099365234375">
        <ele>1053.5999755859375</ele>
        <time>2026-06-17T08:04:11.000Z</time>
        <extensions>
          <ns3:TrackPointExtension>
            <ns3:atemp>22.0</ns3:atemp>
          </ns3:TrackPointExtension>
        </extensions>
      </trkpt>
      <trkpt lat="42.55446986295282840728759765625" lon="19.95706108398735523223876953125">
        <ele>1053.5999755859375</ele>
        <time>2026-06-17T08:04:12.000Z</time>
        <extensions>
          <ns3:TrackPointExtension>
            <ns3:atemp>22.0</ns3:atemp>
          </ns3:TrackPointExtension>
        </extensions>
      </trkpt>
      <trkpt lat="42.55445913411676883697509765625" lon="19.9570853076875209808349609375">
        <ele>1053.5999755859375</ele>
        <time>2026-06-17T08:04:13.000Z</time>
        <extensions>
          <ns3:TrackPointExtension>
            <ns3:atemp>22.0</ns3:atemp>
          </ns3:TrackPointExtension>
        </extensions>
      </trkpt>
      <trkpt lat="42.55444840528070926666259765625" lon="19.9571124650537967681884765625">
        <ele>1053.5999755859375</ele>
        <time>2026-06-17T08:04:14.000Z</time>
        <extensions>
          <ns3:TrackPointExtension>
            <ns3:atemp>22.0</ns3:atemp>
          </ns3:TrackPointExtension>
        </extensions>
      </trkpt>
      <trkpt lat="42.5544394366443157196044921875" lon="19.95713886804878711700439453125">
        <ele>1053.800048828125</ele>
        <time>2026-06-17T08:04:15.000Z</time>
        <extensions>
          <ns3:TrackPointExtension>
            <ns3:atemp>22.0</ns3:atemp>
          </ns3:TrackPointExtension>
        </extensions>
      </trkpt>
      <trkpt lat="42.5544277019798755645751953125" lon="19.95716619305312633514404296875">
        <ele>1053.800048828125</ele>
        <time>2026-06-17T08:04:16.000Z</time>
        <extensions>
          <ns3:TrackPointExtension>
            <ns3:atemp>22.0</ns3:atemp>
          </ns3:TrackPointExtension>
        </extensions>
      </trkpt>
      <trkpt lat="42.55441890098154544830322265625" lon="19.9571920931339263916015625">
        <ele>1054.199951171875</ele>
        <time>2026-06-17T08:04:17.000Z</time>
        <extensions>
          <ns3:TrackPointExtension>
            <ns3:atemp>22.0</ns3:atemp>
          </ns3:TrackPointExtension>
        </extensions>
      </trkpt>
      <trkpt lat="42.55441320128738880157470703125" lon="19.95721011422574520111083984375">
        <ele>1054.199951171875</ele>
        <time>2026-06-17T08:04:18.000Z</time>
        <extensions>
          <ns3:TrackPointExtension>
            <ns3:atemp>22.0</ns3:atemp>
          </ns3:TrackPointExtension>
        </extensions>
      </trkpt>
      <trkpt lat="42.5544028915464878082275390625" lon="19.95723928324878215789794921875">
        <ele>1054.4000244140625</ele>
        <time>2026-06-17T08:04:19.000Z</time>
        <extensions>
          <ns3:TrackPointExtension>
            <ns3:atemp>22.0</ns3:atemp>
          </ns3:TrackPointExtension>
        </extensions>
      </trkpt>
      <trkpt lat="42.5543899834156036376953125" lon="19.95726509951055049896240234375">
        <ele>1054.5999755859375</ele>
        <time>2026-06-17T08:04:20.000Z</time>
        <extensions>
          <ns3:TrackPointExtension>
            <ns3:atemp>22.0</ns3:atemp>
          </ns3:TrackPointExtension>
        </extensions>
      </trkpt>
      <trkpt lat="42.55437732674181461334228515625" lon="19.95728303678333759307861328125">
        <ele>1054.800048828125</ele>
        <time>2026-06-17T08:04:21.000Z</time>
        <extensions>
          <ns3:TrackPointExtension>
            <ns3:atemp>22.0</ns3:atemp>
          </ns3:TrackPointExtension>
        </extensions>
      </trkpt>
      <trkpt lat="42.5543683581054210662841796875" lon="19.95730114169418811798095703125">
        <ele>1055</ele>
        <time>2026-06-17T08:04:22.000Z</time>
        <extensions>
          <ns3:TrackPointExtension>
            <ns3:atemp>22.0</ns3:atemp>
          </ns3:TrackPointExtension>
        </extensions>
      </trkpt>
      <trkpt lat="42.55435486324131488800048828125" lon="19.95732394047081470489501953125">
        <ele>1055.199951171875</ele>
        <time>2026-06-17T08:04:23.000Z</time>
        <extensions>
          <ns3:TrackPointExtension>
            <ns3:atemp>22.0</ns3:atemp>
          </ns3:TrackPointExtension>
        </extensions>
      </trkpt>
      <trkpt lat="42.554342709481716156005859375" lon="19.9573444761335849761962890625">
        <ele>1055.4000244140625</ele>
        <time>2026-06-17T08:04:24.000Z</time>
        <extensions>
          <ns3:TrackPointExtension>
            <ns3:atemp>22.0</ns3:atemp>
          </ns3:TrackPointExtension>
        </extensions>
      </trkpt>
      <trkpt lat="42.55432988516986370086669921875" lon="19.9573666043579578399658203125">
        <ele>1055.5999755859375</ele>
        <time>2026-06-17T08:04:25.000Z</time>
        <extensions>
          <ns3:TrackPointExtension>
            <ns3:atemp>22.0</ns3:atemp>
          </ns3:TrackPointExtension>
        </extensions>
      </trkpt>
      <trkpt lat="42.554316222667694091796875" lon="19.95738412253558635711669921875">
        <ele>1055.5999755859375</ele>
        <time>2026-06-17T08:04:26.000Z</time>
        <extensions>
          <ns3:TrackPointExtension>
            <ns3:atemp>22.0</ns3:atemp>
          </ns3:TrackPointExtension>
        </extensions>
      </trkpt>
      <trkpt lat="42.55430390127003192901611328125" lon="19.9574039876461029052734375">
        <ele>1055.800048828125</ele>
        <time>2026-06-17T08:04:27.000Z</time>
        <extensions>
          <ns3:TrackPointExtension>
            <ns3:atemp>22.0</ns3:atemp>
          </ns3:TrackPointExtension>
        </extensions>
      </trkpt>
      <trkpt lat="42.5542934238910675048828125" lon="19.9574219249188899993896484375">
        <ele>1056</ele>
        <time>2026-06-17T08:04:28.000Z</time>
        <extensions>
          <ns3:TrackPointExtension>
            <ns3:atemp>22.0</ns3:atemp>
          </ns3:TrackPointExtension>
        </extensions>
      </trkpt>
      <trkpt lat="42.554283700883388519287109375" lon="19.95743793435394763946533203125">
        <ele>1056</ele>
        <time>2026-06-17T08:04:29.000Z</time>
        <extensions>
          <ns3:TrackPointExtension>
            <ns3:atemp>22.0</ns3:atemp>
          </ns3:TrackPointExtension>
        </extensions>
      </trkpt>
      <trkpt lat="42.55427339114248752593994140625" lon="19.95745486579835414886474609375">
        <ele>1056.199951171875</ele>
        <time>2026-06-17T08:04:30.000Z</time>
        <extensions>
          <ns3:TrackPointExtension>
            <ns3:atemp>22.0</ns3:atemp>
          </ns3:TrackPointExtension>
        </extensions>
      </trkpt>
      <trkpt lat="42.5542634166777133941650390625" lon="19.95747598819434642791748046875">
        <ele>1056.4000244140625</ele>
        <time>2026-06-17T08:04:31.000Z</time>
        <extensions>
          <ns3:TrackPointExtension>
            <ns3:atemp>22.0</ns3:atemp>
          </ns3:TrackPointExtension>
        </extensions>
      </trkpt>
      <trkpt lat="42.55425344221293926239013671875" lon="19.9574943445622920989990234375">
        <ele>1056.4000244140625</ele>
        <time>2026-06-17T08:04:32.000Z</time>
        <extensions>
          <ns3:TrackPointExtension>
            <ns3:atemp>22.0</ns3:atemp>
          </ns3:TrackPointExtension>
        </extensions>
      </trkpt>
      <trkpt lat="42.55424271337687969207763671875" lon="19.95750934816896915435791015625">
        <ele>1056.5999755859375</ele>
        <time>2026-06-17T08:04:33.000Z</time>
        <extensions>
          <ns3:TrackPointExtension>
            <ns3:atemp>22.0</ns3:atemp>
          </ns3:TrackPointExtension>
        </extensions>
      </trkpt>
      <trkpt lat="42.554232068359851837158203125" lon="19.9575295485556125640869140625">
        <ele>1056.800048828125</ele>
        <time>2026-06-17T08:04:34.000Z</time>
        <extensions>
          <ns3:TrackPointExtension>
            <ns3:atemp>22.0</ns3:atemp>
          </ns3:TrackPointExtension>
        </extensions>
      </trkpt>
      <trkpt lat="42.55421874113380908966064453125" lon="19.9575459770858287811279296875">
        <ele>1057</ele>
        <time>2026-06-17T08:04:35.000Z</time>
        <extensions>
          <ns3:TrackPointExtension>
            <ns3:atemp>22.0</ns3:atemp>
          </ns3:TrackPointExtension>
        </extensions>
      </trkpt>
      <trkpt lat="42.5542064197361469268798828125" lon="19.95756265707314014434814453125">
        <ele>1057.199951171875</ele>
        <time>2026-06-17T08:04:36.000Z</time>
        <extensions>
          <ns3:TrackPointExtension>
            <ns3:atemp>22.0</ns3:atemp>
          </ns3:TrackPointExtension>
        </extensions>
      </trkpt>
      <trkpt lat="42.55419610999524593353271484375" lon="19.95757858268916606903076171875">
        <ele>1057.4000244140625</ele>
        <time>2026-06-17T08:04:37.000Z</time>
        <extensions>
          <ns3:TrackPointExtension>
            <ns3:atemp>22.0</ns3:atemp>
          </ns3:TrackPointExtension>
        </extensions>
      </trkpt>
      <trkpt lat="42.55418420769274234771728515625" lon="19.957595765590667724609375">
        <ele>1057.4000244140625</ele>
        <time>2026-06-17T08:04:38.000Z</time>
        <extensions>
          <ns3:TrackPointExtension>
            <ns3:atemp>22.0</ns3:atemp>
          </ns3:TrackPointExtension>
        </extensions>
      </trkpt>
      <trkpt lat="42.55417431704699993133544921875" lon="19.9576147086918354034423828125">
        <ele>1057.5999755859375</ele>
        <time>2026-06-17T08:04:39.000Z</time>
        <extensions>
          <ns3:TrackPointExtension>
            <ns3:atemp>22.0</ns3:atemp>
          </ns3:TrackPointExtension>
        </extensions>
      </trkpt>
      <trkpt lat="42.55416325293481349945068359375" lon="19.95763775892555713653564453125">
        <ele>1057.5999755859375</ele>
        <time>2026-06-17T08:04:40.000Z</time>
        <extensions>
          <ns3:TrackPointExtension>
            <ns3:atemp>22.0</ns3:atemp>
          </ns3:TrackPointExtension>
        </extensions>
      </trkpt>
      <trkpt lat="42.55415101535618305206298828125" lon="19.95765946805477142333984375">
        <ele>1057.5999755859375</ele>
        <time>2026-06-17T08:04:41.000Z</time>
        <extensions>
          <ns3:TrackPointExtension>
            <ns3:atemp>22.0</ns3:atemp>
          </ns3:TrackPointExtension>
        </extensions>
      </trkpt>
      <trkpt lat="42.5541407056152820587158203125" lon="19.95768369175493717193603515625">
        <ele>1057.5999755859375</ele>
        <time>2026-06-17T08:04:42.000Z</time>
        <extensions>
          <ns3:TrackPointExtension>
            <ns3:atemp>22.0</ns3:atemp>
          </ns3:TrackPointExtension>
        </extensions>
      </trkpt>
      <trkpt lat="42.55413173697888851165771484375" lon="19.95770565234124660491943359375">
        <ele>1057.5999755859375</ele>
        <time>2026-06-17T08:04:43.000Z</time>
        <extensions>
          <ns3:TrackPointExtension>
            <ns3:atemp>22.0</ns3:atemp>
          </ns3:TrackPointExtension>
        </extensions>
      </trkpt>
      <trkpt lat="42.55412369035184383392333984375" lon="19.95772384107112884521484375">
        <ele>1057.800048828125</ele>
        <time>2026-06-17T08:04:44.000Z</time>
        <extensions>
          <ns3:TrackPointExtension>
            <ns3:atemp>22.0</ns3:atemp>
          </ns3:TrackPointExtension>
        </extensions>
      </trkpt>
      <trkpt lat="42.5541145540773868560791015625" lon="19.95775409974157810211181640625">
        <ele>1058</ele>
        <time>2026-06-17T08:04:45.000Z</time>
        <extensions>
          <ns3:TrackPointExtension>
            <ns3:atemp>22.0</ns3:atemp>
          </ns3:TrackPointExtension>
        </extensions>
      </trkpt>
      <trkpt lat="42.55410709418356418609619140625" lon="19.95777740143239498138427734375">
        <ele>1058</ele>
        <time>2026-06-17T08:04:46.000Z</time>
        <extensions>
          <ns3:TrackPointExtension>
            <ns3:atemp>22.0</ns3:atemp>
          </ns3:TrackPointExtension>
        </extensions>
      </trkpt>
      <trkpt lat="42.55409971810877323150634765625" lon="19.957800619304180145263671875">
        <ele>1058.199951171875</ele>
        <time>2026-06-17T08:04:47.000Z</time>
        <extensions>
          <ns3:TrackPointExtension>
            <ns3:atemp>22.0</ns3:atemp>
          </ns3:TrackPointExtension>
        </extensions>
      </trkpt>
      <trkpt lat="42.55408848635852336883544921875" lon="19.95782651938498020172119140625">
        <ele>1058.4000244140625</ele>
        <time>2026-06-17T08:04:48.000Z</time>
        <extensions>
          <ns3:TrackPointExtension>
            <ns3:atemp>22.0</ns3:atemp>
          </ns3:TrackPointExtension>
        </extensions>
      </trkpt>
      <trkpt lat="42.55408429540693759918212890625" lon="19.95785200037062168121337890625">
        <ele>1058.5999755859375</ele>
        <time>2026-06-17T08:04:49.000Z</time>
        <extensions>
          <ns3:TrackPointExtension>
            <ns3:atemp>22.0</ns3:atemp>
          </ns3:TrackPointExtension>
        </extensions>
      </trkpt>
      <trkpt lat="42.55407406948506832122802734375" lon="19.9578809179365634918212890625">
        <ele>1058.800048828125</ele>
        <time>2026-06-17T08:04:50.000Z</time>
        <extensions>
          <ns3:TrackPointExtension>
            <ns3:atemp>22.0</ns3:atemp>
          </ns3:TrackPointExtension>
        </extensions>
      </trkpt>
      <trkpt lat="42.5540652684867382049560546875" lon="19.95790799148380756378173828125">
        <ele>1058.800048828125</ele>
        <time>2026-06-17T08:04:51.000Z</time>
        <extensions>
          <ns3:TrackPointExtension>
            <ns3:atemp>22.0</ns3:atemp>
          </ns3:TrackPointExtension>
        </extensions>
      </trkpt>
      <trkpt lat="42.55405412055552005767822265625" lon="19.95793439447879791259765625">
        <ele>1058.800048828125</ele>
        <time>2026-06-17T08:04:52.000Z</time>
        <extensions>
          <ns3:TrackPointExtension>
            <ns3:atemp>22.0</ns3:atemp>
          </ns3:TrackPointExtension>
        </extensions>
      </trkpt>
      <trkpt lat="42.554045654833316802978515625" lon="19.95795987546443939208984375">
        <ele>1058.800048828125</ele>
        <time>2026-06-17T08:04:53.000Z</time>
        <extensions>
          <ns3:TrackPointExtension>
            <ns3:atemp>22.0</ns3:atemp>
          </ns3:TrackPointExtension>
        </extensions>
      </trkpt>
      <trkpt lat="42.5540387816727161407470703125" lon="19.95797772891819477081298828125">
        <ele>1058.800048828125</ele>
        <time>2026-06-17T08:04:54.000Z</time>
        <extensions>
          <ns3:TrackPointExtension>
            <ns3:atemp>22.0</ns3:atemp>
          </ns3:TrackPointExtension>
        </extensions>
      </trkpt>
      <trkpt lat="42.55403383634984493255615234375" lon="19.95800203643739223480224609375">
        <ele>1059</ele>
        <time>2026-06-17T08:04:55.000Z</time>
        <extensions>
          <ns3:TrackPointExtension>
            <ns3:atemp>22.0</ns3:atemp>
          </ns3:TrackPointExtension>
        </extensions>
      </trkpt>
      <trkpt lat="42.55402528680860996246337890625" lon="19.95802818797528743743896484375">
        <ele>1059</ele>
        <time>2026-06-17T08:04:56.000Z</time>
        <extensions>
          <ns3:TrackPointExtension>
            <ns3:atemp>22.0</ns3:atemp>
          </ns3:TrackPointExtension>
        </extensions>
      </trkpt>
      <trkpt lat="42.5540171563625335693359375" lon="19.95805107057094573974609375">
        <ele>1059.199951171875</ele>
        <time>2026-06-17T08:04:57.000Z</time>
        <extensions>
          <ns3:TrackPointExtension>
            <ns3:atemp>22.0</ns3:atemp>
          </ns3:TrackPointExtension>
        </extensions>
      </trkpt>
      <trkpt lat="42.55400902591645717620849609375" lon="19.9580718576908111572265625">
        <ele>1059.4000244140625</ele>
        <time>2026-06-17T08:04:58.000Z</time>
        <extensions>
          <ns3:TrackPointExtension>
            <ns3:atemp>22.0</ns3:atemp>
          </ns3:TrackPointExtension>
        </extensions>
      </trkpt>
      <trkpt lat="42.55400382913649082183837890625" lon="19.95809339918196201324462890625">
        <ele>1059.5999755859375</ele>
        <time>2026-06-17T08:04:59.000Z</time>
        <extensions>
          <ns3:TrackPointExtension>
            <ns3:atemp>22.0</ns3:atemp>
          </ns3:TrackPointExtension>
        </extensions>
      </trkpt>
      <trkpt lat="42.55400114692747592926025390625" lon="19.9581115879118442535400390625">
        <ele>1059.5999755859375</ele>
        <time>2026-06-17T08:05:00.000Z</time>
        <extensions>
          <ns3:TrackPointExtension>
            <ns3:atemp>22.0</ns3:atemp>
          </ns3:TrackPointExtension>
        </extensions>
      </trkpt>
      <trkpt lat="42.553999722003936767578125" lon="19.9581270106136798858642578125">
        <ele>1059.5999755859375</ele>
        <time>2026-06-17T08:05:01.000Z</time>
        <extensions>
          <ns3:TrackPointExtension>
            <ns3:atemp>22.0</ns3:atemp>
          </ns3:TrackPointExtension>
        </extensions>
      </trkpt>
      <trkpt lat="42.5539930164813995361328125" lon="19.95814721100032329559326171875">
        <ele>1059.5999755859375</ele>
        <time>2026-06-17T08:05:02.000Z</time>
        <extensions>
          <ns3:TrackPointExtension>
            <ns3:atemp>23.0</ns3:atemp>
          </ns3:TrackPointExtension>
        </extensions>
      </trkpt>
      <trkpt lat="42.55398320965468883514404296875" lon="19.9581585265696048736572265625">
        <ele>1059.800048828125</ele>
        <time>2026-06-17T08:05:03.000Z</time>
        <extensions>
          <ns3:TrackPointExtension>
            <ns3:atemp>22.0</ns3:atemp>
          </ns3:TrackPointExtension>
        </extensions>
      </trkpt>
      <trkpt lat="42.5539769232273101806640625" lon="19.95817503891885280609130859375">
        <ele>1059.800048828125</ele>
        <time>2026-06-17T08:05:04.000Z</time>
        <extensions>
          <ns3:TrackPointExtension>
            <ns3:atemp>22.0</ns3:atemp>
          </ns3:TrackPointExtension>
        </extensions>
      </trkpt>
      <trkpt lat="42.55396963097155094146728515625" lon="19.95819297619163990020751953125">
        <ele>1059.800048828125</ele>
        <time>2026-06-17T08:05:05.000Z</time>
        <extensions>
          <ns3:TrackPointExtension>
            <ns3:atemp>23.0</ns3:atemp>
          </ns3:TrackPointExtension>
        </extensions>
      </trkpt>
      <trkpt lat="42.55396443419158458709716796875" lon="19.95820873416960239410400390625">
        <ele>1060</ele>
        <time>2026-06-17T08:05:06.000Z</time>
        <extensions>
          <ns3:TrackPointExtension>
            <ns3:atemp>23.0</ns3:atemp>
          </ns3:TrackPointExtension>
        </extensions>
      </trkpt>
      <trkpt lat="42.5539613328874111175537109375" lon="19.95823103003203868865966796875">
        <ele>1060</ele>
        <time>2026-06-17T08:05:07.000Z</time>
        <extensions>
          <ns3:TrackPointExtension>
            <ns3:atemp>23.0</ns3:atemp>
          </ns3:TrackPointExtension>
        </extensions>
      </trkpt>
      <trkpt lat="42.5539569742977619171142578125" lon="19.95824821293354034423828125">
        <ele>1060</ele>
        <time>2026-06-17T08:05:08.000Z</time>
        <extensions>
          <ns3:TrackPointExtension>
            <ns3:atemp>22.0</ns3:atemp>
          </ns3:TrackPointExtension>
        </extensions>
      </trkpt>
      <trkpt lat="42.55394666455686092376708984375" lon="19.95826606638729572296142578125">
        <ele>1060.199951171875</ele>
        <time>2026-06-17T08:05:09.000Z</time>
        <extensions>
          <ns3:TrackPointExtension>
            <ns3:atemp>23.0</ns3:atemp>
          </ns3:TrackPointExtension>
        </extensions>
      </trkpt>
      <trkpt lat="42.55393761210143566131591796875" lon="19.9582805670797824859619140625">
        <ele>1060.4000244140625</ele>
        <time>2026-06-17T08:05:10.000Z</time>
        <extensions>
          <ns3:TrackPointExtension>
            <ns3:atemp>22.0</ns3:atemp>
          </ns3:TrackPointExtension>
        </extensions>
      </trkpt>
      <trkpt lat="42.55391648970544338226318359375" lon="19.958329014480113983154296875">
        <ele>1060.4000244140625</ele>
        <time>2026-06-17T08:05:11.000Z</time>
        <extensions>
          <ns3:TrackPointExtension>
            <ns3:atemp>22.0</ns3:atemp>
          </ns3:TrackPointExtension>
        </extensions>
      </trkpt>
      <trkpt lat="42.55391648970544338226318359375" lon="19.958329014480113983154296875">
        <ele>1060.5999755859375</ele>
        <time>2026-06-17T08:05:12.000Z</time>
        <extensions>
          <ns3:TrackPointExtension>
            <ns3:atemp>22.0</ns3:atemp>
          </ns3:TrackPointExtension>
        </extensions>
      </trkpt>
      <trkpt lat="42.5539107061922550201416015625" lon="19.958340413868427276611328125">
        <ele>1060.800048828125</ele>
        <time>2026-06-17T08:05:13.000Z</time>
        <extensions>
          <ns3:TrackPointExtension>
            <ns3:atemp>22.0</ns3:atemp>
          </ns3:TrackPointExtension>
        </extensions>
      </trkpt>
      <trkpt lat="42.553913891315460205078125" lon="19.95835441164672374725341796875">
        <ele>1061</ele>
        <time>2026-06-17T08:05:14.000Z</time>
        <extensions>
          <ns3:TrackPointExtension>
            <ns3:atemp>22.0</ns3:atemp>
          </ns3:TrackPointExtension>
        </extensions>
      </trkpt>
      <trkpt lat="42.55391213111579418182373046875" lon="19.9583727680146694183349609375">
        <ele>1061.199951171875</ele>
        <time>2026-06-17T08:05:15.000Z</time>
        <extensions>
          <ns3:TrackPointExtension>
            <ns3:atemp>22.0</ns3:atemp>
          </ns3:TrackPointExtension>
        </extensions>
      </trkpt>
      <trkpt lat="42.55390810780227184295654296875" lon="19.95838902890682220458984375">
        <ele>1061.4000244140625</ele>
        <time>2026-06-17T08:05:16.000Z</time>
        <extensions>
          <ns3:TrackPointExtension>
            <ns3:atemp>22.0</ns3:atemp>
          </ns3:TrackPointExtension>
        </extensions>
      </trkpt>
      <trkpt lat="42.55390207283198833465576171875" lon="19.95840369723737239837646484375">
        <ele>1061.5999755859375</ele>
        <time>2026-06-17T08:05:17.000Z</time>
        <extensions>
          <ns3:TrackPointExtension>
            <ns3:atemp>22.0</ns3:atemp>
          </ns3:TrackPointExtension>
        </extensions>
      </trkpt>
      <trkpt lat="42.55390106700360774993896484375" lon="19.95841342024505138397216796875">
        <ele>1061.800048828125</ele>
        <time>2026-06-17T08:05:18.000Z</time>
        <extensions>
          <ns3:TrackPointExtension>
            <ns3:atemp>23.0</ns3:atemp>
          </ns3:TrackPointExtension>
        </extensions>
      </trkpt>
      <trkpt lat="42.553896121680736541748046875" lon="19.95842632837593555450439453125">
        <ele>1062</ele>
        <time>2026-06-17T08:05:19.000Z</time>
        <extensions>
          <ns3:TrackPointExtension>
            <ns3:atemp>23.0</ns3:atemp>
          </ns3:TrackPointExtension>
        </extensions>
      </trkpt>
      <trkpt lat="42.553882040083408355712890625" lon="19.9584592692553997039794921875">
        <ele>1062</ele>
        <time>2026-06-17T08:05:20.000Z</time>
        <extensions>
          <ns3:TrackPointExtension>
            <ns3:atemp>23.0</ns3:atemp>
          </ns3:TrackPointExtension>
        </extensions>
      </trkpt>
      <trkpt lat="42.553882040083408355712890625" lon="19.9584592692553997039794921875">
        <ele>1062.199951171875</ele>
        <time>2026-06-17T08:05:21.000Z</time>
        <extensions>
          <ns3:TrackPointExtension>
            <ns3:atemp>23.0</ns3:atemp>
          </ns3:TrackPointExtension>
        </extensions>
      </trkpt>
      <trkpt lat="42.553861252963542938232421875" lon="19.958492629230022430419921875">
        <ele>1062.4000244140625</ele>
        <time>2026-06-17T08:05:22.000Z</time>
        <extensions>
          <ns3:TrackPointExtension>
            <ns3:atemp>23.0</ns3:atemp>
          </ns3:TrackPointExtension>
        </extensions>
      </trkpt>
      <trkpt lat="42.553861252963542938232421875" lon="19.958492629230022430419921875">
        <ele>1062.5999755859375</ele>
        <time>2026-06-17T08:05:23.000Z</time>
        <extensions>
          <ns3:TrackPointExtension>
            <ns3:atemp>23.0</ns3:atemp>
          </ns3:TrackPointExtension>
        </extensions>
      </trkpt>
      <trkpt lat="42.55384256131947040557861328125" lon="19.9585052020847797393798828125">
        <ele>1062.800048828125</ele>
        <time>2026-06-17T08:05:24.000Z</time>
        <extensions>
          <ns3:TrackPointExtension>
            <ns3:atemp>22.0</ns3:atemp>
          </ns3:TrackPointExtension>
        </extensions>
      </trkpt>
      <trkpt lat="42.553835101425647735595703125" lon="19.95851852931082248687744140625">
        <ele>1063</ele>
        <time>2026-06-17T08:05:25.000Z</time>
        <extensions>
          <ns3:TrackPointExtension>
            <ns3:atemp>23.0</ns3:atemp>
          </ns3:TrackPointExtension>
        </extensions>
      </trkpt>
      <trkpt lat="42.553835101425647735595703125" lon="19.95851852931082248687744140625">
        <ele>1063.199951171875</ele>
        <time>2026-06-17T08:05:26.000Z</time>
        <extensions>
          <ns3:TrackPointExtension>
            <ns3:atemp>23.0</ns3:atemp>
          </ns3:TrackPointExtension>
        </extensions>
      </trkpt>
      <trkpt lat="42.5538288988173007965087890625" lon="19.958537556231021881103515625">
        <ele>1063.199951171875</ele>
        <time>2026-06-17T08:05:27.000Z</time>
        <extensions>
          <ns3:TrackPointExtension>
            <ns3:atemp>22.0</ns3:atemp>
          </ns3:TrackPointExtension>
        </extensions>
      </trkpt>
      <trkpt lat="42.55381942726671695709228515625" lon="19.95856060646474361419677734375">
        <ele>1063.4000244140625</ele>
        <time>2026-06-17T08:05:28.000Z</time>
        <extensions>
          <ns3:TrackPointExtension>
            <ns3:atemp>23.0</ns3:atemp>
          </ns3:TrackPointExtension>
        </extensions>
      </trkpt>
      <trkpt lat="42.55381942726671695709228515625" lon="19.95856060646474361419677734375">
        <ele>1063.4000244140625</ele>
        <time>2026-06-17T08:05:29.000Z</time>
        <extensions>
          <ns3:TrackPointExtension>
            <ns3:atemp>22.0</ns3:atemp>
          </ns3:TrackPointExtension>
        </extensions>
      </trkpt>
      <trkpt lat="42.553816325962543487548828125" lon="19.95857552625238895416259765625">
        <ele>1063.5999755859375</ele>
        <time>2026-06-17T08:05:30.000Z</time>
        <extensions>
          <ns3:TrackPointExtension>
            <ns3:atemp>22.0</ns3:atemp>
          </ns3:TrackPointExtension>
        </extensions>
      </trkpt>
      <trkpt lat="42.55381020717322826385498046875" lon="19.9585940502583980560302734375">
        <ele>1063.800048828125</ele>
        <time>2026-06-17T08:05:31.000Z</time>
        <extensions>
          <ns3:TrackPointExtension>
            <ns3:atemp>22.0</ns3:atemp>
          </ns3:TrackPointExtension>
        </extensions>
      </trkpt>
      <trkpt lat="42.55380651913583278656005859375" lon="19.95861701667308807373046875">
        <ele>1063.800048828125</ele>
        <time>2026-06-17T08:05:32.000Z</time>
        <extensions>
          <ns3:TrackPointExtension>
            <ns3:atemp>22.0</ns3:atemp>
          </ns3:TrackPointExtension>
        </extensions>
      </trkpt>
      <trkpt lat="42.55380651913583278656005859375" lon="19.95861701667308807373046875">
        <ele>1064</ele>
        <time>2026-06-17T08:05:33.000Z</time>
        <extensions>
          <ns3:TrackPointExtension>
            <ns3:atemp>22.0</ns3:atemp>
          </ns3:TrackPointExtension>
        </extensions>
      </trkpt>
      <trkpt lat="42.5538025796413421630859375" lon="19.95864559896290302276611328125">
        <ele>1064.199951171875</ele>
        <time>2026-06-17T08:05:34.000Z</time>
        <extensions>
          <ns3:TrackPointExtension>
            <ns3:atemp>22.0</ns3:atemp>
          </ns3:TrackPointExtension>
        </extensions>
      </trkpt>
      <trkpt lat="42.55379654467105865478515625" lon="19.9586607702076435089111328125">
        <ele>1064.4000244140625</ele>
        <time>2026-06-17T08:05:35.000Z</time>
        <extensions>
          <ns3:TrackPointExtension>
            <ns3:atemp>22.0</ns3:atemp>
          </ns3:TrackPointExtension>
        </extensions>
      </trkpt>
      <trkpt lat="42.55379654467105865478515625" lon="19.9586607702076435089111328125">
        <ele>1064.5999755859375</ele>
        <time>2026-06-17T08:05:36.000Z</time>
        <extensions>
          <ns3:TrackPointExtension>
            <ns3:atemp>22.0</ns3:atemp>
          </ns3:TrackPointExtension>
        </extensions>
      </trkpt>
      <trkpt lat="42.55379193462431430816650390625" lon="19.9586738459765911102294921875">
        <ele>1064.800048828125</ele>
        <time>2026-06-17T08:05:37.000Z</time>
        <extensions>
          <ns3:TrackPointExtension>
            <ns3:atemp>22.0</ns3:atemp>
          </ns3:TrackPointExtension>
        </extensions>
      </trkpt>
      <trkpt lat="42.55378372035920619964599609375" lon="19.95869102887809276580810546875">
        <ele>1065</ele>
        <time>2026-06-17T08:05:38.000Z</time>
        <extensions>
          <ns3:TrackPointExtension>
            <ns3:atemp>23.0</ns3:atemp>
          </ns3:TrackPointExtension>
        </extensions>
      </trkpt>
      <trkpt lat="42.5537833012640476226806640625" lon="19.95870226062834262847900390625">
        <ele>1065.199951171875</ele>
        <time>2026-06-17T08:05:39.000Z</time>
        <extensions>
          <ns3:TrackPointExtension>
            <ns3:atemp>22.0</ns3:atemp>
          </ns3:TrackPointExtension>
        </extensions>
      </trkpt>
      <trkpt lat="42.55377114750444889068603515625" lon="19.95871818624436855316162109375">
        <ele>1065.4000244140625</ele>
        <time>2026-06-17T08:05:40.000Z</time>
        <extensions>
          <ns3:TrackPointExtension>
            <ns3:atemp>22.0</ns3:atemp>
          </ns3:TrackPointExtension>
        </extensions>
      </trkpt>
      <trkpt lat="42.55376494489610195159912109375" lon="19.95872992090880870819091796875">
        <ele>1065.800048828125</ele>
        <time>2026-06-17T08:05:41.000Z</time>
        <extensions>
          <ns3:TrackPointExtension>
            <ns3:atemp>23.0</ns3:atemp>
          </ns3:TrackPointExtension>
        </extensions>
      </trkpt>
      <trkpt lat="42.55376159213483333587646484375" lon="19.95874115265905857086181640625">
        <ele>1066</ele>
        <time>2026-06-17T08:05:42.000Z</time>
        <extensions>
          <ns3:TrackPointExtension>
            <ns3:atemp>23.0</ns3:atemp>
          </ns3:TrackPointExtension>
        </extensions>
      </trkpt>
      <trkpt lat="42.5537554733455181121826171875" lon="19.95875179767608642578125">
        <ele>1066.199951171875</ele>
        <time>2026-06-17T08:05:43.000Z</time>
        <extensions>
          <ns3:TrackPointExtension>
            <ns3:atemp>23.0</ns3:atemp>
          </ns3:TrackPointExtension>
        </extensions>
      </trkpt>
      <trkpt lat="42.55374533124268054962158203125" lon="19.9587787874042987823486328125">
        <ele>1066.199951171875</ele>
        <time>2026-06-17T08:05:44.000Z</time>
        <extensions>
          <ns3:TrackPointExtension>
            <ns3:atemp>22.0</ns3:atemp>
          </ns3:TrackPointExtension>
        </extensions>
      </trkpt>
      <trkpt lat="42.55374533124268054962158203125" lon="19.9587787874042987823486328125">
        <ele>1066.4000244140625</ele>
        <time>2026-06-17T08:05:45.000Z</time>
        <extensions>
          <ns3:TrackPointExtension>
            <ns3:atemp>22.0</ns3:atemp>
          </ns3:TrackPointExtension>
        </extensions>
      </trkpt>
      <trkpt lat="42.55374315194785594940185546875" lon="19.95878624729812145233154296875">
        <ele>1066.4000244140625</ele>
        <time>2026-06-17T08:05:46.000Z</time>
        <extensions>
          <ns3:TrackPointExtension>
            <ns3:atemp>22.0</ns3:atemp>
          </ns3:TrackPointExtension>
        </extensions>
      </trkpt>
      <trkpt lat="42.5537353567779064178466796875" lon="19.95879295282065868377685546875">
        <ele>1066.5999755859375</ele>
        <time>2026-06-17T08:05:47.000Z</time>
        <extensions>
          <ns3:TrackPointExtension>
            <ns3:atemp>23.0</ns3:atemp>
          </ns3:TrackPointExtension>
        </extensions>
      </trkpt>
      <trkpt lat="42.5537303276360034942626953125" lon="19.95880250819027423858642578125">
        <ele>1066.800048828125</ele>
        <time>2026-06-17T08:05:48.000Z</time>
        <extensions>
          <ns3:TrackPointExtension>
            <ns3:atemp>23.0</ns3:atemp>
          </ns3:TrackPointExtension>
        </extensions>
      </trkpt>
      <trkpt lat="42.55372420884668827056884765625" lon="19.9588121473789215087890625">
        <ele>1067.199951171875</ele>
        <time>2026-06-17T08:05:49.000Z</time>
        <extensions>
          <ns3:TrackPointExtension>
            <ns3:atemp>23.0</ns3:atemp>
          </ns3:TrackPointExtension>
        </extensions>
      </trkpt>
      <trkpt lat="42.55371582694351673126220703125" lon="19.9588223733007907867431640625">
        <ele>1067.4000244140625</ele>
        <time>2026-06-17T08:05:50.000Z</time>
        <extensions>
          <ns3:TrackPointExtension>
            <ns3:atemp>23.0</ns3:atemp>
          </ns3:TrackPointExtension>
        </extensions>
      </trkpt>
      <trkpt lat="42.5537075288593769073486328125" lon="19.958830587565898895263671875">
        <ele>1067.5999755859375</ele>
        <time>2026-06-17T08:05:51.000Z</time>
        <extensions>
          <ns3:TrackPointExtension>
            <ns3:atemp>23.0</ns3:atemp>
          </ns3:TrackPointExtension>
        </extensions>
      </trkpt>
      <trkpt lat="42.553697638213634490966796875" lon="19.9588401429355144500732421875">
        <ele>1067.800048828125</ele>
        <time>2026-06-17T08:05:52.000Z</time>
        <extensions>
          <ns3:TrackPointExtension>
            <ns3:atemp>23.0</ns3:atemp>
          </ns3:TrackPointExtension>
        </extensions>
      </trkpt>
      <trkpt lat="42.55368850193917751312255859375" lon="19.95884844101965427398681640625">
        <ele>1067.800048828125</ele>
        <time>2026-06-17T08:05:53.000Z</time>
        <extensions>
          <ns3:TrackPointExtension>
            <ns3:atemp>23.0</ns3:atemp>
          </ns3:TrackPointExtension>
        </extensions>
      </trkpt>
      <trkpt lat="42.55368263460695743560791015625" lon="19.95885975658893585205078125">
        <ele>1067.800048828125</ele>
        <time>2026-06-17T08:05:54.000Z</time>
        <extensions>
          <ns3:TrackPointExtension>
            <ns3:atemp>23.0</ns3:atemp>
          </ns3:TrackPointExtension>
        </extensions>
      </trkpt>
      <trkpt lat="42.55367123521864414215087890625" lon="19.9588854052126407623291015625">
        <ele>1067.800048828125</ele>
        <time>2026-06-17T08:05:55.000Z</time>
        <extensions>
          <ns3:TrackPointExtension>
            <ns3:atemp>23.0</ns3:atemp>
          </ns3:TrackPointExtension>
        </extensions>
      </trkpt>
      <trkpt lat="42.55365950055420398712158203125" lon="19.95890107937157154083251953125">
        <ele>1068</ele>
        <time>2026-06-17T08:05:56.000Z</time>
        <extensions>
          <ns3:TrackPointExtension>
            <ns3:atemp>23.0</ns3:atemp>
          </ns3:TrackPointExtension>
        </extensions>
      </trkpt>
      <trkpt lat="42.55365950055420398712158203125" lon="19.95890107937157154083251953125">
        <ele>1068</ele>
        <time>2026-06-17T08:05:57.000Z</time>
        <extensions>
          <ns3:TrackPointExtension>
            <ns3:atemp>23.0</ns3:atemp>
          </ns3:TrackPointExtension>
        </extensions>
      </trkpt>
      <trkpt lat="42.5536577403545379638671875" lon="19.95891147293150424957275390625">
        <ele>1068.199951171875</ele>
        <time>2026-06-17T08:05:58.000Z</time>
        <extensions>
          <ns3:TrackPointExtension>
            <ns3:atemp>23.0</ns3:atemp>
          </ns3:TrackPointExtension>
        </extensions>
      </trkpt>
      <trkpt lat="42.55365732125937938690185546875" lon="19.958919771015644073486328125">
        <ele>1068.4000244140625</ele>
        <time>2026-06-17T08:05:59.000Z</time>
        <extensions>
          <ns3:TrackPointExtension>
            <ns3:atemp>23.0</ns3:atemp>
          </ns3:TrackPointExtension>
        </extensions>
      </trkpt>
      <trkpt lat="42.55363670177757740020751953125" lon="19.958947598934173583984375">
        <ele>1068.5999755859375</ele>
        <time>2026-06-17T08:06:00.000Z</time>
        <extensions>
          <ns3:TrackPointExtension>
            <ns3:atemp>23.0</ns3:atemp>
          </ns3:TrackPointExtension>
        </extensions>
      </trkpt>
      <trkpt lat="42.55362764932215213775634765625" lon="19.95895455591380596160888671875">
        <ele>1068.5999755859375</ele>
        <time>2026-06-17T08:06:01.000Z</time>
        <extensions>
          <ns3:TrackPointExtension>
            <ns3:atemp>23.0</ns3:atemp>
          </ns3:TrackPointExtension>
        </extensions>
      </trkpt>
      <trkpt lat="42.55362764932215213775634765625" lon="19.95895455591380596160888671875">
        <ele>1068.5999755859375</ele>
        <time>2026-06-17T08:06:02.000Z</time>
        <extensions>
          <ns3:TrackPointExtension>
            <ns3:atemp>23.0</ns3:atemp>
          </ns3:TrackPointExtension>
        </extensions>
      </trkpt>
      <trkpt lat="42.55361859686672687530517578125" lon="19.95895841158926486968994140625">
        <ele>1068.5999755859375</ele>
        <time>2026-06-17T08:06:03.000Z</time>
        <extensions>
          <ns3:TrackPointExtension>
            <ns3:atemp>23.0</ns3:atemp>
          </ns3:TrackPointExtension>
        </extensions>
      </trkpt>
      <trkpt lat="42.55359931848943233489990234375" lon="19.958978109061717987060546875">
        <ele>1068.5999755859375</ele>
        <time>2026-06-17T08:06:04.000Z</time>
        <extensions>
          <ns3:TrackPointExtension>
            <ns3:atemp>23.0</ns3:atemp>
          </ns3:TrackPointExtension>
        </extensions>
      </trkpt>
      <trkpt lat="42.55359931848943233489990234375" lon="19.958978109061717987060546875">
        <ele>1068.5999755859375</ele>
        <time>2026-06-17T08:06:05.000Z</time>
        <extensions>
          <ns3:TrackPointExtension>
            <ns3:atemp>23.0</ns3:atemp>
          </ns3:TrackPointExtension>
        </extensions>
      </trkpt>
      <trkpt lat="42.55358657799661159515380859375" lon="19.95899143628776073455810546875">
        <ele>1068.800048828125</ele>
        <time>2026-06-17T08:06:06.000Z</time>
        <extensions>
          <ns3:TrackPointExtension>
            <ns3:atemp>23.0</ns3:atemp>
          </ns3:TrackPointExtension>
        </extensions>
      </trkpt>
      <trkpt lat="42.55356361158192157745361328125" lon="19.9590186774730682373046875">
        <ele>1069</ele>
        <time>2026-06-17T08:06:07.000Z</time>
        <extensions>
          <ns3:TrackPointExtension>
            <ns3:atemp>23.0</ns3:atemp>
          </ns3:TrackPointExtension>
        </extensions>
      </trkpt>
      <trkpt lat="42.55355472676455974578857421875" lon="19.9590302444994449615478515625">
        <ele>1069.199951171875</ele>
        <time>2026-06-17T08:06:08.000Z</time>
        <extensions>
          <ns3:TrackPointExtension>
            <ns3:atemp>23.0</ns3:atemp>
          </ns3:TrackPointExtension>
        </extensions>
      </trkpt>
      <trkpt lat="42.55354299210011959075927734375" lon="19.959041140973567962646484375">
        <ele>1069.4000244140625</ele>
        <time>2026-06-17T08:06:09.000Z</time>
        <extensions>
          <ns3:TrackPointExtension>
            <ns3:atemp>23.0</ns3:atemp>
          </ns3:TrackPointExtension>
        </extensions>
      </trkpt>
      <trkpt lat="42.5535375438630580902099609375" lon="19.959045834839344024658203125">
        <ele>1069.5999755859375</ele>
        <time>2026-06-17T08:06:10.000Z</time>
        <extensions>
          <ns3:TrackPointExtension>
            <ns3:atemp>23.0</ns3:atemp>
          </ns3:TrackPointExtension>
        </extensions>
      </trkpt>
      <trkpt lat="42.55353494547307491302490234375" lon="19.95905078016221523284912109375">
        <ele>1070</ele>
        <time>2026-06-17T08:06:11.000Z</time>
        <extensions>
          <ns3:TrackPointExtension>
            <ns3:atemp>23.0</ns3:atemp>
          </ns3:TrackPointExtension>
        </extensions>
      </trkpt>
      <trkpt lat="42.5535298325121402740478515625" lon="19.9590570665895938873291015625">
        <ele>1070.199951171875</ele>
        <time>2026-06-17T08:06:12.000Z</time>
        <extensions>
          <ns3:TrackPointExtension>
            <ns3:atemp>23.0</ns3:atemp>
          </ns3:TrackPointExtension>
        </extensions>
      </trkpt>
      <trkpt lat="42.5535174272954463958740234375" lon="19.9590677954256534576416015625">
        <ele>1070.199951171875</ele>
        <time>2026-06-17T08:06:13.000Z</time>
        <extensions>
          <ns3:TrackPointExtension>
            <ns3:atemp>23.0</ns3:atemp>
          </ns3:TrackPointExtension>
        </extensions>
      </trkpt>
      <trkpt lat="42.5535174272954463958740234375" lon="19.9590677954256534576416015625">
        <ele>1070.4000244140625</ele>
        <time>2026-06-17T08:06:14.000Z</time>
        <extensions>
          <ns3:TrackPointExtension>
            <ns3:atemp>23.0</ns3:atemp>
          </ns3:TrackPointExtension>
        </extensions>
      </trkpt>
      <trkpt lat="42.55349571816623210906982421875" lon="19.95907626114785671234130859375">
        <ele>1070.4000244140625</ele>
        <time>2026-06-17T08:06:15.000Z</time>
        <extensions>
          <ns3:TrackPointExtension>
            <ns3:atemp>23.0</ns3:atemp>
          </ns3:TrackPointExtension>
        </extensions>
      </trkpt>
      <trkpt lat="42.553484402596950531005859375" lon="19.95908028446137905120849609375">
        <ele>1070.5999755859375</ele>
        <time>2026-06-17T08:06:16.000Z</time>
        <extensions>
          <ns3:TrackPointExtension>
            <ns3:atemp>23.0</ns3:atemp>
          </ns3:TrackPointExtension>
        </extensions>
      </trkpt>
      <trkpt lat="42.553484402596950531005859375" lon="19.95908028446137905120849609375">
        <ele>1070.800048828125</ele>
        <time>2026-06-17T08:06:17.000Z</time>
        <extensions>
          <ns3:TrackPointExtension>
            <ns3:atemp>23.0</ns3:atemp>
          </ns3:TrackPointExtension>
        </extensions>
      </trkpt>
      <trkpt lat="42.55347627215087413787841796875" lon="19.9590869061648845672607421875">
        <ele>1071</ele>
        <time>2026-06-17T08:06:18.000Z</time>
        <extensions>
          <ns3:TrackPointExtension>
            <ns3:atemp>23.0</ns3:atemp>
          </ns3:TrackPointExtension>
        </extensions>
      </trkpt>
      <trkpt lat="42.55345447920262813568115234375" lon="19.95910995639860630035400390625">
        <ele>1071</ele>
        <time>2026-06-17T08:06:19.000Z</time>
        <extensions>
          <ns3:TrackPointExtension>
            <ns3:atemp>23.0</ns3:atemp>
          </ns3:TrackPointExtension>
        </extensions>
      </trkpt>
      <trkpt lat="42.55345447920262813568115234375" lon="19.95910995639860630035400390625">
        <ele>1071.199951171875</ele>
        <time>2026-06-17T08:06:20.000Z</time>
        <extensions>
          <ns3:TrackPointExtension>
            <ns3:atemp>23.0</ns3:atemp>
          </ns3:TrackPointExtension>
        </extensions>
      </trkpt>
      <trkpt lat="42.55344710312783718109130859375" lon="19.95911515317857265472412109375">
        <ele>1071.4000244140625</ele>
        <time>2026-06-17T08:06:21.000Z</time>
        <extensions>
          <ns3:TrackPointExtension>
            <ns3:atemp>23.0</ns3:atemp>
          </ns3:TrackPointExtension>
        </extensions>
      </trkpt>
      <trkpt lat="42.55342639982700347900390625" lon="19.95914029888808727264404296875">
        <ele>1071.5999755859375</ele>
        <time>2026-06-17T08:06:22.000Z</time>
        <extensions>
          <ns3:TrackPointExtension>
            <ns3:atemp>23.0</ns3:atemp>
          </ns3:TrackPointExtension>
        </extensions>
      </trkpt>
      <trkpt lat="42.55341927520930767059326171875" lon="19.959150440990924835205078125">
        <ele>1071.800048828125</ele>
        <time>2026-06-17T08:06:23.000Z</time>
        <extensions>
          <ns3:TrackPointExtension>
            <ns3:atemp>23.0</ns3:atemp>
          </ns3:TrackPointExtension>
        </extensions>
      </trkpt>
      <trkpt lat="42.55341927520930767059326171875" lon="19.959150440990924835205078125">
        <ele>1072</ele>
        <time>2026-06-17T08:06:24.000Z</time>
        <extensions>
          <ns3:TrackPointExtension>
            <ns3:atemp>23.0</ns3:atemp>
          </ns3:TrackPointExtension>
        </extensions>
      </trkpt>
      <trkpt lat="42.5534037686884403228759765625" lon="19.95917349122464656829833984375">
        <ele>1072</ele>
        <time>2026-06-17T08:06:25.000Z</time>
        <extensions>
          <ns3:TrackPointExtension>
            <ns3:atemp>23.0</ns3:atemp>
          </ns3:TrackPointExtension>
        </extensions>
      </trkpt>
      <trkpt lat="42.55339547060430049896240234375" lon="19.95918237604200839996337890625">
        <ele>1072.199951171875</ele>
        <time>2026-06-17T08:06:26.000Z</time>
        <extensions>
          <ns3:TrackPointExtension>
            <ns3:atemp>23.0</ns3:atemp>
          </ns3:TrackPointExtension>
        </extensions>
      </trkpt>
      <trkpt lat="42.55339547060430049896240234375" lon="19.95918237604200839996337890625">
        <ele>1072.4000244140625</ele>
        <time>2026-06-17T08:06:27.000Z</time>
        <extensions>
          <ns3:TrackPointExtension>
            <ns3:atemp>23.0</ns3:atemp>
          </ns3:TrackPointExtension>
        </extensions>
      </trkpt>
      <trkpt lat="42.55338809452950954437255859375" lon="19.95918539352715015411376953125">
        <ele>1072.4000244140625</ele>
        <time>2026-06-17T08:06:28.000Z</time>
        <extensions>
          <ns3:TrackPointExtension>
            <ns3:atemp>23.0</ns3:atemp>
          </ns3:TrackPointExtension>
        </extensions>
      </trkpt>
      <trkpt lat="42.5533707439899444580078125" lon="19.9591972120106220245361328125">
        <ele>1072.5999755859375</ele>
        <time>2026-06-17T08:06:29.000Z</time>
        <extensions>
          <ns3:TrackPointExtension>
            <ns3:atemp>23.0</ns3:atemp>
          </ns3:TrackPointExtension>
        </extensions>
      </trkpt>
      <trkpt lat="42.5533707439899444580078125" lon="19.9591972120106220245361328125">
        <ele>1072.800048828125</ele>
        <time>2026-06-17T08:06:30.000Z</time>
        <extensions>
          <ns3:TrackPointExtension>
            <ns3:atemp>23.0</ns3:atemp>
          </ns3:TrackPointExtension>
        </extensions>
      </trkpt>
      <trkpt lat="42.55335708148777484893798828125" lon="19.95921246707439422607421875">
        <ele>1072.800048828125</ele>
        <time>2026-06-17T08:06:31.000Z</time>
        <extensions>
          <ns3:TrackPointExtension>
            <ns3:atemp>23.0</ns3:atemp>
          </ns3:TrackPointExtension>
        </extensions>
      </trkpt>
      <trkpt lat="42.55335138179361820220947265625" lon="19.95921917259693145751953125">
        <ele>1073</ele>
        <time>2026-06-17T08:06:32.000Z</time>
        <extensions>
          <ns3:TrackPointExtension>
            <ns3:atemp>23.0</ns3:atemp>
          </ns3:TrackPointExtension>
        </extensions>
      </trkpt>
      <trkpt lat="42.55335138179361820220947265625" lon="19.95921917259693145751953125">
        <ele>1073.199951171875</ele>
        <time>2026-06-17T08:06:33.000Z</time>
        <extensions>
          <ns3:TrackPointExtension>
            <ns3:atemp>23.0</ns3:atemp>
          </ns3:TrackPointExtension>
        </extensions>
      </trkpt>
      <trkpt lat="42.55334115587174892425537109375" lon="19.95922990143299102783203125">
        <ele>1073.4000244140625</ele>
        <time>2026-06-17T08:06:34.000Z</time>
        <extensions>
          <ns3:TrackPointExtension>
            <ns3:atemp>23.0</ns3:atemp>
          </ns3:TrackPointExtension>
        </extensions>
      </trkpt>
      <trkpt lat="42.55332975648343563079833984375" lon="19.95924289338290691375732421875">
        <ele>1073.5999755859375</ele>
        <time>2026-06-17T08:06:35.000Z</time>
        <extensions>
          <ns3:TrackPointExtension>
            <ns3:atemp>23.0</ns3:atemp>
          </ns3:TrackPointExtension>
        </extensions>
      </trkpt>
      <trkpt lat="42.55331768654286861419677734375" lon="19.95925605297088623046875">
        <ele>1073.800048828125</ele>
        <time>2026-06-17T08:06:36.000Z</time>
        <extensions>
          <ns3:TrackPointExtension>
            <ns3:atemp>23.0</ns3:atemp>
          </ns3:TrackPointExtension>
        </extensions>
      </trkpt>
      <trkpt lat="42.55329891107976436614990234375" lon="19.9592696316540241241455078125">
        <ele>1074</ele>
        <time>2026-06-17T08:06:37.000Z</time>
        <extensions>
          <ns3:TrackPointExtension>
            <ns3:atemp>23.0</ns3:atemp>
          </ns3:TrackPointExtension>
        </extensions>
      </trkpt>
      <trkpt lat="42.55329891107976436614990234375" lon="19.9592696316540241241455078125">
        <ele>1074</ele>
        <time>2026-06-17T08:06:38.000Z</time>
        <extensions>
          <ns3:TrackPointExtension>
            <ns3:atemp>23.0</ns3:atemp>
          </ns3:TrackPointExtension>
        </extensions>
      </trkpt>
      <trkpt lat="42.55327594466507434844970703125" lon="19.95928664691746234893798828125">
        <ele>1074.199951171875</ele>
        <time>2026-06-17T08:06:39.000Z</time>
        <extensions>
          <ns3:TrackPointExtension>
            <ns3:atemp>23.0</ns3:atemp>
          </ns3:TrackPointExtension>
        </extensions>
      </trkpt>
      <trkpt lat="42.55327594466507434844970703125" lon="19.95928664691746234893798828125">
        <ele>1074.199951171875</ele>
        <time>2026-06-17T08:06:40.000Z</time>
        <extensions>
          <ns3:TrackPointExtension>
            <ns3:atemp>23.0</ns3:atemp>
          </ns3:TrackPointExtension>
        </extensions>
      </trkpt>
      <trkpt lat="42.553251720964908599853515625" lon="19.95929989032447338104248046875">
        <ele>1074.199951171875</ele>
        <time>2026-06-17T08:06:41.000Z</time>
        <extensions>
          <ns3:TrackPointExtension>
            <ns3:atemp>23.0</ns3:atemp>
          </ns3:TrackPointExtension>
        </extensions>
      </trkpt>
      <trkpt lat="42.553251720964908599853515625" lon="19.95929989032447338104248046875">
        <ele>1074.4000244140625</ele>
        <time>2026-06-17T08:06:42.000Z</time>
        <extensions>
          <ns3:TrackPointExtension>
            <ns3:atemp>23.0</ns3:atemp>
          </ns3:TrackPointExtension>
        </extensions>
      </trkpt>
      <trkpt lat="42.55323839373886585235595703125" lon="19.9593065120279788970947265625">
        <ele>1074.5999755859375</ele>
        <time>2026-06-17T08:06:43.000Z</time>
        <extensions>
          <ns3:TrackPointExtension>
            <ns3:atemp>23.0</ns3:atemp>
          </ns3:TrackPointExtension>
        </extensions>
      </trkpt>
      <trkpt lat="42.55321056582033634185791015625" lon="19.95931816287338733673095703125">
        <ele>1074.800048828125</ele>
        <time>2026-06-17T08:06:44.000Z</time>
        <extensions>
          <ns3:TrackPointExtension>
            <ns3:atemp>23.0</ns3:atemp>
          </ns3:TrackPointExtension>
        </extensions>
      </trkpt>
      <trkpt lat="42.55320235155522823333740234375" lon="19.95931916870176792144775390625">
        <ele>1075</ele>
        <time>2026-06-17T08:06:45.000Z</time>
        <extensions>
          <ns3:TrackPointExtension>
            <ns3:atemp>23.0</ns3:atemp>
          </ns3:TrackPointExtension>
        </extensions>
      </trkpt>
      <trkpt lat="42.55320235155522823333740234375" lon="19.95931916870176792144775390625">
        <ele>1075.199951171875</ele>
        <time>2026-06-17T08:06:46.000Z</time>
        <extensions>
          <ns3:TrackPointExtension>
            <ns3:atemp>23.0</ns3:atemp>
          </ns3:TrackPointExtension>
        </extensions>
      </trkpt>
      <trkpt lat="42.553180642426013946533203125" lon="19.95932537131011486053466796875">
        <ele>1075.199951171875</ele>
        <time>2026-06-17T08:06:47.000Z</time>
        <extensions>
          <ns3:TrackPointExtension>
            <ns3:atemp>23.0</ns3:atemp>
          </ns3:TrackPointExtension>
        </extensions>
      </trkpt>
      <trkpt lat="42.553180642426013946533203125" lon="19.95932537131011486053466796875">
        <ele>1075.4000244140625</ele>
        <time>2026-06-17T08:06:48.000Z</time>
        <extensions>
          <ns3:TrackPointExtension>
            <ns3:atemp>23.0</ns3:atemp>
          </ns3:TrackPointExtension>
        </extensions>
      </trkpt>
      <trkpt lat="42.5531563349068164825439453125" lon="19.9593242816627025604248046875">
        <ele>1075.5999755859375</ele>
        <time>2026-06-17T08:06:49.000Z</time>
        <extensions>
          <ns3:TrackPointExtension>
            <ns3:atemp>23.0</ns3:atemp>
          </ns3:TrackPointExtension>
        </extensions>
      </trkpt>
      <trkpt lat="42.55314216949045658111572265625" lon="19.95932511985301971435546875">
        <ele>1075.800048828125</ele>
        <time>2026-06-17T08:06:50.000Z</time>
        <extensions>
          <ns3:TrackPointExtension>
            <ns3:atemp>23.0</ns3:atemp>
          </ns3:TrackPointExtension>
        </extensions>
      </trkpt>
      <trkpt lat="42.5531293451786041259765625" lon="19.9593257904052734375">
        <ele>1076</ele>
        <time>2026-06-17T08:06:51.000Z</time>
        <extensions>
          <ns3:TrackPointExtension>
            <ns3:atemp>23.0</ns3:atemp>
          </ns3:TrackPointExtension>
        </extensions>
      </trkpt>
      <trkpt lat="42.5531167723238468170166015625" lon="19.9593215994536876678466796875">
        <ele>1076</ele>
        <time>2026-06-17T08:06:52.000Z</time>
        <extensions>
          <ns3:TrackPointExtension>
            <ns3:atemp>23.0</ns3:atemp>
          </ns3:TrackPointExtension>
        </extensions>
      </trkpt>
      <trkpt lat="42.55310595966875553131103515625" lon="19.959323443472385406494140625">
        <ele>1076.199951171875</ele>
        <time>2026-06-17T08:06:53.000Z</time>
        <extensions>
          <ns3:TrackPointExtension>
            <ns3:atemp>23.0</ns3:atemp>
          </ns3:TrackPointExtension>
        </extensions>
      </trkpt>
      <trkpt lat="42.55310595966875553131103515625" lon="19.959323443472385406494140625">
        <ele>1076.199951171875</ele>
        <time>2026-06-17T08:06:54.000Z</time>
        <extensions>
          <ns3:TrackPointExtension>
            <ns3:atemp>23.0</ns3:atemp>
          </ns3:TrackPointExtension>
        </extensions>
      </trkpt>
      <trkpt lat="42.55309657193720340728759765625" lon="19.959323443472385406494140625">
        <ele>1076.4000244140625</ele>
        <time>2026-06-17T08:06:55.000Z</time>
        <extensions>
          <ns3:TrackPointExtension>
            <ns3:atemp>23.0</ns3:atemp>
          </ns3:TrackPointExtension>
        </extensions>
      </trkpt>
      <trkpt lat="42.5530705042183399200439453125" lon="19.9593289755284786224365234375">
        <ele>1076.4000244140625</ele>
        <time>2026-06-17T08:06:56.000Z</time>
        <extensions>
          <ns3:TrackPointExtension>
            <ns3:atemp>23.0</ns3:atemp>
          </ns3:TrackPointExtension>
        </extensions>
      </trkpt>
      <trkpt lat="42.5530705042183399200439453125" lon="19.9593289755284786224365234375">
        <ele>1076.4000244140625</ele>
        <time>2026-06-17T08:06:57.000Z</time>
        <extensions>
          <ns3:TrackPointExtension>
            <ns3:atemp>23.0</ns3:atemp>
          </ns3:TrackPointExtension>
        </extensions>
      </trkpt>
      <trkpt lat="42.553050220012664794921875" lon="19.9593303166329860687255859375">
        <ele>1076.5999755859375</ele>
        <time>2026-06-17T08:06:58.000Z</time>
        <extensions>
          <ns3:TrackPointExtension>
            <ns3:atemp>23.0</ns3:atemp>
          </ns3:TrackPointExtension>
        </extensions>
      </trkpt>
      <trkpt lat="42.55304359830915927886962890625" lon="19.959330148994922637939453125">
        <ele>1076.800048828125</ele>
        <time>2026-06-17T08:06:59.000Z</time>
        <extensions>
          <ns3:TrackPointExtension>
            <ns3:atemp>23.0</ns3:atemp>
          </ns3:TrackPointExtension>
        </extensions>
      </trkpt>
      <trkpt lat="42.55303672514855861663818359375" lon="19.959330148994922637939453125">
        <ele>1077</ele>
        <time>2026-06-17T08:07:00.000Z</time>
        <extensions>
          <ns3:TrackPointExtension>
            <ns3:atemp>23.0</ns3:atemp>
          </ns3:TrackPointExtension>
        </extensions>
      </trkpt>
      <trkpt lat="42.55303672514855861663818359375" lon="19.959330148994922637939453125">
        <ele>1077.199951171875</ele>
        <time>2026-06-17T08:07:01.000Z</time>
        <extensions>
          <ns3:TrackPointExtension>
            <ns3:atemp>23.0</ns3:atemp>
          </ns3:TrackPointExtension>
        </extensions>
      </trkpt>
      <trkpt lat="42.55302666686475276947021484375" lon="19.95933224447071552276611328125">
        <ele>1077.4000244140625</ele>
        <time>2026-06-17T08:07:02.000Z</time>
        <extensions>
          <ns3:TrackPointExtension>
            <ns3:atemp>23.0</ns3:atemp>
          </ns3:TrackPointExtension>
        </extensions>
      </trkpt>
      <trkpt lat="42.55300269462168216705322265625" lon="19.959330819547176361083984375">
        <ele>1077.5999755859375</ele>
        <time>2026-06-17T08:07:03.000Z</time>
        <extensions>
          <ns3:TrackPointExtension>
            <ns3:atemp>23.0</ns3:atemp>
          </ns3:TrackPointExtension>
        </extensions>
      </trkpt>
      <trkpt lat="42.5529950670897960662841796875" lon="19.9593323282897472381591796875">
        <ele>1077.800048828125</ele>
        <time>2026-06-17T08:07:04.000Z</time>
        <extensions>
          <ns3:TrackPointExtension>
            <ns3:atemp>23.0</ns3:atemp>
          </ns3:TrackPointExtension>
        </extensions>
      </trkpt>
      <trkpt lat="42.55298475734889507293701171875" lon="19.959333837032318115234375">
        <ele>1077.800048828125</ele>
        <time>2026-06-17T08:07:05.000Z</time>
        <extensions>
          <ns3:TrackPointExtension>
            <ns3:atemp>23.0</ns3:atemp>
          </ns3:TrackPointExtension>
        </extensions>
      </trkpt>
      <trkpt lat="42.55297821946442127227783203125" lon="19.959335513412952423095703125">
        <ele>1077.5999755859375</ele>
        <time>2026-06-17T08:07:06.000Z</time>
        <extensions>
          <ns3:TrackPointExtension>
            <ns3:atemp>23.0</ns3:atemp>
          </ns3:TrackPointExtension>
        </extensions>
      </trkpt>
      <trkpt lat="42.5529705919325351715087890625" lon="19.95934297330677509307861328125">
        <ele>1077.5999755859375</ele>
        <time>2026-06-17T08:07:07.000Z</time>
        <extensions>
          <ns3:TrackPointExtension>
            <ns3:atemp>23.0</ns3:atemp>
          </ns3:TrackPointExtension>
        </extensions>
      </trkpt>
      <trkpt lat="42.55296531133353710174560546875" lon="19.9593539535999298095703125">
        <ele>1077.4000244140625</ele>
        <time>2026-06-17T08:07:08.000Z</time>
        <extensions>
          <ns3:TrackPointExtension>
            <ns3:atemp>23.0</ns3:atemp>
          </ns3:TrackPointExtension>
        </extensions>
      </trkpt>
      <trkpt lat="42.55296531133353710174560546875" lon="19.9593539535999298095703125">
        <ele>1077.4000244140625</ele>
        <time>2026-06-17T08:07:09.000Z</time>
        <extensions>
          <ns3:TrackPointExtension>
            <ns3:atemp>23.0</ns3:atemp>
          </ns3:TrackPointExtension>
        </extensions>
      </trkpt>
      <trkpt lat="42.5529575161635875701904296875" lon="19.95936862193048000335693359375">
        <ele>1077.4000244140625</ele>
        <time>2026-06-17T08:07:10.000Z</time>
        <extensions>
          <ns3:TrackPointExtension>
            <ns3:atemp>23.0</ns3:atemp>
          </ns3:TrackPointExtension>
        </extensions>
      </trkpt>
      <trkpt lat="42.552955336868762969970703125" lon="19.95937071740627288818359375">
        <ele>1077.5999755859375</ele>
        <time>2026-06-17T08:07:11.000Z</time>
        <extensions>
          <ns3:TrackPointExtension>
            <ns3:atemp>23.0</ns3:atemp>
          </ns3:TrackPointExtension>
        </extensions>
      </trkpt>
      <trkpt lat="42.552955336868762969970703125" lon="19.95937071740627288818359375">
        <ele>1077.5999755859375</ele>
        <time>2026-06-17T08:07:12.000Z</time>
        <extensions>
          <ns3:TrackPointExtension>
            <ns3:atemp>23.0</ns3:atemp>
          </ns3:TrackPointExtension>
        </extensions>
      </trkpt>
      <trkpt lat="42.552955336868762969970703125" lon="19.95937071740627288818359375">
        <ele>1077.5999755859375</ele>
        <time>2026-06-17T08:07:13.000Z</time>
        <extensions>
          <ns3:TrackPointExtension>
            <ns3:atemp>23.0</ns3:atemp>
          </ns3:TrackPointExtension>
        </extensions>
      </trkpt>
      <trkpt lat="42.552955336868762969970703125" lon="19.95937071740627288818359375">
        <ele>1077.800048828125</ele>
        <time>2026-06-17T08:07:14.000Z</time>
        <extensions>
          <ns3:TrackPointExtension>
            <ns3:atemp>23.0</ns3:atemp>
          </ns3:TrackPointExtension>
        </extensions>
      </trkpt>
      <trkpt lat="42.552955336868762969970703125" lon="19.95937071740627288818359375">
        <ele>1077.800048828125</ele>
        <time>2026-06-17T08:07:15.000Z</time>
        <extensions>
          <ns3:TrackPointExtension>
            <ns3:atemp>23.0</ns3:atemp>
          </ns3:TrackPointExtension>
        </extensions>
      </trkpt>
      <trkpt lat="42.552955336868762969970703125" lon="19.95937071740627288818359375">
        <ele>1077.800048828125</ele>
        <time>2026-06-17T08:07:16.000Z</time>
        <extensions>
          <ns3:TrackPointExtension>
            <ns3:atemp>23.0</ns3:atemp>
          </ns3:TrackPointExtension>
        </extensions>
      </trkpt>
      <trkpt lat="42.552955336868762969970703125" lon="19.95937071740627288818359375">
        <ele>1077.800048828125</ele>
        <time>2026-06-17T08:07:17.000Z</time>
        <extensions>
          <ns3:TrackPointExtension>
            <ns3:atemp>23.0</ns3:atemp>
          </ns3:TrackPointExtension>
        </extensions>
      </trkpt>
      <trkpt lat="42.552955336868762969970703125" lon="19.95937071740627288818359375">
        <ele>1077.800048828125</ele>
        <time>2026-06-17T08:07:18.000Z</time>
        <extensions>
          <ns3:TrackPointExtension>
            <ns3:atemp>23.0</ns3:atemp>
          </ns3:TrackPointExtension>
        </extensions>
      </trkpt>
      <trkpt lat="42.552955336868762969970703125" lon="19.95937071740627288818359375">
        <ele>1077.800048828125</ele>
        <time>2026-06-17T08:07:19.000Z</time>
        <extensions>
          <ns3:TrackPointExtension>
            <ns3:atemp>23.0</ns3:atemp>
          </ns3:TrackPointExtension>
        </extensions>
      </trkpt>
      <trkpt lat="42.552955336868762969970703125" lon="19.95937071740627288818359375">
        <ele>1077.800048828125</ele>
        <time>2026-06-17T08:07:20.000Z</time>
        <extensions>
          <ns3:TrackPointExtension>
            <ns3:atemp>23.0</ns3:atemp>
          </ns3:TrackPointExtension>
        </extensions>
      </trkpt>
      <trkpt lat="42.552955336868762969970703125" lon="19.95937071740627288818359375">
        <ele>1077.800048828125</ele>
        <time>2026-06-17T08:07:21.000Z</time>
        <extensions>
          <ns3:TrackPointExtension>
            <ns3:atemp>23.0</ns3:atemp>
          </ns3:TrackPointExtension>
        </extensions>
      </trkpt>
      <trkpt lat="42.552960030734539031982421875" lon="19.9593749083578586578369140625">
        <ele>1077.800048828125</ele>
        <time>2026-06-17T08:07:22.000Z</time>
        <extensions>
          <ns3:TrackPointExtension>
            <ns3:atemp>23.0</ns3:atemp>
          </ns3:TrackPointExtension>
        </extensions>
      </trkpt>
      <trkpt lat="42.552960030734539031982421875" lon="19.9593749083578586578369140625">
        <ele>1077.5999755859375</ele>
        <time>2026-06-17T08:07:23.000Z</time>
        <extensions>
          <ns3:TrackPointExtension>
            <ns3:atemp>23.0</ns3:atemp>
          </ns3:TrackPointExtension>
        </extensions>
      </trkpt>
      <trkpt lat="42.55293882451951503753662109375" lon="19.95939712040126323699951171875">
        <ele>1077.5999755859375</ele>
        <time>2026-06-17T08:07:24.000Z</time>
        <extensions>
          <ns3:TrackPointExtension>
            <ns3:atemp>23.0</ns3:atemp>
          </ns3:TrackPointExtension>
        </extensions>
      </trkpt>
      <trkpt lat="42.55292742513120174407958984375" lon="19.95941086672246456146240234375">
        <ele>1077.800048828125</ele>
        <time>2026-06-17T08:07:25.000Z</time>
        <extensions>
          <ns3:TrackPointExtension>
            <ns3:atemp>23.0</ns3:atemp>
          </ns3:TrackPointExtension>
        </extensions>
      </trkpt>
      <trkpt lat="42.5529156066477298736572265625" lon="19.95942276902496814727783203125">
        <ele>1078</ele>
        <time>2026-06-17T08:07:26.000Z</time>
        <extensions>
          <ns3:TrackPointExtension>
            <ns3:atemp>23.0</ns3:atemp>
          </ns3:TrackPointExtension>
        </extensions>
      </trkpt>
      <trkpt lat="42.552905716001987457275390625" lon="19.95943265967071056365966796875">
        <ele>1078</ele>
        <time>2026-06-17T08:07:27.000Z</time>
        <extensions>
          <ns3:TrackPointExtension>
            <ns3:atemp>23.0</ns3:atemp>
          </ns3:TrackPointExtension>
        </extensions>
      </trkpt>
      <trkpt lat="42.5528954900801181793212890625" lon="19.959443472325801849365234375">
        <ele>1078.199951171875</ele>
        <time>2026-06-17T08:07:28.000Z</time>
        <extensions>
          <ns3:TrackPointExtension>
            <ns3:atemp>23.0</ns3:atemp>
          </ns3:TrackPointExtension>
        </extensions>
      </trkpt>
      <trkpt lat="42.5528814084827899932861328125" lon="19.95945596136152744293212890625">
        <ele>1078.4000244140625</ele>
        <time>2026-06-17T08:07:29.000Z</time>
        <extensions>
          <ns3:TrackPointExtension>
            <ns3:atemp>23.0</ns3:atemp>
          </ns3:TrackPointExtension>
        </extensions>
      </trkpt>
      <trkpt lat="42.5528814084827899932861328125" lon="19.95945596136152744293212890625">
        <ele>1078.5999755859375</ele>
        <time>2026-06-17T08:07:30.000Z</time>
        <extensions>
          <ns3:TrackPointExtension>
            <ns3:atemp>23.0</ns3:atemp>
          </ns3:TrackPointExtension>
        </extensions>
      </trkpt>
      <trkpt lat="42.5528519041836261749267578125" lon="19.959464259445667266845703125">
        <ele>1078.800048828125</ele>
        <time>2026-06-17T08:07:31.000Z</time>
        <extensions>
          <ns3:TrackPointExtension>
            <ns3:atemp>23.0</ns3:atemp>
          </ns3:TrackPointExtension>
        </extensions>
      </trkpt>
      <trkpt lat="42.55283488892018795013427734375" lon="19.95946459472179412841796875">
        <ele>1079</ele>
        <time>2026-06-17T08:07:32.000Z</time>
        <extensions>
          <ns3:TrackPointExtension>
            <ns3:atemp>23.0</ns3:atemp>
          </ns3:TrackPointExtension>
        </extensions>
      </trkpt>
      <trkpt lat="42.552815861999988555908203125" lon="19.959462918341159820556640625">
        <ele>1079.199951171875</ele>
        <time>2026-06-17T08:07:33.000Z</time>
        <extensions>
          <ns3:TrackPointExtension>
            <ns3:atemp>23.0</ns3:atemp>
          </ns3:TrackPointExtension>
        </extensions>
      </trkpt>
      <trkpt lat="42.552803792059421539306640625" lon="19.959452860057353973388671875">
        <ele>1079.199951171875</ele>
        <time>2026-06-17T08:07:34.000Z</time>
        <extensions>
          <ns3:TrackPointExtension>
            <ns3:atemp>23.0</ns3:atemp>
          </ns3:TrackPointExtension>
        </extensions>
      </trkpt>
      <trkpt lat="42.55279633216559886932373046875" lon="19.95943534187972545623779296875">
        <ele>1079.4000244140625</ele>
        <time>2026-06-17T08:07:35.000Z</time>
        <extensions>
          <ns3:TrackPointExtension>
            <ns3:atemp>23.0</ns3:atemp>
          </ns3:TrackPointExtension>
        </extensions>
      </trkpt>
      <trkpt lat="42.55279230885207653045654296875" lon="19.95941321365535259246826171875">
        <ele>1079.4000244140625</ele>
        <time>2026-06-17T08:07:36.000Z</time>
        <extensions>
          <ns3:TrackPointExtension>
            <ns3:atemp>23.0</ns3:atemp>
          </ns3:TrackPointExtension>
        </extensions>
      </trkpt>
      <trkpt lat="42.55278929136693477630615234375" lon="19.959391839802265167236328125">
        <ele>1079.5999755859375</ele>
        <time>2026-06-17T08:07:37.000Z</time>
        <extensions>
          <ns3:TrackPointExtension>
            <ns3:atemp>23.0</ns3:atemp>
          </ns3:TrackPointExtension>
        </extensions>
      </trkpt>
      <trkpt lat="42.55278979428112506866455078125" lon="19.959375746548175811767578125">
        <ele>1079.800048828125</ele>
        <time>2026-06-17T08:07:38.000Z</time>
        <extensions>
          <ns3:TrackPointExtension>
            <ns3:atemp>23.0</ns3:atemp>
          </ns3:TrackPointExtension>
        </extensions>
      </trkpt>
      <trkpt lat="42.5527935661375522613525390625" lon="19.95935973711311817169189453125">
        <ele>1080</ele>
        <time>2026-06-17T08:07:39.000Z</time>
        <extensions>
          <ns3:TrackPointExtension>
            <ns3:atemp>23.0</ns3:atemp>
          </ns3:TrackPointExtension>
        </extensions>
      </trkpt>
      <trkpt lat="42.5527935661375522613525390625" lon="19.95935973711311817169189453125">
        <ele>1080.199951171875</ele>
        <time>2026-06-17T08:07:40.000Z</time>
        <extensions>
          <ns3:TrackPointExtension>
            <ns3:atemp>23.0</ns3:atemp>
          </ns3:TrackPointExtension>
        </extensions>
      </trkpt>
      <trkpt lat="42.55280940793454647064208984375" lon="19.95932805351912975311279296875">
        <ele>1080.4000244140625</ele>
        <time>2026-06-17T08:07:41.000Z</time>
        <extensions>
          <ns3:TrackPointExtension>
            <ns3:atemp>23.0</ns3:atemp>
          </ns3:TrackPointExtension>
        </extensions>
      </trkpt>
      <trkpt lat="42.55280940793454647064208984375" lon="19.95932805351912975311279296875">
        <ele>1080.800048828125</ele>
        <time>2026-06-17T08:07:42.000Z</time>
        <extensions>
          <ns3:TrackPointExtension>
            <ns3:atemp>23.0</ns3:atemp>
          </ns3:TrackPointExtension>
        </extensions>
      </trkpt>
      <trkpt lat="42.5528264231979846954345703125" lon="19.959299974143505096435546875">
        <ele>1081</ele>
        <time>2026-06-17T08:07:43.000Z</time>
        <extensions>
          <ns3:TrackPointExtension>
            <ns3:atemp>23.0</ns3:atemp>
          </ns3:TrackPointExtension>
        </extensions>
      </trkpt>
      <trkpt lat="42.55283421836793422698974609375" lon="19.959286563098430633544921875">
        <ele>1081</ele>
        <time>2026-06-17T08:07:44.000Z</time>
        <extensions>
          <ns3:TrackPointExtension>
            <ns3:atemp>23.0</ns3:atemp>
          </ns3:TrackPointExtension>
        </extensions>
      </trkpt>
      <trkpt lat="42.55284209735691547393798828125" lon="19.959279187023639678955078125">
        <ele>1081.199951171875</ele>
        <time>2026-06-17T08:07:45.000Z</time>
        <extensions>
          <ns3:TrackPointExtension>
            <ns3:atemp>23.0</ns3:atemp>
          </ns3:TrackPointExtension>
        </extensions>
      </trkpt>
      <trkpt lat="42.55285014398396015167236328125" lon="19.95926686562597751617431640625">
        <ele>1081.199951171875</ele>
        <time>2026-06-17T08:07:46.000Z</time>
        <extensions>
          <ns3:TrackPointExtension>
            <ns3:atemp>23.0</ns3:atemp>
          </ns3:TrackPointExtension>
        </extensions>
      </trkpt>
      <trkpt lat="42.55285718478262424468994140625" lon="19.95925848372280597686767578125">
        <ele>1081.4000244140625</ele>
        <time>2026-06-17T08:07:47.000Z</time>
        <extensions>
          <ns3:TrackPointExtension>
            <ns3:atemp>23.0</ns3:atemp>
          </ns3:TrackPointExtension>
        </extensions>
      </trkpt>
      <trkpt lat="42.55286514759063720703125" lon="19.95924557559192180633544921875">
        <ele>1081.4000244140625</ele>
        <time>2026-06-17T08:07:48.000Z</time>
        <extensions>
          <ns3:TrackPointExtension>
            <ns3:atemp>23.0</ns3:atemp>
          </ns3:TrackPointExtension>
        </extensions>
      </trkpt>
      <trkpt lat="42.55287713371217250823974609375" lon="19.959234930574893951416015625">
        <ele>1081.4000244140625</ele>
        <time>2026-06-17T08:07:49.000Z</time>
        <extensions>
          <ns3:TrackPointExtension>
            <ns3:atemp>23.0</ns3:atemp>
          </ns3:TrackPointExtension>
        </extensions>
      </trkpt>
      <trkpt lat="42.55288719199597835540771484375" lon="19.9592263810336589813232421875">
        <ele>1081.4000244140625</ele>
        <time>2026-06-17T08:07:50.000Z</time>
        <extensions>
          <ns3:TrackPointExtension>
            <ns3:atemp>23.0</ns3:atemp>
          </ns3:TrackPointExtension>
        </extensions>
      </trkpt>
      <trkpt lat="42.552900016307830810546875" lon="19.9592139758169651031494140625">
        <ele>1081.4000244140625</ele>
        <time>2026-06-17T08:07:51.000Z</time>
        <extensions>
          <ns3:TrackPointExtension>
            <ns3:atemp>23.0</ns3:atemp>
          </ns3:TrackPointExtension>
        </extensions>
      </trkpt>
      <trkpt lat="42.55291141569614410400390625" lon="19.9592037498950958251953125">
        <ele>1081.4000244140625</ele>
        <time>2026-06-17T08:07:52.000Z</time>
        <extensions>
          <ns3:TrackPointExtension>
            <ns3:atemp>23.0</ns3:atemp>
          </ns3:TrackPointExtension>
        </extensions>
      </trkpt>
      <trkpt lat="42.552927173674106597900390625" lon="19.95919444598257541656494140625">
        <ele>1081.5999755859375</ele>
        <time>2026-06-17T08:07:53.000Z</time>
        <extensions>
          <ns3:TrackPointExtension>
            <ns3:atemp>23.0</ns3:atemp>
          </ns3:TrackPointExtension>
        </extensions>
      </trkpt>
      <trkpt lat="42.5529410876333713531494140625" lon="19.95918354950845241546630859375">
        <ele>1081.5999755859375</ele>
        <time>2026-06-17T08:07:54.000Z</time>
        <extensions>
          <ns3:TrackPointExtension>
            <ns3:atemp>23.0</ns3:atemp>
          </ns3:TrackPointExtension>
        </extensions>
      </trkpt>
      <trkpt lat="42.55295592360198497772216796875" lon="19.9591707251965999603271484375">
        <ele>1081.800048828125</ele>
        <time>2026-06-17T08:07:55.000Z</time>
        <extensions>
          <ns3:TrackPointExtension>
            <ns3:atemp>23.0</ns3:atemp>
          </ns3:TrackPointExtension>
        </extensions>
      </trkpt>
      <trkpt lat="42.55297251977026462554931640625" lon="19.95916494168341159820556640625">
        <ele>1082</ele>
        <time>2026-06-17T08:07:56.000Z</time>
        <extensions>
          <ns3:TrackPointExtension>
            <ns3:atemp>23.0</ns3:atemp>
          </ns3:TrackPointExtension>
        </extensions>
      </trkpt>
      <trkpt lat="42.55299188196659088134765625" lon="19.959161169826984405517578125">
        <ele>1082.199951171875</ele>
        <time>2026-06-17T08:07:57.000Z</time>
        <extensions>
          <ns3:TrackPointExtension>
            <ns3:atemp>23.0</ns3:atemp>
          </ns3:TrackPointExtension>
        </extensions>
      </trkpt>
      <trkpt lat="42.55301199853420257568359375" lon="19.95915572158992290496826171875">
        <ele>1082.5999755859375</ele>
        <time>2026-06-17T08:07:58.000Z</time>
        <extensions>
          <ns3:TrackPointExtension>
            <ns3:atemp>23.0</ns3:atemp>
          </ns3:TrackPointExtension>
        </extensions>
      </trkpt>
      <trkpt lat="42.55302683450281620025634765625" lon="19.95915102772414684295654296875">
        <ele>1082.800048828125</ele>
        <time>2026-06-17T08:07:59.000Z</time>
        <extensions>
          <ns3:TrackPointExtension>
            <ns3:atemp>23.0</ns3:atemp>
          </ns3:TrackPointExtension>
        </extensions>
      </trkpt>
      <trkpt lat="42.5530413351953029632568359375" lon="19.95913610793650150299072265625">
        <ele>1083</ele>
        <time>2026-06-17T08:08:00.000Z</time>
        <extensions>
          <ns3:TrackPointExtension>
            <ns3:atemp>23.0</ns3:atemp>
          </ns3:TrackPointExtension>
        </extensions>
      </trkpt>
      <trkpt lat="42.55305700935423374176025390625" lon="19.95911649428308010101318359375">
        <ele>1083.199951171875</ele>
        <time>2026-06-17T08:08:01.000Z</time>
        <extensions>
          <ns3:TrackPointExtension>
            <ns3:atemp>23.0</ns3:atemp>
          </ns3:TrackPointExtension>
        </extensions>
      </trkpt>
      <trkpt lat="42.55305700935423374176025390625" lon="19.95911649428308010101318359375">
        <ele>1083.4000244140625</ele>
        <time>2026-06-17T08:08:02.000Z</time>
        <extensions>
          <ns3:TrackPointExtension>
            <ns3:atemp>23.0</ns3:atemp>
          </ns3:TrackPointExtension>
        </extensions>
      </trkpt>
      <trkpt lat="42.553080059587955474853515625" lon="19.95907433331012725830078125">
        <ele>1083.5999755859375</ele>
        <time>2026-06-17T08:08:03.000Z</time>
        <extensions>
          <ns3:TrackPointExtension>
            <ns3:atemp>23.0</ns3:atemp>
          </ns3:TrackPointExtension>
        </extensions>
      </trkpt>
      <trkpt lat="42.553084082901477813720703125" lon="19.9590460024774074554443359375">
        <ele>1084</ele>
        <time>2026-06-17T08:08:04.000Z</time>
        <extensions>
          <ns3:TrackPointExtension>
            <ns3:atemp>23.0</ns3:atemp>
          </ns3:TrackPointExtension>
        </extensions>
      </trkpt>
      <trkpt lat="42.5530855916440486907958984375" lon="19.9590186774730682373046875">
        <ele>1084.4000244140625</ele>
        <time>2026-06-17T08:08:05.000Z</time>
        <extensions>
          <ns3:TrackPointExtension>
            <ns3:atemp>23.0</ns3:atemp>
          </ns3:TrackPointExtension>
        </extensions>
      </trkpt>
      <trkpt lat="42.5530782155692577362060546875" lon="19.95899520814418792724609375">
        <ele>1084.800048828125</ele>
        <time>2026-06-17T08:08:06.000Z</time>
        <extensions>
          <ns3:TrackPointExtension>
            <ns3:atemp>23.0</ns3:atemp>
          </ns3:TrackPointExtension>
        </extensions>
      </trkpt>
      <trkpt lat="42.55306622944772243499755859375" lon="19.958974756300449371337890625">
        <ele>1085</ele>
        <time>2026-06-17T08:08:07.000Z</time>
        <extensions>
          <ns3:TrackPointExtension>
            <ns3:atemp>23.0</ns3:atemp>
          </ns3:TrackPointExtension>
        </extensions>
      </trkpt>
      <trkpt lat="42.55305080674588680267333984375" lon="19.95895891450345516204833984375">
        <ele>1085.199951171875</ele>
        <time>2026-06-17T08:08:08.000Z</time>
        <extensions>
          <ns3:TrackPointExtension>
            <ns3:atemp>23.0</ns3:atemp>
          </ns3:TrackPointExtension>
        </extensions>
      </trkpt>
      <trkpt lat="42.5530309416353702545166015625" lon="19.95895455591380596160888671875">
        <ele>1085.199951171875</ele>
        <time>2026-06-17T08:08:09.000Z</time>
        <extensions>
          <ns3:TrackPointExtension>
            <ns3:atemp>23.0</ns3:atemp>
          </ns3:TrackPointExtension>
        </extensions>
      </trkpt>
      <trkpt lat="42.553010322153568267822265625" lon="19.95895774103701114654541015625">
        <ele>1085.4000244140625</ele>
        <time>2026-06-17T08:08:10.000Z</time>
        <extensions>
          <ns3:TrackPointExtension>
            <ns3:atemp>23.0</ns3:atemp>
          </ns3:TrackPointExtension>
        </extensions>
      </trkpt>
      <trkpt lat="42.5529913790524005889892578125" lon="19.95896494947373867034912109375">
        <ele>1085.5999755859375</ele>
        <time>2026-06-17T08:08:11.000Z</time>
        <extensions>
          <ns3:TrackPointExtension>
            <ns3:atemp>23.0</ns3:atemp>
          </ns3:TrackPointExtension>
        </extensions>
      </trkpt>
      <trkpt lat="42.5529736094176769256591796875" lon="19.95897249318659305572509765625">
        <ele>1085.800048828125</ele>
        <time>2026-06-17T08:08:12.000Z</time>
        <extensions>
          <ns3:TrackPointExtension>
            <ns3:atemp>23.0</ns3:atemp>
          </ns3:TrackPointExtension>
        </extensions>
      </trkpt>
      <trkpt lat="42.5529551692306995391845703125" lon="19.95898171328008174896240234375">
        <ele>1086.199951171875</ele>
        <time>2026-06-17T08:08:13.000Z</time>
        <extensions>
          <ns3:TrackPointExtension>
            <ns3:atemp>23.0</ns3:atemp>
          </ns3:TrackPointExtension>
        </extensions>
      </trkpt>
      <trkpt lat="42.552937567234039306640625" lon="19.95899227447807788848876953125">
        <ele>1086.4000244140625</ele>
        <time>2026-06-17T08:08:14.000Z</time>
        <extensions>
          <ns3:TrackPointExtension>
            <ns3:atemp>23.0</ns3:atemp>
          </ns3:TrackPointExtension>
        </extensions>
      </trkpt>
      <trkpt lat="42.55291820503771305084228515625" lon="19.9590061046183109283447265625">
        <ele>1086.5999755859375</ele>
        <time>2026-06-17T08:08:15.000Z</time>
        <extensions>
          <ns3:TrackPointExtension>
            <ns3:atemp>23.0</ns3:atemp>
          </ns3:TrackPointExtension>
        </extensions>
      </trkpt>
      <trkpt lat="42.55290345288813114166259765625" lon="19.95901959948241710662841796875">
        <ele>1086.800048828125</ele>
        <time>2026-06-17T08:08:16.000Z</time>
        <extensions>
          <ns3:TrackPointExtension>
            <ns3:atemp>23.0</ns3:atemp>
          </ns3:TrackPointExtension>
        </extensions>
      </trkpt>
      <trkpt lat="42.55288903601467609405517578125" lon="19.959039129316806793212890625">
        <ele>1087.199951171875</ele>
        <time>2026-06-17T08:08:17.000Z</time>
        <extensions>
          <ns3:TrackPointExtension>
            <ns3:atemp>23.0</ns3:atemp>
          </ns3:TrackPointExtension>
        </extensions>
      </trkpt>
      <trkpt lat="42.55288903601467609405517578125" lon="19.959039129316806793212890625">
        <ele>1087.4000244140625</ele>
        <time>2026-06-17T08:08:18.000Z</time>
        <extensions>
          <ns3:TrackPointExtension>
            <ns3:atemp>23.0</ns3:atemp>
          </ns3:TrackPointExtension>
        </extensions>
      </trkpt>
      <trkpt lat="42.55285902880132198333740234375" lon="19.95905899442732334136962890625">
        <ele>1087.800048828125</ele>
        <time>2026-06-17T08:08:19.000Z</time>
        <extensions>
          <ns3:TrackPointExtension>
            <ns3:atemp>23.0</ns3:atemp>
          </ns3:TrackPointExtension>
        </extensions>
      </trkpt>
      <trkpt lat="42.5528415106236934661865234375" lon="19.95906737633049488067626953125">
        <ele>1088.199951171875</ele>
        <time>2026-06-17T08:08:20.000Z</time>
        <extensions>
          <ns3:TrackPointExtension>
            <ns3:atemp>23.0</ns3:atemp>
          </ns3:TrackPointExtension>
        </extensions>
      </trkpt>
      <trkpt lat="42.5528415106236934661865234375" lon="19.95906737633049488067626953125">
        <ele>1088.5999755859375</ele>
        <time>2026-06-17T08:08:21.000Z</time>
        <extensions>
          <ns3:TrackPointExtension>
            <ns3:atemp>23.0</ns3:atemp>
          </ns3:TrackPointExtension>
        </extensions>
      </trkpt>
      <trkpt lat="42.5528066419064998626708984375" lon="19.9590845592319965362548828125">
        <ele>1089</ele>
        <time>2026-06-17T08:08:22.000Z</time>
        <extensions>
          <ns3:TrackPointExtension>
            <ns3:atemp>23.0</ns3:atemp>
          </ns3:TrackPointExtension>
        </extensions>
      </trkpt>
      <trkpt lat="42.55278803408145904541015625" lon="19.95909553952515125274658203125">
        <ele>1089.199951171875</ele>
        <time>2026-06-17T08:08:23.000Z</time>
        <extensions>
          <ns3:TrackPointExtension>
            <ns3:atemp>23.0</ns3:atemp>
          </ns3:TrackPointExtension>
        </extensions>
      </trkpt>
      <trkpt lat="42.5527721084654331207275390625" lon="19.959106855094432830810546875">
        <ele>1089.5999755859375</ele>
        <time>2026-06-17T08:08:24.000Z</time>
        <extensions>
          <ns3:TrackPointExtension>
            <ns3:atemp>23.0</ns3:atemp>
          </ns3:TrackPointExtension>
        </extensions>
      </trkpt>
      <trkpt lat="42.55275459028780460357666015625" lon="19.95911515317857265472412109375">
        <ele>1090</ele>
        <time>2026-06-17T08:08:25.000Z</time>
        <extensions>
          <ns3:TrackPointExtension>
            <ns3:atemp>23.0</ns3:atemp>
          </ns3:TrackPointExtension>
        </extensions>
      </trkpt>
      <trkpt lat="42.552740089595317840576171875" lon="19.95912219397723674774169921875">
        <ele>1090.4000244140625</ele>
        <time>2026-06-17T08:08:26.000Z</time>
        <extensions>
          <ns3:TrackPointExtension>
            <ns3:atemp>23.0</ns3:atemp>
          </ns3:TrackPointExtension>
        </extensions>
      </trkpt>
      <trkpt lat="42.55272659473121166229248046875" lon="19.959128312766551971435546875">
        <ele>1090.5999755859375</ele>
        <time>2026-06-17T08:08:27.000Z</time>
        <extensions>
          <ns3:TrackPointExtension>
            <ns3:atemp>23.0</ns3:atemp>
          </ns3:TrackPointExtension>
        </extensions>
      </trkpt>
      <trkpt lat="42.5527124293148517608642578125" lon="19.959134347736835479736328125">
        <ele>1091</ele>
        <time>2026-06-17T08:08:28.000Z</time>
        <extensions>
          <ns3:TrackPointExtension>
            <ns3:atemp>23.0</ns3:atemp>
          </ns3:TrackPointExtension>
        </extensions>
      </trkpt>
      <trkpt lat="42.55269541405141353607177734375" lon="19.95914147235453128814697265625">
        <ele>1091.199951171875</ele>
        <time>2026-06-17T08:08:29.000Z</time>
        <extensions>
          <ns3:TrackPointExtension>
            <ns3:atemp>23.0</ns3:atemp>
          </ns3:TrackPointExtension>
        </extensions>
      </trkpt>
      <trkpt lat="42.5526772253215312957763671875" lon="19.95914801023900508880615234375">
        <ele>1091.4000244140625</ele>
        <time>2026-06-17T08:08:30.000Z</time>
        <extensions>
          <ns3:TrackPointExtension>
            <ns3:atemp>23.0</ns3:atemp>
          </ns3:TrackPointExtension>
        </extensions>
      </trkpt>
      <trkpt lat="42.55265903659164905548095703125" lon="19.95915823616087436676025390625">
        <ele>1091.5999755859375</ele>
        <time>2026-06-17T08:08:31.000Z</time>
        <extensions>
          <ns3:TrackPointExtension>
            <ns3:atemp>23.0</ns3:atemp>
          </ns3:TrackPointExtension>
        </extensions>
      </trkpt>
      <trkpt lat="42.552642859518527984619140625" lon="19.95916393585503101348876953125">
        <ele>1091.800048828125</ele>
        <time>2026-06-17T08:08:32.000Z</time>
        <extensions>
          <ns3:TrackPointExtension>
            <ns3:atemp>23.0</ns3:atemp>
          </ns3:TrackPointExtension>
        </extensions>
      </trkpt>
      <trkpt lat="42.55262467078864574432373046875" lon="19.95916879735887050628662109375">
        <ele>1092</ele>
        <time>2026-06-17T08:08:33.000Z</time>
        <extensions>
          <ns3:TrackPointExtension>
            <ns3:atemp>23.0</ns3:atemp>
          </ns3:TrackPointExtension>
        </extensions>
      </trkpt>
      <trkpt lat="42.552608661353588104248046875" lon="19.95918137021362781524658203125">
        <ele>1092.4000244140625</ele>
        <time>2026-06-17T08:08:34.000Z</time>
        <extensions>
          <ns3:TrackPointExtension>
            <ns3:atemp>23.0</ns3:atemp>
          </ns3:TrackPointExtension>
        </extensions>
      </trkpt>
      <trkpt lat="42.552589885890483856201171875" lon="19.95919310487806797027587890625">
        <ele>1092.800048828125</ele>
        <time>2026-06-17T08:08:35.000Z</time>
        <extensions>
          <ns3:TrackPointExtension>
            <ns3:atemp>23.0</ns3:atemp>
          </ns3:TrackPointExtension>
        </extensions>
      </trkpt>
      <trkpt lat="42.55257471464574337005615234375" lon="19.95920115150511264801025390625">
        <ele>1093.199951171875</ele>
        <time>2026-06-17T08:08:36.000Z</time>
        <extensions>
          <ns3:TrackPointExtension>
            <ns3:atemp>23.0</ns3:atemp>
          </ns3:TrackPointExtension>
        </extensions>
      </trkpt>
      <trkpt lat="42.55255845375359058380126953125" lon="19.959203414618968963623046875">
        <ele>1093.4000244140625</ele>
        <time>2026-06-17T08:08:37.000Z</time>
        <extensions>
          <ns3:TrackPointExtension>
            <ns3:atemp>23.0</ns3:atemp>
          </ns3:TrackPointExtension>
        </extensions>
      </trkpt>
      <trkpt lat="42.5525454618036746978759765625" lon="19.95920701883733272552490234375">
        <ele>1093.800048828125</ele>
        <time>2026-06-17T08:08:38.000Z</time>
        <extensions>
          <ns3:TrackPointExtension>
            <ns3:atemp>23.0</ns3:atemp>
          </ns3:TrackPointExtension>
        </extensions>
      </trkpt>
      <trkpt lat="42.5525290332734584808349609375" lon="19.9592143110930919647216796875">
        <ele>1094</ele>
        <time>2026-06-17T08:08:39.000Z</time>
        <extensions>
          <ns3:TrackPointExtension>
            <ns3:atemp>23.0</ns3:atemp>
          </ns3:TrackPointExtension>
        </extensions>
      </trkpt>
      <trkpt lat="42.5525095872581005096435546875" lon="19.95922244153916835784912109375">
        <ele>1094.4000244140625</ele>
        <time>2026-06-17T08:08:40.000Z</time>
        <extensions>
          <ns3:TrackPointExtension>
            <ns3:atemp>23.0</ns3:atemp>
          </ns3:TrackPointExtension>
        </extensions>
      </trkpt>
      <trkpt lat="42.5524924881756305694580078125" lon="19.95923124253749847412109375">
        <ele>1094.5999755859375</ele>
        <time>2026-06-17T08:08:41.000Z</time>
        <extensions>
          <ns3:TrackPointExtension>
            <ns3:atemp>23.0</ns3:atemp>
          </ns3:TrackPointExtension>
        </extensions>
      </trkpt>
      <trkpt lat="42.55247513763606548309326171875" lon="19.95923937298357486724853515625">
        <ele>1095</ele>
        <time>2026-06-17T08:08:42.000Z</time>
        <extensions>
          <ns3:TrackPointExtension>
            <ns3:atemp>23.0</ns3:atemp>
          </ns3:TrackPointExtension>
        </extensions>
      </trkpt>
      <trkpt lat="42.5524579547345638275146484375" lon="19.9592518620193004608154296875">
        <ele>1095.199951171875</ele>
        <time>2026-06-17T08:08:43.000Z</time>
        <extensions>
          <ns3:TrackPointExtension>
            <ns3:atemp>23.0</ns3:atemp>
          </ns3:TrackPointExtension>
        </extensions>
      </trkpt>
      <trkpt lat="42.5524346530437469482421875" lon="19.959264434874057769775390625">
        <ele>1095.4000244140625</ele>
        <time>2026-06-17T08:08:44.000Z</time>
        <extensions>
          <ns3:TrackPointExtension>
            <ns3:atemp>23.0</ns3:atemp>
          </ns3:TrackPointExtension>
        </extensions>
      </trkpt>
      <trkpt lat="42.5524173863232135772705078125" lon="19.9592726491391658782958984375">
        <ele>1095.800048828125</ele>
        <time>2026-06-17T08:08:45.000Z</time>
        <extensions>
          <ns3:TrackPointExtension>
            <ns3:atemp>23.0</ns3:atemp>
          </ns3:TrackPointExtension>
        </extensions>
      </trkpt>
      <trkpt lat="42.55239953286945819854736328125" lon="19.9592827074229717254638671875">
        <ele>1096.199951171875</ele>
        <time>2026-06-17T08:08:46.000Z</time>
        <extensions>
          <ns3:TrackPointExtension>
            <ns3:atemp>23.0</ns3:atemp>
          </ns3:TrackPointExtension>
        </extensions>
      </trkpt>
      <trkpt lat="42.5523841939866542816162109375" lon="19.95929469354450702667236328125">
        <ele>1096.4000244140625</ele>
        <time>2026-06-17T08:08:47.000Z</time>
        <extensions>
          <ns3:TrackPointExtension>
            <ns3:atemp>23.0</ns3:atemp>
          </ns3:TrackPointExtension>
        </extensions>
      </trkpt>
      <trkpt lat="42.55236801691353321075439453125" lon="19.95930257253348827362060546875">
        <ele>1096.800048828125</ele>
        <time>2026-06-17T08:08:48.000Z</time>
        <extensions>
          <ns3:TrackPointExtension>
            <ns3:atemp>23.0</ns3:atemp>
          </ns3:TrackPointExtension>
        </extensions>
      </trkpt>
      <trkpt lat="42.552349828183650970458984375" lon="19.95931179262697696685791015625">
        <ele>1097.199951171875</ele>
        <time>2026-06-17T08:08:49.000Z</time>
        <extensions>
          <ns3:TrackPointExtension>
            <ns3:atemp>23.0</ns3:atemp>
          </ns3:TrackPointExtension>
        </extensions>
      </trkpt>
      <trkpt lat="42.552330382168292999267578125" lon="19.95932620950043201446533203125">
        <ele>1097.4000244140625</ele>
        <time>2026-06-17T08:08:50.000Z</time>
        <extensions>
          <ns3:TrackPointExtension>
            <ns3:atemp>23.0</ns3:atemp>
          </ns3:TrackPointExtension>
        </extensions>
      </trkpt>
      <trkpt lat="42.5523111037909984588623046875" lon="19.95934062637388706207275390625">
        <ele>1097.800048828125</ele>
        <time>2026-06-17T08:08:51.000Z</time>
        <extensions>
          <ns3:TrackPointExtension>
            <ns3:atemp>23.0</ns3:atemp>
          </ns3:TrackPointExtension>
        </extensions>
      </trkpt>
      <trkpt lat="42.55229727365076541900634765625" lon="19.95934850536286830902099609375">
        <ele>1098.199951171875</ele>
        <time>2026-06-17T08:08:52.000Z</time>
        <extensions>
          <ns3:TrackPointExtension>
            <ns3:atemp>23.0</ns3:atemp>
          </ns3:TrackPointExtension>
        </extensions>
      </trkpt>
      <trkpt lat="42.552285455167293548583984375" lon="19.9593534506857395172119140625">
        <ele>1098.4000244140625</ele>
        <time>2026-06-17T08:08:53.000Z</time>
        <extensions>
          <ns3:TrackPointExtension>
            <ns3:atemp>23.0</ns3:atemp>
          </ns3:TrackPointExtension>
        </extensions>
      </trkpt>
      <trkpt lat="42.55226894281804561614990234375" lon="19.95936459861695766448974609375">
        <ele>1098.800048828125</ele>
        <time>2026-06-17T08:08:54.000Z</time>
        <extensions>
          <ns3:TrackPointExtension>
            <ns3:atemp>23.0</ns3:atemp>
          </ns3:TrackPointExtension>
        </extensions>
      </trkpt>
      <trkpt lat="42.552253939211368560791015625" lon="19.95936644263565540313720703125">
        <ele>1099</ele>
        <time>2026-06-17T08:08:55.000Z</time>
        <extensions>
          <ns3:TrackPointExtension>
            <ns3:atemp>23.0</ns3:atemp>
          </ns3:TrackPointExtension>
        </extensions>
      </trkpt>
      <trkpt lat="42.55223684012889862060546875" lon="19.95937407016754150390625">
        <ele>1099.4000244140625</ele>
        <time>2026-06-17T08:08:56.000Z</time>
        <extensions>
          <ns3:TrackPointExtension>
            <ns3:atemp>23.0</ns3:atemp>
          </ns3:TrackPointExtension>
        </extensions>
      </trkpt>
      <trkpt lat="42.5522219203412532806396484375" lon="19.959381110966205596923828125">
        <ele>1099.5999755859375</ele>
        <time>2026-06-17T08:08:57.000Z</time>
        <extensions>
          <ns3:TrackPointExtension>
            <ns3:atemp>23.0</ns3:atemp>
          </ns3:TrackPointExtension>
        </extensions>
      </trkpt>
      <trkpt lat="42.5522013008594512939453125" lon="19.95938890613615512847900390625">
        <ele>1099.800048828125</ele>
        <time>2026-06-17T08:08:58.000Z</time>
        <extensions>
          <ns3:TrackPointExtension>
            <ns3:atemp>23.0</ns3:atemp>
          </ns3:TrackPointExtension>
        </extensions>
      </trkpt>
      <trkpt lat="42.55217858590185642242431640625" lon="19.959395863115787506103515625">
        <ele>1100</ele>
        <time>2026-06-17T08:08:59.000Z</time>
        <extensions>
          <ns3:TrackPointExtension>
            <ns3:atemp>23.0</ns3:atemp>
          </ns3:TrackPointExtension>
        </extensions>
      </trkpt>
      <trkpt lat="42.5521538592875003814697265625" lon="19.95940332300961017608642578125">
        <ele>1100.4000244140625</ele>
        <time>2026-06-17T08:09:00.000Z</time>
        <extensions>
          <ns3:TrackPointExtension>
            <ns3:atemp>23.0</ns3:atemp>
          </ns3:TrackPointExtension>
        </extensions>
      </trkpt>
      <trkpt lat="42.55212997086346149444580078125" lon="19.9594188295304775238037109375">
        <ele>1100.5999755859375</ele>
        <time>2026-06-17T08:09:01.000Z</time>
        <extensions>
          <ns3:TrackPointExtension>
            <ns3:atemp>23.0</ns3:atemp>
          </ns3:TrackPointExtension>
        </extensions>
      </trkpt>
      <trkpt lat="42.55210666917264461517333984375" lon="19.9594290554523468017578125">
        <ele>1100.800048828125</ele>
        <time>2026-06-17T08:09:02.000Z</time>
        <extensions>
          <ns3:TrackPointExtension>
            <ns3:atemp>23.0</ns3:atemp>
          </ns3:TrackPointExtension>
        </extensions>
      </trkpt>
      <trkpt lat="42.5520837865769863128662109375" lon="19.95943911373615264892578125">
        <ele>1101</ele>
        <time>2026-06-17T08:09:03.000Z</time>
        <extensions>
          <ns3:TrackPointExtension>
            <ns3:atemp>23.0</ns3:atemp>
          </ns3:TrackPointExtension>
        </extensions>
      </trkpt>
      <trkpt lat="42.55206526257097721099853515625" lon="19.959444813430309295654296875">
        <ele>1101.199951171875</ele>
        <time>2026-06-17T08:09:04.000Z</time>
        <extensions>
          <ns3:TrackPointExtension>
            <ns3:atemp>23.0</ns3:atemp>
          </ns3:TrackPointExtension>
        </extensions>
      </trkpt>
      <trkpt lat="42.55204346962273120880126953125" lon="19.95945797301828861236572265625">
        <ele>1101.4000244140625</ele>
        <time>2026-06-17T08:09:05.000Z</time>
        <extensions>
          <ns3:TrackPointExtension>
            <ns3:atemp>23.0</ns3:atemp>
          </ns3:TrackPointExtension>
        </extensions>
      </trkpt>
      <trkpt lat="42.55202301777899265289306640625" lon="19.959470964968204498291015625">
        <ele>1101.5999755859375</ele>
        <time>2026-06-17T08:09:06.000Z</time>
        <extensions>
          <ns3:TrackPointExtension>
            <ns3:atemp>23.0</ns3:atemp>
          </ns3:TrackPointExtension>
        </extensions>
      </trkpt>
      <trkpt lat="42.552006505429744720458984375" lon="19.95948345400393009185791015625">
        <ele>1101.800048828125</ele>
        <time>2026-06-17T08:09:07.000Z</time>
        <extensions>
          <ns3:TrackPointExtension>
            <ns3:atemp>23.0</ns3:atemp>
          </ns3:TrackPointExtension>
        </extensions>
      </trkpt>
      <trkpt lat="42.552006505429744720458984375" lon="19.95948345400393009185791015625">
        <ele>1101.800048828125</ele>
        <time>2026-06-17T08:09:08.000Z</time>
        <extensions>
          <ns3:TrackPointExtension>
            <ns3:atemp>23.0</ns3:atemp>
          </ns3:TrackPointExtension>
        </extensions>
      </trkpt>
      <trkpt lat="42.55197138525545597076416015625" lon="19.9595122039318084716796875">
        <ele>1102</ele>
        <time>2026-06-17T08:09:09.000Z</time>
        <extensions>
          <ns3:TrackPointExtension>
            <ns3:atemp>23.0</ns3:atemp>
          </ns3:TrackPointExtension>
        </extensions>
      </trkpt>
      <trkpt lat="42.55195789039134979248046875" lon="19.95952628552913665771484375">
        <ele>1102</ele>
        <time>2026-06-17T08:09:10.000Z</time>
        <extensions>
          <ns3:TrackPointExtension>
            <ns3:atemp>23.0</ns3:atemp>
          </ns3:TrackPointExtension>
        </extensions>
      </trkpt>
      <trkpt lat="42.55194221623241901397705078125" lon="19.9595395289361476898193359375">
        <ele>1102.199951171875</ele>
        <time>2026-06-17T08:09:11.000Z</time>
        <extensions>
          <ns3:TrackPointExtension>
            <ns3:atemp>23.0</ns3:atemp>
          </ns3:TrackPointExtension>
        </extensions>
      </trkpt>
      <trkpt lat="42.551928050816059112548828125" lon="19.9595515988767147064208984375">
        <ele>1102.199951171875</ele>
        <time>2026-06-17T08:09:12.000Z</time>
        <extensions>
          <ns3:TrackPointExtension>
            <ns3:atemp>23.0</ns3:atemp>
          </ns3:TrackPointExtension>
        </extensions>
      </trkpt>
      <trkpt lat="42.5519104488193988800048828125" lon="19.95956425555050373077392578125">
        <ele>1102.199951171875</ele>
        <time>2026-06-17T08:09:13.000Z</time>
        <extensions>
          <ns3:TrackPointExtension>
            <ns3:atemp>23.0</ns3:atemp>
          </ns3:TrackPointExtension>
        </extensions>
      </trkpt>
      <trkpt lat="42.5518950261175632476806640625" lon="19.9595750682055950164794921875">
        <ele>1102.199951171875</ele>
        <time>2026-06-17T08:09:14.000Z</time>
        <extensions>
          <ns3:TrackPointExtension>
            <ns3:atemp>23.0</ns3:atemp>
          </ns3:TrackPointExtension>
        </extensions>
      </trkpt>
      <trkpt lat="42.55187868140637874603271484375" lon="19.9595857970416545867919921875">
        <ele>1102.4000244140625</ele>
        <time>2026-06-17T08:09:15.000Z</time>
        <extensions>
          <ns3:TrackPointExtension>
            <ns3:atemp>23.0</ns3:atemp>
          </ns3:TrackPointExtension>
        </extensions>
      </trkpt>
      <trkpt lat="42.55185998976230621337890625" lon="19.95959560386836528778076171875">
        <ele>1102.4000244140625</ele>
        <time>2026-06-17T08:09:16.000Z</time>
        <extensions>
          <ns3:TrackPointExtension>
            <ns3:atemp>23.0</ns3:atemp>
          </ns3:TrackPointExtension>
        </extensions>
      </trkpt>
      <trkpt lat="42.55184180103242397308349609375" lon="19.95960365049540996551513671875">
        <ele>1102.4000244140625</ele>
        <time>2026-06-17T08:09:17.000Z</time>
        <extensions>
          <ns3:TrackPointExtension>
            <ns3:atemp>23.0</ns3:atemp>
          </ns3:TrackPointExtension>
        </extensions>
      </trkpt>
      <trkpt lat="42.551825456321239471435546875" lon="19.95961136184632778167724609375">
        <ele>1102.5999755859375</ele>
        <time>2026-06-17T08:09:18.000Z</time>
        <extensions>
          <ns3:TrackPointExtension>
            <ns3:atemp>23.0</ns3:atemp>
          </ns3:TrackPointExtension>
        </extensions>
      </trkpt>
      <trkpt lat="42.55180944688618183135986328125" lon="19.95961974374949932098388671875">
        <ele>1102.800048828125</ele>
        <time>2026-06-17T08:09:19.000Z</time>
        <extensions>
          <ns3:TrackPointExtension>
            <ns3:atemp>23.0</ns3:atemp>
          </ns3:TrackPointExtension>
        </extensions>
      </trkpt>
      <trkpt lat="42.55179561674594879150390625" lon="19.95962795801460742950439453125">
        <ele>1102.800048828125</ele>
        <time>2026-06-17T08:09:20.000Z</time>
        <extensions>
          <ns3:TrackPointExtension>
            <ns3:atemp>23.0</ns3:atemp>
          </ns3:TrackPointExtension>
        </extensions>
      </trkpt>
      <trkpt lat="42.55177860148251056671142578125" lon="19.959633238613605499267578125">
        <ele>1102.800048828125</ele>
        <time>2026-06-17T08:09:21.000Z</time>
        <extensions>
          <ns3:TrackPointExtension>
            <ns3:atemp>23.0</ns3:atemp>
          </ns3:TrackPointExtension>
        </extensions>
      </trkpt>
      <trkpt lat="42.55176343023777008056640625" lon="19.9596391059458255767822265625">
        <ele>1103</ele>
        <time>2026-06-17T08:09:22.000Z</time>
        <extensions>
          <ns3:TrackPointExtension>
            <ns3:atemp>23.0</ns3:atemp>
          </ns3:TrackPointExtension>
        </extensions>
      </trkpt>
      <trkpt lat="42.5517471693456172943115234375" lon="19.959647320210933685302734375">
        <ele>1103.199951171875</ele>
        <time>2026-06-17T08:09:23.000Z</time>
        <extensions>
          <ns3:TrackPointExtension>
            <ns3:atemp>23.0</ns3:atemp>
          </ns3:TrackPointExtension>
        </extensions>
      </trkpt>
      <trkpt lat="42.5517471693456172943115234375" lon="19.959647320210933685302734375">
        <ele>1103.199951171875</ele>
        <time>2026-06-17T08:09:24.000Z</time>
        <extensions>
          <ns3:TrackPointExtension>
            <ns3:atemp>23.0</ns3:atemp>
          </ns3:TrackPointExtension>
        </extensions>
      </trkpt>
      <trkpt lat="42.55171154625713825225830078125" lon="19.95966173708438873291015625">
        <ele>1103.4000244140625</ele>
        <time>2026-06-17T08:09:25.000Z</time>
        <extensions>
          <ns3:TrackPointExtension>
            <ns3:atemp>23.0</ns3:atemp>
          </ns3:TrackPointExtension>
        </extensions>
      </trkpt>
      <trkpt lat="42.5516958720982074737548828125" lon="19.95967087335884571075439453125">
        <ele>1103.5999755859375</ele>
        <time>2026-06-17T08:09:26.000Z</time>
        <extensions>
          <ns3:TrackPointExtension>
            <ns3:atemp>23.0</ns3:atemp>
          </ns3:TrackPointExtension>
        </extensions>
      </trkpt>
      <trkpt lat="42.55168120376765727996826171875" lon="19.9596776627004146575927734375">
        <ele>1103.800048828125</ele>
        <time>2026-06-17T08:09:27.000Z</time>
        <extensions>
          <ns3:TrackPointExtension>
            <ns3:atemp>23.0</ns3:atemp>
          </ns3:TrackPointExtension>
        </extensions>
      </trkpt>
      <trkpt lat="42.5516683794558048248291015625" lon="19.9596830271184444427490234375">
        <ele>1104</ele>
        <time>2026-06-17T08:09:28.000Z</time>
        <extensions>
          <ns3:TrackPointExtension>
            <ns3:atemp>23.0</ns3:atemp>
          </ns3:TrackPointExtension>
        </extensions>
      </trkpt>
      <trkpt lat="42.55165471695363521575927734375" lon="19.95969015173614025115966796875">
        <ele>1104.4000244140625</ele>
        <time>2026-06-17T08:09:29.000Z</time>
        <extensions>
          <ns3:TrackPointExtension>
            <ns3:atemp>23.0</ns3:atemp>
          </ns3:TrackPointExtension>
        </extensions>
      </trkpt>
      <trkpt lat="42.551636360585689544677734375" lon="19.9596924148499965667724609375">
        <ele>1104.5999755859375</ele>
        <time>2026-06-17T08:09:30.000Z</time>
        <extensions>
          <ns3:TrackPointExtension>
            <ns3:atemp>23.0</ns3:atemp>
          </ns3:TrackPointExtension>
        </extensions>
      </trkpt>
      <trkpt lat="42.55161733366549015045166015625" lon="19.959698952734470367431640625">
        <ele>1104.800048828125</ele>
        <time>2026-06-17T08:09:31.000Z</time>
        <extensions>
          <ns3:TrackPointExtension>
            <ns3:atemp>23.0</ns3:atemp>
          </ns3:TrackPointExtension>
        </extensions>
      </trkpt>
      <trkpt lat="42.551600150763988494873046875" lon="19.9597044847905635833740234375">
        <ele>1104.800048828125</ele>
        <time>2026-06-17T08:09:32.000Z</time>
        <extensions>
          <ns3:TrackPointExtension>
            <ns3:atemp>23.0</ns3:atemp>
          </ns3:TrackPointExtension>
        </extensions>
      </trkpt>
      <trkpt lat="42.551583386957645416259765625" lon="19.95970758609473705291748046875">
        <ele>1105.199951171875</ele>
        <time>2026-06-17T08:09:33.000Z</time>
        <extensions>
          <ns3:TrackPointExtension>
            <ns3:atemp>23.0</ns3:atemp>
          </ns3:TrackPointExtension>
        </extensions>
      </trkpt>
      <trkpt lat="42.55156335420906543731689453125" lon="19.95971269905567169189453125">
        <ele>1105.199951171875</ele>
        <time>2026-06-17T08:09:34.000Z</time>
        <extensions>
          <ns3:TrackPointExtension>
            <ns3:atemp>23.0</ns3:atemp>
          </ns3:TrackPointExtension>
        </extensions>
      </trkpt>
      <trkpt lat="42.55154340527951717376708984375" lon="19.959719069302082061767578125">
        <ele>1105.4000244140625</ele>
        <time>2026-06-17T08:09:35.000Z</time>
        <extensions>
          <ns3:TrackPointExtension>
            <ns3:atemp>23.0</ns3:atemp>
          </ns3:TrackPointExtension>
        </extensions>
      </trkpt>
      <trkpt lat="42.55152714438736438751220703125" lon="19.95971982367336750030517578125">
        <ele>1105.5999755859375</ele>
        <time>2026-06-17T08:09:36.000Z</time>
        <extensions>
          <ns3:TrackPointExtension>
            <ns3:atemp>23.0</ns3:atemp>
          </ns3:TrackPointExtension>
        </extensions>
      </trkpt>
      <trkpt lat="42.5515037588775157928466796875" lon="19.95972116477787494659423828125">
        <ele>1105.800048828125</ele>
        <time>2026-06-17T08:09:37.000Z</time>
        <extensions>
          <ns3:TrackPointExtension>
            <ns3:atemp>23.0</ns3:atemp>
          </ns3:TrackPointExtension>
        </extensions>
      </trkpt>
      <trkpt lat="42.5514799542725086212158203125" lon="19.95972611010074615478515625">
        <ele>1106</ele>
        <time>2026-06-17T08:09:38.000Z</time>
        <extensions>
          <ns3:TrackPointExtension>
            <ns3:atemp>23.0</ns3:atemp>
          </ns3:TrackPointExtension>
        </extensions>
      </trkpt>
      <trkpt lat="42.55145841278135776519775390625" lon="19.959732480347156524658203125">
        <ele>1106.199951171875</ele>
        <time>2026-06-17T08:09:39.000Z</time>
        <extensions>
          <ns3:TrackPointExtension>
            <ns3:atemp>23.0</ns3:atemp>
          </ns3:TrackPointExtension>
        </extensions>
      </trkpt>
      <trkpt lat="42.551438547670841217041015625" lon="19.95974220335483551025390625">
        <ele>1106.4000244140625</ele>
        <time>2026-06-17T08:09:40.000Z</time>
        <extensions>
          <ns3:TrackPointExtension>
            <ns3:atemp>23.0</ns3:atemp>
          </ns3:TrackPointExtension>
        </extensions>
      </trkpt>
      <trkpt lat="42.55141868256032466888427734375" lon="19.9597480706870555877685546875">
        <ele>1106.5999755859375</ele>
        <time>2026-06-17T08:09:41.000Z</time>
        <extensions>
          <ns3:TrackPointExtension>
            <ns3:atemp>24.0</ns3:atemp>
          </ns3:TrackPointExtension>
        </extensions>
      </trkpt>
      <trkpt lat="42.55139772780239582061767578125" lon="19.95975972153246402740478515625">
        <ele>1106.800048828125</ele>
        <time>2026-06-17T08:09:42.000Z</time>
        <extensions>
          <ns3:TrackPointExtension>
            <ns3:atemp>23.0</ns3:atemp>
          </ns3:TrackPointExtension>
        </extensions>
      </trkpt>
      <trkpt lat="42.5513807125389575958251953125" lon="19.95976634323596954345703125">
        <ele>1107.199951171875</ele>
        <time>2026-06-17T08:09:43.000Z</time>
        <extensions>
          <ns3:TrackPointExtension>
            <ns3:atemp>23.0</ns3:atemp>
          </ns3:TrackPointExtension>
        </extensions>
      </trkpt>
      <trkpt lat="42.55136453546583652496337890625" lon="19.9597715400159358978271484375">
        <ele>1107.4000244140625</ele>
        <time>2026-06-17T08:09:44.000Z</time>
        <extensions>
          <ns3:TrackPointExtension>
            <ns3:atemp>23.0</ns3:atemp>
          </ns3:TrackPointExtension>
        </extensions>
      </trkpt>
      <trkpt lat="42.55134693346917629241943359375" lon="19.959776401519775390625">
        <ele>1107.5999755859375</ele>
        <time>2026-06-17T08:09:45.000Z</time>
        <extensions>
          <ns3:TrackPointExtension>
            <ns3:atemp>23.0</ns3:atemp>
          </ns3:TrackPointExtension>
        </extensions>
      </trkpt>
      <trkpt lat="42.55133067257702350616455078125" lon="19.95978109538555145263671875">
        <ele>1107.800048828125</ele>
        <time>2026-06-17T08:09:46.000Z</time>
        <extensions>
          <ns3:TrackPointExtension>
            <ns3:atemp>23.0</ns3:atemp>
          </ns3:TrackPointExtension>
        </extensions>
      </trkpt>
      <trkpt lat="42.55131524987518787384033203125" lon="19.95978721417486667633056640625">
        <ele>1107.800048828125</ele>
        <time>2026-06-17T08:09:47.000Z</time>
        <extensions>
          <ns3:TrackPointExtension>
            <ns3:atemp>23.0</ns3:atemp>
          </ns3:TrackPointExtension>
        </extensions>
      </trkpt>
      <trkpt lat="42.5512992404401302337646484375" lon="19.95978889055550098419189453125">
        <ele>1108.199951171875</ele>
        <time>2026-06-17T08:09:48.000Z</time>
        <extensions>
          <ns3:TrackPointExtension>
            <ns3:atemp>23.0</ns3:atemp>
          </ns3:TrackPointExtension>
        </extensions>
      </trkpt>
      <trkpt lat="42.55128038115799427032470703125" lon="19.9597940035164356231689453125">
        <ele>1108.4000244140625</ele>
        <time>2026-06-17T08:09:49.000Z</time>
        <extensions>
          <ns3:TrackPointExtension>
            <ns3:atemp>23.0</ns3:atemp>
          </ns3:TrackPointExtension>
        </extensions>
      </trkpt>
      <trkpt lat="42.55126579664647579193115234375" lon="19.95979760773479938507080078125">
        <ele>1108.5999755859375</ele>
        <time>2026-06-17T08:09:50.000Z</time>
        <extensions>
          <ns3:TrackPointExtension>
            <ns3:atemp>24.0</ns3:atemp>
          </ns3:TrackPointExtension>
        </extensions>
      </trkpt>
      <trkpt lat="42.55124769173562526702880859375" lon="19.9598000384867191314697265625">
        <ele>1108.800048828125</ele>
        <time>2026-06-17T08:09:51.000Z</time>
        <extensions>
          <ns3:TrackPointExtension>
            <ns3:atemp>24.0</ns3:atemp>
          </ns3:TrackPointExtension>
        </extensions>
      </trkpt>
      <trkpt lat="42.55123101174831390380859375" lon="19.95979760773479938507080078125">
        <ele>1109</ele>
        <time>2026-06-17T08:09:52.000Z</time>
        <extensions>
          <ns3:TrackPointExtension>
            <ns3:atemp>23.0</ns3:atemp>
          </ns3:TrackPointExtension>
        </extensions>
      </trkpt>
      <trkpt lat="42.551213242113590240478515625" lon="19.95979911647737026214599609375">
        <ele>1109.199951171875</ele>
        <time>2026-06-17T08:09:53.000Z</time>
        <extensions>
          <ns3:TrackPointExtension>
            <ns3:atemp>23.0</ns3:atemp>
          </ns3:TrackPointExtension>
        </extensions>
      </trkpt>
      <trkpt lat="42.5511927902698516845703125" lon="19.95979928411543369293212890625">
        <ele>1109.4000244140625</ele>
        <time>2026-06-17T08:09:54.000Z</time>
        <extensions>
          <ns3:TrackPointExtension>
            <ns3:atemp>23.0</ns3:atemp>
          </ns3:TrackPointExtension>
        </extensions>
      </trkpt>
      <trkpt lat="42.551172338426113128662109375" lon="19.9598050676286220550537109375">
        <ele>1109.5999755859375</ele>
        <time>2026-06-17T08:09:55.000Z</time>
        <extensions>
          <ns3:TrackPointExtension>
            <ns3:atemp>23.0</ns3:atemp>
          </ns3:TrackPointExtension>
        </extensions>
      </trkpt>
      <trkpt lat="42.55115029402077198028564453125" lon="19.9598107673227787017822265625">
        <ele>1110</ele>
        <time>2026-06-17T08:09:56.000Z</time>
        <extensions>
          <ns3:TrackPointExtension>
            <ns3:atemp>23.0</ns3:atemp>
          </ns3:TrackPointExtension>
        </extensions>
      </trkpt>
      <trkpt lat="42.55113487131893634796142578125" lon="19.95981889776885509490966796875">
        <ele>1110.199951171875</ele>
        <time>2026-06-17T08:09:57.000Z</time>
        <extensions>
          <ns3:TrackPointExtension>
            <ns3:atemp>24.0</ns3:atemp>
          </ns3:TrackPointExtension>
        </extensions>
      </trkpt>
      <trkpt lat="42.5511178560554981231689453125" lon="19.959827698767185211181640625">
        <ele>1110.4000244140625</ele>
        <time>2026-06-17T08:09:58.000Z</time>
        <extensions>
          <ns3:TrackPointExtension>
            <ns3:atemp>24.0</ns3:atemp>
          </ns3:TrackPointExtension>
        </extensions>
      </trkpt>
      <trkpt lat="42.55110117606818675994873046875" lon="19.959836415946483612060546875">
        <ele>1110.5999755859375</ele>
        <time>2026-06-17T08:09:59.000Z</time>
        <extensions>
          <ns3:TrackPointExtension>
            <ns3:atemp>23.0</ns3:atemp>
          </ns3:TrackPointExtension>
        </extensions>
      </trkpt>
      <trkpt lat="42.55108592100441455841064453125" lon="19.95984404347836971282958984375">
        <ele>1110.800048828125</ele>
        <time>2026-06-17T08:10:00.000Z</time>
        <extensions>
          <ns3:TrackPointExtension>
            <ns3:atemp>24.0</ns3:atemp>
          </ns3:TrackPointExtension>
        </extensions>
      </trkpt>
      <trkpt lat="42.5510720908641815185546875" lon="19.95985343120992183685302734375">
        <ele>1111</ele>
        <time>2026-06-17T08:10:01.000Z</time>
        <extensions>
          <ns3:TrackPointExtension>
            <ns3:atemp>24.0</ns3:atemp>
          </ns3:TrackPointExtension>
        </extensions>
      </trkpt>
      <trkpt lat="42.55105574615299701690673828125" lon="19.9598664231598377227783203125">
        <ele>1111.199951171875</ele>
        <time>2026-06-17T08:10:02.000Z</time>
        <extensions>
          <ns3:TrackPointExtension>
            <ns3:atemp>24.0</ns3:atemp>
          </ns3:TrackPointExtension>
        </extensions>
      </trkpt>
      <trkpt lat="42.55103697068989276885986328125" lon="19.95988025330007076263427734375">
        <ele>1111.4000244140625</ele>
        <time>2026-06-17T08:10:03.000Z</time>
        <extensions>
          <ns3:TrackPointExtension>
            <ns3:atemp>24.0</ns3:atemp>
          </ns3:TrackPointExtension>
        </extensions>
      </trkpt>
      <trkpt lat="42.5510226376354694366455078125" lon="19.9598942510783672332763671875">
        <ele>1111.5999755859375</ele>
        <time>2026-06-17T08:10:04.000Z</time>
        <extensions>
          <ns3:TrackPointExtension>
            <ns3:atemp>24.0</ns3:atemp>
          </ns3:TrackPointExtension>
        </extensions>
      </trkpt>
      <trkpt lat="42.55101065151393413543701171875" lon="19.959905482828617095947265625">
        <ele>1111.800048828125</ele>
        <time>2026-06-17T08:10:05.000Z</time>
        <extensions>
          <ns3:TrackPointExtension>
            <ns3:atemp>24.0</ns3:atemp>
          </ns3:TrackPointExtension>
        </extensions>
      </trkpt>
      <trkpt lat="42.550993971526622772216796875" lon="19.9599204026162624359130859375">
        <ele>1112</ele>
        <time>2026-06-17T08:10:06.000Z</time>
        <extensions>
          <ns3:TrackPointExtension>
            <ns3:atemp>24.0</ns3:atemp>
          </ns3:TrackPointExtension>
        </extensions>
      </trkpt>
      <trkpt lat="42.550975866615772247314453125" lon="19.95993725024163722991943359375">
        <ele>1112.199951171875</ele>
        <time>2026-06-17T08:10:07.000Z</time>
        <extensions>
          <ns3:TrackPointExtension>
            <ns3:atemp>24.0</ns3:atemp>
          </ns3:TrackPointExtension>
        </extensions>
      </trkpt>
      <trkpt lat="42.55095566622912883758544921875" lon="19.9599512480199337005615234375">
        <ele>1112.199951171875</ele>
        <time>2026-06-17T08:10:08.000Z</time>
        <extensions>
          <ns3:TrackPointExtension>
            <ns3:atemp>24.0</ns3:atemp>
          </ns3:TrackPointExtension>
        </extensions>
      </trkpt>
      <trkpt lat="42.550940997898578643798828125" lon="19.95996423996984958648681640625">
        <ele>1112.4000244140625</ele>
        <time>2026-06-17T08:10:09.000Z</time>
        <extensions>
          <ns3:TrackPointExtension>
            <ns3:atemp>24.0</ns3:atemp>
          </ns3:TrackPointExtension>
        </extensions>
      </trkpt>
      <trkpt lat="42.55092565901577472686767578125" lon="19.9599762260913848876953125">
        <ele>1112.5999755859375</ele>
        <time>2026-06-17T08:10:10.000Z</time>
        <extensions>
          <ns3:TrackPointExtension>
            <ns3:atemp>24.0</ns3:atemp>
          </ns3:TrackPointExtension>
        </extensions>
      </trkpt>
      <trkpt lat="42.55090780556201934814453125" lon="19.95998821221292018890380859375">
        <ele>1112.800048828125</ele>
        <time>2026-06-17T08:10:11.000Z</time>
        <extensions>
          <ns3:TrackPointExtension>
            <ns3:atemp>24.0</ns3:atemp>
          </ns3:TrackPointExtension>
        </extensions>
      </trkpt>
      <trkpt lat="42.55089347250759601593017578125" lon="19.9600042216479778289794921875">
        <ele>1113</ele>
        <time>2026-06-17T08:10:12.000Z</time>
        <extensions>
          <ns3:TrackPointExtension>
            <ns3:atemp>24.0</ns3:atemp>
          </ns3:TrackPointExtension>
        </extensions>
      </trkpt>
      <trkpt lat="42.55087419413030147552490234375" lon="19.960020482540130615234375">
        <ele>1113.199951171875</ele>
        <time>2026-06-17T08:10:13.000Z</time>
        <extensions>
          <ns3:TrackPointExtension>
            <ns3:atemp>24.0</ns3:atemp>
          </ns3:TrackPointExtension>
        </extensions>
      </trkpt>
      <trkpt lat="42.5508553348481655120849609375" lon="19.96002844534814357757568359375">
        <ele>1113.4000244140625</ele>
        <time>2026-06-17T08:10:14.000Z</time>
        <extensions>
          <ns3:TrackPointExtension>
            <ns3:atemp>24.0</ns3:atemp>
          </ns3:TrackPointExtension>
        </extensions>
      </trkpt>
      <trkpt lat="42.5508382357656955718994140625" lon="19.96003414504230022430419921875">
        <ele>1113.800048828125</ele>
        <time>2026-06-17T08:10:15.000Z</time>
        <extensions>
          <ns3:TrackPointExtension>
            <ns3:atemp>24.0</ns3:atemp>
          </ns3:TrackPointExtension>
        </extensions>
      </trkpt>
      <trkpt lat="42.55081929266452789306640625" lon="19.96003724634647369384765625">
        <ele>1114</ele>
        <time>2026-06-17T08:10:16.000Z</time>
        <extensions>
          <ns3:TrackPointExtension>
            <ns3:atemp>24.0</ns3:atemp>
          </ns3:TrackPointExtension>
        </extensions>
      </trkpt>
      <trkpt lat="42.5507985055446624755859375" lon="19.96004571206867694854736328125">
        <ele>1114.199951171875</ele>
        <time>2026-06-17T08:10:17.000Z</time>
        <extensions>
          <ns3:TrackPointExtension>
            <ns3:atemp>24.0</ns3:atemp>
          </ns3:TrackPointExtension>
        </extensions>
      </trkpt>
      <trkpt lat="42.550779394805431365966796875" lon="19.9600494839251041412353515625">
        <ele>1114.4000244140625</ele>
        <time>2026-06-17T08:10:18.000Z</time>
        <extensions>
          <ns3:TrackPointExtension>
            <ns3:atemp>24.0</ns3:atemp>
          </ns3:TrackPointExtension>
        </extensions>
      </trkpt>
      <trkpt lat="42.5507627986371517181396484375" lon="19.96005375869572162628173828125">
        <ele>1114.5999755859375</ele>
        <time>2026-06-17T08:10:19.000Z</time>
        <extensions>
          <ns3:TrackPointExtension>
            <ns3:atemp>24.0</ns3:atemp>
          </ns3:TrackPointExtension>
        </extensions>
      </trkpt>
      <trkpt lat="42.55074427463114261627197265625" lon="19.9600595422089099884033203125">
        <ele>1114.5999755859375</ele>
        <time>2026-06-17T08:10:20.000Z</time>
        <extensions>
          <ns3:TrackPointExtension>
            <ns3:atemp>24.0</ns3:atemp>
          </ns3:TrackPointExtension>
        </extensions>
      </trkpt>
      <trkpt lat="42.55072784610092639923095703125" lon="19.9600649066269397735595703125">
        <ele>1114.800048828125</ele>
        <time>2026-06-17T08:10:21.000Z</time>
        <extensions>
          <ns3:TrackPointExtension>
            <ns3:atemp>24.0</ns3:atemp>
          </ns3:TrackPointExtension>
        </extensions>
      </trkpt>
      <trkpt lat="42.5507094897329807281494140625" lon="19.96007085777819156646728515625">
        <ele>1115</ele>
        <time>2026-06-17T08:10:22.000Z</time>
        <extensions>
          <ns3:TrackPointExtension>
            <ns3:atemp>24.0</ns3:atemp>
          </ns3:TrackPointExtension>
        </extensions>
      </trkpt>
      <trkpt lat="42.55069448612630367279052734375" lon="19.96007773093879222869873046875">
        <ele>1115.4000244140625</ele>
        <time>2026-06-17T08:10:23.000Z</time>
        <extensions>
          <ns3:TrackPointExtension>
            <ns3:atemp>24.0</ns3:atemp>
          </ns3:TrackPointExtension>
        </extensions>
      </trkpt>
      <trkpt lat="42.55067554302513599395751953125" lon="19.96008745394647121429443359375">
        <ele>1115.5999755859375</ele>
        <time>2026-06-17T08:10:24.000Z</time>
        <extensions>
          <ns3:TrackPointExtension>
            <ns3:atemp>24.0</ns3:atemp>
          </ns3:TrackPointExtension>
        </extensions>
      </trkpt>
      <trkpt lat="42.55065701901912689208984375" lon="19.9600947462022304534912109375">
        <ele>1115.800048828125</ele>
        <time>2026-06-17T08:10:25.000Z</time>
        <extensions>
          <ns3:TrackPointExtension>
            <ns3:atemp>24.0</ns3:atemp>
          </ns3:TrackPointExtension>
        </extensions>
      </trkpt>
      <trkpt lat="42.55063824355602264404296875" lon="19.9601022899150848388671875">
        <ele>1116.4000244140625</ele>
        <time>2026-06-17T08:10:26.000Z</time>
        <extensions>
          <ns3:TrackPointExtension>
            <ns3:atemp>24.0</ns3:atemp>
          </ns3:TrackPointExtension>
        </extensions>
      </trkpt>
      <trkpt lat="42.55061737261712551116943359375" lon="19.96011435985565185546875">
        <ele>1116.5999755859375</ele>
        <time>2026-06-17T08:10:27.000Z</time>
        <extensions>
          <ns3:TrackPointExtension>
            <ns3:atemp>24.0</ns3:atemp>
          </ns3:TrackPointExtension>
        </extensions>
      </trkpt>
      <trkpt lat="42.55059893243014812469482421875" lon="19.96012969873845577239990234375">
        <ele>1117</ele>
        <time>2026-06-17T08:10:28.000Z</time>
        <extensions>
          <ns3:TrackPointExtension>
            <ns3:atemp>24.0</ns3:atemp>
          </ns3:TrackPointExtension>
        </extensions>
      </trkpt>
      <trkpt lat="42.55057923495769500732421875" lon="19.96013958938419818878173828125">
        <ele>1117.199951171875</ele>
        <time>2026-06-17T08:10:29.000Z</time>
        <extensions>
          <ns3:TrackPointExtension>
            <ns3:atemp>24.0</ns3:atemp>
          </ns3:TrackPointExtension>
        </extensions>
      </trkpt>
      <trkpt lat="42.55056607536971569061279296875" lon="19.96014310978353023529052734375">
        <ele>1117.5999755859375</ele>
        <time>2026-06-17T08:10:30.000Z</time>
        <extensions>
          <ns3:TrackPointExtension>
            <ns3:atemp>24.0</ns3:atemp>
          </ns3:TrackPointExtension>
        </extensions>
      </trkpt>
      <trkpt lat="42.5505517423152923583984375" lon="19.960148222744464874267578125">
        <ele>1118</ele>
        <time>2026-06-17T08:10:31.000Z</time>
        <extensions>
          <ns3:TrackPointExtension>
            <ns3:atemp>24.0</ns3:atemp>
          </ns3:TrackPointExtension>
        </extensions>
      </trkpt>
      <trkpt lat="42.5505391694605350494384765625" lon="19.96015015058219432830810546875">
        <ele>1118.199951171875</ele>
        <time>2026-06-17T08:10:32.000Z</time>
        <extensions>
          <ns3:TrackPointExtension>
            <ns3:atemp>24.0</ns3:atemp>
          </ns3:TrackPointExtension>
        </extensions>
      </trkpt>
      <trkpt lat="42.55052668042480945587158203125" lon="19.9601507373154163360595703125">
        <ele>1118.4000244140625</ele>
        <time>2026-06-17T08:10:33.000Z</time>
        <extensions>
          <ns3:TrackPointExtension>
            <ns3:atemp>24.0</ns3:atemp>
          </ns3:TrackPointExtension>
        </extensions>
      </trkpt>
      <trkpt lat="42.550511844456195831298828125" lon="19.96015132404863834381103515625">
        <ele>1118.4000244140625</ele>
        <time>2026-06-17T08:10:34.000Z</time>
        <extensions>
          <ns3:TrackPointExtension>
            <ns3:atemp>24.0</ns3:atemp>
          </ns3:TrackPointExtension>
        </extensions>
      </trkpt>
      <trkpt lat="42.55049449391663074493408203125" lon="19.9601601250469684600830078125">
        <ele>1118.5999755859375</ele>
        <time>2026-06-17T08:10:35.000Z</time>
        <extensions>
          <ns3:TrackPointExtension>
            <ns3:atemp>24.0</ns3:atemp>
          </ns3:TrackPointExtension>
        </extensions>
      </trkpt>
      <trkpt lat="42.55047622136771678924560546875" lon="19.96016892604529857635498046875">
        <ele>1118.800048828125</ele>
        <time>2026-06-17T08:10:36.000Z</time>
        <extensions>
          <ns3:TrackPointExtension>
            <ns3:atemp>24.0</ns3:atemp>
          </ns3:TrackPointExtension>
        </extensions>
      </trkpt>
      <trkpt lat="42.550457529723644256591796875" lon="19.96017714031040668487548828125">
        <ele>1118.800048828125</ele>
        <time>2026-06-17T08:10:37.000Z</time>
        <extensions>
          <ns3:TrackPointExtension>
            <ns3:atemp>24.0</ns3:atemp>
          </ns3:TrackPointExtension>
        </extensions>
      </trkpt>
      <trkpt lat="42.55043900571763515472412109375" lon="19.96018954552710056304931640625">
        <ele>1119</ele>
        <time>2026-06-17T08:10:38.000Z</time>
        <extensions>
          <ns3:TrackPointExtension>
            <ns3:atemp>24.0</ns3:atemp>
          </ns3:TrackPointExtension>
        </extensions>
      </trkpt>
      <trkpt lat="42.5504198111593723297119140625" lon="19.96020044200122356414794921875">
        <ele>1119</ele>
        <time>2026-06-17T08:10:39.000Z</time>
        <extensions>
          <ns3:TrackPointExtension>
            <ns3:atemp>24.0</ns3:atemp>
          </ns3:TrackPointExtension>
        </extensions>
      </trkpt>
      <trkpt lat="42.55040162242949008941650390625" lon="19.96020915918052196502685546875">
        <ele>1119.199951171875</ele>
        <time>2026-06-17T08:10:40.000Z</time>
        <extensions>
          <ns3:TrackPointExtension>
            <ns3:atemp>24.0</ns3:atemp>
          </ns3:TrackPointExtension>
        </extensions>
      </trkpt>
      <trkpt lat="42.5503842718899250030517578125" lon="19.9602208100259304046630859375">
        <ele>1119.199951171875</ele>
        <time>2026-06-17T08:10:41.000Z</time>
        <extensions>
          <ns3:TrackPointExtension>
            <ns3:atemp>24.0</ns3:atemp>
          </ns3:TrackPointExtension>
        </extensions>
      </trkpt>
      <trkpt lat="42.5503668375313282012939453125" lon="19.9602256715297698974609375">
        <ele>1119.199951171875</ele>
        <time>2026-06-17T08:10:42.000Z</time>
        <extensions>
          <ns3:TrackPointExtension>
            <ns3:atemp>24.0</ns3:atemp>
          </ns3:TrackPointExtension>
        </extensions>
      </trkpt>
      <trkpt lat="42.55035124719142913818359375" lon="19.96023396961390972137451171875">
        <ele>1119.4000244140625</ele>
        <time>2026-06-17T08:10:43.000Z</time>
        <extensions>
          <ns3:TrackPointExtension>
            <ns3:atemp>24.0</ns3:atemp>
          </ns3:TrackPointExtension>
        </extensions>
      </trkpt>
      <trkpt lat="42.550334818661212921142578125" lon="19.96024503372609615325927734375">
        <ele>1119.4000244140625</ele>
        <time>2026-06-17T08:10:44.000Z</time>
        <extensions>
          <ns3:TrackPointExtension>
            <ns3:atemp>24.0</ns3:atemp>
          </ns3:TrackPointExtension>
        </extensions>
      </trkpt>
      <trkpt lat="42.55031847395002841949462890625" lon="19.9602524936199188232421875">
        <ele>1119.5999755859375</ele>
        <time>2026-06-17T08:10:45.000Z</time>
        <extensions>
          <ns3:TrackPointExtension>
            <ns3:atemp>24.0</ns3:atemp>
          </ns3:TrackPointExtension>
        </extensions>
      </trkpt>
      <trkpt lat="42.55030305124819278717041015625" lon="19.9602590315043926239013671875">
        <ele>1119.800048828125</ele>
        <time>2026-06-17T08:10:46.000Z</time>
        <extensions>
          <ns3:TrackPointExtension>
            <ns3:atemp>24.0</ns3:atemp>
          </ns3:TrackPointExtension>
        </extensions>
      </trkpt>
      <trkpt lat="42.55028192885220050811767578125" lon="19.9602650664746761322021484375">
        <ele>1119.800048828125</ele>
        <time>2026-06-17T08:10:47.000Z</time>
        <extensions>
          <ns3:TrackPointExtension>
            <ns3:atemp>24.0</ns3:atemp>
          </ns3:TrackPointExtension>
        </extensions>
      </trkpt>
      <trkpt lat="42.55026281811296939849853515625" lon="19.96027059853076934814453125">
        <ele>1120</ele>
        <time>2026-06-17T08:10:48.000Z</time>
        <extensions>
          <ns3:TrackPointExtension>
            <ns3:atemp>24.0</ns3:atemp>
          </ns3:TrackPointExtension>
        </extensions>
      </trkpt>
      <trkpt lat="42.55024521611630916595458984375" lon="19.9602694250643253326416015625">
        <ele>1120</ele>
        <time>2026-06-17T08:10:49.000Z</time>
        <extensions>
          <ns3:TrackPointExtension>
            <ns3:atemp>24.0</ns3:atemp>
          </ns3:TrackPointExtension>
        </extensions>
      </trkpt>
      <trkpt lat="42.55022543482482433319091796875" lon="19.96027135290205478668212890625">
        <ele>1120.199951171875</ele>
        <time>2026-06-17T08:10:50.000Z</time>
        <extensions>
          <ns3:TrackPointExtension>
            <ns3:atemp>24.0</ns3:atemp>
          </ns3:TrackPointExtension>
        </extensions>
      </trkpt>
      <trkpt lat="42.55021177232265472412109375" lon="19.96027101762592792510986328125">
        <ele>1120.199951171875</ele>
        <time>2026-06-17T08:10:51.000Z</time>
        <extensions>
          <ns3:TrackPointExtension>
            <ns3:atemp>24.0</ns3:atemp>
          </ns3:TrackPointExtension>
        </extensions>
      </trkpt>
      <trkpt lat="42.55019609816372394561767578125" lon="19.96027369983494281768798828125">
        <ele>1120.4000244140625</ele>
        <time>2026-06-17T08:10:52.000Z</time>
        <extensions>
          <ns3:TrackPointExtension>
            <ns3:atemp>24.0</ns3:atemp>
          </ns3:TrackPointExtension>
        </extensions>
      </trkpt>
      <trkpt lat="42.55018067546188831329345703125" lon="19.960274286568164825439453125">
        <ele>1120.5999755859375</ele>
        <time>2026-06-17T08:10:53.000Z</time>
        <extensions>
          <ns3:TrackPointExtension>
            <ns3:atemp>24.0</ns3:atemp>
          </ns3:TrackPointExtension>
        </extensions>
      </trkpt>
      <trkpt lat="42.55016273818910121917724609375" lon="19.960273616015911102294921875">
        <ele>1120.800048828125</ele>
        <time>2026-06-17T08:10:54.000Z</time>
        <extensions>
          <ns3:TrackPointExtension>
            <ns3:atemp>24.0</ns3:atemp>
          </ns3:TrackPointExtension>
        </extensions>
      </trkpt>
      <trkpt lat="42.55014848895370960235595703125" lon="19.9602717719972133636474609375">
        <ele>1121</ele>
        <time>2026-06-17T08:10:55.000Z</time>
        <extensions>
          <ns3:TrackPointExtension>
            <ns3:atemp>24.0</ns3:atemp>
          </ns3:TrackPointExtension>
        </extensions>
      </trkpt>
      <trkpt lat="42.55013323388993740081787109375" lon="19.9602704308927059173583984375">
        <ele>1121.199951171875</ele>
        <time>2026-06-17T08:10:56.000Z</time>
        <extensions>
          <ns3:TrackPointExtension>
            <ns3:atemp>24.0</ns3:atemp>
          </ns3:TrackPointExtension>
        </extensions>
      </trkpt>
      <trkpt lat="42.55011462606489658355712890625" lon="19.96026925742626190185546875">
        <ele>1121.4000244140625</ele>
        <time>2026-06-17T08:10:57.000Z</time>
        <extensions>
          <ns3:TrackPointExtension>
            <ns3:atemp>24.0</ns3:atemp>
          </ns3:TrackPointExtension>
        </extensions>
      </trkpt>
      <trkpt lat="42.5500972755253314971923828125" lon="19.960266910493373870849609375">
        <ele>1121.5999755859375</ele>
        <time>2026-06-17T08:10:58.000Z</time>
        <extensions>
          <ns3:TrackPointExtension>
            <ns3:atemp>24.0</ns3:atemp>
          </ns3:TrackPointExtension>
        </extensions>
      </trkpt>
      <trkpt lat="42.5500821880996227264404296875" lon="19.96026246808469295501708984375">
        <ele>1121.800048828125</ele>
        <time>2026-06-17T08:10:59.000Z</time>
        <extensions>
          <ns3:TrackPointExtension>
            <ns3:atemp>24.0</ns3:atemp>
          </ns3:TrackPointExtension>
        </extensions>
      </trkpt>
      <trkpt lat="42.550064586102962493896484375" lon="19.96025676839053630828857421875">
        <ele>1122</ele>
        <time>2026-06-17T08:11:00.000Z</time>
        <extensions>
          <ns3:TrackPointExtension>
            <ns3:atemp>24.0</ns3:atemp>
          </ns3:TrackPointExtension>
        </extensions>
      </trkpt>
      <trkpt lat="42.55004522390663623809814453125" lon="19.9602556787431240081787109375">
        <ele>1122.199951171875</ele>
        <time>2026-06-17T08:11:01.000Z</time>
        <extensions>
          <ns3:TrackPointExtension>
            <ns3:atemp>24.0</ns3:atemp>
          </ns3:TrackPointExtension>
        </extensions>
      </trkpt>
      <trkpt lat="42.5500295497477054595947265625" lon="19.96025123633444309234619140625">
        <ele>1122.4000244140625</ele>
        <time>2026-06-17T08:11:02.000Z</time>
        <extensions>
          <ns3:TrackPointExtension>
            <ns3:atemp>24.0</ns3:atemp>
          </ns3:TrackPointExtension>
        </extensions>
      </trkpt>
      <trkpt lat="42.55001194775104522705078125" lon="19.96024603955447673797607421875">
        <ele>1122.4000244140625</ele>
        <time>2026-06-17T08:11:03.000Z</time>
        <extensions>
          <ns3:TrackPointExtension>
            <ns3:atemp>24.0</ns3:atemp>
          </ns3:TrackPointExtension>
        </extensions>
      </trkpt>
      <trkpt lat="42.54999342374503612518310546875" lon="19.96024251915514469146728515625">
        <ele>1122.5999755859375</ele>
        <time>2026-06-17T08:11:04.000Z</time>
        <extensions>
          <ns3:TrackPointExtension>
            <ns3:atemp>24.0</ns3:atemp>
          </ns3:TrackPointExtension>
        </extensions>
      </trkpt>
      <trkpt lat="42.5499745644629001617431640625" lon="19.9602402560412883758544921875">
        <ele>1122.5999755859375</ele>
        <time>2026-06-17T08:11:05.000Z</time>
        <extensions>
          <ns3:TrackPointExtension>
            <ns3:atemp>24.0</ns3:atemp>
          </ns3:TrackPointExtension>
        </extensions>
      </trkpt>
      <trkpt lat="42.54995570518076419830322265625" lon="19.96023572981357574462890625">
        <ele>1122.800048828125</ele>
        <time>2026-06-17T08:11:06.000Z</time>
        <extensions>
          <ns3:TrackPointExtension>
            <ns3:atemp>24.0</ns3:atemp>
          </ns3:TrackPointExtension>
        </extensions>
      </trkpt>
      <trkpt lat="42.5499375164508819580078125" lon="19.96023564599454402923583984375">
        <ele>1123</ele>
        <time>2026-06-17T08:11:07.000Z</time>
        <extensions>
          <ns3:TrackPointExtension>
            <ns3:atemp>24.0</ns3:atemp>
          </ns3:TrackPointExtension>
        </extensions>
      </trkpt>
      <trkpt lat="42.54992150701582431793212890625" lon="19.9602337181568145751953125">
        <ele>1123.199951171875</ele>
        <time>2026-06-17T08:11:08.000Z</time>
        <extensions>
          <ns3:TrackPointExtension>
            <ns3:atemp>24.0</ns3:atemp>
          </ns3:TrackPointExtension>
        </extensions>
      </trkpt>
      <trkpt lat="42.54990541376173496246337890625" lon="19.96023036539554595947265625">
        <ele>1123.4000244140625</ele>
        <time>2026-06-17T08:11:09.000Z</time>
        <extensions>
          <ns3:TrackPointExtension>
            <ns3:atemp>24.0</ns3:atemp>
          </ns3:TrackPointExtension>
        </extensions>
      </trkpt>
      <trkpt lat="42.549888901412487030029296875" lon="19.96023111976683139801025390625">
        <ele>1123.5999755859375</ele>
        <time>2026-06-17T08:11:10.000Z</time>
        <extensions>
          <ns3:TrackPointExtension>
            <ns3:atemp>24.0</ns3:atemp>
          </ns3:TrackPointExtension>
        </extensions>
      </trkpt>
      <trkpt lat="42.54987624473869800567626953125" lon="19.96022977866232395172119140625">
        <ele>1124</ele>
        <time>2026-06-17T08:11:11.000Z</time>
        <extensions>
          <ns3:TrackPointExtension>
            <ns3:atemp>24.0</ns3:atemp>
          </ns3:TrackPointExtension>
        </extensions>
      </trkpt>
      <trkpt lat="42.5498602353036403656005859375" lon="19.96023061685264110565185546875">
        <ele>1124.199951171875</ele>
        <time>2026-06-17T08:11:12.000Z</time>
        <extensions>
          <ns3:TrackPointExtension>
            <ns3:atemp>24.0</ns3:atemp>
          </ns3:TrackPointExtension>
        </extensions>
      </trkpt>
      <trkpt lat="42.54984171129763126373291015625" lon="19.960232712328433990478515625">
        <ele>1124.4000244140625</ele>
        <time>2026-06-17T08:11:13.000Z</time>
        <extensions>
          <ns3:TrackPointExtension>
            <ns3:atemp>24.0</ns3:atemp>
          </ns3:TrackPointExtension>
        </extensions>
      </trkpt>
      <trkpt lat="42.5498233549296855926513671875" lon="19.96023681946098804473876953125">
        <ele>1124.5999755859375</ele>
        <time>2026-06-17T08:11:14.000Z</time>
        <extensions>
          <ns3:TrackPointExtension>
            <ns3:atemp>24.0</ns3:atemp>
          </ns3:TrackPointExtension>
        </extensions>
      </trkpt>
      <trkpt lat="42.54981338046491146087646484375" lon="19.9602372385561466217041015625">
        <ele>1124.800048828125</ele>
        <time>2026-06-17T08:11:15.000Z</time>
        <extensions>
          <ns3:TrackPointExtension>
            <ns3:atemp>24.0</ns3:atemp>
          </ns3:TrackPointExtension>
        </extensions>
      </trkpt>
      <trkpt lat="42.5497972033917903900146484375" lon="19.9602459557354450225830078125">
        <ele>1125</ele>
        <time>2026-06-17T08:11:16.000Z</time>
        <extensions>
          <ns3:TrackPointExtension>
            <ns3:atemp>24.0</ns3:atemp>
          </ns3:TrackPointExtension>
        </extensions>
      </trkpt>
      <trkpt lat="42.5497765839099884033203125" lon="19.96025593020021915435791015625">
        <ele>1125.199951171875</ele>
        <time>2026-06-17T08:11:17.000Z</time>
        <extensions>
          <ns3:TrackPointExtension>
            <ns3:atemp>24.0</ns3:atemp>
          </ns3:TrackPointExtension>
        </extensions>
      </trkpt>
      <trkpt lat="42.549757473170757293701171875" lon="19.960265569388866424560546875">
        <ele>1125.4000244140625</ele>
        <time>2026-06-17T08:11:18.000Z</time>
        <extensions>
          <ns3:TrackPointExtension>
            <ns3:atemp>24.0</ns3:atemp>
          </ns3:TrackPointExtension>
        </extensions>
      </trkpt>
      <trkpt lat="42.54974431358277797698974609375" lon="19.96027998626232147216796875">
        <ele>1125.800048828125</ele>
        <time>2026-06-17T08:11:19.000Z</time>
        <extensions>
          <ns3:TrackPointExtension>
            <ns3:atemp>24.0</ns3:atemp>
          </ns3:TrackPointExtension>
        </extensions>
      </trkpt>
      <trkpt lat="42.54972687922418117523193359375" lon="19.9602925591170787811279296875">
        <ele>1126</ele>
        <time>2026-06-17T08:11:20.000Z</time>
        <extensions>
          <ns3:TrackPointExtension>
            <ns3:atemp>24.0</ns3:atemp>
          </ns3:TrackPointExtension>
        </extensions>
      </trkpt>
      <trkpt lat="42.54971564747393131256103515625" lon="19.960305802524089813232421875">
        <ele>1126.199951171875</ele>
        <time>2026-06-17T08:11:21.000Z</time>
        <extensions>
          <ns3:TrackPointExtension>
            <ns3:atemp>24.0</ns3:atemp>
          </ns3:TrackPointExtension>
        </extensions>
      </trkpt>
      <trkpt lat="42.54970324225723743438720703125" lon="19.9603249132633209228515625">
        <ele>1126.4000244140625</ele>
        <time>2026-06-17T08:11:22.000Z</time>
        <extensions>
          <ns3:TrackPointExtension>
            <ns3:atemp>24.0</ns3:atemp>
          </ns3:TrackPointExtension>
        </extensions>
      </trkpt>
      <trkpt lat="42.5496879033744335174560546875" lon="19.960344694554805755615234375">
        <ele>1126.800048828125</ele>
        <time>2026-06-17T08:11:23.000Z</time>
        <extensions>
          <ns3:TrackPointExtension>
            <ns3:atemp>24.0</ns3:atemp>
          </ns3:TrackPointExtension>
        </extensions>
      </trkpt>
      <trkpt lat="42.54967826418578624725341796875" lon="19.96036221273243427276611328125">
        <ele>1127</ele>
        <time>2026-06-17T08:11:24.000Z</time>
        <extensions>
          <ns3:TrackPointExtension>
            <ns3:atemp>24.0</ns3:atemp>
          </ns3:TrackPointExtension>
        </extensions>
      </trkpt>
      <trkpt lat="42.5496657751500606536865234375" lon="19.960377551615238189697265625">
        <ele>1127.199951171875</ele>
        <time>2026-06-17T08:11:25.000Z</time>
        <extensions>
          <ns3:TrackPointExtension>
            <ns3:atemp>24.0</ns3:atemp>
          </ns3:TrackPointExtension>
        </extensions>
      </trkpt>
      <trkpt lat="42.54966049455106258392333984375" lon="19.9603941477835178375244140625">
        <ele>1127.5999755859375</ele>
        <time>2026-06-17T08:11:26.000Z</time>
        <extensions>
          <ns3:TrackPointExtension>
            <ns3:atemp>24.0</ns3:atemp>
          </ns3:TrackPointExtension>
        </extensions>
      </trkpt>
      <trkpt lat="42.5496518611907958984375" lon="19.9604075588285923004150390625">
        <ele>1127.800048828125</ele>
        <time>2026-06-17T08:11:27.000Z</time>
        <extensions>
          <ns3:TrackPointExtension>
            <ns3:atemp>24.0</ns3:atemp>
          </ns3:TrackPointExtension>
        </extensions>
      </trkpt>
      <trkpt lat="42.5496376119554042816162109375" lon="19.96042549610137939453125">
        <ele>1128.199951171875</ele>
        <time>2026-06-17T08:11:28.000Z</time>
        <extensions>
          <ns3:TrackPointExtension>
            <ns3:atemp>24.0</ns3:atemp>
          </ns3:TrackPointExtension>
        </extensions>
      </trkpt>
      <trkpt lat="42.5496263802051544189453125" lon="19.96044133789837360382080078125">
        <ele>1128.4000244140625</ele>
        <time>2026-06-17T08:11:29.000Z</time>
        <extensions>
          <ns3:TrackPointExtension>
            <ns3:atemp>24.0</ns3:atemp>
          </ns3:TrackPointExtension>
        </extensions>
      </trkpt>
      <trkpt lat="42.54961137659847736358642578125" lon="19.9604645557701587677001953125">
        <ele>1128.5999755859375</ele>
        <time>2026-06-17T08:11:30.000Z</time>
        <extensions>
          <ns3:TrackPointExtension>
            <ns3:atemp>24.0</ns3:atemp>
          </ns3:TrackPointExtension>
        </extensions>
      </trkpt>
      <trkpt lat="42.5495970435440540313720703125" lon="19.960480816662311553955078125">
        <ele>1128.800048828125</ele>
        <time>2026-06-17T08:11:31.000Z</time>
        <extensions>
          <ns3:TrackPointExtension>
            <ns3:atemp>24.0</ns3:atemp>
          </ns3:TrackPointExtension>
        </extensions>
      </trkpt>
      <trkpt lat="42.54958287812769412994384765625" lon="19.96049615554511547088623046875">
        <ele>1129</ele>
        <time>2026-06-17T08:11:32.000Z</time>
        <extensions>
          <ns3:TrackPointExtension>
            <ns3:atemp>24.0</ns3:atemp>
          </ns3:TrackPointExtension>
        </extensions>
      </trkpt>
      <trkpt lat="42.54957114346325397491455078125" lon="19.96051602065563201904296875">
        <ele>1129.199951171875</ele>
        <time>2026-06-17T08:11:33.000Z</time>
        <extensions>
          <ns3:TrackPointExtension>
            <ns3:atemp>24.0</ns3:atemp>
          </ns3:TrackPointExtension>
        </extensions>
      </trkpt>
      <trkpt lat="42.5495588220655918121337890625" lon="19.960534460842609405517578125">
        <ele>1129.199951171875</ele>
        <time>2026-06-17T08:11:34.000Z</time>
        <extensions>
          <ns3:TrackPointExtension>
            <ns3:atemp>24.0</ns3:atemp>
          </ns3:TrackPointExtension>
        </extensions>
      </trkpt>
      <trkpt lat="42.54954331554472446441650390625" lon="19.9605507217347621917724609375">
        <ele>1129.4000244140625</ele>
        <time>2026-06-17T08:11:35.000Z</time>
        <extensions>
          <ns3:TrackPointExtension>
            <ns3:atemp>24.0</ns3:atemp>
          </ns3:TrackPointExtension>
        </extensions>
      </trkpt>
      <trkpt lat="42.54952671937644481658935546875" lon="19.96056488715112209320068359375">
        <ele>1129.4000244140625</ele>
        <time>2026-06-17T08:11:36.000Z</time>
        <extensions>
          <ns3:TrackPointExtension>
            <ns3:atemp>24.0</ns3:atemp>
          </ns3:TrackPointExtension>
        </extensions>
      </trkpt>
      <trkpt lat="42.5495085306465625762939453125" lon="19.96057569980621337890625">
        <ele>1129.5999755859375</ele>
        <time>2026-06-17T08:11:37.000Z</time>
        <extensions>
          <ns3:TrackPointExtension>
            <ns3:atemp>24.0</ns3:atemp>
          </ns3:TrackPointExtension>
        </extensions>
      </trkpt>
      <trkpt lat="42.549489252269268035888671875" lon="19.96058483608067035675048828125">
        <ele>1129.800048828125</ele>
        <time>2026-06-17T08:11:38.000Z</time>
        <extensions>
          <ns3:TrackPointExtension>
            <ns3:atemp>24.0</ns3:atemp>
          </ns3:TrackPointExtension>
        </extensions>
      </trkpt>
      <trkpt lat="42.54947282373905181884765625" lon="19.9605933018028736114501953125">
        <ele>1130</ele>
        <time>2026-06-17T08:11:39.000Z</time>
        <extensions>
          <ns3:TrackPointExtension>
            <ns3:atemp>24.0</ns3:atemp>
          </ns3:TrackPointExtension>
        </extensions>
      </trkpt>
      <trkpt lat="42.54946083761751651763916015625" lon="19.96059791184961795806884765625">
        <ele>1130.199951171875</ele>
        <time>2026-06-17T08:11:40.000Z</time>
        <extensions>
          <ns3:TrackPointExtension>
            <ns3:atemp>24.0</ns3:atemp>
          </ns3:TrackPointExtension>
        </extensions>
      </trkpt>
      <trkpt lat="42.54944709129631519317626953125" lon="19.9606040306389331817626953125">
        <ele>1130.4000244140625</ele>
        <time>2026-06-17T08:11:41.000Z</time>
        <extensions>
          <ns3:TrackPointExtension>
            <ns3:atemp>24.0</ns3:atemp>
          </ns3:TrackPointExtension>
        </extensions>
      </trkpt>
      <trkpt lat="42.5494283996522426605224609375" lon="19.9606145918369293212890625">
        <ele>1130.4000244140625</ele>
        <time>2026-06-17T08:11:42.000Z</time>
        <extensions>
          <ns3:TrackPointExtension>
            <ns3:atemp>24.0</ns3:atemp>
          </ns3:TrackPointExtension>
        </extensions>
      </trkpt>
      <trkpt lat="42.54940669052302837371826171875" lon="19.96062389574944972991943359375">
        <ele>1130.4000244140625</ele>
        <time>2026-06-17T08:11:43.000Z</time>
        <extensions>
          <ns3:TrackPointExtension>
            <ns3:atemp>24.0</ns3:atemp>
          </ns3:TrackPointExtension>
        </extensions>
      </trkpt>
      <trkpt lat="42.54938472993671894073486328125" lon="19.960635714232921600341796875">
        <ele>1130.5999755859375</ele>
        <time>2026-06-17T08:11:44.000Z</time>
        <extensions>
          <ns3:TrackPointExtension>
            <ns3:atemp>24.0</ns3:atemp>
          </ns3:TrackPointExtension>
        </extensions>
      </trkpt>
      <trkpt lat="42.54936193116009235382080078125" lon="19.96065021492540836334228515625">
        <ele>1130.5999755859375</ele>
        <time>2026-06-17T08:11:45.000Z</time>
        <extensions>
          <ns3:TrackPointExtension>
            <ns3:atemp>24.0</ns3:atemp>
          </ns3:TrackPointExtension>
        </extensions>
      </trkpt>
      <trkpt lat="42.5493412278592586517333984375" lon="19.96066329069435596466064453125">
        <ele>1130.5999755859375</ele>
        <time>2026-06-17T08:11:46.000Z</time>
        <extensions>
          <ns3:TrackPointExtension>
            <ns3:atemp>24.0</ns3:atemp>
          </ns3:TrackPointExtension>
        </extensions>
      </trkpt>
      <trkpt lat="42.5493201054632663726806640625" lon="19.9606744386255741119384765625">
        <ele>1130.800048828125</ele>
        <time>2026-06-17T08:11:47.000Z</time>
        <extensions>
          <ns3:TrackPointExtension>
            <ns3:atemp>24.0</ns3:atemp>
          </ns3:TrackPointExtension>
        </extensions>
      </trkpt>
      <trkpt lat="42.5493066944181919097900390625" lon="19.96068206615746021270751953125">
        <ele>1131</ele>
        <time>2026-06-17T08:11:48.000Z</time>
        <extensions>
          <ns3:TrackPointExtension>
            <ns3:atemp>24.0</ns3:atemp>
          </ns3:TrackPointExtension>
        </extensions>
      </trkpt>
      <trkpt lat="42.54929521121084690093994140625" lon="19.9606878496706485748291015625">
        <ele>1131</ele>
        <time>2026-06-17T08:11:49.000Z</time>
        <extensions>
          <ns3:TrackPointExtension>
            <ns3:atemp>24.0</ns3:atemp>
          </ns3:TrackPointExtension>
        </extensions>
      </trkpt>
      <trkpt lat="42.54928171634674072265625" lon="19.960694722831249237060546875">
        <ele>1131.199951171875</ele>
        <time>2026-06-17T08:11:50.000Z</time>
        <extensions>
          <ns3:TrackPointExtension>
            <ns3:atemp>24.0</ns3:atemp>
          </ns3:TrackPointExtension>
        </extensions>
      </trkpt>
      <trkpt lat="42.54926453344523906707763671875" lon="19.9607049487531185150146484375">
        <ele>1131.4000244140625</ele>
        <time>2026-06-17T08:11:51.000Z</time>
        <extensions>
          <ns3:TrackPointExtension>
            <ns3:atemp>24.0</ns3:atemp>
          </ns3:TrackPointExtension>
        </extensions>
      </trkpt>
      <trkpt lat="42.54924559034407138824462890625" lon="19.9607170186936855316162109375">
        <ele>1131.5999755859375</ele>
        <time>2026-06-17T08:11:52.000Z</time>
        <extensions>
          <ns3:TrackPointExtension>
            <ns3:atemp>24.0</ns3:atemp>
          </ns3:TrackPointExtension>
        </extensions>
      </trkpt>
      <trkpt lat="42.549223713576793670654296875" lon="19.960733614861965179443359375">
        <ele>1131.800048828125</ele>
        <time>2026-06-17T08:11:53.000Z</time>
        <extensions>
          <ns3:TrackPointExtension>
            <ns3:atemp>24.0</ns3:atemp>
          </ns3:TrackPointExtension>
        </extensions>
      </trkpt>
      <trkpt lat="42.54920368082821369171142578125" lon="19.9607435055077075958251953125">
        <ele>1131.800048828125</ele>
        <time>2026-06-17T08:11:54.000Z</time>
        <extensions>
          <ns3:TrackPointExtension>
            <ns3:atemp>24.0</ns3:atemp>
          </ns3:TrackPointExtension>
        </extensions>
      </trkpt>
      <trkpt lat="42.54918658174574375152587890625" lon="19.96074937283992767333984375">
        <ele>1132.199951171875</ele>
        <time>2026-06-17T08:11:55.000Z</time>
        <extensions>
          <ns3:TrackPointExtension>
            <ns3:atemp>24.0</ns3:atemp>
          </ns3:TrackPointExtension>
        </extensions>
      </trkpt>
      <trkpt lat="42.54917241632938385009765625" lon="19.9607567489147186279296875">
        <ele>1132.4000244140625</ele>
        <time>2026-06-17T08:11:56.000Z</time>
        <extensions>
          <ns3:TrackPointExtension>
            <ns3:atemp>24.0</ns3:atemp>
          </ns3:TrackPointExtension>
        </extensions>
      </trkpt>
      <trkpt lat="42.549154646694660186767578125" lon="19.96076370589435100555419921875">
        <ele>1132.4000244140625</ele>
        <time>2026-06-17T08:11:57.000Z</time>
        <extensions>
          <ns3:TrackPointExtension>
            <ns3:atemp>24.0</ns3:atemp>
          </ns3:TrackPointExtension>
        </extensions>
      </trkpt>
      <trkpt lat="42.5491393916308879852294921875" lon="19.96076974086463451385498046875">
        <ele>1132.5999755859375</ele>
        <time>2026-06-17T08:11:58.000Z</time>
        <extensions>
          <ns3:TrackPointExtension>
            <ns3:atemp>24.0</ns3:atemp>
          </ns3:TrackPointExtension>
        </extensions>
      </trkpt>
      <trkpt lat="42.5491209514439105987548828125" lon="19.9607766978442668914794921875">
        <ele>1132.800048828125</ele>
        <time>2026-06-17T08:11:59.000Z</time>
        <extensions>
          <ns3:TrackPointExtension>
            <ns3:atemp>24.0</ns3:atemp>
          </ns3:TrackPointExtension>
        </extensions>
      </trkpt>
      <trkpt lat="42.54910008050501346588134765625" lon="19.96079086326062679290771484375">
        <ele>1132.800048828125</ele>
        <time>2026-06-17T08:12:00.000Z</time>
        <extensions>
          <ns3:TrackPointExtension>
            <ns3:atemp>24.0</ns3:atemp>
          </ns3:TrackPointExtension>
        </extensions>
      </trkpt>
      <trkpt lat="42.549083568155765533447265625" lon="19.96080125682055950164794921875">
        <ele>1133</ele>
        <time>2026-06-17T08:12:01.000Z</time>
        <extensions>
          <ns3:TrackPointExtension>
            <ns3:atemp>24.0</ns3:atemp>
          </ns3:TrackPointExtension>
        </extensions>
      </trkpt>
      <trkpt lat="42.5490669719874858856201171875" lon="19.96081064455211162567138671875">
        <ele>1133.199951171875</ele>
        <time>2026-06-17T08:12:02.000Z</time>
        <extensions>
          <ns3:TrackPointExtension>
            <ns3:atemp>24.0</ns3:atemp>
          </ns3:TrackPointExtension>
        </extensions>
      </trkpt>
      <trkpt lat="42.549055404961109161376953125" lon="19.96081517077982425689697265625">
        <ele>1133.199951171875</ele>
        <time>2026-06-17T08:12:03.000Z</time>
        <extensions>
          <ns3:TrackPointExtension>
            <ns3:atemp>24.0</ns3:atemp>
          </ns3:TrackPointExtension>
        </extensions>
      </trkpt>
      <trkpt lat="42.54903973080217838287353515625" lon="19.96082271449267864227294921875">
        <ele>1133.199951171875</ele>
        <time>2026-06-17T08:12:04.000Z</time>
        <extensions>
          <ns3:TrackPointExtension>
            <ns3:atemp>24.0</ns3:atemp>
          </ns3:TrackPointExtension>
        </extensions>
      </trkpt>
      <trkpt lat="42.549021206796169281005859375" lon="19.9608326889574527740478515625">
        <ele>1133.4000244140625</ele>
        <time>2026-06-17T08:12:05.000Z</time>
        <extensions>
          <ns3:TrackPointExtension>
            <ns3:atemp>24.0</ns3:atemp>
          </ns3:TrackPointExtension>
        </extensions>
      </trkpt>
      <trkpt lat="42.54900452680885791778564453125" lon="19.9608360417187213897705078125">
        <ele>1133.4000244140625</ele>
        <time>2026-06-17T08:12:06.000Z</time>
        <extensions>
          <ns3:TrackPointExtension>
            <ns3:atemp>24.0</ns3:atemp>
          </ns3:TrackPointExtension>
        </extensions>
      </trkpt>
      <trkpt lat="42.54898692481219768524169921875" lon="19.9608398973941802978515625">
        <ele>1133.5999755859375</ele>
        <time>2026-06-17T08:12:07.000Z</time>
        <extensions>
          <ns3:TrackPointExtension>
            <ns3:atemp>24.0</ns3:atemp>
          </ns3:TrackPointExtension>
        </extensions>
      </trkpt>
      <trkpt lat="42.54896697588264942169189453125" lon="19.96084685437381267547607421875">
        <ele>1133.5999755859375</ele>
        <time>2026-06-17T08:12:08.000Z</time>
        <extensions>
          <ns3:TrackPointExtension>
            <ns3:atemp>24.0</ns3:atemp>
          </ns3:TrackPointExtension>
        </extensions>
      </trkpt>
      <trkpt lat="42.54894803278148174285888671875" lon="19.96085389517247676849365234375">
        <ele>1133.800048828125</ele>
        <time>2026-06-17T08:12:09.000Z</time>
        <extensions>
          <ns3:TrackPointExtension>
            <ns3:atemp>24.0</ns3:atemp>
          </ns3:TrackPointExtension>
        </extensions>
      </trkpt>
      <trkpt lat="42.54892758093774318695068359375" lon="19.96085540391504764556884765625">
        <ele>1133.800048828125</ele>
        <time>2026-06-17T08:12:10.000Z</time>
        <extensions>
          <ns3:TrackPointExtension>
            <ns3:atemp>24.0</ns3:atemp>
          </ns3:TrackPointExtension>
        </extensions>
      </trkpt>
      <trkpt lat="42.5489070452749729156494140625" lon="19.96085741557180881500244140625">
        <ele>1134</ele>
        <time>2026-06-17T08:12:11.000Z</time>
        <extensions>
          <ns3:TrackPointExtension>
            <ns3:atemp>24.0</ns3:atemp>
          </ns3:TrackPointExtension>
        </extensions>
      </trkpt>
      <trkpt lat="42.5488855876028537750244140625" lon="19.9608564935624599456787109375">
        <ele>1134</ele>
        <time>2026-06-17T08:12:12.000Z</time>
        <extensions>
          <ns3:TrackPointExtension>
            <ns3:atemp>24.0</ns3:atemp>
          </ns3:TrackPointExtension>
        </extensions>
      </trkpt>
      <trkpt lat="42.54886396229267120361328125" lon="19.96085171587765216827392578125">
        <ele>1134</ele>
        <time>2026-06-17T08:12:13.000Z</time>
        <extensions>
          <ns3:TrackPointExtension>
            <ns3:atemp>24.0</ns3:atemp>
          </ns3:TrackPointExtension>
        </extensions>
      </trkpt>
      <trkpt lat="42.54884577356278896331787109375" lon="19.96084433980286121368408203125">
        <ele>1134.199951171875</ele>
        <time>2026-06-17T08:12:14.000Z</time>
        <extensions>
          <ns3:TrackPointExtension>
            <ns3:atemp>24.0</ns3:atemp>
          </ns3:TrackPointExtension>
        </extensions>
      </trkpt>
      <trkpt lat="42.54882548935711383819580078125" lon="19.96083947829902172088623046875">
        <ele>1134.199951171875</ele>
        <time>2026-06-17T08:12:15.000Z</time>
        <extensions>
          <ns3:TrackPointExtension>
            <ns3:atemp>24.0</ns3:atemp>
          </ns3:TrackPointExtension>
        </extensions>
      </trkpt>
      <trkpt lat="42.54880604334175586700439453125" lon="19.9608340300619602203369140625">
        <ele>1134.199951171875</ele>
        <time>2026-06-17T08:12:16.000Z</time>
        <extensions>
          <ns3:TrackPointExtension>
            <ns3:atemp>24.0</ns3:atemp>
          </ns3:TrackPointExtension>
        </extensions>
      </trkpt>
      <trkpt lat="42.548787854611873626708984375" lon="19.9608290009200572967529296875">
        <ele>1134.4000244140625</ele>
        <time>2026-06-17T08:12:17.000Z</time>
        <extensions>
          <ns3:TrackPointExtension>
            <ns3:atemp>24.0</ns3:atemp>
          </ns3:TrackPointExtension>
        </extensions>
      </trkpt>
      <trkpt lat="42.5487705878913402557373046875" lon="19.960820786654949188232421875">
        <ele>1134.5999755859375</ele>
        <time>2026-06-17T08:12:18.000Z</time>
        <extensions>
          <ns3:TrackPointExtension>
            <ns3:atemp>24.0</ns3:atemp>
          </ns3:TrackPointExtension>
        </extensions>
      </trkpt>
      <trkpt lat="42.54875441081821918487548828125" lon="19.9608108960092067718505859375">
        <ele>1134.800048828125</ele>
        <time>2026-06-17T08:12:19.000Z</time>
        <extensions>
          <ns3:TrackPointExtension>
            <ns3:atemp>24.0</ns3:atemp>
          </ns3:TrackPointExtension>
        </extensions>
      </trkpt>
      <trkpt lat="42.54873949103057384490966796875" lon="19.9607978202402591705322265625">
        <ele>1134.800048828125</ele>
        <time>2026-06-17T08:12:20.000Z</time>
        <extensions>
          <ns3:TrackPointExtension>
            <ns3:atemp>24.0</ns3:atemp>
          </ns3:TrackPointExtension>
        </extensions>
      </trkpt>
      <trkpt lat="42.5487236492335796356201171875" lon="19.9607927910983562469482421875">
        <ele>1135</ele>
        <time>2026-06-17T08:12:21.000Z</time>
        <extensions>
          <ns3:TrackPointExtension>
            <ns3:atemp>24.0</ns3:atemp>
          </ns3:TrackPointExtension>
        </extensions>
      </trkpt>
      <trkpt lat="42.548703365027904510498046875" lon="19.96079103089869022369384765625">
        <ele>1135</ele>
        <time>2026-06-17T08:12:22.000Z</time>
        <extensions>
          <ns3:TrackPointExtension>
            <ns3:atemp>24.0</ns3:atemp>
          </ns3:TrackPointExtension>
        </extensions>
      </trkpt>
      <trkpt lat="42.54868425428867340087890625" lon="19.96078952215611934661865234375">
        <ele>1135</ele>
        <time>2026-06-17T08:12:23.000Z</time>
        <extensions>
          <ns3:TrackPointExtension>
            <ns3:atemp>24.0</ns3:atemp>
          </ns3:TrackPointExtension>
        </extensions>
      </trkpt>
      <trkpt lat="42.5486653111875057220458984375" lon="19.960793964564800262451171875">
        <ele>1135</ele>
        <time>2026-06-17T08:12:24.000Z</time>
        <extensions>
          <ns3:TrackPointExtension>
            <ns3:atemp>24.0</ns3:atemp>
          </ns3:TrackPointExtension>
        </extensions>
      </trkpt>
      <trkpt lat="42.5486468710005283355712890625" lon="19.96080175973474979400634765625">
        <ele>1135.199951171875</ele>
        <time>2026-06-17T08:12:25.000Z</time>
        <extensions>
          <ns3:TrackPointExtension>
            <ns3:atemp>24.0</ns3:atemp>
          </ns3:TrackPointExtension>
        </extensions>
      </trkpt>
      <trkpt lat="42.54863186739385128021240234375" lon="19.9608098901808261871337890625">
        <ele>1135.199951171875</ele>
        <time>2026-06-17T08:12:26.000Z</time>
        <extensions>
          <ns3:TrackPointExtension>
            <ns3:atemp>24.0</ns3:atemp>
          </ns3:TrackPointExtension>
        </extensions>
      </trkpt>
      <trkpt lat="42.54861778579652309417724609375" lon="19.960825145244598388671875">
        <ele>1135.4000244140625</ele>
        <time>2026-06-17T08:12:27.000Z</time>
        <extensions>
          <ns3:TrackPointExtension>
            <ns3:atemp>24.0</ns3:atemp>
          </ns3:TrackPointExtension>
        </extensions>
      </trkpt>
      <trkpt lat="42.54860219545662403106689453125" lon="19.96083796955645084381103515625">
        <ele>1135.4000244140625</ele>
        <time>2026-06-17T08:12:28.000Z</time>
        <extensions>
          <ns3:TrackPointExtension>
            <ns3:atemp>24.0</ns3:atemp>
          </ns3:TrackPointExtension>
        </extensions>
      </trkpt>
      <trkpt lat="42.54859046079218387603759765625" lon="19.96085129678249359130859375">
        <ele>1135.5999755859375</ele>
        <time>2026-06-17T08:12:29.000Z</time>
        <extensions>
          <ns3:TrackPointExtension>
            <ns3:atemp>24.0</ns3:atemp>
          </ns3:TrackPointExtension>
        </extensions>
      </trkpt>
      <trkpt lat="42.5485761277377605438232421875" lon="19.96087166480720043182373046875">
        <ele>1135.5999755859375</ele>
        <time>2026-06-17T08:12:30.000Z</time>
        <extensions>
          <ns3:TrackPointExtension>
            <ns3:atemp>24.0</ns3:atemp>
          </ns3:TrackPointExtension>
        </extensions>
      </trkpt>
      <trkpt lat="42.5485657341778278350830078125" lon="19.96089161373674869537353515625">
        <ele>1135.800048828125</ele>
        <time>2026-06-17T08:12:31.000Z</time>
        <extensions>
          <ns3:TrackPointExtension>
            <ns3:atemp>24.0</ns3:atemp>
          </ns3:TrackPointExtension>
        </extensions>
      </trkpt>
      <trkpt lat="42.548551820218563079833984375" lon="19.96090586297214031219482421875">
        <ele>1136</ele>
        <time>2026-06-17T08:12:32.000Z</time>
        <extensions>
          <ns3:TrackPointExtension>
            <ns3:atemp>24.0</ns3:atemp>
          </ns3:TrackPointExtension>
        </extensions>
      </trkpt>
      <trkpt lat="42.54853765480220317840576171875" lon="19.96092044748365879058837890625">
        <ele>1136.199951171875</ele>
        <time>2026-06-17T08:12:33.000Z</time>
        <extensions>
          <ns3:TrackPointExtension>
            <ns3:atemp>24.0</ns3:atemp>
          </ns3:TrackPointExtension>
        </extensions>
      </trkpt>
      <trkpt lat="42.54853002727031707763671875" lon="19.9609332717955112457275390625">
        <ele>1136.4000244140625</ele>
        <time>2026-06-17T08:12:34.000Z</time>
        <extensions>
          <ns3:TrackPointExtension>
            <ns3:atemp>24.0</ns3:atemp>
          </ns3:TrackPointExtension>
        </extensions>
      </trkpt>
      <trkpt lat="42.5485218130052089691162109375" lon="19.96094760484993457794189453125">
        <ele>1136.5999755859375</ele>
        <time>2026-06-17T08:12:35.000Z</time>
        <extensions>
          <ns3:TrackPointExtension>
            <ns3:atemp>24.0</ns3:atemp>
          </ns3:TrackPointExtension>
        </extensions>
      </trkpt>
      <trkpt lat="42.5485087372362613677978515625" lon="19.9609604291617870330810546875">
        <ele>1136.800048828125</ele>
        <time>2026-06-17T08:12:36.000Z</time>
        <extensions>
          <ns3:TrackPointExtension>
            <ns3:atemp>24.0</ns3:atemp>
          </ns3:TrackPointExtension>
        </extensions>
      </trkpt>
      <trkpt lat="42.54849381744861602783203125" lon="19.96097660623490810394287109375">
        <ele>1137.199951171875</ele>
        <time>2026-06-17T08:12:37.000Z</time>
        <extensions>
          <ns3:TrackPointExtension>
            <ns3:atemp>24.0</ns3:atemp>
          </ns3:TrackPointExtension>
        </extensions>
      </trkpt>
      <trkpt lat="42.54847864620387554168701171875" lon="19.960986413061618804931640625">
        <ele>1137.5999755859375</ele>
        <time>2026-06-17T08:12:38.000Z</time>
        <extensions>
          <ns3:TrackPointExtension>
            <ns3:atemp>24.0</ns3:atemp>
          </ns3:TrackPointExtension>
        </extensions>
      </trkpt>
      <trkpt lat="42.54845869727432727813720703125" lon="19.9609963037073612213134765625">
        <ele>1137.800048828125</ele>
        <time>2026-06-17T08:12:39.000Z</time>
        <extensions>
          <ns3:TrackPointExtension>
            <ns3:atemp>24.0</ns3:atemp>
          </ns3:TrackPointExtension>
        </extensions>
      </trkpt>
      <trkpt lat="42.54843992181122303009033203125" lon="19.9610036797821521759033203125">
        <ele>1138.199951171875</ele>
        <time>2026-06-17T08:12:40.000Z</time>
        <extensions>
          <ns3:TrackPointExtension>
            <ns3:atemp>24.0</ns3:atemp>
          </ns3:TrackPointExtension>
        </extensions>
      </trkpt>
      <trkpt lat="42.548416368663311004638671875" lon="19.96101549826562404632568359375">
        <ele>1138.4000244140625</ele>
        <time>2026-06-17T08:12:41.000Z</time>
        <extensions>
          <ns3:TrackPointExtension>
            <ns3:atemp>24.0</ns3:atemp>
          </ns3:TrackPointExtension>
        </extensions>
      </trkpt>
      <trkpt lat="42.54839851520955562591552734375" lon="19.96102698147296905517578125">
        <ele>1138.4000244140625</ele>
        <time>2026-06-17T08:12:42.000Z</time>
        <extensions>
          <ns3:TrackPointExtension>
            <ns3:atemp>24.0</ns3:atemp>
          </ns3:TrackPointExtension>
        </extensions>
      </trkpt>
      <trkpt lat="42.54837739281356334686279296875" lon="19.9610358662903308868408203125">
        <ele>1138.800048828125</ele>
        <time>2026-06-17T08:12:43.000Z</time>
        <extensions>
          <ns3:TrackPointExtension>
            <ns3:atemp>24.0</ns3:atemp>
          </ns3:TrackPointExtension>
        </extensions>
      </trkpt>
      <trkpt lat="42.5483581982553005218505859375" lon="19.96104315854609012603759765625">
        <ele>1139</ele>
        <time>2026-06-17T08:12:44.000Z</time>
        <extensions>
          <ns3:TrackPointExtension>
            <ns3:atemp>24.0</ns3:atemp>
          </ns3:TrackPointExtension>
        </extensions>
      </trkpt>
      <trkpt lat="42.54834101535379886627197265625" lon="19.96105204336345195770263671875">
        <ele>1139.199951171875</ele>
        <time>2026-06-17T08:12:45.000Z</time>
        <extensions>
          <ns3:TrackPointExtension>
            <ns3:atemp>24.0</ns3:atemp>
          </ns3:TrackPointExtension>
        </extensions>
      </trkpt>
      <trkpt lat="42.54832341335713863372802734375" lon="19.9610590003430843353271484375">
        <ele>1139.5999755859375</ele>
        <time>2026-06-17T08:12:46.000Z</time>
        <extensions>
          <ns3:TrackPointExtension>
            <ns3:atemp>24.0</ns3:atemp>
          </ns3:TrackPointExtension>
        </extensions>
      </trkpt>
      <trkpt lat="42.548307068645954132080078125" lon="19.96106310747563838958740234375">
        <ele>1139.800048828125</ele>
        <time>2026-06-17T08:12:47.000Z</time>
        <extensions>
          <ns3:TrackPointExtension>
            <ns3:atemp>24.0</ns3:atemp>
          </ns3:TrackPointExtension>
        </extensions>
      </trkpt>
      <trkpt lat="42.548286952078342437744140625" lon="19.9610693939030170440673828125">
        <ele>1140</ele>
        <time>2026-06-17T08:12:48.000Z</time>
        <extensions>
          <ns3:TrackPointExtension>
            <ns3:atemp>24.0</ns3:atemp>
          </ns3:TrackPointExtension>
        </extensions>
      </trkpt>
      <trkpt lat="42.54826909862458705902099609375" lon="19.961077608168125152587890625">
        <ele>1140.4000244140625</ele>
        <time>2026-06-17T08:12:49.000Z</time>
        <extensions>
          <ns3:TrackPointExtension>
            <ns3:atemp>24.0</ns3:atemp>
          </ns3:TrackPointExtension>
        </extensions>
      </trkpt>
      <trkpt lat="42.5482535921037197113037109375" lon="19.961086995899677276611328125">
        <ele>1140.800048828125</ele>
        <time>2026-06-17T08:12:50.000Z</time>
        <extensions>
          <ns3:TrackPointExtension>
            <ns3:atemp>24.0</ns3:atemp>
          </ns3:TrackPointExtension>
        </extensions>
      </trkpt>
      <trkpt lat="42.54823573864996433258056640625" lon="19.9611002393066883087158203125">
        <ele>1141</ele>
        <time>2026-06-17T08:12:51.000Z</time>
        <extensions>
          <ns3:TrackPointExtension>
            <ns3:atemp>24.0</ns3:atemp>
          </ns3:TrackPointExtension>
        </extensions>
      </trkpt>
      <trkpt lat="42.54822014831006526947021484375" lon="19.96111147105693817138671875">
        <ele>1141.199951171875</ele>
        <time>2026-06-17T08:12:52.000Z</time>
        <extensions>
          <ns3:TrackPointExtension>
            <ns3:atemp>24.0</ns3:atemp>
          </ns3:TrackPointExtension>
        </extensions>
      </trkpt>
      <trkpt lat="42.54820137284696102142333984375" lon="19.96111725457012653350830078125">
        <ele>1141.5999755859375</ele>
        <time>2026-06-17T08:12:53.000Z</time>
        <extensions>
          <ns3:TrackPointExtension>
            <ns3:atemp>24.0</ns3:atemp>
          </ns3:TrackPointExtension>
        </extensions>
      </trkpt>
      <trkpt lat="42.54818611778318881988525390625" lon="19.96112630702555179595947265625">
        <ele>1142</ele>
        <time>2026-06-17T08:12:54.000Z</time>
        <extensions>
          <ns3:TrackPointExtension>
            <ns3:atemp>24.0</ns3:atemp>
          </ns3:TrackPointExtension>
        </extensions>
      </trkpt>
      <trkpt lat="42.54817329347133636474609375" lon="19.96113871224224567413330078125">
        <ele>1142.199951171875</ele>
        <time>2026-06-17T08:12:55.000Z</time>
        <extensions>
          <ns3:TrackPointExtension>
            <ns3:atemp>24.0</ns3:atemp>
          </ns3:TrackPointExtension>
        </extensions>
      </trkpt>
      <trkpt lat="42.54815560765564441680908203125" lon="19.9611589126288890838623046875">
        <ele>1142.4000244140625</ele>
        <time>2026-06-17T08:12:56.000Z</time>
        <extensions>
          <ns3:TrackPointExtension>
            <ns3:atemp>24.0</ns3:atemp>
          </ns3:TrackPointExtension>
        </extensions>
      </trkpt>
      <trkpt lat="42.54814647138118743896484375" lon="19.9611760117113590240478515625">
        <ele>1142.5999755859375</ele>
        <time>2026-06-17T08:12:57.000Z</time>
        <extensions>
          <ns3:TrackPointExtension>
            <ns3:atemp>24.0</ns3:atemp>
          </ns3:TrackPointExtension>
        </extensions>
      </trkpt>
      <trkpt lat="42.548138760030269622802734375" lon="19.9611951224505901336669921875">
        <ele>1142.800048828125</ele>
        <time>2026-06-17T08:12:58.000Z</time>
        <extensions>
          <ns3:TrackPointExtension>
            <ns3:atemp>24.0</ns3:atemp>
          </ns3:TrackPointExtension>
        </extensions>
      </trkpt>
      <trkpt lat="42.5481283664703369140625" lon="19.961216747760772705078125">
        <ele>1143</ele>
        <time>2026-06-17T08:12:59.000Z</time>
        <extensions>
          <ns3:TrackPointExtension>
            <ns3:atemp>24.0</ns3:atemp>
          </ns3:TrackPointExtension>
        </extensions>
      </trkpt>
      <trkpt lat="42.548117972910404205322265625" lon="19.96123828925192356109619140625">
        <ele>1143.199951171875</ele>
        <time>2026-06-17T08:13:00.000Z</time>
        <extensions>
          <ns3:TrackPointExtension>
            <ns3:atemp>24.0</ns3:atemp>
          </ns3:TrackPointExtension>
        </extensions>
      </trkpt>
      <trkpt lat="42.54811285994946956634521484375" lon="19.961255304515361785888671875">
        <ele>1143.4000244140625</ele>
        <time>2026-06-17T08:13:01.000Z</time>
        <extensions>
          <ns3:TrackPointExtension>
            <ns3:atemp>24.0</ns3:atemp>
          </ns3:TrackPointExtension>
        </extensions>
      </trkpt>
      <trkpt lat="42.54810498096048831939697265625" lon="19.961272738873958587646484375">
        <ele>1143.800048828125</ele>
        <time>2026-06-17T08:13:02.000Z</time>
        <extensions>
          <ns3:TrackPointExtension>
            <ns3:atemp>24.0</ns3:atemp>
          </ns3:TrackPointExtension>
        </extensions>
      </trkpt>
      <trkpt lat="42.54809894599020481109619140625" lon="19.96128841303288936614990234375">
        <ele>1144</ele>
        <time>2026-06-17T08:13:03.000Z</time>
        <extensions>
          <ns3:TrackPointExtension>
            <ns3:atemp>24.0</ns3:atemp>
          </ns3:TrackPointExtension>
        </extensions>
      </trkpt>
      <trkpt lat="42.54808855243027210235595703125" lon="19.9613081105053424835205078125">
        <ele>1144.199951171875</ele>
        <time>2026-06-17T08:13:04.000Z</time>
        <extensions>
          <ns3:TrackPointExtension>
            <ns3:atemp>24.0</ns3:atemp>
          </ns3:TrackPointExtension>
        </extensions>
      </trkpt>
      <trkpt lat="42.54807748831808567047119140625" lon="19.9613295681774616241455078125">
        <ele>1144.5999755859375</ele>
        <time>2026-06-17T08:13:05.000Z</time>
        <extensions>
          <ns3:TrackPointExtension>
            <ns3:atemp>24.0</ns3:atemp>
          </ns3:TrackPointExtension>
        </extensions>
      </trkpt>
      <trkpt lat="42.54806743003427982330322265625" lon="19.9613468348979949951171875">
        <ele>1144.800048828125</ele>
        <time>2026-06-17T08:13:06.000Z</time>
        <extensions>
          <ns3:TrackPointExtension>
            <ns3:atemp>24.0</ns3:atemp>
          </ns3:TrackPointExtension>
        </extensions>
      </trkpt>
      <trkpt lat="42.5480554439127445220947265625" lon="19.961365275084972381591796875">
        <ele>1145.199951171875</ele>
        <time>2026-06-17T08:13:07.000Z</time>
        <extensions>
          <ns3:TrackPointExtension>
            <ns3:atemp>24.0</ns3:atemp>
          </ns3:TrackPointExtension>
        </extensions>
      </trkpt>
      <trkpt lat="42.54804211668670177459716796875" lon="19.96137700974941253662109375">
        <ele>1145.5999755859375</ele>
        <time>2026-06-17T08:13:08.000Z</time>
        <extensions>
          <ns3:TrackPointExtension>
            <ns3:atemp>24.0</ns3:atemp>
          </ns3:TrackPointExtension>
        </extensions>
      </trkpt>
      <trkpt lat="42.54802920855581760406494140625" lon="19.9613922648131847381591796875">
        <ele>1145.800048828125</ele>
        <time>2026-06-17T08:13:09.000Z</time>
        <extensions>
          <ns3:TrackPointExtension>
            <ns3:atemp>24.0</ns3:atemp>
          </ns3:TrackPointExtension>
        </extensions>
      </trkpt>
      <trkpt lat="42.548016719520092010498046875" lon="19.96141347102820873260498046875">
        <ele>1146.199951171875</ele>
        <time>2026-06-17T08:13:10.000Z</time>
        <extensions>
          <ns3:TrackPointExtension>
            <ns3:atemp>24.0</ns3:atemp>
          </ns3:TrackPointExtension>
        </extensions>
      </trkpt>
      <trkpt lat="42.5479997880756855010986328125" lon="19.9614281393587589263916015625">
        <ele>1146.4000244140625</ele>
        <time>2026-06-17T08:13:11.000Z</time>
        <extensions>
          <ns3:TrackPointExtension>
            <ns3:atemp>24.0</ns3:atemp>
          </ns3:TrackPointExtension>
        </extensions>
      </trkpt>
      <trkpt lat="42.54798193462193012237548828125" lon="19.96143735945224761962890625">
        <ele>1146.800048828125</ele>
        <time>2026-06-17T08:13:12.000Z</time>
        <extensions>
          <ns3:TrackPointExtension>
            <ns3:atemp>24.0</ns3:atemp>
          </ns3:TrackPointExtension>
        </extensions>
      </trkpt>
      <trkpt lat="42.547959387302398681640625" lon="19.96144934557378292083740234375">
        <ele>1147</ele>
        <time>2026-06-17T08:13:13.000Z</time>
        <extensions>
          <ns3:TrackPointExtension>
            <ns3:atemp>24.0</ns3:atemp>
          </ns3:TrackPointExtension>
        </extensions>
      </trkpt>
      <trkpt lat="42.547942958772182464599609375" lon="19.96145403943955898284912109375">
        <ele>1147.4000244140625</ele>
        <time>2026-06-17T08:13:14.000Z</time>
        <extensions>
          <ns3:TrackPointExtension>
            <ns3:atemp>24.0</ns3:atemp>
          </ns3:TrackPointExtension>
        </extensions>
      </trkpt>
      <trkpt lat="42.5479270331561565399169921875" lon="19.96145823039114475250244140625">
        <ele>1147.5999755859375</ele>
        <time>2026-06-17T08:13:15.000Z</time>
        <extensions>
          <ns3:TrackPointExtension>
            <ns3:atemp>24.0</ns3:atemp>
          </ns3:TrackPointExtension>
        </extensions>
      </trkpt>
      <trkpt lat="42.5479069165885448455810546875" lon="19.96146007440984249114990234375">
        <ele>1147.800048828125</ele>
        <time>2026-06-17T08:13:16.000Z</time>
        <extensions>
          <ns3:TrackPointExtension>
            <ns3:atemp>24.0</ns3:atemp>
          </ns3:TrackPointExtension>
        </extensions>
      </trkpt>
      <trkpt lat="42.5478884764015674591064453125" lon="19.96146007440984249114990234375">
        <ele>1148</ele>
        <time>2026-06-17T08:13:17.000Z</time>
        <extensions>
          <ns3:TrackPointExtension>
            <ns3:atemp>24.0</ns3:atemp>
          </ns3:TrackPointExtension>
        </extensions>
      </trkpt>
      <trkpt lat="42.54787062294781208038330078125" lon="19.96146057732403278350830078125">
        <ele>1148.199951171875</ele>
        <time>2026-06-17T08:13:18.000Z</time>
        <extensions>
          <ns3:TrackPointExtension>
            <ns3:atemp>24.0</ns3:atemp>
          </ns3:TrackPointExtension>
        </extensions>
      </trkpt>
      <trkpt lat="42.54784815944731235504150390625" lon="19.96146191842854022979736328125">
        <ele>1148.199951171875</ele>
        <time>2026-06-17T08:13:19.000Z</time>
        <extensions>
          <ns3:TrackPointExtension>
            <ns3:atemp>24.0</ns3:atemp>
          </ns3:TrackPointExtension>
        </extensions>
      </trkpt>
      <trkpt lat="42.5478284619748592376708984375" lon="19.961455129086971282958984375">
        <ele>1148.4000244140625</ele>
        <time>2026-06-17T08:13:20.000Z</time>
        <extensions>
          <ns3:TrackPointExtension>
            <ns3:atemp>24.0</ns3:atemp>
          </ns3:TrackPointExtension>
        </extensions>
      </trkpt>
      <trkpt lat="42.5478096865117549896240234375" lon="19.961451776325702667236328125">
        <ele>1148.5999755859375</ele>
        <time>2026-06-17T08:13:21.000Z</time>
        <extensions>
          <ns3:TrackPointExtension>
            <ns3:atemp>24.0</ns3:atemp>
          </ns3:TrackPointExtension>
        </extensions>
      </trkpt>
      <trkpt lat="42.54779367707669734954833984375" lon="19.96144800446927547454833984375">
        <ele>1148.800048828125</ele>
        <time>2026-06-17T08:13:22.000Z</time>
        <extensions>
          <ns3:TrackPointExtension>
            <ns3:atemp>24.0</ns3:atemp>
          </ns3:TrackPointExtension>
        </extensions>
      </trkpt>
      <trkpt lat="42.5477783381938934326171875" lon="19.9614433944225311279296875">
        <ele>1149</ele>
        <time>2026-06-17T08:13:23.000Z</time>
        <extensions>
          <ns3:TrackPointExtension>
            <ns3:atemp>24.0</ns3:atemp>
          </ns3:TrackPointExtension>
        </extensions>
      </trkpt>
      <trkpt lat="42.54776031710207462310791015625" lon="19.9614324979484081268310546875">
        <ele>1149</ele>
        <time>2026-06-17T08:13:24.000Z</time>
        <extensions>
          <ns3:TrackPointExtension>
            <ns3:atemp>24.0</ns3:atemp>
          </ns3:TrackPointExtension>
        </extensions>
      </trkpt>
      <trkpt lat="42.5477372668683528900146484375" lon="19.9614231102168560028076171875">
        <ele>1149.199951171875</ele>
        <time>2026-06-17T08:13:25.000Z</time>
        <extensions>
          <ns3:TrackPointExtension>
            <ns3:atemp>24.0</ns3:atemp>
          </ns3:TrackPointExtension>
        </extensions>
      </trkpt>
      <trkpt lat="42.54772058688104152679443359375" lon="19.96141011826694011688232421875">
        <ele>1149</ele>
        <time>2026-06-17T08:13:26.000Z</time>
        <extensions>
          <ns3:TrackPointExtension>
            <ns3:atemp>24.0</ns3:atemp>
          </ns3:TrackPointExtension>
        </extensions>
      </trkpt>
      <trkpt lat="42.547704242169857025146484375" lon="19.96139519847929477691650390625">
        <ele>1149</ele>
        <time>2026-06-17T08:13:27.000Z</time>
        <extensions>
          <ns3:TrackPointExtension>
            <ns3:atemp>24.0</ns3:atemp>
          </ns3:TrackPointExtension>
        </extensions>
      </trkpt>
      <trkpt lat="42.54769007675349712371826171875" lon="19.96138178743422031402587890625">
        <ele>1149</ele>
        <time>2026-06-17T08:13:28.000Z</time>
        <extensions>
          <ns3:TrackPointExtension>
            <ns3:atemp>24.0</ns3:atemp>
          </ns3:TrackPointExtension>
        </extensions>
      </trkpt>
      <trkpt lat="42.547670714557170867919921875" lon="19.96136787347495555877685546875">
        <ele>1149</ele>
        <time>2026-06-17T08:13:29.000Z</time>
        <extensions>
          <ns3:TrackPointExtension>
            <ns3:atemp>24.0</ns3:atemp>
          </ns3:TrackPointExtension>
        </extensions>
      </trkpt>
      <trkpt lat="42.5476514361798763275146484375" lon="19.9613557197153568267822265625">
        <ele>1148.800048828125</ele>
        <time>2026-06-17T08:13:30.000Z</time>
        <extensions>
          <ns3:TrackPointExtension>
            <ns3:atemp>24.0</ns3:atemp>
          </ns3:TrackPointExtension>
        </extensions>
      </trkpt>
      <trkpt lat="42.5476350076496601104736328125" lon="19.96134524233639240264892578125">
        <ele>1148.800048828125</ele>
        <time>2026-06-17T08:13:31.000Z</time>
        <extensions>
          <ns3:TrackPointExtension>
            <ns3:atemp>24.0</ns3:atemp>
          </ns3:TrackPointExtension>
        </extensions>
      </trkpt>
      <trkpt lat="42.547617070376873016357421875" lon="19.96133887208998203277587890625">
        <ele>1149</ele>
        <time>2026-06-17T08:13:32.000Z</time>
        <extensions>
          <ns3:TrackPointExtension>
            <ns3:atemp>24.0</ns3:atemp>
          </ns3:TrackPointExtension>
        </extensions>
      </trkpt>
      <trkpt lat="42.547598294913768768310546875" lon="19.9613320827484130859375">
        <ele>1149</ele>
        <time>2026-06-17T08:13:33.000Z</time>
        <extensions>
          <ns3:TrackPointExtension>
            <ns3:atemp>24.0</ns3:atemp>
          </ns3:TrackPointExtension>
        </extensions>
      </trkpt>
      <trkpt lat="42.54757784307003021240234375" lon="19.961328394711017608642578125">
        <ele>1149.199951171875</ele>
        <time>2026-06-17T08:13:34.000Z</time>
        <extensions>
          <ns3:TrackPointExtension>
            <ns3:atemp>24.0</ns3:atemp>
          </ns3:TrackPointExtension>
        </extensions>
      </trkpt>
      <trkpt lat="42.54755663685500621795654296875" lon="19.96132562868297100067138671875">
        <ele>1149.199951171875</ele>
        <time>2026-06-17T08:13:35.000Z</time>
        <extensions>
          <ns3:TrackPointExtension>
            <ns3:atemp>24.0</ns3:atemp>
          </ns3:TrackPointExtension>
        </extensions>
      </trkpt>
      <trkpt lat="42.54753299988806247711181640625" lon="19.961327053606510162353515625">
        <ele>1149.199951171875</ele>
        <time>2026-06-17T08:13:36.000Z</time>
        <extensions>
          <ns3:TrackPointExtension>
            <ns3:atemp>24.0</ns3:atemp>
          </ns3:TrackPointExtension>
        </extensions>
      </trkpt>
      <trkpt lat="42.54751288332045078277587890625" lon="19.9613278917968273162841796875">
        <ele>1149.4000244140625</ele>
        <time>2026-06-17T08:13:37.000Z</time>
        <extensions>
          <ns3:TrackPointExtension>
            <ns3:atemp>24.0</ns3:atemp>
          </ns3:TrackPointExtension>
        </extensions>
      </trkpt>
      <trkpt lat="42.54749377258121967315673828125" lon="19.96133082546293735504150390625">
        <ele>1149.4000244140625</ele>
        <time>2026-06-17T08:13:38.000Z</time>
        <extensions>
          <ns3:TrackPointExtension>
            <ns3:atemp>24.0</ns3:atemp>
          </ns3:TrackPointExtension>
        </extensions>
      </trkpt>
      <trkpt lat="42.54747248254716396331787109375" lon="19.961341135203838348388671875">
        <ele>1149.4000244140625</ele>
        <time>2026-06-17T08:13:39.000Z</time>
        <extensions>
          <ns3:TrackPointExtension>
            <ns3:atemp>24.0</ns3:atemp>
          </ns3:TrackPointExtension>
        </extensions>
      </trkpt>
      <trkpt lat="42.547452114522457122802734375" lon="19.9613503552973270416259765625">
        <ele>1149.5999755859375</ele>
        <time>2026-06-17T08:13:40.000Z</time>
        <extensions>
          <ns3:TrackPointExtension>
            <ns3:atemp>24.0</ns3:atemp>
          </ns3:TrackPointExtension>
        </extensions>
      </trkpt>
      <trkpt lat="42.547433339059352874755859375" lon="19.96135689318180084228515625">
        <ele>1149.5999755859375</ele>
        <time>2026-06-17T08:13:41.000Z</time>
        <extensions>
          <ns3:TrackPointExtension>
            <ns3:atemp>24.0</ns3:atemp>
          </ns3:TrackPointExtension>
        </extensions>
      </trkpt>
      <trkpt lat="42.5474157370626926422119140625" lon="19.96136502362787723541259765625">
        <ele>1149.800048828125</ele>
        <time>2026-06-17T08:13:42.000Z</time>
        <extensions>
          <ns3:TrackPointExtension>
            <ns3:atemp>24.0</ns3:atemp>
          </ns3:TrackPointExtension>
        </extensions>
      </trkpt>
      <trkpt lat="42.5474013201892375946044921875" lon="19.9613734893500804901123046875">
        <ele>1149.800048828125</ele>
        <time>2026-06-17T08:13:43.000Z</time>
        <extensions>
          <ns3:TrackPointExtension>
            <ns3:atemp>24.0</ns3:atemp>
          </ns3:TrackPointExtension>
        </extensions>
      </trkpt>
      <trkpt lat="42.54738950170576572418212890625" lon="19.9613835476338863372802734375">
        <ele>1150</ele>
        <time>2026-06-17T08:13:44.000Z</time>
        <extensions>
          <ns3:TrackPointExtension>
            <ns3:atemp>24.0</ns3:atemp>
          </ns3:TrackPointExtension>
        </extensions>
      </trkpt>
      <trkpt lat="42.5473786890506744384765625" lon="19.9613932706415653228759765625">
        <ele>1150</ele>
        <time>2026-06-17T08:13:45.000Z</time>
        <extensions>
          <ns3:TrackPointExtension>
            <ns3:atemp>24.0</ns3:atemp>
          </ns3:TrackPointExtension>
        </extensions>
      </trkpt>
      <trkpt lat="42.5473657809197902679443359375" lon="19.9614058434963226318359375">
        <ele>1150.199951171875</ele>
        <time>2026-06-17T08:13:46.000Z</time>
        <extensions>
          <ns3:TrackPointExtension>
            <ns3:atemp>24.0</ns3:atemp>
          </ns3:TrackPointExtension>
        </extensions>
      </trkpt>
      <trkpt lat="42.547351531684398651123046875" lon="19.9614214338362216949462890625">
        <ele>1150.4000244140625</ele>
        <time>2026-06-17T08:13:47.000Z</time>
        <extensions>
          <ns3:TrackPointExtension>
            <ns3:atemp>24.0</ns3:atemp>
          </ns3:TrackPointExtension>
        </extensions>
      </trkpt>
      <trkpt lat="42.54733904264867305755615234375" lon="19.9614365212619304656982421875">
        <ele>1150.5999755859375</ele>
        <time>2026-06-17T08:13:48.000Z</time>
        <extensions>
          <ns3:TrackPointExtension>
            <ns3:atemp>24.0</ns3:atemp>
          </ns3:TrackPointExtension>
        </extensions>
      </trkpt>
      <trkpt lat="42.54732814617455005645751953125" lon="19.96145186014473438262939453125">
        <ele>1150.800048828125</ele>
        <time>2026-06-17T08:13:49.000Z</time>
        <extensions>
          <ns3:TrackPointExtension>
            <ns3:atemp>24.0</ns3:atemp>
          </ns3:TrackPointExtension>
        </extensions>
      </trkpt>
      <trkpt lat="42.5473164953291416168212890625" lon="19.96146124787628650665283203125">
        <ele>1150.800048828125</ele>
        <time>2026-06-17T08:13:50.000Z</time>
        <extensions>
          <ns3:TrackPointExtension>
            <ns3:atemp>24.0</ns3:atemp>
          </ns3:TrackPointExtension>
        </extensions>
      </trkpt>
      <trkpt lat="42.547303251922130584716796875" lon="19.96147549711167812347412109375">
        <ele>1151</ele>
        <time>2026-06-17T08:13:51.000Z</time>
        <extensions>
          <ns3:TrackPointExtension>
            <ns3:atemp>24.0</ns3:atemp>
          </ns3:TrackPointExtension>
        </extensions>
      </trkpt>
      <trkpt lat="42.5472893379628658294677734375" lon="19.96148672886192798614501953125">
        <ele>1151.199951171875</ele>
        <time>2026-06-17T08:13:52.000Z</time>
        <extensions>
          <ns3:TrackPointExtension>
            <ns3:atemp>24.0</ns3:atemp>
          </ns3:TrackPointExtension>
        </extensions>
      </trkpt>
      <trkpt lat="42.54727768711745738983154296875" lon="19.96149209327995777130126953125">
        <ele>1151.199951171875</ele>
        <time>2026-06-17T08:13:53.000Z</time>
        <extensions>
          <ns3:TrackPointExtension>
            <ns3:atemp>24.0</ns3:atemp>
          </ns3:TrackPointExtension>
        </extensions>
      </trkpt>
      <trkpt lat="42.54726779647171497344970703125" lon="19.961501397192478179931640625">
        <ele>1151.4000244140625</ele>
        <time>2026-06-17T08:13:54.000Z</time>
        <extensions>
          <ns3:TrackPointExtension>
            <ns3:atemp>24.0</ns3:atemp>
          </ns3:TrackPointExtension>
        </extensions>
      </trkpt>
      <trkpt lat="42.5472524575889110565185546875" lon="19.96151170693337917327880859375">
        <ele>1151.5999755859375</ele>
        <time>2026-06-17T08:13:55.000Z</time>
        <extensions>
          <ns3:TrackPointExtension>
            <ns3:atemp>24.0</ns3:atemp>
          </ns3:TrackPointExtension>
        </extensions>
      </trkpt>
      <trkpt lat="42.54723678342998027801513671875" lon="19.9615257047116756439208984375">
        <ele>1151.5999755859375</ele>
        <time>2026-06-17T08:13:56.000Z</time>
        <extensions>
          <ns3:TrackPointExtension>
            <ns3:atemp>24.0</ns3:atemp>
          </ns3:TrackPointExtension>
        </extensions>
      </trkpt>
      <trkpt lat="42.5472182594239711761474609375" lon="19.96153752319514751434326171875">
        <ele>1151.800048828125</ele>
        <time>2026-06-17T08:13:57.000Z</time>
        <extensions>
          <ns3:TrackPointExtension>
            <ns3:atemp>24.0</ns3:atemp>
          </ns3:TrackPointExtension>
        </extensions>
      </trkpt>
      <trkpt lat="42.547199986875057220458984375" lon="19.9615458212792873382568359375">
        <ele>1152</ele>
        <time>2026-06-17T08:13:58.000Z</time>
        <extensions>
          <ns3:TrackPointExtension>
            <ns3:atemp>24.0</ns3:atemp>
          </ns3:TrackPointExtension>
        </extensions>
      </trkpt>
      <trkpt lat="42.547183223068714141845703125" lon="19.96155244298279285430908203125">
        <ele>1152.199951171875</ele>
        <time>2026-06-17T08:13:59.000Z</time>
        <extensions>
          <ns3:TrackPointExtension>
            <ns3:atemp>24.0</ns3:atemp>
          </ns3:TrackPointExtension>
        </extensions>
      </trkpt>
      <trkpt lat="42.5471652857959270477294921875" lon="19.96156099252402782440185546875">
        <ele>1152.4000244140625</ele>
        <time>2026-06-17T08:14:00.000Z</time>
        <extensions>
          <ns3:TrackPointExtension>
            <ns3:atemp>24.0</ns3:atemp>
          </ns3:TrackPointExtension>
        </extensions>
      </trkpt>
      <trkpt lat="42.54714525304734706878662109375" lon="19.96156954206526279449462890625">
        <ele>1152.5999755859375</ele>
        <time>2026-06-17T08:14:01.000Z</time>
        <extensions>
          <ns3:TrackPointExtension>
            <ns3:atemp>24.0</ns3:atemp>
          </ns3:TrackPointExtension>
        </extensions>
      </trkpt>
      <trkpt lat="42.5471273995935916900634765625" lon="19.96157155372202396392822265625">
        <ele>1152.800048828125</ele>
        <time>2026-06-17T08:14:02.000Z</time>
        <extensions>
          <ns3:TrackPointExtension>
            <ns3:atemp>24.0</ns3:atemp>
          </ns3:TrackPointExtension>
        </extensions>
      </trkpt>
      <trkpt lat="42.54710711538791656494140625" lon="19.96157490648329257965087890625">
        <ele>1153</ele>
        <time>2026-06-17T08:14:03.000Z</time>
        <extensions>
          <ns3:TrackPointExtension>
            <ns3:atemp>24.0</ns3:atemp>
          </ns3:TrackPointExtension>
        </extensions>
      </trkpt>
      <trkpt lat="42.547085992991924285888671875" lon="19.9615756608545780181884765625">
        <ele>1153.199951171875</ele>
        <time>2026-06-17T08:14:04.000Z</time>
        <extensions>
          <ns3:TrackPointExtension>
            <ns3:atemp>24.0</ns3:atemp>
          </ns3:TrackPointExtension>
        </extensions>
      </trkpt>
      <trkpt lat="42.54706688225269317626953125" lon="19.96157540939748287200927734375">
        <ele>1153.5999755859375</ele>
        <time>2026-06-17T08:14:05.000Z</time>
        <extensions>
          <ns3:TrackPointExtension>
            <ns3:atemp>24.0</ns3:atemp>
          </ns3:TrackPointExtension>
        </extensions>
      </trkpt>
      <trkpt lat="42.5470492802560329437255859375" lon="19.96157423593103885650634765625">
        <ele>1153.800048828125</ele>
        <time>2026-06-17T08:14:06.000Z</time>
        <extensions>
          <ns3:TrackPointExtension>
            <ns3:atemp>24.0</ns3:atemp>
          </ns3:TrackPointExtension>
        </extensions>
      </trkpt>
      <trkpt lat="42.54703310318291187286376953125" lon="19.9615696258842945098876953125">
        <ele>1154</ele>
        <time>2026-06-17T08:14:07.000Z</time>
        <extensions>
          <ns3:TrackPointExtension>
            <ns3:atemp>24.0</ns3:atemp>
          </ns3:TrackPointExtension>
        </extensions>
      </trkpt>
      <trkpt lat="42.5470160879194736480712890625" lon="19.9615659378468990325927734375">
        <ele>1154.199951171875</ele>
        <time>2026-06-17T08:14:08.000Z</time>
        <extensions>
          <ns3:TrackPointExtension>
            <ns3:atemp>24.0</ns3:atemp>
          </ns3:TrackPointExtension>
        </extensions>
      </trkpt>
      <trkpt lat="42.5469983182847499847412109375" lon="19.96156149543821811676025390625">
        <ele>1154.5999755859375</ele>
        <time>2026-06-17T08:14:09.000Z</time>
        <extensions>
          <ns3:TrackPointExtension>
            <ns3:atemp>24.0</ns3:atemp>
          </ns3:TrackPointExtension>
        </extensions>
      </trkpt>
      <trkpt lat="42.546980381011962890625" lon="19.9615587294101715087890625">
        <ele>1154.800048828125</ele>
        <time>2026-06-17T08:14:10.000Z</time>
        <extensions>
          <ns3:TrackPointExtension>
            <ns3:atemp>24.0</ns3:atemp>
          </ns3:TrackPointExtension>
        </extensions>
      </trkpt>
      <trkpt lat="42.5469614379107952117919921875" lon="19.9615565501153469085693359375">
        <ele>1154.800048828125</ele>
        <time>2026-06-17T08:14:11.000Z</time>
        <extensions>
          <ns3:TrackPointExtension>
            <ns3:atemp>24.0</ns3:atemp>
          </ns3:TrackPointExtension>
        </extensions>
      </trkpt>
      <trkpt lat="42.5469396449625492095947265625" lon="19.9615548737347126007080078125">
        <ele>1155</ele>
        <time>2026-06-17T08:14:12.000Z</time>
        <extensions>
          <ns3:TrackPointExtension>
            <ns3:atemp>24.0</ns3:atemp>
          </ns3:TrackPointExtension>
        </extensions>
      </trkpt>
      <trkpt lat="42.5469212047755718231201171875" lon="19.96155613102018833160400390625">
        <ele>1155.199951171875</ele>
        <time>2026-06-17T08:14:13.000Z</time>
        <extensions>
          <ns3:TrackPointExtension>
            <ns3:atemp>24.0</ns3:atemp>
          </ns3:TrackPointExtension>
        </extensions>
      </trkpt>
      <trkpt lat="42.546902932226657867431640625" lon="19.96156048960983753204345703125">
        <ele>1155.4000244140625</ele>
        <time>2026-06-17T08:14:14.000Z</time>
        <extensions>
          <ns3:TrackPointExtension>
            <ns3:atemp>24.0</ns3:atemp>
          </ns3:TrackPointExtension>
        </extensions>
      </trkpt>
      <trkpt lat="42.54688725806772708892822265625" lon="19.96156048960983753204345703125">
        <ele>1155.5999755859375</ele>
        <time>2026-06-17T08:14:15.000Z</time>
        <extensions>
          <ns3:TrackPointExtension>
            <ns3:atemp>24.0</ns3:atemp>
          </ns3:TrackPointExtension>
        </extensions>
      </trkpt>
      <trkpt lat="42.54687166772782802581787109375" lon="19.96156015433371067047119140625">
        <ele>1155.800048828125</ele>
        <time>2026-06-17T08:14:16.000Z</time>
        <extensions>
          <ns3:TrackPointExtension>
            <ns3:atemp>24.0</ns3:atemp>
          </ns3:TrackPointExtension>
        </extensions>
      </trkpt>
      <trkpt lat="42.5468538142740726470947265625" lon="19.96156518347561359405517578125">
        <ele>1156</ele>
        <time>2026-06-17T08:14:17.000Z</time>
        <extensions>
          <ns3:TrackPointExtension>
            <ns3:atemp>24.0</ns3:atemp>
          </ns3:TrackPointExtension>
        </extensions>
      </trkpt>
      <trkpt lat="42.5468333624303340911865234375" lon="19.96157012879848480224609375">
        <ele>1156.199951171875</ele>
        <time>2026-06-17T08:14:18.000Z</time>
        <extensions>
          <ns3:TrackPointExtension>
            <ns3:atemp>24.0</ns3:atemp>
          </ns3:TrackPointExtension>
        </extensions>
      </trkpt>
      <trkpt lat="42.5468142516911029815673828125" lon="19.9615803547203540802001953125">
        <ele>1156.4000244140625</ele>
        <time>2026-06-17T08:14:19.000Z</time>
        <extensions>
          <ns3:TrackPointExtension>
            <ns3:atemp>24.0</ns3:atemp>
          </ns3:TrackPointExtension>
        </extensions>
      </trkpt>
      <trkpt lat="42.54679891280829906463623046875" lon="19.9615884013473987579345703125">
        <ele>1156.5999755859375</ele>
        <time>2026-06-17T08:14:20.000Z</time>
        <extensions>
          <ns3:TrackPointExtension>
            <ns3:atemp>24.0</ns3:atemp>
          </ns3:TrackPointExtension>
        </extensions>
      </trkpt>
      <trkpt lat="42.54678332246840000152587890625" lon="19.961594603955745697021484375">
        <ele>1156.800048828125</ele>
        <time>2026-06-17T08:14:21.000Z</time>
        <extensions>
          <ns3:TrackPointExtension>
            <ns3:atemp>24.0</ns3:atemp>
          </ns3:TrackPointExtension>
        </extensions>
      </trkpt>
      <trkpt lat="42.54676739685237407684326171875" lon="19.96160633862018585205078125">
        <ele>1157</ele>
        <time>2026-06-17T08:14:22.000Z</time>
        <extensions>
          <ns3:TrackPointExtension>
            <ns3:atemp>24.0</ns3:atemp>
          </ns3:TrackPointExtension>
        </extensions>
      </trkpt>
      <trkpt lat="42.5467495433986186981201171875" lon="19.96161631308495998382568359375">
        <ele>1157.199951171875</ele>
        <time>2026-06-17T08:14:23.000Z</time>
        <extensions>
          <ns3:TrackPointExtension>
            <ns3:atemp>24.0</ns3:atemp>
          </ns3:TrackPointExtension>
        </extensions>
      </trkpt>
      <trkpt lat="42.54673202522099018096923828125" lon="19.9616266228258609771728515625">
        <ele>1157.4000244140625</ele>
        <time>2026-06-17T08:14:24.000Z</time>
        <extensions>
          <ns3:TrackPointExtension>
            <ns3:atemp>24.0</ns3:atemp>
          </ns3:TrackPointExtension>
        </extensions>
      </trkpt>
      <trkpt lat="42.54671375267207622528076171875" lon="19.9616346694529056549072265625">
        <ele>1157.5999755859375</ele>
        <time>2026-06-17T08:14:25.000Z</time>
        <extensions>
          <ns3:TrackPointExtension>
            <ns3:atemp>24.0</ns3:atemp>
          </ns3:TrackPointExtension>
        </extensions>
      </trkpt>
      <trkpt lat="42.54669539630413055419921875" lon="19.96163995005190372467041015625">
        <ele>1157.800048828125</ele>
        <time>2026-06-17T08:14:26.000Z</time>
        <extensions>
          <ns3:TrackPointExtension>
            <ns3:atemp>24.0</ns3:atemp>
          </ns3:TrackPointExtension>
        </extensions>
      </trkpt>
      <trkpt lat="42.5466759502887725830078125" lon="19.9616464041173458099365234375">
        <ele>1158</ele>
        <time>2026-06-17T08:14:27.000Z</time>
        <extensions>
          <ns3:TrackPointExtension>
            <ns3:atemp>24.0</ns3:atemp>
          </ns3:TrackPointExtension>
        </extensions>
      </trkpt>
      <trkpt lat="42.54665491171181201934814453125" lon="19.96165537275373935699462890625">
        <ele>1158.199951171875</ele>
        <time>2026-06-17T08:14:28.000Z</time>
        <extensions>
          <ns3:TrackPointExtension>
            <ns3:atemp>24.0</ns3:atemp>
          </ns3:TrackPointExtension>
        </extensions>
      </trkpt>
      <trkpt lat="42.54663906991481781005859375" lon="19.96165939606726169586181640625">
        <ele>1158.4000244140625</ele>
        <time>2026-06-17T08:14:29.000Z</time>
        <extensions>
          <ns3:TrackPointExtension>
            <ns3:atemp>24.0</ns3:atemp>
          </ns3:TrackPointExtension>
        </extensions>
      </trkpt>
      <trkpt lat="42.54661870189011096954345703125" lon="19.9616648443043231964111328125">
        <ele>1158.5999755859375</ele>
        <time>2026-06-17T08:14:30.000Z</time>
        <extensions>
          <ns3:TrackPointExtension>
            <ns3:atemp>24.0</ns3:atemp>
          </ns3:TrackPointExtension>
        </extensions>
      </trkpt>
      <trkpt lat="42.5465993396937847137451171875" lon="19.96166626922786235809326171875">
        <ele>1158.800048828125</ele>
        <time>2026-06-17T08:14:31.000Z</time>
        <extensions>
          <ns3:TrackPointExtension>
            <ns3:atemp>24.0</ns3:atemp>
          </ns3:TrackPointExtension>
        </extensions>
      </trkpt>
      <trkpt lat="42.54658014513552188873291015625" lon="19.96166593395173549652099609375">
        <ele>1158.800048828125</ele>
        <time>2026-06-17T08:14:32.000Z</time>
        <extensions>
          <ns3:TrackPointExtension>
            <ns3:atemp>24.0</ns3:atemp>
          </ns3:TrackPointExtension>
        </extensions>
      </trkpt>
      <trkpt lat="42.5465621240437030792236328125" lon="19.961664341390132904052734375">
        <ele>1158.800048828125</ele>
        <time>2026-06-17T08:14:33.000Z</time>
        <extensions>
          <ns3:TrackPointExtension>
            <ns3:atemp>24.0</ns3:atemp>
          </ns3:TrackPointExtension>
        </extensions>
      </trkpt>
      <trkpt lat="42.54654410295188426971435546875" lon="19.96165654622018337249755859375">
        <ele>1159</ele>
        <time>2026-06-17T08:14:34.000Z</time>
        <extensions>
          <ns3:TrackPointExtension>
            <ns3:atemp>24.0</ns3:atemp>
          </ns3:TrackPointExtension>
        </extensions>
      </trkpt>
      <trkpt lat="42.54653203301131725311279296875" lon="19.9616396985948085784912109375">
        <ele>1159</ele>
        <time>2026-06-17T08:14:35.000Z</time>
        <extensions>
          <ns3:TrackPointExtension>
            <ns3:atemp>24.0</ns3:atemp>
          </ns3:TrackPointExtension>
        </extensions>
      </trkpt>
      <trkpt lat="42.54652599804103374481201171875" lon="19.961613379418849945068359375">
        <ele>1159.199951171875</ele>
        <time>2026-06-17T08:14:36.000Z</time>
        <extensions>
          <ns3:TrackPointExtension>
            <ns3:atemp>24.0</ns3:atemp>
          </ns3:TrackPointExtension>
        </extensions>
      </trkpt>
      <trkpt lat="42.54652641713619232177734375" lon="19.96158831752836704254150390625">
        <ele>1159.4000244140625</ele>
        <time>2026-06-17T08:14:37.000Z</time>
        <extensions>
          <ns3:TrackPointExtension>
            <ns3:atemp>24.0</ns3:atemp>
          </ns3:TrackPointExtension>
        </extensions>
      </trkpt>
      <trkpt lat="42.546530105173587799072265625" lon="19.96156551875174045562744140625">
        <ele>1159.4000244140625</ele>
        <time>2026-06-17T08:14:38.000Z</time>
        <extensions>
          <ns3:TrackPointExtension>
            <ns3:atemp>24.0</ns3:atemp>
          </ns3:TrackPointExtension>
        </extensions>
      </trkpt>
      <trkpt lat="42.54653957672417163848876953125" lon="19.96154523454606533050537109375">
        <ele>1159.5999755859375</ele>
        <time>2026-06-17T08:14:39.000Z</time>
        <extensions>
          <ns3:TrackPointExtension>
            <ns3:atemp>24.0</ns3:atemp>
          </ns3:TrackPointExtension>
        </extensions>
      </trkpt>
      <trkpt lat="42.54655164666473865509033203125" lon="19.96153316460549831390380859375">
        <ele>1160</ele>
        <time>2026-06-17T08:14:40.000Z</time>
        <extensions>
          <ns3:TrackPointExtension>
            <ns3:atemp>24.0</ns3:atemp>
          </ns3:TrackPointExtension>
        </extensions>
      </trkpt>
      <trkpt lat="42.54656556062400341033935546875" lon="19.96152453124523162841796875">
        <ele>1160.199951171875</ele>
        <time>2026-06-17T08:14:41.000Z</time>
        <extensions>
          <ns3:TrackPointExtension>
            <ns3:atemp>24.0</ns3:atemp>
          </ns3:TrackPointExtension>
        </extensions>
      </trkpt>
      <trkpt lat="42.546577714383602142333984375" lon="19.96152226813137531280517578125">
        <ele>1160.4000244140625</ele>
        <time>2026-06-17T08:14:42.000Z</time>
        <extensions>
          <ns3:TrackPointExtension>
            <ns3:atemp>24.0</ns3:atemp>
          </ns3:TrackPointExtension>
        </extensions>
      </trkpt>
      <trkpt lat="42.54658802412450313568115234375" lon="19.96152360923588275909423828125">
        <ele>1160.4000244140625</ele>
        <time>2026-06-17T08:14:43.000Z</time>
        <extensions>
          <ns3:TrackPointExtension>
            <ns3:atemp>24.0</ns3:atemp>
          </ns3:TrackPointExtension>
        </extensions>
      </trkpt>
      <trkpt lat="42.54660244099795818328857421875" lon="19.96152059175074100494384765625">
        <ele>1160.5999755859375</ele>
        <time>2026-06-17T08:14:44.000Z</time>
        <extensions>
          <ns3:TrackPointExtension>
            <ns3:atemp>24.0</ns3:atemp>
          </ns3:TrackPointExtension>
        </extensions>
      </trkpt>
      <trkpt lat="42.54662104882299900054931640625" lon="19.96151774190366268157958984375">
        <ele>1160.5999755859375</ele>
        <time>2026-06-17T08:14:45.000Z</time>
        <extensions>
          <ns3:TrackPointExtension>
            <ns3:atemp>24.0</ns3:atemp>
          </ns3:TrackPointExtension>
        </extensions>
      </trkpt>
      <trkpt lat="42.5466402433812618255615234375" lon="19.96151640079915523529052734375">
        <ele>1160.5999755859375</ele>
        <time>2026-06-17T08:14:46.000Z</time>
        <extensions>
          <ns3:TrackPointExtension>
            <ns3:atemp>24.0</ns3:atemp>
          </ns3:TrackPointExtension>
        </extensions>
      </trkpt>
      <trkpt lat="42.54666044376790523529052734375" lon="19.961512796580791473388671875">
        <ele>1160.5999755859375</ele>
        <time>2026-06-17T08:14:47.000Z</time>
        <extensions>
          <ns3:TrackPointExtension>
            <ns3:atemp>24.0</ns3:atemp>
          </ns3:TrackPointExtension>
        </extensions>
      </trkpt>
      <trkpt lat="42.54667402245104312896728515625" lon="19.9615069292485713958740234375">
        <ele>1160.800048828125</ele>
        <time>2026-06-17T08:14:48.000Z</time>
        <extensions>
          <ns3:TrackPointExtension>
            <ns3:atemp>24.0</ns3:atemp>
          </ns3:TrackPointExtension>
        </extensions>
      </trkpt>
      <trkpt lat="42.54668793641030788421630859375" lon="19.96150382794439792633056640625">
        <ele>1160.800048828125</ele>
        <time>2026-06-17T08:14:49.000Z</time>
        <extensions>
          <ns3:TrackPointExtension>
            <ns3:atemp>24.0</ns3:atemp>
          </ns3:TrackPointExtension>
        </extensions>
      </trkpt>
      <trkpt lat="42.54670537076890468597412109375" lon="19.9614985473453998565673828125">
        <ele>1161</ele>
        <time>2026-06-17T08:14:50.000Z</time>
        <extensions>
          <ns3:TrackPointExtension>
            <ns3:atemp>24.0</ns3:atemp>
          </ns3:TrackPointExtension>
        </extensions>
      </trkpt>
      <trkpt lat="42.5467213802039623260498046875" lon="19.96149376966059207916259765625">
        <ele>1161</ele>
        <time>2026-06-17T08:14:51.000Z</time>
        <extensions>
          <ns3:TrackPointExtension>
            <ns3:atemp>24.0</ns3:atemp>
          </ns3:TrackPointExtension>
        </extensions>
      </trkpt>
      <trkpt lat="42.54673755727708339691162109375" lon="19.96148237027227878570556640625">
        <ele>1161.199951171875</ele>
        <time>2026-06-17T08:14:52.000Z</time>
        <extensions>
          <ns3:TrackPointExtension>
            <ns3:atemp>24.0</ns3:atemp>
          </ns3:TrackPointExtension>
        </extensions>
      </trkpt>
      <trkpt lat="42.546752728521823883056640625" lon="19.96147382073104381561279296875">
        <ele>1161.4000244140625</ele>
        <time>2026-06-17T08:14:53.000Z</time>
        <extensions>
          <ns3:TrackPointExtension>
            <ns3:atemp>24.0</ns3:atemp>
          </ns3:TrackPointExtension>
        </extensions>
      </trkpt>
      <trkpt lat="42.54676924087107181549072265625" lon="19.96146543882787227630615234375">
        <ele>1161.5999755859375</ele>
        <time>2026-06-17T08:14:54.000Z</time>
        <extensions>
          <ns3:TrackPointExtension>
            <ns3:atemp>24.0</ns3:atemp>
          </ns3:TrackPointExtension>
        </extensions>
      </trkpt>
      <trkpt lat="42.54679203964769840240478515625" lon="19.9614532850682735443115234375">
        <ele>1161.800048828125</ele>
        <time>2026-06-17T08:14:55.000Z</time>
        <extensions>
          <ns3:TrackPointExtension>
            <ns3:atemp>24.0</ns3:atemp>
          </ns3:TrackPointExtension>
        </extensions>
      </trkpt>
      <trkpt lat="42.546815760433673858642578125" lon="19.96144532226026058197021484375">
        <ele>1162</ele>
        <time>2026-06-17T08:14:56.000Z</time>
        <extensions>
          <ns3:TrackPointExtension>
            <ns3:atemp>24.0</ns3:atemp>
          </ns3:TrackPointExtension>
        </extensions>
      </trkpt>
      <trkpt lat="42.54683713428676128387451171875" lon="19.96143400669097900390625">
        <ele>1162</ele>
        <time>2026-06-17T08:14:57.000Z</time>
        <extensions>
          <ns3:TrackPointExtension>
            <ns3:atemp>24.0</ns3:atemp>
          </ns3:TrackPointExtension>
        </extensions>
      </trkpt>
      <trkpt lat="42.54685708321630954742431640625" lon="19.96142269112169742584228515625">
        <ele>1162</ele>
        <time>2026-06-17T08:14:58.000Z</time>
        <extensions>
          <ns3:TrackPointExtension>
            <ns3:atemp>24.0</ns3:atemp>
          </ns3:TrackPointExtension>
        </extensions>
      </trkpt>
      <trkpt lat="42.5468771159648895263671875" lon="19.96141187846660614013671875">
        <ele>1162</ele>
        <time>2026-06-17T08:14:59.000Z</time>
        <extensions>
          <ns3:TrackPointExtension>
            <ns3:atemp>24.0</ns3:atemp>
          </ns3:TrackPointExtension>
        </extensions>
      </trkpt>
      <trkpt lat="42.546897567808628082275390625" lon="19.96140659786760807037353515625">
        <ele>1162</ele>
        <time>2026-06-17T08:15:00.000Z</time>
        <extensions>
          <ns3:TrackPointExtension>
            <ns3:atemp>24.0</ns3:atemp>
          </ns3:TrackPointExtension>
        </extensions>
      </trkpt>
      <trkpt lat="42.54691592417657375335693359375" lon="19.96139922179281711578369140625">
        <ele>1162</ele>
        <time>2026-06-17T08:15:01.000Z</time>
        <extensions>
          <ns3:TrackPointExtension>
            <ns3:atemp>24.0</ns3:atemp>
          </ns3:TrackPointExtension>
        </extensions>
      </trkpt>
      <trkpt lat="42.54693788476288318634033203125" lon="19.96139385737478733062744140625">
        <ele>1162</ele>
        <time>2026-06-17T08:15:02.000Z</time>
        <extensions>
          <ns3:TrackPointExtension>
            <ns3:atemp>24.0</ns3:atemp>
          </ns3:TrackPointExtension>
        </extensions>
      </trkpt>
      <trkpt lat="42.54696034826338291168212890625" lon="19.9613855592906475067138671875">
        <ele>1162.199951171875</ele>
        <time>2026-06-17T08:15:03.000Z</time>
        <extensions>
          <ns3:TrackPointExtension>
            <ns3:atemp>24.0</ns3:atemp>
          </ns3:TrackPointExtension>
        </extensions>
      </trkpt>
      <trkpt lat="42.546980716288089752197265625" lon="19.961378015577793121337890625">
        <ele>1162.199951171875</ele>
        <time>2026-06-17T08:15:04.000Z</time>
        <extensions>
          <ns3:TrackPointExtension>
            <ns3:atemp>24.0</ns3:atemp>
          </ns3:TrackPointExtension>
        </extensions>
      </trkpt>
      <trkpt lat="42.54699991084635257720947265625" lon="19.961363263428211212158203125">
        <ele>1162.199951171875</ele>
        <time>2026-06-17T08:15:05.000Z</time>
        <extensions>
          <ns3:TrackPointExtension>
            <ns3:atemp>24.0</ns3:atemp>
          </ns3:TrackPointExtension>
        </extensions>
      </trkpt>
      <trkpt lat="42.5470197759568691253662109375" lon="19.9613456614315509796142578125">
        <ele>1162.4000244140625</ele>
        <time>2026-06-17T08:15:06.000Z</time>
        <extensions>
          <ns3:TrackPointExtension>
            <ns3:atemp>24.0</ns3:atemp>
          </ns3:TrackPointExtension>
        </extensions>
      </trkpt>
      <trkpt lat="42.54703679122030735015869140625" lon="19.96132730506360530853271484375">
        <ele>1162.4000244140625</ele>
        <time>2026-06-17T08:15:07.000Z</time>
        <extensions>
          <ns3:TrackPointExtension>
            <ns3:atemp>24.0</ns3:atemp>
          </ns3:TrackPointExtension>
        </extensions>
      </trkpt>
      <trkpt lat="42.54705305211246013641357421875" lon="19.961302578449249267578125">
        <ele>1162.5999755859375</ele>
        <time>2026-06-17T08:15:08.000Z</time>
        <extensions>
          <ns3:TrackPointExtension>
            <ns3:atemp>24.0</ns3:atemp>
          </ns3:TrackPointExtension>
        </extensions>
      </trkpt>
      <trkpt lat="42.5470677204430103302001953125" lon="19.9612752534449100494384765625">
        <ele>1162.800048828125</ele>
        <time>2026-06-17T08:15:09.000Z</time>
        <extensions>
          <ns3:TrackPointExtension>
            <ns3:atemp>24.0</ns3:atemp>
          </ns3:TrackPointExtension>
        </extensions>
      </trkpt>
      <trkpt lat="42.54707149229943752288818359375" lon="19.96124583296477794647216796875">
        <ele>1163</ele>
        <time>2026-06-17T08:15:10.000Z</time>
        <extensions>
          <ns3:TrackPointExtension>
            <ns3:atemp>24.0</ns3:atemp>
          </ns3:TrackPointExtension>
        </extensions>
      </trkpt>
      <trkpt lat="42.54707165993750095367431640625" lon="19.96121766977012157440185546875">
        <ele>1163.199951171875</ele>
        <time>2026-06-17T08:15:11.000Z</time>
        <extensions>
          <ns3:TrackPointExtension>
            <ns3:atemp>24.0</ns3:atemp>
          </ns3:TrackPointExtension>
        </extensions>
      </trkpt>
      <trkpt lat="42.54706562496721744537353515625" lon="19.96118917129933834075927734375">
        <ele>1163.4000244140625</ele>
        <time>2026-06-17T08:15:12.000Z</time>
        <extensions>
          <ns3:TrackPointExtension>
            <ns3:atemp>24.0</ns3:atemp>
          </ns3:TrackPointExtension>
        </extensions>
      </trkpt>
      <trkpt lat="42.547053806483745574951171875" lon="19.96116939000785350799560546875">
        <ele>1163.4000244140625</ele>
        <time>2026-06-17T08:15:13.000Z</time>
        <extensions>
          <ns3:TrackPointExtension>
            <ns3:atemp>24.0</ns3:atemp>
          </ns3:TrackPointExtension>
        </extensions>
      </trkpt>
      <trkpt lat="42.54703880287706851959228515625" lon="19.9611612595617771148681640625">
        <ele>1163.5999755859375</ele>
        <time>2026-06-17T08:15:14.000Z</time>
        <extensions>
          <ns3:TrackPointExtension>
            <ns3:atemp>24.0</ns3:atemp>
          </ns3:TrackPointExtension>
        </extensions>
      </trkpt>
      <trkpt lat="42.54701985977590084075927734375" lon="19.96116109192371368408203125">
        <ele>1163.800048828125</ele>
        <time>2026-06-17T08:15:15.000Z</time>
        <extensions>
          <ns3:TrackPointExtension>
            <ns3:atemp>24.0</ns3:atemp>
          </ns3:TrackPointExtension>
        </extensions>
      </trkpt>
      <trkpt lat="42.54700376652181148529052734375" lon="19.96115975081920623779296875">
        <ele>1164</ele>
        <time>2026-06-17T08:15:16.000Z</time>
        <extensions>
          <ns3:TrackPointExtension>
            <ns3:atemp>24.0</ns3:atemp>
          </ns3:TrackPointExtension>
        </extensions>
      </trkpt>
      <trkpt lat="42.54699043929576873779296875" lon="19.961160086095333099365234375">
        <ele>1164.199951171875</ele>
        <time>2026-06-17T08:15:17.000Z</time>
        <extensions>
          <ns3:TrackPointExtension>
            <ns3:atemp>24.0</ns3:atemp>
          </ns3:TrackPointExtension>
        </extensions>
      </trkpt>
      <trkpt lat="42.54697761498391628265380859375" lon="19.9611599184572696685791015625">
        <ele>1164.5999755859375</ele>
        <time>2026-06-17T08:15:18.000Z</time>
        <extensions>
          <ns3:TrackPointExtension>
            <ns3:atemp>24.0</ns3:atemp>
          </ns3:TrackPointExtension>
        </extensions>
      </trkpt>
      <trkpt lat="42.54696571268141269683837890625" lon="19.96116335503756999969482421875">
        <ele>1164.800048828125</ele>
        <time>2026-06-17T08:15:19.000Z</time>
        <extensions>
          <ns3:TrackPointExtension>
            <ns3:atemp>24.0</ns3:atemp>
          </ns3:TrackPointExtension>
        </extensions>
      </trkpt>
      <trkpt lat="42.5469547323882579803466796875" lon="19.96116871945559978485107421875">
        <ele>1165</ele>
        <time>2026-06-17T08:15:20.000Z</time>
        <extensions>
          <ns3:TrackPointExtension>
            <ns3:atemp>24.0</ns3:atemp>
          </ns3:TrackPointExtension>
        </extensions>
      </trkpt>
      <trkpt lat="42.5469399802386760711669921875" lon="19.96117307804524898529052734375">
        <ele>1165.199951171875</ele>
        <time>2026-06-17T08:15:21.000Z</time>
        <extensions>
          <ns3:TrackPointExtension>
            <ns3:atemp>24.0</ns3:atemp>
          </ns3:TrackPointExtension>
        </extensions>
      </trkpt>
      <trkpt lat="42.54692413844168186187744140625" lon="19.9611778557300567626953125">
        <ele>1165.4000244140625</ele>
        <time>2026-06-17T08:15:22.000Z</time>
        <extensions>
          <ns3:TrackPointExtension>
            <ns3:atemp>24.0</ns3:atemp>
          </ns3:TrackPointExtension>
        </extensions>
      </trkpt>
      <trkpt lat="42.54690988920629024505615234375" lon="19.96118791401386260986328125">
        <ele>1165.5999755859375</ele>
        <time>2026-06-17T08:15:23.000Z</time>
        <extensions>
          <ns3:TrackPointExtension>
            <ns3:atemp>24.0</ns3:atemp>
          </ns3:TrackPointExtension>
        </extensions>
      </trkpt>
      <trkpt lat="42.5468963943421840667724609375" lon="19.9611998163163661956787109375">
        <ele>1165.800048828125</ele>
        <time>2026-06-17T08:15:24.000Z</time>
        <extensions>
          <ns3:TrackPointExtension>
            <ns3:atemp>24.0</ns3:atemp>
          </ns3:TrackPointExtension>
        </extensions>
      </trkpt>
      <trkpt lat="42.54688139073550701141357421875" lon="19.96121230535209178924560546875">
        <ele>1165.800048828125</ele>
        <time>2026-06-17T08:15:25.000Z</time>
        <extensions>
          <ns3:TrackPointExtension>
            <ns3:atemp>24.0</ns3:atemp>
          </ns3:TrackPointExtension>
        </extensions>
      </trkpt>
      <trkpt lat="42.54686714150011539459228515625" lon="19.96121884323656558990478515625">
        <ele>1166</ele>
        <time>2026-06-17T08:15:26.000Z</time>
        <extensions>
          <ns3:TrackPointExtension>
            <ns3:atemp>24.0</ns3:atemp>
          </ns3:TrackPointExtension>
        </extensions>
      </trkpt>
      <trkpt lat="42.5468529760837554931640625" lon="19.9612222798168659210205078125">
        <ele>1166.4000244140625</ele>
        <time>2026-06-17T08:15:27.000Z</time>
        <extensions>
          <ns3:TrackPointExtension>
            <ns3:atemp>24.0</ns3:atemp>
          </ns3:TrackPointExtension>
        </extensions>
      </trkpt>
      <trkpt lat="42.5468370504677295684814453125" lon="19.96122546494007110595703125">
        <ele>1166.5999755859375</ele>
        <time>2026-06-17T08:15:28.000Z</time>
        <extensions>
          <ns3:TrackPointExtension>
            <ns3:atemp>24.0</ns3:atemp>
          </ns3:TrackPointExtension>
        </extensions>
      </trkpt>
      <trkpt lat="42.5468222983181476593017578125" lon="19.96123141609132289886474609375">
        <ele>1166.800048828125</ele>
        <time>2026-06-17T08:15:29.000Z</time>
        <extensions>
          <ns3:TrackPointExtension>
            <ns3:atemp>24.0</ns3:atemp>
          </ns3:TrackPointExtension>
        </extensions>
      </trkpt>
      <trkpt lat="42.54680628888309001922607421875" lon="19.96123761869966983795166015625">
        <ele>1167</ele>
        <time>2026-06-17T08:15:30.000Z</time>
        <extensions>
          <ns3:TrackPointExtension>
            <ns3:atemp>24.0</ns3:atemp>
          </ns3:TrackPointExtension>
        </extensions>
      </trkpt>
      <trkpt lat="42.54679203964769840240478515625" lon="19.9612403847277164459228515625">
        <ele>1167.199951171875</ele>
        <time>2026-06-17T08:15:31.000Z</time>
        <extensions>
          <ns3:TrackPointExtension>
            <ns3:atemp>24.0</ns3:atemp>
          </ns3:TrackPointExtension>
        </extensions>
      </trkpt>
      <trkpt lat="42.546773850917816162109375" lon="19.96124180965125560760498046875">
        <ele>1167.5999755859375</ele>
        <time>2026-06-17T08:15:32.000Z</time>
        <extensions>
          <ns3:TrackPointExtension>
            <ns3:atemp>24.0</ns3:atemp>
          </ns3:TrackPointExtension>
        </extensions>
      </trkpt>
      <trkpt lat="42.5467545725405216217041015625" lon="19.96124281547963619232177734375">
        <ele>1167.800048828125</ele>
        <time>2026-06-17T08:15:33.000Z</time>
        <extensions>
          <ns3:TrackPointExtension>
            <ns3:atemp>24.0</ns3:atemp>
          </ns3:TrackPointExtension>
        </extensions>
      </trkpt>
      <trkpt lat="42.54673453979194164276123046875" lon="19.96124499477446079254150390625">
        <ele>1168</ele>
        <time>2026-06-17T08:15:34.000Z</time>
        <extensions>
          <ns3:TrackPointExtension>
            <ns3:atemp>24.0</ns3:atemp>
          </ns3:TrackPointExtension>
        </extensions>
      </trkpt>
      <trkpt lat="42.54671609960496425628662109375" lon="19.9612460844218730926513671875">
        <ele>1168.199951171875</ele>
        <time>2026-06-17T08:15:35.000Z</time>
        <extensions>
          <ns3:TrackPointExtension>
            <ns3:atemp>24.0</ns3:atemp>
          </ns3:TrackPointExtension>
        </extensions>
      </trkpt>
      <trkpt lat="42.54669866524636745452880859375" lon="19.96124566532671451568603515625">
        <ele>1168.4000244140625</ele>
        <time>2026-06-17T08:15:36.000Z</time>
        <extensions>
          <ns3:TrackPointExtension>
            <ns3:atemp>24.0</ns3:atemp>
          </ns3:TrackPointExtension>
        </extensions>
      </trkpt>
      <trkpt lat="42.54667938686907291412353515625" lon="19.9612467549741268157958984375">
        <ele>1168.5999755859375</ele>
        <time>2026-06-17T08:15:37.000Z</time>
        <extensions>
          <ns3:TrackPointExtension>
            <ns3:atemp>24.0</ns3:atemp>
          </ns3:TrackPointExtension>
        </extensions>
      </trkpt>
      <trkpt lat="42.54666061140596866607666015625" lon="19.96124750934541225433349609375">
        <ele>1168.5999755859375</ele>
        <time>2026-06-17T08:15:38.000Z</time>
        <extensions>
          <ns3:TrackPointExtension>
            <ns3:atemp>24.0</ns3:atemp>
          </ns3:TrackPointExtension>
        </extensions>
      </trkpt>
      <trkpt lat="42.54664300940930843353271484375" lon="19.96124801225960254669189453125">
        <ele>1168.800048828125</ele>
        <time>2026-06-17T08:15:39.000Z</time>
        <extensions>
          <ns3:TrackPointExtension>
            <ns3:atemp>24.0</ns3:atemp>
          </ns3:TrackPointExtension>
        </extensions>
      </trkpt>
      <trkpt lat="42.54662775434553623199462890625" lon="19.9612464196979999542236328125">
        <ele>1169</ele>
        <time>2026-06-17T08:15:40.000Z</time>
        <extensions>
          <ns3:TrackPointExtension>
            <ns3:atemp>24.0</ns3:atemp>
          </ns3:TrackPointExtension>
        </extensions>
      </trkpt>
      <trkpt lat="42.546614594757556915283203125" lon="19.96124826371669769287109375">
        <ele>1169.199951171875</ele>
        <time>2026-06-17T08:15:41.000Z</time>
        <extensions>
          <ns3:TrackPointExtension>
            <ns3:atemp>24.0</ns3:atemp>
          </ns3:TrackPointExtension>
        </extensions>
      </trkpt>
      <trkpt lat="42.54659950733184814453125" lon="19.9612511135637760162353515625">
        <ele>1169.4000244140625</ele>
        <time>2026-06-17T08:15:42.000Z</time>
        <extensions>
          <ns3:TrackPointExtension>
            <ns3:atemp>24.0</ns3:atemp>
          </ns3:TrackPointExtension>
        </extensions>
      </trkpt>
      <trkpt lat="42.54658416844904422760009765625" lon="19.96125019155442714691162109375">
        <ele>1169.800048828125</ele>
        <time>2026-06-17T08:15:43.000Z</time>
        <extensions>
          <ns3:TrackPointExtension>
            <ns3:atemp>24.0</ns3:atemp>
          </ns3:TrackPointExtension>
        </extensions>
      </trkpt>
      <trkpt lat="42.54656522534787654876708984375" lon="19.9612507782876491546630859375">
        <ele>1170</ele>
        <time>2026-06-17T08:15:44.000Z</time>
        <extensions>
          <ns3:TrackPointExtension>
            <ns3:atemp>24.0</ns3:atemp>
          </ns3:TrackPointExtension>
        </extensions>
      </trkpt>
      <trkpt lat="42.54654661752283573150634765625" lon="19.96125153265893459320068359375">
        <ele>1170.199951171875</ele>
        <time>2026-06-17T08:15:45.000Z</time>
        <extensions>
          <ns3:TrackPointExtension>
            <ns3:atemp>24.0</ns3:atemp>
          </ns3:TrackPointExtension>
        </extensions>
      </trkpt>
      <trkpt lat="42.5465299375355243682861328125" lon="19.96124935336410999298095703125">
        <ele>1170.4000244140625</ele>
        <time>2026-06-17T08:15:46.000Z</time>
        <extensions>
          <ns3:TrackPointExtension>
            <ns3:atemp>24.0</ns3:atemp>
          </ns3:TrackPointExtension>
        </extensions>
      </trkpt>
      <trkpt lat="42.54651241935789585113525390625" lon="19.961245246231555938720703125">
        <ele>1170.4000244140625</ele>
        <time>2026-06-17T08:15:47.000Z</time>
        <extensions>
          <ns3:TrackPointExtension>
            <ns3:atemp>24.0</ns3:atemp>
          </ns3:TrackPointExtension>
        </extensions>
      </trkpt>
      <trkpt lat="42.5464974157512187957763671875" lon="19.96123996563255786895751953125">
        <ele>1170.5999755859375</ele>
        <time>2026-06-17T08:15:48.000Z</time>
        <extensions>
          <ns3:TrackPointExtension>
            <ns3:atemp>24.0</ns3:atemp>
          </ns3:TrackPointExtension>
        </extensions>
      </trkpt>
      <trkpt lat="42.5464801490306854248046875" lon="19.9612353555858135223388671875">
        <ele>1170.800048828125</ele>
        <time>2026-06-17T08:15:49.000Z</time>
        <extensions>
          <ns3:TrackPointExtension>
            <ns3:atemp>24.0</ns3:atemp>
          </ns3:TrackPointExtension>
        </extensions>
      </trkpt>
      <trkpt lat="42.546462714672088623046875" lon="19.96123510412871837615966796875">
        <ele>1170.800048828125</ele>
        <time>2026-06-17T08:15:50.000Z</time>
        <extensions>
          <ns3:TrackPointExtension>
            <ns3:atemp>24.0</ns3:atemp>
          </ns3:TrackPointExtension>
        </extensions>
      </trkpt>
      <trkpt lat="42.54644821397960186004638671875" lon="19.9612333439290523529052734375">
        <ele>1171</ele>
        <time>2026-06-17T08:15:51.000Z</time>
        <extensions>
          <ns3:TrackPointExtension>
            <ns3:atemp>24.0</ns3:atemp>
          </ns3:TrackPointExtension>
        </extensions>
      </trkpt>
      <trkpt lat="42.5464330427348613739013671875" lon="19.96122839860618114471435546875">
        <ele>1171.199951171875</ele>
        <time>2026-06-17T08:15:52.000Z</time>
        <extensions>
          <ns3:TrackPointExtension>
            <ns3:atemp>24.0</ns3:atemp>
          </ns3:TrackPointExtension>
        </extensions>
      </trkpt>
      <trkpt lat="42.54641854204237461090087890625" lon="19.96122387237846851348876953125">
        <ele>1171.4000244140625</ele>
        <time>2026-06-17T08:15:53.000Z</time>
        <extensions>
          <ns3:TrackPointExtension>
            <ns3:atemp>24.0</ns3:atemp>
          </ns3:TrackPointExtension>
        </extensions>
      </trkpt>
      <trkpt lat="42.54640194587409496307373046875" lon="19.9612179212272167205810546875">
        <ele>1171.5999755859375</ele>
        <time>2026-06-17T08:15:54.000Z</time>
        <extensions>
          <ns3:TrackPointExtension>
            <ns3:atemp>24.0</ns3:atemp>
          </ns3:TrackPointExtension>
        </extensions>
      </trkpt>
      <trkpt lat="42.5463897921144962310791015625" lon="19.96120744384825229644775390625">
        <ele>1171.800048828125</ele>
        <time>2026-06-17T08:15:55.000Z</time>
        <extensions>
          <ns3:TrackPointExtension>
            <ns3:atemp>24.0</ns3:atemp>
          </ns3:TrackPointExtension>
        </extensions>
      </trkpt>
      <trkpt lat="42.54637428559362888336181640625" lon="19.961195625364780426025390625">
        <ele>1172</ele>
        <time>2026-06-17T08:15:56.000Z</time>
        <extensions>
          <ns3:TrackPointExtension>
            <ns3:atemp>24.0</ns3:atemp>
          </ns3:TrackPointExtension>
        </extensions>
      </trkpt>
      <trkpt lat="42.54635651595890522003173828125" lon="19.9611850641667842864990234375">
        <ele>1172.199951171875</ele>
        <time>2026-06-17T08:15:57.000Z</time>
        <extensions>
          <ns3:TrackPointExtension>
            <ns3:atemp>24.0</ns3:atemp>
          </ns3:TrackPointExtension>
        </extensions>
      </trkpt>
      <trkpt lat="42.54633975215256214141845703125" lon="19.96117341332137584686279296875">
        <ele>1172.4000244140625</ele>
        <time>2026-06-17T08:15:58.000Z</time>
        <extensions>
          <ns3:TrackPointExtension>
            <ns3:atemp>24.0</ns3:atemp>
          </ns3:TrackPointExtension>
        </extensions>
      </trkpt>
      <trkpt lat="42.54632248543202877044677734375" lon="19.9611644446849822998046875">
        <ele>1172.4000244140625</ele>
        <time>2026-06-17T08:15:59.000Z</time>
        <extensions>
          <ns3:TrackPointExtension>
            <ns3:atemp>24.0</ns3:atemp>
          </ns3:TrackPointExtension>
        </extensions>
      </trkpt>
      <trkpt lat="42.54630647599697113037109375" lon="19.96115346439182758331298828125">
        <ele>1172.4000244140625</ele>
        <time>2026-06-17T08:16:00.000Z</time>
        <extensions>
          <ns3:TrackPointExtension>
            <ns3:atemp>24.0</ns3:atemp>
          </ns3:TrackPointExtension>
        </extensions>
      </trkpt>
      <trkpt lat="42.54629029892385005950927734375" lon="19.961147010326385498046875">
        <ele>1172.4000244140625</ele>
        <time>2026-06-17T08:16:01.000Z</time>
        <extensions>
          <ns3:TrackPointExtension>
            <ns3:atemp>24.0</ns3:atemp>
          </ns3:TrackPointExtension>
        </extensions>
      </trkpt>
      <trkpt lat="42.546273283660411834716796875" lon="19.9611389636993408203125">
        <ele>1172.5999755859375</ele>
        <time>2026-06-17T08:16:02.000Z</time>
        <extensions>
          <ns3:TrackPointExtension>
            <ns3:atemp>24.0</ns3:atemp>
          </ns3:TrackPointExtension>
        </extensions>
      </trkpt>
      <trkpt lat="42.54625727422535419464111328125" lon="19.9611270613968372344970703125">
        <ele>1172.5999755859375</ele>
        <time>2026-06-17T08:16:03.000Z</time>
        <extensions>
          <ns3:TrackPointExtension>
            <ns3:atemp>24.0</ns3:atemp>
          </ns3:TrackPointExtension>
        </extensions>
      </trkpt>
      <trkpt lat="42.5462422706186771392822265625" lon="19.96111415326595306396484375">
        <ele>1172.800048828125</ele>
        <time>2026-06-17T08:16:04.000Z</time>
        <extensions>
          <ns3:TrackPointExtension>
            <ns3:atemp>24.0</ns3:atemp>
          </ns3:TrackPointExtension>
        </extensions>
      </trkpt>
      <trkpt lat="42.54622399806976318359375" lon="19.96110635809600353240966796875">
        <ele>1172.800048828125</ele>
        <time>2026-06-17T08:16:05.000Z</time>
        <extensions>
          <ns3:TrackPointExtension>
            <ns3:atemp>24.0</ns3:atemp>
          </ns3:TrackPointExtension>
        </extensions>
      </trkpt>
      <trkpt lat="42.54620564170181751251220703125" lon="19.96109998784959316253662109375">
        <ele>1173</ele>
        <time>2026-06-17T08:16:06.000Z</time>
        <extensions>
          <ns3:TrackPointExtension>
            <ns3:atemp>24.0</ns3:atemp>
          </ns3:TrackPointExtension>
        </extensions>
      </trkpt>
      <trkpt lat="42.5461856089532375335693359375" lon="19.961095713078975677490234375">
        <ele>1173</ele>
        <time>2026-06-17T08:16:07.000Z</time>
        <extensions>
          <ns3:TrackPointExtension>
            <ns3:atemp>24.0</ns3:atemp>
          </ns3:TrackPointExtension>
        </extensions>
      </trkpt>
      <trkpt lat="42.5461688451468944549560546875" lon="19.96109043247997760772705078125">
        <ele>1173.199951171875</ele>
        <time>2026-06-17T08:16:08.000Z</time>
        <extensions>
          <ns3:TrackPointExtension>
            <ns3:atemp>24.0</ns3:atemp>
          </ns3:TrackPointExtension>
        </extensions>
      </trkpt>
      <trkpt lat="42.5461517460644245147705078125" lon="19.9610858224332332611083984375">
        <ele>1173.4000244140625</ele>
        <time>2026-06-17T08:16:09.000Z</time>
        <extensions>
          <ns3:TrackPointExtension>
            <ns3:atemp>24.0</ns3:atemp>
          </ns3:TrackPointExtension>
        </extensions>
      </trkpt>
      <trkpt lat="42.54613556899130344390869140625" lon="19.96108188293874263763427734375">
        <ele>1173.4000244140625</ele>
        <time>2026-06-17T08:16:10.000Z</time>
        <extensions>
          <ns3:TrackPointExtension>
            <ns3:atemp>24.0</ns3:atemp>
          </ns3:TrackPointExtension>
        </extensions>
      </trkpt>
      <trkpt lat="42.54611612297594547271728515625" lon="19.9610838107764720916748046875">
        <ele>1173.5999755859375</ele>
        <time>2026-06-17T08:16:11.000Z</time>
        <extensions>
          <ns3:TrackPointExtension>
            <ns3:atemp>24.0</ns3:atemp>
          </ns3:TrackPointExtension>
        </extensions>
      </trkpt>
      <trkpt lat="42.54609650932252407073974609375" lon="19.96108557097613811492919921875">
        <ele>1173.800048828125</ele>
        <time>2026-06-17T08:16:12.000Z</time>
        <extensions>
          <ns3:TrackPointExtension>
            <ns3:atemp>24.0</ns3:atemp>
          </ns3:TrackPointExtension>
        </extensions>
      </trkpt>
      <trkpt lat="42.5460751354694366455078125" lon="19.961086325347423553466796875">
        <ele>1173.800048828125</ele>
        <time>2026-06-17T08:16:13.000Z</time>
        <extensions>
          <ns3:TrackPointExtension>
            <ns3:atemp>24.0</ns3:atemp>
          </ns3:TrackPointExtension>
        </extensions>
      </trkpt>
      <trkpt lat="42.54605644382536411285400390625" lon="19.96108909137547016143798828125">
        <ele>1174</ele>
        <time>2026-06-17T08:16:14.000Z</time>
        <extensions>
          <ns3:TrackPointExtension>
            <ns3:atemp>24.0</ns3:atemp>
          </ns3:TrackPointExtension>
        </extensions>
      </trkpt>
      <trkpt lat="42.54603733308613300323486328125" lon="19.96109361760318279266357421875">
        <ele>1174.199951171875</ele>
        <time>2026-06-17T08:16:15.000Z</time>
        <extensions>
          <ns3:TrackPointExtension>
            <ns3:atemp>24.0</ns3:atemp>
          </ns3:TrackPointExtension>
        </extensions>
      </trkpt>
      <trkpt lat="42.546017132699489593505859375" lon="19.9610992334783077239990234375">
        <ele>1174.5999755859375</ele>
        <time>2026-06-17T08:16:16.000Z</time>
        <extensions>
          <ns3:TrackPointExtension>
            <ns3:atemp>24.0</ns3:atemp>
          </ns3:TrackPointExtension>
        </extensions>
      </trkpt>
      <trkpt lat="42.5460015423595905303955078125" lon="19.9611025862395763397216796875">
        <ele>1174.800048828125</ele>
        <time>2026-06-17T08:16:17.000Z</time>
        <extensions>
          <ns3:TrackPointExtension>
            <ns3:atemp>24.0</ns3:atemp>
          </ns3:TrackPointExtension>
        </extensions>
      </trkpt>
      <trkpt lat="42.54598234780132770538330078125" lon="19.96110887266695499420166015625">
        <ele>1175.199951171875</ele>
        <time>2026-06-17T08:16:18.000Z</time>
        <extensions>
          <ns3:TrackPointExtension>
            <ns3:atemp>24.0</ns3:atemp>
          </ns3:TrackPointExtension>
        </extensions>
      </trkpt>
      <trkpt lat="42.54596424289047718048095703125" lon="19.96111105196177959442138671875">
        <ele>1175.5999755859375</ele>
        <time>2026-06-17T08:16:19.000Z</time>
        <extensions>
          <ns3:TrackPointExtension>
            <ns3:atemp>24.0</ns3:atemp>
          </ns3:TrackPointExtension>
        </extensions>
      </trkpt>
      <trkpt lat="42.54594664089381694793701171875" lon="19.96111239306628704071044921875">
        <ele>1175.800048828125</ele>
        <time>2026-06-17T08:16:20.000Z</time>
        <extensions>
          <ns3:TrackPointExtension>
            <ns3:atemp>24.0</ns3:atemp>
          </ns3:TrackPointExtension>
        </extensions>
      </trkpt>
      <trkpt lat="42.54593004472553730010986328125" lon="19.961116500198841094970703125">
        <ele>1176</ele>
        <time>2026-06-17T08:16:21.000Z</time>
        <extensions>
          <ns3:TrackPointExtension>
            <ns3:atemp>24.0</ns3:atemp>
          </ns3:TrackPointExtension>
        </extensions>
      </trkpt>
      <trkpt lat="42.54591277800500392913818359375" lon="19.96111683547496795654296875">
        <ele>1176.199951171875</ele>
        <time>2026-06-17T08:16:22.000Z</time>
        <extensions>
          <ns3:TrackPointExtension>
            <ns3:atemp>24.0</ns3:atemp>
          </ns3:TrackPointExtension>
        </extensions>
      </trkpt>
      <trkpt lat="42.54589316435158252716064453125" lon="19.9611186794936656951904296875">
        <ele>1176.4000244140625</ele>
        <time>2026-06-17T08:16:23.000Z</time>
        <extensions>
          <ns3:TrackPointExtension>
            <ns3:atemp>24.0</ns3:atemp>
          </ns3:TrackPointExtension>
        </extensions>
      </trkpt>
      <trkpt lat="42.54587053321301937103271484375" lon="19.96112228371202945709228515625">
        <ele>1176.5999755859375</ele>
        <time>2026-06-17T08:16:24.000Z</time>
        <extensions>
          <ns3:TrackPointExtension>
            <ns3:atemp>24.0</ns3:atemp>
          </ns3:TrackPointExtension>
        </extensions>
      </trkpt>
      <trkpt lat="42.5458471477031707763671875" lon="19.96112714521586894989013671875">
        <ele>1176.800048828125</ele>
        <time>2026-06-17T08:16:25.000Z</time>
        <extensions>
          <ns3:TrackPointExtension>
            <ns3:atemp>24.0</ns3:atemp>
          </ns3:TrackPointExtension>
        </extensions>
      </trkpt>
      <trkpt lat="42.54582904279232025146484375" lon="19.96112831868231296539306640625">
        <ele>1177</ele>
        <time>2026-06-17T08:16:26.000Z</time>
        <extensions>
          <ns3:TrackPointExtension>
            <ns3:atemp>24.0</ns3:atemp>
          </ns3:TrackPointExtension>
        </extensions>
      </trkpt>
      <trkpt lat="42.5458117760717868804931640625" lon="19.96112664230167865753173828125">
        <ele>1177.199951171875</ele>
        <time>2026-06-17T08:16:27.000Z</time>
        <extensions>
          <ns3:TrackPointExtension>
            <ns3:atemp>24.0</ns3:atemp>
          </ns3:TrackPointExtension>
        </extensions>
      </trkpt>
      <trkpt lat="42.54579710774123668670654296875" lon="19.96112546883523464202880859375">
        <ele>1177.4000244140625</ele>
        <time>2026-06-17T08:16:28.000Z</time>
        <extensions>
          <ns3:TrackPointExtension>
            <ns3:atemp>24.0</ns3:atemp>
          </ns3:TrackPointExtension>
        </extensions>
      </trkpt>
      <trkpt lat="42.545778751373291015625" lon="19.9611268937587738037109375">
        <ele>1177.4000244140625</ele>
        <time>2026-06-17T08:16:29.000Z</time>
        <extensions>
          <ns3:TrackPointExtension>
            <ns3:atemp>24.0</ns3:atemp>
          </ns3:TrackPointExtension>
        </extensions>
      </trkpt>
      <trkpt lat="42.545761652290821075439453125" lon="19.96112756431102752685546875">
        <ele>1177.5999755859375</ele>
        <time>2026-06-17T08:16:30.000Z</time>
        <extensions>
          <ns3:TrackPointExtension>
            <ns3:atemp>24.0</ns3:atemp>
          </ns3:TrackPointExtension>
        </extensions>
      </trkpt>
      <trkpt lat="42.54574530757963657379150390625" lon="19.9611270613968372344970703125">
        <ele>1177.800048828125</ele>
        <time>2026-06-17T08:16:31.000Z</time>
        <extensions>
          <ns3:TrackPointExtension>
            <ns3:atemp>24.0</ns3:atemp>
          </ns3:TrackPointExtension>
        </extensions>
      </trkpt>
      <trkpt lat="42.54572452045977115631103515625" lon="19.96113049797713756561279296875">
        <ele>1178</ele>
        <time>2026-06-17T08:16:32.000Z</time>
        <extensions>
          <ns3:TrackPointExtension>
            <ns3:atemp>24.0</ns3:atemp>
          </ns3:TrackPointExtension>
        </extensions>
      </trkpt>
      <trkpt lat="42.54570574499666690826416015625" lon="19.9611334316432476043701171875">
        <ele>1178.199951171875</ele>
        <time>2026-06-17T08:16:33.000Z</time>
        <extensions>
          <ns3:TrackPointExtension>
            <ns3:atemp>24.0</ns3:atemp>
          </ns3:TrackPointExtension>
        </extensions>
      </trkpt>
      <trkpt lat="42.54568755626678466796875" lon="19.96113267727196216583251953125">
        <ele>1178.4000244140625</ele>
        <time>2026-06-17T08:16:34.000Z</time>
        <extensions>
          <ns3:TrackPointExtension>
            <ns3:atemp>24.0</ns3:atemp>
          </ns3:TrackPointExtension>
        </extensions>
      </trkpt>
      <trkpt lat="42.54567204974591732025146484375" lon="19.96113033033907413482666015625">
        <ele>1178.5999755859375</ele>
        <time>2026-06-17T08:16:35.000Z</time>
        <extensions>
          <ns3:TrackPointExtension>
            <ns3:atemp>24.0</ns3:atemp>
          </ns3:TrackPointExtension>
        </extensions>
      </trkpt>
      <trkpt lat="42.54565411247313022613525390625" lon="19.9611341021955013275146484375">
        <ele>1178.800048828125</ele>
        <time>2026-06-17T08:16:36.000Z</time>
        <extensions>
          <ns3:TrackPointExtension>
            <ns3:atemp>24.0</ns3:atemp>
          </ns3:TrackPointExtension>
        </extensions>
      </trkpt>
      <trkpt lat="42.545634917914867401123046875" lon="19.961137957870960235595703125">
        <ele>1179</ele>
        <time>2026-06-17T08:16:37.000Z</time>
        <extensions>
          <ns3:TrackPointExtension>
            <ns3:atemp>24.0</ns3:atemp>
          </ns3:TrackPointExtension>
        </extensions>
      </trkpt>
      <trkpt lat="42.54561890847980976104736328125" lon="19.9611351080238819122314453125">
        <ele>1179.199951171875</ele>
        <time>2026-06-17T08:16:38.000Z</time>
        <extensions>
          <ns3:TrackPointExtension>
            <ns3:atemp>24.0</ns3:atemp>
          </ns3:TrackPointExtension>
        </extensions>
      </trkpt>
      <trkpt lat="42.54560197703540325164794921875" lon="19.961131922900676727294921875">
        <ele>1179.199951171875</ele>
        <time>2026-06-17T08:16:39.000Z</time>
        <extensions>
          <ns3:TrackPointExtension>
            <ns3:atemp>24.0</ns3:atemp>
          </ns3:TrackPointExtension>
        </extensions>
      </trkpt>
      <trkpt lat="42.54558403976261615753173828125" lon="19.96113636530935764312744140625">
        <ele>1179.4000244140625</ele>
        <time>2026-06-17T08:16:40.000Z</time>
        <extensions>
          <ns3:TrackPointExtension>
            <ns3:atemp>24.0</ns3:atemp>
          </ns3:TrackPointExtension>
        </extensions>
      </trkpt>
      <trkpt lat="42.54556761123239994049072265625" lon="19.9611381255090236663818359375">
        <ele>1179.4000244140625</ele>
        <time>2026-06-17T08:16:41.000Z</time>
        <extensions>
          <ns3:TrackPointExtension>
            <ns3:atemp>24.0</ns3:atemp>
          </ns3:TrackPointExtension>
        </extensions>
      </trkpt>
      <trkpt lat="42.54555587656795978546142578125" lon="19.96113921515643596649169921875">
        <ele>1179.5999755859375</ele>
        <time>2026-06-17T08:16:42.000Z</time>
        <extensions>
          <ns3:TrackPointExtension>
            <ns3:atemp>24.0</ns3:atemp>
          </ns3:TrackPointExtension>
        </extensions>
      </trkpt>
      <trkpt lat="42.54553743638098239898681640625" lon="19.9611424840986728668212890625">
        <ele>1179.800048828125</ele>
        <time>2026-06-17T08:16:43.000Z</time>
        <extensions>
          <ns3:TrackPointExtension>
            <ns3:atemp>24.0</ns3:atemp>
          </ns3:TrackPointExtension>
        </extensions>
      </trkpt>
      <trkpt lat="42.54551924765110015869140625" lon="19.961142651736736297607421875">
        <ele>1180</ele>
        <time>2026-06-17T08:16:44.000Z</time>
        <extensions>
          <ns3:TrackPointExtension>
            <ns3:atemp>24.0</ns3:atemp>
          </ns3:TrackPointExtension>
        </extensions>
      </trkpt>
      <trkpt lat="42.5455026514828205108642578125" lon="19.9611431546509265899658203125">
        <ele>1180.199951171875</ele>
        <time>2026-06-17T08:16:45.000Z</time>
        <extensions>
          <ns3:TrackPointExtension>
            <ns3:atemp>24.0</ns3:atemp>
          </ns3:TrackPointExtension>
        </extensions>
      </trkpt>
      <trkpt lat="42.54548303782939910888671875" lon="19.96114759705960750579833984375">
        <ele>1180.4000244140625</ele>
        <time>2026-06-17T08:16:46.000Z</time>
        <extensions>
          <ns3:TrackPointExtension>
            <ns3:atemp>24.0</ns3:atemp>
          </ns3:TrackPointExtension>
        </extensions>
      </trkpt>
      <trkpt lat="42.545463927090167999267578125" lon="19.9611512012779712677001953125">
        <ele>1180.4000244140625</ele>
        <time>2026-06-17T08:16:47.000Z</time>
        <extensions>
          <ns3:TrackPointExtension>
            <ns3:atemp>24.0</ns3:atemp>
          </ns3:TrackPointExtension>
        </extensions>
      </trkpt>
      <trkpt lat="42.5454439781606197357177734375" lon="19.96115648187696933746337890625">
        <ele>1180.5999755859375</ele>
        <time>2026-06-17T08:16:48.000Z</time>
        <extensions>
          <ns3:TrackPointExtension>
            <ns3:atemp>24.0</ns3:atemp>
          </ns3:TrackPointExtension>
        </extensions>
      </trkpt>
      <trkpt lat="42.54542444832623004913330078125" lon="19.9611639417707920074462890625">
        <ele>1180.5999755859375</ele>
        <time>2026-06-17T08:16:49.000Z</time>
        <extensions>
          <ns3:TrackPointExtension>
            <ns3:atemp>24.0</ns3:atemp>
          </ns3:TrackPointExtension>
        </extensions>
      </trkpt>
      <trkpt lat="42.54540718160569667816162109375" lon="19.96117182075977325439453125">
        <ele>1180.5999755859375</ele>
        <time>2026-06-17T08:16:50.000Z</time>
        <extensions>
          <ns3:TrackPointExtension>
            <ns3:atemp>24.0</ns3:atemp>
          </ns3:TrackPointExtension>
        </extensions>
      </trkpt>
      <trkpt lat="42.545388154685497283935546875" lon="19.96118313632905483245849609375">
        <ele>1180.800048828125</ele>
        <time>2026-06-17T08:16:51.000Z</time>
        <extensions>
          <ns3:TrackPointExtension>
            <ns3:atemp>24.0</ns3:atemp>
          </ns3:TrackPointExtension>
        </extensions>
      </trkpt>
      <trkpt lat="42.545372731983661651611328125" lon="19.96119084767997264862060546875">
        <ele>1181</ele>
        <time>2026-06-17T08:16:52.000Z</time>
        <extensions>
          <ns3:TrackPointExtension>
            <ns3:atemp>24.0</ns3:atemp>
          </ns3:TrackPointExtension>
        </extensions>
      </trkpt>
      <trkpt lat="42.54535621963441371917724609375" lon="19.961195625364780426025390625">
        <ele>1181</ele>
        <time>2026-06-17T08:16:53.000Z</time>
        <extensions>
          <ns3:TrackPointExtension>
            <ns3:atemp>24.0</ns3:atemp>
          </ns3:TrackPointExtension>
        </extensions>
      </trkpt>
      <trkpt lat="42.5453393720090389251708984375" lon="19.9612019956111907958984375">
        <ele>1181.199951171875</ele>
        <time>2026-06-17T08:16:54.000Z</time>
        <extensions>
          <ns3:TrackPointExtension>
            <ns3:atemp>24.0</ns3:atemp>
          </ns3:TrackPointExtension>
        </extensions>
      </trkpt>
      <trkpt lat="42.5453219376504421234130859375" lon="19.9612118862569332122802734375">
        <ele>1181.4000244140625</ele>
        <time>2026-06-17T08:16:55.000Z</time>
        <extensions>
          <ns3:TrackPointExtension>
            <ns3:atemp>24.0</ns3:atemp>
          </ns3:TrackPointExtension>
        </extensions>
      </trkpt>
      <trkpt lat="42.5453041680157184600830078125" lon="19.9612202681601047515869140625">
        <ele>1181.4000244140625</ele>
        <time>2026-06-17T08:16:56.000Z</time>
        <extensions>
          <ns3:TrackPointExtension>
            <ns3:atemp>24.0</ns3:atemp>
          </ns3:TrackPointExtension>
        </extensions>
      </trkpt>
      <trkpt lat="42.5452880747616291046142578125" lon="19.96122621931135654449462890625">
        <ele>1181.5999755859375</ele>
        <time>2026-06-17T08:16:57.000Z</time>
        <extensions>
          <ns3:TrackPointExtension>
            <ns3:atemp>24.0</ns3:atemp>
          </ns3:TrackPointExtension>
        </extensions>
      </trkpt>
      <trkpt lat="42.545276172459125518798828125" lon="19.96122538112103939056396484375">
        <ele>1181.800048828125</ele>
        <time>2026-06-17T08:16:58.000Z</time>
        <extensions>
          <ns3:TrackPointExtension>
            <ns3:atemp>24.0</ns3:atemp>
          </ns3:TrackPointExtension>
        </extensions>
      </trkpt>
      <trkpt lat="42.5452585704624652862548828125" lon="19.96122756041586399078369140625">
        <ele>1182</ele>
        <time>2026-06-17T08:16:59.000Z</time>
        <extensions>
          <ns3:TrackPointExtension>
            <ns3:atemp>24.0</ns3:atemp>
          </ns3:TrackPointExtension>
        </extensions>
      </trkpt>
      <trkpt lat="42.54524457268416881561279296875" lon="19.96123351156711578369140625">
        <ele>1182.199951171875</ele>
        <time>2026-06-17T08:17:00.000Z</time>
        <extensions>
          <ns3:TrackPointExtension>
            <ns3:atemp>24.0</ns3:atemp>
          </ns3:TrackPointExtension>
        </extensions>
      </trkpt>
      <trkpt lat="42.5452320836484432220458984375" lon="19.961236529052257537841796875">
        <ele>1182.4000244140625</ele>
        <time>2026-06-17T08:17:01.000Z</time>
        <extensions>
          <ns3:TrackPointExtension>
            <ns3:atemp>24.0</ns3:atemp>
          </ns3:TrackPointExtension>
        </extensions>
      </trkpt>
      <trkpt lat="42.54521925933659076690673828125" lon="19.96124147437512874603271484375">
        <ele>1182.4000244140625</ele>
        <time>2026-06-17T08:17:02.000Z</time>
        <extensions>
          <ns3:TrackPointExtension>
            <ns3:atemp>24.0</ns3:atemp>
          </ns3:TrackPointExtension>
        </extensions>
      </trkpt>
      <trkpt lat="42.54520484246313571929931640625" lon="19.9612460844218730926513671875">
        <ele>1182.5999755859375</ele>
        <time>2026-06-17T08:17:03.000Z</time>
        <extensions>
          <ns3:TrackPointExtension>
            <ns3:atemp>24.0</ns3:atemp>
          </ns3:TrackPointExtension>
        </extensions>
      </trkpt>
      <trkpt lat="42.54519143141806125640869140625" lon="19.9612475931644439697265625">
        <ele>1182.800048828125</ele>
        <time>2026-06-17T08:17:04.000Z</time>
        <extensions>
          <ns3:TrackPointExtension>
            <ns3:atemp>24.0</ns3:atemp>
          </ns3:TrackPointExtension>
        </extensions>
      </trkpt>
      <trkpt lat="42.5451767630875110626220703125" lon="19.9612497724592685699462890625">
        <ele>1182.800048828125</ele>
        <time>2026-06-17T08:17:05.000Z</time>
        <extensions>
          <ns3:TrackPointExtension>
            <ns3:atemp>24.0</ns3:atemp>
          </ns3:TrackPointExtension>
        </extensions>
      </trkpt>
      <trkpt lat="42.545160166919231414794921875" lon="19.961253292858600616455078125">
        <ele>1183</ele>
        <time>2026-06-17T08:17:06.000Z</time>
        <extensions>
          <ns3:TrackPointExtension>
            <ns3:atemp>24.0</ns3:atemp>
          </ns3:TrackPointExtension>
        </extensions>
      </trkpt>
      <trkpt lat="42.54514373838901519775390625" lon="19.96125840581953525543212890625">
        <ele>1183.199951171875</ele>
        <time>2026-06-17T08:17:07.000Z</time>
        <extensions>
          <ns3:TrackPointExtension>
            <ns3:atemp>24.0</ns3:atemp>
          </ns3:TrackPointExtension>
        </extensions>
      </trkpt>
      <trkpt lat="42.54512471146881580352783203125" lon="19.96126544661819934844970703125">
        <ele>1183.4000244140625</ele>
        <time>2026-06-17T08:17:08.000Z</time>
        <extensions>
          <ns3:TrackPointExtension>
            <ns3:atemp>24.0</ns3:atemp>
          </ns3:TrackPointExtension>
        </extensions>
      </trkpt>
      <trkpt lat="42.5451080314815044403076171875" lon="19.961268045008182525634765625">
        <ele>1183.5999755859375</ele>
        <time>2026-06-17T08:17:09.000Z</time>
        <extensions>
          <ns3:TrackPointExtension>
            <ns3:atemp>24.0</ns3:atemp>
          </ns3:TrackPointExtension>
        </extensions>
      </trkpt>
      <trkpt lat="42.54509202204644680023193359375" lon="19.9612690508365631103515625">
        <ele>1183.800048828125</ele>
        <time>2026-06-17T08:17:10.000Z</time>
        <extensions>
          <ns3:TrackPointExtension>
            <ns3:atemp>24.0</ns3:atemp>
          </ns3:TrackPointExtension>
        </extensions>
      </trkpt>
      <trkpt lat="42.5450765155255794525146484375" lon="19.96126913465559482574462890625">
        <ele>1184</ele>
        <time>2026-06-17T08:17:11.000Z</time>
        <extensions>
          <ns3:TrackPointExtension>
            <ns3:atemp>24.0</ns3:atemp>
          </ns3:TrackPointExtension>
        </extensions>
      </trkpt>
      <trkpt lat="42.5450585782527923583984375" lon="19.96127265505492687225341796875">
        <ele>1184.199951171875</ele>
        <time>2026-06-17T08:17:12.000Z</time>
        <extensions>
          <ns3:TrackPointExtension>
            <ns3:atemp>24.0</ns3:atemp>
          </ns3:TrackPointExtension>
        </extensions>
      </trkpt>
      <trkpt lat="42.54503921605646610260009765625" lon="19.96127852238714694976806640625">
        <ele>1184.4000244140625</ele>
        <time>2026-06-17T08:17:13.000Z</time>
        <extensions>
          <ns3:TrackPointExtension>
            <ns3:atemp>24.0</ns3:atemp>
          </ns3:TrackPointExtension>
        </extensions>
      </trkpt>
      <trkpt lat="42.5450198538601398468017578125" lon="19.9612826295197010040283203125">
        <ele>1184.5999755859375</ele>
        <time>2026-06-17T08:17:14.000Z</time>
        <extensions>
          <ns3:TrackPointExtension>
            <ns3:atemp>24.0</ns3:atemp>
          </ns3:TrackPointExtension>
        </extensions>
      </trkpt>
      <trkpt lat="42.54500292241573333740234375" lon="19.9612853117287158966064453125">
        <ele>1184.5999755859375</ele>
        <time>2026-06-17T08:17:15.000Z</time>
        <extensions>
          <ns3:TrackPointExtension>
            <ns3:atemp>24.0</ns3:atemp>
          </ns3:TrackPointExtension>
        </extensions>
      </trkpt>
      <trkpt lat="42.5449836440384387969970703125" lon="19.9612905085086822509765625">
        <ele>1184.800048828125</ele>
        <time>2026-06-17T08:17:16.000Z</time>
        <extensions>
          <ns3:TrackPointExtension>
            <ns3:atemp>24.0</ns3:atemp>
          </ns3:TrackPointExtension>
        </extensions>
      </trkpt>
      <trkpt lat="42.544967047870159149169921875" lon="19.96129763312637805938720703125">
        <ele>1185.199951171875</ele>
        <time>2026-06-17T08:17:17.000Z</time>
        <extensions>
          <ns3:TrackPointExtension>
            <ns3:atemp>24.0</ns3:atemp>
          </ns3:TrackPointExtension>
        </extensions>
      </trkpt>
      <trkpt lat="42.54495103843510150909423828125" lon="19.96130115352571010589599609375">
        <ele>1185.199951171875</ele>
        <time>2026-06-17T08:17:18.000Z</time>
        <extensions>
          <ns3:TrackPointExtension>
            <ns3:atemp>24.0</ns3:atemp>
          </ns3:TrackPointExtension>
        </extensions>
      </trkpt>
      <trkpt lat="42.5449380464851856231689453125" lon="19.96130350045859813690185546875">
        <ele>1185.4000244140625</ele>
        <time>2026-06-17T08:17:19.000Z</time>
        <extensions>
          <ns3:TrackPointExtension>
            <ns3:atemp>24.0</ns3:atemp>
          </ns3:TrackPointExtension>
        </extensions>
      </trkpt>
      <trkpt lat="42.544920779764652252197265625" lon="19.96131087653338909149169921875">
        <ele>1185.4000244140625</ele>
        <time>2026-06-17T08:17:20.000Z</time>
        <extensions>
          <ns3:TrackPointExtension>
            <ns3:atemp>24.0</ns3:atemp>
          </ns3:TrackPointExtension>
        </extensions>
      </trkpt>
      <trkpt lat="42.54490594379603862762451171875" lon="19.96131774969398975372314453125">
        <ele>1185.5999755859375</ele>
        <time>2026-06-17T08:17:21.000Z</time>
        <extensions>
          <ns3:TrackPointExtension>
            <ns3:atemp>24.0</ns3:atemp>
          </ns3:TrackPointExtension>
        </extensions>
      </trkpt>
      <trkpt lat="42.54488683305680751800537109375" lon="19.96132378466427326202392578125">
        <ele>1185.800048828125</ele>
        <time>2026-06-17T08:17:22.000Z</time>
        <extensions>
          <ns3:TrackPointExtension>
            <ns3:atemp>24.0</ns3:atemp>
          </ns3:TrackPointExtension>
        </extensions>
      </trkpt>
      <trkpt lat="42.54486956633627414703369140625" lon="19.96133049018681049346923828125">
        <ele>1185.800048828125</ele>
        <time>2026-06-17T08:17:23.000Z</time>
        <extensions>
          <ns3:TrackPointExtension>
            <ns3:atemp>24.0</ns3:atemp>
          </ns3:TrackPointExtension>
        </extensions>
      </trkpt>
      <trkpt lat="42.54485213197767734527587890625" lon="19.96134205721318721771240234375">
        <ele>1186</ele>
        <time>2026-06-17T08:17:24.000Z</time>
        <extensions>
          <ns3:TrackPointExtension>
            <ns3:atemp>24.0</ns3:atemp>
          </ns3:TrackPointExtension>
        </extensions>
      </trkpt>
      <trkpt lat="42.5448324345052242279052734375" lon="19.9613527022302150726318359375">
        <ele>1186.199951171875</ele>
        <time>2026-06-17T08:17:25.000Z</time>
        <extensions>
          <ns3:TrackPointExtension>
            <ns3:atemp>24.0</ns3:atemp>
          </ns3:TrackPointExtension>
        </extensions>
      </trkpt>
      <trkpt lat="42.5448150001466274261474609375" lon="19.9613657779991626739501953125">
        <ele>1186.4000244140625</ele>
        <time>2026-06-17T08:17:26.000Z</time>
        <extensions>
          <ns3:TrackPointExtension>
            <ns3:atemp>24.0</ns3:atemp>
          </ns3:TrackPointExtension>
        </extensions>
      </trkpt>
      <trkpt lat="42.544797398149967193603515625" lon="19.96137055568397045135498046875">
        <ele>1186.5999755859375</ele>
        <time>2026-06-17T08:17:27.000Z</time>
        <extensions>
          <ns3:TrackPointExtension>
            <ns3:atemp>24.0</ns3:atemp>
          </ns3:TrackPointExtension>
        </extensions>
      </trkpt>
      <trkpt lat="42.5447821430861949920654296875" lon="19.961377345025539398193359375">
        <ele>1186.800048828125</ele>
        <time>2026-06-17T08:17:28.000Z</time>
        <extensions>
          <ns3:TrackPointExtension>
            <ns3:atemp>24.0</ns3:atemp>
          </ns3:TrackPointExtension>
        </extensions>
      </trkpt>
      <trkpt lat="42.5447690673172473907470703125" lon="19.96138312853872776031494140625">
        <ele>1187</ele>
        <time>2026-06-17T08:17:29.000Z</time>
        <extensions>
          <ns3:TrackPointExtension>
            <ns3:atemp>24.0</ns3:atemp>
          </ns3:TrackPointExtension>
        </extensions>
      </trkpt>
      <trkpt lat="42.54475481808185577392578125" lon="19.96139201335608959197998046875">
        <ele>1187.199951171875</ele>
        <time>2026-06-17T08:17:30.000Z</time>
        <extensions>
          <ns3:TrackPointExtension>
            <ns3:atemp>24.0</ns3:atemp>
          </ns3:TrackPointExtension>
        </extensions>
      </trkpt>
      <trkpt lat="42.54474006593227386474609375" lon="19.96139846742153167724609375">
        <ele>1187.4000244140625</ele>
        <time>2026-06-17T08:17:31.000Z</time>
        <extensions>
          <ns3:TrackPointExtension>
            <ns3:atemp>24.0</ns3:atemp>
          </ns3:TrackPointExtension>
        </extensions>
      </trkpt>
      <trkpt lat="42.5447281636297702789306640625" lon="19.96139871887862682342529296875">
        <ele>1187.5999755859375</ele>
        <time>2026-06-17T08:17:32.000Z</time>
        <extensions>
          <ns3:TrackPointExtension>
            <ns3:atemp>24.0</ns3:atemp>
          </ns3:TrackPointExtension>
        </extensions>
      </trkpt>
      <trkpt lat="42.54471718333661556243896484375" lon="19.9613952822983264923095703125">
        <ele>1188</ele>
        <time>2026-06-17T08:17:33.000Z</time>
        <extensions>
          <ns3:TrackPointExtension>
            <ns3:atemp>24.0</ns3:atemp>
          </ns3:TrackPointExtension>
        </extensions>
      </trkpt>
      <trkpt lat="42.54469907842576503753662109375" lon="19.96138815768063068389892578125">
        <ele>1188.199951171875</ele>
        <time>2026-06-17T08:17:34.000Z</time>
        <extensions>
          <ns3:TrackPointExtension>
            <ns3:atemp>24.0</ns3:atemp>
          </ns3:TrackPointExtension>
        </extensions>
      </trkpt>
      <trkpt lat="42.544675357639789581298828125" lon="19.961386732757091522216796875">
        <ele>1188.199951171875</ele>
        <time>2026-06-17T08:17:35.000Z</time>
        <extensions>
          <ns3:TrackPointExtension>
            <ns3:atemp>24.0</ns3:atemp>
          </ns3:TrackPointExtension>
        </extensions>
      </trkpt>
      <trkpt lat="42.54465423524379730224609375" lon="19.96138346381485462188720703125">
        <ele>1188.4000244140625</ele>
        <time>2026-06-17T08:17:36.000Z</time>
        <extensions>
          <ns3:TrackPointExtension>
            <ns3:atemp>24.0</ns3:atemp>
          </ns3:TrackPointExtension>
        </extensions>
      </trkpt>
      <trkpt lat="42.5446349568665027618408203125" lon="19.96138036251068115234375">
        <ele>1188.4000244140625</ele>
        <time>2026-06-17T08:17:37.000Z</time>
        <extensions>
          <ns3:TrackPointExtension>
            <ns3:atemp>24.0</ns3:atemp>
          </ns3:TrackPointExtension>
        </extensions>
      </trkpt>
      <trkpt lat="42.5446195341646671295166015625" lon="19.961375333368778228759765625">
        <ele>1188.5999755859375</ele>
        <time>2026-06-17T08:17:38.000Z</time>
        <extensions>
          <ns3:TrackPointExtension>
            <ns3:atemp>24.0</ns3:atemp>
          </ns3:TrackPointExtension>
        </extensions>
      </trkpt>
      <trkpt lat="42.54460318945348262786865234375" lon="19.961376003921031951904296875">
        <ele>1188.5999755859375</ele>
        <time>2026-06-17T08:17:39.000Z</time>
        <extensions>
          <ns3:TrackPointExtension>
            <ns3:atemp>24.0</ns3:atemp>
          </ns3:TrackPointExtension>
        </extensions>
      </trkpt>
      <trkpt lat="42.544585503637790679931640625" lon="19.96137659065425395965576171875">
        <ele>1188.800048828125</ele>
        <time>2026-06-17T08:17:40.000Z</time>
        <extensions>
          <ns3:TrackPointExtension>
            <ns3:atemp>24.0</ns3:atemp>
          </ns3:TrackPointExtension>
        </extensions>
      </trkpt>
      <trkpt lat="42.54456647671759128570556640625" lon="19.96137432754039764404296875">
        <ele>1188.800048828125</ele>
        <time>2026-06-17T08:17:41.000Z</time>
        <extensions>
          <ns3:TrackPointExtension>
            <ns3:atemp>24.0</ns3:atemp>
          </ns3:TrackPointExtension>
        </extensions>
      </trkpt>
      <trkpt lat="42.5445457734167575836181640625" lon="19.96137298643589019775390625">
        <ele>1189</ele>
        <time>2026-06-17T08:17:42.000Z</time>
        <extensions>
          <ns3:TrackPointExtension>
            <ns3:atemp>24.0</ns3:atemp>
          </ns3:TrackPointExtension>
        </extensions>
      </trkpt>
      <trkpt lat="42.5445286743342876434326171875" lon="19.9613656103610992431640625">
        <ele>1189.199951171875</ele>
        <time>2026-06-17T08:17:43.000Z</time>
        <extensions>
          <ns3:TrackPointExtension>
            <ns3:atemp>24.0</ns3:atemp>
          </ns3:TrackPointExtension>
        </extensions>
      </trkpt>
      <trkpt lat="42.54450813867151737213134765625" lon="19.96135714463889598846435546875">
        <ele>1189.5999755859375</ele>
        <time>2026-06-17T08:17:44.000Z</time>
        <extensions>
          <ns3:TrackPointExtension>
            <ns3:atemp>24.0</ns3:atemp>
          </ns3:TrackPointExtension>
        </extensions>
      </trkpt>
      <trkpt lat="42.54448802210390567779541015625" lon="19.96135211549699306488037109375">
        <ele>1189.800048828125</ele>
        <time>2026-06-17T08:17:45.000Z</time>
        <extensions>
          <ns3:TrackPointExtension>
            <ns3:atemp>24.0</ns3:atemp>
          </ns3:TrackPointExtension>
        </extensions>
      </trkpt>
      <trkpt lat="42.54447075538337230682373046875" lon="19.96134809218347072601318359375">
        <ele>1190.199951171875</ele>
        <time>2026-06-17T08:17:46.000Z</time>
        <extensions>
          <ns3:TrackPointExtension>
            <ns3:atemp>24.0</ns3:atemp>
          </ns3:TrackPointExtension>
        </extensions>
      </trkpt>
      <trkpt lat="42.54445709288120269775390625" lon="19.96134323067963123321533203125">
        <ele>1190.4000244140625</ele>
        <time>2026-06-17T08:17:47.000Z</time>
        <extensions>
          <ns3:TrackPointExtension>
            <ns3:atemp>24.0</ns3:atemp>
          </ns3:TrackPointExtension>
        </extensions>
      </trkpt>
      <trkpt lat="42.54444192163646221160888671875" lon="19.96133543550968170166015625">
        <ele>1190.5999755859375</ele>
        <time>2026-06-17T08:17:48.000Z</time>
        <extensions>
          <ns3:TrackPointExtension>
            <ns3:atemp>24.0</ns3:atemp>
          </ns3:TrackPointExtension>
        </extensions>
      </trkpt>
      <trkpt lat="42.54442431963980197906494140625" lon="19.9613282270729541778564453125">
        <ele>1191</ele>
        <time>2026-06-17T08:17:49.000Z</time>
        <extensions>
          <ns3:TrackPointExtension>
            <ns3:atemp>24.0</ns3:atemp>
          </ns3:TrackPointExtension>
        </extensions>
      </trkpt>
      <trkpt lat="42.54439917393028736114501953125" lon="19.96132294647395610809326171875">
        <ele>1191.4000244140625</ele>
        <time>2026-06-17T08:17:50.000Z</time>
        <extensions>
          <ns3:TrackPointExtension>
            <ns3:atemp>24.0</ns3:atemp>
          </ns3:TrackPointExtension>
        </extensions>
      </trkpt>
      <trkpt lat="42.54437620751559734344482421875" lon="19.96131590567529201507568359375">
        <ele>1191.5999755859375</ele>
        <time>2026-06-17T08:17:51.000Z</time>
        <extensions>
          <ns3:TrackPointExtension>
            <ns3:atemp>24.0</ns3:atemp>
          </ns3:TrackPointExtension>
        </extensions>
      </trkpt>
      <trkpt lat="42.54436053335666656494140625" lon="19.96130165643990039825439453125">
        <ele>1191.800048828125</ele>
        <time>2026-06-17T08:17:52.000Z</time>
        <extensions>
          <ns3:TrackPointExtension>
            <ns3:atemp>24.0</ns3:atemp>
          </ns3:TrackPointExtension>
        </extensions>
      </trkpt>
      <trkpt lat="42.54434418864548206329345703125" lon="19.96128589846193790435791015625">
        <ele>1192</ele>
        <time>2026-06-17T08:17:53.000Z</time>
        <extensions>
          <ns3:TrackPointExtension>
            <ns3:atemp>24.0</ns3:atemp>
          </ns3:TrackPointExtension>
        </extensions>
      </trkpt>
      <trkpt lat="42.5443238206207752227783203125" lon="19.961276762187480926513671875">
        <ele>1192.199951171875</ele>
        <time>2026-06-17T08:17:54.000Z</time>
        <extensions>
          <ns3:TrackPointExtension>
            <ns3:atemp>24.0</ns3:atemp>
          </ns3:TrackPointExtension>
        </extensions>
      </trkpt>
      <trkpt lat="42.54430848173797130584716796875" lon="19.9612655304372310638427734375">
        <ele>1192.4000244140625</ele>
        <time>2026-06-17T08:17:55.000Z</time>
        <extensions>
          <ns3:TrackPointExtension>
            <ns3:atemp>24.0</ns3:atemp>
          </ns3:TrackPointExtension>
        </extensions>
      </trkpt>
      <trkpt lat="42.54429372958838939666748046875" lon="19.961251281201839447021484375">
        <ele>1192.5999755859375</ele>
        <time>2026-06-17T08:17:56.000Z</time>
        <extensions>
          <ns3:TrackPointExtension>
            <ns3:atemp>24.0</ns3:atemp>
          </ns3:TrackPointExtension>
        </extensions>
      </trkpt>
      <trkpt lat="42.54428015090525150299072265625" lon="19.9612447433173656463623046875">
        <ele>1193</ele>
        <time>2026-06-17T08:17:57.000Z</time>
        <extensions>
          <ns3:TrackPointExtension>
            <ns3:atemp>24.0</ns3:atemp>
          </ns3:TrackPointExtension>
        </extensions>
      </trkpt>
      <trkpt lat="42.544264979660511016845703125" lon="19.9612368643283843994140625">
        <ele>1193.199951171875</ele>
        <time>2026-06-17T08:17:58.000Z</time>
        <extensions>
          <ns3:TrackPointExtension>
            <ns3:atemp>24.0</ns3:atemp>
          </ns3:TrackPointExtension>
        </extensions>
      </trkpt>
      <trkpt lat="42.5442554242908954620361328125" lon="19.96122923679649829864501953125">
        <ele>1193.5999755859375</ele>
        <time>2026-06-17T08:17:59.000Z</time>
        <extensions>
          <ns3:TrackPointExtension>
            <ns3:atemp>24.0</ns3:atemp>
          </ns3:TrackPointExtension>
        </extensions>
      </trkpt>
      <trkpt lat="42.544243521988391876220703125" lon="19.96121607720851898193359375">
        <ele>1194</ele>
        <time>2026-06-17T08:18:00.000Z</time>
        <extensions>
          <ns3:TrackPointExtension>
            <ns3:atemp>24.0</ns3:atemp>
          </ns3:TrackPointExtension>
        </extensions>
      </trkpt>
      <trkpt lat="42.54423354752361774444580078125" lon="19.96120191179215908050537109375">
        <ele>1194.199951171875</ele>
        <time>2026-06-17T08:18:01.000Z</time>
        <extensions>
          <ns3:TrackPointExtension>
            <ns3:atemp>24.0</ns3:atemp>
          </ns3:TrackPointExtension>
        </extensions>
      </trkpt>
      <trkpt lat="42.54422105848789215087890625" lon="19.96118363924324512481689453125">
        <ele>1194.4000244140625</ele>
        <time>2026-06-17T08:18:02.000Z</time>
        <extensions>
          <ns3:TrackPointExtension>
            <ns3:atemp>24.0</ns3:atemp>
          </ns3:TrackPointExtension>
        </extensions>
      </trkpt>
      <trkpt lat="42.544209994375705718994140625" lon="19.9611679650843143463134765625">
        <ele>1194.5999755859375</ele>
        <time>2026-06-17T08:18:03.000Z</time>
        <extensions>
          <ns3:TrackPointExtension>
            <ns3:atemp>24.0</ns3:atemp>
          </ns3:TrackPointExtension>
        </extensions>
      </trkpt>
      <trkpt lat="42.54419901408255100250244140625" lon="19.9611505307257175445556640625">
        <ele>1194.800048828125</ele>
        <time>2026-06-17T08:18:04.000Z</time>
        <extensions>
          <ns3:TrackPointExtension>
            <ns3:atemp>24.0</ns3:atemp>
          </ns3:TrackPointExtension>
        </extensions>
      </trkpt>
      <trkpt lat="42.54418895579874515533447265625" lon="19.96113318018615245819091796875">
        <ele>1195</ele>
        <time>2026-06-17T08:18:05.000Z</time>
        <extensions>
          <ns3:TrackPointExtension>
            <ns3:atemp>24.0</ns3:atemp>
          </ns3:TrackPointExtension>
        </extensions>
      </trkpt>
      <trkpt lat="42.544178478419780731201171875" lon="19.96111415326595306396484375">
        <ele>1195</ele>
        <time>2026-06-17T08:18:06.000Z</time>
        <extensions>
          <ns3:TrackPointExtension>
            <ns3:atemp>24.0</ns3:atemp>
          </ns3:TrackPointExtension>
        </extensions>
      </trkpt>
      <trkpt lat="42.54416917450726032257080078125" lon="19.96109479106962680816650390625">
        <ele>1195.199951171875</ele>
        <time>2026-06-17T08:18:07.000Z</time>
        <extensions>
          <ns3:TrackPointExtension>
            <ns3:atemp>24.0</ns3:atemp>
          </ns3:TrackPointExtension>
        </extensions>
      </trkpt>
      <trkpt lat="42.54415827803313732147216796875" lon="19.96107148937880992889404296875">
        <ele>1195.199951171875</ele>
        <time>2026-06-17T08:18:08.000Z</time>
        <extensions>
          <ns3:TrackPointExtension>
            <ns3:atemp>24.0</ns3:atemp>
          </ns3:TrackPointExtension>
        </extensions>
      </trkpt>
      <trkpt lat="42.5441461242735385894775390625" lon="19.9610509537160396575927734375">
        <ele>1195.4000244140625</ele>
        <time>2026-06-17T08:18:09.000Z</time>
        <extensions>
          <ns3:TrackPointExtension>
            <ns3:atemp>24.0</ns3:atemp>
          </ns3:TrackPointExtension>
        </extensions>
      </trkpt>
      <trkpt lat="42.54413732327520847320556640625" lon="19.96103377081453800201416015625">
        <ele>1195.5999755859375</ele>
        <time>2026-06-17T08:18:10.000Z</time>
        <extensions>
          <ns3:TrackPointExtension>
            <ns3:atemp>24.0</ns3:atemp>
          </ns3:TrackPointExtension>
        </extensions>
      </trkpt>
      <trkpt lat="42.54412860609591007232666015625" lon="19.9610150791704654693603515625">
        <ele>1195.800048828125</ele>
        <time>2026-06-17T08:18:11.000Z</time>
        <extensions>
          <ns3:TrackPointExtension>
            <ns3:atemp>24.0</ns3:atemp>
          </ns3:TrackPointExtension>
        </extensions>
      </trkpt>
      <trkpt lat="42.544121481478214263916015625" lon="19.960994459688663482666015625">
        <ele>1195.800048828125</ele>
        <time>2026-06-17T08:18:12.000Z</time>
        <extensions>
          <ns3:TrackPointExtension>
            <ns3:atemp>24.0</ns3:atemp>
          </ns3:TrackPointExtension>
        </extensions>
      </trkpt>
      <trkpt lat="42.54411150701344013214111328125" lon="19.96097677387297153472900390625">
        <ele>1196</ele>
        <time>2026-06-17T08:18:13.000Z</time>
        <extensions>
          <ns3:TrackPointExtension>
            <ns3:atemp>24.0</ns3:atemp>
          </ns3:TrackPointExtension>
        </extensions>
      </trkpt>
      <trkpt lat="42.54410572350025177001953125" lon="19.96095967479050159454345703125">
        <ele>1196.199951171875</ele>
        <time>2026-06-17T08:18:14.000Z</time>
        <extensions>
          <ns3:TrackPointExtension>
            <ns3:atemp>24.0</ns3:atemp>
          </ns3:TrackPointExtension>
        </extensions>
      </trkpt>
      <trkpt lat="42.54410362802445888519287109375" lon="19.96093855239450931549072265625">
        <ele>1196.4000244140625</ele>
        <time>2026-06-17T08:18:15.000Z</time>
        <extensions>
          <ns3:TrackPointExtension>
            <ns3:atemp>24.0</ns3:atemp>
          </ns3:TrackPointExtension>
        </extensions>
      </trkpt>
      <trkpt lat="42.54409742541611194610595703125" lon="19.9609181843698024749755859375">
        <ele>1196.5999755859375</ele>
        <time>2026-06-17T08:18:16.000Z</time>
        <extensions>
          <ns3:TrackPointExtension>
            <ns3:atemp>24.0</ns3:atemp>
          </ns3:TrackPointExtension>
        </extensions>
      </trkpt>
      <trkpt lat="42.54408870823681354522705078125" lon="19.96089823544025421142578125">
        <ele>1196.800048828125</ele>
        <time>2026-06-17T08:18:17.000Z</time>
        <extensions>
          <ns3:TrackPointExtension>
            <ns3:atemp>24.0</ns3:atemp>
          </ns3:TrackPointExtension>
        </extensions>
      </trkpt>
      <trkpt lat="42.54407948814332485198974609375" lon="19.96088004671037197113037109375">
        <ele>1197</ele>
        <time>2026-06-17T08:18:18.000Z</time>
        <extensions>
          <ns3:TrackPointExtension>
            <ns3:atemp>24.0</ns3:atemp>
          </ns3:TrackPointExtension>
        </extensions>
      </trkpt>
      <trkpt lat="42.54407278262078762054443359375" lon="19.96086395345628261566162109375">
        <ele>1197.199951171875</ele>
        <time>2026-06-17T08:18:19.000Z</time>
        <extensions>
          <ns3:TrackPointExtension>
            <ns3:atemp>24.0</ns3:atemp>
          </ns3:TrackPointExtension>
        </extensions>
      </trkpt>
      <trkpt lat="42.54406037740409374237060546875" lon="19.96084995567798614501953125">
        <ele>1197.4000244140625</ele>
        <time>2026-06-17T08:18:20.000Z</time>
        <extensions>
          <ns3:TrackPointExtension>
            <ns3:atemp>24.0</ns3:atemp>
          </ns3:TrackPointExtension>
        </extensions>
      </trkpt>
      <trkpt lat="42.54404713399708271026611328125" lon="19.9608400650322437286376953125">
        <ele>1197.4000244140625</ele>
        <time>2026-06-17T08:18:21.000Z</time>
        <extensions>
          <ns3:TrackPointExtension>
            <ns3:atemp>24.0</ns3:atemp>
          </ns3:TrackPointExtension>
        </extensions>
      </trkpt>
      <trkpt lat="42.54403254948556423187255859375" lon="19.9608452618122100830078125">
        <ele>1197.4000244140625</ele>
        <time>2026-06-17T08:18:22.000Z</time>
        <extensions>
          <ns3:TrackPointExtension>
            <ns3:atemp>24.0</ns3:atemp>
          </ns3:TrackPointExtension>
        </extensions>
      </trkpt>
      <trkpt lat="42.544015534222126007080078125" lon="19.9608494527637958526611328125">
        <ele>1197.5999755859375</ele>
        <time>2026-06-17T08:18:23.000Z</time>
        <extensions>
          <ns3:TrackPointExtension>
            <ns3:atemp>24.0</ns3:atemp>
          </ns3:TrackPointExtension>
        </extensions>
      </trkpt>
      <trkpt lat="42.54399240016937255859375" lon="19.96086177416145801544189453125">
        <ele>1197.800048828125</ele>
        <time>2026-06-17T08:18:24.000Z</time>
        <extensions>
          <ns3:TrackPointExtension>
            <ns3:atemp>24.0</ns3:atemp>
          </ns3:TrackPointExtension>
        </extensions>
      </trkpt>
      <trkpt lat="42.5439711101353168487548828125" lon="19.960876442492008209228515625">
        <ele>1197.800048828125</ele>
        <time>2026-06-17T08:18:25.000Z</time>
        <extensions>
          <ns3:TrackPointExtension>
            <ns3:atemp>24.0</ns3:atemp>
          </ns3:TrackPointExtension>
        </extensions>
      </trkpt>
      <trkpt lat="42.54395610652863979339599609375" lon="19.9608923681080341339111328125">
        <ele>1197.800048828125</ele>
        <time>2026-06-17T08:18:26.000Z</time>
        <extensions>
          <ns3:TrackPointExtension>
            <ns3:atemp>24.0</ns3:atemp>
          </ns3:TrackPointExtension>
        </extensions>
      </trkpt>
      <trkpt lat="42.5439395941793918609619140625" lon="19.9609121493995189666748046875">
        <ele>1198</ele>
        <time>2026-06-17T08:18:27.000Z</time>
        <extensions>
          <ns3:TrackPointExtension>
            <ns3:atemp>24.0</ns3:atemp>
          </ns3:TrackPointExtension>
        </extensions>
      </trkpt>
      <trkpt lat="42.54392073489725589752197265625" lon="19.9609310925006866455078125">
        <ele>1198</ele>
        <time>2026-06-17T08:18:28.000Z</time>
        <extensions>
          <ns3:TrackPointExtension>
            <ns3:atemp>24.0</ns3:atemp>
          </ns3:TrackPointExtension>
        </extensions>
      </trkpt>
      <trkpt lat="42.543906234204769134521484375" lon="19.96094441972672939300537109375">
        <ele>1198</ele>
        <time>2026-06-17T08:18:29.000Z</time>
        <extensions>
          <ns3:TrackPointExtension>
            <ns3:atemp>24.0</ns3:atemp>
          </ns3:TrackPointExtension>
        </extensions>
      </trkpt>
      <trkpt lat="42.54389190115034580230712890625" lon="19.9609605967998504638671875">
        <ele>1198.199951171875</ele>
        <time>2026-06-17T08:18:30.000Z</time>
        <extensions>
          <ns3:TrackPointExtension>
            <ns3:atemp>24.0</ns3:atemp>
          </ns3:TrackPointExtension>
        </extensions>
      </trkpt>
      <trkpt lat="42.5438809208571910858154296875" lon="19.96097073890268802642822265625">
        <ele>1198.199951171875</ele>
        <time>2026-06-17T08:18:31.000Z</time>
        <extensions>
          <ns3:TrackPointExtension>
            <ns3:atemp>24.0</ns3:atemp>
          </ns3:TrackPointExtension>
        </extensions>
      </trkpt>
      <trkpt lat="42.5438661687076091766357421875" lon="19.96098272502422332763671875">
        <ele>1198.4000244140625</ele>
        <time>2026-06-17T08:18:32.000Z</time>
        <extensions>
          <ns3:TrackPointExtension>
            <ns3:atemp>24.0</ns3:atemp>
          </ns3:TrackPointExtension>
        </extensions>
      </trkpt>
      <trkpt lat="42.54384898580610752105712890625" lon="19.96099806390702724456787109375">
        <ele>1198.4000244140625</ele>
        <time>2026-06-17T08:18:33.000Z</time>
        <extensions>
          <ns3:TrackPointExtension>
            <ns3:atemp>24.0</ns3:atemp>
          </ns3:TrackPointExtension>
        </extensions>
      </trkpt>
      <trkpt lat="42.54383289255201816558837890625" lon="19.96101080439984798431396484375">
        <ele>1198.5999755859375</ele>
        <time>2026-06-17T08:18:34.000Z</time>
        <extensions>
          <ns3:TrackPointExtension>
            <ns3:atemp>24.0</ns3:atemp>
          </ns3:TrackPointExtension>
        </extensions>
      </trkpt>
      <trkpt lat="42.54381738603115081787109375" lon="19.96102538891136646270751953125">
        <ele>1198.5999755859375</ele>
        <time>2026-06-17T08:18:35.000Z</time>
        <extensions>
          <ns3:TrackPointExtension>
            <ns3:atemp>24.0</ns3:atemp>
          </ns3:TrackPointExtension>
        </extensions>
      </trkpt>
      <trkpt lat="42.54380263388156890869140625" lon="19.96103293262422084808349609375">
        <ele>1198.800048828125</ele>
        <time>2026-06-17T08:18:36.000Z</time>
        <extensions>
          <ns3:TrackPointExtension>
            <ns3:atemp>24.0</ns3:atemp>
          </ns3:TrackPointExtension>
        </extensions>
      </trkpt>
      <trkpt lat="42.54378679208457469940185546875" lon="19.961038045585155487060546875">
        <ele>1199</ele>
        <time>2026-06-17T08:18:37.000Z</time>
        <extensions>
          <ns3:TrackPointExtension>
            <ns3:atemp>24.0</ns3:atemp>
          </ns3:TrackPointExtension>
        </extensions>
      </trkpt>
      <trkpt lat="42.54377187229692935943603515625" lon="19.96104433201253414154052734375">
        <ele>1199.199951171875</ele>
        <time>2026-06-17T08:18:38.000Z</time>
        <extensions>
          <ns3:TrackPointExtension>
            <ns3:atemp>24.0</ns3:atemp>
          </ns3:TrackPointExtension>
        </extensions>
      </trkpt>
      <trkpt lat="42.54375611431896686553955078125" lon="19.9610526300966739654541015625">
        <ele>1199.4000244140625</ele>
        <time>2026-06-17T08:18:39.000Z</time>
        <extensions>
          <ns3:TrackPointExtension>
            <ns3:atemp>24.0</ns3:atemp>
          </ns3:TrackPointExtension>
        </extensions>
      </trkpt>
      <trkpt lat="42.54373750649392604827880859375" lon="19.96105908416211605072021484375">
        <ele>1199.4000244140625</ele>
        <time>2026-06-17T08:18:40.000Z</time>
        <extensions>
          <ns3:TrackPointExtension>
            <ns3:atemp>24.0</ns3:atemp>
          </ns3:TrackPointExtension>
        </extensions>
      </trkpt>
      <trkpt lat="42.54372124560177326202392578125" lon="19.96106587350368499755859375">
        <ele>1199.5999755859375</ele>
        <time>2026-06-17T08:18:41.000Z</time>
        <extensions>
          <ns3:TrackPointExtension>
            <ns3:atemp>24.0</ns3:atemp>
          </ns3:TrackPointExtension>
        </extensions>
      </trkpt>
      <trkpt lat="42.54370330832898616790771484375" lon="19.96107534505426883697509765625">
        <ele>1199.800048828125</ele>
        <time>2026-06-17T08:18:42.000Z</time>
        <extensions>
          <ns3:TrackPointExtension>
            <ns3:atemp>24.0</ns3:atemp>
          </ns3:TrackPointExtension>
        </extensions>
      </trkpt>
      <trkpt lat="42.54369207657873630523681640625" lon="19.96107802726328372955322265625">
        <ele>1199.800048828125</ele>
        <time>2026-06-17T08:18:43.000Z</time>
        <extensions>
          <ns3:TrackPointExtension>
            <ns3:atemp>24.0</ns3:atemp>
          </ns3:TrackPointExtension>
        </extensions>
      </trkpt>
      <trkpt lat="42.543680258095264434814453125" lon="19.9610868282616138458251953125">
        <ele>1200.199951171875</ele>
        <time>2026-06-17T08:18:44.000Z</time>
        <extensions>
          <ns3:TrackPointExtension>
            <ns3:atemp>24.0</ns3:atemp>
          </ns3:TrackPointExtension>
        </extensions>
      </trkpt>
      <trkpt lat="42.54366491921246051788330078125" lon="19.96109537780284881591796875">
        <ele>1200.199951171875</ele>
        <time>2026-06-17T08:18:45.000Z</time>
        <extensions>
          <ns3:TrackPointExtension>
            <ns3:atemp>24.0</ns3:atemp>
          </ns3:TrackPointExtension>
        </extensions>
      </trkpt>
      <trkpt lat="42.5436485745012760162353515625" lon="19.961104094982147216796875">
        <ele>1200.4000244140625</ele>
        <time>2026-06-17T08:18:46.000Z</time>
        <extensions>
          <ns3:TrackPointExtension>
            <ns3:atemp>24.0</ns3:atemp>
          </ns3:TrackPointExtension>
        </extensions>
      </trkpt>
      <trkpt lat="42.543633319437503814697265625" lon="19.96111155487596988677978515625">
        <ele>1200.800048828125</ele>
        <time>2026-06-17T08:18:47.000Z</time>
        <extensions>
          <ns3:TrackPointExtension>
            <ns3:atemp>24.0</ns3:atemp>
          </ns3:TrackPointExtension>
        </extensions>
      </trkpt>
      <trkpt lat="42.543621920049190521240234375" lon="19.96111725457012653350830078125">
        <ele>1200.800048828125</ele>
        <time>2026-06-17T08:18:48.000Z</time>
        <extensions>
          <ns3:TrackPointExtension>
            <ns3:atemp>24.0</ns3:atemp>
          </ns3:TrackPointExtension>
        </extensions>
      </trkpt>
      <trkpt lat="42.54360591061413288116455078125" lon="19.9611237086355686187744140625">
        <ele>1201</ele>
        <time>2026-06-17T08:18:49.000Z</time>
        <extensions>
          <ns3:TrackPointExtension>
            <ns3:atemp>24.0</ns3:atemp>
          </ns3:TrackPointExtension>
        </extensions>
      </trkpt>
      <trkpt lat="42.54358696751296520233154296875" lon="19.9611295759677886962890625">
        <ele>1201.199951171875</ele>
        <time>2026-06-17T08:18:50.000Z</time>
        <extensions>
          <ns3:TrackPointExtension>
            <ns3:atemp>24.0</ns3:atemp>
          </ns3:TrackPointExtension>
        </extensions>
      </trkpt>
      <trkpt lat="42.54357053898274898529052734375" lon="19.9611334316432476043701171875">
        <ele>1201.199951171875</ele>
        <time>2026-06-17T08:18:51.000Z</time>
        <extensions>
          <ns3:TrackPointExtension>
            <ns3:atemp>24.0</ns3:atemp>
          </ns3:TrackPointExtension>
        </extensions>
      </trkpt>
      <trkpt lat="42.5435511767864227294921875" lon="19.961141310632228851318359375">
        <ele>1201.4000244140625</ele>
        <time>2026-06-17T08:18:52.000Z</time>
        <extensions>
          <ns3:TrackPointExtension>
            <ns3:atemp>24.0</ns3:atemp>
          </ns3:TrackPointExtension>
        </extensions>
      </trkpt>
      <trkpt lat="42.54353349097073078155517578125" lon="19.9611491896212100982666015625">
        <ele>1201.4000244140625</ele>
        <time>2026-06-17T08:18:53.000Z</time>
        <extensions>
          <ns3:TrackPointExtension>
            <ns3:atemp>24.0</ns3:atemp>
          </ns3:TrackPointExtension>
        </extensions>
      </trkpt>
      <trkpt lat="42.5435164757072925567626953125" lon="19.9611555598676204681396484375">
        <ele>1201.5999755859375</ele>
        <time>2026-06-17T08:18:54.000Z</time>
        <extensions>
          <ns3:TrackPointExtension>
            <ns3:atemp>24.0</ns3:atemp>
          </ns3:TrackPointExtension>
        </extensions>
      </trkpt>
      <trkpt lat="42.5434990413486957550048828125" lon="19.9611609242856502532958984375">
        <ele>1201.800048828125</ele>
        <time>2026-06-17T08:18:55.000Z</time>
        <extensions>
          <ns3:TrackPointExtension>
            <ns3:atemp>24.0</ns3:atemp>
          </ns3:TrackPointExtension>
        </extensions>
      </trkpt>
      <trkpt lat="42.54348420538008213043212890625" lon="19.96116419322788715362548828125">
        <ele>1202</ele>
        <time>2026-06-17T08:18:56.000Z</time>
        <extensions>
          <ns3:TrackPointExtension>
            <ns3:atemp>24.0</ns3:atemp>
          </ns3:TrackPointExtension>
        </extensions>
      </trkpt>
      <trkpt lat="42.5434661842882633209228515625" lon="19.9611679650843143463134765625">
        <ele>1202.199951171875</ele>
        <time>2026-06-17T08:18:57.000Z</time>
        <extensions>
          <ns3:TrackPointExtension>
            <ns3:atemp>24.0</ns3:atemp>
          </ns3:TrackPointExtension>
        </extensions>
      </trkpt>
      <trkpt lat="42.54344992339611053466796875" lon="19.9611729942262172698974609375">
        <ele>1202.4000244140625</ele>
        <time>2026-06-17T08:18:58.000Z</time>
        <extensions>
          <ns3:TrackPointExtension>
            <ns3:atemp>24.0</ns3:atemp>
          </ns3:TrackPointExtension>
        </extensions>
      </trkpt>
      <trkpt lat="42.54344053566455841064453125" lon="19.96117693372070789337158203125">
        <ele>1202.5999755859375</ele>
        <time>2026-06-17T08:18:59.000Z</time>
        <extensions>
          <ns3:TrackPointExtension>
            <ns3:atemp>24.0</ns3:atemp>
          </ns3:TrackPointExtension>
        </extensions>
      </trkpt>
      <trkpt lat="42.54342687316238880157470703125" lon="19.961184561252593994140625">
        <ele>1202.800048828125</ele>
        <time>2026-06-17T08:19:00.000Z</time>
        <extensions>
          <ns3:TrackPointExtension>
            <ns3:atemp>24.0</ns3:atemp>
          </ns3:TrackPointExtension>
        </extensions>
      </trkpt>
      <trkpt lat="42.5434088520705699920654296875" lon="19.961189590394496917724609375">
        <ele>1203</ele>
        <time>2026-06-17T08:19:01.000Z</time>
        <extensions>
          <ns3:TrackPointExtension>
            <ns3:atemp>24.0</ns3:atemp>
          </ns3:TrackPointExtension>
        </extensions>
      </trkpt>
      <trkpt lat="42.54338999278843402862548828125" lon="19.96119864284992218017578125">
        <ele>1203</ele>
        <time>2026-06-17T08:19:02.000Z</time>
        <extensions>
          <ns3:TrackPointExtension>
            <ns3:atemp>24.0</ns3:atemp>
          </ns3:TrackPointExtension>
        </extensions>
      </trkpt>
      <trkpt lat="42.54337138496339321136474609375" lon="19.96121071279048919677734375">
        <ele>1203.199951171875</ele>
        <time>2026-06-17T08:19:03.000Z</time>
        <extensions>
          <ns3:TrackPointExtension>
            <ns3:atemp>24.0</ns3:atemp>
          </ns3:TrackPointExtension>
        </extensions>
      </trkpt>
      <trkpt lat="42.5433552078902721405029296875" lon="19.96122219599783420562744140625">
        <ele>1203.4000244140625</ele>
        <time>2026-06-17T08:19:04.000Z</time>
        <extensions>
          <ns3:TrackPointExtension>
            <ns3:atemp>24.0</ns3:atemp>
          </ns3:TrackPointExtension>
        </extensions>
      </trkpt>
      <trkpt lat="42.54334288649260997772216796875" lon="19.96123376302421092987060546875">
        <ele>1203.4000244140625</ele>
        <time>2026-06-17T08:19:05.000Z</time>
        <extensions>
          <ns3:TrackPointExtension>
            <ns3:atemp>24.0</ns3:atemp>
          </ns3:TrackPointExtension>
        </extensions>
      </trkpt>
      <trkpt lat="42.54333131946623325347900390625" lon="19.961231835186481475830078125">
        <ele>1203.5999755859375</ele>
        <time>2026-06-17T08:19:06.000Z</time>
        <extensions>
          <ns3:TrackPointExtension>
            <ns3:atemp>24.0</ns3:atemp>
          </ns3:TrackPointExtension>
        </extensions>
      </trkpt>
      <trkpt lat="42.5433159805834293365478515625" lon="19.96123074553906917572021484375">
        <ele>1204</ele>
        <time>2026-06-17T08:19:07.000Z</time>
        <extensions>
          <ns3:TrackPointExtension>
            <ns3:atemp>24.0</ns3:atemp>
          </ns3:TrackPointExtension>
        </extensions>
      </trkpt>
      <trkpt lat="42.5432975403964519500732421875" lon="19.96123309247195720672607421875">
        <ele>1204.199951171875</ele>
        <time>2026-06-17T08:19:08.000Z</time>
        <extensions>
          <ns3:TrackPointExtension>
            <ns3:atemp>24.0</ns3:atemp>
          </ns3:TrackPointExtension>
        </extensions>
      </trkpt>
      <trkpt lat="42.54327717237174510955810546875" lon="19.96123560704290866851806640625">
        <ele>1204.199951171875</ele>
        <time>2026-06-17T08:19:09.000Z</time>
        <extensions>
          <ns3:TrackPointExtension>
            <ns3:atemp>24.0</ns3:atemp>
          </ns3:TrackPointExtension>
        </extensions>
      </trkpt>
      <trkpt lat="42.54326057620346546173095703125" lon="19.96123460121452808380126953125">
        <ele>1204.4000244140625</ele>
        <time>2026-06-17T08:19:10.000Z</time>
        <extensions>
          <ns3:TrackPointExtension>
            <ns3:atemp>24.0</ns3:atemp>
          </ns3:TrackPointExtension>
        </extensions>
      </trkpt>
      <trkpt lat="42.54324146546423435211181640625" lon="19.961234517395496368408203125">
        <ele>1204.4000244140625</ele>
        <time>2026-06-17T08:19:11.000Z</time>
        <extensions>
          <ns3:TrackPointExtension>
            <ns3:atemp>24.0</ns3:atemp>
          </ns3:TrackPointExtension>
        </extensions>
      </trkpt>
      <trkpt lat="42.54322671331465244293212890625" lon="19.96122621931135654449462890625">
        <ele>1204.5999755859375</ele>
        <time>2026-06-17T08:19:12.000Z</time>
        <extensions>
          <ns3:TrackPointExtension>
            <ns3:atemp>24.0</ns3:atemp>
          </ns3:TrackPointExtension>
        </extensions>
      </trkpt>
      <trkpt lat="42.54321062006056308746337890625" lon="19.96122068725526332855224609375">
        <ele>1204.800048828125</ele>
        <time>2026-06-17T08:19:13.000Z</time>
        <extensions>
          <ns3:TrackPointExtension>
            <ns3:atemp>24.0</ns3:atemp>
          </ns3:TrackPointExtension>
        </extensions>
      </trkpt>
      <trkpt lat="42.54319368861615657806396484375" lon="19.9612132273614406585693359375">
        <ele>1205</ele>
        <time>2026-06-17T08:19:14.000Z</time>
        <extensions>
          <ns3:TrackPointExtension>
            <ns3:atemp>24.0</ns3:atemp>
          </ns3:TrackPointExtension>
        </extensions>
      </trkpt>
      <trkpt lat="42.543176673352718353271484375" lon="19.96120325289666652679443359375">
        <ele>1205.199951171875</ele>
        <time>2026-06-17T08:19:15.000Z</time>
        <extensions>
          <ns3:TrackPointExtension>
            <ns3:atemp>24.0</ns3:atemp>
          </ns3:TrackPointExtension>
        </extensions>
      </trkpt>
      <trkpt lat="42.54316049627959728240966796875" lon="19.96119864284992218017578125">
        <ele>1205.4000244140625</ele>
        <time>2026-06-17T08:19:16.000Z</time>
        <extensions>
          <ns3:TrackPointExtension>
            <ns3:atemp>24.0</ns3:atemp>
          </ns3:TrackPointExtension>
        </extensions>
      </trkpt>
      <trkpt lat="42.543148510158061981201171875" lon="19.96119151823222637176513671875">
        <ele>1205.5999755859375</ele>
        <time>2026-06-17T08:19:17.000Z</time>
        <extensions>
          <ns3:TrackPointExtension>
            <ns3:atemp>24.0</ns3:atemp>
          </ns3:TrackPointExtension>
        </extensions>
      </trkpt>
      <trkpt lat="42.543135769665241241455078125" lon="19.96118011884391307830810546875">
        <ele>1205.800048828125</ele>
        <time>2026-06-17T08:19:18.000Z</time>
        <extensions>
          <ns3:TrackPointExtension>
            <ns3:atemp>24.0</ns3:atemp>
          </ns3:TrackPointExtension>
        </extensions>
      </trkpt>
      <trkpt lat="42.54312227480113506317138671875" lon="19.9611679650843143463134765625">
        <ele>1206</ele>
        <time>2026-06-17T08:19:19.000Z</time>
        <extensions>
          <ns3:TrackPointExtension>
            <ns3:atemp>24.0</ns3:atemp>
          </ns3:TrackPointExtension>
        </extensions>
      </trkpt>
      <trkpt lat="42.5431077741086483001708984375" lon="19.96115949936211109161376953125">
        <ele>1206.199951171875</ele>
        <time>2026-06-17T08:19:20.000Z</time>
        <extensions>
          <ns3:TrackPointExtension>
            <ns3:atemp>24.0</ns3:atemp>
          </ns3:TrackPointExtension>
        </extensions>
      </trkpt>
      <trkpt lat="42.54309277050197124481201171875" lon="19.9611508660018444061279296875">
        <ele>1206.5999755859375</ele>
        <time>2026-06-17T08:19:21.000Z</time>
        <extensions>
          <ns3:TrackPointExtension>
            <ns3:atemp>24.0</ns3:atemp>
          </ns3:TrackPointExtension>
        </extensions>
      </trkpt>
      <trkpt lat="42.5430779345333576202392578125" lon="19.961141645908355712890625">
        <ele>1206.800048828125</ele>
        <time>2026-06-17T08:19:22.000Z</time>
        <extensions>
          <ns3:TrackPointExtension>
            <ns3:atemp>24.0</ns3:atemp>
          </ns3:TrackPointExtension>
        </extensions>
      </trkpt>
      <trkpt lat="42.5430618412792682647705078125" lon="19.96113167144358158111572265625">
        <ele>1207</ele>
        <time>2026-06-17T08:19:23.000Z</time>
        <extensions>
          <ns3:TrackPointExtension>
            <ns3:atemp>24.0</ns3:atemp>
          </ns3:TrackPointExtension>
        </extensions>
      </trkpt>
      <trkpt lat="42.54304532893002033233642578125" lon="19.96112815104424953460693359375">
        <ele>1207.4000244140625</ele>
        <time>2026-06-17T08:19:24.000Z</time>
        <extensions>
          <ns3:TrackPointExtension>
            <ns3:atemp>24.0</ns3:atemp>
          </ns3:TrackPointExtension>
        </extensions>
      </trkpt>
      <trkpt lat="42.543029822409152984619140625" lon="19.96112345717847347259521484375">
        <ele>1207.5999755859375</ele>
        <time>2026-06-17T08:19:25.000Z</time>
        <extensions>
          <ns3:TrackPointExtension>
            <ns3:atemp>24.0</ns3:atemp>
          </ns3:TrackPointExtension>
        </extensions>
      </trkpt>
      <trkpt lat="42.54301398061215877532958984375" lon="19.9611186794936656951904296875">
        <ele>1207.800048828125</ele>
        <time>2026-06-17T08:19:26.000Z</time>
        <extensions>
          <ns3:TrackPointExtension>
            <ns3:atemp>24.0</ns3:atemp>
          </ns3:TrackPointExtension>
        </extensions>
      </trkpt>
      <trkpt lat="42.5429986417293548583984375" lon="19.96111054904758930206298828125">
        <ele>1208.199951171875</ele>
        <time>2026-06-17T08:19:27.000Z</time>
        <extensions>
          <ns3:TrackPointExtension>
            <ns3:atemp>24.0</ns3:atemp>
          </ns3:TrackPointExtension>
        </extensions>
      </trkpt>
      <trkpt lat="42.542981542646884918212890625" lon="19.96110585518181324005126953125">
        <ele>1208.4000244140625</ele>
        <time>2026-06-17T08:19:28.000Z</time>
        <extensions>
          <ns3:TrackPointExtension>
            <ns3:atemp>24.0</ns3:atemp>
          </ns3:TrackPointExtension>
        </extensions>
      </trkpt>
      <trkpt lat="42.5429676286876201629638671875" lon="19.9611056037247180938720703125">
        <ele>1208.5999755859375</ele>
        <time>2026-06-17T08:19:29.000Z</time>
        <extensions>
          <ns3:TrackPointExtension>
            <ns3:atemp>24.0</ns3:atemp>
          </ns3:TrackPointExtension>
        </extensions>
      </trkpt>
      <trkpt lat="42.5429552234709262847900390625" lon="19.96110803447663784027099609375">
        <ele>1208.800048828125</ele>
        <time>2026-06-17T08:19:30.000Z</time>
        <extensions>
          <ns3:TrackPointExtension>
            <ns3:atemp>24.0</ns3:atemp>
          </ns3:TrackPointExtension>
        </extensions>
      </trkpt>
      <trkpt lat="42.54294223152101039886474609375" lon="19.9611054360866546630859375">
        <ele>1209</ele>
        <time>2026-06-17T08:19:31.000Z</time>
        <extensions>
          <ns3:TrackPointExtension>
            <ns3:atemp>24.0</ns3:atemp>
          </ns3:TrackPointExtension>
        </extensions>
      </trkpt>
      <trkpt lat="42.542926557362079620361328125" lon="19.961104430258274078369140625">
        <ele>1209.199951171875</ele>
        <time>2026-06-17T08:19:32.000Z</time>
        <extensions>
          <ns3:TrackPointExtension>
            <ns3:atemp>24.0</ns3:atemp>
          </ns3:TrackPointExtension>
        </extensions>
      </trkpt>
      <trkpt lat="42.54291038028895854949951171875" lon="19.96110082603991031646728515625">
        <ele>1209.5999755859375</ele>
        <time>2026-06-17T08:19:33.000Z</time>
        <extensions>
          <ns3:TrackPointExtension>
            <ns3:atemp>24.0</ns3:atemp>
          </ns3:TrackPointExtension>
        </extensions>
      </trkpt>
      <trkpt lat="42.5428958795964717864990234375" lon="19.96109412051737308502197265625">
        <ele>1210</ele>
        <time>2026-06-17T08:19:34.000Z</time>
        <extensions>
          <ns3:TrackPointExtension>
            <ns3:atemp>24.0</ns3:atemp>
          </ns3:TrackPointExtension>
        </extensions>
      </trkpt>
      <trkpt lat="42.54288406111299991607666015625" lon="19.96107903309166431427001953125">
        <ele>1210.4000244140625</ele>
        <time>2026-06-17T08:19:35.000Z</time>
        <extensions>
          <ns3:TrackPointExtension>
            <ns3:atemp>24.0</ns3:atemp>
          </ns3:TrackPointExtension>
        </extensions>
      </trkpt>
      <trkpt lat="42.54287400282919406890869140625" lon="19.96106159873306751251220703125">
        <ele>1210.5999755859375</ele>
        <time>2026-06-17T08:19:36.000Z</time>
        <extensions>
          <ns3:TrackPointExtension>
            <ns3:atemp>24.0</ns3:atemp>
          </ns3:TrackPointExtension>
        </extensions>
      </trkpt>
      <trkpt lat="42.542866207659244537353515625" lon="19.96104039251804351806640625">
        <ele>1210.800048828125</ele>
        <time>2026-06-17T08:19:37.000Z</time>
        <extensions>
          <ns3:TrackPointExtension>
            <ns3:atemp>24.0</ns3:atemp>
          </ns3:TrackPointExtension>
        </extensions>
      </trkpt>
      <trkpt lat="42.54286310635507106781005859375" lon="19.96101398952305316925048828125">
        <ele>1211.199951171875</ele>
        <time>2026-06-17T08:19:38.000Z</time>
        <extensions>
          <ns3:TrackPointExtension>
            <ns3:atemp>24.0</ns3:atemp>
          </ns3:TrackPointExtension>
        </extensions>
      </trkpt>
      <trkpt lat="42.5428650341928005218505859375" lon="19.9609889276325702667236328125">
        <ele>1211.4000244140625</ele>
        <time>2026-06-17T08:19:39.000Z</time>
        <extensions>
          <ns3:TrackPointExtension>
            <ns3:atemp>24.0</ns3:atemp>
          </ns3:TrackPointExtension>
        </extensions>
      </trkpt>
      <trkpt lat="42.54287098534405231475830078125" lon="19.9609681405127048492431640625">
        <ele>1211.5999755859375</ele>
        <time>2026-06-17T08:19:40.000Z</time>
        <extensions>
          <ns3:TrackPointExtension>
            <ns3:atemp>24.0</ns3:atemp>
          </ns3:TrackPointExtension>
        </extensions>
      </trkpt>
      <trkpt lat="42.5428858213126659393310546875" lon="19.96094810776412487030029296875">
        <ele>1211.800048828125</ele>
        <time>2026-06-17T08:19:41.000Z</time>
        <extensions>
          <ns3:TrackPointExtension>
            <ns3:atemp>24.0</ns3:atemp>
          </ns3:TrackPointExtension>
        </extensions>
      </trkpt>
      <trkpt lat="42.542897053062915802001953125" lon="19.9609399773180484771728515625">
        <ele>1212</ele>
        <time>2026-06-17T08:19:42.000Z</time>
        <extensions>
          <ns3:TrackPointExtension>
            <ns3:atemp>24.0</ns3:atemp>
          </ns3:TrackPointExtension>
        </extensions>
      </trkpt>
      <trkpt lat="42.54290945827960968017578125" lon="19.9609359540045261383056640625">
        <ele>1212.199951171875</ele>
        <time>2026-06-17T08:19:43.000Z</time>
        <extensions>
          <ns3:TrackPointExtension>
            <ns3:atemp>24.0</ns3:atemp>
          </ns3:TrackPointExtension>
        </extensions>
      </trkpt>
      <trkpt lat="42.54292228259146213531494140625" lon="19.9609284102916717529296875">
        <ele>1212.4000244140625</ele>
        <time>2026-06-17T08:19:44.000Z</time>
        <extensions>
          <ns3:TrackPointExtension>
            <ns3:atemp>24.0</ns3:atemp>
          </ns3:TrackPointExtension>
        </extensions>
      </trkpt>
      <trkpt lat="42.54293552599847316741943359375" lon="19.96092514134943485260009765625">
        <ele>1212.800048828125</ele>
        <time>2026-06-17T08:19:45.000Z</time>
        <extensions>
          <ns3:TrackPointExtension>
            <ns3:atemp>24.0</ns3:atemp>
          </ns3:TrackPointExtension>
        </extensions>
      </trkpt>
      <trkpt lat="42.54295027814805507659912109375" lon="19.96092312969267368316650390625">
        <ele>1212.800048828125</ele>
        <time>2026-06-17T08:19:46.000Z</time>
        <extensions>
          <ns3:TrackPointExtension>
            <ns3:atemp>24.0</ns3:atemp>
          </ns3:TrackPointExtension>
        </extensions>
      </trkpt>
      <trkpt lat="42.54296067170798778533935546875" lon="19.9609230458736419677734375">
        <ele>1213</ele>
        <time>2026-06-17T08:19:47.000Z</time>
        <extensions>
          <ns3:TrackPointExtension>
            <ns3:atemp>24.0</ns3:atemp>
          </ns3:TrackPointExtension>
        </extensions>
      </trkpt>
      <trkpt lat="42.54297559149563312530517578125" lon="19.96091692708432674407958984375">
        <ele>1213.4000244140625</ele>
        <time>2026-06-17T08:19:48.000Z</time>
        <extensions>
          <ns3:TrackPointExtension>
            <ns3:atemp>24.0</ns3:atemp>
          </ns3:TrackPointExtension>
        </extensions>
      </trkpt>
      <trkpt lat="42.5429894216358661651611328125" lon="19.96091022156178951263427734375">
        <ele>1213.5999755859375</ele>
        <time>2026-06-17T08:19:49.000Z</time>
        <extensions>
          <ns3:TrackPointExtension>
            <ns3:atemp>24.0</ns3:atemp>
          </ns3:TrackPointExtension>
        </extensions>
      </trkpt>
      <trkpt lat="42.543000988662242889404296875" lon="19.9609067849814891815185546875">
        <ele>1214</ele>
        <time>2026-06-17T08:19:50.000Z</time>
        <extensions>
          <ns3:TrackPointExtension>
            <ns3:atemp>24.0</ns3:atemp>
          </ns3:TrackPointExtension>
        </extensions>
      </trkpt>
      <trkpt lat="42.5430118851363658905029296875" lon="19.9609061144292354583740234375">
        <ele>1214.199951171875</ele>
        <time>2026-06-17T08:19:51.000Z</time>
        <extensions>
          <ns3:TrackPointExtension>
            <ns3:atemp>24.0</ns3:atemp>
          </ns3:TrackPointExtension>
        </extensions>
      </trkpt>
      <trkpt lat="42.5430227816104888916015625" lon="19.9609029293060302734375">
        <ele>1214.5999755859375</ele>
        <time>2026-06-17T08:19:52.000Z</time>
        <extensions>
          <ns3:TrackPointExtension>
            <ns3:atemp>24.0</ns3:atemp>
          </ns3:TrackPointExtension>
        </extensions>
      </trkpt>
      <trkpt lat="42.54303627647459506988525390625" lon="19.960900247097015380859375">
        <ele>1214.800048828125</ele>
        <time>2026-06-17T08:19:53.000Z</time>
        <extensions>
          <ns3:TrackPointExtension>
            <ns3:atemp>24.0</ns3:atemp>
          </ns3:TrackPointExtension>
        </extensions>
      </trkpt>
      <trkpt lat="42.54305421374738216400146484375" lon="19.96089597232639789581298828125">
        <ele>1215</ele>
        <time>2026-06-17T08:19:54.000Z</time>
        <extensions>
          <ns3:TrackPointExtension>
            <ns3:atemp>24.0</ns3:atemp>
          </ns3:TrackPointExtension>
        </extensions>
      </trkpt>
      <trkpt lat="42.5430702231824398040771484375" lon="19.96088893152773380279541015625">
        <ele>1215.199951171875</ele>
        <time>2026-06-17T08:19:55.000Z</time>
        <extensions>
          <ns3:TrackPointExtension>
            <ns3:atemp>24.0</ns3:atemp>
          </ns3:TrackPointExtension>
        </extensions>
      </trkpt>
      <trkpt lat="42.54308723844587802886962890625" lon="19.960878454148769378662109375">
        <ele>1215.5999755859375</ele>
        <time>2026-06-17T08:19:56.000Z</time>
        <extensions>
          <ns3:TrackPointExtension>
            <ns3:atemp>24.0</ns3:atemp>
          </ns3:TrackPointExtension>
        </extensions>
      </trkpt>
      <trkpt lat="42.5431059300899505615234375" lon="19.96087141335010528564453125">
        <ele>1215.5999755859375</ele>
        <time>2026-06-17T08:19:57.000Z</time>
        <extensions>
          <ns3:TrackPointExtension>
            <ns3:atemp>24.0</ns3:atemp>
          </ns3:TrackPointExtension>
        </extensions>
      </trkpt>
      <trkpt lat="42.54312361590564250946044921875" lon="19.960864372551441192626953125">
        <ele>1215.5999755859375</ele>
        <time>2026-06-17T08:19:58.000Z</time>
        <extensions>
          <ns3:TrackPointExtension>
            <ns3:atemp>24.0</ns3:atemp>
          </ns3:TrackPointExtension>
        </extensions>
      </trkpt>
      <trkpt lat="42.543144486844539642333984375" lon="19.96085934340953826904296875">
        <ele>1215.800048828125</ele>
        <time>2026-06-17T08:19:59.000Z</time>
        <extensions>
          <ns3:TrackPointExtension>
            <ns3:atemp>24.0</ns3:atemp>
          </ns3:TrackPointExtension>
        </extensions>
      </trkpt>
      <trkpt lat="42.54316334612667560577392578125" lon="19.96085071004927158355712890625">
        <ele>1215.800048828125</ele>
        <time>2026-06-17T08:20:00.000Z</time>
        <extensions>
          <ns3:TrackPointExtension>
            <ns3:atemp>24.0</ns3:atemp>
          </ns3:TrackPointExtension>
        </extensions>
      </trkpt>
      <trkpt lat="42.54318128339946269989013671875" lon="19.9608425796031951904296875">
        <ele>1216</ele>
        <time>2026-06-17T08:20:01.000Z</time>
        <extensions>
          <ns3:TrackPointExtension>
            <ns3:atemp>24.0</ns3:atemp>
          </ns3:TrackPointExtension>
        </extensions>
      </trkpt>
      <trkpt lat="42.5432009808719158172607421875" lon="19.96083076111972332000732421875">
        <ele>1216.199951171875</ele>
        <time>2026-06-17T08:20:02.000Z</time>
        <extensions>
          <ns3:TrackPointExtension>
            <ns3:atemp>24.0</ns3:atemp>
          </ns3:TrackPointExtension>
        </extensions>
      </trkpt>
      <trkpt lat="42.5432200916111469268798828125" lon="19.96081936173141002655029296875">
        <ele>1216.4000244140625</ele>
        <time>2026-06-17T08:20:03.000Z</time>
        <extensions>
          <ns3:TrackPointExtension>
            <ns3:atemp>24.0</ns3:atemp>
          </ns3:TrackPointExtension>
        </extensions>
      </trkpt>
      <trkpt lat="42.5432378612458705902099609375" lon="19.96081030927598476409912109375">
        <ele>1216.5999755859375</ele>
        <time>2026-06-17T08:20:04.000Z</time>
        <extensions>
          <ns3:TrackPointExtension>
            <ns3:atemp>24.0</ns3:atemp>
          </ns3:TrackPointExtension>
        </extensions>
      </trkpt>
      <trkpt lat="42.54325143992900848388671875" lon="19.96079924516379833221435546875">
        <ele>1217</ele>
        <time>2026-06-17T08:20:05.000Z</time>
        <extensions>
          <ns3:TrackPointExtension>
            <ns3:atemp>24.0</ns3:atemp>
          </ns3:TrackPointExtension>
        </extensions>
      </trkpt>
      <trkpt lat="42.54326493479311466217041015625" lon="19.960787594318389892578125">
        <ele>1217.199951171875</ele>
        <time>2026-06-17T08:20:06.000Z</time>
        <extensions>
          <ns3:TrackPointExtension>
            <ns3:atemp>24.0</ns3:atemp>
          </ns3:TrackPointExtension>
        </extensions>
      </trkpt>
      <trkpt lat="42.5432804413139820098876953125" lon="19.960778541862964630126953125">
        <ele>1217.5999755859375</ele>
        <time>2026-06-17T08:20:07.000Z</time>
        <extensions>
          <ns3:TrackPointExtension>
            <ns3:atemp>24.0</ns3:atemp>
          </ns3:TrackPointExtension>
        </extensions>
      </trkpt>
      <trkpt lat="42.5432945229113101959228515625" lon="19.960771836340427398681640625">
        <ele>1217.800048828125</ele>
        <time>2026-06-17T08:20:08.000Z</time>
        <extensions>
          <ns3:TrackPointExtension>
            <ns3:atemp>24.0</ns3:atemp>
          </ns3:TrackPointExtension>
        </extensions>
      </trkpt>
      <trkpt lat="42.54331220872700214385986328125" lon="19.960762448608875274658203125">
        <ele>1218</ele>
        <time>2026-06-17T08:20:09.000Z</time>
        <extensions>
          <ns3:TrackPointExtension>
            <ns3:atemp>24.0</ns3:atemp>
          </ns3:TrackPointExtension>
        </extensions>
      </trkpt>
      <trkpt lat="42.54333064891397953033447265625" lon="19.96075347997248172760009765625">
        <ele>1218.199951171875</ele>
        <time>2026-06-17T08:20:10.000Z</time>
        <extensions>
          <ns3:TrackPointExtension>
            <ns3:atemp>24.0</ns3:atemp>
          </ns3:TrackPointExtension>
        </extensions>
      </trkpt>
      <trkpt lat="42.54335110075771808624267578125" lon="19.9607445113360881805419921875">
        <ele>1218.4000244140625</ele>
        <time>2026-06-17T08:20:11.000Z</time>
        <extensions>
          <ns3:TrackPointExtension>
            <ns3:atemp>24.0</ns3:atemp>
          </ns3:TrackPointExtension>
        </extensions>
      </trkpt>
      <trkpt lat="42.54337306134402751922607421875" lon="19.96073436923325061798095703125">
        <ele>1218.5999755859375</ele>
        <time>2026-06-17T08:20:12.000Z</time>
        <extensions>
          <ns3:TrackPointExtension>
            <ns3:atemp>24.0</ns3:atemp>
          </ns3:TrackPointExtension>
        </extensions>
      </trkpt>
      <trkpt lat="42.54339485429227352142333984375" lon="19.960724897682666778564453125">
        <ele>1218.5999755859375</ele>
        <time>2026-06-17T08:20:13.000Z</time>
        <extensions>
          <ns3:TrackPointExtension>
            <ns3:atemp>24.0</ns3:atemp>
          </ns3:TrackPointExtension>
        </extensions>
      </trkpt>
      <trkpt lat="42.5434168986976146697998046875" lon="19.96071592904627323150634765625">
        <ele>1218.800048828125</ele>
        <time>2026-06-17T08:20:14.000Z</time>
        <extensions>
          <ns3:TrackPointExtension>
            <ns3:atemp>24.0</ns3:atemp>
          </ns3:TrackPointExtension>
        </extensions>
      </trkpt>
      <trkpt lat="42.54343424923717975616455078125" lon="19.960707128047943115234375">
        <ele>1219</ele>
        <time>2026-06-17T08:20:15.000Z</time>
        <extensions>
          <ns3:TrackPointExtension>
            <ns3:atemp>24.0</ns3:atemp>
          </ns3:TrackPointExtension>
        </extensions>
      </trkpt>
      <trkpt lat="42.54344858229160308837890625" lon="19.9606999196112155914306640625">
        <ele>1219.199951171875</ele>
        <time>2026-06-17T08:20:16.000Z</time>
        <extensions>
          <ns3:TrackPointExtension>
            <ns3:atemp>24.0</ns3:atemp>
          </ns3:TrackPointExtension>
        </extensions>
      </trkpt>
      <trkpt lat="42.5434651784598827362060546875" lon="19.96069028042256832122802734375">
        <ele>1219.4000244140625</ele>
        <time>2026-06-17T08:20:17.000Z</time>
        <extensions>
          <ns3:TrackPointExtension>
            <ns3:atemp>24.0</ns3:atemp>
          </ns3:TrackPointExtension>
        </extensions>
      </trkpt>
      <trkpt lat="42.5434836186468601226806640625" lon="19.960682652890682220458984375">
        <ele>1219.5999755859375</ele>
        <time>2026-06-17T08:20:18.000Z</time>
        <extensions>
          <ns3:TrackPointExtension>
            <ns3:atemp>24.0</ns3:atemp>
          </ns3:TrackPointExtension>
        </extensions>
      </trkpt>
      <trkpt lat="42.543497867882251739501953125" lon="19.96067401953041553497314453125">
        <ele>1219.800048828125</ele>
        <time>2026-06-17T08:20:19.000Z</time>
        <extensions>
          <ns3:TrackPointExtension>
            <ns3:atemp>24.0</ns3:atemp>
          </ns3:TrackPointExtension>
        </extensions>
      </trkpt>
      <trkpt lat="42.543516643345355987548828125" lon="19.960669577121734619140625">
        <ele>1220</ele>
        <time>2026-06-17T08:20:20.000Z</time>
        <extensions>
          <ns3:TrackPointExtension>
            <ns3:atemp>24.0</ns3:atemp>
          </ns3:TrackPointExtension>
        </extensions>
      </trkpt>
      <trkpt lat="42.5435342453420162200927734375" lon="19.960665889084339141845703125">
        <ele>1220</ele>
        <time>2026-06-17T08:20:21.000Z</time>
        <extensions>
          <ns3:TrackPointExtension>
            <ns3:atemp>24.0</ns3:atemp>
          </ns3:TrackPointExtension>
        </extensions>
      </trkpt>
      <trkpt lat="42.543550170958042144775390625" lon="19.96066060848534107208251953125">
        <ele>1220.199951171875</ele>
        <time>2026-06-17T08:20:22.000Z</time>
        <extensions>
          <ns3:TrackPointExtension>
            <ns3:atemp>24.0</ns3:atemp>
          </ns3:TrackPointExtension>
        </extensions>
      </trkpt>
      <trkpt lat="42.54356735385954380035400390625" lon="19.960653819143772125244140625">
        <ele>1220.5999755859375</ele>
        <time>2026-06-17T08:20:23.000Z</time>
        <extensions>
          <ns3:TrackPointExtension>
            <ns3:atemp>24.0</ns3:atemp>
          </ns3:TrackPointExtension>
        </extensions>
      </trkpt>
      <trkpt lat="42.5435815192759037017822265625" lon="19.96064417995512485504150390625">
        <ele>1220.800048828125</ele>
        <time>2026-06-17T08:20:24.000Z</time>
        <extensions>
          <ns3:TrackPointExtension>
            <ns3:atemp>24.0</ns3:atemp>
          </ns3:TrackPointExtension>
        </extensions>
      </trkpt>
      <trkpt lat="42.5435969419777393341064453125" lon="19.9606321938335895538330078125">
        <ele>1221</ele>
        <time>2026-06-17T08:20:25.000Z</time>
        <extensions>
          <ns3:TrackPointExtension>
            <ns3:atemp>24.0</ns3:atemp>
          </ns3:TrackPointExtension>
        </extensions>
      </trkpt>
      <trkpt lat="42.5436100177466869354248046875" lon="19.9606161005795001983642578125">
        <ele>1221.199951171875</ele>
        <time>2026-06-17T08:20:26.000Z</time>
        <extensions>
          <ns3:TrackPointExtension>
            <ns3:atemp>24.0</ns3:atemp>
          </ns3:TrackPointExtension>
        </extensions>
      </trkpt>
      <trkpt lat="42.54362217150628566741943359375" lon="19.960605204105377197265625">
        <ele>1221.4000244140625</ele>
        <time>2026-06-17T08:20:27.000Z</time>
        <extensions>
          <ns3:TrackPointExtension>
            <ns3:atemp>24.0</ns3:atemp>
          </ns3:TrackPointExtension>
        </extensions>
      </trkpt>
      <trkpt lat="42.5436351634562015533447265625" lon="19.96059573255479335784912109375">
        <ele>1221.5999755859375</ele>
        <time>2026-06-17T08:20:28.000Z</time>
        <extensions>
          <ns3:TrackPointExtension>
            <ns3:atemp>24.0</ns3:atemp>
          </ns3:TrackPointExtension>
        </extensions>
      </trkpt>
      <trkpt lat="42.543646059930324554443359375" lon="19.96058634482324123382568359375">
        <ele>1221.5999755859375</ele>
        <time>2026-06-17T08:20:29.000Z</time>
        <extensions>
          <ns3:TrackPointExtension>
            <ns3:atemp>24.0</ns3:atemp>
          </ns3:TrackPointExtension>
        </extensions>
      </trkpt>
      <trkpt lat="42.54366106353700160980224609375" lon="19.96057461015880107879638671875">
        <ele>1221.800048828125</ele>
        <time>2026-06-17T08:20:30.000Z</time>
        <extensions>
          <ns3:TrackPointExtension>
            <ns3:atemp>24.0</ns3:atemp>
          </ns3:TrackPointExtension>
        </extensions>
      </trkpt>
      <trkpt lat="42.543673217296600341796875" lon="19.96056103147566318511962890625">
        <ele>1222</ele>
        <time>2026-06-17T08:20:31.000Z</time>
        <extensions>
          <ns3:TrackPointExtension>
            <ns3:atemp>24.0</ns3:atemp>
          </ns3:TrackPointExtension>
        </extensions>
      </trkpt>
      <trkpt lat="42.54368704743683338165283203125" lon="19.960552565753459930419921875">
        <ele>1222.199951171875</ele>
        <time>2026-06-17T08:20:32.000Z</time>
        <extensions>
          <ns3:TrackPointExtension>
            <ns3:atemp>24.0</ns3:atemp>
          </ns3:TrackPointExtension>
        </extensions>
      </trkpt>
      <trkpt lat="42.5436961837112903594970703125" lon="19.96054661460220813751220703125">
        <ele>1222.4000244140625</ele>
        <time>2026-06-17T08:20:33.000Z</time>
        <extensions>
          <ns3:TrackPointExtension>
            <ns3:atemp>24.0</ns3:atemp>
          </ns3:TrackPointExtension>
        </extensions>
      </trkpt>
      <trkpt lat="42.5437102653086185455322265625" lon="19.96053588576614856719970703125">
        <ele>1222.5999755859375</ele>
        <time>2026-06-17T08:20:34.000Z</time>
        <extensions>
          <ns3:TrackPointExtension>
            <ns3:atemp>24.0</ns3:atemp>
          </ns3:TrackPointExtension>
        </extensions>
      </trkpt>
      <trkpt lat="42.54371789284050464630126953125" lon="19.96052465401589870452880859375">
        <ele>1222.800048828125</ele>
        <time>2026-06-17T08:20:35.000Z</time>
        <extensions>
          <ns3:TrackPointExtension>
            <ns3:atemp>24.0</ns3:atemp>
          </ns3:TrackPointExtension>
        </extensions>
      </trkpt>
      <trkpt lat="42.54372761584818363189697265625" lon="19.96051333844661712646484375">
        <ele>1223.199951171875</ele>
        <time>2026-06-17T08:20:36.000Z</time>
        <extensions>
          <ns3:TrackPointExtension>
            <ns3:atemp>24.0</ns3:atemp>
          </ns3:TrackPointExtension>
        </extensions>
      </trkpt>
      <trkpt lat="42.54373901523649692535400390625" lon="19.96050504036247730255126953125">
        <ele>1223.4000244140625</ele>
        <time>2026-06-17T08:20:37.000Z</time>
        <extensions>
          <ns3:TrackPointExtension>
            <ns3:atemp>24.0</ns3:atemp>
          </ns3:TrackPointExtension>
        </extensions>
      </trkpt>
      <trkpt lat="42.54374655894935131072998046875" lon="19.96049380861222743988037109375">
        <ele>1223.5999755859375</ele>
        <time>2026-06-17T08:20:38.000Z</time>
        <extensions>
          <ns3:TrackPointExtension>
            <ns3:atemp>24.0</ns3:atemp>
          </ns3:TrackPointExtension>
        </extensions>
      </trkpt>
      <trkpt lat="42.54375301301479339599609375" lon="19.9604813195765018463134765625">
        <ele>1224</ele>
        <time>2026-06-17T08:20:39.000Z</time>
        <extensions>
          <ns3:TrackPointExtension>
            <ns3:atemp>24.0</ns3:atemp>
          </ns3:TrackPointExtension>
        </extensions>
      </trkpt>
      <trkpt lat="42.54376147873699665069580078125" lon="19.9604695849120616912841796875">
        <ele>1224.199951171875</ele>
        <time>2026-06-17T08:20:40.000Z</time>
        <extensions>
          <ns3:TrackPointExtension>
            <ns3:atemp>24.0</ns3:atemp>
          </ns3:TrackPointExtension>
        </extensions>
      </trkpt>
      <trkpt lat="42.5437763147056102752685546875" lon="19.96045223437249660491943359375">
        <ele>1224.5999755859375</ele>
        <time>2026-06-17T08:20:41.000Z</time>
        <extensions>
          <ns3:TrackPointExtension>
            <ns3:atemp>24.0</ns3:atemp>
          </ns3:TrackPointExtension>
        </extensions>
      </trkpt>
      <trkpt lat="42.54378444515168666839599609375" lon="19.960439242422580718994140625">
        <ele>1224.800048828125</ele>
        <time>2026-06-17T08:20:42.000Z</time>
        <extensions>
          <ns3:TrackPointExtension>
            <ns3:atemp>24.0</ns3:atemp>
          </ns3:TrackPointExtension>
        </extensions>
      </trkpt>
      <trkpt lat="42.54379433579742908477783203125" lon="19.9604270048439502716064453125">
        <ele>1225</ele>
        <time>2026-06-17T08:20:43.000Z</time>
        <extensions>
          <ns3:TrackPointExtension>
            <ns3:atemp>24.0</ns3:atemp>
          </ns3:TrackPointExtension>
        </extensions>
      </trkpt>
      <trkpt lat="42.54380187951028347015380859375" lon="19.9604176171123981475830078125">
        <ele>1225.199951171875</ele>
        <time>2026-06-17T08:20:44.000Z</time>
        <extensions>
          <ns3:TrackPointExtension>
            <ns3:atemp>24.0</ns3:atemp>
          </ns3:TrackPointExtension>
        </extensions>
      </trkpt>
      <trkpt lat="42.54381193779408931732177734375" lon="19.96040194295346736907958984375">
        <ele>1225.4000244140625</ele>
        <time>2026-06-17T08:20:45.000Z</time>
        <extensions>
          <ns3:TrackPointExtension>
            <ns3:atemp>24.0</ns3:atemp>
          </ns3:TrackPointExtension>
        </extensions>
      </trkpt>
      <trkpt lat="42.54382283426821231842041015625" lon="19.96038593351840972900390625">
        <ele>1225.5999755859375</ele>
        <time>2026-06-17T08:20:46.000Z</time>
        <extensions>
          <ns3:TrackPointExtension>
            <ns3:atemp>24.0</ns3:atemp>
          </ns3:TrackPointExtension>
        </extensions>
      </trkpt>
      <trkpt lat="42.54383289255201816558837890625" lon="19.96037185192108154296875">
        <ele>1225.800048828125</ele>
        <time>2026-06-17T08:20:47.000Z</time>
        <extensions>
          <ns3:TrackPointExtension>
            <ns3:atemp>24.0</ns3:atemp>
          </ns3:TrackPointExtension>
        </extensions>
      </trkpt>
      <trkpt lat="42.543842531740665435791015625" lon="19.9603557586669921875">
        <ele>1226</ele>
        <time>2026-06-17T08:20:48.000Z</time>
        <extensions>
          <ns3:TrackPointExtension>
            <ns3:atemp>24.0</ns3:atemp>
          </ns3:TrackPointExtension>
        </extensions>
      </trkpt>
      <trkpt lat="42.54385032691061496734619140625" lon="19.9603431858122348785400390625">
        <ele>1226.199951171875</ele>
        <time>2026-06-17T08:20:49.000Z</time>
        <extensions>
          <ns3:TrackPointExtension>
            <ns3:atemp>24.0</ns3:atemp>
          </ns3:TrackPointExtension>
        </extensions>
      </trkpt>
      <trkpt lat="42.543859295547008514404296875" lon="19.96033094823360443115234375">
        <ele>1226.5999755859375</ele>
        <time>2026-06-17T08:20:50.000Z</time>
        <extensions>
          <ns3:TrackPointExtension>
            <ns3:atemp>24.0</ns3:atemp>
          </ns3:TrackPointExtension>
        </extensions>
      </trkpt>
      <trkpt lat="42.54386859945952892303466796875" lon="19.960313178598880767822265625">
        <ele>1226.800048828125</ele>
        <time>2026-06-17T08:20:51.000Z</time>
        <extensions>
          <ns3:TrackPointExtension>
            <ns3:atemp>24.0</ns3:atemp>
          </ns3:TrackPointExtension>
        </extensions>
      </trkpt>
      <trkpt lat="42.543880082666873931884765625" lon="19.960293062031269073486328125">
        <ele>1227</ele>
        <time>2026-06-17T08:20:52.000Z</time>
        <extensions>
          <ns3:TrackPointExtension>
            <ns3:atemp>24.0</ns3:atemp>
          </ns3:TrackPointExtension>
        </extensions>
      </trkpt>
      <trkpt lat="42.54389240406453609466552734375" lon="19.96027487330138683319091796875">
        <ele>1227.199951171875</ele>
        <time>2026-06-17T08:20:53.000Z</time>
        <extensions>
          <ns3:TrackPointExtension>
            <ns3:atemp>24.0</ns3:atemp>
          </ns3:TrackPointExtension>
        </extensions>
      </trkpt>
      <trkpt lat="42.5439060665667057037353515625" lon="19.960262216627597808837890625">
        <ele>1227.199951171875</ele>
        <time>2026-06-17T08:20:54.000Z</time>
        <extensions>
          <ns3:TrackPointExtension>
            <ns3:atemp>24.0</ns3:atemp>
          </ns3:TrackPointExtension>
        </extensions>
      </trkpt>
      <trkpt lat="42.5439240038394927978515625" lon="19.96024989522993564605712890625">
        <ele>1227.4000244140625</ele>
        <time>2026-06-17T08:20:55.000Z</time>
        <extensions>
          <ns3:TrackPointExtension>
            <ns3:atemp>24.0</ns3:atemp>
          </ns3:TrackPointExtension>
        </extensions>
      </trkpt>
      <trkpt lat="42.54394470714032649993896484375" lon="19.96023765765130519866943359375">
        <ele>1227.199951171875</ele>
        <time>2026-06-17T08:20:56.000Z</time>
        <extensions>
          <ns3:TrackPointExtension>
            <ns3:atemp>24.0</ns3:atemp>
          </ns3:TrackPointExtension>
        </extensions>
      </trkpt>
      <trkpt lat="42.5439657457172870635986328125" lon="19.9602275155484676361083984375">
        <ele>1227.199951171875</ele>
        <time>2026-06-17T08:20:57.000Z</time>
        <extensions>
          <ns3:TrackPointExtension>
            <ns3:atemp>24.0</ns3:atemp>
          </ns3:TrackPointExtension>
        </extensions>
      </trkpt>
      <trkpt lat="42.543986029922962188720703125" lon="19.96022500097751617431640625">
        <ele>1227.199951171875</ele>
        <time>2026-06-17T08:20:58.000Z</time>
        <extensions>
          <ns3:TrackPointExtension>
            <ns3:atemp>24.0</ns3:atemp>
          </ns3:TrackPointExtension>
        </extensions>
      </trkpt>
      <trkpt lat="42.5440032966434955596923828125" lon="19.96022676117718219757080078125">
        <ele>1227</ele>
        <time>2026-06-17T08:20:59.000Z</time>
        <extensions>
          <ns3:TrackPointExtension>
            <ns3:atemp>24.0</ns3:atemp>
          </ns3:TrackPointExtension>
        </extensions>
      </trkpt>
      <trkpt lat="42.5440207310020923614501953125" lon="19.96022977866232395172119140625">
        <ele>1227.199951171875</ele>
        <time>2026-06-17T08:21:00.000Z</time>
        <extensions>
          <ns3:TrackPointExtension>
            <ns3:atemp>24.0</ns3:atemp>
          </ns3:TrackPointExtension>
        </extensions>
      </trkpt>
      <trkpt lat="42.5440338067710399627685546875" lon="19.960229694843292236328125">
        <ele>1227.199951171875</ele>
        <time>2026-06-17T08:21:01.000Z</time>
        <extensions>
          <ns3:TrackPointExtension>
            <ns3:atemp>24.0</ns3:atemp>
          </ns3:TrackPointExtension>
        </extensions>
      </trkpt>
      <trkpt lat="42.544046379625797271728515625" lon="19.9602283537387847900390625">
        <ele>1227.5999755859375</ele>
        <time>2026-06-17T08:21:02.000Z</time>
        <extensions>
          <ns3:TrackPointExtension>
            <ns3:atemp>24.0</ns3:atemp>
          </ns3:TrackPointExtension>
        </extensions>
      </trkpt>
      <trkpt lat="42.54406037740409374237060546875" lon="19.96023036539554595947265625">
        <ele>1227.800048828125</ele>
        <time>2026-06-17T08:21:03.000Z</time>
        <extensions>
          <ns3:TrackPointExtension>
            <ns3:atemp>24.0</ns3:atemp>
          </ns3:TrackPointExtension>
        </extensions>
      </trkpt>
      <trkpt lat="42.54407621920108795166015625" lon="19.96023279614746570587158203125">
        <ele>1228</ele>
        <time>2026-06-17T08:21:04.000Z</time>
        <extensions>
          <ns3:TrackPointExtension>
            <ns3:atemp>24.0</ns3:atemp>
          </ns3:TrackPointExtension>
        </extensions>
      </trkpt>
      <trkpt lat="42.54409231245517730712890625" lon="19.960234053432941436767578125">
        <ele>1228.199951171875</ele>
        <time>2026-06-17T08:21:05.000Z</time>
        <extensions>
          <ns3:TrackPointExtension>
            <ns3:atemp>24.0</ns3:atemp>
          </ns3:TrackPointExtension>
        </extensions>
      </trkpt>
      <trkpt lat="42.54410840570926666259765625" lon="19.9602338857948780059814453125">
        <ele>1228.4000244140625</ele>
        <time>2026-06-17T08:21:06.000Z</time>
        <extensions>
          <ns3:TrackPointExtension>
            <ns3:atemp>24.0</ns3:atemp>
          </ns3:TrackPointExtension>
        </extensions>
      </trkpt>
      <trkpt lat="42.544125504791736602783203125" lon="19.9602325446903705596923828125">
        <ele>1228.4000244140625</ele>
        <time>2026-06-17T08:21:07.000Z</time>
        <extensions>
          <ns3:TrackPointExtension>
            <ns3:atemp>24.0</ns3:atemp>
          </ns3:TrackPointExtension>
        </extensions>
      </trkpt>
      <trkpt lat="42.5441434420645236968994140625" lon="19.96022877283394336700439453125">
        <ele>1228.4000244140625</ele>
        <time>2026-06-17T08:21:08.000Z</time>
        <extensions>
          <ns3:TrackPointExtension>
            <ns3:atemp>24.0</ns3:atemp>
          </ns3:TrackPointExtension>
        </extensions>
      </trkpt>
      <trkpt lat="42.54416062496602535247802734375" lon="19.96022365987300872802734375">
        <ele>1228.4000244140625</ele>
        <time>2026-06-17T08:21:09.000Z</time>
        <extensions>
          <ns3:TrackPointExtension>
            <ns3:atemp>24.0</ns3:atemp>
          </ns3:TrackPointExtension>
        </extensions>
      </trkpt>
      <trkpt lat="42.54417688585817813873291015625" lon="19.96021653525531291961669921875">
        <ele>1228.4000244140625</ele>
        <time>2026-06-17T08:21:10.000Z</time>
        <extensions>
          <ns3:TrackPointExtension>
            <ns3:atemp>24.0</ns3:atemp>
          </ns3:TrackPointExtension>
        </extensions>
      </trkpt>
      <trkpt lat="42.54419482313096523284912109375" lon="19.9602110870182514190673828125">
        <ele>1228.4000244140625</ele>
        <time>2026-06-17T08:21:11.000Z</time>
        <extensions>
          <ns3:TrackPointExtension>
            <ns3:atemp>24.0</ns3:atemp>
          </ns3:TrackPointExtension>
        </extensions>
      </trkpt>
      <trkpt lat="42.544209994375705718994140625" lon="19.9602050520479679107666015625">
        <ele>1228.4000244140625</ele>
        <time>2026-06-17T08:21:12.000Z</time>
        <extensions>
          <ns3:TrackPointExtension>
            <ns3:atemp>24.0</ns3:atemp>
          </ns3:TrackPointExtension>
        </extensions>
      </trkpt>
      <trkpt lat="42.54422700963914394378662109375" lon="19.96020060963928699493408203125">
        <ele>1228.4000244140625</ele>
        <time>2026-06-17T08:21:13.000Z</time>
        <extensions>
          <ns3:TrackPointExtension>
            <ns3:atemp>24.0</ns3:atemp>
          </ns3:TrackPointExtension>
        </extensions>
      </trkpt>
      <trkpt lat="42.5442433543503284454345703125" lon="19.9601988494396209716796875">
        <ele>1228.5999755859375</ele>
        <time>2026-06-17T08:21:14.000Z</time>
        <extensions>
          <ns3:TrackPointExtension>
            <ns3:atemp>24.0</ns3:atemp>
          </ns3:TrackPointExtension>
        </extensions>
      </trkpt>
      <trkpt lat="42.54425852559506893157958984375" lon="19.9601956643164157867431640625">
        <ele>1228.5999755859375</ele>
        <time>2026-06-17T08:21:15.000Z</time>
        <extensions>
          <ns3:TrackPointExtension>
            <ns3:atemp>24.0</ns3:atemp>
          </ns3:TrackPointExtension>
        </extensions>
      </trkpt>
      <trkpt lat="42.54427813924849033355712890625" lon="19.96019943617284297943115234375">
        <ele>1228.800048828125</ele>
        <time>2026-06-17T08:21:16.000Z</time>
        <extensions>
          <ns3:TrackPointExtension>
            <ns3:atemp>24.0</ns3:atemp>
          </ns3:TrackPointExtension>
        </extensions>
      </trkpt>
      <trkpt lat="42.54429758526384830474853515625" lon="19.96020010672509670257568359375">
        <ele>1228.800048828125</ele>
        <time>2026-06-17T08:21:17.000Z</time>
        <extensions>
          <ns3:TrackPointExtension>
            <ns3:atemp>24.0</ns3:atemp>
          </ns3:TrackPointExtension>
        </extensions>
      </trkpt>
      <trkpt lat="42.54431552253663539886474609375" lon="19.9602040462195873260498046875">
        <ele>1229</ele>
        <time>2026-06-17T08:21:18.000Z</time>
        <extensions>
          <ns3:TrackPointExtension>
            <ns3:atemp>24.0</ns3:atemp>
          </ns3:TrackPointExtension>
        </extensions>
      </trkpt>
      <trkpt lat="42.54433379508554935455322265625" lon="19.96021351777017116546630859375">
        <ele>1229</ele>
        <time>2026-06-17T08:21:19.000Z</time>
        <extensions>
          <ns3:TrackPointExtension>
            <ns3:atemp>24.0</ns3:atemp>
          </ns3:TrackPointExtension>
        </extensions>
      </trkpt>
      <trkpt lat="42.54435114562511444091796875" lon="19.9602204747498035430908203125">
        <ele>1229.199951171875</ele>
        <time>2026-06-17T08:21:20.000Z</time>
        <extensions>
          <ns3:TrackPointExtension>
            <ns3:atemp>24.0</ns3:atemp>
          </ns3:TrackPointExtension>
        </extensions>
      </trkpt>
      <trkpt lat="42.544366903603076934814453125" lon="19.960224330425262451171875">
        <ele>1229.4000244140625</ele>
        <time>2026-06-17T08:21:21.000Z</time>
        <extensions>
          <ns3:TrackPointExtension>
            <ns3:atemp>24.0</ns3:atemp>
          </ns3:TrackPointExtension>
        </extensions>
      </trkpt>
      <trkpt lat="42.54438291303813457489013671875" lon="19.9602265097200870513916015625">
        <ele>1229.4000244140625</ele>
        <time>2026-06-17T08:21:22.000Z</time>
        <extensions>
          <ns3:TrackPointExtension>
            <ns3:atemp>24.0</ns3:atemp>
          </ns3:TrackPointExtension>
        </extensions>
      </trkpt>
      <trkpt lat="42.544399090111255645751953125" lon="19.9602281861007213592529296875">
        <ele>1229.5999755859375</ele>
        <time>2026-06-17T08:21:23.000Z</time>
        <extensions>
          <ns3:TrackPointExtension>
            <ns3:atemp>24.0</ns3:atemp>
          </ns3:TrackPointExtension>
        </extensions>
      </trkpt>
      <trkpt lat="42.54441476427018642425537109375" lon="19.960229694843292236328125">
        <ele>1229.5999755859375</ele>
        <time>2026-06-17T08:21:24.000Z</time>
        <extensions>
          <ns3:TrackPointExtension>
            <ns3:atemp>24.0</ns3:atemp>
          </ns3:TrackPointExtension>
        </extensions>
      </trkpt>
      <trkpt lat="42.5444304384291172027587890625" lon="19.96022692881524562835693359375">
        <ele>1229.800048828125</ele>
        <time>2026-06-17T08:21:25.000Z</time>
        <extensions>
          <ns3:TrackPointExtension>
            <ns3:atemp>24.0</ns3:atemp>
          </ns3:TrackPointExtension>
        </extensions>
      </trkpt>
      <trkpt lat="42.5444470345973968505859375" lon="19.96022558771073818206787109375">
        <ele>1230</ele>
        <time>2026-06-17T08:21:26.000Z</time>
        <extensions>
          <ns3:TrackPointExtension>
            <ns3:atemp>24.0</ns3:atemp>
          </ns3:TrackPointExtension>
        </extensions>
      </trkpt>
      <trkpt lat="42.54446379840373992919921875" lon="19.96021888218820095062255859375">
        <ele>1230</ele>
        <time>2026-06-17T08:21:27.000Z</time>
        <extensions>
          <ns3:TrackPointExtension>
            <ns3:atemp>24.0</ns3:atemp>
          </ns3:TrackPointExtension>
        </extensions>
      </trkpt>
      <trkpt lat="42.5444783829152584075927734375" lon="19.96021091938018798828125">
        <ele>1230.199951171875</ele>
        <time>2026-06-17T08:21:28.000Z</time>
        <extensions>
          <ns3:TrackPointExtension>
            <ns3:atemp>24.0</ns3:atemp>
          </ns3:TrackPointExtension>
        </extensions>
      </trkpt>
      <trkpt lat="42.5444941408932209014892578125" lon="19.9602033756673336029052734375">
        <ele>1230.4000244140625</ele>
        <time>2026-06-17T08:21:29.000Z</time>
        <extensions>
          <ns3:TrackPointExtension>
            <ns3:atemp>24.0</ns3:atemp>
          </ns3:TrackPointExtension>
        </extensions>
      </trkpt>
      <trkpt lat="42.54450931213796138763427734375" lon="19.96019373647868633270263671875">
        <ele>1230.5999755859375</ele>
        <time>2026-06-17T08:21:30.000Z</time>
        <extensions>
          <ns3:TrackPointExtension>
            <ns3:atemp>24.0</ns3:atemp>
          </ns3:TrackPointExtension>
        </extensions>
      </trkpt>
      <trkpt lat="42.54452104680240154266357421875" lon="19.9601839296519756317138671875">
        <ele>1230.5999755859375</ele>
        <time>2026-06-17T08:21:31.000Z</time>
        <extensions>
          <ns3:TrackPointExtension>
            <ns3:atemp>24.0</ns3:atemp>
          </ns3:TrackPointExtension>
        </extensions>
      </trkpt>
      <trkpt lat="42.54453278146684169769287109375" lon="19.96017060242593288421630859375">
        <ele>1230.800048828125</ele>
        <time>2026-06-17T08:21:32.000Z</time>
        <extensions>
          <ns3:TrackPointExtension>
            <ns3:atemp>24.0</ns3:atemp>
          </ns3:TrackPointExtension>
        </extensions>
      </trkpt>
      <trkpt lat="42.54454552195966243743896484375" lon="19.9601594544947147369384765625">
        <ele>1231</ele>
        <time>2026-06-17T08:21:33.000Z</time>
        <extensions>
          <ns3:TrackPointExtension>
            <ns3:atemp>24.0</ns3:atemp>
          </ns3:TrackPointExtension>
        </extensions>
      </trkpt>
      <trkpt lat="42.54455977119505405426025390625" lon="19.9601477198302745819091796875">
        <ele>1231</ele>
        <time>2026-06-17T08:21:34.000Z</time>
        <extensions>
          <ns3:TrackPointExtension>
            <ns3:atemp>24.0</ns3:atemp>
          </ns3:TrackPointExtension>
        </extensions>
      </trkpt>
      <trkpt lat="42.5445730984210968017578125" lon="19.96013539843261241912841796875">
        <ele>1231.199951171875</ele>
        <time>2026-06-17T08:21:35.000Z</time>
        <extensions>
          <ns3:TrackPointExtension>
            <ns3:atemp>24.0</ns3:atemp>
          </ns3:TrackPointExtension>
        </extensions>
      </trkpt>
      <trkpt lat="42.5445850007236003875732421875" lon="19.96012198738753795623779296875">
        <ele>1231.199951171875</ele>
        <time>2026-06-17T08:21:36.000Z</time>
        <extensions>
          <ns3:TrackPointExtension>
            <ns3:atemp>24.0</ns3:atemp>
          </ns3:TrackPointExtension>
        </extensions>
      </trkpt>
      <trkpt lat="42.5445970706641674041748046875" lon="19.96010966598987579345703125">
        <ele>1231.4000244140625</ele>
        <time>2026-06-17T08:21:37.000Z</time>
        <extensions>
          <ns3:TrackPointExtension>
            <ns3:atemp>24.0</ns3:atemp>
          </ns3:TrackPointExtension>
        </extensions>
      </trkpt>
      <trkpt lat="42.54460922442376613616943359375" lon="19.96009650640189647674560546875">
        <ele>1231.4000244140625</ele>
        <time>2026-06-17T08:21:38.000Z</time>
        <extensions>
          <ns3:TrackPointExtension>
            <ns3:atemp>24.0</ns3:atemp>
          </ns3:TrackPointExtension>
        </extensions>
      </trkpt>
      <trkpt lat="42.54462079145014286041259765625" lon="19.960081167519092559814453125">
        <ele>1231.5999755859375</ele>
        <time>2026-06-17T08:21:39.000Z</time>
        <extensions>
          <ns3:TrackPointExtension>
            <ns3:atemp>24.0</ns3:atemp>
          </ns3:TrackPointExtension>
        </extensions>
      </trkpt>
      <trkpt lat="42.5446336157619953155517578125" lon="19.96006616391241550445556640625">
        <ele>1231.800048828125</ele>
        <time>2026-06-17T08:21:40.000Z</time>
        <extensions>
          <ns3:TrackPointExtension>
            <ns3:atemp>24.0</ns3:atemp>
          </ns3:TrackPointExtension>
        </extensions>
      </trkpt>
      <trkpt lat="42.54464618861675262451171875" lon="19.96005409397184848785400390625">
        <ele>1231.800048828125</ele>
        <time>2026-06-17T08:21:41.000Z</time>
        <extensions>
          <ns3:TrackPointExtension>
            <ns3:atemp>24.0</ns3:atemp>
          </ns3:TrackPointExtension>
        </extensions>
      </trkpt>
      <trkpt lat="42.54465758800506591796875" lon="19.9600437842309474945068359375">
        <ele>1232</ele>
        <time>2026-06-17T08:21:42.000Z</time>
        <extensions>
          <ns3:TrackPointExtension>
            <ns3:atemp>24.0</ns3:atemp>
          </ns3:TrackPointExtension>
        </extensions>
      </trkpt>
      <trkpt lat="42.54466974176466464996337890625" lon="19.96002593077719211578369140625">
        <ele>1232</ele>
        <time>2026-06-17T08:21:43.000Z</time>
        <extensions>
          <ns3:TrackPointExtension>
            <ns3:atemp>24.0</ns3:atemp>
          </ns3:TrackPointExtension>
        </extensions>
      </trkpt>
      <trkpt lat="42.5446802191436290740966796875" lon="19.9600099213421344757080078125">
        <ele>1232.199951171875</ele>
        <time>2026-06-17T08:21:44.000Z</time>
        <extensions>
          <ns3:TrackPointExtension>
            <ns3:atemp>24.0</ns3:atemp>
          </ns3:TrackPointExtension>
        </extensions>
      </trkpt>
      <trkpt lat="42.544693462550640106201171875" lon="19.95999298989772796630859375">
        <ele>1232.4000244140625</ele>
        <time>2026-06-17T08:21:45.000Z</time>
        <extensions>
          <ns3:TrackPointExtension>
            <ns3:atemp>24.0</ns3:atemp>
          </ns3:TrackPointExtension>
        </extensions>
      </trkpt>
      <trkpt lat="42.5447046943008899688720703125" lon="19.959975890815258026123046875">
        <ele>1232.5999755859375</ele>
        <time>2026-06-17T08:21:46.000Z</time>
        <extensions>
          <ns3:TrackPointExtension>
            <ns3:atemp>24.0</ns3:atemp>
          </ns3:TrackPointExtension>
        </extensions>
      </trkpt>
      <trkpt lat="42.54471517167985439300537109375" lon="19.95995937846601009368896484375">
        <ele>1232.5999755859375</ele>
        <time>2026-06-17T08:21:47.000Z</time>
        <extensions>
          <ns3:TrackPointExtension>
            <ns3:atemp>24.0</ns3:atemp>
          </ns3:TrackPointExtension>
        </extensions>
      </trkpt>
      <trkpt lat="42.544726990163326263427734375" lon="19.9599408544600009918212890625">
        <ele>1233</ele>
        <time>2026-06-17T08:21:48.000Z</time>
        <extensions>
          <ns3:TrackPointExtension>
            <ns3:atemp>24.0</ns3:atemp>
          </ns3:TrackPointExtension>
        </extensions>
      </trkpt>
      <trkpt lat="42.54473763518035411834716796875" lon="19.95992065407335758209228515625">
        <ele>1233</ele>
        <time>2026-06-17T08:21:49.000Z</time>
        <extensions>
          <ns3:TrackPointExtension>
            <ns3:atemp>24.0</ns3:atemp>
          </ns3:TrackPointExtension>
        </extensions>
      </trkpt>
      <trkpt lat="42.54474886693060398101806640625" lon="19.95990045368671417236328125">
        <ele>1233.199951171875</ele>
        <time>2026-06-17T08:21:50.000Z</time>
        <extensions>
          <ns3:TrackPointExtension>
            <ns3:atemp>24.0</ns3:atemp>
          </ns3:TrackPointExtension>
        </extensions>
      </trkpt>
      <trkpt lat="42.54476060159504413604736328125" lon="19.95988545008003711700439453125">
        <ele>1233.4000244140625</ele>
        <time>2026-06-17T08:21:51.000Z</time>
        <extensions>
          <ns3:TrackPointExtension>
            <ns3:atemp>24.0</ns3:atemp>
          </ns3:TrackPointExtension>
        </extensions>
      </trkpt>
      <trkpt lat="42.54477267153561115264892578125" lon="19.959866590797901153564453125">
        <ele>1233.5999755859375</ele>
        <time>2026-06-17T08:21:52.000Z</time>
        <extensions>
          <ns3:TrackPointExtension>
            <ns3:atemp>24.0</ns3:atemp>
          </ns3:TrackPointExtension>
        </extensions>
      </trkpt>
      <trkpt lat="42.544780634343624114990234375" lon="19.9598486535251140594482421875">
        <ele>1233.5999755859375</ele>
        <time>2026-06-17T08:21:53.000Z</time>
        <extensions>
          <ns3:TrackPointExtension>
            <ns3:atemp>24.0</ns3:atemp>
          </ns3:TrackPointExtension>
        </extensions>
      </trkpt>
      <trkpt lat="42.54479345865547657012939453125" lon="19.9598308838903903961181640625">
        <ele>1233.5999755859375</ele>
        <time>2026-06-17T08:21:54.000Z</time>
        <extensions>
          <ns3:TrackPointExtension>
            <ns3:atemp>24.0</ns3:atemp>
          </ns3:TrackPointExtension>
        </extensions>
      </trkpt>
      <trkpt lat="42.5448037683963775634765625" lon="19.959820993244647979736328125">
        <ele>1233.800048828125</ele>
        <time>2026-06-17T08:21:55.000Z</time>
        <extensions>
          <ns3:TrackPointExtension>
            <ns3:atemp>24.0</ns3:atemp>
          </ns3:TrackPointExtension>
        </extensions>
      </trkpt>
      <trkpt lat="42.54481843672692775726318359375" lon="19.95980515144765377044677734375">
        <ele>1233.800048828125</ele>
        <time>2026-06-17T08:21:56.000Z</time>
        <extensions>
          <ns3:TrackPointExtension>
            <ns3:atemp>24.0</ns3:atemp>
          </ns3:TrackPointExtension>
        </extensions>
      </trkpt>
      <trkpt lat="42.54482832737267017364501953125" lon="19.9597933329641819000244140625">
        <ele>1234</ele>
        <time>2026-06-17T08:21:57.000Z</time>
        <extensions>
          <ns3:TrackPointExtension>
            <ns3:atemp>24.0</ns3:atemp>
          </ns3:TrackPointExtension>
        </extensions>
      </trkpt>
      <trkpt lat="42.5448414869606494903564453125" lon="19.959780760109424591064453125">
        <ele>1234.199951171875</ele>
        <time>2026-06-17T08:21:58.000Z</time>
        <extensions>
          <ns3:TrackPointExtension>
            <ns3:atemp>24.0</ns3:atemp>
          </ns3:TrackPointExtension>
        </extensions>
      </trkpt>
      <trkpt lat="42.544849030673503875732421875" lon="19.95976475067436695098876953125">
        <ele>1234.4000244140625</ele>
        <time>2026-06-17T08:21:59.000Z</time>
        <extensions>
          <ns3:TrackPointExtension>
            <ns3:atemp>24.0</ns3:atemp>
          </ns3:TrackPointExtension>
        </extensions>
      </trkpt>
      <trkpt lat="42.54486076533794403076171875" lon="19.95974848978221416473388671875">
        <ele>1234.4000244140625</ele>
        <time>2026-06-17T08:22:00.000Z</time>
        <extensions>
          <ns3:TrackPointExtension>
            <ns3:atemp>24.0</ns3:atemp>
          </ns3:TrackPointExtension>
        </extensions>
      </trkpt>
      <trkpt lat="42.5448673032224178314208984375" lon="19.95973541401326656341552734375">
        <ele>1234.5999755859375</ele>
        <time>2026-06-17T08:22:01.000Z</time>
        <extensions>
          <ns3:TrackPointExtension>
            <ns3:atemp>24.0</ns3:atemp>
          </ns3:TrackPointExtension>
        </extensions>
      </trkpt>
      <trkpt lat="42.5448753498494625091552734375" lon="19.95972099713981151580810546875">
        <ele>1234.800048828125</ele>
        <time>2026-06-17T08:22:02.000Z</time>
        <extensions>
          <ns3:TrackPointExtension>
            <ns3:atemp>24.0</ns3:atemp>
          </ns3:TrackPointExtension>
        </extensions>
      </trkpt>
      <trkpt lat="42.5448864139616489410400390625" lon="19.9597080051898956298828125">
        <ele>1235</ele>
        <time>2026-06-17T08:22:03.000Z</time>
        <extensions>
          <ns3:TrackPointExtension>
            <ns3:atemp>24.0</ns3:atemp>
          </ns3:TrackPointExtension>
        </extensions>
      </trkpt>
      <trkpt lat="42.54489722661674022674560546875" lon="19.95969593524932861328125">
        <ele>1235.4000244140625</ele>
        <time>2026-06-17T08:22:04.000Z</time>
        <extensions>
          <ns3:TrackPointExtension>
            <ns3:atemp>24.0</ns3:atemp>
          </ns3:TrackPointExtension>
        </extensions>
      </trkpt>
      <trkpt lat="42.5449078716337680816650390625" lon="19.95968260802328586578369140625">
        <ele>1235.5999755859375</ele>
        <time>2026-06-17T08:22:05.000Z</time>
        <extensions>
          <ns3:TrackPointExtension>
            <ns3:atemp>24.0</ns3:atemp>
          </ns3:TrackPointExtension>
        </extensions>
      </trkpt>
      <trkpt lat="42.5449219532310962677001953125" lon="19.95967238210141658782958984375">
        <ele>1235.800048828125</ele>
        <time>2026-06-17T08:22:06.000Z</time>
        <extensions>
          <ns3:TrackPointExtension>
            <ns3:atemp>24.0</ns3:atemp>
          </ns3:TrackPointExtension>
        </extensions>
      </trkpt>
      <trkpt lat="42.54493444226682186126708984375" lon="19.9596625752747058868408203125">
        <ele>1235.800048828125</ele>
        <time>2026-06-17T08:22:07.000Z</time>
        <extensions>
          <ns3:TrackPointExtension>
            <ns3:atemp>24.0</ns3:atemp>
          </ns3:TrackPointExtension>
        </extensions>
      </trkpt>
      <trkpt lat="42.54494391381740570068359375" lon="19.95965109206736087799072265625">
        <ele>1236</ele>
        <time>2026-06-17T08:22:08.000Z</time>
        <extensions>
          <ns3:TrackPointExtension>
            <ns3:atemp>24.0</ns3:atemp>
          </ns3:TrackPointExtension>
        </extensions>
      </trkpt>
      <trkpt lat="42.5449574925005435943603515625" lon="19.95963918976485729217529296875">
        <ele>1236</ele>
        <time>2026-06-17T08:22:09.000Z</time>
        <extensions>
          <ns3:TrackPointExtension>
            <ns3:atemp>24.0</ns3:atemp>
          </ns3:TrackPointExtension>
        </extensions>
      </trkpt>
      <trkpt lat="42.54497475922107696533203125" lon="19.95962242595851421356201171875">
        <ele>1236</ele>
        <time>2026-06-17T08:22:10.000Z</time>
        <extensions>
          <ns3:TrackPointExtension>
            <ns3:atemp>24.0</ns3:atemp>
          </ns3:TrackPointExtension>
        </extensions>
      </trkpt>
      <trkpt lat="42.5449906848371028900146484375" lon="19.959604740142822265625">
        <ele>1236</ele>
        <time>2026-06-17T08:22:11.000Z</time>
        <extensions>
          <ns3:TrackPointExtension>
            <ns3:atemp>24.0</ns3:atemp>
          </ns3:TrackPointExtension>
        </extensions>
      </trkpt>
      <trkpt lat="42.545005939900875091552734375" lon="19.95959174819290637969970703125">
        <ele>1236</ele>
        <time>2026-06-17T08:22:12.000Z</time>
        <extensions>
          <ns3:TrackPointExtension>
            <ns3:atemp>24.0</ns3:atemp>
          </ns3:TrackPointExtension>
        </extensions>
      </trkpt>
      <trkpt lat="42.54502111114561557769775390625" lon="19.9595797620713710784912109375">
        <ele>1236.199951171875</ele>
        <time>2026-06-17T08:22:13.000Z</time>
        <extensions>
          <ns3:TrackPointExtension>
            <ns3:atemp>24.0</ns3:atemp>
          </ns3:TrackPointExtension>
        </extensions>
      </trkpt>
      <trkpt lat="42.5450376234948635101318359375" lon="19.95957112871110439300537109375">
        <ele>1236.199951171875</ele>
        <time>2026-06-17T08:22:14.000Z</time>
        <extensions>
          <ns3:TrackPointExtension>
            <ns3:atemp>24.0</ns3:atemp>
          </ns3:TrackPointExtension>
        </extensions>
      </trkpt>
      <trkpt lat="42.54505095072090625762939453125" lon="19.95956073515117168426513671875">
        <ele>1236.4000244140625</ele>
        <time>2026-06-17T08:22:15.000Z</time>
        <extensions>
          <ns3:TrackPointExtension>
            <ns3:atemp>24.0</ns3:atemp>
          </ns3:TrackPointExtension>
        </extensions>
      </trkpt>
      <trkpt lat="42.54506519995629787445068359375" lon="19.9595499224960803985595703125">
        <ele>1236.4000244140625</ele>
        <time>2026-06-17T08:22:16.000Z</time>
        <extensions>
          <ns3:TrackPointExtension>
            <ns3:atemp>24.0</ns3:atemp>
          </ns3:TrackPointExtension>
        </extensions>
      </trkpt>
      <trkpt lat="42.54508146084845066070556640625" lon="19.95953743346035480499267578125">
        <ele>1236.5999755859375</ele>
        <time>2026-06-17T08:22:17.000Z</time>
        <extensions>
          <ns3:TrackPointExtension>
            <ns3:atemp>24.0</ns3:atemp>
          </ns3:TrackPointExtension>
        </extensions>
      </trkpt>
      <trkpt lat="42.5450962968170642852783203125" lon="19.959525950253009796142578125">
        <ele>1236.5999755859375</ele>
        <time>2026-06-17T08:22:18.000Z</time>
        <extensions>
          <ns3:TrackPointExtension>
            <ns3:atemp>24.0</ns3:atemp>
          </ns3:TrackPointExtension>
        </extensions>
      </trkpt>
      <trkpt lat="42.545110546052455902099609375" lon="19.95951664634048938751220703125">
        <ele>1236.800048828125</ele>
        <time>2026-06-17T08:22:19.000Z</time>
        <extensions>
          <ns3:TrackPointExtension>
            <ns3:atemp>24.0</ns3:atemp>
          </ns3:TrackPointExtension>
        </extensions>
      </trkpt>
      <trkpt lat="42.54512303508818149566650390625" lon="19.9595110304653644561767578125">
        <ele>1237</ele>
        <time>2026-06-17T08:22:20.000Z</time>
        <extensions>
          <ns3:TrackPointExtension>
            <ns3:atemp>24.0</ns3:atemp>
          </ns3:TrackPointExtension>
        </extensions>
      </trkpt>
      <trkpt lat="42.545138709247112274169921875" lon="19.9595023132860660552978515625">
        <ele>1237</ele>
        <time>2026-06-17T08:22:21.000Z</time>
        <extensions>
          <ns3:TrackPointExtension>
            <ns3:atemp>24.0</ns3:atemp>
          </ns3:TrackPointExtension>
        </extensions>
      </trkpt>
      <trkpt lat="42.54515304230153560638427734375" lon="19.95949418283998966217041015625">
        <ele>1237.199951171875</ele>
        <time>2026-06-17T08:22:22.000Z</time>
        <extensions>
          <ns3:TrackPointExtension>
            <ns3:atemp>24.0</ns3:atemp>
          </ns3:TrackPointExtension>
        </extensions>
      </trkpt>
      <trkpt lat="42.54516628570854663848876953125" lon="19.9594878964126110076904296875">
        <ele>1237.199951171875</ele>
        <time>2026-06-17T08:22:23.000Z</time>
        <extensions>
          <ns3:TrackPointExtension>
            <ns3:atemp>24.0</ns3:atemp>
          </ns3:TrackPointExtension>
        </extensions>
      </trkpt>
      <trkpt lat="42.54517818801105022430419921875" lon="19.9594835378229618072509765625">
        <ele>1237.4000244140625</ele>
        <time>2026-06-17T08:22:24.000Z</time>
        <extensions>
          <ns3:TrackPointExtension>
            <ns3:atemp>24.0</ns3:atemp>
          </ns3:TrackPointExtension>
        </extensions>
      </trkpt>
      <trkpt lat="42.54519763402640819549560546875" lon="19.95947037823498249053955078125">
        <ele>1237.800048828125</ele>
        <time>2026-06-17T08:22:25.000Z</time>
        <extensions>
          <ns3:TrackPointExtension>
            <ns3:atemp>24.0</ns3:atemp>
          </ns3:TrackPointExtension>
        </extensions>
      </trkpt>
      <trkpt lat="42.5452146492898464202880859375" lon="19.95945914648473262786865234375">
        <ele>1238</ele>
        <time>2026-06-17T08:22:26.000Z</time>
        <extensions>
          <ns3:TrackPointExtension>
            <ns3:atemp>24.0</ns3:atemp>
          </ns3:TrackPointExtension>
        </extensions>
      </trkpt>
      <trkpt lat="42.545226551592350006103515625" lon="19.959453530609607696533203125">
        <ele>1238.199951171875</ele>
        <time>2026-06-17T08:22:27.000Z</time>
        <extensions>
          <ns3:TrackPointExtension>
            <ns3:atemp>24.0</ns3:atemp>
          </ns3:TrackPointExtension>
        </extensions>
      </trkpt>
      <trkpt lat="42.54524138756096363067626953125" lon="19.95944774709641933441162109375">
        <ele>1238.199951171875</ele>
        <time>2026-06-17T08:22:28.000Z</time>
        <extensions>
          <ns3:TrackPointExtension>
            <ns3:atemp>24.0</ns3:atemp>
          </ns3:TrackPointExtension>
        </extensions>
      </trkpt>
      <trkpt lat="42.545257396996021270751953125" lon="19.95944187976419925689697265625">
        <ele>1238.4000244140625</ele>
        <time>2026-06-17T08:22:29.000Z</time>
        <extensions>
          <ns3:TrackPointExtension>
            <ns3:atemp>24.0</ns3:atemp>
          </ns3:TrackPointExtension>
        </extensions>
      </trkpt>
      <trkpt lat="42.54527022130787372589111328125" lon="19.95943374931812286376953125">
        <ele>1238.4000244140625</ele>
        <time>2026-06-17T08:22:30.000Z</time>
        <extensions>
          <ns3:TrackPointExtension>
            <ns3:atemp>24.0</ns3:atemp>
          </ns3:TrackPointExtension>
        </extensions>
      </trkpt>
      <trkpt lat="42.54528497345745563507080078125" lon="19.95942712761461734771728515625">
        <ele>1238.5999755859375</ele>
        <time>2026-06-17T08:22:31.000Z</time>
        <extensions>
          <ns3:TrackPointExtension>
            <ns3:atemp>24.0</ns3:atemp>
          </ns3:TrackPointExtension>
        </extensions>
      </trkpt>
      <trkpt lat="42.54529821686446666717529296875" lon="19.959417991340160369873046875">
        <ele>1238.5999755859375</ele>
        <time>2026-06-17T08:22:32.000Z</time>
        <extensions>
          <ns3:TrackPointExtension>
            <ns3:atemp>24.0</ns3:atemp>
          </ns3:TrackPointExtension>
        </extensions>
      </trkpt>
      <trkpt lat="42.54531229846179485321044921875" lon="19.95940801687538623809814453125">
        <ele>1238.5999755859375</ele>
        <time>2026-06-17T08:22:33.000Z</time>
        <extensions>
          <ns3:TrackPointExtension>
            <ns3:atemp>24.0</ns3:atemp>
          </ns3:TrackPointExtension>
        </extensions>
      </trkpt>
      <trkpt lat="42.54532688297331333160400390625" lon="19.95939644984900951385498046875">
        <ele>1238.800048828125</ele>
        <time>2026-06-17T08:22:34.000Z</time>
        <extensions>
          <ns3:TrackPointExtension>
            <ns3:atemp>24.0</ns3:atemp>
          </ns3:TrackPointExtension>
        </extensions>
      </trkpt>
      <trkpt lat="42.54533979110419750213623046875" lon="19.959387481212615966796875">
        <ele>1239</ele>
        <time>2026-06-17T08:22:35.000Z</time>
        <extensions>
          <ns3:TrackPointExtension>
            <ns3:atemp>24.0</ns3:atemp>
          </ns3:TrackPointExtension>
        </extensions>
      </trkpt>
      <trkpt lat="42.54535253159701824188232421875" lon="19.95937918312847614288330078125">
        <ele>1239</ele>
        <time>2026-06-17T08:22:36.000Z</time>
        <extensions>
          <ns3:TrackPointExtension>
            <ns3:atemp>24.0</ns3:atemp>
          </ns3:TrackPointExtension>
        </extensions>
      </trkpt>
      <trkpt lat="42.54536460153758525848388671875" lon="19.95937046594917774200439453125">
        <ele>1239.199951171875</ele>
        <time>2026-06-17T08:22:37.000Z</time>
        <extensions>
          <ns3:TrackPointExtension>
            <ns3:atemp>24.0</ns3:atemp>
          </ns3:TrackPointExtension>
        </extensions>
      </trkpt>
      <trkpt lat="42.54537633620202541351318359375" lon="19.9593611620366573333740234375">
        <ele>1239.199951171875</ele>
        <time>2026-06-17T08:22:38.000Z</time>
        <extensions>
          <ns3:TrackPointExtension>
            <ns3:atemp>24.0</ns3:atemp>
          </ns3:TrackPointExtension>
        </extensions>
      </trkpt>
      <trkpt lat="42.54538890905678272247314453125" lon="19.95935152284801006317138671875">
        <ele>1239.4000244140625</ele>
        <time>2026-06-17T08:22:39.000Z</time>
        <extensions>
          <ns3:TrackPointExtension>
            <ns3:atemp>24.0</ns3:atemp>
          </ns3:TrackPointExtension>
        </extensions>
      </trkpt>
      <trkpt lat="42.54540181718766689300537109375" lon="19.959338866174221038818359375">
        <ele>1239.5999755859375</ele>
        <time>2026-06-17T08:22:40.000Z</time>
        <extensions>
          <ns3:TrackPointExtension>
            <ns3:atemp>24.0</ns3:atemp>
          </ns3:TrackPointExtension>
        </extensions>
      </trkpt>
      <trkpt lat="42.5454134680330753326416015625" lon="19.9593279697000980377197265625">
        <ele>1239.800048828125</ele>
        <time>2026-06-17T08:22:41.000Z</time>
        <extensions>
          <ns3:TrackPointExtension>
            <ns3:atemp>24.0</ns3:atemp>
          </ns3:TrackPointExtension>
        </extensions>
      </trkpt>
      <trkpt lat="42.545424364507198333740234375" lon="19.9593162350356578826904296875">
        <ele>1240</ele>
        <time>2026-06-17T08:22:42.000Z</time>
        <extensions>
          <ns3:TrackPointExtension>
            <ns3:atemp>24.0</ns3:atemp>
          </ns3:TrackPointExtension>
        </extensions>
      </trkpt>
      <trkpt lat="42.5454399548470973968505859375" lon="19.95930240489542484283447265625">
        <ele>1240.199951171875</ele>
        <time>2026-06-17T08:22:43.000Z</time>
        <extensions>
          <ns3:TrackPointExtension>
            <ns3:atemp>24.0</ns3:atemp>
          </ns3:TrackPointExtension>
        </extensions>
      </trkpt>
      <trkpt lat="42.545453198254108428955078125" lon="19.95928882621228694915771484375">
        <ele>1240.4000244140625</ele>
        <time>2026-06-17T08:22:44.000Z</time>
        <extensions>
          <ns3:TrackPointExtension>
            <ns3:atemp>24.0</ns3:atemp>
          </ns3:TrackPointExtension>
        </extensions>
      </trkpt>
      <trkpt lat="42.5454677827656269073486328125" lon="19.9592753313481807708740234375">
        <ele>1240.5999755859375</ele>
        <time>2026-06-17T08:22:45.000Z</time>
        <extensions>
          <ns3:TrackPointExtension>
            <ns3:atemp>24.0</ns3:atemp>
          </ns3:TrackPointExtension>
        </extensions>
      </trkpt>
      <trkpt lat="42.5454796850681304931640625" lon="19.95926401577889919281005859375">
        <ele>1240.800048828125</ele>
        <time>2026-06-17T08:22:46.000Z</time>
        <extensions>
          <ns3:TrackPointExtension>
            <ns3:atemp>24.0</ns3:atemp>
          </ns3:TrackPointExtension>
        </extensions>
      </trkpt>
      <trkpt lat="42.54549267701804637908935546875" lon="19.95924976654350757598876953125">
        <ele>1241</ele>
        <time>2026-06-17T08:22:47.000Z</time>
        <extensions>
          <ns3:TrackPointExtension>
            <ns3:atemp>24.0</ns3:atemp>
          </ns3:TrackPointExtension>
        </extensions>
      </trkpt>
      <trkpt lat="42.5455056689679622650146484375" lon="19.9592361040413379669189453125">
        <ele>1241.199951171875</ele>
        <time>2026-06-17T08:22:48.000Z</time>
        <extensions>
          <ns3:TrackPointExtension>
            <ns3:atemp>24.0</ns3:atemp>
          </ns3:TrackPointExtension>
        </extensions>
      </trkpt>
      <trkpt lat="42.54552184604108333587646484375" lon="19.95921783149242401123046875">
        <ele>1241.5999755859375</ele>
        <time>2026-06-17T08:22:49.000Z</time>
        <extensions>
          <ns3:TrackPointExtension>
            <ns3:atemp>24.0</ns3:atemp>
          </ns3:TrackPointExtension>
        </extensions>
      </trkpt>
      <trkpt lat="42.54553643055260181427001953125" lon="19.9591983854770660400390625">
        <ele>1241.800048828125</ele>
        <time>2026-06-17T08:22:50.000Z</time>
        <extensions>
          <ns3:TrackPointExtension>
            <ns3:atemp>24.0</ns3:atemp>
          </ns3:TrackPointExtension>
        </extensions>
      </trkpt>
      <trkpt lat="42.54554900340735912322998046875" lon="19.95918321423232555389404296875">
        <ele>1242</ele>
        <time>2026-06-17T08:22:51.000Z</time>
        <extensions>
          <ns3:TrackPointExtension>
            <ns3:atemp>24.0</ns3:atemp>
          </ns3:TrackPointExtension>
        </extensions>
      </trkpt>
      <trkpt lat="42.54556174390017986297607421875" lon="19.95917089283466339111328125">
        <ele>1242.199951171875</ele>
        <time>2026-06-17T08:22:52.000Z</time>
        <extensions>
          <ns3:TrackPointExtension>
            <ns3:atemp>24.0</ns3:atemp>
          </ns3:TrackPointExtension>
        </extensions>
      </trkpt>
      <trkpt lat="42.54557046107947826385498046875" lon="19.95915689505636692047119140625">
        <ele>1242.199951171875</ele>
        <time>2026-06-17T08:22:53.000Z</time>
        <extensions>
          <ns3:TrackPointExtension>
            <ns3:atemp>24.0</ns3:atemp>
          </ns3:TrackPointExtension>
        </extensions>
      </trkpt>
      <trkpt lat="42.545581273734569549560546875" lon="19.9591412208974361419677734375">
        <ele>1242.4000244140625</ele>
        <time>2026-06-17T08:22:54.000Z</time>
        <extensions>
          <ns3:TrackPointExtension>
            <ns3:atemp>24.0</ns3:atemp>
          </ns3:TrackPointExtension>
        </extensions>
      </trkpt>
      <trkpt lat="42.5455914996564388275146484375" lon="19.95912470854818820953369140625">
        <ele>1242.5999755859375</ele>
        <time>2026-06-17T08:22:55.000Z</time>
        <extensions>
          <ns3:TrackPointExtension>
            <ns3:atemp>24.0</ns3:atemp>
          </ns3:TrackPointExtension>
        </extensions>
      </trkpt>
      <trkpt lat="42.54560231231153011322021484375" lon="19.959106855094432830810546875">
        <ele>1242.800048828125</ele>
        <time>2026-06-17T08:22:56.000Z</time>
        <extensions>
          <ns3:TrackPointExtension>
            <ns3:atemp>24.0</ns3:atemp>
          </ns3:TrackPointExtension>
        </extensions>
      </trkpt>
      <trkpt lat="42.54561304114758968353271484375" lon="19.959090761840343475341796875">
        <ele>1243</ele>
        <time>2026-06-17T08:22:57.000Z</time>
        <extensions>
          <ns3:TrackPointExtension>
            <ns3:atemp>24.0</ns3:atemp>
          </ns3:TrackPointExtension>
        </extensions>
      </trkpt>
      <trkpt lat="42.54562460817396640777587890625" lon="19.95907525531947612762451171875">
        <ele>1243.199951171875</ele>
        <time>2026-06-17T08:22:58.000Z</time>
        <extensions>
          <ns3:TrackPointExtension>
            <ns3:atemp>24.0</ns3:atemp>
          </ns3:TrackPointExtension>
        </extensions>
      </trkpt>
      <trkpt lat="42.54563449881970882415771484375" lon="19.959062598645687103271484375">
        <ele>1243.4000244140625</ele>
        <time>2026-06-17T08:22:59.000Z</time>
        <extensions>
          <ns3:TrackPointExtension>
            <ns3:atemp>24.0</ns3:atemp>
          </ns3:TrackPointExtension>
        </extensions>
      </trkpt>
      <trkpt lat="42.54564933478832244873046875" lon="19.9590416438877582550048828125">
        <ele>1243.5999755859375</ele>
        <time>2026-06-17T08:23:00.000Z</time>
        <extensions>
          <ns3:TrackPointExtension>
            <ns3:atemp>24.0</ns3:atemp>
          </ns3:TrackPointExtension>
        </extensions>
      </trkpt>
      <trkpt lat="42.5456593930721282958984375" lon="19.95902479626238346099853515625">
        <ele>1243.5999755859375</ele>
        <time>2026-06-17T08:23:01.000Z</time>
        <extensions>
          <ns3:TrackPointExtension>
            <ns3:atemp>24.0</ns3:atemp>
          </ns3:TrackPointExtension>
        </extensions>
      </trkpt>
      <trkpt lat="42.5456699542701244354248046875" lon="19.95900752954185009002685546875">
        <ele>1243.800048828125</ele>
        <time>2026-06-17T08:23:02.000Z</time>
        <extensions>
          <ns3:TrackPointExtension>
            <ns3:atemp>24.0</ns3:atemp>
          </ns3:TrackPointExtension>
        </extensions>
      </trkpt>
      <trkpt lat="42.5456793420016765594482421875" lon="19.95898892171680927276611328125">
        <ele>1244</ele>
        <time>2026-06-17T08:23:03.000Z</time>
        <extensions>
          <ns3:TrackPointExtension>
            <ns3:atemp>24.0</ns3:atemp>
          </ns3:TrackPointExtension>
        </extensions>
      </trkpt>
      <trkpt lat="42.5456873886287212371826171875" lon="19.958973415195941925048828125">
        <ele>1244.199951171875</ele>
        <time>2026-06-17T08:23:04.000Z</time>
        <extensions>
          <ns3:TrackPointExtension>
            <ns3:atemp>24.0</ns3:atemp>
          </ns3:TrackPointExtension>
        </extensions>
      </trkpt>
      <trkpt lat="42.54569551907479763031005859375" lon="19.95895857922732830047607421875">
        <ele>1244.4000244140625</ele>
        <time>2026-06-17T08:23:05.000Z</time>
        <extensions>
          <ns3:TrackPointExtension>
            <ns3:atemp>24.0</ns3:atemp>
          </ns3:TrackPointExtension>
        </extensions>
      </trkpt>
      <trkpt lat="42.54570255987346172332763671875" lon="19.9589420668780803680419921875">
        <ele>1244.4000244140625</ele>
        <time>2026-06-17T08:23:06.000Z</time>
        <extensions>
          <ns3:TrackPointExtension>
            <ns3:atemp>24.0</ns3:atemp>
          </ns3:TrackPointExtension>
        </extensions>
      </trkpt>
      <trkpt lat="42.54571094177663326263427734375" lon="19.958922453224658966064453125">
        <ele>1244.5999755859375</ele>
        <time>2026-06-17T08:23:07.000Z</time>
        <extensions>
          <ns3:TrackPointExtension>
            <ns3:atemp>24.0</ns3:atemp>
          </ns3:TrackPointExtension>
        </extensions>
      </trkpt>
      <trkpt lat="42.54571597091853618621826171875" lon="19.9589004926383495330810546875">
        <ele>1244.800048828125</ele>
        <time>2026-06-17T08:23:08.000Z</time>
        <extensions>
          <ns3:TrackPointExtension>
            <ns3:atemp>24.0</ns3:atemp>
          </ns3:TrackPointExtension>
        </extensions>
      </trkpt>
      <trkpt lat="42.54572317935526371002197265625" lon="19.95887995697557926177978515625">
        <ele>1245</ele>
        <time>2026-06-17T08:23:09.000Z</time>
        <extensions>
          <ns3:TrackPointExtension>
            <ns3:atemp>24.0</ns3:atemp>
          </ns3:TrackPointExtension>
        </extensions>
      </trkpt>
      <trkpt lat="42.54573072306811809539794921875" lon="19.95886269025504589080810546875">
        <ele>1245.199951171875</ele>
        <time>2026-06-17T08:23:10.000Z</time>
        <extensions>
          <ns3:TrackPointExtension>
            <ns3:atemp>24.0</ns3:atemp>
          </ns3:TrackPointExtension>
        </extensions>
      </trkpt>
      <trkpt lat="42.54573742859065532684326171875" lon="19.95884525589644908905029296875">
        <ele>1245.4000244140625</ele>
        <time>2026-06-17T08:23:11.000Z</time>
        <extensions>
          <ns3:TrackPointExtension>
            <ns3:atemp>24.0</ns3:atemp>
          </ns3:TrackPointExtension>
        </extensions>
      </trkpt>
      <trkpt lat="42.54574296064674854278564453125" lon="19.95882689952850341796875">
        <ele>1245.5999755859375</ele>
        <time>2026-06-17T08:23:12.000Z</time>
        <extensions>
          <ns3:TrackPointExtension>
            <ns3:atemp>24.0</ns3:atemp>
          </ns3:TrackPointExtension>
        </extensions>
      </trkpt>
      <trkpt lat="42.5457504205405712127685546875" lon="19.95880250819027423858642578125">
        <ele>1245.800048828125</ele>
        <time>2026-06-17T08:23:13.000Z</time>
        <extensions>
          <ns3:TrackPointExtension>
            <ns3:atemp>24.0</ns3:atemp>
          </ns3:TrackPointExtension>
        </extensions>
      </trkpt>
      <trkpt lat="42.54575528204441070556640625" lon="19.958784990012645721435546875">
        <ele>1246</ele>
        <time>2026-06-17T08:23:14.000Z</time>
        <extensions>
          <ns3:TrackPointExtension>
            <ns3:atemp>24.0</ns3:atemp>
          </ns3:TrackPointExtension>
        </extensions>
      </trkpt>
      <trkpt lat="42.5457584671676158905029296875" lon="19.95876730419695377349853515625">
        <ele>1246.199951171875</ele>
        <time>2026-06-17T08:23:15.000Z</time>
        <extensions>
          <ns3:TrackPointExtension>
            <ns3:atemp>24.0</ns3:atemp>
          </ns3:TrackPointExtension>
        </extensions>
      </trkpt>
      <trkpt lat="42.545759640634059906005859375" lon="19.9587476067245006561279296875">
        <ele>1246.4000244140625</ele>
        <time>2026-06-17T08:23:16.000Z</time>
        <extensions>
          <ns3:TrackPointExtension>
            <ns3:atemp>24.0</ns3:atemp>
          </ns3:TrackPointExtension>
        </extensions>
      </trkpt>
      <trkpt lat="42.545760311186313629150390625" lon="19.9587258137762546539306640625">
        <ele>1246.5999755859375</ele>
        <time>2026-06-17T08:23:17.000Z</time>
        <extensions>
          <ns3:TrackPointExtension>
            <ns3:atemp>24.0</ns3:atemp>
          </ns3:TrackPointExtension>
        </extensions>
      </trkpt>
      <trkpt lat="42.5457611493766307830810546875" lon="19.9587046913802623748779296875">
        <ele>1246.800048828125</ele>
        <time>2026-06-17T08:23:18.000Z</time>
        <extensions>
          <ns3:TrackPointExtension>
            <ns3:atemp>24.0</ns3:atemp>
          </ns3:TrackPointExtension>
        </extensions>
      </trkpt>
      <trkpt lat="42.5457631610333919525146484375" lon="19.95868004858493804931640625">
        <ele>1247</ele>
        <time>2026-06-17T08:23:19.000Z</time>
        <extensions>
          <ns3:TrackPointExtension>
            <ns3:atemp>24.0</ns3:atemp>
          </ns3:TrackPointExtension>
        </extensions>
      </trkpt>
      <trkpt lat="42.545762993395328521728515625" lon="19.95866001583635807037353515625">
        <ele>1247</ele>
        <time>2026-06-17T08:23:20.000Z</time>
        <extensions>
          <ns3:TrackPointExtension>
            <ns3:atemp>24.0</ns3:atemp>
          </ns3:TrackPointExtension>
        </extensions>
      </trkpt>
      <trkpt lat="42.5457611493766307830810546875" lon="19.95863487012684345245361328125">
        <ele>1247</ele>
        <time>2026-06-17T08:23:21.000Z</time>
        <extensions>
          <ns3:TrackPointExtension>
            <ns3:atemp>24.0</ns3:atemp>
          </ns3:TrackPointExtension>
        </extensions>
      </trkpt>
      <trkpt lat="42.54575586877763271331787109375" lon="19.95860989205539226531982421875">
        <ele>1247</ele>
        <time>2026-06-17T08:23:22.000Z</time>
        <extensions>
          <ns3:TrackPointExtension>
            <ns3:atemp>24.0</ns3:atemp>
          </ns3:TrackPointExtension>
        </extensions>
      </trkpt>
      <trkpt lat="42.545750923454761505126953125" lon="19.95858340524137020111083984375">
        <ele>1247.199951171875</ele>
        <time>2026-06-17T08:23:23.000Z</time>
        <extensions>
          <ns3:TrackPointExtension>
            <ns3:atemp>24.0</ns3:atemp>
          </ns3:TrackPointExtension>
        </extensions>
      </trkpt>
      <trkpt lat="42.54574916325509548187255859375" lon="19.95856462977826595306396484375">
        <ele>1247.4000244140625</ele>
        <time>2026-06-17T08:23:24.000Z</time>
        <extensions>
          <ns3:TrackPointExtension>
            <ns3:atemp>24.0</ns3:atemp>
          </ns3:TrackPointExtension>
        </extensions>
      </trkpt>
      <trkpt lat="42.54575452767312526702880859375" lon="19.95854669250547885894775390625">
        <ele>1247.4000244140625</ele>
        <time>2026-06-17T08:23:25.000Z</time>
        <extensions>
          <ns3:TrackPointExtension>
            <ns3:atemp>24.0</ns3:atemp>
          </ns3:TrackPointExtension>
        </extensions>
      </trkpt>
      <trkpt lat="42.545754946768283843994140625" lon="19.9585269950330257415771484375">
        <ele>1247.5999755859375</ele>
        <time>2026-06-17T08:23:26.000Z</time>
        <extensions>
          <ns3:TrackPointExtension>
            <ns3:atemp>24.0</ns3:atemp>
          </ns3:TrackPointExtension>
        </extensions>
      </trkpt>
      <trkpt lat="42.5457567907869815826416015625" lon="19.9585062079131603240966796875">
        <ele>1247.800048828125</ele>
        <time>2026-06-17T08:23:27.000Z</time>
        <extensions>
          <ns3:TrackPointExtension>
            <ns3:atemp>24.0</ns3:atemp>
          </ns3:TrackPointExtension>
        </extensions>
      </trkpt>
      <trkpt lat="42.545759975910186767578125" lon="19.95848198421299457550048828125">
        <ele>1248.199951171875</ele>
        <time>2026-06-17T08:23:28.000Z</time>
        <extensions>
          <ns3:TrackPointExtension>
            <ns3:atemp>24.0</ns3:atemp>
          </ns3:TrackPointExtension>
        </extensions>
      </trkpt>
      <trkpt lat="42.5457641668617725372314453125" lon="19.958458431065082550048828125">
        <ele>1248.5999755859375</ele>
        <time>2026-06-17T08:23:29.000Z</time>
        <extensions>
          <ns3:TrackPointExtension>
            <ns3:atemp>24.0</ns3:atemp>
          </ns3:TrackPointExtension>
        </extensions>
      </trkpt>
      <trkpt lat="42.54577003419399261474609375" lon="19.9584344588220119476318359375">
        <ele>1248.800048828125</ele>
        <time>2026-06-17T08:23:30.000Z</time>
        <extensions>
          <ns3:TrackPointExtension>
            <ns3:atemp>24.0</ns3:atemp>
          </ns3:TrackPointExtension>
        </extensions>
      </trkpt>
      <trkpt lat="42.5457774102687835693359375" lon="19.95841744355857372283935546875">
        <ele>1249</ele>
        <time>2026-06-17T08:23:31.000Z</time>
        <extensions>
          <ns3:TrackPointExtension>
            <ns3:atemp>24.0</ns3:atemp>
          </ns3:TrackPointExtension>
        </extensions>
      </trkpt>
      <trkpt lat="42.5457859598100185394287109375" lon="19.9583990871906280517578125">
        <ele>1249.4000244140625</ele>
        <time>2026-06-17T08:23:32.000Z</time>
        <extensions>
          <ns3:TrackPointExtension>
            <ns3:atemp>24.0</ns3:atemp>
          </ns3:TrackPointExtension>
        </extensions>
      </trkpt>
      <trkpt lat="42.5457946769893169403076171875" lon="19.95837964117527008056640625">
        <ele>1249.5999755859375</ele>
        <time>2026-06-17T08:23:33.000Z</time>
        <extensions>
          <ns3:TrackPointExtension>
            <ns3:atemp>24.0</ns3:atemp>
          </ns3:TrackPointExtension>
        </extensions>
      </trkpt>
      <trkpt lat="42.5458047352731227874755859375" lon="19.9583588540554046630859375">
        <ele>1249.800048828125</ele>
        <time>2026-06-17T08:23:34.000Z</time>
        <extensions>
          <ns3:TrackPointExtension>
            <ns3:atemp>24.0</ns3:atemp>
          </ns3:TrackPointExtension>
        </extensions>
      </trkpt>
      <trkpt lat="42.5458147935569286346435546875" lon="19.958342425525188446044921875">
        <ele>1250</ele>
        <time>2026-06-17T08:23:35.000Z</time>
        <extensions>
          <ns3:TrackPointExtension>
            <ns3:atemp>24.0</ns3:atemp>
          </ns3:TrackPointExtension>
        </extensions>
      </trkpt>
      <trkpt lat="42.54582258872687816619873046875" lon="19.95832323096692562103271484375">
        <ele>1250.199951171875</ele>
        <time>2026-06-17T08:23:36.000Z</time>
        <extensions>
          <ns3:TrackPointExtension>
            <ns3:atemp>25.0</ns3:atemp>
          </ns3:TrackPointExtension>
        </extensions>
      </trkpt>
      <trkpt lat="42.54583264701068401336669921875" lon="19.958305545151233673095703125">
        <ele>1250.4000244140625</ele>
        <time>2026-06-17T08:23:37.000Z</time>
        <extensions>
          <ns3:TrackPointExtension>
            <ns3:atemp>25.0</ns3:atemp>
          </ns3:TrackPointExtension>
        </extensions>
      </trkpt>
      <trkpt lat="42.54584471695125102996826171875" lon="19.9582892842590808868408203125">
        <ele>1250.5999755859375</ele>
        <time>2026-06-17T08:23:38.000Z</time>
        <extensions>
          <ns3:TrackPointExtension>
            <ns3:atemp>24.0</ns3:atemp>
          </ns3:TrackPointExtension>
        </extensions>
      </trkpt>
      <trkpt lat="42.5458577089011669158935546875" lon="19.95827293954789638519287109375">
        <ele>1250.800048828125</ele>
        <time>2026-06-17T08:23:39.000Z</time>
        <extensions>
          <ns3:TrackPointExtension>
            <ns3:atemp>24.0</ns3:atemp>
          </ns3:TrackPointExtension>
        </extensions>
      </trkpt>
      <trkpt lat="42.54586969502270221710205078125" lon="19.958261959254741668701171875">
        <ele>1251</ele>
        <time>2026-06-17T08:23:40.000Z</time>
        <extensions>
          <ns3:TrackPointExtension>
            <ns3:atemp>24.0</ns3:atemp>
          </ns3:TrackPointExtension>
        </extensions>
      </trkpt>
      <trkpt lat="42.54588126204907894134521484375" lon="19.95825215242803096771240234375">
        <ele>1251.199951171875</ele>
        <time>2026-06-17T08:23:41.000Z</time>
        <extensions>
          <ns3:TrackPointExtension>
            <ns3:atemp>24.0</ns3:atemp>
          </ns3:TrackPointExtension>
        </extensions>
      </trkpt>
      <trkpt lat="42.54589165560901165008544921875" lon="19.95823614299297332763671875">
        <ele>1251.199951171875</ele>
        <time>2026-06-17T08:23:42.000Z</time>
        <extensions>
          <ns3:TrackPointExtension>
            <ns3:atemp>24.0</ns3:atemp>
          </ns3:TrackPointExtension>
        </extensions>
      </trkpt>
      <trkpt lat="42.54590523429214954376220703125" lon="19.95822046883404254913330078125">
        <ele>1251.199951171875</ele>
        <time>2026-06-17T08:23:43.000Z</time>
        <extensions>
          <ns3:TrackPointExtension>
            <ns3:atemp>24.0</ns3:atemp>
          </ns3:TrackPointExtension>
        </extensions>
      </trkpt>
      <trkpt lat="42.5459182262420654296875" lon="19.95821091346442699432373046875">
        <ele>1251.4000244140625</ele>
        <time>2026-06-17T08:23:44.000Z</time>
        <extensions>
          <ns3:TrackPointExtension>
            <ns3:atemp>24.0</ns3:atemp>
          </ns3:TrackPointExtension>
        </extensions>
      </trkpt>
      <trkpt lat="42.54593239165842533111572265625" lon="19.958191551268100738525390625">
        <ele>1251.4000244140625</ele>
        <time>2026-06-17T08:23:45.000Z</time>
        <extensions>
          <ns3:TrackPointExtension>
            <ns3:atemp>24.0</ns3:atemp>
          </ns3:TrackPointExtension>
        </extensions>
      </trkpt>
      <trkpt lat="42.5459462217986583709716796875" lon="19.9581791460514068603515625">
        <ele>1251.5999755859375</ele>
        <time>2026-06-17T08:23:46.000Z</time>
        <extensions>
          <ns3:TrackPointExtension>
            <ns3:atemp>24.0</ns3:atemp>
          </ns3:TrackPointExtension>
        </extensions>
      </trkpt>
      <trkpt lat="42.54595468752086162567138671875" lon="19.95817101560533046722412109375">
        <ele>1251.800048828125</ele>
        <time>2026-06-17T08:23:47.000Z</time>
        <extensions>
          <ns3:TrackPointExtension>
            <ns3:atemp>24.0</ns3:atemp>
          </ns3:TrackPointExtension>
        </extensions>
      </trkpt>
      <trkpt lat="42.54596306942403316497802734375" lon="19.9581645615398883819580078125">
        <ele>1252</ele>
        <time>2026-06-17T08:23:48.000Z</time>
        <extensions>
          <ns3:TrackPointExtension>
            <ns3:atemp>24.0</ns3:atemp>
          </ns3:TrackPointExtension>
        </extensions>
      </trkpt>
      <trkpt lat="42.54597497172653675079345703125" lon="19.958156011998653411865234375">
        <ele>1252.199951171875</ele>
        <time>2026-06-17T08:23:49.000Z</time>
        <extensions>
          <ns3:TrackPointExtension>
            <ns3:atemp>24.0</ns3:atemp>
          </ns3:TrackPointExtension>
        </extensions>
      </trkpt>
      <trkpt lat="42.5459893047809600830078125" lon="19.958146624267101287841796875">
        <ele>1252.4000244140625</ele>
        <time>2026-06-17T08:23:50.000Z</time>
        <extensions>
          <ns3:TrackPointExtension>
            <ns3:atemp>24.0</ns3:atemp>
          </ns3:TrackPointExtension>
        </extensions>
      </trkpt>
      <trkpt lat="42.54600397311151027679443359375" lon="19.95813413523137569427490234375">
        <ele>1252.5999755859375</ele>
        <time>2026-06-17T08:23:51.000Z</time>
        <extensions>
          <ns3:TrackPointExtension>
            <ns3:atemp>25.0</ns3:atemp>
          </ns3:TrackPointExtension>
        </extensions>
      </trkpt>
      <trkpt lat="42.5460166297852993011474609375" lon="19.9581186287105083465576171875">
        <ele>1252.800048828125</ele>
        <time>2026-06-17T08:23:52.000Z</time>
        <extensions>
          <ns3:TrackPointExtension>
            <ns3:atemp>24.0</ns3:atemp>
          </ns3:TrackPointExtension>
        </extensions>
      </trkpt>
      <trkpt lat="42.54603263922035694122314453125" lon="19.9581045471131801605224609375">
        <ele>1253.199951171875</ele>
        <time>2026-06-17T08:23:53.000Z</time>
        <extensions>
          <ns3:TrackPointExtension>
            <ns3:atemp>24.0</ns3:atemp>
          </ns3:TrackPointExtension>
        </extensions>
      </trkpt>
      <trkpt lat="42.5460483133792877197265625" lon="19.95809666812419891357421875">
        <ele>1253.4000244140625</ele>
        <time>2026-06-17T08:23:54.000Z</time>
        <extensions>
          <ns3:TrackPointExtension>
            <ns3:atemp>24.0</ns3:atemp>
          </ns3:TrackPointExtension>
        </extensions>
      </trkpt>
      <trkpt lat="42.5460635684430599212646484375" lon="19.9580852687358856201171875">
        <ele>1253.800048828125</ele>
        <time>2026-06-17T08:23:55.000Z</time>
        <extensions>
          <ns3:TrackPointExtension>
            <ns3:atemp>24.0</ns3:atemp>
          </ns3:TrackPointExtension>
        </extensions>
      </trkpt>
      <trkpt lat="42.54607706330716609954833984375" lon="19.9580750428140163421630859375">
        <ele>1254</ele>
        <time>2026-06-17T08:23:56.000Z</time>
        <extensions>
          <ns3:TrackPointExtension>
            <ns3:atemp>24.0</ns3:atemp>
          </ns3:TrackPointExtension>
        </extensions>
      </trkpt>
      <trkpt lat="42.54609466530382633209228515625" lon="19.95806573890149593353271484375">
        <ele>1254.199951171875</ele>
        <time>2026-06-17T08:23:57.000Z</time>
        <extensions>
          <ns3:TrackPointExtension>
            <ns3:atemp>24.0</ns3:atemp>
          </ns3:TrackPointExtension>
        </extensions>
      </trkpt>
      <trkpt lat="42.54610975272953510284423828125" lon="19.95805433951318264007568359375">
        <ele>1254.4000244140625</ele>
        <time>2026-06-17T08:23:58.000Z</time>
        <extensions>
          <ns3:TrackPointExtension>
            <ns3:atemp>24.0</ns3:atemp>
          </ns3:TrackPointExtension>
        </extensions>
      </trkpt>
      <trkpt lat="42.5461252592504024505615234375" lon="19.95804578997194766998291015625">
        <ele>1254.4000244140625</ele>
        <time>2026-06-17T08:23:59.000Z</time>
        <extensions>
          <ns3:TrackPointExtension>
            <ns3:atemp>24.0</ns3:atemp>
          </ns3:TrackPointExtension>
        </extensions>
      </trkpt>
      <trkpt lat="42.5461395084857940673828125" lon="19.95804076083004474639892578125">
        <ele>1254.5999755859375</ele>
        <time>2026-06-17T08:24:00.000Z</time>
        <extensions>
          <ns3:TrackPointExtension>
            <ns3:atemp>25.0</ns3:atemp>
          </ns3:TrackPointExtension>
        </extensions>
      </trkpt>
      <trkpt lat="42.54615535028278827667236328125" lon="19.95803656987845897674560546875">
        <ele>1254.800048828125</ele>
        <time>2026-06-17T08:24:01.000Z</time>
        <extensions>
          <ns3:TrackPointExtension>
            <ns3:atemp>25.0</ns3:atemp>
          </ns3:TrackPointExtension>
        </extensions>
      </trkpt>
      <trkpt lat="42.5461695156991481781005859375" lon="19.9580344744026660919189453125">
        <ele>1254.800048828125</ele>
        <time>2026-06-17T08:24:02.000Z</time>
        <extensions>
          <ns3:TrackPointExtension>
            <ns3:atemp>25.0</ns3:atemp>
          </ns3:TrackPointExtension>
        </extensions>
      </trkpt>
      <trkpt lat="42.54618384875357151031494140625" lon="19.958032630383968353271484375">
        <ele>1255</ele>
        <time>2026-06-17T08:24:03.000Z</time>
        <extensions>
          <ns3:TrackPointExtension>
            <ns3:atemp>25.0</ns3:atemp>
          </ns3:TrackPointExtension>
        </extensions>
      </trkpt>
      <trkpt lat="42.54619918763637542724609375" lon="19.95802600868046283721923828125">
        <ele>1255.4000244140625</ele>
        <time>2026-06-17T08:24:04.000Z</time>
        <extensions>
          <ns3:TrackPointExtension>
            <ns3:atemp>25.0</ns3:atemp>
          </ns3:TrackPointExtension>
        </extensions>
      </trkpt>
      <trkpt lat="42.546214275062084197998046875" lon="19.958017878234386444091796875">
        <ele>1255.5999755859375</ele>
        <time>2026-06-17T08:24:05.000Z</time>
        <extensions>
          <ns3:TrackPointExtension>
            <ns3:atemp>25.0</ns3:atemp>
          </ns3:TrackPointExtension>
        </extensions>
      </trkpt>
      <trkpt lat="42.54622978158295154571533203125" lon="19.9580099992454051971435546875">
        <ele>1255.800048828125</ele>
        <time>2026-06-17T08:24:06.000Z</time>
        <extensions>
          <ns3:TrackPointExtension>
            <ns3:atemp>25.0</ns3:atemp>
          </ns3:TrackPointExtension>
        </extensions>
      </trkpt>
      <trkpt lat="42.54624520428478717803955078125" lon="19.9580053053796291351318359375">
        <ele>1255.800048828125</ele>
        <time>2026-06-17T08:24:07.000Z</time>
        <extensions>
          <ns3:TrackPointExtension>
            <ns3:atemp>25.0</ns3:atemp>
          </ns3:TrackPointExtension>
        </extensions>
      </trkpt>
      <trkpt lat="42.54625828005373477935791015625" lon="19.958003126084804534912109375">
        <ele>1256</ele>
        <time>2026-06-17T08:24:08.000Z</time>
        <extensions>
          <ns3:TrackPointExtension>
            <ns3:atemp>25.0</ns3:atemp>
          </ns3:TrackPointExtension>
        </extensions>
      </trkpt>
      <trkpt lat="42.54627454094588756561279296875" lon="19.9579975940287113189697265625">
        <ele>1256</ele>
        <time>2026-06-17T08:24:09.000Z</time>
        <extensions>
          <ns3:TrackPointExtension>
            <ns3:atemp>25.0</ns3:atemp>
          </ns3:TrackPointExtension>
        </extensions>
      </trkpt>
      <trkpt lat="42.546286024153232574462890625" lon="19.957990385591983795166015625">
        <ele>1256.199951171875</ele>
        <time>2026-06-17T08:24:10.000Z</time>
        <extensions>
          <ns3:TrackPointExtension>
            <ns3:atemp>25.0</ns3:atemp>
          </ns3:TrackPointExtension>
        </extensions>
      </trkpt>
      <trkpt lat="42.546295411884784698486328125" lon="19.95798711664974689483642578125">
        <ele>1256.4000244140625</ele>
        <time>2026-06-17T08:24:11.000Z</time>
        <extensions>
          <ns3:TrackPointExtension>
            <ns3:atemp>25.0</ns3:atemp>
          </ns3:TrackPointExtension>
        </extensions>
      </trkpt>
      <trkpt lat="42.54630806855857372283935546875" lon="19.9579838477075099945068359375">
        <ele>1256.5999755859375</ele>
        <time>2026-06-17T08:24:12.000Z</time>
        <extensions>
          <ns3:TrackPointExtension>
            <ns3:atemp>25.0</ns3:atemp>
          </ns3:TrackPointExtension>
        </extensions>
      </trkpt>
      <trkpt lat="42.5463218986988067626953125" lon="19.9579794891178607940673828125">
        <ele>1256.800048828125</ele>
        <time>2026-06-17T08:24:13.000Z</time>
        <extensions>
          <ns3:TrackPointExtension>
            <ns3:atemp>25.0</ns3:atemp>
          </ns3:TrackPointExtension>
        </extensions>
      </trkpt>
      <trkpt lat="42.54633757285773754119873046875" lon="19.9579731188714504241943359375">
        <ele>1257</ele>
        <time>2026-06-17T08:24:14.000Z</time>
        <extensions>
          <ns3:TrackPointExtension>
            <ns3:atemp>25.0</ns3:atemp>
          </ns3:TrackPointExtension>
        </extensions>
      </trkpt>
      <trkpt lat="42.5463565997779369354248046875" lon="19.9579640664160251617431640625">
        <ele>1257.199951171875</ele>
        <time>2026-06-17T08:24:15.000Z</time>
        <extensions>
          <ns3:TrackPointExtension>
            <ns3:atemp>25.0</ns3:atemp>
          </ns3:TrackPointExtension>
        </extensions>
      </trkpt>
      <trkpt lat="42.54637411795556545257568359375" lon="19.957956857979297637939453125">
        <ele>1257.199951171875</ele>
        <time>2026-06-17T08:24:16.000Z</time>
        <extensions>
          <ns3:TrackPointExtension>
            <ns3:atemp>25.0</ns3:atemp>
          </ns3:TrackPointExtension>
        </extensions>
      </trkpt>
      <trkpt lat="42.5463907979428768157958984375" lon="19.95794822461903095245361328125">
        <ele>1257.4000244140625</ele>
        <time>2026-06-17T08:24:17.000Z</time>
        <extensions>
          <ns3:TrackPointExtension>
            <ns3:atemp>25.0</ns3:atemp>
          </ns3:TrackPointExtension>
        </extensions>
      </trkpt>
      <trkpt lat="42.546406723558902740478515625" lon="19.957937411963939666748046875">
        <ele>1257.5999755859375</ele>
        <time>2026-06-17T08:24:18.000Z</time>
        <extensions>
          <ns3:TrackPointExtension>
            <ns3:atemp>25.0</ns3:atemp>
          </ns3:TrackPointExtension>
        </extensions>
      </trkpt>
      <trkpt lat="42.5464296899735927581787109375" lon="19.95791964232921600341796875">
        <ele>1257.800048828125</ele>
        <time>2026-06-17T08:24:19.000Z</time>
        <extensions>
          <ns3:TrackPointExtension>
            <ns3:atemp>25.0</ns3:atemp>
          </ns3:TrackPointExtension>
        </extensions>
      </trkpt>
      <trkpt lat="42.5464452803134918212890625" lon="19.957908578217029571533203125">
        <ele>1257.800048828125</ele>
        <time>2026-06-17T08:24:20.000Z</time>
        <extensions>
          <ns3:TrackPointExtension>
            <ns3:atemp>25.0</ns3:atemp>
          </ns3:TrackPointExtension>
        </extensions>
      </trkpt>
      <trkpt lat="42.54645843990147113800048828125" lon="19.9578948318958282470703125">
        <ele>1258.199951171875</ele>
        <time>2026-06-17T08:24:21.000Z</time>
        <extensions>
          <ns3:TrackPointExtension>
            <ns3:atemp>25.0</ns3:atemp>
          </ns3:TrackPointExtension>
        </extensions>
      </trkpt>
      <trkpt lat="42.54647570662200450897216796875" lon="19.9578832648694515228271484375">
        <ele>1258.199951171875</ele>
        <time>2026-06-17T08:24:22.000Z</time>
        <extensions>
          <ns3:TrackPointExtension>
            <ns3:atemp>25.0</ns3:atemp>
          </ns3:TrackPointExtension>
        </extensions>
      </trkpt>
      <trkpt lat="42.546491883695125579833984375" lon="19.95787697844207286834716796875">
        <ele>1258.4000244140625</ele>
        <time>2026-06-17T08:24:23.000Z</time>
        <extensions>
          <ns3:TrackPointExtension>
            <ns3:atemp>25.0</ns3:atemp>
          </ns3:TrackPointExtension>
        </extensions>
      </trkpt>
      <trkpt lat="42.54651024006307125091552734375" lon="19.95786390267312526702880859375">
        <ele>1258.5999755859375</ele>
        <time>2026-06-17T08:24:24.000Z</time>
        <extensions>
          <ns3:TrackPointExtension>
            <ns3:atemp>25.0</ns3:atemp>
          </ns3:TrackPointExtension>
        </extensions>
      </trkpt>
      <trkpt lat="42.5465257465839385986328125" lon="19.95785124599933624267578125">
        <ele>1258.5999755859375</ele>
        <time>2026-06-17T08:24:25.000Z</time>
        <extensions>
          <ns3:TrackPointExtension>
            <ns3:atemp>25.0</ns3:atemp>
          </ns3:TrackPointExtension>
        </extensions>
      </trkpt>
      <trkpt lat="42.5465420074760913848876953125" lon="19.957834817469120025634765625">
        <ele>1258.800048828125</ele>
        <time>2026-06-17T08:24:26.000Z</time>
        <extensions>
          <ns3:TrackPointExtension>
            <ns3:atemp>25.0</ns3:atemp>
          </ns3:TrackPointExtension>
        </extensions>
      </trkpt>
      <trkpt lat="42.5465591065585613250732421875" lon="19.957818724215030670166015625">
        <ele>1259</ele>
        <time>2026-06-17T08:24:27.000Z</time>
        <extensions>
          <ns3:TrackPointExtension>
            <ns3:atemp>25.0</ns3:atemp>
          </ns3:TrackPointExtension>
        </extensions>
      </trkpt>
      <trkpt lat="42.5465725176036357879638671875" lon="19.95780472643673419952392578125">
        <ele>1259.199951171875</ele>
        <time>2026-06-17T08:24:28.000Z</time>
        <extensions>
          <ns3:TrackPointExtension>
            <ns3:atemp>25.0</ns3:atemp>
          </ns3:TrackPointExtension>
        </extensions>
      </trkpt>
      <trkpt lat="42.5465852580964565277099609375" lon="19.95779081247746944427490234375">
        <ele>1259.4000244140625</ele>
        <time>2026-06-17T08:24:29.000Z</time>
        <extensions>
          <ns3:TrackPointExtension>
            <ns3:atemp>25.0</ns3:atemp>
          </ns3:TrackPointExtension>
        </extensions>
      </trkpt>
      <trkpt lat="42.54660143516957759857177734375" lon="19.9577794969081878662109375">
        <ele>1259.5999755859375</ele>
        <time>2026-06-17T08:24:30.000Z</time>
        <extensions>
          <ns3:TrackPointExtension>
            <ns3:atemp>25.0</ns3:atemp>
          </ns3:TrackPointExtension>
        </extensions>
      </trkpt>
      <trkpt lat="42.54661484621465206146240234375" lon="19.95776943862438201904296875">
        <ele>1259.800048828125</ele>
        <time>2026-06-17T08:24:31.000Z</time>
        <extensions>
          <ns3:TrackPointExtension>
            <ns3:atemp>25.0</ns3:atemp>
          </ns3:TrackPointExtension>
        </extensions>
      </trkpt>
      <trkpt lat="42.5466268323361873626708984375" lon="19.95775175280869007110595703125">
        <ele>1259.800048828125</ele>
        <time>2026-06-17T08:24:32.000Z</time>
        <extensions>
          <ns3:TrackPointExtension>
            <ns3:atemp>25.0</ns3:atemp>
          </ns3:TrackPointExtension>
        </extensions>
      </trkpt>
      <trkpt lat="42.5466422550380229949951171875" lon="19.9577367492020130157470703125">
        <ele>1260</ele>
        <time>2026-06-17T08:24:33.000Z</time>
        <extensions>
          <ns3:TrackPointExtension>
            <ns3:atemp>25.0</ns3:atemp>
          </ns3:TrackPointExtension>
        </extensions>
      </trkpt>
      <trkpt lat="42.54665650427341461181640625" lon="19.9577199853956699371337890625">
        <ele>1260.199951171875</ele>
        <time>2026-06-17T08:24:34.000Z</time>
        <extensions>
          <ns3:TrackPointExtension>
            <ns3:atemp>25.0</ns3:atemp>
          </ns3:TrackPointExtension>
        </extensions>
      </trkpt>
      <trkpt lat="42.5466714240610599517822265625" lon="19.9577057361602783203125">
        <ele>1260.4000244140625</ele>
        <time>2026-06-17T08:24:35.000Z</time>
        <extensions>
          <ns3:TrackPointExtension>
            <ns3:atemp>25.0</ns3:atemp>
          </ns3:TrackPointExtension>
        </extensions>
      </trkpt>
      <trkpt lat="42.546687014400959014892578125" lon="19.95768737979233264923095703125">
        <ele>1260.5999755859375</ele>
        <time>2026-06-17T08:24:36.000Z</time>
        <extensions>
          <ns3:TrackPointExtension>
            <ns3:atemp>25.0</ns3:atemp>
          </ns3:TrackPointExtension>
        </extensions>
      </trkpt>
      <trkpt lat="42.546700425446033477783203125" lon="19.95767095126211643218994140625">
        <ele>1260.800048828125</ele>
        <time>2026-06-17T08:24:37.000Z</time>
        <extensions>
          <ns3:TrackPointExtension>
            <ns3:atemp>25.0</ns3:atemp>
          </ns3:TrackPointExtension>
        </extensions>
      </trkpt>
      <trkpt lat="42.546713165938854217529296875" lon="19.957657121121883392333984375">
        <ele>1261</ele>
        <time>2026-06-17T08:24:38.000Z</time>
        <extensions>
          <ns3:TrackPointExtension>
            <ns3:atemp>25.0</ns3:atemp>
          </ns3:TrackPointExtension>
        </extensions>
      </trkpt>
      <trkpt lat="42.5467280857264995574951171875" lon="19.95764245279133319854736328125">
        <ele>1261</ele>
        <time>2026-06-17T08:24:39.000Z</time>
        <extensions>
          <ns3:TrackPointExtension>
            <ns3:atemp>25.0</ns3:atemp>
          </ns3:TrackPointExtension>
        </extensions>
      </trkpt>
      <trkpt lat="42.5467441789805889129638671875" lon="19.95762401260435581207275390625">
        <ele>1261.199951171875</ele>
        <time>2026-06-17T08:24:40.000Z</time>
        <extensions>
          <ns3:TrackPointExtension>
            <ns3:atemp>25.0</ns3:atemp>
          </ns3:TrackPointExtension>
        </extensions>
      </trkpt>
      <trkpt lat="42.5467602722346782684326171875" lon="19.9576147086918354034423828125">
        <ele>1261.4000244140625</ele>
        <time>2026-06-17T08:24:41.000Z</time>
        <extensions>
          <ns3:TrackPointExtension>
            <ns3:atemp>25.0</ns3:atemp>
          </ns3:TrackPointExtension>
        </extensions>
      </trkpt>
      <trkpt lat="42.5467743538320064544677734375" lon="19.95760582387447357177734375">
        <ele>1261.5999755859375</ele>
        <time>2026-06-17T08:24:42.000Z</time>
        <extensions>
          <ns3:TrackPointExtension>
            <ns3:atemp>25.0</ns3:atemp>
          </ns3:TrackPointExtension>
        </extensions>
      </trkpt>
      <trkpt lat="42.546790279448032379150390625" lon="19.9575929157435894012451171875">
        <ele>1261.800048828125</ele>
        <time>2026-06-17T08:24:43.000Z</time>
        <extensions>
          <ns3:TrackPointExtension>
            <ns3:atemp>25.0</ns3:atemp>
          </ns3:TrackPointExtension>
        </extensions>
      </trkpt>
      <trkpt lat="42.546804361045360565185546875" lon="19.9575788341462612152099609375">
        <ele>1262</ele>
        <time>2026-06-17T08:24:44.000Z</time>
        <extensions>
          <ns3:TrackPointExtension>
            <ns3:atemp>25.0</ns3:atemp>
          </ns3:TrackPointExtension>
        </extensions>
      </trkpt>
      <trkpt lat="42.5468226335942745208740234375" lon="19.9575650878250598907470703125">
        <ele>1262.199951171875</ele>
        <time>2026-06-17T08:24:45.000Z</time>
        <extensions>
          <ns3:TrackPointExtension>
            <ns3:atemp>25.0</ns3:atemp>
          </ns3:TrackPointExtension>
        </extensions>
      </trkpt>
      <trkpt lat="42.5468380562961101531982421875" lon="19.95755041949450969696044921875">
        <ele>1262.4000244140625</ele>
        <time>2026-06-17T08:24:46.000Z</time>
        <extensions>
          <ns3:TrackPointExtension>
            <ns3:atemp>25.0</ns3:atemp>
          </ns3:TrackPointExtension>
        </extensions>
      </trkpt>
      <trkpt lat="42.546851634979248046875" lon="19.9575369246304035186767578125">
        <ele>1262.5999755859375</ele>
        <time>2026-06-17T08:24:47.000Z</time>
        <extensions>
          <ns3:TrackPointExtension>
            <ns3:atemp>25.0</ns3:atemp>
          </ns3:TrackPointExtension>
        </extensions>
      </trkpt>
      <trkpt lat="42.54686705768108367919921875" lon="19.95752133429050445556640625">
        <ele>1262.800048828125</ele>
        <time>2026-06-17T08:24:48.000Z</time>
        <extensions>
          <ns3:TrackPointExtension>
            <ns3:atemp>25.0</ns3:atemp>
          </ns3:TrackPointExtension>
        </extensions>
      </trkpt>
      <trkpt lat="42.5468796305358409881591796875" lon="19.95751102454960346221923828125">
        <ele>1263</ele>
        <time>2026-06-17T08:24:49.000Z</time>
        <extensions>
          <ns3:TrackPointExtension>
            <ns3:atemp>25.0</ns3:atemp>
          </ns3:TrackPointExtension>
        </extensions>
      </trkpt>
      <trkpt lat="42.5468940474092960357666015625" lon="19.957497529685497283935546875">
        <ele>1263</ele>
        <time>2026-06-17T08:24:50.000Z</time>
        <extensions>
          <ns3:TrackPointExtension>
            <ns3:atemp>25.0</ns3:atemp>
          </ns3:TrackPointExtension>
        </extensions>
      </trkpt>
      <trkpt lat="42.546907961368560791015625" lon="19.9574826098978519439697265625">
        <ele>1263.4000244140625</ele>
        <time>2026-06-17T08:24:51.000Z</time>
        <extensions>
          <ns3:TrackPointExtension>
            <ns3:atemp>25.0</ns3:atemp>
          </ns3:TrackPointExtension>
        </extensions>
      </trkpt>
      <trkpt lat="42.54691726528108119964599609375" lon="19.957468695938587188720703125">
        <ele>1263.5999755859375</ele>
        <time>2026-06-17T08:24:52.000Z</time>
        <extensions>
          <ns3:TrackPointExtension>
            <ns3:atemp>25.0</ns3:atemp>
          </ns3:TrackPointExtension>
        </extensions>
      </trkpt>
      <trkpt lat="42.5469315983355045318603515625" lon="19.9574522674083709716796875">
        <ele>1263.800048828125</ele>
        <time>2026-06-17T08:24:53.000Z</time>
        <extensions>
          <ns3:TrackPointExtension>
            <ns3:atemp>25.0</ns3:atemp>
          </ns3:TrackPointExtension>
        </extensions>
      </trkpt>
      <trkpt lat="42.5469450093805789947509765625" lon="19.95743550360202789306640625">
        <ele>1264</ele>
        <time>2026-06-17T08:24:54.000Z</time>
        <extensions>
          <ns3:TrackPointExtension>
            <ns3:atemp>25.0</ns3:atemp>
          </ns3:TrackPointExtension>
        </extensions>
      </trkpt>
      <trkpt lat="42.54695699550211429595947265625" lon="19.95740876533091068267822265625">
        <ele>1264.199951171875</ele>
        <time>2026-06-17T08:24:55.000Z</time>
        <extensions>
          <ns3:TrackPointExtension>
            <ns3:atemp>25.0</ns3:atemp>
          </ns3:TrackPointExtension>
        </extensions>
      </trkpt>
      <trkpt lat="42.5469683110713958740234375" lon="19.9573843739926815032958984375">
        <ele>1264.4000244140625</ele>
        <time>2026-06-17T08:24:56.000Z</time>
        <extensions>
          <ns3:TrackPointExtension>
            <ns3:atemp>25.0</ns3:atemp>
          </ns3:TrackPointExtension>
        </extensions>
      </trkpt>
      <trkpt lat="42.54697711206972599029541015625" lon="19.9573625810444355010986328125">
        <ele>1264.5999755859375</ele>
        <time>2026-06-17T08:24:57.000Z</time>
        <extensions>
          <ns3:TrackPointExtension>
            <ns3:atemp>25.0</ns3:atemp>
          </ns3:TrackPointExtension>
        </extensions>
      </trkpt>
      <trkpt lat="42.54698775708675384521484375" lon="19.9573404528200626373291015625">
        <ele>1264.800048828125</ele>
        <time>2026-06-17T08:24:58.000Z</time>
        <extensions>
          <ns3:TrackPointExtension>
            <ns3:atemp>25.0</ns3:atemp>
          </ns3:TrackPointExtension>
        </extensions>
      </trkpt>
      <trkpt lat="42.54699840210378170013427734375" lon="19.95732075534760951995849609375">
        <ele>1265</ele>
        <time>2026-06-17T08:24:59.000Z</time>
        <extensions>
          <ns3:TrackPointExtension>
            <ns3:atemp>25.0</ns3:atemp>
          </ns3:TrackPointExtension>
        </extensions>
      </trkpt>
      <trkpt lat="42.54700611345469951629638671875" lon="19.95729594491422176361083984375">
        <ele>1265.199951171875</ele>
        <time>2026-06-17T08:25:00.000Z</time>
        <extensions>
          <ns3:TrackPointExtension>
            <ns3:atemp>25.0</ns3:atemp>
          </ns3:TrackPointExtension>
        </extensions>
      </trkpt>
      <trkpt lat="42.5470140762627124786376953125" lon="19.95727431960403919219970703125">
        <ele>1265.5999755859375</ele>
        <time>2026-06-17T08:25:01.000Z</time>
        <extensions>
          <ns3:TrackPointExtension>
            <ns3:atemp>25.0</ns3:atemp>
          </ns3:TrackPointExtension>
        </extensions>
      </trkpt>
      <trkpt lat="42.547021619975566864013671875" lon="19.9572546221315860748291015625">
        <ele>1265.800048828125</ele>
        <time>2026-06-17T08:25:02.000Z</time>
        <extensions>
          <ns3:TrackPointExtension>
            <ns3:atemp>25.0</ns3:atemp>
          </ns3:TrackPointExtension>
        </extensions>
      </trkpt>
      <trkpt lat="42.54702572710812091827392578125" lon="19.95722972787916660308837890625">
        <ele>1266</ele>
        <time>2026-06-17T08:25:03.000Z</time>
        <extensions>
          <ns3:TrackPointExtension>
            <ns3:atemp>25.0</ns3:atemp>
          </ns3:TrackPointExtension>
        </extensions>
      </trkpt>
      <trkpt lat="42.54703109152615070343017578125" lon="19.95721061713993549346923828125">
        <ele>1266.199951171875</ele>
        <time>2026-06-17T08:25:04.000Z</time>
        <extensions>
          <ns3:TrackPointExtension>
            <ns3:atemp>25.0</ns3:atemp>
          </ns3:TrackPointExtension>
        </extensions>
      </trkpt>
      <trkpt lat="42.54704006016254425048828125" lon="19.95718832127749919891357421875">
        <ele>1266.4000244140625</ele>
        <time>2026-06-17T08:25:05.000Z</time>
        <extensions>
          <ns3:TrackPointExtension>
            <ns3:atemp>25.0</ns3:atemp>
          </ns3:TrackPointExtension>
        </extensions>
      </trkpt>
      <trkpt lat="42.5470472685992717742919921875" lon="19.9571674503386020660400390625">
        <ele>1266.5999755859375</ele>
        <time>2026-06-17T08:25:06.000Z</time>
        <extensions>
          <ns3:TrackPointExtension>
            <ns3:atemp>25.0</ns3:atemp>
          </ns3:TrackPointExtension>
        </extensions>
      </trkpt>
      <trkpt lat="42.54705506376922130584716796875" lon="19.95714582502841949462890625">
        <ele>1266.800048828125</ele>
        <time>2026-06-17T08:25:07.000Z</time>
        <extensions>
          <ns3:TrackPointExtension>
            <ns3:atemp>25.0</ns3:atemp>
          </ns3:TrackPointExtension>
        </extensions>
      </trkpt>
      <trkpt lat="42.54706495441496372222900390625" lon="19.957125373184680938720703125">
        <ele>1267</ele>
        <time>2026-06-17T08:25:08.000Z</time>
        <extensions>
          <ns3:TrackPointExtension>
            <ns3:atemp>25.0</ns3:atemp>
          </ns3:TrackPointExtension>
        </extensions>
      </trkpt>
      <trkpt lat="42.5470781140029430389404296875" lon="19.95710852555930614471435546875">
        <ele>1267</ele>
        <time>2026-06-17T08:25:09.000Z</time>
        <extensions>
          <ns3:TrackPointExtension>
            <ns3:atemp>25.0</ns3:atemp>
          </ns3:TrackPointExtension>
        </extensions>
      </trkpt>
      <trkpt lat="42.54709110595285892486572265625" lon="19.95709327049553394317626953125">
        <ele>1267</ele>
        <time>2026-06-17T08:25:10.000Z</time>
        <extensions>
          <ns3:TrackPointExtension>
            <ns3:atemp>25.0</ns3:atemp>
          </ns3:TrackPointExtension>
        </extensions>
      </trkpt>
      <trkpt lat="42.5471024215221405029296875" lon="19.95707583613693714141845703125">
        <ele>1267</ele>
        <time>2026-06-17T08:25:11.000Z</time>
        <extensions>
          <ns3:TrackPointExtension>
            <ns3:atemp>25.0</ns3:atemp>
          </ns3:TrackPointExtension>
        </extensions>
      </trkpt>
      <trkpt lat="42.5471183471381664276123046875" lon="19.957064352929592132568359375">
        <ele>1267</ele>
        <time>2026-06-17T08:25:12.000Z</time>
        <extensions>
          <ns3:TrackPointExtension>
            <ns3:atemp>25.0</ns3:atemp>
          </ns3:TrackPointExtension>
        </extensions>
      </trkpt>
      <trkpt lat="42.54713553003966808319091796875" lon="19.957056976854801177978515625">
        <ele>1267.199951171875</ele>
        <time>2026-06-17T08:25:13.000Z</time>
        <extensions>
          <ns3:TrackPointExtension>
            <ns3:atemp>25.0</ns3:atemp>
          </ns3:TrackPointExtension>
        </extensions>
      </trkpt>
      <trkpt lat="42.5471525453031063079833984375" lon="19.9570467509329319000244140625">
        <ele>1267</ele>
        <time>2026-06-17T08:25:14.000Z</time>
        <extensions>
          <ns3:TrackPointExtension>
            <ns3:atemp>25.0</ns3:atemp>
          </ns3:TrackPointExtension>
        </extensions>
      </trkpt>
      <trkpt lat="42.54716754890978336334228515625" lon="19.9570392072200775146484375">
        <ele>1267</ele>
        <time>2026-06-17T08:25:15.000Z</time>
        <extensions>
          <ns3:TrackPointExtension>
            <ns3:atemp>25.0</ns3:atemp>
          </ns3:TrackPointExtension>
        </extensions>
      </trkpt>
      <trkpt lat="42.547181211411952972412109375" lon="19.95703644119203090667724609375">
        <ele>1267</ele>
        <time>2026-06-17T08:25:16.000Z</time>
        <extensions>
          <ns3:TrackPointExtension>
            <ns3:atemp>25.0</ns3:atemp>
          </ns3:TrackPointExtension>
        </extensions>
      </trkpt>
      <trkpt lat="42.5471944548189640045166015625" lon="19.957031495869159698486328125">
        <ele>1267</ele>
        <time>2026-06-17T08:25:17.000Z</time>
        <extensions>
          <ns3:TrackPointExtension>
            <ns3:atemp>25.0</ns3:atemp>
          </ns3:TrackPointExtension>
        </extensions>
      </trkpt>
      <trkpt lat="42.5472097098827362060546875" lon="19.95702571235597133636474609375">
        <ele>1267</ele>
        <time>2026-06-17T08:25:18.000Z</time>
        <extensions>
          <ns3:TrackPointExtension>
            <ns3:atemp>25.0</ns3:atemp>
          </ns3:TrackPointExtension>
        </extensions>
      </trkpt>
      <trkpt lat="42.54722647368907928466796875" lon="19.95701967738568782806396484375">
        <ele>1267.199951171875</ele>
        <time>2026-06-17T08:25:19.000Z</time>
        <extensions>
          <ns3:TrackPointExtension>
            <ns3:atemp>25.0</ns3:atemp>
          </ns3:TrackPointExtension>
        </extensions>
      </trkpt>
      <trkpt lat="42.54724248312413692474365234375" lon="19.9570172466337680816650390625">
        <ele>1267.199951171875</ele>
        <time>2026-06-17T08:25:20.000Z</time>
        <extensions>
          <ns3:TrackPointExtension>
            <ns3:atemp>25.0</ns3:atemp>
          </ns3:TrackPointExtension>
        </extensions>
      </trkpt>
      <trkpt lat="42.54725907929241657257080078125" lon="19.9570179171860218048095703125">
        <ele>1267.4000244140625</ele>
        <time>2026-06-17T08:25:21.000Z</time>
        <extensions>
          <ns3:TrackPointExtension>
            <ns3:atemp>25.0</ns3:atemp>
          </ns3:TrackPointExtension>
        </extensions>
      </trkpt>
      <trkpt lat="42.54727416671812534332275390625" lon="19.95701364241540431976318359375">
        <ele>1267.4000244140625</ele>
        <time>2026-06-17T08:25:22.000Z</time>
        <extensions>
          <ns3:TrackPointExtension>
            <ns3:atemp>25.0</ns3:atemp>
          </ns3:TrackPointExtension>
        </extensions>
      </trkpt>
      <trkpt lat="42.547288835048675537109375" lon="19.95701230131089687347412109375">
        <ele>1267.5999755859375</ele>
        <time>2026-06-17T08:25:23.000Z</time>
        <extensions>
          <ns3:TrackPointExtension>
            <ns3:atemp>25.0</ns3:atemp>
          </ns3:TrackPointExtension>
        </extensions>
      </trkpt>
      <trkpt lat="42.5473054312169551849365234375" lon="19.95701213367283344268798828125">
        <ele>1267.800048828125</ele>
        <time>2026-06-17T08:25:24.000Z</time>
        <extensions>
          <ns3:TrackPointExtension>
            <ns3:atemp>25.0</ns3:atemp>
          </ns3:TrackPointExtension>
        </extensions>
      </trkpt>
      <trkpt lat="42.54732244648039340972900390625" lon="19.95700475759804248809814453125">
        <ele>1267.800048828125</ele>
        <time>2026-06-17T08:25:25.000Z</time>
        <extensions>
          <ns3:TrackPointExtension>
            <ns3:atemp>25.0</ns3:atemp>
          </ns3:TrackPointExtension>
        </extensions>
      </trkpt>
      <trkpt lat="42.54734004847705364227294921875" lon="19.95700090192258358001708984375">
        <ele>1268</ele>
        <time>2026-06-17T08:25:26.000Z</time>
        <extensions>
          <ns3:TrackPointExtension>
            <ns3:atemp>25.0</ns3:atemp>
          </ns3:TrackPointExtension>
        </extensions>
      </trkpt>
      <trkpt lat="42.54735656082630157470703125" lon="19.95699293911457061767578125">
        <ele>1268.199951171875</ele>
        <time>2026-06-17T08:25:27.000Z</time>
        <extensions>
          <ns3:TrackPointExtension>
            <ns3:atemp>25.0</ns3:atemp>
          </ns3:TrackPointExtension>
        </extensions>
      </trkpt>
      <trkpt lat="42.54737206734716892242431640625" lon="19.9569864012300968170166015625">
        <ele>1268.199951171875</ele>
        <time>2026-06-17T08:25:28.000Z</time>
        <extensions>
          <ns3:TrackPointExtension>
            <ns3:atemp>25.0</ns3:atemp>
          </ns3:TrackPointExtension>
        </extensions>
      </trkpt>
      <trkpt lat="42.54739067517220973968505859375" lon="19.956983886659145355224609375">
        <ele>1268.4000244140625</ele>
        <time>2026-06-17T08:25:29.000Z</time>
        <extensions>
          <ns3:TrackPointExtension>
            <ns3:atemp>25.0</ns3:atemp>
          </ns3:TrackPointExtension>
        </extensions>
      </trkpt>
      <trkpt lat="42.54740484058856964111328125" lon="19.9569736607372760772705078125">
        <ele>1268.4000244140625</ele>
        <time>2026-06-17T08:25:30.000Z</time>
        <extensions>
          <ns3:TrackPointExtension>
            <ns3:atemp>25.0</ns3:atemp>
          </ns3:TrackPointExtension>
        </extensions>
      </trkpt>
      <trkpt lat="42.54741917364299297332763671875" lon="19.95696553029119968414306640625">
        <ele>1268.5999755859375</ele>
        <time>2026-06-17T08:25:31.000Z</time>
        <extensions>
          <ns3:TrackPointExtension>
            <ns3:atemp>25.0</ns3:atemp>
          </ns3:TrackPointExtension>
        </extensions>
      </trkpt>
      <trkpt lat="42.54743308760225772857666015625" lon="19.9569552205502986907958984375">
        <ele>1268.800048828125</ele>
        <time>2026-06-17T08:25:32.000Z</time>
        <extensions>
          <ns3:TrackPointExtension>
            <ns3:atemp>25.0</ns3:atemp>
          </ns3:TrackPointExtension>
        </extensions>
      </trkpt>
      <trkpt lat="42.54744373261928558349609375" lon="19.9569451622664928436279296875">
        <ele>1269</ele>
        <time>2026-06-17T08:25:33.000Z</time>
        <extensions>
          <ns3:TrackPointExtension>
            <ns3:atemp>25.0</ns3:atemp>
          </ns3:TrackPointExtension>
        </extensions>
      </trkpt>
      <trkpt lat="42.54745471291244029998779296875" lon="19.956936277449131011962890625">
        <ele>1269.199951171875</ele>
        <time>2026-06-17T08:25:34.000Z</time>
        <extensions>
          <ns3:TrackPointExtension>
            <ns3:atemp>25.0</ns3:atemp>
          </ns3:TrackPointExtension>
        </extensions>
      </trkpt>
      <trkpt lat="42.5474703870713710784912109375" lon="19.95692320168018341064453125">
        <ele>1269.199951171875</ele>
        <time>2026-06-17T08:25:35.000Z</time>
        <extensions>
          <ns3:TrackPointExtension>
            <ns3:atemp>25.0</ns3:atemp>
          </ns3:TrackPointExtension>
        </extensions>
      </trkpt>
      <trkpt lat="42.54748589359223842620849609375" lon="19.95691121555864810943603515625">
        <ele>1269.4000244140625</ele>
        <time>2026-06-17T08:25:36.000Z</time>
        <extensions>
          <ns3:TrackPointExtension>
            <ns3:atemp>25.0</ns3:atemp>
          </ns3:TrackPointExtension>
        </extensions>
      </trkpt>
      <trkpt lat="42.54750248976051807403564453125" lon="19.9568975530564785003662109375">
        <ele>1269.4000244140625</ele>
        <time>2026-06-17T08:25:37.000Z</time>
        <extensions>
          <ns3:TrackPointExtension>
            <ns3:atemp>25.0</ns3:atemp>
          </ns3:TrackPointExtension>
        </extensions>
      </trkpt>
      <trkpt lat="42.5475200079381465911865234375" lon="19.95688506402075290679931640625">
        <ele>1269.5999755859375</ele>
        <time>2026-06-17T08:25:38.000Z</time>
        <extensions>
          <ns3:TrackPointExtension>
            <ns3:atemp>25.0</ns3:atemp>
          </ns3:TrackPointExtension>
        </extensions>
      </trkpt>
      <trkpt lat="42.5475327484309673309326171875" lon="19.9568724073469638824462890625">
        <ele>1269.800048828125</ele>
        <time>2026-06-17T08:25:39.000Z</time>
        <extensions>
          <ns3:TrackPointExtension>
            <ns3:atemp>25.0</ns3:atemp>
          </ns3:TrackPointExtension>
        </extensions>
      </trkpt>
      <trkpt lat="42.5475471653044223785400390625" lon="19.956861846148967742919921875">
        <ele>1270.199951171875</ele>
        <time>2026-06-17T08:25:40.000Z</time>
        <extensions>
          <ns3:TrackPointExtension>
            <ns3:atemp>25.0</ns3:atemp>
          </ns3:TrackPointExtension>
        </extensions>
      </trkpt>
      <trkpt lat="42.547563426196575164794921875" lon="19.95685153640806674957275390625">
        <ele>1270.4000244140625</ele>
        <time>2026-06-17T08:25:41.000Z</time>
        <extensions>
          <ns3:TrackPointExtension>
            <ns3:atemp>25.0</ns3:atemp>
          </ns3:TrackPointExtension>
        </extensions>
      </trkpt>
      <trkpt lat="42.547582872211933135986328125" lon="19.956834018230438232421875">
        <ele>1270.5999755859375</ele>
        <time>2026-06-17T08:25:42.000Z</time>
        <extensions>
          <ns3:TrackPointExtension>
            <ns3:atemp>25.0</ns3:atemp>
          </ns3:TrackPointExtension>
        </extensions>
      </trkpt>
      <trkpt lat="42.5476008094847202301025390625" lon="19.9568165838718414306640625">
        <ele>1270.5999755859375</ele>
        <time>2026-06-17T08:25:43.000Z</time>
        <extensions>
          <ns3:TrackPointExtension>
            <ns3:atemp>25.0</ns3:atemp>
          </ns3:TrackPointExtension>
        </extensions>
      </trkpt>
      <trkpt lat="42.5476145558059215545654296875" lon="19.95680007152259349822998046875">
        <ele>1270.5999755859375</ele>
        <time>2026-06-17T08:25:44.000Z</time>
        <extensions>
          <ns3:TrackPointExtension>
            <ns3:atemp>25.0</ns3:atemp>
          </ns3:TrackPointExtension>
        </extensions>
      </trkpt>
      <trkpt lat="42.547631151974201202392578125" lon="19.95678682811558246612548828125">
        <ele>1270.5999755859375</ele>
        <time>2026-06-17T08:25:45.000Z</time>
        <extensions>
          <ns3:TrackPointExtension>
            <ns3:atemp>25.0</ns3:atemp>
          </ns3:TrackPointExtension>
        </extensions>
      </trkpt>
      <trkpt lat="42.5476490892469882965087890625" lon="19.95676989667117595672607421875">
        <ele>1270.800048828125</ele>
        <time>2026-06-17T08:25:46.000Z</time>
        <extensions>
          <ns3:TrackPointExtension>
            <ns3:atemp>25.0</ns3:atemp>
          </ns3:TrackPointExtension>
        </extensions>
      </trkpt>
      <trkpt lat="42.54766501486301422119140625" lon="19.9567490257322788238525390625">
        <ele>1270.800048828125</ele>
        <time>2026-06-17T08:25:47.000Z</time>
        <extensions>
          <ns3:TrackPointExtension>
            <ns3:atemp>25.0</ns3:atemp>
          </ns3:TrackPointExtension>
        </extensions>
      </trkpt>
      <trkpt lat="42.54768311977386474609375" lon="19.95672714896500110626220703125">
        <ele>1271.199951171875</ele>
        <time>2026-06-17T08:25:48.000Z</time>
        <extensions>
          <ns3:TrackPointExtension>
            <ns3:atemp>25.0</ns3:atemp>
          </ns3:TrackPointExtension>
        </extensions>
      </trkpt>
      <trkpt lat="42.54769912920892238616943359375" lon="19.95670703239738941192626953125">
        <ele>1271.199951171875</ele>
        <time>2026-06-17T08:25:49.000Z</time>
        <extensions>
          <ns3:TrackPointExtension>
            <ns3:atemp>25.0</ns3:atemp>
          </ns3:TrackPointExtension>
        </extensions>
      </trkpt>
      <trkpt lat="42.54771530628204345703125" lon="19.9566856585443019866943359375">
        <ele>1271.4000244140625</ele>
        <time>2026-06-17T08:25:50.000Z</time>
        <extensions>
          <ns3:TrackPointExtension>
            <ns3:atemp>25.0</ns3:atemp>
          </ns3:TrackPointExtension>
        </extensions>
      </trkpt>
      <trkpt lat="42.54773181863129138946533203125" lon="19.9566636979579925537109375">
        <ele>1271.4000244140625</ele>
        <time>2026-06-17T08:25:51.000Z</time>
        <extensions>
          <ns3:TrackPointExtension>
            <ns3:atemp>25.0</ns3:atemp>
          </ns3:TrackPointExtension>
        </extensions>
      </trkpt>
      <trkpt lat="42.547746486961841583251953125" lon="19.95663813315331935882568359375">
        <ele>1271.4000244140625</ele>
        <time>2026-06-17T08:25:52.000Z</time>
        <extensions>
          <ns3:TrackPointExtension>
            <ns3:atemp>25.0</ns3:atemp>
          </ns3:TrackPointExtension>
        </extensions>
      </trkpt>
      <trkpt lat="42.54775847308337688446044921875" lon="19.9566162563860416412353515625">
        <ele>1271.5999755859375</ele>
        <time>2026-06-17T08:25:53.000Z</time>
        <extensions>
          <ns3:TrackPointExtension>
            <ns3:atemp>25.0</ns3:atemp>
          </ns3:TrackPointExtension>
        </extensions>
      </trkpt>
      <trkpt lat="42.54777305759489536285400390625" lon="19.95659018866717815399169921875">
        <ele>1271.5999755859375</ele>
        <time>2026-06-17T08:25:54.000Z</time>
        <extensions>
          <ns3:TrackPointExtension>
            <ns3:atemp>25.0</ns3:atemp>
          </ns3:TrackPointExtension>
        </extensions>
      </trkpt>
      <trkpt lat="42.54778479225933551788330078125" lon="19.95656504295766353607177734375">
        <ele>1271.5999755859375</ele>
        <time>2026-06-17T08:25:55.000Z</time>
        <extensions>
          <ns3:TrackPointExtension>
            <ns3:atemp>25.0</ns3:atemp>
          </ns3:TrackPointExtension>
        </extensions>
      </trkpt>
      <trkpt lat="42.5477996282279491424560546875" lon="19.95653939433395862579345703125">
        <ele>1271.5999755859375</ele>
        <time>2026-06-17T08:25:56.000Z</time>
        <extensions>
          <ns3:TrackPointExtension>
            <ns3:atemp>25.0</ns3:atemp>
          </ns3:TrackPointExtension>
        </extensions>
      </trkpt>
      <trkpt lat="42.54781312309205532073974609375" lon="19.95651642791926860809326171875">
        <ele>1271.800048828125</ele>
        <time>2026-06-17T08:25:57.000Z</time>
        <extensions>
          <ns3:TrackPointExtension>
            <ns3:atemp>25.0</ns3:atemp>
          </ns3:TrackPointExtension>
        </extensions>
      </trkpt>
      <trkpt lat="42.54783038981258869171142578125" lon="19.956498406827449798583984375">
        <ele>1271.800048828125</ele>
        <time>2026-06-17T08:25:58.000Z</time>
        <extensions>
          <ns3:TrackPointExtension>
            <ns3:atemp>25.0</ns3:atemp>
          </ns3:TrackPointExtension>
        </extensions>
      </trkpt>
      <trkpt lat="42.5478492490947246551513671875" lon="19.956484325230121612548828125">
        <ele>1272</ele>
        <time>2026-06-17T08:25:59.000Z</time>
        <extensions>
          <ns3:TrackPointExtension>
            <ns3:atemp>25.0</ns3:atemp>
          </ns3:TrackPointExtension>
        </extensions>
      </trkpt>
      <trkpt lat="42.5478693656623363494873046875" lon="19.956469237804412841796875">
        <ele>1272</ele>
        <time>2026-06-17T08:26:00.000Z</time>
        <extensions>
          <ns3:TrackPointExtension>
            <ns3:atemp>25.0</ns3:atemp>
          </ns3:TrackPointExtension>
        </extensions>
      </trkpt>
      <trkpt lat="42.54788638092577457427978515625" lon="19.95645607821643352508544921875">
        <ele>1272.4000244140625</ele>
        <time>2026-06-17T08:26:01.000Z</time>
        <extensions>
          <ns3:TrackPointExtension>
            <ns3:atemp>25.0</ns3:atemp>
          </ns3:TrackPointExtension>
        </extensions>
      </trkpt>
      <trkpt lat="42.5479015521705150604248046875" lon="19.95644803158938884735107421875">
        <ele>1272.5999755859375</ele>
        <time>2026-06-17T08:26:02.000Z</time>
        <extensions>
          <ns3:TrackPointExtension>
            <ns3:atemp>25.0</ns3:atemp>
          </ns3:TrackPointExtension>
        </extensions>
      </trkpt>
      <trkpt lat="42.54791772924363613128662109375" lon="19.95644266717135906219482421875">
        <ele>1272.800048828125</ele>
        <time>2026-06-17T08:26:03.000Z</time>
        <extensions>
          <ns3:TrackPointExtension>
            <ns3:atemp>25.0</ns3:atemp>
          </ns3:TrackPointExtension>
        </extensions>
      </trkpt>
      <trkpt lat="42.54793466068804264068603515625" lon="19.9564405716955661773681640625">
        <ele>1272.800048828125</ele>
        <time>2026-06-17T08:26:04.000Z</time>
        <extensions>
          <ns3:TrackPointExtension>
            <ns3:atemp>25.0</ns3:atemp>
          </ns3:TrackPointExtension>
        </extensions>
      </trkpt>
      <trkpt lat="42.54794555716216564178466796875" lon="19.956432022154331207275390625">
        <ele>1273</ele>
        <time>2026-06-17T08:26:05.000Z</time>
        <extensions>
          <ns3:TrackPointExtension>
            <ns3:atemp>25.0</ns3:atemp>
          </ns3:TrackPointExtension>
        </extensions>
      </trkpt>
      <trkpt lat="42.54795930348336696624755859375" lon="19.95642699301242828369140625">
        <ele>1273.4000244140625</ele>
        <time>2026-06-17T08:26:06.000Z</time>
        <extensions>
          <ns3:TrackPointExtension>
            <ns3:atemp>25.0</ns3:atemp>
          </ns3:TrackPointExtension>
        </extensions>
      </trkpt>
      <trkpt lat="42.547975815832614898681640625" lon="19.956420958042144775390625">
        <ele>1273.5999755859375</ele>
        <time>2026-06-17T08:26:07.000Z</time>
        <extensions>
          <ns3:TrackPointExtension>
            <ns3:atemp>25.0</ns3:atemp>
          </ns3:TrackPointExtension>
        </extensions>
      </trkpt>
      <trkpt lat="42.54799400456249713897705078125" lon="19.95641567744314670562744140625">
        <ele>1273.800048828125</ele>
        <time>2026-06-17T08:26:08.000Z</time>
        <extensions>
          <ns3:TrackPointExtension>
            <ns3:atemp>25.0</ns3:atemp>
          </ns3:TrackPointExtension>
        </extensions>
      </trkpt>
      <trkpt lat="42.5480118580162525177001953125" lon="19.95640955865383148193359375">
        <ele>1274</ele>
        <time>2026-06-17T08:26:09.000Z</time>
        <extensions>
          <ns3:TrackPointExtension>
            <ns3:atemp>25.0</ns3:atemp>
          </ns3:TrackPointExtension>
        </extensions>
      </trkpt>
      <trkpt lat="42.5480242632329463958740234375" lon="19.95640008710324764251708984375">
        <ele>1274.4000244140625</ele>
        <time>2026-06-17T08:26:10.000Z</time>
        <extensions>
          <ns3:TrackPointExtension>
            <ns3:atemp>25.0</ns3:atemp>
          </ns3:TrackPointExtension>
        </extensions>
      </trkpt>
      <trkpt lat="42.54803423769772052764892578125" lon="19.95639706961810588836669921875">
        <ele>1274.5999755859375</ele>
        <time>2026-06-17T08:26:11.000Z</time>
        <extensions>
          <ns3:TrackPointExtension>
            <ns3:atemp>25.0</ns3:atemp>
          </ns3:TrackPointExtension>
        </extensions>
      </trkpt>
      <trkpt lat="42.5480487383902072906494140625" lon="19.95638734661042690277099609375">
        <ele>1274.800048828125</ele>
        <time>2026-06-17T08:26:12.000Z</time>
        <extensions>
          <ns3:TrackPointExtension>
            <ns3:atemp>25.0</ns3:atemp>
          </ns3:TrackPointExtension>
        </extensions>
      </trkpt>
      <trkpt lat="42.54806508310139179229736328125" lon="19.95638080872595310211181640625">
        <ele>1275</ele>
        <time>2026-06-17T08:26:13.000Z</time>
        <extensions>
          <ns3:TrackPointExtension>
            <ns3:atemp>25.0</ns3:atemp>
          </ns3:TrackPointExtension>
        </extensions>
      </trkpt>
      <trkpt lat="42.54808251745998859405517578125" lon="19.95637678541243076324462890625">
        <ele>1275.199951171875</ele>
        <time>2026-06-17T08:26:14.000Z</time>
        <extensions>
          <ns3:TrackPointExtension>
            <ns3:atemp>25.0</ns3:atemp>
          </ns3:TrackPointExtension>
        </extensions>
      </trkpt>
      <trkpt lat="42.5480950064957141876220703125" lon="19.95637259446084499359130859375">
        <ele>1275.5999755859375</ele>
        <time>2026-06-17T08:26:15.000Z</time>
        <extensions>
          <ns3:TrackPointExtension>
            <ns3:atemp>25.0</ns3:atemp>
          </ns3:TrackPointExtension>
        </extensions>
      </trkpt>
      <trkpt lat="42.54811369813978672027587890625" lon="19.95635650120675563812255859375">
        <ele>1275.800048828125</ele>
        <time>2026-06-17T08:26:16.000Z</time>
        <extensions>
          <ns3:TrackPointExtension>
            <ns3:atemp>25.0</ns3:atemp>
          </ns3:TrackPointExtension>
        </extensions>
      </trkpt>
      <trkpt lat="42.548132054507732391357421875" lon="19.95634376071393489837646484375">
        <ele>1276</ele>
        <time>2026-06-17T08:26:17.000Z</time>
        <extensions>
          <ns3:TrackPointExtension>
            <ns3:atemp>25.0</ns3:atemp>
          </ns3:TrackPointExtension>
        </extensions>
      </trkpt>
      <trkpt lat="42.54814873449504375457763671875" lon="19.9563255719840526580810546875">
        <ele>1276.199951171875</ele>
        <time>2026-06-17T08:26:18.000Z</time>
        <extensions>
          <ns3:TrackPointExtension>
            <ns3:atemp>25.0</ns3:atemp>
          </ns3:TrackPointExtension>
        </extensions>
      </trkpt>
      <trkpt lat="42.5481714494526386260986328125" lon="19.956302605569362640380859375">
        <ele>1276.4000244140625</ele>
        <time>2026-06-17T08:26:19.000Z</time>
        <extensions>
          <ns3:TrackPointExtension>
            <ns3:atemp>25.0</ns3:atemp>
          </ns3:TrackPointExtension>
        </extensions>
      </trkpt>
      <trkpt lat="42.54818712361156940460205078125" lon="19.95628609322011470794677734375">
        <ele>1276.5999755859375</ele>
        <time>2026-06-17T08:26:20.000Z</time>
        <extensions>
          <ns3:TrackPointExtension>
            <ns3:atemp>25.0</ns3:atemp>
          </ns3:TrackPointExtension>
        </extensions>
      </trkpt>
      <trkpt lat="42.54820455797016620635986328125" lon="19.95626999996602535247802734375">
        <ele>1276.800048828125</ele>
        <time>2026-06-17T08:26:21.000Z</time>
        <extensions>
          <ns3:TrackPointExtension>
            <ns3:atemp>25.0</ns3:atemp>
          </ns3:TrackPointExtension>
        </extensions>
      </trkpt>
      <trkpt lat="42.54821679554879665374755859375" lon="19.9562595225870609283447265625">
        <ele>1277</ele>
        <time>2026-06-17T08:26:22.000Z</time>
        <extensions>
          <ns3:TrackPointExtension>
            <ns3:atemp>25.0</ns3:atemp>
          </ns3:TrackPointExtension>
        </extensions>
      </trkpt>
      <trkpt lat="42.5482287816703319549560546875" lon="19.9562451057136058807373046875">
        <ele>1277.199951171875</ele>
        <time>2026-06-17T08:26:23.000Z</time>
        <extensions>
          <ns3:TrackPointExtension>
            <ns3:atemp>25.0</ns3:atemp>
          </ns3:TrackPointExtension>
        </extensions>
      </trkpt>
      <trkpt lat="42.54823724739253520965576171875" lon="19.9562276713550090789794921875">
        <ele>1277.4000244140625</ele>
        <time>2026-06-17T08:26:24.000Z</time>
        <extensions>
          <ns3:TrackPointExtension>
            <ns3:atemp>25.0</ns3:atemp>
          </ns3:TrackPointExtension>
        </extensions>
      </trkpt>
      <trkpt lat="42.5482532568275928497314453125" lon="19.9562125839293003082275390625">
        <ele>1277.5999755859375</ele>
        <time>2026-06-17T08:26:25.000Z</time>
        <extensions>
          <ns3:TrackPointExtension>
            <ns3:atemp>25.0</ns3:atemp>
          </ns3:TrackPointExtension>
        </extensions>
      </trkpt>
      <trkpt lat="42.5482619740068912506103515625" lon="19.956201016902923583984375">
        <ele>1277.5999755859375</ele>
        <time>2026-06-17T08:26:26.000Z</time>
        <extensions>
          <ns3:TrackPointExtension>
            <ns3:atemp>25.0</ns3:atemp>
          </ns3:TrackPointExtension>
        </extensions>
      </trkpt>
      <trkpt lat="42.5482720322906970977783203125" lon="19.95617830194532871246337890625">
        <ele>1277.800048828125</ele>
        <time>2026-06-17T08:26:27.000Z</time>
        <extensions>
          <ns3:TrackPointExtension>
            <ns3:atemp>25.0</ns3:atemp>
          </ns3:TrackPointExtension>
        </extensions>
      </trkpt>
      <trkpt lat="42.54828116856515407562255859375" lon="19.95615969412028789520263671875">
        <ele>1278</ele>
        <time>2026-06-17T08:26:28.000Z</time>
        <extensions>
          <ns3:TrackPointExtension>
            <ns3:atemp>25.0</ns3:atemp>
          </ns3:TrackPointExtension>
        </extensions>
      </trkpt>
      <trkpt lat="42.54829273559153079986572265625" lon="19.95613907463848590850830078125">
        <ele>1278</ele>
        <time>2026-06-17T08:26:29.000Z</time>
        <extensions>
          <ns3:TrackPointExtension>
            <ns3:atemp>25.0</ns3:atemp>
          </ns3:TrackPointExtension>
        </extensions>
      </trkpt>
      <trkpt lat="42.54830128513276576995849609375" lon="19.95611988008022308349609375">
        <ele>1278.199951171875</ele>
        <time>2026-06-17T08:26:30.000Z</time>
        <extensions>
          <ns3:TrackPointExtension>
            <ns3:atemp>25.0</ns3:atemp>
          </ns3:TrackPointExtension>
        </extensions>
      </trkpt>
      <trkpt lat="42.54831218160688877105712890625" lon="19.95610403828322887420654296875">
        <ele>1278.4000244140625</ele>
        <time>2026-06-17T08:26:31.000Z</time>
        <extensions>
          <ns3:TrackPointExtension>
            <ns3:atemp>25.0</ns3:atemp>
          </ns3:TrackPointExtension>
        </extensions>
      </trkpt>
      <trkpt lat="42.54832274280488491058349609375" lon="19.95608157478272914886474609375">
        <ele>1278.5999755859375</ele>
        <time>2026-06-17T08:26:32.000Z</time>
        <extensions>
          <ns3:TrackPointExtension>
            <ns3:atemp>25.0</ns3:atemp>
          </ns3:TrackPointExtension>
        </extensions>
      </trkpt>
      <trkpt lat="42.5483317114412784576416015625" lon="19.9560586921870708465576171875">
        <ele>1278.800048828125</ele>
        <time>2026-06-17T08:26:33.000Z</time>
        <extensions>
          <ns3:TrackPointExtension>
            <ns3:atemp>25.0</ns3:atemp>
          </ns3:TrackPointExtension>
        </extensions>
      </trkpt>
      <trkpt lat="42.54833967424929141998291015625" lon="19.95603673160076141357421875">
        <ele>1278.800048828125</ele>
        <time>2026-06-17T08:26:34.000Z</time>
        <extensions>
          <ns3:TrackPointExtension>
            <ns3:atemp>25.0</ns3:atemp>
          </ns3:TrackPointExtension>
        </extensions>
      </trkpt>
      <trkpt lat="42.5483528338372707366943359375" lon="19.956022314727306365966796875">
        <ele>1279</ele>
        <time>2026-06-17T08:26:35.000Z</time>
        <extensions>
          <ns3:TrackPointExtension>
            <ns3:atemp>25.0</ns3:atemp>
          </ns3:TrackPointExtension>
        </extensions>
      </trkpt>
      <trkpt lat="42.54836146719753742218017578125" lon="19.955996833741664886474609375">
        <ele>1279</ele>
        <time>2026-06-17T08:26:36.000Z</time>
        <extensions>
          <ns3:TrackPointExtension>
            <ns3:atemp>25.0</ns3:atemp>
          </ns3:TrackPointExtension>
        </extensions>
      </trkpt>
      <trkpt lat="42.54836834035813808441162109375" lon="19.95597378350794315338134765625">
        <ele>1279.199951171875</ele>
        <time>2026-06-17T08:26:37.000Z</time>
        <extensions>
          <ns3:TrackPointExtension>
            <ns3:atemp>25.0</ns3:atemp>
          </ns3:TrackPointExtension>
        </extensions>
      </trkpt>
      <trkpt lat="42.54837085492908954620361328125" lon="19.95595266111195087432861328125">
        <ele>1279.4000244140625</ele>
        <time>2026-06-17T08:26:38.000Z</time>
        <extensions>
          <ns3:TrackPointExtension>
            <ns3:atemp>25.0</ns3:atemp>
          </ns3:TrackPointExtension>
        </extensions>
      </trkpt>
      <trkpt lat="42.5483711063861846923828125" lon="19.9559314548969268798828125">
        <ele>1279.4000244140625</ele>
        <time>2026-06-17T08:26:39.000Z</time>
        <extensions>
          <ns3:TrackPointExtension>
            <ns3:atemp>25.0</ns3:atemp>
          </ns3:TrackPointExtension>
        </extensions>
      </trkpt>
      <trkpt lat="42.5483726151287555694580078125" lon="19.9559073150157928466796875">
        <ele>1279.5999755859375</ele>
        <time>2026-06-17T08:26:40.000Z</time>
        <extensions>
          <ns3:TrackPointExtension>
            <ns3:atemp>25.0</ns3:atemp>
          </ns3:TrackPointExtension>
        </extensions>
      </trkpt>
      <trkpt lat="42.54837152548134326934814453125" lon="19.95588577352464199066162109375">
        <ele>1279.800048828125</ele>
        <time>2026-06-17T08:26:41.000Z</time>
        <extensions>
          <ns3:TrackPointExtension>
            <ns3:atemp>25.0</ns3:atemp>
          </ns3:TrackPointExtension>
        </extensions>
      </trkpt>
      <trkpt lat="42.54836934618651866912841796875" lon="19.9558615498244762420654296875">
        <ele>1279.800048828125</ele>
        <time>2026-06-17T08:26:42.000Z</time>
        <extensions>
          <ns3:TrackPointExtension>
            <ns3:atemp>25.0</ns3:atemp>
          </ns3:TrackPointExtension>
        </extensions>
      </trkpt>
      <trkpt lat="42.548362724483013153076171875" lon="19.955836571753025054931640625">
        <ele>1280</ele>
        <time>2026-06-17T08:26:43.000Z</time>
        <extensions>
          <ns3:TrackPointExtension>
            <ns3:atemp>25.0</ns3:atemp>
          </ns3:TrackPointExtension>
        </extensions>
      </trkpt>
      <trkpt lat="42.54834570921957492828369140625" lon="19.95582156814634799957275390625">
        <ele>1280.199951171875</ele>
        <time>2026-06-17T08:26:44.000Z</time>
        <extensions>
          <ns3:TrackPointExtension>
            <ns3:atemp>25.0</ns3:atemp>
          </ns3:TrackPointExtension>
        </extensions>
      </trkpt>
      <trkpt lat="42.54832861013710498809814453125" lon="19.95581603609025478363037109375">
        <ele>1280.199951171875</ele>
        <time>2026-06-17T08:26:45.000Z</time>
        <extensions>
          <ns3:TrackPointExtension>
            <ns3:atemp>25.0</ns3:atemp>
          </ns3:TrackPointExtension>
        </extensions>
      </trkpt>
      <trkpt lat="42.54831369034945964813232421875" lon="19.9558193050324916839599609375">
        <ele>1280.4000244140625</ele>
        <time>2026-06-17T08:26:46.000Z</time>
        <extensions>
          <ns3:TrackPointExtension>
            <ns3:atemp>25.0</ns3:atemp>
          </ns3:TrackPointExtension>
        </extensions>
      </trkpt>
      <trkpt lat="42.54829692654311656951904296875" lon="19.95582207106053829193115234375">
        <ele>1280.4000244140625</ele>
        <time>2026-06-17T08:26:47.000Z</time>
        <extensions>
          <ns3:TrackPointExtension>
            <ns3:atemp>25.0</ns3:atemp>
          </ns3:TrackPointExtension>
        </extensions>
      </trkpt>
      <trkpt lat="42.5482820905745029449462890625" lon="19.95583162643015384674072265625">
        <ele>1280.5999755859375</ele>
        <time>2026-06-17T08:26:48.000Z</time>
        <extensions>
          <ns3:TrackPointExtension>
            <ns3:atemp>25.0</ns3:atemp>
          </ns3:TrackPointExtension>
        </extensions>
      </trkpt>
      <trkpt lat="42.548271529376506805419921875" lon="19.95583833195269107818603515625">
        <ele>1280.5999755859375</ele>
        <time>2026-06-17T08:26:49.000Z</time>
        <extensions>
          <ns3:TrackPointExtension>
            <ns3:atemp>25.0</ns3:atemp>
          </ns3:TrackPointExtension>
        </extensions>
      </trkpt>
      <trkpt lat="42.54826038144528865814208984375" lon="19.955844618380069732666015625">
        <ele>1280.800048828125</ele>
        <time>2026-06-17T08:26:50.000Z</time>
        <extensions>
          <ns3:TrackPointExtension>
            <ns3:atemp>25.0</ns3:atemp>
          </ns3:TrackPointExtension>
        </extensions>
      </trkpt>
      <trkpt lat="42.5482465513050556182861328125" lon="19.9558598734438419342041015625">
        <ele>1281</ele>
        <time>2026-06-17T08:26:51.000Z</time>
        <extensions>
          <ns3:TrackPointExtension>
            <ns3:atemp>25.0</ns3:atemp>
          </ns3:TrackPointExtension>
        </extensions>
      </trkpt>
      <trkpt lat="42.54823691211640834808349609375" lon="19.95587688870728015899658203125">
        <ele>1281</ele>
        <time>2026-06-17T08:26:52.000Z</time>
        <extensions>
          <ns3:TrackPointExtension>
            <ns3:atemp>25.0</ns3:atemp>
          </ns3:TrackPointExtension>
        </extensions>
      </trkpt>
      <trkpt lat="42.54822970367968082427978515625" lon="19.9558925628662109375">
        <ele>1281.199951171875</ele>
        <time>2026-06-17T08:26:53.000Z</time>
        <extensions>
          <ns3:TrackPointExtension>
            <ns3:atemp>25.0</ns3:atemp>
          </ns3:TrackPointExtension>
        </extensions>
      </trkpt>
      <trkpt lat="42.5482217408716678619384765625" lon="19.95590488426387310028076171875">
        <ele>1281.4000244140625</ele>
        <time>2026-06-17T08:26:54.000Z</time>
        <extensions>
          <ns3:TrackPointExtension>
            <ns3:atemp>25.0</ns3:atemp>
          </ns3:TrackPointExtension>
        </extensions>
      </trkpt>
      <trkpt lat="42.54821109585464000701904296875" lon="19.9559222348034381866455078125">
        <ele>1281.4000244140625</ele>
        <time>2026-06-17T08:26:55.000Z</time>
        <extensions>
          <ns3:TrackPointExtension>
            <ns3:atemp>25.0</ns3:atemp>
          </ns3:TrackPointExtension>
        </extensions>
      </trkpt>
      <trkpt lat="42.54820254631340503692626953125" lon="19.95593589730560779571533203125">
        <ele>1281.5999755859375</ele>
        <time>2026-06-17T08:26:56.000Z</time>
        <extensions>
          <ns3:TrackPointExtension>
            <ns3:atemp>25.0</ns3:atemp>
          </ns3:TrackPointExtension>
        </extensions>
      </trkpt>
      <trkpt lat="42.5481887161731719970703125" lon="19.95595400221645832061767578125">
        <ele>1281.800048828125</ele>
        <time>2026-06-17T08:26:57.000Z</time>
        <extensions>
          <ns3:TrackPointExtension>
            <ns3:atemp>25.0</ns3:atemp>
          </ns3:TrackPointExtension>
        </extensions>
      </trkpt>
      <trkpt lat="42.54817052744328975677490234375" lon="19.95597026310861110687255859375">
        <ele>1282</ele>
        <time>2026-06-17T08:26:58.000Z</time>
        <extensions>
          <ns3:TrackPointExtension>
            <ns3:atemp>25.0</ns3:atemp>
          </ns3:TrackPointExtension>
        </extensions>
      </trkpt>
      <trkpt lat="42.54815326072275638580322265625" lon="19.95598769746720790863037109375">
        <ele>1282.199951171875</ele>
        <time>2026-06-17T08:26:59.000Z</time>
        <extensions>
          <ns3:TrackPointExtension>
            <ns3:atemp>25.0</ns3:atemp>
          </ns3:TrackPointExtension>
        </extensions>
      </trkpt>
      <trkpt lat="42.5481338985264301300048828125" lon="19.95600110851228237152099609375">
        <ele>1282.4000244140625</ele>
        <time>2026-06-17T08:27:00.000Z</time>
        <extensions>
          <ns3:TrackPointExtension>
            <ns3:atemp>25.0</ns3:atemp>
          </ns3:TrackPointExtension>
        </extensions>
      </trkpt>
      <trkpt lat="42.54811487160623073577880859375" lon="19.95601267553865909576416015625">
        <ele>1282.4000244140625</ele>
        <time>2026-06-17T08:27:01.000Z</time>
        <extensions>
          <ns3:TrackPointExtension>
            <ns3:atemp>25.0</ns3:atemp>
          </ns3:TrackPointExtension>
        </extensions>
      </trkpt>
      <trkpt lat="42.54809643141925334930419921875" lon="19.95602709241211414337158203125">
        <ele>1282.5999755859375</ele>
        <time>2026-06-17T08:27:02.000Z</time>
        <extensions>
          <ns3:TrackPointExtension>
            <ns3:atemp>25.0</ns3:atemp>
          </ns3:TrackPointExtension>
        </extensions>
      </trkpt>
      <trkpt lat="42.54807665012776851654052734375" lon="19.95604117400944232940673828125">
        <ele>1282.800048828125</ele>
        <time>2026-06-17T08:27:03.000Z</time>
        <extensions>
          <ns3:TrackPointExtension>
            <ns3:atemp>25.0</ns3:atemp>
          </ns3:TrackPointExtension>
        </extensions>
      </trkpt>
      <trkpt lat="42.54805971868336200714111328125" lon="19.9560494720935821533203125">
        <ele>1283.199951171875</ele>
        <time>2026-06-17T08:27:04.000Z</time>
        <extensions>
          <ns3:TrackPointExtension>
            <ns3:atemp>25.0</ns3:atemp>
          </ns3:TrackPointExtension>
        </extensions>
      </trkpt>
      <trkpt lat="42.54804588854312896728515625" lon="19.956053830683231353759765625">
        <ele>1283.4000244140625</ele>
        <time>2026-06-17T08:27:05.000Z</time>
        <extensions>
          <ns3:TrackPointExtension>
            <ns3:atemp>25.0</ns3:atemp>
          </ns3:TrackPointExtension>
        </extensions>
      </trkpt>
      <trkpt lat="42.54803155548870563507080078125" lon="19.95605123229324817657470703125">
        <ele>1283.5999755859375</ele>
        <time>2026-06-17T08:27:06.000Z</time>
        <extensions>
          <ns3:TrackPointExtension>
            <ns3:atemp>25.0</ns3:atemp>
          </ns3:TrackPointExtension>
        </extensions>
      </trkpt>
      <trkpt lat="42.54801571369171142578125" lon="19.95605492033064365386962890625">
        <ele>1283.800048828125</ele>
        <time>2026-06-17T08:27:07.000Z</time>
        <extensions>
          <ns3:TrackPointExtension>
            <ns3:atemp>25.0</ns3:atemp>
          </ns3:TrackPointExtension>
        </extensions>
      </trkpt>
      <trkpt lat="42.54799769259989261627197265625" lon="19.9560593627393245697021484375">
        <ele>1283.800048828125</ele>
        <time>2026-06-17T08:27:08.000Z</time>
        <extensions>
          <ns3:TrackPointExtension>
            <ns3:atemp>25.0</ns3:atemp>
          </ns3:TrackPointExtension>
        </extensions>
      </trkpt>
      <trkpt lat="42.54797925241291522979736328125" lon="19.95606564916670322418212890625">
        <ele>1284</ele>
        <time>2026-06-17T08:27:09.000Z</time>
        <extensions>
          <ns3:TrackPointExtension>
            <ns3:atemp>25.0</ns3:atemp>
          </ns3:TrackPointExtension>
        </extensions>
      </trkpt>
      <trkpt lat="42.54796349443495273590087890625" lon="19.95606900192797183990478515625">
        <ele>1284</ele>
        <time>2026-06-17T08:27:10.000Z</time>
        <extensions>
          <ns3:TrackPointExtension>
            <ns3:atemp>25.0</ns3:atemp>
          </ns3:TrackPointExtension>
        </extensions>
      </trkpt>
      <trkpt lat="42.5479407794773578643798828125" lon="19.9560774676501750946044921875">
        <ele>1284</ele>
        <time>2026-06-17T08:27:11.000Z</time>
        <extensions>
          <ns3:TrackPointExtension>
            <ns3:atemp>25.0</ns3:atemp>
          </ns3:TrackPointExtension>
        </extensions>
      </trkpt>
      <trkpt lat="42.5479216687381267547607421875" lon="19.956077970564365386962890625">
        <ele>1284.199951171875</ele>
        <time>2026-06-17T08:27:12.000Z</time>
        <extensions>
          <ns3:TrackPointExtension>
            <ns3:atemp>25.0</ns3:atemp>
          </ns3:TrackPointExtension>
        </extensions>
      </trkpt>
      <trkpt lat="42.54790775477886199951171875" lon="19.9560762941837310791015625">
        <ele>1284.199951171875</ele>
        <time>2026-06-17T08:27:13.000Z</time>
        <extensions>
          <ns3:TrackPointExtension>
            <ns3:atemp>25.0</ns3:atemp>
          </ns3:TrackPointExtension>
        </extensions>
      </trkpt>
      <trkpt lat="42.5478908233344554901123046875" lon="19.95607755146920680999755859375">
        <ele>1284.4000244140625</ele>
        <time>2026-06-17T08:27:14.000Z</time>
        <extensions>
          <ns3:TrackPointExtension>
            <ns3:atemp>24.0</ns3:atemp>
          </ns3:TrackPointExtension>
        </extensions>
      </trkpt>
      <trkpt lat="42.5478730536997318267822265625" lon="19.95608191005885601043701171875">
        <ele>1284.800048828125</ele>
        <time>2026-06-17T08:27:15.000Z</time>
        <extensions>
          <ns3:TrackPointExtension>
            <ns3:atemp>24.0</ns3:atemp>
          </ns3:TrackPointExtension>
        </extensions>
      </trkpt>
      <trkpt lat="42.54785687662661075592041015625" lon="19.95608559809625148773193359375">
        <ele>1285</ele>
        <time>2026-06-17T08:27:16.000Z</time>
        <extensions>
          <ns3:TrackPointExtension>
            <ns3:atemp>24.0</ns3:atemp>
          </ns3:TrackPointExtension>
        </extensions>
      </trkpt>
      <trkpt lat="42.5478427112102508544921875" lon="19.9560868553817272186279296875">
        <ele>1285.199951171875</ele>
        <time>2026-06-17T08:27:17.000Z</time>
        <extensions>
          <ns3:TrackPointExtension>
            <ns3:atemp>24.0</ns3:atemp>
          </ns3:TrackPointExtension>
        </extensions>
      </trkpt>
      <trkpt lat="42.54782720468938350677490234375" lon="19.95608425699174404144287109375">
        <ele>1285.5999755859375</ele>
        <time>2026-06-17T08:27:18.000Z</time>
        <extensions>
          <ns3:TrackPointExtension>
            <ns3:atemp>24.0</ns3:atemp>
          </ns3:TrackPointExtension>
        </extensions>
      </trkpt>
      <trkpt lat="42.54781044088304042816162109375" lon="19.956083334982395172119140625">
        <ele>1285.800048828125</ele>
        <time>2026-06-17T08:27:19.000Z</time>
        <extensions>
          <ns3:TrackPointExtension>
            <ns3:atemp>24.0</ns3:atemp>
          </ns3:TrackPointExtension>
        </extensions>
      </trkpt>
      <trkpt lat="42.54779434762895107269287109375" lon="19.9560851790010929107666015625">
        <ele>1286</ele>
        <time>2026-06-17T08:27:20.000Z</time>
        <extensions>
          <ns3:TrackPointExtension>
            <ns3:atemp>24.0</ns3:atemp>
          </ns3:TrackPointExtension>
        </extensions>
      </trkpt>
      <trkpt lat="42.54777724854648113250732421875" lon="19.9560771323740482330322265625">
        <ele>1286.199951171875</ele>
        <time>2026-06-17T08:27:21.000Z</time>
        <extensions>
          <ns3:TrackPointExtension>
            <ns3:atemp>24.0</ns3:atemp>
          </ns3:TrackPointExtension>
        </extensions>
      </trkpt>
      <trkpt lat="42.54776115529239177703857421875" lon="19.95606749318540096282958984375">
        <ele>1286.4000244140625</ele>
        <time>2026-06-17T08:27:22.000Z</time>
        <extensions>
          <ns3:TrackPointExtension>
            <ns3:atemp>24.0</ns3:atemp>
          </ns3:TrackPointExtension>
        </extensions>
      </trkpt>
      <trkpt lat="42.54774439148604869842529296875" lon="19.95606363750994205474853515625">
        <ele>1286.4000244140625</ele>
        <time>2026-06-17T08:27:23.000Z</time>
        <extensions>
          <ns3:TrackPointExtension>
            <ns3:atemp>24.0</ns3:atemp>
          </ns3:TrackPointExtension>
        </extensions>
      </trkpt>
      <trkpt lat="42.5477265380322933197021484375" lon="19.956059195101261138916015625">
        <ele>1286.4000244140625</ele>
        <time>2026-06-17T08:27:24.000Z</time>
        <extensions>
          <ns3:TrackPointExtension>
            <ns3:atemp>24.0</ns3:atemp>
          </ns3:TrackPointExtension>
        </extensions>
      </trkpt>
      <trkpt lat="42.54770583473145961761474609375" lon="19.9560516513884067535400390625">
        <ele>1286.5999755859375</ele>
        <time>2026-06-17T08:27:25.000Z</time>
        <extensions>
          <ns3:TrackPointExtension>
            <ns3:atemp>24.0</ns3:atemp>
          </ns3:TrackPointExtension>
        </extensions>
      </trkpt>
      <trkpt lat="42.54768705926835536956787109375" lon="19.95604787953197956085205078125">
        <ele>1286.800048828125</ele>
        <time>2026-06-17T08:27:26.000Z</time>
        <extensions>
          <ns3:TrackPointExtension>
            <ns3:atemp>24.0</ns3:atemp>
          </ns3:TrackPointExtension>
        </extensions>
      </trkpt>
      <trkpt lat="42.54767146892845630645751953125" lon="19.9560425989329814910888671875">
        <ele>1287</ele>
        <time>2026-06-17T08:27:27.000Z</time>
        <extensions>
          <ns3:TrackPointExtension>
            <ns3:atemp>24.0</ns3:atemp>
          </ns3:TrackPointExtension>
        </extensions>
      </trkpt>
      <trkpt lat="42.547655291855335235595703125" lon="19.95603966526687145233154296875">
        <ele>1287.199951171875</ele>
        <time>2026-06-17T08:27:28.000Z</time>
        <extensions>
          <ns3:TrackPointExtension>
            <ns3:atemp>24.0</ns3:atemp>
          </ns3:TrackPointExtension>
        </extensions>
      </trkpt>
      <trkpt lat="42.54763559438288211822509765625" lon="19.9560432694852352142333984375">
        <ele>1287.4000244140625</ele>
        <time>2026-06-17T08:27:29.000Z</time>
        <extensions>
          <ns3:TrackPointExtension>
            <ns3:atemp>24.0</ns3:atemp>
          </ns3:TrackPointExtension>
        </extensions>
      </trkpt>
      <trkpt lat="42.547612376511096954345703125" lon="19.95604335330426692962646484375">
        <ele>1287.5999755859375</ele>
        <time>2026-06-17T08:27:30.000Z</time>
        <extensions>
          <ns3:TrackPointExtension>
            <ns3:atemp>24.0</ns3:atemp>
          </ns3:TrackPointExtension>
        </extensions>
      </trkpt>
      <trkpt lat="42.54758899100124835968017578125" lon="19.9560429342091083526611328125">
        <ele>1287.800048828125</ele>
        <time>2026-06-17T08:27:31.000Z</time>
        <extensions>
          <ns3:TrackPointExtension>
            <ns3:atemp>24.0</ns3:atemp>
          </ns3:TrackPointExtension>
        </extensions>
      </trkpt>
      <trkpt lat="42.5475706346333026885986328125" lon="19.9560466222465038299560546875">
        <ele>1287.800048828125</ele>
        <time>2026-06-17T08:27:32.000Z</time>
        <extensions>
          <ns3:TrackPointExtension>
            <ns3:atemp>24.0</ns3:atemp>
          </ns3:TrackPointExtension>
        </extensions>
      </trkpt>
      <trkpt lat="42.54755211062729358673095703125" lon="19.9560494720935821533203125">
        <ele>1288</ele>
        <time>2026-06-17T08:27:33.000Z</time>
        <extensions>
          <ns3:TrackPointExtension>
            <ns3:atemp>24.0</ns3:atemp>
          </ns3:TrackPointExtension>
        </extensions>
      </trkpt>
      <trkpt lat="42.5475371070206165313720703125" lon="19.9560543335974216461181640625">
        <ele>1288.199951171875</ele>
        <time>2026-06-17T08:27:34.000Z</time>
        <extensions>
          <ns3:TrackPointExtension>
            <ns3:atemp>24.0</ns3:atemp>
          </ns3:TrackPointExtension>
        </extensions>
      </trkpt>
      <trkpt lat="42.5475230254232883453369140625" lon="19.95605709962546825408935546875">
        <ele>1288.5999755859375</ele>
        <time>2026-06-17T08:27:35.000Z</time>
        <extensions>
          <ns3:TrackPointExtension>
            <ns3:atemp>24.0</ns3:atemp>
          </ns3:TrackPointExtension>
        </extensions>
      </trkpt>
      <trkpt lat="42.54750366322696208953857421875" lon="19.9560633860528469085693359375">
        <ele>1288.800048828125</ele>
        <time>2026-06-17T08:27:36.000Z</time>
        <extensions>
          <ns3:TrackPointExtension>
            <ns3:atemp>24.0</ns3:atemp>
          </ns3:TrackPointExtension>
        </extensions>
      </trkpt>
      <trkpt lat="42.54748119972646236419677734375" lon="19.9560657329857349395751953125">
        <ele>1288.800048828125</ele>
        <time>2026-06-17T08:27:37.000Z</time>
        <extensions>
          <ns3:TrackPointExtension>
            <ns3:atemp>24.0</ns3:atemp>
          </ns3:TrackPointExtension>
        </extensions>
      </trkpt>
      <trkpt lat="42.54745689220726490020751953125" lon="19.95607034303247928619384765625">
        <ele>1288.800048828125</ele>
        <time>2026-06-17T08:27:38.000Z</time>
        <extensions>
          <ns3:TrackPointExtension>
            <ns3:atemp>24.0</ns3:atemp>
          </ns3:TrackPointExtension>
        </extensions>
      </trkpt>
      <trkpt lat="42.54743702709674835205078125" lon="19.956074617803096771240234375">
        <ele>1288.800048828125</ele>
        <time>2026-06-17T08:27:39.000Z</time>
        <extensions>
          <ns3:TrackPointExtension>
            <ns3:atemp>25.0</ns3:atemp>
          </ns3:TrackPointExtension>
        </extensions>
      </trkpt>
      <trkpt lat="42.5474184192717075347900390625" lon="19.95607621036469936370849609375">
        <ele>1288.800048828125</ele>
        <time>2026-06-17T08:27:40.000Z</time>
        <extensions>
          <ns3:TrackPointExtension>
            <ns3:atemp>24.0</ns3:atemp>
          </ns3:TrackPointExtension>
        </extensions>
      </trkpt>
      <trkpt lat="42.547396123409271240234375" lon="19.95607704855501651763916015625">
        <ele>1289</ele>
        <time>2026-06-17T08:27:41.000Z</time>
        <extensions>
          <ns3:TrackPointExtension>
            <ns3:atemp>24.0</ns3:atemp>
          </ns3:TrackPointExtension>
        </extensions>
      </trkpt>
      <trkpt lat="42.54737265408039093017578125" lon="19.95608107186853885650634765625">
        <ele>1289.199951171875</ele>
        <time>2026-06-17T08:27:42.000Z</time>
        <extensions>
          <ns3:TrackPointExtension>
            <ns3:atemp>24.0</ns3:atemp>
          </ns3:TrackPointExtension>
        </extensions>
      </trkpt>
      <trkpt lat="42.547345496714115142822265625" lon="19.95608978904783725738525390625">
        <ele>1289.199951171875</ele>
        <time>2026-06-17T08:27:43.000Z</time>
        <extensions>
          <ns3:TrackPointExtension>
            <ns3:atemp>24.0</ns3:atemp>
          </ns3:TrackPointExtension>
        </extensions>
      </trkpt>
      <trkpt lat="42.54731792025268077850341796875" lon="19.9561046250164508819580078125">
        <ele>1289.199951171875</ele>
        <time>2026-06-17T08:27:44.000Z</time>
        <extensions>
          <ns3:TrackPointExtension>
            <ns3:atemp>24.0</ns3:atemp>
          </ns3:TrackPointExtension>
        </extensions>
      </trkpt>
      <trkpt lat="42.54729126580059528350830078125" lon="19.95612147264182567596435546875">
        <ele>1289</ele>
        <time>2026-06-17T08:27:45.000Z</time>
        <extensions>
          <ns3:TrackPointExtension>
            <ns3:atemp>24.0</ns3:atemp>
          </ns3:TrackPointExtension>
        </extensions>
      </trkpt>
      <trkpt lat="42.5472700595855712890625" lon="19.95614326559007167816162109375">
        <ele>1289</ele>
        <time>2026-06-17T08:27:46.000Z</time>
        <extensions>
          <ns3:TrackPointExtension>
            <ns3:atemp>24.0</ns3:atemp>
          </ns3:TrackPointExtension>
        </extensions>
      </trkpt>
      <trkpt lat="42.5472507812082767486572265625" lon="19.9561649747192859649658203125">
        <ele>1288.800048828125</ele>
        <time>2026-06-17T08:27:47.000Z</time>
        <extensions>
          <ns3:TrackPointExtension>
            <ns3:atemp>24.0</ns3:atemp>
          </ns3:TrackPointExtension>
        </extensions>
      </trkpt>
      <trkpt lat="42.54723393358290195465087890625" lon="19.956184588372707366943359375">
        <ele>1288.800048828125</ele>
        <time>2026-06-17T08:27:48.000Z</time>
        <extensions>
          <ns3:TrackPointExtension>
            <ns3:atemp>24.0</ns3:atemp>
          </ns3:TrackPointExtension>
        </extensions>
      </trkpt>
      <trkpt lat="42.54721851088106632232666015625" lon="19.956207387149333953857421875">
        <ele>1288.800048828125</ele>
        <time>2026-06-17T08:27:49.000Z</time>
        <extensions>
          <ns3:TrackPointExtension>
            <ns3:atemp>24.0</ns3:atemp>
          </ns3:TrackPointExtension>
        </extensions>
      </trkpt>
      <trkpt lat="42.547203339636325836181640625" lon="19.956228844821453094482421875">
        <ele>1289</ele>
        <time>2026-06-17T08:27:50.000Z</time>
        <extensions>
          <ns3:TrackPointExtension>
            <ns3:atemp>24.0</ns3:atemp>
          </ns3:TrackPointExtension>
        </extensions>
      </trkpt>
      <trkpt lat="42.54719051532447338104248046875" lon="19.95624586008489131927490234375">
        <ele>1289</ele>
        <time>2026-06-17T08:27:51.000Z</time>
        <extensions>
          <ns3:TrackPointExtension>
            <ns3:atemp>24.0</ns3:atemp>
          </ns3:TrackPointExtension>
        </extensions>
      </trkpt>
      <trkpt lat="42.54717894829809665679931640625" lon="19.95626270771026611328125">
        <ele>1289</ele>
        <time>2026-06-17T08:27:52.000Z</time>
        <extensions>
          <ns3:TrackPointExtension>
            <ns3:atemp>24.0</ns3:atemp>
          </ns3:TrackPointExtension>
        </extensions>
      </trkpt>
      <trkpt lat="42.54716905765235424041748046875" lon="19.95628056116402149200439453125">
        <ele>1289.199951171875</ele>
        <time>2026-06-17T08:27:53.000Z</time>
        <extensions>
          <ns3:TrackPointExtension>
            <ns3:atemp>24.0</ns3:atemp>
          </ns3:TrackPointExtension>
        </extensions>
      </trkpt>
      <trkpt lat="42.5471558980643749237060546875" lon="19.95629665441811084747314453125">
        <ele>1289.4000244140625</ele>
        <time>2026-06-17T08:27:54.000Z</time>
        <extensions>
          <ns3:TrackPointExtension>
            <ns3:atemp>24.0</ns3:atemp>
          </ns3:TrackPointExtension>
        </extensions>
      </trkpt>
      <trkpt lat="42.54714441485702991485595703125" lon="19.95631040073931217193603515625">
        <ele>1289.5999755859375</ele>
        <time>2026-06-17T08:27:55.000Z</time>
        <extensions>
          <ns3:TrackPointExtension>
            <ns3:atemp>24.0</ns3:atemp>
          </ns3:TrackPointExtension>
        </extensions>
      </trkpt>
      <trkpt lat="42.547128237783908843994140625" lon="19.95632733218371868133544921875">
        <ele>1289.800048828125</ele>
        <time>2026-06-17T08:27:56.000Z</time>
        <extensions>
          <ns3:TrackPointExtension>
            <ns3:atemp>24.0</ns3:atemp>
          </ns3:TrackPointExtension>
        </extensions>
      </trkpt>
      <trkpt lat="42.54711122252047061920166015625" lon="19.9563445150852203369140625">
        <ele>1290</ele>
        <time>2026-06-17T08:27:57.000Z</time>
        <extensions>
          <ns3:TrackPointExtension>
            <ns3:atemp>24.0</ns3:atemp>
          </ns3:TrackPointExtension>
        </extensions>
      </trkpt>
      <trkpt lat="42.54709638655185699462890625" lon="19.9563574232161045074462890625">
        <ele>1290</ele>
        <time>2026-06-17T08:27:58.000Z</time>
        <extensions>
          <ns3:TrackPointExtension>
            <ns3:atemp>24.0</ns3:atemp>
          </ns3:TrackPointExtension>
        </extensions>
      </trkpt>
      <trkpt lat="42.54708171822130680084228515625" lon="19.95636907406151294708251953125">
        <ele>1290.199951171875</ele>
        <time>2026-06-17T08:27:59.000Z</time>
        <extensions>
          <ns3:TrackPointExtension>
            <ns3:atemp>24.0</ns3:atemp>
          </ns3:TrackPointExtension>
        </extensions>
      </trkpt>
      <trkpt lat="42.54706663079559803009033203125" lon="19.95638013817369937896728515625">
        <ele>1290.199951171875</ele>
        <time>2026-06-17T08:28:00.000Z</time>
        <extensions>
          <ns3:TrackPointExtension>
            <ns3:atemp>24.0</ns3:atemp>
          </ns3:TrackPointExtension>
        </extensions>
      </trkpt>
      <trkpt lat="42.5470533035695552825927734375" lon="19.956390447914600372314453125">
        <ele>1290.4000244140625</ele>
        <time>2026-06-17T08:28:01.000Z</time>
        <extensions>
          <ns3:TrackPointExtension>
            <ns3:atemp>24.0</ns3:atemp>
          </ns3:TrackPointExtension>
        </extensions>
      </trkpt>
      <trkpt lat="42.54703746177256107330322265625" lon="19.95639522559940814971923828125">
        <ele>1290.4000244140625</ele>
        <time>2026-06-17T08:28:02.000Z</time>
        <extensions>
          <ns3:TrackPointExtension>
            <ns3:atemp>24.0</ns3:atemp>
          </ns3:TrackPointExtension>
        </extensions>
      </trkpt>
      <trkpt lat="42.5470197759568691253662109375" lon="19.956400506198406219482421875">
        <ele>1290.5999755859375</ele>
        <time>2026-06-17T08:28:03.000Z</time>
        <extensions>
          <ns3:TrackPointExtension>
            <ns3:atemp>24.0</ns3:atemp>
          </ns3:TrackPointExtension>
        </extensions>
      </trkpt>
      <trkpt lat="42.547000832855701446533203125" lon="19.956404864788055419921875">
        <ele>1290.5999755859375</ele>
        <time>2026-06-17T08:28:04.000Z</time>
        <extensions>
          <ns3:TrackPointExtension>
            <ns3:atemp>24.0</ns3:atemp>
          </ns3:TrackPointExtension>
        </extensions>
      </trkpt>
      <trkpt lat="42.54698364995419979095458984375" lon="19.9564060382544994354248046875">
        <ele>1290.800048828125</ele>
        <time>2026-06-17T08:28:05.000Z</time>
        <extensions>
          <ns3:TrackPointExtension>
            <ns3:atemp>24.0</ns3:atemp>
          </ns3:TrackPointExtension>
        </extensions>
      </trkpt>
      <trkpt lat="42.54696621559560298919677734375" lon="19.956410564482212066650390625">
        <ele>1290.800048828125</ele>
        <time>2026-06-17T08:28:06.000Z</time>
        <extensions>
          <ns3:TrackPointExtension>
            <ns3:atemp>24.0</ns3:atemp>
          </ns3:TrackPointExtension>
        </extensions>
      </trkpt>
      <trkpt lat="42.546949200332164764404296875" lon="19.95641198940575122833251953125">
        <ele>1291</ele>
        <time>2026-06-17T08:28:07.000Z</time>
        <extensions>
          <ns3:TrackPointExtension>
            <ns3:atemp>24.0</ns3:atemp>
          </ns3:TrackPointExtension>
        </extensions>
      </trkpt>
      <trkpt lat="42.5469305925071239471435546875" lon="19.9564160965383052825927734375">
        <ele>1291</ele>
        <time>2026-06-17T08:28:08.000Z</time>
        <extensions>
          <ns3:TrackPointExtension>
            <ns3:atemp>24.0</ns3:atemp>
          </ns3:TrackPointExtension>
        </extensions>
      </trkpt>
      <trkpt lat="42.54691190086305141448974609375" lon="19.956421293318271636962890625">
        <ele>1291.199951171875</ele>
        <time>2026-06-17T08:28:09.000Z</time>
        <extensions>
          <ns3:TrackPointExtension>
            <ns3:atemp>24.0</ns3:atemp>
          </ns3:TrackPointExtension>
        </extensions>
      </trkpt>
      <trkpt lat="42.5468940474092960357666015625" lon="19.9564249813556671142578125">
        <ele>1291.199951171875</ele>
        <time>2026-06-17T08:28:10.000Z</time>
        <extensions>
          <ns3:TrackPointExtension>
            <ns3:atemp>24.0</ns3:atemp>
          </ns3:TrackPointExtension>
        </extensions>
      </trkpt>
      <trkpt lat="42.5468786247074604034423828125" lon="19.95642892085015773773193359375">
        <ele>1291.4000244140625</ele>
        <time>2026-06-17T08:28:11.000Z</time>
        <extensions>
          <ns3:TrackPointExtension>
            <ns3:atemp>24.0</ns3:atemp>
          </ns3:TrackPointExtension>
        </extensions>
      </trkpt>
      <trkpt lat="42.54685959778726100921630859375" lon="19.95643193833529949188232421875">
        <ele>1291.4000244140625</ele>
        <time>2026-06-17T08:28:12.000Z</time>
        <extensions>
          <ns3:TrackPointExtension>
            <ns3:atemp>24.0</ns3:atemp>
          </ns3:TrackPointExtension>
        </extensions>
      </trkpt>
      <trkpt lat="42.54683763720095157623291015625" lon="19.9564362131059169769287109375">
        <ele>1291.5999755859375</ele>
        <time>2026-06-17T08:28:13.000Z</time>
        <extensions>
          <ns3:TrackPointExtension>
            <ns3:atemp>24.0</ns3:atemp>
          </ns3:TrackPointExtension>
        </extensions>
      </trkpt>
      <trkpt lat="42.5468182750046253204345703125" lon="19.95643998496234416961669921875">
        <ele>1291.800048828125</ele>
        <time>2026-06-17T08:28:14.000Z</time>
        <extensions>
          <ns3:TrackPointExtension>
            <ns3:atemp>24.0</ns3:atemp>
          </ns3:TrackPointExtension>
        </extensions>
      </trkpt>
      <trkpt lat="42.54680109210312366485595703125" lon="19.95644048787653446197509765625">
        <ele>1291.800048828125</ele>
        <time>2026-06-17T08:28:15.000Z</time>
        <extensions>
          <ns3:TrackPointExtension>
            <ns3:atemp>24.0</ns3:atemp>
          </ns3:TrackPointExtension>
        </extensions>
      </trkpt>
      <trkpt lat="42.54678449593484401702880859375" lon="19.95643998496234416961669921875">
        <ele>1292</ele>
        <time>2026-06-17T08:28:16.000Z</time>
        <extensions>
          <ns3:TrackPointExtension>
            <ns3:atemp>24.0</ns3:atemp>
          </ns3:TrackPointExtension>
        </extensions>
      </trkpt>
      <trkpt lat="42.54676789976656436920166015625" lon="19.95644308626651763916015625">
        <ele>1292</ele>
        <time>2026-06-17T08:28:17.000Z</time>
        <extensions>
          <ns3:TrackPointExtension>
            <ns3:atemp>24.0</ns3:atemp>
          </ns3:TrackPointExtension>
        </extensions>
      </trkpt>
      <trkpt lat="42.54674769937992095947265625" lon="19.956444092094898223876953125">
        <ele>1292.199951171875</ele>
        <time>2026-06-17T08:28:18.000Z</time>
        <extensions>
          <ns3:TrackPointExtension>
            <ns3:atemp>24.0</ns3:atemp>
          </ns3:TrackPointExtension>
        </extensions>
      </trkpt>
      <trkpt lat="42.5467297621071338653564453125" lon="19.9564466066658496856689453125">
        <ele>1292.4000244140625</ele>
        <time>2026-06-17T08:28:19.000Z</time>
        <extensions>
          <ns3:TrackPointExtension>
            <ns3:atemp>24.0</ns3:atemp>
          </ns3:TrackPointExtension>
        </extensions>
      </trkpt>
      <trkpt lat="42.5467099808156490325927734375" lon="19.95645456947386264801025390625">
        <ele>1292.4000244140625</ele>
        <time>2026-06-17T08:28:20.000Z</time>
        <extensions>
          <ns3:TrackPointExtension>
            <ns3:atemp>24.0</ns3:atemp>
          </ns3:TrackPointExtension>
        </extensions>
      </trkpt>
      <trkpt lat="42.54668877460062503814697265625" lon="19.95645691640675067901611328125">
        <ele>1292.4000244140625</ele>
        <time>2026-06-17T08:28:21.000Z</time>
        <extensions>
          <ns3:TrackPointExtension>
            <ns3:atemp>24.0</ns3:atemp>
          </ns3:TrackPointExtension>
        </extensions>
      </trkpt>
      <trkpt lat="42.54666949622333049774169921875" lon="19.956457503139972686767578125">
        <ele>1292.5999755859375</ele>
        <time>2026-06-17T08:28:22.000Z</time>
        <extensions>
          <ns3:TrackPointExtension>
            <ns3:atemp>24.0</ns3:atemp>
          </ns3:TrackPointExtension>
        </extensions>
      </trkpt>
      <trkpt lat="42.5466499663889408111572265625" lon="19.95646546594798564910888671875">
        <ele>1292.5999755859375</ele>
        <time>2026-06-17T08:28:23.000Z</time>
        <extensions>
          <ns3:TrackPointExtension>
            <ns3:atemp>24.0</ns3:atemp>
          </ns3:TrackPointExtension>
        </extensions>
      </trkpt>
      <trkpt lat="42.5466301850974559783935546875" lon="19.956470914185047149658203125">
        <ele>1292.800048828125</ele>
        <time>2026-06-17T08:28:24.000Z</time>
        <extensions>
          <ns3:TrackPointExtension>
            <ns3:atemp>24.0</ns3:atemp>
          </ns3:TrackPointExtension>
        </extensions>
      </trkpt>
      <trkpt lat="42.54661048762500286102294921875" lon="19.9564744345843791961669921875">
        <ele>1293</ele>
        <time>2026-06-17T08:28:25.000Z</time>
        <extensions>
          <ns3:TrackPointExtension>
            <ns3:atemp>24.0</ns3:atemp>
          </ns3:TrackPointExtension>
        </extensions>
      </trkpt>
      <trkpt lat="42.5465936399996280670166015625" lon="19.95648256503045558929443359375">
        <ele>1293</ele>
        <time>2026-06-17T08:28:26.000Z</time>
        <extensions>
          <ns3:TrackPointExtension>
            <ns3:atemp>24.0</ns3:atemp>
          </ns3:TrackPointExtension>
        </extensions>
      </trkpt>
      <trkpt lat="42.54657327197492122650146484375" lon="19.9564885161817073822021484375">
        <ele>1293.199951171875</ele>
        <time>2026-06-17T08:28:27.000Z</time>
        <extensions>
          <ns3:TrackPointExtension>
            <ns3:atemp>24.0</ns3:atemp>
          </ns3:TrackPointExtension>
        </extensions>
      </trkpt>
      <trkpt lat="42.546553909778594970703125" lon="19.9564915336668491363525390625">
        <ele>1293.4000244140625</ele>
        <time>2026-06-17T08:28:28.000Z</time>
        <extensions>
          <ns3:TrackPointExtension>
            <ns3:atemp>24.0</ns3:atemp>
          </ns3:TrackPointExtension>
        </extensions>
      </trkpt>
      <trkpt lat="42.54653505049645900726318359375" lon="19.956498406827449798583984375">
        <ele>1293.5999755859375</ele>
        <time>2026-06-17T08:28:29.000Z</time>
        <extensions>
          <ns3:TrackPointExtension>
            <ns3:atemp>24.0</ns3:atemp>
          </ns3:TrackPointExtension>
        </extensions>
      </trkpt>
      <trkpt lat="42.5465145148336887359619140625" lon="19.95650402270257472991943359375">
        <ele>1293.800048828125</ele>
        <time>2026-06-17T08:28:30.000Z</time>
        <extensions>
          <ns3:TrackPointExtension>
            <ns3:atemp>24.0</ns3:atemp>
          </ns3:TrackPointExtension>
        </extensions>
      </trkpt>
      <trkpt lat="42.5464960746467113494873046875" lon="19.95650921948254108428955078125">
        <ele>1293.800048828125</ele>
        <time>2026-06-17T08:28:31.000Z</time>
        <extensions>
          <ns3:TrackPointExtension>
            <ns3:atemp>24.0</ns3:atemp>
          </ns3:TrackPointExtension>
        </extensions>
      </trkpt>
      <trkpt lat="42.5464759580790996551513671875" lon="19.9565150029957294464111328125">
        <ele>1294</ele>
        <time>2026-06-17T08:28:32.000Z</time>
        <extensions>
          <ns3:TrackPointExtension>
            <ns3:atemp>24.0</ns3:atemp>
          </ns3:TrackPointExtension>
        </extensions>
      </trkpt>
      <trkpt lat="42.54646078683435916900634765625" lon="19.95652011595666408538818359375">
        <ele>1294</ele>
        <time>2026-06-17T08:28:33.000Z</time>
        <extensions>
          <ns3:TrackPointExtension>
            <ns3:atemp>24.0</ns3:atemp>
          </ns3:TrackPointExtension>
        </extensions>
      </trkpt>
      <trkpt lat="42.546441592276096343994140625" lon="19.9565280787646770477294921875">
        <ele>1294.199951171875</ele>
        <time>2026-06-17T08:28:34.000Z</time>
        <extensions>
          <ns3:TrackPointExtension>
            <ns3:atemp>24.0</ns3:atemp>
          </ns3:TrackPointExtension>
        </extensions>
      </trkpt>
      <trkpt lat="42.54642206244170665740966796875" lon="19.956531263887882232666015625">
        <ele>1294.4000244140625</ele>
        <time>2026-06-17T08:28:35.000Z</time>
        <extensions>
          <ns3:TrackPointExtension>
            <ns3:atemp>24.0</ns3:atemp>
          </ns3:TrackPointExtension>
        </extensions>
      </trkpt>
      <trkpt lat="42.546403370797634124755859375" lon="19.9565374664962291717529296875">
        <ele>1294.5999755859375</ele>
        <time>2026-06-17T08:28:36.000Z</time>
        <extensions>
          <ns3:TrackPointExtension>
            <ns3:atemp>24.0</ns3:atemp>
          </ns3:TrackPointExtension>
        </extensions>
      </trkpt>
      <trkpt lat="42.5463881157338619232177734375" lon="19.9565421603620052337646484375">
        <ele>1294.800048828125</ele>
        <time>2026-06-17T08:28:37.000Z</time>
        <extensions>
          <ns3:TrackPointExtension>
            <ns3:atemp>24.0</ns3:atemp>
          </ns3:TrackPointExtension>
        </extensions>
      </trkpt>
      <trkpt lat="42.54637110047042369842529296875" lon="19.9565451778471469879150390625">
        <ele>1295.199951171875</ele>
        <time>2026-06-17T08:28:38.000Z</time>
        <extensions>
          <ns3:TrackPointExtension>
            <ns3:atemp>24.0</ns3:atemp>
          </ns3:TrackPointExtension>
        </extensions>
      </trkpt>
      <trkpt lat="42.54635609686374664306640625" lon="19.9565471895039081573486328125">
        <ele>1295.4000244140625</ele>
        <time>2026-06-17T08:28:39.000Z</time>
        <extensions>
          <ns3:TrackPointExtension>
            <ns3:atemp>24.0</ns3:atemp>
          </ns3:TrackPointExtension>
        </extensions>
      </trkpt>
      <trkpt lat="42.5463368184864521026611328125" lon="19.9565485306084156036376953125">
        <ele>1295.5999755859375</ele>
        <time>2026-06-17T08:28:40.000Z</time>
        <extensions>
          <ns3:TrackPointExtension>
            <ns3:atemp>24.0</ns3:atemp>
          </ns3:TrackPointExtension>
        </extensions>
      </trkpt>
      <trkpt lat="42.5463170371949672698974609375" lon="19.95654769241809844970703125">
        <ele>1295.800048828125</ele>
        <time>2026-06-17T08:28:41.000Z</time>
        <extensions>
          <ns3:TrackPointExtension>
            <ns3:atemp>24.0</ns3:atemp>
          </ns3:TrackPointExtension>
        </extensions>
      </trkpt>
      <trkpt lat="42.5462962500751018524169921875" lon="19.95655381120741367340087890625">
        <ele>1296</ele>
        <time>2026-06-17T08:28:42.000Z</time>
        <extensions>
          <ns3:TrackPointExtension>
            <ns3:atemp>24.0</ns3:atemp>
          </ns3:TrackPointExtension>
        </extensions>
      </trkpt>
      <trkpt lat="42.54627906717360019683837890625" lon="19.95656110346317291259765625">
        <ele>1296</ele>
        <time>2026-06-17T08:28:43.000Z</time>
        <extensions>
          <ns3:TrackPointExtension>
            <ns3:atemp>24.0</ns3:atemp>
          </ns3:TrackPointExtension>
        </extensions>
      </trkpt>
      <trkpt lat="42.54626129753887653350830078125" lon="19.9565683118999004364013671875">
        <ele>1296.199951171875</ele>
        <time>2026-06-17T08:28:44.000Z</time>
        <extensions>
          <ns3:TrackPointExtension>
            <ns3:atemp>24.0</ns3:atemp>
          </ns3:TrackPointExtension>
        </extensions>
      </trkpt>
      <trkpt lat="42.5462426058948040008544921875" lon="19.95657258667051792144775390625">
        <ele>1296.4000244140625</ele>
        <time>2026-06-17T08:28:45.000Z</time>
        <extensions>
          <ns3:TrackPointExtension>
            <ns3:atemp>24.0</ns3:atemp>
          </ns3:TrackPointExtension>
        </extensions>
      </trkpt>
      <trkpt lat="42.54622525535523891448974609375" lon="19.95657049119472503662109375">
        <ele>1296.800048828125</ele>
        <time>2026-06-17T08:28:46.000Z</time>
        <extensions>
          <ns3:TrackPointExtension>
            <ns3:atemp>24.0</ns3:atemp>
          </ns3:TrackPointExtension>
        </extensions>
      </trkpt>
      <trkpt lat="42.54621100611984729766845703125" lon="19.95657317340373992919921875">
        <ele>1297</ele>
        <time>2026-06-17T08:28:47.000Z</time>
        <extensions>
          <ns3:TrackPointExtension>
            <ns3:atemp>24.0</ns3:atemp>
          </ns3:TrackPointExtension>
        </extensions>
      </trkpt>
      <trkpt lat="42.546198852360248565673828125" lon="19.95657426305115222930908203125">
        <ele>1297.199951171875</ele>
        <time>2026-06-17T08:28:48.000Z</time>
        <extensions>
          <ns3:TrackPointExtension>
            <ns3:atemp>24.0</ns3:atemp>
          </ns3:TrackPointExtension>
        </extensions>
      </trkpt>
      <trkpt lat="42.5461797416210174560546875" lon="19.95657426305115222930908203125">
        <ele>1297.4000244140625</ele>
        <time>2026-06-17T08:28:49.000Z</time>
        <extensions>
          <ns3:TrackPointExtension>
            <ns3:atemp>24.0</ns3:atemp>
          </ns3:TrackPointExtension>
        </extensions>
      </trkpt>
      <trkpt lat="42.54615970887243747711181640625" lon="19.9565803818404674530029296875">
        <ele>1297.5999755859375</ele>
        <time>2026-06-17T08:28:50.000Z</time>
        <extensions>
          <ns3:TrackPointExtension>
            <ns3:atemp>24.0</ns3:atemp>
          </ns3:TrackPointExtension>
        </extensions>
      </trkpt>
      <trkpt lat="42.5461410172283649444580078125" lon="19.95658348314464092254638671875">
        <ele>1298</ele>
        <time>2026-06-17T08:28:51.000Z</time>
        <extensions>
          <ns3:TrackPointExtension>
            <ns3:atemp>24.0</ns3:atemp>
          </ns3:TrackPointExtension>
        </extensions>
      </trkpt>
      <trkpt lat="42.54612601362168788909912109375" lon="19.956586919724941253662109375">
        <ele>1298.199951171875</ele>
        <time>2026-06-17T08:28:52.000Z</time>
        <extensions>
          <ns3:TrackPointExtension>
            <ns3:atemp>24.0</ns3:atemp>
          </ns3:TrackPointExtension>
        </extensions>
      </trkpt>
      <trkpt lat="42.54611159674823284149169921875" lon="19.956589601933956146240234375">
        <ele>1298.5999755859375</ele>
        <time>2026-06-17T08:28:53.000Z</time>
        <extensions>
          <ns3:TrackPointExtension>
            <ns3:atemp>24.0</ns3:atemp>
          </ns3:TrackPointExtension>
        </extensions>
      </trkpt>
      <trkpt lat="42.54609449766576290130615234375" lon="19.95659806765615940093994140625">
        <ele>1298.800048828125</ele>
        <time>2026-06-17T08:28:54.000Z</time>
        <extensions>
          <ns3:TrackPointExtension>
            <ns3:atemp>24.0</ns3:atemp>
          </ns3:TrackPointExtension>
        </extensions>
      </trkpt>
      <trkpt lat="42.546077482402324676513671875" lon="19.95660091750323772430419921875">
        <ele>1299</ele>
        <time>2026-06-17T08:28:55.000Z</time>
        <extensions>
          <ns3:TrackPointExtension>
            <ns3:atemp>24.0</ns3:atemp>
          </ns3:TrackPointExtension>
        </extensions>
      </trkpt>
      <trkpt lat="42.54605527035892009735107421875" lon="19.9566075392067432403564453125">
        <ele>1299.199951171875</ele>
        <time>2026-06-17T08:28:56.000Z</time>
        <extensions>
          <ns3:TrackPointExtension>
            <ns3:atemp>24.0</ns3:atemp>
          </ns3:TrackPointExtension>
        </extensions>
      </trkpt>
      <trkpt lat="42.54603448323905467987060546875" lon="19.956611059606075286865234375">
        <ele>1299.4000244140625</ele>
        <time>2026-06-17T08:28:57.000Z</time>
        <extensions>
          <ns3:TrackPointExtension>
            <ns3:atemp>24.0</ns3:atemp>
          </ns3:TrackPointExtension>
        </extensions>
      </trkpt>
      <trkpt lat="42.54601403139531612396240234375" lon="19.95661340653896331787109375">
        <ele>1299.5999755859375</ele>
        <time>2026-06-17T08:28:58.000Z</time>
        <extensions>
          <ns3:TrackPointExtension>
            <ns3:atemp>24.0</ns3:atemp>
          </ns3:TrackPointExtension>
        </extensions>
      </trkpt>
      <trkpt lat="42.545993663370609283447265625" lon="19.956617765128612518310546875">
        <ele>1299.800048828125</ele>
        <time>2026-06-17T08:28:59.000Z</time>
        <extensions>
          <ns3:TrackPointExtension>
            <ns3:atemp>24.0</ns3:atemp>
          </ns3:TrackPointExtension>
        </extensions>
      </trkpt>
      <trkpt lat="42.5459740497171878814697265625" lon="19.9566236324608325958251953125">
        <ele>1300</ele>
        <time>2026-06-17T08:29:00.000Z</time>
        <extensions>
          <ns3:TrackPointExtension>
            <ns3:atemp>24.0</ns3:atemp>
          </ns3:TrackPointExtension>
        </extensions>
      </trkpt>
      <trkpt lat="42.54595284350216388702392578125" lon="19.9566273204982280731201171875">
        <ele>1300.199951171875</ele>
        <time>2026-06-17T08:29:01.000Z</time>
        <extensions>
          <ns3:TrackPointExtension>
            <ns3:atemp>24.0</ns3:atemp>
          </ns3:TrackPointExtension>
        </extensions>
      </trkpt>
      <trkpt lat="42.545931637287139892578125" lon="19.95663276873528957366943359375">
        <ele>1300.4000244140625</ele>
        <time>2026-06-17T08:29:02.000Z</time>
        <extensions>
          <ns3:TrackPointExtension>
            <ns3:atemp>24.0</ns3:atemp>
          </ns3:TrackPointExtension>
        </extensions>
      </trkpt>
      <trkpt lat="42.54591227509081363677978515625" lon="19.95663528330624103546142578125">
        <ele>1300.5999755859375</ele>
        <time>2026-06-17T08:29:03.000Z</time>
        <extensions>
          <ns3:TrackPointExtension>
            <ns3:atemp>24.0</ns3:atemp>
          </ns3:TrackPointExtension>
        </extensions>
      </trkpt>
      <trkpt lat="42.5458927452564239501953125" lon="19.956639893352985382080078125">
        <ele>1300.5999755859375</ele>
        <time>2026-06-17T08:29:04.000Z</time>
        <extensions>
          <ns3:TrackPointExtension>
            <ns3:atemp>24.0</ns3:atemp>
          </ns3:TrackPointExtension>
        </extensions>
      </trkpt>
      <trkpt lat="42.545872963964939117431640625" lon="19.956645257771015167236328125">
        <ele>1300.800048828125</ele>
        <time>2026-06-17T08:29:05.000Z</time>
        <extensions>
          <ns3:TrackPointExtension>
            <ns3:atemp>24.0</ns3:atemp>
          </ns3:TrackPointExtension>
        </extensions>
      </trkpt>
      <trkpt lat="42.545851506292819976806640625" lon="19.956649951636791229248046875">
        <ele>1301</ele>
        <time>2026-06-17T08:29:06.000Z</time>
        <extensions>
          <ns3:TrackPointExtension>
            <ns3:atemp>24.0</ns3:atemp>
          </ns3:TrackPointExtension>
        </extensions>
      </trkpt>
      <trkpt lat="42.54582946188747882843017578125" lon="19.95665363967418670654296875">
        <ele>1301.199951171875</ele>
        <time>2026-06-17T08:29:07.000Z</time>
        <extensions>
          <ns3:TrackPointExtension>
            <ns3:atemp>24.0</ns3:atemp>
          </ns3:TrackPointExtension>
        </extensions>
      </trkpt>
      <trkpt lat="42.545811943709850311279296875" lon="19.95666076429188251495361328125">
        <ele>1301.4000244140625</ele>
        <time>2026-06-17T08:29:08.000Z</time>
        <extensions>
          <ns3:TrackPointExtension>
            <ns3:atemp>24.0</ns3:atemp>
          </ns3:TrackPointExtension>
        </extensions>
      </trkpt>
      <trkpt lat="42.54579224623739719390869140625" lon="19.956667385995388031005859375">
        <ele>1301.4000244140625</ele>
        <time>2026-06-17T08:29:09.000Z</time>
        <extensions>
          <ns3:TrackPointExtension>
            <ns3:atemp>24.0</ns3:atemp>
          </ns3:TrackPointExtension>
        </extensions>
      </trkpt>
      <trkpt lat="42.54577330313622951507568359375" lon="19.956672079861164093017578125">
        <ele>1301.5999755859375</ele>
        <time>2026-06-17T08:29:10.000Z</time>
        <extensions>
          <ns3:TrackPointExtension>
            <ns3:atemp>24.0</ns3:atemp>
          </ns3:TrackPointExtension>
        </extensions>
      </trkpt>
      <trkpt lat="42.54575301893055438995361328125" lon="19.9566742591559886932373046875">
        <ele>1301.800048828125</ele>
        <time>2026-06-17T08:29:11.000Z</time>
        <extensions>
          <ns3:TrackPointExtension>
            <ns3:atemp>24.0</ns3:atemp>
          </ns3:TrackPointExtension>
        </extensions>
      </trkpt>
      <trkpt lat="42.54573357291519641876220703125" lon="19.95667417533695697784423828125">
        <ele>1301.800048828125</ele>
        <time>2026-06-17T08:29:12.000Z</time>
        <extensions>
          <ns3:TrackPointExtension>
            <ns3:atemp>24.0</ns3:atemp>
          </ns3:TrackPointExtension>
        </extensions>
      </trkpt>
      <trkpt lat="42.54571194760501384735107421875" lon="19.95667048729956150054931640625">
        <ele>1301.800048828125</ele>
        <time>2026-06-17T08:29:13.000Z</time>
        <extensions>
          <ns3:TrackPointExtension>
            <ns3:atemp>24.0</ns3:atemp>
          </ns3:TrackPointExtension>
        </extensions>
      </trkpt>
      <trkpt lat="42.5456890650093555450439453125" lon="19.95666914619505405426025390625">
        <ele>1302</ele>
        <time>2026-06-17T08:29:14.000Z</time>
        <extensions>
          <ns3:TrackPointExtension>
            <ns3:atemp>24.0</ns3:atemp>
          </ns3:TrackPointExtension>
        </extensions>
      </trkpt>
      <trkpt lat="42.54566618241369724273681640625" lon="19.95667031966149806976318359375">
        <ele>1302</ele>
        <time>2026-06-17T08:29:15.000Z</time>
        <extensions>
          <ns3:TrackPointExtension>
            <ns3:atemp>24.0</ns3:atemp>
          </ns3:TrackPointExtension>
        </extensions>
      </trkpt>
      <trkpt lat="42.5456417910754680633544921875" lon="19.95667031966149806976318359375">
        <ele>1302</ele>
        <time>2026-06-17T08:29:16.000Z</time>
        <extensions>
          <ns3:TrackPointExtension>
            <ns3:atemp>24.0</ns3:atemp>
          </ns3:TrackPointExtension>
        </extensions>
      </trkpt>
      <trkpt lat="42.54561857320368289947509765625" lon="19.95666679926216602325439453125">
        <ele>1302</ele>
        <time>2026-06-17T08:29:17.000Z</time>
        <extensions>
          <ns3:TrackPointExtension>
            <ns3:atemp>24.0</ns3:atemp>
          </ns3:TrackPointExtension>
        </extensions>
      </trkpt>
      <trkpt lat="42.54558806307613849639892578125" lon="19.956657327711582183837890625">
        <ele>1302</ele>
        <time>2026-06-17T08:29:18.000Z</time>
        <extensions>
          <ns3:TrackPointExtension>
            <ns3:atemp>24.0</ns3:atemp>
          </ns3:TrackPointExtension>
        </extensions>
      </trkpt>
      <trkpt lat="42.545553110539913177490234375" lon="19.95665154419839382171630859375">
        <ele>1302</ele>
        <time>2026-06-17T08:29:19.000Z</time>
        <extensions>
          <ns3:TrackPointExtension>
            <ns3:atemp>24.0</ns3:atemp>
          </ns3:TrackPointExtension>
        </extensions>
      </trkpt>
      <trkpt lat="42.545518912374973297119140625" lon="19.95664701797068119049072265625">
        <ele>1302</ele>
        <time>2026-06-17T08:29:20.000Z</time>
        <extensions>
          <ns3:TrackPointExtension>
            <ns3:atemp>24.0</ns3:atemp>
          </ns3:TrackPointExtension>
        </extensions>
      </trkpt>
      <trkpt lat="42.5454875640571117401123046875" lon="19.956647269427776336669921875">
        <ele>1301.800048828125</ele>
        <time>2026-06-17T08:29:21.000Z</time>
        <extensions>
          <ns3:TrackPointExtension>
            <ns3:atemp>24.0</ns3:atemp>
          </ns3:TrackPointExtension>
        </extensions>
      </trkpt>
      <trkpt lat="42.54545998759567737579345703125" lon="19.9566554836928844451904296875">
        <ele>1301.800048828125</ele>
        <time>2026-06-17T08:29:22.000Z</time>
        <extensions>
          <ns3:TrackPointExtension>
            <ns3:atemp>24.0</ns3:atemp>
          </ns3:TrackPointExtension>
        </extensions>
      </trkpt>
      <trkpt lat="42.5454340875148773193359375" lon="19.95666545815765857696533203125">
        <ele>1302</ele>
        <time>2026-06-17T08:29:23.000Z</time>
        <extensions>
          <ns3:TrackPointExtension>
            <ns3:atemp>24.0</ns3:atemp>
          </ns3:TrackPointExtension>
        </extensions>
      </trkpt>
      <trkpt lat="42.54541606642305850982666015625" lon="19.95667777955532073974609375">
        <ele>1302</ele>
        <time>2026-06-17T08:29:24.000Z</time>
        <extensions>
          <ns3:TrackPointExtension>
            <ns3:atemp>24.0</ns3:atemp>
          </ns3:TrackPointExtension>
        </extensions>
      </trkpt>
      <trkpt lat="42.54539787769317626953125" lon="19.95669378899037837982177734375">
        <ele>1302.199951171875</ele>
        <time>2026-06-17T08:29:25.000Z</time>
        <extensions>
          <ns3:TrackPointExtension>
            <ns3:atemp>24.0</ns3:atemp>
          </ns3:TrackPointExtension>
        </extensions>
      </trkpt>
      <trkpt lat="42.54538589157164096832275390625" lon="19.9567024223506450653076171875">
        <ele>1302.4000244140625</ele>
        <time>2026-06-17T08:29:26.000Z</time>
        <extensions>
          <ns3:TrackPointExtension>
            <ns3:atemp>24.0</ns3:atemp>
          </ns3:TrackPointExtension>
        </extensions>
      </trkpt>
      <trkpt lat="42.54537038505077362060546875" lon="19.9567208625376224517822265625">
        <ele>1302.5999755859375</ele>
        <time>2026-06-17T08:29:27.000Z</time>
        <extensions>
          <ns3:TrackPointExtension>
            <ns3:atemp>24.0</ns3:atemp>
          </ns3:TrackPointExtension>
        </extensions>
      </trkpt>
      <trkpt lat="42.54535689018666744232177734375" lon="19.9567387998104095458984375">
        <ele>1302.5999755859375</ele>
        <time>2026-06-17T08:29:28.000Z</time>
        <extensions>
          <ns3:TrackPointExtension>
            <ns3:atemp>24.0</ns3:atemp>
          </ns3:TrackPointExtension>
        </extensions>
      </trkpt>
      <trkpt lat="42.54534314386546611785888671875" lon="19.9567580781877040863037109375">
        <ele>1302.800048828125</ele>
        <time>2026-06-17T08:29:29.000Z</time>
        <extensions>
          <ns3:TrackPointExtension>
            <ns3:atemp>24.0</ns3:atemp>
          </ns3:TrackPointExtension>
        </extensions>
      </trkpt>
      <trkpt lat="42.54532738588750362396240234375" lon="19.95678029023110866546630859375">
        <ele>1302.800048828125</ele>
        <time>2026-06-17T08:29:30.000Z</time>
        <extensions>
          <ns3:TrackPointExtension>
            <ns3:atemp>24.0</ns3:atemp>
          </ns3:TrackPointExtension>
        </extensions>
      </trkpt>
      <trkpt lat="42.54531749524176120758056640625" lon="19.9568030051887035369873046875">
        <ele>1303</ele>
        <time>2026-06-17T08:29:31.000Z</time>
        <extensions>
          <ns3:TrackPointExtension>
            <ns3:atemp>24.0</ns3:atemp>
          </ns3:TrackPointExtension>
        </extensions>
      </trkpt>
      <trkpt lat="42.545305676758289337158203125" lon="19.95682136155664920806884765625">
        <ele>1303.199951171875</ele>
        <time>2026-06-17T08:29:32.000Z</time>
        <extensions>
          <ns3:TrackPointExtension>
            <ns3:atemp>24.0</ns3:atemp>
          </ns3:TrackPointExtension>
        </extensions>
      </trkpt>
      <trkpt lat="42.5452920980751514434814453125" lon="19.95684231631457805633544921875">
        <ele>1303.4000244140625</ele>
        <time>2026-06-17T08:29:33.000Z</time>
        <extensions>
          <ns3:TrackPointExtension>
            <ns3:atemp>24.0</ns3:atemp>
          </ns3:TrackPointExtension>
        </extensions>
      </trkpt>
      <trkpt lat="42.54528187215328216552734375" lon="19.95686142705380916595458984375">
        <ele>1303.5999755859375</ele>
        <time>2026-06-17T08:29:34.000Z</time>
        <extensions>
          <ns3:TrackPointExtension>
            <ns3:atemp>24.0</ns3:atemp>
          </ns3:TrackPointExtension>
        </extensions>
      </trkpt>
      <trkpt lat="42.54526712000370025634765625" lon="19.95688104070723056793212890625">
        <ele>1303.800048828125</ele>
        <time>2026-06-17T08:29:35.000Z</time>
        <extensions>
          <ns3:TrackPointExtension>
            <ns3:atemp>24.0</ns3:atemp>
          </ns3:TrackPointExtension>
        </extensions>
      </trkpt>
      <trkpt lat="42.54525505006313323974609375" lon="19.95689914561808109283447265625">
        <ele>1304</ele>
        <time>2026-06-17T08:29:36.000Z</time>
        <extensions>
          <ns3:TrackPointExtension>
            <ns3:atemp>24.0</ns3:atemp>
          </ns3:TrackPointExtension>
        </extensions>
      </trkpt>
      <trkpt lat="42.54524172283709049224853515625" lon="19.956917501986026763916015625">
        <ele>1304.199951171875</ele>
        <time>2026-06-17T08:29:37.000Z</time>
        <extensions>
          <ns3:TrackPointExtension>
            <ns3:atemp>24.0</ns3:atemp>
          </ns3:TrackPointExtension>
        </extensions>
      </trkpt>
      <trkpt lat="42.54522822797298431396484375" lon="19.95693820528686046600341796875">
        <ele>1304.4000244140625</ele>
        <time>2026-06-17T08:29:38.000Z</time>
        <extensions>
          <ns3:TrackPointExtension>
            <ns3:atemp>24.0</ns3:atemp>
          </ns3:TrackPointExtension>
        </extensions>
      </trkpt>
      <trkpt lat="42.54521347582340240478515625" lon="19.95695404708385467529296875">
        <ele>1304.5999755859375</ele>
        <time>2026-06-17T08:29:39.000Z</time>
        <extensions>
          <ns3:TrackPointExtension>
            <ns3:atemp>24.0</ns3:atemp>
          </ns3:TrackPointExtension>
        </extensions>
      </trkpt>
      <trkpt lat="42.5451972149312496185302734375" lon="19.95696502737700939178466796875">
        <ele>1304.800048828125</ele>
        <time>2026-06-17T08:29:40.000Z</time>
        <extensions>
          <ns3:TrackPointExtension>
            <ns3:atemp>24.0</ns3:atemp>
          </ns3:TrackPointExtension>
        </extensions>
      </trkpt>
      <trkpt lat="42.5451819598674774169921875" lon="19.95697550475597381591796875">
        <ele>1305</ele>
        <time>2026-06-17T08:29:41.000Z</time>
        <extensions>
          <ns3:TrackPointExtension>
            <ns3:atemp>24.0</ns3:atemp>
          </ns3:TrackPointExtension>
        </extensions>
      </trkpt>
      <trkpt lat="42.54516159184277057647705078125" lon="19.9569864012300968170166015625">
        <ele>1305</ele>
        <time>2026-06-17T08:29:42.000Z</time>
        <extensions>
          <ns3:TrackPointExtension>
            <ns3:atemp>24.0</ns3:atemp>
          </ns3:TrackPointExtension>
        </extensions>
      </trkpt>
      <trkpt lat="42.54513829015195369720458984375" lon="19.95699503459036350250244140625">
        <ele>1305.199951171875</ele>
        <time>2026-06-17T08:29:43.000Z</time>
        <extensions>
          <ns3:TrackPointExtension>
            <ns3:atemp>24.0</ns3:atemp>
          </ns3:TrackPointExtension>
        </extensions>
      </trkpt>
      <trkpt lat="42.545117251574993133544921875" lon="19.95699964463710784912109375">
        <ele>1305.4000244140625</ele>
        <time>2026-06-17T08:29:44.000Z</time>
        <extensions>
          <ns3:TrackPointExtension>
            <ns3:atemp>24.0</ns3:atemp>
          </ns3:TrackPointExtension>
        </extensions>
      </trkpt>
      <trkpt lat="42.5450959615409374237060546875" lon="19.957007355988025665283203125">
        <ele>1305.4000244140625</ele>
        <time>2026-06-17T08:29:45.000Z</time>
        <extensions>
          <ns3:TrackPointExtension>
            <ns3:atemp>24.0</ns3:atemp>
          </ns3:TrackPointExtension>
        </extensions>
      </trkpt>
      <trkpt lat="42.54507659934461116790771484375" lon="19.95701246894896030426025390625">
        <ele>1305.5999755859375</ele>
        <time>2026-06-17T08:29:46.000Z</time>
        <extensions>
          <ns3:TrackPointExtension>
            <ns3:atemp>24.0</ns3:atemp>
          </ns3:TrackPointExtension>
        </extensions>
      </trkpt>
      <trkpt lat="42.5450607575476169586181640625" lon="19.95701112784445285797119140625">
        <ele>1305.5999755859375</ele>
        <time>2026-06-17T08:29:47.000Z</time>
        <extensions>
          <ns3:TrackPointExtension>
            <ns3:atemp>24.0</ns3:atemp>
          </ns3:TrackPointExtension>
        </extensions>
      </trkpt>
      <trkpt lat="42.545042820274829864501953125" lon="19.95701263658702373504638671875">
        <ele>1305.800048828125</ele>
        <time>2026-06-17T08:29:48.000Z</time>
        <extensions>
          <ns3:TrackPointExtension>
            <ns3:atemp>24.0</ns3:atemp>
          </ns3:TrackPointExtension>
        </extensions>
      </trkpt>
      <trkpt lat="42.54502412863075733184814453125" lon="19.957014732062816619873046875">
        <ele>1305.800048828125</ele>
        <time>2026-06-17T08:29:49.000Z</time>
        <extensions>
          <ns3:TrackPointExtension>
            <ns3:atemp>24.0</ns3:atemp>
          </ns3:TrackPointExtension>
        </extensions>
      </trkpt>
      <trkpt lat="42.545004598796367645263671875" lon="19.95701448060572147369384765625">
        <ele>1305.800048828125</ele>
        <time>2026-06-17T08:29:50.000Z</time>
        <extensions>
          <ns3:TrackPointExtension>
            <ns3:atemp>24.0</ns3:atemp>
          </ns3:TrackPointExtension>
        </extensions>
      </trkpt>
      <trkpt lat="42.54498548805713653564453125" lon="19.9570112116634845733642578125">
        <ele>1306</ele>
        <time>2026-06-17T08:29:51.000Z</time>
        <extensions>
          <ns3:TrackPointExtension>
            <ns3:atemp>24.0</ns3:atemp>
          </ns3:TrackPointExtension>
        </extensions>
      </trkpt>
      <trkpt lat="42.54496671259403228759765625" lon="19.95700425468385219573974609375">
        <ele>1306</ele>
        <time>2026-06-17T08:29:52.000Z</time>
        <extensions>
          <ns3:TrackPointExtension>
            <ns3:atemp>24.0</ns3:atemp>
          </ns3:TrackPointExtension>
        </extensions>
      </trkpt>
      <trkpt lat="42.54494617693126201629638671875" lon="19.95699671097099781036376953125">
        <ele>1306</ele>
        <time>2026-06-17T08:29:53.000Z</time>
        <extensions>
          <ns3:TrackPointExtension>
            <ns3:atemp>24.0</ns3:atemp>
          </ns3:TrackPointExtension>
        </extensions>
      </trkpt>
      <trkpt lat="42.54492647945880889892578125" lon="19.9569914303719997406005859375">
        <ele>1306.199951171875</ele>
        <time>2026-06-17T08:29:54.000Z</time>
        <extensions>
          <ns3:TrackPointExtension>
            <ns3:atemp>24.0</ns3:atemp>
          </ns3:TrackPointExtension>
        </extensions>
      </trkpt>
      <trkpt lat="42.5449078716337680816650390625" lon="19.95698883198201656341552734375">
        <ele>1306.199951171875</ele>
        <time>2026-06-17T08:29:55.000Z</time>
        <extensions>
          <ns3:TrackPointExtension>
            <ns3:atemp>24.0</ns3:atemp>
          </ns3:TrackPointExtension>
        </extensions>
      </trkpt>
      <trkpt lat="42.54489001818001270294189453125" lon="19.95698623359203338623046875">
        <ele>1306.4000244140625</ele>
        <time>2026-06-17T08:29:56.000Z</time>
        <extensions>
          <ns3:TrackPointExtension>
            <ns3:atemp>24.0</ns3:atemp>
          </ns3:TrackPointExtension>
        </extensions>
      </trkpt>
      <trkpt lat="42.54487191326916217803955078125" lon="19.95698078535497188568115234375">
        <ele>1306.4000244140625</ele>
        <time>2026-06-17T08:29:57.000Z</time>
        <extensions>
          <ns3:TrackPointExtension>
            <ns3:atemp>24.0</ns3:atemp>
          </ns3:TrackPointExtension>
        </extensions>
      </trkpt>
      <trkpt lat="42.54485229961574077606201171875" lon="19.956975840032100677490234375">
        <ele>1306.5999755859375</ele>
        <time>2026-06-17T08:29:58.000Z</time>
        <extensions>
          <ns3:TrackPointExtension>
            <ns3:atemp>24.0</ns3:atemp>
          </ns3:TrackPointExtension>
        </extensions>
      </trkpt>
      <trkpt lat="42.54483402706682682037353515625" lon="19.956969805061817169189453125">
        <ele>1306.5999755859375</ele>
        <time>2026-06-17T08:29:59.000Z</time>
        <extensions>
          <ns3:TrackPointExtension>
            <ns3:atemp>24.0</ns3:atemp>
          </ns3:TrackPointExtension>
        </extensions>
      </trkpt>
      <trkpt lat="42.5448173470795154571533203125" lon="19.9569614231586456298828125">
        <ele>1306.5999755859375</ele>
        <time>2026-06-17T08:30:00.000Z</time>
        <extensions>
          <ns3:TrackPointExtension>
            <ns3:atemp>24.0</ns3:atemp>
          </ns3:TrackPointExtension>
        </extensions>
      </trkpt>
      <trkpt lat="42.5447992421686649322509765625" lon="19.95695480145514011383056640625">
        <ele>1306.800048828125</ele>
        <time>2026-06-17T08:30:01.000Z</time>
        <extensions>
          <ns3:TrackPointExtension>
            <ns3:atemp>24.0</ns3:atemp>
          </ns3:TrackPointExtension>
        </extensions>
      </trkpt>
      <trkpt lat="42.5447828136384487152099609375" lon="19.9569458328187465667724609375">
        <ele>1306.800048828125</ele>
        <time>2026-06-17T08:30:02.000Z</time>
        <extensions>
          <ns3:TrackPointExtension>
            <ns3:atemp>24.0</ns3:atemp>
          </ns3:TrackPointExtension>
        </extensions>
      </trkpt>
      <trkpt lat="42.54476965405046939849853515625" lon="19.95693518780171871185302734375">
        <ele>1307</ele>
        <time>2026-06-17T08:30:03.000Z</time>
        <extensions>
          <ns3:TrackPointExtension>
            <ns3:atemp>24.0</ns3:atemp>
          </ns3:TrackPointExtension>
        </extensions>
      </trkpt>
      <trkpt lat="42.54475473426282405853271484375" lon="19.95692588388919830322265625">
        <ele>1307</ele>
        <time>2026-06-17T08:30:04.000Z</time>
        <extensions>
          <ns3:TrackPointExtension>
            <ns3:atemp>24.0</ns3:atemp>
          </ns3:TrackPointExtension>
        </extensions>
      </trkpt>
      <trkpt lat="42.5447415746748447418212890625" lon="19.956916160881519317626953125">
        <ele>1307</ele>
        <time>2026-06-17T08:30:05.000Z</time>
        <extensions>
          <ns3:TrackPointExtension>
            <ns3:atemp>24.0</ns3:atemp>
          </ns3:TrackPointExtension>
        </extensions>
      </trkpt>
      <trkpt lat="42.54472824744880199432373046875" lon="19.95690601877868175506591796875">
        <ele>1307.199951171875</ele>
        <time>2026-06-17T08:30:06.000Z</time>
        <extensions>
          <ns3:TrackPointExtension>
            <ns3:atemp>24.0</ns3:atemp>
          </ns3:TrackPointExtension>
        </extensions>
      </trkpt>
      <trkpt lat="42.54470813088119029998779296875" lon="19.9568921886384487152099609375">
        <ele>1307.4000244140625</ele>
        <time>2026-06-17T08:30:07.000Z</time>
        <extensions>
          <ns3:TrackPointExtension>
            <ns3:atemp>24.0</ns3:atemp>
          </ns3:TrackPointExtension>
        </extensions>
      </trkpt>
      <trkpt lat="42.54469069652259349822998046875" lon="19.95688070543110370635986328125">
        <ele>1307.4000244140625</ele>
        <time>2026-06-17T08:30:08.000Z</time>
        <extensions>
          <ns3:TrackPointExtension>
            <ns3:atemp>24.0</ns3:atemp>
          </ns3:TrackPointExtension>
        </extensions>
      </trkpt>
      <trkpt lat="42.54467032849788665771484375" lon="19.95686830021440982818603515625">
        <ele>1307.4000244140625</ele>
        <time>2026-06-17T08:30:09.000Z</time>
        <extensions>
          <ns3:TrackPointExtension>
            <ns3:atemp>24.0</ns3:atemp>
          </ns3:TrackPointExtension>
        </extensions>
      </trkpt>
      <trkpt lat="42.54465264268219470977783203125" lon="19.95685488916933536529541015625">
        <ele>1307.5999755859375</ele>
        <time>2026-06-17T08:30:10.000Z</time>
        <extensions>
          <ns3:TrackPointExtension>
            <ns3:atemp>24.0</ns3:atemp>
          </ns3:TrackPointExtension>
        </extensions>
      </trkpt>
      <trkpt lat="42.5446321070194244384765625" lon="19.9568429030478000640869140625">
        <ele>1307.800048828125</ele>
        <time>2026-06-17T08:30:11.000Z</time>
        <extensions>
          <ns3:TrackPointExtension>
            <ns3:atemp>24.0</ns3:atemp>
          </ns3:TrackPointExtension>
        </extensions>
      </trkpt>
      <trkpt lat="42.5446133315563201904296875" lon="19.9568294920027256011962890625">
        <ele>1307.800048828125</ele>
        <time>2026-06-17T08:30:12.000Z</time>
        <extensions>
          <ns3:TrackPointExtension>
            <ns3:atemp>24.0</ns3:atemp>
          </ns3:TrackPointExtension>
        </extensions>
      </trkpt>
      <trkpt lat="42.54459212534129619598388671875" lon="19.9568184278905391693115234375">
        <ele>1307.800048828125</ele>
        <time>2026-06-17T08:30:13.000Z</time>
        <extensions>
          <ns3:TrackPointExtension>
            <ns3:atemp>24.0</ns3:atemp>
          </ns3:TrackPointExtension>
        </extensions>
      </trkpt>
      <trkpt lat="42.54457184113562107086181640625" lon="19.95680795051157474517822265625">
        <ele>1308</ele>
        <time>2026-06-17T08:30:14.000Z</time>
        <extensions>
          <ns3:TrackPointExtension>
            <ns3:atemp>25.0</ns3:atemp>
          </ns3:TrackPointExtension>
        </extensions>
      </trkpt>
      <trkpt lat="42.5445528142154216766357421875" lon="19.95679839514195919036865234375">
        <ele>1308</ele>
        <time>2026-06-17T08:30:15.000Z</time>
        <extensions>
          <ns3:TrackPointExtension>
            <ns3:atemp>24.0</ns3:atemp>
          </ns3:TrackPointExtension>
        </extensions>
      </trkpt>
      <trkpt lat="42.54453395493328571319580078125" lon="19.95678615756332874298095703125">
        <ele>1308.199951171875</ele>
        <time>2026-06-17T08:30:16.000Z</time>
        <extensions>
          <ns3:TrackPointExtension>
            <ns3:atemp>24.0</ns3:atemp>
          </ns3:TrackPointExtension>
        </extensions>
      </trkpt>
      <trkpt lat="42.54451207816600799560546875" lon="19.95678179897367954254150390625">
        <ele>1308.4000244140625</ele>
        <time>2026-06-17T08:30:17.000Z</time>
        <extensions>
          <ns3:TrackPointExtension>
            <ns3:atemp>25.0</ns3:atemp>
          </ns3:TrackPointExtension>
        </extensions>
      </trkpt>
      <trkpt lat="42.544490285217761993408203125" lon="19.956778697669506072998046875">
        <ele>1308.4000244140625</ele>
        <time>2026-06-17T08:30:18.000Z</time>
        <extensions>
          <ns3:TrackPointExtension>
            <ns3:atemp>25.0</ns3:atemp>
          </ns3:TrackPointExtension>
        </extensions>
      </trkpt>
      <trkpt lat="42.54446740262210369110107421875" lon="19.956780709326267242431640625">
        <ele>1308.5999755859375</ele>
        <time>2026-06-17T08:30:19.000Z</time>
        <extensions>
          <ns3:TrackPointExtension>
            <ns3:atemp>25.0</ns3:atemp>
          </ns3:TrackPointExtension>
        </extensions>
      </trkpt>
      <trkpt lat="42.5444445200264453887939453125" lon="19.956782720983028411865234375">
        <ele>1308.5999755859375</ele>
        <time>2026-06-17T08:30:20.000Z</time>
        <extensions>
          <ns3:TrackPointExtension>
            <ns3:atemp>24.0</ns3:atemp>
          </ns3:TrackPointExtension>
        </extensions>
      </trkpt>
      <trkpt lat="42.54442499019205570220947265625" lon="19.956784062087535858154296875">
        <ele>1308.800048828125</ele>
        <time>2026-06-17T08:30:21.000Z</time>
        <extensions>
          <ns3:TrackPointExtension>
            <ns3:atemp>25.0</ns3:atemp>
          </ns3:TrackPointExtension>
        </extensions>
      </trkpt>
      <trkpt lat="42.5444029457867145538330078125" lon="19.95678431354463100433349609375">
        <ele>1309</ele>
        <time>2026-06-17T08:30:22.000Z</time>
        <extensions>
          <ns3:TrackPointExtension>
            <ns3:atemp>25.0</ns3:atemp>
          </ns3:TrackPointExtension>
        </extensions>
      </trkpt>
      <trkpt lat="42.54438257776200771331787109375" lon="19.95678800158202648162841796875">
        <ele>1309.199951171875</ele>
        <time>2026-06-17T08:30:23.000Z</time>
        <extensions>
          <ns3:TrackPointExtension>
            <ns3:atemp>24.0</ns3:atemp>
          </ns3:TrackPointExtension>
        </extensions>
      </trkpt>
      <trkpt lat="42.54436447285115718841552734375" lon="19.95679772458970546722412109375">
        <ele>1309.199951171875</ele>
        <time>2026-06-17T08:30:24.000Z</time>
        <extensions>
          <ns3:TrackPointExtension>
            <ns3:atemp>24.0</ns3:atemp>
          </ns3:TrackPointExtension>
        </extensions>
      </trkpt>
      <trkpt lat="42.54434955306351184844970703125" lon="19.9568066932260990142822265625">
        <ele>1309.4000244140625</ele>
        <time>2026-06-17T08:30:25.000Z</time>
        <extensions>
          <ns3:TrackPointExtension>
            <ns3:atemp>24.0</ns3:atemp>
          </ns3:TrackPointExtension>
        </extensions>
      </trkpt>
      <trkpt lat="42.5443308614194393157958984375" lon="19.95681515894830226898193359375">
        <ele>1309.4000244140625</ele>
        <time>2026-06-17T08:30:26.000Z</time>
        <extensions>
          <ns3:TrackPointExtension>
            <ns3:atemp>24.0</ns3:atemp>
          </ns3:TrackPointExtension>
        </extensions>
      </trkpt>
      <trkpt lat="42.54431116394698619842529296875" lon="19.95682236738502979278564453125">
        <ele>1309.5999755859375</ele>
        <time>2026-06-17T08:30:27.000Z</time>
        <extensions>
          <ns3:TrackPointExtension>
            <ns3:atemp>25.0</ns3:atemp>
          </ns3:TrackPointExtension>
        </extensions>
      </trkpt>
      <trkpt lat="42.5442892871797084808349609375" lon="19.95683066546916961669921875">
        <ele>1309.800048828125</ele>
        <time>2026-06-17T08:30:28.000Z</time>
        <extensions>
          <ns3:TrackPointExtension>
            <ns3:atemp>25.0</ns3:atemp>
          </ns3:TrackPointExtension>
        </extensions>
      </trkpt>
      <trkpt lat="42.54426799714565277099609375" lon="19.956839382648468017578125">
        <ele>1309.800048828125</ele>
        <time>2026-06-17T08:30:29.000Z</time>
        <extensions>
          <ns3:TrackPointExtension>
            <ns3:atemp>25.0</ns3:atemp>
          </ns3:TrackPointExtension>
        </extensions>
      </trkpt>
      <trkpt lat="42.54424796439707279205322265625" lon="19.95684541761875152587890625">
        <ele>1309.800048828125</ele>
        <time>2026-06-17T08:30:30.000Z</time>
        <extensions>
          <ns3:TrackPointExtension>
            <ns3:atemp>25.0</ns3:atemp>
          </ns3:TrackPointExtension>
        </extensions>
      </trkpt>
      <trkpt lat="42.5442275963723659515380859375" lon="19.95684717781841754913330078125">
        <ele>1310</ele>
        <time>2026-06-17T08:30:31.000Z</time>
        <extensions>
          <ns3:TrackPointExtension>
            <ns3:atemp>25.0</ns3:atemp>
          </ns3:TrackPointExtension>
        </extensions>
      </trkpt>
      <trkpt lat="42.5442044623196125030517578125" lon="19.95685187168419361114501953125">
        <ele>1310</ele>
        <time>2026-06-17T08:30:32.000Z</time>
        <extensions>
          <ns3:TrackPointExtension>
            <ns3:atemp>25.0</ns3:atemp>
          </ns3:TrackPointExtension>
        </extensions>
      </trkpt>
      <trkpt lat="42.54418442957103252410888671875" lon="19.95685103349387645721435546875">
        <ele>1310</ele>
        <time>2026-06-17T08:30:33.000Z</time>
        <extensions>
          <ns3:TrackPointExtension>
            <ns3:atemp>25.0</ns3:atemp>
          </ns3:TrackPointExtension>
        </extensions>
      </trkpt>
      <trkpt lat="42.54416297189891338348388671875" lon="19.9568526260554790496826171875">
        <ele>1310.199951171875</ele>
        <time>2026-06-17T08:30:34.000Z</time>
        <extensions>
          <ns3:TrackPointExtension>
            <ns3:atemp>25.0</ns3:atemp>
          </ns3:TrackPointExtension>
        </extensions>
      </trkpt>
      <trkpt lat="42.54414252005517482757568359375" lon="19.95685388334095478057861328125">
        <ele>1310.199951171875</ele>
        <time>2026-06-17T08:30:35.000Z</time>
        <extensions>
          <ns3:TrackPointExtension>
            <ns3:atemp>25.0</ns3:atemp>
          </ns3:TrackPointExtension>
        </extensions>
      </trkpt>
      <trkpt lat="42.5441196374595165252685546875" lon="19.95685773901641368865966796875">
        <ele>1310.199951171875</ele>
        <time>2026-06-17T08:30:36.000Z</time>
        <extensions>
          <ns3:TrackPointExtension>
            <ns3:atemp>25.0</ns3:atemp>
          </ns3:TrackPointExtension>
        </extensions>
      </trkpt>
      <trkpt lat="42.54409742541611194610595703125" lon="19.95686226524412631988525390625">
        <ele>1310.4000244140625</ele>
        <time>2026-06-17T08:30:37.000Z</time>
        <extensions>
          <ns3:TrackPointExtension>
            <ns3:atemp>25.0</ns3:atemp>
          </ns3:TrackPointExtension>
        </extensions>
      </trkpt>
      <trkpt lat="42.54407378844916820526123046875" lon="19.956865198910236358642578125">
        <ele>1310.4000244140625</ele>
        <time>2026-06-17T08:30:38.000Z</time>
        <extensions>
          <ns3:TrackPointExtension>
            <ns3:atemp>25.0</ns3:atemp>
          </ns3:TrackPointExtension>
        </extensions>
      </trkpt>
      <trkpt lat="42.5440525822341442108154296875" lon="19.9568697251379489898681640625">
        <ele>1310.4000244140625</ele>
        <time>2026-06-17T08:30:39.000Z</time>
        <extensions>
          <ns3:TrackPointExtension>
            <ns3:atemp>25.0</ns3:atemp>
          </ns3:TrackPointExtension>
        </extensions>
      </trkpt>
      <trkpt lat="42.5440312922000885009765625" lon="19.9568771012127399444580078125">
        <ele>1310.5999755859375</ele>
        <time>2026-06-17T08:30:40.000Z</time>
        <extensions>
          <ns3:TrackPointExtension>
            <ns3:atemp>25.0</ns3:atemp>
          </ns3:TrackPointExtension>
        </extensions>
      </trkpt>
      <trkpt lat="42.5440069846808910369873046875" lon="19.95688498020172119140625">
        <ele>1310.5999755859375</ele>
        <time>2026-06-17T08:30:41.000Z</time>
        <extensions>
          <ns3:TrackPointExtension>
            <ns3:atemp>25.0</ns3:atemp>
          </ns3:TrackPointExtension>
        </extensions>
      </trkpt>
      <trkpt lat="42.54398636519908905029296875" lon="19.9568925239145755767822265625">
        <ele>1310.800048828125</ele>
        <time>2026-06-17T08:30:42.000Z</time>
        <extensions>
          <ns3:TrackPointExtension>
            <ns3:atemp>25.0</ns3:atemp>
          </ns3:TrackPointExtension>
        </extensions>
      </trkpt>
      <trkpt lat="42.54396297968924045562744140625" lon="19.956901408731937408447265625">
        <ele>1310.800048828125</ele>
        <time>2026-06-17T08:30:43.000Z</time>
        <extensions>
          <ns3:TrackPointExtension>
            <ns3:atemp>25.0</ns3:atemp>
          </ns3:TrackPointExtension>
        </extensions>
      </trkpt>
      <trkpt lat="42.543944455683231353759765625" lon="19.95691088028252124786376953125">
        <ele>1311</ele>
        <time>2026-06-17T08:30:44.000Z</time>
        <extensions>
          <ns3:TrackPointExtension>
            <ns3:atemp>25.0</ns3:atemp>
          </ns3:TrackPointExtension>
        </extensions>
      </trkpt>
      <trkpt lat="42.5439302064478397369384765625" lon="19.95691917836666107177734375">
        <ele>1311</ele>
        <time>2026-06-17T08:30:45.000Z</time>
        <extensions>
          <ns3:TrackPointExtension>
            <ns3:atemp>25.0</ns3:atemp>
          </ns3:TrackPointExtension>
        </extensions>
      </trkpt>
      <trkpt lat="42.54391369409859180450439453125" lon="19.95692512951791286468505859375">
        <ele>1311.199951171875</ele>
        <time>2026-06-17T08:30:46.000Z</time>
        <extensions>
          <ns3:TrackPointExtension>
            <ns3:atemp>25.0</ns3:atemp>
          </ns3:TrackPointExtension>
        </extensions>
      </trkpt>
      <trkpt lat="42.5438946671783924102783203125" lon="19.95693585835397243499755859375">
        <ele>1311.199951171875</ele>
        <time>2026-06-17T08:30:47.000Z</time>
        <extensions>
          <ns3:TrackPointExtension>
            <ns3:atemp>25.0</ns3:atemp>
          </ns3:TrackPointExtension>
        </extensions>
      </trkpt>
      <trkpt lat="42.54387564025819301605224609375" lon="19.956946335732936859130859375">
        <ele>1311.4000244140625</ele>
        <time>2026-06-17T08:30:48.000Z</time>
        <extensions>
          <ns3:TrackPointExtension>
            <ns3:atemp>25.0</ns3:atemp>
          </ns3:TrackPointExtension>
        </extensions>
      </trkpt>
      <trkpt lat="42.54385401494801044464111328125" lon="19.95695530436933040618896484375">
        <ele>1311.4000244140625</ele>
        <time>2026-06-17T08:30:49.000Z</time>
        <extensions>
          <ns3:TrackPointExtension>
            <ns3:atemp>25.0</ns3:atemp>
          </ns3:TrackPointExtension>
        </extensions>
      </trkpt>
      <trkpt lat="42.543835155665874481201171875" lon="19.95695916004478931427001953125">
        <ele>1311.4000244140625</ele>
        <time>2026-06-17T08:30:50.000Z</time>
        <extensions>
          <ns3:TrackPointExtension>
            <ns3:atemp>25.0</ns3:atemp>
          </ns3:TrackPointExtension>
        </extensions>
      </trkpt>
      <trkpt lat="42.54381462000310420989990234375" lon="19.95696477591991424560546875">
        <ele>1311.4000244140625</ele>
        <time>2026-06-17T08:30:51.000Z</time>
        <extensions>
          <ns3:TrackPointExtension>
            <ns3:atemp>25.0</ns3:atemp>
          </ns3:TrackPointExtension>
        </extensions>
      </trkpt>
      <trkpt lat="42.543796598911285400390625" lon="19.95696955360472202301025390625">
        <ele>1311.4000244140625</ele>
        <time>2026-06-17T08:30:52.000Z</time>
        <extensions>
          <ns3:TrackPointExtension>
            <ns3:atemp>25.0</ns3:atemp>
          </ns3:TrackPointExtension>
        </extensions>
      </trkpt>
      <trkpt lat="42.5437791645526885986328125" lon="19.95697659440338611602783203125">
        <ele>1311.4000244140625</ele>
        <time>2026-06-17T08:30:53.000Z</time>
        <extensions>
          <ns3:TrackPointExtension>
            <ns3:atemp>25.0</ns3:atemp>
          </ns3:TrackPointExtension>
        </extensions>
      </trkpt>
      <trkpt lat="42.54376080818474292755126953125" lon="19.95698246173560619354248046875">
        <ele>1311.5999755859375</ele>
        <time>2026-06-17T08:30:54.000Z</time>
        <extensions>
          <ns3:TrackPointExtension>
            <ns3:atemp>25.0</ns3:atemp>
          </ns3:TrackPointExtension>
        </extensions>
      </trkpt>
      <trkpt lat="42.54373935051262378692626953125" lon="19.95699536986649036407470703125">
        <ele>1311.5999755859375</ele>
        <time>2026-06-17T08:30:55.000Z</time>
        <extensions>
          <ns3:TrackPointExtension>
            <ns3:atemp>25.0</ns3:atemp>
          </ns3:TrackPointExtension>
        </extensions>
      </trkpt>
      <trkpt lat="42.54371705465018749237060546875" lon="19.95700299739837646484375">
        <ele>1311.5999755859375</ele>
        <time>2026-06-17T08:30:56.000Z</time>
        <extensions>
          <ns3:TrackPointExtension>
            <ns3:atemp>25.0</ns3:atemp>
          </ns3:TrackPointExtension>
        </extensions>
      </trkpt>
      <trkpt lat="42.543694339692592620849609375" lon="19.9570055119693279266357421875">
        <ele>1311.5999755859375</ele>
        <time>2026-06-17T08:30:57.000Z</time>
        <extensions>
          <ns3:TrackPointExtension>
            <ns3:atemp>25.0</ns3:atemp>
          </ns3:TrackPointExtension>
        </extensions>
      </trkpt>
      <trkpt lat="42.54366793669760227203369140625" lon="19.95701179839670658111572265625">
        <ele>1311.5999755859375</ele>
        <time>2026-06-17T08:30:58.000Z</time>
        <extensions>
          <ns3:TrackPointExtension>
            <ns3:atemp>25.0</ns3:atemp>
          </ns3:TrackPointExtension>
        </extensions>
      </trkpt>
      <trkpt lat="42.54364446736872196197509765625" lon="19.957013390958309173583984375">
        <ele>1311.5999755859375</ele>
        <time>2026-06-17T08:30:59.000Z</time>
        <extensions>
          <ns3:TrackPointExtension>
            <ns3:atemp>25.0</ns3:atemp>
          </ns3:TrackPointExtension>
        </extensions>
      </trkpt>
      <trkpt lat="42.54362217150628566741943359375" lon="19.95701842010021209716796875">
        <ele>1311.5999755859375</ele>
        <time>2026-06-17T08:31:00.000Z</time>
        <extensions>
          <ns3:TrackPointExtension>
            <ns3:atemp>25.0</ns3:atemp>
          </ns3:TrackPointExtension>
        </extensions>
      </trkpt>
      <trkpt lat="42.54359886981546878814697265625" lon="19.957026131451129913330078125">
        <ele>1311.5999755859375</ele>
        <time>2026-06-17T08:31:01.000Z</time>
        <extensions>
          <ns3:TrackPointExtension>
            <ns3:atemp>25.0</ns3:atemp>
          </ns3:TrackPointExtension>
        </extensions>
      </trkpt>
      <trkpt lat="42.54357472993433475494384765625" lon="19.9570313282310962677001953125">
        <ele>1311.800048828125</ele>
        <time>2026-06-17T08:31:02.000Z</time>
        <extensions>
          <ns3:TrackPointExtension>
            <ns3:atemp>25.0</ns3:atemp>
          </ns3:TrackPointExtension>
        </extensions>
      </trkpt>
      <trkpt lat="42.54355092532932758331298828125" lon="19.9570405483245849609375">
        <ele>1311.800048828125</ele>
        <time>2026-06-17T08:31:03.000Z</time>
        <extensions>
          <ns3:TrackPointExtension>
            <ns3:atemp>25.0</ns3:atemp>
          </ns3:TrackPointExtension>
        </extensions>
      </trkpt>
      <trkpt lat="42.543530724942684173583984375" lon="19.95705337263643741607666015625">
        <ele>1312</ele>
        <time>2026-06-17T08:31:04.000Z</time>
        <extensions>
          <ns3:TrackPointExtension>
            <ns3:atemp>25.0</ns3:atemp>
          </ns3:TrackPointExtension>
        </extensions>
      </trkpt>
      <trkpt lat="42.54350901581346988677978515625" lon="19.957066364586353302001953125">
        <ele>1312</ele>
        <time>2026-06-17T08:31:05.000Z</time>
        <extensions>
          <ns3:TrackPointExtension>
            <ns3:atemp>25.0</ns3:atemp>
          </ns3:TrackPointExtension>
        </extensions>
      </trkpt>
      <trkpt lat="42.543489150702953338623046875" lon="19.9570789374411106109619140625">
        <ele>1312.199951171875</ele>
        <time>2026-06-17T08:31:06.000Z</time>
        <extensions>
          <ns3:TrackPointExtension>
            <ns3:atemp>25.0</ns3:atemp>
          </ns3:TrackPointExtension>
        </extensions>
      </trkpt>
      <trkpt lat="42.5434735603630542755126953125" lon="19.95708279311656951904296875">
        <ele>1312.4000244140625</ele>
        <time>2026-06-17T08:31:07.000Z</time>
        <extensions>
          <ns3:TrackPointExtension>
            <ns3:atemp>25.0</ns3:atemp>
          </ns3:TrackPointExtension>
        </extensions>
      </trkpt>
      <trkpt lat="42.543453611433506011962890625" lon="19.9570913426578044891357421875">
        <ele>1312.4000244140625</ele>
        <time>2026-06-17T08:31:08.000Z</time>
        <extensions>
          <ns3:TrackPointExtension>
            <ns3:atemp>25.0</ns3:atemp>
          </ns3:TrackPointExtension>
        </extensions>
      </trkpt>
      <trkpt lat="42.54343383014202117919921875" lon="19.957096874713897705078125">
        <ele>1312.5999755859375</ele>
        <time>2026-06-17T08:31:09.000Z</time>
        <extensions>
          <ns3:TrackPointExtension>
            <ns3:atemp>25.0</ns3:atemp>
          </ns3:TrackPointExtension>
        </extensions>
      </trkpt>
      <trkpt lat="42.54341312684118747711181640625" lon="19.9571007303893566131591796875">
        <ele>1312.800048828125</ele>
        <time>2026-06-17T08:31:10.000Z</time>
        <extensions>
          <ns3:TrackPointExtension>
            <ns3:atemp>25.0</ns3:atemp>
          </ns3:TrackPointExtension>
        </extensions>
      </trkpt>
      <trkpt lat="42.54339150153100490570068359375" lon="19.95710617862641811370849609375">
        <ele>1313</ele>
        <time>2026-06-17T08:31:11.000Z</time>
        <extensions>
          <ns3:TrackPointExtension>
            <ns3:atemp>25.0</ns3:atemp>
          </ns3:TrackPointExtension>
        </extensions>
      </trkpt>
      <trkpt lat="42.54336903803050518035888671875" lon="19.95711766183376312255859375">
        <ele>1313</ele>
        <time>2026-06-17T08:31:12.000Z</time>
        <extensions>
          <ns3:TrackPointExtension>
            <ns3:atemp>25.0</ns3:atemp>
          </ns3:TrackPointExtension>
        </extensions>
      </trkpt>
      <trkpt lat="42.5433434732258319854736328125" lon="19.95712696574628353118896484375">
        <ele>1313.199951171875</ele>
        <time>2026-06-17T08:31:13.000Z</time>
        <extensions>
          <ns3:TrackPointExtension>
            <ns3:atemp>25.0</ns3:atemp>
          </ns3:TrackPointExtension>
        </extensions>
      </trkpt>
      <trkpt lat="42.54332360811531543731689453125" lon="19.95712847448885440826416015625">
        <ele>1313.4000244140625</ele>
        <time>2026-06-17T08:31:14.000Z</time>
        <extensions>
          <ns3:TrackPointExtension>
            <ns3:atemp>25.0</ns3:atemp>
          </ns3:TrackPointExtension>
        </extensions>
      </trkpt>
      <trkpt lat="42.543303407728672027587890625" lon="19.95713518001139163970947265625">
        <ele>1313.5999755859375</ele>
        <time>2026-06-17T08:31:15.000Z</time>
        <extensions>
          <ns3:TrackPointExtension>
            <ns3:atemp>25.0</ns3:atemp>
          </ns3:TrackPointExtension>
        </extensions>
      </trkpt>
      <trkpt lat="42.5432844646275043487548828125" lon="19.95714507065713405609130859375">
        <ele>1313.5999755859375</ele>
        <time>2026-06-17T08:31:16.000Z</time>
        <extensions>
          <ns3:TrackPointExtension>
            <ns3:atemp>25.0</ns3:atemp>
          </ns3:TrackPointExtension>
        </extensions>
      </trkpt>
      <trkpt lat="42.54326510243117809295654296875" lon="19.957158230245113372802734375">
        <ele>1313.800048828125</ele>
        <time>2026-06-17T08:31:17.000Z</time>
        <extensions>
          <ns3:TrackPointExtension>
            <ns3:atemp>25.0</ns3:atemp>
          </ns3:TrackPointExtension>
        </extensions>
      </trkpt>
      <trkpt lat="42.54324716515839099884033203125" lon="19.9571661092340946197509765625">
        <ele>1313.800048828125</ele>
        <time>2026-06-17T08:31:18.000Z</time>
        <extensions>
          <ns3:TrackPointExtension>
            <ns3:atemp>25.0</ns3:atemp>
          </ns3:TrackPointExtension>
        </extensions>
      </trkpt>
      <trkpt lat="42.5432319939136505126953125" lon="19.95718195103108882904052734375">
        <ele>1314</ele>
        <time>2026-06-17T08:31:19.000Z</time>
        <extensions>
          <ns3:TrackPointExtension>
            <ns3:atemp>25.0</ns3:atemp>
          </ns3:TrackPointExtension>
        </extensions>
      </trkpt>
      <trkpt lat="42.54321866668760776519775390625" lon="19.95719670318067073822021484375">
        <ele>1314</ele>
        <time>2026-06-17T08:31:20.000Z</time>
        <extensions>
          <ns3:TrackPointExtension>
            <ns3:atemp>25.0</ns3:atemp>
          </ns3:TrackPointExtension>
        </extensions>
      </trkpt>
      <trkpt lat="42.543204836547374725341796875" lon="19.95721195824444293975830078125">
        <ele>1314.199951171875</ele>
        <time>2026-06-17T08:31:21.000Z</time>
        <extensions>
          <ns3:TrackPointExtension>
            <ns3:atemp>25.0</ns3:atemp>
          </ns3:TrackPointExtension>
        </extensions>
      </trkpt>
      <trkpt lat="42.54318765364587306976318359375" lon="19.957230985164642333984375">
        <ele>1314.199951171875</ele>
        <time>2026-06-17T08:31:22.000Z</time>
        <extensions>
          <ns3:TrackPointExtension>
            <ns3:atemp>25.0</ns3:atemp>
          </ns3:TrackPointExtension>
        </extensions>
      </trkpt>
      <trkpt lat="42.5431701354682445526123046875" lon="19.9572522751986980438232421875">
        <ele>1314.4000244140625</ele>
        <time>2026-06-17T08:31:23.000Z</time>
        <extensions>
          <ns3:TrackPointExtension>
            <ns3:atemp>25.0</ns3:atemp>
          </ns3:TrackPointExtension>
        </extensions>
      </trkpt>
      <trkpt lat="42.5431540422141551971435546875" lon="19.957273565232753753662109375">
        <ele>1314.5999755859375</ele>
        <time>2026-06-17T08:31:24.000Z</time>
        <extensions>
          <ns3:TrackPointExtension>
            <ns3:atemp>25.0</ns3:atemp>
          </ns3:TrackPointExtension>
        </extensions>
      </trkpt>
      <trkpt lat="42.5431406311690807342529296875" lon="19.957288317382335662841796875">
        <ele>1314.5999755859375</ele>
        <time>2026-06-17T08:31:25.000Z</time>
        <extensions>
          <ns3:TrackPointExtension>
            <ns3:atemp>25.0</ns3:atemp>
          </ns3:TrackPointExtension>
        </extensions>
      </trkpt>
      <trkpt lat="42.54312093369662761688232421875" lon="19.95730332098901271820068359375">
        <ele>1314.800048828125</ele>
        <time>2026-06-17T08:31:26.000Z</time>
        <extensions>
          <ns3:TrackPointExtension>
            <ns3:atemp>25.0</ns3:atemp>
          </ns3:TrackPointExtension>
        </extensions>
      </trkpt>
      <trkpt lat="42.54310500808060169219970703125" lon="19.95731706731021404266357421875">
        <ele>1315</ele>
        <time>2026-06-17T08:31:27.000Z</time>
        <extensions>
          <ns3:TrackPointExtension>
            <ns3:atemp>25.0</ns3:atemp>
          </ns3:TrackPointExtension>
        </extensions>
      </trkpt>
      <trkpt lat="42.54308623261749744415283203125" lon="19.95732997544109821319580078125">
        <ele>1315</ele>
        <time>2026-06-17T08:31:28.000Z</time>
        <extensions>
          <ns3:TrackPointExtension>
            <ns3:atemp>25.0</ns3:atemp>
          </ns3:TrackPointExtension>
        </extensions>
      </trkpt>
      <trkpt lat="42.543067373335361480712890625" lon="19.95734388940036296844482421875">
        <ele>1315.199951171875</ele>
        <time>2026-06-17T08:31:29.000Z</time>
        <extensions>
          <ns3:TrackPointExtension>
            <ns3:atemp>25.0</ns3:atemp>
          </ns3:TrackPointExtension>
        </extensions>
      </trkpt>
      <trkpt lat="42.5430484302341938018798828125" lon="19.9573568813502788543701171875">
        <ele>1315.199951171875</ele>
        <time>2026-06-17T08:31:30.000Z</time>
        <extensions>
          <ns3:TrackPointExtension>
            <ns3:atemp>25.0</ns3:atemp>
          </ns3:TrackPointExtension>
        </extensions>
      </trkpt>
      <trkpt lat="42.54303057678043842315673828125" lon="19.95736584998667240142822265625">
        <ele>1315.4000244140625</ele>
        <time>2026-06-17T08:31:31.000Z</time>
        <extensions>
          <ns3:TrackPointExtension>
            <ns3:atemp>25.0</ns3:atemp>
          </ns3:TrackPointExtension>
        </extensions>
      </trkpt>
      <trkpt lat="42.54301431588828563690185546875" lon="19.95737456716597080230712890625">
        <ele>1315.5999755859375</ele>
        <time>2026-06-17T08:31:32.000Z</time>
        <extensions>
          <ns3:TrackPointExtension>
            <ns3:atemp>25.0</ns3:atemp>
          </ns3:TrackPointExtension>
        </extensions>
      </trkpt>
      <trkpt lat="42.5429959595203399658203125" lon="19.95737724937498569488525390625">
        <ele>1315.5999755859375</ele>
        <time>2026-06-17T08:31:33.000Z</time>
        <extensions>
          <ns3:TrackPointExtension>
            <ns3:atemp>25.0</ns3:atemp>
          </ns3:TrackPointExtension>
        </extensions>
      </trkpt>
      <trkpt lat="42.542979530990123748779296875" lon="19.95738261379301548004150390625">
        <ele>1316</ele>
        <time>2026-06-17T08:31:34.000Z</time>
        <extensions>
          <ns3:TrackPointExtension>
            <ns3:atemp>25.0</ns3:atemp>
          </ns3:TrackPointExtension>
        </extensions>
      </trkpt>
      <trkpt lat="42.54296134226024150848388671875" lon="19.95738864876329898834228515625">
        <ele>1316</ele>
        <time>2026-06-17T08:31:35.000Z</time>
        <extensions>
          <ns3:TrackPointExtension>
            <ns3:atemp>25.0</ns3:atemp>
          </ns3:TrackPointExtension>
        </extensions>
      </trkpt>
      <trkpt lat="42.54294290207326412200927734375" lon="19.9573914147913455963134765625">
        <ele>1316.199951171875</ele>
        <time>2026-06-17T08:31:36.000Z</time>
        <extensions>
          <ns3:TrackPointExtension>
            <ns3:atemp>25.0</ns3:atemp>
          </ns3:TrackPointExtension>
        </extensions>
      </trkpt>
      <trkpt lat="42.5429227016866207122802734375" lon="19.95739250443875789642333984375">
        <ele>1316.199951171875</ele>
        <time>2026-06-17T08:31:37.000Z</time>
        <extensions>
          <ns3:TrackPointExtension>
            <ns3:atemp>25.0</ns3:atemp>
          </ns3:TrackPointExtension>
        </extensions>
      </trkpt>
      <trkpt lat="42.542902417480945587158203125" lon="19.9573930911719799041748046875">
        <ele>1316.4000244140625</ele>
        <time>2026-06-17T08:31:38.000Z</time>
        <extensions>
          <ns3:TrackPointExtension>
            <ns3:atemp>25.0</ns3:atemp>
          </ns3:TrackPointExtension>
        </extensions>
      </trkpt>
      <trkpt lat="42.54288456402719020843505859375" lon="19.95739401318132877349853515625">
        <ele>1316.4000244140625</ele>
        <time>2026-06-17T08:31:39.000Z</time>
        <extensions>
          <ns3:TrackPointExtension>
            <ns3:atemp>25.0</ns3:atemp>
          </ns3:TrackPointExtension>
        </extensions>
      </trkpt>
      <trkpt lat="42.54286830313503742218017578125" lon="19.95739082805812358856201171875">
        <ele>1316.800048828125</ele>
        <time>2026-06-17T08:31:40.000Z</time>
        <extensions>
          <ns3:TrackPointExtension>
            <ns3:atemp>25.0</ns3:atemp>
          </ns3:TrackPointExtension>
        </extensions>
      </trkpt>
      <trkpt lat="42.5428536348044872283935546875" lon="19.9573857150971889495849609375">
        <ele>1316.800048828125</ele>
        <time>2026-06-17T08:31:41.000Z</time>
        <extensions>
          <ns3:TrackPointExtension>
            <ns3:atemp>25.0</ns3:atemp>
          </ns3:TrackPointExtension>
        </extensions>
      </trkpt>
      <trkpt lat="42.542837373912334442138671875" lon="19.9573838710784912109375">
        <ele>1316.800048828125</ele>
        <time>2026-06-17T08:31:42.000Z</time>
        <extensions>
          <ns3:TrackPointExtension>
            <ns3:atemp>25.0</ns3:atemp>
          </ns3:TrackPointExtension>
        </extensions>
      </trkpt>
      <trkpt lat="42.5428189337253570556640625" lon="19.95738630183041095733642578125">
        <ele>1316.800048828125</ele>
        <time>2026-06-17T08:31:43.000Z</time>
        <extensions>
          <ns3:TrackPointExtension>
            <ns3:atemp>25.0</ns3:atemp>
          </ns3:TrackPointExtension>
        </extensions>
      </trkpt>
      <trkpt lat="42.54280108027160167694091796875" lon="19.95738915167748928070068359375">
        <ele>1317</ele>
        <time>2026-06-17T08:31:44.000Z</time>
        <extensions>
          <ns3:TrackPointExtension>
            <ns3:atemp>25.0</ns3:atemp>
          </ns3:TrackPointExtension>
        </extensions>
      </trkpt>
      <trkpt lat="42.54278515465557575225830078125" lon="19.9573954381048679351806640625">
        <ele>1317</ele>
        <time>2026-06-17T08:31:45.000Z</time>
        <extensions>
          <ns3:TrackPointExtension>
            <ns3:atemp>25.0</ns3:atemp>
          </ns3:TrackPointExtension>
        </extensions>
      </trkpt>
      <trkpt lat="42.5427667982876300811767578125" lon="19.95740122161805629730224609375">
        <ele>1317.199951171875</ele>
        <time>2026-06-17T08:31:46.000Z</time>
        <extensions>
          <ns3:TrackPointExtension>
            <ns3:atemp>25.0</ns3:atemp>
          </ns3:TrackPointExtension>
        </extensions>
      </trkpt>
      <trkpt lat="42.54274852573871612548828125" lon="19.9574038200080394744873046875">
        <ele>1317.199951171875</ele>
        <time>2026-06-17T08:31:47.000Z</time>
        <extensions>
          <ns3:TrackPointExtension>
            <ns3:atemp>25.0</ns3:atemp>
          </ns3:TrackPointExtension>
        </extensions>
      </trkpt>
      <trkpt lat="42.5427329353988170623779296875" lon="19.95740977115929126739501953125">
        <ele>1317.4000244140625</ele>
        <time>2026-06-17T08:31:48.000Z</time>
        <extensions>
          <ns3:TrackPointExtension>
            <ns3:atemp>25.0</ns3:atemp>
          </ns3:TrackPointExtension>
        </extensions>
      </trkpt>
      <trkpt lat="42.5427168421447277069091796875" lon="19.95741312392055988311767578125">
        <ele>1317.5999755859375</ele>
        <time>2026-06-17T08:31:49.000Z</time>
        <extensions>
          <ns3:TrackPointExtension>
            <ns3:atemp>25.0</ns3:atemp>
          </ns3:TrackPointExtension>
        </extensions>
      </trkpt>
      <trkpt lat="42.54269865341484546661376953125" lon="19.95741781778633594512939453125">
        <ele>1317.5999755859375</ele>
        <time>2026-06-17T08:31:50.000Z</time>
        <extensions>
          <ns3:TrackPointExtension>
            <ns3:atemp>25.0</ns3:atemp>
          </ns3:TrackPointExtension>
        </extensions>
      </trkpt>
      <trkpt lat="42.542680799961090087890625" lon="19.957424104213714599609375">
        <ele>1317.800048828125</ele>
        <time>2026-06-17T08:31:51.000Z</time>
        <extensions>
          <ns3:TrackPointExtension>
            <ns3:atemp>25.0</ns3:atemp>
          </ns3:TrackPointExtension>
        </extensions>
      </trkpt>
      <trkpt lat="42.542665041983127593994140625" lon="19.95743458159267902374267578125">
        <ele>1318</ele>
        <time>2026-06-17T08:31:52.000Z</time>
        <extensions>
          <ns3:TrackPointExtension>
            <ns3:atemp>25.0</ns3:atemp>
          </ns3:TrackPointExtension>
        </extensions>
      </trkpt>
      <trkpt lat="42.54265062510967254638671875" lon="19.9574507586658000946044921875">
        <ele>1318.199951171875</ele>
        <time>2026-06-17T08:31:53.000Z</time>
        <extensions>
          <ns3:TrackPointExtension>
            <ns3:atemp>25.0</ns3:atemp>
          </ns3:TrackPointExtension>
        </extensions>
      </trkpt>
      <trkpt lat="42.54263277165591716766357421875" lon="19.95746408589184284210205078125">
        <ele>1318.4000244140625</ele>
        <time>2026-06-17T08:31:54.000Z</time>
        <extensions>
          <ns3:TrackPointExtension>
            <ns3:atemp>25.0</ns3:atemp>
          </ns3:TrackPointExtension>
        </extensions>
      </trkpt>
      <trkpt lat="42.54261399619281291961669921875" lon="19.9574738927185535430908203125">
        <ele>1318.5999755859375</ele>
        <time>2026-06-17T08:31:55.000Z</time>
        <extensions>
          <ns3:TrackPointExtension>
            <ns3:atemp>25.0</ns3:atemp>
          </ns3:TrackPointExtension>
        </extensions>
      </trkpt>
      <trkpt lat="42.54259589128196239471435546875" lon="19.95748051442205905914306640625">
        <ele>1319</ele>
        <time>2026-06-17T08:31:56.000Z</time>
        <extensions>
          <ns3:TrackPointExtension>
            <ns3:atemp>25.0</ns3:atemp>
          </ns3:TrackPointExtension>
        </extensions>
      </trkpt>
      <trkpt lat="42.5425770319998264312744140625" lon="19.95748755522072315216064453125">
        <ele>1319.199951171875</ele>
        <time>2026-06-17T08:31:57.000Z</time>
        <extensions>
          <ns3:TrackPointExtension>
            <ns3:atemp>25.0</ns3:atemp>
          </ns3:TrackPointExtension>
        </extensions>
      </trkpt>
      <trkpt lat="42.54256186075508594512939453125" lon="19.95749694295227527618408203125">
        <ele>1319.4000244140625</ele>
        <time>2026-06-17T08:31:58.000Z</time>
        <extensions>
          <ns3:TrackPointExtension>
            <ns3:atemp>25.0</ns3:atemp>
          </ns3:TrackPointExtension>
        </extensions>
      </trkpt>
      <trkpt lat="42.54254275001585483551025390625" lon="19.95750515721738338470458984375">
        <ele>1319.5999755859375</ele>
        <time>2026-06-17T08:31:59.000Z</time>
        <extensions>
          <ns3:TrackPointExtension>
            <ns3:atemp>25.0</ns3:atemp>
          </ns3:TrackPointExtension>
        </extensions>
      </trkpt>
      <trkpt lat="42.5425240583717823028564453125" lon="19.95751571841537952423095703125">
        <ele>1320</ele>
        <time>2026-06-17T08:32:00.000Z</time>
        <extensions>
          <ns3:TrackPointExtension>
            <ns3:atemp>25.0</ns3:atemp>
          </ns3:TrackPointExtension>
        </extensions>
      </trkpt>
      <trkpt lat="42.54250771366059780120849609375" lon="19.95752711780369281768798828125">
        <ele>1320.199951171875</ele>
        <time>2026-06-17T08:32:01.000Z</time>
        <extensions>
          <ns3:TrackPointExtension>
            <ns3:atemp>25.0</ns3:atemp>
          </ns3:TrackPointExtension>
        </extensions>
      </trkpt>
      <trkpt lat="42.54249027930200099945068359375" lon="19.9575329013168811798095703125">
        <ele>1320.4000244140625</ele>
        <time>2026-06-17T08:32:02.000Z</time>
        <extensions>
          <ns3:TrackPointExtension>
            <ns3:atemp>25.0</ns3:atemp>
          </ns3:TrackPointExtension>
        </extensions>
      </trkpt>
      <trkpt lat="42.54247217439115047454833984375" lon="19.95753617025911808013916015625">
        <ele>1320.800048828125</ele>
        <time>2026-06-17T08:32:03.000Z</time>
        <extensions>
          <ns3:TrackPointExtension>
            <ns3:atemp>25.0</ns3:atemp>
          </ns3:TrackPointExtension>
        </extensions>
      </trkpt>
      <trkpt lat="42.54245758987963199615478515625" lon="19.95754606090486049652099609375">
        <ele>1321</ele>
        <time>2026-06-17T08:32:04.000Z</time>
        <extensions>
          <ns3:TrackPointExtension>
            <ns3:atemp>25.0</ns3:atemp>
          </ns3:TrackPointExtension>
        </extensions>
      </trkpt>
      <trkpt lat="42.54244132898747920989990234375" lon="19.95755611918866634368896484375">
        <ele>1321.4000244140625</ele>
        <time>2026-06-17T08:32:05.000Z</time>
        <extensions>
          <ns3:TrackPointExtension>
            <ns3:atemp>25.0</ns3:atemp>
          </ns3:TrackPointExtension>
        </extensions>
      </trkpt>
      <trkpt lat="42.54242599010467529296875" lon="19.957567937672138214111328125">
        <ele>1321.5999755859375</ele>
        <time>2026-06-17T08:32:06.000Z</time>
        <extensions>
          <ns3:TrackPointExtension>
            <ns3:atemp>25.0</ns3:atemp>
          </ns3:TrackPointExtension>
        </extensions>
      </trkpt>
      <trkpt lat="42.5424124114215373992919921875" lon="19.95757573284208774566650390625">
        <ele>1322</ele>
        <time>2026-06-17T08:32:07.000Z</time>
        <extensions>
          <ns3:TrackPointExtension>
            <ns3:atemp>25.0</ns3:atemp>
          </ns3:TrackPointExtension>
        </extensions>
      </trkpt>
      <trkpt lat="42.54239573143422603607177734375" lon="19.95759132318198680877685546875">
        <ele>1322.199951171875</ele>
        <time>2026-06-17T08:32:08.000Z</time>
        <extensions>
          <ns3:TrackPointExtension>
            <ns3:atemp>25.0</ns3:atemp>
          </ns3:TrackPointExtension>
        </extensions>
      </trkpt>
      <trkpt lat="42.54237762652337551116943359375" lon="19.95760255493223667144775390625">
        <ele>1322.4000244140625</ele>
        <time>2026-06-17T08:32:09.000Z</time>
        <extensions>
          <ns3:TrackPointExtension>
            <ns3:atemp>25.0</ns3:atemp>
          </ns3:TrackPointExtension>
        </extensions>
      </trkpt>
      <trkpt lat="42.54236153326928615570068359375" lon="19.957607500255107879638671875">
        <ele>1322.800048828125</ele>
        <time>2026-06-17T08:32:10.000Z</time>
        <extensions>
          <ns3:TrackPointExtension>
            <ns3:atemp>25.0</ns3:atemp>
          </ns3:TrackPointExtension>
        </extensions>
      </trkpt>
      <trkpt lat="42.54234627820551395416259765625" lon="19.957611858844757080078125">
        <ele>1323.199951171875</ele>
        <time>2026-06-17T08:32:11.000Z</time>
        <extensions>
          <ns3:TrackPointExtension>
            <ns3:atemp>25.0</ns3:atemp>
          </ns3:TrackPointExtension>
        </extensions>
      </trkpt>
      <trkpt lat="42.54233035258948802947998046875" lon="19.95761252939701080322265625">
        <ele>1323.4000244140625</ele>
        <time>2026-06-17T08:32:12.000Z</time>
        <extensions>
          <ns3:TrackPointExtension>
            <ns3:atemp>25.0</ns3:atemp>
          </ns3:TrackPointExtension>
        </extensions>
      </trkpt>
      <trkpt lat="42.54231090657413005828857421875" lon="19.9576083384454250335693359375">
        <ele>1323.5999755859375</ele>
        <time>2026-06-17T08:32:13.000Z</time>
        <extensions>
          <ns3:TrackPointExtension>
            <ns3:atemp>25.0</ns3:atemp>
          </ns3:TrackPointExtension>
        </extensions>
      </trkpt>
      <trkpt lat="42.54229648970067501068115234375" lon="19.95759752579033374786376953125">
        <ele>1324</ele>
        <time>2026-06-17T08:32:14.000Z</time>
        <extensions>
          <ns3:TrackPointExtension>
            <ns3:atemp>25.0</ns3:atemp>
          </ns3:TrackPointExtension>
        </extensions>
      </trkpt>
      <trkpt lat="42.542285509407520294189453125" lon="19.95757891796529293060302734375">
        <ele>1324.199951171875</ele>
        <time>2026-06-17T08:32:15.000Z</time>
        <extensions>
          <ns3:TrackPointExtension>
            <ns3:atemp>25.0</ns3:atemp>
          </ns3:TrackPointExtension>
        </extensions>
      </trkpt>
      <trkpt lat="42.542276121675968170166015625" lon="19.95755695737898349761962890625">
        <ele>1324.4000244140625</ele>
        <time>2026-06-17T08:32:16.000Z</time>
        <extensions>
          <ns3:TrackPointExtension>
            <ns3:atemp>25.0</ns3:atemp>
          </ns3:TrackPointExtension>
        </extensions>
      </trkpt>
      <trkpt lat="42.54227419383823871612548828125" lon="19.95753365568816661834716796875">
        <ele>1324.5999755859375</ele>
        <time>2026-06-17T08:32:17.000Z</time>
        <extensions>
          <ns3:TrackPointExtension>
            <ns3:atemp>25.0</ns3:atemp>
          </ns3:TrackPointExtension>
        </extensions>
      </trkpt>
      <trkpt lat="42.54227704368531703948974609375" lon="19.957514964044094085693359375">
        <ele>1324.5999755859375</ele>
        <time>2026-06-17T08:32:18.000Z</time>
        <extensions>
          <ns3:TrackPointExtension>
            <ns3:atemp>25.0</ns3:atemp>
          </ns3:TrackPointExtension>
        </extensions>
      </trkpt>
      <trkpt lat="42.54228475503623485565185546875" lon="19.95750281028449535369873046875">
        <ele>1324.800048828125</ele>
        <time>2026-06-17T08:32:19.000Z</time>
        <extensions>
          <ns3:TrackPointExtension>
            <ns3:atemp>25.0</ns3:atemp>
          </ns3:TrackPointExtension>
        </extensions>
      </trkpt>
      <trkpt lat="42.542293556034564971923828125" lon="19.95749241672456264495849609375">
        <ele>1325.199951171875</ele>
        <time>2026-06-17T08:32:20.000Z</time>
        <extensions>
          <ns3:TrackPointExtension>
            <ns3:atemp>25.0</ns3:atemp>
          </ns3:TrackPointExtension>
        </extensions>
      </trkpt>
      <trkpt lat="42.54230202175676822662353515625" lon="19.95747565291821956634521484375">
        <ele>1325.4000244140625</ele>
        <time>2026-06-17T08:32:21.000Z</time>
        <extensions>
          <ns3:TrackPointExtension>
            <ns3:atemp>25.0</ns3:atemp>
          </ns3:TrackPointExtension>
        </extensions>
      </trkpt>
      <trkpt lat="42.54231140948832035064697265625" lon="19.957455284893512725830078125">
        <ele>1325.800048828125</ele>
        <time>2026-06-17T08:32:22.000Z</time>
        <extensions>
          <ns3:TrackPointExtension>
            <ns3:atemp>25.0</ns3:atemp>
          </ns3:TrackPointExtension>
        </extensions>
      </trkpt>
      <trkpt lat="42.54232029430568218231201171875" lon="19.95744145475327968597412109375">
        <ele>1326</ele>
        <time>2026-06-17T08:32:23.000Z</time>
        <extensions>
          <ns3:TrackPointExtension>
            <ns3:atemp>25.0</ns3:atemp>
          </ns3:TrackPointExtension>
        </extensions>
      </trkpt>
      <trkpt lat="42.54233010113239288330078125" lon="19.95742469094693660736083984375">
        <ele>1326.4000244140625</ele>
        <time>2026-06-17T08:32:24.000Z</time>
        <extensions>
          <ns3:TrackPointExtension>
            <ns3:atemp>25.0</ns3:atemp>
          </ns3:TrackPointExtension>
        </extensions>
      </trkpt>
      <trkpt lat="42.5423399917781352996826171875" lon="19.95741144753992557525634765625">
        <ele>1326.4000244140625</ele>
        <time>2026-06-17T08:32:25.000Z</time>
        <extensions>
          <ns3:TrackPointExtension>
            <ns3:atemp>25.0</ns3:atemp>
          </ns3:TrackPointExtension>
        </extensions>
      </trkpt>
      <trkpt lat="42.54234979860484600067138671875" lon="19.9573947675526142120361328125">
        <ele>1326.5999755859375</ele>
        <time>2026-06-17T08:32:26.000Z</time>
        <extensions>
          <ns3:TrackPointExtension>
            <ns3:atemp>25.0</ns3:atemp>
          </ns3:TrackPointExtension>
        </extensions>
      </trkpt>
      <trkpt lat="42.542361952364444732666015625" lon="19.95737859047949314117431640625">
        <ele>1326.800048828125</ele>
        <time>2026-06-17T08:32:27.000Z</time>
        <extensions>
          <ns3:TrackPointExtension>
            <ns3:atemp>25.0</ns3:atemp>
          </ns3:TrackPointExtension>
        </extensions>
      </trkpt>
      <trkpt lat="42.542370669543743133544921875" lon="19.957357384264469146728515625">
        <ele>1327</ele>
        <time>2026-06-17T08:32:28.000Z</time>
        <extensions>
          <ns3:TrackPointExtension>
            <ns3:atemp>25.0</ns3:atemp>
          </ns3:TrackPointExtension>
        </extensions>
      </trkpt>
      <trkpt lat="42.54237745888531208038330078125" lon="19.95733684860169887542724609375">
        <ele>1327.199951171875</ele>
        <time>2026-06-17T08:32:29.000Z</time>
        <extensions>
          <ns3:TrackPointExtension>
            <ns3:atemp>25.0</ns3:atemp>
          </ns3:TrackPointExtension>
        </extensions>
      </trkpt>
      <trkpt lat="42.542385756969451904296875" lon="19.957317151129245758056640625">
        <ele>1327.4000244140625</ele>
        <time>2026-06-17T08:32:30.000Z</time>
        <extensions>
          <ns3:TrackPointExtension>
            <ns3:atemp>25.0</ns3:atemp>
          </ns3:TrackPointExtension>
        </extensions>
      </trkpt>
      <trkpt lat="42.54239045083522796630859375" lon="19.957293011248111724853515625">
        <ele>1327.800048828125</ele>
        <time>2026-06-17T08:32:31.000Z</time>
        <extensions>
          <ns3:TrackPointExtension>
            <ns3:atemp>25.0</ns3:atemp>
          </ns3:TrackPointExtension>
        </extensions>
      </trkpt>
      <trkpt lat="42.54239439032971858978271484375" lon="19.9572653509676456451416015625">
        <ele>1328</ele>
        <time>2026-06-17T08:32:32.000Z</time>
        <extensions>
          <ns3:TrackPointExtension>
            <ns3:atemp>25.0</ns3:atemp>
          </ns3:TrackPointExtension>
        </extensions>
      </trkpt>
      <trkpt lat="42.54240076057612895965576171875" lon="19.9572438932955265045166015625">
        <ele>1328.199951171875</ele>
        <time>2026-06-17T08:32:33.000Z</time>
        <extensions>
          <ns3:TrackPointExtension>
            <ns3:atemp>25.0</ns3:atemp>
          </ns3:TrackPointExtension>
        </extensions>
      </trkpt>
      <trkpt lat="42.54240243695676326751708984375" lon="19.95721782557666301727294921875">
        <ele>1328.4000244140625</ele>
        <time>2026-06-17T08:32:34.000Z</time>
        <extensions>
          <ns3:TrackPointExtension>
            <ns3:atemp>25.0</ns3:atemp>
          </ns3:TrackPointExtension>
        </extensions>
      </trkpt>
      <trkpt lat="42.542405538260936737060546875" lon="19.95719234459102153778076171875">
        <ele>1328.5999755859375</ele>
        <time>2026-06-17T08:32:35.000Z</time>
        <extensions>
          <ns3:TrackPointExtension>
            <ns3:atemp>25.0</ns3:atemp>
          </ns3:TrackPointExtension>
        </extensions>
      </trkpt>
      <trkpt lat="42.542408891022205352783203125" lon="19.957171641290187835693359375">
        <ele>1328.800048828125</ele>
        <time>2026-06-17T08:32:36.000Z</time>
        <extensions>
          <ns3:TrackPointExtension>
            <ns3:atemp>25.0</ns3:atemp>
          </ns3:TrackPointExtension>
        </extensions>
      </trkpt>
      <trkpt lat="42.54241148941218852996826171875" lon="19.9571500159800052642822265625">
        <ele>1328.800048828125</ele>
        <time>2026-06-17T08:32:37.000Z</time>
        <extensions>
          <ns3:TrackPointExtension>
            <ns3:atemp>25.0</ns3:atemp>
          </ns3:TrackPointExtension>
        </extensions>
      </trkpt>
      <trkpt lat="42.542418278753757476806640625" lon="19.95712813921272754669189453125">
        <ele>1329</ele>
        <time>2026-06-17T08:32:38.000Z</time>
        <extensions>
          <ns3:TrackPointExtension>
            <ns3:atemp>25.0</ns3:atemp>
          </ns3:TrackPointExtension>
        </extensions>
      </trkpt>
      <trkpt lat="42.5424251519143581390380859375" lon="19.95710584335029125213623046875">
        <ele>1329.199951171875</ele>
        <time>2026-06-17T08:32:39.000Z</time>
        <extensions>
          <ns3:TrackPointExtension>
            <ns3:atemp>25.0</ns3:atemp>
          </ns3:TrackPointExtension>
        </extensions>
      </trkpt>
      <trkpt lat="42.54242758266627788543701171875" lon="19.957085140049457550048828125">
        <ele>1329.4000244140625</ele>
        <time>2026-06-17T08:32:40.000Z</time>
        <extensions>
          <ns3:TrackPointExtension>
            <ns3:atemp>25.0</ns3:atemp>
          </ns3:TrackPointExtension>
        </extensions>
      </trkpt>
      <trkpt lat="42.5424338690936565399169921875" lon="19.9570651911199092864990234375">
        <ele>1329.5999755859375</ele>
        <time>2026-06-17T08:32:41.000Z</time>
        <extensions>
          <ns3:TrackPointExtension>
            <ns3:atemp>25.0</ns3:atemp>
          </ns3:TrackPointExtension>
        </extensions>
      </trkpt>
      <trkpt lat="42.5424432568252086639404296875" lon="19.95704130269587039947509765625">
        <ele>1330</ele>
        <time>2026-06-17T08:32:42.000Z</time>
        <extensions>
          <ns3:TrackPointExtension>
            <ns3:atemp>25.0</ns3:atemp>
          </ns3:TrackPointExtension>
        </extensions>
      </trkpt>
      <trkpt lat="42.542450129985809326171875" lon="19.9570190906524658203125">
        <ele>1330.199951171875</ele>
        <time>2026-06-17T08:32:43.000Z</time>
        <extensions>
          <ns3:TrackPointExtension>
            <ns3:atemp>25.0</ns3:atemp>
          </ns3:TrackPointExtension>
        </extensions>
      </trkpt>
      <trkpt lat="42.54245616495609283447265625" lon="19.95699805207550525665283203125">
        <ele>1330.5999755859375</ele>
        <time>2026-06-17T08:32:44.000Z</time>
        <extensions>
          <ns3:TrackPointExtension>
            <ns3:atemp>25.0</ns3:atemp>
          </ns3:TrackPointExtension>
        </extensions>
      </trkpt>
      <trkpt lat="42.542463876307010650634765625" lon="19.95698514394462108612060546875">
        <ele>1330.800048828125</ele>
        <time>2026-06-17T08:32:45.000Z</time>
        <extensions>
          <ns3:TrackPointExtension>
            <ns3:atemp>25.0</ns3:atemp>
          </ns3:TrackPointExtension>
        </extensions>
      </trkpt>
      <trkpt lat="42.54247225821018218994140625" lon="19.95697843842208385467529296875">
        <ele>1331.199951171875</ele>
        <time>2026-06-17T08:32:46.000Z</time>
        <extensions>
          <ns3:TrackPointExtension>
            <ns3:atemp>25.0</ns3:atemp>
          </ns3:TrackPointExtension>
        </extensions>
      </trkpt>
      <trkpt lat="42.5424851663410663604736328125" lon="19.95696477591991424560546875">
        <ele>1331.4000244140625</ele>
        <time>2026-06-17T08:32:47.000Z</time>
        <extensions>
          <ns3:TrackPointExtension>
            <ns3:atemp>25.0</ns3:atemp>
          </ns3:TrackPointExtension>
        </extensions>
      </trkpt>
      <trkpt lat="42.5424955599009990692138671875" lon="19.956957399845123291015625">
        <ele>1331.4000244140625</ele>
        <time>2026-06-17T08:32:48.000Z</time>
        <extensions>
          <ns3:TrackPointExtension>
            <ns3:atemp>25.0</ns3:atemp>
          </ns3:TrackPointExtension>
        </extensions>
      </trkpt>
      <trkpt lat="42.54250578582286834716796875" lon="19.95695077814161777496337890625">
        <ele>1331.4000244140625</ele>
        <time>2026-06-17T08:32:49.000Z</time>
        <extensions>
          <ns3:TrackPointExtension>
            <ns3:atemp>25.0</ns3:atemp>
          </ns3:TrackPointExtension>
        </extensions>
      </trkpt>
      <trkpt lat="42.54251626320183277130126953125" lon="19.95694071985781192779541015625">
        <ele>1331.4000244140625</ele>
        <time>2026-06-17T08:32:50.000Z</time>
        <extensions>
          <ns3:TrackPointExtension>
            <ns3:atemp>25.0</ns3:atemp>
          </ns3:TrackPointExtension>
        </extensions>
      </trkpt>
      <trkpt lat="42.5425230525434017181396484375" lon="19.956924207508563995361328125">
        <ele>1331.4000244140625</ele>
        <time>2026-06-17T08:32:51.000Z</time>
        <extensions>
          <ns3:TrackPointExtension>
            <ns3:atemp>25.0</ns3:atemp>
          </ns3:TrackPointExtension>
        </extensions>
      </trkpt>
      <trkpt lat="42.5425277464091777801513671875" lon="19.95690987445414066314697265625">
        <ele>1331.5999755859375</ele>
        <time>2026-06-17T08:32:52.000Z</time>
        <extensions>
          <ns3:TrackPointExtension>
            <ns3:atemp>25.0</ns3:atemp>
          </ns3:TrackPointExtension>
        </extensions>
      </trkpt>
      <trkpt lat="42.5425321049988269805908203125" lon="19.95689495466649532318115234375">
        <ele>1332</ele>
        <time>2026-06-17T08:32:53.000Z</time>
        <extensions>
          <ns3:TrackPointExtension>
            <ns3:atemp>25.0</ns3:atemp>
          </ns3:TrackPointExtension>
        </extensions>
      </trkpt>
      <trkpt lat="42.542535625398159027099609375" lon="19.95688104070723056793212890625">
        <ele>1332.4000244140625</ele>
        <time>2026-06-17T08:32:54.000Z</time>
        <extensions>
          <ns3:TrackPointExtension>
            <ns3:atemp>25.0</ns3:atemp>
          </ns3:TrackPointExtension>
        </extensions>
      </trkpt>
      <trkpt lat="42.54253931343555450439453125" lon="19.95686628855764865875244140625">
        <ele>1332.800048828125</ele>
        <time>2026-06-17T08:32:55.000Z</time>
        <extensions>
          <ns3:TrackPointExtension>
            <ns3:atemp>25.0</ns3:atemp>
          </ns3:TrackPointExtension>
        </extensions>
      </trkpt>
      <trkpt lat="42.54254107363522052764892578125" lon="19.95685421861708164215087890625">
        <ele>1333.199951171875</ele>
        <time>2026-06-17T08:32:56.000Z</time>
        <extensions>
          <ns3:TrackPointExtension>
            <ns3:atemp>25.0</ns3:atemp>
          </ns3:TrackPointExtension>
        </extensions>
      </trkpt>
      <trkpt lat="42.54254090599715709686279296875" lon="19.9568392150104045867919921875">
        <ele>1333.4000244140625</ele>
        <time>2026-06-17T08:32:57.000Z</time>
        <extensions>
          <ns3:TrackPointExtension>
            <ns3:atemp>25.0</ns3:atemp>
          </ns3:TrackPointExtension>
        </extensions>
      </trkpt>
      <trkpt lat="42.54254258237779140472412109375" lon="19.95682404376566410064697265625">
        <ele>1333.4000244140625</ele>
        <time>2026-06-17T08:32:58.000Z</time>
        <extensions>
          <ns3:TrackPointExtension>
            <ns3:atemp>25.0</ns3:atemp>
          </ns3:TrackPointExtension>
        </extensions>
      </trkpt>
      <trkpt lat="42.5425321049988269805908203125" lon="19.95682890526950359344482421875">
        <ele>1333.4000244140625</ele>
        <time>2026-06-17T08:32:59.000Z</time>
        <extensions>
          <ns3:TrackPointExtension>
            <ns3:atemp>25.0</ns3:atemp>
          </ns3:TrackPointExtension>
        </extensions>
      </trkpt>
      <trkpt lat="42.5425300933420658111572265625" lon="19.9568264745175838470458984375">
        <ele>1333.4000244140625</ele>
        <time>2026-06-17T08:33:00.000Z</time>
        <extensions>
          <ns3:TrackPointExtension>
            <ns3:atemp>25.0</ns3:atemp>
          </ns3:TrackPointExtension>
        </extensions>
      </trkpt>
      <trkpt lat="42.5425300933420658111572265625" lon="19.95682639069855213165283203125">
        <ele>1333.5999755859375</ele>
        <time>2026-06-17T08:33:01.000Z</time>
        <extensions>
          <ns3:TrackPointExtension>
            <ns3:atemp>25.0</ns3:atemp>
          </ns3:TrackPointExtension>
        </extensions>
      </trkpt>
      <trkpt lat="42.5425300933420658111572265625" lon="19.95682639069855213165283203125">
        <ele>1333.5999755859375</ele>
        <time>2026-06-17T08:33:02.000Z</time>
        <extensions>
          <ns3:TrackPointExtension>
            <ns3:atemp>25.0</ns3:atemp>
          </ns3:TrackPointExtension>
        </extensions>
      </trkpt>
      <trkpt lat="42.5425300933420658111572265625" lon="19.95682639069855213165283203125">
        <ele>1333.5999755859375</ele>
        <time>2026-06-17T08:33:03.000Z</time>
        <extensions>
          <ns3:TrackPointExtension>
            <ns3:atemp>25.0</ns3:atemp>
          </ns3:TrackPointExtension>
        </extensions>
      </trkpt>
      <trkpt lat="42.5425300933420658111572265625" lon="19.95682639069855213165283203125">
        <ele>1333.5999755859375</ele>
        <time>2026-06-17T08:33:04.000Z</time>
        <extensions>
          <ns3:TrackPointExtension>
            <ns3:atemp>25.0</ns3:atemp>
          </ns3:TrackPointExtension>
        </extensions>
      </trkpt>
      <trkpt lat="42.5425300933420658111572265625" lon="19.95682639069855213165283203125">
        <ele>1333.4000244140625</ele>
        <time>2026-06-17T08:33:05.000Z</time>
        <extensions>
          <ns3:TrackPointExtension>
            <ns3:atemp>25.0</ns3:atemp>
          </ns3:TrackPointExtension>
        </extensions>
      </trkpt>
      <trkpt lat="42.5425300933420658111572265625" lon="19.95682639069855213165283203125">
        <ele>1333.199951171875</ele>
        <time>2026-06-17T08:33:06.000Z</time>
        <extensions>
          <ns3:TrackPointExtension>
            <ns3:atemp>25.0</ns3:atemp>
          </ns3:TrackPointExtension>
        </extensions>
      </trkpt>
      <trkpt lat="42.5425300933420658111572265625" lon="19.95682639069855213165283203125">
        <ele>1333</ele>
        <time>2026-06-17T08:33:07.000Z</time>
        <extensions>
          <ns3:TrackPointExtension>
            <ns3:atemp>25.0</ns3:atemp>
          </ns3:TrackPointExtension>
        </extensions>
      </trkpt>
      <trkpt lat="42.5425300933420658111572265625" lon="19.95682639069855213165283203125">
        <ele>1333</ele>
        <time>2026-06-17T08:33:08.000Z</time>
        <extensions>
          <ns3:TrackPointExtension>
            <ns3:atemp>25.0</ns3:atemp>
          </ns3:TrackPointExtension>
        </extensions>
      </trkpt>
      <trkpt lat="42.5425300933420658111572265625" lon="19.95682639069855213165283203125">
        <ele>1333</ele>
        <time>2026-06-17T08:33:09.000Z</time>
        <extensions>
          <ns3:TrackPointExtension>
            <ns3:atemp>25.0</ns3:atemp>
          </ns3:TrackPointExtension>
        </extensions>
      </trkpt>
      <trkpt lat="42.5425300933420658111572265625" lon="19.95682639069855213165283203125">
        <ele>1333</ele>
        <time>2026-06-17T08:33:10.000Z</time>
        <extensions>
          <ns3:TrackPointExtension>
            <ns3:atemp>25.0</ns3:atemp>
          </ns3:TrackPointExtension>
        </extensions>
      </trkpt>
      <trkpt lat="42.5425300933420658111572265625" lon="19.95682639069855213165283203125">
        <ele>1333</ele>
        <time>2026-06-17T08:33:11.000Z</time>
        <extensions>
          <ns3:TrackPointExtension>
            <ns3:atemp>25.0</ns3:atemp>
          </ns3:TrackPointExtension>
        </extensions>
      </trkpt>
      <trkpt lat="42.5425300933420658111572265625" lon="19.95682639069855213165283203125">
        <ele>1333</ele>
        <time>2026-06-17T08:33:12.000Z</time>
        <extensions>
          <ns3:TrackPointExtension>
            <ns3:atemp>25.0</ns3:atemp>
          </ns3:TrackPointExtension>
        </extensions>
      </trkpt>
      <trkpt lat="42.5425300933420658111572265625" lon="19.95682639069855213165283203125">
        <ele>1332.800048828125</ele>
        <time>2026-06-17T08:33:13.000Z</time>
        <extensions>
          <ns3:TrackPointExtension>
            <ns3:atemp>25.0</ns3:atemp>
          </ns3:TrackPointExtension>
        </extensions>
      </trkpt>
      <trkpt lat="42.5425300933420658111572265625" lon="19.95682639069855213165283203125">
        <ele>1332.800048828125</ele>
        <time>2026-06-17T08:33:14.000Z</time>
        <extensions>
          <ns3:TrackPointExtension>
            <ns3:atemp>25.0</ns3:atemp>
          </ns3:TrackPointExtension>
        </extensions>
      </trkpt>
      <trkpt lat="42.5425300933420658111572265625" lon="19.95682639069855213165283203125">
        <ele>1332.800048828125</ele>
        <time>2026-06-17T08:33:15.000Z</time>
        <extensions>
          <ns3:TrackPointExtension>
            <ns3:atemp>25.0</ns3:atemp>
          </ns3:TrackPointExtension>
        </extensions>
      </trkpt>
      <trkpt lat="42.5425300933420658111572265625" lon="19.95682639069855213165283203125">
        <ele>1332.800048828125</ele>
        <time>2026-06-17T08:33:16.000Z</time>
        <extensions>
          <ns3:TrackPointExtension>
            <ns3:atemp>25.0</ns3:atemp>
          </ns3:TrackPointExtension>
        </extensions>
      </trkpt>
      <trkpt lat="42.5425300933420658111572265625" lon="19.95682639069855213165283203125">
        <ele>1332.800048828125</ele>
        <time>2026-06-17T08:33:17.000Z</time>
        <extensions>
          <ns3:TrackPointExtension>
            <ns3:atemp>25.0</ns3:atemp>
          </ns3:TrackPointExtension>
        </extensions>
      </trkpt>
      <trkpt lat="42.5425300933420658111572265625" lon="19.95682639069855213165283203125">
        <ele>1332.800048828125</ele>
        <time>2026-06-17T08:33:18.000Z</time>
        <extensions>
          <ns3:TrackPointExtension>
            <ns3:atemp>25.0</ns3:atemp>
          </ns3:TrackPointExtension>
        </extensions>
      </trkpt>
      <trkpt lat="42.5425300933420658111572265625" lon="19.95682639069855213165283203125">
        <ele>1332.800048828125</ele>
        <time>2026-06-17T08:33:19.000Z</time>
        <extensions>
          <ns3:TrackPointExtension>
            <ns3:atemp>25.0</ns3:atemp>
          </ns3:TrackPointExtension>
        </extensions>
      </trkpt>
      <trkpt lat="42.5425300933420658111572265625" lon="19.95682639069855213165283203125">
        <ele>1332.800048828125</ele>
        <time>2026-06-17T08:33:20.000Z</time>
        <extensions>
          <ns3:TrackPointExtension>
            <ns3:atemp>25.0</ns3:atemp>
          </ns3:TrackPointExtension>
        </extensions>
      </trkpt>
      <trkpt lat="42.5425300933420658111572265625" lon="19.95682639069855213165283203125">
        <ele>1332.800048828125</ele>
        <time>2026-06-17T08:33:21.000Z</time>
        <extensions>
          <ns3:TrackPointExtension>
            <ns3:atemp>25.0</ns3:atemp>
          </ns3:TrackPointExtension>
        </extensions>
      </trkpt>
      <trkpt lat="42.5425300933420658111572265625" lon="19.95682639069855213165283203125">
        <ele>1332.800048828125</ele>
        <time>2026-06-17T08:33:22.000Z</time>
        <extensions>
          <ns3:TrackPointExtension>
            <ns3:atemp>25.0</ns3:atemp>
          </ns3:TrackPointExtension>
        </extensions>
      </trkpt>
      <trkpt lat="42.5425300933420658111572265625" lon="19.95682639069855213165283203125">
        <ele>1332.800048828125</ele>
        <time>2026-06-17T08:33:23.000Z</time>
        <extensions>
          <ns3:TrackPointExtension>
            <ns3:atemp>25.0</ns3:atemp>
          </ns3:TrackPointExtension>
        </extensions>
      </trkpt>
      <trkpt lat="42.5425300933420658111572265625" lon="19.95682639069855213165283203125">
        <ele>1332.800048828125</ele>
        <time>2026-06-17T08:33:24.000Z</time>
        <extensions>
          <ns3:TrackPointExtension>
            <ns3:atemp>25.0</ns3:atemp>
          </ns3:TrackPointExtension>
        </extensions>
      </trkpt>
      <trkpt lat="42.5425300933420658111572265625" lon="19.95682639069855213165283203125">
        <ele>1332.800048828125</ele>
        <time>2026-06-17T08:33:25.000Z</time>
        <extensions>
          <ns3:TrackPointExtension>
            <ns3:atemp>25.0</ns3:atemp>
          </ns3:TrackPointExtension>
        </extensions>
      </trkpt>
      <trkpt lat="42.5425300933420658111572265625" lon="19.95682639069855213165283203125">
        <ele>1332.800048828125</ele>
        <time>2026-06-17T08:33:26.000Z</time>
        <extensions>
          <ns3:TrackPointExtension>
            <ns3:atemp>25.0</ns3:atemp>
          </ns3:TrackPointExtension>
        </extensions>
      </trkpt>
      <trkpt lat="42.5425300933420658111572265625" lon="19.95682639069855213165283203125">
        <ele>1332.5999755859375</ele>
        <time>2026-06-17T08:33:27.000Z</time>
        <extensions>
          <ns3:TrackPointExtension>
            <ns3:atemp>25.0</ns3:atemp>
          </ns3:TrackPointExtension>
        </extensions>
      </trkpt>
      <trkpt lat="42.5425300933420658111572265625" lon="19.95682639069855213165283203125">
        <ele>1332.5999755859375</ele>
        <time>2026-06-17T08:33:28.000Z</time>
        <extensions>
          <ns3:TrackPointExtension>
            <ns3:atemp>25.0</ns3:atemp>
          </ns3:TrackPointExtension>
        </extensions>
      </trkpt>
      <trkpt lat="42.5425300933420658111572265625" lon="19.95682639069855213165283203125">
        <ele>1332.5999755859375</ele>
        <time>2026-06-17T08:33:29.000Z</time>
        <extensions>
          <ns3:TrackPointExtension>
            <ns3:atemp>25.0</ns3:atemp>
          </ns3:TrackPointExtension>
        </extensions>
      </trkpt>
      <trkpt lat="42.5425300933420658111572265625" lon="19.95682639069855213165283203125">
        <ele>1332.5999755859375</ele>
        <time>2026-06-17T08:33:30.000Z</time>
        <extensions>
          <ns3:TrackPointExtension>
            <ns3:atemp>25.0</ns3:atemp>
          </ns3:TrackPointExtension>
        </extensions>
      </trkpt>
      <trkpt lat="42.5425300933420658111572265625" lon="19.95682639069855213165283203125">
        <ele>1332.5999755859375</ele>
        <time>2026-06-17T08:33:31.000Z</time>
        <extensions>
          <ns3:TrackPointExtension>
            <ns3:atemp>25.0</ns3:atemp>
          </ns3:TrackPointExtension>
        </extensions>
      </trkpt>
      <trkpt lat="42.5425300933420658111572265625" lon="19.95682639069855213165283203125">
        <ele>1332.800048828125</ele>
        <time>2026-06-17T08:33:32.000Z</time>
        <extensions>
          <ns3:TrackPointExtension>
            <ns3:atemp>25.0</ns3:atemp>
          </ns3:TrackPointExtension>
        </extensions>
      </trkpt>
      <trkpt lat="42.5425300933420658111572265625" lon="19.95682639069855213165283203125">
        <ele>1332.800048828125</ele>
        <time>2026-06-17T08:33:33.000Z</time>
        <extensions>
          <ns3:TrackPointExtension>
            <ns3:atemp>25.0</ns3:atemp>
          </ns3:TrackPointExtension>
        </extensions>
      </trkpt>
      <trkpt lat="42.5425300933420658111572265625" lon="19.95682639069855213165283203125">
        <ele>1332.800048828125</ele>
        <time>2026-06-17T08:33:34.000Z</time>
        <extensions>
          <ns3:TrackPointExtension>
            <ns3:atemp>25.0</ns3:atemp>
          </ns3:TrackPointExtension>
        </extensions>
      </trkpt>
      <trkpt lat="42.5425300933420658111572265625" lon="19.95682639069855213165283203125">
        <ele>1332.800048828125</ele>
        <time>2026-06-17T08:33:35.000Z</time>
        <extensions>
          <ns3:TrackPointExtension>
            <ns3:atemp>25.0</ns3:atemp>
          </ns3:TrackPointExtension>
        </extensions>
      </trkpt>
      <trkpt lat="42.5425300933420658111572265625" lon="19.95682639069855213165283203125">
        <ele>1332.800048828125</ele>
        <time>2026-06-17T08:33:36.000Z</time>
        <extensions>
          <ns3:TrackPointExtension>
            <ns3:atemp>25.0</ns3:atemp>
          </ns3:TrackPointExtension>
        </extensions>
      </trkpt>
      <trkpt lat="42.5425300933420658111572265625" lon="19.95682639069855213165283203125">
        <ele>1332.800048828125</ele>
        <time>2026-06-17T08:33:37.000Z</time>
        <extensions>
          <ns3:TrackPointExtension>
            <ns3:atemp>25.0</ns3:atemp>
          </ns3:TrackPointExtension>
        </extensions>
      </trkpt>
      <trkpt lat="42.5425300933420658111572265625" lon="19.95682639069855213165283203125">
        <ele>1332.5999755859375</ele>
        <time>2026-06-17T08:33:38.000Z</time>
        <extensions>
          <ns3:TrackPointExtension>
            <ns3:atemp>25.0</ns3:atemp>
          </ns3:TrackPointExtension>
        </extensions>
      </trkpt>
      <trkpt lat="42.5425300933420658111572265625" lon="19.95682639069855213165283203125">
        <ele>1332.5999755859375</ele>
        <time>2026-06-17T08:33:39.000Z</time>
        <extensions>
          <ns3:TrackPointExtension>
            <ns3:atemp>25.0</ns3:atemp>
          </ns3:TrackPointExtension>
        </extensions>
      </trkpt>
      <trkpt lat="42.5425300933420658111572265625" lon="19.95682639069855213165283203125">
        <ele>1332.5999755859375</ele>
        <time>2026-06-17T08:33:40.000Z</time>
        <extensions>
          <ns3:TrackPointExtension>
            <ns3:atemp>25.0</ns3:atemp>
          </ns3:TrackPointExtension>
        </extensions>
      </trkpt>
      <trkpt lat="42.5425300933420658111572265625" lon="19.95682639069855213165283203125">
        <ele>1332.5999755859375</ele>
        <time>2026-06-17T08:33:41.000Z</time>
        <extensions>
          <ns3:TrackPointExtension>
            <ns3:atemp>25.0</ns3:atemp>
          </ns3:TrackPointExtension>
        </extensions>
      </trkpt>
      <trkpt lat="42.5425300933420658111572265625" lon="19.95682639069855213165283203125">
        <ele>1332.5999755859375</ele>
        <time>2026-06-17T08:33:42.000Z</time>
        <extensions>
          <ns3:TrackPointExtension>
            <ns3:atemp>25.0</ns3:atemp>
          </ns3:TrackPointExtension>
        </extensions>
      </trkpt>
      <trkpt lat="42.5425300933420658111572265625" lon="19.95682639069855213165283203125">
        <ele>1332.5999755859375</ele>
        <time>2026-06-17T08:33:43.000Z</time>
        <extensions>
          <ns3:TrackPointExtension>
            <ns3:atemp>26.0</ns3:atemp>
          </ns3:TrackPointExtension>
        </extensions>
      </trkpt>
      <trkpt lat="42.5425300933420658111572265625" lon="19.95682639069855213165283203125">
        <ele>1332.5999755859375</ele>
        <time>2026-06-17T08:33:44.000Z</time>
        <extensions>
          <ns3:TrackPointExtension>
            <ns3:atemp>26.0</ns3:atemp>
          </ns3:TrackPointExtension>
        </extensions>
      </trkpt>
      <trkpt lat="42.5425300933420658111572265625" lon="19.95682639069855213165283203125">
        <ele>1332.5999755859375</ele>
        <time>2026-06-17T08:33:45.000Z</time>
        <extensions>
          <ns3:TrackPointExtension>
            <ns3:atemp>26.0</ns3:atemp>
          </ns3:TrackPointExtension>
        </extensions>
      </trkpt>
      <trkpt lat="42.5425300933420658111572265625" lon="19.95682639069855213165283203125">
        <ele>1332.5999755859375</ele>
        <time>2026-06-17T08:33:46.000Z</time>
        <extensions>
          <ns3:TrackPointExtension>
            <ns3:atemp>25.0</ns3:atemp>
          </ns3:TrackPointExtension>
        </extensions>
      </trkpt>
      <trkpt lat="42.5425300933420658111572265625" lon="19.95682639069855213165283203125">
        <ele>1332.5999755859375</ele>
        <time>2026-06-17T08:33:47.000Z</time>
        <extensions>
          <ns3:TrackPointExtension>
            <ns3:atemp>25.0</ns3:atemp>
          </ns3:TrackPointExtension>
        </extensions>
      </trkpt>
      <trkpt lat="42.5425300933420658111572265625" lon="19.95682639069855213165283203125">
        <ele>1332.5999755859375</ele>
        <time>2026-06-17T08:33:48.000Z</time>
        <extensions>
          <ns3:TrackPointExtension>
            <ns3:atemp>25.0</ns3:atemp>
          </ns3:TrackPointExtension>
        </extensions>
      </trkpt>
      <trkpt lat="42.5425300933420658111572265625" lon="19.95682639069855213165283203125">
        <ele>1332.5999755859375</ele>
        <time>2026-06-17T08:33:49.000Z</time>
        <extensions>
          <ns3:TrackPointExtension>
            <ns3:atemp>25.0</ns3:atemp>
          </ns3:TrackPointExtension>
        </extensions>
      </trkpt>
      <trkpt lat="42.5425300933420658111572265625" lon="19.95682639069855213165283203125">
        <ele>1332.5999755859375</ele>
        <time>2026-06-17T08:33:50.000Z</time>
        <extensions>
          <ns3:TrackPointExtension>
            <ns3:atemp>25.0</ns3:atemp>
          </ns3:TrackPointExtension>
        </extensions>
      </trkpt>
      <trkpt lat="42.5425300933420658111572265625" lon="19.95682639069855213165283203125">
        <ele>1332.5999755859375</ele>
        <time>2026-06-17T08:33:51.000Z</time>
        <extensions>
          <ns3:TrackPointExtension>
            <ns3:atemp>26.0</ns3:atemp>
          </ns3:TrackPointExtension>
        </extensions>
      </trkpt>
      <trkpt lat="42.5425300933420658111572265625" lon="19.95682639069855213165283203125">
        <ele>1332.5999755859375</ele>
        <time>2026-06-17T08:33:52.000Z</time>
        <extensions>
          <ns3:TrackPointExtension>
            <ns3:atemp>26.0</ns3:atemp>
          </ns3:TrackPointExtension>
        </extensions>
      </trkpt>
      <trkpt lat="42.5425300933420658111572265625" lon="19.95682639069855213165283203125">
        <ele>1332.5999755859375</ele>
        <time>2026-06-17T08:33:53.000Z</time>
        <extensions>
          <ns3:TrackPointExtension>
            <ns3:atemp>26.0</ns3:atemp>
          </ns3:TrackPointExtension>
        </extensions>
      </trkpt>
      <trkpt lat="42.5425300933420658111572265625" lon="19.95682639069855213165283203125">
        <ele>1332.5999755859375</ele>
        <time>2026-06-17T08:33:54.000Z</time>
        <extensions>
          <ns3:TrackPointExtension>
            <ns3:atemp>26.0</ns3:atemp>
          </ns3:TrackPointExtension>
        </extensions>
      </trkpt>
      <trkpt lat="42.5425300933420658111572265625" lon="19.95682639069855213165283203125">
        <ele>1332.4000244140625</ele>
        <time>2026-06-17T08:33:55.000Z</time>
        <extensions>
          <ns3:TrackPointExtension>
            <ns3:atemp>26.0</ns3:atemp>
          </ns3:TrackPointExtension>
        </extensions>
      </trkpt>
      <trkpt lat="42.5425300933420658111572265625" lon="19.95682639069855213165283203125">
        <ele>1332.4000244140625</ele>
        <time>2026-06-17T08:33:56.000Z</time>
        <extensions>
          <ns3:TrackPointExtension>
            <ns3:atemp>26.0</ns3:atemp>
          </ns3:TrackPointExtension>
        </extensions>
      </trkpt>
      <trkpt lat="42.5425300933420658111572265625" lon="19.95682639069855213165283203125">
        <ele>1332.4000244140625</ele>
        <time>2026-06-17T08:33:57.000Z</time>
        <extensions>
          <ns3:TrackPointExtension>
            <ns3:atemp>26.0</ns3:atemp>
          </ns3:TrackPointExtension>
        </extensions>
      </trkpt>
      <trkpt lat="42.5425300933420658111572265625" lon="19.95682639069855213165283203125">
        <ele>1332.4000244140625</ele>
        <time>2026-06-17T08:33:58.000Z</time>
        <extensions>
          <ns3:TrackPointExtension>
            <ns3:atemp>26.0</ns3:atemp>
          </ns3:TrackPointExtension>
        </extensions>
      </trkpt>
      <trkpt lat="42.5425300933420658111572265625" lon="19.95682639069855213165283203125">
        <ele>1332.5999755859375</ele>
        <time>2026-06-17T08:33:59.000Z</time>
        <extensions>
          <ns3:TrackPointExtension>
            <ns3:atemp>26.0</ns3:atemp>
          </ns3:TrackPointExtension>
        </extensions>
      </trkpt>
      <trkpt lat="42.5425300933420658111572265625" lon="19.95682639069855213165283203125">
        <ele>1332.5999755859375</ele>
        <time>2026-06-17T08:34:00.000Z</time>
        <extensions>
          <ns3:TrackPointExtension>
            <ns3:atemp>26.0</ns3:atemp>
          </ns3:TrackPointExtension>
        </extensions>
      </trkpt>
      <trkpt lat="42.5425300933420658111572265625" lon="19.95682639069855213165283203125">
        <ele>1332.5999755859375</ele>
        <time>2026-06-17T08:34:01.000Z</time>
        <extensions>
          <ns3:TrackPointExtension>
            <ns3:atemp>26.0</ns3:atemp>
          </ns3:TrackPointExtension>
        </extensions>
      </trkpt>
      <trkpt lat="42.5425300933420658111572265625" lon="19.95682639069855213165283203125">
        <ele>1332.5999755859375</ele>
        <time>2026-06-17T08:34:02.000Z</time>
        <extensions>
          <ns3:TrackPointExtension>
            <ns3:atemp>26.0</ns3:atemp>
          </ns3:TrackPointExtension>
        </extensions>
      </trkpt>
      <trkpt lat="42.5425300933420658111572265625" lon="19.95682639069855213165283203125">
        <ele>1332.5999755859375</ele>
        <time>2026-06-17T08:34:03.000Z</time>
        <extensions>
          <ns3:TrackPointExtension>
            <ns3:atemp>26.0</ns3:atemp>
          </ns3:TrackPointExtension>
        </extensions>
      </trkpt>
      <trkpt lat="42.5425300933420658111572265625" lon="19.95682639069855213165283203125">
        <ele>1332.5999755859375</ele>
        <time>2026-06-17T08:34:04.000Z</time>
        <extensions>
          <ns3:TrackPointExtension>
            <ns3:atemp>26.0</ns3:atemp>
          </ns3:TrackPointExtension>
        </extensions>
      </trkpt>
      <trkpt lat="42.5425300933420658111572265625" lon="19.95682639069855213165283203125">
        <ele>1332.5999755859375</ele>
        <time>2026-06-17T08:34:05.000Z</time>
        <extensions>
          <ns3:TrackPointExtension>
            <ns3:atemp>26.0</ns3:atemp>
          </ns3:TrackPointExtension>
        </extensions>
      </trkpt>
      <trkpt lat="42.5425300933420658111572265625" lon="19.95682639069855213165283203125">
        <ele>1332.5999755859375</ele>
        <time>2026-06-17T08:34:06.000Z</time>
        <extensions>
          <ns3:TrackPointExtension>
            <ns3:atemp>26.0</ns3:atemp>
          </ns3:TrackPointExtension>
        </extensions>
      </trkpt>
      <trkpt lat="42.5425300933420658111572265625" lon="19.95682639069855213165283203125">
        <ele>1332.5999755859375</ele>
        <time>2026-06-17T08:34:07.000Z</time>
        <extensions>
          <ns3:TrackPointExtension>
            <ns3:atemp>26.0</ns3:atemp>
          </ns3:TrackPointExtension>
        </extensions>
      </trkpt>
      <trkpt lat="42.5425300933420658111572265625" lon="19.95682639069855213165283203125">
        <ele>1332.5999755859375</ele>
        <time>2026-06-17T08:34:08.000Z</time>
        <extensions>
          <ns3:TrackPointExtension>
            <ns3:atemp>26.0</ns3:atemp>
          </ns3:TrackPointExtension>
        </extensions>
      </trkpt>
      <trkpt lat="42.5425300933420658111572265625" lon="19.95682639069855213165283203125">
        <ele>1332.5999755859375</ele>
        <time>2026-06-17T08:34:09.000Z</time>
        <extensions>
          <ns3:TrackPointExtension>
            <ns3:atemp>26.0</ns3:atemp>
          </ns3:TrackPointExtension>
        </extensions>
      </trkpt>
      <trkpt lat="42.5425300933420658111572265625" lon="19.95682639069855213165283203125">
        <ele>1332.5999755859375</ele>
        <time>2026-06-17T08:34:10.000Z</time>
        <extensions>
          <ns3:TrackPointExtension>
            <ns3:atemp>26.0</ns3:atemp>
          </ns3:TrackPointExtension>
        </extensions>
      </trkpt>
      <trkpt lat="42.5425300933420658111572265625" lon="19.95682639069855213165283203125">
        <ele>1332.5999755859375</ele>
        <time>2026-06-17T08:34:11.000Z</time>
        <extensions>
          <ns3:TrackPointExtension>
            <ns3:atemp>26.0</ns3:atemp>
          </ns3:TrackPointExtension>
        </extensions>
      </trkpt>
      <trkpt lat="42.5425300933420658111572265625" lon="19.95682639069855213165283203125">
        <ele>1332.5999755859375</ele>
        <time>2026-06-17T08:34:12.000Z</time>
        <extensions>
          <ns3:TrackPointExtension>
            <ns3:atemp>26.0</ns3:atemp>
          </ns3:TrackPointExtension>
        </extensions>
      </trkpt>
      <trkpt lat="42.5425300933420658111572265625" lon="19.95682639069855213165283203125">
        <ele>1332.5999755859375</ele>
        <time>2026-06-17T08:34:13.000Z</time>
        <extensions>
          <ns3:TrackPointExtension>
            <ns3:atemp>26.0</ns3:atemp>
          </ns3:TrackPointExtension>
        </extensions>
      </trkpt>
      <trkpt lat="42.5425300933420658111572265625" lon="19.95682639069855213165283203125">
        <ele>1332.5999755859375</ele>
        <time>2026-06-17T08:34:14.000Z</time>
        <extensions>
          <ns3:TrackPointExtension>
            <ns3:atemp>26.0</ns3:atemp>
          </ns3:TrackPointExtension>
        </extensions>
      </trkpt>
      <trkpt lat="42.5425300933420658111572265625" lon="19.95682639069855213165283203125">
        <ele>1332.800048828125</ele>
        <time>2026-06-17T08:34:15.000Z</time>
        <extensions>
          <ns3:TrackPointExtension>
            <ns3:atemp>26.0</ns3:atemp>
          </ns3:TrackPointExtension>
        </extensions>
      </trkpt>
      <trkpt lat="42.5425300933420658111572265625" lon="19.95682639069855213165283203125">
        <ele>1332.800048828125</ele>
        <time>2026-06-17T08:34:16.000Z</time>
        <extensions>
          <ns3:TrackPointExtension>
            <ns3:atemp>26.0</ns3:atemp>
          </ns3:TrackPointExtension>
        </extensions>
      </trkpt>
      <trkpt lat="42.5425300933420658111572265625" lon="19.95682639069855213165283203125">
        <ele>1332.800048828125</ele>
        <time>2026-06-17T08:34:17.000Z</time>
        <extensions>
          <ns3:TrackPointExtension>
            <ns3:atemp>26.0</ns3:atemp>
          </ns3:TrackPointExtension>
        </extensions>
      </trkpt>
      <trkpt lat="42.5425300933420658111572265625" lon="19.95682639069855213165283203125">
        <ele>1332.800048828125</ele>
        <time>2026-06-17T08:34:18.000Z</time>
        <extensions>
          <ns3:TrackPointExtension>
            <ns3:atemp>26.0</ns3:atemp>
          </ns3:TrackPointExtension>
        </extensions>
      </trkpt>
      <trkpt lat="42.5425300933420658111572265625" lon="19.95682639069855213165283203125">
        <ele>1332.800048828125</ele>
        <time>2026-06-17T08:34:19.000Z</time>
        <extensions>
          <ns3:TrackPointExtension>
            <ns3:atemp>26.0</ns3:atemp>
          </ns3:TrackPointExtension>
        </extensions>
      </trkpt>
      <trkpt lat="42.5425300933420658111572265625" lon="19.95682639069855213165283203125">
        <ele>1332.800048828125</ele>
        <time>2026-06-17T08:34:20.000Z</time>
        <extensions>
          <ns3:TrackPointExtension>
            <ns3:atemp>26.0</ns3:atemp>
          </ns3:TrackPointExtension>
        </extensions>
      </trkpt>
      <trkpt lat="42.5425300933420658111572265625" lon="19.95682639069855213165283203125">
        <ele>1332.800048828125</ele>
        <time>2026-06-17T08:34:21.000Z</time>
        <extensions>
          <ns3:TrackPointExtension>
            <ns3:atemp>26.0</ns3:atemp>
          </ns3:TrackPointExtension>
        </extensions>
      </trkpt>
      <trkpt lat="42.5425300933420658111572265625" lon="19.95682639069855213165283203125">
        <ele>1332.800048828125</ele>
        <time>2026-06-17T08:34:22.000Z</time>
        <extensions>
          <ns3:TrackPointExtension>
            <ns3:atemp>26.0</ns3:atemp>
          </ns3:TrackPointExtension>
        </extensions>
      </trkpt>
      <trkpt lat="42.5425300933420658111572265625" lon="19.95682639069855213165283203125">
        <ele>1332.800048828125</ele>
        <time>2026-06-17T08:34:23.000Z</time>
        <extensions>
          <ns3:TrackPointExtension>
            <ns3:atemp>26.0</ns3:atemp>
          </ns3:TrackPointExtension>
        </extensions>
      </trkpt>
      <trkpt lat="42.5425300933420658111572265625" lon="19.95682639069855213165283203125">
        <ele>1332.800048828125</ele>
        <time>2026-06-17T08:34:24.000Z</time>
        <extensions>
          <ns3:TrackPointExtension>
            <ns3:atemp>26.0</ns3:atemp>
          </ns3:TrackPointExtension>
        </extensions>
      </trkpt>
      <trkpt lat="42.5425300933420658111572265625" lon="19.95682639069855213165283203125">
        <ele>1332.800048828125</ele>
        <time>2026-06-17T08:34:25.000Z</time>
        <extensions>
          <ns3:TrackPointExtension>
            <ns3:atemp>26.0</ns3:atemp>
          </ns3:TrackPointExtension>
        </extensions>
      </trkpt>
      <trkpt lat="42.5425300933420658111572265625" lon="19.95682639069855213165283203125">
        <ele>1332.5999755859375</ele>
        <time>2026-06-17T08:34:26.000Z</time>
        <extensions>
          <ns3:TrackPointExtension>
            <ns3:atemp>26.0</ns3:atemp>
          </ns3:TrackPointExtension>
        </extensions>
      </trkpt>
      <trkpt lat="42.5425300933420658111572265625" lon="19.95682639069855213165283203125">
        <ele>1332.5999755859375</ele>
        <time>2026-06-17T08:34:27.000Z</time>
        <extensions>
          <ns3:TrackPointExtension>
            <ns3:atemp>26.0</ns3:atemp>
          </ns3:TrackPointExtension>
        </extensions>
      </trkpt>
      <trkpt lat="42.5425300933420658111572265625" lon="19.95682639069855213165283203125">
        <ele>1332.5999755859375</ele>
        <time>2026-06-17T08:34:28.000Z</time>
        <extensions>
          <ns3:TrackPointExtension>
            <ns3:atemp>26.0</ns3:atemp>
          </ns3:TrackPointExtension>
        </extensions>
      </trkpt>
      <trkpt lat="42.5425300933420658111572265625" lon="19.95682639069855213165283203125">
        <ele>1332.800048828125</ele>
        <time>2026-06-17T08:34:29.000Z</time>
        <extensions>
          <ns3:TrackPointExtension>
            <ns3:atemp>26.0</ns3:atemp>
          </ns3:TrackPointExtension>
        </extensions>
      </trkpt>
      <trkpt lat="42.5425300933420658111572265625" lon="19.95682639069855213165283203125">
        <ele>1332.800048828125</ele>
        <time>2026-06-17T08:34:30.000Z</time>
        <extensions>
          <ns3:TrackPointExtension>
            <ns3:atemp>26.0</ns3:atemp>
          </ns3:TrackPointExtension>
        </extensions>
      </trkpt>
      <trkpt lat="42.5425300933420658111572265625" lon="19.95682639069855213165283203125">
        <ele>1332.800048828125</ele>
        <time>2026-06-17T08:34:31.000Z</time>
        <extensions>
          <ns3:TrackPointExtension>
            <ns3:atemp>26.0</ns3:atemp>
          </ns3:TrackPointExtension>
        </extensions>
      </trkpt>
      <trkpt lat="42.5425300933420658111572265625" lon="19.95682639069855213165283203125">
        <ele>1332.800048828125</ele>
        <time>2026-06-17T08:34:32.000Z</time>
        <extensions>
          <ns3:TrackPointExtension>
            <ns3:atemp>26.0</ns3:atemp>
          </ns3:TrackPointExtension>
        </extensions>
      </trkpt>
      <trkpt lat="42.5425300933420658111572265625" lon="19.95682639069855213165283203125">
        <ele>1333</ele>
        <time>2026-06-17T08:34:33.000Z</time>
        <extensions>
          <ns3:TrackPointExtension>
            <ns3:atemp>26.0</ns3:atemp>
          </ns3:TrackPointExtension>
        </extensions>
      </trkpt>
      <trkpt lat="42.5425300933420658111572265625" lon="19.95682639069855213165283203125">
        <ele>1333</ele>
        <time>2026-06-17T08:34:34.000Z</time>
        <extensions>
          <ns3:TrackPointExtension>
            <ns3:atemp>26.0</ns3:atemp>
          </ns3:TrackPointExtension>
        </extensions>
      </trkpt>
      <trkpt lat="42.5425300933420658111572265625" lon="19.95682639069855213165283203125">
        <ele>1333</ele>
        <time>2026-06-17T08:34:35.000Z</time>
        <extensions>
          <ns3:TrackPointExtension>
            <ns3:atemp>26.0</ns3:atemp>
          </ns3:TrackPointExtension>
        </extensions>
      </trkpt>
      <trkpt lat="42.5425300933420658111572265625" lon="19.95682639069855213165283203125">
        <ele>1333</ele>
        <time>2026-06-17T08:34:36.000Z</time>
        <extensions>
          <ns3:TrackPointExtension>
            <ns3:atemp>26.0</ns3:atemp>
          </ns3:TrackPointExtension>
        </extensions>
      </trkpt>
      <trkpt lat="42.5425300933420658111572265625" lon="19.95682639069855213165283203125">
        <ele>1333</ele>
        <time>2026-06-17T08:34:37.000Z</time>
        <extensions>
          <ns3:TrackPointExtension>
            <ns3:atemp>26.0</ns3:atemp>
          </ns3:TrackPointExtension>
        </extensions>
      </trkpt>
      <trkpt lat="42.5425300933420658111572265625" lon="19.95682639069855213165283203125">
        <ele>1333</ele>
        <time>2026-06-17T08:34:38.000Z</time>
        <extensions>
          <ns3:TrackPointExtension>
            <ns3:atemp>26.0</ns3:atemp>
          </ns3:TrackPointExtension>
        </extensions>
      </trkpt>
      <trkpt lat="42.5425300933420658111572265625" lon="19.95682639069855213165283203125">
        <ele>1333</ele>
        <time>2026-06-17T08:34:39.000Z</time>
        <extensions>
          <ns3:TrackPointExtension>
            <ns3:atemp>26.0</ns3:atemp>
          </ns3:TrackPointExtension>
        </extensions>
      </trkpt>
      <trkpt lat="42.5425300933420658111572265625" lon="19.95682639069855213165283203125">
        <ele>1333</ele>
        <time>2026-06-17T08:34:40.000Z</time>
        <extensions>
          <ns3:TrackPointExtension>
            <ns3:atemp>26.0</ns3:atemp>
          </ns3:TrackPointExtension>
        </extensions>
      </trkpt>
      <trkpt lat="42.5425300933420658111572265625" lon="19.95682639069855213165283203125">
        <ele>1333</ele>
        <time>2026-06-17T08:34:41.000Z</time>
        <extensions>
          <ns3:TrackPointExtension>
            <ns3:atemp>26.0</ns3:atemp>
          </ns3:TrackPointExtension>
        </extensions>
      </trkpt>
      <trkpt lat="42.5425300933420658111572265625" lon="19.95682639069855213165283203125">
        <ele>1333</ele>
        <time>2026-06-17T08:34:42.000Z</time>
        <extensions>
          <ns3:TrackPointExtension>
            <ns3:atemp>26.0</ns3:atemp>
          </ns3:TrackPointExtension>
        </extensions>
      </trkpt>
      <trkpt lat="42.5425300933420658111572265625" lon="19.95682639069855213165283203125">
        <ele>1333.199951171875</ele>
        <time>2026-06-17T08:34:43.000Z</time>
        <extensions>
          <ns3:TrackPointExtension>
            <ns3:atemp>26.0</ns3:atemp>
          </ns3:TrackPointExtension>
        </extensions>
      </trkpt>
      <trkpt lat="42.5425300933420658111572265625" lon="19.95682639069855213165283203125">
        <ele>1333.199951171875</ele>
        <time>2026-06-17T08:34:44.000Z</time>
        <extensions>
          <ns3:TrackPointExtension>
            <ns3:atemp>26.0</ns3:atemp>
          </ns3:TrackPointExtension>
        </extensions>
      </trkpt>
      <trkpt lat="42.5425300933420658111572265625" lon="19.95682639069855213165283203125">
        <ele>1333.199951171875</ele>
        <time>2026-06-17T08:34:45.000Z</time>
        <extensions>
          <ns3:TrackPointExtension>
            <ns3:atemp>26.0</ns3:atemp>
          </ns3:TrackPointExtension>
        </extensions>
      </trkpt>
      <trkpt lat="42.5425300933420658111572265625" lon="19.95682639069855213165283203125">
        <ele>1333.199951171875</ele>
        <time>2026-06-17T08:34:46.000Z</time>
        <extensions>
          <ns3:TrackPointExtension>
            <ns3:atemp>26.0</ns3:atemp>
          </ns3:TrackPointExtension>
        </extensions>
      </trkpt>
      <trkpt lat="42.5425300933420658111572265625" lon="19.95682639069855213165283203125">
        <ele>1333.199951171875</ele>
        <time>2026-06-17T08:34:47.000Z</time>
        <extensions>
          <ns3:TrackPointExtension>
            <ns3:atemp>26.0</ns3:atemp>
          </ns3:TrackPointExtension>
        </extensions>
      </trkpt>
      <trkpt lat="42.5425300933420658111572265625" lon="19.95682639069855213165283203125">
        <ele>1333.199951171875</ele>
        <time>2026-06-17T08:34:48.000Z</time>
        <extensions>
          <ns3:TrackPointExtension>
            <ns3:atemp>26.0</ns3:atemp>
          </ns3:TrackPointExtension>
        </extensions>
      </trkpt>
      <trkpt lat="42.5425300933420658111572265625" lon="19.95682639069855213165283203125">
        <ele>1333.199951171875</ele>
        <time>2026-06-17T08:34:49.000Z</time>
        <extensions>
          <ns3:TrackPointExtension>
            <ns3:atemp>26.0</ns3:atemp>
          </ns3:TrackPointExtension>
        </extensions>
      </trkpt>
      <trkpt lat="42.5425300933420658111572265625" lon="19.95682639069855213165283203125">
        <ele>1333.199951171875</ele>
        <time>2026-06-17T08:34:50.000Z</time>
        <extensions>
          <ns3:TrackPointExtension>
            <ns3:atemp>26.0</ns3:atemp>
          </ns3:TrackPointExtension>
        </extensions>
      </trkpt>
      <trkpt lat="42.5425300933420658111572265625" lon="19.95682639069855213165283203125">
        <ele>1333.199951171875</ele>
        <time>2026-06-17T08:34:51.000Z</time>
        <extensions>
          <ns3:TrackPointExtension>
            <ns3:atemp>26.0</ns3:atemp>
          </ns3:TrackPointExtension>
        </extensions>
      </trkpt>
      <trkpt lat="42.54253453575074672698974609375" lon="19.95682203210890293121337890625">
        <ele>1333.199951171875</ele>
        <time>2026-06-17T08:34:52.000Z</time>
        <extensions>
          <ns3:TrackPointExtension>
            <ns3:atemp>26.0</ns3:atemp>
          </ns3:TrackPointExtension>
        </extensions>
      </trkpt>
      <trkpt lat="42.54254710860550403594970703125" lon="19.9568085372447967529296875">
        <ele>1333.199951171875</ele>
        <time>2026-06-17T08:34:53.000Z</time>
        <extensions>
          <ns3:TrackPointExtension>
            <ns3:atemp>26.0</ns3:atemp>
          </ns3:TrackPointExtension>
        </extensions>
      </trkpt>
      <trkpt lat="42.54254694096744060516357421875" lon="19.95680778287351131439208984375">
        <ele>1333.199951171875</ele>
        <time>2026-06-17T08:34:54.000Z</time>
        <extensions>
          <ns3:TrackPointExtension>
            <ns3:atemp>26.0</ns3:atemp>
          </ns3:TrackPointExtension>
        </extensions>
      </trkpt>
      <trkpt lat="42.54254694096744060516357421875" lon="19.95680778287351131439208984375">
        <ele>1333.4000244140625</ele>
        <time>2026-06-17T08:34:55.000Z</time>
        <extensions>
          <ns3:TrackPointExtension>
            <ns3:atemp>26.0</ns3:atemp>
          </ns3:TrackPointExtension>
        </extensions>
      </trkpt>
      <trkpt lat="42.54254694096744060516357421875" lon="19.95680778287351131439208984375">
        <ele>1333.4000244140625</ele>
        <time>2026-06-17T08:34:56.000Z</time>
        <extensions>
          <ns3:TrackPointExtension>
            <ns3:atemp>26.0</ns3:atemp>
          </ns3:TrackPointExtension>
        </extensions>
      </trkpt>
      <trkpt lat="42.54254694096744060516357421875" lon="19.95680778287351131439208984375">
        <ele>1333.4000244140625</ele>
        <time>2026-06-17T08:34:57.000Z</time>
        <extensions>
          <ns3:TrackPointExtension>
            <ns3:atemp>26.0</ns3:atemp>
          </ns3:TrackPointExtension>
        </extensions>
      </trkpt>
      <trkpt lat="42.54254694096744060516357421875" lon="19.95680778287351131439208984375">
        <ele>1333.5999755859375</ele>
        <time>2026-06-17T08:34:58.000Z</time>
        <extensions>
          <ns3:TrackPointExtension>
            <ns3:atemp>26.0</ns3:atemp>
          </ns3:TrackPointExtension>
        </extensions>
      </trkpt>
      <trkpt lat="42.54254694096744060516357421875" lon="19.95680778287351131439208984375">
        <ele>1333.800048828125</ele>
        <time>2026-06-17T08:34:59.000Z</time>
        <extensions>
          <ns3:TrackPointExtension>
            <ns3:atemp>26.0</ns3:atemp>
          </ns3:TrackPointExtension>
        </extensions>
      </trkpt>
      <trkpt lat="42.54254694096744060516357421875" lon="19.95680778287351131439208984375">
        <ele>1333.800048828125</ele>
        <time>2026-06-17T08:35:00.000Z</time>
        <extensions>
          <ns3:TrackPointExtension>
            <ns3:atemp>26.0</ns3:atemp>
          </ns3:TrackPointExtension>
        </extensions>
      </trkpt>
      <trkpt lat="42.54254694096744060516357421875" lon="19.95680778287351131439208984375">
        <ele>1334</ele>
        <time>2026-06-17T08:35:01.000Z</time>
        <extensions>
          <ns3:TrackPointExtension>
            <ns3:atemp>26.0</ns3:atemp>
          </ns3:TrackPointExtension>
        </extensions>
      </trkpt>
      <trkpt lat="42.54254694096744060516357421875" lon="19.95680778287351131439208984375">
        <ele>1334</ele>
        <time>2026-06-17T08:35:02.000Z</time>
        <extensions>
          <ns3:TrackPointExtension>
            <ns3:atemp>26.0</ns3:atemp>
          </ns3:TrackPointExtension>
        </extensions>
      </trkpt>
      <trkpt lat="42.54254694096744060516357421875" lon="19.95680778287351131439208984375">
        <ele>1334</ele>
        <time>2026-06-17T08:35:03.000Z</time>
        <extensions>
          <ns3:TrackPointExtension>
            <ns3:atemp>26.0</ns3:atemp>
          </ns3:TrackPointExtension>
        </extensions>
      </trkpt>
      <trkpt lat="42.54254694096744060516357421875" lon="19.95680778287351131439208984375">
        <ele>1334</ele>
        <time>2026-06-17T08:35:04.000Z</time>
        <extensions>
          <ns3:TrackPointExtension>
            <ns3:atemp>26.0</ns3:atemp>
          </ns3:TrackPointExtension>
        </extensions>
      </trkpt>
      <trkpt lat="42.54254694096744060516357421875" lon="19.95680778287351131439208984375">
        <ele>1334</ele>
        <time>2026-06-17T08:35:05.000Z</time>
        <extensions>
          <ns3:TrackPointExtension>
            <ns3:atemp>26.0</ns3:atemp>
          </ns3:TrackPointExtension>
        </extensions>
      </trkpt>
      <trkpt lat="42.54254694096744060516357421875" lon="19.95680778287351131439208984375">
        <ele>1334</ele>
        <time>2026-06-17T08:35:06.000Z</time>
        <extensions>
          <ns3:TrackPointExtension>
            <ns3:atemp>26.0</ns3:atemp>
          </ns3:TrackPointExtension>
        </extensions>
      </trkpt>
      <trkpt lat="42.5425468571484088897705078125" lon="19.95680543594062328338623046875">
        <ele>1334.199951171875</ele>
        <time>2026-06-17T08:35:07.000Z</time>
        <extensions>
          <ns3:TrackPointExtension>
            <ns3:atemp>26.0</ns3:atemp>
          </ns3:TrackPointExtension>
        </extensions>
      </trkpt>
      <trkpt lat="42.54254694096744060516357421875" lon="19.95680778287351131439208984375">
        <ele>1334.199951171875</ele>
        <time>2026-06-17T08:35:08.000Z</time>
        <extensions>
          <ns3:TrackPointExtension>
            <ns3:atemp>26.0</ns3:atemp>
          </ns3:TrackPointExtension>
        </extensions>
      </trkpt>
      <trkpt lat="42.54254694096744060516357421875" lon="19.95680778287351131439208984375">
        <ele>1334.199951171875</ele>
        <time>2026-06-17T08:35:09.000Z</time>
        <extensions>
          <ns3:TrackPointExtension>
            <ns3:atemp>26.0</ns3:atemp>
          </ns3:TrackPointExtension>
        </extensions>
      </trkpt>
      <trkpt lat="42.54254576750099658966064453125" lon="19.95679713785648345947265625">
        <ele>1334.199951171875</ele>
        <time>2026-06-17T08:35:10.000Z</time>
        <extensions>
          <ns3:TrackPointExtension>
            <ns3:atemp>26.0</ns3:atemp>
          </ns3:TrackPointExtension>
        </extensions>
      </trkpt>
      <trkpt lat="42.542546689510345458984375" lon="19.9567952938377857208251953125">
        <ele>1334.199951171875</ele>
        <time>2026-06-17T08:35:11.000Z</time>
        <extensions>
          <ns3:TrackPointExtension>
            <ns3:atemp>26.0</ns3:atemp>
          </ns3:TrackPointExtension>
        </extensions>
      </trkpt>
      <trkpt lat="42.54254694096744060516357421875" lon="19.95680778287351131439208984375">
        <ele>1334.199951171875</ele>
        <time>2026-06-17T08:35:12.000Z</time>
        <extensions>
          <ns3:TrackPointExtension>
            <ns3:atemp>26.0</ns3:atemp>
          </ns3:TrackPointExtension>
        </extensions>
      </trkpt>
      <trkpt lat="42.54254694096744060516357421875" lon="19.95680778287351131439208984375">
        <ele>1334.199951171875</ele>
        <time>2026-06-17T08:35:13.000Z</time>
        <extensions>
          <ns3:TrackPointExtension>
            <ns3:atemp>26.0</ns3:atemp>
          </ns3:TrackPointExtension>
        </extensions>
      </trkpt>
      <trkpt lat="42.54254694096744060516357421875" lon="19.95680778287351131439208984375">
        <ele>1334.199951171875</ele>
        <time>2026-06-17T08:35:14.000Z</time>
        <extensions>
          <ns3:TrackPointExtension>
            <ns3:atemp>26.0</ns3:atemp>
          </ns3:TrackPointExtension>
        </extensions>
      </trkpt>
      <trkpt lat="42.54254694096744060516357421875" lon="19.95680778287351131439208984375">
        <ele>1334.199951171875</ele>
        <time>2026-06-17T08:35:15.000Z</time>
        <extensions>
          <ns3:TrackPointExtension>
            <ns3:atemp>26.0</ns3:atemp>
          </ns3:TrackPointExtension>
        </extensions>
      </trkpt>
      <trkpt lat="42.54254694096744060516357421875" lon="19.95680778287351131439208984375">
        <ele>1334.199951171875</ele>
        <time>2026-06-17T08:35:16.000Z</time>
        <extensions>
          <ns3:TrackPointExtension>
            <ns3:atemp>26.0</ns3:atemp>
          </ns3:TrackPointExtension>
        </extensions>
      </trkpt>
      <trkpt lat="42.54254694096744060516357421875" lon="19.95680778287351131439208984375">
        <ele>1334.199951171875</ele>
        <time>2026-06-17T08:35:17.000Z</time>
        <extensions>
          <ns3:TrackPointExtension>
            <ns3:atemp>26.0</ns3:atemp>
          </ns3:TrackPointExtension>
        </extensions>
      </trkpt>
      <trkpt lat="42.54254694096744060516357421875" lon="19.95680778287351131439208984375">
        <ele>1334.199951171875</ele>
        <time>2026-06-17T08:35:18.000Z</time>
        <extensions>
          <ns3:TrackPointExtension>
            <ns3:atemp>26.0</ns3:atemp>
          </ns3:TrackPointExtension>
        </extensions>
      </trkpt>
      <trkpt lat="42.54254694096744060516357421875" lon="19.95680778287351131439208984375">
        <ele>1334.199951171875</ele>
        <time>2026-06-17T08:35:19.000Z</time>
        <extensions>
          <ns3:TrackPointExtension>
            <ns3:atemp>26.0</ns3:atemp>
          </ns3:TrackPointExtension>
        </extensions>
      </trkpt>
      <trkpt lat="42.54254694096744060516357421875" lon="19.95680778287351131439208984375">
        <ele>1334.199951171875</ele>
        <time>2026-06-17T08:35:20.000Z</time>
        <extensions>
          <ns3:TrackPointExtension>
            <ns3:atemp>26.0</ns3:atemp>
          </ns3:TrackPointExtension>
        </extensions>
      </trkpt>
      <trkpt lat="42.54254694096744060516357421875" lon="19.95680778287351131439208984375">
        <ele>1334.199951171875</ele>
        <time>2026-06-17T08:35:21.000Z</time>
        <extensions>
          <ns3:TrackPointExtension>
            <ns3:atemp>26.0</ns3:atemp>
          </ns3:TrackPointExtension>
        </extensions>
      </trkpt>
      <trkpt lat="42.54254694096744060516357421875" lon="19.95680778287351131439208984375">
        <ele>1334.199951171875</ele>
        <time>2026-06-17T08:35:22.000Z</time>
        <extensions>
          <ns3:TrackPointExtension>
            <ns3:atemp>26.0</ns3:atemp>
          </ns3:TrackPointExtension>
        </extensions>
      </trkpt>
      <trkpt lat="42.54254694096744060516357421875" lon="19.95680778287351131439208984375">
        <ele>1334.199951171875</ele>
        <time>2026-06-17T08:35:23.000Z</time>
        <extensions>
          <ns3:TrackPointExtension>
            <ns3:atemp>26.0</ns3:atemp>
          </ns3:TrackPointExtension>
        </extensions>
      </trkpt>
      <trkpt lat="42.54254694096744060516357421875" lon="19.95680778287351131439208984375">
        <ele>1334.199951171875</ele>
        <time>2026-06-17T08:35:24.000Z</time>
        <extensions>
          <ns3:TrackPointExtension>
            <ns3:atemp>26.0</ns3:atemp>
          </ns3:TrackPointExtension>
        </extensions>
      </trkpt>
      <trkpt lat="42.54254694096744060516357421875" lon="19.95680778287351131439208984375">
        <ele>1334.199951171875</ele>
        <time>2026-06-17T08:35:25.000Z</time>
        <extensions>
          <ns3:TrackPointExtension>
            <ns3:atemp>26.0</ns3:atemp>
          </ns3:TrackPointExtension>
        </extensions>
      </trkpt>
      <trkpt lat="42.54254694096744060516357421875" lon="19.95680778287351131439208984375">
        <ele>1334.199951171875</ele>
        <time>2026-06-17T08:35:26.000Z</time>
        <extensions>
          <ns3:TrackPointExtension>
            <ns3:atemp>26.0</ns3:atemp>
          </ns3:TrackPointExtension>
        </extensions>
      </trkpt>
      <trkpt lat="42.54254694096744060516357421875" lon="19.95680778287351131439208984375">
        <ele>1334.199951171875</ele>
        <time>2026-06-17T08:35:27.000Z</time>
        <extensions>
          <ns3:TrackPointExtension>
            <ns3:atemp>26.0</ns3:atemp>
          </ns3:TrackPointExtension>
        </extensions>
      </trkpt>
      <trkpt lat="42.54254694096744060516357421875" lon="19.95680778287351131439208984375">
        <ele>1334.199951171875</ele>
        <time>2026-06-17T08:35:28.000Z</time>
        <extensions>
          <ns3:TrackPointExtension>
            <ns3:atemp>26.0</ns3:atemp>
          </ns3:TrackPointExtension>
        </extensions>
      </trkpt>
      <trkpt lat="42.54254694096744060516357421875" lon="19.95680778287351131439208984375">
        <ele>1334.199951171875</ele>
        <time>2026-06-17T08:35:29.000Z</time>
        <extensions>
          <ns3:TrackPointExtension>
            <ns3:atemp>26.0</ns3:atemp>
          </ns3:TrackPointExtension>
        </extensions>
      </trkpt>
      <trkpt lat="42.54254694096744060516357421875" lon="19.95680778287351131439208984375">
        <ele>1334.199951171875</ele>
        <time>2026-06-17T08:35:30.000Z</time>
        <extensions>
          <ns3:TrackPointExtension>
            <ns3:atemp>26.0</ns3:atemp>
          </ns3:TrackPointExtension>
        </extensions>
      </trkpt>
      <trkpt lat="42.54254241473972797393798828125" lon="19.95679378509521484375">
        <ele>1334.199951171875</ele>
        <time>2026-06-17T08:35:31.000Z</time>
        <extensions>
          <ns3:TrackPointExtension>
            <ns3:atemp>26.0</ns3:atemp>
          </ns3:TrackPointExtension>
        </extensions>
      </trkpt>
      <trkpt lat="42.5425357930362224578857421875" lon="19.956798143684864044189453125">
        <ele>1334.199951171875</ele>
        <time>2026-06-17T08:35:32.000Z</time>
        <extensions>
          <ns3:TrackPointExtension>
            <ns3:atemp>26.0</ns3:atemp>
          </ns3:TrackPointExtension>
        </extensions>
      </trkpt>
      <trkpt lat="42.54254694096744060516357421875" lon="19.95680778287351131439208984375">
        <ele>1334.4000244140625</ele>
        <time>2026-06-17T08:35:33.000Z</time>
        <extensions>
          <ns3:TrackPointExtension>
            <ns3:atemp>26.0</ns3:atemp>
          </ns3:TrackPointExtension>
        </extensions>
      </trkpt>
      <trkpt lat="42.54254694096744060516357421875" lon="19.95680778287351131439208984375">
        <ele>1334.4000244140625</ele>
        <time>2026-06-17T08:35:34.000Z</time>
        <extensions>
          <ns3:TrackPointExtension>
            <ns3:atemp>26.0</ns3:atemp>
          </ns3:TrackPointExtension>
        </extensions>
      </trkpt>
      <trkpt lat="42.54254694096744060516357421875" lon="19.95680778287351131439208984375">
        <ele>1334.5999755859375</ele>
        <time>2026-06-17T08:35:35.000Z</time>
        <extensions>
          <ns3:TrackPointExtension>
            <ns3:atemp>26.0</ns3:atemp>
          </ns3:TrackPointExtension>
        </extensions>
      </trkpt>
      <trkpt lat="42.54254694096744060516357421875" lon="19.95680778287351131439208984375">
        <ele>1334.800048828125</ele>
        <time>2026-06-17T08:35:36.000Z</time>
        <extensions>
          <ns3:TrackPointExtension>
            <ns3:atemp>26.0</ns3:atemp>
          </ns3:TrackPointExtension>
        </extensions>
      </trkpt>
      <trkpt lat="42.54254694096744060516357421875" lon="19.95680778287351131439208984375">
        <ele>1334.800048828125</ele>
        <time>2026-06-17T08:35:37.000Z</time>
        <extensions>
          <ns3:TrackPointExtension>
            <ns3:atemp>26.0</ns3:atemp>
          </ns3:TrackPointExtension>
        </extensions>
      </trkpt>
      <trkpt lat="42.54254694096744060516357421875" lon="19.95680778287351131439208984375">
        <ele>1334.800048828125</ele>
        <time>2026-06-17T08:35:38.000Z</time>
        <extensions>
          <ns3:TrackPointExtension>
            <ns3:atemp>26.0</ns3:atemp>
          </ns3:TrackPointExtension>
        </extensions>
      </trkpt>
      <trkpt lat="42.54254694096744060516357421875" lon="19.95680778287351131439208984375">
        <ele>1334.5999755859375</ele>
        <time>2026-06-17T08:35:39.000Z</time>
        <extensions>
          <ns3:TrackPointExtension>
            <ns3:atemp>26.0</ns3:atemp>
          </ns3:TrackPointExtension>
        </extensions>
      </trkpt>
      <trkpt lat="42.54254694096744060516357421875" lon="19.95680778287351131439208984375">
        <ele>1334.199951171875</ele>
        <time>2026-06-17T08:35:40.000Z</time>
        <extensions>
          <ns3:TrackPointExtension>
            <ns3:atemp>26.0</ns3:atemp>
          </ns3:TrackPointExtension>
        </extensions>
      </trkpt>
      <trkpt lat="42.54254694096744060516357421875" lon="19.95680778287351131439208984375">
        <ele>1333.800048828125</ele>
        <time>2026-06-17T08:35:41.000Z</time>
        <extensions>
          <ns3:TrackPointExtension>
            <ns3:atemp>26.0</ns3:atemp>
          </ns3:TrackPointExtension>
        </extensions>
      </trkpt>
      <trkpt lat="42.54254694096744060516357421875" lon="19.95680778287351131439208984375">
        <ele>1333.5999755859375</ele>
        <time>2026-06-17T08:35:42.000Z</time>
        <extensions>
          <ns3:TrackPointExtension>
            <ns3:atemp>26.0</ns3:atemp>
          </ns3:TrackPointExtension>
        </extensions>
      </trkpt>
      <trkpt lat="42.54254694096744060516357421875" lon="19.95680778287351131439208984375">
        <ele>1333.5999755859375</ele>
        <time>2026-06-17T08:35:43.000Z</time>
        <extensions>
          <ns3:TrackPointExtension>
            <ns3:atemp>26.0</ns3:atemp>
          </ns3:TrackPointExtension>
        </extensions>
      </trkpt>
      <trkpt lat="42.54254694096744060516357421875" lon="19.95680778287351131439208984375">
        <ele>1333.5999755859375</ele>
        <time>2026-06-17T08:35:44.000Z</time>
        <extensions>
          <ns3:TrackPointExtension>
            <ns3:atemp>26.0</ns3:atemp>
          </ns3:TrackPointExtension>
        </extensions>
      </trkpt>
      <trkpt lat="42.54254694096744060516357421875" lon="19.95680778287351131439208984375">
        <ele>1333.5999755859375</ele>
        <time>2026-06-17T08:35:45.000Z</time>
        <extensions>
          <ns3:TrackPointExtension>
            <ns3:atemp>26.0</ns3:atemp>
          </ns3:TrackPointExtension>
        </extensions>
      </trkpt>
      <trkpt lat="42.54254694096744060516357421875" lon="19.95680778287351131439208984375">
        <ele>1333.5999755859375</ele>
        <time>2026-06-17T08:35:46.000Z</time>
        <extensions>
          <ns3:TrackPointExtension>
            <ns3:atemp>26.0</ns3:atemp>
          </ns3:TrackPointExtension>
        </extensions>
      </trkpt>
      <trkpt lat="42.54254694096744060516357421875" lon="19.95680778287351131439208984375">
        <ele>1333.5999755859375</ele>
        <time>2026-06-17T08:35:47.000Z</time>
        <extensions>
          <ns3:TrackPointExtension>
            <ns3:atemp>26.0</ns3:atemp>
          </ns3:TrackPointExtension>
        </extensions>
      </trkpt>
      <trkpt lat="42.54254694096744060516357421875" lon="19.95680778287351131439208984375">
        <ele>1333.800048828125</ele>
        <time>2026-06-17T08:35:48.000Z</time>
        <extensions>
          <ns3:TrackPointExtension>
            <ns3:atemp>26.0</ns3:atemp>
          </ns3:TrackPointExtension>
        </extensions>
      </trkpt>
      <trkpt lat="42.54254694096744060516357421875" lon="19.95680778287351131439208984375">
        <ele>1333.800048828125</ele>
        <time>2026-06-17T08:35:49.000Z</time>
        <extensions>
          <ns3:TrackPointExtension>
            <ns3:atemp>26.0</ns3:atemp>
          </ns3:TrackPointExtension>
        </extensions>
      </trkpt>
      <trkpt lat="42.54254694096744060516357421875" lon="19.95680778287351131439208984375">
        <ele>1333.800048828125</ele>
        <time>2026-06-17T08:35:50.000Z</time>
        <extensions>
          <ns3:TrackPointExtension>
            <ns3:atemp>26.0</ns3:atemp>
          </ns3:TrackPointExtension>
        </extensions>
      </trkpt>
      <trkpt lat="42.54254694096744060516357421875" lon="19.95680778287351131439208984375">
        <ele>1333.800048828125</ele>
        <time>2026-06-17T08:35:51.000Z</time>
        <extensions>
          <ns3:TrackPointExtension>
            <ns3:atemp>26.0</ns3:atemp>
          </ns3:TrackPointExtension>
        </extensions>
      </trkpt>
      <trkpt lat="42.54254694096744060516357421875" lon="19.95680778287351131439208984375">
        <ele>1333.5999755859375</ele>
        <time>2026-06-17T08:35:52.000Z</time>
        <extensions>
          <ns3:TrackPointExtension>
            <ns3:atemp>26.0</ns3:atemp>
          </ns3:TrackPointExtension>
        </extensions>
      </trkpt>
      <trkpt lat="42.54254694096744060516357421875" lon="19.95680778287351131439208984375">
        <ele>1333.5999755859375</ele>
        <time>2026-06-17T08:35:53.000Z</time>
        <extensions>
          <ns3:TrackPointExtension>
            <ns3:atemp>26.0</ns3:atemp>
          </ns3:TrackPointExtension>
        </extensions>
      </trkpt>
      <trkpt lat="42.54254694096744060516357421875" lon="19.95680778287351131439208984375">
        <ele>1333.5999755859375</ele>
        <time>2026-06-17T08:35:54.000Z</time>
        <extensions>
          <ns3:TrackPointExtension>
            <ns3:atemp>26.0</ns3:atemp>
          </ns3:TrackPointExtension>
        </extensions>
      </trkpt>
      <trkpt lat="42.54254694096744060516357421875" lon="19.95680778287351131439208984375">
        <ele>1333.5999755859375</ele>
        <time>2026-06-17T08:35:55.000Z</time>
        <extensions>
          <ns3:TrackPointExtension>
            <ns3:atemp>26.0</ns3:atemp>
          </ns3:TrackPointExtension>
        </extensions>
      </trkpt>
      <trkpt lat="42.54254694096744060516357421875" lon="19.95680778287351131439208984375">
        <ele>1333.5999755859375</ele>
        <time>2026-06-17T08:35:56.000Z</time>
        <extensions>
          <ns3:TrackPointExtension>
            <ns3:atemp>27.0</ns3:atemp>
          </ns3:TrackPointExtension>
        </extensions>
      </trkpt>
      <trkpt lat="42.54254694096744060516357421875" lon="19.95680778287351131439208984375">
        <ele>1333.5999755859375</ele>
        <time>2026-06-17T08:35:57.000Z</time>
        <extensions>
          <ns3:TrackPointExtension>
            <ns3:atemp>27.0</ns3:atemp>
          </ns3:TrackPointExtension>
        </extensions>
      </trkpt>
      <trkpt lat="42.54254694096744060516357421875" lon="19.95680778287351131439208984375">
        <ele>1333.5999755859375</ele>
        <time>2026-06-17T08:35:58.000Z</time>
        <extensions>
          <ns3:TrackPointExtension>
            <ns3:atemp>27.0</ns3:atemp>
          </ns3:TrackPointExtension>
        </extensions>
      </trkpt>
      <trkpt lat="42.54254694096744060516357421875" lon="19.95680778287351131439208984375">
        <ele>1333.5999755859375</ele>
        <time>2026-06-17T08:35:59.000Z</time>
        <extensions>
          <ns3:TrackPointExtension>
            <ns3:atemp>27.0</ns3:atemp>
          </ns3:TrackPointExtension>
        </extensions>
      </trkpt>
      <trkpt lat="42.54254694096744060516357421875" lon="19.95680778287351131439208984375">
        <ele>1333.5999755859375</ele>
        <time>2026-06-17T08:36:00.000Z</time>
        <extensions>
          <ns3:TrackPointExtension>
            <ns3:atemp>27.0</ns3:atemp>
          </ns3:TrackPointExtension>
        </extensions>
      </trkpt>
      <trkpt lat="42.54254694096744060516357421875" lon="19.95680778287351131439208984375">
        <ele>1333.5999755859375</ele>
        <time>2026-06-17T08:36:01.000Z</time>
        <extensions>
          <ns3:TrackPointExtension>
            <ns3:atemp>27.0</ns3:atemp>
          </ns3:TrackPointExtension>
        </extensions>
      </trkpt>
      <trkpt lat="42.54254694096744060516357421875" lon="19.95680778287351131439208984375">
        <ele>1333.800048828125</ele>
        <time>2026-06-17T08:36:02.000Z</time>
        <extensions>
          <ns3:TrackPointExtension>
            <ns3:atemp>27.0</ns3:atemp>
          </ns3:TrackPointExtension>
        </extensions>
      </trkpt>
      <trkpt lat="42.54254694096744060516357421875" lon="19.95680778287351131439208984375">
        <ele>1333.800048828125</ele>
        <time>2026-06-17T08:36:03.000Z</time>
        <extensions>
          <ns3:TrackPointExtension>
            <ns3:atemp>27.0</ns3:atemp>
          </ns3:TrackPointExtension>
        </extensions>
      </trkpt>
      <trkpt lat="42.54254694096744060516357421875" lon="19.95680778287351131439208984375">
        <ele>1333.800048828125</ele>
        <time>2026-06-17T08:36:04.000Z</time>
        <extensions>
          <ns3:TrackPointExtension>
            <ns3:atemp>27.0</ns3:atemp>
          </ns3:TrackPointExtension>
        </extensions>
      </trkpt>
      <trkpt lat="42.54254694096744060516357421875" lon="19.95680778287351131439208984375">
        <ele>1333.800048828125</ele>
        <time>2026-06-17T08:36:05.000Z</time>
        <extensions>
          <ns3:TrackPointExtension>
            <ns3:atemp>27.0</ns3:atemp>
          </ns3:TrackPointExtension>
        </extensions>
      </trkpt>
      <trkpt lat="42.54254694096744060516357421875" lon="19.95680778287351131439208984375">
        <ele>1333.800048828125</ele>
        <time>2026-06-17T08:36:06.000Z</time>
        <extensions>
          <ns3:TrackPointExtension>
            <ns3:atemp>27.0</ns3:atemp>
          </ns3:TrackPointExtension>
        </extensions>
      </trkpt>
      <trkpt lat="42.54254694096744060516357421875" lon="19.95680778287351131439208984375">
        <ele>1333.800048828125</ele>
        <time>2026-06-17T08:36:07.000Z</time>
        <extensions>
          <ns3:TrackPointExtension>
            <ns3:atemp>27.0</ns3:atemp>
          </ns3:TrackPointExtension>
        </extensions>
      </trkpt>
      <trkpt lat="42.54254694096744060516357421875" lon="19.95680778287351131439208984375">
        <ele>1333.800048828125</ele>
        <time>2026-06-17T08:36:08.000Z</time>
        <extensions>
          <ns3:TrackPointExtension>
            <ns3:atemp>27.0</ns3:atemp>
          </ns3:TrackPointExtension>
        </extensions>
      </trkpt>
      <trkpt lat="42.54254694096744060516357421875" lon="19.95680778287351131439208984375">
        <ele>1333.800048828125</ele>
        <time>2026-06-17T08:36:09.000Z</time>
        <extensions>
          <ns3:TrackPointExtension>
            <ns3:atemp>27.0</ns3:atemp>
          </ns3:TrackPointExtension>
        </extensions>
      </trkpt>
      <trkpt lat="42.54254694096744060516357421875" lon="19.95680778287351131439208984375">
        <ele>1333.800048828125</ele>
        <time>2026-06-17T08:36:10.000Z</time>
        <extensions>
          <ns3:TrackPointExtension>
            <ns3:atemp>27.0</ns3:atemp>
          </ns3:TrackPointExtension>
        </extensions>
      </trkpt>
      <trkpt lat="42.54254694096744060516357421875" lon="19.95680778287351131439208984375">
        <ele>1333.800048828125</ele>
        <time>2026-06-17T08:36:11.000Z</time>
        <extensions>
          <ns3:TrackPointExtension>
            <ns3:atemp>27.0</ns3:atemp>
          </ns3:TrackPointExtension>
        </extensions>
      </trkpt>
      <trkpt lat="42.54254694096744060516357421875" lon="19.95680778287351131439208984375">
        <ele>1333.800048828125</ele>
        <time>2026-06-17T08:36:12.000Z</time>
        <extensions>
          <ns3:TrackPointExtension>
            <ns3:atemp>27.0</ns3:atemp>
          </ns3:TrackPointExtension>
        </extensions>
      </trkpt>
      <trkpt lat="42.54254694096744060516357421875" lon="19.95680778287351131439208984375">
        <ele>1333.800048828125</ele>
        <time>2026-06-17T08:36:13.000Z</time>
        <extensions>
          <ns3:TrackPointExtension>
            <ns3:atemp>27.0</ns3:atemp>
          </ns3:TrackPointExtension>
        </extensions>
      </trkpt>
      <trkpt lat="42.54254694096744060516357421875" lon="19.95680778287351131439208984375">
        <ele>1333.800048828125</ele>
        <time>2026-06-17T08:36:14.000Z</time>
        <extensions>
          <ns3:TrackPointExtension>
            <ns3:atemp>27.0</ns3:atemp>
          </ns3:TrackPointExtension>
        </extensions>
      </trkpt>
      <trkpt lat="42.54254694096744060516357421875" lon="19.95680778287351131439208984375">
        <ele>1333.800048828125</ele>
        <time>2026-06-17T08:36:15.000Z</time>
        <extensions>
          <ns3:TrackPointExtension>
            <ns3:atemp>27.0</ns3:atemp>
          </ns3:TrackPointExtension>
        </extensions>
      </trkpt>
      <trkpt lat="42.54254694096744060516357421875" lon="19.95680778287351131439208984375">
        <ele>1333.800048828125</ele>
        <time>2026-06-17T08:36:16.000Z</time>
        <extensions>
          <ns3:TrackPointExtension>
            <ns3:atemp>27.0</ns3:atemp>
          </ns3:TrackPointExtension>
        </extensions>
      </trkpt>
      <trkpt lat="42.54254694096744060516357421875" lon="19.95680778287351131439208984375">
        <ele>1333.800048828125</ele>
        <time>2026-06-17T08:36:17.000Z</time>
        <extensions>
          <ns3:TrackPointExtension>
            <ns3:atemp>27.0</ns3:atemp>
          </ns3:TrackPointExtension>
        </extensions>
      </trkpt>
      <trkpt lat="42.54254694096744060516357421875" lon="19.95680778287351131439208984375">
        <ele>1333.800048828125</ele>
        <time>2026-06-17T08:36:18.000Z</time>
        <extensions>
          <ns3:TrackPointExtension>
            <ns3:atemp>27.0</ns3:atemp>
          </ns3:TrackPointExtension>
        </extensions>
      </trkpt>
      <trkpt lat="42.54254694096744060516357421875" lon="19.95680778287351131439208984375">
        <ele>1333.800048828125</ele>
        <time>2026-06-17T08:36:19.000Z</time>
        <extensions>
          <ns3:TrackPointExtension>
            <ns3:atemp>27.0</ns3:atemp>
          </ns3:TrackPointExtension>
        </extensions>
      </trkpt>
      <trkpt lat="42.54254694096744060516357421875" lon="19.95680778287351131439208984375">
        <ele>1333.800048828125</ele>
        <time>2026-06-17T08:36:20.000Z</time>
        <extensions>
          <ns3:TrackPointExtension>
            <ns3:atemp>27.0</ns3:atemp>
          </ns3:TrackPointExtension>
        </extensions>
      </trkpt>
      <trkpt lat="42.54254694096744060516357421875" lon="19.95680778287351131439208984375">
        <ele>1333.800048828125</ele>
        <time>2026-06-17T08:36:21.000Z</time>
        <extensions>
          <ns3:TrackPointExtension>
            <ns3:atemp>27.0</ns3:atemp>
          </ns3:TrackPointExtension>
        </extensions>
      </trkpt>
      <trkpt lat="42.54254694096744060516357421875" lon="19.95680778287351131439208984375">
        <ele>1333.800048828125</ele>
        <time>2026-06-17T08:36:22.000Z</time>
        <extensions>
          <ns3:TrackPointExtension>
            <ns3:atemp>27.0</ns3:atemp>
          </ns3:TrackPointExtension>
        </extensions>
      </trkpt>
      <trkpt lat="42.54254694096744060516357421875" lon="19.95680778287351131439208984375">
        <ele>1333.800048828125</ele>
        <time>2026-06-17T08:36:23.000Z</time>
        <extensions>
          <ns3:TrackPointExtension>
            <ns3:atemp>27.0</ns3:atemp>
          </ns3:TrackPointExtension>
        </extensions>
      </trkpt>
      <trkpt lat="42.54254694096744060516357421875" lon="19.95680778287351131439208984375">
        <ele>1333.800048828125</ele>
        <time>2026-06-17T08:36:24.000Z</time>
        <extensions>
          <ns3:TrackPointExtension>
            <ns3:atemp>27.0</ns3:atemp>
          </ns3:TrackPointExtension>
        </extensions>
      </trkpt>
      <trkpt lat="42.54254694096744060516357421875" lon="19.95680778287351131439208984375">
        <ele>1333.800048828125</ele>
        <time>2026-06-17T08:36:25.000Z</time>
        <extensions>
          <ns3:TrackPointExtension>
            <ns3:atemp>27.0</ns3:atemp>
          </ns3:TrackPointExtension>
        </extensions>
      </trkpt>
      <trkpt lat="42.54254694096744060516357421875" lon="19.95680778287351131439208984375">
        <ele>1333.800048828125</ele>
        <time>2026-06-17T08:36:26.000Z</time>
        <extensions>
          <ns3:TrackPointExtension>
            <ns3:atemp>27.0</ns3:atemp>
          </ns3:TrackPointExtension>
        </extensions>
      </trkpt>
      <trkpt lat="42.54254694096744060516357421875" lon="19.95680778287351131439208984375">
        <ele>1333.800048828125</ele>
        <time>2026-06-17T08:36:27.000Z</time>
        <extensions>
          <ns3:TrackPointExtension>
            <ns3:atemp>27.0</ns3:atemp>
          </ns3:TrackPointExtension>
        </extensions>
      </trkpt>
      <trkpt lat="42.54254694096744060516357421875" lon="19.95680778287351131439208984375">
        <ele>1333.800048828125</ele>
        <time>2026-06-17T08:36:28.000Z</time>
        <extensions>
          <ns3:TrackPointExtension>
            <ns3:atemp>27.0</ns3:atemp>
          </ns3:TrackPointExtension>
        </extensions>
      </trkpt>
      <trkpt lat="42.54254694096744060516357421875" lon="19.95680778287351131439208984375">
        <ele>1333.800048828125</ele>
        <time>2026-06-17T08:36:29.000Z</time>
        <extensions>
          <ns3:TrackPointExtension>
            <ns3:atemp>27.0</ns3:atemp>
          </ns3:TrackPointExtension>
        </extensions>
      </trkpt>
      <trkpt lat="42.54254694096744060516357421875" lon="19.95680778287351131439208984375">
        <ele>1333.800048828125</ele>
        <time>2026-06-17T08:36:30.000Z</time>
        <extensions>
          <ns3:TrackPointExtension>
            <ns3:atemp>27.0</ns3:atemp>
          </ns3:TrackPointExtension>
        </extensions>
      </trkpt>
      <trkpt lat="42.54254694096744060516357421875" lon="19.95680778287351131439208984375">
        <ele>1333.800048828125</ele>
        <time>2026-06-17T08:36:31.000Z</time>
        <extensions>
          <ns3:TrackPointExtension>
            <ns3:atemp>27.0</ns3:atemp>
          </ns3:TrackPointExtension>
        </extensions>
      </trkpt>
      <trkpt lat="42.54254694096744060516357421875" lon="19.95680778287351131439208984375">
        <ele>1333.800048828125</ele>
        <time>2026-06-17T08:36:32.000Z</time>
        <extensions>
          <ns3:TrackPointExtension>
            <ns3:atemp>27.0</ns3:atemp>
          </ns3:TrackPointExtension>
        </extensions>
      </trkpt>
      <trkpt lat="42.54254694096744060516357421875" lon="19.95680778287351131439208984375">
        <ele>1333.800048828125</ele>
        <time>2026-06-17T08:36:33.000Z</time>
        <extensions>
          <ns3:TrackPointExtension>
            <ns3:atemp>27.0</ns3:atemp>
          </ns3:TrackPointExtension>
        </extensions>
      </trkpt>
      <trkpt lat="42.54254694096744060516357421875" lon="19.95680778287351131439208984375">
        <ele>1333.800048828125</ele>
        <time>2026-06-17T08:36:34.000Z</time>
        <extensions>
          <ns3:TrackPointExtension>
            <ns3:atemp>27.0</ns3:atemp>
          </ns3:TrackPointExtension>
        </extensions>
      </trkpt>
      <trkpt lat="42.54254694096744060516357421875" lon="19.95680778287351131439208984375">
        <ele>1333.800048828125</ele>
        <time>2026-06-17T08:36:35.000Z</time>
        <extensions>
          <ns3:TrackPointExtension>
            <ns3:atemp>27.0</ns3:atemp>
          </ns3:TrackPointExtension>
        </extensions>
      </trkpt>
      <trkpt lat="42.54254694096744060516357421875" lon="19.95680778287351131439208984375">
        <ele>1333.800048828125</ele>
        <time>2026-06-17T08:36:36.000Z</time>
        <extensions>
          <ns3:TrackPointExtension>
            <ns3:atemp>27.0</ns3:atemp>
          </ns3:TrackPointExtension>
        </extensions>
      </trkpt>
      <trkpt lat="42.54254694096744060516357421875" lon="19.95680778287351131439208984375">
        <ele>1333.800048828125</ele>
        <time>2026-06-17T08:36:37.000Z</time>
        <extensions>
          <ns3:TrackPointExtension>
            <ns3:atemp>27.0</ns3:atemp>
          </ns3:TrackPointExtension>
        </extensions>
      </trkpt>
      <trkpt lat="42.54254694096744060516357421875" lon="19.95680778287351131439208984375">
        <ele>1333.800048828125</ele>
        <time>2026-06-17T08:36:38.000Z</time>
        <extensions>
          <ns3:TrackPointExtension>
            <ns3:atemp>27.0</ns3:atemp>
          </ns3:TrackPointExtension>
        </extensions>
      </trkpt>
      <trkpt lat="42.54254694096744060516357421875" lon="19.95680778287351131439208984375">
        <ele>1333.800048828125</ele>
        <time>2026-06-17T08:36:39.000Z</time>
        <extensions>
          <ns3:TrackPointExtension>
            <ns3:atemp>27.0</ns3:atemp>
          </ns3:TrackPointExtension>
        </extensions>
      </trkpt>
      <trkpt lat="42.54254694096744060516357421875" lon="19.95680778287351131439208984375">
        <ele>1333.800048828125</ele>
        <time>2026-06-17T08:36:40.000Z</time>
        <extensions>
          <ns3:TrackPointExtension>
            <ns3:atemp>27.0</ns3:atemp>
          </ns3:TrackPointExtension>
        </extensions>
      </trkpt>
      <trkpt lat="42.54254694096744060516357421875" lon="19.95680778287351131439208984375">
        <ele>1333.800048828125</ele>
        <time>2026-06-17T08:36:41.000Z</time>
        <extensions>
          <ns3:TrackPointExtension>
            <ns3:atemp>27.0</ns3:atemp>
          </ns3:TrackPointExtension>
        </extensions>
      </trkpt>
      <trkpt lat="42.54254694096744060516357421875" lon="19.95680778287351131439208984375">
        <ele>1333.800048828125</ele>
        <time>2026-06-17T08:36:42.000Z</time>
        <extensions>
          <ns3:TrackPointExtension>
            <ns3:atemp>27.0</ns3:atemp>
          </ns3:TrackPointExtension>
        </extensions>
      </trkpt>
      <trkpt lat="42.54254694096744060516357421875" lon="19.95680778287351131439208984375">
        <ele>1333.800048828125</ele>
        <time>2026-06-17T08:36:43.000Z</time>
        <extensions>
          <ns3:TrackPointExtension>
            <ns3:atemp>27.0</ns3:atemp>
          </ns3:TrackPointExtension>
        </extensions>
      </trkpt>
      <trkpt lat="42.54254694096744060516357421875" lon="19.95680778287351131439208984375">
        <ele>1333.800048828125</ele>
        <time>2026-06-17T08:36:44.000Z</time>
        <extensions>
          <ns3:TrackPointExtension>
            <ns3:atemp>27.0</ns3:atemp>
          </ns3:TrackPointExtension>
        </extensions>
      </trkpt>
      <trkpt lat="42.54254694096744060516357421875" lon="19.95680778287351131439208984375">
        <ele>1333.800048828125</ele>
        <time>2026-06-17T08:36:45.000Z</time>
        <extensions>
          <ns3:TrackPointExtension>
            <ns3:atemp>27.0</ns3:atemp>
          </ns3:TrackPointExtension>
        </extensions>
      </trkpt>
      <trkpt lat="42.54254694096744060516357421875" lon="19.95680778287351131439208984375">
        <ele>1333.800048828125</ele>
        <time>2026-06-17T08:36:46.000Z</time>
        <extensions>
          <ns3:TrackPointExtension>
            <ns3:atemp>27.0</ns3:atemp>
          </ns3:TrackPointExtension>
        </extensions>
      </trkpt>
      <trkpt lat="42.54254694096744060516357421875" lon="19.95680778287351131439208984375">
        <ele>1333.800048828125</ele>
        <time>2026-06-17T08:36:47.000Z</time>
        <extensions>
          <ns3:TrackPointExtension>
            <ns3:atemp>27.0</ns3:atemp>
          </ns3:TrackPointExtension>
        </extensions>
      </trkpt>
      <trkpt lat="42.54254694096744060516357421875" lon="19.95680778287351131439208984375">
        <ele>1333.800048828125</ele>
        <time>2026-06-17T08:36:48.000Z</time>
        <extensions>
          <ns3:TrackPointExtension>
            <ns3:atemp>27.0</ns3:atemp>
          </ns3:TrackPointExtension>
        </extensions>
      </trkpt>
      <trkpt lat="42.54254694096744060516357421875" lon="19.95680778287351131439208984375">
        <ele>1333.800048828125</ele>
        <time>2026-06-17T08:36:49.000Z</time>
        <extensions>
          <ns3:TrackPointExtension>
            <ns3:atemp>27.0</ns3:atemp>
          </ns3:TrackPointExtension>
        </extensions>
      </trkpt>
      <trkpt lat="42.54254694096744060516357421875" lon="19.95680778287351131439208984375">
        <ele>1333.800048828125</ele>
        <time>2026-06-17T08:36:50.000Z</time>
        <extensions>
          <ns3:TrackPointExtension>
            <ns3:atemp>27.0</ns3:atemp>
          </ns3:TrackPointExtension>
        </extensions>
      </trkpt>
      <trkpt lat="42.54254694096744060516357421875" lon="19.95680778287351131439208984375">
        <ele>1333.800048828125</ele>
        <time>2026-06-17T08:36:51.000Z</time>
        <extensions>
          <ns3:TrackPointExtension>
            <ns3:atemp>27.0</ns3:atemp>
          </ns3:TrackPointExtension>
        </extensions>
      </trkpt>
      <trkpt lat="42.54254694096744060516357421875" lon="19.95680778287351131439208984375">
        <ele>1333.800048828125</ele>
        <time>2026-06-17T08:36:52.000Z</time>
        <extensions>
          <ns3:TrackPointExtension>
            <ns3:atemp>27.0</ns3:atemp>
          </ns3:TrackPointExtension>
        </extensions>
      </trkpt>
      <trkpt lat="42.54254694096744060516357421875" lon="19.95680778287351131439208984375">
        <ele>1333.800048828125</ele>
        <time>2026-06-17T08:36:53.000Z</time>
        <extensions>
          <ns3:TrackPointExtension>
            <ns3:atemp>27.0</ns3:atemp>
          </ns3:TrackPointExtension>
        </extensions>
      </trkpt>
      <trkpt lat="42.54254694096744060516357421875" lon="19.95680778287351131439208984375">
        <ele>1333.800048828125</ele>
        <time>2026-06-17T08:36:54.000Z</time>
        <extensions>
          <ns3:TrackPointExtension>
            <ns3:atemp>27.0</ns3:atemp>
          </ns3:TrackPointExtension>
        </extensions>
      </trkpt>
      <trkpt lat="42.54254694096744060516357421875" lon="19.95680778287351131439208984375">
        <ele>1333.800048828125</ele>
        <time>2026-06-17T08:36:55.000Z</time>
        <extensions>
          <ns3:TrackPointExtension>
            <ns3:atemp>27.0</ns3:atemp>
          </ns3:TrackPointExtension>
        </extensions>
      </trkpt>
      <trkpt lat="42.54254694096744060516357421875" lon="19.95680778287351131439208984375">
        <ele>1333.800048828125</ele>
        <time>2026-06-17T08:36:56.000Z</time>
        <extensions>
          <ns3:TrackPointExtension>
            <ns3:atemp>27.0</ns3:atemp>
          </ns3:TrackPointExtension>
        </extensions>
      </trkpt>
      <trkpt lat="42.54254694096744060516357421875" lon="19.95680778287351131439208984375">
        <ele>1333.800048828125</ele>
        <time>2026-06-17T08:36:57.000Z</time>
        <extensions>
          <ns3:TrackPointExtension>
            <ns3:atemp>27.0</ns3:atemp>
          </ns3:TrackPointExtension>
        </extensions>
      </trkpt>
      <trkpt lat="42.54254694096744060516357421875" lon="19.95680778287351131439208984375">
        <ele>1333.800048828125</ele>
        <time>2026-06-17T08:36:58.000Z</time>
        <extensions>
          <ns3:TrackPointExtension>
            <ns3:atemp>27.0</ns3:atemp>
          </ns3:TrackPointExtension>
        </extensions>
      </trkpt>
      <trkpt lat="42.54254694096744060516357421875" lon="19.95680778287351131439208984375">
        <ele>1333.800048828125</ele>
        <time>2026-06-17T08:36:59.000Z</time>
        <extensions>
          <ns3:TrackPointExtension>
            <ns3:atemp>27.0</ns3:atemp>
          </ns3:TrackPointExtension>
        </extensions>
      </trkpt>
      <trkpt lat="42.54254694096744060516357421875" lon="19.95680778287351131439208984375">
        <ele>1333.800048828125</ele>
        <time>2026-06-17T08:37:00.000Z</time>
        <extensions>
          <ns3:TrackPointExtension>
            <ns3:atemp>27.0</ns3:atemp>
          </ns3:TrackPointExtension>
        </extensions>
      </trkpt>
      <trkpt lat="42.54254694096744060516357421875" lon="19.95680778287351131439208984375">
        <ele>1333.800048828125</ele>
        <time>2026-06-17T08:37:01.000Z</time>
        <extensions>
          <ns3:TrackPointExtension>
            <ns3:atemp>27.0</ns3:atemp>
          </ns3:TrackPointExtension>
        </extensions>
      </trkpt>
      <trkpt lat="42.54254694096744060516357421875" lon="19.95680778287351131439208984375">
        <ele>1333.800048828125</ele>
        <time>2026-06-17T08:37:02.000Z</time>
        <extensions>
          <ns3:TrackPointExtension>
            <ns3:atemp>27.0</ns3:atemp>
          </ns3:TrackPointExtension>
        </extensions>
      </trkpt>
      <trkpt lat="42.54254694096744060516357421875" lon="19.95680778287351131439208984375">
        <ele>1333.800048828125</ele>
        <time>2026-06-17T08:37:03.000Z</time>
        <extensions>
          <ns3:TrackPointExtension>
            <ns3:atemp>27.0</ns3:atemp>
          </ns3:TrackPointExtension>
        </extensions>
      </trkpt>
      <trkpt lat="42.54254694096744060516357421875" lon="19.95680778287351131439208984375">
        <ele>1333.800048828125</ele>
        <time>2026-06-17T08:37:04.000Z</time>
        <extensions>
          <ns3:TrackPointExtension>
            <ns3:atemp>27.0</ns3:atemp>
          </ns3:TrackPointExtension>
        </extensions>
      </trkpt>
      <trkpt lat="42.54254694096744060516357421875" lon="19.95680778287351131439208984375">
        <ele>1333.800048828125</ele>
        <time>2026-06-17T08:37:05.000Z</time>
        <extensions>
          <ns3:TrackPointExtension>
            <ns3:atemp>27.0</ns3:atemp>
          </ns3:TrackPointExtension>
        </extensions>
      </trkpt>
      <trkpt lat="42.54254694096744060516357421875" lon="19.95680778287351131439208984375">
        <ele>1333.800048828125</ele>
        <time>2026-06-17T08:37:06.000Z</time>
        <extensions>
          <ns3:TrackPointExtension>
            <ns3:atemp>27.0</ns3:atemp>
          </ns3:TrackPointExtension>
        </extensions>
      </trkpt>
      <trkpt lat="42.54254694096744060516357421875" lon="19.95680778287351131439208984375">
        <ele>1333.800048828125</ele>
        <time>2026-06-17T08:37:07.000Z</time>
        <extensions>
          <ns3:TrackPointExtension>
            <ns3:atemp>27.0</ns3:atemp>
          </ns3:TrackPointExtension>
        </extensions>
      </trkpt>
      <trkpt lat="42.54254694096744060516357421875" lon="19.95680778287351131439208984375">
        <ele>1333.800048828125</ele>
        <time>2026-06-17T08:37:08.000Z</time>
        <extensions>
          <ns3:TrackPointExtension>
            <ns3:atemp>27.0</ns3:atemp>
          </ns3:TrackPointExtension>
        </extensions>
      </trkpt>
      <trkpt lat="42.54254694096744060516357421875" lon="19.95680778287351131439208984375">
        <ele>1333.800048828125</ele>
        <time>2026-06-17T08:37:09.000Z</time>
        <extensions>
          <ns3:TrackPointExtension>
            <ns3:atemp>27.0</ns3:atemp>
          </ns3:TrackPointExtension>
        </extensions>
      </trkpt>
      <trkpt lat="42.54254694096744060516357421875" lon="19.95680778287351131439208984375">
        <ele>1333.800048828125</ele>
        <time>2026-06-17T08:37:10.000Z</time>
        <extensions>
          <ns3:TrackPointExtension>
            <ns3:atemp>27.0</ns3:atemp>
          </ns3:TrackPointExtension>
        </extensions>
      </trkpt>
      <trkpt lat="42.54254694096744060516357421875" lon="19.95680778287351131439208984375">
        <ele>1333.800048828125</ele>
        <time>2026-06-17T08:37:11.000Z</time>
        <extensions>
          <ns3:TrackPointExtension>
            <ns3:atemp>27.0</ns3:atemp>
          </ns3:TrackPointExtension>
        </extensions>
      </trkpt>
      <trkpt lat="42.54254694096744060516357421875" lon="19.95680778287351131439208984375">
        <ele>1333.800048828125</ele>
        <time>2026-06-17T08:37:12.000Z</time>
        <extensions>
          <ns3:TrackPointExtension>
            <ns3:atemp>27.0</ns3:atemp>
          </ns3:TrackPointExtension>
        </extensions>
      </trkpt>
      <trkpt lat="42.54254694096744060516357421875" lon="19.95680778287351131439208984375">
        <ele>1333.800048828125</ele>
        <time>2026-06-17T08:37:13.000Z</time>
        <extensions>
          <ns3:TrackPointExtension>
            <ns3:atemp>27.0</ns3:atemp>
          </ns3:TrackPointExtension>
        </extensions>
      </trkpt>
      <trkpt lat="42.54254694096744060516357421875" lon="19.95680778287351131439208984375">
        <ele>1333.800048828125</ele>
        <time>2026-06-17T08:37:14.000Z</time>
        <extensions>
          <ns3:TrackPointExtension>
            <ns3:atemp>27.0</ns3:atemp>
          </ns3:TrackPointExtension>
        </extensions>
      </trkpt>
      <trkpt lat="42.54254694096744060516357421875" lon="19.95680778287351131439208984375">
        <ele>1333.800048828125</ele>
        <time>2026-06-17T08:37:15.000Z</time>
        <extensions>
          <ns3:TrackPointExtension>
            <ns3:atemp>27.0</ns3:atemp>
          </ns3:TrackPointExtension>
        </extensions>
      </trkpt>
      <trkpt lat="42.54254694096744060516357421875" lon="19.95680778287351131439208984375">
        <ele>1333.800048828125</ele>
        <time>2026-06-17T08:37:16.000Z</time>
        <extensions>
          <ns3:TrackPointExtension>
            <ns3:atemp>27.0</ns3:atemp>
          </ns3:TrackPointExtension>
        </extensions>
      </trkpt>
      <trkpt lat="42.54254694096744060516357421875" lon="19.95680778287351131439208984375">
        <ele>1333.800048828125</ele>
        <time>2026-06-17T08:37:17.000Z</time>
        <extensions>
          <ns3:TrackPointExtension>
            <ns3:atemp>27.0</ns3:atemp>
          </ns3:TrackPointExtension>
        </extensions>
      </trkpt>
      <trkpt lat="42.54254694096744060516357421875" lon="19.95680778287351131439208984375">
        <ele>1333.800048828125</ele>
        <time>2026-06-17T08:37:18.000Z</time>
        <extensions>
          <ns3:TrackPointExtension>
            <ns3:atemp>27.0</ns3:atemp>
          </ns3:TrackPointExtension>
        </extensions>
      </trkpt>
      <trkpt lat="42.54254694096744060516357421875" lon="19.95680778287351131439208984375">
        <ele>1333.800048828125</ele>
        <time>2026-06-17T08:37:19.000Z</time>
        <extensions>
          <ns3:TrackPointExtension>
            <ns3:atemp>27.0</ns3:atemp>
          </ns3:TrackPointExtension>
        </extensions>
      </trkpt>
      <trkpt lat="42.54254694096744060516357421875" lon="19.95680778287351131439208984375">
        <ele>1333.800048828125</ele>
        <time>2026-06-17T08:37:20.000Z</time>
        <extensions>
          <ns3:TrackPointExtension>
            <ns3:atemp>27.0</ns3:atemp>
          </ns3:TrackPointExtension>
        </extensions>
      </trkpt>
      <trkpt lat="42.54254694096744060516357421875" lon="19.95680778287351131439208984375">
        <ele>1333.800048828125</ele>
        <time>2026-06-17T08:37:21.000Z</time>
        <extensions>
          <ns3:TrackPointExtension>
            <ns3:atemp>27.0</ns3:atemp>
          </ns3:TrackPointExtension>
        </extensions>
      </trkpt>
      <trkpt lat="42.54254694096744060516357421875" lon="19.95680778287351131439208984375">
        <ele>1333.800048828125</ele>
        <time>2026-06-17T08:37:22.000Z</time>
        <extensions>
          <ns3:TrackPointExtension>
            <ns3:atemp>27.0</ns3:atemp>
          </ns3:TrackPointExtension>
        </extensions>
      </trkpt>
      <trkpt lat="42.54254694096744060516357421875" lon="19.95680778287351131439208984375">
        <ele>1333.800048828125</ele>
        <time>2026-06-17T08:37:23.000Z</time>
        <extensions>
          <ns3:TrackPointExtension>
            <ns3:atemp>27.0</ns3:atemp>
          </ns3:TrackPointExtension>
        </extensions>
      </trkpt>
      <trkpt lat="42.54254694096744060516357421875" lon="19.95680778287351131439208984375">
        <ele>1333.800048828125</ele>
        <time>2026-06-17T08:37:24.000Z</time>
        <extensions>
          <ns3:TrackPointExtension>
            <ns3:atemp>27.0</ns3:atemp>
          </ns3:TrackPointExtension>
        </extensions>
      </trkpt>
      <trkpt lat="42.54254694096744060516357421875" lon="19.95680778287351131439208984375">
        <ele>1333.800048828125</ele>
        <time>2026-06-17T08:37:25.000Z</time>
        <extensions>
          <ns3:TrackPointExtension>
            <ns3:atemp>27.0</ns3:atemp>
          </ns3:TrackPointExtension>
        </extensions>
      </trkpt>
      <trkpt lat="42.54254694096744060516357421875" lon="19.95680778287351131439208984375">
        <ele>1333.800048828125</ele>
        <time>2026-06-17T08:37:26.000Z</time>
        <extensions>
          <ns3:TrackPointExtension>
            <ns3:atemp>27.0</ns3:atemp>
          </ns3:TrackPointExtension>
        </extensions>
      </trkpt>
      <trkpt lat="42.54254694096744060516357421875" lon="19.95680778287351131439208984375">
        <ele>1333.800048828125</ele>
        <time>2026-06-17T08:37:27.000Z</time>
        <extensions>
          <ns3:TrackPointExtension>
            <ns3:atemp>27.0</ns3:atemp>
          </ns3:TrackPointExtension>
        </extensions>
      </trkpt>
      <trkpt lat="42.54254694096744060516357421875" lon="19.95680778287351131439208984375">
        <ele>1333.800048828125</ele>
        <time>2026-06-17T08:37:28.000Z</time>
        <extensions>
          <ns3:TrackPointExtension>
            <ns3:atemp>27.0</ns3:atemp>
          </ns3:TrackPointExtension>
        </extensions>
      </trkpt>
      <trkpt lat="42.54254694096744060516357421875" lon="19.95680778287351131439208984375">
        <ele>1333.800048828125</ele>
        <time>2026-06-17T08:37:29.000Z</time>
        <extensions>
          <ns3:TrackPointExtension>
            <ns3:atemp>27.0</ns3:atemp>
          </ns3:TrackPointExtension>
        </extensions>
      </trkpt>
      <trkpt lat="42.54254694096744060516357421875" lon="19.95680778287351131439208984375">
        <ele>1333.800048828125</ele>
        <time>2026-06-17T08:37:30.000Z</time>
        <extensions>
          <ns3:TrackPointExtension>
            <ns3:atemp>27.0</ns3:atemp>
          </ns3:TrackPointExtension>
        </extensions>
      </trkpt>
      <trkpt lat="42.54254694096744060516357421875" lon="19.95680778287351131439208984375">
        <ele>1333.800048828125</ele>
        <time>2026-06-17T08:37:31.000Z</time>
        <extensions>
          <ns3:TrackPointExtension>
            <ns3:atemp>27.0</ns3:atemp>
          </ns3:TrackPointExtension>
        </extensions>
      </trkpt>
      <trkpt lat="42.54254694096744060516357421875" lon="19.95680778287351131439208984375">
        <ele>1333.800048828125</ele>
        <time>2026-06-17T08:37:32.000Z</time>
        <extensions>
          <ns3:TrackPointExtension>
            <ns3:atemp>27.0</ns3:atemp>
          </ns3:TrackPointExtension>
        </extensions>
      </trkpt>
      <trkpt lat="42.54254694096744060516357421875" lon="19.95680778287351131439208984375">
        <ele>1333.800048828125</ele>
        <time>2026-06-17T08:37:33.000Z</time>
        <extensions>
          <ns3:TrackPointExtension>
            <ns3:atemp>27.0</ns3:atemp>
          </ns3:TrackPointExtension>
        </extensions>
      </trkpt>
      <trkpt lat="42.54254694096744060516357421875" lon="19.95680778287351131439208984375">
        <ele>1333.800048828125</ele>
        <time>2026-06-17T08:37:34.000Z</time>
        <extensions>
          <ns3:TrackPointExtension>
            <ns3:atemp>27.0</ns3:atemp>
          </ns3:TrackPointExtension>
        </extensions>
      </trkpt>
      <trkpt lat="42.54254694096744060516357421875" lon="19.95680778287351131439208984375">
        <ele>1333.800048828125</ele>
        <time>2026-06-17T08:37:35.000Z</time>
        <extensions>
          <ns3:TrackPointExtension>
            <ns3:atemp>28.0</ns3:atemp>
          </ns3:TrackPointExtension>
        </extensions>
      </trkpt>
      <trkpt lat="42.54254694096744060516357421875" lon="19.95680778287351131439208984375">
        <ele>1333.800048828125</ele>
        <time>2026-06-17T08:37:36.000Z</time>
        <extensions>
          <ns3:TrackPointExtension>
            <ns3:atemp>27.0</ns3:atemp>
          </ns3:TrackPointExtension>
        </extensions>
      </trkpt>
      <trkpt lat="42.54254694096744060516357421875" lon="19.95680778287351131439208984375">
        <ele>1333.800048828125</ele>
        <time>2026-06-17T08:37:37.000Z</time>
        <extensions>
          <ns3:TrackPointExtension>
            <ns3:atemp>28.0</ns3:atemp>
          </ns3:TrackPointExtension>
        </extensions>
      </trkpt>
      <trkpt lat="42.54254694096744060516357421875" lon="19.95680778287351131439208984375">
        <ele>1333.800048828125</ele>
        <time>2026-06-17T08:37:38.000Z</time>
        <extensions>
          <ns3:TrackPointExtension>
            <ns3:atemp>28.0</ns3:atemp>
          </ns3:TrackPointExtension>
        </extensions>
      </trkpt>
      <trkpt lat="42.54254694096744060516357421875" lon="19.95680778287351131439208984375">
        <ele>1333.800048828125</ele>
        <time>2026-06-17T08:37:39.000Z</time>
        <extensions>
          <ns3:TrackPointExtension>
            <ns3:atemp>28.0</ns3:atemp>
          </ns3:TrackPointExtension>
        </extensions>
      </trkpt>
      <trkpt lat="42.54254694096744060516357421875" lon="19.95680778287351131439208984375">
        <ele>1333.800048828125</ele>
        <time>2026-06-17T08:37:40.000Z</time>
        <extensions>
          <ns3:TrackPointExtension>
            <ns3:atemp>28.0</ns3:atemp>
          </ns3:TrackPointExtension>
        </extensions>
      </trkpt>
      <trkpt lat="42.54254694096744060516357421875" lon="19.95680778287351131439208984375">
        <ele>1333.800048828125</ele>
        <time>2026-06-17T08:37:41.000Z</time>
        <extensions>
          <ns3:TrackPointExtension>
            <ns3:atemp>28.0</ns3:atemp>
          </ns3:TrackPointExtension>
        </extensions>
      </trkpt>
      <trkpt lat="42.54254694096744060516357421875" lon="19.95680778287351131439208984375">
        <ele>1333.800048828125</ele>
        <time>2026-06-17T08:37:42.000Z</time>
        <extensions>
          <ns3:TrackPointExtension>
            <ns3:atemp>28.0</ns3:atemp>
          </ns3:TrackPointExtension>
        </extensions>
      </trkpt>
      <trkpt lat="42.54254694096744060516357421875" lon="19.95680778287351131439208984375">
        <ele>1333.800048828125</ele>
        <time>2026-06-17T08:37:43.000Z</time>
        <extensions>
          <ns3:TrackPointExtension>
            <ns3:atemp>28.0</ns3:atemp>
          </ns3:TrackPointExtension>
        </extensions>
      </trkpt>
      <trkpt lat="42.54254694096744060516357421875" lon="19.95680778287351131439208984375">
        <ele>1333.800048828125</ele>
        <time>2026-06-17T08:37:44.000Z</time>
        <extensions>
          <ns3:TrackPointExtension>
            <ns3:atemp>28.0</ns3:atemp>
          </ns3:TrackPointExtension>
        </extensions>
      </trkpt>
      <trkpt lat="42.54254694096744060516357421875" lon="19.95680778287351131439208984375">
        <ele>1333.800048828125</ele>
        <time>2026-06-17T08:37:45.000Z</time>
        <extensions>
          <ns3:TrackPointExtension>
            <ns3:atemp>28.0</ns3:atemp>
          </ns3:TrackPointExtension>
        </extensions>
      </trkpt>
      <trkpt lat="42.54254694096744060516357421875" lon="19.95680778287351131439208984375">
        <ele>1333.800048828125</ele>
        <time>2026-06-17T08:37:46.000Z</time>
        <extensions>
          <ns3:TrackPointExtension>
            <ns3:atemp>28.0</ns3:atemp>
          </ns3:TrackPointExtension>
        </extensions>
      </trkpt>
      <trkpt lat="42.54254694096744060516357421875" lon="19.95680778287351131439208984375">
        <ele>1333.800048828125</ele>
        <time>2026-06-17T08:37:47.000Z</time>
        <extensions>
          <ns3:TrackPointExtension>
            <ns3:atemp>28.0</ns3:atemp>
          </ns3:TrackPointExtension>
        </extensions>
      </trkpt>
      <trkpt lat="42.54254694096744060516357421875" lon="19.95680778287351131439208984375">
        <ele>1333.800048828125</ele>
        <time>2026-06-17T08:37:48.000Z</time>
        <extensions>
          <ns3:TrackPointExtension>
            <ns3:atemp>28.0</ns3:atemp>
          </ns3:TrackPointExtension>
        </extensions>
      </trkpt>
      <trkpt lat="42.54254694096744060516357421875" lon="19.95680778287351131439208984375">
        <ele>1333.800048828125</ele>
        <time>2026-06-17T08:37:49.000Z</time>
        <extensions>
          <ns3:TrackPointExtension>
            <ns3:atemp>28.0</ns3:atemp>
          </ns3:TrackPointExtension>
        </extensions>
      </trkpt>
      <trkpt lat="42.54254694096744060516357421875" lon="19.95680778287351131439208984375">
        <ele>1333.800048828125</ele>
        <time>2026-06-17T08:37:50.000Z</time>
        <extensions>
          <ns3:TrackPointExtension>
            <ns3:atemp>28.0</ns3:atemp>
          </ns3:TrackPointExtension>
        </extensions>
      </trkpt>
      <trkpt lat="42.54254694096744060516357421875" lon="19.95680778287351131439208984375">
        <ele>1333.800048828125</ele>
        <time>2026-06-17T08:37:51.000Z</time>
        <extensions>
          <ns3:TrackPointExtension>
            <ns3:atemp>28.0</ns3:atemp>
          </ns3:TrackPointExtension>
        </extensions>
      </trkpt>
      <trkpt lat="42.54254694096744060516357421875" lon="19.95680778287351131439208984375">
        <ele>1333.800048828125</ele>
        <time>2026-06-17T08:37:52.000Z</time>
        <extensions>
          <ns3:TrackPointExtension>
            <ns3:atemp>28.0</ns3:atemp>
          </ns3:TrackPointExtension>
        </extensions>
      </trkpt>
      <trkpt lat="42.54254694096744060516357421875" lon="19.95680778287351131439208984375">
        <ele>1333.800048828125</ele>
        <time>2026-06-17T08:37:53.000Z</time>
        <extensions>
          <ns3:TrackPointExtension>
            <ns3:atemp>28.0</ns3:atemp>
          </ns3:TrackPointExtension>
        </extensions>
      </trkpt>
      <trkpt lat="42.54254694096744060516357421875" lon="19.95680778287351131439208984375">
        <ele>1333.800048828125</ele>
        <time>2026-06-17T08:37:54.000Z</time>
        <extensions>
          <ns3:TrackPointExtension>
            <ns3:atemp>28.0</ns3:atemp>
          </ns3:TrackPointExtension>
        </extensions>
      </trkpt>
      <trkpt lat="42.54254694096744060516357421875" lon="19.95680778287351131439208984375">
        <ele>1333.800048828125</ele>
        <time>2026-06-17T08:37:55.000Z</time>
        <extensions>
          <ns3:TrackPointExtension>
            <ns3:atemp>28.0</ns3:atemp>
          </ns3:TrackPointExtension>
        </extensions>
      </trkpt>
      <trkpt lat="42.54254694096744060516357421875" lon="19.95680778287351131439208984375">
        <ele>1333.800048828125</ele>
        <time>2026-06-17T08:37:56.000Z</time>
        <extensions>
          <ns3:TrackPointExtension>
            <ns3:atemp>28.0</ns3:atemp>
          </ns3:TrackPointExtension>
        </extensions>
      </trkpt>
      <trkpt lat="42.54254694096744060516357421875" lon="19.95680778287351131439208984375">
        <ele>1333.800048828125</ele>
        <time>2026-06-17T08:37:57.000Z</time>
        <extensions>
          <ns3:TrackPointExtension>
            <ns3:atemp>28.0</ns3:atemp>
          </ns3:TrackPointExtension>
        </extensions>
      </trkpt>
      <trkpt lat="42.5425371341407299041748046875" lon="19.95680057443678379058837890625">
        <ele>1333.800048828125</ele>
        <time>2026-06-17T08:37:58.000Z</time>
        <extensions>
          <ns3:TrackPointExtension>
            <ns3:atemp>28.0</ns3:atemp>
          </ns3:TrackPointExtension>
        </extensions>
      </trkpt>
      <trkpt lat="42.54254694096744060516357421875" lon="19.95680778287351131439208984375">
        <ele>1333.800048828125</ele>
        <time>2026-06-17T08:37:59.000Z</time>
        <extensions>
          <ns3:TrackPointExtension>
            <ns3:atemp>28.0</ns3:atemp>
          </ns3:TrackPointExtension>
        </extensions>
      </trkpt>
      <trkpt lat="42.54254694096744060516357421875" lon="19.95680778287351131439208984375">
        <ele>1333.800048828125</ele>
        <time>2026-06-17T08:38:00.000Z</time>
        <extensions>
          <ns3:TrackPointExtension>
            <ns3:atemp>28.0</ns3:atemp>
          </ns3:TrackPointExtension>
        </extensions>
      </trkpt>
      <trkpt lat="42.54254694096744060516357421875" lon="19.95680778287351131439208984375">
        <ele>1333.800048828125</ele>
        <time>2026-06-17T08:38:01.000Z</time>
        <extensions>
          <ns3:TrackPointExtension>
            <ns3:atemp>28.0</ns3:atemp>
          </ns3:TrackPointExtension>
        </extensions>
      </trkpt>
      <trkpt lat="42.54254694096744060516357421875" lon="19.95680778287351131439208984375">
        <ele>1333.800048828125</ele>
        <time>2026-06-17T08:38:02.000Z</time>
        <extensions>
          <ns3:TrackPointExtension>
            <ns3:atemp>28.0</ns3:atemp>
          </ns3:TrackPointExtension>
        </extensions>
      </trkpt>
      <trkpt lat="42.54254694096744060516357421875" lon="19.95680778287351131439208984375">
        <ele>1333.800048828125</ele>
        <time>2026-06-17T08:38:03.000Z</time>
        <extensions>
          <ns3:TrackPointExtension>
            <ns3:atemp>28.0</ns3:atemp>
          </ns3:TrackPointExtension>
        </extensions>
      </trkpt>
      <trkpt lat="42.54254694096744060516357421875" lon="19.95680778287351131439208984375">
        <ele>1333.800048828125</ele>
        <time>2026-06-17T08:38:04.000Z</time>
        <extensions>
          <ns3:TrackPointExtension>
            <ns3:atemp>28.0</ns3:atemp>
          </ns3:TrackPointExtension>
        </extensions>
      </trkpt>
      <trkpt lat="42.54254694096744060516357421875" lon="19.95680778287351131439208984375">
        <ele>1333.800048828125</ele>
        <time>2026-06-17T08:38:05.000Z</time>
        <extensions>
          <ns3:TrackPointExtension>
            <ns3:atemp>28.0</ns3:atemp>
          </ns3:TrackPointExtension>
        </extensions>
      </trkpt>
      <trkpt lat="42.54254694096744060516357421875" lon="19.95680778287351131439208984375">
        <ele>1333.800048828125</ele>
        <time>2026-06-17T08:38:06.000Z</time>
        <extensions>
          <ns3:TrackPointExtension>
            <ns3:atemp>28.0</ns3:atemp>
          </ns3:TrackPointExtension>
        </extensions>
      </trkpt>
      <trkpt lat="42.54254694096744060516357421875" lon="19.95680778287351131439208984375">
        <ele>1333.800048828125</ele>
        <time>2026-06-17T08:38:07.000Z</time>
        <extensions>
          <ns3:TrackPointExtension>
            <ns3:atemp>28.0</ns3:atemp>
          </ns3:TrackPointExtension>
        </extensions>
      </trkpt>
      <trkpt lat="42.54254694096744060516357421875" lon="19.95680778287351131439208984375">
        <ele>1333.800048828125</ele>
        <time>2026-06-17T08:38:08.000Z</time>
        <extensions>
          <ns3:TrackPointExtension>
            <ns3:atemp>28.0</ns3:atemp>
          </ns3:TrackPointExtension>
        </extensions>
      </trkpt>
      <trkpt lat="42.54254694096744060516357421875" lon="19.95680778287351131439208984375">
        <ele>1333.800048828125</ele>
        <time>2026-06-17T08:38:09.000Z</time>
        <extensions>
          <ns3:TrackPointExtension>
            <ns3:atemp>28.0</ns3:atemp>
          </ns3:TrackPointExtension>
        </extensions>
      </trkpt>
      <trkpt lat="42.54254694096744060516357421875" lon="19.95680778287351131439208984375">
        <ele>1333.800048828125</ele>
        <time>2026-06-17T08:38:10.000Z</time>
        <extensions>
          <ns3:TrackPointExtension>
            <ns3:atemp>28.0</ns3:atemp>
          </ns3:TrackPointExtension>
        </extensions>
      </trkpt>
      <trkpt lat="42.54254694096744060516357421875" lon="19.95680778287351131439208984375">
        <ele>1333.800048828125</ele>
        <time>2026-06-17T08:38:11.000Z</time>
        <extensions>
          <ns3:TrackPointExtension>
            <ns3:atemp>28.0</ns3:atemp>
          </ns3:TrackPointExtension>
        </extensions>
      </trkpt>
      <trkpt lat="42.54254694096744060516357421875" lon="19.95680778287351131439208984375">
        <ele>1333.800048828125</ele>
        <time>2026-06-17T08:38:12.000Z</time>
        <extensions>
          <ns3:TrackPointExtension>
            <ns3:atemp>28.0</ns3:atemp>
          </ns3:TrackPointExtension>
        </extensions>
      </trkpt>
      <trkpt lat="42.54254694096744060516357421875" lon="19.95680778287351131439208984375">
        <ele>1333.800048828125</ele>
        <time>2026-06-17T08:38:13.000Z</time>
        <extensions>
          <ns3:TrackPointExtension>
            <ns3:atemp>28.0</ns3:atemp>
          </ns3:TrackPointExtension>
        </extensions>
      </trkpt>
      <trkpt lat="42.54254694096744060516357421875" lon="19.95680778287351131439208984375">
        <ele>1333.800048828125</ele>
        <time>2026-06-17T08:38:14.000Z</time>
        <extensions>
          <ns3:TrackPointExtension>
            <ns3:atemp>28.0</ns3:atemp>
          </ns3:TrackPointExtension>
        </extensions>
      </trkpt>
      <trkpt lat="42.54254694096744060516357421875" lon="19.95680778287351131439208984375">
        <ele>1333.800048828125</ele>
        <time>2026-06-17T08:38:15.000Z</time>
        <extensions>
          <ns3:TrackPointExtension>
            <ns3:atemp>28.0</ns3:atemp>
          </ns3:TrackPointExtension>
        </extensions>
      </trkpt>
      <trkpt lat="42.54254694096744060516357421875" lon="19.95680778287351131439208984375">
        <ele>1333.800048828125</ele>
        <time>2026-06-17T08:38:16.000Z</time>
        <extensions>
          <ns3:TrackPointExtension>
            <ns3:atemp>28.0</ns3:atemp>
          </ns3:TrackPointExtension>
        </extensions>
      </trkpt>
      <trkpt lat="42.54254694096744060516357421875" lon="19.95680778287351131439208984375">
        <ele>1333.800048828125</ele>
        <time>2026-06-17T08:38:17.000Z</time>
        <extensions>
          <ns3:TrackPointExtension>
            <ns3:atemp>28.0</ns3:atemp>
          </ns3:TrackPointExtension>
        </extensions>
      </trkpt>
      <trkpt lat="42.54254694096744060516357421875" lon="19.95680778287351131439208984375">
        <ele>1333.800048828125</ele>
        <time>2026-06-17T08:38:18.000Z</time>
        <extensions>
          <ns3:TrackPointExtension>
            <ns3:atemp>28.0</ns3:atemp>
          </ns3:TrackPointExtension>
        </extensions>
      </trkpt>
      <trkpt lat="42.54254694096744060516357421875" lon="19.95680778287351131439208984375">
        <ele>1333.800048828125</ele>
        <time>2026-06-17T08:38:19.000Z</time>
        <extensions>
          <ns3:TrackPointExtension>
            <ns3:atemp>28.0</ns3:atemp>
          </ns3:TrackPointExtension>
        </extensions>
      </trkpt>
      <trkpt lat="42.54254694096744060516357421875" lon="19.95680778287351131439208984375">
        <ele>1333.800048828125</ele>
        <time>2026-06-17T08:38:20.000Z</time>
        <extensions>
          <ns3:TrackPointExtension>
            <ns3:atemp>28.0</ns3:atemp>
          </ns3:TrackPointExtension>
        </extensions>
      </trkpt>
      <trkpt lat="42.54254694096744060516357421875" lon="19.95680778287351131439208984375">
        <ele>1333.800048828125</ele>
        <time>2026-06-17T08:38:21.000Z</time>
        <extensions>
          <ns3:TrackPointExtension>
            <ns3:atemp>28.0</ns3:atemp>
          </ns3:TrackPointExtension>
        </extensions>
      </trkpt>
      <trkpt lat="42.54254694096744060516357421875" lon="19.95680778287351131439208984375">
        <ele>1333.800048828125</ele>
        <time>2026-06-17T08:38:22.000Z</time>
        <extensions>
          <ns3:TrackPointExtension>
            <ns3:atemp>28.0</ns3:atemp>
          </ns3:TrackPointExtension>
        </extensions>
      </trkpt>
      <trkpt lat="42.54254694096744060516357421875" lon="19.95680778287351131439208984375">
        <ele>1333.800048828125</ele>
        <time>2026-06-17T08:38:23.000Z</time>
        <extensions>
          <ns3:TrackPointExtension>
            <ns3:atemp>28.0</ns3:atemp>
          </ns3:TrackPointExtension>
        </extensions>
      </trkpt>
      <trkpt lat="42.54254694096744060516357421875" lon="19.95680778287351131439208984375">
        <ele>1333.800048828125</ele>
        <time>2026-06-17T08:38:24.000Z</time>
        <extensions>
          <ns3:TrackPointExtension>
            <ns3:atemp>28.0</ns3:atemp>
          </ns3:TrackPointExtension>
        </extensions>
      </trkpt>
      <trkpt lat="42.54254694096744060516357421875" lon="19.95680778287351131439208984375">
        <ele>1333.800048828125</ele>
        <time>2026-06-17T08:38:25.000Z</time>
        <extensions>
          <ns3:TrackPointExtension>
            <ns3:atemp>28.0</ns3:atemp>
          </ns3:TrackPointExtension>
        </extensions>
      </trkpt>
      <trkpt lat="42.54254694096744060516357421875" lon="19.95680778287351131439208984375">
        <ele>1333.800048828125</ele>
        <time>2026-06-17T08:38:26.000Z</time>
        <extensions>
          <ns3:TrackPointExtension>
            <ns3:atemp>28.0</ns3:atemp>
          </ns3:TrackPointExtension>
        </extensions>
      </trkpt>
      <trkpt lat="42.54254694096744060516357421875" lon="19.95680778287351131439208984375">
        <ele>1333.800048828125</ele>
        <time>2026-06-17T08:38:27.000Z</time>
        <extensions>
          <ns3:TrackPointExtension>
            <ns3:atemp>28.0</ns3:atemp>
          </ns3:TrackPointExtension>
        </extensions>
      </trkpt>
      <trkpt lat="42.54254694096744060516357421875" lon="19.95680778287351131439208984375">
        <ele>1333.800048828125</ele>
        <time>2026-06-17T08:38:28.000Z</time>
        <extensions>
          <ns3:TrackPointExtension>
            <ns3:atemp>28.0</ns3:atemp>
          </ns3:TrackPointExtension>
        </extensions>
      </trkpt>
      <trkpt lat="42.54254694096744060516357421875" lon="19.95680778287351131439208984375">
        <ele>1333.800048828125</ele>
        <time>2026-06-17T08:38:29.000Z</time>
        <extensions>
          <ns3:TrackPointExtension>
            <ns3:atemp>28.0</ns3:atemp>
          </ns3:TrackPointExtension>
        </extensions>
      </trkpt>
      <trkpt lat="42.54254694096744060516357421875" lon="19.95680778287351131439208984375">
        <ele>1333.800048828125</ele>
        <time>2026-06-17T08:38:30.000Z</time>
        <extensions>
          <ns3:TrackPointExtension>
            <ns3:atemp>28.0</ns3:atemp>
          </ns3:TrackPointExtension>
        </extensions>
      </trkpt>
      <trkpt lat="42.54254694096744060516357421875" lon="19.95680778287351131439208984375">
        <ele>1333.800048828125</ele>
        <time>2026-06-17T08:38:31.000Z</time>
        <extensions>
          <ns3:TrackPointExtension>
            <ns3:atemp>28.0</ns3:atemp>
          </ns3:TrackPointExtension>
        </extensions>
      </trkpt>
      <trkpt lat="42.54254694096744060516357421875" lon="19.95680778287351131439208984375">
        <ele>1333.800048828125</ele>
        <time>2026-06-17T08:38:32.000Z</time>
        <extensions>
          <ns3:TrackPointExtension>
            <ns3:atemp>28.0</ns3:atemp>
          </ns3:TrackPointExtension>
        </extensions>
      </trkpt>
      <trkpt lat="42.54254694096744060516357421875" lon="19.95680778287351131439208984375">
        <ele>1333.800048828125</ele>
        <time>2026-06-17T08:38:33.000Z</time>
        <extensions>
          <ns3:TrackPointExtension>
            <ns3:atemp>28.0</ns3:atemp>
          </ns3:TrackPointExtension>
        </extensions>
      </trkpt>
      <trkpt lat="42.54254694096744060516357421875" lon="19.95680778287351131439208984375">
        <ele>1333.800048828125</ele>
        <time>2026-06-17T08:38:34.000Z</time>
        <extensions>
          <ns3:TrackPointExtension>
            <ns3:atemp>28.0</ns3:atemp>
          </ns3:TrackPointExtension>
        </extensions>
      </trkpt>
      <trkpt lat="42.54254694096744060516357421875" lon="19.95680778287351131439208984375">
        <ele>1333.800048828125</ele>
        <time>2026-06-17T08:38:35.000Z</time>
        <extensions>
          <ns3:TrackPointExtension>
            <ns3:atemp>28.0</ns3:atemp>
          </ns3:TrackPointExtension>
        </extensions>
      </trkpt>
      <trkpt lat="42.54254694096744060516357421875" lon="19.95680778287351131439208984375">
        <ele>1333.800048828125</ele>
        <time>2026-06-17T08:38:36.000Z</time>
        <extensions>
          <ns3:TrackPointExtension>
            <ns3:atemp>28.0</ns3:atemp>
          </ns3:TrackPointExtension>
        </extensions>
      </trkpt>
      <trkpt lat="42.54254694096744060516357421875" lon="19.95680778287351131439208984375">
        <ele>1333.800048828125</ele>
        <time>2026-06-17T08:38:37.000Z</time>
        <extensions>
          <ns3:TrackPointExtension>
            <ns3:atemp>28.0</ns3:atemp>
          </ns3:TrackPointExtension>
        </extensions>
      </trkpt>
      <trkpt lat="42.54254694096744060516357421875" lon="19.95680778287351131439208984375">
        <ele>1333.800048828125</ele>
        <time>2026-06-17T08:38:38.000Z</time>
        <extensions>
          <ns3:TrackPointExtension>
            <ns3:atemp>28.0</ns3:atemp>
          </ns3:TrackPointExtension>
        </extensions>
      </trkpt>
      <trkpt lat="42.54254694096744060516357421875" lon="19.95680778287351131439208984375">
        <ele>1333.800048828125</ele>
        <time>2026-06-17T08:38:39.000Z</time>
        <extensions>
          <ns3:TrackPointExtension>
            <ns3:atemp>28.0</ns3:atemp>
          </ns3:TrackPointExtension>
        </extensions>
      </trkpt>
      <trkpt lat="42.54254694096744060516357421875" lon="19.95680778287351131439208984375">
        <ele>1333.800048828125</ele>
        <time>2026-06-17T08:38:40.000Z</time>
        <extensions>
          <ns3:TrackPointExtension>
            <ns3:atemp>28.0</ns3:atemp>
          </ns3:TrackPointExtension>
        </extensions>
      </trkpt>
      <trkpt lat="42.54254694096744060516357421875" lon="19.95680778287351131439208984375">
        <ele>1333.800048828125</ele>
        <time>2026-06-17T08:38:41.000Z</time>
        <extensions>
          <ns3:TrackPointExtension>
            <ns3:atemp>28.0</ns3:atemp>
          </ns3:TrackPointExtension>
        </extensions>
      </trkpt>
      <trkpt lat="42.54254694096744060516357421875" lon="19.95680778287351131439208984375">
        <ele>1333.800048828125</ele>
        <time>2026-06-17T08:38:42.000Z</time>
        <extensions>
          <ns3:TrackPointExtension>
            <ns3:atemp>28.0</ns3:atemp>
          </ns3:TrackPointExtension>
        </extensions>
      </trkpt>
      <trkpt lat="42.54254694096744060516357421875" lon="19.95680778287351131439208984375">
        <ele>1333.800048828125</ele>
        <time>2026-06-17T08:38:43.000Z</time>
        <extensions>
          <ns3:TrackPointExtension>
            <ns3:atemp>28.0</ns3:atemp>
          </ns3:TrackPointExtension>
        </extensions>
      </trkpt>
      <trkpt lat="42.54254694096744060516357421875" lon="19.95680778287351131439208984375">
        <ele>1333.800048828125</ele>
        <time>2026-06-17T08:38:44.000Z</time>
        <extensions>
          <ns3:TrackPointExtension>
            <ns3:atemp>28.0</ns3:atemp>
          </ns3:TrackPointExtension>
        </extensions>
      </trkpt>
      <trkpt lat="42.54254694096744060516357421875" lon="19.95680778287351131439208984375">
        <ele>1333.800048828125</ele>
        <time>2026-06-17T08:38:45.000Z</time>
        <extensions>
          <ns3:TrackPointExtension>
            <ns3:atemp>28.0</ns3:atemp>
          </ns3:TrackPointExtension>
        </extensions>
      </trkpt>
      <trkpt lat="42.54254694096744060516357421875" lon="19.95680778287351131439208984375">
        <ele>1333.800048828125</ele>
        <time>2026-06-17T08:38:46.000Z</time>
        <extensions>
          <ns3:TrackPointExtension>
            <ns3:atemp>28.0</ns3:atemp>
          </ns3:TrackPointExtension>
        </extensions>
      </trkpt>
      <trkpt lat="42.5425414927303791046142578125" lon="19.95679688639938831329345703125">
        <ele>1333.800048828125</ele>
        <time>2026-06-17T08:38:47.000Z</time>
        <extensions>
          <ns3:TrackPointExtension>
            <ns3:atemp>28.0</ns3:atemp>
          </ns3:TrackPointExtension>
        </extensions>
      </trkpt>
      <trkpt lat="42.5425388105213642120361328125" lon="19.95677970349788665771484375">
        <ele>1333.800048828125</ele>
        <time>2026-06-17T08:38:48.000Z</time>
        <extensions>
          <ns3:TrackPointExtension>
            <ns3:atemp>28.0</ns3:atemp>
          </ns3:TrackPointExtension>
        </extensions>
      </trkpt>
      <trkpt lat="42.5425277464091777801513671875" lon="19.95677157305181026458740234375">
        <ele>1333.800048828125</ele>
        <time>2026-06-17T08:38:49.000Z</time>
        <extensions>
          <ns3:TrackPointExtension>
            <ns3:atemp>28.0</ns3:atemp>
          </ns3:TrackPointExtension>
        </extensions>
      </trkpt>
      <trkpt lat="42.54251710139214992523193359375" lon="19.95676453225314617156982421875">
        <ele>1334</ele>
        <time>2026-06-17T08:38:50.000Z</time>
        <extensions>
          <ns3:TrackPointExtension>
            <ns3:atemp>28.0</ns3:atemp>
          </ns3:TrackPointExtension>
        </extensions>
      </trkpt>
      <trkpt lat="42.5425051152706146240234375" lon="19.95675732381641864776611328125">
        <ele>1334</ele>
        <time>2026-06-17T08:38:51.000Z</time>
        <extensions>
          <ns3:TrackPointExtension>
            <ns3:atemp>28.0</ns3:atemp>
          </ns3:TrackPointExtension>
        </extensions>
      </trkpt>
      <trkpt lat="42.54249396733939647674560546875" lon="19.95675154030323028564453125">
        <ele>1334.199951171875</ele>
        <time>2026-06-17T08:38:52.000Z</time>
        <extensions>
          <ns3:TrackPointExtension>
            <ns3:atemp>28.0</ns3:atemp>
          </ns3:TrackPointExtension>
        </extensions>
      </trkpt>
      <trkpt lat="42.542482316493988037109375" lon="19.95674910955131053924560546875">
        <ele>1334.199951171875</ele>
        <time>2026-06-17T08:38:53.000Z</time>
        <extensions>
          <ns3:TrackPointExtension>
            <ns3:atemp>28.0</ns3:atemp>
          </ns3:TrackPointExtension>
        </extensions>
      </trkpt>
      <trkpt lat="42.54246328957378864288330078125" lon="19.9567580781877040863037109375">
        <ele>1334.4000244140625</ele>
        <time>2026-06-17T08:38:54.000Z</time>
        <extensions>
          <ns3:TrackPointExtension>
            <ns3:atemp>28.0</ns3:atemp>
          </ns3:TrackPointExtension>
        </extensions>
      </trkpt>
      <trkpt lat="42.54244409501552581787109375" lon="19.95677157305181026458740234375">
        <ele>1334.4000244140625</ele>
        <time>2026-06-17T08:38:55.000Z</time>
        <extensions>
          <ns3:TrackPointExtension>
            <ns3:atemp>28.0</ns3:atemp>
          </ns3:TrackPointExtension>
        </extensions>
      </trkpt>
      <trkpt lat="42.542426995933055877685546875" lon="19.95679445564746856689453125">
        <ele>1334.5999755859375</ele>
        <time>2026-06-17T08:38:56.000Z</time>
        <extensions>
          <ns3:TrackPointExtension>
            <ns3:atemp>28.0</ns3:atemp>
          </ns3:TrackPointExtension>
        </extensions>
      </trkpt>
      <trkpt lat="42.5424112379550933837890625" lon="19.956815242767333984375">
        <ele>1334.5999755859375</ele>
        <time>2026-06-17T08:38:57.000Z</time>
        <extensions>
          <ns3:TrackPointExtension>
            <ns3:atemp>28.0</ns3:atemp>
          </ns3:TrackPointExtension>
        </extensions>
      </trkpt>
      <trkpt lat="42.54239908419549465179443359375" lon="19.9568304978311061859130859375">
        <ele>1334.800048828125</ele>
        <time>2026-06-17T08:38:58.000Z</time>
        <extensions>
          <ns3:TrackPointExtension>
            <ns3:atemp>28.0</ns3:atemp>
          </ns3:TrackPointExtension>
        </extensions>
      </trkpt>
      <trkpt lat="42.5423844158649444580078125" lon="19.95684885419905185699462890625">
        <ele>1335</ele>
        <time>2026-06-17T08:38:59.000Z</time>
        <extensions>
          <ns3:TrackPointExtension>
            <ns3:atemp>28.0</ns3:atemp>
          </ns3:TrackPointExtension>
        </extensions>
      </trkpt>
      <trkpt lat="42.5423671491444110870361328125" lon="19.9568740837275981903076171875">
        <ele>1335.4000244140625</ele>
        <time>2026-06-17T08:39:00.000Z</time>
        <extensions>
          <ns3:TrackPointExtension>
            <ns3:atemp>28.0</ns3:atemp>
          </ns3:TrackPointExtension>
        </extensions>
      </trkpt>
      <trkpt lat="42.54234929569065570831298828125" lon="19.95689629577100276947021484375">
        <ele>1335.5999755859375</ele>
        <time>2026-06-17T08:39:01.000Z</time>
        <extensions>
          <ns3:TrackPointExtension>
            <ns3:atemp>28.0</ns3:atemp>
          </ns3:TrackPointExtension>
        </extensions>
      </trkpt>
      <trkpt lat="42.54232984967529773712158203125" lon="19.9569153226912021636962890625">
        <ele>1336.199951171875</ele>
        <time>2026-06-17T08:39:02.000Z</time>
        <extensions>
          <ns3:TrackPointExtension>
            <ns3:atemp>28.0</ns3:atemp>
          </ns3:TrackPointExtension>
        </extensions>
      </trkpt>
      <trkpt lat="42.5423108227550983428955078125" lon="19.95692990720272064208984375">
        <ele>1336.5999755859375</ele>
        <time>2026-06-17T08:39:03.000Z</time>
        <extensions>
          <ns3:TrackPointExtension>
            <ns3:atemp>28.0</ns3:atemp>
          </ns3:TrackPointExtension>
        </extensions>
      </trkpt>
      <trkpt lat="42.542291544377803802490234375" lon="19.956949017941951751708984375">
        <ele>1337</ele>
        <time>2026-06-17T08:39:04.000Z</time>
        <extensions>
          <ns3:TrackPointExtension>
            <ns3:atemp>28.0</ns3:atemp>
          </ns3:TrackPointExtension>
        </extensions>
      </trkpt>
      <trkpt lat="42.54227385856211185455322265625" lon="19.956969134509563446044921875">
        <ele>1337.4000244140625</ele>
        <time>2026-06-17T08:39:05.000Z</time>
        <extensions>
          <ns3:TrackPointExtension>
            <ns3:atemp>28.0</ns3:atemp>
          </ns3:TrackPointExtension>
        </extensions>
      </trkpt>
      <trkpt lat="42.5422578491270542144775390625" lon="19.95699034072458744049072265625">
        <ele>1337.800048828125</ele>
        <time>2026-06-17T08:39:06.000Z</time>
        <extensions>
          <ns3:TrackPointExtension>
            <ns3:atemp>28.0</ns3:atemp>
          </ns3:TrackPointExtension>
        </extensions>
      </trkpt>
      <trkpt lat="42.54224292933940887451171875" lon="19.95700291357934474945068359375">
        <ele>1338.199951171875</ele>
        <time>2026-06-17T08:39:07.000Z</time>
        <extensions>
          <ns3:TrackPointExtension>
            <ns3:atemp>28.0</ns3:atemp>
          </ns3:TrackPointExtension>
        </extensions>
      </trkpt>
      <trkpt lat="42.54222557879984378814697265625" lon="19.957020767033100128173828125">
        <ele>1338.4000244140625</ele>
        <time>2026-06-17T08:39:08.000Z</time>
        <extensions>
          <ns3:TrackPointExtension>
            <ns3:atemp>28.0</ns3:atemp>
          </ns3:TrackPointExtension>
        </extensions>
      </trkpt>
      <trkpt lat="42.54222557879984378814697265625" lon="19.957020767033100128173828125">
        <ele>1338.800048828125</ele>
        <time>2026-06-17T08:39:09.000Z</time>
        <extensions>
          <ns3:TrackPointExtension>
            <ns3:atemp>28.0</ns3:atemp>
          </ns3:TrackPointExtension>
        </extensions>
      </trkpt>
      <trkpt lat="42.54219406284391880035400390625" lon="19.95705354027450084686279296875">
        <ele>1339.199951171875</ele>
        <time>2026-06-17T08:39:10.000Z</time>
        <extensions>
          <ns3:TrackPointExtension>
            <ns3:atemp>28.0</ns3:atemp>
          </ns3:TrackPointExtension>
        </extensions>
      </trkpt>
      <trkpt lat="42.542176879942417144775390625" lon="19.957065023481845855712890625">
        <ele>1339.4000244140625</ele>
        <time>2026-06-17T08:39:11.000Z</time>
        <extensions>
          <ns3:TrackPointExtension>
            <ns3:atemp>28.0</ns3:atemp>
          </ns3:TrackPointExtension>
        </extensions>
      </trkpt>
      <trkpt lat="42.542156763374805450439453125" lon="19.9570832960307598114013671875">
        <ele>1339.800048828125</ele>
        <time>2026-06-17T08:39:12.000Z</time>
        <extensions>
          <ns3:TrackPointExtension>
            <ns3:atemp>28.0</ns3:atemp>
          </ns3:TrackPointExtension>
        </extensions>
      </trkpt>
      <trkpt lat="42.542138993740081787109375" lon="19.95709997601807117462158203125">
        <ele>1340.199951171875</ele>
        <time>2026-06-17T08:39:13.000Z</time>
        <extensions>
          <ns3:TrackPointExtension>
            <ns3:atemp>28.0</ns3:atemp>
          </ns3:TrackPointExtension>
        </extensions>
      </trkpt>
      <trkpt lat="42.54212348721921443939208984375" lon="19.95711355470120906829833984375">
        <ele>1340.4000244140625</ele>
        <time>2026-06-17T08:39:14.000Z</time>
        <extensions>
          <ns3:TrackPointExtension>
            <ns3:atemp>28.0</ns3:atemp>
          </ns3:TrackPointExtension>
        </extensions>
      </trkpt>
      <trkpt lat="42.54210940562188625335693359375" lon="19.9571265466511249542236328125">
        <ele>1340.800048828125</ele>
        <time>2026-06-17T08:39:15.000Z</time>
        <extensions>
          <ns3:TrackPointExtension>
            <ns3:atemp>28.0</ns3:atemp>
          </ns3:TrackPointExtension>
        </extensions>
      </trkpt>
      <trkpt lat="42.5420965813100337982177734375" lon="19.95713685639202594757080078125">
        <ele>1341.199951171875</ele>
        <time>2026-06-17T08:39:16.000Z</time>
        <extensions>
          <ns3:TrackPointExtension>
            <ns3:atemp>28.0</ns3:atemp>
          </ns3:TrackPointExtension>
        </extensions>
      </trkpt>
      <trkpt lat="42.54208291880786418914794921875" lon="19.9571500159800052642822265625">
        <ele>1341.5999755859375</ele>
        <time>2026-06-17T08:39:17.000Z</time>
        <extensions>
          <ns3:TrackPointExtension>
            <ns3:atemp>28.0</ns3:atemp>
          </ns3:TrackPointExtension>
        </extensions>
      </trkpt>
      <trkpt lat="42.542066909372806549072265625" lon="19.9571671150624752044677734375">
        <ele>1341.800048828125</ele>
        <time>2026-06-17T08:39:18.000Z</time>
        <extensions>
          <ns3:TrackPointExtension>
            <ns3:atemp>28.0</ns3:atemp>
          </ns3:TrackPointExtension>
        </extensions>
      </trkpt>
      <trkpt lat="42.5420546717941761016845703125" lon="19.9571909196674823760986328125">
        <ele>1342</ele>
        <time>2026-06-17T08:39:19.000Z</time>
        <extensions>
          <ns3:TrackPointExtension>
            <ns3:atemp>28.0</ns3:atemp>
          </ns3:TrackPointExtension>
        </extensions>
      </trkpt>
      <trkpt lat="42.54204042255878448486328125" lon="19.95721112005412578582763671875">
        <ele>1342.4000244140625</ele>
        <time>2026-06-17T08:39:20.000Z</time>
        <extensions>
          <ns3:TrackPointExtension>
            <ns3:atemp>28.0</ns3:atemp>
          </ns3:TrackPointExtension>
        </extensions>
      </trkpt>
      <trkpt lat="42.54202692769467830657958984375" lon="19.95722939260303974151611328125">
        <ele>1342.800048828125</ele>
        <time>2026-06-17T08:39:21.000Z</time>
        <extensions>
          <ns3:TrackPointExtension>
            <ns3:atemp>28.0</ns3:atemp>
          </ns3:TrackPointExtension>
        </extensions>
      </trkpt>
      <trkpt lat="42.54201251082122325897216796875" lon="19.9572482518851757049560546875">
        <ele>1343</ele>
        <time>2026-06-17T08:39:22.000Z</time>
        <extensions>
          <ns3:TrackPointExtension>
            <ns3:atemp>28.0</ns3:atemp>
          </ns3:TrackPointExtension>
        </extensions>
      </trkpt>
      <trkpt lat="42.54199876450002193450927734375" lon="19.9572690390050411224365234375">
        <ele>1343.199951171875</ele>
        <time>2026-06-17T08:39:23.000Z</time>
        <extensions>
          <ns3:TrackPointExtension>
            <ns3:atemp>29.0</ns3:atemp>
          </ns3:TrackPointExtension>
        </extensions>
      </trkpt>
      <trkpt lat="42.5419879518449306488037109375" lon="19.95728488080203533172607421875">
        <ele>1343.5999755859375</ele>
        <time>2026-06-17T08:39:24.000Z</time>
        <extensions>
          <ns3:TrackPointExtension>
            <ns3:atemp>29.0</ns3:atemp>
          </ns3:TrackPointExtension>
        </extensions>
      </trkpt>
      <trkpt lat="42.54197470843791961669921875" lon="19.95730298571288585662841796875">
        <ele>1343.800048828125</ele>
        <time>2026-06-17T08:39:25.000Z</time>
        <extensions>
          <ns3:TrackPointExtension>
            <ns3:atemp>29.0</ns3:atemp>
          </ns3:TrackPointExtension>
        </extensions>
      </trkpt>
      <trkpt lat="42.5419618003070354461669921875" lon="19.95732377283275127410888671875">
        <ele>1344.199951171875</ele>
        <time>2026-06-17T08:39:26.000Z</time>
        <extensions>
          <ns3:TrackPointExtension>
            <ns3:atemp>29.0</ns3:atemp>
          </ns3:TrackPointExtension>
        </extensions>
      </trkpt>
      <trkpt lat="42.54194763489067554473876953125" lon="19.95734120719134807586669921875">
        <ele>1344.5999755859375</ele>
        <time>2026-06-17T08:39:27.000Z</time>
        <extensions>
          <ns3:TrackPointExtension>
            <ns3:atemp>28.0</ns3:atemp>
          </ns3:TrackPointExtension>
        </extensions>
      </trkpt>
      <trkpt lat="42.54193170927464962005615234375" lon="19.95735830627381801605224609375">
        <ele>1344.800048828125</ele>
        <time>2026-06-17T08:39:28.000Z</time>
        <extensions>
          <ns3:TrackPointExtension>
            <ns3:atemp>29.0</ns3:atemp>
          </ns3:TrackPointExtension>
        </extensions>
      </trkpt>
      <trkpt lat="42.54191762767732143402099609375" lon="19.9573712982237339019775390625">
        <ele>1345.199951171875</ele>
        <time>2026-06-17T08:39:29.000Z</time>
        <extensions>
          <ns3:TrackPointExtension>
            <ns3:atemp>29.0</ns3:atemp>
          </ns3:TrackPointExtension>
        </extensions>
      </trkpt>
      <trkpt lat="42.54189600236713886260986328125" lon="19.9573900736868381500244140625">
        <ele>1345.5999755859375</ele>
        <time>2026-06-17T08:39:30.000Z</time>
        <extensions>
          <ns3:TrackPointExtension>
            <ns3:atemp>29.0</ns3:atemp>
          </ns3:TrackPointExtension>
        </extensions>
      </trkpt>
      <trkpt lat="42.54187949001789093017578125" lon="19.95739803649485111236572265625">
        <ele>1345.800048828125</ele>
        <time>2026-06-17T08:39:31.000Z</time>
        <extensions>
          <ns3:TrackPointExtension>
            <ns3:atemp>29.0</ns3:atemp>
          </ns3:TrackPointExtension>
        </extensions>
      </trkpt>
      <trkpt lat="42.54185928963124752044677734375" lon="19.95740876533091068267822265625">
        <ele>1346.199951171875</ele>
        <time>2026-06-17T08:39:32.000Z</time>
        <extensions>
          <ns3:TrackPointExtension>
            <ns3:atemp>29.0</ns3:atemp>
          </ns3:TrackPointExtension>
        </extensions>
      </trkpt>
      <trkpt lat="42.54184219054877758026123046875" lon="19.9574175663292407989501953125">
        <ele>1346.5999755859375</ele>
        <time>2026-06-17T08:39:33.000Z</time>
        <extensions>
          <ns3:TrackPointExtension>
            <ns3:atemp>29.0</ns3:atemp>
          </ns3:TrackPointExtension>
        </extensions>
      </trkpt>
      <trkpt lat="42.54182877950370311737060546875" lon="19.9574175663292407989501953125">
        <ele>1347</ele>
        <time>2026-06-17T08:39:34.000Z</time>
        <extensions>
          <ns3:TrackPointExtension>
            <ns3:atemp>29.0</ns3:atemp>
          </ns3:TrackPointExtension>
        </extensions>
      </trkpt>
      <trkpt lat="42.54181100986897945404052734375" lon="19.95741765014827251434326171875">
        <ele>1347.199951171875</ele>
        <time>2026-06-17T08:39:35.000Z</time>
        <extensions>
          <ns3:TrackPointExtension>
            <ns3:atemp>29.0</ns3:atemp>
          </ns3:TrackPointExtension>
        </extensions>
      </trkpt>
      <trkpt lat="42.5417911447584629058837890625" lon="19.957421757280826568603515625">
        <ele>1347.5999755859375</ele>
        <time>2026-06-17T08:39:36.000Z</time>
        <extensions>
          <ns3:TrackPointExtension>
            <ns3:atemp>29.0</ns3:atemp>
          </ns3:TrackPointExtension>
        </extensions>
      </trkpt>
      <trkpt lat="42.54177622497081756591796875" lon="19.9574229307472705841064453125">
        <ele>1348</ele>
        <time>2026-06-17T08:39:37.000Z</time>
        <extensions>
          <ns3:TrackPointExtension>
            <ns3:atemp>29.0</ns3:atemp>
          </ns3:TrackPointExtension>
        </extensions>
      </trkpt>
      <trkpt lat="42.541758120059967041015625" lon="19.95741966180503368377685546875">
        <ele>1348.5999755859375</ele>
        <time>2026-06-17T08:39:38.000Z</time>
        <extensions>
          <ns3:TrackPointExtension>
            <ns3:atemp>29.0</ns3:atemp>
          </ns3:TrackPointExtension>
        </extensions>
      </trkpt>
      <trkpt lat="42.54173959605395793914794921875" lon="19.95741161517798900604248046875">
        <ele>1348.800048828125</ele>
        <time>2026-06-17T08:39:39.000Z</time>
        <extensions>
          <ns3:TrackPointExtension>
            <ns3:atemp>29.0</ns3:atemp>
          </ns3:TrackPointExtension>
        </extensions>
      </trkpt>
      <trkpt lat="42.5417204014956951141357421875" lon="19.9574034847319126129150390625">
        <ele>1349.199951171875</ele>
        <time>2026-06-17T08:39:40.000Z</time>
        <extensions>
          <ns3:TrackPointExtension>
            <ns3:atemp>29.0</ns3:atemp>
          </ns3:TrackPointExtension>
        </extensions>
      </trkpt>
      <trkpt lat="42.54169969819486141204833984375" lon="19.95739619247615337371826171875">
        <ele>1349.4000244140625</ele>
        <time>2026-06-17T08:39:41.000Z</time>
        <extensions>
          <ns3:TrackPointExtension>
            <ns3:atemp>29.0</ns3:atemp>
          </ns3:TrackPointExtension>
        </extensions>
      </trkpt>
      <trkpt lat="42.541682682931423187255859375" lon="19.95739049278199672698974609375">
        <ele>1349.5999755859375</ele>
        <time>2026-06-17T08:39:42.000Z</time>
        <extensions>
          <ns3:TrackPointExtension>
            <ns3:atemp>29.0</ns3:atemp>
          </ns3:TrackPointExtension>
        </extensions>
      </trkpt>
      <trkpt lat="42.54166491329669952392578125" lon="19.957386888563632965087890625">
        <ele>1349.800048828125</ele>
        <time>2026-06-17T08:39:43.000Z</time>
        <extensions>
          <ns3:TrackPointExtension>
            <ns3:atemp>29.0</ns3:atemp>
          </ns3:TrackPointExtension>
        </extensions>
      </trkpt>
      <trkpt lat="42.54164605401456356048583984375" lon="19.95738093741238117218017578125">
        <ele>1350.199951171875</ele>
        <time>2026-06-17T08:39:44.000Z</time>
        <extensions>
          <ns3:TrackPointExtension>
            <ns3:atemp>29.0</ns3:atemp>
          </ns3:TrackPointExtension>
        </extensions>
      </trkpt>
      <trkpt lat="42.5416282005608081817626953125" lon="19.95737389661371707916259765625">
        <ele>1350.4000244140625</ele>
        <time>2026-06-17T08:39:45.000Z</time>
        <extensions>
          <ns3:TrackPointExtension>
            <ns3:atemp>29.0</ns3:atemp>
          </ns3:TrackPointExtension>
        </extensions>
      </trkpt>
      <trkpt lat="42.5416100956499576568603515625" lon="19.957369454205036163330078125">
        <ele>1350.5999755859375</ele>
        <time>2026-06-17T08:39:46.000Z</time>
        <extensions>
          <ns3:TrackPointExtension>
            <ns3:atemp>29.0</ns3:atemp>
          </ns3:TrackPointExtension>
        </extensions>
      </trkpt>
      <trkpt lat="42.5415933318436145782470703125" lon="19.95736300013959407806396484375">
        <ele>1350.800048828125</ele>
        <time>2026-06-17T08:39:47.000Z</time>
        <extensions>
          <ns3:TrackPointExtension>
            <ns3:atemp>29.0</ns3:atemp>
          </ns3:TrackPointExtension>
        </extensions>
      </trkpt>
      <trkpt lat="42.5415742211043834686279296875" lon="19.9573548696935176849365234375">
        <ele>1351</ele>
        <time>2026-06-17T08:39:48.000Z</time>
        <extensions>
          <ns3:TrackPointExtension>
            <ns3:atemp>29.0</ns3:atemp>
          </ns3:TrackPointExtension>
        </extensions>
      </trkpt>
      <trkpt lat="42.54155519418418407440185546875" lon="19.95734958909451961517333984375">
        <ele>1351.4000244140625</ele>
        <time>2026-06-17T08:39:49.000Z</time>
        <extensions>
          <ns3:TrackPointExtension>
            <ns3:atemp>29.0</ns3:atemp>
          </ns3:TrackPointExtension>
        </extensions>
      </trkpt>
      <trkpt lat="42.54153725691139698028564453125" lon="19.95734430849552154541015625">
        <ele>1351.800048828125</ele>
        <time>2026-06-17T08:39:50.000Z</time>
        <extensions>
          <ns3:TrackPointExtension>
            <ns3:atemp>29.0</ns3:atemp>
          </ns3:TrackPointExtension>
        </extensions>
      </trkpt>
      <trkpt lat="42.54152015782892704010009765625" lon="19.9573381058871746063232421875">
        <ele>1352</ele>
        <time>2026-06-17T08:39:51.000Z</time>
        <extensions>
          <ns3:TrackPointExtension>
            <ns3:atemp>29.0</ns3:atemp>
          </ns3:TrackPointExtension>
        </extensions>
      </trkpt>
      <trkpt lat="42.54150222055613994598388671875" lon="19.9573288857936859130859375">
        <ele>1352.5999755859375</ele>
        <time>2026-06-17T08:39:52.000Z</time>
        <extensions>
          <ns3:TrackPointExtension>
            <ns3:atemp>29.0</ns3:atemp>
          </ns3:TrackPointExtension>
        </extensions>
      </trkpt>
      <trkpt lat="42.54148411564528942108154296875" lon="19.9573213420808315277099609375">
        <ele>1352.800048828125</ele>
        <time>2026-06-17T08:39:53.000Z</time>
        <extensions>
          <ns3:TrackPointExtension>
            <ns3:atemp>29.0</ns3:atemp>
          </ns3:TrackPointExtension>
        </extensions>
      </trkpt>
      <trkpt lat="42.541465424001216888427734375" lon="19.95731254108250141143798828125">
        <ele>1353.199951171875</ele>
        <time>2026-06-17T08:39:54.000Z</time>
        <extensions>
          <ns3:TrackPointExtension>
            <ns3:atemp>29.0</ns3:atemp>
          </ns3:TrackPointExtension>
        </extensions>
      </trkpt>
      <trkpt lat="42.54144539125263690948486328125" lon="19.9573020637035369873046875">
        <ele>1353.5999755859375</ele>
        <time>2026-06-17T08:39:55.000Z</time>
        <extensions>
          <ns3:TrackPointExtension>
            <ns3:atemp>29.0</ns3:atemp>
          </ns3:TrackPointExtension>
        </extensions>
      </trkpt>
      <trkpt lat="42.54142628051340579986572265625" lon="19.95729292742908000946044921875">
        <ele>1354</ele>
        <time>2026-06-17T08:39:56.000Z</time>
        <extensions>
          <ns3:TrackPointExtension>
            <ns3:atemp>29.0</ns3:atemp>
          </ns3:TrackPointExtension>
        </extensions>
      </trkpt>
      <trkpt lat="42.54140716977417469024658203125" lon="19.9572844617068767547607421875">
        <ele>1354.199951171875</ele>
        <time>2026-06-17T08:39:57.000Z</time>
        <extensions>
          <ns3:TrackPointExtension>
            <ns3:atemp>29.0</ns3:atemp>
          </ns3:TrackPointExtension>
        </extensions>
      </trkpt>
      <trkpt lat="42.541389651596546173095703125" lon="19.9572744034230709075927734375">
        <ele>1354.4000244140625</ele>
        <time>2026-06-17T08:39:58.000Z</time>
        <extensions>
          <ns3:TrackPointExtension>
            <ns3:atemp>29.0</ns3:atemp>
          </ns3:TrackPointExtension>
        </extensions>
      </trkpt>
      <trkpt lat="42.54136626608669757843017578125" lon="19.9572616629302501678466796875">
        <ele>1354.4000244140625</ele>
        <time>2026-06-17T08:39:59.000Z</time>
        <extensions>
          <ns3:TrackPointExtension>
            <ns3:atemp>29.0</ns3:atemp>
          </ns3:TrackPointExtension>
        </extensions>
      </trkpt>
      <trkpt lat="42.54134170711040496826171875" lon="19.957250766456127166748046875">
        <ele>1354.5999755859375</ele>
        <time>2026-06-17T08:40:00.000Z</time>
        <extensions>
          <ns3:TrackPointExtension>
            <ns3:atemp>29.0</ns3:atemp>
          </ns3:TrackPointExtension>
        </extensions>
      </trkpt>
      <trkpt lat="42.54131999798119068145751953125" lon="19.9572408758103847503662109375">
        <ele>1354.800048828125</ele>
        <time>2026-06-17T08:40:01.000Z</time>
        <extensions>
          <ns3:TrackPointExtension>
            <ns3:atemp>29.0</ns3:atemp>
          </ns3:TrackPointExtension>
        </extensions>
      </trkpt>
      <trkpt lat="42.54129636101424694061279296875" lon="19.95723031461238861083984375">
        <ele>1355</ele>
        <time>2026-06-17T08:40:02.000Z</time>
        <extensions>
          <ns3:TrackPointExtension>
            <ns3:atemp>29.0</ns3:atemp>
          </ns3:TrackPointExtension>
        </extensions>
      </trkpt>
      <trkpt lat="42.54127305932343006134033203125" lon="19.95722453109920024871826171875">
        <ele>1355.199951171875</ele>
        <time>2026-06-17T08:40:03.000Z</time>
        <extensions>
          <ns3:TrackPointExtension>
            <ns3:atemp>29.0</ns3:atemp>
          </ns3:TrackPointExtension>
        </extensions>
      </trkpt>
      <trkpt lat="42.541251517832279205322265625" lon="19.9572231061756610870361328125">
        <ele>1355.5999755859375</ele>
        <time>2026-06-17T08:40:04.000Z</time>
        <extensions>
          <ns3:TrackPointExtension>
            <ns3:atemp>29.0</ns3:atemp>
          </ns3:TrackPointExtension>
        </extensions>
      </trkpt>
      <trkpt lat="42.54123215563595294952392578125" lon="19.95722553692758083343505859375">
        <ele>1355.800048828125</ele>
        <time>2026-06-17T08:40:05.000Z</time>
        <extensions>
          <ns3:TrackPointExtension>
            <ns3:atemp>29.0</ns3:atemp>
          </ns3:TrackPointExtension>
        </extensions>
      </trkpt>
      <trkpt lat="42.54121270962059497833251953125" lon="19.95723475702106952667236328125">
        <ele>1356.199951171875</ele>
        <time>2026-06-17T08:40:06.000Z</time>
        <extensions>
          <ns3:TrackPointExtension>
            <ns3:atemp>29.0</ns3:atemp>
          </ns3:TrackPointExtension>
        </extensions>
      </trkpt>
      <trkpt lat="42.541194856166839599609375" lon="19.95724196545779705047607421875">
        <ele>1356.4000244140625</ele>
        <time>2026-06-17T08:40:07.000Z</time>
        <extensions>
          <ns3:TrackPointExtension>
            <ns3:atemp>29.0</ns3:atemp>
          </ns3:TrackPointExtension>
        </extensions>
      </trkpt>
      <trkpt lat="42.5411760807037353515625" lon="19.9572606571018695831298828125">
        <ele>1356.800048828125</ele>
        <time>2026-06-17T08:40:08.000Z</time>
        <extensions>
          <ns3:TrackPointExtension>
            <ns3:atemp>29.0</ns3:atemp>
          </ns3:TrackPointExtension>
        </extensions>
      </trkpt>
      <trkpt lat="42.54115353338420391082763671875" lon="19.9572806060314178466796875">
        <ele>1357</ele>
        <time>2026-06-17T08:40:09.000Z</time>
        <extensions>
          <ns3:TrackPointExtension>
            <ns3:atemp>29.0</ns3:atemp>
          </ns3:TrackPointExtension>
        </extensions>
      </trkpt>
      <trkpt lat="42.54112721420824527740478515625" lon="19.957292340695858001708984375">
        <ele>1357.4000244140625</ele>
        <time>2026-06-17T08:40:10.000Z</time>
        <extensions>
          <ns3:TrackPointExtension>
            <ns3:atemp>29.0</ns3:atemp>
          </ns3:TrackPointExtension>
        </extensions>
      </trkpt>
      <trkpt lat="42.5411044992506504058837890625" lon="19.957286305725574493408203125">
        <ele>1357.800048828125</ele>
        <time>2026-06-17T08:40:11.000Z</time>
        <extensions>
          <ns3:TrackPointExtension>
            <ns3:atemp>29.0</ns3:atemp>
          </ns3:TrackPointExtension>
        </extensions>
      </trkpt>
      <trkpt lat="42.541082203388214111328125" lon="19.957266859710216522216796875">
        <ele>1358.199951171875</ele>
        <time>2026-06-17T08:40:12.000Z</time>
        <extensions>
          <ns3:TrackPointExtension>
            <ns3:atemp>29.0</ns3:atemp>
          </ns3:TrackPointExtension>
        </extensions>
      </trkpt>
      <trkpt lat="42.54106803797185420989990234375" lon="19.95723861269652843475341796875">
        <ele>1358.5999755859375</ele>
        <time>2026-06-17T08:40:13.000Z</time>
        <extensions>
          <ns3:TrackPointExtension>
            <ns3:atemp>29.0</ns3:atemp>
          </ns3:TrackPointExtension>
        </extensions>
      </trkpt>
      <trkpt lat="42.54106250591576099395751953125" lon="19.95719804428517818450927734375">
        <ele>1358.800048828125</ele>
        <time>2026-06-17T08:40:14.000Z</time>
        <extensions>
          <ns3:TrackPointExtension>
            <ns3:atemp>29.0</ns3:atemp>
          </ns3:TrackPointExtension>
        </extensions>
      </trkpt>
      <trkpt lat="42.54107072018086910247802734375" lon="19.95717021636664867401123046875">
        <ele>1359</ele>
        <time>2026-06-17T08:40:15.000Z</time>
        <extensions>
          <ns3:TrackPointExtension>
            <ns3:atemp>29.0</ns3:atemp>
          </ns3:TrackPointExtension>
        </extensions>
      </trkpt>
      <trkpt lat="42.54108664579689502716064453125" lon="19.957153536379337310791015625">
        <ele>1359.4000244140625</ele>
        <time>2026-06-17T08:40:16.000Z</time>
        <extensions>
          <ns3:TrackPointExtension>
            <ns3:atemp>29.0</ns3:atemp>
          </ns3:TrackPointExtension>
        </extensions>
      </trkpt>
      <trkpt lat="42.5411048345267772674560546875" lon="19.9571386165916919708251953125">
        <ele>1359.5999755859375</ele>
        <time>2026-06-17T08:40:17.000Z</time>
        <extensions>
          <ns3:TrackPointExtension>
            <ns3:atemp>29.0</ns3:atemp>
          </ns3:TrackPointExtension>
        </extensions>
      </trkpt>
      <trkpt lat="42.54112134687602519989013671875" lon="19.9571305699646472930908203125">
        <ele>1360</ele>
        <time>2026-06-17T08:40:18.000Z</time>
        <extensions>
          <ns3:TrackPointExtension>
            <ns3:atemp>29.0</ns3:atemp>
          </ns3:TrackPointExtension>
        </extensions>
      </trkpt>
      <trkpt lat="42.54113852977752685546875" lon="19.95712176896631717681884765625">
        <ele>1360.199951171875</ele>
        <time>2026-06-17T08:40:19.000Z</time>
        <extensions>
          <ns3:TrackPointExtension>
            <ns3:atemp>29.0</ns3:atemp>
          </ns3:TrackPointExtension>
        </extensions>
      </trkpt>
      <trkpt lat="42.54115529358386993408203125" lon="19.9571087770164012908935546875">
        <ele>1360.5999755859375</ele>
        <time>2026-06-17T08:40:20.000Z</time>
        <extensions>
          <ns3:TrackPointExtension>
            <ns3:atemp>29.0</ns3:atemp>
          </ns3:TrackPointExtension>
        </extensions>
      </trkpt>
      <trkpt lat="42.54116996191442012786865234375" lon="19.95709595270454883575439453125">
        <ele>1361</ele>
        <time>2026-06-17T08:40:21.000Z</time>
        <extensions>
          <ns3:TrackPointExtension>
            <ns3:atemp>29.0</ns3:atemp>
          </ns3:TrackPointExtension>
        </extensions>
      </trkpt>
      <trkpt lat="42.541187144815921783447265625" lon="19.95708371512591838836669921875">
        <ele>1361.199951171875</ele>
        <time>2026-06-17T08:40:22.000Z</time>
        <extensions>
          <ns3:TrackPointExtension>
            <ns3:atemp>29.0</ns3:atemp>
          </ns3:TrackPointExtension>
        </extensions>
      </trkpt>
      <trkpt lat="42.5412060879170894622802734375" lon="19.95707265101373195648193359375">
        <ele>1361.4000244140625</ele>
        <time>2026-06-17T08:40:23.000Z</time>
        <extensions>
          <ns3:TrackPointExtension>
            <ns3:atemp>29.0</ns3:atemp>
          </ns3:TrackPointExtension>
        </extensions>
      </trkpt>
      <trkpt lat="42.5412257015705108642578125" lon="19.9570568092167377471923828125">
        <ele>1361.800048828125</ele>
        <time>2026-06-17T08:40:24.000Z</time>
        <extensions>
          <ns3:TrackPointExtension>
            <ns3:atemp>29.0</ns3:atemp>
          </ns3:TrackPointExtension>
        </extensions>
      </trkpt>
      <trkpt lat="42.5412439741194248199462890625" lon="19.95704591274261474609375">
        <ele>1361.800048828125</ele>
        <time>2026-06-17T08:40:25.000Z</time>
        <extensions>
          <ns3:TrackPointExtension>
            <ns3:atemp>29.0</ns3:atemp>
          </ns3:TrackPointExtension>
        </extensions>
      </trkpt>
      <trkpt lat="42.541264928877353668212890625" lon="19.957035519182682037353515625">
        <ele>1362</ele>
        <time>2026-06-17T08:40:26.000Z</time>
        <extensions>
          <ns3:TrackPointExtension>
            <ns3:atemp>29.0</ns3:atemp>
          </ns3:TrackPointExtension>
        </extensions>
      </trkpt>
      <trkpt lat="42.54128730855882167816162109375" lon="19.957028143107891082763671875">
        <ele>1362.199951171875</ele>
        <time>2026-06-17T08:40:27.000Z</time>
        <extensions>
          <ns3:TrackPointExtension>
            <ns3:atemp>29.0</ns3:atemp>
          </ns3:TrackPointExtension>
        </extensions>
      </trkpt>
      <trkpt lat="42.5413080118596553802490234375" lon="19.95702319778501987457275390625">
        <ele>1362.5999755859375</ele>
        <time>2026-06-17T08:40:28.000Z</time>
        <extensions>
          <ns3:TrackPointExtension>
            <ns3:atemp>29.0</ns3:atemp>
          </ns3:TrackPointExtension>
        </extensions>
      </trkpt>
      <trkpt lat="42.54132754169404506683349609375" lon="19.95701682753860950469970703125">
        <ele>1362.800048828125</ele>
        <time>2026-06-17T08:40:29.000Z</time>
        <extensions>
          <ns3:TrackPointExtension>
            <ns3:atemp>29.0</ns3:atemp>
          </ns3:TrackPointExtension>
        </extensions>
      </trkpt>
      <trkpt lat="42.54134799353778362274169921875" lon="19.95700811035931110382080078125">
        <ele>1363</ele>
        <time>2026-06-17T08:40:30.000Z</time>
        <extensions>
          <ns3:TrackPointExtension>
            <ns3:atemp>29.0</ns3:atemp>
          </ns3:TrackPointExtension>
        </extensions>
      </trkpt>
      <trkpt lat="42.54136542789638042449951171875" lon="19.95699436403810977935791015625">
        <ele>1363.199951171875</ele>
        <time>2026-06-17T08:40:31.000Z</time>
        <extensions>
          <ns3:TrackPointExtension>
            <ns3:atemp>29.0</ns3:atemp>
          </ns3:TrackPointExtension>
        </extensions>
      </trkpt>
      <trkpt lat="42.5413857959210872650146484375" lon="19.95698497630655765533447265625">
        <ele>1363.5999755859375</ele>
        <time>2026-06-17T08:40:32.000Z</time>
        <extensions>
          <ns3:TrackPointExtension>
            <ns3:atemp>29.0</ns3:atemp>
          </ns3:TrackPointExtension>
        </extensions>
      </trkpt>
      <trkpt lat="42.54140448756515979766845703125" lon="19.95697324164211750030517578125">
        <ele>1364</ele>
        <time>2026-06-17T08:40:33.000Z</time>
        <extensions>
          <ns3:TrackPointExtension>
            <ns3:atemp>29.0</ns3:atemp>
          </ns3:TrackPointExtension>
        </extensions>
      </trkpt>
      <trkpt lat="42.5414233468472957611083984375" lon="19.95696100406348705291748046875">
        <ele>1364.199951171875</ele>
        <time>2026-06-17T08:40:34.000Z</time>
        <extensions>
          <ns3:TrackPointExtension>
            <ns3:atemp>29.0</ns3:atemp>
          </ns3:TrackPointExtension>
        </extensions>
      </trkpt>
      <trkpt lat="42.541441284120082855224609375" lon="19.956941641867160797119140625">
        <ele>1364.4000244140625</ele>
        <time>2026-06-17T08:40:35.000Z</time>
        <extensions>
          <ns3:TrackPointExtension>
            <ns3:atemp>29.0</ns3:atemp>
          </ns3:TrackPointExtension>
        </extensions>
      </trkpt>
      <trkpt lat="42.541457377374172210693359375" lon="19.9569203518331050872802734375">
        <ele>1364.800048828125</ele>
        <time>2026-06-17T08:40:36.000Z</time>
        <extensions>
          <ns3:TrackPointExtension>
            <ns3:atemp>29.0</ns3:atemp>
          </ns3:TrackPointExtension>
        </extensions>
      </trkpt>
      <trkpt lat="42.5414729677140712738037109375" lon="19.95690065436065196990966796875">
        <ele>1365.4000244140625</ele>
        <time>2026-06-17T08:40:37.000Z</time>
        <extensions>
          <ns3:TrackPointExtension>
            <ns3:atemp>29.0</ns3:atemp>
          </ns3:TrackPointExtension>
        </extensions>
      </trkpt>
      <trkpt lat="42.54148562438786029815673828125" lon="19.956879280507564544677734375">
        <ele>1365.800048828125</ele>
        <time>2026-06-17T08:40:38.000Z</time>
        <extensions>
          <ns3:TrackPointExtension>
            <ns3:atemp>29.0</ns3:atemp>
          </ns3:TrackPointExtension>
        </extensions>
      </trkpt>
      <trkpt lat="42.54149819724261760711669921875" lon="19.95685706846415996551513671875">
        <ele>1366.199951171875</ele>
        <time>2026-06-17T08:40:39.000Z</time>
        <extensions>
          <ns3:TrackPointExtension>
            <ns3:atemp>29.0</ns3:atemp>
          </ns3:TrackPointExtension>
        </extensions>
      </trkpt>
      <trkpt lat="42.54150875844061374664306640625" lon="19.95683359913527965545654296875">
        <ele>1366.800048828125</ele>
        <time>2026-06-17T08:40:40.000Z</time>
        <extensions>
          <ns3:TrackPointExtension>
            <ns3:atemp>29.0</ns3:atemp>
          </ns3:TrackPointExtension>
        </extensions>
      </trkpt>
      <trkpt lat="42.54151999019086360931396484375" lon="19.9568117223680019378662109375">
        <ele>1367.199951171875</ele>
        <time>2026-06-17T08:40:41.000Z</time>
        <extensions>
          <ns3:TrackPointExtension>
            <ns3:atemp>29.0</ns3:atemp>
          </ns3:TrackPointExtension>
        </extensions>
      </trkpt>
      <trkpt lat="42.54153038375079631805419921875" lon="19.956785403192043304443359375">
        <ele>1367.5999755859375</ele>
        <time>2026-06-17T08:40:42.000Z</time>
        <extensions>
          <ns3:TrackPointExtension>
            <ns3:atemp>29.0</ns3:atemp>
          </ns3:TrackPointExtension>
        </extensions>
      </trkpt>
      <trkpt lat="42.5415416993200778961181640625" lon="19.9567604251205921173095703125">
        <ele>1367.800048828125</ele>
        <time>2026-06-17T08:40:43.000Z</time>
        <extensions>
          <ns3:TrackPointExtension>
            <ns3:atemp>29.0</ns3:atemp>
          </ns3:TrackPointExtension>
        </extensions>
      </trkpt>
      <trkpt lat="42.54154999740421772003173828125" lon="19.95673410594463348388671875">
        <ele>1368.199951171875</ele>
        <time>2026-06-17T08:40:44.000Z</time>
        <extensions>
          <ns3:TrackPointExtension>
            <ns3:atemp>29.0</ns3:atemp>
          </ns3:TrackPointExtension>
        </extensions>
      </trkpt>
      <trkpt lat="42.541555278003215789794921875" lon="19.95670602656900882720947265625">
        <ele>1368.4000244140625</ele>
        <time>2026-06-17T08:40:45.000Z</time>
        <extensions>
          <ns3:TrackPointExtension>
            <ns3:atemp>29.0</ns3:atemp>
          </ns3:TrackPointExtension>
        </extensions>
      </trkpt>
      <trkpt lat="42.54155988804996013641357421875" lon="19.956678450107574462890625">
        <ele>1368.800048828125</ele>
        <time>2026-06-17T08:40:46.000Z</time>
        <extensions>
          <ns3:TrackPointExtension>
            <ns3:atemp>29.0</ns3:atemp>
          </ns3:TrackPointExtension>
        </extensions>
      </trkpt>
      <trkpt lat="42.54156257025897502899169921875" lon="19.95664349757134914398193359375">
        <ele>1368.800048828125</ele>
        <time>2026-06-17T08:40:47.000Z</time>
        <extensions>
          <ns3:TrackPointExtension>
            <ns3:atemp>29.0</ns3:atemp>
          </ns3:TrackPointExtension>
        </extensions>
      </trkpt>
      <trkpt lat="42.54156709648668766021728515625" lon="19.9566085450351238250732421875">
        <ele>1369</ele>
        <time>2026-06-17T08:40:48.000Z</time>
        <extensions>
          <ns3:TrackPointExtension>
            <ns3:atemp>29.0</ns3:atemp>
          </ns3:TrackPointExtension>
        </extensions>
      </trkpt>
      <trkpt lat="42.5415685214102268218994140625" lon="19.9565770290791988372802734375">
        <ele>1369</ele>
        <time>2026-06-17T08:40:49.000Z</time>
        <extensions>
          <ns3:TrackPointExtension>
            <ns3:atemp>29.0</ns3:atemp>
          </ns3:TrackPointExtension>
        </extensions>
      </trkpt>
      <trkpt lat="42.54156910814344882965087890625" lon="19.95654475875198841094970703125">
        <ele>1369</ele>
        <time>2026-06-17T08:40:50.000Z</time>
        <extensions>
          <ns3:TrackPointExtension>
            <ns3:atemp>29.0</ns3:atemp>
          </ns3:TrackPointExtension>
        </extensions>
      </trkpt>
      <trkpt lat="42.54156961105763912200927734375" lon="19.956512153148651123046875">
        <ele>1369</ele>
        <time>2026-06-17T08:40:51.000Z</time>
        <extensions>
          <ns3:TrackPointExtension>
            <ns3:atemp>29.0</ns3:atemp>
          </ns3:TrackPointExtension>
        </extensions>
      </trkpt>
      <trkpt lat="42.541570365428924560546875" lon="19.9564730934798717498779296875">
        <ele>1368.800048828125</ele>
        <time>2026-06-17T08:40:52.000Z</time>
        <extensions>
          <ns3:TrackPointExtension>
            <ns3:atemp>29.0</ns3:atemp>
          </ns3:TrackPointExtension>
        </extensions>
      </trkpt>
      <trkpt lat="42.541574053466320037841796875" lon="19.95643478818237781524658203125">
        <ele>1369</ele>
        <time>2026-06-17T08:40:53.000Z</time>
        <extensions>
          <ns3:TrackPointExtension>
            <ns3:atemp>29.0</ns3:atemp>
          </ns3:TrackPointExtension>
        </extensions>
      </trkpt>
      <trkpt lat="42.541578747332096099853515625" lon="19.95639438740909099578857421875">
        <ele>1369</ele>
        <time>2026-06-17T08:40:54.000Z</time>
        <extensions>
          <ns3:TrackPointExtension>
            <ns3:atemp>29.0</ns3:atemp>
          </ns3:TrackPointExtension>
        </extensions>
      </trkpt>
      <trkpt lat="42.54158687777817249298095703125" lon="19.95635415427386760711669921875">
        <ele>1369.199951171875</ele>
        <time>2026-06-17T08:40:55.000Z</time>
        <extensions>
          <ns3:TrackPointExtension>
            <ns3:atemp>29.0</ns3:atemp>
          </ns3:TrackPointExtension>
        </extensions>
      </trkpt>
      <trkpt lat="42.54159660078585147857666015625" lon="19.9563181959092617034912109375">
        <ele>1369.5999755859375</ele>
        <time>2026-06-17T08:40:56.000Z</time>
        <extensions>
          <ns3:TrackPointExtension>
            <ns3:atemp>29.0</ns3:atemp>
          </ns3:TrackPointExtension>
        </extensions>
      </trkpt>
      <trkpt lat="42.54161235876381397247314453125" lon="19.9562829919159412384033203125">
        <ele>1370</ele>
        <time>2026-06-17T08:40:57.000Z</time>
        <extensions>
          <ns3:TrackPointExtension>
            <ns3:atemp>29.0</ns3:atemp>
          </ns3:TrackPointExtension>
        </extensions>
      </trkpt>
      <trkpt lat="42.5416288711130619049072265625" lon="19.956252984702587127685546875">
        <ele>1370.4000244140625</ele>
        <time>2026-06-17T08:40:58.000Z</time>
        <extensions>
          <ns3:TrackPointExtension>
            <ns3:atemp>29.0</ns3:atemp>
          </ns3:TrackPointExtension>
        </extensions>
      </trkpt>
      <trkpt lat="42.54164672456681728363037109375" lon="19.9562213011085987091064453125">
        <ele>1370.800048828125</ele>
        <time>2026-06-17T08:40:59.000Z</time>
        <extensions>
          <ns3:TrackPointExtension>
            <ns3:atemp>29.0</ns3:atemp>
          </ns3:TrackPointExtension>
        </extensions>
      </trkpt>
      <trkpt lat="42.54166499711573123931884765625" lon="19.95619087480008602142333984375">
        <ele>1371.4000244140625</ele>
        <time>2026-06-17T08:41:00.000Z</time>
        <extensions>
          <ns3:TrackPointExtension>
            <ns3:atemp>29.0</ns3:atemp>
          </ns3:TrackPointExtension>
        </extensions>
      </trkpt>
      <trkpt lat="42.54168100655078887939453125" lon="19.956157766282558441162109375">
        <ele>1371.800048828125</ele>
        <time>2026-06-17T08:41:01.000Z</time>
        <extensions>
          <ns3:TrackPointExtension>
            <ns3:atemp>29.0</ns3:atemp>
          </ns3:TrackPointExtension>
        </extensions>
      </trkpt>
      <trkpt lat="42.5416969321668148040771484375" lon="19.9561272561550140380859375">
        <ele>1372.199951171875</ele>
        <time>2026-06-17T08:41:02.000Z</time>
        <extensions>
          <ns3:TrackPointExtension>
            <ns3:atemp>29.0</ns3:atemp>
          </ns3:TrackPointExtension>
        </extensions>
      </trkpt>
      <trkpt lat="42.54171428270637989044189453125" lon="19.956100098788738250732421875">
        <ele>1372.4000244140625</ele>
        <time>2026-06-17T08:41:03.000Z</time>
        <extensions>
          <ns3:TrackPointExtension>
            <ns3:atemp>29.0</ns3:atemp>
          </ns3:TrackPointExtension>
        </extensions>
      </trkpt>
      <trkpt lat="42.54173406399786472320556640625" lon="19.9560734443366527557373046875">
        <ele>1372.5999755859375</ele>
        <time>2026-06-17T08:41:04.000Z</time>
        <extensions>
          <ns3:TrackPointExtension>
            <ns3:atemp>29.0</ns3:atemp>
          </ns3:TrackPointExtension>
        </extensions>
      </trkpt>
      <trkpt lat="42.541756443679332733154296875" lon="19.95605207048356533050537109375">
        <ele>1373</ele>
        <time>2026-06-17T08:41:05.000Z</time>
        <extensions>
          <ns3:TrackPointExtension>
            <ns3:atemp>29.0</ns3:atemp>
          </ns3:TrackPointExtension>
        </extensions>
      </trkpt>
      <trkpt lat="42.5417804159224033355712890625" lon="19.95603396557271480560302734375">
        <ele>1373.199951171875</ele>
        <time>2026-06-17T08:41:06.000Z</time>
        <extensions>
          <ns3:TrackPointExtension>
            <ns3:atemp>29.0</ns3:atemp>
          </ns3:TrackPointExtension>
        </extensions>
      </trkpt>
      <trkpt lat="42.54180178977549076080322265625" lon="19.95601820759475231170654296875">
        <ele>1373.4000244140625</ele>
        <time>2026-06-17T08:41:07.000Z</time>
        <extensions>
          <ns3:TrackPointExtension>
            <ns3:atemp>29.0</ns3:atemp>
          </ns3:TrackPointExtension>
        </extensions>
      </trkpt>
      <trkpt lat="42.54182517528533935546875" lon="19.956003539264202117919921875">
        <ele>1373.5999755859375</ele>
        <time>2026-06-17T08:41:08.000Z</time>
        <extensions>
          <ns3:TrackPointExtension>
            <ns3:atemp>29.0</ns3:atemp>
          </ns3:TrackPointExtension>
        </extensions>
      </trkpt>
      <trkpt lat="42.5418506562709808349609375" lon="19.95599255897104740142822265625">
        <ele>1373.800048828125</ele>
        <time>2026-06-17T08:41:09.000Z</time>
        <extensions>
          <ns3:TrackPointExtension>
            <ns3:atemp>29.0</ns3:atemp>
          </ns3:TrackPointExtension>
        </extensions>
      </trkpt>
      <trkpt lat="42.54187387414276599884033203125" lon="19.95597881264984607696533203125">
        <ele>1373.800048828125</ele>
        <time>2026-06-17T08:41:10.000Z</time>
        <extensions>
          <ns3:TrackPointExtension>
            <ns3:atemp>29.0</ns3:atemp>
          </ns3:TrackPointExtension>
        </extensions>
      </trkpt>
      <trkpt lat="42.5418977625668048858642578125" lon="19.95596640743315219879150390625">
        <ele>1374</ele>
        <time>2026-06-17T08:41:11.000Z</time>
        <extensions>
          <ns3:TrackPointExtension>
            <ns3:atemp>29.0</ns3:atemp>
          </ns3:TrackPointExtension>
        </extensions>
      </trkpt>
      <trkpt lat="42.5419208966195583343505859375" lon="19.95595358312129974365234375">
        <ele>1374.199951171875</ele>
        <time>2026-06-17T08:41:12.000Z</time>
        <extensions>
          <ns3:TrackPointExtension>
            <ns3:atemp>29.0</ns3:atemp>
          </ns3:TrackPointExtension>
        </extensions>
      </trkpt>
      <trkpt lat="42.54194428212940692901611328125" lon="19.95593925006687641143798828125">
        <ele>1374.5999755859375</ele>
        <time>2026-06-17T08:41:13.000Z</time>
        <extensions>
          <ns3:TrackPointExtension>
            <ns3:atemp>29.0</ns3:atemp>
          </ns3:TrackPointExtension>
        </extensions>
      </trkpt>
      <trkpt lat="42.541966326534748077392578125" lon="19.9559247493743896484375">
        <ele>1374.800048828125</ele>
        <time>2026-06-17T08:41:14.000Z</time>
        <extensions>
          <ns3:TrackPointExtension>
            <ns3:atemp>29.0</ns3:atemp>
          </ns3:TrackPointExtension>
        </extensions>
      </trkpt>
      <trkpt lat="42.54198702983558177947998046875" lon="19.955913014709949493408203125">
        <ele>1375</ele>
        <time>2026-06-17T08:41:15.000Z</time>
        <extensions>
          <ns3:TrackPointExtension>
            <ns3:atemp>29.0</ns3:atemp>
          </ns3:TrackPointExtension>
        </extensions>
      </trkpt>
      <trkpt lat="42.54200756549835205078125" lon="19.95589817874133586883544921875">
        <ele>1375.4000244140625</ele>
        <time>2026-06-17T08:41:16.000Z</time>
        <extensions>
          <ns3:TrackPointExtension>
            <ns3:atemp>29.0</ns3:atemp>
          </ns3:TrackPointExtension>
        </extensions>
      </trkpt>
      <trkpt lat="42.54202944226562976837158203125" lon="19.955880157649517059326171875">
        <ele>1375.5999755859375</ele>
        <time>2026-06-17T08:41:17.000Z</time>
        <extensions>
          <ns3:TrackPointExtension>
            <ns3:atemp>29.0</ns3:atemp>
          </ns3:TrackPointExtension>
        </extensions>
      </trkpt>
      <trkpt lat="42.5420496426522731781005859375" lon="19.95586297474801540374755859375">
        <ele>1376</ele>
        <time>2026-06-17T08:41:18.000Z</time>
        <extensions>
          <ns3:TrackPointExtension>
            <ns3:atemp>29.0</ns3:atemp>
          </ns3:TrackPointExtension>
        </extensions>
      </trkpt>
      <trkpt lat="42.5420700944960117340087890625" lon="19.95584855787456035614013671875">
        <ele>1376.4000244140625</ele>
        <time>2026-06-17T08:41:19.000Z</time>
        <extensions>
          <ns3:TrackPointExtension>
            <ns3:atemp>29.0</ns3:atemp>
          </ns3:TrackPointExtension>
        </extensions>
      </trkpt>
      <trkpt lat="42.5420892052352428436279296875" lon="19.9558296985924243927001953125">
        <ele>1376.5999755859375</ele>
        <time>2026-06-17T08:41:20.000Z</time>
        <extensions>
          <ns3:TrackPointExtension>
            <ns3:atemp>29.0</ns3:atemp>
          </ns3:TrackPointExtension>
        </extensions>
      </trkpt>
      <trkpt lat="42.5421093218028545379638671875" lon="19.95581653900444507598876953125">
        <ele>1377</ele>
        <time>2026-06-17T08:41:21.000Z</time>
        <extensions>
          <ns3:TrackPointExtension>
            <ns3:atemp>29.0</ns3:atemp>
          </ns3:TrackPointExtension>
        </extensions>
      </trkpt>
      <trkpt lat="42.54213002510368824005126953125" lon="19.9558025412261486053466796875">
        <ele>1377.199951171875</ele>
        <time>2026-06-17T08:41:22.000Z</time>
        <extensions>
          <ns3:TrackPointExtension>
            <ns3:atemp>29.0</ns3:atemp>
          </ns3:TrackPointExtension>
        </extensions>
      </trkpt>
      <trkpt lat="42.5421515665948390960693359375" lon="19.95578787289559841156005859375">
        <ele>1377.5999755859375</ele>
        <time>2026-06-17T08:41:23.000Z</time>
        <extensions>
          <ns3:TrackPointExtension>
            <ns3:atemp>29.0</ns3:atemp>
          </ns3:TrackPointExtension>
        </extensions>
      </trkpt>
      <trkpt lat="42.5421726889908313751220703125" lon="19.9557753838598728179931640625">
        <ele>1377.800048828125</ele>
        <time>2026-06-17T08:41:24.000Z</time>
        <extensions>
          <ns3:TrackPointExtension>
            <ns3:atemp>29.0</ns3:atemp>
          </ns3:TrackPointExtension>
        </extensions>
      </trkpt>
      <trkpt lat="42.54219138063490390777587890625" lon="19.95576448738574981689453125">
        <ele>1378</ele>
        <time>2026-06-17T08:41:25.000Z</time>
        <extensions>
          <ns3:TrackPointExtension>
            <ns3:atemp>29.0</ns3:atemp>
          </ns3:TrackPointExtension>
        </extensions>
      </trkpt>
      <trkpt lat="42.542209066450595855712890625" lon="19.95575283654034137725830078125">
        <ele>1378.199951171875</ele>
        <time>2026-06-17T08:41:26.000Z</time>
        <extensions>
          <ns3:TrackPointExtension>
            <ns3:atemp>29.0</ns3:atemp>
          </ns3:TrackPointExtension>
        </extensions>
      </trkpt>
      <trkpt lat="42.54222423769533634185791015625" lon="19.95574328117072582244873046875">
        <ele>1378.4000244140625</ele>
        <time>2026-06-17T08:41:27.000Z</time>
        <extensions>
          <ns3:TrackPointExtension>
            <ns3:atemp>29.0</ns3:atemp>
          </ns3:TrackPointExtension>
        </extensions>
      </trkpt>
      <trkpt lat="42.54223982803523540496826171875" lon="19.95572987012565135955810546875">
        <ele>1378.5999755859375</ele>
        <time>2026-06-17T08:41:28.000Z</time>
        <extensions>
          <ns3:TrackPointExtension>
            <ns3:atemp>29.0</ns3:atemp>
          </ns3:TrackPointExtension>
        </extensions>
      </trkpt>
      <trkpt lat="42.5422558374702930450439453125" lon="19.9557227455079555511474609375">
        <ele>1378.800048828125</ele>
        <time>2026-06-17T08:41:29.000Z</time>
        <extensions>
          <ns3:TrackPointExtension>
            <ns3:atemp>29.0</ns3:atemp>
          </ns3:TrackPointExtension>
        </extensions>
      </trkpt>
      <trkpt lat="42.54227243363857269287109375" lon="19.955707155168056488037109375">
        <ele>1379</ele>
        <time>2026-06-17T08:41:30.000Z</time>
        <extensions>
          <ns3:TrackPointExtension>
            <ns3:atemp>29.0</ns3:atemp>
          </ns3:TrackPointExtension>
        </extensions>
      </trkpt>
      <trkpt lat="42.54228794015944004058837890625" lon="19.9556908942759037017822265625">
        <ele>1379.199951171875</ele>
        <time>2026-06-17T08:41:31.000Z</time>
        <extensions>
          <ns3:TrackPointExtension>
            <ns3:atemp>29.0</ns3:atemp>
          </ns3:TrackPointExtension>
        </extensions>
      </trkpt>
      <trkpt lat="42.54230554215610027313232421875" lon="19.9556766450405120849609375">
        <ele>1379.800048828125</ele>
        <time>2026-06-17T08:41:32.000Z</time>
        <extensions>
          <ns3:TrackPointExtension>
            <ns3:atemp>29.0</ns3:atemp>
          </ns3:TrackPointExtension>
        </extensions>
      </trkpt>
      <trkpt lat="42.542320378124713897705078125" lon="19.95565359480679035186767578125">
        <ele>1380.199951171875</ele>
        <time>2026-06-17T08:41:33.000Z</time>
        <extensions>
          <ns3:TrackPointExtension>
            <ns3:atemp>29.0</ns3:atemp>
          </ns3:TrackPointExtension>
        </extensions>
      </trkpt>
      <trkpt lat="42.5423332862555980682373046875" lon="19.9556325562298297882080078125">
        <ele>1380.5999755859375</ele>
        <time>2026-06-17T08:41:34.000Z</time>
        <extensions>
          <ns3:TrackPointExtension>
            <ns3:atemp>29.0</ns3:atemp>
          </ns3:TrackPointExtension>
        </extensions>
      </trkpt>
      <trkpt lat="42.5423487089574337005615234375" lon="19.95560950599610805511474609375">
        <ele>1381</ele>
        <time>2026-06-17T08:41:35.000Z</time>
        <extensions>
          <ns3:TrackPointExtension>
            <ns3:atemp>29.0</ns3:atemp>
          </ns3:TrackPointExtension>
        </extensions>
      </trkpt>
      <trkpt lat="42.54236186854541301727294921875" lon="19.95558536611497402191162109375">
        <ele>1381.4000244140625</ele>
        <time>2026-06-17T08:41:36.000Z</time>
        <extensions>
          <ns3:TrackPointExtension>
            <ns3:atemp>29.0</ns3:atemp>
          </ns3:TrackPointExtension>
        </extensions>
      </trkpt>
      <trkpt lat="42.5423735193908214569091796875" lon="19.95556038804352283477783203125">
        <ele>1381.800048828125</ele>
        <time>2026-06-17T08:41:37.000Z</time>
        <extensions>
          <ns3:TrackPointExtension>
            <ns3:atemp>29.0</ns3:atemp>
          </ns3:TrackPointExtension>
        </extensions>
      </trkpt>
      <trkpt lat="42.54237703979015350341796875" lon="19.9555326439440250396728515625">
        <ele>1382.199951171875</ele>
        <time>2026-06-17T08:41:38.000Z</time>
        <extensions>
          <ns3:TrackPointExtension>
            <ns3:atemp>29.0</ns3:atemp>
          </ns3:TrackPointExtension>
        </extensions>
      </trkpt>
      <trkpt lat="42.5423785485327243804931640625" lon="19.95550272054970264434814453125">
        <ele>1382.4000244140625</ele>
        <time>2026-06-17T08:41:39.000Z</time>
        <extensions>
          <ns3:TrackPointExtension>
            <ns3:atemp>29.0</ns3:atemp>
          </ns3:TrackPointExtension>
        </extensions>
      </trkpt>
      <trkpt lat="42.54237360320985317230224609375" lon="19.95547640137374401092529296875">
        <ele>1382.5999755859375</ele>
        <time>2026-06-17T08:41:40.000Z</time>
        <extensions>
          <ns3:TrackPointExtension>
            <ns3:atemp>29.0</ns3:atemp>
          </ns3:TrackPointExtension>
        </extensions>
      </trkpt>
      <trkpt lat="42.54236052744090557098388671875" lon="19.9554582126438617706298828125">
        <ele>1382.5999755859375</ele>
        <time>2026-06-17T08:41:41.000Z</time>
        <extensions>
          <ns3:TrackPointExtension>
            <ns3:atemp>29.0</ns3:atemp>
          </ns3:TrackPointExtension>
        </extensions>
      </trkpt>
      <trkpt lat="42.542349882423877716064453125" lon="19.955440945923328399658203125">
        <ele>1382.800048828125</ele>
        <time>2026-06-17T08:41:42.000Z</time>
        <extensions>
          <ns3:TrackPointExtension>
            <ns3:atemp>29.0</ns3:atemp>
          </ns3:TrackPointExtension>
        </extensions>
      </trkpt>
      <trkpt lat="42.54234015941619873046875" lon="19.955431558191776275634765625">
        <ele>1383</ele>
        <time>2026-06-17T08:41:43.000Z</time>
        <extensions>
          <ns3:TrackPointExtension>
            <ns3:atemp>29.0</ns3:atemp>
          </ns3:TrackPointExtension>
        </extensions>
      </trkpt>
      <trkpt lat="42.54232733510434627532958984375" lon="19.95541588403284549713134765625">
        <ele>1383.199951171875</ele>
        <time>2026-06-17T08:41:44.000Z</time>
        <extensions>
          <ns3:TrackPointExtension>
            <ns3:atemp>29.0</ns3:atemp>
          </ns3:TrackPointExtension>
        </extensions>
      </trkpt>
      <trkpt lat="42.5423131696879863739013671875" lon="19.95540440082550048828125">
        <ele>1383.4000244140625</ele>
        <time>2026-06-17T08:41:45.000Z</time>
        <extensions>
          <ns3:TrackPointExtension>
            <ns3:atemp>29.0</ns3:atemp>
          </ns3:TrackPointExtension>
        </extensions>
      </trkpt>
      <trkpt lat="42.5422985851764678955078125" lon="19.95539593510329723358154296875">
        <ele>1383.800048828125</ele>
        <time>2026-06-17T08:41:46.000Z</time>
        <extensions>
          <ns3:TrackPointExtension>
            <ns3:atemp>29.0</ns3:atemp>
          </ns3:TrackPointExtension>
        </extensions>
      </trkpt>
      <trkpt lat="42.54228073172271251678466796875" lon="19.955382607877254486083984375">
        <ele>1384</ele>
        <time>2026-06-17T08:41:47.000Z</time>
        <extensions>
          <ns3:TrackPointExtension>
            <ns3:atemp>29.0</ns3:atemp>
          </ns3:TrackPointExtension>
        </extensions>
      </trkpt>
      <trkpt lat="42.5422645546495914459228515625" lon="19.9553681910037994384765625">
        <ele>1384.4000244140625</ele>
        <time>2026-06-17T08:41:48.000Z</time>
        <extensions>
          <ns3:TrackPointExtension>
            <ns3:atemp>29.0</ns3:atemp>
          </ns3:TrackPointExtension>
        </extensions>
      </trkpt>
      <trkpt lat="42.5422481261193752288818359375" lon="19.955355785787105560302734375">
        <ele>1384.4000244140625</ele>
        <time>2026-06-17T08:41:49.000Z</time>
        <extensions>
          <ns3:TrackPointExtension>
            <ns3:atemp>29.0</ns3:atemp>
          </ns3:TrackPointExtension>
        </extensions>
      </trkpt>
      <trkpt lat="42.542229183018207550048828125" lon="19.95534379966557025909423828125">
        <ele>1384.800048828125</ele>
        <time>2026-06-17T08:41:50.000Z</time>
        <extensions>
          <ns3:TrackPointExtension>
            <ns3:atemp>29.0</ns3:atemp>
          </ns3:TrackPointExtension>
        </extensions>
      </trkpt>
      <trkpt lat="42.54221208393573760986328125" lon="19.95533558540046215057373046875">
        <ele>1385</ele>
        <time>2026-06-17T08:41:51.000Z</time>
        <extensions>
          <ns3:TrackPointExtension>
            <ns3:atemp>29.0</ns3:atemp>
          </ns3:TrackPointExtension>
        </extensions>
      </trkpt>
      <trkpt lat="42.54219490103423595428466796875" lon="19.955332316458225250244140625">
        <ele>1385.4000244140625</ele>
        <time>2026-06-17T08:41:52.000Z</time>
        <extensions>
          <ns3:TrackPointExtension>
            <ns3:atemp>29.0</ns3:atemp>
          </ns3:TrackPointExtension>
        </extensions>
      </trkpt>
      <trkpt lat="42.54217989742755889892578125" lon="19.95532653294503688812255859375">
        <ele>1385.5999755859375</ele>
        <time>2026-06-17T08:41:53.000Z</time>
        <extensions>
          <ns3:TrackPointExtension>
            <ns3:atemp>29.0</ns3:atemp>
          </ns3:TrackPointExtension>
        </extensions>
      </trkpt>
      <trkpt lat="42.542164810001850128173828125" lon="19.9553247727453708648681640625">
        <ele>1386</ele>
        <time>2026-06-17T08:41:54.000Z</time>
        <extensions>
          <ns3:TrackPointExtension>
            <ns3:atemp>29.0</ns3:atemp>
          </ns3:TrackPointExtension>
        </extensions>
      </trkpt>
      <trkpt lat="42.5421537458896636962890625" lon="19.95532217435538768768310546875">
        <ele>1386.4000244140625</ele>
        <time>2026-06-17T08:41:55.000Z</time>
        <extensions>
          <ns3:TrackPointExtension>
            <ns3:atemp>29.0</ns3:atemp>
          </ns3:TrackPointExtension>
        </extensions>
      </trkpt>
      <trkpt lat="42.54214243032038211822509765625" lon="19.95531982742249965667724609375">
        <ele>1386.5999755859375</ele>
        <time>2026-06-17T08:41:56.000Z</time>
        <extensions>
          <ns3:TrackPointExtension>
            <ns3:atemp>29.0</ns3:atemp>
          </ns3:TrackPointExtension>
        </extensions>
      </trkpt>
      <trkpt lat="42.54213036037981510162353515625" lon="19.9553130380809307098388671875">
        <ele>1386.800048828125</ele>
        <time>2026-06-17T08:41:57.000Z</time>
        <extensions>
          <ns3:TrackPointExtension>
            <ns3:atemp>29.0</ns3:atemp>
          </ns3:TrackPointExtension>
        </extensions>
      </trkpt>
      <trkpt lat="42.54211409948766231536865234375" lon="19.95531010441482067108154296875">
        <ele>1387</ele>
        <time>2026-06-17T08:41:58.000Z</time>
        <extensions>
          <ns3:TrackPointExtension>
            <ns3:atemp>29.0</ns3:atemp>
          </ns3:TrackPointExtension>
        </extensions>
      </trkpt>
      <trkpt lat="42.54209783859550952911376953125" lon="19.95530809275805950164794921875">
        <ele>1387.199951171875</ele>
        <time>2026-06-17T08:41:59.000Z</time>
        <extensions>
          <ns3:TrackPointExtension>
            <ns3:atemp>29.0</ns3:atemp>
          </ns3:TrackPointExtension>
        </extensions>
      </trkpt>
      <trkpt lat="42.542079649865627288818359375" lon="19.9553110264241695404052734375">
        <ele>1387.5999755859375</ele>
        <time>2026-06-17T08:42:00.000Z</time>
        <extensions>
          <ns3:TrackPointExtension>
            <ns3:atemp>29.0</ns3:atemp>
          </ns3:TrackPointExtension>
        </extensions>
      </trkpt>
      <trkpt lat="42.542058862745761871337890625" lon="19.95530826039612293243408203125">
        <ele>1387.800048828125</ele>
        <time>2026-06-17T08:42:01.000Z</time>
        <extensions>
          <ns3:TrackPointExtension>
            <ns3:atemp>29.0</ns3:atemp>
          </ns3:TrackPointExtension>
        </extensions>
      </trkpt>
      <trkpt lat="42.542039416730403900146484375" lon="19.9553026445209980010986328125">
        <ele>1388</ele>
        <time>2026-06-17T08:42:02.000Z</time>
        <extensions>
          <ns3:TrackPointExtension>
            <ns3:atemp>29.0</ns3:atemp>
          </ns3:TrackPointExtension>
        </extensions>
      </trkpt>
      <trkpt lat="42.54202022217214107513427734375" lon="19.955304153263568878173828125">
        <ele>1388.199951171875</ele>
        <time>2026-06-17T08:42:03.000Z</time>
        <extensions>
          <ns3:TrackPointExtension>
            <ns3:atemp>29.0</ns3:atemp>
          </ns3:TrackPointExtension>
        </extensions>
      </trkpt>
      <trkpt lat="42.5419980101287364959716796875" lon="19.95530591346323490142822265625">
        <ele>1388.4000244140625</ele>
        <time>2026-06-17T08:42:04.000Z</time>
        <extensions>
          <ns3:TrackPointExtension>
            <ns3:atemp>29.0</ns3:atemp>
          </ns3:TrackPointExtension>
        </extensions>
      </trkpt>
      <trkpt lat="42.5419721938669681549072265625" lon="19.95531161315739154815673828125">
        <ele>1388.5999755859375</ele>
        <time>2026-06-17T08:42:05.000Z</time>
        <extensions>
          <ns3:TrackPointExtension>
            <ns3:atemp>29.0</ns3:atemp>
          </ns3:TrackPointExtension>
        </extensions>
      </trkpt>
      <trkpt lat="42.54194880835711956024169921875" lon="19.95530926622450351715087890625">
        <ele>1388.5999755859375</ele>
        <time>2026-06-17T08:42:06.000Z</time>
        <extensions>
          <ns3:TrackPointExtension>
            <ns3:atemp>29.0</ns3:atemp>
          </ns3:TrackPointExtension>
        </extensions>
      </trkpt>
      <trkpt lat="42.54192374646663665771484375" lon="19.9553070031106472015380859375">
        <ele>1389</ele>
        <time>2026-06-17T08:42:07.000Z</time>
        <extensions>
          <ns3:TrackPointExtension>
            <ns3:atemp>29.0</ns3:atemp>
          </ns3:TrackPointExtension>
        </extensions>
      </trkpt>
      <trkpt lat="42.54189734347164630889892578125" lon="19.95530717074871063232421875">
        <ele>1389.4000244140625</ele>
        <time>2026-06-17T08:42:08.000Z</time>
        <extensions>
          <ns3:TrackPointExtension>
            <ns3:atemp>29.0</ns3:atemp>
          </ns3:TrackPointExtension>
        </extensions>
      </trkpt>
      <trkpt lat="42.5418736226856708526611328125" lon="19.95530859567224979400634765625">
        <ele>1389.800048828125</ele>
        <time>2026-06-17T08:42:09.000Z</time>
        <extensions>
          <ns3:TrackPointExtension>
            <ns3:atemp>29.0</ns3:atemp>
          </ns3:TrackPointExtension>
        </extensions>
      </trkpt>
      <trkpt lat="42.5418518297374248504638671875" lon="19.95531815104186534881591796875">
        <ele>1390</ele>
        <time>2026-06-17T08:42:10.000Z</time>
        <extensions>
          <ns3:TrackPointExtension>
            <ns3:atemp>29.0</ns3:atemp>
          </ns3:TrackPointExtension>
        </extensions>
      </trkpt>
      <trkpt lat="42.5418307073414325714111328125" lon="19.9553271196782588958740234375">
        <ele>1390.4000244140625</ele>
        <time>2026-06-17T08:42:11.000Z</time>
        <extensions>
          <ns3:TrackPointExtension>
            <ns3:atemp>29.0</ns3:atemp>
          </ns3:TrackPointExtension>
        </extensions>
      </trkpt>
      <trkpt lat="42.5418104231357574462890625" lon="19.955338351428508758544921875">
        <ele>1390.4000244140625</ele>
        <time>2026-06-17T08:42:12.000Z</time>
        <extensions>
          <ns3:TrackPointExtension>
            <ns3:atemp>29.0</ns3:atemp>
          </ns3:TrackPointExtension>
        </extensions>
      </trkpt>
      <trkpt lat="42.5417918153107166290283203125" lon="19.9553495831787586212158203125">
        <ele>1390.800048828125</ele>
        <time>2026-06-17T08:42:13.000Z</time>
        <extensions>
          <ns3:TrackPointExtension>
            <ns3:atemp>29.0</ns3:atemp>
          </ns3:TrackPointExtension>
        </extensions>
      </trkpt>
      <trkpt lat="42.54177496768534183502197265625" lon="19.95536492206156253814697265625">
        <ele>1391</ele>
        <time>2026-06-17T08:42:14.000Z</time>
        <extensions>
          <ns3:TrackPointExtension>
            <ns3:atemp>29.0</ns3:atemp>
          </ns3:TrackPointExtension>
        </extensions>
      </trkpt>
      <trkpt lat="42.5417569465935230255126953125" lon="19.95537799783051013946533203125">
        <ele>1391.199951171875</ele>
        <time>2026-06-17T08:42:15.000Z</time>
        <extensions>
          <ns3:TrackPointExtension>
            <ns3:atemp>29.0</ns3:atemp>
          </ns3:TrackPointExtension>
        </extensions>
      </trkpt>
      <trkpt lat="42.5417353212833404541015625" lon="19.9553951807320117950439453125">
        <ele>1391.5999755859375</ele>
        <time>2026-06-17T08:42:16.000Z</time>
        <extensions>
          <ns3:TrackPointExtension>
            <ns3:atemp>29.0</ns3:atemp>
          </ns3:TrackPointExtension>
        </extensions>
      </trkpt>
      <trkpt lat="42.54171780310571193695068359375" lon="19.95540549047291278839111328125">
        <ele>1391.800048828125</ele>
        <time>2026-06-17T08:42:17.000Z</time>
        <extensions>
          <ns3:TrackPointExtension>
            <ns3:atemp>29.0</ns3:atemp>
          </ns3:TrackPointExtension>
        </extensions>
      </trkpt>
      <trkpt lat="42.54169978201389312744140625" lon="19.95542049407958984375">
        <ele>1392.199951171875</ele>
        <time>2026-06-17T08:42:18.000Z</time>
        <extensions>
          <ns3:TrackPointExtension>
            <ns3:atemp>29.0</ns3:atemp>
          </ns3:TrackPointExtension>
        </extensions>
      </trkpt>
      <trkpt lat="42.54167564213275909423828125" lon="19.95543750934302806854248046875">
        <ele>1392.5999755859375</ele>
        <time>2026-06-17T08:42:19.000Z</time>
        <extensions>
          <ns3:TrackPointExtension>
            <ns3:atemp>29.0</ns3:atemp>
          </ns3:TrackPointExtension>
        </extensions>
      </trkpt>
      <trkpt lat="42.54165208898484706878662109375" lon="19.9554417841136455535888671875">
        <ele>1393</ele>
        <time>2026-06-17T08:42:20.000Z</time>
        <extensions>
          <ns3:TrackPointExtension>
            <ns3:atemp>29.0</ns3:atemp>
          </ns3:TrackPointExtension>
        </extensions>
      </trkpt>
      <trkpt lat="42.5416345708072185516357421875" lon="19.95544035919010639190673828125">
        <ele>1393.199951171875</ele>
        <time>2026-06-17T08:42:21.000Z</time>
        <extensions>
          <ns3:TrackPointExtension>
            <ns3:atemp>29.0</ns3:atemp>
          </ns3:TrackPointExtension>
        </extensions>
      </trkpt>
      <trkpt lat="42.54161202348768711090087890625" lon="19.9554406106472015380859375">
        <ele>1393.4000244140625</ele>
        <time>2026-06-17T08:42:22.000Z</time>
        <extensions>
          <ns3:TrackPointExtension>
            <ns3:atemp>29.0</ns3:atemp>
          </ns3:TrackPointExtension>
        </extensions>
      </trkpt>
      <trkpt lat="42.54158570431172847747802734375" lon="19.9554384313523769378662109375">
        <ele>1393.5999755859375</ele>
        <time>2026-06-17T08:42:23.000Z</time>
        <extensions>
          <ns3:TrackPointExtension>
            <ns3:atemp>29.0</ns3:atemp>
          </ns3:TrackPointExtension>
        </extensions>
      </trkpt>
      <trkpt lat="42.5415564514696598052978515625" lon="19.95543080382049083709716796875">
        <ele>1393.800048828125</ele>
        <time>2026-06-17T08:42:24.000Z</time>
        <extensions>
          <ns3:TrackPointExtension>
            <ns3:atemp>29.0</ns3:atemp>
          </ns3:TrackPointExtension>
        </extensions>
      </trkpt>
      <trkpt lat="42.54152602516114711761474609375" lon="19.95542652904987335205078125">
        <ele>1394</ele>
        <time>2026-06-17T08:42:25.000Z</time>
        <extensions>
          <ns3:TrackPointExtension>
            <ns3:atemp>29.0</ns3:atemp>
          </ns3:TrackPointExtension>
        </extensions>
      </trkpt>
      <trkpt lat="42.54149819724261760711669921875" lon="19.95542057789862155914306640625">
        <ele>1394</ele>
        <time>2026-06-17T08:42:26.000Z</time>
        <extensions>
          <ns3:TrackPointExtension>
            <ns3:atemp>29.0</ns3:atemp>
          </ns3:TrackPointExtension>
        </extensions>
      </trkpt>
      <trkpt lat="42.5414706207811832427978515625" lon="19.95542510412633419036865234375">
        <ele>1394.199951171875</ele>
        <time>2026-06-17T08:42:27.000Z</time>
        <extensions>
          <ns3:TrackPointExtension>
            <ns3:atemp>29.0</ns3:atemp>
          </ns3:TrackPointExtension>
        </extensions>
      </trkpt>
      <trkpt lat="42.5414437986910343170166015625" lon="19.95544538833200931549072265625">
        <ele>1394.4000244140625</ele>
        <time>2026-06-17T08:42:28.000Z</time>
        <extensions>
          <ns3:TrackPointExtension>
            <ns3:atemp>29.0</ns3:atemp>
          </ns3:TrackPointExtension>
        </extensions>
      </trkpt>
      <trkpt lat="42.541419155895709991455078125" lon="19.955465756356716156005859375">
        <ele>1394.5999755859375</ele>
        <time>2026-06-17T08:42:29.000Z</time>
        <extensions>
          <ns3:TrackPointExtension>
            <ns3:atemp>29.0</ns3:atemp>
          </ns3:TrackPointExtension>
        </extensions>
      </trkpt>
      <trkpt lat="42.541399039328098297119140625" lon="19.95548344217240810394287109375">
        <ele>1394.800048828125</ele>
        <time>2026-06-17T08:42:30.000Z</time>
        <extensions>
          <ns3:TrackPointExtension>
            <ns3:atemp>29.0</ns3:atemp>
          </ns3:TrackPointExtension>
        </extensions>
      </trkpt>
      <trkpt lat="42.5413800962269306182861328125" lon="19.95550054125487804412841796875">
        <ele>1395</ele>
        <time>2026-06-17T08:42:31.000Z</time>
        <extensions>
          <ns3:TrackPointExtension>
            <ns3:atemp>29.0</ns3:atemp>
          </ns3:TrackPointExtension>
        </extensions>
      </trkpt>
      <trkpt lat="42.54135704599320888519287109375" lon="19.955523423850536346435546875">
        <ele>1395.4000244140625</ele>
        <time>2026-06-17T08:42:32.000Z</time>
        <extensions>
          <ns3:TrackPointExtension>
            <ns3:atemp>29.0</ns3:atemp>
          </ns3:TrackPointExtension>
        </extensions>
      </trkpt>
      <trkpt lat="42.5413348339498043060302734375" lon="19.95554831810295581817626953125">
        <ele>1395.5999755859375</ele>
        <time>2026-06-17T08:42:33.000Z</time>
        <extensions>
          <ns3:TrackPointExtension>
            <ns3:atemp>29.0</ns3:atemp>
          </ns3:TrackPointExtension>
        </extensions>
      </trkpt>
      <trkpt lat="42.54131480120122432708740234375" lon="19.9555698595941066741943359375">
        <ele>1396</ele>
        <time>2026-06-17T08:42:34.000Z</time>
        <extensions>
          <ns3:TrackPointExtension>
            <ns3:atemp>29.0</ns3:atemp>
          </ns3:TrackPointExtension>
        </extensions>
      </trkpt>
      <trkpt lat="42.54129317589104175567626953125" lon="19.9555943347513675689697265625">
        <ele>1396.199951171875</ele>
        <time>2026-06-17T08:42:35.000Z</time>
        <extensions>
          <ns3:TrackPointExtension>
            <ns3:atemp>29.0</ns3:atemp>
          </ns3:TrackPointExtension>
        </extensions>
      </trkpt>
      <trkpt lat="42.54127020947635173797607421875" lon="19.95561587624251842498779296875">
        <ele>1396.5999755859375</ele>
        <time>2026-06-17T08:42:36.000Z</time>
        <extensions>
          <ns3:TrackPointExtension>
            <ns3:atemp>29.0</ns3:atemp>
          </ns3:TrackPointExtension>
        </extensions>
      </trkpt>
      <trkpt lat="42.5412453152239322662353515625" lon="19.95563481934368610382080078125">
        <ele>1397</ele>
        <time>2026-06-17T08:42:37.000Z</time>
        <extensions>
          <ns3:TrackPointExtension>
            <ns3:atemp>29.0</ns3:atemp>
          </ns3:TrackPointExtension>
        </extensions>
      </trkpt>
      <trkpt lat="42.54121966660022735595703125" lon="19.95564823038876056671142578125">
        <ele>1397.199951171875</ele>
        <time>2026-06-17T08:42:38.000Z</time>
        <extensions>
          <ns3:TrackPointExtension>
            <ns3:atemp>29.0</ns3:atemp>
          </ns3:TrackPointExtension>
        </extensions>
      </trkpt>
      <trkpt lat="42.54119426943361759185791015625" lon="19.95566046796739101409912109375">
        <ele>1397.5999755859375</ele>
        <time>2026-06-17T08:42:39.000Z</time>
        <extensions>
          <ns3:TrackPointExtension>
            <ns3:atemp>29.0</ns3:atemp>
          </ns3:TrackPointExtension>
        </extensions>
      </trkpt>
      <trkpt lat="42.5411675311625003814697265625" lon="19.955666251480579376220703125">
        <ele>1397.800048828125</ele>
        <time>2026-06-17T08:42:40.000Z</time>
        <extensions>
          <ns3:TrackPointExtension>
            <ns3:atemp>29.0</ns3:atemp>
          </ns3:TrackPointExtension>
        </extensions>
      </trkpt>
      <trkpt lat="42.541140206158161163330078125" lon="19.95567136444151401519775390625">
        <ele>1398</ele>
        <time>2026-06-17T08:42:41.000Z</time>
        <extensions>
          <ns3:TrackPointExtension>
            <ns3:atemp>29.0</ns3:atemp>
          </ns3:TrackPointExtension>
        </extensions>
      </trkpt>
      <trkpt lat="42.54111162386834621429443359375" lon="19.9556771479547023773193359375">
        <ele>1398.199951171875</ele>
        <time>2026-06-17T08:42:42.000Z</time>
        <extensions>
          <ns3:TrackPointExtension>
            <ns3:atemp>29.0</ns3:atemp>
          </ns3:TrackPointExtension>
        </extensions>
      </trkpt>
      <trkpt lat="42.541082203388214111328125" lon="19.95568527840077877044677734375">
        <ele>1398.199951171875</ele>
        <time>2026-06-17T08:42:43.000Z</time>
        <extensions>
          <ns3:TrackPointExtension>
            <ns3:atemp>29.0</ns3:atemp>
          </ns3:TrackPointExtension>
        </extensions>
      </trkpt>
      <trkpt lat="42.54105496220290660858154296875" lon="19.95569483377039432525634765625">
        <ele>1398.4000244140625</ele>
        <time>2026-06-17T08:42:44.000Z</time>
        <extensions>
          <ns3:TrackPointExtension>
            <ns3:atemp>29.0</ns3:atemp>
          </ns3:TrackPointExtension>
        </extensions>
      </trkpt>
      <trkpt lat="42.54102830775082111358642578125" lon="19.9557059817016124725341796875">
        <ele>1398.5999755859375</ele>
        <time>2026-06-17T08:42:45.000Z</time>
        <extensions>
          <ns3:TrackPointExtension>
            <ns3:atemp>29.0</ns3:atemp>
          </ns3:TrackPointExtension>
        </extensions>
      </trkpt>
      <trkpt lat="42.5409995578229427337646484375" lon="19.9557141959667205810546875">
        <ele>1398.800048828125</ele>
        <time>2026-06-17T08:42:46.000Z</time>
        <extensions>
          <ns3:TrackPointExtension>
            <ns3:atemp>29.0</ns3:atemp>
          </ns3:TrackPointExtension>
        </extensions>
      </trkpt>
      <trkpt lat="42.54096896387636661529541015625" lon="19.95571754872798919677734375">
        <ele>1399</ele>
        <time>2026-06-17T08:42:47.000Z</time>
        <extensions>
          <ns3:TrackPointExtension>
            <ns3:atemp>29.0</ns3:atemp>
          </ns3:TrackPointExtension>
        </extensions>
      </trkpt>
      <trkpt lat="42.540937028825283050537109375" lon="19.95571888983249664306640625">
        <ele>1399.199951171875</ele>
        <time>2026-06-17T08:42:48.000Z</time>
        <extensions>
          <ns3:TrackPointExtension>
            <ns3:atemp>29.0</ns3:atemp>
          </ns3:TrackPointExtension>
        </extensions>
      </trkpt>
      <trkpt lat="42.54090760834515094757080078125" lon="19.95571478269994258880615234375">
        <ele>1399.199951171875</ele>
        <time>2026-06-17T08:42:49.000Z</time>
        <extensions>
          <ns3:TrackPointExtension>
            <ns3:atemp>29.0</ns3:atemp>
          </ns3:TrackPointExtension>
        </extensions>
      </trkpt>
      <trkpt lat="42.540881372988224029541015625" lon="19.95571025647222995758056640625">
        <ele>1399.4000244140625</ele>
        <time>2026-06-17T08:42:50.000Z</time>
        <extensions>
          <ns3:TrackPointExtension>
            <ns3:atemp>29.0</ns3:atemp>
          </ns3:TrackPointExtension>
        </extensions>
      </trkpt>
      <trkpt lat="42.5408543832600116729736328125" lon="19.95570355094969272613525390625">
        <ele>1399.5999755859375</ele>
        <time>2026-06-17T08:42:51.000Z</time>
        <extensions>
          <ns3:TrackPointExtension>
            <ns3:atemp>29.0</ns3:atemp>
          </ns3:TrackPointExtension>
        </extensions>
      </trkpt>
      <trkpt lat="42.540827728807926177978515625" lon="19.95569399558007717132568359375">
        <ele>1399.800048828125</ele>
        <time>2026-06-17T08:42:52.000Z</time>
        <extensions>
          <ns3:TrackPointExtension>
            <ns3:atemp>29.0</ns3:atemp>
          </ns3:TrackPointExtension>
        </extensions>
      </trkpt>
      <trkpt lat="42.54080233164131641387939453125" lon="19.9556851945817470550537109375">
        <ele>1400</ele>
        <time>2026-06-17T08:42:53.000Z</time>
        <extensions>
          <ns3:TrackPointExtension>
            <ns3:atemp>29.0</ns3:atemp>
          </ns3:TrackPointExtension>
        </extensions>
      </trkpt>
      <trkpt lat="42.540776766836643218994140625" lon="19.95567505247890949249267578125">
        <ele>1400</ele>
        <time>2026-06-17T08:42:54.000Z</time>
        <extensions>
          <ns3:TrackPointExtension>
            <ns3:atemp>29.0</ns3:atemp>
          </ns3:TrackPointExtension>
        </extensions>
      </trkpt>
      <trkpt lat="42.54075086675584316253662109375" lon="19.955666922032833099365234375">
        <ele>1400.4000244140625</ele>
        <time>2026-06-17T08:42:55.000Z</time>
        <extensions>
          <ns3:TrackPointExtension>
            <ns3:atemp>29.0</ns3:atemp>
          </ns3:TrackPointExtension>
        </extensions>
      </trkpt>
      <trkpt lat="42.54072488285601139068603515625" lon="19.9556610547006130218505859375">
        <ele>1400.5999755859375</ele>
        <time>2026-06-17T08:42:56.000Z</time>
        <extensions>
          <ns3:TrackPointExtension>
            <ns3:atemp>29.0</ns3:atemp>
          </ns3:TrackPointExtension>
        </extensions>
      </trkpt>
      <trkpt lat="42.54069797694683074951171875" lon="19.95565376244485378265380859375">
        <ele>1400.5999755859375</ele>
        <time>2026-06-17T08:42:57.000Z</time>
        <extensions>
          <ns3:TrackPointExtension>
            <ns3:atemp>29.0</ns3:atemp>
          </ns3:TrackPointExtension>
        </extensions>
      </trkpt>
      <trkpt lat="42.5406696461141109466552734375" lon="19.9556516669690608978271484375">
        <ele>1400.800048828125</ele>
        <time>2026-06-17T08:42:58.000Z</time>
        <extensions>
          <ns3:TrackPointExtension>
            <ns3:atemp>29.0</ns3:atemp>
          </ns3:TrackPointExtension>
        </extensions>
      </trkpt>
      <trkpt lat="42.54064123146235942840576171875" lon="19.95565309189260005950927734375">
        <ele>1400.800048828125</ele>
        <time>2026-06-17T08:42:59.000Z</time>
        <extensions>
          <ns3:TrackPointExtension>
            <ns3:atemp>29.0</ns3:atemp>
          </ns3:TrackPointExtension>
        </extensions>
      </trkpt>
      <trkpt lat="42.54061373881995677947998046875" lon="19.955660887062549591064453125">
        <ele>1401</ele>
        <time>2026-06-17T08:43:00.000Z</time>
        <extensions>
          <ns3:TrackPointExtension>
            <ns3:atemp>29.0</ns3:atemp>
          </ns3:TrackPointExtension>
        </extensions>
      </trkpt>
      <trkpt lat="42.5405851565301418304443359375" lon="19.955666251480579376220703125">
        <ele>1401</ele>
        <time>2026-06-17T08:43:01.000Z</time>
        <extensions>
          <ns3:TrackPointExtension>
            <ns3:atemp>29.0</ns3:atemp>
          </ns3:TrackPointExtension>
        </extensions>
      </trkpt>
      <trkpt lat="42.54055908881127834320068359375" lon="19.9556741304695606231689453125">
        <ele>1401.199951171875</ele>
        <time>2026-06-17T08:43:02.000Z</time>
        <extensions>
          <ns3:TrackPointExtension>
            <ns3:atemp>29.0</ns3:atemp>
          </ns3:TrackPointExtension>
        </extensions>
      </trkpt>
      <trkpt lat="42.5405335240066051483154296875" lon="19.9556831829249858856201171875">
        <ele>1401.199951171875</ele>
        <time>2026-06-17T08:43:03.000Z</time>
        <extensions>
          <ns3:TrackPointExtension>
            <ns3:atemp>29.0</ns3:atemp>
          </ns3:TrackPointExtension>
        </extensions>
      </trkpt>
      <trkpt lat="42.54050812683999538421630859375" lon="19.9556954205036163330078125">
        <ele>1401.5999755859375</ele>
        <time>2026-06-17T08:43:04.000Z</time>
        <extensions>
          <ns3:TrackPointExtension>
            <ns3:atemp>29.0</ns3:atemp>
          </ns3:TrackPointExtension>
        </extensions>
      </trkpt>
      <trkpt lat="42.54048231057822704315185546875" lon="19.9557049758732318878173828125">
        <ele>1401.800048828125</ele>
        <time>2026-06-17T08:43:05.000Z</time>
        <extensions>
          <ns3:TrackPointExtension>
            <ns3:atemp>29.0</ns3:atemp>
          </ns3:TrackPointExtension>
        </extensions>
      </trkpt>
      <trkpt lat="42.540456913411617279052734375" lon="19.9557163752615451812744140625">
        <ele>1402</ele>
        <time>2026-06-17T08:43:06.000Z</time>
        <extensions>
          <ns3:TrackPointExtension>
            <ns3:atemp>29.0</ns3:atemp>
          </ns3:TrackPointExtension>
        </extensions>
      </trkpt>
      <trkpt lat="42.5404326058924198150634765625" lon="19.9557250924408435821533203125">
        <ele>1402</ele>
        <time>2026-06-17T08:43:07.000Z</time>
        <extensions>
          <ns3:TrackPointExtension>
            <ns3:atemp>29.0</ns3:atemp>
          </ns3:TrackPointExtension>
        </extensions>
      </trkpt>
      <trkpt lat="42.5404054485261440277099609375" lon="19.95573489926755428314208984375">
        <ele>1402.199951171875</ele>
        <time>2026-06-17T08:43:08.000Z</time>
        <extensions>
          <ns3:TrackPointExtension>
            <ns3:atemp>29.0</ns3:atemp>
          </ns3:TrackPointExtension>
        </extensions>
      </trkpt>
      <trkpt lat="42.54037787206470966339111328125" lon="19.9557452090084552764892578125">
        <ele>1402.4000244140625</ele>
        <time>2026-06-17T08:43:09.000Z</time>
        <extensions>
          <ns3:TrackPointExtension>
            <ns3:atemp>29.0</ns3:atemp>
          </ns3:TrackPointExtension>
        </extensions>
      </trkpt>
      <trkpt lat="42.5403511337935924530029296875" lon="19.955753423273563385009765625">
        <ele>1402.4000244140625</ele>
        <time>2026-06-17T08:43:10.000Z</time>
        <extensions>
          <ns3:TrackPointExtension>
            <ns3:atemp>29.0</ns3:atemp>
          </ns3:TrackPointExtension>
        </extensions>
      </trkpt>
      <trkpt lat="42.54032791592180728912353515625" lon="19.95576054789125919342041015625">
        <ele>1402.5999755859375</ele>
        <time>2026-06-17T08:43:11.000Z</time>
        <extensions>
          <ns3:TrackPointExtension>
            <ns3:atemp>29.0</ns3:atemp>
          </ns3:TrackPointExtension>
        </extensions>
      </trkpt>
      <trkpt lat="42.54030377604067325592041015625" lon="19.95576507411897182464599609375">
        <ele>1402.5999755859375</ele>
        <time>2026-06-17T08:43:12.000Z</time>
        <extensions>
          <ns3:TrackPointExtension>
            <ns3:atemp>29.0</ns3:atemp>
          </ns3:TrackPointExtension>
        </extensions>
      </trkpt>
      <trkpt lat="42.5402783788740634918212890625" lon="19.9557686783373355865478515625">
        <ele>1402.800048828125</ele>
        <time>2026-06-17T08:43:13.000Z</time>
        <extensions>
          <ns3:TrackPointExtension>
            <ns3:atemp>29.0</ns3:atemp>
          </ns3:TrackPointExtension>
        </extensions>
      </trkpt>
      <trkpt lat="42.540254406630992889404296875" lon="19.95577462948858737945556640625">
        <ele>1403</ele>
        <time>2026-06-17T08:43:14.000Z</time>
        <extensions>
          <ns3:TrackPointExtension>
            <ns3:atemp>29.0</ns3:atemp>
          </ns3:TrackPointExtension>
        </extensions>
      </trkpt>
      <trkpt lat="42.5402321107685565948486328125" lon="19.9557820893824100494384765625">
        <ele>1403.199951171875</ele>
        <time>2026-06-17T08:43:15.000Z</time>
        <extensions>
          <ns3:TrackPointExtension>
            <ns3:atemp>29.0</ns3:atemp>
          </ns3:TrackPointExtension>
        </extensions>
      </trkpt>
      <trkpt lat="42.54021157510578632354736328125" lon="19.9557867832481861114501953125">
        <ele>1403.4000244140625</ele>
        <time>2026-06-17T08:43:16.000Z</time>
        <extensions>
          <ns3:TrackPointExtension>
            <ns3:atemp>29.0</ns3:atemp>
          </ns3:TrackPointExtension>
        </extensions>
      </trkpt>
      <trkpt lat="42.540190033614635467529296875" lon="19.95579776354134082794189453125">
        <ele>1403.800048828125</ele>
        <time>2026-06-17T08:43:17.000Z</time>
        <extensions>
          <ns3:TrackPointExtension>
            <ns3:atemp>29.0</ns3:atemp>
          </ns3:TrackPointExtension>
        </extensions>
      </trkpt>
      <trkpt lat="42.54017033614218235015869140625" lon="19.95580815710127353668212890625">
        <ele>1404</ele>
        <time>2026-06-17T08:43:18.000Z</time>
        <extensions>
          <ns3:TrackPointExtension>
            <ns3:atemp>29.0</ns3:atemp>
          </ns3:TrackPointExtension>
        </extensions>
      </trkpt>
      <trkpt lat="42.54015055485069751739501953125" lon="19.95581553317606449127197265625">
        <ele>1404.4000244140625</ele>
        <time>2026-06-17T08:43:19.000Z</time>
        <extensions>
          <ns3:TrackPointExtension>
            <ns3:atemp>29.0</ns3:atemp>
          </ns3:TrackPointExtension>
        </extensions>
      </trkpt>
      <trkpt lat="42.54013110883533954620361328125" lon="19.9558295309543609619140625">
        <ele>1404.5999755859375</ele>
        <time>2026-06-17T08:43:20.000Z</time>
        <extensions>
          <ns3:TrackPointExtension>
            <ns3:atemp>29.0</ns3:atemp>
          </ns3:TrackPointExtension>
        </extensions>
      </trkpt>
      <trkpt lat="42.54011082462966442108154296875" lon="19.95584151707589626312255859375">
        <ele>1405</ele>
        <time>2026-06-17T08:43:21.000Z</time>
        <extensions>
          <ns3:TrackPointExtension>
            <ns3:atemp>29.0</ns3:atemp>
          </ns3:TrackPointExtension>
        </extensions>
      </trkpt>
      <trkpt lat="42.54008869640529155731201171875" lon="19.9558578617870807647705078125">
        <ele>1405.199951171875</ele>
        <time>2026-06-17T08:43:22.000Z</time>
        <extensions>
          <ns3:TrackPointExtension>
            <ns3:atemp>29.0</ns3:atemp>
          </ns3:TrackPointExtension>
        </extensions>
      </trkpt>
      <trkpt lat="42.5400738604366779327392578125" lon="19.95587068609893321990966796875">
        <ele>1405.5999755859375</ele>
        <time>2026-06-17T08:43:23.000Z</time>
        <extensions>
          <ns3:TrackPointExtension>
            <ns3:atemp>29.0</ns3:atemp>
          </ns3:TrackPointExtension>
        </extensions>
      </trkpt>
      <trkpt lat="42.5400537438690662384033203125" lon="19.95588694699108600616455078125">
        <ele>1405.800048828125</ele>
        <time>2026-06-17T08:43:24.000Z</time>
        <extensions>
          <ns3:TrackPointExtension>
            <ns3:atemp>29.0</ns3:atemp>
          </ns3:TrackPointExtension>
        </extensions>
      </trkpt>
      <trkpt lat="42.54003672860562801361083984375" lon="19.9558997713029384613037109375">
        <ele>1406</ele>
        <time>2026-06-17T08:43:25.000Z</time>
        <extensions>
          <ns3:TrackPointExtension>
            <ns3:atemp>29.0</ns3:atemp>
          </ns3:TrackPointExtension>
        </extensions>
      </trkpt>
      <trkpt lat="42.5400165282189846038818359375" lon="19.95591603219509124755859375">
        <ele>1406.4000244140625</ele>
        <time>2026-06-17T08:43:26.000Z</time>
        <extensions>
          <ns3:TrackPointExtension>
            <ns3:atemp>29.0</ns3:atemp>
          </ns3:TrackPointExtension>
        </extensions>
      </trkpt>
      <trkpt lat="42.5400021113455295562744140625" lon="19.9559265933930873870849609375">
        <ele>1406.5999755859375</ele>
        <time>2026-06-17T08:43:27.000Z</time>
        <extensions>
          <ns3:TrackPointExtension>
            <ns3:atemp>29.0</ns3:atemp>
          </ns3:TrackPointExtension>
        </extensions>
      </trkpt>
      <trkpt lat="42.53998425789177417755126953125" lon="19.955939166247844696044921875">
        <ele>1406.800048828125</ele>
        <time>2026-06-17T08:43:28.000Z</time>
        <extensions>
          <ns3:TrackPointExtension>
            <ns3:atemp>29.0</ns3:atemp>
          </ns3:TrackPointExtension>
        </extensions>
      </trkpt>
      <trkpt lat="42.53996715880930423736572265625" lon="19.955949895083904266357421875">
        <ele>1407.199951171875</ele>
        <time>2026-06-17T08:43:29.000Z</time>
        <extensions>
          <ns3:TrackPointExtension>
            <ns3:atemp>29.0</ns3:atemp>
          </ns3:TrackPointExtension>
        </extensions>
      </trkpt>
      <trkpt lat="42.53994561731815338134765625" lon="19.95596439577639102935791015625">
        <ele>1407.4000244140625</ele>
        <time>2026-06-17T08:43:30.000Z</time>
        <extensions>
          <ns3:TrackPointExtension>
            <ns3:atemp>29.0</ns3:atemp>
          </ns3:TrackPointExtension>
        </extensions>
      </trkpt>
      <trkpt lat="42.539928518235683441162109375" lon="19.9559698440134525299072265625">
        <ele>1407.5999755859375</ele>
        <time>2026-06-17T08:43:31.000Z</time>
        <extensions>
          <ns3:TrackPointExtension>
            <ns3:atemp>29.0</ns3:atemp>
          </ns3:TrackPointExtension>
        </extensions>
      </trkpt>
      <trkpt lat="42.539910413324832916259765625" lon="19.9559819139540195465087890625">
        <ele>1407.800048828125</ele>
        <time>2026-06-17T08:43:32.000Z</time>
        <extensions>
          <ns3:TrackPointExtension>
            <ns3:atemp>29.0</ns3:atemp>
          </ns3:TrackPointExtension>
        </extensions>
      </trkpt>
      <trkpt lat="42.5398918054997920989990234375" lon="19.95599255897104740142822265625">
        <ele>1408.199951171875</ele>
        <time>2026-06-17T08:43:33.000Z</time>
        <extensions>
          <ns3:TrackPointExtension>
            <ns3:atemp>29.0</ns3:atemp>
          </ns3:TrackPointExtension>
        </extensions>
      </trkpt>
      <trkpt lat="42.5398720242083072662353515625" lon="19.95600781403481960296630859375">
        <ele>1408.5999755859375</ele>
        <time>2026-06-17T08:43:34.000Z</time>
        <extensions>
          <ns3:TrackPointExtension>
            <ns3:atemp>29.0</ns3:atemp>
          </ns3:TrackPointExtension>
        </extensions>
      </trkpt>
      <trkpt lat="42.53985148854553699493408203125" lon="19.956018291413784027099609375">
        <ele>1408.800048828125</ele>
        <time>2026-06-17T08:43:35.000Z</time>
        <extensions>
          <ns3:TrackPointExtension>
            <ns3:atemp>29.0</ns3:atemp>
          </ns3:TrackPointExtension>
        </extensions>
      </trkpt>
      <trkpt lat="42.53982936032116413116455078125" lon="19.95602709241211414337158203125">
        <ele>1409</ele>
        <time>2026-06-17T08:43:36.000Z</time>
        <extensions>
          <ns3:TrackPointExtension>
            <ns3:atemp>29.0</ns3:atemp>
          </ns3:TrackPointExtension>
        </extensions>
      </trkpt>
      <trkpt lat="42.5398063100874423980712890625" lon="19.95603363029658794403076171875">
        <ele>1409.4000244140625</ele>
        <time>2026-06-17T08:43:37.000Z</time>
        <extensions>
          <ns3:TrackPointExtension>
            <ns3:atemp>29.0</ns3:atemp>
          </ns3:TrackPointExtension>
        </extensions>
      </trkpt>
      <trkpt lat="42.5397841818630695343017578125" lon="19.95603094808757305145263671875">
        <ele>1409.5999755859375</ele>
        <time>2026-06-17T08:43:38.000Z</time>
        <extensions>
          <ns3:TrackPointExtension>
            <ns3:atemp>29.0</ns3:atemp>
          </ns3:TrackPointExtension>
        </extensions>
      </trkpt>
      <trkpt lat="42.5397613830864429473876953125" lon="19.95602876879274845123291015625">
        <ele>1410</ele>
        <time>2026-06-17T08:43:39.000Z</time>
        <extensions>
          <ns3:TrackPointExtension>
            <ns3:atemp>29.0</ns3:atemp>
          </ns3:TrackPointExtension>
        </extensions>
      </trkpt>
      <trkpt lat="42.53974168561398983001708984375" lon="19.9560311995446681976318359375">
        <ele>1410.199951171875</ele>
        <time>2026-06-17T08:43:40.000Z</time>
        <extensions>
          <ns3:TrackPointExtension>
            <ns3:atemp>29.0</ns3:atemp>
          </ns3:TrackPointExtension>
        </extensions>
      </trkpt>
      <trkpt lat="42.5397214852273464202880859375" lon="19.956025667488574981689453125">
        <ele>1410.5999755859375</ele>
        <time>2026-06-17T08:43:41.000Z</time>
        <extensions>
          <ns3:TrackPointExtension>
            <ns3:atemp>29.0</ns3:atemp>
          </ns3:TrackPointExtension>
        </extensions>
      </trkpt>
      <trkpt lat="42.53970195539295673370361328125" lon="19.95602172799408435821533203125">
        <ele>1410.800048828125</ele>
        <time>2026-06-17T08:43:42.000Z</time>
        <extensions>
          <ns3:TrackPointExtension>
            <ns3:atemp>29.0</ns3:atemp>
          </ns3:TrackPointExtension>
        </extensions>
      </trkpt>
      <trkpt lat="42.539679072797298431396484375" lon="19.95601527392864227294921875">
        <ele>1411</ele>
        <time>2026-06-17T08:43:43.000Z</time>
        <extensions>
          <ns3:TrackPointExtension>
            <ns3:atemp>29.0</ns3:atemp>
          </ns3:TrackPointExtension>
        </extensions>
      </trkpt>
      <trkpt lat="42.53965862095355987548828125" lon="19.95600597001612186431884765625">
        <ele>1411.4000244140625</ele>
        <time>2026-06-17T08:43:44.000Z</time>
        <extensions>
          <ns3:TrackPointExtension>
            <ns3:atemp>29.0</ns3:atemp>
          </ns3:TrackPointExtension>
        </extensions>
      </trkpt>
      <trkpt lat="42.53963984549045562744140625" lon="19.95599247515201568603515625">
        <ele>1411.5999755859375</ele>
        <time>2026-06-17T08:43:45.000Z</time>
        <extensions>
          <ns3:TrackPointExtension>
            <ns3:atemp>29.0</ns3:atemp>
          </ns3:TrackPointExtension>
        </extensions>
      </trkpt>
      <trkpt lat="42.53962182439863681793212890625" lon="19.955979399383068084716796875">
        <ele>1411.800048828125</ele>
        <time>2026-06-17T08:43:46.000Z</time>
        <extensions>
          <ns3:TrackPointExtension>
            <ns3:atemp>29.0</ns3:atemp>
          </ns3:TrackPointExtension>
        </extensions>
      </trkpt>
      <trkpt lat="42.539603970944881439208984375" lon="19.95596506632864475250244140625">
        <ele>1412</ele>
        <time>2026-06-17T08:43:47.000Z</time>
        <extensions>
          <ns3:TrackPointExtension>
            <ns3:atemp>29.0</ns3:atemp>
          </ns3:TrackPointExtension>
        </extensions>
      </trkpt>
      <trkpt lat="42.53958645276725292205810546875" lon="19.9559527449309825897216796875">
        <ele>1412.199951171875</ele>
        <time>2026-06-17T08:43:48.000Z</time>
        <extensions>
          <ns3:TrackPointExtension>
            <ns3:atemp>29.0</ns3:atemp>
          </ns3:TrackPointExtension>
        </extensions>
      </trkpt>
      <trkpt lat="42.53956801258027553558349609375" lon="19.95593748986721038818359375">
        <ele>1412.4000244140625</ele>
        <time>2026-06-17T08:43:49.000Z</time>
        <extensions>
          <ns3:TrackPointExtension>
            <ns3:atemp>29.0</ns3:atemp>
          </ns3:TrackPointExtension>
        </extensions>
      </trkpt>
      <trkpt lat="42.5395501591265201568603515625" lon="19.95591871440410614013671875">
        <ele>1412.5999755859375</ele>
        <time>2026-06-17T08:43:50.000Z</time>
        <extensions>
          <ns3:TrackPointExtension>
            <ns3:atemp>29.0</ns3:atemp>
          </ns3:TrackPointExtension>
        </extensions>
      </trkpt>
      <trkpt lat="42.53953255712985992431640625" lon="19.95590488426387310028076171875">
        <ele>1413</ele>
        <time>2026-06-17T08:43:51.000Z</time>
        <extensions>
          <ns3:TrackPointExtension>
            <ns3:atemp>29.0</ns3:atemp>
          </ns3:TrackPointExtension>
        </extensions>
      </trkpt>
      <trkpt lat="42.53951319493353366851806640625" lon="19.9558917246758937835693359375">
        <ele>1413.199951171875</ele>
        <time>2026-06-17T08:43:52.000Z</time>
        <extensions>
          <ns3:TrackPointExtension>
            <ns3:atemp>29.0</ns3:atemp>
          </ns3:TrackPointExtension>
        </extensions>
      </trkpt>
      <trkpt lat="42.53949559293687343597412109375" lon="19.955873787403106689453125">
        <ele>1413.4000244140625</ele>
        <time>2026-06-17T08:43:53.000Z</time>
        <extensions>
          <ns3:TrackPointExtension>
            <ns3:atemp>29.0</ns3:atemp>
          </ns3:TrackPointExtension>
        </extensions>
      </trkpt>
      <trkpt lat="42.53947757184505462646484375" lon="19.95585828088223934173583984375">
        <ele>1413.800048828125</ele>
        <time>2026-06-17T08:43:54.000Z</time>
        <extensions>
          <ns3:TrackPointExtension>
            <ns3:atemp>29.0</ns3:atemp>
          </ns3:TrackPointExtension>
        </extensions>
      </trkpt>
      <trkpt lat="42.53946013748645782470703125" lon="19.955841265618801116943359375">
        <ele>1414</ele>
        <time>2026-06-17T08:43:55.000Z</time>
        <extensions>
          <ns3:TrackPointExtension>
            <ns3:atemp>29.0</ns3:atemp>
          </ns3:TrackPointExtension>
        </extensions>
      </trkpt>
      <trkpt lat="42.53944211639463901519775390625" lon="19.95582886040210723876953125">
        <ele>1414.4000244140625</ele>
        <time>2026-06-17T08:43:56.000Z</time>
        <extensions>
          <ns3:TrackPointExtension>
            <ns3:atemp>29.0</ns3:atemp>
          </ns3:TrackPointExtension>
        </extensions>
      </trkpt>
      <trkpt lat="42.53942267037928104400634765625" lon="19.9558172933757305145263671875">
        <ele>1414.800048828125</ele>
        <time>2026-06-17T08:43:57.000Z</time>
        <extensions>
          <ns3:TrackPointExtension>
            <ns3:atemp>29.0</ns3:atemp>
          </ns3:TrackPointExtension>
        </extensions>
      </trkpt>
      <trkpt lat="42.53940188325941562652587890625" lon="19.95580648072063922882080078125">
        <ele>1415</ele>
        <time>2026-06-17T08:43:58.000Z</time>
        <extensions>
          <ns3:TrackPointExtension>
            <ns3:atemp>29.0</ns3:atemp>
          </ns3:TrackPointExtension>
        </extensions>
      </trkpt>
      <trkpt lat="42.53938260488212108612060546875" lon="19.9557973444461822509765625">
        <ele>1415.4000244140625</ele>
        <time>2026-06-17T08:43:59.000Z</time>
        <extensions>
          <ns3:TrackPointExtension>
            <ns3:atemp>29.0</ns3:atemp>
          </ns3:TrackPointExtension>
        </extensions>
      </trkpt>
      <trkpt lat="42.53936533816158771514892578125" lon="19.95578485541045665740966796875">
        <ele>1415.5999755859375</ele>
        <time>2026-06-17T08:44:00.000Z</time>
        <extensions>
          <ns3:TrackPointExtension>
            <ns3:atemp>29.0</ns3:atemp>
          </ns3:TrackPointExtension>
        </extensions>
      </trkpt>
      <trkpt lat="42.53934882581233978271484375" lon="19.95577429421246051788330078125">
        <ele>1415.800048828125</ele>
        <time>2026-06-17T08:44:01.000Z</time>
        <extensions>
          <ns3:TrackPointExtension>
            <ns3:atemp>29.0</ns3:atemp>
          </ns3:TrackPointExtension>
        </extensions>
      </trkpt>
      <trkpt lat="42.53932845778763294219970703125" lon="19.9557626433670520782470703125">
        <ele>1416</ele>
        <time>2026-06-17T08:44:02.000Z</time>
        <extensions>
          <ns3:TrackPointExtension>
            <ns3:atemp>29.0</ns3:atemp>
          </ns3:TrackPointExtension>
        </extensions>
      </trkpt>
      <trkpt lat="42.5393104366958141326904296875" lon="19.955747388303279876708984375">
        <ele>1416.199951171875</ele>
        <time>2026-06-17T08:44:03.000Z</time>
        <extensions>
          <ns3:TrackPointExtension>
            <ns3:atemp>29.0</ns3:atemp>
          </ns3:TrackPointExtension>
        </extensions>
      </trkpt>
      <trkpt lat="42.539295852184295654296875" lon="19.9557338096201419830322265625">
        <ele>1416.4000244140625</ele>
        <time>2026-06-17T08:44:04.000Z</time>
        <extensions>
          <ns3:TrackPointExtension>
            <ns3:atemp>29.0</ns3:atemp>
          </ns3:TrackPointExtension>
        </extensions>
      </trkpt>
      <trkpt lat="42.5392775796353816986083984375" lon="19.95571612380445003509521484375">
        <ele>1416.800048828125</ele>
        <time>2026-06-17T08:44:05.000Z</time>
        <extensions>
          <ns3:TrackPointExtension>
            <ns3:atemp>29.0</ns3:atemp>
          </ns3:TrackPointExtension>
        </extensions>
      </trkpt>
      <trkpt lat="42.53925922326743602752685546875" lon="19.9557006172835826873779296875">
        <ele>1417.199951171875</ele>
        <time>2026-06-17T08:44:06.000Z</time>
        <extensions>
          <ns3:TrackPointExtension>
            <ns3:atemp>29.0</ns3:atemp>
          </ns3:TrackPointExtension>
        </extensions>
      </trkpt>
      <trkpt lat="42.53924212418496608734130859375" lon="19.95568360202014446258544921875">
        <ele>1417.5999755859375</ele>
        <time>2026-06-17T08:44:07.000Z</time>
        <extensions>
          <ns3:TrackPointExtension>
            <ns3:atemp>29.0</ns3:atemp>
          </ns3:TrackPointExtension>
        </extensions>
      </trkpt>
      <trkpt lat="42.53922703675925731658935546875" lon="19.95566600002348423004150390625">
        <ele>1418</ele>
        <time>2026-06-17T08:44:08.000Z</time>
        <extensions>
          <ns3:TrackPointExtension>
            <ns3:atemp>29.0</ns3:atemp>
          </ns3:TrackPointExtension>
        </extensions>
      </trkpt>
      <trkpt lat="42.5392081774771213531494140625" lon="19.9556499905884265899658203125">
        <ele>1418.4000244140625</ele>
        <time>2026-06-17T08:44:09.000Z</time>
        <extensions>
          <ns3:TrackPointExtension>
            <ns3:atemp>29.0</ns3:atemp>
          </ns3:TrackPointExtension>
        </extensions>
      </trkpt>
      <trkpt lat="42.53919132985174655914306640625" lon="19.95563062839210033416748046875">
        <ele>1418.800048828125</ele>
        <time>2026-06-17T08:44:10.000Z</time>
        <extensions>
          <ns3:TrackPointExtension>
            <ns3:atemp>29.0</ns3:atemp>
          </ns3:TrackPointExtension>
        </extensions>
      </trkpt>
      <trkpt lat="42.53917305730283260345458984375" lon="19.9556134454905986785888671875">
        <ele>1419</ele>
        <time>2026-06-17T08:44:11.000Z</time>
        <extensions>
          <ns3:TrackPointExtension>
            <ns3:atemp>29.0</ns3:atemp>
          </ns3:TrackPointExtension>
        </extensions>
      </trkpt>
      <trkpt lat="42.53915562294423580169677734375" lon="19.95559626258909702301025390625">
        <ele>1419.199951171875</ele>
        <time>2026-06-17T08:44:12.000Z</time>
        <extensions>
          <ns3:TrackPointExtension>
            <ns3:atemp>29.0</ns3:atemp>
          </ns3:TrackPointExtension>
        </extensions>
      </trkpt>
      <trkpt lat="42.5391404516994953155517578125" lon="19.9555812589824199676513671875">
        <ele>1419.5999755859375</ele>
        <time>2026-06-17T08:44:13.000Z</time>
        <extensions>
          <ns3:TrackPointExtension>
            <ns3:atemp>29.0</ns3:atemp>
          </ns3:TrackPointExtension>
        </extensions>
      </trkpt>
      <trkpt lat="42.53912511281669139862060546875" lon="19.95556793175637722015380859375">
        <ele>1420.199951171875</ele>
        <time>2026-06-17T08:44:14.000Z</time>
        <extensions>
          <ns3:TrackPointExtension>
            <ns3:atemp>29.0</ns3:atemp>
          </ns3:TrackPointExtension>
        </extensions>
      </trkpt>
      <trkpt lat="42.5391062535345554351806640625" lon="19.95555234141647815704345703125">
        <ele>1420.800048828125</ele>
        <time>2026-06-17T08:44:15.000Z</time>
        <extensions>
          <ns3:TrackPointExtension>
            <ns3:atemp>29.0</ns3:atemp>
          </ns3:TrackPointExtension>
        </extensions>
      </trkpt>
      <trkpt lat="42.5390858016908168792724609375" lon="19.9555346556007862091064453125">
        <ele>1421</ele>
        <time>2026-06-17T08:44:16.000Z</time>
        <extensions>
          <ns3:TrackPointExtension>
            <ns3:atemp>29.0</ns3:atemp>
          </ns3:TrackPointExtension>
        </extensions>
      </trkpt>
      <trkpt lat="42.53907096572220325469970703125" lon="19.955513365566730499267578125">
        <ele>1421.4000244140625</ele>
        <time>2026-06-17T08:44:17.000Z</time>
        <extensions>
          <ns3:TrackPointExtension>
            <ns3:atemp>29.0</ns3:atemp>
          </ns3:TrackPointExtension>
        </extensions>
      </trkpt>
      <trkpt lat="42.5390502624213695526123046875" lon="19.9554981105029582977294921875">
        <ele>1421.5999755859375</ele>
        <time>2026-06-17T08:44:18.000Z</time>
        <extensions>
          <ns3:TrackPointExtension>
            <ns3:atemp>29.0</ns3:atemp>
          </ns3:TrackPointExtension>
        </extensions>
      </trkpt>
      <trkpt lat="42.53902888856828212738037109375" lon="19.9554808437824249267578125">
        <ele>1421.5999755859375</ele>
        <time>2026-06-17T08:44:19.000Z</time>
        <extensions>
          <ns3:TrackPointExtension>
            <ns3:atemp>29.0</ns3:atemp>
          </ns3:TrackPointExtension>
        </extensions>
      </trkpt>
      <trkpt lat="42.53900659270584583282470703125" lon="19.9554676003754138946533203125">
        <ele>1421.800048828125</ele>
        <time>2026-06-17T08:44:20.000Z</time>
        <extensions>
          <ns3:TrackPointExtension>
            <ns3:atemp>29.0</ns3:atemp>
          </ns3:TrackPointExtension>
        </extensions>
      </trkpt>
      <trkpt lat="42.53898781724274158477783203125" lon="19.95545360259711742401123046875">
        <ele>1422.199951171875</ele>
        <time>2026-06-17T08:44:21.000Z</time>
        <extensions>
          <ns3:TrackPointExtension>
            <ns3:atemp>29.0</ns3:atemp>
          </ns3:TrackPointExtension>
        </extensions>
      </trkpt>
      <trkpt lat="42.5389677844941616058349609375" lon="19.9554427899420261383056640625">
        <ele>1422.4000244140625</ele>
        <time>2026-06-17T08:44:22.000Z</time>
        <extensions>
          <ns3:TrackPointExtension>
            <ns3:atemp>29.0</ns3:atemp>
          </ns3:TrackPointExtension>
        </extensions>
      </trkpt>
      <trkpt lat="42.5389496795833110809326171875" lon="19.95543147437274456024169921875">
        <ele>1422.800048828125</ele>
        <time>2026-06-17T08:44:23.000Z</time>
        <extensions>
          <ns3:TrackPointExtension>
            <ns3:atemp>29.0</ns3:atemp>
          </ns3:TrackPointExtension>
        </extensions>
      </trkpt>
      <trkpt lat="42.538931071758270263671875" lon="19.95542124845087528228759765625">
        <ele>1423.199951171875</ele>
        <time>2026-06-17T08:44:24.000Z</time>
        <extensions>
          <ns3:TrackPointExtension>
            <ns3:atemp>29.0</ns3:atemp>
          </ns3:TrackPointExtension>
        </extensions>
      </trkpt>
      <trkpt lat="42.53890885971486568450927734375" lon="19.9554102681577205657958984375">
        <ele>1423.5999755859375</ele>
        <time>2026-06-17T08:44:25.000Z</time>
        <extensions>
          <ns3:TrackPointExtension>
            <ns3:atemp>29.0</ns3:atemp>
          </ns3:TrackPointExtension>
        </extensions>
      </trkpt>
      <trkpt lat="42.5388859771192073822021484375" lon="19.95540113188326358795166015625">
        <ele>1423.800048828125</ele>
        <time>2026-06-17T08:44:26.000Z</time>
        <extensions>
          <ns3:TrackPointExtension>
            <ns3:atemp>29.0</ns3:atemp>
          </ns3:TrackPointExtension>
        </extensions>
      </trkpt>
      <trkpt lat="42.5388615019619464874267578125" lon="19.9553851224482059478759765625">
        <ele>1424</ele>
        <time>2026-06-17T08:44:27.000Z</time>
        <extensions>
          <ns3:TrackPointExtension>
            <ns3:atemp>29.0</ns3:atemp>
          </ns3:TrackPointExtension>
        </extensions>
      </trkpt>
      <trkpt lat="42.5388393737375736236572265625" lon="19.9553737230598926544189453125">
        <ele>1424.199951171875</ele>
        <time>2026-06-17T08:44:28.000Z</time>
        <extensions>
          <ns3:TrackPointExtension>
            <ns3:atemp>29.0</ns3:atemp>
          </ns3:TrackPointExtension>
        </extensions>
      </trkpt>
      <trkpt lat="42.53881833516061305999755859375" lon="19.95536240749061107635498046875">
        <ele>1424.4000244140625</ele>
        <time>2026-06-17T08:44:29.000Z</time>
        <extensions>
          <ns3:TrackPointExtension>
            <ns3:atemp>29.0</ns3:atemp>
          </ns3:TrackPointExtension>
        </extensions>
      </trkpt>
      <trkpt lat="42.5387967936694622039794921875" lon="19.95535218156874179840087890625">
        <ele>1424.5999755859375</ele>
        <time>2026-06-17T08:44:30.000Z</time>
        <extensions>
          <ns3:TrackPointExtension>
            <ns3:atemp>29.0</ns3:atemp>
          </ns3:TrackPointExtension>
        </extensions>
      </trkpt>
      <trkpt lat="42.5387743301689624786376953125" lon="19.95533960871398448944091796875">
        <ele>1424.800048828125</ele>
        <time>2026-06-17T08:44:31.000Z</time>
        <extensions>
          <ns3:TrackPointExtension>
            <ns3:atemp>29.0</ns3:atemp>
          </ns3:TrackPointExtension>
        </extensions>
      </trkpt>
      <trkpt lat="42.538754381239414215087890625" lon="19.95532703585922718048095703125">
        <ele>1424.800048828125</ele>
        <time>2026-06-17T08:44:32.000Z</time>
        <extensions>
          <ns3:TrackPointExtension>
            <ns3:atemp>29.0</ns3:atemp>
          </ns3:TrackPointExtension>
        </extensions>
      </trkpt>
      <trkpt lat="42.53873334266245365142822265625" lon="19.95531731285154819488525390625">
        <ele>1425.199951171875</ele>
        <time>2026-06-17T08:44:33.000Z</time>
        <extensions>
          <ns3:TrackPointExtension>
            <ns3:atemp>29.0</ns3:atemp>
          </ns3:TrackPointExtension>
        </extensions>
      </trkpt>
      <trkpt lat="42.53870987333357334136962890625" lon="19.95530423708260059356689453125">
        <ele>1425.4000244140625</ele>
        <time>2026-06-17T08:44:34.000Z</time>
        <extensions>
          <ns3:TrackPointExtension>
            <ns3:atemp>29.0</ns3:atemp>
          </ns3:TrackPointExtension>
        </extensions>
      </trkpt>
      <trkpt lat="42.5386888347566127777099609375" lon="19.95529300533235073089599609375">
        <ele>1425.5999755859375</ele>
        <time>2026-06-17T08:44:35.000Z</time>
        <extensions>
          <ns3:TrackPointExtension>
            <ns3:atemp>29.0</ns3:atemp>
          </ns3:TrackPointExtension>
        </extensions>
      </trkpt>
      <trkpt lat="42.538665868341922760009765625" lon="19.95528344996273517608642578125">
        <ele>1425.800048828125</ele>
        <time>2026-06-17T08:44:36.000Z</time>
        <extensions>
          <ns3:TrackPointExtension>
            <ns3:atemp>29.0</ns3:atemp>
          </ns3:TrackPointExtension>
        </extensions>
      </trkpt>
      <trkpt lat="42.538643740117549896240234375" lon="19.95527640916407108306884765625">
        <ele>1426</ele>
        <time>2026-06-17T08:44:37.000Z</time>
        <extensions>
          <ns3:TrackPointExtension>
            <ns3:atemp>29.0</ns3:atemp>
          </ns3:TrackPointExtension>
        </extensions>
      </trkpt>
      <trkpt lat="42.538621611893177032470703125" lon="19.95526836253702640533447265625">
        <ele>1426.199951171875</ele>
        <time>2026-06-17T08:44:38.000Z</time>
        <extensions>
          <ns3:TrackPointExtension>
            <ns3:atemp>29.0</ns3:atemp>
          </ns3:TrackPointExtension>
        </extensions>
      </trkpt>
      <trkpt lat="42.5385969690978527069091796875" lon="19.95526551268994808197021484375">
        <ele>1426.4000244140625</ele>
        <time>2026-06-17T08:44:39.000Z</time>
        <extensions>
          <ns3:TrackPointExtension>
            <ns3:atemp>29.0</ns3:atemp>
          </ns3:TrackPointExtension>
        </extensions>
      </trkpt>
      <trkpt lat="42.5385731644928455352783203125" lon="19.95526350103318691253662109375">
        <ele>1426.5999755859375</ele>
        <time>2026-06-17T08:44:40.000Z</time>
        <extensions>
          <ns3:TrackPointExtension>
            <ns3:atemp>29.0</ns3:atemp>
          </ns3:TrackPointExtension>
        </extensions>
      </trkpt>
      <trkpt lat="42.5385490246117115020751953125" lon="19.95526517741382122039794921875">
        <ele>1426.800048828125</ele>
        <time>2026-06-17T08:44:41.000Z</time>
        <extensions>
          <ns3:TrackPointExtension>
            <ns3:atemp>29.0</ns3:atemp>
          </ns3:TrackPointExtension>
        </extensions>
      </trkpt>
      <trkpt lat="42.53852480091154575347900390625" lon="19.95526551268994808197021484375">
        <ele>1427</ele>
        <time>2026-06-17T08:44:42.000Z</time>
        <extensions>
          <ns3:TrackPointExtension>
            <ns3:atemp>29.0</ns3:atemp>
          </ns3:TrackPointExtension>
        </extensions>
      </trkpt>
      <trkpt lat="42.53850258886814117431640625" lon="19.955267943441867828369140625">
        <ele>1427.4000244140625</ele>
        <time>2026-06-17T08:44:43.000Z</time>
        <extensions>
          <ns3:TrackPointExtension>
            <ns3:atemp>29.0</ns3:atemp>
          </ns3:TrackPointExtension>
        </extensions>
      </trkpt>
      <trkpt lat="42.5384796224534511566162109375" lon="19.95527758263051509857177734375">
        <ele>1427.5999755859375</ele>
        <time>2026-06-17T08:44:44.000Z</time>
        <extensions>
          <ns3:TrackPointExtension>
            <ns3:atemp>29.0</ns3:atemp>
          </ns3:TrackPointExtension>
        </extensions>
      </trkpt>
      <trkpt lat="42.5384568236768245697021484375" lon="19.95529317297041416168212890625">
        <ele>1428</ele>
        <time>2026-06-17T08:44:45.000Z</time>
        <extensions>
          <ns3:TrackPointExtension>
            <ns3:atemp>29.0</ns3:atemp>
          </ns3:TrackPointExtension>
        </extensions>
      </trkpt>
      <trkpt lat="42.538435868918895721435546875" lon="19.95531027205288410186767578125">
        <ele>1428.4000244140625</ele>
        <time>2026-06-17T08:44:46.000Z</time>
        <extensions>
          <ns3:TrackPointExtension>
            <ns3:atemp>29.0</ns3:atemp>
          </ns3:TrackPointExtension>
        </extensions>
      </trkpt>
      <trkpt lat="42.53841516561806201934814453125" lon="19.95532670058310031890869140625">
        <ele>1428.800048828125</ele>
        <time>2026-06-17T08:44:47.000Z</time>
        <extensions>
          <ns3:TrackPointExtension>
            <ns3:atemp>29.0</ns3:atemp>
          </ns3:TrackPointExtension>
        </extensions>
      </trkpt>
      <trkpt lat="42.53839756362140178680419921875" lon="19.95533223263919353485107421875">
        <ele>1429.199951171875</ele>
        <time>2026-06-17T08:44:48.000Z</time>
        <extensions>
          <ns3:TrackPointExtension>
            <ns3:atemp>29.0</ns3:atemp>
          </ns3:TrackPointExtension>
        </extensions>
      </trkpt>
      <trkpt lat="42.53837409429252147674560546875" lon="19.95534061454236507415771484375">
        <ele>1429.4000244140625</ele>
        <time>2026-06-17T08:44:49.000Z</time>
        <extensions>
          <ns3:TrackPointExtension>
            <ns3:atemp>29.0</ns3:atemp>
          </ns3:TrackPointExtension>
        </extensions>
      </trkpt>
      <trkpt lat="42.53835104405879974365234375" lon="19.95534648187458515167236328125">
        <ele>1429.800048828125</ele>
        <time>2026-06-17T08:44:50.000Z</time>
        <extensions>
          <ns3:TrackPointExtension>
            <ns3:atemp>29.0</ns3:atemp>
          </ns3:TrackPointExtension>
        </extensions>
      </trkpt>
      <trkpt lat="42.538330256938934326171875" lon="19.9553494155406951904296875">
        <ele>1430</ele>
        <time>2026-06-17T08:44:51.000Z</time>
        <extensions>
          <ns3:TrackPointExtension>
            <ns3:atemp>29.0</ns3:atemp>
          </ns3:TrackPointExtension>
        </extensions>
      </trkpt>
      <trkpt lat="42.53830553032457828521728515625" lon="19.955343045294284820556640625">
        <ele>1430.4000244140625</ele>
        <time>2026-06-17T08:44:52.000Z</time>
        <extensions>
          <ns3:TrackPointExtension>
            <ns3:atemp>29.0</ns3:atemp>
          </ns3:TrackPointExtension>
        </extensions>
      </trkpt>
      <trkpt lat="42.538281977176666259765625" lon="19.9553254432976245880126953125">
        <ele>1430.5999755859375</ele>
        <time>2026-06-17T08:44:53.000Z</time>
        <extensions>
          <ns3:TrackPointExtension>
            <ns3:atemp>29.0</ns3:atemp>
          </ns3:TrackPointExtension>
        </extensions>
      </trkpt>
      <trkpt lat="42.53826311789453029632568359375" lon="19.95529937557876110076904296875">
        <ele>1431</ele>
        <time>2026-06-17T08:44:54.000Z</time>
        <extensions>
          <ns3:TrackPointExtension>
            <ns3:atemp>29.0</ns3:atemp>
          </ns3:TrackPointExtension>
        </extensions>
      </trkpt>
      <trkpt lat="42.5382511317729949951171875" lon="19.955265931785106658935546875">
        <ele>1431.199951171875</ele>
        <time>2026-06-17T08:44:55.000Z</time>
        <extensions>
          <ns3:TrackPointExtension>
            <ns3:atemp>29.0</ns3:atemp>
          </ns3:TrackPointExtension>
        </extensions>
      </trkpt>
      <trkpt lat="42.53824777901172637939453125" lon="19.95522712357342243194580078125">
        <ele>1431.5999755859375</ele>
        <time>2026-06-17T08:44:56.000Z</time>
        <extensions>
          <ns3:TrackPointExtension>
            <ns3:atemp>29.0</ns3:atemp>
          </ns3:TrackPointExtension>
        </extensions>
      </trkpt>
      <trkpt lat="42.53824937157332897186279296875" lon="19.95519409887492656707763671875">
        <ele>1431.800048828125</ele>
        <time>2026-06-17T08:44:57.000Z</time>
        <extensions>
          <ns3:TrackPointExtension>
            <ns3:atemp>29.0</ns3:atemp>
          </ns3:TrackPointExtension>
        </extensions>
      </trkpt>
      <trkpt lat="42.5382580049335956573486328125" lon="19.95516241528093814849853515625">
        <ele>1432.199951171875</ele>
        <time>2026-06-17T08:44:58.000Z</time>
        <extensions>
          <ns3:TrackPointExtension>
            <ns3:atemp>29.0</ns3:atemp>
          </ns3:TrackPointExtension>
        </extensions>
      </trkpt>
      <trkpt lat="42.53826864995062351226806640625" lon="19.9551289714872837066650390625">
        <ele>1432.4000244140625</ele>
        <time>2026-06-17T08:44:59.000Z</time>
        <extensions>
          <ns3:TrackPointExtension>
            <ns3:atemp>29.0</ns3:atemp>
          </ns3:TrackPointExtension>
        </extensions>
      </trkpt>
      <trkpt lat="42.53828373737633228302001953125" lon="19.95510139502584934234619140625">
        <ele>1432.800048828125</ele>
        <time>2026-06-17T08:45:00.000Z</time>
        <extensions>
          <ns3:TrackPointExtension>
            <ns3:atemp>29.0</ns3:atemp>
          </ns3:TrackPointExtension>
        </extensions>
      </trkpt>
      <trkpt lat="42.53830184228718280792236328125" lon="19.95507993735373020172119140625">
        <ele>1433.4000244140625</ele>
        <time>2026-06-17T08:45:01.000Z</time>
        <extensions>
          <ns3:TrackPointExtension>
            <ns3:atemp>29.0</ns3:atemp>
          </ns3:TrackPointExtension>
        </extensions>
      </trkpt>
      <trkpt lat="42.53832179121673107147216796875" lon="19.9550575576722621917724609375">
        <ele>1434</ele>
        <time>2026-06-17T08:45:02.000Z</time>
        <extensions>
          <ns3:TrackPointExtension>
            <ns3:atemp>29.0</ns3:atemp>
          </ns3:TrackPointExtension>
        </extensions>
      </trkpt>
      <trkpt lat="42.53833897411823272705078125" lon="19.95503350161015987396240234375">
        <ele>1434.4000244140625</ele>
        <time>2026-06-17T08:45:03.000Z</time>
        <extensions>
          <ns3:TrackPointExtension>
            <ns3:atemp>29.0</ns3:atemp>
          </ns3:TrackPointExtension>
        </extensions>
      </trkpt>
      <trkpt lat="42.53835950978100299835205078125" lon="19.95501506142318248748779296875">
        <ele>1434.800048828125</ele>
        <time>2026-06-17T08:45:04.000Z</time>
        <extensions>
          <ns3:TrackPointExtension>
            <ns3:atemp>29.0</ns3:atemp>
          </ns3:TrackPointExtension>
        </extensions>
      </trkpt>
      <trkpt lat="42.53838247619569301605224609375" lon="19.95500047691166400909423828125">
        <ele>1435</ele>
        <time>2026-06-17T08:45:05.000Z</time>
        <extensions>
          <ns3:TrackPointExtension>
            <ns3:atemp>29.0</ns3:atemp>
          </ns3:TrackPointExtension>
        </extensions>
      </trkpt>
      <trkpt lat="42.53840745426714420318603515625" lon="19.95498932898044586181640625">
        <ele>1435.199951171875</ele>
        <time>2026-06-17T08:45:06.000Z</time>
        <extensions>
          <ns3:TrackPointExtension>
            <ns3:atemp>29.0</ns3:atemp>
          </ns3:TrackPointExtension>
        </extensions>
      </trkpt>
      <trkpt lat="42.53843444399535655975341796875" lon="19.95498220436275005340576171875">
        <ele>1435.199951171875</ele>
        <time>2026-06-17T08:45:07.000Z</time>
        <extensions>
          <ns3:TrackPointExtension>
            <ns3:atemp>29.0</ns3:atemp>
          </ns3:TrackPointExtension>
        </extensions>
      </trkpt>
      <trkpt lat="42.53846059553325176239013671875" lon="19.9549794383347034454345703125">
        <ele>1435.199951171875</ele>
        <time>2026-06-17T08:45:08.000Z</time>
        <extensions>
          <ns3:TrackPointExtension>
            <ns3:atemp>29.0</ns3:atemp>
          </ns3:TrackPointExtension>
        </extensions>
      </trkpt>
      <trkpt lat="42.53848590888082981109619140625" lon="19.95498262345790863037109375">
        <ele>1435.199951171875</ele>
        <time>2026-06-17T08:45:09.000Z</time>
        <extensions>
          <ns3:TrackPointExtension>
            <ns3:atemp>29.0</ns3:atemp>
          </ns3:TrackPointExtension>
        </extensions>
      </trkpt>
      <trkpt lat="42.5385094620287418365478515625" lon="19.9549881555140018463134765625">
        <ele>1435.199951171875</ele>
        <time>2026-06-17T08:45:10.000Z</time>
        <extensions>
          <ns3:TrackPointExtension>
            <ns3:atemp>29.0</ns3:atemp>
          </ns3:TrackPointExtension>
        </extensions>
      </trkpt>
      <trkpt lat="42.53853435628116130828857421875" lon="19.9549931846559047698974609375">
        <ele>1435.4000244140625</ele>
        <time>2026-06-17T08:45:11.000Z</time>
        <extensions>
          <ns3:TrackPointExtension>
            <ns3:atemp>29.0</ns3:atemp>
          </ns3:TrackPointExtension>
        </extensions>
      </trkpt>
      <trkpt lat="42.5385627709329128265380859375" lon="19.954998381435871124267578125">
        <ele>1435.5999755859375</ele>
        <time>2026-06-17T08:45:12.000Z</time>
        <extensions>
          <ns3:TrackPointExtension>
            <ns3:atemp>29.0</ns3:atemp>
          </ns3:TrackPointExtension>
        </extensions>
      </trkpt>
      <trkpt lat="42.53858917392790317535400390625" lon="19.95500265620648860931396484375">
        <ele>1436</ele>
        <time>2026-06-17T08:45:13.000Z</time>
        <extensions>
          <ns3:TrackPointExtension>
            <ns3:atemp>29.0</ns3:atemp>
          </ns3:TrackPointExtension>
        </extensions>
      </trkpt>
      <trkpt lat="42.53861515782773494720458984375" lon="19.95501019991934299468994140625">
        <ele>1436.199951171875</ele>
        <time>2026-06-17T08:45:14.000Z</time>
        <extensions>
          <ns3:TrackPointExtension>
            <ns3:atemp>29.0</ns3:atemp>
          </ns3:TrackPointExtension>
        </extensions>
      </trkpt>
      <trkpt lat="42.5386425666511058807373046875" lon="19.95501740835607051849365234375">
        <ele>1436.5999755859375</ele>
        <time>2026-06-17T08:45:15.000Z</time>
        <extensions>
          <ns3:TrackPointExtension>
            <ns3:atemp>29.0</ns3:atemp>
          </ns3:TrackPointExtension>
        </extensions>
      </trkpt>
      <trkpt lat="42.5386693887412548065185546875" lon="19.9550240300595760345458984375">
        <ele>1437</ele>
        <time>2026-06-17T08:45:16.000Z</time>
        <extensions>
          <ns3:TrackPointExtension>
            <ns3:atemp>29.0</ns3:atemp>
          </ns3:TrackPointExtension>
        </extensions>
      </trkpt>
      <trkpt lat="42.53869813866913318634033203125" lon="19.95502511970698833465576171875">
        <ele>1437.199951171875</ele>
        <time>2026-06-17T08:45:17.000Z</time>
        <extensions>
          <ns3:TrackPointExtension>
            <ns3:atemp>29.0</ns3:atemp>
          </ns3:TrackPointExtension>
        </extensions>
      </trkpt>
      <trkpt lat="42.53872831352055072784423828125" lon="19.95502889156341552734375">
        <ele>1437.5999755859375</ele>
        <time>2026-06-17T08:45:18.000Z</time>
        <extensions>
          <ns3:TrackPointExtension>
            <ns3:atemp>29.0</ns3:atemp>
          </ns3:TrackPointExtension>
        </extensions>
      </trkpt>
      <trkpt lat="42.5387555547058582305908203125" lon="19.95503802783787250518798828125">
        <ele>1437.800048828125</ele>
        <time>2026-06-17T08:45:19.000Z</time>
        <extensions>
          <ns3:TrackPointExtension>
            <ns3:atemp>29.0</ns3:atemp>
          </ns3:TrackPointExtension>
        </extensions>
      </trkpt>
      <trkpt lat="42.538784556090831756591796875" lon="19.95505034923553466796875">
        <ele>1438.199951171875</ele>
        <time>2026-06-17T08:45:20.000Z</time>
        <extensions>
          <ns3:TrackPointExtension>
            <ns3:atemp>29.0</ns3:atemp>
          </ns3:TrackPointExtension>
        </extensions>
      </trkpt>
      <trkpt lat="42.53881146200001239776611328125" lon="19.955064766108989715576171875">
        <ele>1438.4000244140625</ele>
        <time>2026-06-17T08:45:21.000Z</time>
        <extensions>
          <ns3:TrackPointExtension>
            <ns3:atemp>29.0</ns3:atemp>
          </ns3:TrackPointExtension>
        </extensions>
      </trkpt>
      <trkpt lat="42.5388363562524318695068359375" lon="19.95507784187793731689453125">
        <ele>1438.5999755859375</ele>
        <time>2026-06-17T08:45:22.000Z</time>
        <extensions>
          <ns3:TrackPointExtension>
            <ns3:atemp>29.0</ns3:atemp>
          </ns3:TrackPointExtension>
        </extensions>
      </trkpt>
      <trkpt lat="42.5388628430664539337158203125" lon="19.9550900794565677642822265625">
        <ele>1438.800048828125</ele>
        <time>2026-06-17T08:45:23.000Z</time>
        <extensions>
          <ns3:TrackPointExtension>
            <ns3:atemp>29.0</ns3:atemp>
          </ns3:TrackPointExtension>
        </extensions>
      </trkpt>
      <trkpt lat="42.5388889946043491363525390625" lon="19.9551004730165004730224609375">
        <ele>1438.800048828125</ele>
        <time>2026-06-17T08:45:24.000Z</time>
        <extensions>
          <ns3:TrackPointExtension>
            <ns3:atemp>29.0</ns3:atemp>
          </ns3:TrackPointExtension>
        </extensions>
      </trkpt>
      <trkpt lat="42.53891455940902233123779296875" lon="19.95510910637676715850830078125">
        <ele>1439</ele>
        <time>2026-06-17T08:45:25.000Z</time>
        <extensions>
          <ns3:TrackPointExtension>
            <ns3:atemp>29.0</ns3:atemp>
          </ns3:TrackPointExtension>
        </extensions>
      </trkpt>
      <trkpt lat="42.5389412976801395416259765625" lon="19.95511782355606555938720703125">
        <ele>1439.199951171875</ele>
        <time>2026-06-17T08:45:26.000Z</time>
        <extensions>
          <ns3:TrackPointExtension>
            <ns3:atemp>29.0</ns3:atemp>
          </ns3:TrackPointExtension>
        </extensions>
      </trkpt>
      <trkpt lat="42.538968287408351898193359375" lon="19.955119080841541290283203125">
        <ele>1439.199951171875</ele>
        <time>2026-06-17T08:45:27.000Z</time>
        <extensions>
          <ns3:TrackPointExtension>
            <ns3:atemp>29.0</ns3:atemp>
          </ns3:TrackPointExtension>
        </extensions>
      </trkpt>
      <trkpt lat="42.53899452276527881622314453125" lon="19.955119751393795013427734375">
        <ele>1439.199951171875</ele>
        <time>2026-06-17T08:45:28.000Z</time>
        <extensions>
          <ns3:TrackPointExtension>
            <ns3:atemp>29.0</ns3:atemp>
          </ns3:TrackPointExtension>
        </extensions>
      </trkpt>
      <trkpt lat="42.53902159631252288818359375" lon="19.95511933229863643646240234375">
        <ele>1439.4000244140625</ele>
        <time>2026-06-17T08:45:29.000Z</time>
        <extensions>
          <ns3:TrackPointExtension>
            <ns3:atemp>29.0</ns3:atemp>
          </ns3:TrackPointExtension>
        </extensions>
      </trkpt>
      <trkpt lat="42.5390505976974964141845703125" lon="19.95512050576508045196533203125">
        <ele>1439.4000244140625</ele>
        <time>2026-06-17T08:45:30.000Z</time>
        <extensions>
          <ns3:TrackPointExtension>
            <ns3:atemp>29.0</ns3:atemp>
          </ns3:TrackPointExtension>
        </extensions>
      </trkpt>
      <trkpt lat="42.53908085636794567108154296875" lon="19.95511472225189208984375">
        <ele>1439.5999755859375</ele>
        <time>2026-06-17T08:45:31.000Z</time>
        <extensions>
          <ns3:TrackPointExtension>
            <ns3:atemp>29.0</ns3:atemp>
          </ns3:TrackPointExtension>
        </extensions>
      </trkpt>
      <trkpt lat="42.53911404870450496673583984375" lon="19.95511078275740146636962890625">
        <ele>1439.5999755859375</ele>
        <time>2026-06-17T08:45:32.000Z</time>
        <extensions>
          <ns3:TrackPointExtension>
            <ns3:atemp>29.0</ns3:atemp>
          </ns3:TrackPointExtension>
        </extensions>
      </trkpt>
      <trkpt lat="42.5391443073749542236328125" lon="19.95510374195873737335205078125">
        <ele>1439.800048828125</ele>
        <time>2026-06-17T08:45:33.000Z</time>
        <extensions>
          <ns3:TrackPointExtension>
            <ns3:atemp>29.0</ns3:atemp>
          </ns3:TrackPointExtension>
        </extensions>
      </trkpt>
      <trkpt lat="42.539172470569610595703125" lon="19.95509351603686809539794921875">
        <ele>1440.199951171875</ele>
        <time>2026-06-17T08:45:34.000Z</time>
        <extensions>
          <ns3:TrackPointExtension>
            <ns3:atemp>29.0</ns3:atemp>
          </ns3:TrackPointExtension>
        </extensions>
      </trkpt>
      <trkpt lat="42.5392006337642669677734375" lon="19.95508664287626743316650390625">
        <ele>1440.4000244140625</ele>
        <time>2026-06-17T08:45:35.000Z</time>
        <extensions>
          <ns3:TrackPointExtension>
            <ns3:atemp>29.0</ns3:atemp>
          </ns3:TrackPointExtension>
        </extensions>
      </trkpt>
      <trkpt lat="42.53923089243471622467041015625" lon="19.95507759042084217071533203125">
        <ele>1440.5999755859375</ele>
        <time>2026-06-17T08:45:36.000Z</time>
        <extensions>
          <ns3:TrackPointExtension>
            <ns3:atemp>29.0</ns3:atemp>
          </ns3:TrackPointExtension>
        </extensions>
      </trkpt>
      <trkpt lat="42.53925804980099201202392578125" lon="19.95507054962217807769775390625">
        <ele>1440.800048828125</ele>
        <time>2026-06-17T08:45:37.000Z</time>
        <extensions>
          <ns3:TrackPointExtension>
            <ns3:atemp>29.0</ns3:atemp>
          </ns3:TrackPointExtension>
        </extensions>
      </trkpt>
      <trkpt lat="42.53928319551050662994384765625" lon="19.9550679512321949005126953125">
        <ele>1441</ele>
        <time>2026-06-17T08:45:38.000Z</time>
        <extensions>
          <ns3:TrackPointExtension>
            <ns3:atemp>29.0</ns3:atemp>
          </ns3:TrackPointExtension>
        </extensions>
      </trkpt>
      <trkpt lat="42.53931119106709957122802734375" lon="19.9550612457096576690673828125">
        <ele>1441.199951171875</ele>
        <time>2026-06-17T08:45:39.000Z</time>
        <extensions>
          <ns3:TrackPointExtension>
            <ns3:atemp>29.0</ns3:atemp>
          </ns3:TrackPointExtension>
        </extensions>
      </trkpt>
      <trkpt lat="42.53934270702302455902099609375" lon="19.95505512692034244537353515625">
        <ele>1441.199951171875</ele>
        <time>2026-06-17T08:45:40.000Z</time>
        <extensions>
          <ns3:TrackPointExtension>
            <ns3:atemp>29.0</ns3:atemp>
          </ns3:TrackPointExtension>
        </extensions>
      </trkpt>
      <trkpt lat="42.53937271423637866973876953125" lon="19.955045320093631744384765625">
        <ele>1441.4000244140625</ele>
        <time>2026-06-17T08:45:41.000Z</time>
        <extensions>
          <ns3:TrackPointExtension>
            <ns3:atemp>29.0</ns3:atemp>
          </ns3:TrackPointExtension>
        </extensions>
      </trkpt>
      <trkpt lat="42.5393999554216861724853515625" lon="19.95503165759146213531494140625">
        <ele>1441.5999755859375</ele>
        <time>2026-06-17T08:45:42.000Z</time>
        <extensions>
          <ns3:TrackPointExtension>
            <ns3:atemp>29.0</ns3:atemp>
          </ns3:TrackPointExtension>
        </extensions>
      </trkpt>
      <trkpt lat="42.5394204072654247283935546875" lon="19.95501355268061161041259765625">
        <ele>1441.800048828125</ele>
        <time>2026-06-17T08:45:43.000Z</time>
        <extensions>
          <ns3:TrackPointExtension>
            <ns3:atemp>29.0</ns3:atemp>
          </ns3:TrackPointExtension>
        </extensions>
      </trkpt>
      <trkpt lat="42.53943541087210178375244140625" lon="19.95498606003820896148681640625">
        <ele>1442.199951171875</ele>
        <time>2026-06-17T08:45:44.000Z</time>
        <extensions>
          <ns3:TrackPointExtension>
            <ns3:atemp>29.0</ns3:atemp>
          </ns3:TrackPointExtension>
        </extensions>
      </trkpt>
      <trkpt lat="42.53944136202335357666015625" lon="19.9549591541290283203125">
        <ele>1442.800048828125</ele>
        <time>2026-06-17T08:45:45.000Z</time>
        <extensions>
          <ns3:TrackPointExtension>
            <ns3:atemp>29.0</ns3:atemp>
          </ns3:TrackPointExtension>
        </extensions>
      </trkpt>
      <trkpt lat="42.5394432060420513153076171875" lon="19.95493006892502307891845703125">
        <ele>1443.199951171875</ele>
        <time>2026-06-17T08:45:46.000Z</time>
        <extensions>
          <ns3:TrackPointExtension>
            <ns3:atemp>29.0</ns3:atemp>
          </ns3:TrackPointExtension>
        </extensions>
      </trkpt>
      <trkpt lat="42.539447732269763946533203125" lon="19.95489737950265407562255859375">
        <ele>1443.800048828125</ele>
        <time>2026-06-17T08:45:47.000Z</time>
        <extensions>
          <ns3:TrackPointExtension>
            <ns3:atemp>29.0</ns3:atemp>
          </ns3:TrackPointExtension>
        </extensions>
      </trkpt>
      <trkpt lat="42.539452426135540008544921875" lon="19.954866282641887664794921875">
        <ele>1444.5999755859375</ele>
        <time>2026-06-17T08:45:48.000Z</time>
        <extensions>
          <ns3:TrackPointExtension>
            <ns3:atemp>29.0</ns3:atemp>
          </ns3:TrackPointExtension>
        </extensions>
      </trkpt>
      <trkpt lat="42.53945452161133289337158203125" lon="19.95483778417110443115234375">
        <ele>1445.199951171875</ele>
        <time>2026-06-17T08:45:49.000Z</time>
        <extensions>
          <ns3:TrackPointExtension>
            <ns3:atemp>29.0</ns3:atemp>
          </ns3:TrackPointExtension>
        </extensions>
      </trkpt>
      <trkpt lat="42.5394572876393795013427734375" lon="19.95480752550065517425537109375">
        <ele>1445.5999755859375</ele>
        <time>2026-06-17T08:45:50.000Z</time>
        <extensions>
          <ns3:TrackPointExtension>
            <ns3:atemp>29.0</ns3:atemp>
          </ns3:TrackPointExtension>
        </extensions>
      </trkpt>
      <trkpt lat="42.539461813867092132568359375" lon="19.9547695554792881011962890625">
        <ele>1446</ele>
        <time>2026-06-17T08:45:51.000Z</time>
        <extensions>
          <ns3:TrackPointExtension>
            <ns3:atemp>29.0</ns3:atemp>
          </ns3:TrackPointExtension>
        </extensions>
      </trkpt>
      <trkpt lat="42.53947078250348567962646484375" lon="19.95473443530499935150146484375">
        <ele>1446.199951171875</ele>
        <time>2026-06-17T08:45:52.000Z</time>
        <extensions>
          <ns3:TrackPointExtension>
            <ns3:atemp>29.0</ns3:atemp>
          </ns3:TrackPointExtension>
        </extensions>
      </trkpt>
      <trkpt lat="42.53947732038795948028564453125" lon="19.9547118879854679107666015625">
        <ele>1446.4000244140625</ele>
        <time>2026-06-17T08:45:53.000Z</time>
        <extensions>
          <ns3:TrackPointExtension>
            <ns3:atemp>29.0</ns3:atemp>
          </ns3:TrackPointExtension>
        </extensions>
      </trkpt>
      <trkpt lat="42.5394831039011478424072265625" lon="19.95469084940850734710693359375">
        <ele>1446.800048828125</ele>
        <time>2026-06-17T08:45:54.000Z</time>
        <extensions>
          <ns3:TrackPointExtension>
            <ns3:atemp>29.0</ns3:atemp>
          </ns3:TrackPointExtension>
        </extensions>
      </trkpt>
      <trkpt lat="42.5394934974610805511474609375" lon="19.95467257685959339141845703125">
        <ele>1447</ele>
        <time>2026-06-17T08:45:55.000Z</time>
        <extensions>
          <ns3:TrackPointExtension>
            <ns3:atemp>29.0</ns3:atemp>
          </ns3:TrackPointExtension>
        </extensions>
      </trkpt>
      <trkpt lat="42.5395038910210132598876953125" lon="19.9546501971781253814697265625">
        <ele>1447.4000244140625</ele>
        <time>2026-06-17T08:45:56.000Z</time>
        <extensions>
          <ns3:TrackPointExtension>
            <ns3:atemp>29.0</ns3:atemp>
          </ns3:TrackPointExtension>
        </extensions>
      </trkpt>
      <trkpt lat="42.539516799151897430419921875" lon="19.954624883830547332763671875">
        <ele>1447.800048828125</ele>
        <time>2026-06-17T08:45:57.000Z</time>
        <extensions>
          <ns3:TrackPointExtension>
            <ns3:atemp>29.0</ns3:atemp>
          </ns3:TrackPointExtension>
        </extensions>
      </trkpt>
      <trkpt lat="42.53953029401600360870361328125" lon="19.95460216887295246124267578125">
        <ele>1448.199951171875</ele>
        <time>2026-06-17T08:45:58.000Z</time>
        <extensions>
          <ns3:TrackPointExtension>
            <ns3:atemp>29.0</ns3:atemp>
          </ns3:TrackPointExtension>
        </extensions>
      </trkpt>
      <trkpt lat="42.539546303451061248779296875" lon="19.95457836426794528961181640625">
        <ele>1448.5999755859375</ele>
        <time>2026-06-17T08:45:59.000Z</time>
        <extensions>
          <ns3:TrackPointExtension>
            <ns3:atemp>29.0</ns3:atemp>
          </ns3:TrackPointExtension>
        </extensions>
      </trkpt>
      <trkpt lat="42.539564408361911773681640625" lon="19.95455707423388957977294921875">
        <ele>1448.800048828125</ele>
        <time>2026-06-17T08:46:00.000Z</time>
        <extensions>
          <ns3:TrackPointExtension>
            <ns3:atemp>29.0</ns3:atemp>
          </ns3:TrackPointExtension>
        </extensions>
      </trkpt>
      <trkpt lat="42.539583183825016021728515625" lon="19.95453813113272190093994140625">
        <ele>1448.800048828125</ele>
        <time>2026-06-17T08:46:01.000Z</time>
        <extensions>
          <ns3:TrackPointExtension>
            <ns3:atemp>29.0</ns3:atemp>
          </ns3:TrackPointExtension>
        </extensions>
      </trkpt>
      <trkpt lat="42.539601288735866546630859375" lon="19.95452254079282283782958984375">
        <ele>1449</ele>
        <time>2026-06-17T08:46:02.000Z</time>
        <extensions>
          <ns3:TrackPointExtension>
            <ns3:atemp>29.0</ns3:atemp>
          </ns3:TrackPointExtension>
        </extensions>
      </trkpt>
      <trkpt lat="42.5396195612847805023193359375" lon="19.9545090459287166595458984375">
        <ele>1449.199951171875</ele>
        <time>2026-06-17T08:46:03.000Z</time>
        <extensions>
          <ns3:TrackPointExtension>
            <ns3:atemp>29.0</ns3:atemp>
          </ns3:TrackPointExtension>
        </extensions>
      </trkpt>
      <trkpt lat="42.53964127041399478912353515625" lon="19.95449773035943508148193359375">
        <ele>1449.199951171875</ele>
        <time>2026-06-17T08:46:04.000Z</time>
        <extensions>
          <ns3:TrackPointExtension>
            <ns3:atemp>29.0</ns3:atemp>
          </ns3:TrackPointExtension>
        </extensions>
      </trkpt>
      <trkpt lat="42.5396619737148284912109375" lon="19.95448398403823375701904296875">
        <ele>1449.199951171875</ele>
        <time>2026-06-17T08:46:05.000Z</time>
        <extensions>
          <ns3:TrackPointExtension>
            <ns3:atemp>29.0</ns3:atemp>
          </ns3:TrackPointExtension>
        </extensions>
      </trkpt>
      <trkpt lat="42.53968116827309131622314453125" lon="19.95447040535509586334228515625">
        <ele>1449.4000244140625</ele>
        <time>2026-06-17T08:46:06.000Z</time>
        <extensions>
          <ns3:TrackPointExtension>
            <ns3:atemp>29.0</ns3:atemp>
          </ns3:TrackPointExtension>
        </extensions>
      </trkpt>
      <trkpt lat="42.53970061428844928741455078125" lon="19.9544587545096874237060546875">
        <ele>1449.5999755859375</ele>
        <time>2026-06-17T08:46:07.000Z</time>
        <extensions>
          <ns3:TrackPointExtension>
            <ns3:atemp>29.0</ns3:atemp>
          </ns3:TrackPointExtension>
        </extensions>
      </trkpt>
      <trkpt lat="42.539720647037029266357421875" lon="19.95444844476878643035888671875">
        <ele>1449.800048828125</ele>
        <time>2026-06-17T08:46:08.000Z</time>
        <extensions>
          <ns3:TrackPointExtension>
            <ns3:atemp>29.0</ns3:atemp>
          </ns3:TrackPointExtension>
        </extensions>
      </trkpt>
      <trkpt lat="42.53974185325205326080322265625" lon="19.9544419907033443450927734375">
        <ele>1450</ele>
        <time>2026-06-17T08:46:09.000Z</time>
        <extensions>
          <ns3:TrackPointExtension>
            <ns3:atemp>29.0</ns3:atemp>
          </ns3:TrackPointExtension>
        </extensions>
      </trkpt>
      <trkpt lat="42.5397665798664093017578125" lon="19.9544302560389041900634765625">
        <ele>1450.199951171875</ele>
        <time>2026-06-17T08:46:10.000Z</time>
        <extensions>
          <ns3:TrackPointExtension>
            <ns3:atemp>29.0</ns3:atemp>
          </ns3:TrackPointExtension>
        </extensions>
      </trkpt>
      <trkpt lat="42.53978711552917957305908203125" lon="19.95441609062254428863525390625">
        <ele>1450.4000244140625</ele>
        <time>2026-06-17T08:46:11.000Z</time>
        <extensions>
          <ns3:TrackPointExtension>
            <ns3:atemp>29.0</ns3:atemp>
          </ns3:TrackPointExtension>
        </extensions>
      </trkpt>
      <trkpt lat="42.539807818830013275146484375" lon="19.95440469123423099517822265625">
        <ele>1450.5999755859375</ele>
        <time>2026-06-17T08:46:12.000Z</time>
        <extensions>
          <ns3:TrackPointExtension>
            <ns3:atemp>29.0</ns3:atemp>
          </ns3:TrackPointExtension>
        </extensions>
      </trkpt>
      <trkpt lat="42.53982751630246639251708984375" lon="19.9543933756649494171142578125">
        <ele>1451</ele>
        <time>2026-06-17T08:46:13.000Z</time>
        <extensions>
          <ns3:TrackPointExtension>
            <ns3:atemp>29.0</ns3:atemp>
          </ns3:TrackPointExtension>
        </extensions>
      </trkpt>
      <trkpt lat="42.53984629176557064056396484375" lon="19.95437753386795520782470703125">
        <ele>1451.199951171875</ele>
        <time>2026-06-17T08:46:14.000Z</time>
        <extensions>
          <ns3:TrackPointExtension>
            <ns3:atemp>29.0</ns3:atemp>
          </ns3:TrackPointExtension>
        </extensions>
      </trkpt>
      <trkpt lat="42.53986288793385028839111328125" lon="19.954359345138072967529296875">
        <ele>1451.4000244140625</ele>
        <time>2026-06-17T08:46:15.000Z</time>
        <extensions>
          <ns3:TrackPointExtension>
            <ns3:atemp>29.0</ns3:atemp>
          </ns3:TrackPointExtension>
        </extensions>
      </trkpt>
      <trkpt lat="42.5398797355592250823974609375" lon="19.95433981530368328094482421875">
        <ele>1451.800048828125</ele>
        <time>2026-06-17T08:46:16.000Z</time>
        <extensions>
          <ns3:TrackPointExtension>
            <ns3:atemp>29.0</ns3:atemp>
          </ns3:TrackPointExtension>
        </extensions>
      </trkpt>
      <trkpt lat="42.53989289514720439910888671875" lon="19.9543222971260547637939453125">
        <ele>1452.4000244140625</ele>
        <time>2026-06-17T08:46:17.000Z</time>
        <extensions>
          <ns3:TrackPointExtension>
            <ns3:atemp>29.0</ns3:atemp>
          </ns3:TrackPointExtension>
        </extensions>
      </trkpt>
      <trkpt lat="42.53990949131548404693603515625" lon="19.95429840870201587677001953125">
        <ele>1452.800048828125</ele>
        <time>2026-06-17T08:46:18.000Z</time>
        <extensions>
          <ns3:TrackPointExtension>
            <ns3:atemp>29.0</ns3:atemp>
          </ns3:TrackPointExtension>
        </extensions>
      </trkpt>
      <trkpt lat="42.53992122597992420196533203125" lon="19.95427510701119899749755859375">
        <ele>1453.199951171875</ele>
        <time>2026-06-17T08:46:19.000Z</time>
        <extensions>
          <ns3:TrackPointExtension>
            <ns3:atemp>29.0</ns3:atemp>
          </ns3:TrackPointExtension>
        </extensions>
      </trkpt>
      <trkpt lat="42.53993296064436435699462890625" lon="19.954250045120716094970703125">
        <ele>1453.800048828125</ele>
        <time>2026-06-17T08:46:20.000Z</time>
        <extensions>
          <ns3:TrackPointExtension>
            <ns3:atemp>29.0</ns3:atemp>
          </ns3:TrackPointExtension>
        </extensions>
      </trkpt>
      <trkpt lat="42.539943940937519073486328125" lon="19.95422221720218658447265625">
        <ele>1454.4000244140625</ele>
        <time>2026-06-17T08:46:21.000Z</time>
        <extensions>
          <ns3:TrackPointExtension>
            <ns3:atemp>29.0</ns3:atemp>
          </ns3:TrackPointExtension>
        </extensions>
      </trkpt>
      <trkpt lat="42.53995575942099094390869140625" lon="19.954197406768798828125">
        <ele>1454.800048828125</ele>
        <time>2026-06-17T08:46:22.000Z</time>
        <extensions>
          <ns3:TrackPointExtension>
            <ns3:atemp>29.0</ns3:atemp>
          </ns3:TrackPointExtension>
        </extensions>
      </trkpt>
      <trkpt lat="42.539970763027667999267578125" lon="19.9541694112122058868408203125">
        <ele>1455.199951171875</ele>
        <time>2026-06-17T08:46:23.000Z</time>
        <extensions>
          <ns3:TrackPointExtension>
            <ns3:atemp>29.0</ns3:atemp>
          </ns3:TrackPointExtension>
        </extensions>
      </trkpt>
      <trkpt lat="42.5399887003004550933837890625" lon="19.95414552278816699981689453125">
        <ele>1455.5999755859375</ele>
        <time>2026-06-17T08:46:24.000Z</time>
        <extensions>
          <ns3:TrackPointExtension>
            <ns3:atemp>29.0</ns3:atemp>
          </ns3:TrackPointExtension>
        </extensions>
      </trkpt>
      <trkpt lat="42.54000269807875156402587890625" lon="19.9541207961738109588623046875">
        <ele>1456</ele>
        <time>2026-06-17T08:46:25.000Z</time>
        <extensions>
          <ns3:TrackPointExtension>
            <ns3:atemp>29.0</ns3:atemp>
          </ns3:TrackPointExtension>
        </extensions>
      </trkpt>
      <trkpt lat="42.5400133430957794189453125" lon="19.95409238152205944061279296875">
        <ele>1456.4000244140625</ele>
        <time>2026-06-17T08:46:26.000Z</time>
        <extensions>
          <ns3:TrackPointExtension>
            <ns3:atemp>29.0</ns3:atemp>
          </ns3:TrackPointExtension>
        </extensions>
      </trkpt>
      <trkpt lat="42.5400235690176486968994140625" lon="19.95406991802155971527099609375">
        <ele>1456.800048828125</ele>
        <time>2026-06-17T08:46:27.000Z</time>
        <extensions>
          <ns3:TrackPointExtension>
            <ns3:atemp>29.0</ns3:atemp>
          </ns3:TrackPointExtension>
        </extensions>
      </trkpt>
      <trkpt lat="42.5400353036820888519287109375" lon="19.954043515026569366455078125">
        <ele>1457.199951171875</ele>
        <time>2026-06-17T08:46:28.000Z</time>
        <extensions>
          <ns3:TrackPointExtension>
            <ns3:atemp>29.0</ns3:atemp>
          </ns3:TrackPointExtension>
        </extensions>
      </trkpt>
      <trkpt lat="42.54004728980362415313720703125" lon="19.95401996187865734100341796875">
        <ele>1457.5999755859375</ele>
        <time>2026-06-17T08:46:29.000Z</time>
        <extensions>
          <ns3:TrackPointExtension>
            <ns3:atemp>29.0</ns3:atemp>
          </ns3:TrackPointExtension>
        </extensions>
      </trkpt>
      <trkpt lat="42.5400581024587154388427734375" lon="19.95399397797882556915283203125">
        <ele>1458</ele>
        <time>2026-06-17T08:46:30.000Z</time>
        <extensions>
          <ns3:TrackPointExtension>
            <ns3:atemp>29.0</ns3:atemp>
          </ns3:TrackPointExtension>
        </extensions>
      </trkpt>
      <trkpt lat="42.54007327370345592498779296875" lon="19.95397084392607212066650390625">
        <ele>1458.4000244140625</ele>
        <time>2026-06-17T08:46:31.000Z</time>
        <extensions>
          <ns3:TrackPointExtension>
            <ns3:atemp>29.0</ns3:atemp>
          </ns3:TrackPointExtension>
        </extensions>
      </trkpt>
      <trkpt lat="42.54009087570011615753173828125" lon="19.95395173318684101104736328125">
        <ele>1458.5999755859375</ele>
        <time>2026-06-17T08:46:32.000Z</time>
        <extensions>
          <ns3:TrackPointExtension>
            <ns3:atemp>29.0</ns3:atemp>
          </ns3:TrackPointExtension>
        </extensions>
      </trkpt>
      <trkpt lat="42.5401070527732372283935546875" lon="19.95393195189535617828369140625">
        <ele>1459</ele>
        <time>2026-06-17T08:46:33.000Z</time>
        <extensions>
          <ns3:TrackPointExtension>
            <ns3:atemp>29.0</ns3:atemp>
          </ns3:TrackPointExtension>
        </extensions>
      </trkpt>
      <trkpt lat="42.54012306220829486846923828125" lon="19.95390982367098331451416015625">
        <ele>1459</ele>
        <time>2026-06-17T08:46:34.000Z</time>
        <extensions>
          <ns3:TrackPointExtension>
            <ns3:atemp>29.0</ns3:atemp>
          </ns3:TrackPointExtension>
        </extensions>
      </trkpt>
      <trkpt lat="42.54013873636722564697265625" lon="19.953887276351451873779296875">
        <ele>1459.4000244140625</ele>
        <time>2026-06-17T08:46:35.000Z</time>
        <extensions>
          <ns3:TrackPointExtension>
            <ns3:atemp>29.0</ns3:atemp>
          </ns3:TrackPointExtension>
        </extensions>
      </trkpt>
      <trkpt lat="42.54015206359326839447021484375" lon="19.95387017726898193359375">
        <ele>1459.800048828125</ele>
        <time>2026-06-17T08:46:36.000Z</time>
        <extensions>
          <ns3:TrackPointExtension>
            <ns3:atemp>29.0</ns3:atemp>
          </ns3:TrackPointExtension>
        </extensions>
      </trkpt>
      <trkpt lat="42.54016958177089691162109375" lon="19.9538562633097171783447265625">
        <ele>1460.199951171875</ele>
        <time>2026-06-17T08:46:37.000Z</time>
        <extensions>
          <ns3:TrackPointExtension>
            <ns3:atemp>29.0</ns3:atemp>
          </ns3:TrackPointExtension>
        </extensions>
      </trkpt>
      <trkpt lat="42.540186010301113128662109375" lon="19.953838996589183807373046875">
        <ele>1460.4000244140625</ele>
        <time>2026-06-17T08:46:38.000Z</time>
        <extensions>
          <ns3:TrackPointExtension>
            <ns3:atemp>29.0</ns3:atemp>
          </ns3:TrackPointExtension>
        </extensions>
      </trkpt>
      <trkpt lat="42.54020654596388339996337890625" lon="19.9538224004209041595458984375">
        <ele>1460.5999755859375</ele>
        <time>2026-06-17T08:46:39.000Z</time>
        <extensions>
          <ns3:TrackPointExtension>
            <ns3:atemp>29.0</ns3:atemp>
          </ns3:TrackPointExtension>
        </extensions>
      </trkpt>
      <trkpt lat="42.540228925645351409912109375" lon="19.95381091721355915069580078125">
        <ele>1460.800048828125</ele>
        <time>2026-06-17T08:46:40.000Z</time>
        <extensions>
          <ns3:TrackPointExtension>
            <ns3:atemp>29.0</ns3:atemp>
          </ns3:TrackPointExtension>
        </extensions>
      </trkpt>
      <trkpt lat="42.54025516100227832794189453125" lon="19.95380924083292484283447265625">
        <ele>1460.800048828125</ele>
        <time>2026-06-17T08:46:41.000Z</time>
        <extensions>
          <ns3:TrackPointExtension>
            <ns3:atemp>29.0</ns3:atemp>
          </ns3:TrackPointExtension>
        </extensions>
      </trkpt>
      <trkpt lat="42.540279217064380645751953125" lon="19.95381611399352550506591796875">
        <ele>1460.800048828125</ele>
        <time>2026-06-17T08:46:42.000Z</time>
        <extensions>
          <ns3:TrackPointExtension>
            <ns3:atemp>29.0</ns3:atemp>
          </ns3:TrackPointExtension>
        </extensions>
      </trkpt>
      <trkpt lat="42.54030025564134120941162109375" lon="19.95382047258317470550537109375">
        <ele>1461</ele>
        <time>2026-06-17T08:46:43.000Z</time>
        <extensions>
          <ns3:TrackPointExtension>
            <ns3:atemp>29.0</ns3:atemp>
          </ns3:TrackPointExtension>
        </extensions>
      </trkpt>
      <trkpt lat="42.5403216294944286346435546875" lon="19.9538207240402698516845703125">
        <ele>1461.199951171875</ele>
        <time>2026-06-17T08:46:44.000Z</time>
        <extensions>
          <ns3:TrackPointExtension>
            <ns3:atemp>29.0</ns3:atemp>
          </ns3:TrackPointExtension>
        </extensions>
      </trkpt>
      <trkpt lat="42.54034124314785003662109375" lon="19.95382466353476047515869140625">
        <ele>1461.4000244140625</ele>
        <time>2026-06-17T08:46:45.000Z</time>
        <extensions>
          <ns3:TrackPointExtension>
            <ns3:atemp>29.0</ns3:atemp>
          </ns3:TrackPointExtension>
        </extensions>
      </trkpt>
      <trkpt lat="42.54036228172481060028076171875" lon="19.95382717810571193695068359375">
        <ele>1461.5999755859375</ele>
        <time>2026-06-17T08:46:46.000Z</time>
        <extensions>
          <ns3:TrackPointExtension>
            <ns3:atemp>29.0</ns3:atemp>
          </ns3:TrackPointExtension>
        </extensions>
      </trkpt>
      <trkpt lat="42.54038642160594463348388671875" lon="19.9538203887641429901123046875">
        <ele>1461.800048828125</ele>
        <time>2026-06-17T08:46:47.000Z</time>
        <extensions>
          <ns3:TrackPointExtension>
            <ns3:atemp>29.0</ns3:atemp>
          </ns3:TrackPointExtension>
        </extensions>
      </trkpt>
      <trkpt lat="42.5404091365635395050048828125" lon="19.95381142012774944305419921875">
        <ele>1462.199951171875</ele>
        <time>2026-06-17T08:46:48.000Z</time>
        <extensions>
          <ns3:TrackPointExtension>
            <ns3:atemp>29.0</ns3:atemp>
          </ns3:TrackPointExtension>
        </extensions>
      </trkpt>
      <trkpt lat="42.54043403081595897674560546875" lon="19.953811168670654296875">
        <ele>1462.5999755859375</ele>
        <time>2026-06-17T08:46:49.000Z</time>
        <extensions>
          <ns3:TrackPointExtension>
            <ns3:atemp>29.0</ns3:atemp>
          </ns3:TrackPointExtension>
        </extensions>
      </trkpt>
      <trkpt lat="42.54045230336487293243408203125" lon="19.95380471460521221160888671875">
        <ele>1462.800048828125</ele>
        <time>2026-06-17T08:46:50.000Z</time>
        <extensions>
          <ns3:TrackPointExtension>
            <ns3:atemp>29.0</ns3:atemp>
          </ns3:TrackPointExtension>
        </extensions>
      </trkpt>
      <trkpt lat="42.54047560505568981170654296875" lon="19.95379281230270862579345703125">
        <ele>1463.199951171875</ele>
        <time>2026-06-17T08:46:51.000Z</time>
        <extensions>
          <ns3:TrackPointExtension>
            <ns3:atemp>29.0</ns3:atemp>
          </ns3:TrackPointExtension>
        </extensions>
      </trkpt>
      <trkpt lat="42.54049723036587238311767578125" lon="19.9537804909050464630126953125">
        <ele>1463.4000244140625</ele>
        <time>2026-06-17T08:46:52.000Z</time>
        <extensions>
          <ns3:TrackPointExtension>
            <ns3:atemp>29.0</ns3:atemp>
          </ns3:TrackPointExtension>
        </extensions>
      </trkpt>
      <trkpt lat="42.54051826894283294677734375" lon="19.953765906393527984619140625">
        <ele>1463.5999755859375</ele>
        <time>2026-06-17T08:46:53.000Z</time>
        <extensions>
          <ns3:TrackPointExtension>
            <ns3:atemp>29.0</ns3:atemp>
          </ns3:TrackPointExtension>
        </extensions>
      </trkpt>
      <trkpt lat="42.540539391338825225830078125" lon="19.9537560157477855682373046875">
        <ele>1463.800048828125</ele>
        <time>2026-06-17T08:46:54.000Z</time>
        <extensions>
          <ns3:TrackPointExtension>
            <ns3:atemp>29.0</ns3:atemp>
          </ns3:TrackPointExtension>
        </extensions>
      </trkpt>
      <trkpt lat="42.54055657424032688140869140625" lon="19.95374117977917194366455078125">
        <ele>1464.199951171875</ele>
        <time>2026-06-17T08:46:55.000Z</time>
        <extensions>
          <ns3:TrackPointExtension>
            <ns3:atemp>29.0</ns3:atemp>
          </ns3:TrackPointExtension>
        </extensions>
      </trkpt>
      <trkpt lat="42.540576271712779998779296875" lon="19.9537231586873531341552734375">
        <ele>1464.4000244140625</ele>
        <time>2026-06-17T08:46:56.000Z</time>
        <extensions>
          <ns3:TrackPointExtension>
            <ns3:atemp>29.0</ns3:atemp>
          </ns3:TrackPointExtension>
        </extensions>
      </trkpt>
      <trkpt lat="42.54059211350977420806884765625" lon="19.953701533377170562744140625">
        <ele>1464.800048828125</ele>
        <time>2026-06-17T08:46:57.000Z</time>
        <extensions>
          <ns3:TrackPointExtension>
            <ns3:atemp>29.0</ns3:atemp>
          </ns3:TrackPointExtension>
        </extensions>
      </trkpt>
      <trkpt lat="42.54060854203999042510986328125" lon="19.95368233881890773773193359375">
        <ele>1465.199951171875</ele>
        <time>2026-06-17T08:46:58.000Z</time>
        <extensions>
          <ns3:TrackPointExtension>
            <ns3:atemp>29.0</ns3:atemp>
          </ns3:TrackPointExtension>
        </extensions>
      </trkpt>
      <trkpt lat="42.5406247191131114959716796875" lon="19.9536628089845180511474609375">
        <ele>1465.800048828125</ele>
        <time>2026-06-17T08:46:59.000Z</time>
        <extensions>
          <ns3:TrackPointExtension>
            <ns3:atemp>29.0</ns3:atemp>
          </ns3:TrackPointExtension>
        </extensions>
      </trkpt>
      <trkpt lat="42.54063938744366168975830078125" lon="19.953643865883350372314453125">
        <ele>1466</ele>
        <time>2026-06-17T08:47:00.000Z</time>
        <extensions>
          <ns3:TrackPointExtension>
            <ns3:atemp>29.0</ns3:atemp>
          </ns3:TrackPointExtension>
        </extensions>
      </trkpt>
      <trkpt lat="42.5406548939645290374755859375" lon="19.953621067106723785400390625">
        <ele>1466.4000244140625</ele>
        <time>2026-06-17T08:47:01.000Z</time>
        <extensions>
          <ns3:TrackPointExtension>
            <ns3:atemp>29.0</ns3:atemp>
          </ns3:TrackPointExtension>
        </extensions>
      </trkpt>
      <trkpt lat="42.54067090339958667755126953125" lon="19.953603632748126983642578125">
        <ele>1466.800048828125</ele>
        <time>2026-06-17T08:47:02.000Z</time>
        <extensions>
          <ns3:TrackPointExtension>
            <ns3:atemp>29.0</ns3:atemp>
          </ns3:TrackPointExtension>
        </extensions>
      </trkpt>
      <trkpt lat="42.54068548791110515594482421875" lon="19.9535816721618175506591796875">
        <ele>1467.199951171875</ele>
        <time>2026-06-17T08:47:03.000Z</time>
        <extensions>
          <ns3:TrackPointExtension>
            <ns3:atemp>29.0</ns3:atemp>
          </ns3:TrackPointExtension>
        </extensions>
      </trkpt>
      <trkpt lat="42.54069864749908447265625" lon="19.95356566272675991058349609375">
        <ele>1467.5999755859375</ele>
        <time>2026-06-17T08:47:04.000Z</time>
        <extensions>
          <ns3:TrackPointExtension>
            <ns3:atemp>29.0</ns3:atemp>
          </ns3:TrackPointExtension>
        </extensions>
      </trkpt>
      <trkpt lat="42.54071197472512722015380859375" lon="19.9535511620342731475830078125">
        <ele>1468</ele>
        <time>2026-06-17T08:47:05.000Z</time>
        <extensions>
          <ns3:TrackPointExtension>
            <ns3:atemp>29.0</ns3:atemp>
          </ns3:TrackPointExtension>
        </extensions>
      </trkpt>
      <trkpt lat="42.54072882235050201416015625" lon="19.953531883656978607177734375">
        <ele>1468.4000244140625</ele>
        <time>2026-06-17T08:47:06.000Z</time>
        <extensions>
          <ns3:TrackPointExtension>
            <ns3:atemp>29.0</ns3:atemp>
          </ns3:TrackPointExtension>
        </extensions>
      </trkpt>
      <trkpt lat="42.540744245052337646484375" lon="19.95351503603160381317138671875">
        <ele>1468.5999755859375</ele>
        <time>2026-06-17T08:47:07.000Z</time>
        <extensions>
          <ns3:TrackPointExtension>
            <ns3:atemp>29.0</ns3:atemp>
          </ns3:TrackPointExtension>
        </extensions>
      </trkpt>
      <trkpt lat="42.54075924865901470184326171875" lon="19.95349667966365814208984375">
        <ele>1468.5999755859375</ele>
        <time>2026-06-17T08:47:08.000Z</time>
        <extensions>
          <ns3:TrackPointExtension>
            <ns3:atemp>29.0</ns3:atemp>
          </ns3:TrackPointExtension>
        </extensions>
      </trkpt>
      <trkpt lat="42.540773414075374603271484375" lon="19.95347765274345874786376953125">
        <ele>1468.800048828125</ele>
        <time>2026-06-17T08:47:09.000Z</time>
        <extensions>
          <ns3:TrackPointExtension>
            <ns3:atemp>29.0</ns3:atemp>
          </ns3:TrackPointExtension>
        </extensions>
      </trkpt>
      <trkpt lat="42.54078925587236881256103515625" lon="19.953458793461322784423828125">
        <ele>1469</ele>
        <time>2026-06-17T08:47:10.000Z</time>
        <extensions>
          <ns3:TrackPointExtension>
            <ns3:atemp>29.0</ns3:atemp>
          </ns3:TrackPointExtension>
        </extensions>
      </trkpt>
      <trkpt lat="42.5408057682216167449951171875" lon="19.953435994684696197509765625">
        <ele>1469.4000244140625</ele>
        <time>2026-06-17T08:47:11.000Z</time>
        <extensions>
          <ns3:TrackPointExtension>
            <ns3:atemp>29.0</ns3:atemp>
          </ns3:TrackPointExtension>
        </extensions>
      </trkpt>
      <trkpt lat="42.540821693837642669677734375" lon="19.95341311208903789520263671875">
        <ele>1469.5999755859375</ele>
        <time>2026-06-17T08:47:12.000Z</time>
        <extensions>
          <ns3:TrackPointExtension>
            <ns3:atemp>29.0</ns3:atemp>
          </ns3:TrackPointExtension>
        </extensions>
      </trkpt>
      <trkpt lat="42.54084105603396892547607421875" lon="19.9533919058740139007568359375">
        <ele>1470.199951171875</ele>
        <time>2026-06-17T08:47:13.000Z</time>
        <extensions>
          <ns3:TrackPointExtension>
            <ns3:atemp>29.0</ns3:atemp>
          </ns3:TrackPointExtension>
        </extensions>
      </trkpt>
      <trkpt lat="42.540864609181880950927734375" lon="19.95337069965898990631103515625">
        <ele>1470.5999755859375</ele>
        <time>2026-06-17T08:47:14.000Z</time>
        <extensions>
          <ns3:TrackPointExtension>
            <ns3:atemp>29.0</ns3:atemp>
          </ns3:TrackPointExtension>
        </extensions>
      </trkpt>
      <trkpt lat="42.5408869050443172454833984375" lon="19.95335142128169536590576171875">
        <ele>1470.800048828125</ele>
        <time>2026-06-17T08:47:15.000Z</time>
        <extensions>
          <ns3:TrackPointExtension>
            <ns3:atemp>29.0</ns3:atemp>
          </ns3:TrackPointExtension>
        </extensions>
      </trkpt>
      <trkpt lat="42.54090995527803897857666015625" lon="19.9533389322459697723388671875">
        <ele>1470.800048828125</ele>
        <time>2026-06-17T08:47:16.000Z</time>
        <extensions>
          <ns3:TrackPointExtension>
            <ns3:atemp>29.0</ns3:atemp>
          </ns3:TrackPointExtension>
        </extensions>
      </trkpt>
      <trkpt lat="42.540933676064014434814453125" lon="19.95333683677017688751220703125">
        <ele>1471</ele>
        <time>2026-06-17T08:47:17.000Z</time>
        <extensions>
          <ns3:TrackPointExtension>
            <ns3:atemp>29.0</ns3:atemp>
          </ns3:TrackPointExtension>
        </extensions>
      </trkpt>
      <trkpt lat="42.540956474840641021728515625" lon="19.9533335678279399871826171875">
        <ele>1471</ele>
        <time>2026-06-17T08:47:18.000Z</time>
        <extensions>
          <ns3:TrackPointExtension>
            <ns3:atemp>29.0</ns3:atemp>
          </ns3:TrackPointExtension>
        </extensions>
      </trkpt>
      <trkpt lat="42.5409791059792041778564453125" lon="19.95333063416182994842529296875">
        <ele>1471.199951171875</ele>
        <time>2026-06-17T08:47:19.000Z</time>
        <extensions>
          <ns3:TrackPointExtension>
            <ns3:atemp>29.0</ns3:atemp>
          </ns3:TrackPointExtension>
        </extensions>
      </trkpt>
      <trkpt lat="42.54100081510841846466064453125" lon="19.95333482511341571807861328125">
        <ele>1471.4000244140625</ele>
        <time>2026-06-17T08:47:20.000Z</time>
        <extensions>
          <ns3:TrackPointExtension>
            <ns3:atemp>29.0</ns3:atemp>
          </ns3:TrackPointExtension>
        </extensions>
      </trkpt>
      <trkpt lat="42.54102193750441074371337890625" lon="19.9533389322459697723388671875">
        <ele>1471.5999755859375</ele>
        <time>2026-06-17T08:47:21.000Z</time>
        <extensions>
          <ns3:TrackPointExtension>
            <ns3:atemp>29.0</ns3:atemp>
          </ns3:TrackPointExtension>
        </extensions>
      </trkpt>
      <trkpt lat="42.54104406572878360748291015625" lon="19.95333842933177947998046875">
        <ele>1472</ele>
        <time>2026-06-17T08:47:22.000Z</time>
        <extensions>
          <ns3:TrackPointExtension>
            <ns3:atemp>29.0</ns3:atemp>
          </ns3:TrackPointExtension>
        </extensions>
      </trkpt>
      <trkpt lat="42.5410642661154270172119140625" lon="19.9533365853130817413330078125">
        <ele>1472.199951171875</ele>
        <time>2026-06-17T08:47:23.000Z</time>
        <extensions>
          <ns3:TrackPointExtension>
            <ns3:atemp>29.0</ns3:atemp>
          </ns3:TrackPointExtension>
        </extensions>
      </trkpt>
      <trkpt lat="42.5410850532352924346923828125" lon="19.95333281345665454864501953125">
        <ele>1472.199951171875</ele>
        <time>2026-06-17T08:47:24.000Z</time>
        <extensions>
          <ns3:TrackPointExtension>
            <ns3:atemp>29.0</ns3:atemp>
          </ns3:TrackPointExtension>
        </extensions>
      </trkpt>
      <trkpt lat="42.54110625945031642913818359375" lon="19.9533302150666713714599609375">
        <ele>1472.4000244140625</ele>
        <time>2026-06-17T08:47:25.000Z</time>
        <extensions>
          <ns3:TrackPointExtension>
            <ns3:atemp>29.0</ns3:atemp>
          </ns3:TrackPointExtension>
        </extensions>
      </trkpt>
      <trkpt lat="42.54112738184630870819091796875" lon="19.9533297121524810791015625">
        <ele>1472.800048828125</ele>
        <time>2026-06-17T08:47:26.000Z</time>
        <extensions>
          <ns3:TrackPointExtension>
            <ns3:atemp>29.0</ns3:atemp>
          </ns3:TrackPointExtension>
        </extensions>
      </trkpt>
      <trkpt lat="42.541150264441967010498046875" lon="19.95332929305732250213623046875">
        <ele>1473</ele>
        <time>2026-06-17T08:47:27.000Z</time>
        <extensions>
          <ns3:TrackPointExtension>
            <ns3:atemp>29.0</ns3:atemp>
          </ns3:TrackPointExtension>
        </extensions>
      </trkpt>
      <trkpt lat="42.54117147065699100494384765625" lon="19.95332845486700534820556640625">
        <ele>1473.199951171875</ele>
        <time>2026-06-17T08:47:28.000Z</time>
        <extensions>
          <ns3:TrackPointExtension>
            <ns3:atemp>29.0</ns3:atemp>
          </ns3:TrackPointExtension>
        </extensions>
      </trkpt>
      <trkpt lat="42.54119376651942729949951171875" lon="19.95331923477351665496826171875">
        <ele>1473.5999755859375</ele>
        <time>2026-06-17T08:47:29.000Z</time>
        <extensions>
          <ns3:TrackPointExtension>
            <ns3:atemp>29.0</ns3:atemp>
          </ns3:TrackPointExtension>
        </extensions>
      </trkpt>
      <trkpt lat="42.54121421836316585540771484375" lon="19.95329543016850948333740234375">
        <ele>1473.800048828125</ele>
        <time>2026-06-17T08:47:30.000Z</time>
        <extensions>
          <ns3:TrackPointExtension>
            <ns3:atemp>29.0</ns3:atemp>
          </ns3:TrackPointExtension>
        </extensions>
      </trkpt>
      <trkpt lat="42.54122595302760601043701171875" lon="19.953264333307743072509765625">
        <ele>1474</ele>
        <time>2026-06-17T08:47:31.000Z</time>
        <extensions>
          <ns3:TrackPointExtension>
            <ns3:atemp>29.0</ns3:atemp>
          </ns3:TrackPointExtension>
        </extensions>
      </trkpt>
      <trkpt lat="42.5412312336266040802001953125" lon="19.95323340408504009246826171875">
        <ele>1474.4000244140625</ele>
        <time>2026-06-17T08:47:32.000Z</time>
        <extensions>
          <ns3:TrackPointExtension>
            <ns3:atemp>29.0</ns3:atemp>
          </ns3:TrackPointExtension>
        </extensions>
      </trkpt>
      <trkpt lat="42.54122226499021053314208984375" lon="19.95320834219455718994140625">
        <ele>1474.5999755859375</ele>
        <time>2026-06-17T08:47:33.000Z</time>
        <extensions>
          <ns3:TrackPointExtension>
            <ns3:atemp>29.0</ns3:atemp>
          </ns3:TrackPointExtension>
        </extensions>
      </trkpt>
      <trkpt lat="42.54121086560189723968505859375" lon="19.95317749679088592529296875">
        <ele>1475</ele>
        <time>2026-06-17T08:47:34.000Z</time>
        <extensions>
          <ns3:TrackPointExtension>
            <ns3:atemp>29.0</ns3:atemp>
          </ns3:TrackPointExtension>
        </extensions>
      </trkpt>
      <trkpt lat="42.54119225777685642242431640625" lon="19.95316098444163799285888671875">
        <ele>1475.199951171875</ele>
        <time>2026-06-17T08:47:35.000Z</time>
        <extensions>
          <ns3:TrackPointExtension>
            <ns3:atemp>29.0</ns3:atemp>
          </ns3:TrackPointExtension>
        </extensions>
      </trkpt>
      <trkpt lat="42.54117012955248355865478515625" lon="19.9531488306820392608642578125">
        <ele>1475.5999755859375</ele>
        <time>2026-06-17T08:47:36.000Z</time>
        <extensions>
          <ns3:TrackPointExtension>
            <ns3:atemp>29.0</ns3:atemp>
          </ns3:TrackPointExtension>
        </extensions>
      </trkpt>
      <trkpt lat="42.5411479175090789794921875" lon="19.95313902385532855987548828125">
        <ele>1475.800048828125</ele>
        <time>2026-06-17T08:47:37.000Z</time>
        <extensions>
          <ns3:TrackPointExtension>
            <ns3:atemp>29.0</ns3:atemp>
          </ns3:TrackPointExtension>
        </extensions>
      </trkpt>
      <trkpt lat="42.54112654365599155426025390625" lon="19.9531364254653453826904296875">
        <ele>1476</ele>
        <time>2026-06-17T08:47:38.000Z</time>
        <extensions>
          <ns3:TrackPointExtension>
            <ns3:atemp>29.0</ns3:atemp>
          </ns3:TrackPointExtension>
        </extensions>
      </trkpt>
      <trkpt lat="42.54110743291676044464111328125" lon="19.95313969440758228302001953125">
        <ele>1476.199951171875</ele>
        <time>2026-06-17T08:47:39.000Z</time>
        <extensions>
          <ns3:TrackPointExtension>
            <ns3:atemp>29.0</ns3:atemp>
          </ns3:TrackPointExtension>
        </extensions>
      </trkpt>
      <trkpt lat="42.54108429886400699615478515625" lon="19.95314388535916805267333984375">
        <ele>1476.5999755859375</ele>
        <time>2026-06-17T08:47:40.000Z</time>
        <extensions>
          <ns3:TrackPointExtension>
            <ns3:atemp>29.0</ns3:atemp>
          </ns3:TrackPointExtension>
        </extensions>
      </trkpt>
      <trkpt lat="42.541064433753490447998046875" lon="19.95314220897853374481201171875">
        <ele>1477</ele>
        <time>2026-06-17T08:47:41.000Z</time>
        <extensions>
          <ns3:TrackPointExtension>
            <ns3:atemp>29.0</ns3:atemp>
          </ns3:TrackPointExtension>
        </extensions>
      </trkpt>
      <trkpt lat="42.541043646633625030517578125" lon="19.95313533581793308258056640625">
        <ele>1477.199951171875</ele>
        <time>2026-06-17T08:47:42.000Z</time>
        <extensions>
          <ns3:TrackPointExtension>
            <ns3:atemp>29.0</ns3:atemp>
          </ns3:TrackPointExtension>
        </extensions>
      </trkpt>
      <trkpt lat="42.54102093167603015899658203125" lon="19.95312980376183986663818359375">
        <ele>1477.4000244140625</ele>
        <time>2026-06-17T08:47:43.000Z</time>
        <extensions>
          <ns3:TrackPointExtension>
            <ns3:atemp>29.0</ns3:atemp>
          </ns3:TrackPointExtension>
        </extensions>
      </trkpt>
      <trkpt lat="42.54099972546100616455078125" lon="19.9531204998493194580078125">
        <ele>1477.800048828125</ele>
        <time>2026-06-17T08:47:44.000Z</time>
        <extensions>
          <ns3:TrackPointExtension>
            <ns3:atemp>29.0</ns3:atemp>
          </ns3:TrackPointExtension>
        </extensions>
      </trkpt>
      <trkpt lat="42.54098086617887020111083984375" lon="19.9531079269945621490478515625">
        <ele>1477.800048828125</ele>
        <time>2026-06-17T08:47:45.000Z</time>
        <extensions>
          <ns3:TrackPointExtension>
            <ns3:atemp>29.0</ns3:atemp>
          </ns3:TrackPointExtension>
        </extensions>
      </trkpt>
      <trkpt lat="42.54096343182027339935302734375" lon="19.9530914984643459320068359375">
        <ele>1478.199951171875</ele>
        <time>2026-06-17T08:47:46.000Z</time>
        <extensions>
          <ns3:TrackPointExtension>
            <ns3:atemp>29.0</ns3:atemp>
          </ns3:TrackPointExtension>
        </extensions>
      </trkpt>
      <trkpt lat="42.5409439019858837127685546875" lon="19.95307691395282745361328125">
        <ele>1478.4000244140625</ele>
        <time>2026-06-17T08:47:47.000Z</time>
        <extensions>
          <ns3:TrackPointExtension>
            <ns3:atemp>29.0</ns3:atemp>
          </ns3:TrackPointExtension>
        </extensions>
      </trkpt>
      <trkpt lat="42.540922276675701141357421875" lon="19.9530693702399730682373046875">
        <ele>1478.5999755859375</ele>
        <time>2026-06-17T08:47:48.000Z</time>
        <extensions>
          <ns3:TrackPointExtension>
            <ns3:atemp>29.0</ns3:atemp>
          </ns3:TrackPointExtension>
        </extensions>
      </trkpt>
      <trkpt lat="42.540902160108089447021484375" lon="19.95306023396551609039306640625">
        <ele>1478.800048828125</ele>
        <time>2026-06-17T08:47:49.000Z</time>
        <extensions>
          <ns3:TrackPointExtension>
            <ns3:atemp>29.0</ns3:atemp>
          </ns3:TrackPointExtension>
        </extensions>
      </trkpt>
      <trkpt lat="42.54088145680725574493408203125" lon="19.9530556239187717437744140625">
        <ele>1479.199951171875</ele>
        <time>2026-06-17T08:47:50.000Z</time>
        <extensions>
          <ns3:TrackPointExtension>
            <ns3:atemp>29.0</ns3:atemp>
          </ns3:TrackPointExtension>
        </extensions>
      </trkpt>
      <trkpt lat="42.540858574211597442626953125" lon="19.9530559591948986053466796875">
        <ele>1479.5999755859375</ele>
        <time>2026-06-17T08:47:51.000Z</time>
        <extensions>
          <ns3:TrackPointExtension>
            <ns3:atemp>29.0</ns3:atemp>
          </ns3:TrackPointExtension>
        </extensions>
      </trkpt>
      <trkpt lat="42.54083585925400257110595703125" lon="19.9530566297471523284912109375">
        <ele>1480</ele>
        <time>2026-06-17T08:47:52.000Z</time>
        <extensions>
          <ns3:TrackPointExtension>
            <ns3:atemp>29.0</ns3:atemp>
          </ns3:TrackPointExtension>
        </extensions>
      </trkpt>
      <trkpt lat="42.54081490449607372283935546875" lon="19.95305067859590053558349609375">
        <ele>1480.199951171875</ele>
        <time>2026-06-17T08:47:53.000Z</time>
        <extensions>
          <ns3:TrackPointExtension>
            <ns3:atemp>29.0</ns3:atemp>
          </ns3:TrackPointExtension>
        </extensions>
      </trkpt>
      <trkpt lat="42.54079177044332027435302734375" lon="19.95304581709206104278564453125">
        <ele>1480.4000244140625</ele>
        <time>2026-06-17T08:47:54.000Z</time>
        <extensions>
          <ns3:TrackPointExtension>
            <ns3:atemp>29.0</ns3:atemp>
          </ns3:TrackPointExtension>
        </extensions>
      </trkpt>
      <trkpt lat="42.5407683849334716796875" lon="19.953043051064014434814453125">
        <ele>1480.800048828125</ele>
        <time>2026-06-17T08:47:55.000Z</time>
        <extensions>
          <ns3:TrackPointExtension>
            <ns3:atemp>29.0</ns3:atemp>
          </ns3:TrackPointExtension>
        </extensions>
      </trkpt>
      <trkpt lat="42.5407457537949085235595703125" lon="19.95303802192211151123046875">
        <ele>1481</ele>
        <time>2026-06-17T08:47:56.000Z</time>
        <extensions>
          <ns3:TrackPointExtension>
            <ns3:atemp>29.0</ns3:atemp>
          </ns3:TrackPointExtension>
        </extensions>
      </trkpt>
      <trkpt lat="42.540722787380218505859375" lon="19.95303223840892314910888671875">
        <ele>1481.4000244140625</ele>
        <time>2026-06-17T08:47:57.000Z</time>
        <extensions>
          <ns3:TrackPointExtension>
            <ns3:atemp>29.0</ns3:atemp>
          </ns3:TrackPointExtension>
        </extensions>
      </trkpt>
      <trkpt lat="42.54070057533681392669677734375" lon="19.9530261196196079254150390625">
        <ele>1481.800048828125</ele>
        <time>2026-06-17T08:47:58.000Z</time>
        <extensions>
          <ns3:TrackPointExtension>
            <ns3:atemp>29.0</ns3:atemp>
          </ns3:TrackPointExtension>
        </extensions>
      </trkpt>
      <trkpt lat="42.5406766869127750396728515625" lon="19.95302016846835613250732421875">
        <ele>1482</ele>
        <time>2026-06-17T08:47:59.000Z</time>
        <extensions>
          <ns3:TrackPointExtension>
            <ns3:atemp>29.0</ns3:atemp>
          </ns3:TrackPointExtension>
        </extensions>
      </trkpt>
      <trkpt lat="42.5406528823077678680419921875" lon="19.95301312766969203948974609375">
        <ele>1482.4000244140625</ele>
        <time>2026-06-17T08:48:00.000Z</time>
        <extensions>
          <ns3:TrackPointExtension>
            <ns3:atemp>29.0</ns3:atemp>
          </ns3:TrackPointExtension>
        </extensions>
      </trkpt>
      <trkpt lat="42.5406300835311412811279296875" lon="19.9530036561191082000732421875">
        <ele>1482.800048828125</ele>
        <time>2026-06-17T08:48:01.000Z</time>
        <extensions>
          <ns3:TrackPointExtension>
            <ns3:atemp>29.0</ns3:atemp>
          </ns3:TrackPointExtension>
        </extensions>
      </trkpt>
      <trkpt lat="42.5406096316874027252197265625" lon="19.9529942683875560760498046875">
        <ele>1483</ele>
        <time>2026-06-17T08:48:02.000Z</time>
        <extensions>
          <ns3:TrackPointExtension>
            <ns3:atemp>29.0</ns3:atemp>
          </ns3:TrackPointExtension>
        </extensions>
      </trkpt>
      <trkpt lat="42.5405911915004253387451171875" lon="19.9529825337231159210205078125">
        <ele>1483.4000244140625</ele>
        <time>2026-06-17T08:48:03.000Z</time>
        <extensions>
          <ns3:TrackPointExtension>
            <ns3:atemp>29.0</ns3:atemp>
          </ns3:TrackPointExtension>
        </extensions>
      </trkpt>
      <trkpt lat="42.54057032056152820587158203125" lon="19.95297708548605442047119140625">
        <ele>1483.5999755859375</ele>
        <time>2026-06-17T08:48:04.000Z</time>
        <extensions>
          <ns3:TrackPointExtension>
            <ns3:atemp>29.0</ns3:atemp>
          </ns3:TrackPointExtension>
        </extensions>
      </trkpt>
      <trkpt lat="42.54054936580359935760498046875" lon="19.95297792367637157440185546875">
        <ele>1484</ele>
        <time>2026-06-17T08:48:05.000Z</time>
        <extensions>
          <ns3:TrackPointExtension>
            <ns3:atemp>29.0</ns3:atemp>
          </ns3:TrackPointExtension>
        </extensions>
      </trkpt>
      <trkpt lat="42.5405281595885753631591796875" lon="19.9529778398573398590087890625">
        <ele>1484.4000244140625</ele>
        <time>2026-06-17T08:48:06.000Z</time>
        <extensions>
          <ns3:TrackPointExtension>
            <ns3:atemp>29.0</ns3:atemp>
          </ns3:TrackPointExtension>
        </extensions>
      </trkpt>
      <trkpt lat="42.54051047377288341522216796875" lon="19.95297624729573726654052734375">
        <ele>1484.800048828125</ele>
        <time>2026-06-17T08:48:07.000Z</time>
        <extensions>
          <ns3:TrackPointExtension>
            <ns3:atemp>29.0</ns3:atemp>
          </ns3:TrackPointExtension>
        </extensions>
      </trkpt>
      <trkpt lat="42.54049086011946201324462890625" lon="19.95297540910542011260986328125">
        <ele>1485.199951171875</ele>
        <time>2026-06-17T08:48:08.000Z</time>
        <extensions>
          <ns3:TrackPointExtension>
            <ns3:atemp>29.0</ns3:atemp>
          </ns3:TrackPointExtension>
        </extensions>
      </trkpt>
      <trkpt lat="42.54046906717121601104736328125" lon="19.95297054760158061981201171875">
        <ele>1485.5999755859375</ele>
        <time>2026-06-17T08:48:09.000Z</time>
        <extensions>
          <ns3:TrackPointExtension>
            <ns3:atemp>29.0</ns3:atemp>
          </ns3:TrackPointExtension>
        </extensions>
      </trkpt>
      <trkpt lat="42.54045029170811176300048828125" lon="19.9529650993645191192626953125">
        <ele>1486</ele>
        <time>2026-06-17T08:48:10.000Z</time>
        <extensions>
          <ns3:TrackPointExtension>
            <ns3:atemp>29.0</ns3:atemp>
          </ns3:TrackPointExtension>
        </extensions>
      </trkpt>
      <trkpt lat="42.540430091321468353271484375" lon="19.9529697932302951812744140625">
        <ele>1486.4000244140625</ele>
        <time>2026-06-17T08:48:11.000Z</time>
        <extensions>
          <ns3:TrackPointExtension>
            <ns3:atemp>29.0</ns3:atemp>
          </ns3:TrackPointExtension>
        </extensions>
      </trkpt>
      <trkpt lat="42.540408633649349212646484375" lon="19.952965937554836273193359375">
        <ele>1486.5999755859375</ele>
        <time>2026-06-17T08:48:12.000Z</time>
        <extensions>
          <ns3:TrackPointExtension>
            <ns3:atemp>29.0</ns3:atemp>
          </ns3:TrackPointExtension>
        </extensions>
      </trkpt>
      <trkpt lat="42.5403886847198009490966796875" lon="19.95296468026936054229736328125">
        <ele>1486.800048828125</ele>
        <time>2026-06-17T08:48:13.000Z</time>
        <extensions>
          <ns3:TrackPointExtension>
            <ns3:atemp>29.0</ns3:atemp>
          </ns3:TrackPointExtension>
        </extensions>
      </trkpt>
      <trkpt lat="42.5403611920773983001708984375" lon="19.9529622495174407958984375">
        <ele>1487</ele>
        <time>2026-06-17T08:48:14.000Z</time>
        <extensions>
          <ns3:TrackPointExtension>
            <ns3:atemp>29.0</ns3:atemp>
          </ns3:TrackPointExtension>
        </extensions>
      </trkpt>
      <trkpt lat="42.54032858647406101226806640625" lon="19.9529595673084259033203125">
        <ele>1487.199951171875</ele>
        <time>2026-06-17T08:48:15.000Z</time>
        <extensions>
          <ns3:TrackPointExtension>
            <ns3:atemp>29.0</ns3:atemp>
          </ns3:TrackPointExtension>
        </extensions>
      </trkpt>
      <trkpt lat="42.5402963161468505859375" lon="19.9529590643942356109619140625">
        <ele>1487.4000244140625</ele>
        <time>2026-06-17T08:48:16.000Z</time>
        <extensions>
          <ns3:TrackPointExtension>
            <ns3:atemp>29.0</ns3:atemp>
          </ns3:TrackPointExtension>
        </extensions>
      </trkpt>
      <trkpt lat="42.54026387818157672882080078125" lon="19.9529587291181087493896484375">
        <ele>1487.4000244140625</ele>
        <time>2026-06-17T08:48:17.000Z</time>
        <extensions>
          <ns3:TrackPointExtension>
            <ns3:atemp>29.0</ns3:atemp>
          </ns3:TrackPointExtension>
        </extensions>
      </trkpt>
      <trkpt lat="42.54023127257823944091796875" lon="19.9529580585658550262451171875">
        <ele>1487.5999755859375</ele>
        <time>2026-06-17T08:48:18.000Z</time>
        <extensions>
          <ns3:TrackPointExtension>
            <ns3:atemp>29.0</ns3:atemp>
          </ns3:TrackPointExtension>
        </extensions>
      </trkpt>
      <trkpt lat="42.54019984044134616851806640625" lon="19.95296300388872623443603515625">
        <ele>1487.800048828125</ele>
        <time>2026-06-17T08:48:19.000Z</time>
        <extensions>
          <ns3:TrackPointExtension>
            <ns3:atemp>29.0</ns3:atemp>
          </ns3:TrackPointExtension>
        </extensions>
      </trkpt>
      <trkpt lat="42.54017016850411891937255859375" lon="19.9529741518199443817138671875">
        <ele>1488</ele>
        <time>2026-06-17T08:48:20.000Z</time>
        <extensions>
          <ns3:TrackPointExtension>
            <ns3:atemp>29.0</ns3:atemp>
          </ns3:TrackPointExtension>
        </extensions>
      </trkpt>
      <trkpt lat="42.54013630561530590057373046875" lon="19.9529895745217800140380859375">
        <ele>1488.199951171875</ele>
        <time>2026-06-17T08:48:21.000Z</time>
        <extensions>
          <ns3:TrackPointExtension>
            <ns3:atemp>29.0</ns3:atemp>
          </ns3:TrackPointExtension>
        </extensions>
      </trkpt>
      <trkpt lat="42.540106885135173797607421875" lon="19.95300390757620334625244140625">
        <ele>1488.4000244140625</ele>
        <time>2026-06-17T08:48:22.000Z</time>
        <extensions>
          <ns3:TrackPointExtension>
            <ns3:atemp>29.0</ns3:atemp>
          </ns3:TrackPointExtension>
        </extensions>
      </trkpt>
      <trkpt lat="42.5400792248547077178955078125" lon="19.9530217610299587249755859375">
        <ele>1488.5999755859375</ele>
        <time>2026-06-17T08:48:23.000Z</time>
        <extensions>
          <ns3:TrackPointExtension>
            <ns3:atemp>29.0</ns3:atemp>
          </ns3:TrackPointExtension>
        </extensions>
      </trkpt>
      <trkpt lat="42.540053240954875946044921875" lon="19.95304129086434841156005859375">
        <ele>1489</ele>
        <time>2026-06-17T08:48:24.000Z</time>
        <extensions>
          <ns3:TrackPointExtension>
            <ns3:atemp>29.0</ns3:atemp>
          </ns3:TrackPointExtension>
        </extensions>
      </trkpt>
      <trkpt lat="42.5400265865027904510498046875" lon="19.9530593119561672210693359375">
        <ele>1489.199951171875</ele>
        <time>2026-06-17T08:48:25.000Z</time>
        <extensions>
          <ns3:TrackPointExtension>
            <ns3:atemp>29.0</ns3:atemp>
          </ns3:TrackPointExtension>
        </extensions>
      </trkpt>
      <trkpt lat="42.540002278983592987060546875" lon="19.9530730582773685455322265625">
        <ele>1489.4000244140625</ele>
        <time>2026-06-17T08:48:26.000Z</time>
        <extensions>
          <ns3:TrackPointExtension>
            <ns3:atemp>29.0</ns3:atemp>
          </ns3:TrackPointExtension>
        </extensions>
      </trkpt>
      <trkpt lat="42.53997805528342723846435546875" lon="19.9530888162553310394287109375">
        <ele>1489.5999755859375</ele>
        <time>2026-06-17T08:48:27.000Z</time>
        <extensions>
          <ns3:TrackPointExtension>
            <ns3:atemp>29.0</ns3:atemp>
          </ns3:TrackPointExtension>
        </extensions>
      </trkpt>
      <trkpt lat="42.5399565137922763824462890625" lon="19.95310583151876926422119140625">
        <ele>1490</ele>
        <time>2026-06-17T08:48:28.000Z</time>
        <extensions>
          <ns3:TrackPointExtension>
            <ns3:atemp>29.0</ns3:atemp>
          </ns3:TrackPointExtension>
        </extensions>
      </trkpt>
      <trkpt lat="42.539934553205966949462890625" lon="19.95312108658254146575927734375">
        <ele>1490.199951171875</ele>
        <time>2026-06-17T08:48:29.000Z</time>
        <extensions>
          <ns3:TrackPointExtension>
            <ns3:atemp>29.0</ns3:atemp>
          </ns3:TrackPointExtension>
        </extensions>
      </trkpt>
      <trkpt lat="42.53991049714386463165283203125" lon="19.95313952676951885223388671875">
        <ele>1490.4000244140625</ele>
        <time>2026-06-17T08:48:30.000Z</time>
        <extensions>
          <ns3:TrackPointExtension>
            <ns3:atemp>29.0</ns3:atemp>
          </ns3:TrackPointExtension>
        </extensions>
      </trkpt>
      <trkpt lat="42.53988635726273059844970703125" lon="19.9531595595180988311767578125">
        <ele>1490.5999755859375</ele>
        <time>2026-06-17T08:48:31.000Z</time>
        <extensions>
          <ns3:TrackPointExtension>
            <ns3:atemp>29.0</ns3:atemp>
          </ns3:TrackPointExtension>
        </extensions>
      </trkpt>
      <trkpt lat="42.53986389376223087310791015625" lon="19.95318076573312282562255859375">
        <ele>1490.800048828125</ele>
        <time>2026-06-17T08:48:32.000Z</time>
        <extensions>
          <ns3:TrackPointExtension>
            <ns3:atemp>29.0</ns3:atemp>
          </ns3:TrackPointExtension>
        </extensions>
      </trkpt>
      <trkpt lat="42.53984746523201465606689453125" lon="19.95319803245365619659423828125">
        <ele>1491</ele>
        <time>2026-06-17T08:48:33.000Z</time>
        <extensions>
          <ns3:TrackPointExtension>
            <ns3:atemp>29.0</ns3:atemp>
          </ns3:TrackPointExtension>
        </extensions>
      </trkpt>
      <trkpt lat="42.53982818685472011566162109375" lon="19.9532142095267772674560546875">
        <ele>1491.199951171875</ele>
        <time>2026-06-17T08:48:34.000Z</time>
        <extensions>
          <ns3:TrackPointExtension>
            <ns3:atemp>29.0</ns3:atemp>
          </ns3:TrackPointExtension>
        </extensions>
      </trkpt>
      <trkpt lat="42.53980941139161586761474609375" lon="19.95323692448437213897705078125">
        <ele>1491.5999755859375</ele>
        <time>2026-06-17T08:48:35.000Z</time>
        <extensions>
          <ns3:TrackPointExtension>
            <ns3:atemp>29.0</ns3:atemp>
          </ns3:TrackPointExtension>
        </extensions>
      </trkpt>
      <trkpt lat="42.53978694789111614227294921875" lon="19.953260980546474456787109375">
        <ele>1491.800048828125</ele>
        <time>2026-06-17T08:48:36.000Z</time>
        <extensions>
          <ns3:TrackPointExtension>
            <ns3:atemp>29.0</ns3:atemp>
          </ns3:TrackPointExtension>
        </extensions>
      </trkpt>
      <trkpt lat="42.5397680886089801788330078125" lon="19.95328134857118129730224609375">
        <ele>1492.199951171875</ele>
        <time>2026-06-17T08:48:37.000Z</time>
        <extensions>
          <ns3:TrackPointExtension>
            <ns3:atemp>29.0</ns3:atemp>
          </ns3:TrackPointExtension>
        </extensions>
      </trkpt>
      <trkpt lat="42.53975107334554195404052734375" lon="19.953306578099727630615234375">
        <ele>1492.5999755859375</ele>
        <time>2026-06-17T08:48:38.000Z</time>
        <extensions>
          <ns3:TrackPointExtension>
            <ns3:atemp>29.0</ns3:atemp>
          </ns3:TrackPointExtension>
        </extensions>
      </trkpt>
      <trkpt lat="42.539736740291118621826171875" lon="19.9533349089324474334716796875">
        <ele>1492.800048828125</ele>
        <time>2026-06-17T08:48:39.000Z</time>
        <extensions>
          <ns3:TrackPointExtension>
            <ns3:atemp>29.0</ns3:atemp>
          </ns3:TrackPointExtension>
        </extensions>
      </trkpt>
      <trkpt lat="42.5397204793989658355712890625" lon="19.95336047373712062835693359375">
        <ele>1493.199951171875</ele>
        <time>2026-06-17T08:48:40.000Z</time>
        <extensions>
          <ns3:TrackPointExtension>
            <ns3:atemp>29.0</ns3:atemp>
          </ns3:TrackPointExtension>
        </extensions>
      </trkpt>
      <trkpt lat="42.53970824182033538818359375" lon="19.95338394306600093841552734375">
        <ele>1493.4000244140625</ele>
        <time>2026-06-17T08:48:41.000Z</time>
        <extensions>
          <ns3:TrackPointExtension>
            <ns3:atemp>29.0</ns3:atemp>
          </ns3:TrackPointExtension>
        </extensions>
      </trkpt>
      <trkpt lat="42.53969374112784862518310546875" lon="19.95340414345264434814453125">
        <ele>1493.800048828125</ele>
        <time>2026-06-17T08:48:42.000Z</time>
        <extensions>
          <ns3:TrackPointExtension>
            <ns3:atemp>29.0</ns3:atemp>
          </ns3:TrackPointExtension>
        </extensions>
      </trkpt>
      <trkpt lat="42.5396725349128246307373046875" lon="19.9534281156957149505615234375">
        <ele>1494.199951171875</ele>
        <time>2026-06-17T08:48:43.000Z</time>
        <extensions>
          <ns3:TrackPointExtension>
            <ns3:atemp>29.0</ns3:atemp>
          </ns3:TrackPointExtension>
        </extensions>
      </trkpt>
      <trkpt lat="42.53965468145906925201416015625" lon="19.95345116592943668365478515625">
        <ele>1494.4000244140625</ele>
        <time>2026-06-17T08:48:44.000Z</time>
        <extensions>
          <ns3:TrackPointExtension>
            <ns3:atemp>29.0</ns3:atemp>
          </ns3:TrackPointExtension>
        </extensions>
      </trkpt>
      <trkpt lat="42.53963473252952098846435546875" lon="19.9534706957638263702392578125">
        <ele>1494.5999755859375</ele>
        <time>2026-06-17T08:48:45.000Z</time>
        <extensions>
          <ns3:TrackPointExtension>
            <ns3:atemp>29.0</ns3:atemp>
          </ns3:TrackPointExtension>
        </extensions>
      </trkpt>
      <trkpt lat="42.5396083295345306396484375" lon="19.953486621379852294921875">
        <ele>1494.800048828125</ele>
        <time>2026-06-17T08:48:46.000Z</time>
        <extensions>
          <ns3:TrackPointExtension>
            <ns3:atemp>29.0</ns3:atemp>
          </ns3:TrackPointExtension>
        </extensions>
      </trkpt>
      <trkpt lat="42.53958159126341342926025390625" lon="19.95349659584462642669677734375">
        <ele>1495.199951171875</ele>
        <time>2026-06-17T08:48:47.000Z</time>
        <extensions>
          <ns3:TrackPointExtension>
            <ns3:atemp>29.0</ns3:atemp>
          </ns3:TrackPointExtension>
        </extensions>
      </trkpt>
      <trkpt lat="42.53955828957259654998779296875" lon="19.9534960091114044189453125">
        <ele>1495.5999755859375</ele>
        <time>2026-06-17T08:48:48.000Z</time>
        <extensions>
          <ns3:TrackPointExtension>
            <ns3:atemp>29.0</ns3:atemp>
          </ns3:TrackPointExtension>
        </extensions>
      </trkpt>
      <trkpt lat="42.53953515551984310150146484375" lon="19.9534951709210872650146484375">
        <ele>1495.800048828125</ele>
        <time>2026-06-17T08:48:49.000Z</time>
        <extensions>
          <ns3:TrackPointExtension>
            <ns3:atemp>29.0</ns3:atemp>
          </ns3:TrackPointExtension>
        </extensions>
      </trkpt>
      <trkpt lat="42.53950598649680614471435546875" lon="19.953492991626262664794921875">
        <ele>1496</ele>
        <time>2026-06-17T08:48:50.000Z</time>
        <extensions>
          <ns3:TrackPointExtension>
            <ns3:atemp>29.0</ns3:atemp>
          </ns3:TrackPointExtension>
        </extensions>
      </trkpt>
      <trkpt lat="42.53948017023503780364990234375" lon="19.95347849093377590179443359375">
        <ele>1496.199951171875</ele>
        <time>2026-06-17T08:48:51.000Z</time>
        <extensions>
          <ns3:TrackPointExtension>
            <ns3:atemp>29.0</ns3:atemp>
          </ns3:TrackPointExtension>
        </extensions>
      </trkpt>
      <trkpt lat="42.53945250995457172393798828125" lon="19.9534639902412891387939453125">
        <ele>1496.4000244140625</ele>
        <time>2026-06-17T08:48:52.000Z</time>
        <extensions>
          <ns3:TrackPointExtension>
            <ns3:atemp>29.0</ns3:atemp>
          </ns3:TrackPointExtension>
        </extensions>
      </trkpt>
      <trkpt lat="42.5394281186163425445556640625" lon="19.95344731025397777557373046875">
        <ele>1496.5999755859375</ele>
        <time>2026-06-17T08:48:53.000Z</time>
        <extensions>
          <ns3:TrackPointExtension>
            <ns3:atemp>29.0</ns3:atemp>
          </ns3:TrackPointExtension>
        </extensions>
      </trkpt>
      <trkpt lat="42.53940221853554248809814453125" lon="19.95343222282826900482177734375">
        <ele>1496.800048828125</ele>
        <time>2026-06-17T08:48:54.000Z</time>
        <extensions>
          <ns3:TrackPointExtension>
            <ns3:atemp>29.0</ns3:atemp>
          </ns3:TrackPointExtension>
        </extensions>
      </trkpt>
      <trkpt lat="42.53937757574021816253662109375" lon="19.953414537012577056884765625">
        <ele>1497</ele>
        <time>2026-06-17T08:48:55.000Z</time>
        <extensions>
          <ns3:TrackPointExtension>
            <ns3:atemp>29.0</ns3:atemp>
          </ns3:TrackPointExtension>
        </extensions>
      </trkpt>
      <trkpt lat="42.5393535196781158447265625" lon="19.95339785702526569366455078125">
        <ele>1497.4000244140625</ele>
        <time>2026-06-17T08:48:56.000Z</time>
        <extensions>
          <ns3:TrackPointExtension>
            <ns3:atemp>29.0</ns3:atemp>
          </ns3:TrackPointExtension>
        </extensions>
      </trkpt>
      <trkpt lat="42.5393293797969818115234375" lon="19.95338511653244495391845703125">
        <ele>1497.5999755859375</ele>
        <time>2026-06-17T08:48:57.000Z</time>
        <extensions>
          <ns3:TrackPointExtension>
            <ns3:atemp>29.0</ns3:atemp>
          </ns3:TrackPointExtension>
        </extensions>
      </trkpt>
      <trkpt lat="42.53930951468646526336669921875" lon="19.953370951116085052490234375">
        <ele>1497.800048828125</ele>
        <time>2026-06-17T08:48:58.000Z</time>
        <extensions>
          <ns3:TrackPointExtension>
            <ns3:atemp>29.0</ns3:atemp>
          </ns3:TrackPointExtension>
        </extensions>
      </trkpt>
      <trkpt lat="42.53928738646209239959716796875" lon="19.9533536843955516815185546875">
        <ele>1498</ele>
        <time>2026-06-17T08:48:59.000Z</time>
        <extensions>
          <ns3:TrackPointExtension>
            <ns3:atemp>29.0</ns3:atemp>
          </ns3:TrackPointExtension>
        </extensions>
      </trkpt>
      <trkpt lat="42.53926433622837066650390625" lon="19.95333750732243061065673828125">
        <ele>1498.4000244140625</ele>
        <time>2026-06-17T08:49:00.000Z</time>
        <extensions>
          <ns3:TrackPointExtension>
            <ns3:atemp>29.0</ns3:atemp>
          </ns3:TrackPointExtension>
        </extensions>
      </trkpt>
      <trkpt lat="42.5392460636794567108154296875" lon="19.95332510210573673248291015625">
        <ele>1498.5999755859375</ele>
        <time>2026-06-17T08:49:01.000Z</time>
        <extensions>
          <ns3:TrackPointExtension>
            <ns3:atemp>29.0</ns3:atemp>
          </ns3:TrackPointExtension>
        </extensions>
      </trkpt>
      <trkpt lat="42.539225779473781585693359375" lon="19.95330884121358394622802734375">
        <ele>1499</ele>
        <time>2026-06-17T08:49:02.000Z</time>
        <extensions>
          <ns3:TrackPointExtension>
            <ns3:atemp>29.0</ns3:atemp>
          </ns3:TrackPointExtension>
        </extensions>
      </trkpt>
      <trkpt lat="42.53920759074389934539794921875" lon="19.9532946757972240447998046875">
        <ele>1499.4000244140625</ele>
        <time>2026-06-17T08:49:03.000Z</time>
        <extensions>
          <ns3:TrackPointExtension>
            <ns3:atemp>29.0</ns3:atemp>
          </ns3:TrackPointExtension>
        </extensions>
      </trkpt>
      <trkpt lat="42.539186887443065643310546875" lon="19.95328017510473728179931640625">
        <ele>1499.800048828125</ele>
        <time>2026-06-17T08:49:04.000Z</time>
        <extensions>
          <ns3:TrackPointExtension>
            <ns3:atemp>29.0</ns3:atemp>
          </ns3:TrackPointExtension>
        </extensions>
      </trkpt>
      <trkpt lat="42.5391652621328830718994140625" lon="19.95326844044029712677001953125">
        <ele>1500.199951171875</ele>
        <time>2026-06-17T08:49:05.000Z</time>
        <extensions>
          <ns3:TrackPointExtension>
            <ns3:atemp>29.0</ns3:atemp>
          </ns3:TrackPointExtension>
        </extensions>
      </trkpt>
      <trkpt lat="42.53914422355592250823974609375" lon="19.953250586986541748046875">
        <ele>1500.800048828125</ele>
        <time>2026-06-17T08:49:06.000Z</time>
        <extensions>
          <ns3:TrackPointExtension>
            <ns3:atemp>29.0</ns3:atemp>
          </ns3:TrackPointExtension>
        </extensions>
      </trkpt>
      <trkpt lat="42.53912460990250110626220703125" lon="19.953230135142803192138671875">
        <ele>1501.199951171875</ele>
        <time>2026-06-17T08:49:07.000Z</time>
        <extensions>
          <ns3:TrackPointExtension>
            <ns3:atemp>29.0</ns3:atemp>
          </ns3:TrackPointExtension>
        </extensions>
      </trkpt>
      <trkpt lat="42.53910667262971401214599609375" lon="19.953208006918430328369140625">
        <ele>1501.4000244140625</ele>
        <time>2026-06-17T08:49:08.000Z</time>
        <extensions>
          <ns3:TrackPointExtension>
            <ns3:atemp>29.0</ns3:atemp>
          </ns3:TrackPointExtension>
        </extensions>
      </trkpt>
      <trkpt lat="42.53908504731953144073486328125" lon="19.953188560903072357177734375">
        <ele>1501.800048828125</ele>
        <time>2026-06-17T08:49:09.000Z</time>
        <extensions>
          <ns3:TrackPointExtension>
            <ns3:atemp>29.0</ns3:atemp>
          </ns3:TrackPointExtension>
        </extensions>
      </trkpt>
      <trkpt lat="42.53906451165676116943359375" lon="19.95317104272544384002685546875">
        <ele>1502</ele>
        <time>2026-06-17T08:49:10.000Z</time>
        <extensions>
          <ns3:TrackPointExtension>
            <ns3:atemp>29.0</ns3:atemp>
          </ns3:TrackPointExtension>
        </extensions>
      </trkpt>
      <trkpt lat="42.53904732875525951385498046875" lon="19.95315126143395900726318359375">
        <ele>1502.5999755859375</ele>
        <time>2026-06-17T08:49:11.000Z</time>
        <extensions>
          <ns3:TrackPointExtension>
            <ns3:atemp>29.0</ns3:atemp>
          </ns3:TrackPointExtension>
        </extensions>
      </trkpt>
      <trkpt lat="42.5390271283686161041259765625" lon="19.95313349179923534393310546875">
        <ele>1502.800048828125</ele>
        <time>2026-06-17T08:49:12.000Z</time>
        <extensions>
          <ns3:TrackPointExtension>
            <ns3:atemp>29.0</ns3:atemp>
          </ns3:TrackPointExtension>
        </extensions>
      </trkpt>
      <trkpt lat="42.53901028074324131011962890625" lon="19.9531106092035770416259765625">
        <ele>1503.199951171875</ele>
        <time>2026-06-17T08:49:13.000Z</time>
        <extensions>
          <ns3:TrackPointExtension>
            <ns3:atemp>29.0</ns3:atemp>
          </ns3:TrackPointExtension>
        </extensions>
      </trkpt>
      <trkpt lat="42.53899452276527881622314453125" lon="19.9530883133411407470703125">
        <ele>1503.5999755859375</ele>
        <time>2026-06-17T08:49:14.000Z</time>
        <extensions>
          <ns3:TrackPointExtension>
            <ns3:atemp>29.0</ns3:atemp>
          </ns3:TrackPointExtension>
        </extensions>
      </trkpt>
      <trkpt lat="42.538981698453426361083984375" lon="19.9530650116503238677978515625">
        <ele>1503.800048828125</ele>
        <time>2026-06-17T08:49:15.000Z</time>
        <extensions>
          <ns3:TrackPointExtension>
            <ns3:atemp>29.0</ns3:atemp>
          </ns3:TrackPointExtension>
        </extensions>
      </trkpt>
      <trkpt lat="42.53896937705576419830322265625" lon="19.95303936302661895751953125">
        <ele>1504</ele>
        <time>2026-06-17T08:49:16.000Z</time>
        <extensions>
          <ns3:TrackPointExtension>
            <ns3:atemp>29.0</ns3:atemp>
          </ns3:TrackPointExtension>
        </extensions>
      </trkpt>
      <trkpt lat="42.5389590673148632049560546875" lon="19.953015558421611785888671875">
        <ele>1504.199951171875</ele>
        <time>2026-06-17T08:49:17.000Z</time>
        <extensions>
          <ns3:TrackPointExtension>
            <ns3:atemp>29.0</ns3:atemp>
          </ns3:TrackPointExtension>
        </extensions>
      </trkpt>
      <trkpt lat="42.53894724883139133453369140625" lon="19.95298571884632110595703125">
        <ele>1504.4000244140625</ele>
        <time>2026-06-17T08:49:18.000Z</time>
        <extensions>
          <ns3:TrackPointExtension>
            <ns3:atemp>29.0</ns3:atemp>
          </ns3:TrackPointExtension>
        </extensions>
      </trkpt>
      <trkpt lat="42.53893936984241008758544921875" lon="19.95295889675617218017578125">
        <ele>1504.5999755859375</ele>
        <time>2026-06-17T08:49:19.000Z</time>
        <extensions>
          <ns3:TrackPointExtension>
            <ns3:atemp>29.0</ns3:atemp>
          </ns3:TrackPointExtension>
        </extensions>
      </trkpt>
      <trkpt lat="42.5389252044260501861572265625" lon="19.95293349958956241607666015625">
        <ele>1504.800048828125</ele>
        <time>2026-06-17T08:49:20.000Z</time>
        <extensions>
          <ns3:TrackPointExtension>
            <ns3:atemp>29.0</ns3:atemp>
          </ns3:TrackPointExtension>
        </extensions>
      </trkpt>
      <trkpt lat="42.5389050878584384918212890625" lon="19.9529094435274600982666015625">
        <ele>1505.199951171875</ele>
        <time>2026-06-17T08:49:21.000Z</time>
        <extensions>
          <ns3:TrackPointExtension>
            <ns3:atemp>29.0</ns3:atemp>
          </ns3:TrackPointExtension>
        </extensions>
      </trkpt>
      <trkpt lat="42.5388866476714611053466796875" lon="19.95287977159023284912109375">
        <ele>1505.4000244140625</ele>
        <time>2026-06-17T08:49:22.000Z</time>
        <extensions>
          <ns3:TrackPointExtension>
            <ns3:atemp>29.0</ns3:atemp>
          </ns3:TrackPointExtension>
        </extensions>
      </trkpt>
      <trkpt lat="42.53886527381837368011474609375" lon="19.9528547935187816619873046875">
        <ele>1505.5999755859375</ele>
        <time>2026-06-17T08:49:23.000Z</time>
        <extensions>
          <ns3:TrackPointExtension>
            <ns3:atemp>29.0</ns3:atemp>
          </ns3:TrackPointExtension>
        </extensions>
      </trkpt>
      <trkpt lat="42.53884146921336650848388671875" lon="19.95283593423664569854736328125">
        <ele>1505.5999755859375</ele>
        <time>2026-06-17T08:49:24.000Z</time>
        <extensions>
          <ns3:TrackPointExtension>
            <ns3:atemp>29.0</ns3:atemp>
          </ns3:TrackPointExtension>
        </extensions>
      </trkpt>
      <trkpt lat="42.53881883807480335235595703125" lon="19.95281967334449291229248046875">
        <ele>1505.800048828125</ele>
        <time>2026-06-17T08:49:25.000Z</time>
        <extensions>
          <ns3:TrackPointExtension>
            <ns3:atemp>29.0</ns3:atemp>
          </ns3:TrackPointExtension>
        </extensions>
      </trkpt>
      <trkpt lat="42.53879402764141559600830078125" lon="19.95280391536653041839599609375">
        <ele>1506</ele>
        <time>2026-06-17T08:49:26.000Z</time>
        <extensions>
          <ns3:TrackPointExtension>
            <ns3:atemp>29.0</ns3:atemp>
          </ns3:TrackPointExtension>
        </extensions>
      </trkpt>
      <trkpt lat="42.5387706421315670013427734375" lon="19.9527863971889019012451171875">
        <ele>1506.199951171875</ele>
        <time>2026-06-17T08:49:27.000Z</time>
        <extensions>
          <ns3:TrackPointExtension>
            <ns3:atemp>29.0</ns3:atemp>
          </ns3:TrackPointExtension>
        </extensions>
      </trkpt>
      <trkpt lat="42.5387473404407501220703125" lon="19.95276804082095623016357421875">
        <ele>1506.5999755859375</ele>
        <time>2026-06-17T08:49:28.000Z</time>
        <extensions>
          <ns3:TrackPointExtension>
            <ns3:atemp>29.0</ns3:atemp>
          </ns3:TrackPointExtension>
        </extensions>
      </trkpt>
      <trkpt lat="42.53872311674058437347412109375" lon="19.95274775661528110504150390625">
        <ele>1506.800048828125</ele>
        <time>2026-06-17T08:49:29.000Z</time>
        <extensions>
          <ns3:TrackPointExtension>
            <ns3:atemp>29.0</ns3:atemp>
          </ns3:TrackPointExtension>
        </extensions>
      </trkpt>
      <trkpt lat="42.53869981504976749420166015625" lon="19.95273090898990631103515625">
        <ele>1507</ele>
        <time>2026-06-17T08:49:30.000Z</time>
        <extensions>
          <ns3:TrackPointExtension>
            <ns3:atemp>29.0</ns3:atemp>
          </ns3:TrackPointExtension>
        </extensions>
      </trkpt>
      <trkpt lat="42.53867567516863346099853515625" lon="19.9527153186500072479248046875">
        <ele>1507.4000244140625</ele>
        <time>2026-06-17T08:49:31.000Z</time>
        <extensions>
          <ns3:TrackPointExtension>
            <ns3:atemp>29.0</ns3:atemp>
          </ns3:TrackPointExtension>
        </extensions>
      </trkpt>
      <trkpt lat="42.53865388222038745880126953125" lon="19.9527029134333133697509765625">
        <ele>1507.5999755859375</ele>
        <time>2026-06-17T08:49:32.000Z</time>
        <extensions>
          <ns3:TrackPointExtension>
            <ns3:atemp>29.0</ns3:atemp>
          </ns3:TrackPointExtension>
        </extensions>
      </trkpt>
      <trkpt lat="42.53863108344376087188720703125" lon="19.95268992148339748382568359375">
        <ele>1507.800048828125</ele>
        <time>2026-06-17T08:49:33.000Z</time>
        <extensions>
          <ns3:TrackPointExtension>
            <ns3:atemp>29.0</ns3:atemp>
          </ns3:TrackPointExtension>
        </extensions>
      </trkpt>
      <trkpt lat="42.5386087037622928619384765625" lon="19.9526784382760524749755859375">
        <ele>1508</ele>
        <time>2026-06-17T08:49:34.000Z</time>
        <extensions>
          <ns3:TrackPointExtension>
            <ns3:atemp>29.0</ns3:atemp>
          </ns3:TrackPointExtension>
        </extensions>
      </trkpt>
      <trkpt lat="42.538587749004364013671875" lon="19.9526653625071048736572265625">
        <ele>1508.4000244140625</ele>
        <time>2026-06-17T08:49:35.000Z</time>
        <extensions>
          <ns3:TrackPointExtension>
            <ns3:atemp>29.0</ns3:atemp>
          </ns3:TrackPointExtension>
        </extensions>
      </trkpt>
      <trkpt lat="42.538564614951610565185546875" lon="19.95265170000493526458740234375">
        <ele>1508.5999755859375</ele>
        <time>2026-06-17T08:49:36.000Z</time>
        <extensions>
          <ns3:TrackPointExtension>
            <ns3:atemp>29.0</ns3:atemp>
          </ns3:TrackPointExtension>
        </extensions>
      </trkpt>
      <trkpt lat="42.53854189999401569366455078125" lon="19.9526405520737171173095703125">
        <ele>1508.800048828125</ele>
        <time>2026-06-17T08:49:37.000Z</time>
        <extensions>
          <ns3:TrackPointExtension>
            <ns3:atemp>29.0</ns3:atemp>
          </ns3:TrackPointExtension>
        </extensions>
      </trkpt>
      <trkpt lat="42.53852069377899169921875" lon="19.9526291526854038238525390625">
        <ele>1509</ele>
        <time>2026-06-17T08:49:38.000Z</time>
        <extensions>
          <ns3:TrackPointExtension>
            <ns3:atemp>29.0</ns3:atemp>
          </ns3:TrackPointExtension>
        </extensions>
      </trkpt>
      <trkpt lat="42.5384973920881748199462890625" lon="19.95261733420193195343017578125">
        <ele>1509.4000244140625</ele>
        <time>2026-06-17T08:49:39.000Z</time>
        <extensions>
          <ns3:TrackPointExtension>
            <ns3:atemp>28.0</ns3:atemp>
          </ns3:TrackPointExtension>
        </extensions>
      </trkpt>
      <trkpt lat="42.53847585059702396392822265625" lon="19.9526076950132846832275390625">
        <ele>1509.800048828125</ele>
        <time>2026-06-17T08:49:40.000Z</time>
        <extensions>
          <ns3:TrackPointExtension>
            <ns3:atemp>28.0</ns3:atemp>
          </ns3:TrackPointExtension>
        </extensions>
      </trkpt>
      <trkpt lat="42.53845556639134883880615234375" lon="19.952596463263034820556640625">
        <ele>1510.199951171875</ele>
        <time>2026-06-17T08:49:41.000Z</time>
        <extensions>
          <ns3:TrackPointExtension>
            <ns3:atemp>28.0</ns3:atemp>
          </ns3:TrackPointExtension>
        </extensions>
      </trkpt>
      <trkpt lat="42.53843544982373714447021484375" lon="19.95258363895118236541748046875">
        <ele>1510.5999755859375</ele>
        <time>2026-06-17T08:49:42.000Z</time>
        <extensions>
          <ns3:TrackPointExtension>
            <ns3:atemp>29.0</ns3:atemp>
          </ns3:TrackPointExtension>
        </extensions>
      </trkpt>
      <trkpt lat="42.538413070142269134521484375" lon="19.9525704793632030487060546875">
        <ele>1510.800048828125</ele>
        <time>2026-06-17T08:49:43.000Z</time>
        <extensions>
          <ns3:TrackPointExtension>
            <ns3:atemp>28.0</ns3:atemp>
          </ns3:TrackPointExtension>
        </extensions>
      </trkpt>
      <trkpt lat="42.53839286975562572479248046875" lon="19.9525580741465091705322265625">
        <ele>1511</ele>
        <time>2026-06-17T08:49:44.000Z</time>
        <extensions>
          <ns3:TrackPointExtension>
            <ns3:atemp>28.0</ns3:atemp>
          </ns3:TrackPointExtension>
        </extensions>
      </trkpt>
      <trkpt lat="42.53836671821773052215576171875" lon="19.95254424400627613067626953125">
        <ele>1511.4000244140625</ele>
        <time>2026-06-17T08:49:45.000Z</time>
        <extensions>
          <ns3:TrackPointExtension>
            <ns3:atemp>28.0</ns3:atemp>
          </ns3:TrackPointExtension>
        </extensions>
      </trkpt>
      <trkpt lat="42.53833838738501071929931640625" lon="19.95253033004701137542724609375">
        <ele>1511.5999755859375</ele>
        <time>2026-06-17T08:49:46.000Z</time>
        <extensions>
          <ns3:TrackPointExtension>
            <ns3:atemp>28.0</ns3:atemp>
          </ns3:TrackPointExtension>
        </extensions>
      </trkpt>
      <trkpt lat="42.5383103080093860626220703125" lon="19.95251507498323917388916015625">
        <ele>1511.800048828125</ele>
        <time>2026-06-17T08:49:47.000Z</time>
        <extensions>
          <ns3:TrackPointExtension>
            <ns3:atemp>28.0</ns3:atemp>
          </ns3:TrackPointExtension>
        </extensions>
      </trkpt>
      <trkpt lat="42.538280971348285675048828125" lon="19.9525034241378307342529296875">
        <ele>1512</ele>
        <time>2026-06-17T08:49:48.000Z</time>
        <extensions>
          <ns3:TrackPointExtension>
            <ns3:atemp>29.0</ns3:atemp>
          </ns3:TrackPointExtension>
        </extensions>
      </trkpt>
      <trkpt lat="42.53825238905847072601318359375" lon="19.952491186559200286865234375">
        <ele>1512.4000244140625</ele>
        <time>2026-06-17T08:49:49.000Z</time>
        <extensions>
          <ns3:TrackPointExtension>
            <ns3:atemp>28.0</ns3:atemp>
          </ns3:TrackPointExtension>
        </extensions>
      </trkpt>
      <trkpt lat="42.53822942264378070831298828125" lon="19.9524769373238086700439453125">
        <ele>1512.5999755859375</ele>
        <time>2026-06-17T08:49:50.000Z</time>
        <extensions>
          <ns3:TrackPointExtension>
            <ns3:atemp>28.0</ns3:atemp>
          </ns3:TrackPointExtension>
        </extensions>
      </trkpt>
      <trkpt lat="42.5382080487906932830810546875" lon="19.95246327482163906097412109375">
        <ele>1513.199951171875</ele>
        <time>2026-06-17T08:49:51.000Z</time>
        <extensions>
          <ns3:TrackPointExtension>
            <ns3:atemp>29.0</ns3:atemp>
          </ns3:TrackPointExtension>
        </extensions>
      </trkpt>
      <trkpt lat="42.53818969242274761199951171875" lon="19.95245137251913547515869140625">
        <ele>1513.5999755859375</ele>
        <time>2026-06-17T08:49:52.000Z</time>
        <extensions>
          <ns3:TrackPointExtension>
            <ns3:atemp>28.0</ns3:atemp>
          </ns3:TrackPointExtension>
        </extensions>
      </trkpt>
      <trkpt lat="42.53817359916865825653076171875" lon="19.95243863202631473541259765625">
        <ele>1514.199951171875</ele>
        <time>2026-06-17T08:49:53.000Z</time>
        <extensions>
          <ns3:TrackPointExtension>
            <ns3:atemp>28.0</ns3:atemp>
          </ns3:TrackPointExtension>
        </extensions>
      </trkpt>
      <trkpt lat="42.538155578076839447021484375" lon="19.952431507408618927001953125">
        <ele>1514.800048828125</ele>
        <time>2026-06-17T08:49:54.000Z</time>
        <extensions>
          <ns3:TrackPointExtension>
            <ns3:atemp>28.0</ns3:atemp>
          </ns3:TrackPointExtension>
        </extensions>
      </trkpt>
      <trkpt lat="42.538136802613735198974609375" lon="19.952426813542842864990234375">
        <ele>1515.199951171875</ele>
        <time>2026-06-17T08:49:55.000Z</time>
        <extensions>
          <ns3:TrackPointExtension>
            <ns3:atemp>28.0</ns3:atemp>
          </ns3:TrackPointExtension>
        </extensions>
      </trkpt>
      <trkpt lat="42.5381138361990451812744140625" lon="19.95242270641028881072998046875">
        <ele>1515.5999755859375</ele>
        <time>2026-06-17T08:49:56.000Z</time>
        <extensions>
          <ns3:TrackPointExtension>
            <ns3:atemp>28.0</ns3:atemp>
          </ns3:TrackPointExtension>
        </extensions>
      </trkpt>
      <trkpt lat="42.53809489309787750244140625" lon="19.95242672972381114959716796875">
        <ele>1516</ele>
        <time>2026-06-17T08:49:57.000Z</time>
        <extensions>
          <ns3:TrackPointExtension>
            <ns3:atemp>28.0</ns3:atemp>
          </ns3:TrackPointExtension>
        </extensions>
      </trkpt>
      <trkpt lat="42.5380722619593143463134765625" lon="19.95243041776120662689208984375">
        <ele>1516.199951171875</ele>
        <time>2026-06-17T08:49:58.000Z</time>
        <extensions>
          <ns3:TrackPointExtension>
            <ns3:atemp>28.0</ns3:atemp>
          </ns3:TrackPointExtension>
        </extensions>
      </trkpt>
      <trkpt lat="42.5380501337349414825439453125" lon="19.95243988931179046630859375">
        <ele>1516.800048828125</ele>
        <time>2026-06-17T08:49:59.000Z</time>
        <extensions>
          <ns3:TrackPointExtension>
            <ns3:atemp>28.0</ns3:atemp>
          </ns3:TrackPointExtension>
        </extensions>
      </trkpt>
      <trkpt lat="42.53802993334829807281494140625" lon="19.95244986377656459808349609375">
        <ele>1517</ele>
        <time>2026-06-17T08:50:00.000Z</time>
        <extensions>
          <ns3:TrackPointExtension>
            <ns3:atemp>28.0</ns3:atemp>
          </ns3:TrackPointExtension>
        </extensions>
      </trkpt>
      <trkpt lat="42.538008056581020355224609375" lon="19.95246126316487789154052734375">
        <ele>1517.199951171875</ele>
        <time>2026-06-17T08:50:01.000Z</time>
        <extensions>
          <ns3:TrackPointExtension>
            <ns3:atemp>28.0</ns3:atemp>
          </ns3:TrackPointExtension>
        </extensions>
      </trkpt>
      <trkpt lat="42.53798098303377628326416015625" lon="19.95247065089643001556396484375">
        <ele>1517.199951171875</ele>
        <time>2026-06-17T08:50:02.000Z</time>
        <extensions>
          <ns3:TrackPointExtension>
            <ns3:atemp>28.0</ns3:atemp>
          </ns3:TrackPointExtension>
        </extensions>
      </trkpt>
      <trkpt lat="42.53795650787651538848876953125" lon="19.9524782784283161163330078125">
        <ele>1517.4000244140625</ele>
        <time>2026-06-17T08:50:03.000Z</time>
        <extensions>
          <ns3:TrackPointExtension>
            <ns3:atemp>28.0</ns3:atemp>
          </ns3:TrackPointExtension>
        </extensions>
      </trkpt>
      <trkpt lat="42.5379354692995548248291015625" lon="19.95248272083699703216552734375">
        <ele>1517.5999755859375</ele>
        <time>2026-06-17T08:50:04.000Z</time>
        <extensions>
          <ns3:TrackPointExtension>
            <ns3:atemp>28.0</ns3:atemp>
          </ns3:TrackPointExtension>
        </extensions>
      </trkpt>
      <trkpt lat="42.53791661001741886138916015625" lon="19.952487833797931671142578125">
        <ele>1517.800048828125</ele>
        <time>2026-06-17T08:50:05.000Z</time>
        <extensions>
          <ns3:TrackPointExtension>
            <ns3:atemp>28.0</ns3:atemp>
          </ns3:TrackPointExtension>
        </extensions>
      </trkpt>
      <trkpt lat="42.5378943979740142822265625" lon="19.9524926953017711639404296875">
        <ele>1518</ele>
        <time>2026-06-17T08:50:06.000Z</time>
        <extensions>
          <ns3:TrackPointExtension>
            <ns3:atemp>28.0</ns3:atemp>
          </ns3:TrackPointExtension>
        </extensions>
      </trkpt>
      <trkpt lat="42.53787226974964141845703125" lon="19.952500574290752410888671875">
        <ele>1518.4000244140625</ele>
        <time>2026-06-17T08:50:07.000Z</time>
        <extensions>
          <ns3:TrackPointExtension>
            <ns3:atemp>28.0</ns3:atemp>
          </ns3:TrackPointExtension>
        </extensions>
      </trkpt>
      <trkpt lat="42.53784636966884136199951171875" lon="19.9525034241378307342529296875">
        <ele>1518.5999755859375</ele>
        <time>2026-06-17T08:50:08.000Z</time>
        <extensions>
          <ns3:TrackPointExtension>
            <ns3:atemp>29.0</ns3:atemp>
          </ns3:TrackPointExtension>
        </extensions>
      </trkpt>
      <trkpt lat="42.53782122395932674407958984375" lon="19.95250426232814788818359375">
        <ele>1519</ele>
        <time>2026-06-17T08:50:09.000Z</time>
        <extensions>
          <ns3:TrackPointExtension>
            <ns3:atemp>28.0</ns3:atemp>
          </ns3:TrackPointExtension>
        </extensions>
      </trkpt>
      <trkpt lat="42.53779708407819271087646484375" lon="19.95250828564167022705078125">
        <ele>1519.199951171875</ele>
        <time>2026-06-17T08:50:10.000Z</time>
        <extensions>
          <ns3:TrackPointExtension>
            <ns3:atemp>28.0</ns3:atemp>
          </ns3:TrackPointExtension>
        </extensions>
      </trkpt>
      <trkpt lat="42.53777210600674152374267578125" lon="19.9525101296603679656982421875">
        <ele>1519.4000244140625</ele>
        <time>2026-06-17T08:50:11.000Z</time>
        <extensions>
          <ns3:TrackPointExtension>
            <ns3:atemp>28.0</ns3:atemp>
          </ns3:TrackPointExtension>
        </extensions>
      </trkpt>
      <trkpt lat="42.5377497263252735137939453125" lon="19.95250870473682880401611328125">
        <ele>1519.5999755859375</ele>
        <time>2026-06-17T08:50:12.000Z</time>
        <extensions>
          <ns3:TrackPointExtension>
            <ns3:atemp>28.0</ns3:atemp>
          </ns3:TrackPointExtension>
        </extensions>
      </trkpt>
      <trkpt lat="42.5377269275486469268798828125" lon="19.95250501669943332672119140625">
        <ele>1519.5999755859375</ele>
        <time>2026-06-17T08:50:13.000Z</time>
        <extensions>
          <ns3:TrackPointExtension>
            <ns3:atemp>28.0</ns3:atemp>
          </ns3:TrackPointExtension>
        </extensions>
      </trkpt>
      <trkpt lat="42.53770438022911548614501953125" lon="19.95250292122364044189453125">
        <ele>1519.800048828125</ele>
        <time>2026-06-17T08:50:14.000Z</time>
        <extensions>
          <ns3:TrackPointExtension>
            <ns3:atemp>28.0</ns3:atemp>
          </ns3:TrackPointExtension>
        </extensions>
      </trkpt>
      <trkpt lat="42.53768191672861576080322265625" lon="19.95250132866203784942626953125">
        <ele>1519.800048828125</ele>
        <time>2026-06-17T08:50:15.000Z</time>
        <extensions>
          <ns3:TrackPointExtension>
            <ns3:atemp>28.0</ns3:atemp>
          </ns3:TrackPointExtension>
        </extensions>
      </trkpt>
      <trkpt lat="42.53766079433262348175048828125" lon="19.9525004066526889801025390625">
        <ele>1520</ele>
        <time>2026-06-17T08:50:16.000Z</time>
        <extensions>
          <ns3:TrackPointExtension>
            <ns3:atemp>28.0</ns3:atemp>
          </ns3:TrackPointExtension>
        </extensions>
      </trkpt>
      <trkpt lat="42.53764084540307521820068359375" lon="19.952499903738498687744140625">
        <ele>1520.199951171875</ele>
        <time>2026-06-17T08:50:17.000Z</time>
        <extensions>
          <ns3:TrackPointExtension>
            <ns3:atemp>28.0</ns3:atemp>
          </ns3:TrackPointExtension>
        </extensions>
      </trkpt>
      <trkpt lat="42.53762307576835155487060546875" lon="19.95249688625335693359375">
        <ele>1520.4000244140625</ele>
        <time>2026-06-17T08:50:18.000Z</time>
        <extensions>
          <ns3:TrackPointExtension>
            <ns3:atemp>28.0</ns3:atemp>
          </ns3:TrackPointExtension>
        </extensions>
      </trkpt>
      <trkpt lat="42.53760195337235927581787109375" lon="19.95249621570110321044921875">
        <ele>1520.5999755859375</ele>
        <time>2026-06-17T08:50:19.000Z</time>
        <extensions>
          <ns3:TrackPointExtension>
            <ns3:atemp>28.0</ns3:atemp>
          </ns3:TrackPointExtension>
        </extensions>
      </trkpt>
      <trkpt lat="42.537582926452159881591796875" lon="19.95249210856854915618896484375">
        <ele>1520.800048828125</ele>
        <time>2026-06-17T08:50:20.000Z</time>
        <extensions>
          <ns3:TrackPointExtension>
            <ns3:atemp>28.0</ns3:atemp>
          </ns3:TrackPointExtension>
        </extensions>
      </trkpt>
      <trkpt lat="42.53755903802812099456787109375" lon="19.9524920247495174407958984375">
        <ele>1521</ele>
        <time>2026-06-17T08:50:21.000Z</time>
        <extensions>
          <ns3:TrackPointExtension>
            <ns3:atemp>28.0</ns3:atemp>
          </ns3:TrackPointExtension>
        </extensions>
      </trkpt>
      <trkpt lat="42.53753858618438243865966796875" lon="19.9524997361004352569580078125">
        <ele>1521.199951171875</ele>
        <time>2026-06-17T08:50:22.000Z</time>
        <extensions>
          <ns3:TrackPointExtension>
            <ns3:atemp>28.0</ns3:atemp>
          </ns3:TrackPointExtension>
        </extensions>
      </trkpt>
      <trkpt lat="42.53751712851226329803466796875" lon="19.9525051005184650421142578125">
        <ele>1521.4000244140625</ele>
        <time>2026-06-17T08:50:23.000Z</time>
        <extensions>
          <ns3:TrackPointExtension>
            <ns3:atemp>28.0</ns3:atemp>
          </ns3:TrackPointExtension>
        </extensions>
      </trkpt>
      <trkpt lat="42.53749701194465160369873046875" lon="19.95250451378524303436279296875">
        <ele>1521.5999755859375</ele>
        <time>2026-06-17T08:50:24.000Z</time>
        <extensions>
          <ns3:TrackPointExtension>
            <ns3:atemp>28.0</ns3:atemp>
          </ns3:TrackPointExtension>
        </extensions>
      </trkpt>
      <trkpt lat="42.53747303970158100128173828125" lon="19.95250803418457508087158203125">
        <ele>1521.800048828125</ele>
        <time>2026-06-17T08:50:25.000Z</time>
        <extensions>
          <ns3:TrackPointExtension>
            <ns3:atemp>28.0</ns3:atemp>
          </ns3:TrackPointExtension>
        </extensions>
      </trkpt>
      <trkpt lat="42.5374503247439861297607421875" lon="19.95251096785068511962890625">
        <ele>1522.199951171875</ele>
        <time>2026-06-17T08:50:26.000Z</time>
        <extensions>
          <ns3:TrackPointExtension>
            <ns3:atemp>28.0</ns3:atemp>
          </ns3:TrackPointExtension>
        </extensions>
      </trkpt>
      <trkpt lat="42.537425346672534942626953125" lon="19.952515326440334320068359375">
        <ele>1522.199951171875</ele>
        <time>2026-06-17T08:50:27.000Z</time>
        <extensions>
          <ns3:TrackPointExtension>
            <ns3:atemp>28.0</ns3:atemp>
          </ns3:TrackPointExtension>
        </extensions>
      </trkpt>
      <trkpt lat="42.5373983569443225860595703125" lon="19.9525248818099498748779296875">
        <ele>1522.5999755859375</ele>
        <time>2026-06-17T08:50:28.000Z</time>
        <extensions>
          <ns3:TrackPointExtension>
            <ns3:atemp>28.0</ns3:atemp>
          </ns3:TrackPointExtension>
        </extensions>
      </trkpt>
      <trkpt lat="42.53736793063580989837646484375" lon="19.9525309167802333831787109375">
        <ele>1522.800048828125</ele>
        <time>2026-06-17T08:50:29.000Z</time>
        <extensions>
          <ns3:TrackPointExtension>
            <ns3:atemp>28.0</ns3:atemp>
          </ns3:TrackPointExtension>
        </extensions>
      </trkpt>
      <trkpt lat="42.53733557648956775665283203125" lon="19.95254047214984893798828125">
        <ele>1522.800048828125</ele>
        <time>2026-06-17T08:50:30.000Z</time>
        <extensions>
          <ns3:TrackPointExtension>
            <ns3:atemp>28.0</ns3:atemp>
          </ns3:TrackPointExtension>
        </extensions>
      </trkpt>
      <trkpt lat="42.53730255179107189178466796875" lon="19.952553547918796539306640625">
        <ele>1523</ele>
        <time>2026-06-17T08:50:31.000Z</time>
        <extensions>
          <ns3:TrackPointExtension>
            <ns3:atemp>28.0</ns3:atemp>
          </ns3:TrackPointExtension>
        </extensions>
      </trkpt>
      <trkpt lat="42.53727145493030548095703125" lon="19.95256570167839527130126953125">
        <ele>1523</ele>
        <time>2026-06-17T08:50:32.000Z</time>
        <extensions>
          <ns3:TrackPointExtension>
            <ns3:atemp>28.0</ns3:atemp>
          </ns3:TrackPointExtension>
        </extensions>
      </trkpt>
      <trkpt lat="42.537240944802761077880859375" lon="19.95257793925702571868896484375">
        <ele>1523.199951171875</ele>
        <time>2026-06-17T08:50:33.000Z</time>
        <extensions>
          <ns3:TrackPointExtension>
            <ns3:atemp>28.0</ns3:atemp>
          </ns3:TrackPointExtension>
        </extensions>
      </trkpt>
      <trkpt lat="42.53721487708389759063720703125" lon="19.9525869078934192657470703125">
        <ele>1523.4000244140625</ele>
        <time>2026-06-17T08:50:34.000Z</time>
        <extensions>
          <ns3:TrackPointExtension>
            <ns3:atemp>28.0</ns3:atemp>
          </ns3:TrackPointExtension>
        </extensions>
      </trkpt>
      <trkpt lat="42.53719098865985870361328125" lon="19.95259721763432025909423828125">
        <ele>1523.800048828125</ele>
        <time>2026-06-17T08:50:35.000Z</time>
        <extensions>
          <ns3:TrackPointExtension>
            <ns3:atemp>28.0</ns3:atemp>
          </ns3:TrackPointExtension>
        </extensions>
      </trkpt>
      <trkpt lat="42.5371629931032657623291015625" lon="19.95260777883231639862060546875">
        <ele>1524</ele>
        <time>2026-06-17T08:50:36.000Z</time>
        <extensions>
          <ns3:TrackPointExtension>
            <ns3:atemp>28.0</ns3:atemp>
          </ns3:TrackPointExtension>
        </extensions>
      </trkpt>
      <trkpt lat="42.5371368415653705596923828125" lon="19.95261699892580509185791015625">
        <ele>1524.4000244140625</ele>
        <time>2026-06-17T08:50:37.000Z</time>
        <extensions>
          <ns3:TrackPointExtension>
            <ns3:atemp>28.0</ns3:atemp>
          </ns3:TrackPointExtension>
        </extensions>
      </trkpt>
      <trkpt lat="42.53710993565618991851806640625" lon="19.95262403972446918487548828125">
        <ele>1524.5999755859375</ele>
        <time>2026-06-17T08:50:38.000Z</time>
        <extensions>
          <ns3:TrackPointExtension>
            <ns3:atemp>28.0</ns3:atemp>
          </ns3:TrackPointExtension>
        </extensions>
      </trkpt>
      <trkpt lat="42.53708302974700927734375" lon="19.952633343636989593505859375">
        <ele>1524.800048828125</ele>
        <time>2026-06-17T08:50:39.000Z</time>
        <extensions>
          <ns3:TrackPointExtension>
            <ns3:atemp>28.0</ns3:atemp>
          </ns3:TrackPointExtension>
        </extensions>
      </trkpt>
      <trkpt lat="42.5370575487613677978515625" lon="19.9526425637304782867431640625">
        <ele>1525</ele>
        <time>2026-06-17T08:50:40.000Z</time>
        <extensions>
          <ns3:TrackPointExtension>
            <ns3:atemp>28.0</ns3:atemp>
          </ns3:TrackPointExtension>
        </extensions>
      </trkpt>
      <trkpt lat="42.53703148104250431060791015625" lon="19.9526512809097766876220703125">
        <ele>1525</ele>
        <time>2026-06-17T08:50:41.000Z</time>
        <extensions>
          <ns3:TrackPointExtension>
            <ns3:atemp>28.0</ns3:atemp>
          </ns3:TrackPointExtension>
        </extensions>
      </trkpt>
      <trkpt lat="42.53700398840010166168212890625" lon="19.95266075246036052703857421875">
        <ele>1525.4000244140625</ele>
        <time>2026-06-17T08:50:42.000Z</time>
        <extensions>
          <ns3:TrackPointExtension>
            <ns3:atemp>28.0</ns3:atemp>
          </ns3:TrackPointExtension>
        </extensions>
      </trkpt>
      <trkpt lat="42.5369769148528575897216796875" lon="19.95266921818256378173828125">
        <ele>1525.5999755859375</ele>
        <time>2026-06-17T08:50:43.000Z</time>
        <extensions>
          <ns3:TrackPointExtension>
            <ns3:atemp>28.0</ns3:atemp>
          </ns3:TrackPointExtension>
        </extensions>
      </trkpt>
      <trkpt lat="42.53695168532431125640869140625" lon="19.95267835445702075958251953125">
        <ele>1525.800048828125</ele>
        <time>2026-06-17T08:50:44.000Z</time>
        <extensions>
          <ns3:TrackPointExtension>
            <ns3:atemp>28.0</ns3:atemp>
          </ns3:TrackPointExtension>
        </extensions>
      </trkpt>
      <trkpt lat="42.5369252823293209075927734375" lon="19.95268472470343112945556640625">
        <ele>1526.199951171875</ele>
        <time>2026-06-17T08:50:45.000Z</time>
        <extensions>
          <ns3:TrackPointExtension>
            <ns3:atemp>28.0</ns3:atemp>
          </ns3:TrackPointExtension>
        </extensions>
      </trkpt>
      <trkpt lat="42.5368987955152988433837890625" lon="19.95268824510276317596435546875">
        <ele>1526.4000244140625</ele>
        <time>2026-06-17T08:50:46.000Z</time>
        <extensions>
          <ns3:TrackPointExtension>
            <ns3:atemp>28.0</ns3:atemp>
          </ns3:TrackPointExtension>
        </extensions>
      </trkpt>
      <trkpt lat="42.53687323071062564849853515625" lon="19.95269679464399814605712890625">
        <ele>1526.5999755859375</ele>
        <time>2026-06-17T08:50:47.000Z</time>
        <extensions>
          <ns3:TrackPointExtension>
            <ns3:atemp>28.0</ns3:atemp>
          </ns3:TrackPointExtension>
        </extensions>
      </trkpt>
      <trkpt lat="42.5368458218872547149658203125" lon="19.95270232670009136199951171875">
        <ele>1526.800048828125</ele>
        <time>2026-06-17T08:50:48.000Z</time>
        <extensions>
          <ns3:TrackPointExtension>
            <ns3:atemp>28.0</ns3:atemp>
          </ns3:TrackPointExtension>
        </extensions>
      </trkpt>
      <trkpt lat="42.5368206761777400970458984375" lon="19.95270618237555027008056640625">
        <ele>1527</ele>
        <time>2026-06-17T08:50:49.000Z</time>
        <extensions>
          <ns3:TrackPointExtension>
            <ns3:atemp>28.0</ns3:atemp>
          </ns3:TrackPointExtension>
        </extensions>
      </trkpt>
      <trkpt lat="42.53679402172565460205078125" lon="19.9527109600603580474853515625">
        <ele>1527.199951171875</ele>
        <time>2026-06-17T08:50:50.000Z</time>
        <extensions>
          <ns3:TrackPointExtension>
            <ns3:atemp>28.0</ns3:atemp>
          </ns3:TrackPointExtension>
        </extensions>
      </trkpt>
      <trkpt lat="42.536767534911632537841796875" lon="19.95271489955484867095947265625">
        <ele>1527.4000244140625</ele>
        <time>2026-06-17T08:50:51.000Z</time>
        <extensions>
          <ns3:TrackPointExtension>
            <ns3:atemp>28.0</ns3:atemp>
          </ns3:TrackPointExtension>
        </extensions>
      </trkpt>
      <trkpt lat="42.53673945553600788116455078125" lon="19.95271976105868816375732421875">
        <ele>1527.800048828125</ele>
        <time>2026-06-17T08:50:52.000Z</time>
        <extensions>
          <ns3:TrackPointExtension>
            <ns3:atemp>28.0</ns3:atemp>
          </ns3:TrackPointExtension>
        </extensions>
      </trkpt>
      <trkpt lat="42.5367117114365100860595703125" lon="19.9527226947247982025146484375">
        <ele>1528</ele>
        <time>2026-06-17T08:50:53.000Z</time>
        <extensions>
          <ns3:TrackPointExtension>
            <ns3:atemp>28.0</ns3:atemp>
          </ns3:TrackPointExtension>
        </extensions>
      </trkpt>
      <trkpt lat="42.53668539226055145263671875" lon="19.9527250416576862335205078125">
        <ele>1528.4000244140625</ele>
        <time>2026-06-17T08:50:54.000Z</time>
        <extensions>
          <ns3:TrackPointExtension>
            <ns3:atemp>28.0</ns3:atemp>
          </ns3:TrackPointExtension>
        </extensions>
      </trkpt>
      <trkpt lat="42.5366577319800853729248046875" lon="19.95272831059992313385009765625">
        <ele>1528.5999755859375</ele>
        <time>2026-06-17T08:50:55.000Z</time>
        <extensions>
          <ns3:TrackPointExtension>
            <ns3:atemp>28.0</ns3:atemp>
          </ns3:TrackPointExtension>
        </extensions>
      </trkpt>
      <trkpt lat="42.5366309098899364471435546875" lon="19.95273493230342864990234375">
        <ele>1528.800048828125</ele>
        <time>2026-06-17T08:50:56.000Z</time>
        <extensions>
          <ns3:TrackPointExtension>
            <ns3:atemp>28.0</ns3:atemp>
          </ns3:TrackPointExtension>
        </extensions>
      </trkpt>
      <trkpt lat="42.53660358488559722900390625" lon="19.9527404643595218658447265625">
        <ele>1529</ele>
        <time>2026-06-17T08:50:57.000Z</time>
        <extensions>
          <ns3:TrackPointExtension>
            <ns3:atemp>28.0</ns3:atemp>
          </ns3:TrackPointExtension>
        </extensions>
      </trkpt>
      <trkpt lat="42.53657533787190914154052734375" lon="19.95274457149207592010498046875">
        <ele>1529.4000244140625</ele>
        <time>2026-06-17T08:50:58.000Z</time>
        <extensions>
          <ns3:TrackPointExtension>
            <ns3:atemp>28.0</ns3:atemp>
          </ns3:TrackPointExtension>
        </extensions>
      </trkpt>
      <trkpt lat="42.53654935397207736968994140625" lon="19.952748008072376251220703125">
        <ele>1529.5999755859375</ele>
        <time>2026-06-17T08:50:59.000Z</time>
        <extensions>
          <ns3:TrackPointExtension>
            <ns3:atemp>28.0</ns3:atemp>
          </ns3:TrackPointExtension>
        </extensions>
      </trkpt>
      <trkpt lat="42.53652513027191162109375" lon="19.952753372490406036376953125">
        <ele>1529.800048828125</ele>
        <time>2026-06-17T08:51:00.000Z</time>
        <extensions>
          <ns3:TrackPointExtension>
            <ns3:atemp>28.0</ns3:atemp>
          </ns3:TrackPointExtension>
        </extensions>
      </trkpt>
      <trkpt lat="42.5364984758198261260986328125" lon="19.952758736908435821533203125">
        <ele>1530</ele>
        <time>2026-06-17T08:51:01.000Z</time>
        <extensions>
          <ns3:TrackPointExtension>
            <ns3:atemp>28.0</ns3:atemp>
          </ns3:TrackPointExtension>
        </extensions>
      </trkpt>
      <trkpt lat="42.5364706479012966156005859375" lon="19.952766783535480499267578125">
        <ele>1530.4000244140625</ele>
        <time>2026-06-17T08:51:02.000Z</time>
        <extensions>
          <ns3:TrackPointExtension>
            <ns3:atemp>28.0</ns3:atemp>
          </ns3:TrackPointExtension>
        </extensions>
      </trkpt>
      <trkpt lat="42.536447681486606597900390625" lon="19.95276854373514652252197265625">
        <ele>1530.5999755859375</ele>
        <time>2026-06-17T08:51:03.000Z</time>
        <extensions>
          <ns3:TrackPointExtension>
            <ns3:atemp>28.0</ns3:atemp>
          </ns3:TrackPointExtension>
        </extensions>
      </trkpt>
      <trkpt lat="42.5364245474338531494140625" lon="19.9527664482593536376953125">
        <ele>1530.800048828125</ele>
        <time>2026-06-17T08:51:04.000Z</time>
        <extensions>
          <ns3:TrackPointExtension>
            <ns3:atemp>28.0</ns3:atemp>
          </ns3:TrackPointExtension>
        </extensions>
      </trkpt>
      <trkpt lat="42.53639998845756053924560546875" lon="19.952774159610271453857421875">
        <ele>1531.199951171875</ele>
        <time>2026-06-17T08:51:05.000Z</time>
        <extensions>
          <ns3:TrackPointExtension>
            <ns3:atemp>28.0</ns3:atemp>
          </ns3:TrackPointExtension>
        </extensions>
      </trkpt>
      <trkpt lat="42.53637693822383880615234375" lon="19.95279125869274139404296875">
        <ele>1531.4000244140625</ele>
        <time>2026-06-17T08:51:06.000Z</time>
        <extensions>
          <ns3:TrackPointExtension>
            <ns3:atemp>28.0</ns3:atemp>
          </ns3:TrackPointExtension>
        </extensions>
      </trkpt>
      <trkpt lat="42.5363548099994659423828125" lon="19.95280827395617961883544921875">
        <ele>1531.5999755859375</ele>
        <time>2026-06-17T08:51:07.000Z</time>
        <extensions>
          <ns3:TrackPointExtension>
            <ns3:atemp>28.0</ns3:atemp>
          </ns3:TrackPointExtension>
        </extensions>
      </trkpt>
      <trkpt lat="42.53633393906056880950927734375" lon="19.9528202600777149200439453125">
        <ele>1531.800048828125</ele>
        <time>2026-06-17T08:51:08.000Z</time>
        <extensions>
          <ns3:TrackPointExtension>
            <ns3:atemp>28.0</ns3:atemp>
          </ns3:TrackPointExtension>
        </extensions>
      </trkpt>
      <trkpt lat="42.5363164208829402923583984375" lon="19.95283660478889942169189453125">
        <ele>1532</ele>
        <time>2026-06-17T08:51:09.000Z</time>
        <extensions>
          <ns3:TrackPointExtension>
            <ns3:atemp>28.0</ns3:atemp>
          </ns3:TrackPointExtension>
        </extensions>
      </trkpt>
      <trkpt lat="42.53629689104855060577392578125" lon="19.95285286568105220794677734375">
        <ele>1532.199951171875</ele>
        <time>2026-06-17T08:51:10.000Z</time>
        <extensions>
          <ns3:TrackPointExtension>
            <ns3:atemp>28.0</ns3:atemp>
          </ns3:TrackPointExtension>
        </extensions>
      </trkpt>
      <trkpt lat="42.53627836704254150390625" lon="19.9528692103922367095947265625">
        <ele>1532.5999755859375</ele>
        <time>2026-06-17T08:51:11.000Z</time>
        <extensions>
          <ns3:TrackPointExtension>
            <ns3:atemp>28.0</ns3:atemp>
          </ns3:TrackPointExtension>
        </extensions>
      </trkpt>
      <trkpt lat="42.5362584181129932403564453125" lon="19.952883459627628326416015625">
        <ele>1533</ele>
        <time>2026-06-17T08:51:12.000Z</time>
        <extensions>
          <ns3:TrackPointExtension>
            <ns3:atemp>28.0</ns3:atemp>
          </ns3:TrackPointExtension>
        </extensions>
      </trkpt>
      <trkpt lat="42.5362356193363666534423828125" lon="19.95289318263530731201171875">
        <ele>1533.4000244140625</ele>
        <time>2026-06-17T08:51:13.000Z</time>
        <extensions>
          <ns3:TrackPointExtension>
            <ns3:atemp>28.0</ns3:atemp>
          </ns3:TrackPointExtension>
        </extensions>
      </trkpt>
      <trkpt lat="42.53620921634137630462646484375" lon="19.9529111199080944061279296875">
        <ele>1533.5999755859375</ele>
        <time>2026-06-17T08:51:14.000Z</time>
        <extensions>
          <ns3:TrackPointExtension>
            <ns3:atemp>28.0</ns3:atemp>
          </ns3:TrackPointExtension>
        </extensions>
      </trkpt>
      <trkpt lat="42.53618717193603515625" lon="19.9529285542666912078857421875">
        <ele>1534</ele>
        <time>2026-06-17T08:51:15.000Z</time>
        <extensions>
          <ns3:TrackPointExtension>
            <ns3:atemp>28.0</ns3:atemp>
          </ns3:TrackPointExtension>
        </extensions>
      </trkpt>
      <trkpt lat="42.53616345115005970001220703125" lon="19.9529493413865566253662109375">
        <ele>1534.4000244140625</ele>
        <time>2026-06-17T08:51:16.000Z</time>
        <extensions>
          <ns3:TrackPointExtension>
            <ns3:atemp>28.0</ns3:atemp>
          </ns3:TrackPointExtension>
        </extensions>
      </trkpt>
      <trkpt lat="42.53614551387727260589599609375" lon="19.95296183042228221893310546875">
        <ele>1534.800048828125</ele>
        <time>2026-06-17T08:51:17.000Z</time>
        <extensions>
          <ns3:TrackPointExtension>
            <ns3:atemp>28.0</ns3:atemp>
          </ns3:TrackPointExtension>
        </extensions>
      </trkpt>
      <trkpt lat="42.53612522967159748077392578125" lon="19.95296962559223175048828125">
        <ele>1535</ele>
        <time>2026-06-17T08:51:18.000Z</time>
        <extensions>
          <ns3:TrackPointExtension>
            <ns3:atemp>28.0</ns3:atemp>
          </ns3:TrackPointExtension>
        </extensions>
      </trkpt>
      <trkpt lat="42.53610813058912754058837890625" lon="19.95298479683697223663330078125">
        <ele>1535.199951171875</ele>
        <time>2026-06-17T08:51:19.000Z</time>
        <extensions>
          <ns3:TrackPointExtension>
            <ns3:atemp>28.0</ns3:atemp>
          </ns3:TrackPointExtension>
        </extensions>
      </trkpt>
      <trkpt lat="42.53608382306993007659912109375" lon="19.95299954898655414581298828125">
        <ele>1535.4000244140625</ele>
        <time>2026-06-17T08:51:20.000Z</time>
        <extensions>
          <ns3:TrackPointExtension>
            <ns3:atemp>28.0</ns3:atemp>
          </ns3:TrackPointExtension>
        </extensions>
      </trkpt>
      <trkpt lat="42.53606311976909637451171875" lon="19.95300407521426677703857421875">
        <ele>1535.800048828125</ele>
        <time>2026-06-17T08:51:21.000Z</time>
        <extensions>
          <ns3:TrackPointExtension>
            <ns3:atemp>28.0</ns3:atemp>
          </ns3:TrackPointExtension>
        </extensions>
      </trkpt>
      <trkpt lat="42.5360414944589138031005859375" lon="19.95300910435616970062255859375">
        <ele>1536</ele>
        <time>2026-06-17T08:51:22.000Z</time>
        <extensions>
          <ns3:TrackPointExtension>
            <ns3:atemp>28.0</ns3:atemp>
          </ns3:TrackPointExtension>
        </extensions>
      </trkpt>
      <trkpt lat="42.536015175282955169677734375" lon="19.95301111601293087005615234375">
        <ele>1536.4000244140625</ele>
        <time>2026-06-17T08:51:23.000Z</time>
        <extensions>
          <ns3:TrackPointExtension>
            <ns3:atemp>28.0</ns3:atemp>
          </ns3:TrackPointExtension>
        </extensions>
      </trkpt>
      <trkpt lat="42.5359928794205188751220703125" lon="19.9530212581157684326171875">
        <ele>1536.5999755859375</ele>
        <time>2026-06-17T08:51:24.000Z</time>
        <extensions>
          <ns3:TrackPointExtension>
            <ns3:atemp>28.0</ns3:atemp>
          </ns3:TrackPointExtension>
        </extensions>
      </trkpt>
      <trkpt lat="42.53596513532102108001708984375" lon="19.9530319869518280029296875">
        <ele>1537</ele>
        <time>2026-06-17T08:51:25.000Z</time>
        <extensions>
          <ns3:TrackPointExtension>
            <ns3:atemp>28.0</ns3:atemp>
          </ns3:TrackPointExtension>
        </extensions>
      </trkpt>
      <trkpt lat="42.53593881614506244659423828125" lon="19.9530385248363018035888671875">
        <ele>1537.199951171875</ele>
        <time>2026-06-17T08:51:26.000Z</time>
        <extensions>
          <ns3:TrackPointExtension>
            <ns3:atemp>28.0</ns3:atemp>
          </ns3:TrackPointExtension>
        </extensions>
      </trkpt>
      <trkpt lat="42.53591316752135753631591796875" lon="19.95304615236818790435791015625">
        <ele>1537.199951171875</ele>
        <time>2026-06-17T08:51:27.000Z</time>
        <extensions>
          <ns3:TrackPointExtension>
            <ns3:atemp>28.0</ns3:atemp>
          </ns3:TrackPointExtension>
        </extensions>
      </trkpt>
      <trkpt lat="42.5358881056308746337890625" lon="19.9530512653291225433349609375">
        <ele>1537.5999755859375</ele>
        <time>2026-06-17T08:51:28.000Z</time>
        <extensions>
          <ns3:TrackPointExtension>
            <ns3:atemp>28.0</ns3:atemp>
          </ns3:TrackPointExtension>
        </extensions>
      </trkpt>
      <trkpt lat="42.535862289369106292724609375" lon="19.9530640058219432830810546875">
        <ele>1537.800048828125</ele>
        <time>2026-06-17T08:51:29.000Z</time>
        <extensions>
          <ns3:TrackPointExtension>
            <ns3:atemp>28.0</ns3:atemp>
          </ns3:TrackPointExtension>
        </extensions>
      </trkpt>
      <trkpt lat="42.5358336232602596282958984375" lon="19.95306626893579959869384765625">
        <ele>1538.199951171875</ele>
        <time>2026-06-17T08:51:30.000Z</time>
        <extensions>
          <ns3:TrackPointExtension>
            <ns3:atemp>28.0</ns3:atemp>
          </ns3:TrackPointExtension>
        </extensions>
      </trkpt>
      <trkpt lat="42.535804621875286102294921875" lon="19.953063167631626129150390625">
        <ele>1538.5999755859375</ele>
        <time>2026-06-17T08:51:31.000Z</time>
        <extensions>
          <ns3:TrackPointExtension>
            <ns3:atemp>28.0</ns3:atemp>
          </ns3:TrackPointExtension>
        </extensions>
      </trkpt>
      <trkpt lat="42.535776458680629730224609375" lon="19.95306023396551609039306640625">
        <ele>1539</ele>
        <time>2026-06-17T08:51:32.000Z</time>
        <extensions>
          <ns3:TrackPointExtension>
            <ns3:atemp>28.0</ns3:atemp>
          </ns3:TrackPointExtension>
        </extensions>
      </trkpt>
      <trkpt lat="42.53574770875275135040283203125" lon="19.95304581709206104278564453125">
        <ele>1539.199951171875</ele>
        <time>2026-06-17T08:51:33.000Z</time>
        <extensions>
          <ns3:TrackPointExtension>
            <ns3:atemp>28.0</ns3:atemp>
          </ns3:TrackPointExtension>
        </extensions>
      </trkpt>
      <trkpt lat="42.5357244908809661865234375" lon="19.95303525589406490325927734375">
        <ele>1539.5999755859375</ele>
        <time>2026-06-17T08:51:34.000Z</time>
        <extensions>
          <ns3:TrackPointExtension>
            <ns3:atemp>28.0</ns3:atemp>
          </ns3:TrackPointExtension>
        </extensions>
      </trkpt>
      <trkpt lat="42.53569657914340496063232421875" lon="19.953026957809925079345703125">
        <ele>1539.800048828125</ele>
        <time>2026-06-17T08:51:35.000Z</time>
        <extensions>
          <ns3:TrackPointExtension>
            <ns3:atemp>28.0</ns3:atemp>
          </ns3:TrackPointExtension>
        </extensions>
      </trkpt>
      <trkpt lat="42.53566741012036800384521484375" lon="19.95301463641226291656494140625">
        <ele>1540</ele>
        <time>2026-06-17T08:51:36.000Z</time>
        <extensions>
          <ns3:TrackPointExtension>
            <ns3:atemp>28.0</ns3:atemp>
          </ns3:TrackPointExtension>
        </extensions>
      </trkpt>
      <trkpt lat="42.535641007125377655029296875" lon="19.95300290174782276153564453125">
        <ele>1540</ele>
        <time>2026-06-17T08:51:37.000Z</time>
        <extensions>
          <ns3:TrackPointExtension>
            <ns3:atemp>28.0</ns3:atemp>
          </ns3:TrackPointExtension>
        </extensions>
      </trkpt>
      <trkpt lat="42.53561493940651416778564453125" lon="19.9529922567307949066162109375">
        <ele>1540</ele>
        <time>2026-06-17T08:51:38.000Z</time>
        <extensions>
          <ns3:TrackPointExtension>
            <ns3:atemp>28.0</ns3:atemp>
          </ns3:TrackPointExtension>
        </extensions>
      </trkpt>
      <trkpt lat="42.53558702766895294189453125" lon="19.95298597030341625213623046875">
        <ele>1540.199951171875</ele>
        <time>2026-06-17T08:51:39.000Z</time>
        <extensions>
          <ns3:TrackPointExtension>
            <ns3:atemp>28.0</ns3:atemp>
          </ns3:TrackPointExtension>
        </extensions>
      </trkpt>
      <trkpt lat="42.53555760718882083892822265625" lon="19.95298647321760654449462890625">
        <ele>1540.4000244140625</ele>
        <time>2026-06-17T08:51:40.000Z</time>
        <extensions>
          <ns3:TrackPointExtension>
            <ns3:atemp>28.0</ns3:atemp>
          </ns3:TrackPointExtension>
        </extensions>
      </trkpt>
      <trkpt lat="42.53552525304257869720458984375" lon="19.9529919214546680450439453125">
        <ele>1540.4000244140625</ele>
        <time>2026-06-17T08:51:41.000Z</time>
        <extensions>
          <ns3:TrackPointExtension>
            <ns3:atemp>28.0</ns3:atemp>
          </ns3:TrackPointExtension>
        </extensions>
      </trkpt>
      <trkpt lat="42.53550245426595211029052734375" lon="19.9529976211488246917724609375">
        <ele>1540.5999755859375</ele>
        <time>2026-06-17T08:51:42.000Z</time>
        <extensions>
          <ns3:TrackPointExtension>
            <ns3:atemp>28.0</ns3:atemp>
          </ns3:TrackPointExtension>
        </extensions>
      </trkpt>
      <trkpt lat="42.53547445870935916900634765625" lon="19.9530039913952350616455078125">
        <ele>1540.800048828125</ele>
        <time>2026-06-17T08:51:43.000Z</time>
        <extensions>
          <ns3:TrackPointExtension>
            <ns3:atemp>28.0</ns3:atemp>
          </ns3:TrackPointExtension>
        </extensions>
      </trkpt>
      <trkpt lat="42.53544352948665618896484375" lon="19.9530076794326305389404296875">
        <ele>1541</ele>
        <time>2026-06-17T08:51:44.000Z</time>
        <extensions>
          <ns3:TrackPointExtension>
            <ns3:atemp>28.0</ns3:atemp>
          </ns3:TrackPointExtension>
        </extensions>
      </trkpt>
      <trkpt lat="42.53541427664458751678466796875" lon="19.95302167721092700958251953125">
        <ele>1541.199951171875</ele>
        <time>2026-06-17T08:51:45.000Z</time>
        <extensions>
          <ns3:TrackPointExtension>
            <ns3:atemp>28.0</ns3:atemp>
          </ns3:TrackPointExtension>
        </extensions>
      </trkpt>
      <trkpt lat="42.53538007847964763641357421875" lon="19.9530442245304584503173828125">
        <ele>1541.199951171875</ele>
        <time>2026-06-17T08:51:46.000Z</time>
        <extensions>
          <ns3:TrackPointExtension>
            <ns3:atemp>28.0</ns3:atemp>
          </ns3:TrackPointExtension>
        </extensions>
      </trkpt>
      <trkpt lat="42.53533917479217052459716796875" lon="19.95306911878287792205810546875">
        <ele>1541</ele>
        <time>2026-06-17T08:51:47.000Z</time>
        <extensions>
          <ns3:TrackPointExtension>
            <ns3:atemp>28.0</ns3:atemp>
          </ns3:TrackPointExtension>
        </extensions>
      </trkpt>
      <trkpt lat="42.53530112095177173614501953125" lon="19.9530938453972339630126953125">
        <ele>1540.800048828125</ele>
        <time>2026-06-17T08:51:48.000Z</time>
        <extensions>
          <ns3:TrackPointExtension>
            <ns3:atemp>28.0</ns3:atemp>
          </ns3:TrackPointExtension>
        </extensions>
      </trkpt>
      <trkpt lat="42.5352633185684680938720703125" lon="19.95311924256384372711181640625">
        <ele>1540.4000244140625</ele>
        <time>2026-06-17T08:51:49.000Z</time>
        <extensions>
          <ns3:TrackPointExtension>
            <ns3:atemp>28.0</ns3:atemp>
          </ns3:TrackPointExtension>
        </extensions>
      </trkpt>
      <trkpt lat="42.5352324731647968292236328125" lon="19.95315494947135448455810546875">
        <ele>1539.800048828125</ele>
        <time>2026-06-17T08:51:50.000Z</time>
        <extensions>
          <ns3:TrackPointExtension>
            <ns3:atemp>28.0</ns3:atemp>
          </ns3:TrackPointExtension>
        </extensions>
      </trkpt>
      <trkpt lat="42.5352002866566181182861328125" lon="19.95319166220724582672119140625">
        <ele>1539.5999755859375</ele>
        <time>2026-06-17T08:51:51.000Z</time>
        <extensions>
          <ns3:TrackPointExtension>
            <ns3:atemp>28.0</ns3:atemp>
          </ns3:TrackPointExtension>
        </extensions>
      </trkpt>
      <trkpt lat="42.53516885451972484588623046875" lon="19.95322066359221935272216796875">
        <ele>1539.4000244140625</ele>
        <time>2026-06-17T08:51:52.000Z</time>
        <extensions>
          <ns3:TrackPointExtension>
            <ns3:atemp>28.0</ns3:atemp>
          </ns3:TrackPointExtension>
        </extensions>
      </trkpt>
      <trkpt lat="42.53513733856379985809326171875" lon="19.9532621540129184722900390625">
        <ele>1539.199951171875</ele>
        <time>2026-06-17T08:51:53.000Z</time>
        <extensions>
          <ns3:TrackPointExtension>
            <ns3:atemp>28.0</ns3:atemp>
          </ns3:TrackPointExtension>
        </extensions>
      </trkpt>
      <trkpt lat="42.53510347567498683929443359375" lon="19.95330758392810821533203125">
        <ele>1538.800048828125</ele>
        <time>2026-06-17T08:51:54.000Z</time>
        <extensions>
          <ns3:TrackPointExtension>
            <ns3:atemp>28.0</ns3:atemp>
          </ns3:TrackPointExtension>
        </extensions>
      </trkpt>
      <trkpt lat="42.5350700318813323974609375" lon="19.9533510021865367889404296875">
        <ele>1538.4000244140625</ele>
        <time>2026-06-17T08:51:55.000Z</time>
        <extensions>
          <ns3:TrackPointExtension>
            <ns3:atemp>28.0</ns3:atemp>
          </ns3:TrackPointExtension>
        </extensions>
      </trkpt>
      <trkpt lat="42.53503943793475627899169921875" lon="19.95339953340590000152587890625">
        <ele>1538</ele>
        <time>2026-06-17T08:51:56.000Z</time>
        <extensions>
          <ns3:TrackPointExtension>
            <ns3:atemp>28.0</ns3:atemp>
          </ns3:TrackPointExtension>
        </extensions>
      </trkpt>
      <trkpt lat="42.535018064081668853759765625" lon="19.953448064625263214111328125">
        <ele>1537.4000244140625</ele>
        <time>2026-06-17T08:51:57.000Z</time>
        <extensions>
          <ns3:TrackPointExtension>
            <ns3:atemp>28.0</ns3:atemp>
          </ns3:TrackPointExtension>
        </extensions>
      </trkpt>
      <trkpt lat="42.5350001268088817596435546875" lon="19.95349911041557788848876953125">
        <ele>1537.199951171875</ele>
        <time>2026-06-17T08:51:58.000Z</time>
        <extensions>
          <ns3:TrackPointExtension>
            <ns3:atemp>28.0</ns3:atemp>
          </ns3:TrackPointExtension>
        </extensions>
      </trkpt>
      <trkpt lat="42.534979172050952911376953125" lon="19.9535508267581462860107421875">
        <ele>1536.800048828125</ele>
        <time>2026-06-17T08:51:59.000Z</time>
        <extensions>
          <ns3:TrackPointExtension>
            <ns3:atemp>28.0</ns3:atemp>
          </ns3:TrackPointExtension>
        </extensions>
      </trkpt>
      <trkpt lat="42.53494732081890106201171875" lon="19.95359231717884540557861328125">
        <ele>1536.4000244140625</ele>
        <time>2026-06-17T08:52:00.000Z</time>
        <extensions>
          <ns3:TrackPointExtension>
            <ns3:atemp>28.0</ns3:atemp>
          </ns3:TrackPointExtension>
        </extensions>
      </trkpt>
      <trkpt lat="42.5349169783294200897216796875" lon="19.95362542569637298583984375">
        <ele>1536</ele>
        <time>2026-06-17T08:52:01.000Z</time>
        <extensions>
          <ns3:TrackPointExtension>
            <ns3:atemp>28.0</ns3:atemp>
          </ns3:TrackPointExtension>
        </extensions>
      </trkpt>
      <trkpt lat="42.53488822840154170989990234375" lon="19.9536517448723316192626953125">
        <ele>1535.800048828125</ele>
        <time>2026-06-17T08:52:02.000Z</time>
        <extensions>
          <ns3:TrackPointExtension>
            <ns3:atemp>28.0</ns3:atemp>
          </ns3:TrackPointExtension>
        </extensions>
      </trkpt>
      <trkpt lat="42.53486576490104198455810546875" lon="19.95366892777383327484130859375">
        <ele>1535.5999755859375</ele>
        <time>2026-06-17T08:52:03.000Z</time>
        <extensions>
          <ns3:TrackPointExtension>
            <ns3:atemp>28.0</ns3:atemp>
          </ns3:TrackPointExtension>
        </extensions>
      </trkpt>
      <trkpt lat="42.5348474085330963134765625" lon="19.95368351228535175323486328125">
        <ele>1535.5999755859375</ele>
        <time>2026-06-17T08:52:04.000Z</time>
        <extensions>
          <ns3:TrackPointExtension>
            <ns3:atemp>28.0</ns3:atemp>
          </ns3:TrackPointExtension>
        </extensions>
      </trkpt>
      <trkpt lat="42.5348355062305927276611328125" lon="19.9537020362913608551025390625">
        <ele>1535.800048828125</ele>
        <time>2026-06-17T08:52:05.000Z</time>
        <extensions>
          <ns3:TrackPointExtension>
            <ns3:atemp>28.0</ns3:atemp>
          </ns3:TrackPointExtension>
        </extensions>
      </trkpt>
      <trkpt lat="42.534821927547454833984375" lon="19.953725002706050872802734375">
        <ele>1536</ele>
        <time>2026-06-17T08:52:06.000Z</time>
        <extensions>
          <ns3:TrackPointExtension>
            <ns3:atemp>28.0</ns3:atemp>
          </ns3:TrackPointExtension>
        </extensions>
      </trkpt>
      <trkpt lat="42.53480306826531887054443359375" lon="19.95373782701790332794189453125">
        <ele>1536.199951171875</ele>
        <time>2026-06-17T08:52:07.000Z</time>
        <extensions>
          <ns3:TrackPointExtension>
            <ns3:atemp>28.0</ns3:atemp>
          </ns3:TrackPointExtension>
        </extensions>
      </trkpt>
      <trkpt lat="42.5347878970205783843994140625" lon="19.9537526629865169525146484375">
        <ele>1536.4000244140625</ele>
        <time>2026-06-17T08:52:08.000Z</time>
        <extensions>
          <ns3:TrackPointExtension>
            <ns3:atemp>28.0</ns3:atemp>
          </ns3:TrackPointExtension>
        </extensions>
      </trkpt>
      <trkpt lat="42.53477255813777446746826171875" lon="19.95376892387866973876953125">
        <ele>1536.5999755859375</ele>
        <time>2026-06-17T08:52:09.000Z</time>
        <extensions>
          <ns3:TrackPointExtension>
            <ns3:atemp>28.0</ns3:atemp>
          </ns3:TrackPointExtension>
        </extensions>
      </trkpt>
      <trkpt lat="42.53475545905530452728271484375" lon="19.9537871964275836944580078125">
        <ele>1536.800048828125</ele>
        <time>2026-06-17T08:52:10.000Z</time>
        <extensions>
          <ns3:TrackPointExtension>
            <ns3:atemp>28.0</ns3:atemp>
          </ns3:TrackPointExtension>
        </extensions>
      </trkpt>
      <trkpt lat="42.5347322411835193634033203125" lon="19.95379851199686527252197265625">
        <ele>1536.800048828125</ele>
        <time>2026-06-17T08:52:11.000Z</time>
        <extensions>
          <ns3:TrackPointExtension>
            <ns3:atemp>28.0</ns3:atemp>
          </ns3:TrackPointExtension>
        </extensions>
      </trkpt>
      <trkpt lat="42.53471237607300281524658203125" lon="19.95381225831806659698486328125">
        <ele>1537</ele>
        <time>2026-06-17T08:52:12.000Z</time>
        <extensions>
          <ns3:TrackPointExtension>
            <ns3:atemp>28.0</ns3:atemp>
          </ns3:TrackPointExtension>
        </extensions>
      </trkpt>
      <trkpt lat="42.53469175659120082855224609375" lon="19.95382717810571193695068359375">
        <ele>1537.199951171875</ele>
        <time>2026-06-17T08:52:13.000Z</time>
        <extensions>
          <ns3:TrackPointExtension>
            <ns3:atemp>28.0</ns3:atemp>
          </ns3:TrackPointExtension>
        </extensions>
      </trkpt>
      <trkpt lat="42.53467130474746227264404296875" lon="19.95383824221789836883544921875">
        <ele>1537.4000244140625</ele>
        <time>2026-06-17T08:52:14.000Z</time>
        <extensions>
          <ns3:TrackPointExtension>
            <ns3:atemp>28.0</ns3:atemp>
          </ns3:TrackPointExtension>
        </extensions>
      </trkpt>
      <trkpt lat="42.53465102054178714752197265625" lon="19.9538555927574634552001953125">
        <ele>1537.5999755859375</ele>
        <time>2026-06-17T08:52:15.000Z</time>
        <extensions>
          <ns3:TrackPointExtension>
            <ns3:atemp>28.0</ns3:atemp>
          </ns3:TrackPointExtension>
        </extensions>
      </trkpt>
      <trkpt lat="42.5346293114125728607177734375" lon="19.9538690038025379180908203125">
        <ele>1537.800048828125</ele>
        <time>2026-06-17T08:52:16.000Z</time>
        <extensions>
          <ns3:TrackPointExtension>
            <ns3:atemp>28.0</ns3:atemp>
          </ns3:TrackPointExtension>
        </extensions>
      </trkpt>
      <trkpt lat="42.53461129032075405120849609375" lon="19.95388316921889781951904296875">
        <ele>1538</ele>
        <time>2026-06-17T08:52:17.000Z</time>
        <extensions>
          <ns3:TrackPointExtension>
            <ns3:atemp>28.0</ns3:atemp>
          </ns3:TrackPointExtension>
        </extensions>
      </trkpt>
      <trkpt lat="42.5345961190760135650634765625" lon="19.95389440096914768218994140625">
        <ele>1538.4000244140625</ele>
        <time>2026-06-17T08:52:18.000Z</time>
        <extensions>
          <ns3:TrackPointExtension>
            <ns3:atemp>28.0</ns3:atemp>
          </ns3:TrackPointExtension>
        </extensions>
      </trkpt>
      <trkpt lat="42.53458254039287567138671875" lon="19.95391250587999820709228515625">
        <ele>1538.800048828125</ele>
        <time>2026-06-17T08:52:19.000Z</time>
        <extensions>
          <ns3:TrackPointExtension>
            <ns3:atemp>28.0</ns3:atemp>
          </ns3:TrackPointExtension>
        </extensions>
      </trkpt>
      <trkpt lat="42.53457088954746723175048828125" lon="19.9539286829531192779541015625">
        <ele>1539.199951171875</ele>
        <time>2026-06-17T08:52:20.000Z</time>
        <extensions>
          <ns3:TrackPointExtension>
            <ns3:atemp>28.0</ns3:atemp>
          </ns3:TrackPointExtension>
        </extensions>
      </trkpt>
      <trkpt lat="42.53455429337918758392333984375" lon="19.95394921861588954925537109375">
        <ele>1539.5999755859375</ele>
        <time>2026-06-17T08:52:21.000Z</time>
        <extensions>
          <ns3:TrackPointExtension>
            <ns3:atemp>28.0</ns3:atemp>
          </ns3:TrackPointExtension>
        </extensions>
      </trkpt>
      <trkpt lat="42.53453752957284450531005859375" lon="19.95396162383258342742919921875">
        <ele>1539.800048828125</ele>
        <time>2026-06-17T08:52:22.000Z</time>
        <extensions>
          <ns3:TrackPointExtension>
            <ns3:atemp>28.0</ns3:atemp>
          </ns3:TrackPointExtension>
        </extensions>
      </trkpt>
      <trkpt lat="42.5345139764249324798583984375" lon="19.95397537015378475189208984375">
        <ele>1540</ele>
        <time>2026-06-17T08:52:23.000Z</time>
        <extensions>
          <ns3:TrackPointExtension>
            <ns3:atemp>28.0</ns3:atemp>
          </ns3:TrackPointExtension>
        </extensions>
      </trkpt>
      <trkpt lat="42.53449729643762111663818359375" lon="19.953989870846271514892578125">
        <ele>1540.199951171875</ele>
        <time>2026-06-17T08:52:24.000Z</time>
        <extensions>
          <ns3:TrackPointExtension>
            <ns3:atemp>28.0</ns3:atemp>
          </ns3:TrackPointExtension>
        </extensions>
      </trkpt>
      <trkpt lat="42.53447365947067737579345703125" lon="19.95400118641555309295654296875">
        <ele>1540.4000244140625</ele>
        <time>2026-06-17T08:52:25.000Z</time>
        <extensions>
          <ns3:TrackPointExtension>
            <ns3:atemp>28.0</ns3:atemp>
          </ns3:TrackPointExtension>
        </extensions>
      </trkpt>
      <trkpt lat="42.5344479270279407501220703125" lon="19.9540108256042003631591796875">
        <ele>1540.800048828125</ele>
        <time>2026-06-17T08:52:26.000Z</time>
        <extensions>
          <ns3:TrackPointExtension>
            <ns3:atemp>28.0</ns3:atemp>
          </ns3:TrackPointExtension>
        </extensions>
      </trkpt>
      <trkpt lat="42.53442755900323390960693359375" lon="19.95402046479284763336181640625">
        <ele>1541</ele>
        <time>2026-06-17T08:52:27.000Z</time>
        <extensions>
          <ns3:TrackPointExtension>
            <ns3:atemp>28.0</ns3:atemp>
          </ns3:TrackPointExtension>
        </extensions>
      </trkpt>
      <trkpt lat="42.53440325148403644561767578125" lon="19.95402909815311431884765625">
        <ele>1541.199951171875</ele>
        <time>2026-06-17T08:52:28.000Z</time>
        <extensions>
          <ns3:TrackPointExtension>
            <ns3:atemp>28.0</ns3:atemp>
          </ns3:TrackPointExtension>
        </extensions>
      </trkpt>
      <trkpt lat="42.53437978215515613555908203125" lon="19.95403639040887355804443359375">
        <ele>1541.5999755859375</ele>
        <time>2026-06-17T08:52:29.000Z</time>
        <extensions>
          <ns3:TrackPointExtension>
            <ns3:atemp>28.0</ns3:atemp>
          </ns3:TrackPointExtension>
        </extensions>
      </trkpt>
      <trkpt lat="42.53435966558754444122314453125" lon="19.9540458619594573974609375">
        <ele>1541.800048828125</ele>
        <time>2026-06-17T08:52:30.000Z</time>
        <extensions>
          <ns3:TrackPointExtension>
            <ns3:atemp>28.0</ns3:atemp>
          </ns3:TrackPointExtension>
        </extensions>
      </trkpt>
      <trkpt lat="42.53433451987802982330322265625" lon="19.95405147783458232879638671875">
        <ele>1542</ele>
        <time>2026-06-17T08:52:31.000Z</time>
        <extensions>
          <ns3:TrackPointExtension>
            <ns3:atemp>28.0</ns3:atemp>
          </ns3:TrackPointExtension>
        </extensions>
      </trkpt>
      <trkpt lat="42.53431356512010097503662109375" lon="19.95405617170035839080810546875">
        <ele>1542.199951171875</ele>
        <time>2026-06-17T08:52:32.000Z</time>
        <extensions>
          <ns3:TrackPointExtension>
            <ns3:atemp>28.0</ns3:atemp>
          </ns3:TrackPointExtension>
        </extensions>
      </trkpt>
      <trkpt lat="42.53428758122026920318603515625" lon="19.954061619937419891357421875">
        <ele>1542.4000244140625</ele>
        <time>2026-06-17T08:52:33.000Z</time>
        <extensions>
          <ns3:TrackPointExtension>
            <ns3:atemp>28.0</ns3:atemp>
          </ns3:TrackPointExtension>
        </extensions>
      </trkpt>
      <trkpt lat="42.5342618487775325775146484375" lon="19.9540725164115428924560546875">
        <ele>1542.5999755859375</ele>
        <time>2026-06-17T08:52:34.000Z</time>
        <extensions>
          <ns3:TrackPointExtension>
            <ns3:atemp>28.0</ns3:atemp>
          </ns3:TrackPointExtension>
        </extensions>
      </trkpt>
      <trkpt lat="42.53424198366701602935791015625" lon="19.95408433489501476287841796875">
        <ele>1542.800048828125</ele>
        <time>2026-06-17T08:52:35.000Z</time>
        <extensions>
          <ns3:TrackPointExtension>
            <ns3:atemp>28.0</ns3:atemp>
          </ns3:TrackPointExtension>
        </extensions>
      </trkpt>
      <trkpt lat="42.534220777451992034912109375" lon="19.95408450253307819366455078125">
        <ele>1543</ele>
        <time>2026-06-17T08:52:36.000Z</time>
        <extensions>
          <ns3:TrackPointExtension>
            <ns3:atemp>28.0</ns3:atemp>
          </ns3:TrackPointExtension>
        </extensions>
      </trkpt>
      <trkpt lat="42.5341983139514923095703125" lon="19.95409187860786914825439453125">
        <ele>1543.4000244140625</ele>
        <time>2026-06-17T08:52:37.000Z</time>
        <extensions>
          <ns3:TrackPointExtension>
            <ns3:atemp>28.0</ns3:atemp>
          </ns3:TrackPointExtension>
        </extensions>
      </trkpt>
      <trkpt lat="42.53417844884097576141357421875" lon="19.95409288443624973297119140625">
        <ele>1543.5999755859375</ele>
        <time>2026-06-17T08:52:38.000Z</time>
        <extensions>
          <ns3:TrackPointExtension>
            <ns3:atemp>28.0</ns3:atemp>
          </ns3:TrackPointExtension>
        </extensions>
      </trkpt>
      <trkpt lat="42.53415816463530063629150390625" lon="19.95410311035811901092529296875">
        <ele>1543.800048828125</ele>
        <time>2026-06-17T08:52:39.000Z</time>
        <extensions>
          <ns3:TrackPointExtension>
            <ns3:atemp>28.0</ns3:atemp>
          </ns3:TrackPointExtension>
        </extensions>
      </trkpt>
      <trkpt lat="42.534140311181545257568359375" lon="19.95411115698516368865966796875">
        <ele>1544</ele>
        <time>2026-06-17T08:52:40.000Z</time>
        <extensions>
          <ns3:TrackPointExtension>
            <ns3:atemp>28.0</ns3:atemp>
          </ns3:TrackPointExtension>
        </extensions>
      </trkpt>
      <trkpt lat="42.534121535718441009521484375" lon="19.9541214667260646820068359375">
        <ele>1544.199951171875</ele>
        <time>2026-06-17T08:52:41.000Z</time>
        <extensions>
          <ns3:TrackPointExtension>
            <ns3:atemp>28.0</ns3:atemp>
          </ns3:TrackPointExtension>
        </extensions>
      </trkpt>
      <trkpt lat="42.5340999104082584381103515625" lon="19.95413194410502910614013671875">
        <ele>1544.199951171875</ele>
        <time>2026-06-17T08:52:42.000Z</time>
        <extensions>
          <ns3:TrackPointExtension>
            <ns3:atemp>28.0</ns3:atemp>
          </ns3:TrackPointExtension>
        </extensions>
      </trkpt>
      <trkpt lat="42.5340824760496616363525390625" lon="19.95414803735911846160888671875">
        <ele>1544.4000244140625</ele>
        <time>2026-06-17T08:52:43.000Z</time>
        <extensions>
          <ns3:TrackPointExtension>
            <ns3:atemp>28.0</ns3:atemp>
          </ns3:TrackPointExtension>
        </extensions>
      </trkpt>
      <trkpt lat="42.5340633653104305267333984375" lon="19.95415910147130489349365234375">
        <ele>1544.5999755859375</ele>
        <time>2026-06-17T08:52:44.000Z</time>
        <extensions>
          <ns3:TrackPointExtension>
            <ns3:atemp>28.0</ns3:atemp>
          </ns3:TrackPointExtension>
        </extensions>
      </trkpt>
      <trkpt lat="42.53404207527637481689453125" lon="19.95417200960218906402587890625">
        <ele>1544.800048828125</ele>
        <time>2026-06-17T08:52:45.000Z</time>
        <extensions>
          <ns3:TrackPointExtension>
            <ns3:atemp>28.0</ns3:atemp>
          </ns3:TrackPointExtension>
        </extensions>
      </trkpt>
      <trkpt lat="42.5340221263468265533447265625" lon="19.9541831575334072113037109375">
        <ele>1545</ele>
        <time>2026-06-17T08:52:46.000Z</time>
        <extensions>
          <ns3:TrackPointExtension>
            <ns3:atemp>28.0</ns3:atemp>
          </ns3:TrackPointExtension>
        </extensions>
      </trkpt>
      <trkpt lat="42.53400259651243686676025390625" lon="19.954201094806194305419921875">
        <ele>1545</ele>
        <time>2026-06-17T08:52:47.000Z</time>
        <extensions>
          <ns3:TrackPointExtension>
            <ns3:atemp>28.0</ns3:atemp>
          </ns3:TrackPointExtension>
        </extensions>
      </trkpt>
      <trkpt lat="42.53397996537387371063232421875" lon="19.95421676896512508392333984375">
        <ele>1545</ele>
        <time>2026-06-17T08:52:48.000Z</time>
        <extensions>
          <ns3:TrackPointExtension>
            <ns3:atemp>28.0</ns3:atemp>
          </ns3:TrackPointExtension>
        </extensions>
      </trkpt>
      <trkpt lat="42.53396186046302318572998046875" lon="19.95423152111470699310302734375">
        <ele>1545.199951171875</ele>
        <time>2026-06-17T08:52:49.000Z</time>
        <extensions>
          <ns3:TrackPointExtension>
            <ns3:atemp>28.0</ns3:atemp>
          </ns3:TrackPointExtension>
        </extensions>
      </trkpt>
      <trkpt lat="42.53394844941794872283935546875" lon="19.95424359105527400970458984375">
        <ele>1545.4000244140625</ele>
        <time>2026-06-17T08:52:50.000Z</time>
        <extensions>
          <ns3:TrackPointExtension>
            <ns3:atemp>28.0</ns3:atemp>
          </ns3:TrackPointExtension>
        </extensions>
      </trkpt>
      <trkpt lat="42.53393051214516162872314453125" lon="19.95425147004425525665283203125">
        <ele>1545.5999755859375</ele>
        <time>2026-06-17T08:52:51.000Z</time>
        <extensions>
          <ns3:TrackPointExtension>
            <ns3:atemp>28.0</ns3:atemp>
          </ns3:TrackPointExtension>
        </extensions>
      </trkpt>
      <trkpt lat="42.53391291014850139617919921875" lon="19.9542582593858242034912109375">
        <ele>1545.800048828125</ele>
        <time>2026-06-17T08:52:52.000Z</time>
        <extensions>
          <ns3:TrackPointExtension>
            <ns3:atemp>28.0</ns3:atemp>
          </ns3:TrackPointExtension>
        </extensions>
      </trkpt>
      <trkpt lat="42.53389078192412853240966796875" lon="19.95427410118281841278076171875">
        <ele>1546</ele>
        <time>2026-06-17T08:52:53.000Z</time>
        <extensions>
          <ns3:TrackPointExtension>
            <ns3:atemp>28.0</ns3:atemp>
          </ns3:TrackPointExtension>
        </extensions>
      </trkpt>
      <trkpt lat="42.5338702462613582611083984375" lon="19.954286925494670867919921875">
        <ele>1546.4000244140625</ele>
        <time>2026-06-17T08:52:54.000Z</time>
        <extensions>
          <ns3:TrackPointExtension>
            <ns3:atemp>28.0</ns3:atemp>
          </ns3:TrackPointExtension>
        </extensions>
      </trkpt>
      <trkpt lat="42.53384099341928958892822265625" lon="19.9543068744242191314697265625">
        <ele>1546.5999755859375</ele>
        <time>2026-06-17T08:52:55.000Z</time>
        <extensions>
          <ns3:TrackPointExtension>
            <ns3:atemp>28.0</ns3:atemp>
          </ns3:TrackPointExtension>
        </extensions>
      </trkpt>
      <trkpt lat="42.5338174402713775634765625" lon="19.9543179385364055633544921875">
        <ele>1547</ele>
        <time>2026-06-17T08:52:56.000Z</time>
        <extensions>
          <ns3:TrackPointExtension>
            <ns3:atemp>28.0</ns3:atemp>
          </ns3:TrackPointExtension>
        </extensions>
      </trkpt>
      <trkpt lat="42.53379925154149532318115234375" lon="19.95433495379984378814697265625">
        <ele>1547.199951171875</ele>
        <time>2026-06-17T08:52:57.000Z</time>
        <extensions>
          <ns3:TrackPointExtension>
            <ns3:atemp>28.0</ns3:atemp>
          </ns3:TrackPointExtension>
        </extensions>
      </trkpt>
      <trkpt lat="42.53377812914550304412841796875" lon="19.954344592988491058349609375">
        <ele>1547.4000244140625</ele>
        <time>2026-06-17T08:52:58.000Z</time>
        <extensions>
          <ns3:TrackPointExtension>
            <ns3:atemp>28.0</ns3:atemp>
          </ns3:TrackPointExtension>
        </extensions>
      </trkpt>
      <trkpt lat="42.53375918604433536529541015625" lon="19.954351298511028289794921875">
        <ele>1547.5999755859375</ele>
        <time>2026-06-17T08:52:59.000Z</time>
        <extensions>
          <ns3:TrackPointExtension>
            <ns3:atemp>28.0</ns3:atemp>
          </ns3:TrackPointExtension>
        </extensions>
      </trkpt>
      <trkpt lat="42.53373789601027965545654296875" lon="19.95435842312872409820556640625">
        <ele>1547.800048828125</ele>
        <time>2026-06-17T08:53:00.000Z</time>
        <extensions>
          <ns3:TrackPointExtension>
            <ns3:atemp>28.0</ns3:atemp>
          </ns3:TrackPointExtension>
        </extensions>
      </trkpt>
      <trkpt lat="42.53371694125235080718994140625" lon="19.95436529628932476043701171875">
        <ele>1548</ele>
        <time>2026-06-17T08:53:01.000Z</time>
        <extensions>
          <ns3:TrackPointExtension>
            <ns3:atemp>28.0</ns3:atemp>
          </ns3:TrackPointExtension>
        </extensions>
      </trkpt>
      <trkpt lat="42.53369950689375400543212890625" lon="19.95438046753406524658203125">
        <ele>1548.4000244140625</ele>
        <time>2026-06-17T08:53:02.000Z</time>
        <extensions>
          <ns3:TrackPointExtension>
            <ns3:atemp>28.0</ns3:atemp>
          </ns3:TrackPointExtension>
        </extensions>
      </trkpt>
      <trkpt lat="42.5336791388690471649169921875" lon="19.95439848862588405609130859375">
        <ele>1548.5999755859375</ele>
        <time>2026-06-17T08:53:03.000Z</time>
        <extensions>
          <ns3:TrackPointExtension>
            <ns3:atemp>28.0</ns3:atemp>
          </ns3:TrackPointExtension>
        </extensions>
      </trkpt>
      <trkpt lat="42.53365357406437397003173828125" lon="19.954412318766117095947265625">
        <ele>1549</ele>
        <time>2026-06-17T08:53:04.000Z</time>
        <extensions>
          <ns3:TrackPointExtension>
            <ns3:atemp>28.0</ns3:atemp>
          </ns3:TrackPointExtension>
        </extensions>
      </trkpt>
      <trkpt lat="42.5336301885545253753662109375" lon="19.95442933402955532073974609375">
        <ele>1549.4000244140625</ele>
        <time>2026-06-17T08:53:05.000Z</time>
        <extensions>
          <ns3:TrackPointExtension>
            <ns3:atemp>28.0</ns3:atemp>
          </ns3:TrackPointExtension>
        </extensions>
      </trkpt>
      <trkpt lat="42.53360479138791561126708984375" lon="19.95444090105593204498291015625">
        <ele>1549.5999755859375</ele>
        <time>2026-06-17T08:53:06.000Z</time>
        <extensions>
          <ns3:TrackPointExtension>
            <ns3:atemp>28.0</ns3:atemp>
          </ns3:TrackPointExtension>
        </extensions>
      </trkpt>
      <trkpt lat="42.533582411706447601318359375" lon="19.95445288717746734619140625">
        <ele>1550</ele>
        <time>2026-06-17T08:53:07.000Z</time>
        <extensions>
          <ns3:TrackPointExtension>
            <ns3:atemp>28.0</ns3:atemp>
          </ns3:TrackPointExtension>
        </extensions>
      </trkpt>
      <trkpt lat="42.53356355242431163787841796875" lon="19.95445883832871913909912109375">
        <ele>1550.199951171875</ele>
        <time>2026-06-17T08:53:08.000Z</time>
        <extensions>
          <ns3:TrackPointExtension>
            <ns3:atemp>28.0</ns3:atemp>
          </ns3:TrackPointExtension>
        </extensions>
      </trkpt>
      <trkpt lat="42.53354008309543132781982421875" lon="19.95446990244090557098388671875">
        <ele>1550.4000244140625</ele>
        <time>2026-06-17T08:53:09.000Z</time>
        <extensions>
          <ns3:TrackPointExtension>
            <ns3:atemp>28.0</ns3:atemp>
          </ns3:TrackPointExtension>
        </extensions>
      </trkpt>
      <trkpt lat="42.5335170328617095947265625" lon="19.95447711087763309478759765625">
        <ele>1550.5999755859375</ele>
        <time>2026-06-17T08:53:10.000Z</time>
        <extensions>
          <ns3:TrackPointExtension>
            <ns3:atemp>28.0</ns3:atemp>
          </ns3:TrackPointExtension>
        </extensions>
      </trkpt>
      <trkpt lat="42.5334937311708927154541015625" lon="19.95448146946728229522705078125">
        <ele>1550.800048828125</ele>
        <time>2026-06-17T08:53:11.000Z</time>
        <extensions>
          <ns3:TrackPointExtension>
            <ns3:atemp>28.0</ns3:atemp>
          </ns3:TrackPointExtension>
        </extensions>
      </trkpt>
      <trkpt lat="42.533470094203948974609375" lon="19.95447778142988681793212890625">
        <ele>1551</ele>
        <time>2026-06-17T08:53:12.000Z</time>
        <extensions>
          <ns3:TrackPointExtension>
            <ns3:atemp>28.0</ns3:atemp>
          </ns3:TrackPointExtension>
        </extensions>
      </trkpt>
      <trkpt lat="42.53344285301864147186279296875" lon="19.9544696509838104248046875">
        <ele>1551</ele>
        <time>2026-06-17T08:53:13.000Z</time>
        <extensions>
          <ns3:TrackPointExtension>
            <ns3:atemp>28.0</ns3:atemp>
          </ns3:TrackPointExtension>
        </extensions>
      </trkpt>
      <trkpt lat="42.5334089063107967376708984375" lon="19.9544600956141948699951171875">
        <ele>1551.199951171875</ele>
        <time>2026-06-17T08:53:14.000Z</time>
        <extensions>
          <ns3:TrackPointExtension>
            <ns3:atemp>28.0</ns3:atemp>
          </ns3:TrackPointExtension>
        </extensions>
      </trkpt>
      <trkpt lat="42.53337613306939601898193359375" lon="19.954455234110355377197265625">
        <ele>1551.199951171875</ele>
        <time>2026-06-17T08:53:15.000Z</time>
        <extensions>
          <ns3:TrackPointExtension>
            <ns3:atemp>28.0</ns3:atemp>
          </ns3:TrackPointExtension>
        </extensions>
      </trkpt>
      <trkpt lat="42.53334872424602508544921875" lon="19.95445062406361103057861328125">
        <ele>1551.199951171875</ele>
        <time>2026-06-17T08:53:16.000Z</time>
        <extensions>
          <ns3:TrackPointExtension>
            <ns3:atemp>28.0</ns3:atemp>
          </ns3:TrackPointExtension>
        </extensions>
      </trkpt>
      <trkpt lat="42.53331980668008327484130859375" lon="19.95443771593272686004638671875">
        <ele>1551.199951171875</ele>
        <time>2026-06-17T08:53:17.000Z</time>
        <extensions>
          <ns3:TrackPointExtension>
            <ns3:atemp>28.0</ns3:atemp>
          </ns3:TrackPointExtension>
        </extensions>
      </trkpt>
      <trkpt lat="42.533297426998615264892578125" lon="19.95442614890635013580322265625">
        <ele>1551</ele>
        <time>2026-06-17T08:53:18.000Z</time>
        <extensions>
          <ns3:TrackPointExtension>
            <ns3:atemp>28.0</ns3:atemp>
          </ns3:TrackPointExtension>
        </extensions>
      </trkpt>
      <trkpt lat="42.533271946012973785400390625" lon="19.9544148333370685577392578125">
        <ele>1550.800048828125</ele>
        <time>2026-06-17T08:53:19.000Z</time>
        <extensions>
          <ns3:TrackPointExtension>
            <ns3:atemp>28.0</ns3:atemp>
          </ns3:TrackPointExtension>
        </extensions>
      </trkpt>
      <trkpt lat="42.5332446210086345672607421875" lon="19.9544101394712924957275390625">
        <ele>1550.800048828125</ele>
        <time>2026-06-17T08:53:20.000Z</time>
        <extensions>
          <ns3:TrackPointExtension>
            <ns3:atemp>28.0</ns3:atemp>
          </ns3:TrackPointExtension>
        </extensions>
      </trkpt>
      <trkpt lat="42.53321670927107334136962890625" lon="19.95440335012972354888916015625">
        <ele>1550.800048828125</ele>
        <time>2026-06-17T08:53:21.000Z</time>
        <extensions>
          <ns3:TrackPointExtension>
            <ns3:atemp>28.0</ns3:atemp>
          </ns3:TrackPointExtension>
        </extensions>
      </trkpt>
      <trkpt lat="42.53319592215120792388916015625" lon="19.9544034339487552642822265625">
        <ele>1551</ele>
        <time>2026-06-17T08:53:22.000Z</time>
        <extensions>
          <ns3:TrackPointExtension>
            <ns3:atemp>28.0</ns3:atemp>
          </ns3:TrackPointExtension>
        </extensions>
      </trkpt>
      <trkpt lat="42.5331695191562175750732421875" lon="19.95440402068197727203369140625">
        <ele>1551</ele>
        <time>2026-06-17T08:53:23.000Z</time>
        <extensions>
          <ns3:TrackPointExtension>
            <ns3:atemp>28.0</ns3:atemp>
          </ns3:TrackPointExtension>
        </extensions>
      </trkpt>
      <trkpt lat="42.53314462490379810333251953125" lon="19.95440192520618438720703125">
        <ele>1551.199951171875</ele>
        <time>2026-06-17T08:53:24.000Z</time>
        <extensions>
          <ns3:TrackPointExtension>
            <ns3:atemp>28.0</ns3:atemp>
          </ns3:TrackPointExtension>
        </extensions>
      </trkpt>
      <trkpt lat="42.53311579115688800811767578125" lon="19.95440267957746982574462890625">
        <ele>1551.199951171875</ele>
        <time>2026-06-17T08:53:25.000Z</time>
        <extensions>
          <ns3:TrackPointExtension>
            <ns3:atemp>28.0</ns3:atemp>
          </ns3:TrackPointExtension>
        </extensions>
      </trkpt>
      <trkpt lat="42.53309165127575397491455078125" lon="19.95440661907196044921875">
        <ele>1551.199951171875</ele>
        <time>2026-06-17T08:53:26.000Z</time>
        <extensions>
          <ns3:TrackPointExtension>
            <ns3:atemp>28.0</ns3:atemp>
          </ns3:TrackPointExtension>
        </extensions>
      </trkpt>
      <trkpt lat="42.53307170234620571136474609375" lon="19.954428412020206451416015625">
        <ele>1551.4000244140625</ele>
        <time>2026-06-17T08:53:27.000Z</time>
        <extensions>
          <ns3:TrackPointExtension>
            <ns3:atemp>28.0</ns3:atemp>
          </ns3:TrackPointExtension>
        </extensions>
      </trkpt>
      <trkpt lat="42.53306038677692413330078125" lon="19.9544490315020084381103515625">
        <ele>1551.4000244140625</ele>
        <time>2026-06-17T08:53:28.000Z</time>
        <extensions>
          <ns3:TrackPointExtension>
            <ns3:atemp>28.0</ns3:atemp>
          </ns3:TrackPointExtension>
        </extensions>
      </trkpt>
      <trkpt lat="42.53305041231215000152587890625" lon="19.9544731713831424713134765625">
        <ele>1551.5999755859375</ele>
        <time>2026-06-17T08:53:29.000Z</time>
        <extensions>
          <ns3:TrackPointExtension>
            <ns3:atemp>27.0</ns3:atemp>
          </ns3:TrackPointExtension>
        </extensions>
      </trkpt>
      <trkpt lat="42.5330427847802639007568359375" lon="19.9544932879507541656494140625">
        <ele>1551.800048828125</ele>
        <time>2026-06-17T08:53:30.000Z</time>
        <extensions>
          <ns3:TrackPointExtension>
            <ns3:atemp>27.0</ns3:atemp>
          </ns3:TrackPointExtension>
        </extensions>
      </trkpt>
      <trkpt lat="42.5330374203622341156005859375" lon="19.95452136732637882232666015625">
        <ele>1552.199951171875</ele>
        <time>2026-06-17T08:53:31.000Z</time>
        <extensions>
          <ns3:TrackPointExtension>
            <ns3:atemp>27.0</ns3:atemp>
          </ns3:TrackPointExtension>
        </extensions>
      </trkpt>
      <trkpt lat="42.53303356468677520751953125" lon="19.95454416610300540924072265625">
        <ele>1552.4000244140625</ele>
        <time>2026-06-17T08:53:32.000Z</time>
        <extensions>
          <ns3:TrackPointExtension>
            <ns3:atemp>27.0</ns3:atemp>
          </ns3:TrackPointExtension>
        </extensions>
      </trkpt>
      <trkpt lat="42.53303297795355319976806640625" lon="19.95456897653639316558837890625">
        <ele>1552.5999755859375</ele>
        <time>2026-06-17T08:53:33.000Z</time>
        <extensions>
          <ns3:TrackPointExtension>
            <ns3:atemp>27.0</ns3:atemp>
          </ns3:TrackPointExtension>
        </extensions>
      </trkpt>
      <trkpt lat="42.53303012810647487640380859375" lon="19.95459831319749355316162109375">
        <ele>1553</ele>
        <time>2026-06-17T08:53:34.000Z</time>
        <extensions>
          <ns3:TrackPointExtension>
            <ns3:atemp>27.0</ns3:atemp>
          </ns3:TrackPointExtension>
        </extensions>
      </trkpt>
      <trkpt lat="42.533023171126842498779296875" lon="19.9546210281550884246826171875">
        <ele>1553</ele>
        <time>2026-06-17T08:53:35.000Z</time>
        <extensions>
          <ns3:TrackPointExtension>
            <ns3:atemp>27.0</ns3:atemp>
          </ns3:TrackPointExtension>
        </extensions>
      </trkpt>
      <trkpt lat="42.53301034681499004364013671875" lon="19.95465329848229885101318359375">
        <ele>1553</ele>
        <time>2026-06-17T08:53:36.000Z</time>
        <extensions>
          <ns3:TrackPointExtension>
            <ns3:atemp>27.0</ns3:atemp>
          </ns3:TrackPointExtension>
        </extensions>
      </trkpt>
      <trkpt lat="42.53298821859061717987060546875" lon="19.9546877481043338775634765625">
        <ele>1553</ele>
        <time>2026-06-17T08:53:37.000Z</time>
        <extensions>
          <ns3:TrackPointExtension>
            <ns3:atemp>27.0</ns3:atemp>
          </ns3:TrackPointExtension>
        </extensions>
      </trkpt>
      <trkpt lat="42.53296541981399059295654296875" lon="19.9547162465751171112060546875">
        <ele>1553</ele>
        <time>2026-06-17T08:53:38.000Z</time>
        <extensions>
          <ns3:TrackPointExtension>
            <ns3:atemp>27.0</ns3:atemp>
          </ns3:TrackPointExtension>
        </extensions>
      </trkpt>
      <trkpt lat="42.53293859772384166717529296875" lon="19.95474415831267833709716796875">
        <ele>1553</ele>
        <time>2026-06-17T08:53:39.000Z</time>
        <extensions>
          <ns3:TrackPointExtension>
            <ns3:atemp>27.0</ns3:atemp>
          </ns3:TrackPointExtension>
        </extensions>
      </trkpt>
      <trkpt lat="42.53291462548077106475830078125" lon="19.95476695708930492401123046875">
        <ele>1553</ele>
        <time>2026-06-17T08:53:40.000Z</time>
        <extensions>
          <ns3:TrackPointExtension>
            <ns3:atemp>27.0</ns3:atemp>
          </ns3:TrackPointExtension>
        </extensions>
      </trkpt>
      <trkpt lat="42.53289283253252506256103515625" lon="19.95479755103588104248046875">
        <ele>1553.199951171875</ele>
        <time>2026-06-17T08:53:41.000Z</time>
        <extensions>
          <ns3:TrackPointExtension>
            <ns3:atemp>27.0</ns3:atemp>
          </ns3:TrackPointExtension>
        </extensions>
      </trkpt>
      <trkpt lat="42.53288394771516323089599609375" lon="19.954831413924694061279296875">
        <ele>1553.199951171875</ele>
        <time>2026-06-17T08:53:42.000Z</time>
        <extensions>
          <ns3:TrackPointExtension>
            <ns3:atemp>27.0</ns3:atemp>
          </ns3:TrackPointExtension>
        </extensions>
      </trkpt>
      <trkpt lat="42.53287397325038909912109375" lon="19.95487323962152004241943359375">
        <ele>1553.199951171875</ele>
        <time>2026-06-17T08:53:43.000Z</time>
        <extensions>
          <ns3:TrackPointExtension>
            <ns3:atemp>27.0</ns3:atemp>
          </ns3:TrackPointExtension>
        </extensions>
      </trkpt>
      <trkpt lat="42.532864920794963836669921875" lon="19.95491716079413890838623046875">
        <ele>1553.199951171875</ele>
        <time>2026-06-17T08:53:44.000Z</time>
        <extensions>
          <ns3:TrackPointExtension>
            <ns3:atemp>27.0</ns3:atemp>
          </ns3:TrackPointExtension>
        </extensions>
      </trkpt>
      <trkpt lat="42.53285058774054050445556640625" lon="19.95495705865323543548583984375">
        <ele>1553.199951171875</ele>
        <time>2026-06-17T08:53:45.000Z</time>
        <extensions>
          <ns3:TrackPointExtension>
            <ns3:atemp>27.0</ns3:atemp>
          </ns3:TrackPointExtension>
        </extensions>
      </trkpt>
      <trkpt lat="42.532834075391292572021484375" lon="19.9549935199320316314697265625">
        <ele>1553.4000244140625</ele>
        <time>2026-06-17T08:53:46.000Z</time>
        <extensions>
          <ns3:TrackPointExtension>
            <ns3:atemp>27.0</ns3:atemp>
          </ns3:TrackPointExtension>
        </extensions>
      </trkpt>
      <trkpt lat="42.53282058052718639373779296875" lon="19.95502746663987636566162109375">
        <ele>1553.5999755859375</ele>
        <time>2026-06-17T08:53:47.000Z</time>
        <extensions>
          <ns3:TrackPointExtension>
            <ns3:atemp>27.0</ns3:atemp>
          </ns3:TrackPointExtension>
        </extensions>
      </trkpt>
      <trkpt lat="42.53280566073954105377197265625" lon="19.9550632573664188385009765625">
        <ele>1553.5999755859375</ele>
        <time>2026-06-17T08:53:48.000Z</time>
        <extensions>
          <ns3:TrackPointExtension>
            <ns3:atemp>27.0</ns3:atemp>
          </ns3:TrackPointExtension>
        </extensions>
      </trkpt>
      <trkpt lat="42.53279107622802257537841796875" lon="19.95510105974972248077392578125">
        <ele>1553.800048828125</ele>
        <time>2026-06-17T08:53:49.000Z</time>
        <extensions>
          <ns3:TrackPointExtension>
            <ns3:atemp>27.0</ns3:atemp>
          </ns3:TrackPointExtension>
        </extensions>
      </trkpt>
      <trkpt lat="42.53277473151683807373046875" lon="19.955139197409152984619140625">
        <ele>1554</ele>
        <time>2026-06-17T08:53:50.000Z</time>
        <extensions>
          <ns3:TrackPointExtension>
            <ns3:atemp>27.0</ns3:atemp>
          </ns3:TrackPointExtension>
        </extensions>
      </trkpt>
      <trkpt lat="42.5327588059008121490478515625" lon="19.9551769159734249114990234375">
        <ele>1554</ele>
        <time>2026-06-17T08:53:51.000Z</time>
        <extensions>
          <ns3:TrackPointExtension>
            <ns3:atemp>27.0</ns3:atemp>
          </ns3:TrackPointExtension>
        </extensions>
      </trkpt>
      <trkpt lat="42.53274413757026195526123046875" lon="19.95521991513669490814208984375">
        <ele>1554.199951171875</ele>
        <time>2026-06-17T08:53:52.000Z</time>
        <extensions>
          <ns3:TrackPointExtension>
            <ns3:atemp>27.0</ns3:atemp>
          </ns3:TrackPointExtension>
        </extensions>
      </trkpt>
      <trkpt lat="42.53273181617259979248046875" lon="19.95526970364153385162353515625">
        <ele>1554</ele>
        <time>2026-06-17T08:53:53.000Z</time>
        <extensions>
          <ns3:TrackPointExtension>
            <ns3:atemp>27.0</ns3:atemp>
          </ns3:TrackPointExtension>
        </extensions>
      </trkpt>
      <trkpt lat="42.532723434269428253173828125" lon="19.955315552651882171630859375">
        <ele>1554.199951171875</ele>
        <time>2026-06-17T08:53:54.000Z</time>
        <extensions>
          <ns3:TrackPointExtension>
            <ns3:atemp>27.0</ns3:atemp>
          </ns3:TrackPointExtension>
        </extensions>
      </trkpt>
      <trkpt lat="42.53271010704338550567626953125" lon="19.9553589709103107452392578125">
        <ele>1554.199951171875</ele>
        <time>2026-06-17T08:53:55.000Z</time>
        <extensions>
          <ns3:TrackPointExtension>
            <ns3:atemp>27.0</ns3:atemp>
          </ns3:TrackPointExtension>
        </extensions>
      </trkpt>
      <trkpt lat="42.5326994620263576507568359375" lon="19.9553992040455341339111328125">
        <ele>1554.199951171875</ele>
        <time>2026-06-17T08:53:56.000Z</time>
        <extensions>
          <ns3:TrackPointExtension>
            <ns3:atemp>27.0</ns3:atemp>
          </ns3:TrackPointExtension>
        </extensions>
      </trkpt>
      <trkpt lat="42.5326894037425518035888671875" lon="19.95543851517140865325927734375">
        <ele>1554.199951171875</ele>
        <time>2026-06-17T08:53:57.000Z</time>
        <extensions>
          <ns3:TrackPointExtension>
            <ns3:atemp>27.0</ns3:atemp>
          </ns3:TrackPointExtension>
        </extensions>
      </trkpt>
      <trkpt lat="42.53267557360231876373291015625" lon="19.95547757484018802642822265625">
        <ele>1554.4000244140625</ele>
        <time>2026-06-17T08:53:58.000Z</time>
        <extensions>
          <ns3:TrackPointExtension>
            <ns3:atemp>27.0</ns3:atemp>
          </ns3:TrackPointExtension>
        </extensions>
      </trkpt>
      <trkpt lat="42.53266333602368831634521484375" lon="19.9555158801376819610595703125">
        <ele>1554.5999755859375</ele>
        <time>2026-06-17T08:53:59.000Z</time>
        <extensions>
          <ns3:TrackPointExtension>
            <ns3:atemp>27.0</ns3:atemp>
          </ns3:TrackPointExtension>
        </extensions>
      </trkpt>
      <trkpt lat="42.53264891915023326873779296875" lon="19.95555418543517589569091796875">
        <ele>1554.800048828125</ele>
        <time>2026-06-17T08:54:00.000Z</time>
        <extensions>
          <ns3:TrackPointExtension>
            <ns3:atemp>27.0</ns3:atemp>
          </ns3:TrackPointExtension>
        </extensions>
      </trkpt>
      <trkpt lat="42.53263249062001705169677734375" lon="19.95559148490428924560546875">
        <ele>1555</ele>
        <time>2026-06-17T08:54:01.000Z</time>
        <extensions>
          <ns3:TrackPointExtension>
            <ns3:atemp>27.0</ns3:atemp>
          </ns3:TrackPointExtension>
        </extensions>
      </trkpt>
      <trkpt lat="42.5326203368604183197021484375" lon="19.955626018345355987548828125">
        <ele>1555.199951171875</ele>
        <time>2026-06-17T08:54:02.000Z</time>
        <extensions>
          <ns3:TrackPointExtension>
            <ns3:atemp>27.0</ns3:atemp>
          </ns3:TrackPointExtension>
        </extensions>
      </trkpt>
      <trkpt lat="42.53260667435824871063232421875" lon="19.955658204853534698486328125">
        <ele>1555.4000244140625</ele>
        <time>2026-06-17T08:54:03.000Z</time>
        <extensions>
          <ns3:TrackPointExtension>
            <ns3:atemp>27.0</ns3:atemp>
          </ns3:TrackPointExtension>
        </extensions>
      </trkpt>
      <trkpt lat="42.53259644843637943267822265625" lon="19.95569164864718914031982421875">
        <ele>1555.5999755859375</ele>
        <time>2026-06-17T08:54:04.000Z</time>
        <extensions>
          <ns3:TrackPointExtension>
            <ns3:atemp>27.0</ns3:atemp>
          </ns3:TrackPointExtension>
        </extensions>
      </trkpt>
      <trkpt lat="42.5325834564864635467529296875" lon="19.95573037303984165191650390625">
        <ele>1555.800048828125</ele>
        <time>2026-06-17T08:54:05.000Z</time>
        <extensions>
          <ns3:TrackPointExtension>
            <ns3:atemp>27.0</ns3:atemp>
          </ns3:TrackPointExtension>
        </extensions>
      </trkpt>
      <trkpt lat="42.5325737334787845611572265625" lon="19.955767504870891571044921875">
        <ele>1556</ele>
        <time>2026-06-17T08:54:06.000Z</time>
        <extensions>
          <ns3:TrackPointExtension>
            <ns3:atemp>27.0</ns3:atemp>
          </ns3:TrackPointExtension>
        </extensions>
      </trkpt>
      <trkpt lat="42.53256677649915218353271484375" lon="19.95579709298908710479736328125">
        <ele>1556.4000244140625</ele>
        <time>2026-06-17T08:54:07.000Z</time>
        <extensions>
          <ns3:TrackPointExtension>
            <ns3:atemp>27.0</ns3:atemp>
          </ns3:TrackPointExtension>
        </extensions>
      </trkpt>
      <trkpt lat="42.53255705349147319793701171875" lon="19.95582307688891887664794921875">
        <ele>1556.5999755859375</ele>
        <time>2026-06-17T08:54:08.000Z</time>
        <extensions>
          <ns3:TrackPointExtension>
            <ns3:atemp>27.0</ns3:atemp>
          </ns3:TrackPointExtension>
        </extensions>
      </trkpt>
      <trkpt lat="42.532548420131206512451171875" lon="19.9558441154658794403076171875">
        <ele>1557</ele>
        <time>2026-06-17T08:54:09.000Z</time>
        <extensions>
          <ns3:TrackPointExtension>
            <ns3:atemp>27.0</ns3:atemp>
          </ns3:TrackPointExtension>
        </extensions>
      </trkpt>
      <trkpt lat="42.53253928385674953460693359375" lon="19.9558662436902523040771484375">
        <ele>1557.4000244140625</ele>
        <time>2026-06-17T08:54:10.000Z</time>
        <extensions>
          <ns3:TrackPointExtension>
            <ns3:atemp>27.0</ns3:atemp>
          </ns3:TrackPointExtension>
        </extensions>
      </trkpt>
      <trkpt lat="42.532529644668102264404296875" lon="19.95588409714400768280029296875">
        <ele>1557.800048828125</ele>
        <time>2026-06-17T08:54:11.000Z</time>
        <extensions>
          <ns3:TrackPointExtension>
            <ns3:atemp>27.0</ns3:atemp>
          </ns3:TrackPointExtension>
        </extensions>
      </trkpt>
      <trkpt lat="42.5325197540223598480224609375" lon="19.9559019505977630615234375">
        <ele>1558.199951171875</ele>
        <time>2026-06-17T08:54:12.000Z</time>
        <extensions>
          <ns3:TrackPointExtension>
            <ns3:atemp>27.0</ns3:atemp>
          </ns3:TrackPointExtension>
        </extensions>
      </trkpt>
      <trkpt lat="42.5325113721191883087158203125" lon="19.95592701248824596405029296875">
        <ele>1558.5999755859375</ele>
        <time>2026-06-17T08:54:13.000Z</time>
        <extensions>
          <ns3:TrackPointExtension>
            <ns3:atemp>27.0</ns3:atemp>
          </ns3:TrackPointExtension>
        </extensions>
      </trkpt>
      <trkpt lat="42.53250592388212680816650390625" lon="19.955950565636157989501953125">
        <ele>1559</ele>
        <time>2026-06-17T08:54:14.000Z</time>
        <extensions>
          <ns3:TrackPointExtension>
            <ns3:atemp>27.0</ns3:atemp>
          </ns3:TrackPointExtension>
        </extensions>
      </trkpt>
      <trkpt lat="42.53249586559832096099853515625" lon="19.95597302913665771484375">
        <ele>1559.199951171875</ele>
        <time>2026-06-17T08:54:15.000Z</time>
        <extensions>
          <ns3:TrackPointExtension>
            <ns3:atemp>27.0</ns3:atemp>
          </ns3:TrackPointExtension>
        </extensions>
      </trkpt>
      <trkpt lat="42.5324897468090057373046875" lon="19.95599448680877685546875">
        <ele>1559.5999755859375</ele>
        <time>2026-06-17T08:54:16.000Z</time>
        <extensions>
          <ns3:TrackPointExtension>
            <ns3:atemp>27.0</ns3:atemp>
          </ns3:TrackPointExtension>
        </extensions>
      </trkpt>
      <trkpt lat="42.532477341592311859130859375" lon="19.95601703412830829620361328125">
        <ele>1560</ele>
        <time>2026-06-17T08:54:17.000Z</time>
        <extensions>
          <ns3:TrackPointExtension>
            <ns3:atemp>27.0</ns3:atemp>
          </ns3:TrackPointExtension>
        </extensions>
      </trkpt>
      <trkpt lat="42.53246627748012542724609375" lon="19.95603530667722225189208984375">
        <ele>1560.4000244140625</ele>
        <time>2026-06-17T08:54:18.000Z</time>
        <extensions>
          <ns3:TrackPointExtension>
            <ns3:atemp>27.0</ns3:atemp>
          </ns3:TrackPointExtension>
        </extensions>
      </trkpt>
      <trkpt lat="42.532453201711177825927734375" lon="19.95605827309191226959228515625">
        <ele>1560.800048828125</ele>
        <time>2026-06-17T08:54:19.000Z</time>
        <extensions>
          <ns3:TrackPointExtension>
            <ns3:atemp>27.0</ns3:atemp>
          </ns3:TrackPointExtension>
        </extensions>
      </trkpt>
      <trkpt lat="42.5324416346848011016845703125" lon="19.956081993877887725830078125">
        <ele>1561.199951171875</ele>
        <time>2026-06-17T08:54:20.000Z</time>
        <extensions>
          <ns3:TrackPointExtension>
            <ns3:atemp>27.0</ns3:atemp>
          </ns3:TrackPointExtension>
        </extensions>
      </trkpt>
      <trkpt lat="42.5324295647442340850830078125" lon="19.95610915124416351318359375">
        <ele>1561.5999755859375</ele>
        <time>2026-06-17T08:54:21.000Z</time>
        <extensions>
          <ns3:TrackPointExtension>
            <ns3:atemp>27.0</ns3:atemp>
          </ns3:TrackPointExtension>
        </extensions>
      </trkpt>
      <trkpt lat="42.53241724334657192230224609375" lon="19.95613773353397846221923828125">
        <ele>1561.800048828125</ele>
        <time>2026-06-17T08:54:22.000Z</time>
        <extensions>
          <ns3:TrackPointExtension>
            <ns3:atemp>27.0</ns3:atemp>
          </ns3:TrackPointExtension>
        </extensions>
      </trkpt>
      <trkpt lat="42.53240399993956089019775390625" lon="19.9561669863760471343994140625">
        <ele>1562</ele>
        <time>2026-06-17T08:54:23.000Z</time>
        <extensions>
          <ns3:TrackPointExtension>
            <ns3:atemp>27.0</ns3:atemp>
          </ns3:TrackPointExtension>
        </extensions>
      </trkpt>
      <trkpt lat="42.5323889963328838348388671875" lon="19.95618986897170543670654296875">
        <ele>1562.4000244140625</ele>
        <time>2026-06-17T08:54:24.000Z</time>
        <extensions>
          <ns3:TrackPointExtension>
            <ns3:atemp>27.0</ns3:atemp>
          </ns3:TrackPointExtension>
        </extensions>
      </trkpt>
      <trkpt lat="42.5323786027729511260986328125" lon="19.9562132544815540313720703125">
        <ele>1562.5999755859375</ele>
        <time>2026-06-17T08:54:25.000Z</time>
        <extensions>
          <ns3:TrackPointExtension>
            <ns3:atemp>27.0</ns3:atemp>
          </ns3:TrackPointExtension>
        </extensions>
      </trkpt>
      <trkpt lat="42.53236141987144947052001953125" lon="19.95624133385717868804931640625">
        <ele>1562.800048828125</ele>
        <time>2026-06-17T08:54:26.000Z</time>
        <extensions>
          <ns3:TrackPointExtension>
            <ns3:atemp>27.0</ns3:atemp>
          </ns3:TrackPointExtension>
        </extensions>
      </trkpt>
      <trkpt lat="42.532343231141567230224609375" lon="19.95626228861510753631591796875">
        <ele>1563</ele>
        <time>2026-06-17T08:54:27.000Z</time>
        <extensions>
          <ns3:TrackPointExtension>
            <ns3:atemp>27.0</ns3:atemp>
          </ns3:TrackPointExtension>
        </extensions>
      </trkpt>
      <trkpt lat="42.53232353366911411285400390625" lon="19.95628173463046550750732421875">
        <ele>1563.4000244140625</ele>
        <time>2026-06-17T08:54:28.000Z</time>
        <extensions>
          <ns3:TrackPointExtension>
            <ns3:atemp>27.0</ns3:atemp>
          </ns3:TrackPointExtension>
        </extensions>
      </trkpt>
      <trkpt lat="42.53230241127312183380126953125" lon="19.95630403049290180206298828125">
        <ele>1563.5999755859375</ele>
        <time>2026-06-17T08:54:29.000Z</time>
        <extensions>
          <ns3:TrackPointExtension>
            <ns3:atemp>27.0</ns3:atemp>
          </ns3:TrackPointExtension>
        </extensions>
      </trkpt>
      <trkpt lat="42.53228581510484218597412109375" lon="19.9563168548047542572021484375">
        <ele>1563.800048828125</ele>
        <time>2026-06-17T08:54:30.000Z</time>
        <extensions>
          <ns3:TrackPointExtension>
            <ns3:atemp>27.0</ns3:atemp>
          </ns3:TrackPointExtension>
        </extensions>
      </trkpt>
      <trkpt lat="42.5322649441659450531005859375" lon="19.95633252896368503570556640625">
        <ele>1564</ele>
        <time>2026-06-17T08:54:31.000Z</time>
        <extensions>
          <ns3:TrackPointExtension>
            <ns3:atemp>27.0</ns3:atemp>
          </ns3:TrackPointExtension>
        </extensions>
      </trkpt>
      <trkpt lat="42.53224524669349193572998046875" lon="19.95634979568421840667724609375">
        <ele>1564.199951171875</ele>
        <time>2026-06-17T08:54:32.000Z</time>
        <extensions>
          <ns3:TrackPointExtension>
            <ns3:atemp>27.0</ns3:atemp>
          </ns3:TrackPointExtension>
        </extensions>
      </trkpt>
      <trkpt lat="42.5322253815829753875732421875" lon="19.9563611112534999847412109375">
        <ele>1564.4000244140625</ele>
        <time>2026-06-17T08:54:33.000Z</time>
        <extensions>
          <ns3:TrackPointExtension>
            <ns3:atemp>27.0</ns3:atemp>
          </ns3:TrackPointExtension>
        </extensions>
      </trkpt>
      <trkpt lat="42.532209455966949462890625" lon="19.95636974461376667022705078125">
        <ele>1564.5999755859375</ele>
        <time>2026-06-17T08:54:34.000Z</time>
        <extensions>
          <ns3:TrackPointExtension>
            <ns3:atemp>27.0</ns3:atemp>
          </ns3:TrackPointExtension>
        </extensions>
      </trkpt>
      <trkpt lat="42.5321931950747966766357421875" lon="19.95637628249824047088623046875">
        <ele>1564.800048828125</ele>
        <time>2026-06-17T08:54:35.000Z</time>
        <extensions>
          <ns3:TrackPointExtension>
            <ns3:atemp>27.0</ns3:atemp>
          </ns3:TrackPointExtension>
        </extensions>
      </trkpt>
      <trkpt lat="42.53217433579266071319580078125" lon="19.95638466440141201019287109375">
        <ele>1564.5999755859375</ele>
        <time>2026-06-17T08:54:36.000Z</time>
        <extensions>
          <ns3:TrackPointExtension>
            <ns3:atemp>27.0</ns3:atemp>
          </ns3:TrackPointExtension>
        </extensions>
      </trkpt>
      <trkpt lat="42.532154135406017303466796875" lon="19.95639405213296413421630859375">
        <ele>1564.5999755859375</ele>
        <time>2026-06-17T08:54:37.000Z</time>
        <extensions>
          <ns3:TrackPointExtension>
            <ns3:atemp>27.0</ns3:atemp>
          </ns3:TrackPointExtension>
        </extensions>
      </trkpt>
      <trkpt lat="42.532139383256435394287109375" lon="19.95641048066318035125732421875">
        <ele>1564.5999755859375</ele>
        <time>2026-06-17T08:54:38.000Z</time>
        <extensions>
          <ns3:TrackPointExtension>
            <ns3:atemp>27.0</ns3:atemp>
          </ns3:TrackPointExtension>
        </extensions>
      </trkpt>
      <trkpt lat="42.53212488256394863128662109375" lon="19.95642523281276226043701171875">
        <ele>1564.4000244140625</ele>
        <time>2026-06-17T08:54:39.000Z</time>
        <extensions>
          <ns3:TrackPointExtension>
            <ns3:atemp>27.0</ns3:atemp>
          </ns3:TrackPointExtension>
        </extensions>
      </trkpt>
      <trkpt lat="42.53210392780601978302001953125" lon="19.9564466066658496856689453125">
        <ele>1564.4000244140625</ele>
        <time>2026-06-17T08:54:40.000Z</time>
        <extensions>
          <ns3:TrackPointExtension>
            <ns3:atemp>27.0</ns3:atemp>
          </ns3:TrackPointExtension>
        </extensions>
      </trkpt>
      <trkpt lat="42.5320842303335666656494140625" lon="19.95646077208220958709716796875">
        <ele>1564.4000244140625</ele>
        <time>2026-06-17T08:54:41.000Z</time>
        <extensions>
          <ns3:TrackPointExtension>
            <ns3:atemp>27.0</ns3:atemp>
          </ns3:TrackPointExtension>
        </extensions>
      </trkpt>
      <trkpt lat="42.53206604160368442535400390625" lon="19.9564757756888866424560546875">
        <ele>1564.4000244140625</ele>
        <time>2026-06-17T08:54:42.000Z</time>
        <extensions>
          <ns3:TrackPointExtension>
            <ns3:atemp>27.0</ns3:atemp>
          </ns3:TrackPointExtension>
        </extensions>
      </trkpt>
      <trkpt lat="42.53205028362572193145751953125" lon="19.9564878456294536590576171875">
        <ele>1564.4000244140625</ele>
        <time>2026-06-17T08:54:43.000Z</time>
        <extensions>
          <ns3:TrackPointExtension>
            <ns3:atemp>27.0</ns3:atemp>
          </ns3:TrackPointExtension>
        </extensions>
      </trkpt>
      <trkpt lat="42.53203385509550571441650390625" lon="19.9565039388835430145263671875">
        <ele>1564.5999755859375</ele>
        <time>2026-06-17T08:54:44.000Z</time>
        <extensions>
          <ns3:TrackPointExtension>
            <ns3:atemp>27.0</ns3:atemp>
          </ns3:TrackPointExtension>
        </extensions>
      </trkpt>
      <trkpt lat="42.5320175103843212127685546875" lon="19.9565240554511547088623046875">
        <ele>1564.800048828125</ele>
        <time>2026-06-17T08:54:45.000Z</time>
        <extensions>
          <ns3:TrackPointExtension>
            <ns3:atemp>27.0</ns3:atemp>
          </ns3:TrackPointExtension>
        </extensions>
      </trkpt>
      <trkpt lat="42.5320037640631198883056640625" lon="19.9565331079065799713134765625">
        <ele>1565.199951171875</ele>
        <time>2026-06-17T08:54:46.000Z</time>
        <extensions>
          <ns3:TrackPointExtension>
            <ns3:atemp>27.0</ns3:atemp>
          </ns3:TrackPointExtension>
        </extensions>
      </trkpt>
      <trkpt lat="42.5319859944283962249755859375" lon="19.95653922669589519500732421875">
        <ele>1565.4000244140625</ele>
        <time>2026-06-17T08:54:47.000Z</time>
        <extensions>
          <ns3:TrackPointExtension>
            <ns3:atemp>27.0</ns3:atemp>
          </ns3:TrackPointExtension>
        </extensions>
      </trkpt>
      <trkpt lat="42.53196814097464084625244140625" lon="19.9565451778471469879150390625">
        <ele>1565.800048828125</ele>
        <time>2026-06-17T08:54:48.000Z</time>
        <extensions>
          <ns3:TrackPointExtension>
            <ns3:atemp>27.0</ns3:atemp>
          </ns3:TrackPointExtension>
        </extensions>
      </trkpt>
      <trkpt lat="42.53194618038833141326904296875" lon="19.9565538950264453887939453125">
        <ele>1566.199951171875</ele>
        <time>2026-06-17T08:54:49.000Z</time>
        <extensions>
          <ns3:TrackPointExtension>
            <ns3:atemp>27.0</ns3:atemp>
          </ns3:TrackPointExtension>
        </extensions>
      </trkpt>
      <trkpt lat="42.531921453773975372314453125" lon="19.95657225139439105987548828125">
        <ele>1566.4000244140625</ele>
        <time>2026-06-17T08:54:50.000Z</time>
        <extensions>
          <ns3:TrackPointExtension>
            <ns3:atemp>27.0</ns3:atemp>
          </ns3:TrackPointExtension>
        </extensions>
      </trkpt>
      <trkpt lat="42.531900666654109954833984375" lon="19.95658792555332183837890625">
        <ele>1566.800048828125</ele>
        <time>2026-06-17T08:54:51.000Z</time>
        <extensions>
          <ns3:TrackPointExtension>
            <ns3:atemp>27.0</ns3:atemp>
          </ns3:TrackPointExtension>
        </extensions>
      </trkpt>
      <trkpt lat="42.531878538429737091064453125" lon="19.95660326443612575531005859375">
        <ele>1567</ele>
        <time>2026-06-17T08:54:52.000Z</time>
        <extensions>
          <ns3:TrackPointExtension>
            <ns3:atemp>27.0</ns3:atemp>
          </ns3:TrackPointExtension>
        </extensions>
      </trkpt>
      <trkpt lat="42.5318559072911739349365234375" lon="19.9566259793937206268310546875">
        <ele>1567.199951171875</ele>
        <time>2026-06-17T08:54:53.000Z</time>
        <extensions>
          <ns3:TrackPointExtension>
            <ns3:atemp>27.0</ns3:atemp>
          </ns3:TrackPointExtension>
        </extensions>
      </trkpt>
      <trkpt lat="42.5318384729325771331787109375" lon="19.95664182119071483612060546875">
        <ele>1567.4000244140625</ele>
        <time>2026-06-17T08:54:54.000Z</time>
        <extensions>
          <ns3:TrackPointExtension>
            <ns3:atemp>27.0</ns3:atemp>
          </ns3:TrackPointExtension>
        </extensions>
      </trkpt>
      <trkpt lat="42.5318233855068683624267578125" lon="19.9566662125289440155029296875">
        <ele>1567.5999755859375</ele>
        <time>2026-06-17T08:54:55.000Z</time>
        <extensions>
          <ns3:TrackPointExtension>
            <ns3:atemp>27.0</ns3:atemp>
          </ns3:TrackPointExtension>
        </extensions>
      </trkpt>
      <trkpt lat="42.53180586732923984527587890625" lon="19.956682138144969940185546875">
        <ele>1567.800048828125</ele>
        <time>2026-06-17T08:54:56.000Z</time>
        <extensions>
          <ns3:TrackPointExtension>
            <ns3:atemp>27.0</ns3:atemp>
          </ns3:TrackPointExtension>
        </extensions>
      </trkpt>
      <trkpt lat="42.5317851640284061431884765625" lon="19.95669881813228130340576171875">
        <ele>1568</ele>
        <time>2026-06-17T08:54:57.000Z</time>
        <extensions>
          <ns3:TrackPointExtension>
            <ns3:atemp>27.0</ns3:atemp>
          </ns3:TrackPointExtension>
        </extensions>
      </trkpt>
      <trkpt lat="42.5317606888711452484130859375" lon="19.95671667158603668212890625">
        <ele>1568.199951171875</ele>
        <time>2026-06-17T08:54:58.000Z</time>
        <extensions>
          <ns3:TrackPointExtension>
            <ns3:atemp>27.0</ns3:atemp>
          </ns3:TrackPointExtension>
        </extensions>
      </trkpt>
      <trkpt lat="42.53173596225678920745849609375" lon="19.9567299149930477142333984375">
        <ele>1568.5999755859375</ele>
        <time>2026-06-17T08:54:59.000Z</time>
        <extensions>
          <ns3:TrackPointExtension>
            <ns3:atemp>27.0</ns3:atemp>
          </ns3:TrackPointExtension>
        </extensions>
      </trkpt>
      <trkpt lat="42.53171257674694061279296875" lon="19.9567486904561519622802734375">
        <ele>1569</ele>
        <time>2026-06-17T08:55:00.000Z</time>
        <extensions>
          <ns3:TrackPointExtension>
            <ns3:atemp>27.0</ns3:atemp>
          </ns3:TrackPointExtension>
        </extensions>
      </trkpt>
      <trkpt lat="42.5316904485225677490234375" lon="19.95676855556666851043701171875">
        <ele>1569.199951171875</ele>
        <time>2026-06-17T08:55:01.000Z</time>
        <extensions>
          <ns3:TrackPointExtension>
            <ns3:atemp>27.0</ns3:atemp>
          </ns3:TrackPointExtension>
        </extensions>
      </trkpt>
      <trkpt lat="42.53166739828884601593017578125" lon="19.95679236017167568206787109375">
        <ele>1569.4000244140625</ele>
        <time>2026-06-17T08:55:02.000Z</time>
        <extensions>
          <ns3:TrackPointExtension>
            <ns3:atemp>27.0</ns3:atemp>
          </ns3:TrackPointExtension>
        </extensions>
      </trkpt>
      <trkpt lat="42.5316423363983631134033203125" lon="19.95680275373160839080810546875">
        <ele>1569.5999755859375</ele>
        <time>2026-06-17T08:55:03.000Z</time>
        <extensions>
          <ns3:TrackPointExtension>
            <ns3:atemp>27.0</ns3:atemp>
          </ns3:TrackPointExtension>
        </extensions>
      </trkpt>
      <trkpt lat="42.531625740230083465576171875" lon="19.95681096799671649932861328125">
        <ele>1569.800048828125</ele>
        <time>2026-06-17T08:55:04.000Z</time>
        <extensions>
          <ns3:TrackPointExtension>
            <ns3:atemp>27.0</ns3:atemp>
          </ns3:TrackPointExtension>
        </extensions>
      </trkpt>
      <trkpt lat="42.531602270901203155517578125" lon="19.95681851170957088470458984375">
        <ele>1570</ele>
        <time>2026-06-17T08:55:05.000Z</time>
        <extensions>
          <ns3:TrackPointExtension>
            <ns3:atemp>27.0</ns3:atemp>
          </ns3:TrackPointExtension>
        </extensions>
      </trkpt>
      <trkpt lat="42.53157855011522769927978515625" lon="19.95682169683277606964111328125">
        <ele>1570.199951171875</ele>
        <time>2026-06-17T08:55:06.000Z</time>
        <extensions>
          <ns3:TrackPointExtension>
            <ns3:atemp>27.0</ns3:atemp>
          </ns3:TrackPointExtension>
        </extensions>
      </trkpt>
      <trkpt lat="42.53155231475830078125" lon="19.9568207748234272003173828125">
        <ele>1570.5999755859375</ele>
        <time>2026-06-17T08:55:07.000Z</time>
        <extensions>
          <ns3:TrackPointExtension>
            <ns3:atemp>27.0</ns3:atemp>
          </ns3:TrackPointExtension>
        </extensions>
      </trkpt>
      <trkpt lat="42.5315246544778347015380859375" lon="19.95681968517601490020751953125">
        <ele>1570.800048828125</ele>
        <time>2026-06-17T08:55:08.000Z</time>
        <extensions>
          <ns3:TrackPointExtension>
            <ns3:atemp>27.0</ns3:atemp>
          </ns3:TrackPointExtension>
        </extensions>
      </trkpt>
      <trkpt lat="42.53149825148284435272216796875" lon="19.9568217806518077850341796875">
        <ele>1571.199951171875</ele>
        <time>2026-06-17T08:55:09.000Z</time>
        <extensions>
          <ns3:TrackPointExtension>
            <ns3:atemp>27.0</ns3:atemp>
          </ns3:TrackPointExtension>
        </extensions>
      </trkpt>
      <trkpt lat="42.5314706750214099884033203125" lon="19.9568251334130764007568359375">
        <ele>1571.4000244140625</ele>
        <time>2026-06-17T08:55:10.000Z</time>
        <extensions>
          <ns3:TrackPointExtension>
            <ns3:atemp>27.0</ns3:atemp>
          </ns3:TrackPointExtension>
        </extensions>
      </trkpt>
      <trkpt lat="42.53144443966448307037353515625" lon="19.95683158747851848602294921875">
        <ele>1571.5999755859375</ele>
        <time>2026-06-17T08:55:11.000Z</time>
        <extensions>
          <ns3:TrackPointExtension>
            <ns3:atemp>27.0</ns3:atemp>
          </ns3:TrackPointExtension>
        </extensions>
      </trkpt>
      <trkpt lat="42.53141761757433414459228515625" lon="19.95683728717267513275146484375">
        <ele>1571.800048828125</ele>
        <time>2026-06-17T08:55:12.000Z</time>
        <extensions>
          <ns3:TrackPointExtension>
            <ns3:atemp>27.0</ns3:atemp>
          </ns3:TrackPointExtension>
        </extensions>
      </trkpt>
      <trkpt lat="42.53139062784612178802490234375" lon="19.95683728717267513275146484375">
        <ele>1572</ele>
        <time>2026-06-17T08:55:13.000Z</time>
        <extensions>
          <ns3:TrackPointExtension>
            <ns3:atemp>27.0</ns3:atemp>
          </ns3:TrackPointExtension>
        </extensions>
      </trkpt>
      <trkpt lat="42.5313685834407806396484375" lon="19.9568304978311061859130859375">
        <ele>1572.4000244140625</ele>
        <time>2026-06-17T08:55:14.000Z</time>
        <extensions>
          <ns3:TrackPointExtension>
            <ns3:atemp>27.0</ns3:atemp>
          </ns3:TrackPointExtension>
        </extensions>
      </trkpt>
      <trkpt lat="42.53134804777801036834716796875" lon="19.95682907290756702423095703125">
        <ele>1572.5999755859375</ele>
        <time>2026-06-17T08:55:15.000Z</time>
        <extensions>
          <ns3:TrackPointExtension>
            <ns3:atemp>27.0</ns3:atemp>
          </ns3:TrackPointExtension>
        </extensions>
      </trkpt>
      <trkpt lat="42.53132365643978118896484375" lon="19.95683200657367706298828125">
        <ele>1573</ele>
        <time>2026-06-17T08:55:16.000Z</time>
        <extensions>
          <ns3:TrackPointExtension>
            <ns3:atemp>27.0</ns3:atemp>
          </ns3:TrackPointExtension>
        </extensions>
      </trkpt>
      <trkpt lat="42.53130144439637660980224609375" lon="19.95683879591524600982666015625">
        <ele>1573.199951171875</ele>
        <time>2026-06-17T08:55:17.000Z</time>
        <extensions>
          <ns3:TrackPointExtension>
            <ns3:atemp>27.0</ns3:atemp>
          </ns3:TrackPointExtension>
        </extensions>
      </trkpt>
      <trkpt lat="42.53128266893327236175537109375" lon="19.95683711953461170196533203125">
        <ele>1573.5999755859375</ele>
        <time>2026-06-17T08:55:18.000Z</time>
        <extensions>
          <ns3:TrackPointExtension>
            <ns3:atemp>27.0</ns3:atemp>
          </ns3:TrackPointExtension>
        </extensions>
      </trkpt>
      <trkpt lat="42.5312668271362781524658203125" lon="19.9568231217563152313232421875">
        <ele>1574</ele>
        <time>2026-06-17T08:55:19.000Z</time>
        <extensions>
          <ns3:TrackPointExtension>
            <ns3:atemp>27.0</ns3:atemp>
          </ns3:TrackPointExtension>
        </extensions>
      </trkpt>
      <trkpt lat="42.5312493927776813507080078125" lon="19.95681448839604854583740234375">
        <ele>1574.199951171875</ele>
        <time>2026-06-17T08:55:20.000Z</time>
        <extensions>
          <ns3:TrackPointExtension>
            <ns3:atemp>27.0</ns3:atemp>
          </ns3:TrackPointExtension>
        </extensions>
      </trkpt>
      <trkpt lat="42.53122952766716480255126953125" lon="19.9568100459873676300048828125">
        <ele>1574.4000244140625</ele>
        <time>2026-06-17T08:55:21.000Z</time>
        <extensions>
          <ns3:TrackPointExtension>
            <ns3:atemp>27.0</ns3:atemp>
          </ns3:TrackPointExtension>
        </extensions>
      </trkpt>
      <trkpt lat="42.53120488487184047698974609375" lon="19.9568085372447967529296875">
        <ele>1574.800048828125</ele>
        <time>2026-06-17T08:55:22.000Z</time>
        <extensions>
          <ns3:TrackPointExtension>
            <ns3:atemp>27.0</ns3:atemp>
          </ns3:TrackPointExtension>
        </extensions>
      </trkpt>
      <trkpt lat="42.53117990680038928985595703125" lon="19.95680493302643299102783203125">
        <ele>1575</ele>
        <time>2026-06-17T08:55:23.000Z</time>
        <extensions>
          <ns3:TrackPointExtension>
            <ns3:atemp>27.0</ns3:atemp>
          </ns3:TrackPointExtension>
        </extensions>
      </trkpt>
      <trkpt lat="42.531150318682193756103515625" lon="19.95679621584713459014892578125">
        <ele>1575.199951171875</ele>
        <time>2026-06-17T08:55:24.000Z</time>
        <extensions>
          <ns3:TrackPointExtension>
            <ns3:atemp>27.0</ns3:atemp>
          </ns3:TrackPointExtension>
        </extensions>
      </trkpt>
      <trkpt lat="42.5311273522675037384033203125" lon="19.95678917504847049713134765625">
        <ele>1575.4000244140625</ele>
        <time>2026-06-17T08:55:25.000Z</time>
        <extensions>
          <ns3:TrackPointExtension>
            <ns3:atemp>27.0</ns3:atemp>
          </ns3:TrackPointExtension>
        </extensions>
      </trkpt>
      <trkpt lat="42.531105391681194305419921875" lon="19.95678481645882129669189453125">
        <ele>1575.5999755859375</ele>
        <time>2026-06-17T08:55:26.000Z</time>
        <extensions>
          <ns3:TrackPointExtension>
            <ns3:atemp>27.0</ns3:atemp>
          </ns3:TrackPointExtension>
        </extensions>
      </trkpt>
      <trkpt lat="42.53108091652393341064453125" lon="19.95678481645882129669189453125">
        <ele>1575.800048828125</ele>
        <time>2026-06-17T08:55:27.000Z</time>
        <extensions>
          <ns3:TrackPointExtension>
            <ns3:atemp>27.0</ns3:atemp>
          </ns3:TrackPointExtension>
        </extensions>
      </trkpt>
      <trkpt lat="42.53106138668954372406005859375" lon="19.95678146369755268096923828125">
        <ele>1576.199951171875</ele>
        <time>2026-06-17T08:55:28.000Z</time>
        <extensions>
          <ns3:TrackPointExtension>
            <ns3:atemp>27.0</ns3:atemp>
          </ns3:TrackPointExtension>
        </extensions>
      </trkpt>
      <trkpt lat="42.531042359769344329833984375" lon="19.956778697669506072998046875">
        <ele>1576.5999755859375</ele>
        <time>2026-06-17T08:55:29.000Z</time>
        <extensions>
          <ns3:TrackPointExtension>
            <ns3:atemp>27.0</ns3:atemp>
          </ns3:TrackPointExtension>
        </extensions>
      </trkpt>
      <trkpt lat="42.53102165646851062774658203125" lon="19.9567765183746814727783203125">
        <ele>1577</ele>
        <time>2026-06-17T08:55:30.000Z</time>
        <extensions>
          <ns3:TrackPointExtension>
            <ns3:atemp>27.0</ns3:atemp>
          </ns3:TrackPointExtension>
        </extensions>
      </trkpt>
      <trkpt lat="42.53100522793829441070556640625" lon="19.95676738210022449493408203125">
        <ele>1577.199951171875</ele>
        <time>2026-06-17T08:55:31.000Z</time>
        <extensions>
          <ns3:TrackPointExtension>
            <ns3:atemp>27.0</ns3:atemp>
          </ns3:TrackPointExtension>
        </extensions>
      </trkpt>
      <trkpt lat="42.5309949181973934173583984375" lon="19.9567517079412937164306640625">
        <ele>1577.5999755859375</ele>
        <time>2026-06-17T08:55:32.000Z</time>
        <extensions>
          <ns3:TrackPointExtension>
            <ns3:atemp>27.0</ns3:atemp>
          </ns3:TrackPointExtension>
        </extensions>
      </trkpt>
      <trkpt lat="42.5309798307716846466064453125" lon="19.95674022473394870758056640625">
        <ele>1578</ele>
        <time>2026-06-17T08:55:33.000Z</time>
        <extensions>
          <ns3:TrackPointExtension>
            <ns3:atemp>27.0</ns3:atemp>
          </ns3:TrackPointExtension>
        </extensions>
      </trkpt>
      <trkpt lat="42.53096985630691051483154296875" lon="19.9567178450524806976318359375">
        <ele>1578.4000244140625</ele>
        <time>2026-06-17T08:55:34.000Z</time>
        <extensions>
          <ns3:TrackPointExtension>
            <ns3:atemp>27.0</ns3:atemp>
          </ns3:TrackPointExtension>
        </extensions>
      </trkpt>
      <trkpt lat="42.53096633590757846832275390625" lon="19.95669345371425151824951171875">
        <ele>1578.5999755859375</ele>
        <time>2026-06-17T08:55:35.000Z</time>
        <extensions>
          <ns3:TrackPointExtension>
            <ns3:atemp>27.0</ns3:atemp>
          </ns3:TrackPointExtension>
        </extensions>
      </trkpt>
      <trkpt lat="42.53096935339272022247314453125" lon="19.9566650390625">
        <ele>1578.800048828125</ele>
        <time>2026-06-17T08:55:36.000Z</time>
        <extensions>
          <ns3:TrackPointExtension>
            <ns3:atemp>27.0</ns3:atemp>
          </ns3:TrackPointExtension>
        </extensions>
      </trkpt>
      <trkpt lat="42.5309835188090801239013671875" lon="19.956641234457492828369140625">
        <ele>1579</ele>
        <time>2026-06-17T08:55:37.000Z</time>
        <extensions>
          <ns3:TrackPointExtension>
            <ns3:atemp>27.0</ns3:atemp>
          </ns3:TrackPointExtension>
        </extensions>
      </trkpt>
      <trkpt lat="42.531004808843135833740234375" lon="19.956623129546642303466796875">
        <ele>1579.199951171875</ele>
        <time>2026-06-17T08:55:38.000Z</time>
        <extensions>
          <ns3:TrackPointExtension>
            <ns3:atemp>27.0</ns3:atemp>
          </ns3:TrackPointExtension>
        </extensions>
      </trkpt>
      <trkpt lat="42.53102685324847698211669921875" lon="19.95661281980574131011962890625">
        <ele>1579.4000244140625</ele>
        <time>2026-06-17T08:55:39.000Z</time>
        <extensions>
          <ns3:TrackPointExtension>
            <ns3:atemp>27.0</ns3:atemp>
          </ns3:TrackPointExtension>
        </extensions>
      </trkpt>
      <trkpt lat="42.53104596398770809173583984375" lon="19.956605695188045501708984375">
        <ele>1579.5999755859375</ele>
        <time>2026-06-17T08:55:40.000Z</time>
        <extensions>
          <ns3:TrackPointExtension>
            <ns3:atemp>27.0</ns3:atemp>
          </ns3:TrackPointExtension>
        </extensions>
      </trkpt>
      <trkpt lat="42.53106557764112949371337890625" lon="19.9566112272441387176513671875">
        <ele>1579.800048828125</ele>
        <time>2026-06-17T08:55:41.000Z</time>
        <extensions>
          <ns3:TrackPointExtension>
            <ns3:atemp>27.0</ns3:atemp>
          </ns3:TrackPointExtension>
        </extensions>
      </trkpt>
      <trkpt lat="42.53108535893261432647705078125" lon="19.95661466382443904876708984375">
        <ele>1580</ele>
        <time>2026-06-17T08:55:42.000Z</time>
        <extensions>
          <ns3:TrackPointExtension>
            <ns3:atemp>27.0</ns3:atemp>
          </ns3:TrackPointExtension>
        </extensions>
      </trkpt>
      <trkpt lat="42.5311032123863697052001953125" lon="19.95661349035799503326416015625">
        <ele>1580.199951171875</ele>
        <time>2026-06-17T08:55:43.000Z</time>
        <extensions>
          <ns3:TrackPointExtension>
            <ns3:atemp>27.0</ns3:atemp>
          </ns3:TrackPointExtension>
        </extensions>
      </trkpt>
      <trkpt lat="42.53112391568720340728759765625" lon="19.95660376735031604766845703125">
        <ele>1580.199951171875</ele>
        <time>2026-06-17T08:55:44.000Z</time>
        <extensions>
          <ns3:TrackPointExtension>
            <ns3:atemp>27.0</ns3:atemp>
          </ns3:TrackPointExtension>
        </extensions>
      </trkpt>
      <trkpt lat="42.53114302642643451690673828125" lon="19.95660158805549144744873046875">
        <ele>1580.4000244140625</ele>
        <time>2026-06-17T08:55:45.000Z</time>
        <extensions>
          <ns3:TrackPointExtension>
            <ns3:atemp>27.0</ns3:atemp>
          </ns3:TrackPointExtension>
        </extensions>
      </trkpt>
      <trkpt lat="42.53116163425147533416748046875" lon="19.95659940876066684722900390625">
        <ele>1580.800048828125</ele>
        <time>2026-06-17T08:55:46.000Z</time>
        <extensions>
          <ns3:TrackPointExtension>
            <ns3:atemp>26.0</ns3:atemp>
          </ns3:TrackPointExtension>
        </extensions>
      </trkpt>
      <trkpt lat="42.5311833433806896209716796875" lon="19.9565912783145904541015625">
        <ele>1581.199951171875</ele>
        <time>2026-06-17T08:55:47.000Z</time>
        <extensions>
          <ns3:TrackPointExtension>
            <ns3:atemp>26.0</ns3:atemp>
          </ns3:TrackPointExtension>
        </extensions>
      </trkpt>
      <trkpt lat="42.5311996042728424072265625" lon="19.9565780349075794219970703125">
        <ele>1581.800048828125</ele>
        <time>2026-06-17T08:55:48.000Z</time>
        <extensions>
          <ns3:TrackPointExtension>
            <ns3:atemp>26.0</ns3:atemp>
          </ns3:TrackPointExtension>
        </extensions>
      </trkpt>
      <trkpt lat="42.53121745772659778594970703125" lon="19.9565629474818706512451171875">
        <ele>1582.199951171875</ele>
        <time>2026-06-17T08:55:49.000Z</time>
        <extensions>
          <ns3:TrackPointExtension>
            <ns3:atemp>27.0</ns3:atemp>
          </ns3:TrackPointExtension>
        </extensions>
      </trkpt>
      <trkpt lat="42.53123522736132144927978515625" lon="19.95655129663646221160888671875">
        <ele>1582.800048828125</ele>
        <time>2026-06-17T08:55:50.000Z</time>
        <extensions>
          <ns3:TrackPointExtension>
            <ns3:atemp>27.0</ns3:atemp>
          </ns3:TrackPointExtension>
        </extensions>
      </trkpt>
      <trkpt lat="42.53125852905213832855224609375" lon="19.9565327726304531097412109375">
        <ele>1583.199951171875</ele>
        <time>2026-06-17T08:55:51.000Z</time>
        <extensions>
          <ns3:TrackPointExtension>
            <ns3:atemp>27.0</ns3:atemp>
          </ns3:TrackPointExtension>
        </extensions>
      </trkpt>
      <trkpt lat="42.5312822498381137847900390625" lon="19.956512153148651123046875">
        <ele>1583.4000244140625</ele>
        <time>2026-06-17T08:55:52.000Z</time>
        <extensions>
          <ns3:TrackPointExtension>
            <ns3:atemp>26.0</ns3:atemp>
          </ns3:TrackPointExtension>
        </extensions>
      </trkpt>
      <trkpt lat="42.531302869319915771484375" lon="19.9564848281443119049072265625">
        <ele>1583.5999755859375</ele>
        <time>2026-06-17T08:55:53.000Z</time>
        <extensions>
          <ns3:TrackPointExtension>
            <ns3:atemp>26.0</ns3:atemp>
          </ns3:TrackPointExtension>
        </extensions>
      </trkpt>
      <trkpt lat="42.53131854347884654998779296875" lon="19.95645725168287754058837890625">
        <ele>1584</ele>
        <time>2026-06-17T08:55:54.000Z</time>
        <extensions>
          <ns3:TrackPointExtension>
            <ns3:atemp>26.0</ns3:atemp>
          </ns3:TrackPointExtension>
        </extensions>
      </trkpt>
      <trkpt lat="42.53133438527584075927734375" lon="19.95644568465650081634521484375">
        <ele>1584.199951171875</ele>
        <time>2026-06-17T08:55:55.000Z</time>
        <extensions>
          <ns3:TrackPointExtension>
            <ns3:atemp>26.0</ns3:atemp>
          </ns3:TrackPointExtension>
        </extensions>
      </trkpt>
      <trkpt lat="42.53134913742542266845703125" lon="19.95642657391726970672607421875">
        <ele>1584.5999755859375</ele>
        <time>2026-06-17T08:55:56.000Z</time>
        <extensions>
          <ns3:TrackPointExtension>
            <ns3:atemp>26.0</ns3:atemp>
          </ns3:TrackPointExtension>
        </extensions>
      </trkpt>
      <trkpt lat="42.53136615268886089324951171875" lon="19.956402517855167388916015625">
        <ele>1584.800048828125</ele>
        <time>2026-06-17T08:55:57.000Z</time>
        <extensions>
          <ns3:TrackPointExtension>
            <ns3:atemp>26.0</ns3:atemp>
          </ns3:TrackPointExtension>
        </extensions>
      </trkpt>
      <trkpt lat="42.5313818268477916717529296875" lon="19.95637611486017704010009765625">
        <ele>1585</ele>
        <time>2026-06-17T08:55:58.000Z</time>
        <extensions>
          <ns3:TrackPointExtension>
            <ns3:atemp>26.0</ns3:atemp>
          </ns3:TrackPointExtension>
        </extensions>
      </trkpt>
      <trkpt lat="42.53139833919703960418701171875" lon="19.9563477002084255218505859375">
        <ele>1585.199951171875</ele>
        <time>2026-06-17T08:55:59.000Z</time>
        <extensions>
          <ns3:TrackPointExtension>
            <ns3:atemp>26.0</ns3:atemp>
          </ns3:TrackPointExtension>
        </extensions>
      </trkpt>
      <trkpt lat="42.53141627646982669830322265625" lon="19.9563165195286273956298828125">
        <ele>1585.4000244140625</ele>
        <time>2026-06-17T08:56:00.000Z</time>
        <extensions>
          <ns3:TrackPointExtension>
            <ns3:atemp>26.0</ns3:atemp>
          </ns3:TrackPointExtension>
        </extensions>
      </trkpt>
      <trkpt lat="42.531431280076503753662109375" lon="19.956291206181049346923828125">
        <ele>1585.5999755859375</ele>
        <time>2026-06-17T08:56:01.000Z</time>
        <extensions>
          <ns3:TrackPointExtension>
            <ns3:atemp>26.0</ns3:atemp>
          </ns3:TrackPointExtension>
        </extensions>
      </trkpt>
      <trkpt lat="42.531447708606719970703125" lon="19.956267736852169036865234375">
        <ele>1585.800048828125</ele>
        <time>2026-06-17T08:56:02.000Z</time>
        <extensions>
          <ns3:TrackPointExtension>
            <ns3:atemp>26.0</ns3:atemp>
          </ns3:TrackPointExtension>
        </extensions>
      </trkpt>
      <trkpt lat="42.5314606167376041412353515625" lon="19.95623982511460781097412109375">
        <ele>1586</ele>
        <time>2026-06-17T08:56:03.000Z</time>
        <extensions>
          <ns3:TrackPointExtension>
            <ns3:atemp>26.0</ns3:atemp>
          </ns3:TrackPointExtension>
        </extensions>
      </trkpt>
      <trkpt lat="42.53147461451590061187744140625" lon="19.95621518231928348541259765625">
        <ele>1586.199951171875</ele>
        <time>2026-06-17T08:56:04.000Z</time>
        <extensions>
          <ns3:TrackPointExtension>
            <ns3:atemp>26.0</ns3:atemp>
          </ns3:TrackPointExtension>
        </extensions>
      </trkpt>
      <trkpt lat="42.531487941741943359375" lon="19.9561887793242931365966796875">
        <ele>1586.4000244140625</ele>
        <time>2026-06-17T08:56:05.000Z</time>
        <extensions>
          <ns3:TrackPointExtension>
            <ns3:atemp>26.0</ns3:atemp>
          </ns3:TrackPointExtension>
        </extensions>
      </trkpt>
      <trkpt lat="42.531503029167652130126953125" lon="19.9561621248722076416015625">
        <ele>1586.4000244140625</ele>
        <time>2026-06-17T08:56:06.000Z</time>
        <extensions>
          <ns3:TrackPointExtension>
            <ns3:atemp>26.0</ns3:atemp>
          </ns3:TrackPointExtension>
        </extensions>
      </trkpt>
      <trkpt lat="42.531515769660472869873046875" lon="19.95613270439207553863525390625">
        <ele>1586.5999755859375</ele>
        <time>2026-06-17T08:56:07.000Z</time>
        <extensions>
          <ns3:TrackPointExtension>
            <ns3:atemp>26.0</ns3:atemp>
          </ns3:TrackPointExtension>
        </extensions>
      </trkpt>
      <trkpt lat="42.531527839601039886474609375" lon="19.95610571466386318206787109375">
        <ele>1586.800048828125</ele>
        <time>2026-06-17T08:56:08.000Z</time>
        <extensions>
          <ns3:TrackPointExtension>
            <ns3:atemp>26.0</ns3:atemp>
          </ns3:TrackPointExtension>
        </extensions>
      </trkpt>
      <trkpt lat="42.5315420888364315032958984375" lon="19.95607822202146053314208984375">
        <ele>1587</ele>
        <time>2026-06-17T08:56:09.000Z</time>
        <extensions>
          <ns3:TrackPointExtension>
            <ns3:atemp>26.0</ns3:atemp>
          </ns3:TrackPointExtension>
        </extensions>
      </trkpt>
      <trkpt lat="42.531554996967315673828125" lon="19.95605324395000934600830078125">
        <ele>1587</ele>
        <time>2026-06-17T08:56:10.000Z</time>
        <extensions>
          <ns3:TrackPointExtension>
            <ns3:atemp>26.0</ns3:atemp>
          </ns3:TrackPointExtension>
        </extensions>
      </trkpt>
      <trkpt lat="42.53156933002173900604248046875" lon="19.9560291878879070281982421875">
        <ele>1587.199951171875</ele>
        <time>2026-06-17T08:56:11.000Z</time>
        <extensions>
          <ns3:TrackPointExtension>
            <ns3:atemp>26.0</ns3:atemp>
          </ns3:TrackPointExtension>
        </extensions>
      </trkpt>
      <trkpt lat="42.5315831601619720458984375" lon="19.9560033716261386871337890625">
        <ele>1587.4000244140625</ele>
        <time>2026-06-17T08:56:12.000Z</time>
        <extensions>
          <ns3:TrackPointExtension>
            <ns3:atemp>26.0</ns3:atemp>
          </ns3:TrackPointExtension>
        </extensions>
      </trkpt>
      <trkpt lat="42.53159858286380767822265625" lon="19.9559785611927509307861328125">
        <ele>1587.5999755859375</ele>
        <time>2026-06-17T08:56:13.000Z</time>
        <extensions>
          <ns3:TrackPointExtension>
            <ns3:atemp>26.0</ns3:atemp>
          </ns3:TrackPointExtension>
        </extensions>
      </trkpt>
      <trkpt lat="42.53161040134727954864501953125" lon="19.95595249347388744354248046875">
        <ele>1587.800048828125</ele>
        <time>2026-06-17T08:56:14.000Z</time>
        <extensions>
          <ns3:TrackPointExtension>
            <ns3:atemp>26.0</ns3:atemp>
          </ns3:TrackPointExtension>
        </extensions>
      </trkpt>
      <trkpt lat="42.5316272489726543426513671875" lon="19.9559260904788970947265625">
        <ele>1588.199951171875</ele>
        <time>2026-06-17T08:56:15.000Z</time>
        <extensions>
          <ns3:TrackPointExtension>
            <ns3:atemp>26.0</ns3:atemp>
          </ns3:TrackPointExtension>
        </extensions>
      </trkpt>
      <trkpt lat="42.53163856454193592071533203125" lon="19.95589532889425754547119140625">
        <ele>1588.4000244140625</ele>
        <time>2026-06-17T08:56:16.000Z</time>
        <extensions>
          <ns3:TrackPointExtension>
            <ns3:atemp>26.0</ns3:atemp>
          </ns3:TrackPointExtension>
        </extensions>
      </trkpt>
      <trkpt lat="42.53164761699736118316650390625" lon="19.9558675847947597503662109375">
        <ele>1588.5999755859375</ele>
        <time>2026-06-17T08:56:17.000Z</time>
        <extensions>
          <ns3:TrackPointExtension>
            <ns3:atemp>26.0</ns3:atemp>
          </ns3:TrackPointExtension>
        </extensions>
      </trkpt>
      <trkpt lat="42.5316611118614673614501953125" lon="19.955837242305278778076171875">
        <ele>1588.800048828125</ele>
        <time>2026-06-17T08:56:18.000Z</time>
        <extensions>
          <ns3:TrackPointExtension>
            <ns3:atemp>26.0</ns3:atemp>
          </ns3:TrackPointExtension>
        </extensions>
      </trkpt>
      <trkpt lat="42.53167368471622467041015625" lon="19.955812431871891021728515625">
        <ele>1589.199951171875</ele>
        <time>2026-06-17T08:56:19.000Z</time>
        <extensions>
          <ns3:TrackPointExtension>
            <ns3:atemp>26.0</ns3:atemp>
          </ns3:TrackPointExtension>
        </extensions>
      </trkpt>
      <trkpt lat="42.53168600611388683319091796875" lon="19.9557834304869174957275390625">
        <ele>1589.4000244140625</ele>
        <time>2026-06-17T08:56:20.000Z</time>
        <extensions>
          <ns3:TrackPointExtension>
            <ns3:atemp>26.0</ns3:atemp>
          </ns3:TrackPointExtension>
        </extensions>
      </trkpt>
      <trkpt lat="42.5316984951496124267578125" lon="19.95574713684618473052978515625">
        <ele>1589.800048828125</ele>
        <time>2026-06-17T08:56:21.000Z</time>
        <extensions>
          <ns3:TrackPointExtension>
            <ns3:atemp>26.0</ns3:atemp>
          </ns3:TrackPointExtension>
        </extensions>
      </trkpt>
      <trkpt lat="42.531706877052783966064453125" lon="19.95571847073733806610107421875">
        <ele>1590</ele>
        <time>2026-06-17T08:56:22.000Z</time>
        <extensions>
          <ns3:TrackPointExtension>
            <ns3:atemp>26.0</ns3:atemp>
          </ns3:TrackPointExtension>
        </extensions>
      </trkpt>
      <trkpt lat="42.5317167676985263824462890625" lon="19.95569466613233089447021484375">
        <ele>1590.4000244140625</ele>
        <time>2026-06-17T08:56:23.000Z</time>
        <extensions>
          <ns3:TrackPointExtension>
            <ns3:atemp>26.0</ns3:atemp>
          </ns3:TrackPointExtension>
        </extensions>
      </trkpt>
      <trkpt lat="42.531726323068141937255859375" lon="19.95567195117473602294921875">
        <ele>1590.5999755859375</ele>
        <time>2026-06-17T08:56:24.000Z</time>
        <extensions>
          <ns3:TrackPointExtension>
            <ns3:atemp>26.0</ns3:atemp>
          </ns3:TrackPointExtension>
        </extensions>
      </trkpt>
      <trkpt lat="42.5317365489900112152099609375" lon="19.95564772747457027435302734375">
        <ele>1591</ele>
        <time>2026-06-17T08:56:25.000Z</time>
        <extensions>
          <ns3:TrackPointExtension>
            <ns3:atemp>26.0</ns3:atemp>
          </ns3:TrackPointExtension>
        </extensions>
      </trkpt>
      <trkpt lat="42.53175490535795688629150390625" lon="19.9556203186511993408203125">
        <ele>1591.199951171875</ele>
        <time>2026-06-17T08:56:26.000Z</time>
        <extensions>
          <ns3:TrackPointExtension>
            <ns3:atemp>26.0</ns3:atemp>
          </ns3:TrackPointExtension>
        </extensions>
      </trkpt>
      <trkpt lat="42.53177401609718799591064453125" lon="19.9555973522365093231201171875">
        <ele>1591.5999755859375</ele>
        <time>2026-06-17T08:56:27.000Z</time>
        <extensions>
          <ns3:TrackPointExtension>
            <ns3:atemp>26.0</ns3:atemp>
          </ns3:TrackPointExtension>
        </extensions>
      </trkpt>
      <trkpt lat="42.531790696084499359130859375" lon="19.9555758945643901824951171875">
        <ele>1591.800048828125</ele>
        <time>2026-06-17T08:56:28.000Z</time>
        <extensions>
          <ns3:TrackPointExtension>
            <ns3:atemp>26.0</ns3:atemp>
          </ns3:TrackPointExtension>
        </extensions>
      </trkpt>
      <trkpt lat="42.53180854953825473785400390625" lon="19.9555492401123046875">
        <ele>1592</ele>
        <time>2026-06-17T08:56:29.000Z</time>
        <extensions>
          <ns3:TrackPointExtension>
            <ns3:atemp>26.0</ns3:atemp>
          </ns3:TrackPointExtension>
        </extensions>
      </trkpt>
      <trkpt lat="42.53182799555361270904541015625" lon="19.95553088374435901641845703125">
        <ele>1592.4000244140625</ele>
        <time>2026-06-17T08:56:30.000Z</time>
        <extensions>
          <ns3:TrackPointExtension>
            <ns3:atemp>26.0</ns3:atemp>
          </ns3:TrackPointExtension>
        </extensions>
      </trkpt>
      <trkpt lat="42.53184593282639980316162109375" lon="19.95550699532032012939453125">
        <ele>1592.5999755859375</ele>
        <time>2026-06-17T08:56:31.000Z</time>
        <extensions>
          <ns3:TrackPointExtension>
            <ns3:atemp>26.0</ns3:atemp>
          </ns3:TrackPointExtension>
        </extensions>
      </trkpt>
      <trkpt lat="42.53185867331922054290771484375" lon="19.9554857052862644195556640625">
        <ele>1593</ele>
        <time>2026-06-17T08:56:32.000Z</time>
        <extensions>
          <ns3:TrackPointExtension>
            <ns3:atemp>26.0</ns3:atemp>
          </ns3:TrackPointExtension>
        </extensions>
      </trkpt>
      <trkpt lat="42.5318756885826587677001953125" lon="19.955463074147701263427734375">
        <ele>1593.199951171875</ele>
        <time>2026-06-17T08:56:33.000Z</time>
        <extensions>
          <ns3:TrackPointExtension>
            <ns3:atemp>26.0</ns3:atemp>
          </ns3:TrackPointExtension>
        </extensions>
      </trkpt>
      <trkpt lat="42.53189236856997013092041015625" lon="19.955438263714313507080078125">
        <ele>1593.4000244140625</ele>
        <time>2026-06-17T08:56:34.000Z</time>
        <extensions>
          <ns3:TrackPointExtension>
            <ns3:atemp>26.0</ns3:atemp>
          </ns3:TrackPointExtension>
        </extensions>
      </trkpt>
      <trkpt lat="42.53191013820469379425048828125" lon="19.95541186071932315826416015625">
        <ele>1593.800048828125</ele>
        <time>2026-06-17T08:56:35.000Z</time>
        <extensions>
          <ns3:TrackPointExtension>
            <ns3:atemp>26.0</ns3:atemp>
          </ns3:TrackPointExtension>
        </extensions>
      </trkpt>
      <trkpt lat="42.531926147639751434326171875" lon="19.95538520626723766326904296875">
        <ele>1594</ele>
        <time>2026-06-17T08:56:36.000Z</time>
        <extensions>
          <ns3:TrackPointExtension>
            <ns3:atemp>26.0</ns3:atemp>
          </ns3:TrackPointExtension>
        </extensions>
      </trkpt>
      <trkpt lat="42.5319434143602848052978515625" lon="19.95535469613969326019287109375">
        <ele>1594.199951171875</ele>
        <time>2026-06-17T08:56:37.000Z</time>
        <extensions>
          <ns3:TrackPointExtension>
            <ns3:atemp>26.0</ns3:atemp>
          </ns3:TrackPointExtension>
        </extensions>
      </trkpt>
      <trkpt lat="42.53195690922439098358154296875" lon="19.9553244374692440032958984375">
        <ele>1594.5999755859375</ele>
        <time>2026-06-17T08:56:38.000Z</time>
        <extensions>
          <ns3:TrackPointExtension>
            <ns3:atemp>26.0</ns3:atemp>
          </ns3:TrackPointExtension>
        </extensions>
      </trkpt>
      <trkpt lat="42.531967051327228546142578125" lon="19.95529635809361934661865234375">
        <ele>1594.5999755859375</ele>
        <time>2026-06-17T08:56:39.000Z</time>
        <extensions>
          <ns3:TrackPointExtension>
            <ns3:atemp>26.0</ns3:atemp>
          </ns3:TrackPointExtension>
        </extensions>
      </trkpt>
      <trkpt lat="42.5319776125252246856689453125" lon="19.95526685379445552825927734375">
        <ele>1594.800048828125</ele>
        <time>2026-06-17T08:56:40.000Z</time>
        <extensions>
          <ns3:TrackPointExtension>
            <ns3:atemp>26.0</ns3:atemp>
          </ns3:TrackPointExtension>
        </extensions>
      </trkpt>
      <trkpt lat="42.53199018537998199462890625" lon="19.9552342481911182403564453125">
        <ele>1595</ele>
        <time>2026-06-17T08:56:41.000Z</time>
        <extensions>
          <ns3:TrackPointExtension>
            <ns3:atemp>26.0</ns3:atemp>
          </ns3:TrackPointExtension>
        </extensions>
      </trkpt>
      <trkpt lat="42.5320054404437541961669921875" lon="19.955202899873256683349609375">
        <ele>1595</ele>
        <time>2026-06-17T08:56:42.000Z</time>
        <extensions>
          <ns3:TrackPointExtension>
            <ns3:atemp>26.0</ns3:atemp>
          </ns3:TrackPointExtension>
        </extensions>
      </trkpt>
      <trkpt lat="42.532018013298511505126953125" lon="19.95516777969896793365478515625">
        <ele>1595</ele>
        <time>2026-06-17T08:56:43.000Z</time>
        <extensions>
          <ns3:TrackPointExtension>
            <ns3:atemp>26.0</ns3:atemp>
          </ns3:TrackPointExtension>
        </extensions>
      </trkpt>
      <trkpt lat="42.53203284926712512969970703125" lon="19.95512838475406169891357421875">
        <ele>1595.199951171875</ele>
        <time>2026-06-17T08:56:44.000Z</time>
        <extensions>
          <ns3:TrackPointExtension>
            <ns3:atemp>26.0</ns3:atemp>
          </ns3:TrackPointExtension>
        </extensions>
      </trkpt>
      <trkpt lat="42.5320426560938358306884765625" lon="19.9550920911133289337158203125">
        <ele>1595.4000244140625</ele>
        <time>2026-06-17T08:56:45.000Z</time>
        <extensions>
          <ns3:TrackPointExtension>
            <ns3:atemp>26.0</ns3:atemp>
          </ns3:TrackPointExtension>
        </extensions>
      </trkpt>
      <trkpt lat="42.53205053508281707763671875" lon="19.955059401690959930419921875">
        <ele>1595.5999755859375</ele>
        <time>2026-06-17T08:56:46.000Z</time>
        <extensions>
          <ns3:TrackPointExtension>
            <ns3:atemp>26.0</ns3:atemp>
          </ns3:TrackPointExtension>
        </extensions>
      </trkpt>
      <trkpt lat="42.53206285648047924041748046875" lon="19.9550267122685909271240234375">
        <ele>1595.800048828125</ele>
        <time>2026-06-17T08:56:47.000Z</time>
        <extensions>
          <ns3:TrackPointExtension>
            <ns3:atemp>26.0</ns3:atemp>
          </ns3:TrackPointExtension>
        </extensions>
      </trkpt>
      <trkpt lat="42.53207073546946048736572265625" lon="19.9549962021410465240478515625">
        <ele>1596</ele>
        <time>2026-06-17T08:56:48.000Z</time>
        <extensions>
          <ns3:TrackPointExtension>
            <ns3:atemp>26.0</ns3:atemp>
          </ns3:TrackPointExtension>
        </extensions>
      </trkpt>
      <trkpt lat="42.53207492642104625701904296875" lon="19.95496326126158237457275390625">
        <ele>1596.199951171875</ele>
        <time>2026-06-17T08:56:49.000Z</time>
        <extensions>
          <ns3:TrackPointExtension>
            <ns3:atemp>26.0</ns3:atemp>
          </ns3:TrackPointExtension>
        </extensions>
      </trkpt>
      <trkpt lat="42.53207425586879253387451171875" lon="19.9549324996769428253173828125">
        <ele>1596.5999755859375</ele>
        <time>2026-06-17T08:56:50.000Z</time>
        <extensions>
          <ns3:TrackPointExtension>
            <ns3:atemp>26.0</ns3:atemp>
          </ns3:TrackPointExtension>
        </extensions>
      </trkpt>
      <trkpt lat="42.5320698134601116180419921875" lon="19.95490157045423984527587890625">
        <ele>1596.800048828125</ele>
        <time>2026-06-17T08:56:51.000Z</time>
        <extensions>
          <ns3:TrackPointExtension>
            <ns3:atemp>26.0</ns3:atemp>
          </ns3:TrackPointExtension>
        </extensions>
      </trkpt>
      <trkpt lat="42.53206528723239898681640625" lon="19.95487307198345661163330078125">
        <ele>1597</ele>
        <time>2026-06-17T08:56:52.000Z</time>
        <extensions>
          <ns3:TrackPointExtension>
            <ns3:atemp>26.0</ns3:atemp>
          </ns3:TrackPointExtension>
        </extensions>
      </trkpt>
      <trkpt lat="42.53205455839633941650390625" lon="19.9548557214438915252685546875">
        <ele>1597.199951171875</ele>
        <time>2026-06-17T08:56:53.000Z</time>
        <extensions>
          <ns3:TrackPointExtension>
            <ns3:atemp>26.0</ns3:atemp>
          </ns3:TrackPointExtension>
        </extensions>
      </trkpt>
      <trkpt lat="42.53203838132321834564208984375" lon="19.95484356768429279327392578125">
        <ele>1597.4000244140625</ele>
        <time>2026-06-17T08:56:54.000Z</time>
        <extensions>
          <ns3:TrackPointExtension>
            <ns3:atemp>26.0</ns3:atemp>
          </ns3:TrackPointExtension>
        </extensions>
      </trkpt>
      <trkpt lat="42.5320203602313995361328125" lon="19.954835437238216400146484375">
        <ele>1597.4000244140625</ele>
        <time>2026-06-17T08:56:55.000Z</time>
        <extensions>
          <ns3:TrackPointExtension>
            <ns3:atemp>26.0</ns3:atemp>
          </ns3:TrackPointExtension>
        </extensions>
      </trkpt>
      <trkpt lat="42.53200468607246875762939453125" lon="19.95483317412436008453369140625">
        <ele>1597.5999755859375</ele>
        <time>2026-06-17T08:56:56.000Z</time>
        <extensions>
          <ns3:TrackPointExtension>
            <ns3:atemp>26.0</ns3:atemp>
          </ns3:TrackPointExtension>
        </extensions>
      </trkpt>
      <trkpt lat="42.5319923646748065948486328125" lon="19.954843483865261077880859375">
        <ele>1597.5999755859375</ele>
        <time>2026-06-17T08:56:57.000Z</time>
        <extensions>
          <ns3:TrackPointExtension>
            <ns3:atemp>26.0</ns3:atemp>
          </ns3:TrackPointExtension>
        </extensions>
      </trkpt>
      <trkpt lat="42.53197811543941497802734375" lon="19.9548607505857944488525390625">
        <ele>1597.800048828125</ele>
        <time>2026-06-17T08:56:58.000Z</time>
        <extensions>
          <ns3:TrackPointExtension>
            <ns3:atemp>26.0</ns3:atemp>
          </ns3:TrackPointExtension>
        </extensions>
      </trkpt>
      <trkpt lat="42.531975097954273223876953125" lon="19.95487910695374011993408203125">
        <ele>1598.199951171875</ele>
        <time>2026-06-17T08:56:59.000Z</time>
        <extensions>
          <ns3:TrackPointExtension>
            <ns3:atemp>26.0</ns3:atemp>
          </ns3:TrackPointExtension>
        </extensions>
      </trkpt>
      <trkpt lat="42.531969062983989715576171875" lon="19.95489603839814662933349609375">
        <ele>1598.5999755859375</ele>
        <time>2026-06-17T08:57:00.000Z</time>
        <extensions>
          <ns3:TrackPointExtension>
            <ns3:atemp>26.0</ns3:atemp>
          </ns3:TrackPointExtension>
        </extensions>
      </trkpt>
      <trkpt lat="42.5319598428905010223388671875" lon="19.95491146109998226165771484375">
        <ele>1598.800048828125</ele>
        <time>2026-06-17T08:57:01.000Z</time>
        <extensions>
          <ns3:TrackPointExtension>
            <ns3:atemp>26.0</ns3:atemp>
          </ns3:TrackPointExtension>
        </extensions>
      </trkpt>
      <trkpt lat="42.5319487787783145904541015625" lon="19.95493845082819461822509765625">
        <ele>1599.199951171875</ele>
        <time>2026-06-17T08:57:02.000Z</time>
        <extensions>
          <ns3:TrackPointExtension>
            <ns3:atemp>26.0</ns3:atemp>
          </ns3:TrackPointExtension>
        </extensions>
      </trkpt>
      <trkpt lat="42.53193662501871585845947265625" lon="19.95496175251901149749755859375">
        <ele>1599.4000244140625</ele>
        <time>2026-06-17T08:57:03.000Z</time>
        <extensions>
          <ns3:TrackPointExtension>
            <ns3:atemp>26.0</ns3:atemp>
          </ns3:TrackPointExtension>
        </extensions>
      </trkpt>
      <trkpt lat="42.5319226272404193878173828125" lon="19.9549898318946361541748046875">
        <ele>1599.5999755859375</ele>
        <time>2026-06-17T08:57:04.000Z</time>
        <extensions>
          <ns3:TrackPointExtension>
            <ns3:atemp>26.0</ns3:atemp>
          </ns3:TrackPointExtension>
        </extensions>
      </trkpt>
      <trkpt lat="42.5319098867475986480712890625" lon="19.9550060927867889404296875">
        <ele>1599.800048828125</ele>
        <time>2026-06-17T08:57:05.000Z</time>
        <extensions>
          <ns3:TrackPointExtension>
            <ns3:atemp>26.0</ns3:atemp>
          </ns3:TrackPointExtension>
        </extensions>
      </trkpt>
      <trkpt lat="42.5318971462547779083251953125" lon="19.95502595789730548858642578125">
        <ele>1600</ele>
        <time>2026-06-17T08:57:06.000Z</time>
        <extensions>
          <ns3:TrackPointExtension>
            <ns3:atemp>26.0</ns3:atemp>
          </ns3:TrackPointExtension>
        </extensions>
      </trkpt>
      <trkpt lat="42.53188314847648143768310546875" lon="19.95505143888294696807861328125">
        <ele>1600.199951171875</ele>
        <time>2026-06-17T08:57:07.000Z</time>
        <extensions>
          <ns3:TrackPointExtension>
            <ns3:atemp>26.0</ns3:atemp>
          </ns3:TrackPointExtension>
        </extensions>
      </trkpt>
      <trkpt lat="42.5318720005452632904052734375" lon="19.95507180690765380859375">
        <ele>1600.4000244140625</ele>
        <time>2026-06-17T08:57:08.000Z</time>
        <extensions>
          <ns3:TrackPointExtension>
            <ns3:atemp>26.0</ns3:atemp>
          </ns3:TrackPointExtension>
        </extensions>
      </trkpt>
      <trkpt lat="42.53186102025210857391357421875" lon="19.95508966036140918731689453125">
        <ele>1600.800048828125</ele>
        <time>2026-06-17T08:57:09.000Z</time>
        <extensions>
          <ns3:TrackPointExtension>
            <ns3:atemp>26.0</ns3:atemp>
          </ns3:TrackPointExtension>
        </extensions>
      </trkpt>
      <trkpt lat="42.53184677101671695709228515625" lon="19.9551101960241794586181640625">
        <ele>1601.199951171875</ele>
        <time>2026-06-17T08:57:10.000Z</time>
        <extensions>
          <ns3:TrackPointExtension>
            <ns3:atemp>26.0</ns3:atemp>
          </ns3:TrackPointExtension>
        </extensions>
      </trkpt>
      <trkpt lat="42.5318274088203907012939453125" lon="19.95512746274471282958984375">
        <ele>1601.4000244140625</ele>
        <time>2026-06-17T08:57:11.000Z</time>
        <extensions>
          <ns3:TrackPointExtension>
            <ns3:atemp>26.0</ns3:atemp>
          </ns3:TrackPointExtension>
        </extensions>
      </trkpt>
      <trkpt lat="42.531810142099857330322265625" lon="19.95514883659780025482177734375">
        <ele>1601.5999755859375</ele>
        <time>2026-06-17T08:57:12.000Z</time>
        <extensions>
          <ns3:TrackPointExtension>
            <ns3:atemp>26.0</ns3:atemp>
          </ns3:TrackPointExtension>
        </extensions>
      </trkpt>
      <trkpt lat="42.53179580904543399810791015625" lon="19.95517247356474399566650390625">
        <ele>1601.800048828125</ele>
        <time>2026-06-17T08:57:13.000Z</time>
        <extensions>
          <ns3:TrackPointExtension>
            <ns3:atemp>26.0</ns3:atemp>
          </ns3:TrackPointExtension>
        </extensions>
      </trkpt>
      <trkpt lat="42.53177829086780548095703125" lon="19.955190829932689666748046875">
        <ele>1602</ele>
        <time>2026-06-17T08:57:14.000Z</time>
        <extensions>
          <ns3:TrackPointExtension>
            <ns3:atemp>26.0</ns3:atemp>
          </ns3:TrackPointExtension>
        </extensions>
      </trkpt>
      <trkpt lat="42.531764209270477294921875" lon="19.95520264841616153717041015625">
        <ele>1602</ele>
        <time>2026-06-17T08:57:15.000Z</time>
        <extensions>
          <ns3:TrackPointExtension>
            <ns3:atemp>26.0</ns3:atemp>
          </ns3:TrackPointExtension>
        </extensions>
      </trkpt>
      <trkpt lat="42.53174786455929279327392578125" lon="19.9552127905189990997314453125">
        <ele>1602.199951171875</ele>
        <time>2026-06-17T08:57:16.000Z</time>
        <extensions>
          <ns3:TrackPointExtension>
            <ns3:atemp>26.0</ns3:atemp>
          </ns3:TrackPointExtension>
        </extensions>
      </trkpt>
      <trkpt lat="42.53173512406647205352783203125" lon="19.95522762648761272430419921875">
        <ele>1602.4000244140625</ele>
        <time>2026-06-17T08:57:17.000Z</time>
        <extensions>
          <ns3:TrackPointExtension>
            <ns3:atemp>26.0</ns3:atemp>
          </ns3:TrackPointExtension>
        </extensions>
      </trkpt>
      <trkpt lat="42.53172003664076328277587890625" lon="19.9552490003407001495361328125">
        <ele>1602.5999755859375</ele>
        <time>2026-06-17T08:57:18.000Z</time>
        <extensions>
          <ns3:TrackPointExtension>
            <ns3:atemp>26.0</ns3:atemp>
          </ns3:TrackPointExtension>
        </extensions>
      </trkpt>
      <trkpt lat="42.5317060388624668121337890625" lon="19.95526618324220180511474609375">
        <ele>1602.800048828125</ele>
        <time>2026-06-17T08:57:19.000Z</time>
        <extensions>
          <ns3:TrackPointExtension>
            <ns3:atemp>26.0</ns3:atemp>
          </ns3:TrackPointExtension>
        </extensions>
      </trkpt>
      <trkpt lat="42.531690783798694610595703125" lon="19.9552828632295131683349609375">
        <ele>1603</ele>
        <time>2026-06-17T08:57:20.000Z</time>
        <extensions>
          <ns3:TrackPointExtension>
            <ns3:atemp>26.0</ns3:atemp>
          </ns3:TrackPointExtension>
        </extensions>
      </trkpt>
      <trkpt lat="42.53167376853525638580322265625" lon="19.95529585517942905426025390625">
        <ele>1603.199951171875</ele>
        <time>2026-06-17T08:57:21.000Z</time>
        <extensions>
          <ns3:TrackPointExtension>
            <ns3:atemp>26.0</ns3:atemp>
          </ns3:TrackPointExtension>
        </extensions>
      </trkpt>
      <trkpt lat="42.53165935166180133819580078125" lon="19.95530490763485431671142578125">
        <ele>1603.4000244140625</ele>
        <time>2026-06-17T08:57:22.000Z</time>
        <extensions>
          <ns3:TrackPointExtension>
            <ns3:atemp>26.0</ns3:atemp>
          </ns3:TrackPointExtension>
        </extensions>
      </trkpt>
      <trkpt lat="42.53164242021739482879638671875" lon="19.95531228370964527130126953125">
        <ele>1603.5999755859375</ele>
        <time>2026-06-17T08:57:23.000Z</time>
        <extensions>
          <ns3:TrackPointExtension>
            <ns3:atemp>26.0</ns3:atemp>
          </ns3:TrackPointExtension>
        </extensions>
      </trkpt>
      <trkpt lat="42.5316255725920200347900390625" lon="19.9553180672228336334228515625">
        <ele>1604</ele>
        <time>2026-06-17T08:57:24.000Z</time>
        <extensions>
          <ns3:TrackPointExtension>
            <ns3:atemp>26.0</ns3:atemp>
          </ns3:TrackPointExtension>
        </extensions>
      </trkpt>
      <trkpt lat="42.5316091440618038177490234375" lon="19.95532485656440258026123046875">
        <ele>1604.4000244140625</ele>
        <time>2026-06-17T08:57:25.000Z</time>
        <extensions>
          <ns3:TrackPointExtension>
            <ns3:atemp>26.0</ns3:atemp>
          </ns3:TrackPointExtension>
        </extensions>
      </trkpt>
      <trkpt lat="42.5315930508077144622802734375" lon="19.95533172972500324249267578125">
        <ele>1604.800048828125</ele>
        <time>2026-06-17T08:57:26.000Z</time>
        <extensions>
          <ns3:TrackPointExtension>
            <ns3:atemp>26.0</ns3:atemp>
          </ns3:TrackPointExtension>
        </extensions>
      </trkpt>
      <trkpt lat="42.5315715931355953216552734375" lon="19.9553418718278408050537109375">
        <ele>1605.199951171875</ele>
        <time>2026-06-17T08:57:27.000Z</time>
        <extensions>
          <ns3:TrackPointExtension>
            <ns3:atemp>26.0</ns3:atemp>
          </ns3:TrackPointExtension>
        </extensions>
      </trkpt>
      <trkpt lat="42.53154502250254154205322265625" lon="19.95534379966557025909423828125">
        <ele>1605.5999755859375</ele>
        <time>2026-06-17T08:57:28.000Z</time>
        <extensions>
          <ns3:TrackPointExtension>
            <ns3:atemp>26.0</ns3:atemp>
          </ns3:TrackPointExtension>
        </extensions>
      </trkpt>
      <trkpt lat="42.53151970915496349334716796875" lon="19.95534882880747318267822265625">
        <ele>1605.800048828125</ele>
        <time>2026-06-17T08:57:29.000Z</time>
        <extensions>
          <ns3:TrackPointExtension>
            <ns3:atemp>26.0</ns3:atemp>
          </ns3:TrackPointExtension>
        </extensions>
      </trkpt>
      <trkpt lat="42.53150210715830326080322265625" lon="19.955356456339359283447265625">
        <ele>1606.199951171875</ele>
        <time>2026-06-17T08:57:30.000Z</time>
        <extensions>
          <ns3:TrackPointExtension>
            <ns3:atemp>26.0</ns3:atemp>
          </ns3:TrackPointExtension>
        </extensions>
      </trkpt>
      <trkpt lat="42.5314753688871860504150390625" lon="19.9553663469851016998291015625">
        <ele>1606.4000244140625</ele>
        <time>2026-06-17T08:57:31.000Z</time>
        <extensions>
          <ns3:TrackPointExtension>
            <ns3:atemp>26.0</ns3:atemp>
          </ns3:TrackPointExtension>
        </extensions>
      </trkpt>
      <trkpt lat="42.5314549170434474945068359375" lon="19.95536777190864086151123046875">
        <ele>1606.5999755859375</ele>
        <time>2026-06-17T08:57:32.000Z</time>
        <extensions>
          <ns3:TrackPointExtension>
            <ns3:atemp>26.0</ns3:atemp>
          </ns3:TrackPointExtension>
        </extensions>
      </trkpt>
      <trkpt lat="42.53143840469419956207275390625" lon="19.955370537936687469482421875">
        <ele>1606.800048828125</ele>
        <time>2026-06-17T08:57:33.000Z</time>
        <extensions>
          <ns3:TrackPointExtension>
            <ns3:atemp>26.0</ns3:atemp>
          </ns3:TrackPointExtension>
        </extensions>
      </trkpt>
      <trkpt lat="42.531421221792697906494140625" lon="19.95537799783051013946533203125">
        <ele>1607</ele>
        <time>2026-06-17T08:57:34.000Z</time>
        <extensions>
          <ns3:TrackPointExtension>
            <ns3:atemp>26.0</ns3:atemp>
          </ns3:TrackPointExtension>
        </extensions>
      </trkpt>
      <trkpt lat="42.5314042903482913970947265625" lon="19.95538604445755481719970703125">
        <ele>1607</ele>
        <time>2026-06-17T08:57:35.000Z</time>
        <extensions>
          <ns3:TrackPointExtension>
            <ns3:atemp>26.0</ns3:atemp>
          </ns3:TrackPointExtension>
        </extensions>
      </trkpt>
      <trkpt lat="42.53138191066682338714599609375" lon="19.95539124123752117156982421875">
        <ele>1607.199951171875</ele>
        <time>2026-06-17T08:57:36.000Z</time>
        <extensions>
          <ns3:TrackPointExtension>
            <ns3:atemp>26.0</ns3:atemp>
          </ns3:TrackPointExtension>
        </extensions>
      </trkpt>
      <trkpt lat="42.5313603691756725311279296875" lon="19.955400042235851287841796875">
        <ele>1607.199951171875</ele>
        <time>2026-06-17T08:57:37.000Z</time>
        <extensions>
          <ns3:TrackPointExtension>
            <ns3:atemp>26.0</ns3:atemp>
          </ns3:TrackPointExtension>
        </extensions>
      </trkpt>
      <trkpt lat="42.5313422642648220062255859375" lon="19.95540750212967395782470703125">
        <ele>1607.199951171875</ele>
        <time>2026-06-17T08:57:38.000Z</time>
        <extensions>
          <ns3:TrackPointExtension>
            <ns3:atemp>26.0</ns3:atemp>
          </ns3:TrackPointExtension>
        </extensions>
      </trkpt>
      <trkpt lat="42.53132164478302001953125" lon="19.95540733449161052703857421875">
        <ele>1607</ele>
        <time>2026-06-17T08:57:39.000Z</time>
        <extensions>
          <ns3:TrackPointExtension>
            <ns3:atemp>26.0</ns3:atemp>
          </ns3:TrackPointExtension>
        </extensions>
      </trkpt>
      <trkpt lat="42.53129675053060054779052734375" lon="19.95541018433868885040283203125">
        <ele>1607</ele>
        <time>2026-06-17T08:57:40.000Z</time>
        <extensions>
          <ns3:TrackPointExtension>
            <ns3:atemp>26.0</ns3:atemp>
          </ns3:TrackPointExtension>
        </extensions>
      </trkpt>
      <trkpt lat="42.5312648154795169830322265625" lon="19.9554122798144817352294921875">
        <ele>1607</ele>
        <time>2026-06-17T08:57:41.000Z</time>
        <extensions>
          <ns3:TrackPointExtension>
            <ns3:atemp>26.0</ns3:atemp>
          </ns3:TrackPointExtension>
        </extensions>
      </trkpt>
      <trkpt lat="42.5312326289713382720947265625" lon="19.95540850795805454254150390625">
        <ele>1606.800048828125</ele>
        <time>2026-06-17T08:57:42.000Z</time>
        <extensions>
          <ns3:TrackPointExtension>
            <ns3:atemp>26.0</ns3:atemp>
          </ns3:TrackPointExtension>
        </extensions>
      </trkpt>
      <trkpt lat="42.53120253793895244598388671875" lon="19.95540632866322994232177734375">
        <ele>1606.800048828125</ele>
        <time>2026-06-17T08:57:43.000Z</time>
        <extensions>
          <ns3:TrackPointExtension>
            <ns3:atemp>26.0</ns3:atemp>
          </ns3:TrackPointExtension>
        </extensions>
      </trkpt>
      <trkpt lat="42.53117437474429607391357421875" lon="19.95539300143718719482421875">
        <ele>1606.800048828125</ele>
        <time>2026-06-17T08:57:44.000Z</time>
        <extensions>
          <ns3:TrackPointExtension>
            <ns3:atemp>26.0</ns3:atemp>
          </ns3:TrackPointExtension>
        </extensions>
      </trkpt>
      <trkpt lat="42.5311431102454662322998046875" lon="19.95537598617374897003173828125">
        <ele>1607</ele>
        <time>2026-06-17T08:57:45.000Z</time>
        <extensions>
          <ns3:TrackPointExtension>
            <ns3:atemp>26.0</ns3:atemp>
          </ns3:TrackPointExtension>
        </extensions>
      </trkpt>
      <trkpt lat="42.53111486323177814483642578125" lon="19.95536307804286479949951171875">
        <ele>1607.199951171875</ele>
        <time>2026-06-17T08:57:46.000Z</time>
        <extensions>
          <ns3:TrackPointExtension>
            <ns3:atemp>26.0</ns3:atemp>
          </ns3:TrackPointExtension>
        </extensions>
      </trkpt>
      <trkpt lat="42.53109290264546871185302734375" lon="19.95536148548126220703125">
        <ele>1607.5999755859375</ele>
        <time>2026-06-17T08:57:47.000Z</time>
        <extensions>
          <ns3:TrackPointExtension>
            <ns3:atemp>26.0</ns3:atemp>
          </ns3:TrackPointExtension>
        </extensions>
      </trkpt>
      <trkpt lat="42.53106825985014438629150390625" lon="19.9553552828729152679443359375">
        <ele>1608</ele>
        <time>2026-06-17T08:57:48.000Z</time>
        <extensions>
          <ns3:TrackPointExtension>
            <ns3:atemp>26.0</ns3:atemp>
          </ns3:TrackPointExtension>
        </extensions>
      </trkpt>
      <trkpt lat="42.5310442037880420684814453125" lon="19.95534698478877544403076171875">
        <ele>1608.199951171875</ele>
        <time>2026-06-17T08:57:49.000Z</time>
        <extensions>
          <ns3:TrackPointExtension>
            <ns3:atemp>26.0</ns3:atemp>
          </ns3:TrackPointExtension>
        </extensions>
      </trkpt>
      <trkpt lat="42.5310210697352886199951171875" lon="19.9553467333316802978515625">
        <ele>1608.5999755859375</ele>
        <time>2026-06-17T08:57:50.000Z</time>
        <extensions>
          <ns3:TrackPointExtension>
            <ns3:atemp>26.0</ns3:atemp>
          </ns3:TrackPointExtension>
        </extensions>
      </trkpt>
      <trkpt lat="42.5309962593019008636474609375" lon="19.9553442187607288360595703125">
        <ele>1608.5999755859375</ele>
        <time>2026-06-17T08:57:51.000Z</time>
        <extensions>
          <ns3:TrackPointExtension>
            <ns3:atemp>26.0</ns3:atemp>
          </ns3:TrackPointExtension>
        </extensions>
      </trkpt>
      <trkpt lat="42.5309704430401325225830078125" lon="19.9553391896188259124755859375">
        <ele>1608.5999755859375</ele>
        <time>2026-06-17T08:57:52.000Z</time>
        <extensions>
          <ns3:TrackPointExtension>
            <ns3:atemp>26.0</ns3:atemp>
          </ns3:TrackPointExtension>
        </extensions>
      </trkpt>
      <trkpt lat="42.53093917854130268096923828125" lon="19.95533424429595470428466796875">
        <ele>1608.5999755859375</ele>
        <time>2026-06-17T08:57:53.000Z</time>
        <extensions>
          <ns3:TrackPointExtension>
            <ns3:atemp>26.0</ns3:atemp>
          </ns3:TrackPointExtension>
        </extensions>
      </trkpt>
      <trkpt lat="42.5309097580611705780029296875" lon="19.9553291313350200653076171875">
        <ele>1608.4000244140625</ele>
        <time>2026-06-17T08:57:54.000Z</time>
        <extensions>
          <ns3:TrackPointExtension>
            <ns3:atemp>26.0</ns3:atemp>
          </ns3:TrackPointExtension>
        </extensions>
      </trkpt>
      <trkpt lat="42.53088033758103847503662109375" lon="19.95532167144119739532470703125">
        <ele>1608.4000244140625</ele>
        <time>2026-06-17T08:57:55.000Z</time>
        <extensions>
          <ns3:TrackPointExtension>
            <ns3:atemp>26.0</ns3:atemp>
          </ns3:TrackPointExtension>
        </extensions>
      </trkpt>
      <trkpt lat="42.53085854463279247283935546875" lon="19.9553113617002964019775390625">
        <ele>1608.5999755859375</ele>
        <time>2026-06-17T08:57:56.000Z</time>
        <extensions>
          <ns3:TrackPointExtension>
            <ns3:atemp>26.0</ns3:atemp>
          </ns3:TrackPointExtension>
        </extensions>
      </trkpt>
      <trkpt lat="42.53083893097937107086181640625" lon="19.955308176577091217041015625">
        <ele>1608.800048828125</ele>
        <time>2026-06-17T08:57:57.000Z</time>
        <extensions>
          <ns3:TrackPointExtension>
            <ns3:atemp>26.0</ns3:atemp>
          </ns3:TrackPointExtension>
        </extensions>
      </trkpt>
      <trkpt lat="42.53082049079239368438720703125" lon="19.95530323125422000885009765625">
        <ele>1609</ele>
        <time>2026-06-17T08:57:58.000Z</time>
        <extensions>
          <ns3:TrackPointExtension>
            <ns3:atemp>26.0</ns3:atemp>
          </ns3:TrackPointExtension>
        </extensions>
      </trkpt>
      <trkpt lat="42.5308058224618434906005859375" lon="19.95529753156006336212158203125">
        <ele>1609</ele>
        <time>2026-06-17T08:57:59.000Z</time>
        <extensions>
          <ns3:TrackPointExtension>
            <ns3:atemp>26.0</ns3:atemp>
          </ns3:TrackPointExtension>
        </extensions>
      </trkpt>
      <trkpt lat="42.5307890586555004119873046875" lon="19.9552912451326847076416015625">
        <ele>1609</ele>
        <time>2026-06-17T08:58:00.000Z</time>
        <extensions>
          <ns3:TrackPointExtension>
            <ns3:atemp>26.0</ns3:atemp>
          </ns3:TrackPointExtension>
        </extensions>
      </trkpt>
      <trkpt lat="42.5307682715356349945068359375" lon="19.95528529398143291473388671875">
        <ele>1609</ele>
        <time>2026-06-17T08:58:01.000Z</time>
        <extensions>
          <ns3:TrackPointExtension>
            <ns3:atemp>26.0</ns3:atemp>
          </ns3:TrackPointExtension>
        </extensions>
      </trkpt>
      <trkpt lat="42.53074656240642070770263671875" lon="19.9552872218191623687744140625">
        <ele>1609</ele>
        <time>2026-06-17T08:58:02.000Z</time>
        <extensions>
          <ns3:TrackPointExtension>
            <ns3:atemp>26.0</ns3:atemp>
          </ns3:TrackPointExtension>
        </extensions>
      </trkpt>
      <trkpt lat="42.5307253561913967132568359375" lon="19.955292753875255584716796875">
        <ele>1609</ele>
        <time>2026-06-17T08:58:03.000Z</time>
        <extensions>
          <ns3:TrackPointExtension>
            <ns3:atemp>26.0</ns3:atemp>
          </ns3:TrackPointExtension>
        </extensions>
      </trkpt>
      <trkpt lat="42.530712448060512542724609375" lon="19.955302812159061431884765625">
        <ele>1609</ele>
        <time>2026-06-17T08:58:04.000Z</time>
        <extensions>
          <ns3:TrackPointExtension>
            <ns3:atemp>26.0</ns3:atemp>
          </ns3:TrackPointExtension>
        </extensions>
      </trkpt>
      <trkpt lat="42.53069392405450344085693359375" lon="19.955318234860897064208984375">
        <ele>1609</ele>
        <time>2026-06-17T08:58:05.000Z</time>
        <extensions>
          <ns3:TrackPointExtension>
            <ns3:atemp>26.0</ns3:atemp>
          </ns3:TrackPointExtension>
        </extensions>
      </trkpt>
      <trkpt lat="42.53068151883780956268310546875" lon="19.95533927343785762786865234375">
        <ele>1609</ele>
        <time>2026-06-17T08:58:06.000Z</time>
        <extensions>
          <ns3:TrackPointExtension>
            <ns3:atemp>26.0</ns3:atemp>
          </ns3:TrackPointExtension>
        </extensions>
      </trkpt>
      <trkpt lat="42.53067322075366973876953125" lon="19.9553589709103107452392578125">
        <ele>1608.800048828125</ele>
        <time>2026-06-17T08:58:07.000Z</time>
        <extensions>
          <ns3:TrackPointExtension>
            <ns3:atemp>26.0</ns3:atemp>
          </ns3:TrackPointExtension>
        </extensions>
      </trkpt>
      <trkpt lat="42.5306660123169422149658203125" lon="19.9553817696869373321533203125">
        <ele>1608.5999755859375</ele>
        <time>2026-06-17T08:58:08.000Z</time>
        <extensions>
          <ns3:TrackPointExtension>
            <ns3:atemp>26.0</ns3:atemp>
          </ns3:TrackPointExtension>
        </extensions>
      </trkpt>
      <trkpt lat="42.5306524336338043212890625" lon="19.9554059095680713653564453125">
        <ele>1608.5999755859375</ele>
        <time>2026-06-17T08:58:09.000Z</time>
        <extensions>
          <ns3:TrackPointExtension>
            <ns3:atemp>26.0</ns3:atemp>
          </ns3:TrackPointExtension>
        </extensions>
      </trkpt>
      <trkpt lat="42.53064832650125026702880859375" lon="19.955444969236850738525390625">
        <ele>1608.5999755859375</ele>
        <time>2026-06-17T08:58:10.000Z</time>
        <extensions>
          <ns3:TrackPointExtension>
            <ns3:atemp>26.0</ns3:atemp>
          </ns3:TrackPointExtension>
        </extensions>
      </trkpt>
      <trkpt lat="42.53064480610191822052001953125" lon="19.95547958649694919586181640625">
        <ele>1608.5999755859375</ele>
        <time>2026-06-17T08:58:11.000Z</time>
        <extensions>
          <ns3:TrackPointExtension>
            <ns3:atemp>26.0</ns3:atemp>
          </ns3:TrackPointExtension>
        </extensions>
      </trkpt>
      <trkpt lat="42.53063541837036609649658203125" lon="19.9555170536041259765625">
        <ele>1608.800048828125</ele>
        <time>2026-06-17T08:58:12.000Z</time>
        <extensions>
          <ns3:TrackPointExtension>
            <ns3:atemp>26.0</ns3:atemp>
          </ns3:TrackPointExtension>
        </extensions>
      </trkpt>
      <trkpt lat="42.53062427043914794921875" lon="19.955545552074909210205078125">
        <ele>1608.800048828125</ele>
        <time>2026-06-17T08:58:13.000Z</time>
        <extensions>
          <ns3:TrackPointExtension>
            <ns3:atemp>26.0</ns3:atemp>
          </ns3:TrackPointExtension>
        </extensions>
      </trkpt>
      <trkpt lat="42.53061689436435699462890625" lon="19.9555762298405170440673828125">
        <ele>1609</ele>
        <time>2026-06-17T08:58:14.000Z</time>
        <extensions>
          <ns3:TrackPointExtension>
            <ns3:atemp>26.0</ns3:atemp>
          </ns3:TrackPointExtension>
        </extensions>
      </trkpt>
      <trkpt lat="42.53061111085116863250732421875" lon="19.9556070752441883087158203125">
        <ele>1609.199951171875</ele>
        <time>2026-06-17T08:58:15.000Z</time>
        <extensions>
          <ns3:TrackPointExtension>
            <ns3:atemp>26.0</ns3:atemp>
          </ns3:TrackPointExtension>
        </extensions>
      </trkpt>
      <trkpt lat="42.53060616552829742431640625" lon="19.9556379206478595733642578125">
        <ele>1609.199951171875</ele>
        <time>2026-06-17T08:58:16.000Z</time>
        <extensions>
          <ns3:TrackPointExtension>
            <ns3:atemp>26.0</ns3:atemp>
          </ns3:TrackPointExtension>
        </extensions>
      </trkpt>
      <trkpt lat="42.53060490824282169342041015625" lon="19.95566583238542079925537109375">
        <ele>1609.199951171875</ele>
        <time>2026-06-17T08:58:17.000Z</time>
        <extensions>
          <ns3:TrackPointExtension>
            <ns3:atemp>26.0</ns3:atemp>
          </ns3:TrackPointExtension>
        </extensions>
      </trkpt>
      <trkpt lat="42.53059049136936664581298828125" lon="19.95568863116204738616943359375">
        <ele>1609.199951171875</ele>
        <time>2026-06-17T08:58:18.000Z</time>
        <extensions>
          <ns3:TrackPointExtension>
            <ns3:atemp>26.0</ns3:atemp>
          </ns3:TrackPointExtension>
        </extensions>
      </trkpt>
      <trkpt lat="42.53057389520108699798583984375" lon="19.95571746490895748138427734375">
        <ele>1609</ele>
        <time>2026-06-17T08:58:19.000Z</time>
        <extensions>
          <ns3:TrackPointExtension>
            <ns3:atemp>26.0</ns3:atemp>
          </ns3:TrackPointExtension>
        </extensions>
      </trkpt>
      <trkpt lat="42.53056165762245655059814453125" lon="19.95574126951396465301513671875">
        <ele>1609</ele>
        <time>2026-06-17T08:58:20.000Z</time>
        <extensions>
          <ns3:TrackPointExtension>
            <ns3:atemp>26.0</ns3:atemp>
          </ns3:TrackPointExtension>
        </extensions>
      </trkpt>
      <trkpt lat="42.530553527176380157470703125" lon="19.9557693488895893096923828125">
        <ele>1609</ele>
        <time>2026-06-17T08:58:21.000Z</time>
        <extensions>
          <ns3:TrackPointExtension>
            <ns3:atemp>26.0</ns3:atemp>
          </ns3:TrackPointExtension>
        </extensions>
      </trkpt>
      <trkpt lat="42.53054455853998661041259765625" lon="19.95579575188457965850830078125">
        <ele>1609</ele>
        <time>2026-06-17T08:58:22.000Z</time>
        <extensions>
          <ns3:TrackPointExtension>
            <ns3:atemp>26.0</ns3:atemp>
          </ns3:TrackPointExtension>
        </extensions>
      </trkpt>
      <trkpt lat="42.530530057847499847412109375" lon="19.9558266811072826385498046875">
        <ele>1608.800048828125</ele>
        <time>2026-06-17T08:58:23.000Z</time>
        <extensions>
          <ns3:TrackPointExtension>
            <ns3:atemp>26.0</ns3:atemp>
          </ns3:TrackPointExtension>
        </extensions>
      </trkpt>
      <trkpt lat="42.5305087678134441375732421875" lon="19.95585744269192218780517578125">
        <ele>1608.800048828125</ele>
        <time>2026-06-17T08:58:24.000Z</time>
        <extensions>
          <ns3:TrackPointExtension>
            <ns3:atemp>26.0</ns3:atemp>
          </ns3:TrackPointExtension>
        </extensions>
      </trkpt>
      <trkpt lat="42.5304834544658660888671875" lon="19.95588242076337337493896484375">
        <ele>1609</ele>
        <time>2026-06-17T08:58:25.000Z</time>
        <extensions>
          <ns3:TrackPointExtension>
            <ns3:atemp>26.0</ns3:atemp>
          </ns3:TrackPointExtension>
        </extensions>
      </trkpt>
      <trkpt lat="42.53045772202312946319580078125" lon="19.9559115059673786163330078125">
        <ele>1609</ele>
        <time>2026-06-17T08:58:26.000Z</time>
        <extensions>
          <ns3:TrackPointExtension>
            <ns3:atemp>26.0</ns3:atemp>
          </ns3:TrackPointExtension>
        </extensions>
      </trkpt>
      <trkpt lat="42.5304319895803928375244140625" lon="19.9559376575052738189697265625">
        <ele>1609</ele>
        <time>2026-06-17T08:58:27.000Z</time>
        <extensions>
          <ns3:TrackPointExtension>
            <ns3:atemp>26.0</ns3:atemp>
          </ns3:TrackPointExtension>
        </extensions>
      </trkpt>
      <trkpt lat="42.53041011281311511993408203125" lon="19.95595651678740978240966796875">
        <ele>1609.199951171875</ele>
        <time>2026-06-17T08:58:28.000Z</time>
        <extensions>
          <ns3:TrackPointExtension>
            <ns3:atemp>26.0</ns3:atemp>
          </ns3:TrackPointExtension>
        </extensions>
      </trkpt>
      <trkpt lat="42.5303900800645351409912109375" lon="19.9559782259166240692138671875">
        <ele>1609.4000244140625</ele>
        <time>2026-06-17T08:58:29.000Z</time>
        <extensions>
          <ns3:TrackPointExtension>
            <ns3:atemp>26.0</ns3:atemp>
          </ns3:TrackPointExtension>
        </extensions>
      </trkpt>
      <trkpt lat="42.5303679518401622772216796875" lon="19.95599138550460338592529296875">
        <ele>1609.5999755859375</ele>
        <time>2026-06-17T08:58:30.000Z</time>
        <extensions>
          <ns3:TrackPointExtension>
            <ns3:atemp>26.0</ns3:atemp>
          </ns3:TrackPointExtension>
        </extensions>
      </trkpt>
      <trkpt lat="42.53034674562513828277587890625" lon="19.95601393282413482666015625">
        <ele>1609.5999755859375</ele>
        <time>2026-06-17T08:58:31.000Z</time>
        <extensions>
          <ns3:TrackPointExtension>
            <ns3:atemp>26.0</ns3:atemp>
          </ns3:TrackPointExtension>
        </extensions>
      </trkpt>
      <trkpt lat="42.5303300656378269195556640625" lon="19.95602625422179698944091796875">
        <ele>1609.800048828125</ele>
        <time>2026-06-17T08:58:32.000Z</time>
        <extensions>
          <ns3:TrackPointExtension>
            <ns3:atemp>26.0</ns3:atemp>
          </ns3:TrackPointExtension>
        </extensions>
      </trkpt>
      <trkpt lat="42.53031187690794467926025390625" lon="19.9560392461717128753662109375">
        <ele>1610</ele>
        <time>2026-06-17T08:58:33.000Z</time>
        <extensions>
          <ns3:TrackPointExtension>
            <ns3:atemp>26.0</ns3:atemp>
          </ns3:TrackPointExtension>
        </extensions>
      </trkpt>
      <trkpt lat="42.53029712475836277008056640625" lon="19.9560513161122798919677734375">
        <ele>1610.199951171875</ele>
        <time>2026-06-17T08:58:34.000Z</time>
        <extensions>
          <ns3:TrackPointExtension>
            <ns3:atemp>26.0</ns3:atemp>
          </ns3:TrackPointExtension>
        </extensions>
      </trkpt>
      <trkpt lat="42.5302831269800662994384765625" lon="19.95606732554733753204345703125">
        <ele>1610.199951171875</ele>
        <time>2026-06-17T08:58:35.000Z</time>
        <extensions>
          <ns3:TrackPointExtension>
            <ns3:atemp>26.0</ns3:atemp>
          </ns3:TrackPointExtension>
        </extensions>
      </trkpt>
      <trkpt lat="42.5302730686962604522705078125" lon="19.9560871906578540802001953125">
        <ele>1610.199951171875</ele>
        <time>2026-06-17T08:58:36.000Z</time>
        <extensions>
          <ns3:TrackPointExtension>
            <ns3:atemp>26.0</ns3:atemp>
          </ns3:TrackPointExtension>
        </extensions>
      </trkpt>
      <trkpt lat="42.53026745282113552093505859375" lon="19.9561084806919097900390625">
        <ele>1610.199951171875</ele>
        <time>2026-06-17T08:58:37.000Z</time>
        <extensions>
          <ns3:TrackPointExtension>
            <ns3:atemp>26.0</ns3:atemp>
          </ns3:TrackPointExtension>
        </extensions>
      </trkpt>
      <trkpt lat="42.53025881946086883544921875" lon="19.956126250326633453369140625">
        <ele>1610.4000244140625</ele>
        <time>2026-06-17T08:58:38.000Z</time>
        <extensions>
          <ns3:TrackPointExtension>
            <ns3:atemp>26.0</ns3:atemp>
          </ns3:TrackPointExtension>
        </extensions>
      </trkpt>
      <trkpt lat="42.53024348057806491851806640625" lon="19.9561465345323085784912109375">
        <ele>1610.5999755859375</ele>
        <time>2026-06-17T08:58:39.000Z</time>
        <extensions>
          <ns3:TrackPointExtension>
            <ns3:atemp>26.0</ns3:atemp>
          </ns3:TrackPointExtension>
        </extensions>
      </trkpt>
      <trkpt lat="42.5302331708371639251708984375" lon="19.9561736918985843658447265625">
        <ele>1610.800048828125</ele>
        <time>2026-06-17T08:58:40.000Z</time>
        <extensions>
          <ns3:TrackPointExtension>
            <ns3:atemp>26.0</ns3:atemp>
          </ns3:TrackPointExtension>
        </extensions>
      </trkpt>
      <trkpt lat="42.530219592154026031494140625" lon="19.95619942434132099151611328125">
        <ele>1611</ele>
        <time>2026-06-17T08:58:41.000Z</time>
        <extensions>
          <ns3:TrackPointExtension>
            <ns3:atemp>26.0</ns3:atemp>
          </ns3:TrackPointExtension>
        </extensions>
      </trkpt>
      <trkpt lat="42.53020861186087131500244140625" lon="19.9562291800975799560546875">
        <ele>1611</ele>
        <time>2026-06-17T08:58:42.000Z</time>
        <extensions>
          <ns3:TrackPointExtension>
            <ns3:atemp>26.0</ns3:atemp>
          </ns3:TrackPointExtension>
        </extensions>
      </trkpt>
      <trkpt lat="42.5301942788064479827880859375" lon="19.9562565051019191741943359375">
        <ele>1610.800048828125</ele>
        <time>2026-06-17T08:58:43.000Z</time>
        <extensions>
          <ns3:TrackPointExtension>
            <ns3:atemp>26.0</ns3:atemp>
          </ns3:TrackPointExtension>
        </extensions>
      </trkpt>
      <trkpt lat="42.5301758386194705963134765625" lon="19.95629179291427135467529296875">
        <ele>1610.800048828125</ele>
        <time>2026-06-17T08:58:44.000Z</time>
        <extensions>
          <ns3:TrackPointExtension>
            <ns3:atemp>26.0</ns3:atemp>
          </ns3:TrackPointExtension>
        </extensions>
      </trkpt>
      <trkpt lat="42.53015982918441295623779296875" lon="19.9563265778124332427978515625">
        <ele>1610.800048828125</ele>
        <time>2026-06-17T08:58:45.000Z</time>
        <extensions>
          <ns3:TrackPointExtension>
            <ns3:atemp>26.0</ns3:atemp>
          </ns3:TrackPointExtension>
        </extensions>
      </trkpt>
      <trkpt lat="42.53014273010194301605224609375" lon="19.956363625824451446533203125">
        <ele>1610.800048828125</ele>
        <time>2026-06-17T08:58:46.000Z</time>
        <extensions>
          <ns3:TrackPointExtension>
            <ns3:atemp>26.0</ns3:atemp>
          </ns3:TrackPointExtension>
        </extensions>
      </trkpt>
      <trkpt lat="42.53012781031429767608642578125" lon="19.95639539323747158050537109375">
        <ele>1610.800048828125</ele>
        <time>2026-06-17T08:58:47.000Z</time>
        <extensions>
          <ns3:TrackPointExtension>
            <ns3:atemp>26.0</ns3:atemp>
          </ns3:TrackPointExtension>
        </extensions>
      </trkpt>
      <trkpt lat="42.5301121361553668975830078125" lon="19.95642774738371372222900390625">
        <ele>1611</ele>
        <time>2026-06-17T08:58:48.000Z</time>
        <extensions>
          <ns3:TrackPointExtension>
            <ns3:atemp>26.0</ns3:atemp>
          </ns3:TrackPointExtension>
        </extensions>
      </trkpt>
      <trkpt lat="42.53009662963449954986572265625" lon="19.95645649731159210205078125">
        <ele>1611.199951171875</ele>
        <time>2026-06-17T08:58:49.000Z</time>
        <extensions>
          <ns3:TrackPointExtension>
            <ns3:atemp>26.0</ns3:atemp>
          </ns3:TrackPointExtension>
        </extensions>
      </trkpt>
      <trkpt lat="42.53008238039910793304443359375" lon="19.9564804695546627044677734375">
        <ele>1611.4000244140625</ele>
        <time>2026-06-17T08:58:50.000Z</time>
        <extensions>
          <ns3:TrackPointExtension>
            <ns3:atemp>25.0</ns3:atemp>
          </ns3:TrackPointExtension>
        </extensions>
      </trkpt>
      <trkpt lat="42.53006427548825740814208984375" lon="19.95650201104581356048583984375">
        <ele>1611.5999755859375</ele>
        <time>2026-06-17T08:58:51.000Z</time>
        <extensions>
          <ns3:TrackPointExtension>
            <ns3:atemp>25.0</ns3:atemp>
          </ns3:TrackPointExtension>
        </extensions>
      </trkpt>
      <trkpt lat="42.53004902042448520660400390625" lon="19.95652623474597930908203125">
        <ele>1612</ele>
        <time>2026-06-17T08:58:52.000Z</time>
        <extensions>
          <ns3:TrackPointExtension>
            <ns3:atemp>25.0</ns3:atemp>
          </ns3:TrackPointExtension>
        </extensions>
      </trkpt>
      <trkpt lat="42.53002990968525409698486328125" lon="19.9565619416534900665283203125">
        <ele>1612.199951171875</ele>
        <time>2026-06-17T08:58:53.000Z</time>
        <extensions>
          <ns3:TrackPointExtension>
            <ns3:atemp>25.0</ns3:atemp>
          </ns3:TrackPointExtension>
        </extensions>
      </trkpt>
      <trkpt lat="42.5300112180411815643310546875" lon="19.95659035630524158477783203125">
        <ele>1612.199951171875</ele>
        <time>2026-06-17T08:58:54.000Z</time>
        <extensions>
          <ns3:TrackPointExtension>
            <ns3:atemp>25.0</ns3:atemp>
          </ns3:TrackPointExtension>
        </extensions>
      </trkpt>
      <trkpt lat="42.52999353222548961639404296875" lon="19.956619441509246826171875">
        <ele>1612.199951171875</ele>
        <time>2026-06-17T08:58:55.000Z</time>
        <extensions>
          <ns3:TrackPointExtension>
            <ns3:atemp>25.0</ns3:atemp>
          </ns3:TrackPointExtension>
        </extensions>
      </trkpt>
      <trkpt lat="42.52997827716171741485595703125" lon="19.95664961636066436767578125">
        <ele>1612.4000244140625</ele>
        <time>2026-06-17T08:58:56.000Z</time>
        <extensions>
          <ns3:TrackPointExtension>
            <ns3:atemp>25.0</ns3:atemp>
          </ns3:TrackPointExtension>
        </extensions>
      </trkpt>
      <trkpt lat="42.5299609266221523284912109375" lon="19.9566769413650035858154296875">
        <ele>1612.4000244140625</ele>
        <time>2026-06-17T08:58:57.000Z</time>
        <extensions>
          <ns3:TrackPointExtension>
            <ns3:atemp>25.0</ns3:atemp>
          </ns3:TrackPointExtension>
        </extensions>
      </trkpt>
      <trkpt lat="42.5299448333680629730224609375" lon="19.95670233853161334991455078125">
        <ele>1612.5999755859375</ele>
        <time>2026-06-17T08:58:58.000Z</time>
        <extensions>
          <ns3:TrackPointExtension>
            <ns3:atemp>25.0</ns3:atemp>
          </ns3:TrackPointExtension>
        </extensions>
      </trkpt>
      <trkpt lat="42.52993301488459110260009765625" lon="19.95672044344246387481689453125">
        <ele>1613</ele>
        <time>2026-06-17T08:58:59.000Z</time>
        <extensions>
          <ns3:TrackPointExtension>
            <ns3:atemp>25.0</ns3:atemp>
          </ns3:TrackPointExtension>
        </extensions>
      </trkpt>
      <trkpt lat="42.5299240462481975555419921875" lon="19.95674441568553447723388671875">
        <ele>1613.199951171875</ele>
        <time>2026-06-17T08:59:00.000Z</time>
        <extensions>
          <ns3:TrackPointExtension>
            <ns3:atemp>25.0</ns3:atemp>
          </ns3:TrackPointExtension>
        </extensions>
      </trkpt>
      <trkpt lat="42.5299136526882648468017578125" lon="19.9567795358598232269287109375">
        <ele>1613.5999755859375</ele>
        <time>2026-06-17T08:59:01.000Z</time>
        <extensions>
          <ns3:TrackPointExtension>
            <ns3:atemp>25.0</ns3:atemp>
          </ns3:TrackPointExtension>
        </extensions>
      </trkpt>
      <trkpt lat="42.52989940345287322998046875" lon="19.95681163854897022247314453125">
        <ele>1613.800048828125</ele>
        <time>2026-06-17T08:59:02.000Z</time>
        <extensions>
          <ns3:TrackPointExtension>
            <ns3:atemp>25.0</ns3:atemp>
          </ns3:TrackPointExtension>
        </extensions>
      </trkpt>
      <trkpt lat="42.52988356165587902069091796875" lon="19.95684030465781688690185546875">
        <ele>1614</ele>
        <time>2026-06-17T08:59:03.000Z</time>
        <extensions>
          <ns3:TrackPointExtension>
            <ns3:atemp>25.0</ns3:atemp>
          </ns3:TrackPointExtension>
        </extensions>
      </trkpt>
      <trkpt lat="42.529865205287933349609375" lon="19.9568729102611541748046875">
        <ele>1614</ele>
        <time>2026-06-17T08:59:04.000Z</time>
        <extensions>
          <ns3:TrackPointExtension>
            <ns3:atemp>25.0</ns3:atemp>
          </ns3:TrackPointExtension>
        </extensions>
      </trkpt>
      <trkpt lat="42.52984802238643169403076171875" lon="19.9569009058177471160888671875">
        <ele>1614</ele>
        <time>2026-06-17T08:59:05.000Z</time>
        <extensions>
          <ns3:TrackPointExtension>
            <ns3:atemp>25.0</ns3:atemp>
          </ns3:TrackPointExtension>
        </extensions>
      </trkpt>
      <trkpt lat="42.529832012951374053955078125" lon="19.95692412368953227996826171875">
        <ele>1614.199951171875</ele>
        <time>2026-06-17T08:59:06.000Z</time>
        <extensions>
          <ns3:TrackPointExtension>
            <ns3:atemp>25.0</ns3:atemp>
          </ns3:TrackPointExtension>
        </extensions>
      </trkpt>
      <trkpt lat="42.52981717698276042938232421875" lon="19.95695815421640872955322265625">
        <ele>1614.199951171875</ele>
        <time>2026-06-17T08:59:07.000Z</time>
        <extensions>
          <ns3:TrackPointExtension>
            <ns3:atemp>25.0</ns3:atemp>
          </ns3:TrackPointExtension>
        </extensions>
      </trkpt>
      <trkpt lat="42.52979957498610019683837890625" lon="19.956986904144287109375">
        <ele>1614.4000244140625</ele>
        <time>2026-06-17T08:59:08.000Z</time>
        <extensions>
          <ns3:TrackPointExtension>
            <ns3:atemp>25.0</ns3:atemp>
          </ns3:TrackPointExtension>
        </extensions>
      </trkpt>
      <trkpt lat="42.5297785364091396331787109375" lon="19.9570132233202457427978515625">
        <ele>1614.5999755859375</ele>
        <time>2026-06-17T08:59:09.000Z</time>
        <extensions>
          <ns3:TrackPointExtension>
            <ns3:atemp>25.0</ns3:atemp>
          </ns3:TrackPointExtension>
        </extensions>
      </trkpt>
      <trkpt lat="42.52975565381348133087158203125" lon="19.9570343457162380218505859375">
        <ele>1614.800048828125</ele>
        <time>2026-06-17T08:59:10.000Z</time>
        <extensions>
          <ns3:TrackPointExtension>
            <ns3:atemp>25.0</ns3:atemp>
          </ns3:TrackPointExtension>
        </extensions>
      </trkpt>
      <trkpt lat="42.52973168157041072845458984375" lon="19.95704348199069499969482421875">
        <ele>1615</ele>
        <time>2026-06-17T08:59:11.000Z</time>
        <extensions>
          <ns3:TrackPointExtension>
            <ns3:atemp>25.0</ns3:atemp>
          </ns3:TrackPointExtension>
        </extensions>
      </trkpt>
      <trkpt lat="42.52970653586089611053466796875" lon="19.95705471374094486236572265625">
        <ele>1615.4000244140625</ele>
        <time>2026-06-17T08:59:12.000Z</time>
        <extensions>
          <ns3:TrackPointExtension>
            <ns3:atemp>25.0</ns3:atemp>
          </ns3:TrackPointExtension>
        </extensions>
      </trkpt>
      <trkpt lat="42.5296843238174915313720703125" lon="19.95706544257700443267822265625">
        <ele>1615.5999755859375</ele>
        <time>2026-06-17T08:59:13.000Z</time>
        <extensions>
          <ns3:TrackPointExtension>
            <ns3:atemp>25.0</ns3:atemp>
          </ns3:TrackPointExtension>
        </extensions>
      </trkpt>
      <trkpt lat="42.52965959720313549041748046875" lon="19.95707935653626918792724609375">
        <ele>1616.199951171875</ele>
        <time>2026-06-17T08:59:14.000Z</time>
        <extensions>
          <ns3:TrackPointExtension>
            <ns3:atemp>25.0</ns3:atemp>
          </ns3:TrackPointExtension>
        </extensions>
      </trkpt>
      <trkpt lat="42.52963294275104999542236328125" lon="19.957088492810726165771484375">
        <ele>1616.4000244140625</ele>
        <time>2026-06-17T08:59:15.000Z</time>
        <extensions>
          <ns3:TrackPointExtension>
            <ns3:atemp>25.0</ns3:atemp>
          </ns3:TrackPointExtension>
        </extensions>
      </trkpt>
      <trkpt lat="42.5296021811664104461669921875" lon="19.9570997245609760284423828125">
        <ele>1616.800048828125</ele>
        <time>2026-06-17T08:59:16.000Z</time>
        <extensions>
          <ns3:TrackPointExtension>
            <ns3:atemp>25.0</ns3:atemp>
          </ns3:TrackPointExtension>
        </extensions>
      </trkpt>
      <trkpt lat="42.5295726768672466278076171875" lon="19.95710961520671844482421875">
        <ele>1616.800048828125</ele>
        <time>2026-06-17T08:59:17.000Z</time>
        <extensions>
          <ns3:TrackPointExtension>
            <ns3:atemp>25.0</ns3:atemp>
          </ns3:TrackPointExtension>
        </extensions>
      </trkpt>
      <trkpt lat="42.52954593859612941741943359375" lon="19.9571201764047145843505859375">
        <ele>1617</ele>
        <time>2026-06-17T08:59:18.000Z</time>
        <extensions>
          <ns3:TrackPointExtension>
            <ns3:atemp>25.0</ns3:atemp>
          </ns3:TrackPointExtension>
        </extensions>
      </trkpt>
      <trkpt lat="42.5295243971049785614013671875" lon="19.957129061222076416015625">
        <ele>1617</ele>
        <time>2026-06-17T08:59:19.000Z</time>
        <extensions>
          <ns3:TrackPointExtension>
            <ns3:atemp>25.0</ns3:atemp>
          </ns3:TrackPointExtension>
        </extensions>
      </trkpt>
      <trkpt lat="42.52950319088995456695556640625" lon="19.95713601820170879364013671875">
        <ele>1617</ele>
        <time>2026-06-17T08:59:20.000Z</time>
        <extensions>
          <ns3:TrackPointExtension>
            <ns3:atemp>25.0</ns3:atemp>
          </ns3:TrackPointExtension>
        </extensions>
      </trkpt>
      <trkpt lat="42.52948366105556488037109375" lon="19.95714406482875347137451171875">
        <ele>1617.199951171875</ele>
        <time>2026-06-17T08:59:21.000Z</time>
        <extensions>
          <ns3:TrackPointExtension>
            <ns3:atemp>25.0</ns3:atemp>
          </ns3:TrackPointExtension>
        </extensions>
      </trkpt>
      <trkpt lat="42.52945943735539913177490234375" lon="19.957159571349620819091796875">
        <ele>1617.4000244140625</ele>
        <time>2026-06-17T08:59:22.000Z</time>
        <extensions>
          <ns3:TrackPointExtension>
            <ns3:atemp>25.0</ns3:atemp>
          </ns3:TrackPointExtension>
        </extensions>
      </trkpt>
      <trkpt lat="42.529436051845550537109375" lon="19.95717625133693218231201171875">
        <ele>1617.5999755859375</ele>
        <time>2026-06-17T08:59:23.000Z</time>
        <extensions>
          <ns3:TrackPointExtension>
            <ns3:atemp>25.0</ns3:atemp>
          </ns3:TrackPointExtension>
        </extensions>
      </trkpt>
      <trkpt lat="42.52941333688795566558837890625" lon="19.95719234459102153778076171875">
        <ele>1617.800048828125</ele>
        <time>2026-06-17T08:59:24.000Z</time>
        <extensions>
          <ns3:TrackPointExtension>
            <ns3:atemp>25.0</ns3:atemp>
          </ns3:TrackPointExtension>
        </extensions>
      </trkpt>
      <trkpt lat="42.52939204685389995574951171875" lon="19.9572070129215717315673828125">
        <ele>1618.199951171875</ele>
        <time>2026-06-17T08:59:25.000Z</time>
        <extensions>
          <ns3:TrackPointExtension>
            <ns3:atemp>25.0</ns3:atemp>
          </ns3:TrackPointExtension>
        </extensions>
      </trkpt>
      <trkpt lat="42.52937159501016139984130859375" lon="19.9572234414517879486083984375">
        <ele>1618.4000244140625</ele>
        <time>2026-06-17T08:59:26.000Z</time>
        <extensions>
          <ns3:TrackPointExtension>
            <ns3:atemp>25.0</ns3:atemp>
          </ns3:TrackPointExtension>
        </extensions>
      </trkpt>
      <trkpt lat="42.52935332246124744415283203125" lon="19.95723743923008441925048828125">
        <ele>1618.5999755859375</ele>
        <time>2026-06-17T08:59:27.000Z</time>
        <extensions>
          <ns3:TrackPointExtension>
            <ns3:atemp>25.0</ns3:atemp>
          </ns3:TrackPointExtension>
        </extensions>
      </trkpt>
      <trkpt lat="42.52933479845523834228515625" lon="19.95724582113325595855712890625">
        <ele>1618.800048828125</ele>
        <time>2026-06-17T08:59:28.000Z</time>
        <extensions>
          <ns3:TrackPointExtension>
            <ns3:atemp>25.0</ns3:atemp>
          </ns3:TrackPointExtension>
        </extensions>
      </trkpt>
      <trkpt lat="42.52931392751634120941162109375" lon="19.9572656862437725067138671875">
        <ele>1619.199951171875</ele>
        <time>2026-06-17T08:59:29.000Z</time>
        <extensions>
          <ns3:TrackPointExtension>
            <ns3:atemp>25.0</ns3:atemp>
          </ns3:TrackPointExtension>
        </extensions>
      </trkpt>
      <trkpt lat="42.52928928472101688385009765625" lon="19.95728605426847934722900390625">
        <ele>1619.5999755859375</ele>
        <time>2026-06-17T08:59:30.000Z</time>
        <extensions>
          <ns3:TrackPointExtension>
            <ns3:atemp>25.0</ns3:atemp>
          </ns3:TrackPointExtension>
        </extensions>
      </trkpt>
      <trkpt lat="42.52926774322986602783203125" lon="19.95730281807482242584228515625">
        <ele>1619.800048828125</ele>
        <time>2026-06-17T08:59:31.000Z</time>
        <extensions>
          <ns3:TrackPointExtension>
            <ns3:atemp>25.0</ns3:atemp>
          </ns3:TrackPointExtension>
        </extensions>
      </trkpt>
      <trkpt lat="42.52924620173871517181396484375" lon="19.95732125826179981231689453125">
        <ele>1620</ele>
        <time>2026-06-17T08:59:32.000Z</time>
        <extensions>
          <ns3:TrackPointExtension>
            <ns3:atemp>25.0</ns3:atemp>
          </ns3:TrackPointExtension>
        </extensions>
      </trkpt>
      <trkpt lat="42.52922725863754749298095703125" lon="19.95733349584043025970458984375">
        <ele>1620.199951171875</ele>
        <time>2026-06-17T08:59:33.000Z</time>
        <extensions>
          <ns3:TrackPointExtension>
            <ns3:atemp>25.0</ns3:atemp>
          </ns3:TrackPointExtension>
        </extensions>
      </trkpt>
      <trkpt lat="42.529206387698650360107421875" lon="19.95734791271388530731201171875">
        <ele>1620.4000244140625</ele>
        <time>2026-06-17T08:59:34.000Z</time>
        <extensions>
          <ns3:TrackPointExtension>
            <ns3:atemp>25.0</ns3:atemp>
          </ns3:TrackPointExtension>
        </extensions>
      </trkpt>
      <trkpt lat="42.52917847596108913421630859375" lon="19.9573709629476070404052734375">
        <ele>1620.800048828125</ele>
        <time>2026-06-17T08:59:35.000Z</time>
        <extensions>
          <ns3:TrackPointExtension>
            <ns3:atemp>25.0</ns3:atemp>
          </ns3:TrackPointExtension>
        </extensions>
      </trkpt>
      <trkpt lat="42.52915048040449619293212890625" lon="19.9573880620300769805908203125">
        <ele>1621.199951171875</ele>
        <time>2026-06-17T08:59:36.000Z</time>
        <extensions>
          <ns3:TrackPointExtension>
            <ns3:atemp>25.0</ns3:atemp>
          </ns3:TrackPointExtension>
        </extensions>
      </trkpt>
      <trkpt lat="42.5291287712752819061279296875" lon="19.9574088491499423980712890625">
        <ele>1621.4000244140625</ele>
        <time>2026-06-17T08:59:37.000Z</time>
        <extensions>
          <ns3:TrackPointExtension>
            <ns3:atemp>25.0</ns3:atemp>
          </ns3:TrackPointExtension>
        </extensions>
      </trkpt>
      <trkpt lat="42.52911150455474853515625" lon="19.95742619968950748443603515625">
        <ele>1621.5999755859375</ele>
        <time>2026-06-17T08:59:38.000Z</time>
        <extensions>
          <ns3:TrackPointExtension>
            <ns3:atemp>25.0</ns3:atemp>
          </ns3:TrackPointExtension>
        </extensions>
      </trkpt>
      <trkpt lat="42.52909147180616855621337890625" lon="19.9574517644941806793212890625">
        <ele>1621.800048828125</ele>
        <time>2026-06-17T08:59:39.000Z</time>
        <extensions>
          <ns3:TrackPointExtension>
            <ns3:atemp>25.0</ns3:atemp>
          </ns3:TrackPointExtension>
        </extensions>
      </trkpt>
      <trkpt lat="42.5290690921247005462646484375" lon="19.9574792571365833282470703125">
        <ele>1622</ele>
        <time>2026-06-17T08:59:40.000Z</time>
        <extensions>
          <ns3:TrackPointExtension>
            <ns3:atemp>25.0</ns3:atemp>
          </ns3:TrackPointExtension>
        </extensions>
      </trkpt>
      <trkpt lat="42.52905040048062801361083984375" lon="19.95750079862773418426513671875">
        <ele>1622.199951171875</ele>
        <time>2026-06-17T08:59:41.000Z</time>
        <extensions>
          <ns3:TrackPointExtension>
            <ns3:atemp>25.0</ns3:atemp>
          </ns3:TrackPointExtension>
        </extensions>
      </trkpt>
      <trkpt lat="42.52903581596910953521728515625" lon="19.95751488022506237030029296875">
        <ele>1622.199951171875</ele>
        <time>2026-06-17T08:59:42.000Z</time>
        <extensions>
          <ns3:TrackPointExtension>
            <ns3:atemp>25.0</ns3:atemp>
          </ns3:TrackPointExtension>
        </extensions>
      </trkpt>
      <trkpt lat="42.52901586703956127166748046875" lon="19.9575359188020229339599609375">
        <ele>1622.5999755859375</ele>
        <time>2026-06-17T08:59:43.000Z</time>
        <extensions>
          <ns3:TrackPointExtension>
            <ns3:atemp>25.0</ns3:atemp>
          </ns3:TrackPointExtension>
        </extensions>
      </trkpt>
      <trkpt lat="42.52899491228163242340087890625" lon="19.9575520120561122894287109375">
        <ele>1622.800048828125</ele>
        <time>2026-06-17T08:59:44.000Z</time>
        <extensions>
          <ns3:TrackPointExtension>
            <ns3:atemp>25.0</ns3:atemp>
          </ns3:TrackPointExtension>
        </extensions>
      </trkpt>
      <trkpt lat="42.52897462807595729827880859375" lon="19.957566596567630767822265625">
        <ele>1623.199951171875</ele>
        <time>2026-06-17T08:59:45.000Z</time>
        <extensions>
          <ns3:TrackPointExtension>
            <ns3:atemp>25.0</ns3:atemp>
          </ns3:TrackPointExtension>
        </extensions>
      </trkpt>
      <trkpt lat="42.52895333804190158843994140625" lon="19.95757824741303920745849609375">
        <ele>1623.5999755859375</ele>
        <time>2026-06-17T08:59:46.000Z</time>
        <extensions>
          <ns3:TrackPointExtension>
            <ns3:atemp>25.0</ns3:atemp>
          </ns3:TrackPointExtension>
        </extensions>
      </trkpt>
      <trkpt lat="42.52893137745559215545654296875" lon="19.9575862102210521697998046875">
        <ele>1623.800048828125</ele>
        <time>2026-06-17T08:59:47.000Z</time>
        <extensions>
          <ns3:TrackPointExtension>
            <ns3:atemp>25.0</ns3:atemp>
          </ns3:TrackPointExtension>
        </extensions>
      </trkpt>
      <trkpt lat="42.52891109324991703033447265625" lon="19.9575917422771453857421875">
        <ele>1624.199951171875</ele>
        <time>2026-06-17T08:59:48.000Z</time>
        <extensions>
          <ns3:TrackPointExtension>
            <ns3:atemp>25.0</ns3:atemp>
          </ns3:TrackPointExtension>
        </extensions>
      </trkpt>
      <trkpt lat="42.52888879738748073577880859375" lon="19.95759551413357257843017578125">
        <ele>1624.5999755859375</ele>
        <time>2026-06-17T08:59:49.000Z</time>
        <extensions>
          <ns3:TrackPointExtension>
            <ns3:atemp>25.0</ns3:atemp>
          </ns3:TrackPointExtension>
        </extensions>
      </trkpt>
      <trkpt lat="42.52886474132537841796875" lon="19.9575979448854923248291015625">
        <ele>1624.800048828125</ele>
        <time>2026-06-17T08:59:50.000Z</time>
        <extensions>
          <ns3:TrackPointExtension>
            <ns3:atemp>25.0</ns3:atemp>
          </ns3:TrackPointExtension>
        </extensions>
      </trkpt>
      <trkpt lat="42.52883900888264179229736328125" lon="19.95759651996195316314697265625">
        <ele>1625.199951171875</ele>
        <time>2026-06-17T08:59:51.000Z</time>
        <extensions>
          <ns3:TrackPointExtension>
            <ns3:atemp>25.0</ns3:atemp>
          </ns3:TrackPointExtension>
        </extensions>
      </trkpt>
      <trkpt lat="42.52881981432437896728515625" lon="19.9575935862958431243896484375">
        <ele>1625.5999755859375</ele>
        <time>2026-06-17T08:59:52.000Z</time>
        <extensions>
          <ns3:TrackPointExtension>
            <ns3:atemp>25.0</ns3:atemp>
          </ns3:TrackPointExtension>
        </extensions>
      </trkpt>
      <trkpt lat="42.5287991948425769805908203125" lon="19.95758260600268840789794921875">
        <ele>1625.800048828125</ele>
        <time>2026-06-17T08:59:53.000Z</time>
        <extensions>
          <ns3:TrackPointExtension>
            <ns3:atemp>25.0</ns3:atemp>
          </ns3:TrackPointExtension>
        </extensions>
      </trkpt>
      <trkpt lat="42.52877932973206043243408203125" lon="19.95756802149116992950439453125">
        <ele>1626.199951171875</ele>
        <time>2026-06-17T08:59:54.000Z</time>
        <extensions>
          <ns3:TrackPointExtension>
            <ns3:atemp>25.0</ns3:atemp>
          </ns3:TrackPointExtension>
        </extensions>
      </trkpt>
      <trkpt lat="42.528759799897670745849609375" lon="19.95755377225577831268310546875">
        <ele>1626.5999755859375</ele>
        <time>2026-06-17T08:59:55.000Z</time>
        <extensions>
          <ns3:TrackPointExtension>
            <ns3:atemp>25.0</ns3:atemp>
          </ns3:TrackPointExtension>
        </extensions>
      </trkpt>
      <trkpt lat="42.52874161116778850555419921875" lon="19.957536421716213226318359375">
        <ele>1626.800048828125</ele>
        <time>2026-06-17T08:59:56.000Z</time>
        <extensions>
          <ns3:TrackPointExtension>
            <ns3:atemp>25.0</ns3:atemp>
          </ns3:TrackPointExtension>
        </extensions>
      </trkpt>
      <trkpt lat="42.52872333861887454986572265625" lon="19.957518987357616424560546875">
        <ele>1627</ele>
        <time>2026-06-17T08:59:57.000Z</time>
        <extensions>
          <ns3:TrackPointExtension>
            <ns3:atemp>25.0</ns3:atemp>
          </ns3:TrackPointExtension>
        </extensions>
      </trkpt>
      <trkpt lat="42.52870523370802402496337890625" lon="19.95749711059033870697021484375">
        <ele>1627</ele>
        <time>2026-06-17T08:59:58.000Z</time>
        <extensions>
          <ns3:TrackPointExtension>
            <ns3:atemp>25.0</ns3:atemp>
          </ns3:TrackPointExtension>
        </extensions>
      </trkpt>
      <trkpt lat="42.5286890566349029541015625" lon="19.9574822746217250823974609375">
        <ele>1627.199951171875</ele>
        <time>2026-06-17T08:59:59.000Z</time>
        <extensions>
          <ns3:TrackPointExtension>
            <ns3:atemp>25.0</ns3:atemp>
          </ns3:TrackPointExtension>
        </extensions>
      </trkpt>
      <trkpt lat="42.52867321483790874481201171875" lon="19.9574624933302402496337890625">
        <ele>1627.199951171875</ele>
        <time>2026-06-17T09:00:00.000Z</time>
        <extensions>
          <ns3:TrackPointExtension>
            <ns3:atemp>25.0</ns3:atemp>
          </ns3:TrackPointExtension>
        </extensions>
      </trkpt>
      <trkpt lat="42.52865754067897796630859375" lon="19.95743944309651851654052734375">
        <ele>1627.4000244140625</ele>
        <time>2026-06-17T09:00:01.000Z</time>
        <extensions>
          <ns3:TrackPointExtension>
            <ns3:atemp>25.0</ns3:atemp>
          </ns3:TrackPointExtension>
        </extensions>
      </trkpt>
      <trkpt lat="42.52863968722522258758544921875" lon="19.95741127990186214447021484375">
        <ele>1627.4000244140625</ele>
        <time>2026-06-17T09:00:02.000Z</time>
        <extensions>
          <ns3:TrackPointExtension>
            <ns3:atemp>25.0</ns3:atemp>
          </ns3:TrackPointExtension>
        </extensions>
      </trkpt>
      <trkpt lat="42.5286208279430866241455078125" lon="19.957387559115886688232421875">
        <ele>1627.5999755859375</ele>
        <time>2026-06-17T09:00:03.000Z</time>
        <extensions>
          <ns3:TrackPointExtension>
            <ns3:atemp>25.0</ns3:atemp>
          </ns3:TrackPointExtension>
        </extensions>
      </trkpt>
      <trkpt lat="42.52860230393707752227783203125" lon="19.9573672749102115631103515625">
        <ele>1627.5999755859375</ele>
        <time>2026-06-17T09:00:04.000Z</time>
        <extensions>
          <ns3:TrackPointExtension>
            <ns3:atemp>25.0</ns3:atemp>
          </ns3:TrackPointExtension>
        </extensions>
      </trkpt>
      <trkpt lat="42.5285822711884975433349609375" lon="19.95734975673258304595947265625">
        <ele>1627.800048828125</ele>
        <time>2026-06-17T09:00:05.000Z</time>
        <extensions>
          <ns3:TrackPointExtension>
            <ns3:atemp>25.0</ns3:atemp>
          </ns3:TrackPointExtension>
        </extensions>
      </trkpt>
      <trkpt lat="42.528561316430568695068359375" lon="19.95733198709785938262939453125">
        <ele>1628.199951171875</ele>
        <time>2026-06-17T09:00:06.000Z</time>
        <extensions>
          <ns3:TrackPointExtension>
            <ns3:atemp>25.0</ns3:atemp>
          </ns3:TrackPointExtension>
        </extensions>
      </trkpt>
      <trkpt lat="42.52853977493941783905029296875" lon="19.95731622911989688873291015625">
        <ele>1628.4000244140625</ele>
        <time>2026-06-17T09:00:07.000Z</time>
        <extensions>
          <ns3:TrackPointExtension>
            <ns3:atemp>25.0</ns3:atemp>
          </ns3:TrackPointExtension>
        </extensions>
      </trkpt>
      <trkpt lat="42.52852074801921844482421875" lon="19.957301057875156402587890625">
        <ele>1628.5999755859375</ele>
        <time>2026-06-17T09:00:08.000Z</time>
        <extensions>
          <ns3:TrackPointExtension>
            <ns3:atemp>25.0</ns3:atemp>
          </ns3:TrackPointExtension>
        </extensions>
      </trkpt>
      <trkpt lat="42.5285024754703044891357421875" lon="19.95728018693625926971435546875">
        <ele>1628.800048828125</ele>
        <time>2026-06-17T09:00:09.000Z</time>
        <extensions>
          <ns3:TrackPointExtension>
            <ns3:atemp>25.0</ns3:atemp>
          </ns3:TrackPointExtension>
        </extensions>
      </trkpt>
      <trkpt lat="42.52848453819751739501953125" lon="19.95725805871188640594482421875">
        <ele>1629.199951171875</ele>
        <time>2026-06-17T09:00:10.000Z</time>
        <extensions>
          <ns3:TrackPointExtension>
            <ns3:atemp>25.0</ns3:atemp>
          </ns3:TrackPointExtension>
        </extensions>
      </trkpt>
      <trkpt lat="42.5284733064472675323486328125" lon="19.957231320440769195556640625">
        <ele>1629.5999755859375</ele>
        <time>2026-06-17T09:00:11.000Z</time>
        <extensions>
          <ns3:TrackPointExtension>
            <ns3:atemp>25.0</ns3:atemp>
          </ns3:TrackPointExtension>
        </extensions>
      </trkpt>
      <trkpt lat="42.52845863811671733856201171875" lon="19.9572006426751613616943359375">
        <ele>1629.800048828125</ele>
        <time>2026-06-17T09:00:12.000Z</time>
        <extensions>
          <ns3:TrackPointExtension>
            <ns3:atemp>25.0</ns3:atemp>
          </ns3:TrackPointExtension>
        </extensions>
      </trkpt>
      <trkpt lat="42.52844304777681827545166015625" lon="19.95717407204210758209228515625">
        <ele>1630</ele>
        <time>2026-06-17T09:00:13.000Z</time>
        <extensions>
          <ns3:TrackPointExtension>
            <ns3:atemp>25.0</ns3:atemp>
          </ns3:TrackPointExtension>
        </extensions>
      </trkpt>
      <trkpt lat="42.52842687070369720458984375" lon="19.95714691467583179473876953125">
        <ele>1630</ele>
        <time>2026-06-17T09:00:14.000Z</time>
        <extensions>
          <ns3:TrackPointExtension>
            <ns3:atemp>25.0</ns3:atemp>
          </ns3:TrackPointExtension>
        </extensions>
      </trkpt>
      <trkpt lat="42.52840616740286350250244140625" lon="19.957117326557636260986328125">
        <ele>1630.199951171875</ele>
        <time>2026-06-17T09:00:15.000Z</time>
        <extensions>
          <ns3:TrackPointExtension>
            <ns3:atemp>25.0</ns3:atemp>
          </ns3:TrackPointExtension>
        </extensions>
      </trkpt>
      <trkpt lat="42.5283891521394252777099609375" lon="19.957095868885517120361328125">
        <ele>1630.199951171875</ele>
        <time>2026-06-17T09:00:16.000Z</time>
        <extensions>
          <ns3:TrackPointExtension>
            <ns3:atemp>25.0</ns3:atemp>
          </ns3:TrackPointExtension>
        </extensions>
      </trkpt>
      <trkpt lat="42.52837096340954303741455078125" lon="19.95707315392792224884033203125">
        <ele>1630.4000244140625</ele>
        <time>2026-06-17T09:00:17.000Z</time>
        <extensions>
          <ns3:TrackPointExtension>
            <ns3:atemp>25.0</ns3:atemp>
          </ns3:TrackPointExtension>
        </extensions>
      </trkpt>
      <trkpt lat="42.5283519364893436431884765625" lon="19.9570484273135662078857421875">
        <ele>1630.5999755859375</ele>
        <time>2026-06-17T09:00:18.000Z</time>
        <extensions>
          <ns3:TrackPointExtension>
            <ns3:atemp>25.0</ns3:atemp>
          </ns3:TrackPointExtension>
        </extensions>
      </trkpt>
      <trkpt lat="42.52833274193108081817626953125" lon="19.95702202431857585906982421875">
        <ele>1630.5999755859375</ele>
        <time>2026-06-17T09:00:19.000Z</time>
        <extensions>
          <ns3:TrackPointExtension>
            <ns3:atemp>25.0</ns3:atemp>
          </ns3:TrackPointExtension>
        </extensions>
      </trkpt>
      <trkpt lat="42.52831715159118175506591796875" lon="19.9569974653422832489013671875">
        <ele>1630.800048828125</ele>
        <time>2026-06-17T09:00:20.000Z</time>
        <extensions>
          <ns3:TrackPointExtension>
            <ns3:atemp>25.0</ns3:atemp>
          </ns3:TrackPointExtension>
        </extensions>
      </trkpt>
      <trkpt lat="42.5283016450703144073486328125" lon="19.95696821250021457672119140625">
        <ele>1631</ele>
        <time>2026-06-17T09:00:21.000Z</time>
        <extensions>
          <ns3:TrackPointExtension>
            <ns3:atemp>25.0</ns3:atemp>
          </ns3:TrackPointExtension>
        </extensions>
      </trkpt>
      <trkpt lat="42.5282867252826690673828125" lon="19.9569399654865264892578125">
        <ele>1631.199951171875</ele>
        <time>2026-06-17T09:00:22.000Z</time>
        <extensions>
          <ns3:TrackPointExtension>
            <ns3:atemp>25.0</ns3:atemp>
          </ns3:TrackPointExtension>
        </extensions>
      </trkpt>
      <trkpt lat="42.52826870419085025787353515625" lon="19.95691020973026752471923828125">
        <ele>1631.199951171875</ele>
        <time>2026-06-17T09:00:23.000Z</time>
        <extensions>
          <ns3:TrackPointExtension>
            <ns3:atemp>25.0</ns3:atemp>
          </ns3:TrackPointExtension>
        </extensions>
      </trkpt>
      <trkpt lat="42.52824707888066768646240234375" lon="19.956883303821086883544921875">
        <ele>1631.4000244140625</ele>
        <time>2026-06-17T09:00:24.000Z</time>
        <extensions>
          <ns3:TrackPointExtension>
            <ns3:atemp>25.0</ns3:atemp>
          </ns3:TrackPointExtension>
        </extensions>
      </trkpt>
      <trkpt lat="42.5282250344753265380859375" lon="19.95685572735965251922607421875">
        <ele>1631.4000244140625</ele>
        <time>2026-06-17T09:00:25.000Z</time>
        <extensions>
          <ns3:TrackPointExtension>
            <ns3:atemp>25.0</ns3:atemp>
          </ns3:TrackPointExtension>
        </extensions>
      </trkpt>
      <trkpt lat="42.52819796092808246612548828125" lon="19.95682739652693271636962890625">
        <ele>1631.5999755859375</ele>
        <time>2026-06-17T09:00:26.000Z</time>
        <extensions>
          <ns3:TrackPointExtension>
            <ns3:atemp>25.0</ns3:atemp>
          </ns3:TrackPointExtension>
        </extensions>
      </trkpt>
      <trkpt lat="42.528170384466648101806640625" lon="19.95679956860840320587158203125">
        <ele>1631.5999755859375</ele>
        <time>2026-06-17T09:00:27.000Z</time>
        <extensions>
          <ns3:TrackPointExtension>
            <ns3:atemp>25.0</ns3:atemp>
          </ns3:TrackPointExtension>
        </extensions>
      </trkpt>
      <trkpt lat="42.52814632840454578399658203125" lon="19.9567731656134128570556640625">
        <ele>1631.4000244140625</ele>
        <time>2026-06-17T09:00:28.000Z</time>
        <extensions>
          <ns3:TrackPointExtension>
            <ns3:atemp>25.0</ns3:atemp>
          </ns3:TrackPointExtension>
        </extensions>
      </trkpt>
      <trkpt lat="42.52811799757182598114013671875" lon="19.95674391277134418487548828125">
        <ele>1631.4000244140625</ele>
        <time>2026-06-17T09:00:29.000Z</time>
        <extensions>
          <ns3:TrackPointExtension>
            <ns3:atemp>25.0</ns3:atemp>
          </ns3:TrackPointExtension>
        </extensions>
      </trkpt>
      <trkpt lat="42.5280920974910259246826171875" lon="19.95671155862510204315185546875">
        <ele>1631.5999755859375</ele>
        <time>2026-06-17T09:00:30.000Z</time>
        <extensions>
          <ns3:TrackPointExtension>
            <ns3:atemp>25.0</ns3:atemp>
          </ns3:TrackPointExtension>
        </extensions>
      </trkpt>
      <trkpt lat="42.52807256765663623809814453125" lon="19.95667903684079647064208984375">
        <ele>1631.800048828125</ele>
        <time>2026-06-17T09:00:31.000Z</time>
        <extensions>
          <ns3:TrackPointExtension>
            <ns3:atemp>25.0</ns3:atemp>
          </ns3:TrackPointExtension>
        </extensions>
      </trkpt>
      <trkpt lat="42.52806250937283039093017578125" lon="19.95664316229522228240966796875">
        <ele>1632</ele>
        <time>2026-06-17T09:00:32.000Z</time>
        <extensions>
          <ns3:TrackPointExtension>
            <ns3:atemp>25.0</ns3:atemp>
          </ns3:TrackPointExtension>
        </extensions>
      </trkpt>
      <trkpt lat="42.52805898897349834442138671875" lon="19.9566072039306163787841796875">
        <ele>1632.199951171875</ele>
        <time>2026-06-17T09:00:33.000Z</time>
        <extensions>
          <ns3:TrackPointExtension>
            <ns3:atemp>25.0</ns3:atemp>
          </ns3:TrackPointExtension>
        </extensions>
      </trkpt>
      <trkpt lat="42.52805538475513458251953125" lon="19.9565743468701839447021484375">
        <ele>1632.5999755859375</ele>
        <time>2026-06-17T09:00:34.000Z</time>
        <extensions>
          <ns3:TrackPointExtension>
            <ns3:atemp>25.0</ns3:atemp>
          </ns3:TrackPointExtension>
        </extensions>
      </trkpt>
      <trkpt lat="42.5280562229454517364501953125" lon="19.9565357901155948638916015625">
        <ele>1632.5999755859375</ele>
        <time>2026-06-17T09:00:35.000Z</time>
        <extensions>
          <ns3:TrackPointExtension>
            <ns3:atemp>25.0</ns3:atemp>
          </ns3:TrackPointExtension>
        </extensions>
      </trkpt>
      <trkpt lat="42.52805982716381549835205078125" lon="19.95649798773229122161865234375">
        <ele>1632.800048828125</ele>
        <time>2026-06-17T09:00:36.000Z</time>
        <extensions>
          <ns3:TrackPointExtension>
            <ns3:atemp>25.0</ns3:atemp>
          </ns3:TrackPointExtension>
        </extensions>
      </trkpt>
      <trkpt lat="42.5280599109828472137451171875" lon="19.956463873386383056640625">
        <ele>1633</ele>
        <time>2026-06-17T09:00:37.000Z</time>
        <extensions>
          <ns3:TrackPointExtension>
            <ns3:atemp>25.0</ns3:atemp>
          </ns3:TrackPointExtension>
        </extensions>
      </trkpt>
      <trkpt lat="42.52806150354444980621337890625" lon="19.95642841793596744537353515625">
        <ele>1633.4000244140625</ele>
        <time>2026-06-17T09:00:38.000Z</time>
        <extensions>
          <ns3:TrackPointExtension>
            <ns3:atemp>25.0</ns3:atemp>
          </ns3:TrackPointExtension>
        </extensions>
      </trkpt>
      <trkpt lat="42.5280629284679889678955078125" lon="19.95638810098171234130859375">
        <ele>1633.5999755859375</ele>
        <time>2026-06-17T09:00:39.000Z</time>
        <extensions>
          <ns3:TrackPointExtension>
            <ns3:atemp>25.0</ns3:atemp>
          </ns3:TrackPointExtension>
        </extensions>
      </trkpt>
      <trkpt lat="42.52806602977216243743896484375" lon="19.95635063387453556060791015625">
        <ele>1633.800048828125</ele>
        <time>2026-06-17T09:00:40.000Z</time>
        <extensions>
          <ns3:TrackPointExtension>
            <ns3:atemp>25.0</ns3:atemp>
          </ns3:TrackPointExtension>
        </extensions>
      </trkpt>
      <trkpt lat="42.528071142733097076416015625" lon="19.95631123892962932586669921875">
        <ele>1634.199951171875</ele>
        <time>2026-06-17T09:00:41.000Z</time>
        <extensions>
          <ns3:TrackPointExtension>
            <ns3:atemp>25.0</ns3:atemp>
          </ns3:TrackPointExtension>
        </extensions>
      </trkpt>
      <trkpt lat="42.52807642333209514617919921875" lon="19.95627318508923053741455078125">
        <ele>1634.4000244140625</ele>
        <time>2026-06-17T09:00:42.000Z</time>
        <extensions>
          <ns3:TrackPointExtension>
            <ns3:atemp>25.0</ns3:atemp>
          </ns3:TrackPointExtension>
        </extensions>
      </trkpt>
      <trkpt lat="42.52808346413075923919677734375" lon="19.95623655617237091064453125">
        <ele>1634.800048828125</ele>
        <time>2026-06-17T09:00:43.000Z</time>
        <extensions>
          <ns3:TrackPointExtension>
            <ns3:atemp>25.0</ns3:atemp>
          </ns3:TrackPointExtension>
        </extensions>
      </trkpt>
      <trkpt lat="42.52808891236782073974609375" lon="19.95620462112128734588623046875">
        <ele>1635</ele>
        <time>2026-06-17T09:00:44.000Z</time>
        <extensions>
          <ns3:TrackPointExtension>
            <ns3:atemp>25.0</ns3:atemp>
          </ns3:TrackPointExtension>
        </extensions>
      </trkpt>
      <trkpt lat="42.52809318713843822479248046875" lon="19.95615919120609760284423828125">
        <ele>1635.199951171875</ele>
        <time>2026-06-17T09:00:45.000Z</time>
        <extensions>
          <ns3:TrackPointExtension>
            <ns3:atemp>25.0</ns3:atemp>
          </ns3:TrackPointExtension>
        </extensions>
      </trkpt>
      <trkpt lat="42.5280920974910259246826171875" lon="19.956124238669872283935546875">
        <ele>1635.4000244140625</ele>
        <time>2026-06-17T09:00:46.000Z</time>
        <extensions>
          <ns3:TrackPointExtension>
            <ns3:atemp>25.0</ns3:atemp>
          </ns3:TrackPointExtension>
        </extensions>
      </trkpt>
      <trkpt lat="42.52808681689202785491943359375" lon="19.95610169135034084320068359375">
        <ele>1635.800048828125</ele>
        <time>2026-06-17T09:00:47.000Z</time>
        <extensions>
          <ns3:TrackPointExtension>
            <ns3:atemp>25.0</ns3:atemp>
          </ns3:TrackPointExtension>
        </extensions>
      </trkpt>
      <trkpt lat="42.52808027900755405426025390625" lon="19.95607721619307994842529296875">
        <ele>1636.199951171875</ele>
        <time>2026-06-17T09:00:48.000Z</time>
        <extensions>
          <ns3:TrackPointExtension>
            <ns3:atemp>25.0</ns3:atemp>
          </ns3:TrackPointExtension>
        </extensions>
      </trkpt>
      <trkpt lat="42.52806535921990871429443359375" lon="19.95605492033064365386962890625">
        <ele>1636.4000244140625</ele>
        <time>2026-06-17T09:00:49.000Z</time>
        <extensions>
          <ns3:TrackPointExtension>
            <ns3:atemp>25.0</ns3:atemp>
          </ns3:TrackPointExtension>
        </extensions>
      </trkpt>
      <trkpt lat="42.52804465591907501220703125" lon="19.956044442951679229736328125">
        <ele>1636.4000244140625</ele>
        <time>2026-06-17T09:00:50.000Z</time>
        <extensions>
          <ns3:TrackPointExtension>
            <ns3:atemp>25.0</ns3:atemp>
          </ns3:TrackPointExtension>
        </extensions>
      </trkpt>
      <trkpt lat="42.52802026458084583282470703125" lon="19.9560489691793918609619140625">
        <ele>1636.5999755859375</ele>
        <time>2026-06-17T09:00:51.000Z</time>
        <extensions>
          <ns3:TrackPointExtension>
            <ns3:atemp>25.0</ns3:atemp>
          </ns3:TrackPointExtension>
        </extensions>
      </trkpt>
      <trkpt lat="42.52800450660288333892822265625" lon="19.95606011711061000823974609375">
        <ele>1636.5999755859375</ele>
        <time>2026-06-17T09:00:52.000Z</time>
        <extensions>
          <ns3:TrackPointExtension>
            <ns3:atemp>25.0</ns3:atemp>
          </ns3:TrackPointExtension>
        </extensions>
      </trkpt>
      <trkpt lat="42.52798539586365222930908203125" lon="19.956077300012111663818359375">
        <ele>1636.5999755859375</ele>
        <time>2026-06-17T09:00:53.000Z</time>
        <extensions>
          <ns3:TrackPointExtension>
            <ns3:atemp>25.0</ns3:atemp>
          </ns3:TrackPointExtension>
        </extensions>
      </trkpt>
      <trkpt lat="42.52796192653477191925048828125" lon="19.9560928903520107269287109375">
        <ele>1636.5999755859375</ele>
        <time>2026-06-17T09:00:54.000Z</time>
        <extensions>
          <ns3:TrackPointExtension>
            <ns3:atemp>25.0</ns3:atemp>
          </ns3:TrackPointExtension>
        </extensions>
      </trkpt>
      <trkpt lat="42.52793543972074985504150390625" lon="19.9561029486358165740966796875">
        <ele>1636.5999755859375</ele>
        <time>2026-06-17T09:00:55.000Z</time>
        <extensions>
          <ns3:TrackPointExtension>
            <ns3:atemp>25.0</ns3:atemp>
          </ns3:TrackPointExtension>
        </extensions>
      </trkpt>
      <trkpt lat="42.5279100425541400909423828125" lon="19.956109821796417236328125">
        <ele>1636.800048828125</ele>
        <time>2026-06-17T09:00:56.000Z</time>
        <extensions>
          <ns3:TrackPointExtension>
            <ns3:atemp>25.0</ns3:atemp>
          </ns3:TrackPointExtension>
        </extensions>
      </trkpt>
      <trkpt lat="42.5278832204639911651611328125" lon="19.95610571466386318206787109375">
        <ele>1637.199951171875</ele>
        <time>2026-06-17T09:00:57.000Z</time>
        <extensions>
          <ns3:TrackPointExtension>
            <ns3:atemp>25.0</ns3:atemp>
          </ns3:TrackPointExtension>
        </extensions>
      </trkpt>
      <trkpt lat="42.52785623073577880859375" lon="19.956097416579723358154296875">
        <ele>1637.5999755859375</ele>
        <time>2026-06-17T09:00:58.000Z</time>
        <extensions>
          <ns3:TrackPointExtension>
            <ns3:atemp>25.0</ns3:atemp>
          </ns3:TrackPointExtension>
        </extensions>
      </trkpt>
      <trkpt lat="42.5278403051197528839111328125" lon="19.95607906021177768707275390625">
        <ele>1638</ele>
        <time>2026-06-17T09:00:59.000Z</time>
        <extensions>
          <ns3:TrackPointExtension>
            <ns3:atemp>25.0</ns3:atemp>
          </ns3:TrackPointExtension>
        </extensions>
      </trkpt>
      <trkpt lat="42.5278275646269321441650390625" lon="19.95606430806219577789306640625">
        <ele>1638.4000244140625</ele>
        <time>2026-06-17T09:01:00.000Z</time>
        <extensions>
          <ns3:TrackPointExtension>
            <ns3:atemp>25.0</ns3:atemp>
          </ns3:TrackPointExtension>
        </extensions>
      </trkpt>
      <trkpt lat="42.52781524322926998138427734375" lon="19.95604368858039379119873046875">
        <ele>1638.800048828125</ele>
        <time>2026-06-17T09:01:01.000Z</time>
        <extensions>
          <ns3:TrackPointExtension>
            <ns3:atemp>25.0</ns3:atemp>
          </ns3:TrackPointExtension>
        </extensions>
      </trkpt>
      <trkpt lat="42.52780191600322723388671875" lon="19.95602524839341640472412109375">
        <ele>1639.199951171875</ele>
        <time>2026-06-17T09:01:02.000Z</time>
        <extensions>
          <ns3:TrackPointExtension>
            <ns3:atemp>25.0</ns3:atemp>
          </ns3:TrackPointExtension>
        </extensions>
      </trkpt>
      <trkpt lat="42.52778808586299419403076171875" lon="19.9560043774545192718505859375">
        <ele>1639.4000244140625</ele>
        <time>2026-06-17T09:01:03.000Z</time>
        <extensions>
          <ns3:TrackPointExtension>
            <ns3:atemp>25.0</ns3:atemp>
          </ns3:TrackPointExtension>
        </extensions>
      </trkpt>
      <trkpt lat="42.52777031622827053070068359375" lon="19.95597881264984607696533203125">
        <ele>1639.5999755859375</ele>
        <time>2026-06-17T09:01:04.000Z</time>
        <extensions>
          <ns3:TrackPointExtension>
            <ns3:atemp>25.0</ns3:atemp>
          </ns3:TrackPointExtension>
        </extensions>
      </trkpt>
      <trkpt lat="42.5277583301067352294921875" lon="19.95595232583582401275634765625">
        <ele>1639.800048828125</ele>
        <time>2026-06-17T09:01:05.000Z</time>
        <extensions>
          <ns3:TrackPointExtension>
            <ns3:atemp>25.0</ns3:atemp>
          </ns3:TrackPointExtension>
        </extensions>
      </trkpt>
      <trkpt lat="42.52774500288069248199462890625" lon="19.9559255875647068023681640625">
        <ele>1639.800048828125</ele>
        <time>2026-06-17T09:01:06.000Z</time>
        <extensions>
          <ns3:TrackPointExtension>
            <ns3:atemp>25.0</ns3:atemp>
          </ns3:TrackPointExtension>
        </extensions>
      </trkpt>
      <trkpt lat="42.52772857435047626495361328125" lon="19.9559041298925876617431640625">
        <ele>1639.800048828125</ele>
        <time>2026-06-17T09:01:07.000Z</time>
        <extensions>
          <ns3:TrackPointExtension>
            <ns3:atemp>25.0</ns3:atemp>
          </ns3:TrackPointExtension>
        </extensions>
      </trkpt>
      <trkpt lat="42.5277122296392917633056640625" lon="19.95587940327823162078857421875">
        <ele>1640</ele>
        <time>2026-06-17T09:01:08.000Z</time>
        <extensions>
          <ns3:TrackPointExtension>
            <ns3:atemp>25.0</ns3:atemp>
          </ns3:TrackPointExtension>
        </extensions>
      </trkpt>
      <trkpt lat="42.5276961363852024078369140625" lon="19.95585643686354160308837890625">
        <ele>1640.199951171875</ele>
        <time>2026-06-17T09:01:09.000Z</time>
        <extensions>
          <ns3:TrackPointExtension>
            <ns3:atemp>25.0</ns3:atemp>
          </ns3:TrackPointExtension>
        </extensions>
      </trkpt>
      <trkpt lat="42.52767710946500301361083984375" lon="19.95583397336304187774658203125">
        <ele>1640.4000244140625</ele>
        <time>2026-06-17T09:01:10.000Z</time>
        <extensions>
          <ns3:TrackPointExtension>
            <ns3:atemp>25.0</ns3:atemp>
          </ns3:TrackPointExtension>
        </extensions>
      </trkpt>
      <trkpt lat="42.5276569090783596038818359375" lon="19.95581335388123989105224609375">
        <ele>1640.5999755859375</ele>
        <time>2026-06-17T09:01:11.000Z</time>
        <extensions>
          <ns3:TrackPointExtension>
            <ns3:atemp>25.0</ns3:atemp>
          </ns3:TrackPointExtension>
        </extensions>
      </trkpt>
      <trkpt lat="42.52763302065432071685791015625" lon="19.95579063892364501953125">
        <ele>1641</ele>
        <time>2026-06-17T09:01:12.000Z</time>
        <extensions>
          <ns3:TrackPointExtension>
            <ns3:atemp>25.0</ns3:atemp>
          </ns3:TrackPointExtension>
        </extensions>
      </trkpt>
      <trkpt lat="42.5276119820773601531982421875" lon="19.95577387511730194091796875">
        <ele>1641.4000244140625</ele>
        <time>2026-06-17T09:01:13.000Z</time>
        <extensions>
          <ns3:TrackPointExtension>
            <ns3:atemp>25.0</ns3:atemp>
          </ns3:TrackPointExtension>
        </extensions>
      </trkpt>
      <trkpt lat="42.5275925360620021820068359375" lon="19.9557472206652164459228515625">
        <ele>1641.5999755859375</ele>
        <time>2026-06-17T09:01:14.000Z</time>
        <extensions>
          <ns3:TrackPointExtension>
            <ns3:atemp>25.0</ns3:atemp>
          </ns3:TrackPointExtension>
        </extensions>
      </trkpt>
      <trkpt lat="42.5275811366736888885498046875" lon="19.9557126872241497039794921875">
        <ele>1641.800048828125</ele>
        <time>2026-06-17T09:01:15.000Z</time>
        <extensions>
          <ns3:TrackPointExtension>
            <ns3:atemp>25.0</ns3:atemp>
          </ns3:TrackPointExtension>
        </extensions>
      </trkpt>
      <trkpt lat="42.527578957378864288330078125" lon="19.95568133890628814697265625">
        <ele>1642</ele>
        <time>2026-06-17T09:01:16.000Z</time>
        <extensions>
          <ns3:TrackPointExtension>
            <ns3:atemp>25.0</ns3:atemp>
          </ns3:TrackPointExtension>
        </extensions>
      </trkpt>
      <trkpt lat="42.52758306451141834259033203125" lon="19.95565191842615604400634765625">
        <ele>1642.199951171875</ele>
        <time>2026-06-17T09:01:17.000Z</time>
        <extensions>
          <ns3:TrackPointExtension>
            <ns3:atemp>25.0</ns3:atemp>
          </ns3:TrackPointExtension>
        </extensions>
      </trkpt>
      <trkpt lat="42.5275942124426364898681640625" lon="19.95562140829861164093017578125">
        <ele>1642.5999755859375</ele>
        <time>2026-06-17T09:01:18.000Z</time>
        <extensions>
          <ns3:TrackPointExtension>
            <ns3:atemp>25.0</ns3:atemp>
          </ns3:TrackPointExtension>
        </extensions>
      </trkpt>
      <trkpt lat="42.52760955132544040679931640625" lon="19.955598525702953338623046875">
        <ele>1642.800048828125</ele>
        <time>2026-06-17T09:01:19.000Z</time>
        <extensions>
          <ns3:TrackPointExtension>
            <ns3:atemp>25.0</ns3:atemp>
          </ns3:TrackPointExtension>
        </extensions>
      </trkpt>
      <trkpt lat="42.52762497402727603912353515625" lon="19.9555809237062931060791015625">
        <ele>1643</ele>
        <time>2026-06-17T09:01:20.000Z</time>
        <extensions>
          <ns3:TrackPointExtension>
            <ns3:atemp>25.0</ns3:atemp>
          </ns3:TrackPointExtension>
        </extensions>
      </trkpt>
      <trkpt lat="42.527640648186206817626953125" lon="19.9555681832134723663330078125">
        <ele>1643.199951171875</ele>
        <time>2026-06-17T09:01:21.000Z</time>
        <extensions>
          <ns3:TrackPointExtension>
            <ns3:atemp>25.0</ns3:atemp>
          </ns3:TrackPointExtension>
        </extensions>
      </trkpt>
      <trkpt lat="42.52766101621091365814208984375" lon="19.95556332170963287353515625">
        <ele>1643.4000244140625</ele>
        <time>2026-06-17T09:01:22.000Z</time>
        <extensions>
          <ns3:TrackPointExtension>
            <ns3:atemp>25.0</ns3:atemp>
          </ns3:TrackPointExtension>
        </extensions>
      </trkpt>
      <trkpt lat="42.52768255770206451416015625" lon="19.955554939806461334228515625">
        <ele>1643.5999755859375</ele>
        <time>2026-06-17T09:01:23.000Z</time>
        <extensions>
          <ns3:TrackPointExtension>
            <ns3:atemp>25.0</ns3:atemp>
          </ns3:TrackPointExtension>
        </extensions>
      </trkpt>
      <trkpt lat="42.527701668441295623779296875" lon="19.95554387569427490234375">
        <ele>1643.800048828125</ele>
        <time>2026-06-17T09:01:24.000Z</time>
        <extensions>
          <ns3:TrackPointExtension>
            <ns3:atemp>25.0</ns3:atemp>
          </ns3:TrackPointExtension>
        </extensions>
      </trkpt>
      <trkpt lat="42.52771851606667041778564453125" lon="19.9555398523807525634765625">
        <ele>1644</ele>
        <time>2026-06-17T09:01:25.000Z</time>
        <extensions>
          <ns3:TrackPointExtension>
            <ns3:atemp>25.0</ns3:atemp>
          </ns3:TrackPointExtension>
        </extensions>
      </trkpt>
      <trkpt lat="42.527740560472011566162109375" lon="19.9555292911827564239501953125">
        <ele>1644.199951171875</ele>
        <time>2026-06-17T09:01:26.000Z</time>
        <extensions>
          <ns3:TrackPointExtension>
            <ns3:atemp>25.0</ns3:atemp>
          </ns3:TrackPointExtension>
        </extensions>
      </trkpt>
      <trkpt lat="42.5277584977447986602783203125" lon="19.95551638305187225341796875">
        <ele>1644.5999755859375</ele>
        <time>2026-06-17T09:01:27.000Z</time>
        <extensions>
          <ns3:TrackPointExtension>
            <ns3:atemp>25.0</ns3:atemp>
          </ns3:TrackPointExtension>
        </extensions>
      </trkpt>
      <trkpt lat="42.52777836285531520843505859375" lon="19.95549517683684825897216796875">
        <ele>1645</ele>
        <time>2026-06-17T09:01:28.000Z</time>
        <extensions>
          <ns3:TrackPointExtension>
            <ns3:atemp>25.0</ns3:atemp>
          </ns3:TrackPointExtension>
        </extensions>
      </trkpt>
      <trkpt lat="42.52779789268970489501953125" lon="19.95547673664987087249755859375">
        <ele>1645.4000244140625</ele>
        <time>2026-06-17T09:01:29.000Z</time>
        <extensions>
          <ns3:TrackPointExtension>
            <ns3:atemp>25.0</ns3:atemp>
          </ns3:TrackPointExtension>
        </extensions>
      </trkpt>
      <trkpt lat="42.5278235413134098052978515625" lon="19.9554662592709064483642578125">
        <ele>1645.800048828125</ele>
        <time>2026-06-17T09:01:30.000Z</time>
        <extensions>
          <ns3:TrackPointExtension>
            <ns3:atemp>25.0</ns3:atemp>
          </ns3:TrackPointExtension>
        </extensions>
      </trkpt>
      <trkpt lat="42.527845166623592376708984375" lon="19.95545309968292713165283203125">
        <ele>1646</ele>
        <time>2026-06-17T09:01:31.000Z</time>
        <extensions>
          <ns3:TrackPointExtension>
            <ns3:atemp>25.0</ns3:atemp>
          </ns3:TrackPointExtension>
        </extensions>
      </trkpt>
      <trkpt lat="42.5278684683144092559814453125" lon="19.9554377608001232147216796875">
        <ele>1646.4000244140625</ele>
        <time>2026-06-17T09:01:32.000Z</time>
        <extensions>
          <ns3:TrackPointExtension>
            <ns3:atemp>25.0</ns3:atemp>
          </ns3:TrackPointExtension>
        </extensions>
      </trkpt>
      <trkpt lat="42.5278936140239238739013671875" lon="19.95543248020112514495849609375">
        <ele>1646.5999755859375</ele>
        <time>2026-06-17T09:01:33.000Z</time>
        <extensions>
          <ns3:TrackPointExtension>
            <ns3:atemp>25.0</ns3:atemp>
          </ns3:TrackPointExtension>
        </extensions>
      </trkpt>
      <trkpt lat="42.52791590988636016845703125" lon="19.9554394371807575225830078125">
        <ele>1646.800048828125</ele>
        <time>2026-06-17T09:01:34.000Z</time>
        <extensions>
          <ns3:TrackPointExtension>
            <ns3:atemp>25.0</ns3:atemp>
          </ns3:TrackPointExtension>
        </extensions>
      </trkpt>
      <trkpt lat="42.5279398821294307708740234375" lon="19.95544237084686756134033203125">
        <ele>1647</ele>
        <time>2026-06-17T09:01:35.000Z</time>
        <extensions>
          <ns3:TrackPointExtension>
            <ns3:atemp>25.0</ns3:atemp>
          </ns3:TrackPointExtension>
        </extensions>
      </trkpt>
      <trkpt lat="42.52796192653477191925048828125" lon="19.95544186793267726898193359375">
        <ele>1647.199951171875</ele>
        <time>2026-06-17T09:01:36.000Z</time>
        <extensions>
          <ns3:TrackPointExtension>
            <ns3:atemp>25.0</ns3:atemp>
          </ns3:TrackPointExtension>
        </extensions>
      </trkpt>
      <trkpt lat="42.5279796123504638671875" lon="19.955441951751708984375">
        <ele>1647.5999755859375</ele>
        <time>2026-06-17T09:01:37.000Z</time>
        <extensions>
          <ns3:TrackPointExtension>
            <ns3:atemp>25.0</ns3:atemp>
          </ns3:TrackPointExtension>
        </extensions>
      </trkpt>
      <trkpt lat="42.52799830399453639984130859375" lon="19.95544522069394588470458984375">
        <ele>1648</ele>
        <time>2026-06-17T09:01:38.000Z</time>
        <extensions>
          <ns3:TrackPointExtension>
            <ns3:atemp>25.0</ns3:atemp>
          </ns3:TrackPointExtension>
        </extensions>
      </trkpt>
      <trkpt lat="42.528015486896038055419921875" lon="19.9554431252181529998779296875">
        <ele>1648.4000244140625</ele>
        <time>2026-06-17T09:01:39.000Z</time>
        <extensions>
          <ns3:TrackPointExtension>
            <ns3:atemp>25.0</ns3:atemp>
          </ns3:TrackPointExtension>
        </extensions>
      </trkpt>
      <trkpt lat="42.52803652547299861907958984375" lon="19.9554352462291717529296875">
        <ele>1648.5999755859375</ele>
        <time>2026-06-17T09:01:40.000Z</time>
        <extensions>
          <ns3:TrackPointExtension>
            <ns3:atemp>25.0</ns3:atemp>
          </ns3:TrackPointExtension>
        </extensions>
      </trkpt>
      <trkpt lat="42.528057396411895751953125" lon="19.95542141608893871307373046875">
        <ele>1649</ele>
        <time>2026-06-17T09:01:41.000Z</time>
        <extensions>
          <ns3:TrackPointExtension>
            <ns3:atemp>25.0</ns3:atemp>
          </ns3:TrackPointExtension>
        </extensions>
      </trkpt>
      <trkpt lat="42.5280770100653171539306640625" lon="19.9554082565009593963623046875">
        <ele>1649.4000244140625</ele>
        <time>2026-06-17T09:01:42.000Z</time>
        <extensions>
          <ns3:TrackPointExtension>
            <ns3:atemp>25.0</ns3:atemp>
          </ns3:TrackPointExtension>
        </extensions>
      </trkpt>
      <trkpt lat="42.5281001441180706024169921875" lon="19.9553898163139820098876953125">
        <ele>1649.800048828125</ele>
        <time>2026-06-17T09:01:43.000Z</time>
        <extensions>
          <ns3:TrackPointExtension>
            <ns3:atemp>25.0</ns3:atemp>
          </ns3:TrackPointExtension>
        </extensions>
      </trkpt>
      <trkpt lat="42.528121434152126312255859375" lon="19.95537213049829006195068359375">
        <ele>1650</ele>
        <time>2026-06-17T09:01:44.000Z</time>
        <extensions>
          <ns3:TrackPointExtension>
            <ns3:atemp>25.0</ns3:atemp>
          </ns3:TrackPointExtension>
        </extensions>
      </trkpt>
      <trkpt lat="42.52814163453876972198486328125" lon="19.95535620488226413726806640625">
        <ele>1650.4000244140625</ele>
        <time>2026-06-17T09:01:45.000Z</time>
        <extensions>
          <ns3:TrackPointExtension>
            <ns3:atemp>25.0</ns3:atemp>
          </ns3:TrackPointExtension>
        </extensions>
      </trkpt>
      <trkpt lat="42.52816912718117237091064453125" lon="19.9553469009697437286376953125">
        <ele>1650.5999755859375</ele>
        <time>2026-06-17T09:01:46.000Z</time>
        <extensions>
          <ns3:TrackPointExtension>
            <ns3:atemp>25.0</ns3:atemp>
          </ns3:TrackPointExtension>
        </extensions>
      </trkpt>
      <trkpt lat="42.52819578163325786590576171875" lon="19.9553418718278408050537109375">
        <ele>1650.800048828125</ele>
        <time>2026-06-17T09:01:47.000Z</time>
        <extensions>
          <ns3:TrackPointExtension>
            <ns3:atemp>25.0</ns3:atemp>
          </ns3:TrackPointExtension>
        </extensions>
      </trkpt>
      <trkpt lat="42.52822101116180419921875" lon="19.955343045294284820556640625">
        <ele>1651</ele>
        <time>2026-06-17T09:01:48.000Z</time>
        <extensions>
          <ns3:TrackPointExtension>
            <ns3:atemp>25.0</ns3:atemp>
          </ns3:TrackPointExtension>
        </extensions>
      </trkpt>
      <trkpt lat="42.52824339084327220916748046875" lon="19.95534732006490230560302734375">
        <ele>1651.199951171875</ele>
        <time>2026-06-17T09:01:49.000Z</time>
        <extensions>
          <ns3:TrackPointExtension>
            <ns3:atemp>25.0</ns3:atemp>
          </ns3:TrackPointExtension>
        </extensions>
      </trkpt>
      <trkpt lat="42.528262920677661895751953125" lon="19.95535721071064472198486328125">
        <ele>1651.4000244140625</ele>
        <time>2026-06-17T09:01:50.000Z</time>
        <extensions>
          <ns3:TrackPointExtension>
            <ns3:atemp>25.0</ns3:atemp>
          </ns3:TrackPointExtension>
        </extensions>
      </trkpt>
      <trkpt lat="42.52827976830303668975830078125" lon="19.955369532108306884765625">
        <ele>1651.800048828125</ele>
        <time>2026-06-17T09:01:51.000Z</time>
        <extensions>
          <ns3:TrackPointExtension>
            <ns3:atemp>25.0</ns3:atemp>
          </ns3:TrackPointExtension>
        </extensions>
      </trkpt>
      <trkpt lat="42.52829619683325290679931640625" lon="19.95538084767758846282958984375">
        <ele>1652</ele>
        <time>2026-06-17T09:01:52.000Z</time>
        <extensions>
          <ns3:TrackPointExtension>
            <ns3:atemp>25.0</ns3:atemp>
          </ns3:TrackPointExtension>
        </extensions>
      </trkpt>
      <trkpt lat="42.5283135473728179931640625" lon="19.95538990013301372528076171875">
        <ele>1652.4000244140625</ele>
        <time>2026-06-17T09:01:53.000Z</time>
        <extensions>
          <ns3:TrackPointExtension>
            <ns3:atemp>25.0</ns3:atemp>
          </ns3:TrackPointExtension>
        </extensions>
      </trkpt>
      <trkpt lat="42.5283291377127170562744140625" lon="19.95539291761815547943115234375">
        <ele>1652.800048828125</ele>
        <time>2026-06-17T09:01:54.000Z</time>
        <extensions>
          <ns3:TrackPointExtension>
            <ns3:atemp>25.0</ns3:atemp>
          </ns3:TrackPointExtension>
        </extensions>
      </trkpt>
      <trkpt lat="42.528346069157123565673828125" lon="19.95540247298777103424072265625">
        <ele>1653.199951171875</ele>
        <time>2026-06-17T09:01:55.000Z</time>
        <extensions>
          <ns3:TrackPointExtension>
            <ns3:atemp>25.0</ns3:atemp>
          </ns3:TrackPointExtension>
        </extensions>
      </trkpt>
      <trkpt lat="42.52836694009602069854736328125" lon="19.95541454292833805084228515625">
        <ele>1653.5999755859375</ele>
        <time>2026-06-17T09:01:56.000Z</time>
        <extensions>
          <ns3:TrackPointExtension>
            <ns3:atemp>25.0</ns3:atemp>
          </ns3:TrackPointExtension>
        </extensions>
      </trkpt>
      <trkpt lat="42.52838487736880779266357421875" lon="19.95542359538376331329345703125">
        <ele>1653.800048828125</ele>
        <time>2026-06-17T09:01:57.000Z</time>
        <extensions>
          <ns3:TrackPointExtension>
            <ns3:atemp>25.0</ns3:atemp>
          </ns3:TrackPointExtension>
        </extensions>
      </trkpt>
      <trkpt lat="42.52840985544025897979736328125" lon="19.95543859899044036865234375">
        <ele>1654.199951171875</ele>
        <time>2026-06-17T09:01:58.000Z</time>
        <extensions>
          <ns3:TrackPointExtension>
            <ns3:atemp>25.0</ns3:atemp>
          </ns3:TrackPointExtension>
        </extensions>
      </trkpt>
      <trkpt lat="42.5284370966255664825439453125" lon="19.95546139776706695556640625">
        <ele>1654.5999755859375</ele>
        <time>2026-06-17T09:01:59.000Z</time>
        <extensions>
          <ns3:TrackPointExtension>
            <ns3:atemp>25.0</ns3:atemp>
          </ns3:TrackPointExtension>
        </extensions>
      </trkpt>
      <trkpt lat="42.52846249379217624664306640625" lon="19.955487549304962158203125">
        <ele>1655</ele>
        <time>2026-06-17T09:02:00.000Z</time>
        <extensions>
          <ns3:TrackPointExtension>
            <ns3:atemp>25.0</ns3:atemp>
          </ns3:TrackPointExtension>
        </extensions>
      </trkpt>
      <trkpt lat="42.5284803472459316253662109375" lon="19.95550741441547870635986328125">
        <ele>1655.199951171875</ele>
        <time>2026-06-17T09:02:01.000Z</time>
        <extensions>
          <ns3:TrackPointExtension>
            <ns3:atemp>25.0</ns3:atemp>
          </ns3:TrackPointExtension>
        </extensions>
      </trkpt>
      <trkpt lat="42.528491914272308349609375" lon="19.9555343203246593475341796875">
        <ele>1655.5999755859375</ele>
        <time>2026-06-17T09:02:02.000Z</time>
        <extensions>
          <ns3:TrackPointExtension>
            <ns3:atemp>25.0</ns3:atemp>
          </ns3:TrackPointExtension>
        </extensions>
      </trkpt>
      <trkpt lat="42.52850004471838474273681640625" lon="19.9555598013103008270263671875">
        <ele>1655.800048828125</ele>
        <time>2026-06-17T09:02:03.000Z</time>
        <extensions>
          <ns3:TrackPointExtension>
            <ns3:atemp>25.0</ns3:atemp>
          </ns3:TrackPointExtension>
        </extensions>
      </trkpt>
      <trkpt lat="42.52851127646863460540771484375" lon="19.95558570139110088348388671875">
        <ele>1656.199951171875</ele>
        <time>2026-06-17T09:02:04.000Z</time>
        <extensions>
          <ns3:TrackPointExtension>
            <ns3:atemp>25.0</ns3:atemp>
          </ns3:TrackPointExtension>
        </extensions>
      </trkpt>
      <trkpt lat="42.528517059981822967529296875" lon="19.9556121043860912322998046875">
        <ele>1656.5999755859375</ele>
        <time>2026-06-17T09:02:05.000Z</time>
        <extensions>
          <ns3:TrackPointExtension>
            <ns3:atemp>25.0</ns3:atemp>
          </ns3:TrackPointExtension>
        </extensions>
      </trkpt>
      <trkpt lat="42.5285266153514385223388671875" lon="19.955637417733669281005859375">
        <ele>1657</ele>
        <time>2026-06-17T09:02:06.000Z</time>
        <extensions>
          <ns3:TrackPointExtension>
            <ns3:atemp>25.0</ns3:atemp>
          </ns3:TrackPointExtension>
        </extensions>
      </trkpt>
      <trkpt lat="42.52854044549167156219482421875" lon="19.9556566961109638214111328125">
        <ele>1657.4000244140625</ele>
        <time>2026-06-17T09:02:07.000Z</time>
        <extensions>
          <ns3:TrackPointExtension>
            <ns3:atemp>25.0</ns3:atemp>
          </ns3:TrackPointExtension>
        </extensions>
      </trkpt>
      <trkpt lat="42.52855695784091949462890625" lon="19.95567605830729007720947265625">
        <ele>1657.800048828125</ele>
        <time>2026-06-17T09:02:08.000Z</time>
        <extensions>
          <ns3:TrackPointExtension>
            <ns3:atemp>25.0</ns3:atemp>
          </ns3:TrackPointExtension>
        </extensions>
      </trkpt>
      <trkpt lat="42.528576068580150604248046875" lon="19.95568594895303249359130859375">
        <ele>1658.199951171875</ele>
        <time>2026-06-17T09:02:09.000Z</time>
        <extensions>
          <ns3:TrackPointExtension>
            <ns3:atemp>25.0</ns3:atemp>
          </ns3:TrackPointExtension>
        </extensions>
      </trkpt>
      <trkpt lat="42.52859677188098430633544921875" lon="19.95570011436939239501953125">
        <ele>1658.4000244140625</ele>
        <time>2026-06-17T09:02:10.000Z</time>
        <extensions>
          <ns3:TrackPointExtension>
            <ns3:atemp>25.0</ns3:atemp>
          </ns3:TrackPointExtension>
        </extensions>
      </trkpt>
      <trkpt lat="42.52861554734408855438232421875" lon="19.9557059817016124725341796875">
        <ele>1658.800048828125</ele>
        <time>2026-06-17T09:02:11.000Z</time>
        <extensions>
          <ns3:TrackPointExtension>
            <ns3:atemp>25.0</ns3:atemp>
          </ns3:TrackPointExtension>
        </extensions>
      </trkpt>
      <trkpt lat="42.52863817848265171051025390625" lon="19.95570958591997623443603515625">
        <ele>1659.199951171875</ele>
        <time>2026-06-17T09:02:12.000Z</time>
        <extensions>
          <ns3:TrackPointExtension>
            <ns3:atemp>25.0</ns3:atemp>
          </ns3:TrackPointExtension>
        </extensions>
      </trkpt>
      <trkpt lat="42.5286597199738025665283203125" lon="19.95571176521480083465576171875">
        <ele>1659.5999755859375</ele>
        <time>2026-06-17T09:02:13.000Z</time>
        <extensions>
          <ns3:TrackPointExtension>
            <ns3:atemp>25.0</ns3:atemp>
          </ns3:TrackPointExtension>
        </extensions>
      </trkpt>
      <trkpt lat="42.52868109382688999176025390625" lon="19.9557073228061199188232421875">
        <ele>1660</ele>
        <time>2026-06-17T09:02:14.000Z</time>
        <extensions>
          <ns3:TrackPointExtension>
            <ns3:atemp>25.0</ns3:atemp>
          </ns3:TrackPointExtension>
        </extensions>
      </trkpt>
      <trkpt lat="42.5287039764225482940673828125" lon="19.9557034671306610107421875">
        <ele>1660.4000244140625</ele>
        <time>2026-06-17T09:02:15.000Z</time>
        <extensions>
          <ns3:TrackPointExtension>
            <ns3:atemp>25.0</ns3:atemp>
          </ns3:TrackPointExtension>
        </extensions>
      </trkpt>
      <trkpt lat="42.52872467972338199615478515625" lon="19.95570304803550243377685546875">
        <ele>1660.5999755859375</ele>
        <time>2026-06-17T09:02:16.000Z</time>
        <extensions>
          <ns3:TrackPointExtension>
            <ns3:atemp>25.0</ns3:atemp>
          </ns3:TrackPointExtension>
        </extensions>
      </trkpt>
      <trkpt lat="42.5287432037293910980224609375" lon="19.95570220984518527984619140625">
        <ele>1660.800048828125</ele>
        <time>2026-06-17T09:02:17.000Z</time>
        <extensions>
          <ns3:TrackPointExtension>
            <ns3:atemp>25.0</ns3:atemp>
          </ns3:TrackPointExtension>
        </extensions>
      </trkpt>
      <trkpt lat="42.52876575104892253875732421875" lon="19.9557007849216461181640625">
        <ele>1661.199951171875</ele>
        <time>2026-06-17T09:02:18.000Z</time>
        <extensions>
          <ns3:TrackPointExtension>
            <ns3:atemp>25.0</ns3:atemp>
          </ns3:TrackPointExtension>
        </extensions>
      </trkpt>
      <trkpt lat="42.52878536470234394073486328125" lon="19.9556979350745677947998046875">
        <ele>1661.4000244140625</ele>
        <time>2026-06-17T09:02:19.000Z</time>
        <extensions>
          <ns3:TrackPointExtension>
            <ns3:atemp>25.0</ns3:atemp>
          </ns3:TrackPointExtension>
        </extensions>
      </trkpt>
      <trkpt lat="42.528808750212192535400390625" lon="19.955695085227489471435546875">
        <ele>1661.800048828125</ele>
        <time>2026-06-17T09:02:20.000Z</time>
        <extensions>
          <ns3:TrackPointExtension>
            <ns3:atemp>25.0</ns3:atemp>
          </ns3:TrackPointExtension>
        </extensions>
      </trkpt>
      <trkpt lat="42.52883381210267543792724609375" lon="19.95568561367690563201904296875">
        <ele>1662.199951171875</ele>
        <time>2026-06-17T09:02:21.000Z</time>
        <extensions>
          <ns3:TrackPointExtension>
            <ns3:atemp>25.0</ns3:atemp>
          </ns3:TrackPointExtension>
        </extensions>
      </trkpt>
      <trkpt lat="42.5288561917841434478759765625" lon="19.95567270554602146148681640625">
        <ele>1662.4000244140625</ele>
        <time>2026-06-17T09:02:22.000Z</time>
        <extensions>
          <ns3:TrackPointExtension>
            <ns3:atemp>25.0</ns3:atemp>
          </ns3:TrackPointExtension>
        </extensions>
      </trkpt>
      <trkpt lat="42.52887689508497714996337890625" lon="19.95565778575837612152099609375">
        <ele>1662.800048828125</ele>
        <time>2026-06-17T09:02:23.000Z</time>
        <extensions>
          <ns3:TrackPointExtension>
            <ns3:atemp>25.0</ns3:atemp>
          </ns3:TrackPointExtension>
        </extensions>
      </trkpt>
      <trkpt lat="42.5288957543671131134033203125" lon="19.9556429497897624969482421875">
        <ele>1663.199951171875</ele>
        <time>2026-06-17T09:02:24.000Z</time>
        <extensions>
          <ns3:TrackPointExtension>
            <ns3:atemp>25.0</ns3:atemp>
          </ns3:TrackPointExtension>
        </extensions>
      </trkpt>
      <trkpt lat="42.52891612239181995391845703125" lon="19.95562610216438770294189453125">
        <ele>1663.4000244140625</ele>
        <time>2026-06-17T09:02:25.000Z</time>
        <extensions>
          <ns3:TrackPointExtension>
            <ns3:atemp>25.0</ns3:atemp>
          </ns3:TrackPointExtension>
        </extensions>
      </trkpt>
      <trkpt lat="42.5289319641888141632080078125" lon="19.95560715906322002410888671875">
        <ele>1663.800048828125</ele>
        <time>2026-06-17T09:02:26.000Z</time>
        <extensions>
          <ns3:TrackPointExtension>
            <ns3:atemp>25.0</ns3:atemp>
          </ns3:TrackPointExtension>
        </extensions>
      </trkpt>
      <trkpt lat="42.52894830889999866485595703125" lon="19.9555881321430206298828125">
        <ele>1664</ele>
        <time>2026-06-17T09:02:27.000Z</time>
        <extensions>
          <ns3:TrackPointExtension>
            <ns3:atemp>25.0</ns3:atemp>
          </ns3:TrackPointExtension>
        </extensions>
      </trkpt>
      <trkpt lat="42.528960965573787689208984375" lon="19.955565668642520904541015625">
        <ele>1664.4000244140625</ele>
        <time>2026-06-17T09:02:28.000Z</time>
        <extensions>
          <ns3:TrackPointExtension>
            <ns3:atemp>25.0</ns3:atemp>
          </ns3:TrackPointExtension>
        </extensions>
      </trkpt>
      <trkpt lat="42.528975717723369598388671875" lon="19.955543540418148040771484375">
        <ele>1664.800048828125</ele>
        <time>2026-06-17T09:02:29.000Z</time>
        <extensions>
          <ns3:TrackPointExtension>
            <ns3:atemp>25.0</ns3:atemp>
          </ns3:TrackPointExtension>
        </extensions>
      </trkpt>
      <trkpt lat="42.5289867818355560302734375" lon="19.95551898144185543060302734375">
        <ele>1665</ele>
        <time>2026-06-17T09:02:30.000Z</time>
        <extensions>
          <ns3:TrackPointExtension>
            <ns3:atemp>25.0</ns3:atemp>
          </ns3:TrackPointExtension>
        </extensions>
      </trkpt>
      <trkpt lat="42.528995163738727569580078125" lon="19.9554944224655628204345703125">
        <ele>1665.4000244140625</ele>
        <time>2026-06-17T09:02:31.000Z</time>
        <extensions>
          <ns3:TrackPointExtension>
            <ns3:atemp>25.0</ns3:atemp>
          </ns3:TrackPointExtension>
        </extensions>
      </trkpt>
      <trkpt lat="42.52900379709899425506591796875" lon="19.95546877384185791015625">
        <ele>1665.5999755859375</ele>
        <time>2026-06-17T09:02:32.000Z</time>
        <extensions>
          <ns3:TrackPointExtension>
            <ns3:atemp>25.0</ns3:atemp>
          </ns3:TrackPointExtension>
        </extensions>
      </trkpt>
      <trkpt lat="42.52901268191635608673095703125" lon="19.9554427899420261383056640625">
        <ele>1666</ele>
        <time>2026-06-17T09:02:33.000Z</time>
        <extensions>
          <ns3:TrackPointExtension>
            <ns3:atemp>25.0</ns3:atemp>
          </ns3:TrackPointExtension>
        </extensions>
      </trkpt>
      <trkpt lat="42.52902139909565448760986328125" lon="19.9554250203073024749755859375">
        <ele>1666.199951171875</ele>
        <time>2026-06-17T09:02:34.000Z</time>
        <extensions>
          <ns3:TrackPointExtension>
            <ns3:atemp>25.0</ns3:atemp>
          </ns3:TrackPointExtension>
        </extensions>
      </trkpt>
      <trkpt lat="42.52903011627495288848876953125" lon="19.955401718616485595703125">
        <ele>1666.5999755859375</ele>
        <time>2026-06-17T09:02:35.000Z</time>
        <extensions>
          <ns3:TrackPointExtension>
            <ns3:atemp>25.0</ns3:atemp>
          </ns3:TrackPointExtension>
        </extensions>
      </trkpt>
      <trkpt lat="42.52904067747294902801513671875" lon="19.95537699200212955474853515625">
        <ele>1667</ele>
        <time>2026-06-17T09:02:36.000Z</time>
        <extensions>
          <ns3:TrackPointExtension>
            <ns3:atemp>25.0</ns3:atemp>
          </ns3:TrackPointExtension>
        </extensions>
      </trkpt>
      <trkpt lat="42.52905207686126232147216796875" lon="19.95534765534102916717529296875">
        <ele>1667.199951171875</ele>
        <time>2026-06-17T09:02:37.000Z</time>
        <extensions>
          <ns3:TrackPointExtension>
            <ns3:atemp>25.0</ns3:atemp>
          </ns3:TrackPointExtension>
        </extensions>
      </trkpt>
      <trkpt lat="42.529060877859592437744140625" lon="19.95532636530697345733642578125">
        <ele>1667.5999755859375</ele>
        <time>2026-06-17T09:02:38.000Z</time>
        <extensions>
          <ns3:TrackPointExtension>
            <ns3:atemp>25.0</ns3:atemp>
          </ns3:TrackPointExtension>
        </extensions>
      </trkpt>
      <trkpt lat="42.529071606695652008056640625" lon="19.9553013034164905548095703125">
        <ele>1668</ele>
        <time>2026-06-17T09:02:39.000Z</time>
        <extensions>
          <ns3:TrackPointExtension>
            <ns3:atemp>25.0</ns3:atemp>
          </ns3:TrackPointExtension>
        </extensions>
      </trkpt>
      <trkpt lat="42.52907923422753810882568359375" lon="19.95527154766023159027099609375">
        <ele>1668.4000244140625</ele>
        <time>2026-06-17T09:02:40.000Z</time>
        <extensions>
          <ns3:TrackPointExtension>
            <ns3:atemp>25.0</ns3:atemp>
          </ns3:TrackPointExtension>
        </extensions>
      </trkpt>
      <trkpt lat="42.5290898792445659637451171875" lon="19.95525084435939788818359375">
        <ele>1668.5999755859375</ele>
        <time>2026-06-17T09:02:41.000Z</time>
        <extensions>
          <ns3:TrackPointExtension>
            <ns3:atemp>25.0</ns3:atemp>
          </ns3:TrackPointExtension>
        </extensions>
      </trkpt>
      <trkpt lat="42.52910077571868896484375" lon="19.9552255310118198394775390625">
        <ele>1669</ele>
        <time>2026-06-17T09:02:42.000Z</time>
        <extensions>
          <ns3:TrackPointExtension>
            <ns3:atemp>25.0</ns3:atemp>
          </ns3:TrackPointExtension>
        </extensions>
      </trkpt>
      <trkpt lat="42.52910614013671875" lon="19.95521002449095249176025390625">
        <ele>1669.199951171875</ele>
        <time>2026-06-17T09:02:43.000Z</time>
        <extensions>
          <ns3:TrackPointExtension>
            <ns3:atemp>25.0</ns3:atemp>
          </ns3:TrackPointExtension>
        </extensions>
      </trkpt>
      <trkpt lat="42.52911217510700225830078125" lon="19.955196194350719451904296875">
        <ele>1669.4000244140625</ele>
        <time>2026-06-17T09:02:44.000Z</time>
        <extensions>
          <ns3:TrackPointExtension>
            <ns3:atemp>25.0</ns3:atemp>
          </ns3:TrackPointExtension>
        </extensions>
      </trkpt>
      <trkpt lat="42.52912466414272785186767578125" lon="19.9551899917423725128173828125">
        <ele>1669.800048828125</ele>
        <time>2026-06-17T09:02:45.000Z</time>
        <extensions>
          <ns3:TrackPointExtension>
            <ns3:atemp>25.0</ns3:atemp>
          </ns3:TrackPointExtension>
        </extensions>
      </trkpt>
      <trkpt lat="42.52913824282586574554443359375" lon="19.95517465285956859588623046875">
        <ele>1670.199951171875</ele>
        <time>2026-06-17T09:02:46.000Z</time>
        <extensions>
          <ns3:TrackPointExtension>
            <ns3:atemp>25.0</ns3:atemp>
          </ns3:TrackPointExtension>
        </extensions>
      </trkpt>
      <trkpt lat="42.52914662472903728485107421875" lon="19.9551531113684177398681640625">
        <ele>1670.5999755859375</ele>
        <time>2026-06-17T09:02:47.000Z</time>
        <extensions>
          <ns3:TrackPointExtension>
            <ns3:atemp>25.0</ns3:atemp>
          </ns3:TrackPointExtension>
        </extensions>
      </trkpt>
      <trkpt lat="42.5291559286415576934814453125" lon="19.95513190515339374542236328125">
        <ele>1670.800048828125</ele>
        <time>2026-06-17T09:02:48.000Z</time>
        <extensions>
          <ns3:TrackPointExtension>
            <ns3:atemp>25.0</ns3:atemp>
          </ns3:TrackPointExtension>
        </extensions>
      </trkpt>
      <trkpt lat="42.5291643105447292327880859375" lon="19.95510994456708431243896484375">
        <ele>1671</ele>
        <time>2026-06-17T09:02:49.000Z</time>
        <extensions>
          <ns3:TrackPointExtension>
            <ns3:atemp>25.0</ns3:atemp>
          </ns3:TrackPointExtension>
        </extensions>
      </trkpt>
      <trkpt lat="42.52917445264756679534912109375" lon="19.9550870619714260101318359375">
        <ele>1671.4000244140625</ele>
        <time>2026-06-17T09:02:50.000Z</time>
        <extensions>
          <ns3:TrackPointExtension>
            <ns3:atemp>25.0</ns3:atemp>
          </ns3:TrackPointExtension>
        </extensions>
      </trkpt>
      <trkpt lat="42.5291767157614231109619140625" lon="19.95506786741316318511962890625">
        <ele>1671.800048828125</ele>
        <time>2026-06-17T09:02:51.000Z</time>
        <extensions>
          <ns3:TrackPointExtension>
            <ns3:atemp>25.0</ns3:atemp>
          </ns3:TrackPointExtension>
        </extensions>
      </trkpt>
      <trkpt lat="42.5291820801794528961181640625" lon="19.95504640974104404449462890625">
        <ele>1672</ele>
        <time>2026-06-17T09:02:52.000Z</time>
        <extensions>
          <ns3:TrackPointExtension>
            <ns3:atemp>25.0</ns3:atemp>
          </ns3:TrackPointExtension>
        </extensions>
      </trkpt>
      <trkpt lat="42.52917654812335968017578125" lon="19.9550176598131656646728515625">
        <ele>1672.4000244140625</ele>
        <time>2026-06-17T09:02:53.000Z</time>
        <extensions>
          <ns3:TrackPointExtension>
            <ns3:atemp>25.0</ns3:atemp>
          </ns3:TrackPointExtension>
        </extensions>
      </trkpt>
      <trkpt lat="42.52916623838245868682861328125" lon="19.95498790405690670013427734375">
        <ele>1672.800048828125</ele>
        <time>2026-06-17T09:02:54.000Z</time>
        <extensions>
          <ns3:TrackPointExtension>
            <ns3:atemp>25.0</ns3:atemp>
          </ns3:TrackPointExtension>
        </extensions>
      </trkpt>
      <trkpt lat="42.52915685065090656280517578125" lon="19.95496116578578948974609375">
        <ele>1673.199951171875</ele>
        <time>2026-06-17T09:02:55.000Z</time>
        <extensions>
          <ns3:TrackPointExtension>
            <ns3:atemp>25.0</ns3:atemp>
          </ns3:TrackPointExtension>
        </extensions>
      </trkpt>
      <trkpt lat="42.5291314534842967987060546875" lon="19.9549375288188457489013671875">
        <ele>1673.5999755859375</ele>
        <time>2026-06-17T09:02:56.000Z</time>
        <extensions>
          <ns3:TrackPointExtension>
            <ns3:atemp>25.0</ns3:atemp>
          </ns3:TrackPointExtension>
        </extensions>
      </trkpt>
      <trkpt lat="42.52911393530666828155517578125" lon="19.9549358524382114410400390625">
        <ele>1673.800048828125</ele>
        <time>2026-06-17T09:02:57.000Z</time>
        <extensions>
          <ns3:TrackPointExtension>
            <ns3:atemp>25.0</ns3:atemp>
          </ns3:TrackPointExtension>
        </extensions>
      </trkpt>
      <trkpt lat="42.52909046597778797149658203125" lon="19.954936690628528594970703125">
        <ele>1674.199951171875</ele>
        <time>2026-06-17T09:02:58.000Z</time>
        <extensions>
          <ns3:TrackPointExtension>
            <ns3:atemp>25.0</ns3:atemp>
          </ns3:TrackPointExtension>
        </extensions>
      </trkpt>
      <trkpt lat="42.5290699303150177001953125" lon="19.9549405463039875030517578125">
        <ele>1674.4000244140625</ele>
        <time>2026-06-17T09:02:59.000Z</time>
        <extensions>
          <ns3:TrackPointExtension>
            <ns3:atemp>25.0</ns3:atemp>
          </ns3:TrackPointExtension>
        </extensions>
      </trkpt>
      <trkpt lat="42.52905911765992641448974609375" lon="19.95494381524622440338134765625">
        <ele>1674.800048828125</ele>
        <time>2026-06-17T09:03:00.000Z</time>
        <extensions>
          <ns3:TrackPointExtension>
            <ns3:atemp>25.0</ns3:atemp>
          </ns3:TrackPointExtension>
        </extensions>
      </trkpt>
      <trkpt lat="42.529044784605503082275390625" lon="19.95494331233203411102294921875">
        <ele>1675</ele>
        <time>2026-06-17T09:03:01.000Z</time>
        <extensions>
          <ns3:TrackPointExtension>
            <ns3:atemp>25.0</ns3:atemp>
          </ns3:TrackPointExtension>
        </extensions>
      </trkpt>
      <trkpt lat="42.52903397195041179656982421875" lon="19.95494012720882892608642578125">
        <ele>1675.4000244140625</ele>
        <time>2026-06-17T09:03:02.000Z</time>
        <extensions>
          <ns3:TrackPointExtension>
            <ns3:atemp>25.0</ns3:atemp>
          </ns3:TrackPointExtension>
        </extensions>
      </trkpt>
      <trkpt lat="42.52902223728597164154052734375" lon="19.954935349524021148681640625">
        <ele>1675.5999755859375</ele>
        <time>2026-06-17T09:03:03.000Z</time>
        <extensions>
          <ns3:TrackPointExtension>
            <ns3:atemp>25.0</ns3:atemp>
          </ns3:TrackPointExtension>
        </extensions>
      </trkpt>
      <trkpt lat="42.5290082395076751708984375" lon="19.954931996762752532958984375">
        <ele>1676</ele>
        <time>2026-06-17T09:03:04.000Z</time>
        <extensions>
          <ns3:TrackPointExtension>
            <ns3:atemp>25.0</ns3:atemp>
          </ns3:TrackPointExtension>
        </extensions>
      </trkpt>
      <trkpt lat="42.52899172715842723846435546875" lon="19.95493032038211822509765625">
        <ele>1676.199951171875</ele>
        <time>2026-06-17T09:03:05.000Z</time>
        <extensions>
          <ns3:TrackPointExtension>
            <ns3:atemp>25.0</ns3:atemp>
          </ns3:TrackPointExtension>
        </extensions>
      </trkpt>
      <trkpt lat="42.52897295169532299041748046875" lon="19.95492755435407161712646484375">
        <ele>1676.4000244140625</ele>
        <time>2026-06-17T09:03:06.000Z</time>
        <extensions>
          <ns3:TrackPointExtension>
            <ns3:atemp>25.0</ns3:atemp>
          </ns3:TrackPointExtension>
        </extensions>
      </trkpt>
      <trkpt lat="42.52895258367061614990234375" lon="19.9549261294305324554443359375">
        <ele>1676.5999755859375</ele>
        <time>2026-06-17T09:03:07.000Z</time>
        <extensions>
          <ns3:TrackPointExtension>
            <ns3:atemp>25.0</ns3:atemp>
          </ns3:TrackPointExtension>
        </extensions>
      </trkpt>
      <trkpt lat="42.52893204800784587860107421875" lon="19.95492361485958099365234375">
        <ele>1677</ele>
        <time>2026-06-17T09:03:08.000Z</time>
        <extensions>
          <ns3:TrackPointExtension>
            <ns3:atemp>25.0</ns3:atemp>
          </ns3:TrackPointExtension>
        </extensions>
      </trkpt>
      <trkpt lat="42.52891126088798046112060546875" lon="19.9549157358705997467041015625">
        <ele>1677.199951171875</ele>
        <time>2026-06-17T09:03:09.000Z</time>
        <extensions>
          <ns3:TrackPointExtension>
            <ns3:atemp>25.0</ns3:atemp>
          </ns3:TrackPointExtension>
        </extensions>
      </trkpt>
      <trkpt lat="42.52889064140617847442626953125" lon="19.95490425266325473785400390625">
        <ele>1677.4000244140625</ele>
        <time>2026-06-17T09:03:10.000Z</time>
        <extensions>
          <ns3:TrackPointExtension>
            <ns3:atemp>25.0</ns3:atemp>
          </ns3:TrackPointExtension>
        </extensions>
      </trkpt>
      <trkpt lat="42.5288696028292179107666015625" lon="19.9548962898552417755126953125">
        <ele>1677.5999755859375</ele>
        <time>2026-06-17T09:03:11.000Z</time>
        <extensions>
          <ns3:TrackPointExtension>
            <ns3:atemp>25.0</ns3:atemp>
          </ns3:TrackPointExtension>
        </extensions>
      </trkpt>
      <trkpt lat="42.5288565270602703094482421875" lon="19.954882375895977020263671875">
        <ele>1678</ele>
        <time>2026-06-17T09:03:12.000Z</time>
        <extensions>
          <ns3:TrackPointExtension>
            <ns3:atemp>25.0</ns3:atemp>
          </ns3:TrackPointExtension>
        </extensions>
      </trkpt>
      <trkpt lat="42.5288387574255466461181640625" lon="19.954870641231536865234375">
        <ele>1678.199951171875</ele>
        <time>2026-06-17T09:03:13.000Z</time>
        <extensions>
          <ns3:TrackPointExtension>
            <ns3:atemp>25.0</ns3:atemp>
          </ns3:TrackPointExtension>
        </extensions>
      </trkpt>
      <trkpt lat="42.528818808495998382568359375" lon="19.95485848747193813323974609375">
        <ele>1678.4000244140625</ele>
        <time>2026-06-17T09:03:14.000Z</time>
        <extensions>
          <ns3:TrackPointExtension>
            <ns3:atemp>25.0</ns3:atemp>
          </ns3:TrackPointExtension>
        </extensions>
      </trkpt>
      <trkpt lat="42.528801374137401580810546875" lon="19.95484524406492710113525390625">
        <ele>1678.5999755859375</ele>
        <time>2026-06-17T09:03:15.000Z</time>
        <extensions>
          <ns3:TrackPointExtension>
            <ns3:atemp>25.0</ns3:atemp>
          </ns3:TrackPointExtension>
        </extensions>
      </trkpt>
      <trkpt lat="42.528784275054931640625" lon="19.95483241975307464599609375">
        <ele>1679</ele>
        <time>2026-06-17T09:03:16.000Z</time>
        <extensions>
          <ns3:TrackPointExtension>
            <ns3:atemp>25.0</ns3:atemp>
          </ns3:TrackPointExtension>
        </extensions>
      </trkpt>
      <trkpt lat="42.5287666730582714080810546875" lon="19.95482127182185649871826171875">
        <ele>1679.199951171875</ele>
        <time>2026-06-17T09:03:17.000Z</time>
        <extensions>
          <ns3:TrackPointExtension>
            <ns3:atemp>25.0</ns3:atemp>
          </ns3:TrackPointExtension>
        </extensions>
      </trkpt>
      <trkpt lat="42.52875284291803836822509765625" lon="19.9548050947487354278564453125">
        <ele>1679.5999755859375</ele>
        <time>2026-06-17T09:03:18.000Z</time>
        <extensions>
          <ns3:TrackPointExtension>
            <ns3:atemp>25.0</ns3:atemp>
          </ns3:TrackPointExtension>
        </extensions>
      </trkpt>
      <trkpt lat="42.52873926423490047454833984375" lon="19.9547879956662654876708984375">
        <ele>1679.800048828125</ele>
        <time>2026-06-17T09:03:19.000Z</time>
        <extensions>
          <ns3:TrackPointExtension>
            <ns3:atemp>25.0</ns3:atemp>
          </ns3:TrackPointExtension>
        </extensions>
      </trkpt>
      <trkpt lat="42.52872727811336517333984375" lon="19.95476544834673404693603515625">
        <ele>1680.199951171875</ele>
        <time>2026-06-17T09:03:20.000Z</time>
        <extensions>
          <ns3:TrackPointExtension>
            <ns3:atemp>25.0</ns3:atemp>
          </ns3:TrackPointExtension>
        </extensions>
      </trkpt>
      <trkpt lat="42.52871663309633731842041015625" lon="19.95474298484623432159423828125">
        <ele>1680.5999755859375</ele>
        <time>2026-06-17T09:03:21.000Z</time>
        <extensions>
          <ns3:TrackPointExtension>
            <ns3:atemp>25.0</ns3:atemp>
          </ns3:TrackPointExtension>
        </extensions>
      </trkpt>
      <trkpt lat="42.5287078320980072021484375" lon="19.95471498928964138031005859375">
        <ele>1680.800048828125</ele>
        <time>2026-06-17T09:03:22.000Z</time>
        <extensions>
          <ns3:TrackPointExtension>
            <ns3:atemp>25.0</ns3:atemp>
          </ns3:TrackPointExtension>
        </extensions>
      </trkpt>
      <trkpt lat="42.5286997854709625244140625" lon="19.95468934066593647003173828125">
        <ele>1681</ele>
        <time>2026-06-17T09:03:23.000Z</time>
        <extensions>
          <ns3:TrackPointExtension>
            <ns3:atemp>25.0</ns3:atemp>
          </ns3:TrackPointExtension>
        </extensions>
      </trkpt>
      <trkpt lat="42.52869467251002788543701171875" lon="19.9546612612903118133544921875">
        <ele>1681.199951171875</ele>
        <time>2026-06-17T09:03:24.000Z</time>
        <extensions>
          <ns3:TrackPointExtension>
            <ns3:atemp>25.0</ns3:atemp>
          </ns3:TrackPointExtension>
        </extensions>
      </trkpt>
      <trkpt lat="42.5286895595490932464599609375" lon="19.954634606838226318359375">
        <ele>1681.4000244140625</ele>
        <time>2026-06-17T09:03:25.000Z</time>
        <extensions>
          <ns3:TrackPointExtension>
            <ns3:atemp>25.0</ns3:atemp>
          </ns3:TrackPointExtension>
        </extensions>
      </trkpt>
      <trkpt lat="42.52868796698749065399169921875" lon="19.9546092934906482696533203125">
        <ele>1681.5999755859375</ele>
        <time>2026-06-17T09:03:26.000Z</time>
        <extensions>
          <ns3:TrackPointExtension>
            <ns3:atemp>25.0</ns3:atemp>
          </ns3:TrackPointExtension>
        </extensions>
      </trkpt>
      <trkpt lat="42.528684027493000030517578125" lon="19.9545891769230365753173828125">
        <ele>1682.199951171875</ele>
        <time>2026-06-17T09:03:27.000Z</time>
        <extensions>
          <ns3:TrackPointExtension>
            <ns3:atemp>25.0</ns3:atemp>
          </ns3:TrackPointExtension>
        </extensions>
      </trkpt>
      <trkpt lat="42.52868033945560455322265625" lon="19.95455740951001644134521484375">
        <ele>1682.5999755859375</ele>
        <time>2026-06-17T09:03:28.000Z</time>
        <extensions>
          <ns3:TrackPointExtension>
            <ns3:atemp>25.0</ns3:atemp>
          </ns3:TrackPointExtension>
        </extensions>
      </trkpt>
      <trkpt lat="42.528679668903350830078125" lon="19.95452941395342350006103515625">
        <ele>1682.800048828125</ele>
        <time>2026-06-17T09:03:29.000Z</time>
        <extensions>
          <ns3:TrackPointExtension>
            <ns3:atemp>25.0</ns3:atemp>
          </ns3:TrackPointExtension>
        </extensions>
      </trkpt>
      <trkpt lat="42.52867807634174823760986328125" lon="19.95450393296778202056884765625">
        <ele>1683.199951171875</ele>
        <time>2026-06-17T09:03:30.000Z</time>
        <extensions>
          <ns3:TrackPointExtension>
            <ns3:atemp>25.0</ns3:atemp>
          </ns3:TrackPointExtension>
        </extensions>
      </trkpt>
      <trkpt lat="42.52867539413273334503173828125" lon="19.9544803798198699951171875">
        <ele>1683.5999755859375</ele>
        <time>2026-06-17T09:03:31.000Z</time>
        <extensions>
          <ns3:TrackPointExtension>
            <ns3:atemp>25.0</ns3:atemp>
          </ns3:TrackPointExtension>
        </extensions>
      </trkpt>
      <trkpt lat="42.52867220900952816009521484375" lon="19.95445246808230876922607421875">
        <ele>1684</ele>
        <time>2026-06-17T09:03:32.000Z</time>
        <extensions>
          <ns3:TrackPointExtension>
            <ns3:atemp>25.0</ns3:atemp>
          </ns3:TrackPointExtension>
        </extensions>
      </trkpt>
      <trkpt lat="42.52866684459149837493896484375" lon="19.9544336088001728057861328125">
        <ele>1684.4000244140625</ele>
        <time>2026-06-17T09:03:33.000Z</time>
        <extensions>
          <ns3:TrackPointExtension>
            <ns3:atemp>25.0</ns3:atemp>
          </ns3:TrackPointExtension>
        </extensions>
      </trkpt>
      <trkpt lat="42.52866248600184917449951171875" lon="19.95441139675676822662353515625">
        <ele>1684.5999755859375</ele>
        <time>2026-06-17T09:03:34.000Z</time>
        <extensions>
          <ns3:TrackPointExtension>
            <ns3:atemp>25.0</ns3:atemp>
          </ns3:TrackPointExtension>
        </extensions>
      </trkpt>
      <trkpt lat="42.52865494228899478912353515625" lon="19.95438490994274616241455078125">
        <ele>1685</ele>
        <time>2026-06-17T09:03:35.000Z</time>
        <extensions>
          <ns3:TrackPointExtension>
            <ns3:atemp>25.0</ns3:atemp>
          </ns3:TrackPointExtension>
        </extensions>
      </trkpt>
      <trkpt lat="42.52864806912839412689208984375" lon="19.954353310167789459228515625">
        <ele>1685.4000244140625</ele>
        <time>2026-06-17T09:03:36.000Z</time>
        <extensions>
          <ns3:TrackPointExtension>
            <ns3:atemp>25.0</ns3:atemp>
          </ns3:TrackPointExtension>
        </extensions>
      </trkpt>
      <trkpt lat="42.52864144742488861083984375" lon="19.9543219618499279022216796875">
        <ele>1685.800048828125</ele>
        <time>2026-06-17T09:03:37.000Z</time>
        <extensions>
          <ns3:TrackPointExtension>
            <ns3:atemp>25.0</ns3:atemp>
          </ns3:TrackPointExtension>
        </extensions>
      </trkpt>
      <trkpt lat="42.5286327302455902099609375" lon="19.95429807342588901519775390625">
        <ele>1686</ele>
        <time>2026-06-17T09:03:38.000Z</time>
        <extensions>
          <ns3:TrackPointExtension>
            <ns3:atemp>25.0</ns3:atemp>
          </ns3:TrackPointExtension>
        </extensions>
      </trkpt>
      <trkpt lat="42.52862594090402126312255859375" lon="19.9542673118412494659423828125">
        <ele>1686.4000244140625</ele>
        <time>2026-06-17T09:03:39.000Z</time>
        <extensions>
          <ns3:TrackPointExtension>
            <ns3:atemp>25.0</ns3:atemp>
          </ns3:TrackPointExtension>
        </extensions>
      </trkpt>
      <trkpt lat="42.52861923538148403167724609375" lon="19.95424233376979827880859375">
        <ele>1686.5999755859375</ele>
        <time>2026-06-17T09:03:40.000Z</time>
        <extensions>
          <ns3:TrackPointExtension>
            <ns3:atemp>25.0</ns3:atemp>
          </ns3:TrackPointExtension>
        </extensions>
      </trkpt>
      <trkpt lat="42.52861655317246913909912109375" lon="19.954218529164791107177734375">
        <ele>1686.800048828125</ele>
        <time>2026-06-17T09:03:41.000Z</time>
        <extensions>
          <ns3:TrackPointExtension>
            <ns3:atemp>25.0</ns3:atemp>
          </ns3:TrackPointExtension>
        </extensions>
      </trkpt>
      <trkpt lat="42.52861169166862964630126953125" lon="19.95419564656913280487060546875">
        <ele>1687.199951171875</ele>
        <time>2026-06-17T09:03:42.000Z</time>
        <extensions>
          <ns3:TrackPointExtension>
            <ns3:atemp>25.0</ns3:atemp>
          </ns3:TrackPointExtension>
        </extensions>
      </trkpt>
      <trkpt lat="42.52860523760318756103515625" lon="19.95416781865060329437255859375">
        <ele>1687.4000244140625</ele>
        <time>2026-06-17T09:03:43.000Z</time>
        <extensions>
          <ns3:TrackPointExtension>
            <ns3:atemp>25.0</ns3:atemp>
          </ns3:TrackPointExtension>
        </extensions>
      </trkpt>
      <trkpt lat="42.5285983644425868988037109375" lon="19.9541362188756465911865234375">
        <ele>1687.5999755859375</ele>
        <time>2026-06-17T09:03:44.000Z</time>
        <extensions>
          <ns3:TrackPointExtension>
            <ns3:atemp>25.0</ns3:atemp>
          </ns3:TrackPointExtension>
        </extensions>
      </trkpt>
      <trkpt lat="42.5285909883677959442138671875" lon="19.95410956442356109619140625">
        <ele>1687.800048828125</ele>
        <time>2026-06-17T09:03:45.000Z</time>
        <extensions>
          <ns3:TrackPointExtension>
            <ns3:atemp>25.0</ns3:atemp>
          </ns3:TrackPointExtension>
        </extensions>
      </trkpt>
      <trkpt lat="42.52858419902622699737548828125" lon="19.95407863520085811614990234375">
        <ele>1688</ele>
        <time>2026-06-17T09:03:46.000Z</time>
        <extensions>
          <ns3:TrackPointExtension>
            <ns3:atemp>25.0</ns3:atemp>
          </ns3:TrackPointExtension>
        </extensions>
      </trkpt>
      <trkpt lat="42.5285782478749752044677734375" lon="19.95404913090169429779052734375">
        <ele>1688.199951171875</ele>
        <time>2026-06-17T09:03:47.000Z</time>
        <extensions>
          <ns3:TrackPointExtension>
            <ns3:atemp>25.0</ns3:atemp>
          </ns3:TrackPointExtension>
        </extensions>
      </trkpt>
      <trkpt lat="42.52857129089534282684326171875" lon="19.954012669622898101806640625">
        <ele>1688.4000244140625</ele>
        <time>2026-06-17T09:03:48.000Z</time>
        <extensions>
          <ns3:TrackPointExtension>
            <ns3:atemp>25.0</ns3:atemp>
          </ns3:TrackPointExtension>
        </extensions>
      </trkpt>
      <trkpt lat="42.52856508828699588775634765625" lon="19.9539761245250701904296875">
        <ele>1688.800048828125</ele>
        <time>2026-06-17T09:03:49.000Z</time>
        <extensions>
          <ns3:TrackPointExtension>
            <ns3:atemp>25.0</ns3:atemp>
          </ns3:TrackPointExtension>
        </extensions>
      </trkpt>
      <trkpt lat="42.5285561196506023406982421875" lon="19.9539437703788280487060546875">
        <ele>1689</ele>
        <time>2026-06-17T09:03:50.000Z</time>
        <extensions>
          <ns3:TrackPointExtension>
            <ns3:atemp>25.0</ns3:atemp>
          </ns3:TrackPointExtension>
        </extensions>
      </trkpt>
      <trkpt lat="42.5285468995571136474609375" lon="19.95390982367098331451416015625">
        <ele>1689.199951171875</ele>
        <time>2026-06-17T09:03:51.000Z</time>
        <extensions>
          <ns3:TrackPointExtension>
            <ns3:atemp>25.0</ns3:atemp>
          </ns3:TrackPointExtension>
        </extensions>
      </trkpt>
      <trkpt lat="42.52853893674910068511962890625" lon="19.953871183097362518310546875">
        <ele>1689.4000244140625</ele>
        <time>2026-06-17T09:03:52.000Z</time>
        <extensions>
          <ns3:TrackPointExtension>
            <ns3:atemp>25.0</ns3:atemp>
          </ns3:TrackPointExtension>
        </extensions>
      </trkpt>
      <trkpt lat="42.52852820791304111480712890625" lon="19.9538381583988666534423828125">
        <ele>1689.800048828125</ele>
        <time>2026-06-17T09:03:53.000Z</time>
        <extensions>
          <ns3:TrackPointExtension>
            <ns3:atemp>25.0</ns3:atemp>
          </ns3:TrackPointExtension>
        </extensions>
      </trkpt>
      <trkpt lat="42.52851865254342555999755859375" lon="19.95380287058651447296142578125">
        <ele>1690</ele>
        <time>2026-06-17T09:03:54.000Z</time>
        <extensions>
          <ns3:TrackPointExtension>
            <ns3:atemp>25.0</ns3:atemp>
          </ns3:TrackPointExtension>
        </extensions>
      </trkpt>
      <trkpt lat="42.52851110883057117462158203125" lon="19.95376565493643283843994140625">
        <ele>1690.199951171875</ele>
        <time>2026-06-17T09:03:55.000Z</time>
        <extensions>
          <ns3:TrackPointExtension>
            <ns3:atemp>25.0</ns3:atemp>
          </ns3:TrackPointExtension>
        </extensions>
      </trkpt>
      <trkpt lat="42.52849660813808441162109375" lon="19.953732378780841827392578125">
        <ele>1690.5999755859375</ele>
        <time>2026-06-17T09:03:56.000Z</time>
        <extensions>
          <ns3:TrackPointExtension>
            <ns3:atemp>25.0</ns3:atemp>
          </ns3:TrackPointExtension>
        </extensions>
      </trkpt>
      <trkpt lat="42.528482861816883087158203125" lon="19.953701533377170562744140625">
        <ele>1690.800048828125</ele>
        <time>2026-06-17T09:03:57.000Z</time>
        <extensions>
          <ns3:TrackPointExtension>
            <ns3:atemp>25.0</ns3:atemp>
          </ns3:TrackPointExtension>
        </extensions>
      </trkpt>
      <trkpt lat="42.52847112715244293212890625" lon="19.9536638148128986358642578125">
        <ele>1691</ele>
        <time>2026-06-17T09:03:58.000Z</time>
        <extensions>
          <ns3:TrackPointExtension>
            <ns3:atemp>25.0</ns3:atemp>
          </ns3:TrackPointExtension>
        </extensions>
      </trkpt>
      <trkpt lat="42.52845696173608303070068359375" lon="19.95362869463860988616943359375">
        <ele>1691.199951171875</ele>
        <time>2026-06-17T09:03:59.000Z</time>
        <extensions>
          <ns3:TrackPointExtension>
            <ns3:atemp>25.0</ns3:atemp>
          </ns3:TrackPointExtension>
        </extensions>
      </trkpt>
      <trkpt lat="42.52844271250069141387939453125" lon="19.9535927362740039825439453125">
        <ele>1691.4000244140625</ele>
        <time>2026-06-17T09:04:00.000Z</time>
        <extensions>
          <ns3:TrackPointExtension>
            <ns3:atemp>25.0</ns3:atemp>
          </ns3:TrackPointExtension>
        </extensions>
      </trkpt>
      <trkpt lat="42.5284283794462680816650390625" lon="19.9535571970045566558837890625">
        <ele>1691.5999755859375</ele>
        <time>2026-06-17T09:04:01.000Z</time>
        <extensions>
          <ns3:TrackPointExtension>
            <ns3:atemp>25.0</ns3:atemp>
          </ns3:TrackPointExtension>
        </extensions>
      </trkpt>
      <trkpt lat="42.52840801142156124114990234375" lon="19.95351755060255527496337890625">
        <ele>1691.5999755859375</ele>
        <time>2026-06-17T09:04:02.000Z</time>
        <extensions>
          <ns3:TrackPointExtension>
            <ns3:atemp>25.0</ns3:atemp>
          </ns3:TrackPointExtension>
        </extensions>
      </trkpt>
      <trkpt lat="42.5283857993781566619873046875" lon="19.9534790776669979095458984375">
        <ele>1691.800048828125</ele>
        <time>2026-06-17T09:04:03.000Z</time>
        <extensions>
          <ns3:TrackPointExtension>
            <ns3:atemp>25.0</ns3:atemp>
          </ns3:TrackPointExtension>
        </extensions>
      </trkpt>
      <trkpt lat="42.5283616594970226287841796875" lon="19.95345368050038814544677734375">
        <ele>1692</ele>
        <time>2026-06-17T09:04:04.000Z</time>
        <extensions>
          <ns3:TrackPointExtension>
            <ns3:atemp>25.0</ns3:atemp>
          </ns3:TrackPointExtension>
        </extensions>
      </trkpt>
      <trkpt lat="42.5283398665487766265869140625" lon="19.95342501439154148101806640625">
        <ele>1692.199951171875</ele>
        <time>2026-06-17T09:04:05.000Z</time>
        <extensions>
          <ns3:TrackPointExtension>
            <ns3:atemp>25.0</ns3:atemp>
          </ns3:TrackPointExtension>
        </extensions>
      </trkpt>
      <trkpt lat="42.5283170677721500396728515625" lon="19.9533945880830287933349609375">
        <ele>1692.4000244140625</ele>
        <time>2026-06-17T09:04:06.000Z</time>
        <extensions>
          <ns3:TrackPointExtension>
            <ns3:atemp>25.0</ns3:atemp>
          </ns3:TrackPointExtension>
        </extensions>
      </trkpt>
      <trkpt lat="42.52829234115779399871826171875" lon="19.95336567051708698272705078125">
        <ele>1692.5999755859375</ele>
        <time>2026-06-17T09:04:07.000Z</time>
        <extensions>
          <ns3:TrackPointExtension>
            <ns3:atemp>25.0</ns3:atemp>
          </ns3:TrackPointExtension>
        </extensions>
      </trkpt>
      <trkpt lat="42.5282684527337551116943359375" lon="19.9533406086266040802001953125">
        <ele>1692.5999755859375</ele>
        <time>2026-06-17T09:04:08.000Z</time>
        <extensions>
          <ns3:TrackPointExtension>
            <ns3:atemp>25.0</ns3:atemp>
          </ns3:TrackPointExtension>
        </extensions>
      </trkpt>
      <trkpt lat="42.5282433070242404937744140625" lon="19.95331739075481891632080078125">
        <ele>1692.5999755859375</ele>
        <time>2026-06-17T09:04:09.000Z</time>
        <extensions>
          <ns3:TrackPointExtension>
            <ns3:atemp>25.0</ns3:atemp>
          </ns3:TrackPointExtension>
        </extensions>
      </trkpt>
      <trkpt lat="42.5282201729714870452880859375" lon="19.9532926641404628753662109375">
        <ele>1692.800048828125</ele>
        <time>2026-06-17T09:04:10.000Z</time>
        <extensions>
          <ns3:TrackPointExtension>
            <ns3:atemp>25.0</ns3:atemp>
          </ns3:TrackPointExtension>
        </extensions>
      </trkpt>
      <trkpt lat="42.5282034091651439666748046875" lon="19.95327003300189971923828125">
        <ele>1693</ele>
        <time>2026-06-17T09:04:11.000Z</time>
        <extensions>
          <ns3:TrackPointExtension>
            <ns3:atemp>25.0</ns3:atemp>
          </ns3:TrackPointExtension>
        </extensions>
      </trkpt>
      <trkpt lat="42.52818689681589603424072265625" lon="19.95325251482427120208740234375">
        <ele>1693.199951171875</ele>
        <time>2026-06-17T09:04:12.000Z</time>
        <extensions>
          <ns3:TrackPointExtension>
            <ns3:atemp>25.0</ns3:atemp>
          </ns3:TrackPointExtension>
        </extensions>
      </trkpt>
      <trkpt lat="42.5281671993434429168701171875" lon="19.95322736911475658416748046875">
        <ele>1693.4000244140625</ele>
        <time>2026-06-17T09:04:13.000Z</time>
        <extensions>
          <ns3:TrackPointExtension>
            <ns3:atemp>25.0</ns3:atemp>
          </ns3:TrackPointExtension>
        </extensions>
      </trkpt>
      <trkpt lat="42.52814146690070629119873046875" lon="19.95319585315883159637451171875">
        <ele>1693.5999755859375</ele>
        <time>2026-06-17T09:04:14.000Z</time>
        <extensions>
          <ns3:TrackPointExtension>
            <ns3:atemp>25.0</ns3:atemp>
          </ns3:TrackPointExtension>
        </extensions>
      </trkpt>
      <trkpt lat="42.5281162373721599578857421875" lon="19.95316274464130401611328125">
        <ele>1693.800048828125</ele>
        <time>2026-06-17T09:04:15.000Z</time>
        <extensions>
          <ns3:TrackPointExtension>
            <ns3:atemp>25.0</ns3:atemp>
          </ns3:TrackPointExtension>
        </extensions>
      </trkpt>
      <trkpt lat="42.528085224330425262451171875" lon="19.9531307257711887359619140625">
        <ele>1693.800048828125</ele>
        <time>2026-06-17T09:04:16.000Z</time>
        <extensions>
          <ns3:TrackPointExtension>
            <ns3:atemp>25.0</ns3:atemp>
          </ns3:TrackPointExtension>
        </extensions>
      </trkpt>
      <trkpt lat="42.52806167118251323699951171875" lon="19.9531005509197711944580078125">
        <ele>1694</ele>
        <time>2026-06-17T09:04:17.000Z</time>
        <extensions>
          <ns3:TrackPointExtension>
            <ns3:atemp>25.0</ns3:atemp>
          </ns3:TrackPointExtension>
        </extensions>
      </trkpt>
      <trkpt lat="42.52803836949169635772705078125" lon="19.95306928642094135284423828125">
        <ele>1694</ele>
        <time>2026-06-17T09:04:18.000Z</time>
        <extensions>
          <ns3:TrackPointExtension>
            <ns3:atemp>25.0</ns3:atemp>
          </ns3:TrackPointExtension>
        </extensions>
      </trkpt>
      <trkpt lat="42.5280169956386089324951171875" lon="19.9530418775975704193115234375">
        <ele>1694.4000244140625</ele>
        <time>2026-06-17T09:04:19.000Z</time>
        <extensions>
          <ns3:TrackPointExtension>
            <ns3:atemp>25.0</ns3:atemp>
          </ns3:TrackPointExtension>
        </extensions>
      </trkpt>
      <trkpt lat="42.52799780108034610748291015625" lon="19.95302058756351470947265625">
        <ele>1694.5999755859375</ele>
        <time>2026-06-17T09:04:20.000Z</time>
        <extensions>
          <ns3:TrackPointExtension>
            <ns3:atemp>25.0</ns3:atemp>
          </ns3:TrackPointExtension>
        </extensions>
      </trkpt>
      <trkpt lat="42.5279760919511318206787109375" lon="19.95299653150141239166259765625">
        <ele>1695</ele>
        <time>2026-06-17T09:04:21.000Z</time>
        <extensions>
          <ns3:TrackPointExtension>
            <ns3:atemp>25.0</ns3:atemp>
          </ns3:TrackPointExtension>
        </extensions>
      </trkpt>
      <trkpt lat="42.52795639447867870330810546875" lon="19.9529751576483249664306640625">
        <ele>1695.4000244140625</ele>
        <time>2026-06-17T09:04:22.000Z</time>
        <extensions>
          <ns3:TrackPointExtension>
            <ns3:atemp>25.0</ns3:atemp>
          </ns3:TrackPointExtension>
        </extensions>
      </trkpt>
      <trkpt lat="42.52793468534946441650390625" lon="19.95295462198555469512939453125">
        <ele>1695.5999755859375</ele>
        <time>2026-06-17T09:04:23.000Z</time>
        <extensions>
          <ns3:TrackPointExtension>
            <ns3:atemp>25.0</ns3:atemp>
          </ns3:TrackPointExtension>
        </extensions>
      </trkpt>
      <trkpt lat="42.527918256819248199462890625" lon="19.95292939245700836181640625">
        <ele>1696</ele>
        <time>2026-06-17T09:04:24.000Z</time>
        <extensions>
          <ns3:TrackPointExtension>
            <ns3:atemp>25.0</ns3:atemp>
          </ns3:TrackPointExtension>
        </extensions>
      </trkpt>
      <trkpt lat="42.5278969667851924896240234375" lon="19.952911622822284698486328125">
        <ele>1696</ele>
        <time>2026-06-17T09:04:25.000Z</time>
        <extensions>
          <ns3:TrackPointExtension>
            <ns3:atemp>25.0</ns3:atemp>
          </ns3:TrackPointExtension>
        </extensions>
      </trkpt>
      <trkpt lat="42.5278815440833568572998046875" lon="19.95288840495049953460693359375">
        <ele>1696.199951171875</ele>
        <time>2026-06-17T09:04:26.000Z</time>
        <extensions>
          <ns3:TrackPointExtension>
            <ns3:atemp>25.0</ns3:atemp>
          </ns3:TrackPointExtension>
        </extensions>
      </trkpt>
      <trkpt lat="42.52786352299153804779052734375" lon="19.9528630077838897705078125">
        <ele>1696.5999755859375</ele>
        <time>2026-06-17T09:04:27.000Z</time>
        <extensions>
          <ns3:TrackPointExtension>
            <ns3:atemp>25.0</ns3:atemp>
          </ns3:TrackPointExtension>
        </extensions>
      </trkpt>
      <trkpt lat="42.5278463400900363922119140625" lon="19.95283794589340686798095703125">
        <ele>1696.800048828125</ele>
        <time>2026-06-17T09:04:28.000Z</time>
        <extensions>
          <ns3:TrackPointExtension>
            <ns3:atemp>25.0</ns3:atemp>
          </ns3:TrackPointExtension>
        </extensions>
      </trkpt>
      <trkpt lat="42.52782915718853473663330078125" lon="19.95281296782195568084716796875">
        <ele>1697.199951171875</ele>
        <time>2026-06-17T09:04:29.000Z</time>
        <extensions>
          <ns3:TrackPointExtension>
            <ns3:atemp>25.0</ns3:atemp>
          </ns3:TrackPointExtension>
        </extensions>
      </trkpt>
      <trkpt lat="42.52781189046800136566162109375" lon="19.9527874030172824859619140625">
        <ele>1697.800048828125</ele>
        <time>2026-06-17T09:04:30.000Z</time>
        <extensions>
          <ns3:TrackPointExtension>
            <ns3:atemp>25.0</ns3:atemp>
          </ns3:TrackPointExtension>
        </extensions>
      </trkpt>
      <trkpt lat="42.52779579721391201019287109375" lon="19.95275932364165782928466796875">
        <ele>1698.199951171875</ele>
        <time>2026-06-17T09:04:31.000Z</time>
        <extensions>
          <ns3:TrackPointExtension>
            <ns3:atemp>25.0</ns3:atemp>
          </ns3:TrackPointExtension>
        </extensions>
      </trkpt>
      <trkpt lat="42.52778473310172557830810546875" lon="19.9527273885905742645263671875">
        <ele>1698.4000244140625</ele>
        <time>2026-06-17T09:04:32.000Z</time>
        <extensions>
          <ns3:TrackPointExtension>
            <ns3:atemp>25.0</ns3:atemp>
          </ns3:TrackPointExtension>
        </extensions>
      </trkpt>
      <trkpt lat="42.52776595763862133026123046875" lon="19.95269629172980785369873046875">
        <ele>1698.5999755859375</ele>
        <time>2026-06-17T09:04:33.000Z</time>
        <extensions>
          <ns3:TrackPointExtension>
            <ns3:atemp>25.0</ns3:atemp>
          </ns3:TrackPointExtension>
        </extensions>
      </trkpt>
      <trkpt lat="42.5277521274983882904052734375" lon="19.95266594924032688140869140625">
        <ele>1698.800048828125</ele>
        <time>2026-06-17T09:04:34.000Z</time>
        <extensions>
          <ns3:TrackPointExtension>
            <ns3:atemp>24.0</ns3:atemp>
          </ns3:TrackPointExtension>
        </extensions>
      </trkpt>
      <trkpt lat="42.527730502188205718994140625" lon="19.9526402167975902557373046875">
        <ele>1699.199951171875</ele>
        <time>2026-06-17T09:04:35.000Z</time>
        <extensions>
          <ns3:TrackPointExtension>
            <ns3:atemp>25.0</ns3:atemp>
          </ns3:TrackPointExtension>
        </extensions>
      </trkpt>
      <trkpt lat="42.52770611084997653961181640625" lon="19.952613227069377899169921875">
        <ele>1699.4000244140625</ele>
        <time>2026-06-17T09:04:36.000Z</time>
        <extensions>
          <ns3:TrackPointExtension>
            <ns3:atemp>24.0</ns3:atemp>
          </ns3:TrackPointExtension>
        </extensions>
      </trkpt>
      <trkpt lat="42.5276830606162548065185546875" lon="19.95259587652981281280517578125">
        <ele>1699.800048828125</ele>
        <time>2026-06-17T09:04:37.000Z</time>
        <extensions>
          <ns3:TrackPointExtension>
            <ns3:atemp>24.0</ns3:atemp>
          </ns3:TrackPointExtension>
        </extensions>
      </trkpt>
      <trkpt lat="42.52766311168670654296875" lon="19.95257374830543994903564453125">
        <ele>1700</ele>
        <time>2026-06-17T09:04:38.000Z</time>
        <extensions>
          <ns3:TrackPointExtension>
            <ns3:atemp>24.0</ns3:atemp>
          </ns3:TrackPointExtension>
        </extensions>
      </trkpt>
      <trkpt lat="42.527645342051982879638671875" lon="19.95255715213716030120849609375">
        <ele>1700.199951171875</ele>
        <time>2026-06-17T09:04:39.000Z</time>
        <extensions>
          <ns3:TrackPointExtension>
            <ns3:atemp>24.0</ns3:atemp>
          </ns3:TrackPointExtension>
        </extensions>
      </trkpt>
      <trkpt lat="42.52762296237051486968994140625" lon="19.9525409750640392303466796875">
        <ele>1700.5999755859375</ele>
        <time>2026-06-17T09:04:40.000Z</time>
        <extensions>
          <ns3:TrackPointExtension>
            <ns3:atemp>24.0</ns3:atemp>
          </ns3:TrackPointExtension>
        </extensions>
      </trkpt>
      <trkpt lat="42.5276036001741886138916015625" lon="19.9525196850299835205078125">
        <ele>1701</ele>
        <time>2026-06-17T09:04:41.000Z</time>
        <extensions>
          <ns3:TrackPointExtension>
            <ns3:atemp>24.0</ns3:atemp>
          </ns3:TrackPointExtension>
        </extensions>
      </trkpt>
      <trkpt lat="42.5275854952633380889892578125" lon="19.9524977244436740875244140625">
        <ele>1701.199951171875</ele>
        <time>2026-06-17T09:04:42.000Z</time>
        <extensions>
          <ns3:TrackPointExtension>
            <ns3:atemp>24.0</ns3:atemp>
          </ns3:TrackPointExtension>
        </extensions>
      </trkpt>
      <trkpt lat="42.52756194211542606353759765625" lon="19.95247744023799896240234375">
        <ele>1701.4000244140625</ele>
        <time>2026-06-17T09:04:43.000Z</time>
        <extensions>
          <ns3:TrackPointExtension>
            <ns3:atemp>24.0</ns3:atemp>
          </ns3:TrackPointExtension>
        </extensions>
      </trkpt>
      <trkpt lat="42.52754098735749721527099609375" lon="19.95245598256587982177734375">
        <ele>1701.800048828125</ele>
        <time>2026-06-17T09:04:44.000Z</time>
        <extensions>
          <ns3:TrackPointExtension>
            <ns3:atemp>24.0</ns3:atemp>
          </ns3:TrackPointExtension>
        </extensions>
      </trkpt>
      <trkpt lat="42.5275204516947269439697265625" lon="19.95243427343666553497314453125">
        <ele>1702.199951171875</ele>
        <time>2026-06-17T09:04:45.000Z</time>
        <extensions>
          <ns3:TrackPointExtension>
            <ns3:atemp>24.0</ns3:atemp>
          </ns3:TrackPointExtension>
        </extensions>
      </trkpt>
      <trkpt lat="42.527499161660671234130859375" lon="19.9524142406880855560302734375">
        <ele>1702.4000244140625</ele>
        <time>2026-06-17T09:04:46.000Z</time>
        <extensions>
          <ns3:TrackPointExtension>
            <ns3:atemp>24.0</ns3:atemp>
          </ns3:TrackPointExtension>
        </extensions>
      </trkpt>
      <trkpt lat="42.52748248167335987091064453125" lon="19.952393956482410430908203125">
        <ele>1702.5999755859375</ele>
        <time>2026-06-17T09:04:47.000Z</time>
        <extensions>
          <ns3:TrackPointExtension>
            <ns3:atemp>24.0</ns3:atemp>
          </ns3:TrackPointExtension>
        </extensions>
      </trkpt>
      <trkpt lat="42.52746605314314365386962890625" lon="19.95237576775252819061279296875">
        <ele>1702.800048828125</ele>
        <time>2026-06-17T09:04:48.000Z</time>
        <extensions>
          <ns3:TrackPointExtension>
            <ns3:atemp>24.0</ns3:atemp>
          </ns3:TrackPointExtension>
        </extensions>
      </trkpt>
      <trkpt lat="42.52744694240391254425048828125" lon="19.95235866867005825042724609375">
        <ele>1703</ele>
        <time>2026-06-17T09:04:49.000Z</time>
        <extensions>
          <ns3:TrackPointExtension>
            <ns3:atemp>24.0</ns3:atemp>
          </ns3:TrackPointExtension>
        </extensions>
      </trkpt>
      <trkpt lat="42.5274312682449817657470703125" lon="19.95234039612114429473876953125">
        <ele>1703.4000244140625</ele>
        <time>2026-06-17T09:04:50.000Z</time>
        <extensions>
          <ns3:TrackPointExtension>
            <ns3:atemp>24.0</ns3:atemp>
          </ns3:TrackPointExtension>
        </extensions>
      </trkpt>
      <trkpt lat="42.527419365942478179931640625" lon="19.95232229121029376983642578125">
        <ele>1704</ele>
        <time>2026-06-17T09:04:51.000Z</time>
        <extensions>
          <ns3:TrackPointExtension>
            <ns3:atemp>24.0</ns3:atemp>
          </ns3:TrackPointExtension>
        </extensions>
      </trkpt>
      <trkpt lat="42.52739983610808849334716796875" lon="19.9522984027862548828125">
        <ele>1704.4000244140625</ele>
        <time>2026-06-17T09:04:52.000Z</time>
        <extensions>
          <ns3:TrackPointExtension>
            <ns3:atemp>24.0</ns3:atemp>
          </ns3:TrackPointExtension>
        </extensions>
      </trkpt>
      <trkpt lat="42.52738508395850658416748046875" lon="19.95227250270545482635498046875">
        <ele>1704.800048828125</ele>
        <time>2026-06-17T09:04:53.000Z</time>
        <extensions>
          <ns3:TrackPointExtension>
            <ns3:atemp>24.0</ns3:atemp>
          </ns3:TrackPointExtension>
        </extensions>
      </trkpt>
      <trkpt lat="42.527369074523448944091796875" lon="19.95224534533917903900146484375">
        <ele>1705</ele>
        <time>2026-06-17T09:04:54.000Z</time>
        <extensions>
          <ns3:TrackPointExtension>
            <ns3:atemp>24.0</ns3:atemp>
          </ns3:TrackPointExtension>
        </extensions>
      </trkpt>
      <trkpt lat="42.52735440619289875030517578125" lon="19.95221793651580810546875">
        <ele>1705.199951171875</ele>
        <time>2026-06-17T09:04:55.000Z</time>
        <extensions>
          <ns3:TrackPointExtension>
            <ns3:atemp>24.0</ns3:atemp>
          </ns3:TrackPointExtension>
        </extensions>
      </trkpt>
      <trkpt lat="42.52733546309173107147216796875" lon="19.95219337753951549530029296875">
        <ele>1705.4000244140625</ele>
        <time>2026-06-17T09:04:56.000Z</time>
        <extensions>
          <ns3:TrackPointExtension>
            <ns3:atemp>24.0</ns3:atemp>
          </ns3:TrackPointExtension>
        </extensions>
      </trkpt>
      <trkpt lat="42.527318783104419708251953125" lon="19.95217191986739635467529296875">
        <ele>1705.5999755859375</ele>
        <time>2026-06-17T09:04:57.000Z</time>
        <extensions>
          <ns3:TrackPointExtension>
            <ns3:atemp>24.0</ns3:atemp>
          </ns3:TrackPointExtension>
        </extensions>
      </trkpt>
      <trkpt lat="42.52730310894548892974853515625" lon="19.9521517194807529449462890625">
        <ele>1706</ele>
        <time>2026-06-17T09:04:58.000Z</time>
        <extensions>
          <ns3:TrackPointExtension>
            <ns3:atemp>24.0</ns3:atemp>
          </ns3:TrackPointExtension>
        </extensions>
      </trkpt>
      <trkpt lat="42.527290284633636474609375" lon="19.95213286019861698150634765625">
        <ele>1706.199951171875</ele>
        <time>2026-06-17T09:04:59.000Z</time>
        <extensions>
          <ns3:TrackPointExtension>
            <ns3:atemp>24.0</ns3:atemp>
          </ns3:TrackPointExtension>
        </extensions>
      </trkpt>
      <trkpt lat="42.52727494575083255767822265625" lon="19.9521155096590518951416015625">
        <ele>1706.5999755859375</ele>
        <time>2026-06-17T09:05:00.000Z</time>
        <extensions>
          <ns3:TrackPointExtension>
            <ns3:atemp>24.0</ns3:atemp>
          </ns3:TrackPointExtension>
        </extensions>
      </trkpt>
      <trkpt lat="42.52725264988839626312255859375" lon="19.9520953930914402008056640625">
        <ele>1707</ele>
        <time>2026-06-17T09:05:01.000Z</time>
        <extensions>
          <ns3:TrackPointExtension>
            <ns3:atemp>24.0</ns3:atemp>
          </ns3:TrackPointExtension>
        </extensions>
      </trkpt>
      <trkpt lat="42.52723420970141887664794921875" lon="19.9520762823522090911865234375">
        <ele>1707.4000244140625</ele>
        <time>2026-06-17T09:05:02.000Z</time>
        <extensions>
          <ns3:TrackPointExtension>
            <ns3:atemp>24.0</ns3:atemp>
          </ns3:TrackPointExtension>
        </extensions>
      </trkpt>
      <trkpt lat="42.5272153504192829132080078125" lon="19.95206111110746860504150390625">
        <ele>1707.5999755859375</ele>
        <time>2026-06-17T09:05:03.000Z</time>
        <extensions>
          <ns3:TrackPointExtension>
            <ns3:atemp>24.0</ns3:atemp>
          </ns3:TrackPointExtension>
        </extensions>
      </trkpt>
      <trkpt lat="42.5272002629935741424560546875" lon="19.9520471133291721343994140625">
        <ele>1708</ele>
        <time>2026-06-17T09:05:04.000Z</time>
        <extensions>
          <ns3:TrackPointExtension>
            <ns3:atemp>24.0</ns3:atemp>
          </ns3:TrackPointExtension>
        </extensions>
      </trkpt>
      <trkpt lat="42.527184672653675079345703125" lon="19.95203009806573390960693359375">
        <ele>1708.199951171875</ele>
        <time>2026-06-17T09:05:05.000Z</time>
        <extensions>
          <ns3:TrackPointExtension>
            <ns3:atemp>24.0</ns3:atemp>
          </ns3:TrackPointExtension>
        </extensions>
      </trkpt>
      <trkpt lat="42.52716614864766597747802734375" lon="19.95200947858393192291259765625">
        <ele>1708.5999755859375</ele>
        <time>2026-06-17T09:05:06.000Z</time>
        <extensions>
          <ns3:TrackPointExtension>
            <ns3:atemp>24.0</ns3:atemp>
          </ns3:TrackPointExtension>
        </extensions>
      </trkpt>
      <trkpt lat="42.52715013921260833740234375" lon="19.95199053548276424407958984375">
        <ele>1708.800048828125</ele>
        <time>2026-06-17T09:05:07.000Z</time>
        <extensions>
          <ns3:TrackPointExtension>
            <ns3:atemp>24.0</ns3:atemp>
          </ns3:TrackPointExtension>
        </extensions>
      </trkpt>
      <trkpt lat="42.52712910063564777374267578125" lon="19.95197184383869171142578125">
        <ele>1709</ele>
        <time>2026-06-17T09:05:08.000Z</time>
        <extensions>
          <ns3:TrackPointExtension>
            <ns3:atemp>24.0</ns3:atemp>
          </ns3:TrackPointExtension>
        </extensions>
      </trkpt>
      <trkpt lat="42.5271094031631946563720703125" lon="19.95195700787007808685302734375">
        <ele>1709.199951171875</ele>
        <time>2026-06-17T09:05:09.000Z</time>
        <extensions>
          <ns3:TrackPointExtension>
            <ns3:atemp>24.0</ns3:atemp>
          </ns3:TrackPointExtension>
        </extensions>
      </trkpt>
      <trkpt lat="42.527084760367870330810546875" lon="19.951945357024669647216796875">
        <ele>1709.5999755859375</ele>
        <time>2026-06-17T09:05:10.000Z</time>
        <extensions>
          <ns3:TrackPointExtension>
            <ns3:atemp>24.0</ns3:atemp>
          </ns3:TrackPointExtension>
        </extensions>
      </trkpt>
      <trkpt lat="42.527063302695751190185546875" lon="19.9519264139235019683837890625">
        <ele>1709.800048828125</ele>
        <time>2026-06-17T09:05:11.000Z</time>
        <extensions>
          <ns3:TrackPointExtension>
            <ns3:atemp>24.0</ns3:atemp>
          </ns3:TrackPointExtension>
        </extensions>
      </trkpt>
      <trkpt lat="42.52704008482396602630615234375" lon="19.9519069679081439971923828125">
        <ele>1710.199951171875</ele>
        <time>2026-06-17T09:05:12.000Z</time>
        <extensions>
          <ns3:TrackPointExtension>
            <ns3:atemp>24.0</ns3:atemp>
          </ns3:TrackPointExtension>
        </extensions>
      </trkpt>
      <trkpt lat="42.52701602876186370849609375" lon="19.95187687687575817108154296875">
        <ele>1710.199951171875</ele>
        <time>2026-06-17T09:05:13.000Z</time>
        <extensions>
          <ns3:TrackPointExtension>
            <ns3:atemp>24.0</ns3:atemp>
          </ns3:TrackPointExtension>
        </extensions>
      </trkpt>
      <trkpt lat="42.5269977562129497528076171875" lon="19.95185860432684421539306640625">
        <ele>1710.5999755859375</ele>
        <time>2026-06-17T09:05:14.000Z</time>
        <extensions>
          <ns3:TrackPointExtension>
            <ns3:atemp>24.0</ns3:atemp>
          </ns3:TrackPointExtension>
        </extensions>
      </trkpt>
      <trkpt lat="42.5269823335111141204833984375" lon="19.9518415890634059906005859375">
        <ele>1710.800048828125</ele>
        <time>2026-06-17T09:05:15.000Z</time>
        <extensions>
          <ns3:TrackPointExtension>
            <ns3:atemp>24.0</ns3:atemp>
          </ns3:TrackPointExtension>
        </extensions>
      </trkpt>
      <trkpt lat="42.526967413723468780517578125" lon="19.9518285132944583892822265625">
        <ele>1711</ele>
        <time>2026-06-17T09:05:16.000Z</time>
        <extensions>
          <ns3:TrackPointExtension>
            <ns3:atemp>24.0</ns3:atemp>
          </ns3:TrackPointExtension>
        </extensions>
      </trkpt>
      <trkpt lat="42.52694436348974704742431640625" lon="19.9518130905926227569580078125">
        <ele>1711.199951171875</ele>
        <time>2026-06-17T09:05:17.000Z</time>
        <extensions>
          <ns3:TrackPointExtension>
            <ns3:atemp>24.0</ns3:atemp>
          </ns3:TrackPointExtension>
        </extensions>
      </trkpt>
      <trkpt lat="42.526919804513454437255859375" lon="19.9518033675849437713623046875">
        <ele>1711.5999755859375</ele>
        <time>2026-06-17T09:05:18.000Z</time>
        <extensions>
          <ns3:TrackPointExtension>
            <ns3:atemp>24.0</ns3:atemp>
          </ns3:TrackPointExtension>
        </extensions>
      </trkpt>
      <trkpt lat="42.52689398825168609619140625" lon="19.95179104618728160858154296875">
        <ele>1711.5999755859375</ele>
        <time>2026-06-17T09:05:19.000Z</time>
        <extensions>
          <ns3:TrackPointExtension>
            <ns3:atemp>24.0</ns3:atemp>
          </ns3:TrackPointExtension>
        </extensions>
      </trkpt>
      <trkpt lat="42.526868842542171478271484375" lon="19.95178165845572948455810546875">
        <ele>1711.800048828125</ele>
        <time>2026-06-17T09:05:20.000Z</time>
        <extensions>
          <ns3:TrackPointExtension>
            <ns3:atemp>24.0</ns3:atemp>
          </ns3:TrackPointExtension>
        </extensions>
      </trkpt>
      <trkpt lat="42.52684746868908405303955078125" lon="19.95177872478961944580078125">
        <ele>1712</ele>
        <time>2026-06-17T09:05:21.000Z</time>
        <extensions>
          <ns3:TrackPointExtension>
            <ns3:atemp>24.0</ns3:atemp>
          </ns3:TrackPointExtension>
        </extensions>
      </trkpt>
      <trkpt lat="42.52682936377823352813720703125" lon="19.9517741985619068145751953125">
        <ele>1712.4000244140625</ele>
        <time>2026-06-17T09:05:22.000Z</time>
        <extensions>
          <ns3:TrackPointExtension>
            <ns3:atemp>24.0</ns3:atemp>
          </ns3:TrackPointExtension>
        </extensions>
      </trkpt>
      <trkpt lat="42.5268086604773998260498046875" lon="19.9517627991735935211181640625">
        <ele>1712.800048828125</ele>
        <time>2026-06-17T09:05:23.000Z</time>
        <extensions>
          <ns3:TrackPointExtension>
            <ns3:atemp>24.0</ns3:atemp>
          </ns3:TrackPointExtension>
        </extensions>
      </trkpt>
      <trkpt lat="42.52678804099559783935546875" lon="19.95175248943269252777099609375">
        <ele>1713.199951171875</ele>
        <time>2026-06-17T09:05:24.000Z</time>
        <extensions>
          <ns3:TrackPointExtension>
            <ns3:atemp>24.0</ns3:atemp>
          </ns3:TrackPointExtension>
        </extensions>
      </trkpt>
      <trkpt lat="42.5267674215137958526611328125" lon="19.9517389945685863494873046875">
        <ele>1713.4000244140625</ele>
        <time>2026-06-17T09:05:25.000Z</time>
        <extensions>
          <ns3:TrackPointExtension>
            <ns3:atemp>24.0</ns3:atemp>
          </ns3:TrackPointExtension>
        </extensions>
      </trkpt>
      <trkpt lat="42.526745460927486419677734375" lon="19.95173119939863681793212890625">
        <ele>1713.5999755859375</ele>
        <time>2026-06-17T09:05:26.000Z</time>
        <extensions>
          <ns3:TrackPointExtension>
            <ns3:atemp>24.0</ns3:atemp>
          </ns3:TrackPointExtension>
        </extensions>
      </trkpt>
      <trkpt lat="42.526727020740509033203125" lon="19.95171845890581607818603515625">
        <ele>1714</ele>
        <time>2026-06-17T09:05:27.000Z</time>
        <extensions>
          <ns3:TrackPointExtension>
            <ns3:atemp>24.0</ns3:atemp>
          </ns3:TrackPointExtension>
        </extensions>
      </trkpt>
      <trkpt lat="42.5267087481915950775146484375" lon="19.95170420967042446136474609375">
        <ele>1714.199951171875</ele>
        <time>2026-06-17T09:05:28.000Z</time>
        <extensions>
          <ns3:TrackPointExtension>
            <ns3:atemp>24.0</ns3:atemp>
          </ns3:TrackPointExtension>
        </extensions>
      </trkpt>
      <trkpt lat="42.52669005654752254486083984375" lon="19.95169649831950664520263671875">
        <ele>1714.4000244140625</ele>
        <time>2026-06-17T09:05:29.000Z</time>
        <extensions>
          <ns3:TrackPointExtension>
            <ns3:atemp>24.0</ns3:atemp>
          </ns3:TrackPointExtension>
        </extensions>
      </trkpt>
      <trkpt lat="42.52667362801730632781982421875" lon="19.95168174616992473602294921875">
        <ele>1714.5999755859375</ele>
        <time>2026-06-17T09:05:30.000Z</time>
        <extensions>
          <ns3:TrackPointExtension>
            <ns3:atemp>24.0</ns3:atemp>
          </ns3:TrackPointExtension>
        </extensions>
      </trkpt>
      <trkpt lat="42.526655606925487518310546875" lon="19.95166799984872341156005859375">
        <ele>1714.800048828125</ele>
        <time>2026-06-17T09:05:31.000Z</time>
        <extensions>
          <ns3:TrackPointExtension>
            <ns3:atemp>24.0</ns3:atemp>
          </ns3:TrackPointExtension>
        </extensions>
      </trkpt>
      <trkpt lat="42.5266319699585437774658203125" lon="19.9516598694026470184326171875">
        <ele>1715</ele>
        <time>2026-06-17T09:05:32.000Z</time>
        <extensions>
          <ns3:TrackPointExtension>
            <ns3:atemp>24.0</ns3:atemp>
          </ns3:TrackPointExtension>
        </extensions>
      </trkpt>
      <trkpt lat="42.5266098417341709136962890625" lon="19.95165224187076091766357421875">
        <ele>1715.199951171875</ele>
        <time>2026-06-17T09:05:33.000Z</time>
        <extensions>
          <ns3:TrackPointExtension>
            <ns3:atemp>24.0</ns3:atemp>
          </ns3:TrackPointExtension>
        </extensions>
      </trkpt>
      <trkpt lat="42.5265887193381786346435546875" lon="19.95164033956825733184814453125">
        <ele>1715.5999755859375</ele>
        <time>2026-06-17T09:05:34.000Z</time>
        <extensions>
          <ns3:TrackPointExtension>
            <ns3:atemp>24.0</ns3:atemp>
          </ns3:TrackPointExtension>
        </extensions>
      </trkpt>
      <trkpt lat="42.52656818367540836334228515625" lon="19.95163430459797382354736328125">
        <ele>1715.800048828125</ele>
        <time>2026-06-17T09:05:35.000Z</time>
        <extensions>
          <ns3:TrackPointExtension>
            <ns3:atemp>24.0</ns3:atemp>
          </ns3:TrackPointExtension>
        </extensions>
      </trkpt>
      <trkpt lat="42.52654789946973323822021484375" lon="19.9516233243048191070556640625">
        <ele>1716.199951171875</ele>
        <time>2026-06-17T09:05:36.000Z</time>
        <extensions>
          <ns3:TrackPointExtension>
            <ns3:atemp>24.0</ns3:atemp>
          </ns3:TrackPointExtension>
        </extensions>
      </trkpt>
      <trkpt lat="42.5265240110456943511962890625" lon="19.95161200873553752899169921875">
        <ele>1716.4000244140625</ele>
        <time>2026-06-17T09:05:37.000Z</time>
        <extensions>
          <ns3:TrackPointExtension>
            <ns3:atemp>24.0</ns3:atemp>
          </ns3:TrackPointExtension>
        </extensions>
      </trkpt>
      <trkpt lat="42.52650104463100433349609375" lon="19.95160044170916080474853515625">
        <ele>1716.800048828125</ele>
        <time>2026-06-17T09:05:38.000Z</time>
        <extensions>
          <ns3:TrackPointExtension>
            <ns3:atemp>24.0</ns3:atemp>
          </ns3:TrackPointExtension>
        </extensions>
      </trkpt>
      <trkpt lat="42.52647958695888519287109375" lon="19.951589964330196380615234375">
        <ele>1717.199951171875</ele>
        <time>2026-06-17T09:05:39.000Z</time>
        <extensions>
          <ns3:TrackPointExtension>
            <ns3:atemp>24.0</ns3:atemp>
          </ns3:TrackPointExtension>
        </extensions>
      </trkpt>
      <trkpt lat="42.526457794010639190673828125" lon="19.951583258807659149169921875">
        <ele>1717.5999755859375</ele>
        <time>2026-06-17T09:05:40.000Z</time>
        <extensions>
          <ns3:TrackPointExtension>
            <ns3:atemp>24.0</ns3:atemp>
          </ns3:TrackPointExtension>
        </extensions>
      </trkpt>
      <trkpt lat="42.52643507905304431915283203125" lon="19.9515787325799465179443359375">
        <ele>1718</ele>
        <time>2026-06-17T09:05:41.000Z</time>
        <extensions>
          <ns3:TrackPointExtension>
            <ns3:atemp>24.0</ns3:atemp>
          </ns3:TrackPointExtension>
        </extensions>
      </trkpt>
      <trkpt lat="42.5264187343418598175048828125" lon="19.9515720270574092864990234375">
        <ele>1718.4000244140625</ele>
        <time>2026-06-17T09:05:42.000Z</time>
        <extensions>
          <ns3:TrackPointExtension>
            <ns3:atemp>24.0</ns3:atemp>
          </ns3:TrackPointExtension>
        </extensions>
      </trkpt>
      <trkpt lat="42.52640289254486560821533203125" lon="19.95156456716358661651611328125">
        <ele>1718.5999755859375</ele>
        <time>2026-06-17T09:05:43.000Z</time>
        <extensions>
          <ns3:TrackPointExtension>
            <ns3:atemp>24.0</ns3:atemp>
          </ns3:TrackPointExtension>
        </extensions>
      </trkpt>
      <trkpt lat="42.526384703814983367919921875" lon="19.95155015029013156890869140625">
        <ele>1719</ele>
        <time>2026-06-17T09:05:44.000Z</time>
        <extensions>
          <ns3:TrackPointExtension>
            <ns3:atemp>24.0</ns3:atemp>
          </ns3:TrackPointExtension>
        </extensions>
      </trkpt>
      <trkpt lat="42.52637095749378204345703125" lon="19.95152927935123443603515625">
        <ele>1719.4000244140625</ele>
        <time>2026-06-17T09:05:45.000Z</time>
        <extensions>
          <ns3:TrackPointExtension>
            <ns3:atemp>24.0</ns3:atemp>
          </ns3:TrackPointExtension>
        </extensions>
      </trkpt>
      <trkpt lat="42.52635360695421695709228515625" lon="19.95150924660265445709228515625">
        <ele>1719.5999755859375</ele>
        <time>2026-06-17T09:05:46.000Z</time>
        <extensions>
          <ns3:TrackPointExtension>
            <ns3:atemp>24.0</ns3:atemp>
          </ns3:TrackPointExtension>
        </extensions>
      </trkpt>
      <trkpt lat="42.52633919008076190948486328125" lon="19.9514868669211864471435546875">
        <ele>1719.800048828125</ele>
        <time>2026-06-17T09:05:47.000Z</time>
        <extensions>
          <ns3:TrackPointExtension>
            <ns3:atemp>24.0</ns3:atemp>
          </ns3:TrackPointExtension>
        </extensions>
      </trkpt>
      <trkpt lat="42.52632175572216510772705078125" lon="19.9514637328684329986572265625">
        <ele>1720.199951171875</ele>
        <time>2026-06-17T09:05:48.000Z</time>
        <extensions>
          <ns3:TrackPointExtension>
            <ns3:atemp>24.0</ns3:atemp>
          </ns3:TrackPointExtension>
        </extensions>
      </trkpt>
      <trkpt lat="42.52630658447742462158203125" lon="19.95144403539597988128662109375">
        <ele>1720.5999755859375</ele>
        <time>2026-06-17T09:05:49.000Z</time>
        <extensions>
          <ns3:TrackPointExtension>
            <ns3:atemp>24.0</ns3:atemp>
          </ns3:TrackPointExtension>
        </extensions>
      </trkpt>
      <trkpt lat="42.526290155947208404541015625" lon="19.95142735540866851806640625">
        <ele>1720.800048828125</ele>
        <time>2026-06-17T09:05:50.000Z</time>
        <extensions>
          <ns3:TrackPointExtension>
            <ns3:atemp>24.0</ns3:atemp>
          </ns3:TrackPointExtension>
        </extensions>
      </trkpt>
      <trkpt lat="42.5262688659131526947021484375" lon="19.95140648446977138519287109375">
        <ele>1721</ele>
        <time>2026-06-17T09:05:51.000Z</time>
        <extensions>
          <ns3:TrackPointExtension>
            <ns3:atemp>24.0</ns3:atemp>
          </ns3:TrackPointExtension>
        </extensions>
      </trkpt>
      <trkpt lat="42.52624623477458953857421875" lon="19.95139089412987232208251953125">
        <ele>1721.199951171875</ele>
        <time>2026-06-17T09:05:52.000Z</time>
        <extensions>
          <ns3:TrackPointExtension>
            <ns3:atemp>24.0</ns3:atemp>
          </ns3:TrackPointExtension>
        </extensions>
      </trkpt>
      <trkpt lat="42.52622553147375583648681640625" lon="19.95137647725641727447509765625">
        <ele>1721.5999755859375</ele>
        <time>2026-06-17T09:05:53.000Z</time>
        <extensions>
          <ns3:TrackPointExtension>
            <ns3:atemp>24.0</ns3:atemp>
          </ns3:TrackPointExtension>
        </extensions>
      </trkpt>
      <trkpt lat="42.5262034870684146881103515625" lon="19.95136574842035770416259765625">
        <ele>1721.800048828125</ele>
        <time>2026-06-17T09:05:54.000Z</time>
        <extensions>
          <ns3:TrackPointExtension>
            <ns3:atemp>24.0</ns3:atemp>
          </ns3:TrackPointExtension>
        </extensions>
      </trkpt>
      <trkpt lat="42.5261823646724224090576171875" lon="19.95135300792753696441650390625">
        <ele>1722.199951171875</ele>
        <time>2026-06-17T09:05:55.000Z</time>
        <extensions>
          <ns3:TrackPointExtension>
            <ns3:atemp>24.0</ns3:atemp>
          </ns3:TrackPointExtension>
        </extensions>
      </trkpt>
      <trkpt lat="42.5261635892093181610107421875" lon="19.95133758522570133209228515625">
        <ele>1722.5999755859375</ele>
        <time>2026-06-17T09:05:56.000Z</time>
        <extensions>
          <ns3:TrackPointExtension>
            <ns3:atemp>24.0</ns3:atemp>
          </ns3:TrackPointExtension>
        </extensions>
      </trkpt>
      <trkpt lat="42.52614833414554595947265625" lon="19.9513239227235317230224609375">
        <ele>1723</ele>
        <time>2026-06-17T09:05:57.000Z</time>
        <extensions>
          <ns3:TrackPointExtension>
            <ns3:atemp>24.0</ns3:atemp>
          </ns3:TrackPointExtension>
        </extensions>
      </trkpt>
      <trkpt lat="42.52613416872918605804443359375" lon="19.9513105116784572601318359375">
        <ele>1723.4000244140625</ele>
        <time>2026-06-17T09:05:58.000Z</time>
        <extensions>
          <ns3:TrackPointExtension>
            <ns3:atemp>24.0</ns3:atemp>
          </ns3:TrackPointExtension>
        </extensions>
      </trkpt>
      <trkpt lat="42.5261168181896209716796875" lon="19.9512900598347187042236328125">
        <ele>1723.800048828125</ele>
        <time>2026-06-17T09:05:59.000Z</time>
        <extensions>
          <ns3:TrackPointExtension>
            <ns3:atemp>24.0</ns3:atemp>
          </ns3:TrackPointExtension>
        </extensions>
      </trkpt>
      <trkpt lat="42.526101060211658477783203125" lon="19.95126851834356784820556640625">
        <ele>1724.199951171875</ele>
        <time>2026-06-17T09:06:00.000Z</time>
        <extensions>
          <ns3:TrackPointExtension>
            <ns3:atemp>24.0</ns3:atemp>
          </ns3:TrackPointExtension>
        </extensions>
      </trkpt>
      <trkpt lat="42.52608320675790309906005859375" lon="19.95124622248113155364990234375">
        <ele>1724.4000244140625</ele>
        <time>2026-06-17T09:06:01.000Z</time>
        <extensions>
          <ns3:TrackPointExtension>
            <ns3:atemp>24.0</ns3:atemp>
          </ns3:TrackPointExtension>
        </extensions>
      </trkpt>
      <trkpt lat="42.52606409601867198944091796875" lon="19.95123331435024738311767578125">
        <ele>1724.5999755859375</ele>
        <time>2026-06-17T09:06:02.000Z</time>
        <extensions>
          <ns3:TrackPointExtension>
            <ns3:atemp>24.0</ns3:atemp>
          </ns3:TrackPointExtension>
        </extensions>
      </trkpt>
      <trkpt lat="42.52603970468044281005859375" lon="19.951215796172618865966796875">
        <ele>1724.800048828125</ele>
        <time>2026-06-17T09:06:03.000Z</time>
        <extensions>
          <ns3:TrackPointExtension>
            <ns3:atemp>24.0</ns3:atemp>
          </ns3:TrackPointExtension>
        </extensions>
      </trkpt>
      <trkpt lat="42.5260202586650848388671875" lon="19.9511881358921527862548828125">
        <ele>1725</ele>
        <time>2026-06-17T09:06:04.000Z</time>
        <extensions>
          <ns3:TrackPointExtension>
            <ns3:atemp>24.0</ns3:atemp>
          </ns3:TrackPointExtension>
        </extensions>
      </trkpt>
      <trkpt lat="42.525997459888458251953125" lon="19.95116718113422393798828125">
        <ele>1725.199951171875</ele>
        <time>2026-06-17T09:06:05.000Z</time>
        <extensions>
          <ns3:TrackPointExtension>
            <ns3:atemp>24.0</ns3:atemp>
          </ns3:TrackPointExtension>
        </extensions>
      </trkpt>
      <trkpt lat="42.5259822048246860504150390625" lon="19.95114563964307308197021484375">
        <ele>1725.5999755859375</ele>
        <time>2026-06-17T09:06:06.000Z</time>
        <extensions>
          <ns3:TrackPointExtension>
            <ns3:atemp>24.0</ns3:atemp>
          </ns3:TrackPointExtension>
        </extensions>
      </trkpt>
      <trkpt lat="42.5259607471525669097900390625" lon="19.95112569071352481842041015625">
        <ele>1725.800048828125</ele>
        <time>2026-06-17T09:06:07.000Z</time>
        <extensions>
          <ns3:TrackPointExtension>
            <ns3:atemp>24.0</ns3:atemp>
          </ns3:TrackPointExtension>
        </extensions>
      </trkpt>
      <trkpt lat="42.52594507299363613128662109375" lon="19.9511033110320568084716796875">
        <ele>1726.199951171875</ele>
        <time>2026-06-17T09:06:08.000Z</time>
        <extensions>
          <ns3:TrackPointExtension>
            <ns3:atemp>24.0</ns3:atemp>
          </ns3:TrackPointExtension>
        </extensions>
      </trkpt>
      <trkpt lat="42.525934763252735137939453125" lon="19.951074309647083282470703125">
        <ele>1726.5999755859375</ele>
        <time>2026-06-17T09:06:09.000Z</time>
        <extensions>
          <ns3:TrackPointExtension>
            <ns3:atemp>24.0</ns3:atemp>
          </ns3:TrackPointExtension>
        </extensions>
      </trkpt>
      <trkpt lat="42.525925375521183013916015625" lon="19.951046817004680633544921875">
        <ele>1726.800048828125</ele>
        <time>2026-06-17T09:06:10.000Z</time>
        <extensions>
          <ns3:TrackPointExtension>
            <ns3:atemp>24.0</ns3:atemp>
          </ns3:TrackPointExtension>
        </extensions>
      </trkpt>
      <trkpt lat="42.525922358036041259765625" lon="19.95101924054324626922607421875">
        <ele>1727.199951171875</ele>
        <time>2026-06-17T09:06:11.000Z</time>
        <extensions>
          <ns3:TrackPointExtension>
            <ns3:atemp>24.0</ns3:atemp>
          </ns3:TrackPointExtension>
        </extensions>
      </trkpt>
      <trkpt lat="42.52592612989246845245361328125" lon="19.95098973624408245086669921875">
        <ele>1727.5999755859375</ele>
        <time>2026-06-17T09:06:12.000Z</time>
        <extensions>
          <ns3:TrackPointExtension>
            <ns3:atemp>24.0</ns3:atemp>
          </ns3:TrackPointExtension>
        </extensions>
      </trkpt>
      <trkpt lat="42.52593451179563999176025390625" lon="19.95096090249717235565185546875">
        <ele>1727.800048828125</ele>
        <time>2026-06-17T09:06:13.000Z</time>
        <extensions>
          <ns3:TrackPointExtension>
            <ns3:atemp>24.0</ns3:atemp>
          </ns3:TrackPointExtension>
        </extensions>
      </trkpt>
      <trkpt lat="42.52594876103103160858154296875" lon="19.9509346671402454376220703125">
        <ele>1727.800048828125</ele>
        <time>2026-06-17T09:06:14.000Z</time>
        <extensions>
          <ns3:TrackPointExtension>
            <ns3:atemp>24.0</ns3:atemp>
          </ns3:TrackPointExtension>
        </extensions>
      </trkpt>
      <trkpt lat="42.52596057951450347900390625" lon="19.95091262273490428924560546875">
        <ele>1728.199951171875</ele>
        <time>2026-06-17T09:06:15.000Z</time>
        <extensions>
          <ns3:TrackPointExtension>
            <ns3:atemp>24.0</ns3:atemp>
          </ns3:TrackPointExtension>
        </extensions>
      </trkpt>
      <trkpt lat="42.5259731523692607879638671875" lon="19.9508934281766414642333984375">
        <ele>1728.4000244140625</ele>
        <time>2026-06-17T09:06:16.000Z</time>
        <extensions>
          <ns3:TrackPointExtension>
            <ns3:atemp>24.0</ns3:atemp>
          </ns3:TrackPointExtension>
        </extensions>
      </trkpt>
      <trkpt lat="42.5259885750710964202880859375" lon="19.95086945593357086181640625">
        <ele>1728.800048828125</ele>
        <time>2026-06-17T09:06:17.000Z</time>
        <extensions>
          <ns3:TrackPointExtension>
            <ns3:atemp>24.0</ns3:atemp>
          </ns3:TrackPointExtension>
        </extensions>
      </trkpt>
      <trkpt lat="42.52600089646875858306884765625" lon="19.9508468247950077056884765625">
        <ele>1729.4000244140625</ele>
        <time>2026-06-17T09:06:18.000Z</time>
        <extensions>
          <ns3:TrackPointExtension>
            <ns3:atemp>24.0</ns3:atemp>
          </ns3:TrackPointExtension>
        </extensions>
      </trkpt>
      <trkpt lat="42.52602134831249713897705078125" lon="19.9508253671228885650634765625">
        <ele>1729.800048828125</ele>
        <time>2026-06-17T09:06:19.000Z</time>
        <extensions>
          <ns3:TrackPointExtension>
            <ns3:atemp>24.0</ns3:atemp>
          </ns3:TrackPointExtension>
        </extensions>
      </trkpt>
      <trkpt lat="42.52604163251817226409912109375" lon="19.95080566965043544769287109375">
        <ele>1730</ele>
        <time>2026-06-17T09:06:20.000Z</time>
        <extensions>
          <ns3:TrackPointExtension>
            <ns3:atemp>24.0</ns3:atemp>
          </ns3:TrackPointExtension>
        </extensions>
      </trkpt>
      <trkpt lat="42.52606040798127651214599609375" lon="19.95078773237764835357666015625">
        <ele>1730.4000244140625</ele>
        <time>2026-06-17T09:06:21.000Z</time>
        <extensions>
          <ns3:TrackPointExtension>
            <ns3:atemp>24.0</ns3:atemp>
          </ns3:TrackPointExtension>
        </extensions>
      </trkpt>
      <trkpt lat="42.5260871462523937225341796875" lon="19.95076778344810009002685546875">
        <ele>1730.5999755859375</ele>
        <time>2026-06-17T09:06:22.000Z</time>
        <extensions>
          <ns3:TrackPointExtension>
            <ns3:atemp>24.0</ns3:atemp>
          </ns3:TrackPointExtension>
        </extensions>
      </trkpt>
      <trkpt lat="42.5261166505515575408935546875" lon="19.9507586471736431121826171875">
        <ele>1730.800048828125</ele>
        <time>2026-06-17T09:06:23.000Z</time>
        <extensions>
          <ns3:TrackPointExtension>
            <ns3:atemp>24.0</ns3:atemp>
          </ns3:TrackPointExtension>
        </extensions>
      </trkpt>
      <trkpt lat="42.52614087425172328948974609375" lon="19.95074381120502948760986328125">
        <ele>1730.800048828125</ele>
        <time>2026-06-17T09:06:24.000Z</time>
        <extensions>
          <ns3:TrackPointExtension>
            <ns3:atemp>24.0</ns3:atemp>
          </ns3:TrackPointExtension>
        </extensions>
      </trkpt>
      <trkpt lat="42.526170797646045684814453125" lon="19.95073408819735050201416015625">
        <ele>1731</ele>
        <time>2026-06-17T09:06:25.000Z</time>
        <extensions>
          <ns3:TrackPointExtension>
            <ns3:atemp>24.0</ns3:atemp>
          </ns3:TrackPointExtension>
        </extensions>
      </trkpt>
      <trkpt lat="42.5262021459639072418212890625" lon="19.950727634131908416748046875">
        <ele>1731</ele>
        <time>2026-06-17T09:06:26.000Z</time>
        <extensions>
          <ns3:TrackPointExtension>
            <ns3:atemp>24.0</ns3:atemp>
          </ns3:TrackPointExtension>
        </extensions>
      </trkpt>
      <trkpt lat="42.52623106352984905242919921875" lon="19.950722269713878631591796875">
        <ele>1731</ele>
        <time>2026-06-17T09:06:27.000Z</time>
        <extensions>
          <ns3:TrackPointExtension>
            <ns3:atemp>24.0</ns3:atemp>
          </ns3:TrackPointExtension>
        </extensions>
      </trkpt>
      <trkpt lat="42.5262564606964588165283203125" lon="19.9507103674113750457763671875">
        <ele>1731</ele>
        <time>2026-06-17T09:06:28.000Z</time>
        <extensions>
          <ns3:TrackPointExtension>
            <ns3:atemp>24.0</ns3:atemp>
          </ns3:TrackPointExtension>
        </extensions>
      </trkpt>
      <trkpt lat="42.52628152258694171905517578125" lon="19.9507065117359161376953125">
        <ele>1731</ele>
        <time>2026-06-17T09:06:29.000Z</time>
        <extensions>
          <ns3:TrackPointExtension>
            <ns3:atemp>24.0</ns3:atemp>
          </ns3:TrackPointExtension>
        </extensions>
      </trkpt>
      <trkpt lat="42.52630365081131458282470703125" lon="19.95070307515561580657958984375">
        <ele>1731.199951171875</ele>
        <time>2026-06-17T09:06:30.000Z</time>
        <extensions>
          <ns3:TrackPointExtension>
            <ns3:atemp>24.0</ns3:atemp>
          </ns3:TrackPointExtension>
        </extensions>
      </trkpt>
      <trkpt lat="42.52633131109178066253662109375" lon="19.9507063440978527069091796875">
        <ele>1731.4000244140625</ele>
        <time>2026-06-17T09:06:31.000Z</time>
        <extensions>
          <ns3:TrackPointExtension>
            <ns3:atemp>24.0</ns3:atemp>
          </ns3:TrackPointExtension>
        </extensions>
      </trkpt>
      <trkpt lat="42.52636156976222991943359375" lon="19.9507066793739795684814453125">
        <ele>1731.5999755859375</ele>
        <time>2026-06-17T09:06:32.000Z</time>
        <extensions>
          <ns3:TrackPointExtension>
            <ns3:atemp>24.0</ns3:atemp>
          </ns3:TrackPointExtension>
        </extensions>
      </trkpt>
      <trkpt lat="42.52639199607074260711669921875" lon="19.9507073499262332916259765625">
        <ele>1732</ele>
        <time>2026-06-17T09:06:33.000Z</time>
        <extensions>
          <ns3:TrackPointExtension>
            <ns3:atemp>24.0</ns3:atemp>
          </ns3:TrackPointExtension>
        </extensions>
      </trkpt>
      <trkpt lat="42.5264170579612255096435546875" lon="19.95071313343942165374755859375">
        <ele>1732.199951171875</ele>
        <time>2026-06-17T09:06:34.000Z</time>
        <extensions>
          <ns3:TrackPointExtension>
            <ns3:atemp>24.0</ns3:atemp>
          </ns3:TrackPointExtension>
        </extensions>
      </trkpt>
      <trkpt lat="42.52643759362399578094482421875" lon="19.9507123790681362152099609375">
        <ele>1732.5999755859375</ele>
        <time>2026-06-17T09:06:35.000Z</time>
        <extensions>
          <ns3:TrackPointExtension>
            <ns3:atemp>24.0</ns3:atemp>
          </ns3:TrackPointExtension>
        </extensions>
      </trkpt>
      <trkpt lat="42.526472546160221099853515625" lon="19.9507244490087032318115234375">
        <ele>1732.800048828125</ele>
        <time>2026-06-17T09:06:36.000Z</time>
        <extensions>
          <ns3:TrackPointExtension>
            <ns3:atemp>24.0</ns3:atemp>
          </ns3:TrackPointExtension>
        </extensions>
      </trkpt>
      <trkpt lat="42.52650439739227294921875" lon="19.9507386982440948486328125">
        <ele>1733</ele>
        <time>2026-06-17T09:06:37.000Z</time>
        <extensions>
          <ns3:TrackPointExtension>
            <ns3:atemp>24.0</ns3:atemp>
          </ns3:TrackPointExtension>
        </extensions>
      </trkpt>
      <trkpt lat="42.52653616480529308319091796875" lon="19.95075009763240814208984375">
        <ele>1733.199951171875</ele>
        <time>2026-06-17T09:06:38.000Z</time>
        <extensions>
          <ns3:TrackPointExtension>
            <ns3:atemp>24.0</ns3:atemp>
          </ns3:TrackPointExtension>
        </extensions>
      </trkpt>
      <trkpt lat="42.52656986005604267120361328125" lon="19.950755126774311065673828125">
        <ele>1733.5999755859375</ele>
        <time>2026-06-17T09:06:39.000Z</time>
        <extensions>
          <ns3:TrackPointExtension>
            <ns3:atemp>24.0</ns3:atemp>
          </ns3:TrackPointExtension>
        </extensions>
      </trkpt>
      <trkpt lat="42.52660053782165050506591796875" lon="19.9507630057632923126220703125">
        <ele>1733.800048828125</ele>
        <time>2026-06-17T09:06:40.000Z</time>
        <extensions>
          <ns3:TrackPointExtension>
            <ns3:atemp>24.0</ns3:atemp>
          </ns3:TrackPointExtension>
        </extensions>
      </trkpt>
      <trkpt lat="42.526628784835338592529296875" lon="19.95076912455260753631591796875">
        <ele>1734</ele>
        <time>2026-06-17T09:06:41.000Z</time>
        <extensions>
          <ns3:TrackPointExtension>
            <ns3:atemp>24.0</ns3:atemp>
          </ns3:TrackPointExtension>
        </extensions>
      </trkpt>
      <trkpt lat="42.52665619365870952606201171875" lon="19.95078203268349170684814453125">
        <ele>1734</ele>
        <time>2026-06-17T09:06:42.000Z</time>
        <extensions>
          <ns3:TrackPointExtension>
            <ns3:atemp>24.0</ns3:atemp>
          </ns3:TrackPointExtension>
        </extensions>
      </trkpt>
      <trkpt lat="42.5266779027879238128662109375" lon="19.95079091750085353851318359375">
        <ele>1734.199951171875</ele>
        <time>2026-06-17T09:06:43.000Z</time>
        <extensions>
          <ns3:TrackPointExtension>
            <ns3:atemp>24.0</ns3:atemp>
          </ns3:TrackPointExtension>
        </extensions>
      </trkpt>
      <trkpt lat="42.52670346759259700775146484375" lon="19.9508022330701351165771484375">
        <ele>1734.4000244140625</ele>
        <time>2026-06-17T09:06:44.000Z</time>
        <extensions>
          <ns3:TrackPointExtension>
            <ns3:atemp>24.0</ns3:atemp>
          </ns3:TrackPointExtension>
        </extensions>
      </trkpt>
      <trkpt lat="42.52673171460628509521484375" lon="19.9508086033165454864501953125">
        <ele>1734.5999755859375</ele>
        <time>2026-06-17T09:06:45.000Z</time>
        <extensions>
          <ns3:TrackPointExtension>
            <ns3:atemp>24.0</ns3:atemp>
          </ns3:TrackPointExtension>
        </extensions>
      </trkpt>
      <trkpt lat="42.5267563574016094207763671875" lon="19.950804077088832855224609375">
        <ele>1735</ele>
        <time>2026-06-17T09:06:46.000Z</time>
        <extensions>
          <ns3:TrackPointExtension>
            <ns3:atemp>24.0</ns3:atemp>
          </ns3:TrackPointExtension>
        </extensions>
      </trkpt>
      <trkpt lat="42.5267731212079524993896484375" lon="19.95080617256462574005126953125">
        <ele>1735.199951171875</ele>
        <time>2026-06-17T09:06:47.000Z</time>
        <extensions>
          <ns3:TrackPointExtension>
            <ns3:atemp>24.0</ns3:atemp>
          </ns3:TrackPointExtension>
        </extensions>
      </trkpt>
      <trkpt lat="42.52679533325135707855224609375" lon="19.95080684311687946319580078125">
        <ele>1735.4000244140625</ele>
        <time>2026-06-17T09:06:48.000Z</time>
        <extensions>
          <ns3:TrackPointExtension>
            <ns3:atemp>24.0</ns3:atemp>
          </ns3:TrackPointExtension>
        </extensions>
      </trkpt>
      <trkpt lat="42.52681947313249111175537109375" lon="19.950803406536579132080078125">
        <ele>1735.800048828125</ele>
        <time>2026-06-17T09:06:49.000Z</time>
        <extensions>
          <ns3:TrackPointExtension>
            <ns3:atemp>24.0</ns3:atemp>
          </ns3:TrackPointExtension>
        </extensions>
      </trkpt>
      <trkpt lat="42.5268431939184665679931640625" lon="19.950799383223056793212890625">
        <ele>1736.199951171875</ele>
        <time>2026-06-17T09:06:50.000Z</time>
        <extensions>
          <ns3:TrackPointExtension>
            <ns3:atemp>24.0</ns3:atemp>
          </ns3:TrackPointExtension>
        </extensions>
      </trkpt>
      <trkpt lat="42.526868171989917755126953125" lon="19.95079309679567813873291015625">
        <ele>1736.5999755859375</ele>
        <time>2026-06-17T09:06:51.000Z</time>
        <extensions>
          <ns3:TrackPointExtension>
            <ns3:atemp>24.0</ns3:atemp>
          </ns3:TrackPointExtension>
        </extensions>
      </trkpt>
      <trkpt lat="42.52689507789909839630126953125" lon="19.95078354142606258392333984375">
        <ele>1736.800048828125</ele>
        <time>2026-06-17T09:06:52.000Z</time>
        <extensions>
          <ns3:TrackPointExtension>
            <ns3:atemp>24.0</ns3:atemp>
          </ns3:TrackPointExtension>
        </extensions>
      </trkpt>
      <trkpt lat="42.52692307345569133758544921875" lon="19.950769878923892974853515625">
        <ele>1737.199951171875</ele>
        <time>2026-06-17T09:06:53.000Z</time>
        <extensions>
          <ns3:TrackPointExtension>
            <ns3:atemp>24.0</ns3:atemp>
          </ns3:TrackPointExtension>
        </extensions>
      </trkpt>
      <trkpt lat="42.52694805152714252471923828125" lon="19.95075873099267482757568359375">
        <ele>1737.4000244140625</ele>
        <time>2026-06-17T09:06:54.000Z</time>
        <extensions>
          <ns3:TrackPointExtension>
            <ns3:atemp>24.0</ns3:atemp>
          </ns3:TrackPointExtension>
        </extensions>
      </trkpt>
      <trkpt lat="42.52697487361729145050048828125" lon="19.950756467878818511962890625">
        <ele>1737.5999755859375</ele>
        <time>2026-06-17T09:06:55.000Z</time>
        <extensions>
          <ns3:TrackPointExtension>
            <ns3:atemp>24.0</ns3:atemp>
          </ns3:TrackPointExtension>
        </extensions>
      </trkpt>
      <trkpt lat="42.52700119279325008392333984375" lon="19.95074867270886898040771484375">
        <ele>1737.5999755859375</ele>
        <time>2026-06-17T09:06:56.000Z</time>
        <extensions>
          <ns3:TrackPointExtension>
            <ns3:atemp>24.0</ns3:atemp>
          </ns3:TrackPointExtension>
        </extensions>
      </trkpt>
      <trkpt lat="42.5270275957882404327392578125" lon="19.95073526166379451751708984375">
        <ele>1737.800048828125</ele>
        <time>2026-06-17T09:06:57.000Z</time>
        <extensions>
          <ns3:TrackPointExtension>
            <ns3:atemp>24.0</ns3:atemp>
          </ns3:TrackPointExtension>
        </extensions>
      </trkpt>
      <trkpt lat="42.52705584280192852020263671875" lon="19.9507234431803226470947265625">
        <ele>1737.800048828125</ele>
        <time>2026-06-17T09:06:58.000Z</time>
        <extensions>
          <ns3:TrackPointExtension>
            <ns3:atemp>24.0</ns3:atemp>
          </ns3:TrackPointExtension>
        </extensions>
      </trkpt>
      <trkpt lat="42.527084089815616607666015625" lon="19.9507066793739795684814453125">
        <ele>1738</ele>
        <time>2026-06-17T09:06:59.000Z</time>
        <extensions>
          <ns3:TrackPointExtension>
            <ns3:atemp>24.0</ns3:atemp>
          </ns3:TrackPointExtension>
        </extensions>
      </trkpt>
      <trkpt lat="42.52711116336286067962646484375" lon="19.95068698190152645111083984375">
        <ele>1738.199951171875</ele>
        <time>2026-06-17T09:07:00.000Z</time>
        <extensions>
          <ns3:TrackPointExtension>
            <ns3:atemp>24.0</ns3:atemp>
          </ns3:TrackPointExtension>
        </extensions>
      </trkpt>
      <trkpt lat="42.52713228575885295867919921875" lon="19.95066653005778789520263671875">
        <ele>1738.4000244140625</ele>
        <time>2026-06-17T09:07:01.000Z</time>
        <extensions>
          <ns3:TrackPointExtension>
            <ns3:atemp>24.0</ns3:atemp>
          </ns3:TrackPointExtension>
        </extensions>
      </trkpt>
      <trkpt lat="42.5271570123732089996337890625" lon="19.95064423419535160064697265625">
        <ele>1738.5999755859375</ele>
        <time>2026-06-17T09:07:02.000Z</time>
        <extensions>
          <ns3:TrackPointExtension>
            <ns3:atemp>24.0</ns3:atemp>
          </ns3:TrackPointExtension>
        </extensions>
      </trkpt>
      <trkpt lat="42.52718358300626277923583984375" lon="19.95062294416129589080810546875">
        <ele>1739</ele>
        <time>2026-06-17T09:07:03.000Z</time>
        <extensions>
          <ns3:TrackPointExtension>
            <ns3:atemp>24.0</ns3:atemp>
          </ns3:TrackPointExtension>
        </extensions>
      </trkpt>
      <trkpt lat="42.527204789221286773681640625" lon="19.95060525834560394287109375">
        <ele>1739.199951171875</ele>
        <time>2026-06-17T09:07:04.000Z</time>
        <extensions>
          <ns3:TrackPointExtension>
            <ns3:atemp>24.0</ns3:atemp>
          </ns3:TrackPointExtension>
        </extensions>
      </trkpt>
      <trkpt lat="42.52722633071243762969970703125" lon="19.950584471225738525390625">
        <ele>1739.5999755859375</ele>
        <time>2026-06-17T09:07:05.000Z</time>
        <extensions>
          <ns3:TrackPointExtension>
            <ns3:atemp>24.0</ns3:atemp>
          </ns3:TrackPointExtension>
        </extensions>
      </trkpt>
      <trkpt lat="42.52724158577620983123779296875" lon="19.950562678277492523193359375">
        <ele>1740</ele>
        <time>2026-06-17T09:07:06.000Z</time>
        <extensions>
          <ns3:TrackPointExtension>
            <ns3:atemp>24.0</ns3:atemp>
          </ns3:TrackPointExtension>
        </extensions>
      </trkpt>
      <trkpt lat="42.52726237289607524871826171875" lon="19.9505423940718173980712890625">
        <ele>1740.199951171875</ele>
        <time>2026-06-17T09:07:07.000Z</time>
        <extensions>
          <ns3:TrackPointExtension>
            <ns3:atemp>24.0</ns3:atemp>
          </ns3:TrackPointExtension>
        </extensions>
      </trkpt>
      <trkpt lat="42.5272867642343044281005859375" lon="19.950523786246776580810546875">
        <ele>1740.4000244140625</ele>
        <time>2026-06-17T09:07:08.000Z</time>
        <extensions>
          <ns3:TrackPointExtension>
            <ns3:atemp>24.0</ns3:atemp>
          </ns3:TrackPointExtension>
        </extensions>
      </trkpt>
      <trkpt lat="42.5273139216005802154541015625" lon="19.9505078606307506561279296875">
        <ele>1740.4000244140625</ele>
        <time>2026-06-17T09:07:09.000Z</time>
        <extensions>
          <ns3:TrackPointExtension>
            <ns3:atemp>24.0</ns3:atemp>
          </ns3:TrackPointExtension>
        </extensions>
      </trkpt>
      <trkpt lat="42.52734116278588771820068359375" lon="19.95049822144210338592529296875">
        <ele>1740.5999755859375</ele>
        <time>2026-06-17T09:07:10.000Z</time>
        <extensions>
          <ns3:TrackPointExtension>
            <ns3:atemp>24.0</ns3:atemp>
          </ns3:TrackPointExtension>
        </extensions>
      </trkpt>
      <trkpt lat="42.52736681140959262847900390625" lon="19.95048380456864833831787109375">
        <ele>1740.5999755859375</ele>
        <time>2026-06-17T09:07:11.000Z</time>
        <extensions>
          <ns3:TrackPointExtension>
            <ns3:atemp>24.0</ns3:atemp>
          </ns3:TrackPointExtension>
        </extensions>
      </trkpt>
      <trkpt lat="42.52739011310040950775146484375" lon="19.95047651231288909912109375">
        <ele>1740.800048828125</ele>
        <time>2026-06-17T09:07:12.000Z</time>
        <extensions>
          <ns3:TrackPointExtension>
            <ns3:atemp>24.0</ns3:atemp>
          </ns3:TrackPointExtension>
        </extensions>
      </trkpt>
      <trkpt lat="42.52741358242928981781005859375" lon="19.9504669569432735443115234375">
        <ele>1740.800048828125</ele>
        <time>2026-06-17T09:07:13.000Z</time>
        <extensions>
          <ns3:TrackPointExtension>
            <ns3:atemp>24.0</ns3:atemp>
          </ns3:TrackPointExtension>
        </extensions>
      </trkpt>
      <trkpt lat="42.52743671648204326629638671875" lon="19.95046284981071949005126953125">
        <ele>1741</ele>
        <time>2026-06-17T09:07:14.000Z</time>
        <extensions>
          <ns3:TrackPointExtension>
            <ns3:atemp>24.0</ns3:atemp>
          </ns3:TrackPointExtension>
        </extensions>
      </trkpt>
      <trkpt lat="42.527458257973194122314453125" lon="19.95046234689652919769287109375">
        <ele>1741.4000244140625</ele>
        <time>2026-06-17T09:07:15.000Z</time>
        <extensions>
          <ns3:TrackPointExtension>
            <ns3:atemp>24.0</ns3:atemp>
          </ns3:TrackPointExtension>
        </extensions>
      </trkpt>
      <trkpt lat="42.5274753570556640625" lon="19.950463436543941497802734375">
        <ele>1742</ele>
        <time>2026-06-17T09:07:16.000Z</time>
        <extensions>
          <ns3:TrackPointExtension>
            <ns3:atemp>24.0</ns3:atemp>
          </ns3:TrackPointExtension>
        </extensions>
      </trkpt>
      <trkpt lat="42.52749346196651458740234375" lon="19.95046787895262241363525390625">
        <ele>1742.199951171875</ele>
        <time>2026-06-17T09:07:17.000Z</time>
        <extensions>
          <ns3:TrackPointExtension>
            <ns3:atemp>24.0</ns3:atemp>
          </ns3:TrackPointExtension>
        </extensions>
      </trkpt>
      <trkpt lat="42.52751416526734828948974609375" lon="19.95047357864677906036376953125">
        <ele>1742.800048828125</ele>
        <time>2026-06-17T09:07:18.000Z</time>
        <extensions>
          <ns3:TrackPointExtension>
            <ns3:atemp>24.0</ns3:atemp>
          </ns3:TrackPointExtension>
        </extensions>
      </trkpt>
      <trkpt lat="42.52753897570073604583740234375" lon="19.95048883371055126190185546875">
        <ele>1743.199951171875</ele>
        <time>2026-06-17T09:07:19.000Z</time>
        <extensions>
          <ns3:TrackPointExtension>
            <ns3:atemp>24.0</ns3:atemp>
          </ns3:TrackPointExtension>
        </extensions>
      </trkpt>
      <trkpt lat="42.527561523020267486572265625" lon="19.95049201883375644683837890625">
        <ele>1743.5999755859375</ele>
        <time>2026-06-17T09:07:20.000Z</time>
        <extensions>
          <ns3:TrackPointExtension>
            <ns3:atemp>24.0</ns3:atemp>
          </ns3:TrackPointExtension>
        </extensions>
      </trkpt>
      <trkpt lat="42.5275866687297821044921875" lon="19.95049721561372280120849609375">
        <ele>1744</ele>
        <time>2026-06-17T09:07:21.000Z</time>
        <extensions>
          <ns3:TrackPointExtension>
            <ns3:atemp>24.0</ns3:atemp>
          </ns3:TrackPointExtension>
        </extensions>
      </trkpt>
      <trkpt lat="42.52760988660156726837158203125" lon="19.95050735771656036376953125">
        <ele>1744.4000244140625</ele>
        <time>2026-06-17T09:07:22.000Z</time>
        <extensions>
          <ns3:TrackPointExtension>
            <ns3:atemp>24.0</ns3:atemp>
          </ns3:TrackPointExtension>
        </extensions>
      </trkpt>
      <trkpt lat="42.527636624872684478759765625" lon="19.9505216069519519805908203125">
        <ele>1744.800048828125</ele>
        <time>2026-06-17T09:07:23.000Z</time>
        <extensions>
          <ns3:TrackPointExtension>
            <ns3:atemp>24.0</ns3:atemp>
          </ns3:TrackPointExtension>
        </extensions>
      </trkpt>
      <trkpt lat="42.52765498124063014984130859375" lon="19.95052705518901348114013671875">
        <ele>1745.199951171875</ele>
        <time>2026-06-17T09:07:24.000Z</time>
        <extensions>
          <ns3:TrackPointExtension>
            <ns3:atemp>24.0</ns3:atemp>
          </ns3:TrackPointExtension>
        </extensions>
      </trkpt>
      <trkpt lat="42.52767342142760753631591796875" lon="19.95053258724510669708251953125">
        <ele>1745.4000244140625</ele>
        <time>2026-06-17T09:07:25.000Z</time>
        <extensions>
          <ns3:TrackPointExtension>
            <ns3:atemp>24.0</ns3:atemp>
          </ns3:TrackPointExtension>
        </extensions>
      </trkpt>
      <trkpt lat="42.52769219689071178436279296875" lon="19.95053560473024845123291015625">
        <ele>1745.800048828125</ele>
        <time>2026-06-17T09:07:26.000Z</time>
        <extensions>
          <ns3:TrackPointExtension>
            <ns3:atemp>24.0</ns3:atemp>
          </ns3:TrackPointExtension>
        </extensions>
      </trkpt>
      <trkpt lat="42.5277041830122470855712890625" lon="19.9505387060344219207763671875">
        <ele>1746</ele>
        <time>2026-06-17T09:07:27.000Z</time>
        <extensions>
          <ns3:TrackPointExtension>
            <ns3:atemp>24.0</ns3:atemp>
          </ns3:TrackPointExtension>
        </extensions>
      </trkpt>
      <trkpt lat="42.52772287465631961822509765625" lon="19.95054113678634166717529296875">
        <ele>1746.4000244140625</ele>
        <time>2026-06-17T09:07:28.000Z</time>
        <extensions>
          <ns3:TrackPointExtension>
            <ns3:atemp>24.0</ns3:atemp>
          </ns3:TrackPointExtension>
        </extensions>
      </trkpt>
      <trkpt lat="42.527741231024265289306640625" lon="19.9505440704524517059326171875">
        <ele>1746.800048828125</ele>
        <time>2026-06-17T09:07:29.000Z</time>
        <extensions>
          <ns3:TrackPointExtension>
            <ns3:atemp>24.0</ns3:atemp>
          </ns3:TrackPointExtension>
        </extensions>
      </trkpt>
      <trkpt lat="42.52776126377284526824951171875" lon="19.9505467526614665985107421875">
        <ele>1747</ele>
        <time>2026-06-17T09:07:30.000Z</time>
        <extensions>
          <ns3:TrackPointExtension>
            <ns3:atemp>24.0</ns3:atemp>
          </ns3:TrackPointExtension>
        </extensions>
      </trkpt>
      <trkpt lat="42.52778808586299419403076171875" lon="19.95055136270821094512939453125">
        <ele>1747.4000244140625</ele>
        <time>2026-06-17T09:07:31.000Z</time>
        <extensions>
          <ns3:TrackPointExtension>
            <ns3:atemp>24.0</ns3:atemp>
          </ns3:TrackPointExtension>
        </extensions>
      </trkpt>
      <trkpt lat="42.52781775780022144317626953125" lon="19.95055857114493846893310546875">
        <ele>1747.800048828125</ele>
        <time>2026-06-17T09:07:32.000Z</time>
        <extensions>
          <ns3:TrackPointExtension>
            <ns3:atemp>24.0</ns3:atemp>
          </ns3:TrackPointExtension>
        </extensions>
      </trkpt>
      <trkpt lat="42.5278396345674991607666015625" lon="19.95056376792490482330322265625">
        <ele>1748.199951171875</ele>
        <time>2026-06-17T09:07:33.000Z</time>
        <extensions>
          <ns3:TrackPointExtension>
            <ns3:atemp>24.0</ns3:atemp>
          </ns3:TrackPointExtension>
        </extensions>
      </trkpt>
      <trkpt lat="42.52786385826766490936279296875" lon="19.95056879706680774688720703125">
        <ele>1748.5999755859375</ele>
        <time>2026-06-17T09:07:34.000Z</time>
        <extensions>
          <ns3:TrackPointExtension>
            <ns3:atemp>24.0</ns3:atemp>
          </ns3:TrackPointExtension>
        </extensions>
      </trkpt>
      <trkpt lat="42.527885399758815765380859375" lon="19.95056695304811000823974609375">
        <ele>1748.800048828125</ele>
        <time>2026-06-17T09:07:35.000Z</time>
        <extensions>
          <ns3:TrackPointExtension>
            <ns3:atemp>24.0</ns3:atemp>
          </ns3:TrackPointExtension>
        </extensions>
      </trkpt>
      <trkpt lat="42.5279043428599834442138671875" lon="19.95056343264877796173095703125">
        <ele>1749.199951171875</ele>
        <time>2026-06-17T09:07:36.000Z</time>
        <extensions>
          <ns3:TrackPointExtension>
            <ns3:atemp>24.0</ns3:atemp>
          </ns3:TrackPointExtension>
        </extensions>
      </trkpt>
      <trkpt lat="42.52791582606732845306396484375" lon="19.95055085979402065277099609375">
        <ele>1749.5999755859375</ele>
        <time>2026-06-17T09:07:37.000Z</time>
        <extensions>
          <ns3:TrackPointExtension>
            <ns3:atemp>24.0</ns3:atemp>
          </ns3:TrackPointExtension>
        </extensions>
      </trkpt>
      <trkpt lat="42.52793661318719387054443359375" lon="19.95053862221539020538330078125">
        <ele>1749.800048828125</ele>
        <time>2026-06-17T09:07:38.000Z</time>
        <extensions>
          <ns3:TrackPointExtension>
            <ns3:atemp>24.0</ns3:atemp>
          </ns3:TrackPointExtension>
        </extensions>
      </trkpt>
      <trkpt lat="42.5279616750776767730712890625" lon="19.950525797903537750244140625">
        <ele>1750.199951171875</ele>
        <time>2026-06-17T09:07:39.000Z</time>
        <extensions>
          <ns3:TrackPointExtension>
            <ns3:atemp>24.0</ns3:atemp>
          </ns3:TrackPointExtension>
        </extensions>
      </trkpt>
      <trkpt lat="42.5279796123504638671875" lon="19.9505014903843402862548828125">
        <ele>1750.4000244140625</ele>
        <time>2026-06-17T09:07:40.000Z</time>
        <extensions>
          <ns3:TrackPointExtension>
            <ns3:atemp>24.0</ns3:atemp>
          </ns3:TrackPointExtension>
        </extensions>
      </trkpt>
      <trkpt lat="42.52799243666231632232666015625" lon="19.9504753388464450836181640625">
        <ele>1750.800048828125</ele>
        <time>2026-06-17T09:07:41.000Z</time>
        <extensions>
          <ns3:TrackPointExtension>
            <ns3:atemp>24.0</ns3:atemp>
          </ns3:TrackPointExtension>
        </extensions>
      </trkpt>
      <trkpt lat="42.52799193374812602996826171875" lon="19.950452037155628204345703125">
        <ele>1751</ele>
        <time>2026-06-17T09:07:42.000Z</time>
        <extensions>
          <ns3:TrackPointExtension>
            <ns3:atemp>24.0</ns3:atemp>
          </ns3:TrackPointExtension>
        </extensions>
      </trkpt>
      <trkpt lat="42.5279901735484600067138671875" lon="19.95043736882507801055908203125">
        <ele>1751.199951171875</ele>
        <time>2026-06-17T09:07:43.000Z</time>
        <extensions>
          <ns3:TrackPointExtension>
            <ns3:atemp>24.0</ns3:atemp>
          </ns3:TrackPointExtension>
        </extensions>
      </trkpt>
      <trkpt lat="42.5279782712459564208984375" lon="19.950419850647449493408203125">
        <ele>1751.4000244140625</ele>
        <time>2026-06-17T09:07:44.000Z</time>
        <extensions>
          <ns3:TrackPointExtension>
            <ns3:atemp>24.0</ns3:atemp>
          </ns3:TrackPointExtension>
        </extensions>
      </trkpt>
      <trkpt lat="42.52796276472508907318115234375" lon="19.95040551759302616119384765625">
        <ele>1751.4000244140625</ele>
        <time>2026-06-17T09:07:45.000Z</time>
        <extensions>
          <ns3:TrackPointExtension>
            <ns3:atemp>24.0</ns3:atemp>
          </ns3:TrackPointExtension>
        </extensions>
      </trkpt>
      <trkpt lat="42.5279465876519680023193359375" lon="19.950389005243778228759765625">
        <ele>1751.5999755859375</ele>
        <time>2026-06-17T09:07:46.000Z</time>
        <extensions>
          <ns3:TrackPointExtension>
            <ns3:atemp>24.0</ns3:atemp>
          </ns3:TrackPointExtension>
        </extensions>
      </trkpt>
      <trkpt lat="42.52792605198919773101806640625" lon="19.95037131942808628082275390625">
        <ele>1751.800048828125</ele>
        <time>2026-06-17T09:07:47.000Z</time>
        <extensions>
          <ns3:TrackPointExtension>
            <ns3:atemp>24.0</ns3:atemp>
          </ns3:TrackPointExtension>
        </extensions>
      </trkpt>
      <trkpt lat="42.52790979109704494476318359375" lon="19.9503546394407749176025390625">
        <ele>1752</ele>
        <time>2026-06-17T09:07:48.000Z</time>
        <extensions>
          <ns3:TrackPointExtension>
            <ns3:atemp>24.0</ns3:atemp>
          </ns3:TrackPointExtension>
        </extensions>
      </trkpt>
      <trkpt lat="42.52789135091006755828857421875" lon="19.95033879764378070831298828125">
        <ele>1752.199951171875</ele>
        <time>2026-06-17T09:07:49.000Z</time>
        <extensions>
          <ns3:TrackPointExtension>
            <ns3:atemp>24.0</ns3:atemp>
          </ns3:TrackPointExtension>
        </extensions>
      </trkpt>
      <trkpt lat="42.5278718210756778717041015625" lon="19.95032337494194507598876953125">
        <ele>1752.4000244140625</ele>
        <time>2026-06-17T09:07:50.000Z</time>
        <extensions>
          <ns3:TrackPointExtension>
            <ns3:atemp>24.0</ns3:atemp>
          </ns3:TrackPointExtension>
        </extensions>
      </trkpt>
      <trkpt lat="42.5278557278215885162353515625" lon="19.95031029917299747467041015625">
        <ele>1752.5999755859375</ele>
        <time>2026-06-17T09:07:51.000Z</time>
        <extensions>
          <ns3:TrackPointExtension>
            <ns3:atemp>24.0</ns3:atemp>
          </ns3:TrackPointExtension>
        </extensions>
      </trkpt>
      <trkpt lat="42.52783921547234058380126953125" lon="19.95029403828084468841552734375">
        <ele>1752.800048828125</ele>
        <time>2026-06-17T09:07:52.000Z</time>
        <extensions>
          <ns3:TrackPointExtension>
            <ns3:atemp>24.0</ns3:atemp>
          </ns3:TrackPointExtension>
        </extensions>
      </trkpt>
      <trkpt lat="42.527823038399219512939453125" lon="19.95027601718902587890625">
        <ele>1753.199951171875</ele>
        <time>2026-06-17T09:07:53.000Z</time>
        <extensions>
          <ns3:TrackPointExtension>
            <ns3:atemp>24.0</ns3:atemp>
          </ns3:TrackPointExtension>
        </extensions>
      </trkpt>
      <trkpt lat="42.52780728042125701904296875" lon="19.9502617679536342620849609375">
        <ele>1753.5999755859375</ele>
        <time>2026-06-17T09:07:54.000Z</time>
        <extensions>
          <ns3:TrackPointExtension>
            <ns3:atemp>24.0</ns3:atemp>
          </ns3:TrackPointExtension>
        </extensions>
      </trkpt>
      <trkpt lat="42.527793534100055694580078125" lon="19.950242154300212860107421875">
        <ele>1754</ele>
        <time>2026-06-17T09:07:55.000Z</time>
        <extensions>
          <ns3:TrackPointExtension>
            <ns3:atemp>24.0</ns3:atemp>
          </ns3:TrackPointExtension>
        </extensions>
      </trkpt>
      <trkpt lat="42.52778154797852039337158203125" lon="19.95021709240972995758056640625">
        <ele>1754.4000244140625</ele>
        <time>2026-06-17T09:07:56.000Z</time>
        <extensions>
          <ns3:TrackPointExtension>
            <ns3:atemp>24.0</ns3:atemp>
          </ns3:TrackPointExtension>
        </extensions>
      </trkpt>
      <trkpt lat="42.5277678854763507843017578125" lon="19.9501896835863590240478515625">
        <ele>1754.800048828125</ele>
        <time>2026-06-17T09:07:57.000Z</time>
        <extensions>
          <ns3:TrackPointExtension>
            <ns3:atemp>24.0</ns3:atemp>
          </ns3:TrackPointExtension>
        </extensions>
      </trkpt>
      <trkpt lat="42.52775095403194427490234375" lon="19.9501662142574787139892578125">
        <ele>1755.199951171875</ele>
        <time>2026-06-17T09:07:58.000Z</time>
        <extensions>
          <ns3:TrackPointExtension>
            <ns3:atemp>24.0</ns3:atemp>
          </ns3:TrackPointExtension>
        </extensions>
      </trkpt>
      <trkpt lat="42.52773712389171123504638671875" lon="19.95014249347150325775146484375">
        <ele>1755.5999755859375</ele>
        <time>2026-06-17T09:07:59.000Z</time>
        <extensions>
          <ns3:TrackPointExtension>
            <ns3:atemp>24.0</ns3:atemp>
          </ns3:TrackPointExtension>
        </extensions>
      </trkpt>
      <trkpt lat="42.5277212820947170257568359375" lon="19.9501243047416210174560546875">
        <ele>1755.800048828125</ele>
        <time>2026-06-17T09:08:00.000Z</time>
        <extensions>
          <ns3:TrackPointExtension>
            <ns3:atemp>24.0</ns3:atemp>
          </ns3:TrackPointExtension>
        </extensions>
      </trkpt>
      <trkpt lat="42.52770745195448398590087890625" lon="19.95010745711624622344970703125">
        <ele>1756.199951171875</ele>
        <time>2026-06-17T09:08:01.000Z</time>
        <extensions>
          <ns3:TrackPointExtension>
            <ns3:atemp>24.0</ns3:atemp>
          </ns3:TrackPointExtension>
        </extensions>
      </trkpt>
      <trkpt lat="42.52769454382359981536865234375" lon="19.95009186677634716033935546875">
        <ele>1756.5999755859375</ele>
        <time>2026-06-17T09:08:02.000Z</time>
        <extensions>
          <ns3:TrackPointExtension>
            <ns3:atemp>24.0</ns3:atemp>
          </ns3:TrackPointExtension>
        </extensions>
      </trkpt>
      <trkpt lat="42.5276787020266056060791015625" lon="19.950073175132274627685546875">
        <ele>1756.800048828125</ele>
        <time>2026-06-17T09:08:03.000Z</time>
        <extensions>
          <ns3:TrackPointExtension>
            <ns3:atemp>24.0</ns3:atemp>
          </ns3:TrackPointExtension>
        </extensions>
      </trkpt>
      <trkpt lat="42.52765984274446964263916015625" lon="19.95006068609654903411865234375">
        <ele>1757.199951171875</ele>
        <time>2026-06-17T09:08:04.000Z</time>
        <extensions>
          <ns3:TrackPointExtension>
            <ns3:atemp>24.0</ns3:atemp>
          </ns3:TrackPointExtension>
        </extensions>
      </trkpt>
      <trkpt lat="42.527633942663669586181640625" lon="19.9500535614788532257080078125">
        <ele>1757.4000244140625</ele>
        <time>2026-06-17T09:08:05.000Z</time>
        <extensions>
          <ns3:TrackPointExtension>
            <ns3:atemp>24.0</ns3:atemp>
          </ns3:TrackPointExtension>
        </extensions>
      </trkpt>
      <trkpt lat="42.527609802782535552978515625" lon="19.95005071163177490234375">
        <ele>1757.5999755859375</ele>
        <time>2026-06-17T09:08:06.000Z</time>
        <extensions>
          <ns3:TrackPointExtension>
            <ns3:atemp>24.0</ns3:atemp>
          </ns3:TrackPointExtension>
        </extensions>
      </trkpt>
      <trkpt lat="42.52758658491075038909912109375" lon="19.9500394798815250396728515625">
        <ele>1757.800048828125</ele>
        <time>2026-06-17T09:08:07.000Z</time>
        <extensions>
          <ns3:TrackPointExtension>
            <ns3:atemp>24.0</ns3:atemp>
          </ns3:TrackPointExtension>
        </extensions>
      </trkpt>
      <trkpt lat="42.527562193572521209716796875" lon="19.95002967305481433868408203125">
        <ele>1758.199951171875</ele>
        <time>2026-06-17T09:08:08.000Z</time>
        <extensions>
          <ns3:TrackPointExtension>
            <ns3:atemp>24.0</ns3:atemp>
          </ns3:TrackPointExtension>
        </extensions>
      </trkpt>
      <trkpt lat="42.52753981389105319976806640625" lon="19.95001760311424732208251953125">
        <ele>1758.4000244140625</ele>
        <time>2026-06-17T09:08:09.000Z</time>
        <extensions>
          <ns3:TrackPointExtension>
            <ns3:atemp>24.0</ns3:atemp>
          </ns3:TrackPointExtension>
        </extensions>
      </trkpt>
      <trkpt lat="42.52752221189439296722412109375" lon="19.95000335387885570526123046875">
        <ele>1758.800048828125</ele>
        <time>2026-06-17T09:08:10.000Z</time>
        <extensions>
          <ns3:TrackPointExtension>
            <ns3:atemp>24.0</ns3:atemp>
          </ns3:TrackPointExtension>
        </extensions>
      </trkpt>
      <trkpt lat="42.5275062024593353271484375" lon="19.9499865062534809112548828125">
        <ele>1759.199951171875</ele>
        <time>2026-06-17T09:08:11.000Z</time>
        <extensions>
          <ns3:TrackPointExtension>
            <ns3:atemp>24.0</ns3:atemp>
          </ns3:TrackPointExtension>
        </extensions>
      </trkpt>
      <trkpt lat="42.527490444481372833251953125" lon="19.949963875114917755126953125">
        <ele>1759.4000244140625</ele>
        <time>2026-06-17T09:08:12.000Z</time>
        <extensions>
          <ns3:TrackPointExtension>
            <ns3:atemp>24.0</ns3:atemp>
          </ns3:TrackPointExtension>
        </extensions>
      </trkpt>
      <trkpt lat="42.5274740159511566162109375" lon="19.9499420821666717529296875">
        <ele>1759.5999755859375</ele>
        <time>2026-06-17T09:08:13.000Z</time>
        <extensions>
          <ns3:TrackPointExtension>
            <ns3:atemp>24.0</ns3:atemp>
          </ns3:TrackPointExtension>
        </extensions>
      </trkpt>
      <trkpt lat="42.5274594314396381378173828125" lon="19.949918277561664581298828125">
        <ele>1759.800048828125</ele>
        <time>2026-06-17T09:08:14.000Z</time>
        <extensions>
          <ns3:TrackPointExtension>
            <ns3:atemp>24.0</ns3:atemp>
          </ns3:TrackPointExtension>
        </extensions>
      </trkpt>
      <trkpt lat="42.52744878642261028289794921875" lon="19.94989790953695774078369140625">
        <ele>1760</ele>
        <time>2026-06-17T09:08:15.000Z</time>
        <extensions>
          <ns3:TrackPointExtension>
            <ns3:atemp>24.0</ns3:atemp>
          </ns3:TrackPointExtension>
        </extensions>
      </trkpt>
      <trkpt lat="42.5274359621107578277587890625" lon="19.9498772062361240386962890625">
        <ele>1760.199951171875</ele>
        <time>2026-06-17T09:08:16.000Z</time>
        <extensions>
          <ns3:TrackPointExtension>
            <ns3:atemp>24.0</ns3:atemp>
          </ns3:TrackPointExtension>
        </extensions>
      </trkpt>
      <trkpt lat="42.5274225510656833648681640625" lon="19.94985298253595829010009765625">
        <ele>1760.199951171875</ele>
        <time>2026-06-17T09:08:17.000Z</time>
        <extensions>
          <ns3:TrackPointExtension>
            <ns3:atemp>24.0</ns3:atemp>
          </ns3:TrackPointExtension>
        </extensions>
      </trkpt>
      <trkpt lat="42.52740603871643543243408203125" lon="19.9498322792351245880126953125">
        <ele>1760.199951171875</ele>
        <time>2026-06-17T09:08:18.000Z</time>
        <extensions>
          <ns3:TrackPointExtension>
            <ns3:atemp>24.0</ns3:atemp>
          </ns3:TrackPointExtension>
        </extensions>
      </trkpt>
      <trkpt lat="42.5273903645575046539306640625" lon="19.94981727562844753265380859375">
        <ele>1760.4000244140625</ele>
        <time>2026-06-17T09:08:19.000Z</time>
        <extensions>
          <ns3:TrackPointExtension>
            <ns3:atemp>24.0</ns3:atemp>
          </ns3:TrackPointExtension>
        </extensions>
      </trkpt>
      <trkpt lat="42.52737485803663730621337890625" lon="19.949802942574024200439453125">
        <ele>1760.800048828125</ele>
        <time>2026-06-17T09:08:20.000Z</time>
        <extensions>
          <ns3:TrackPointExtension>
            <ns3:atemp>24.0</ns3:atemp>
          </ns3:TrackPointExtension>
        </extensions>
      </trkpt>
      <trkpt lat="42.52735759131610393524169921875" lon="19.94979330338537693023681640625">
        <ele>1761.199951171875</ele>
        <time>2026-06-17T09:08:21.000Z</time>
        <extensions>
          <ns3:TrackPointExtension>
            <ns3:atemp>24.0</ns3:atemp>
          </ns3:TrackPointExtension>
        </extensions>
      </trkpt>
      <trkpt lat="42.52734124660491943359375" lon="19.94977779686450958251953125">
        <ele>1761.4000244140625</ele>
        <time>2026-06-17T09:08:22.000Z</time>
        <extensions>
          <ns3:TrackPointExtension>
            <ns3:atemp>24.0</ns3:atemp>
          </ns3:TrackPointExtension>
        </extensions>
      </trkpt>
      <trkpt lat="42.52732205204665660858154296875" lon="19.949763379991054534912109375">
        <ele>1761.800048828125</ele>
        <time>2026-06-17T09:08:23.000Z</time>
        <extensions>
          <ns3:TrackPointExtension>
            <ns3:atemp>24.0</ns3:atemp>
          </ns3:TrackPointExtension>
        </extensions>
      </trkpt>
      <trkpt lat="42.52730294130742549896240234375" lon="19.94975491426885128021240234375">
        <ele>1762.199951171875</ele>
        <time>2026-06-17T09:08:24.000Z</time>
        <extensions>
          <ns3:TrackPointExtension>
            <ns3:atemp>24.0</ns3:atemp>
          </ns3:TrackPointExtension>
        </extensions>
      </trkpt>
      <trkpt lat="42.52728232182562351226806640625" lon="19.9497457779943943023681640625">
        <ele>1762.4000244140625</ele>
        <time>2026-06-17T09:08:25.000Z</time>
        <extensions>
          <ns3:TrackPointExtension>
            <ns3:atemp>24.0</ns3:atemp>
          </ns3:TrackPointExtension>
        </extensions>
      </trkpt>
      <trkpt lat="42.527269832789897918701171875" lon="19.9497353844344615936279296875">
        <ele>1763</ele>
        <time>2026-06-17T09:08:26.000Z</time>
        <extensions>
          <ns3:TrackPointExtension>
            <ns3:atemp>24.0</ns3:atemp>
          </ns3:TrackPointExtension>
        </extensions>
      </trkpt>
      <trkpt lat="42.52725474536418914794921875" lon="19.94972406886518001556396484375">
        <ele>1763.199951171875</ele>
        <time>2026-06-17T09:08:27.000Z</time>
        <extensions>
          <ns3:TrackPointExtension>
            <ns3:atemp>24.0</ns3:atemp>
          </ns3:TrackPointExtension>
        </extensions>
      </trkpt>
      <trkpt lat="42.52723622135818004608154296875" lon="19.9497087299823760986328125">
        <ele>1763.5999755859375</ele>
        <time>2026-06-17T09:08:28.000Z</time>
        <extensions>
          <ns3:TrackPointExtension>
            <ns3:atemp>24.0</ns3:atemp>
          </ns3:TrackPointExtension>
        </extensions>
      </trkpt>
      <trkpt lat="42.52721493132412433624267578125" lon="19.94969598948955535888671875">
        <ele>1763.800048828125</ele>
        <time>2026-06-17T09:08:29.000Z</time>
        <extensions>
          <ns3:TrackPointExtension>
            <ns3:atemp>24.0</ns3:atemp>
          </ns3:TrackPointExtension>
        </extensions>
      </trkpt>
      <trkpt lat="42.527193725109100341796875" lon="19.94968417100608348846435546875">
        <ele>1764</ele>
        <time>2026-06-17T09:08:30.000Z</time>
        <extensions>
          <ns3:TrackPointExtension>
            <ns3:atemp>24.0</ns3:atemp>
          </ns3:TrackPointExtension>
        </extensions>
      </trkpt>
      <trkpt lat="42.5271747820079326629638671875" lon="19.94967528618872165679931640625">
        <ele>1764.199951171875</ele>
        <time>2026-06-17T09:08:31.000Z</time>
        <extensions>
          <ns3:TrackPointExtension>
            <ns3:atemp>24.0</ns3:atemp>
          </ns3:TrackPointExtension>
        </extensions>
      </trkpt>
      <trkpt lat="42.52715508453547954559326171875" lon="19.94965885765850543975830078125">
        <ele>1764.5999755859375</ele>
        <time>2026-06-17T09:08:32.000Z</time>
        <extensions>
          <ns3:TrackPointExtension>
            <ns3:atemp>24.0</ns3:atemp>
          </ns3:TrackPointExtension>
        </extensions>
      </trkpt>
      <trkpt lat="42.52713144756853580474853515625" lon="19.94964879937469959259033203125">
        <ele>1764.800048828125</ele>
        <time>2026-06-17T09:08:33.000Z</time>
        <extensions>
          <ns3:TrackPointExtension>
            <ns3:atemp>24.0</ns3:atemp>
          </ns3:TrackPointExtension>
        </extensions>
      </trkpt>
      <trkpt lat="42.52711451612412929534912109375" lon="19.94963706471025943756103515625">
        <ele>1765.199951171875</ele>
        <time>2026-06-17T09:08:34.000Z</time>
        <extensions>
          <ns3:TrackPointExtension>
            <ns3:atemp>24.0</ns3:atemp>
          </ns3:TrackPointExtension>
        </extensions>
      </trkpt>
      <trkpt lat="42.5270946510136127471923828125" lon="19.94962817989289760589599609375">
        <ele>1765.5999755859375</ele>
        <time>2026-06-17T09:08:35.000Z</time>
        <extensions>
          <ns3:TrackPointExtension>
            <ns3:atemp>24.0</ns3:atemp>
          </ns3:TrackPointExtension>
        </extensions>
      </trkpt>
      <trkpt lat="42.52707361243665218353271484375" lon="19.94961812160909175872802734375">
        <ele>1765.800048828125</ele>
        <time>2026-06-17T09:08:36.000Z</time>
        <extensions>
          <ns3:TrackPointExtension>
            <ns3:atemp>24.0</ns3:atemp>
          </ns3:TrackPointExtension>
        </extensions>
      </trkpt>
      <trkpt lat="42.52704863436520099639892578125" lon="19.949604459106922149658203125">
        <ele>1766</ele>
        <time>2026-06-17T09:08:37.000Z</time>
        <extensions>
          <ns3:TrackPointExtension>
            <ns3:atemp>24.0</ns3:atemp>
          </ns3:TrackPointExtension>
        </extensions>
      </trkpt>
      <trkpt lat="42.527023069560527801513671875" lon="19.9495912156999111175537109375">
        <ele>1766.199951171875</ele>
        <time>2026-06-17T09:08:38.000Z</time>
        <extensions>
          <ns3:TrackPointExtension>
            <ns3:atemp>24.0</ns3:atemp>
          </ns3:TrackPointExtension>
        </extensions>
      </trkpt>
      <trkpt lat="42.5269987620413303375244140625" lon="19.94957554154098033905029296875">
        <ele>1766.5999755859375</ele>
        <time>2026-06-17T09:08:39.000Z</time>
        <extensions>
          <ns3:TrackPointExtension>
            <ns3:atemp>24.0</ns3:atemp>
          </ns3:TrackPointExtension>
        </extensions>
      </trkpt>
      <trkpt lat="42.52697135321795940399169921875" lon="19.949562549591064453125">
        <ele>1766.800048828125</ele>
        <time>2026-06-17T09:08:40.000Z</time>
        <extensions>
          <ns3:TrackPointExtension>
            <ns3:atemp>24.0</ns3:atemp>
          </ns3:TrackPointExtension>
        </extensions>
      </trkpt>
      <trkpt lat="42.526941932737827301025390625" lon="19.94954972527921199798583984375">
        <ele>1767</ele>
        <time>2026-06-17T09:08:41.000Z</time>
        <extensions>
          <ns3:TrackPointExtension>
            <ns3:atemp>24.0</ns3:atemp>
          </ns3:TrackPointExtension>
        </extensions>
      </trkpt>
      <trkpt lat="42.52691385336220264434814453125" lon="19.94953815825283527374267578125">
        <ele>1767.4000244140625</ele>
        <time>2026-06-17T09:08:42.000Z</time>
        <extensions>
          <ns3:TrackPointExtension>
            <ns3:atemp>24.0</ns3:atemp>
          </ns3:TrackPointExtension>
        </extensions>
      </trkpt>
      <trkpt lat="42.52688753418624401092529296875" lon="19.949530027806758880615234375">
        <ele>1767.5999755859375</ele>
        <time>2026-06-17T09:08:43.000Z</time>
        <extensions>
          <ns3:TrackPointExtension>
            <ns3:atemp>24.0</ns3:atemp>
          </ns3:TrackPointExtension>
        </extensions>
      </trkpt>
      <trkpt lat="42.5268616341054439544677734375" lon="19.94951887987554073333740234375">
        <ele>1767.800048828125</ele>
        <time>2026-06-17T09:08:44.000Z</time>
        <extensions>
          <ns3:TrackPointExtension>
            <ns3:atemp>24.0</ns3:atemp>
          </ns3:TrackPointExtension>
        </extensions>
      </trkpt>
      <trkpt lat="42.52683363854885101318359375" lon="19.94950278662145137786865234375">
        <ele>1768.199951171875</ele>
        <time>2026-06-17T09:08:45.000Z</time>
        <extensions>
          <ns3:TrackPointExtension>
            <ns3:atemp>24.0</ns3:atemp>
          </ns3:TrackPointExtension>
        </extensions>
      </trkpt>
      <trkpt lat="42.52680480480194091796875" lon="19.9494936503469944000244140625">
        <ele>1768.4000244140625</ele>
        <time>2026-06-17T09:08:46.000Z</time>
        <extensions>
          <ns3:TrackPointExtension>
            <ns3:atemp>24.0</ns3:atemp>
          </ns3:TrackPointExtension>
        </extensions>
      </trkpt>
      <trkpt lat="42.52677588723599910736083984375" lon="19.94948267005383968353271484375">
        <ele>1768.800048828125</ele>
        <time>2026-06-17T09:08:47.000Z</time>
        <extensions>
          <ns3:TrackPointExtension>
            <ns3:atemp>24.0</ns3:atemp>
          </ns3:TrackPointExtension>
        </extensions>
      </trkpt>
      <trkpt lat="42.52675007097423076629638671875" lon="19.949471689760684967041015625">
        <ele>1769</ele>
        <time>2026-06-17T09:08:48.000Z</time>
        <extensions>
          <ns3:TrackPointExtension>
            <ns3:atemp>24.0</ns3:atemp>
          </ns3:TrackPointExtension>
        </extensions>
      </trkpt>
      <trkpt lat="42.526730708777904510498046875" lon="19.9494661577045917510986328125">
        <ele>1769.4000244140625</ele>
        <time>2026-06-17T09:08:49.000Z</time>
        <extensions>
          <ns3:TrackPointExtension>
            <ns3:atemp>24.0</ns3:atemp>
          </ns3:TrackPointExtension>
        </extensions>
      </trkpt>
      <trkpt lat="42.5267043896019458770751953125" lon="19.94945500977337360382080078125">
        <ele>1769.800048828125</ele>
        <time>2026-06-17T09:08:50.000Z</time>
        <extensions>
          <ns3:TrackPointExtension>
            <ns3:atemp>24.0</ns3:atemp>
          </ns3:TrackPointExtension>
        </extensions>
      </trkpt>
      <trkpt lat="42.5266792438924312591552734375" lon="19.9494487233459949493408203125">
        <ele>1770.199951171875</ele>
        <time>2026-06-17T09:08:51.000Z</time>
        <extensions>
          <ns3:TrackPointExtension>
            <ns3:atemp>24.0</ns3:atemp>
          </ns3:TrackPointExtension>
        </extensions>
      </trkpt>
      <trkpt lat="42.52665468491613864898681640625" lon="19.94944394566118717193603515625">
        <ele>1770.5999755859375</ele>
        <time>2026-06-17T09:08:52.000Z</time>
        <extensions>
          <ns3:TrackPointExtension>
            <ns3:atemp>24.0</ns3:atemp>
          </ns3:TrackPointExtension>
        </extensions>
      </trkpt>
      <trkpt lat="42.52662870101630687713623046875" lon="19.94943807832896709442138671875">
        <ele>1771</ele>
        <time>2026-06-17T09:08:53.000Z</time>
        <extensions>
          <ns3:TrackPointExtension>
            <ns3:atemp>24.0</ns3:atemp>
          </ns3:TrackPointExtension>
        </extensions>
      </trkpt>
      <trkpt lat="42.52660154365003108978271484375" lon="19.94943204335868358612060546875">
        <ele>1771.4000244140625</ele>
        <time>2026-06-17T09:08:54.000Z</time>
        <extensions>
          <ns3:TrackPointExtension>
            <ns3:atemp>24.0</ns3:atemp>
          </ns3:TrackPointExtension>
        </extensions>
      </trkpt>
      <trkpt lat="42.5265754759311676025390625" lon="19.94942567311227321624755859375">
        <ele>1771.5999755859375</ele>
        <time>2026-06-17T09:08:55.000Z</time>
        <extensions>
          <ns3:TrackPointExtension>
            <ns3:atemp>24.0</ns3:atemp>
          </ns3:TrackPointExtension>
        </extensions>
      </trkpt>
      <trkpt lat="42.526551671326160430908203125" lon="19.94941695593297481536865234375">
        <ele>1771.800048828125</ele>
        <time>2026-06-17T09:08:56.000Z</time>
        <extensions>
          <ns3:TrackPointExtension>
            <ns3:atemp>24.0</ns3:atemp>
          </ns3:TrackPointExtension>
        </extensions>
      </trkpt>
      <trkpt lat="42.52653054893016815185546875" lon="19.94940572418272495269775390625">
        <ele>1772.199951171875</ele>
        <time>2026-06-17T09:08:57.000Z</time>
        <extensions>
          <ns3:TrackPointExtension>
            <ns3:atemp>24.0</ns3:atemp>
          </ns3:TrackPointExtension>
        </extensions>
      </trkpt>
      <trkpt lat="42.52650833688676357269287109375" lon="19.94938887655735015869140625">
        <ele>1772.5999755859375</ele>
        <time>2026-06-17T09:08:58.000Z</time>
        <extensions>
          <ns3:TrackPointExtension>
            <ns3:atemp>24.0</ns3:atemp>
          </ns3:TrackPointExtension>
        </extensions>
      </trkpt>
      <trkpt lat="42.52649123780429363250732421875" lon="19.94937278330326080322265625">
        <ele>1773</ele>
        <time>2026-06-17T09:08:59.000Z</time>
        <extensions>
          <ns3:TrackPointExtension>
            <ns3:atemp>24.0</ns3:atemp>
          </ns3:TrackPointExtension>
        </extensions>
      </trkpt>
      <trkpt lat="42.5264753960072994232177734375" lon="19.949359707534313201904296875">
        <ele>1773.199951171875</ele>
        <time>2026-06-17T09:09:00.000Z</time>
        <extensions>
          <ns3:TrackPointExtension>
            <ns3:atemp>24.0</ns3:atemp>
          </ns3:TrackPointExtension>
        </extensions>
      </trkpt>
      <trkpt lat="42.526456452906131744384765625" lon="19.949342273175716400146484375">
        <ele>1773.5999755859375</ele>
        <time>2026-06-17T09:09:01.000Z</time>
        <extensions>
          <ns3:TrackPointExtension>
            <ns3:atemp>24.0</ns3:atemp>
          </ns3:TrackPointExtension>
        </extensions>
      </trkpt>
      <trkpt lat="42.52643139101564884185791015625" lon="19.94932274334132671356201171875">
        <ele>1774</ele>
        <time>2026-06-17T09:09:02.000Z</time>
        <extensions>
          <ns3:TrackPointExtension>
            <ns3:atemp>24.0</ns3:atemp>
          </ns3:TrackPointExtension>
        </extensions>
      </trkpt>
      <trkpt lat="42.5264066644012928009033203125" lon="19.949308075010776519775390625">
        <ele>1774.4000244140625</ele>
        <time>2026-06-17T09:09:03.000Z</time>
        <extensions>
          <ns3:TrackPointExtension>
            <ns3:atemp>24.0</ns3:atemp>
          </ns3:TrackPointExtension>
        </extensions>
      </trkpt>
      <trkpt lat="42.52638143487274646759033203125" lon="19.9492943286895751953125">
        <ele>1774.800048828125</ele>
        <time>2026-06-17T09:09:04.000Z</time>
        <extensions>
          <ns3:TrackPointExtension>
            <ns3:atemp>24.0</ns3:atemp>
          </ns3:TrackPointExtension>
        </extensions>
      </trkpt>
      <trkpt lat="42.5263540260493755340576171875" lon="19.9492854438722133636474609375">
        <ele>1775</ele>
        <time>2026-06-17T09:09:05.000Z</time>
        <extensions>
          <ns3:TrackPointExtension>
            <ns3:atemp>24.0</ns3:atemp>
          </ns3:TrackPointExtension>
        </extensions>
      </trkpt>
      <trkpt lat="42.52632628194987773895263671875" lon="19.9492670036852359771728515625">
        <ele>1775.4000244140625</ele>
        <time>2026-06-17T09:09:06.000Z</time>
        <extensions>
          <ns3:TrackPointExtension>
            <ns3:atemp>24.0</ns3:atemp>
          </ns3:TrackPointExtension>
        </extensions>
      </trkpt>
      <trkpt lat="42.526303566992282867431640625" lon="19.949249736964702606201171875">
        <ele>1775.5999755859375</ele>
        <time>2026-06-17T09:09:07.000Z</time>
        <extensions>
          <ns3:TrackPointExtension>
            <ns3:atemp>24.0</ns3:atemp>
          </ns3:TrackPointExtension>
        </extensions>
      </trkpt>
      <trkpt lat="42.5262804329395294189453125" lon="19.949226938188076019287109375">
        <ele>1776</ele>
        <time>2026-06-17T09:09:08.000Z</time>
        <extensions>
          <ns3:TrackPointExtension>
            <ns3:atemp>24.0</ns3:atemp>
          </ns3:TrackPointExtension>
        </extensions>
      </trkpt>
      <trkpt lat="42.52626174129545688629150390625" lon="19.949210174381732940673828125">
        <ele>1776.199951171875</ele>
        <time>2026-06-17T09:09:09.000Z</time>
        <extensions>
          <ns3:TrackPointExtension>
            <ns3:atemp>24.0</ns3:atemp>
          </ns3:TrackPointExtension>
        </extensions>
      </trkpt>
      <trkpt lat="42.52624715678393840789794921875" lon="19.9491898901760578155517578125">
        <ele>1776.4000244140625</ele>
        <time>2026-06-17T09:09:10.000Z</time>
        <extensions>
          <ns3:TrackPointExtension>
            <ns3:atemp>24.0</ns3:atemp>
          </ns3:TrackPointExtension>
        </extensions>
      </trkpt>
      <trkpt lat="42.5262329913675785064697265625" lon="19.94918025098741054534912109375">
        <ele>1776.5999755859375</ele>
        <time>2026-06-17T09:09:11.000Z</time>
        <extensions>
          <ns3:TrackPointExtension>
            <ns3:atemp>24.0</ns3:atemp>
          </ns3:TrackPointExtension>
        </extensions>
      </trkpt>
      <trkpt lat="42.52621966414153575897216796875" lon="19.94916281662881374359130859375">
        <ele>1777</ele>
        <time>2026-06-17T09:09:12.000Z</time>
        <extensions>
          <ns3:TrackPointExtension>
            <ns3:atemp>24.0</ns3:atemp>
          </ns3:TrackPointExtension>
        </extensions>
      </trkpt>
      <trkpt lat="42.526204325258731842041015625" lon="19.94913901202380657196044921875">
        <ele>1777.199951171875</ele>
        <time>2026-06-17T09:09:13.000Z</time>
        <extensions>
          <ns3:TrackPointExtension>
            <ns3:atemp>24.0</ns3:atemp>
          </ns3:TrackPointExtension>
        </extensions>
      </trkpt>
      <trkpt lat="42.52618412487208843231201171875" lon="19.94911185465753078460693359375">
        <ele>1777.5999755859375</ele>
        <time>2026-06-17T09:09:14.000Z</time>
        <extensions>
          <ns3:TrackPointExtension>
            <ns3:atemp>24.0</ns3:atemp>
          </ns3:TrackPointExtension>
        </extensions>
      </trkpt>
      <trkpt lat="42.52616032026708126068115234375" lon="19.949087463319301605224609375">
        <ele>1777.800048828125</ele>
        <time>2026-06-17T09:09:15.000Z</time>
        <extensions>
          <ns3:TrackPointExtension>
            <ns3:atemp>24.0</ns3:atemp>
          </ns3:TrackPointExtension>
        </extensions>
      </trkpt>
      <trkpt lat="42.52613718621432781219482421875" lon="19.94905217550694942474365234375">
        <ele>1778.199951171875</ele>
        <time>2026-06-17T09:09:16.000Z</time>
        <extensions>
          <ns3:TrackPointExtension>
            <ns3:atemp>24.0</ns3:atemp>
          </ns3:TrackPointExtension>
        </extensions>
      </trkpt>
      <trkpt lat="42.5261179916560649871826171875" lon="19.9490239284932613372802734375">
        <ele>1778.4000244140625</ele>
        <time>2026-06-17T09:09:17.000Z</time>
        <extensions>
          <ns3:TrackPointExtension>
            <ns3:atemp>24.0</ns3:atemp>
          </ns3:TrackPointExtension>
        </extensions>
      </trkpt>
      <trkpt lat="42.52610684372484683990478515625" lon="19.94899920187890529632568359375">
        <ele>1778.5999755859375</ele>
        <time>2026-06-17T09:09:18.000Z</time>
        <extensions>
          <ns3:TrackPointExtension>
            <ns3:atemp>24.0</ns3:atemp>
          </ns3:TrackPointExtension>
        </extensions>
      </trkpt>
      <trkpt lat="42.52609242685139179229736328125" lon="19.94897975586354732513427734375">
        <ele>1778.800048828125</ele>
        <time>2026-06-17T09:09:19.000Z</time>
        <extensions>
          <ns3:TrackPointExtension>
            <ns3:atemp>24.0</ns3:atemp>
          </ns3:TrackPointExtension>
        </extensions>
      </trkpt>
      <trkpt lat="42.52607524394989013671875" lon="19.94895477779209613800048828125">
        <ele>1779.199951171875</ele>
        <time>2026-06-17T09:09:20.000Z</time>
        <extensions>
          <ns3:TrackPointExtension>
            <ns3:atemp>24.0</ns3:atemp>
          </ns3:TrackPointExtension>
        </extensions>
      </trkpt>
      <trkpt lat="42.526061832904815673828125" lon="19.94892485439777374267578125">
        <ele>1779.4000244140625</ele>
        <time>2026-06-17T09:09:21.000Z</time>
        <extensions>
          <ns3:TrackPointExtension>
            <ns3:atemp>24.0</ns3:atemp>
          </ns3:TrackPointExtension>
        </extensions>
      </trkpt>
      <trkpt lat="42.52604833804070949554443359375" lon="19.94889928959310054779052734375">
        <ele>1779.800048828125</ele>
        <time>2026-06-17T09:09:22.000Z</time>
        <extensions>
          <ns3:TrackPointExtension>
            <ns3:atemp>24.0</ns3:atemp>
          </ns3:TrackPointExtension>
        </extensions>
      </trkpt>
      <trkpt lat="42.5260358490049839019775390625" lon="19.94887246750295162200927734375">
        <ele>1780</ele>
        <time>2026-06-17T09:09:23.000Z</time>
        <extensions>
          <ns3:TrackPointExtension>
            <ns3:atemp>24.0</ns3:atemp>
          </ns3:TrackPointExtension>
        </extensions>
      </trkpt>
      <trkpt lat="42.52602084539830684661865234375" lon="19.9488485790789127349853515625">
        <ele>1780.199951171875</ele>
        <time>2026-06-17T09:09:24.000Z</time>
        <extensions>
          <ns3:TrackPointExtension>
            <ns3:atemp>24.0</ns3:atemp>
          </ns3:TrackPointExtension>
        </extensions>
      </trkpt>
      <trkpt lat="42.52600726671516895294189453125" lon="19.94881689548492431640625">
        <ele>1780.4000244140625</ele>
        <time>2026-06-17T09:09:25.000Z</time>
        <extensions>
          <ns3:TrackPointExtension>
            <ns3:atemp>24.0</ns3:atemp>
          </ns3:TrackPointExtension>
        </extensions>
      </trkpt>
      <trkpt lat="42.525989748537540435791015625" lon="19.94878328405320644378662109375">
        <ele>1780.5999755859375</ele>
        <time>2026-06-17T09:09:26.000Z</time>
        <extensions>
          <ns3:TrackPointExtension>
            <ns3:atemp>24.0</ns3:atemp>
          </ns3:TrackPointExtension>
        </extensions>
      </trkpt>
      <trkpt lat="42.52597290091216564178466796875" lon="19.948755539953708648681640625">
        <ele>1780.800048828125</ele>
        <time>2026-06-17T09:09:27.000Z</time>
        <extensions>
          <ns3:TrackPointExtension>
            <ns3:atemp>24.0</ns3:atemp>
          </ns3:TrackPointExtension>
        </extensions>
      </trkpt>
      <trkpt lat="42.525952197611331939697265625" lon="19.94872695766389369964599609375">
        <ele>1781</ele>
        <time>2026-06-17T09:09:28.000Z</time>
        <extensions>
          <ns3:TrackPointExtension>
            <ns3:atemp>24.0</ns3:atemp>
          </ns3:TrackPointExtension>
        </extensions>
      </trkpt>
      <trkpt lat="42.5259295664727687835693359375" lon="19.94869644753634929656982421875">
        <ele>1781.199951171875</ele>
        <time>2026-06-17T09:09:29.000Z</time>
        <extensions>
          <ns3:TrackPointExtension>
            <ns3:atemp>24.0</ns3:atemp>
          </ns3:TrackPointExtension>
        </extensions>
      </trkpt>
      <trkpt lat="42.525907941162586212158203125" lon="19.9486648477613925933837890625">
        <ele>1781.4000244140625</ele>
        <time>2026-06-17T09:09:30.000Z</time>
        <extensions>
          <ns3:TrackPointExtension>
            <ns3:atemp>24.0</ns3:atemp>
          </ns3:TrackPointExtension>
        </extensions>
      </trkpt>
      <trkpt lat="42.52588857896625995635986328125" lon="19.94863106869161128997802734375">
        <ele>1781.5999755859375</ele>
        <time>2026-06-17T09:09:31.000Z</time>
        <extensions>
          <ns3:TrackPointExtension>
            <ns3:atemp>24.0</ns3:atemp>
          </ns3:TrackPointExtension>
        </extensions>
      </trkpt>
      <trkpt lat="42.52586829476058483123779296875" lon="19.94860055856406688690185546875">
        <ele>1781.800048828125</ele>
        <time>2026-06-17T09:09:32.000Z</time>
        <extensions>
          <ns3:TrackPointExtension>
            <ns3:atemp>24.0</ns3:atemp>
          </ns3:TrackPointExtension>
        </extensions>
      </trkpt>
      <trkpt lat="42.52584717236459255218505859375" lon="19.94857122190296649932861328125">
        <ele>1782</ele>
        <time>2026-06-17T09:09:33.000Z</time>
        <extensions>
          <ns3:TrackPointExtension>
            <ns3:atemp>24.0</ns3:atemp>
          </ns3:TrackPointExtension>
        </extensions>
      </trkpt>
      <trkpt lat="42.52583049237728118896484375" lon="19.9485475011169910430908203125">
        <ele>1782.4000244140625</ele>
        <time>2026-06-17T09:09:34.000Z</time>
        <extensions>
          <ns3:TrackPointExtension>
            <ns3:atemp>24.0</ns3:atemp>
          </ns3:TrackPointExtension>
        </extensions>
      </trkpt>
      <trkpt lat="42.52581364475190639495849609375" lon="19.948518164455890655517578125">
        <ele>1782.5999755859375</ele>
        <time>2026-06-17T09:09:35.000Z</time>
        <extensions>
          <ns3:TrackPointExtension>
            <ns3:atemp>24.0</ns3:atemp>
          </ns3:TrackPointExtension>
        </extensions>
      </trkpt>
      <trkpt lat="42.52579688094556331634521484375" lon="19.94847969152033329010009765625">
        <ele>1783</ele>
        <time>2026-06-17T09:09:36.000Z</time>
        <extensions>
          <ns3:TrackPointExtension>
            <ns3:atemp>24.0</ns3:atemp>
          </ns3:TrackPointExtension>
        </extensions>
      </trkpt>
      <trkpt lat="42.5257815420627593994140625" lon="19.9484445713460445404052734375">
        <ele>1783.199951171875</ele>
        <time>2026-06-17T09:09:37.000Z</time>
        <extensions>
          <ns3:TrackPointExtension>
            <ns3:atemp>24.0</ns3:atemp>
          </ns3:TrackPointExtension>
        </extensions>
      </trkpt>
      <trkpt lat="42.52576435916125774383544921875" lon="19.94840844534337520599365234375">
        <ele>1783.4000244140625</ele>
        <time>2026-06-17T09:09:38.000Z</time>
        <extensions>
          <ns3:TrackPointExtension>
            <ns3:atemp>24.0</ns3:atemp>
          </ns3:TrackPointExtension>
        </extensions>
      </trkpt>
      <trkpt lat="42.52574575133621692657470703125" lon="19.9483765102922916412353515625">
        <ele>1783.5999755859375</ele>
        <time>2026-06-17T09:09:39.000Z</time>
        <extensions>
          <ns3:TrackPointExtension>
            <ns3:atemp>24.0</ns3:atemp>
          </ns3:TrackPointExtension>
        </extensions>
      </trkpt>
      <trkpt lat="42.52572747878730297088623046875" lon="19.948344491422176361083984375">
        <ele>1783.800048828125</ele>
        <time>2026-06-17T09:09:40.000Z</time>
        <extensions>
          <ns3:TrackPointExtension>
            <ns3:atemp>24.0</ns3:atemp>
          </ns3:TrackPointExtension>
        </extensions>
      </trkpt>
      <trkpt lat="42.525706775486469268798828125" lon="19.94830568321049213409423828125">
        <ele>1783.800048828125</ele>
        <time>2026-06-17T09:09:41.000Z</time>
        <extensions>
          <ns3:TrackPointExtension>
            <ns3:atemp>24.0</ns3:atemp>
          </ns3:TrackPointExtension>
        </extensions>
      </trkpt>
      <trkpt lat="42.52568523399531841278076171875" lon="19.94826863519847393035888671875">
        <ele>1784</ele>
        <time>2026-06-17T09:09:42.000Z</time>
        <extensions>
          <ns3:TrackPointExtension>
            <ns3:atemp>24.0</ns3:atemp>
          </ns3:TrackPointExtension>
        </extensions>
      </trkpt>
      <trkpt lat="42.52566427923738956451416015625" lon="19.94823594577610492706298828125">
        <ele>1784.199951171875</ele>
        <time>2026-06-17T09:09:43.000Z</time>
        <extensions>
          <ns3:TrackPointExtension>
            <ns3:atemp>24.0</ns3:atemp>
          </ns3:TrackPointExtension>
        </extensions>
      </trkpt>
      <trkpt lat="42.52564609050750732421875" lon="19.94820392690598964691162109375">
        <ele>1784.199951171875</ele>
        <time>2026-06-17T09:09:44.000Z</time>
        <extensions>
          <ns3:TrackPointExtension>
            <ns3:atemp>24.0</ns3:atemp>
          </ns3:TrackPointExtension>
        </extensions>
      </trkpt>
      <trkpt lat="42.5256232917308807373046875" lon="19.94817257858812808990478515625">
        <ele>1784.4000244140625</ele>
        <time>2026-06-17T09:09:45.000Z</time>
        <extensions>
          <ns3:TrackPointExtension>
            <ns3:atemp>24.0</ns3:atemp>
          </ns3:TrackPointExtension>
        </extensions>
      </trkpt>
      <trkpt lat="42.52559906803071498870849609375" lon="19.94814324192702770233154296875">
        <ele>1784.5999755859375</ele>
        <time>2026-06-17T09:09:46.000Z</time>
        <extensions>
          <ns3:TrackPointExtension>
            <ns3:atemp>24.0</ns3:atemp>
          </ns3:TrackPointExtension>
        </extensions>
      </trkpt>
      <trkpt lat="42.52557459287345409393310546875" lon="19.94810652919113636016845703125">
        <ele>1784.800048828125</ele>
        <time>2026-06-17T09:09:47.000Z</time>
        <extensions>
          <ns3:TrackPointExtension>
            <ns3:atemp>24.0</ns3:atemp>
          </ns3:TrackPointExtension>
        </extensions>
      </trkpt>
      <trkpt lat="42.52555162645876407623291015625" lon="19.94807166047394275665283203125">
        <ele>1784.800048828125</ele>
        <time>2026-06-17T09:09:48.000Z</time>
        <extensions>
          <ns3:TrackPointExtension>
            <ns3:atemp>24.0</ns3:atemp>
          </ns3:TrackPointExtension>
        </extensions>
      </trkpt>
      <trkpt lat="42.5255248881876468658447265625" lon="19.94803695939481258392333984375">
        <ele>1785</ele>
        <time>2026-06-17T09:09:49.000Z</time>
        <extensions>
          <ns3:TrackPointExtension>
            <ns3:atemp>24.0</ns3:atemp>
          </ns3:TrackPointExtension>
        </extensions>
      </trkpt>
      <trkpt lat="42.52550167031586170196533203125" lon="19.94800594635307788848876953125">
        <ele>1785</ele>
        <time>2026-06-17T09:09:50.000Z</time>
        <extensions>
          <ns3:TrackPointExtension>
            <ns3:atemp>24.0</ns3:atemp>
          </ns3:TrackPointExtension>
        </extensions>
      </trkpt>
      <trkpt lat="42.525479793548583984375" lon="19.94797644205391407012939453125">
        <ele>1785.199951171875</ele>
        <time>2026-06-17T09:09:51.000Z</time>
        <extensions>
          <ns3:TrackPointExtension>
            <ns3:atemp>24.0</ns3:atemp>
          </ns3:TrackPointExtension>
        </extensions>
      </trkpt>
      <trkpt lat="42.52545808441936969757080078125" lon="19.94794509373605251312255859375">
        <ele>1785.199951171875</ele>
        <time>2026-06-17T09:09:52.000Z</time>
        <extensions>
          <ns3:TrackPointExtension>
            <ns3:atemp>23.0</ns3:atemp>
          </ns3:TrackPointExtension>
        </extensions>
      </trkpt>
      <trkpt lat="42.5254390574991703033447265625" lon="19.94791592471301555633544921875">
        <ele>1785.4000244140625</ele>
        <time>2026-06-17T09:09:53.000Z</time>
        <extensions>
          <ns3:TrackPointExtension>
            <ns3:atemp>23.0</ns3:atemp>
          </ns3:TrackPointExtension>
        </extensions>
      </trkpt>
      <trkpt lat="42.52542187459766864776611328125" lon="19.9478806369006633758544921875">
        <ele>1785.5999755859375</ele>
        <time>2026-06-17T09:09:54.000Z</time>
        <extensions>
          <ns3:TrackPointExtension>
            <ns3:atemp>24.0</ns3:atemp>
          </ns3:TrackPointExtension>
        </extensions>
      </trkpt>
      <trkpt lat="42.525399662554264068603515625" lon="19.947846271097660064697265625">
        <ele>1785.800048828125</ele>
        <time>2026-06-17T09:09:55.000Z</time>
        <extensions>
          <ns3:TrackPointExtension>
            <ns3:atemp>23.0</ns3:atemp>
          </ns3:TrackPointExtension>
        </extensions>
      </trkpt>
      <trkpt lat="42.52537225373089313507080078125" lon="19.9478182755410671234130859375">
        <ele>1786</ele>
        <time>2026-06-17T09:09:56.000Z</time>
        <extensions>
          <ns3:TrackPointExtension>
            <ns3:atemp>23.0</ns3:atemp>
          </ns3:TrackPointExtension>
        </extensions>
      </trkpt>
      <trkpt lat="42.52533830702304840087890625" lon="19.94780545122921466827392578125">
        <ele>1786</ele>
        <time>2026-06-17T09:09:57.000Z</time>
        <extensions>
          <ns3:TrackPointExtension>
            <ns3:atemp>23.0</ns3:atemp>
          </ns3:TrackPointExtension>
        </extensions>
      </trkpt>
      <trkpt lat="42.52530352212488651275634765625" lon="19.94779908098280429840087890625">
        <ele>1786.4000244140625</ele>
        <time>2026-06-17T09:09:58.000Z</time>
        <extensions>
          <ns3:TrackPointExtension>
            <ns3:atemp>23.0</ns3:atemp>
          </ns3:TrackPointExtension>
        </extensions>
      </trkpt>
      <trkpt lat="42.52526731230318546295166015625" lon="19.94780578650534152984619140625">
        <ele>1786.5999755859375</ele>
        <time>2026-06-17T09:09:59.000Z</time>
        <extensions>
          <ns3:TrackPointExtension>
            <ns3:atemp>23.0</ns3:atemp>
          </ns3:TrackPointExtension>
        </extensions>
      </trkpt>
      <trkpt lat="42.52523730508983135223388671875" lon="19.9478137493133544921875">
        <ele>1786.800048828125</ele>
        <time>2026-06-17T09:10:00.000Z</time>
        <extensions>
          <ns3:TrackPointExtension>
            <ns3:atemp>23.0</ns3:atemp>
          </ns3:TrackPointExtension>
        </extensions>
      </trkpt>
      <trkpt lat="42.52521249465644359588623046875" lon="19.94782489724457263946533203125">
        <ele>1787</ele>
        <time>2026-06-17T09:10:01.000Z</time>
        <extensions>
          <ns3:TrackPointExtension>
            <ns3:atemp>23.0</ns3:atemp>
          </ns3:TrackPointExtension>
        </extensions>
      </trkpt>
      <trkpt lat="42.5251869298517704010009765625" lon="19.94783646427094936370849609375">
        <ele>1787.199951171875</ele>
        <time>2026-06-17T09:10:02.000Z</time>
        <extensions>
          <ns3:TrackPointExtension>
            <ns3:atemp>23.0</ns3:atemp>
          </ns3:TrackPointExtension>
        </extensions>
      </trkpt>
      <trkpt lat="42.52516522072255611419677734375" lon="19.9478457681834697723388671875">
        <ele>1787.4000244140625</ele>
        <time>2026-06-17T09:10:03.000Z</time>
        <extensions>
          <ns3:TrackPointExtension>
            <ns3:atemp>23.0</ns3:atemp>
          </ns3:TrackPointExtension>
        </extensions>
      </trkpt>
      <trkpt lat="42.525142170488834381103515625" lon="19.94785121642053127288818359375">
        <ele>1787.5999755859375</ele>
        <time>2026-06-17T09:10:04.000Z</time>
        <extensions>
          <ns3:TrackPointExtension>
            <ns3:atemp>23.0</ns3:atemp>
          </ns3:TrackPointExtension>
        </extensions>
      </trkpt>
      <trkpt lat="42.52511526457965373992919921875" lon="19.94785876013338565826416015625">
        <ele>1787.800048828125</ele>
        <time>2026-06-17T09:10:05.000Z</time>
        <extensions>
          <ns3:TrackPointExtension>
            <ns3:atemp>23.0</ns3:atemp>
          </ns3:TrackPointExtension>
        </extensions>
      </trkpt>
      <trkpt lat="42.5250893644988536834716796875" lon="19.94785825721919536590576171875">
        <ele>1788</ele>
        <time>2026-06-17T09:10:06.000Z</time>
        <extensions>
          <ns3:TrackPointExtension>
            <ns3:atemp>23.0</ns3:atemp>
          </ns3:TrackPointExtension>
        </extensions>
      </trkpt>
      <trkpt lat="42.52506329677999019622802734375" lon="19.9478561617434024810791015625">
        <ele>1788.199951171875</ele>
        <time>2026-06-17T09:10:07.000Z</time>
        <extensions>
          <ns3:TrackPointExtension>
            <ns3:atemp>23.0</ns3:atemp>
          </ns3:TrackPointExtension>
        </extensions>
      </trkpt>
      <trkpt lat="42.5250303559005260467529296875" lon="19.9478618614375591278076171875">
        <ele>1788.4000244140625</ele>
        <time>2026-06-17T09:10:08.000Z</time>
        <extensions>
          <ns3:TrackPointExtension>
            <ns3:atemp>23.0</ns3:atemp>
          </ns3:TrackPointExtension>
        </extensions>
      </trkpt>
      <trkpt lat="42.5249914638698101043701171875" lon="19.947869069874286651611328125">
        <ele>1788.800048828125</ele>
        <time>2026-06-17T09:10:09.000Z</time>
        <extensions>
          <ns3:TrackPointExtension>
            <ns3:atemp>23.0</ns3:atemp>
          </ns3:TrackPointExtension>
        </extensions>
      </trkpt>
      <trkpt lat="42.52495315857231616973876953125" lon="19.9478786252439022064208984375">
        <ele>1789</ele>
        <time>2026-06-17T09:10:10.000Z</time>
        <extensions>
          <ns3:TrackPointExtension>
            <ns3:atemp>23.0</ns3:atemp>
          </ns3:TrackPointExtension>
        </extensions>
      </trkpt>
      <trkpt lat="42.5249126739799976348876953125" lon="19.94789346121251583099365234375">
        <ele>1789</ele>
        <time>2026-06-17T09:10:11.000Z</time>
        <extensions>
          <ns3:TrackPointExtension>
            <ns3:atemp>23.0</ns3:atemp>
          </ns3:TrackPointExtension>
        </extensions>
      </trkpt>
      <trkpt lat="42.5248764641582965850830078125" lon="19.94790368713438510894775390625">
        <ele>1789.199951171875</ele>
        <time>2026-06-17T09:10:12.000Z</time>
        <extensions>
          <ns3:TrackPointExtension>
            <ns3:atemp>23.0</ns3:atemp>
          </ns3:TrackPointExtension>
        </extensions>
      </trkpt>
      <trkpt lat="42.5248422659933567047119140625" lon="19.9479031004011631011962890625">
        <ele>1789.4000244140625</ele>
        <time>2026-06-17T09:10:13.000Z</time>
        <extensions>
          <ns3:TrackPointExtension>
            <ns3:atemp>23.0</ns3:atemp>
          </ns3:TrackPointExtension>
        </extensions>
      </trkpt>
      <trkpt lat="42.5248084031045436859130859375" lon="19.9479004181921482086181640625">
        <ele>1789.5999755859375</ele>
        <time>2026-06-17T09:10:14.000Z</time>
        <extensions>
          <ns3:TrackPointExtension>
            <ns3:atemp>23.0</ns3:atemp>
          </ns3:TrackPointExtension>
        </extensions>
      </trkpt>
      <trkpt lat="42.524776048958301544189453125" lon="19.94788943789899349212646484375">
        <ele>1790</ele>
        <time>2026-06-17T09:10:15.000Z</time>
        <extensions>
          <ns3:TrackPointExtension>
            <ns3:atemp>23.0</ns3:atemp>
          </ns3:TrackPointExtension>
        </extensions>
      </trkpt>
      <trkpt lat="42.52474310807883739471435546875" lon="19.9478789605200290679931640625">
        <ele>1790.199951171875</ele>
        <time>2026-06-17T09:10:16.000Z</time>
        <extensions>
          <ns3:TrackPointExtension>
            <ns3:atemp>23.0</ns3:atemp>
          </ns3:TrackPointExtension>
        </extensions>
      </trkpt>
      <trkpt lat="42.52471075393259525299072265625" lon="19.94786982424557209014892578125">
        <ele>1790.4000244140625</ele>
        <time>2026-06-17T09:10:17.000Z</time>
        <extensions>
          <ns3:TrackPointExtension>
            <ns3:atemp>23.0</ns3:atemp>
          </ns3:TrackPointExtension>
        </extensions>
      </trkpt>
      <trkpt lat="42.52468158490955829620361328125" lon="19.94786026887595653533935546875">
        <ele>1790.5999755859375</ele>
        <time>2026-06-17T09:10:18.000Z</time>
        <extensions>
          <ns3:TrackPointExtension>
            <ns3:atemp>23.0</ns3:atemp>
          </ns3:TrackPointExtension>
        </extensions>
      </trkpt>
      <trkpt lat="42.52464738674461841583251953125" lon="19.94784618727862834930419921875">
        <ele>1790.800048828125</ele>
        <time>2026-06-17T09:10:19.000Z</time>
        <extensions>
          <ns3:TrackPointExtension>
            <ns3:atemp>23.0</ns3:atemp>
          </ns3:TrackPointExtension>
        </extensions>
      </trkpt>
      <trkpt lat="42.524611763656139373779296875" lon="19.947831518948078155517578125">
        <ele>1791</ele>
        <time>2026-06-17T09:10:20.000Z</time>
        <extensions>
          <ns3:TrackPointExtension>
            <ns3:atemp>23.0</ns3:atemp>
          </ns3:TrackPointExtension>
        </extensions>
      </trkpt>
      <trkpt lat="42.52457320690155029296875" lon="19.94782238267362117767333984375">
        <ele>1791</ele>
        <time>2026-06-17T09:10:21.000Z</time>
        <extensions>
          <ns3:TrackPointExtension>
            <ns3:atemp>23.0</ns3:atemp>
          </ns3:TrackPointExtension>
        </extensions>
      </trkpt>
      <trkpt lat="42.524535320699214935302734375" lon="19.94781970046460628509521484375">
        <ele>1791.199951171875</ele>
        <time>2026-06-17T09:10:22.000Z</time>
        <extensions>
          <ns3:TrackPointExtension>
            <ns3:atemp>23.0</ns3:atemp>
          </ns3:TrackPointExtension>
        </extensions>
      </trkpt>
      <trkpt lat="42.52449617721140384674072265625" lon="19.9478108994662761688232421875">
        <ele>1791.199951171875</ele>
        <time>2026-06-17T09:10:23.000Z</time>
        <extensions>
          <ns3:TrackPointExtension>
            <ns3:atemp>23.0</ns3:atemp>
          </ns3:TrackPointExtension>
        </extensions>
      </trkpt>
      <trkpt lat="42.5244620628654956817626953125" lon="19.9477989971637725830078125">
        <ele>1791.4000244140625</ele>
        <time>2026-06-17T09:10:24.000Z</time>
        <extensions>
          <ns3:TrackPointExtension>
            <ns3:atemp>23.0</ns3:atemp>
          </ns3:TrackPointExtension>
        </extensions>
      </trkpt>
      <trkpt lat="42.52442711032927036285400390625" lon="19.94779287837445735931396484375">
        <ele>1791.4000244140625</ele>
        <time>2026-06-17T09:10:25.000Z</time>
        <extensions>
          <ns3:TrackPointExtension>
            <ns3:atemp>23.0</ns3:atemp>
          </ns3:TrackPointExtension>
        </extensions>
      </trkpt>
      <trkpt lat="42.5243916548788547515869140625" lon="19.94778784923255443572998046875">
        <ele>1791.4000244140625</ele>
        <time>2026-06-17T09:10:26.000Z</time>
        <extensions>
          <ns3:TrackPointExtension>
            <ns3:atemp>23.0</ns3:atemp>
          </ns3:TrackPointExtension>
        </extensions>
      </trkpt>
      <trkpt lat="42.524358965456485748291015625" lon="19.94777359999716281890869140625">
        <ele>1791.4000244140625</ele>
        <time>2026-06-17T09:10:27.000Z</time>
        <extensions>
          <ns3:TrackPointExtension>
            <ns3:atemp>23.0</ns3:atemp>
          </ns3:TrackPointExtension>
        </extensions>
      </trkpt>
      <trkpt lat="42.52432803623378276824951171875" lon="19.9477599374949932098388671875">
        <ele>1791.4000244140625</ele>
        <time>2026-06-17T09:10:28.000Z</time>
        <extensions>
          <ns3:TrackPointExtension>
            <ns3:atemp>23.0</ns3:atemp>
          </ns3:TrackPointExtension>
        </extensions>
      </trkpt>
      <trkpt lat="42.52428528852760791778564453125" lon="19.9477522261440753936767578125">
        <ele>1791.4000244140625</ele>
        <time>2026-06-17T09:10:29.000Z</time>
        <extensions>
          <ns3:TrackPointExtension>
            <ns3:atemp>23.0</ns3:atemp>
          </ns3:TrackPointExtension>
        </extensions>
      </trkpt>
      <trkpt lat="42.52424522303044795989990234375" lon="19.9477482028305530548095703125">
        <ele>1791.4000244140625</ele>
        <time>2026-06-17T09:10:30.000Z</time>
        <extensions>
          <ns3:TrackPointExtension>
            <ns3:atemp>23.0</ns3:atemp>
          </ns3:TrackPointExtension>
        </extensions>
      </trkpt>
      <trkpt lat="42.5241990387439727783203125" lon="19.94774602353572845458984375">
        <ele>1791.4000244140625</ele>
        <time>2026-06-17T09:10:31.000Z</time>
        <extensions>
          <ns3:TrackPointExtension>
            <ns3:atemp>23.0</ns3:atemp>
          </ns3:TrackPointExtension>
        </extensions>
      </trkpt>
      <trkpt lat="42.52416106872260570526123046875" lon="19.94774946011602878570556640625">
        <ele>1791.4000244140625</ele>
        <time>2026-06-17T09:10:32.000Z</time>
        <extensions>
          <ns3:TrackPointExtension>
            <ns3:atemp>23.0</ns3:atemp>
          </ns3:TrackPointExtension>
        </extensions>
      </trkpt>
      <trkpt lat="42.52412368543446063995361328125" lon="19.94775298051536083221435546875">
        <ele>1791.4000244140625</ele>
        <time>2026-06-17T09:10:33.000Z</time>
        <extensions>
          <ns3:TrackPointExtension>
            <ns3:atemp>23.0</ns3:atemp>
          </ns3:TrackPointExtension>
        </extensions>
      </trkpt>
      <trkpt lat="42.5240838713943958282470703125" lon="19.94774778373539447784423828125">
        <ele>1791.4000244140625</ele>
        <time>2026-06-17T09:10:34.000Z</time>
        <extensions>
          <ns3:TrackPointExtension>
            <ns3:atemp>23.0</ns3:atemp>
          </ns3:TrackPointExtension>
        </extensions>
      </trkpt>
      <trkpt lat="42.5240434706211090087890625" lon="19.94774107821285724639892578125">
        <ele>1791.199951171875</ele>
        <time>2026-06-17T09:10:35.000Z</time>
        <extensions>
          <ns3:TrackPointExtension>
            <ns3:atemp>23.0</ns3:atemp>
          </ns3:TrackPointExtension>
        </extensions>
      </trkpt>
      <trkpt lat="42.52399879507720470428466796875" lon="19.94772666133940219879150390625">
        <ele>1791.199951171875</ele>
        <time>2026-06-17T09:10:36.000Z</time>
        <extensions>
          <ns3:TrackPointExtension>
            <ns3:atemp>23.0</ns3:atemp>
          </ns3:TrackPointExtension>
        </extensions>
      </trkpt>
      <trkpt lat="42.5239524431526660919189453125" lon="19.94770713150501251220703125">
        <ele>1790.800048828125</ele>
        <time>2026-06-17T09:10:37.000Z</time>
        <extensions>
          <ns3:TrackPointExtension>
            <ns3:atemp>23.0</ns3:atemp>
          </ns3:TrackPointExtension>
        </extensions>
      </trkpt>
      <trkpt lat="42.523903660476207733154296875" lon="19.94768257252871990203857421875">
        <ele>1790.800048828125</ele>
        <time>2026-06-17T09:10:38.000Z</time>
        <extensions>
          <ns3:TrackPointExtension>
            <ns3:atemp>23.0</ns3:atemp>
          </ns3:TrackPointExtension>
        </extensions>
      </trkpt>
      <trkpt lat="42.523856721818447113037109375" lon="19.947657845914363861083984375">
        <ele>1790.4000244140625</ele>
        <time>2026-06-17T09:10:39.000Z</time>
        <extensions>
          <ns3:TrackPointExtension>
            <ns3:atemp>23.0</ns3:atemp>
          </ns3:TrackPointExtension>
        </extensions>
      </trkpt>
      <trkpt lat="42.52382285892963409423828125" lon="19.947624988853931427001953125">
        <ele>1790.199951171875</ele>
        <time>2026-06-17T09:10:40.000Z</time>
        <extensions>
          <ns3:TrackPointExtension>
            <ns3:atemp>23.0</ns3:atemp>
          </ns3:TrackPointExtension>
        </extensions>
      </trkpt>
      <trkpt lat="42.52378371544182300567626953125" lon="19.94759422726929187774658203125">
        <ele>1790.199951171875</ele>
        <time>2026-06-17T09:10:41.000Z</time>
        <extensions>
          <ns3:TrackPointExtension>
            <ns3:atemp>23.0</ns3:atemp>
          </ns3:TrackPointExtension>
        </extensions>
      </trkpt>
      <trkpt lat="42.52375069074332714080810546875" lon="19.94757042266428470611572265625">
        <ele>1790</ele>
        <time>2026-06-17T09:10:42.000Z</time>
        <extensions>
          <ns3:TrackPointExtension>
            <ns3:atemp>23.0</ns3:atemp>
          </ns3:TrackPointExtension>
        </extensions>
      </trkpt>
      <trkpt lat="42.52371422946453094482421875" lon="19.9475453607738018035888671875">
        <ele>1789.800048828125</ele>
        <time>2026-06-17T09:10:43.000Z</time>
        <extensions>
          <ns3:TrackPointExtension>
            <ns3:atemp>23.0</ns3:atemp>
          </ns3:TrackPointExtension>
        </extensions>
      </trkpt>
      <trkpt lat="42.52368598245084285736083984375" lon="19.94751409627497196197509765625">
        <ele>1789.800048828125</ele>
        <time>2026-06-17T09:10:44.000Z</time>
        <extensions>
          <ns3:TrackPointExtension>
            <ns3:atemp>23.0</ns3:atemp>
          </ns3:TrackPointExtension>
        </extensions>
      </trkpt>
      <trkpt lat="42.52365195192396640777587890625" lon="19.94748643599450588226318359375">
        <ele>1789.800048828125</ele>
        <time>2026-06-17T09:10:45.000Z</time>
        <extensions>
          <ns3:TrackPointExtension>
            <ns3:atemp>23.0</ns3:atemp>
          </ns3:TrackPointExtension>
        </extensions>
      </trkpt>
      <trkpt lat="42.52362110652029514312744140625" lon="19.94745776988565921783447265625">
        <ele>1789.800048828125</ele>
        <time>2026-06-17T09:10:46.000Z</time>
        <extensions>
          <ns3:TrackPointExtension>
            <ns3:atemp>23.0</ns3:atemp>
          </ns3:TrackPointExtension>
        </extensions>
      </trkpt>
      <trkpt lat="42.52358640544116497039794921875" lon="19.94741753675043582916259765625">
        <ele>1789.800048828125</ele>
        <time>2026-06-17T09:10:47.000Z</time>
        <extensions>
          <ns3:TrackPointExtension>
            <ns3:atemp>23.0</ns3:atemp>
          </ns3:TrackPointExtension>
        </extensions>
      </trkpt>
      <trkpt lat="42.52355908043682575225830078125" lon="19.947376213967800140380859375">
        <ele>1789.800048828125</ele>
        <time>2026-06-17T09:10:48.000Z</time>
        <extensions>
          <ns3:TrackPointExtension>
            <ns3:atemp>23.0</ns3:atemp>
          </ns3:TrackPointExtension>
        </extensions>
      </trkpt>
      <trkpt lat="42.5235310010612010955810546875" lon="19.94734059087932109832763671875">
        <ele>1789.800048828125</ele>
        <time>2026-06-17T09:10:49.000Z</time>
        <extensions>
          <ns3:TrackPointExtension>
            <ns3:atemp>23.0</ns3:atemp>
          </ns3:TrackPointExtension>
        </extensions>
      </trkpt>
      <trkpt lat="42.52350124530494213104248046875" lon="19.94730488397181034088134765625">
        <ele>1789.800048828125</ele>
        <time>2026-06-17T09:10:50.000Z</time>
        <extensions>
          <ns3:TrackPointExtension>
            <ns3:atemp>23.0</ns3:atemp>
          </ns3:TrackPointExtension>
        </extensions>
      </trkpt>
      <trkpt lat="42.52347341738641262054443359375" lon="19.94727395474910736083984375">
        <ele>1789.800048828125</ele>
        <time>2026-06-17T09:10:51.000Z</time>
        <extensions>
          <ns3:TrackPointExtension>
            <ns3:atemp>23.0</ns3:atemp>
          </ns3:TrackPointExtension>
        </extensions>
      </trkpt>
      <trkpt lat="42.523448355495929718017578125" lon="19.94724051095545291900634765625">
        <ele>1790</ele>
        <time>2026-06-17T09:10:52.000Z</time>
        <extensions>
          <ns3:TrackPointExtension>
            <ns3:atemp>23.0</ns3:atemp>
          </ns3:TrackPointExtension>
        </extensions>
      </trkpt>
      <trkpt lat="42.523420192301273345947265625" lon="19.94720757007598876953125">
        <ele>1790.199951171875</ele>
        <time>2026-06-17T09:10:53.000Z</time>
        <extensions>
          <ns3:TrackPointExtension>
            <ns3:atemp>23.0</ns3:atemp>
          </ns3:TrackPointExtension>
        </extensions>
      </trkpt>
      <trkpt lat="42.5233895145356655120849609375" lon="19.94716591201722621917724609375">
        <ele>1790.4000244140625</ele>
        <time>2026-06-17T09:10:54.000Z</time>
        <extensions>
          <ns3:TrackPointExtension>
            <ns3:atemp>23.0</ns3:atemp>
          </ns3:TrackPointExtension>
        </extensions>
      </trkpt>
      <trkpt lat="42.5233630277216434478759765625" lon="19.94713238440454006195068359375">
        <ele>1790.5999755859375</ele>
        <time>2026-06-17T09:10:55.000Z</time>
        <extensions>
          <ns3:TrackPointExtension>
            <ns3:atemp>23.0</ns3:atemp>
          </ns3:TrackPointExtension>
        </extensions>
      </trkpt>
      <trkpt lat="42.52333042211830615997314453125" lon="19.94709969498217105865478515625">
        <ele>1790.800048828125</ele>
        <time>2026-06-17T09:10:56.000Z</time>
        <extensions>
          <ns3:TrackPointExtension>
            <ns3:atemp>23.0</ns3:atemp>
          </ns3:TrackPointExtension>
        </extensions>
      </trkpt>
      <trkpt lat="42.52330075018107891082763671875" lon="19.94706348516047000885009765625">
        <ele>1790.800048828125</ele>
        <time>2026-06-17T09:10:57.000Z</time>
        <extensions>
          <ns3:TrackPointExtension>
            <ns3:atemp>23.0</ns3:atemp>
          </ns3:TrackPointExtension>
        </extensions>
      </trkpt>
      <trkpt lat="42.52327476628124713897705078125" lon="19.94703129865229129791259765625">
        <ele>1791</ele>
        <time>2026-06-17T09:10:58.000Z</time>
        <extensions>
          <ns3:TrackPointExtension>
            <ns3:atemp>23.0</ns3:atemp>
          </ns3:TrackPointExtension>
        </extensions>
      </trkpt>
      <trkpt lat="42.52324844710528850555419921875" lon="19.9470012076199054718017578125">
        <ele>1791.199951171875</ele>
        <time>2026-06-17T09:10:59.000Z</time>
        <extensions>
          <ns3:TrackPointExtension>
            <ns3:atemp>23.0</ns3:atemp>
          </ns3:TrackPointExtension>
        </extensions>
      </trkpt>
      <trkpt lat="42.523221038281917572021484375" lon="19.94696541689336299896240234375">
        <ele>1791.199951171875</ele>
        <time>2026-06-17T09:11:00.000Z</time>
        <extensions>
          <ns3:TrackPointExtension>
            <ns3:atemp>23.0</ns3:atemp>
          </ns3:TrackPointExtension>
        </extensions>
      </trkpt>
      <trkpt lat="42.5231974013149738311767578125" lon="19.94693197309970855712890625">
        <ele>1791.4000244140625</ele>
        <time>2026-06-17T09:11:01.000Z</time>
        <extensions>
          <ns3:TrackPointExtension>
            <ns3:atemp>23.0</ns3:atemp>
          </ns3:TrackPointExtension>
        </extensions>
      </trkpt>
      <trkpt lat="42.5231769494712352752685546875" lon="19.94688394479453563690185546875">
        <ele>1791.4000244140625</ele>
        <time>2026-06-17T09:11:02.000Z</time>
        <extensions>
          <ns3:TrackPointExtension>
            <ns3:atemp>23.0</ns3:atemp>
          </ns3:TrackPointExtension>
        </extensions>
      </trkpt>
      <trkpt lat="42.52315540798008441925048828125" lon="19.9468302167952060699462890625">
        <ele>1791.199951171875</ele>
        <time>2026-06-17T09:11:03.000Z</time>
        <extensions>
          <ns3:TrackPointExtension>
            <ns3:atemp>23.0</ns3:atemp>
          </ns3:TrackPointExtension>
        </extensions>
      </trkpt>
      <trkpt lat="42.523135207593441009521484375" lon="19.94677179493010044097900390625">
        <ele>1791.199951171875</ele>
        <time>2026-06-17T09:11:04.000Z</time>
        <extensions>
          <ns3:TrackPointExtension>
            <ns3:atemp>23.0</ns3:atemp>
          </ns3:TrackPointExtension>
        </extensions>
      </trkpt>
      <trkpt lat="42.5231152586638927459716796875" lon="19.9467195756733417510986328125">
        <ele>1790.800048828125</ele>
        <time>2026-06-17T09:11:05.000Z</time>
        <extensions>
          <ns3:TrackPointExtension>
            <ns3:atemp>23.0</ns3:atemp>
          </ns3:TrackPointExtension>
        </extensions>
      </trkpt>
      <trkpt lat="42.52308466471731662750244140625" lon="19.9466702900826930999755859375">
        <ele>1790.5999755859375</ele>
        <time>2026-06-17T09:11:06.000Z</time>
        <extensions>
          <ns3:TrackPointExtension>
            <ns3:atemp>23.0</ns3:atemp>
          </ns3:TrackPointExtension>
        </extensions>
      </trkpt>
      <trkpt lat="42.52306086011230945587158203125" lon="19.94661689735949039459228515625">
        <ele>1790.4000244140625</ele>
        <time>2026-06-17T09:11:07.000Z</time>
        <extensions>
          <ns3:TrackPointExtension>
            <ns3:atemp>23.0</ns3:atemp>
          </ns3:TrackPointExtension>
        </extensions>
      </trkpt>
      <trkpt lat="42.52302347682416439056396484375" lon="19.946572221815586090087890625">
        <ele>1790</ele>
        <time>2026-06-17T09:11:08.000Z</time>
        <extensions>
          <ns3:TrackPointExtension>
            <ns3:atemp>23.0</ns3:atemp>
          </ns3:TrackPointExtension>
        </extensions>
      </trkpt>
      <trkpt lat="42.5229841656982898712158203125" lon="19.946534335613250732421875">
        <ele>1789.800048828125</ele>
        <time>2026-06-17T09:11:09.000Z</time>
        <extensions>
          <ns3:TrackPointExtension>
            <ns3:atemp>23.0</ns3:atemp>
          </ns3:TrackPointExtension>
        </extensions>
      </trkpt>
      <trkpt lat="42.5229409150779247283935546875" lon="19.94649318046867847442626953125">
        <ele>1789.5999755859375</ele>
        <time>2026-06-17T09:11:10.000Z</time>
        <extensions>
          <ns3:TrackPointExtension>
            <ns3:atemp>23.0</ns3:atemp>
          </ns3:TrackPointExtension>
        </extensions>
      </trkpt>
      <trkpt lat="42.52288869582116603851318359375" lon="19.9464553780853748321533203125">
        <ele>1789.4000244140625</ele>
        <time>2026-06-17T09:11:11.000Z</time>
        <extensions>
          <ns3:TrackPointExtension>
            <ns3:atemp>23.0</ns3:atemp>
          </ns3:TrackPointExtension>
        </extensions>
      </trkpt>
      <trkpt lat="42.5228416733443737030029296875" lon="19.9464181624352931976318359375">
        <ele>1789.199951171875</ele>
        <time>2026-06-17T09:11:12.000Z</time>
        <extensions>
          <ns3:TrackPointExtension>
            <ns3:atemp>23.0</ns3:atemp>
          </ns3:TrackPointExtension>
        </extensions>
      </trkpt>
      <trkpt lat="42.52280269749462604522705078125" lon="19.94639025069773197174072265625">
        <ele>1789</ele>
        <time>2026-06-17T09:11:13.000Z</time>
        <extensions>
          <ns3:TrackPointExtension>
            <ns3:atemp>23.0</ns3:atemp>
          </ns3:TrackPointExtension>
        </extensions>
      </trkpt>
      <trkpt lat="42.52276648767292499542236328125" lon="19.9463735707104206085205078125">
        <ele>1788.800048828125</ele>
        <time>2026-06-17T09:11:14.000Z</time>
        <extensions>
          <ns3:TrackPointExtension>
            <ns3:atemp>23.0</ns3:atemp>
          </ns3:TrackPointExtension>
        </extensions>
      </trkpt>
      <trkpt lat="42.52274234779179096221923828125" lon="19.94636342860758304595947265625">
        <ele>1788.5999755859375</ele>
        <time>2026-06-17T09:11:15.000Z</time>
        <extensions>
          <ns3:TrackPointExtension>
            <ns3:atemp>23.0</ns3:atemp>
          </ns3:TrackPointExtension>
        </extensions>
      </trkpt>
      <trkpt lat="42.52271912992000579833984375" lon="19.9463678710162639617919921875">
        <ele>1788.5999755859375</ele>
        <time>2026-06-17T09:11:16.000Z</time>
        <extensions>
          <ns3:TrackPointExtension>
            <ns3:atemp>23.0</ns3:atemp>
          </ns3:TrackPointExtension>
        </extensions>
      </trkpt>
      <trkpt lat="42.52270035445690155029296875" lon="19.9463742412626743316650390625">
        <ele>1788.4000244140625</ele>
        <time>2026-06-17T09:11:17.000Z</time>
        <extensions>
          <ns3:TrackPointExtension>
            <ns3:atemp>23.0</ns3:atemp>
          </ns3:TrackPointExtension>
        </extensions>
      </trkpt>
      <trkpt lat="42.52267981879413127899169921875" lon="19.94639611802995204925537109375">
        <ele>1788.4000244140625</ele>
        <time>2026-06-17T09:11:18.000Z</time>
        <extensions>
          <ns3:TrackPointExtension>
            <ns3:atemp>23.0</ns3:atemp>
          </ns3:TrackPointExtension>
        </extensions>
      </trkpt>
      <trkpt lat="42.5226636417210102081298828125" lon="19.94643232785165309906005859375">
        <ele>1788.4000244140625</ele>
        <time>2026-06-17T09:11:19.000Z</time>
        <extensions>
          <ns3:TrackPointExtension>
            <ns3:atemp>23.0</ns3:atemp>
          </ns3:TrackPointExtension>
        </extensions>
      </trkpt>
      <trkpt lat="42.52266087569296360015869140625" lon="19.946454204618930816650390625">
        <ele>1788.4000244140625</ele>
        <time>2026-06-17T09:11:20.000Z</time>
        <extensions>
          <ns3:TrackPointExtension>
            <ns3:atemp>23.0</ns3:atemp>
          </ns3:TrackPointExtension>
        </extensions>
      </trkpt>
      <trkpt lat="42.522665150463581085205078125" lon="19.9464766681194305419921875">
        <ele>1788.4000244140625</ele>
        <time>2026-06-17T09:11:21.000Z</time>
        <extensions>
          <ns3:TrackPointExtension>
            <ns3:atemp>23.0</ns3:atemp>
          </ns3:TrackPointExtension>
        </extensions>
      </trkpt>
      <trkpt lat="42.5226680003106594085693359375" lon="19.94649770669639110565185546875">
        <ele>1788.4000244140625</ele>
        <time>2026-06-17T09:11:22.000Z</time>
        <extensions>
          <ns3:TrackPointExtension>
            <ns3:atemp>23.0</ns3:atemp>
          </ns3:TrackPointExtension>
        </extensions>
      </trkpt>
      <trkpt lat="42.52267076633870601654052734375" lon="19.946520589292049407958984375">
        <ele>1788.5999755859375</ele>
        <time>2026-06-17T09:11:23.000Z</time>
        <extensions>
          <ns3:TrackPointExtension>
            <ns3:atemp>23.0</ns3:atemp>
          </ns3:TrackPointExtension>
        </extensions>
      </trkpt>
      <trkpt lat="42.522675208747386932373046875" lon="19.946544058620929718017578125">
        <ele>1788.800048828125</ele>
        <time>2026-06-17T09:11:24.000Z</time>
        <extensions>
          <ns3:TrackPointExtension>
            <ns3:atemp>23.0</ns3:atemp>
          </ns3:TrackPointExtension>
        </extensions>
      </trkpt>
      <trkpt lat="42.522679232060909271240234375" lon="19.9465740658342838287353515625">
        <ele>1788.800048828125</ele>
        <time>2026-06-17T09:11:25.000Z</time>
        <extensions>
          <ns3:TrackPointExtension>
            <ns3:atemp>23.0</ns3:atemp>
          </ns3:TrackPointExtension>
        </extensions>
      </trkpt>
      <trkpt lat="42.52268283627927303314208984375" lon="19.94660700671374797821044921875">
        <ele>1789</ele>
        <time>2026-06-17T09:11:26.000Z</time>
        <extensions>
          <ns3:TrackPointExtension>
            <ns3:atemp>23.0</ns3:atemp>
          </ns3:TrackPointExtension>
        </extensions>
      </trkpt>
      <trkpt lat="42.522677890956401824951171875" lon="19.94664103724062442779541015625">
        <ele>1789.199951171875</ele>
        <time>2026-06-17T09:11:27.000Z</time>
        <extensions>
          <ns3:TrackPointExtension>
            <ns3:atemp>23.0</ns3:atemp>
          </ns3:TrackPointExtension>
        </extensions>
      </trkpt>
      <trkpt lat="42.5226716883480548858642578125" lon="19.946670122444629669189453125">
        <ele>1789.4000244140625</ele>
        <time>2026-06-17T09:11:28.000Z</time>
        <extensions>
          <ns3:TrackPointExtension>
            <ns3:atemp>23.0</ns3:atemp>
          </ns3:TrackPointExtension>
        </extensions>
      </trkpt>
      <trkpt lat="42.52266573719680309295654296875" lon="19.94670792482793331146240234375">
        <ele>1789.4000244140625</ele>
        <time>2026-06-17T09:11:29.000Z</time>
        <extensions>
          <ns3:TrackPointExtension>
            <ns3:atemp>23.0</ns3:atemp>
          </ns3:TrackPointExtension>
        </extensions>
      </trkpt>
      <trkpt lat="42.5226592831313610076904296875" lon="19.9467408657073974609375">
        <ele>1789.5999755859375</ele>
        <time>2026-06-17T09:11:30.000Z</time>
        <extensions>
          <ns3:TrackPointExtension>
            <ns3:atemp>23.0</ns3:atemp>
          </ns3:TrackPointExtension>
        </extensions>
      </trkpt>
      <trkpt lat="42.5226505659520626068115234375" lon="19.9467738904058933258056640625">
        <ele>1789.800048828125</ele>
        <time>2026-06-17T09:11:31.000Z</time>
        <extensions>
          <ns3:TrackPointExtension>
            <ns3:atemp>22.0</ns3:atemp>
          </ns3:TrackPointExtension>
        </extensions>
      </trkpt>
      <trkpt lat="42.5226411782205104827880859375" lon="19.9468065798282623291015625">
        <ele>1790</ele>
        <time>2026-06-17T09:11:32.000Z</time>
        <extensions>
          <ns3:TrackPointExtension>
            <ns3:atemp>22.0</ns3:atemp>
          </ns3:TrackPointExtension>
        </extensions>
      </trkpt>
      <trkpt lat="42.522633634507656097412109375" lon="19.9468369223177433013916015625">
        <ele>1790.4000244140625</ele>
        <time>2026-06-17T09:11:33.000Z</time>
        <extensions>
          <ns3:TrackPointExtension>
            <ns3:atemp>22.0</ns3:atemp>
          </ns3:TrackPointExtension>
        </extensions>
      </trkpt>
      <trkpt lat="42.522621564567089080810546875" lon="19.9468734674155712127685546875">
        <ele>1790.5999755859375</ele>
        <time>2026-06-17T09:11:34.000Z</time>
        <extensions>
          <ns3:TrackPointExtension>
            <ns3:atemp>22.0</ns3:atemp>
          </ns3:TrackPointExtension>
        </extensions>
      </trkpt>
      <trkpt lat="42.52261041663587093353271484375" lon="19.946910180151462554931640625">
        <ele>1790.800048828125</ele>
        <time>2026-06-17T09:11:35.000Z</time>
        <extensions>
          <ns3:TrackPointExtension>
            <ns3:atemp>22.0</ns3:atemp>
          </ns3:TrackPointExtension>
        </extensions>
      </trkpt>
      <trkpt lat="42.5225972570478916168212890625" lon="19.946946389973163604736328125">
        <ele>1791</ele>
        <time>2026-06-17T09:11:36.000Z</time>
        <extensions>
          <ns3:TrackPointExtension>
            <ns3:atemp>22.0</ns3:atemp>
          </ns3:TrackPointExtension>
        </extensions>
      </trkpt>
      <trkpt lat="42.5225781463086605072021484375" lon="19.94697564281523227691650390625">
        <ele>1791.199951171875</ele>
        <time>2026-06-17T09:11:37.000Z</time>
        <extensions>
          <ns3:TrackPointExtension>
            <ns3:atemp>22.0</ns3:atemp>
          </ns3:TrackPointExtension>
        </extensions>
      </trkpt>
      <trkpt lat="42.522558532655239105224609375" lon="19.94700095616281032562255859375">
        <ele>1791.4000244140625</ele>
        <time>2026-06-17T09:11:38.000Z</time>
        <extensions>
          <ns3:TrackPointExtension>
            <ns3:atemp>22.0</ns3:atemp>
          </ns3:TrackPointExtension>
        </extensions>
      </trkpt>
      <trkpt lat="42.52253808081150054931640625" lon="19.9470273591578006744384765625">
        <ele>1791.5999755859375</ele>
        <time>2026-06-17T09:11:39.000Z</time>
        <extensions>
          <ns3:TrackPointExtension>
            <ns3:atemp>22.0</ns3:atemp>
          </ns3:TrackPointExtension>
        </extensions>
      </trkpt>
      <trkpt lat="42.5225174613296985626220703125" lon="19.94705359451472759246826171875">
        <ele>1791.800048828125</ele>
        <time>2026-06-17T09:11:40.000Z</time>
        <extensions>
          <ns3:TrackPointExtension>
            <ns3:atemp>22.0</ns3:atemp>
          </ns3:TrackPointExtension>
        </extensions>
      </trkpt>
      <trkpt lat="42.522495500743389129638671875" lon="19.9470823444426059722900390625">
        <ele>1792</ele>
        <time>2026-06-17T09:11:41.000Z</time>
        <extensions>
          <ns3:TrackPointExtension>
            <ns3:atemp>22.0</ns3:atemp>
          </ns3:TrackPointExtension>
        </extensions>
      </trkpt>
      <trkpt lat="42.5224738754332065582275390625" lon="19.947110675275325775146484375">
        <ele>1792.199951171875</ele>
        <time>2026-06-17T09:11:42.000Z</time>
        <extensions>
          <ns3:TrackPointExtension>
            <ns3:atemp>22.0</ns3:atemp>
          </ns3:TrackPointExtension>
        </extensions>
      </trkpt>
      <trkpt lat="42.52245937474071979522705078125" lon="19.94713925756514072418212890625">
        <ele>1792.4000244140625</ele>
        <time>2026-06-17T09:11:43.000Z</time>
        <extensions>
          <ns3:TrackPointExtension>
            <ns3:atemp>22.0</ns3:atemp>
          </ns3:TrackPointExtension>
        </extensions>
      </trkpt>
      <trkpt lat="42.52244244329631328582763671875" lon="19.9471678398549556732177734375">
        <ele>1792.5999755859375</ele>
        <time>2026-06-17T09:11:44.000Z</time>
        <extensions>
          <ns3:TrackPointExtension>
            <ns3:atemp>22.0</ns3:atemp>
          </ns3:TrackPointExtension>
        </extensions>
      </trkpt>
      <trkpt lat="42.52242282964289188385009765625" lon="19.94719575159251689910888671875">
        <ele>1792.800048828125</ele>
        <time>2026-06-17T09:11:45.000Z</time>
        <extensions>
          <ns3:TrackPointExtension>
            <ns3:atemp>22.0</ns3:atemp>
          </ns3:TrackPointExtension>
        </extensions>
      </trkpt>
      <trkpt lat="42.522407658398151397705078125" lon="19.94722156785428524017333984375">
        <ele>1793</ele>
        <time>2026-06-17T09:11:46.000Z</time>
        <extensions>
          <ns3:TrackPointExtension>
            <ns3:atemp>22.0</ns3:atemp>
          </ns3:TrackPointExtension>
        </extensions>
      </trkpt>
      <trkpt lat="42.522392235696315765380859375" lon="19.947245121002197265625">
        <ele>1793.199951171875</ele>
        <time>2026-06-17T09:11:47.000Z</time>
        <extensions>
          <ns3:TrackPointExtension>
            <ns3:atemp>22.0</ns3:atemp>
          </ns3:TrackPointExtension>
        </extensions>
      </trkpt>
      <trkpt lat="42.5223739631474018096923828125" lon="19.94726951234042644500732421875">
        <ele>1793.5999755859375</ele>
        <time>2026-06-17T09:11:48.000Z</time>
        <extensions>
          <ns3:TrackPointExtension>
            <ns3:atemp>22.0</ns3:atemp>
          </ns3:TrackPointExtension>
        </extensions>
      </trkpt>
      <trkpt lat="42.52235426567494869232177734375" lon="19.947293065488338470458984375">
        <ele>1793.800048828125</ele>
        <time>2026-06-17T09:11:49.000Z</time>
        <extensions>
          <ns3:TrackPointExtension>
            <ns3:atemp>22.0</ns3:atemp>
          </ns3:TrackPointExtension>
        </extensions>
      </trkpt>
      <trkpt lat="42.52233196981251239776611328125" lon="19.94731460697948932647705078125">
        <ele>1794.199951171875</ele>
        <time>2026-06-17T09:11:50.000Z</time>
        <extensions>
          <ns3:TrackPointExtension>
            <ns3:atemp>22.0</ns3:atemp>
          </ns3:TrackPointExtension>
        </extensions>
      </trkpt>
      <trkpt lat="42.522312104701995849609375" lon="19.94733036495745182037353515625">
        <ele>1794.4000244140625</ele>
        <time>2026-06-17T09:11:51.000Z</time>
        <extensions>
          <ns3:TrackPointExtension>
            <ns3:atemp>22.0</ns3:atemp>
          </ns3:TrackPointExtension>
        </extensions>
      </trkpt>
      <trkpt lat="42.52228997647762298583984375" lon="19.9473418481647968292236328125">
        <ele>1794.800048828125</ele>
        <time>2026-06-17T09:11:52.000Z</time>
        <extensions>
          <ns3:TrackPointExtension>
            <ns3:atemp>22.0</ns3:atemp>
          </ns3:TrackPointExtension>
        </extensions>
      </trkpt>
      <trkpt lat="42.5222646631300449371337890625" lon="19.9473562650382518768310546875">
        <ele>1795.199951171875</ele>
        <time>2026-06-17T09:11:53.000Z</time>
        <extensions>
          <ns3:TrackPointExtension>
            <ns3:atemp>22.0</ns3:atemp>
          </ns3:TrackPointExtension>
        </extensions>
      </trkpt>
      <trkpt lat="42.52223742194473743438720703125" lon="19.9473676644265651702880859375">
        <ele>1795.5999755859375</ele>
        <time>2026-06-17T09:11:54.000Z</time>
        <extensions>
          <ns3:TrackPointExtension>
            <ns3:atemp>22.0</ns3:atemp>
          </ns3:TrackPointExtension>
        </extensions>
      </trkpt>
      <trkpt lat="42.52221261151134967803955078125" lon="19.94737780652940273284912109375">
        <ele>1795.800048828125</ele>
        <time>2026-06-17T09:11:55.000Z</time>
        <extensions>
          <ns3:TrackPointExtension>
            <ns3:atemp>22.0</ns3:atemp>
          </ns3:TrackPointExtension>
        </extensions>
      </trkpt>
      <trkpt lat="42.52218729816377162933349609375" lon="19.94738417677581310272216796875">
        <ele>1796.199951171875</ele>
        <time>2026-06-17T09:11:56.000Z</time>
        <extensions>
          <ns3:TrackPointExtension>
            <ns3:atemp>22.0</ns3:atemp>
          </ns3:TrackPointExtension>
        </extensions>
      </trkpt>
      <trkpt lat="42.52216600812971591949462890625" lon="19.94739389978349208831787109375">
        <ele>1796.4000244140625</ele>
        <time>2026-06-17T09:11:57.000Z</time>
        <extensions>
          <ns3:TrackPointExtension>
            <ns3:atemp>22.0</ns3:atemp>
          </ns3:TrackPointExtension>
        </extensions>
      </trkpt>
      <trkpt lat="42.52214555628597736358642578125" lon="19.94740529917180538177490234375">
        <ele>1796.800048828125</ele>
        <time>2026-06-17T09:11:58.000Z</time>
        <extensions>
          <ns3:TrackPointExtension>
            <ns3:atemp>22.0</ns3:atemp>
          </ns3:TrackPointExtension>
        </extensions>
      </trkpt>
      <trkpt lat="42.522123344242572784423828125" lon="19.9474206380546092987060546875">
        <ele>1797</ele>
        <time>2026-06-17T09:11:59.000Z</time>
        <extensions>
          <ns3:TrackPointExtension>
            <ns3:atemp>22.0</ns3:atemp>
          </ns3:TrackPointExtension>
        </extensions>
      </trkpt>
      <trkpt lat="42.5221020542085170745849609375" lon="19.94743698276579380035400390625">
        <ele>1797.199951171875</ele>
        <time>2026-06-17T09:12:00.000Z</time>
        <extensions>
          <ns3:TrackPointExtension>
            <ns3:atemp>22.0</ns3:atemp>
          </ns3:TrackPointExtension>
        </extensions>
      </trkpt>
      <trkpt lat="42.52208168618381023406982421875" lon="19.94745391421020030975341796875">
        <ele>1797.5999755859375</ele>
        <time>2026-06-17T09:12:01.000Z</time>
        <extensions>
          <ns3:TrackPointExtension>
            <ns3:atemp>22.0</ns3:atemp>
          </ns3:TrackPointExtension>
        </extensions>
      </trkpt>
      <trkpt lat="42.52206173725426197052001953125" lon="19.9474717676639556884765625">
        <ele>1797.800048828125</ele>
        <time>2026-06-17T09:12:02.000Z</time>
        <extensions>
          <ns3:TrackPointExtension>
            <ns3:atemp>22.0</ns3:atemp>
          </ns3:TrackPointExtension>
        </extensions>
      </trkpt>
      <trkpt lat="42.5220430456101894378662109375" lon="19.94749180041253566741943359375">
        <ele>1798.199951171875</ele>
        <time>2026-06-17T09:12:03.000Z</time>
        <extensions>
          <ns3:TrackPointExtension>
            <ns3:atemp>22.0</ns3:atemp>
          </ns3:TrackPointExtension>
        </extensions>
      </trkpt>
      <trkpt lat="42.52202586270868778228759765625" lon="19.9475101567804813385009765625">
        <ele>1798.5999755859375</ele>
        <time>2026-06-17T09:12:04.000Z</time>
        <extensions>
          <ns3:TrackPointExtension>
            <ns3:atemp>22.0</ns3:atemp>
          </ns3:TrackPointExtension>
        </extensions>
      </trkpt>
      <trkpt lat="42.52200624905526638031005859375" lon="19.94751979596912860870361328125">
        <ele>1798.800048828125</ele>
        <time>2026-06-17T09:12:05.000Z</time>
        <extensions>
          <ns3:TrackPointExtension>
            <ns3:atemp>22.0</ns3:atemp>
          </ns3:TrackPointExtension>
        </extensions>
      </trkpt>
      <trkpt lat="42.521979510784149169921875" lon="19.94752834551036357879638671875">
        <ele>1799.199951171875</ele>
        <time>2026-06-17T09:12:06.000Z</time>
        <extensions>
          <ns3:TrackPointExtension>
            <ns3:atemp>22.0</ns3:atemp>
          </ns3:TrackPointExtension>
        </extensions>
      </trkpt>
      <trkpt lat="42.52195042558014392852783203125" lon="19.94752314873039722442626953125">
        <ele>1799.4000244140625</ele>
        <time>2026-06-17T09:12:07.000Z</time>
        <extensions>
          <ns3:TrackPointExtension>
            <ns3:atemp>22.0</ns3:atemp>
          </ns3:TrackPointExtension>
        </extensions>
      </trkpt>
      <trkpt lat="42.52192913554608821868896484375" lon="19.94750730693340301513671875">
        <ele>1799.5999755859375</ele>
        <time>2026-06-17T09:12:08.000Z</time>
        <extensions>
          <ns3:TrackPointExtension>
            <ns3:atemp>22.0</ns3:atemp>
          </ns3:TrackPointExtension>
        </extensions>
      </trkpt>
      <trkpt lat="42.52192058600485324859619140625" lon="19.9474793113768100738525390625">
        <ele>1800</ele>
        <time>2026-06-17T09:12:09.000Z</time>
        <extensions>
          <ns3:TrackPointExtension>
            <ns3:atemp>22.0</ns3:atemp>
          </ns3:TrackPointExtension>
        </extensions>
      </trkpt>
      <trkpt lat="42.52192092128098011016845703125" lon="19.9474481306970119476318359375">
        <ele>1800.199951171875</ele>
        <time>2026-06-17T09:12:10.000Z</time>
        <extensions>
          <ns3:TrackPointExtension>
            <ns3:atemp>22.0</ns3:atemp>
          </ns3:TrackPointExtension>
        </extensions>
      </trkpt>
      <trkpt lat="42.52192527987062931060791015625" lon="19.947419464588165283203125">
        <ele>1800.4000244140625</ele>
        <time>2026-06-17T09:12:11.000Z</time>
        <extensions>
          <ns3:TrackPointExtension>
            <ns3:atemp>22.0</ns3:atemp>
          </ns3:TrackPointExtension>
        </extensions>
      </trkpt>
      <trkpt lat="42.5219297222793102264404296875" lon="19.9473944865167140960693359375">
        <ele>1800.800048828125</ele>
        <time>2026-06-17T09:12:12.000Z</time>
        <extensions>
          <ns3:TrackPointExtension>
            <ns3:atemp>22.0</ns3:atemp>
          </ns3:TrackPointExtension>
        </extensions>
      </trkpt>
      <trkpt lat="42.52193768508732318878173828125" lon="19.947365485131740570068359375">
        <ele>1801</ele>
        <time>2026-06-17T09:12:13.000Z</time>
        <extensions>
          <ns3:TrackPointExtension>
            <ns3:atemp>22.0</ns3:atemp>
          </ns3:TrackPointExtension>
        </extensions>
      </trkpt>
      <trkpt lat="42.521946988999843597412109375" lon="19.9473378248512744903564453125">
        <ele>1801.199951171875</ele>
        <time>2026-06-17T09:12:14.000Z</time>
        <extensions>
          <ns3:TrackPointExtension>
            <ns3:atemp>22.0</ns3:atemp>
          </ns3:TrackPointExtension>
        </extensions>
      </trkpt>
      <trkpt lat="42.52195461653172969818115234375" lon="19.94731192477047443389892578125">
        <ele>1801.5999755859375</ele>
        <time>2026-06-17T09:12:15.000Z</time>
        <extensions>
          <ns3:TrackPointExtension>
            <ns3:atemp>22.0</ns3:atemp>
          </ns3:TrackPointExtension>
        </extensions>
      </trkpt>
      <trkpt lat="42.52195780165493488311767578125" lon="19.94728359393775463104248046875">
        <ele>1801.800048828125</ele>
        <time>2026-06-17T09:12:16.000Z</time>
        <extensions>
          <ns3:TrackPointExtension>
            <ns3:atemp>22.0</ns3:atemp>
          </ns3:TrackPointExtension>
        </extensions>
      </trkpt>
      <trkpt lat="42.521958388388156890869140625" lon="19.94725191034376621246337890625">
        <ele>1802.199951171875</ele>
        <time>2026-06-17T09:12:17.000Z</time>
        <extensions>
          <ns3:TrackPointExtension>
            <ns3:atemp>22.0</ns3:atemp>
          </ns3:TrackPointExtension>
        </extensions>
      </trkpt>
      <trkpt lat="42.52195931039750576019287109375" lon="19.94722190313041210174560546875">
        <ele>1802.5999755859375</ele>
        <time>2026-06-17T09:12:18.000Z</time>
        <extensions>
          <ns3:TrackPointExtension>
            <ns3:atemp>22.0</ns3:atemp>
          </ns3:TrackPointExtension>
        </extensions>
      </trkpt>
      <trkpt lat="42.5219612382352352142333984375" lon="19.94719558395445346832275390625">
        <ele>1803</ele>
        <time>2026-06-17T09:12:19.000Z</time>
        <extensions>
          <ns3:TrackPointExtension>
            <ns3:atemp>22.0</ns3:atemp>
          </ns3:TrackPointExtension>
        </extensions>
      </trkpt>
      <trkpt lat="42.52195914275944232940673828125" lon="19.94716775603592395782470703125">
        <ele>1803.199951171875</ele>
        <time>2026-06-17T09:12:20.000Z</time>
        <extensions>
          <ns3:TrackPointExtension>
            <ns3:atemp>22.0</ns3:atemp>
          </ns3:TrackPointExtension>
        </extensions>
      </trkpt>
      <trkpt lat="42.521956376731395721435546875" lon="19.9471430294215679168701171875">
        <ele>1803.800048828125</ele>
        <time>2026-06-17T09:12:21.000Z</time>
        <extensions>
          <ns3:TrackPointExtension>
            <ns3:atemp>22.0</ns3:atemp>
          </ns3:TrackPointExtension>
        </extensions>
      </trkpt>
      <trkpt lat="42.5219538621604442596435546875" lon="19.94711570441722869873046875">
        <ele>1804</ele>
        <time>2026-06-17T09:12:22.000Z</time>
        <extensions>
          <ns3:TrackPointExtension>
            <ns3:atemp>22.0</ns3:atemp>
          </ns3:TrackPointExtension>
        </extensions>
      </trkpt>
      <trkpt lat="42.52195067703723907470703125" lon="19.94708695448935031890869140625">
        <ele>1804.4000244140625</ele>
        <time>2026-06-17T09:12:23.000Z</time>
        <extensions>
          <ns3:TrackPointExtension>
            <ns3:atemp>22.0</ns3:atemp>
          </ns3:TrackPointExtension>
        </extensions>
      </trkpt>
      <trkpt lat="42.5219448097050189971923828125" lon="19.947055689990520477294921875">
        <ele>1804.800048828125</ele>
        <time>2026-06-17T09:12:24.000Z</time>
        <extensions>
          <ns3:TrackPointExtension>
            <ns3:atemp>22.0</ns3:atemp>
          </ns3:TrackPointExtension>
        </extensions>
      </trkpt>
      <trkpt lat="42.521940283477306365966796875" lon="19.94702341966331005096435546875">
        <ele>1805</ele>
        <time>2026-06-17T09:12:25.000Z</time>
        <extensions>
          <ns3:TrackPointExtension>
            <ns3:atemp>22.0</ns3:atemp>
          </ns3:TrackPointExtension>
        </extensions>
      </trkpt>
      <trkpt lat="42.52193701453506946563720703125" lon="19.94699710048735141754150390625">
        <ele>1805.4000244140625</ele>
        <time>2026-06-17T09:12:26.000Z</time>
        <extensions>
          <ns3:TrackPointExtension>
            <ns3:atemp>22.0</ns3:atemp>
          </ns3:TrackPointExtension>
        </extensions>
      </trkpt>
      <trkpt lat="42.52193399704992771148681640625" lon="19.946965835988521575927734375">
        <ele>1805.5999755859375</ele>
        <time>2026-06-17T09:12:27.000Z</time>
        <extensions>
          <ns3:TrackPointExtension>
            <ns3:atemp>22.0</ns3:atemp>
          </ns3:TrackPointExtension>
        </extensions>
      </trkpt>
      <trkpt lat="42.52193282358348369598388671875" lon="19.94693490676581859588623046875">
        <ele>1806</ele>
        <time>2026-06-17T09:12:28.000Z</time>
        <extensions>
          <ns3:TrackPointExtension>
            <ns3:atemp>22.0</ns3:atemp>
          </ns3:TrackPointExtension>
        </extensions>
      </trkpt>
      <trkpt lat="42.521938942372798919677734375" lon="19.9468986131250858306884765625">
        <ele>1806.199951171875</ele>
        <time>2026-06-17T09:12:29.000Z</time>
        <extensions>
          <ns3:TrackPointExtension>
            <ns3:atemp>22.0</ns3:atemp>
          </ns3:TrackPointExtension>
        </extensions>
      </trkpt>
      <trkpt lat="42.5219478271901607513427734375" lon="19.94686466641724109649658203125">
        <ele>1806.4000244140625</ele>
        <time>2026-06-17T09:12:30.000Z</time>
        <extensions>
          <ns3:TrackPointExtension>
            <ns3:atemp>22.0</ns3:atemp>
          </ns3:TrackPointExtension>
        </extensions>
      </trkpt>
      <trkpt lat="42.5219588913023471832275390625" lon="19.94683767668902873992919921875">
        <ele>1806.800048828125</ele>
        <time>2026-06-17T09:12:31.000Z</time>
        <extensions>
          <ns3:TrackPointExtension>
            <ns3:atemp>22.0</ns3:atemp>
          </ns3:TrackPointExtension>
        </extensions>
      </trkpt>
      <trkpt lat="42.521969787776470184326171875" lon="19.94681152515113353729248046875">
        <ele>1807</ele>
        <time>2026-06-17T09:12:32.000Z</time>
        <extensions>
          <ns3:TrackPointExtension>
            <ns3:atemp>22.0</ns3:atemp>
          </ns3:TrackPointExtension>
        </extensions>
      </trkpt>
      <trkpt lat="42.5219808518886566162109375" lon="19.94678688235580921173095703125">
        <ele>1807.4000244140625</ele>
        <time>2026-06-17T09:12:33.000Z</time>
        <extensions>
          <ns3:TrackPointExtension>
            <ns3:atemp>22.0</ns3:atemp>
          </ns3:TrackPointExtension>
        </extensions>
      </trkpt>
      <trkpt lat="42.52198948524892330169677734375" lon="19.94676408357918262481689453125">
        <ele>1807.5999755859375</ele>
        <time>2026-06-17T09:12:34.000Z</time>
        <extensions>
          <ns3:TrackPointExtension>
            <ns3:atemp>22.0</ns3:atemp>
          </ns3:TrackPointExtension>
        </extensions>
      </trkpt>
      <trkpt lat="42.5219977833330631256103515625" lon="19.94673826731741428375244140625">
        <ele>1808</ele>
        <time>2026-06-17T09:12:35.000Z</time>
        <extensions>
          <ns3:TrackPointExtension>
            <ns3:atemp>22.0</ns3:atemp>
          </ns3:TrackPointExtension>
        </extensions>
      </trkpt>
      <trkpt lat="42.52200742252171039581298828125" lon="19.946713708341121673583984375">
        <ele>1808.199951171875</ele>
        <time>2026-06-17T09:12:36.000Z</time>
        <extensions>
          <ns3:TrackPointExtension>
            <ns3:atemp>22.0</ns3:atemp>
          </ns3:TrackPointExtension>
        </extensions>
      </trkpt>
      <trkpt lat="42.5220172293484210968017578125" lon="19.94669417850673198699951171875">
        <ele>1808.5999755859375</ele>
        <time>2026-06-17T09:12:37.000Z</time>
        <extensions>
          <ns3:TrackPointExtension>
            <ns3:atemp>22.0</ns3:atemp>
          </ns3:TrackPointExtension>
        </extensions>
      </trkpt>
      <trkpt lat="42.522024773061275482177734375" lon="19.9466709606349468231201171875">
        <ele>1809</ele>
        <time>2026-06-17T09:12:38.000Z</time>
        <extensions>
          <ns3:TrackPointExtension>
            <ns3:atemp>22.0</ns3:atemp>
          </ns3:TrackPointExtension>
        </extensions>
      </trkpt>
      <trkpt lat="42.52203382551670074462890625" lon="19.946647994220256805419921875">
        <ele>1809.4000244140625</ele>
        <time>2026-06-17T09:12:39.000Z</time>
        <extensions>
          <ns3:TrackPointExtension>
            <ns3:atemp>22.0</ns3:atemp>
          </ns3:TrackPointExtension>
        </extensions>
      </trkpt>
      <trkpt lat="42.52204262651503086090087890625" lon="19.9466183222830295562744140625">
        <ele>1809.5999755859375</ele>
        <time>2026-06-17T09:12:40.000Z</time>
        <extensions>
          <ns3:TrackPointExtension>
            <ns3:atemp>22.0</ns3:atemp>
          </ns3:TrackPointExtension>
        </extensions>
      </trkpt>
      <trkpt lat="42.52204882912337779998779296875" lon="19.9465874768793582916259765625">
        <ele>1810</ele>
        <time>2026-06-17T09:12:41.000Z</time>
        <extensions>
          <ns3:TrackPointExtension>
            <ns3:atemp>22.0</ns3:atemp>
          </ns3:TrackPointExtension>
        </extensions>
      </trkpt>
      <trkpt lat="42.5220544449985027313232421875" lon="19.946560151875019073486328125">
        <ele>1810.199951171875</ele>
        <time>2026-06-17T09:12:42.000Z</time>
        <extensions>
          <ns3:TrackPointExtension>
            <ns3:atemp>22.0</ns3:atemp>
          </ns3:TrackPointExtension>
        </extensions>
      </trkpt>
      <trkpt lat="42.5220567919313907623291015625" lon="19.94653659872710704803466796875">
        <ele>1810.5999755859375</ele>
        <time>2026-06-17T09:12:43.000Z</time>
        <extensions>
          <ns3:TrackPointExtension>
            <ns3:atemp>22.0</ns3:atemp>
          </ns3:TrackPointExtension>
        </extensions>
      </trkpt>
      <trkpt lat="42.5220559537410736083984375" lon="19.94650960899889469146728515625">
        <ele>1810.800048828125</ele>
        <time>2026-06-17T09:12:44.000Z</time>
        <extensions>
          <ns3:TrackPointExtension>
            <ns3:atemp>21.0</ns3:atemp>
          </ns3:TrackPointExtension>
        </extensions>
      </trkpt>
      <trkpt lat="42.52205469645559787750244140625" lon="19.946493096649646759033203125">
        <ele>1811.199951171875</ele>
        <time>2026-06-17T09:12:45.000Z</time>
        <extensions>
          <ns3:TrackPointExtension>
            <ns3:atemp>22.0</ns3:atemp>
          </ns3:TrackPointExtension>
        </extensions>
      </trkpt>
      <trkpt lat="42.522048912942409515380859375" lon="19.94647842831909656524658203125">
        <ele>1811.4000244140625</ele>
        <time>2026-06-17T09:12:46.000Z</time>
        <extensions>
          <ns3:TrackPointExtension>
            <ns3:atemp>22.0</ns3:atemp>
          </ns3:TrackPointExtension>
        </extensions>
      </trkpt>
      <trkpt lat="42.522037513554096221923828125" lon="19.946467615664005279541015625">
        <ele>1811.800048828125</ele>
        <time>2026-06-17T09:12:47.000Z</time>
        <extensions>
          <ns3:TrackPointExtension>
            <ns3:atemp>21.0</ns3:atemp>
          </ns3:TrackPointExtension>
        </extensions>
      </trkpt>
      <trkpt lat="42.5220219232141971588134765625" lon="19.94646124541759490966796875">
        <ele>1812</ele>
        <time>2026-06-17T09:12:48.000Z</time>
        <extensions>
          <ns3:TrackPointExtension>
            <ns3:atemp>21.0</ns3:atemp>
          </ns3:TrackPointExtension>
        </extensions>
      </trkpt>
      <trkpt lat="42.52200826071202754974365234375" lon="19.94646736420691013336181640625">
        <ele>1812.4000244140625</ele>
        <time>2026-06-17T09:12:49.000Z</time>
        <extensions>
          <ns3:TrackPointExtension>
            <ns3:atemp>22.0</ns3:atemp>
          </ns3:TrackPointExtension>
        </extensions>
      </trkpt>
      <trkpt lat="42.52199317328631877899169921875" lon="19.94647742249071598052978515625">
        <ele>1812.5999755859375</ele>
        <time>2026-06-17T09:12:50.000Z</time>
        <extensions>
          <ns3:TrackPointExtension>
            <ns3:atemp>21.0</ns3:atemp>
          </ns3:TrackPointExtension>
        </extensions>
      </trkpt>
      <trkpt lat="42.52197615802288055419921875" lon="19.9464825354516506195068359375">
        <ele>1812.800048828125</ele>
        <time>2026-06-17T09:12:51.000Z</time>
        <extensions>
          <ns3:TrackPointExtension>
            <ns3:atemp>21.0</ns3:atemp>
          </ns3:TrackPointExtension>
        </extensions>
      </trkpt>
      <trkpt lat="42.52195872366428375244140625" lon="19.94650173000991344451904296875">
        <ele>1813</ele>
        <time>2026-06-17T09:12:52.000Z</time>
        <extensions>
          <ns3:TrackPointExtension>
            <ns3:atemp>21.0</ns3:atemp>
          </ns3:TrackPointExtension>
        </extensions>
      </trkpt>
      <trkpt lat="42.521942965686321258544921875" lon="19.9465217627584934234619140625">
        <ele>1813.199951171875</ele>
        <time>2026-06-17T09:12:53.000Z</time>
        <extensions>
          <ns3:TrackPointExtension>
            <ns3:atemp>21.0</ns3:atemp>
          </ns3:TrackPointExtension>
        </extensions>
      </trkpt>
      <trkpt lat="42.52192863263189792633056640625" lon="19.94654699228703975677490234375">
        <ele>1813.4000244140625</ele>
        <time>2026-06-17T09:12:54.000Z</time>
        <extensions>
          <ns3:TrackPointExtension>
            <ns3:atemp>21.0</ns3:atemp>
          </ns3:TrackPointExtension>
        </extensions>
      </trkpt>
      <trkpt lat="42.5219109468162059783935546875" lon="19.94656828232109546661376953125">
        <ele>1813.4000244140625</ele>
        <time>2026-06-17T09:12:55.000Z</time>
        <extensions>
          <ns3:TrackPointExtension>
            <ns3:atemp>21.0</ns3:atemp>
          </ns3:TrackPointExtension>
        </extensions>
      </trkpt>
      <trkpt lat="42.5218941830098628997802734375" lon="19.9465884827077388763427734375">
        <ele>1813.5999755859375</ele>
        <time>2026-06-17T09:12:56.000Z</time>
        <extensions>
          <ns3:TrackPointExtension>
            <ns3:atemp>21.0</ns3:atemp>
          </ns3:TrackPointExtension>
        </extensions>
      </trkpt>
      <trkpt lat="42.5218774192035198211669921875" lon="19.9466080963611602783203125">
        <ele>1814</ele>
        <time>2026-06-17T09:12:57.000Z</time>
        <extensions>
          <ns3:TrackPointExtension>
            <ns3:atemp>21.0</ns3:atemp>
          </ns3:TrackPointExtension>
        </extensions>
      </trkpt>
      <trkpt lat="42.52185881137847900390625" lon="19.946629218757152557373046875">
        <ele>1814.199951171875</ele>
        <time>2026-06-17T09:12:58.000Z</time>
        <extensions>
          <ns3:TrackPointExtension>
            <ns3:atemp>21.0</ns3:atemp>
          </ns3:TrackPointExtension>
        </extensions>
      </trkpt>
      <trkpt lat="42.5218385271728038787841796875" lon="19.9466505087912082672119140625">
        <ele>1814.4000244140625</ele>
        <time>2026-06-17T09:12:59.000Z</time>
        <extensions>
          <ns3:TrackPointExtension>
            <ns3:atemp>21.0</ns3:atemp>
          </ns3:TrackPointExtension>
        </extensions>
      </trkpt>
      <trkpt lat="42.52181656658649444580078125" lon="19.94666970334947109222412109375">
        <ele>1814.5999755859375</ele>
        <time>2026-06-17T09:13:00.000Z</time>
        <extensions>
          <ns3:TrackPointExtension>
            <ns3:atemp>21.0</ns3:atemp>
          </ns3:TrackPointExtension>
        </extensions>
      </trkpt>
      <trkpt lat="42.52179821021854877471923828125" lon="19.94668981991708278656005859375">
        <ele>1814.800048828125</ele>
        <time>2026-06-17T09:13:01.000Z</time>
        <extensions>
          <ns3:TrackPointExtension>
            <ns3:atemp>21.0</ns3:atemp>
          </ns3:TrackPointExtension>
        </extensions>
      </trkpt>
      <trkpt lat="42.52178035676479339599609375" lon="19.946715049445629119873046875">
        <ele>1815</ele>
        <time>2026-06-17T09:13:02.000Z</time>
        <extensions>
          <ns3:TrackPointExtension>
            <ns3:atemp>21.0</ns3:atemp>
          </ns3:TrackPointExtension>
        </extensions>
      </trkpt>
      <trkpt lat="42.5217607431113719940185546875" lon="19.946740530431270599365234375">
        <ele>1815.199951171875</ele>
        <time>2026-06-17T09:13:03.000Z</time>
        <extensions>
          <ns3:TrackPointExtension>
            <ns3:atemp>21.0</ns3:atemp>
          </ns3:TrackPointExtension>
        </extensions>
      </trkpt>
      <trkpt lat="42.52174548804759979248046875" lon="19.94676835834980010986328125">
        <ele>1815.4000244140625</ele>
        <time>2026-06-17T09:13:04.000Z</time>
        <extensions>
          <ns3:TrackPointExtension>
            <ns3:atemp>21.0</ns3:atemp>
          </ns3:TrackPointExtension>
        </extensions>
      </trkpt>
      <trkpt lat="42.52173098735511302947998046875" lon="19.94680247269570827484130859375">
        <ele>1815.5999755859375</ele>
        <time>2026-06-17T09:13:05.000Z</time>
        <extensions>
          <ns3:TrackPointExtension>
            <ns3:atemp>21.0</ns3:atemp>
          </ns3:TrackPointExtension>
        </extensions>
      </trkpt>
      <trkpt lat="42.52171724103391170501708984375" lon="19.946834743022918701171875">
        <ele>1815.5999755859375</ele>
        <time>2026-06-17T09:13:06.000Z</time>
        <extensions>
          <ns3:TrackPointExtension>
            <ns3:atemp>21.0</ns3:atemp>
          </ns3:TrackPointExtension>
        </extensions>
      </trkpt>
      <trkpt lat="42.5217091105878353118896484375" lon="19.94687204249203205108642578125">
        <ele>1815.800048828125</ele>
        <time>2026-06-17T09:13:07.000Z</time>
        <extensions>
          <ns3:TrackPointExtension>
            <ns3:atemp>21.0</ns3:atemp>
          </ns3:TrackPointExtension>
        </extensions>
      </trkpt>
      <trkpt lat="42.52170098014175891876220703125" lon="19.94690305553376674652099609375">
        <ele>1816</ele>
        <time>2026-06-17T09:13:08.000Z</time>
        <extensions>
          <ns3:TrackPointExtension>
            <ns3:atemp>21.0</ns3:atemp>
          </ns3:TrackPointExtension>
        </extensions>
      </trkpt>
      <trkpt lat="42.5216967053711414337158203125" lon="19.94693423621356487274169921875">
        <ele>1816.199951171875</ele>
        <time>2026-06-17T09:13:09.000Z</time>
        <extensions>
          <ns3:TrackPointExtension>
            <ns3:atemp>21.0</ns3:atemp>
          </ns3:TrackPointExtension>
        </extensions>
      </trkpt>
      <trkpt lat="42.5216903351247310638427734375" lon="19.9469666741788387298583984375">
        <ele>1816.4000244140625</ele>
        <time>2026-06-17T09:13:10.000Z</time>
        <extensions>
          <ns3:TrackPointExtension>
            <ns3:atemp>21.0</ns3:atemp>
          </ns3:TrackPointExtension>
        </extensions>
      </trkpt>
      <trkpt lat="42.52168253995478153228759765625" lon="19.9469978548586368560791015625">
        <ele>1816.5999755859375</ele>
        <time>2026-06-17T09:13:11.000Z</time>
        <extensions>
          <ns3:TrackPointExtension>
            <ns3:atemp>21.0</ns3:atemp>
          </ns3:TrackPointExtension>
        </extensions>
      </trkpt>
      <trkpt lat="42.5216769240796566009521484375" lon="19.94702878408133983612060546875">
        <ele>1816.800048828125</ele>
        <time>2026-06-17T09:13:12.000Z</time>
        <extensions>
          <ns3:TrackPointExtension>
            <ns3:atemp>21.0</ns3:atemp>
          </ns3:TrackPointExtension>
        </extensions>
      </trkpt>
      <trkpt lat="42.52166627906262874603271484375" lon="19.94705677963793277740478515625">
        <ele>1817</ele>
        <time>2026-06-17T09:13:13.000Z</time>
        <extensions>
          <ns3:TrackPointExtension>
            <ns3:atemp>21.0</ns3:atemp>
          </ns3:TrackPointExtension>
        </extensions>
      </trkpt>
      <trkpt lat="42.521651946008205413818359375" lon="19.94708527810871601104736328125">
        <ele>1817.199951171875</ele>
        <time>2026-06-17T09:13:14.000Z</time>
        <extensions>
          <ns3:TrackPointExtension>
            <ns3:atemp>21.0</ns3:atemp>
          </ns3:TrackPointExtension>
        </extensions>
      </trkpt>
      <trkpt lat="42.52163308672606945037841796875" lon="19.94711595587432384490966796875">
        <ele>1817.4000244140625</ele>
        <time>2026-06-17T09:13:15.000Z</time>
        <extensions>
          <ns3:TrackPointExtension>
            <ns3:atemp>21.0</ns3:atemp>
          </ns3:TrackPointExtension>
        </extensions>
      </trkpt>
      <trkpt lat="42.5216152332723140716552734375" lon="19.9471433646976947784423828125">
        <ele>1817.5999755859375</ele>
        <time>2026-06-17T09:13:16.000Z</time>
        <extensions>
          <ns3:TrackPointExtension>
            <ns3:atemp>21.0</ns3:atemp>
          </ns3:TrackPointExtension>
        </extensions>
      </trkpt>
      <trkpt lat="42.5215967930853366851806640625" lon="19.94717043824493885040283203125">
        <ele>1817.800048828125</ele>
        <time>2026-06-17T09:13:17.000Z</time>
        <extensions>
          <ns3:TrackPointExtension>
            <ns3:atemp>21.0</ns3:atemp>
          </ns3:TrackPointExtension>
        </extensions>
      </trkpt>
      <trkpt lat="42.52158061601221561431884765625" lon="19.94719692505896091461181640625">
        <ele>1818</ele>
        <time>2026-06-17T09:13:18.000Z</time>
        <extensions>
          <ns3:TrackPointExtension>
            <ns3:atemp>21.0</ns3:atemp>
          </ns3:TrackPointExtension>
        </extensions>
      </trkpt>
      <trkpt lat="42.5215662829577922821044921875" lon="19.94723078794777393341064453125">
        <ele>1818.199951171875</ele>
        <time>2026-06-17T09:13:19.000Z</time>
        <extensions>
          <ns3:TrackPointExtension>
            <ns3:atemp>21.0</ns3:atemp>
          </ns3:TrackPointExtension>
        </extensions>
      </trkpt>
      <trkpt lat="42.52154960297048091888427734375" lon="19.94726163335144519805908203125">
        <ele>1818.4000244140625</ele>
        <time>2026-06-17T09:13:20.000Z</time>
        <extensions>
          <ns3:TrackPointExtension>
            <ns3:atemp>21.0</ns3:atemp>
          </ns3:TrackPointExtension>
        </extensions>
      </trkpt>
      <trkpt lat="42.52153535373508930206298828125" lon="19.94729264639317989349365234375">
        <ele>1818.800048828125</ele>
        <time>2026-06-17T09:13:21.000Z</time>
        <extensions>
          <ns3:TrackPointExtension>
            <ns3:atemp>21.0</ns3:atemp>
          </ns3:TrackPointExtension>
        </extensions>
      </trkpt>
      <trkpt lat="42.521523199975490570068359375" lon="19.94732114486396312713623046875">
        <ele>1819</ele>
        <time>2026-06-17T09:13:22.000Z</time>
        <extensions>
          <ns3:TrackPointExtension>
            <ns3:atemp>21.0</ns3:atemp>
          </ns3:TrackPointExtension>
        </extensions>
      </trkpt>
      <trkpt lat="42.52150836400687694549560546875" lon="19.94734696112573146820068359375">
        <ele>1819.199951171875</ele>
        <time>2026-06-17T09:13:23.000Z</time>
        <extensions>
          <ns3:TrackPointExtension>
            <ns3:atemp>21.0</ns3:atemp>
          </ns3:TrackPointExtension>
        </extensions>
      </trkpt>
      <trkpt lat="42.521494366228580474853515625" lon="19.9473726935684680938720703125">
        <ele>1819.5999755859375</ele>
        <time>2026-06-17T09:13:24.000Z</time>
        <extensions>
          <ns3:TrackPointExtension>
            <ns3:atemp>21.0</ns3:atemp>
          </ns3:TrackPointExtension>
        </extensions>
      </trkpt>
      <trkpt lat="42.5214801169931888580322265625" lon="19.9473975040018558502197265625">
        <ele>1819.800048828125</ele>
        <time>2026-06-17T09:13:25.000Z</time>
        <extensions>
          <ns3:TrackPointExtension>
            <ns3:atemp>21.0</ns3:atemp>
          </ns3:TrackPointExtension>
        </extensions>
      </trkpt>
      <trkpt lat="42.52146662212908267974853515625" lon="19.94742139242589473724365234375">
        <ele>1820.199951171875</ele>
        <time>2026-06-17T09:13:26.000Z</time>
        <extensions>
          <ns3:TrackPointExtension>
            <ns3:atemp>21.0</ns3:atemp>
          </ns3:TrackPointExtension>
        </extensions>
      </trkpt>
      <trkpt lat="42.52145471982657909393310546875" lon="19.9474461190402507781982421875">
        <ele>1820.5999755859375</ele>
        <time>2026-06-17T09:13:27.000Z</time>
        <extensions>
          <ns3:TrackPointExtension>
            <ns3:atemp>21.0</ns3:atemp>
          </ns3:TrackPointExtension>
        </extensions>
      </trkpt>
      <trkpt lat="42.52144298516213893890380859375" lon="19.947472102940082550048828125">
        <ele>1821</ele>
        <time>2026-06-17T09:13:28.000Z</time>
        <extensions>
          <ns3:TrackPointExtension>
            <ns3:atemp>21.0</ns3:atemp>
          </ns3:TrackPointExtension>
        </extensions>
      </trkpt>
      <trkpt lat="42.52143259160220623016357421875" lon="19.94749565608799457550048828125">
        <ele>1821.199951171875</ele>
        <time>2026-06-17T09:13:29.000Z</time>
        <extensions>
          <ns3:TrackPointExtension>
            <ns3:atemp>21.0</ns3:atemp>
          </ns3:TrackPointExtension>
        </extensions>
      </trkpt>
      <trkpt lat="42.5214221142232418060302734375" lon="19.94752499274909496307373046875">
        <ele>1821.5999755859375</ele>
        <time>2026-06-17T09:13:30.000Z</time>
        <extensions>
          <ns3:TrackPointExtension>
            <ns3:atemp>21.0</ns3:atemp>
          </ns3:TrackPointExtension>
        </extensions>
      </trkpt>
      <trkpt lat="42.52141197212040424346923828125" lon="19.947547875344753265380859375">
        <ele>1821.800048828125</ele>
        <time>2026-06-17T09:13:31.000Z</time>
        <extensions>
          <ns3:TrackPointExtension>
            <ns3:atemp>21.0</ns3:atemp>
          </ns3:TrackPointExtension>
        </extensions>
      </trkpt>
      <trkpt lat="42.52140241675078868865966796875" lon="19.94757377542555332183837890625">
        <ele>1822</ele>
        <time>2026-06-17T09:13:32.000Z</time>
        <extensions>
          <ns3:TrackPointExtension>
            <ns3:atemp>21.0</ns3:atemp>
          </ns3:TrackPointExtension>
        </extensions>
      </trkpt>
      <trkpt lat="42.52138799987733364105224609375" lon="19.9475978314876556396484375">
        <ele>1822.4000244140625</ele>
        <time>2026-06-17T09:13:33.000Z</time>
        <extensions>
          <ns3:TrackPointExtension>
            <ns3:atemp>21.0</ns3:atemp>
          </ns3:TrackPointExtension>
        </extensions>
      </trkpt>
      <trkpt lat="42.52137358300387859344482421875" lon="19.94762473739683628082275390625">
        <ele>1822.5999755859375</ele>
        <time>2026-06-17T09:13:34.000Z</time>
        <extensions>
          <ns3:TrackPointExtension>
            <ns3:atemp>21.0</ns3:atemp>
          </ns3:TrackPointExtension>
        </extensions>
      </trkpt>
      <trkpt lat="42.5213614292442798614501953125" lon="19.947649799287319183349609375">
        <ele>1822.800048828125</ele>
        <time>2026-06-17T09:13:35.000Z</time>
        <extensions>
          <ns3:TrackPointExtension>
            <ns3:atemp>21.0</ns3:atemp>
          </ns3:TrackPointExtension>
        </extensions>
      </trkpt>
      <trkpt lat="42.52134852111339569091796875" lon="19.94767402298748493194580078125">
        <ele>1823</ele>
        <time>2026-06-17T09:13:36.000Z</time>
        <extensions>
          <ns3:TrackPointExtension>
            <ns3:atemp>21.0</ns3:atemp>
          </ns3:TrackPointExtension>
        </extensions>
      </trkpt>
      <trkpt lat="42.52133821137249469757080078125" lon="19.94770579040050506591796875">
        <ele>1823.199951171875</ele>
        <time>2026-06-17T09:13:37.000Z</time>
        <extensions>
          <ns3:TrackPointExtension>
            <ns3:atemp>21.0</ns3:atemp>
          </ns3:TrackPointExtension>
        </extensions>
      </trkpt>
      <trkpt lat="42.52132597379386425018310546875" lon="19.94773529469966888427734375">
        <ele>1823.199951171875</ele>
        <time>2026-06-17T09:13:38.000Z</time>
        <extensions>
          <ns3:TrackPointExtension>
            <ns3:atemp>21.0</ns3:atemp>
          </ns3:TrackPointExtension>
        </extensions>
      </trkpt>
      <trkpt lat="42.52131558023393154144287109375" lon="19.94776857085525989532470703125">
        <ele>1823.4000244140625</ele>
        <time>2026-06-17T09:13:39.000Z</time>
        <extensions>
          <ns3:TrackPointExtension>
            <ns3:atemp>21.0</ns3:atemp>
          </ns3:TrackPointExtension>
        </extensions>
      </trkpt>
      <trkpt lat="42.52130485139787197113037109375" lon="19.947800338268280029296875">
        <ele>1823.4000244140625</ele>
        <time>2026-06-17T09:13:40.000Z</time>
        <extensions>
          <ns3:TrackPointExtension>
            <ns3:atemp>21.0</ns3:atemp>
          </ns3:TrackPointExtension>
        </extensions>
      </trkpt>
      <trkpt lat="42.52129546366631984710693359375" lon="19.9478296749293804168701171875">
        <ele>1823.4000244140625</ele>
        <time>2026-06-17T09:13:41.000Z</time>
        <extensions>
          <ns3:TrackPointExtension>
            <ns3:atemp>21.0</ns3:atemp>
          </ns3:TrackPointExtension>
        </extensions>
      </trkpt>
      <trkpt lat="42.5212880037724971771240234375" lon="19.94784937240183353424072265625">
        <ele>1823.5999755859375</ele>
        <time>2026-06-17T09:13:42.000Z</time>
        <extensions>
          <ns3:TrackPointExtension>
            <ns3:atemp>21.0</ns3:atemp>
          </ns3:TrackPointExtension>
        </extensions>
      </trkpt>
      <trkpt lat="42.52127618528902530670166015625" lon="19.9478712491691112518310546875">
        <ele>1823.5999755859375</ele>
        <time>2026-06-17T09:13:43.000Z</time>
        <extensions>
          <ns3:TrackPointExtension>
            <ns3:atemp>21.0</ns3:atemp>
          </ns3:TrackPointExtension>
        </extensions>
      </trkpt>
      <trkpt lat="42.52126537263393402099609375" lon="19.94789865799248218536376953125">
        <ele>1823.800048828125</ele>
        <time>2026-06-17T09:13:44.000Z</time>
        <extensions>
          <ns3:TrackPointExtension>
            <ns3:atemp>21.0</ns3:atemp>
          </ns3:TrackPointExtension>
        </extensions>
      </trkpt>
      <trkpt lat="42.52125254832208156585693359375" lon="19.9479255639016628265380859375">
        <ele>1824</ele>
        <time>2026-06-17T09:13:45.000Z</time>
        <extensions>
          <ns3:TrackPointExtension>
            <ns3:atemp>21.0</ns3:atemp>
          </ns3:TrackPointExtension>
        </extensions>
      </trkpt>
      <trkpt lat="42.52123829908668994903564453125" lon="19.94794945232570171356201171875">
        <ele>1824</ele>
        <time>2026-06-17T09:13:46.000Z</time>
        <extensions>
          <ns3:TrackPointExtension>
            <ns3:atemp>21.0</ns3:atemp>
          </ns3:TrackPointExtension>
        </extensions>
      </trkpt>
      <trkpt lat="42.52122371457517147064208984375" lon="19.94796705432236194610595703125">
        <ele>1824.199951171875</ele>
        <time>2026-06-17T09:13:47.000Z</time>
        <extensions>
          <ns3:TrackPointExtension>
            <ns3:atemp>21.0</ns3:atemp>
          </ns3:TrackPointExtension>
        </extensions>
      </trkpt>
      <trkpt lat="42.52120577730238437652587890625" lon="19.9479842372238636016845703125">
        <ele>1824.199951171875</ele>
        <time>2026-06-17T09:13:48.000Z</time>
        <extensions>
          <ns3:TrackPointExtension>
            <ns3:atemp>21.0</ns3:atemp>
          </ns3:TrackPointExtension>
        </extensions>
      </trkpt>
      <trkpt lat="42.52118649892508983612060546875" lon="19.94800041429698467254638671875">
        <ele>1824.199951171875</ele>
        <time>2026-06-17T09:13:49.000Z</time>
        <extensions>
          <ns3:TrackPointExtension>
            <ns3:atemp>21.0</ns3:atemp>
          </ns3:TrackPointExtension>
        </extensions>
      </trkpt>
      <trkpt lat="42.521163113415241241455078125" lon="19.948019273579120635986328125">
        <ele>1824.199951171875</ele>
        <time>2026-06-17T09:13:50.000Z</time>
        <extensions>
          <ns3:TrackPointExtension>
            <ns3:atemp>21.0</ns3:atemp>
          </ns3:TrackPointExtension>
        </extensions>
      </trkpt>
      <trkpt lat="42.52114492468535900115966796875" lon="19.94804098270833492279052734375">
        <ele>1824.199951171875</ele>
        <time>2026-06-17T09:13:51.000Z</time>
        <extensions>
          <ns3:TrackPointExtension>
            <ns3:atemp>21.0</ns3:atemp>
          </ns3:TrackPointExtension>
        </extensions>
      </trkpt>
      <trkpt lat="42.5211279094219207763671875" lon="19.94806445203721523284912109375">
        <ele>1824.199951171875</ele>
        <time>2026-06-17T09:13:52.000Z</time>
        <extensions>
          <ns3:TrackPointExtension>
            <ns3:atemp>21.0</ns3:atemp>
          </ns3:TrackPointExtension>
        </extensions>
      </trkpt>
      <trkpt lat="42.52110737375915050506591796875" lon="19.94809077121317386627197265625">
        <ele>1824.199951171875</ele>
        <time>2026-06-17T09:13:53.000Z</time>
        <extensions>
          <ns3:TrackPointExtension>
            <ns3:atemp>21.0</ns3:atemp>
          </ns3:TrackPointExtension>
        </extensions>
      </trkpt>
      <trkpt lat="42.52108926884829998016357421875" lon="19.9481166712939739227294921875">
        <ele>1824.4000244140625</ele>
        <time>2026-06-17T09:13:54.000Z</time>
        <extensions>
          <ns3:TrackPointExtension>
            <ns3:atemp>21.0</ns3:atemp>
          </ns3:TrackPointExtension>
        </extensions>
      </trkpt>
      <trkpt lat="42.52107267268002033233642578125" lon="19.948143661022186279296875">
        <ele>1824.4000244140625</ele>
        <time>2026-06-17T09:13:55.000Z</time>
        <extensions>
          <ns3:TrackPointExtension>
            <ns3:atemp>21.0</ns3:atemp>
          </ns3:TrackPointExtension>
        </extensions>
      </trkpt>
      <trkpt lat="42.52105792053043842315673828125" lon="19.94817157275974750518798828125">
        <ele>1824.4000244140625</ele>
        <time>2026-06-17T09:13:56.000Z</time>
        <extensions>
          <ns3:TrackPointExtension>
            <ns3:atemp>21.0</ns3:atemp>
          </ns3:TrackPointExtension>
        </extensions>
      </trkpt>
      <trkpt lat="42.52104367129504680633544921875" lon="19.9481978081166744232177734375">
        <ele>1824.4000244140625</ele>
        <time>2026-06-17T09:13:57.000Z</time>
        <extensions>
          <ns3:TrackPointExtension>
            <ns3:atemp>21.0</ns3:atemp>
          </ns3:TrackPointExtension>
        </extensions>
      </trkpt>
      <trkpt lat="42.52103009261190891265869140625" lon="19.94822370819747447967529296875">
        <ele>1824.5999755859375</ele>
        <time>2026-06-17T09:13:58.000Z</time>
        <extensions>
          <ns3:TrackPointExtension>
            <ns3:atemp>21.0</ns3:atemp>
          </ns3:TrackPointExtension>
        </extensions>
      </trkpt>
      <trkpt lat="42.52101860940456390380859375" lon="19.9482477642595767974853515625">
        <ele>1824.5999755859375</ele>
        <time>2026-06-17T09:13:59.000Z</time>
        <extensions>
          <ns3:TrackPointExtension>
            <ns3:atemp>21.0</ns3:atemp>
          </ns3:TrackPointExtension>
        </extensions>
      </trkpt>
      <trkpt lat="42.5210043601691722869873046875" lon="19.94827014394104480743408203125">
        <ele>1824.800048828125</ele>
        <time>2026-06-17T09:14:00.000Z</time>
        <extensions>
          <ns3:TrackPointExtension>
            <ns3:atemp>21.0</ns3:atemp>
          </ns3:TrackPointExtension>
        </extensions>
      </trkpt>
      <trkpt lat="42.5209889374673366546630859375" lon="19.9482926912605762481689453125">
        <ele>1824.800048828125</ele>
        <time>2026-06-17T09:14:01.000Z</time>
        <extensions>
          <ns3:TrackPointExtension>
            <ns3:atemp>21.0</ns3:atemp>
          </ns3:TrackPointExtension>
        </extensions>
      </trkpt>
      <trkpt lat="42.52097628079354763031005859375" lon="19.948307611048221588134765625">
        <ele>1825</ele>
        <time>2026-06-17T09:14:02.000Z</time>
        <extensions>
          <ns3:TrackPointExtension>
            <ns3:atemp>21.0</ns3:atemp>
          </ns3:TrackPointExtension>
        </extensions>
      </trkpt>
      <trkpt lat="42.52096253447234630584716796875" lon="19.94832110591232776641845703125">
        <ele>1825</ele>
        <time>2026-06-17T09:14:03.000Z</time>
        <extensions>
          <ns3:TrackPointExtension>
            <ns3:atemp>21.0</ns3:atemp>
          </ns3:TrackPointExtension>
        </extensions>
      </trkpt>
      <trkpt lat="42.5209470279514789581298828125" lon="19.94833569042384624481201171875">
        <ele>1825</ele>
        <time>2026-06-17T09:14:04.000Z</time>
        <extensions>
          <ns3:TrackPointExtension>
            <ns3:atemp>21.0</ns3:atemp>
          </ns3:TrackPointExtension>
        </extensions>
      </trkpt>
      <trkpt lat="42.5209289230406284332275390625" lon="19.94835010729730129241943359375">
        <ele>1825.199951171875</ele>
        <time>2026-06-17T09:14:05.000Z</time>
        <extensions>
          <ns3:TrackPointExtension>
            <ns3:atemp>21.0</ns3:atemp>
          </ns3:TrackPointExtension>
        </extensions>
      </trkpt>
      <trkpt lat="42.52090863883495330810546875" lon="19.94836670346558094024658203125">
        <ele>1825.199951171875</ele>
        <time>2026-06-17T09:14:06.000Z</time>
        <extensions>
          <ns3:TrackPointExtension>
            <ns3:atemp>21.0</ns3:atemp>
          </ns3:TrackPointExtension>
        </extensions>
      </trkpt>
      <trkpt lat="42.5208886899054050445556640625" lon="19.94838262908160686492919921875">
        <ele>1825.199951171875</ele>
        <time>2026-06-17T09:14:07.000Z</time>
        <extensions>
          <ns3:TrackPointExtension>
            <ns3:atemp>21.0</ns3:atemp>
          </ns3:TrackPointExtension>
        </extensions>
      </trkpt>
      <trkpt lat="42.52086530439555644989013671875" lon="19.94839268736541271209716796875">
        <ele>1825.199951171875</ele>
        <time>2026-06-17T09:14:08.000Z</time>
        <extensions>
          <ns3:TrackPointExtension>
            <ns3:atemp>21.0</ns3:atemp>
          </ns3:TrackPointExtension>
        </extensions>
      </trkpt>
      <trkpt lat="42.52084133215248584747314453125" lon="19.94840173982083797454833984375">
        <ele>1825.199951171875</ele>
        <time>2026-06-17T09:14:09.000Z</time>
        <extensions>
          <ns3:TrackPointExtension>
            <ns3:atemp>21.0</ns3:atemp>
          </ns3:TrackPointExtension>
        </extensions>
      </trkpt>
      <trkpt lat="42.52082037739455699920654296875" lon="19.9484080262482166290283203125">
        <ele>1825.199951171875</ele>
        <time>2026-06-17T09:14:10.000Z</time>
        <extensions>
          <ns3:TrackPointExtension>
            <ns3:atemp>21.0</ns3:atemp>
          </ns3:TrackPointExtension>
        </extensions>
      </trkpt>
      <trkpt lat="42.52080076374113559722900390625" lon="19.94841649197041988372802734375">
        <ele>1825.199951171875</ele>
        <time>2026-06-17T09:14:11.000Z</time>
        <extensions>
          <ns3:TrackPointExtension>
            <ns3:atemp>21.0</ns3:atemp>
          </ns3:TrackPointExtension>
        </extensions>
      </trkpt>
      <trkpt lat="42.52078601159155368804931640625" lon="19.94842537678778171539306640625">
        <ele>1825.199951171875</ele>
        <time>2026-06-17T09:14:12.000Z</time>
        <extensions>
          <ns3:TrackPointExtension>
            <ns3:atemp>21.0</ns3:atemp>
          </ns3:TrackPointExtension>
        </extensions>
      </trkpt>
      <trkpt lat="42.520770840346813201904296875" lon="19.94843174703419208526611328125">
        <ele>1825.199951171875</ele>
        <time>2026-06-17T09:14:13.000Z</time>
        <extensions>
          <ns3:TrackPointExtension>
            <ns3:atemp>21.0</ns3:atemp>
          </ns3:TrackPointExtension>
        </extensions>
      </trkpt>
      <trkpt lat="42.5207535736262798309326171875" lon="19.94843493215739727020263671875">
        <ele>1825.199951171875</ele>
        <time>2026-06-17T09:14:14.000Z</time>
        <extensions>
          <ns3:TrackPointExtension>
            <ns3:atemp>21.0</ns3:atemp>
          </ns3:TrackPointExtension>
        </extensions>
      </trkpt>
      <trkpt lat="42.52073555253446102142333984375" lon="19.948440380394458770751953125">
        <ele>1825.199951171875</ele>
        <time>2026-06-17T09:14:15.000Z</time>
        <extensions>
          <ns3:TrackPointExtension>
            <ns3:atemp>21.0</ns3:atemp>
          </ns3:TrackPointExtension>
        </extensions>
      </trkpt>
      <trkpt lat="42.5207187049090862274169921875" lon="19.9484469182789325714111328125">
        <ele>1825.199951171875</ele>
        <time>2026-06-17T09:14:16.000Z</time>
        <extensions>
          <ns3:TrackPointExtension>
            <ns3:atemp>21.0</ns3:atemp>
          </ns3:TrackPointExtension>
        </extensions>
      </trkpt>
      <trkpt lat="42.52070319838821887969970703125" lon="19.948453120887279510498046875">
        <ele>1825.199951171875</ele>
        <time>2026-06-17T09:14:17.000Z</time>
        <extensions>
          <ns3:TrackPointExtension>
            <ns3:atemp>21.0</ns3:atemp>
          </ns3:TrackPointExtension>
        </extensions>
      </trkpt>
      <trkpt lat="42.520689032971858978271484375" lon="19.94845706038177013397216796875">
        <ele>1825.199951171875</ele>
        <time>2026-06-17T09:14:18.000Z</time>
        <extensions>
          <ns3:TrackPointExtension>
            <ns3:atemp>21.0</ns3:atemp>
          </ns3:TrackPointExtension>
        </extensions>
      </trkpt>
      <trkpt lat="42.52067570574581623077392578125" lon="19.948460496962070465087890625">
        <ele>1825.199951171875</ele>
        <time>2026-06-17T09:14:19.000Z</time>
        <extensions>
          <ns3:TrackPointExtension>
            <ns3:atemp>21.0</ns3:atemp>
          </ns3:TrackPointExtension>
        </extensions>
      </trkpt>
      <trkpt lat="42.52066346816718578338623046875" lon="19.94846276007592678070068359375">
        <ele>1825.199951171875</ele>
        <time>2026-06-17T09:14:20.000Z</time>
        <extensions>
          <ns3:TrackPointExtension>
            <ns3:atemp>21.0</ns3:atemp>
          </ns3:TrackPointExtension>
        </extensions>
      </trkpt>
      <trkpt lat="42.5206546671688556671142578125" lon="19.94846217334270477294921875">
        <ele>1825.199951171875</ele>
        <time>2026-06-17T09:14:21.000Z</time>
        <extensions>
          <ns3:TrackPointExtension>
            <ns3:atemp>21.0</ns3:atemp>
          </ns3:TrackPointExtension>
        </extensions>
      </trkpt>
      <trkpt lat="42.5206506438553333282470703125" lon="19.9484599940478801727294921875">
        <ele>1825.199951171875</ele>
        <time>2026-06-17T09:14:22.000Z</time>
        <extensions>
          <ns3:TrackPointExtension>
            <ns3:atemp>21.0</ns3:atemp>
          </ns3:TrackPointExtension>
        </extensions>
      </trkpt>
      <trkpt lat="42.5206506438553333282470703125" lon="19.9484599940478801727294921875">
        <ele>1825.4000244140625</ele>
        <time>2026-06-17T09:14:23.000Z</time>
        <extensions>
          <ns3:TrackPointExtension>
            <ns3:atemp>20.0</ns3:atemp>
          </ns3:TrackPointExtension>
        </extensions>
      </trkpt>
      <trkpt lat="42.5206506438553333282470703125" lon="19.9484599940478801727294921875">
        <ele>1825.4000244140625</ele>
        <time>2026-06-17T09:14:24.000Z</time>
        <extensions>
          <ns3:TrackPointExtension>
            <ns3:atemp>20.0</ns3:atemp>
          </ns3:TrackPointExtension>
        </extensions>
      </trkpt>
      <trkpt lat="42.5206506438553333282470703125" lon="19.9484599940478801727294921875">
        <ele>1825.4000244140625</ele>
        <time>2026-06-17T09:14:25.000Z</time>
        <extensions>
          <ns3:TrackPointExtension>
            <ns3:atemp>20.0</ns3:atemp>
          </ns3:TrackPointExtension>
        </extensions>
      </trkpt>
      <trkpt lat="42.5206506438553333282470703125" lon="19.9484599940478801727294921875">
        <ele>1825.4000244140625</ele>
        <time>2026-06-17T09:14:26.000Z</time>
        <extensions>
          <ns3:TrackPointExtension>
            <ns3:atemp>20.0</ns3:atemp>
          </ns3:TrackPointExtension>
        </extensions>
      </trkpt>
      <trkpt lat="42.5206506438553333282470703125" lon="19.9484599940478801727294921875">
        <ele>1825.4000244140625</ele>
        <time>2026-06-17T09:14:27.000Z</time>
        <extensions>
          <ns3:TrackPointExtension>
            <ns3:atemp>20.0</ns3:atemp>
          </ns3:TrackPointExtension>
        </extensions>
      </trkpt>
      <trkpt lat="42.5206506438553333282470703125" lon="19.9484599940478801727294921875">
        <ele>1825.199951171875</ele>
        <time>2026-06-17T09:14:28.000Z</time>
        <extensions>
          <ns3:TrackPointExtension>
            <ns3:atemp>20.0</ns3:atemp>
          </ns3:TrackPointExtension>
        </extensions>
      </trkpt>
      <trkpt lat="42.5206506438553333282470703125" lon="19.9484599940478801727294921875">
        <ele>1825.199951171875</ele>
        <time>2026-06-17T09:14:29.000Z</time>
        <extensions>
          <ns3:TrackPointExtension>
            <ns3:atemp>21.0</ns3:atemp>
          </ns3:TrackPointExtension>
        </extensions>
      </trkpt>
      <trkpt lat="42.5206506438553333282470703125" lon="19.9484599940478801727294921875">
        <ele>1825.199951171875</ele>
        <time>2026-06-17T09:14:30.000Z</time>
        <extensions>
          <ns3:TrackPointExtension>
            <ns3:atemp>21.0</ns3:atemp>
          </ns3:TrackPointExtension>
        </extensions>
      </trkpt>
      <trkpt lat="42.5206506438553333282470703125" lon="19.9484599940478801727294921875">
        <ele>1825.199951171875</ele>
        <time>2026-06-17T09:14:31.000Z</time>
        <extensions>
          <ns3:TrackPointExtension>
            <ns3:atemp>20.0</ns3:atemp>
          </ns3:TrackPointExtension>
        </extensions>
      </trkpt>
      <trkpt lat="42.5206506438553333282470703125" lon="19.9484599940478801727294921875">
        <ele>1825.199951171875</ele>
        <time>2026-06-17T09:14:32.000Z</time>
        <extensions>
          <ns3:TrackPointExtension>
            <ns3:atemp>20.0</ns3:atemp>
          </ns3:TrackPointExtension>
        </extensions>
      </trkpt>
      <trkpt lat="42.5206506438553333282470703125" lon="19.9484599940478801727294921875">
        <ele>1825.199951171875</ele>
        <time>2026-06-17T09:14:33.000Z</time>
        <extensions>
          <ns3:TrackPointExtension>
            <ns3:atemp>20.0</ns3:atemp>
          </ns3:TrackPointExtension>
        </extensions>
      </trkpt>
      <trkpt lat="42.5206506438553333282470703125" lon="19.9484599940478801727294921875">
        <ele>1825.199951171875</ele>
        <time>2026-06-17T09:14:34.000Z</time>
        <extensions>
          <ns3:TrackPointExtension>
            <ns3:atemp>20.0</ns3:atemp>
          </ns3:TrackPointExtension>
        </extensions>
      </trkpt>
      <trkpt lat="42.5206506438553333282470703125" lon="19.9484599940478801727294921875">
        <ele>1825</ele>
        <time>2026-06-17T09:14:35.000Z</time>
        <extensions>
          <ns3:TrackPointExtension>
            <ns3:atemp>20.0</ns3:atemp>
          </ns3:TrackPointExtension>
        </extensions>
      </trkpt>
      <trkpt lat="42.5206506438553333282470703125" lon="19.9484599940478801727294921875">
        <ele>1825</ele>
        <time>2026-06-17T09:14:36.000Z</time>
        <extensions>
          <ns3:TrackPointExtension>
            <ns3:atemp>20.0</ns3:atemp>
          </ns3:TrackPointExtension>
        </extensions>
      </trkpt>
      <trkpt lat="42.5206506438553333282470703125" lon="19.9484599940478801727294921875">
        <ele>1825</ele>
        <time>2026-06-17T09:14:37.000Z</time>
        <extensions>
          <ns3:TrackPointExtension>
            <ns3:atemp>20.0</ns3:atemp>
          </ns3:TrackPointExtension>
        </extensions>
      </trkpt>
      <trkpt lat="42.5206506438553333282470703125" lon="19.9484599940478801727294921875">
        <ele>1825</ele>
        <time>2026-06-17T09:14:38.000Z</time>
        <extensions>
          <ns3:TrackPointExtension>
            <ns3:atemp>20.0</ns3:atemp>
          </ns3:TrackPointExtension>
        </extensions>
      </trkpt>
      <trkpt lat="42.5206506438553333282470703125" lon="19.9484599940478801727294921875">
        <ele>1825</ele>
        <time>2026-06-17T09:14:39.000Z</time>
        <extensions>
          <ns3:TrackPointExtension>
            <ns3:atemp>20.0</ns3:atemp>
          </ns3:TrackPointExtension>
        </extensions>
      </trkpt>
      <trkpt lat="42.5206529907882213592529296875" lon="19.9484561383724212646484375">
        <ele>1825</ele>
        <time>2026-06-17T09:14:40.000Z</time>
        <extensions>
          <ns3:TrackPointExtension>
            <ns3:atemp>20.0</ns3:atemp>
          </ns3:TrackPointExtension>
        </extensions>
      </trkpt>
      <trkpt lat="42.52065651118755340576171875" lon="19.94845069013535976409912109375">
        <ele>1825</ele>
        <time>2026-06-17T09:14:41.000Z</time>
        <extensions>
          <ns3:TrackPointExtension>
            <ns3:atemp>20.0</ns3:atemp>
          </ns3:TrackPointExtension>
        </extensions>
      </trkpt>
      <trkpt lat="42.5206506438553333282470703125" lon="19.9484599940478801727294921875">
        <ele>1825</ele>
        <time>2026-06-17T09:14:42.000Z</time>
        <extensions>
          <ns3:TrackPointExtension>
            <ns3:atemp>20.0</ns3:atemp>
          </ns3:TrackPointExtension>
        </extensions>
      </trkpt>
      <trkpt lat="42.5206506438553333282470703125" lon="19.9484599940478801727294921875">
        <ele>1825</ele>
        <time>2026-06-17T09:14:43.000Z</time>
        <extensions>
          <ns3:TrackPointExtension>
            <ns3:atemp>20.0</ns3:atemp>
          </ns3:TrackPointExtension>
        </extensions>
      </trkpt>
      <trkpt lat="42.5206506438553333282470703125" lon="19.9484599940478801727294921875">
        <ele>1824.800048828125</ele>
        <time>2026-06-17T09:14:44.000Z</time>
        <extensions>
          <ns3:TrackPointExtension>
            <ns3:atemp>20.0</ns3:atemp>
          </ns3:TrackPointExtension>
        </extensions>
      </trkpt>
      <trkpt lat="42.5206506438553333282470703125" lon="19.9484599940478801727294921875">
        <ele>1824.800048828125</ele>
        <time>2026-06-17T09:14:45.000Z</time>
        <extensions>
          <ns3:TrackPointExtension>
            <ns3:atemp>20.0</ns3:atemp>
          </ns3:TrackPointExtension>
        </extensions>
      </trkpt>
      <trkpt lat="42.5206506438553333282470703125" lon="19.9484599940478801727294921875">
        <ele>1824.5999755859375</ele>
        <time>2026-06-17T09:14:46.000Z</time>
        <extensions>
          <ns3:TrackPointExtension>
            <ns3:atemp>20.0</ns3:atemp>
          </ns3:TrackPointExtension>
        </extensions>
      </trkpt>
      <trkpt lat="42.5206506438553333282470703125" lon="19.9484599940478801727294921875">
        <ele>1824.4000244140625</ele>
        <time>2026-06-17T09:14:47.000Z</time>
        <extensions>
          <ns3:TrackPointExtension>
            <ns3:atemp>20.0</ns3:atemp>
          </ns3:TrackPointExtension>
        </extensions>
      </trkpt>
      <trkpt lat="42.5206506438553333282470703125" lon="19.9484599940478801727294921875">
        <ele>1824.199951171875</ele>
        <time>2026-06-17T09:14:48.000Z</time>
        <extensions>
          <ns3:TrackPointExtension>
            <ns3:atemp>20.0</ns3:atemp>
          </ns3:TrackPointExtension>
        </extensions>
      </trkpt>
      <trkpt lat="42.5206506438553333282470703125" lon="19.9484599940478801727294921875">
        <ele>1824.199951171875</ele>
        <time>2026-06-17T09:14:49.000Z</time>
        <extensions>
          <ns3:TrackPointExtension>
            <ns3:atemp>20.0</ns3:atemp>
          </ns3:TrackPointExtension>
        </extensions>
      </trkpt>
      <trkpt lat="42.5206506438553333282470703125" lon="19.9484599940478801727294921875">
        <ele>1824</ele>
        <time>2026-06-17T09:14:50.000Z</time>
        <extensions>
          <ns3:TrackPointExtension>
            <ns3:atemp>20.0</ns3:atemp>
          </ns3:TrackPointExtension>
        </extensions>
      </trkpt>
      <trkpt lat="42.5206506438553333282470703125" lon="19.9484599940478801727294921875">
        <ele>1824</ele>
        <time>2026-06-17T09:14:51.000Z</time>
        <extensions>
          <ns3:TrackPointExtension>
            <ns3:atemp>20.0</ns3:atemp>
          </ns3:TrackPointExtension>
        </extensions>
      </trkpt>
      <trkpt lat="42.5206506438553333282470703125" lon="19.9484599940478801727294921875">
        <ele>1824</ele>
        <time>2026-06-17T09:14:52.000Z</time>
        <extensions>
          <ns3:TrackPointExtension>
            <ns3:atemp>20.0</ns3:atemp>
          </ns3:TrackPointExtension>
        </extensions>
      </trkpt>
      <trkpt lat="42.5206506438553333282470703125" lon="19.9484599940478801727294921875">
        <ele>1824</ele>
        <time>2026-06-17T09:14:53.000Z</time>
        <extensions>
          <ns3:TrackPointExtension>
            <ns3:atemp>20.0</ns3:atemp>
          </ns3:TrackPointExtension>
        </extensions>
      </trkpt>
      <trkpt lat="42.5206506438553333282470703125" lon="19.9484599940478801727294921875">
        <ele>1823.800048828125</ele>
        <time>2026-06-17T09:14:54.000Z</time>
        <extensions>
          <ns3:TrackPointExtension>
            <ns3:atemp>20.0</ns3:atemp>
          </ns3:TrackPointExtension>
        </extensions>
      </trkpt>
      <trkpt lat="42.5206506438553333282470703125" lon="19.9484599940478801727294921875">
        <ele>1823.800048828125</ele>
        <time>2026-06-17T09:14:55.000Z</time>
        <extensions>
          <ns3:TrackPointExtension>
            <ns3:atemp>20.0</ns3:atemp>
          </ns3:TrackPointExtension>
        </extensions>
      </trkpt>
      <trkpt lat="42.5206506438553333282470703125" lon="19.9484599940478801727294921875">
        <ele>1823.800048828125</ele>
        <time>2026-06-17T09:14:56.000Z</time>
        <extensions>
          <ns3:TrackPointExtension>
            <ns3:atemp>20.0</ns3:atemp>
          </ns3:TrackPointExtension>
        </extensions>
      </trkpt>
      <trkpt lat="42.5206506438553333282470703125" lon="19.9484599940478801727294921875">
        <ele>1823.800048828125</ele>
        <time>2026-06-17T09:14:57.000Z</time>
        <extensions>
          <ns3:TrackPointExtension>
            <ns3:atemp>20.0</ns3:atemp>
          </ns3:TrackPointExtension>
        </extensions>
      </trkpt>
      <trkpt lat="42.5206506438553333282470703125" lon="19.9484599940478801727294921875">
        <ele>1823.800048828125</ele>
        <time>2026-06-17T09:14:58.000Z</time>
        <extensions>
          <ns3:TrackPointExtension>
            <ns3:atemp>20.0</ns3:atemp>
          </ns3:TrackPointExtension>
        </extensions>
      </trkpt>
      <trkpt lat="42.5206506438553333282470703125" lon="19.9484599940478801727294921875">
        <ele>1823.800048828125</ele>
        <time>2026-06-17T09:14:59.000Z</time>
        <extensions>
          <ns3:TrackPointExtension>
            <ns3:atemp>20.0</ns3:atemp>
          </ns3:TrackPointExtension>
        </extensions>
      </trkpt>
      <trkpt lat="42.5206506438553333282470703125" lon="19.9484599940478801727294921875">
        <ele>1823.800048828125</ele>
        <time>2026-06-17T09:15:00.000Z</time>
        <extensions>
          <ns3:TrackPointExtension>
            <ns3:atemp>20.0</ns3:atemp>
          </ns3:TrackPointExtension>
        </extensions>
      </trkpt>
      <trkpt lat="42.5206506438553333282470703125" lon="19.9484599940478801727294921875">
        <ele>1823.800048828125</ele>
        <time>2026-06-17T09:15:01.000Z</time>
        <extensions>
          <ns3:TrackPointExtension>
            <ns3:atemp>20.0</ns3:atemp>
          </ns3:TrackPointExtension>
        </extensions>
      </trkpt>
      <trkpt lat="42.5206506438553333282470703125" lon="19.9484599940478801727294921875">
        <ele>1823.800048828125</ele>
        <time>2026-06-17T09:15:02.000Z</time>
        <extensions>
          <ns3:TrackPointExtension>
            <ns3:atemp>20.0</ns3:atemp>
          </ns3:TrackPointExtension>
        </extensions>
      </trkpt>
      <trkpt lat="42.5206506438553333282470703125" lon="19.9484599940478801727294921875">
        <ele>1823.5999755859375</ele>
        <time>2026-06-17T09:15:03.000Z</time>
        <extensions>
          <ns3:TrackPointExtension>
            <ns3:atemp>20.0</ns3:atemp>
          </ns3:TrackPointExtension>
        </extensions>
      </trkpt>
      <trkpt lat="42.5206506438553333282470703125" lon="19.9484599940478801727294921875">
        <ele>1823.5999755859375</ele>
        <time>2026-06-17T09:15:04.000Z</time>
        <extensions>
          <ns3:TrackPointExtension>
            <ns3:atemp>20.0</ns3:atemp>
          </ns3:TrackPointExtension>
        </extensions>
      </trkpt>
      <trkpt lat="42.5206506438553333282470703125" lon="19.9484599940478801727294921875">
        <ele>1823.5999755859375</ele>
        <time>2026-06-17T09:15:05.000Z</time>
        <extensions>
          <ns3:TrackPointExtension>
            <ns3:atemp>20.0</ns3:atemp>
          </ns3:TrackPointExtension>
        </extensions>
      </trkpt>
      <trkpt lat="42.5206506438553333282470703125" lon="19.9484599940478801727294921875">
        <ele>1823.5999755859375</ele>
        <time>2026-06-17T09:15:06.000Z</time>
        <extensions>
          <ns3:TrackPointExtension>
            <ns3:atemp>20.0</ns3:atemp>
          </ns3:TrackPointExtension>
        </extensions>
      </trkpt>
      <trkpt lat="42.5206506438553333282470703125" lon="19.9484599940478801727294921875">
        <ele>1823.5999755859375</ele>
        <time>2026-06-17T09:15:07.000Z</time>
        <extensions>
          <ns3:TrackPointExtension>
            <ns3:atemp>20.0</ns3:atemp>
          </ns3:TrackPointExtension>
        </extensions>
      </trkpt>
      <trkpt lat="42.5206506438553333282470703125" lon="19.9484599940478801727294921875">
        <ele>1823.5999755859375</ele>
        <time>2026-06-17T09:15:08.000Z</time>
        <extensions>
          <ns3:TrackPointExtension>
            <ns3:atemp>20.0</ns3:atemp>
          </ns3:TrackPointExtension>
        </extensions>
      </trkpt>
      <trkpt lat="42.5206506438553333282470703125" lon="19.9484599940478801727294921875">
        <ele>1823.5999755859375</ele>
        <time>2026-06-17T09:15:09.000Z</time>
        <extensions>
          <ns3:TrackPointExtension>
            <ns3:atemp>20.0</ns3:atemp>
          </ns3:TrackPointExtension>
        </extensions>
      </trkpt>
      <trkpt lat="42.5206506438553333282470703125" lon="19.9484599940478801727294921875">
        <ele>1823.5999755859375</ele>
        <time>2026-06-17T09:15:10.000Z</time>
        <extensions>
          <ns3:TrackPointExtension>
            <ns3:atemp>20.0</ns3:atemp>
          </ns3:TrackPointExtension>
        </extensions>
      </trkpt>
      <trkpt lat="42.5206506438553333282470703125" lon="19.9484599940478801727294921875">
        <ele>1823.5999755859375</ele>
        <time>2026-06-17T09:15:11.000Z</time>
        <extensions>
          <ns3:TrackPointExtension>
            <ns3:atemp>20.0</ns3:atemp>
          </ns3:TrackPointExtension>
        </extensions>
      </trkpt>
      <trkpt lat="42.5206506438553333282470703125" lon="19.9484599940478801727294921875">
        <ele>1823.5999755859375</ele>
        <time>2026-06-17T09:15:12.000Z</time>
        <extensions>
          <ns3:TrackPointExtension>
            <ns3:atemp>20.0</ns3:atemp>
          </ns3:TrackPointExtension>
        </extensions>
      </trkpt>
      <trkpt lat="42.5206506438553333282470703125" lon="19.9484599940478801727294921875">
        <ele>1823.5999755859375</ele>
        <time>2026-06-17T09:15:13.000Z</time>
        <extensions>
          <ns3:TrackPointExtension>
            <ns3:atemp>20.0</ns3:atemp>
          </ns3:TrackPointExtension>
        </extensions>
      </trkpt>
      <trkpt lat="42.5206506438553333282470703125" lon="19.9484599940478801727294921875">
        <ele>1823.5999755859375</ele>
        <time>2026-06-17T09:15:14.000Z</time>
        <extensions>
          <ns3:TrackPointExtension>
            <ns3:atemp>20.0</ns3:atemp>
          </ns3:TrackPointExtension>
        </extensions>
      </trkpt>
      <trkpt lat="42.5206506438553333282470703125" lon="19.9484599940478801727294921875">
        <ele>1823.4000244140625</ele>
        <time>2026-06-17T09:15:15.000Z</time>
        <extensions>
          <ns3:TrackPointExtension>
            <ns3:atemp>20.0</ns3:atemp>
          </ns3:TrackPointExtension>
        </extensions>
      </trkpt>
      <trkpt lat="42.5206506438553333282470703125" lon="19.9484599940478801727294921875">
        <ele>1823.4000244140625</ele>
        <time>2026-06-17T09:15:16.000Z</time>
        <extensions>
          <ns3:TrackPointExtension>
            <ns3:atemp>20.0</ns3:atemp>
          </ns3:TrackPointExtension>
        </extensions>
      </trkpt>
      <trkpt lat="42.5206506438553333282470703125" lon="19.9484599940478801727294921875">
        <ele>1823.4000244140625</ele>
        <time>2026-06-17T09:15:17.000Z</time>
        <extensions>
          <ns3:TrackPointExtension>
            <ns3:atemp>20.0</ns3:atemp>
          </ns3:TrackPointExtension>
        </extensions>
      </trkpt>
      <trkpt lat="42.5206506438553333282470703125" lon="19.9484599940478801727294921875">
        <ele>1823.4000244140625</ele>
        <time>2026-06-17T09:15:18.000Z</time>
        <extensions>
          <ns3:TrackPointExtension>
            <ns3:atemp>20.0</ns3:atemp>
          </ns3:TrackPointExtension>
        </extensions>
      </trkpt>
      <trkpt lat="42.5206506438553333282470703125" lon="19.9484599940478801727294921875">
        <ele>1823.5999755859375</ele>
        <time>2026-06-17T09:15:19.000Z</time>
        <extensions>
          <ns3:TrackPointExtension>
            <ns3:atemp>20.0</ns3:atemp>
          </ns3:TrackPointExtension>
        </extensions>
      </trkpt>
      <trkpt lat="42.5206506438553333282470703125" lon="19.9484599940478801727294921875">
        <ele>1823.4000244140625</ele>
        <time>2026-06-17T09:15:20.000Z</time>
        <extensions>
          <ns3:TrackPointExtension>
            <ns3:atemp>20.0</ns3:atemp>
          </ns3:TrackPointExtension>
        </extensions>
      </trkpt>
      <trkpt lat="42.5206506438553333282470703125" lon="19.9484599940478801727294921875">
        <ele>1823.4000244140625</ele>
        <time>2026-06-17T09:15:21.000Z</time>
        <extensions>
          <ns3:TrackPointExtension>
            <ns3:atemp>20.0</ns3:atemp>
          </ns3:TrackPointExtension>
        </extensions>
      </trkpt>
      <trkpt lat="42.5206506438553333282470703125" lon="19.9484599940478801727294921875">
        <ele>1823.4000244140625</ele>
        <time>2026-06-17T09:15:22.000Z</time>
        <extensions>
          <ns3:TrackPointExtension>
            <ns3:atemp>20.0</ns3:atemp>
          </ns3:TrackPointExtension>
        </extensions>
      </trkpt>
      <trkpt lat="42.5206506438553333282470703125" lon="19.9484599940478801727294921875">
        <ele>1823.4000244140625</ele>
        <time>2026-06-17T09:15:23.000Z</time>
        <extensions>
          <ns3:TrackPointExtension>
            <ns3:atemp>20.0</ns3:atemp>
          </ns3:TrackPointExtension>
        </extensions>
      </trkpt>
      <trkpt lat="42.5206506438553333282470703125" lon="19.9484599940478801727294921875">
        <ele>1823.4000244140625</ele>
        <time>2026-06-17T09:15:24.000Z</time>
        <extensions>
          <ns3:TrackPointExtension>
            <ns3:atemp>20.0</ns3:atemp>
          </ns3:TrackPointExtension>
        </extensions>
      </trkpt>
      <trkpt lat="42.5206506438553333282470703125" lon="19.9484599940478801727294921875">
        <ele>1823.4000244140625</ele>
        <time>2026-06-17T09:15:25.000Z</time>
        <extensions>
          <ns3:TrackPointExtension>
            <ns3:atemp>20.0</ns3:atemp>
          </ns3:TrackPointExtension>
        </extensions>
      </trkpt>
      <trkpt lat="42.5206506438553333282470703125" lon="19.9484599940478801727294921875">
        <ele>1823.4000244140625</ele>
        <time>2026-06-17T09:15:26.000Z</time>
        <extensions>
          <ns3:TrackPointExtension>
            <ns3:atemp>20.0</ns3:atemp>
          </ns3:TrackPointExtension>
        </extensions>
      </trkpt>
      <trkpt lat="42.5206506438553333282470703125" lon="19.9484599940478801727294921875">
        <ele>1823.4000244140625</ele>
        <time>2026-06-17T09:15:27.000Z</time>
        <extensions>
          <ns3:TrackPointExtension>
            <ns3:atemp>20.0</ns3:atemp>
          </ns3:TrackPointExtension>
        </extensions>
      </trkpt>
      <trkpt lat="42.5206506438553333282470703125" lon="19.9484599940478801727294921875">
        <ele>1823.4000244140625</ele>
        <time>2026-06-17T09:15:28.000Z</time>
        <extensions>
          <ns3:TrackPointExtension>
            <ns3:atemp>20.0</ns3:atemp>
          </ns3:TrackPointExtension>
        </extensions>
      </trkpt>
      <trkpt lat="42.5206506438553333282470703125" lon="19.9484599940478801727294921875">
        <ele>1823.4000244140625</ele>
        <time>2026-06-17T09:15:29.000Z</time>
        <extensions>
          <ns3:TrackPointExtension>
            <ns3:atemp>20.0</ns3:atemp>
          </ns3:TrackPointExtension>
        </extensions>
      </trkpt>
      <trkpt lat="42.5206506438553333282470703125" lon="19.9484599940478801727294921875">
        <ele>1823.4000244140625</ele>
        <time>2026-06-17T09:15:30.000Z</time>
        <extensions>
          <ns3:TrackPointExtension>
            <ns3:atemp>20.0</ns3:atemp>
          </ns3:TrackPointExtension>
        </extensions>
      </trkpt>
      <trkpt lat="42.5206506438553333282470703125" lon="19.9484599940478801727294921875">
        <ele>1823.4000244140625</ele>
        <time>2026-06-17T09:15:31.000Z</time>
        <extensions>
          <ns3:TrackPointExtension>
            <ns3:atemp>20.0</ns3:atemp>
          </ns3:TrackPointExtension>
        </extensions>
      </trkpt>
      <trkpt lat="42.5206506438553333282470703125" lon="19.9484599940478801727294921875">
        <ele>1823.4000244140625</ele>
        <time>2026-06-17T09:15:32.000Z</time>
        <extensions>
          <ns3:TrackPointExtension>
            <ns3:atemp>20.0</ns3:atemp>
          </ns3:TrackPointExtension>
        </extensions>
      </trkpt>
      <trkpt lat="42.5206506438553333282470703125" lon="19.9484599940478801727294921875">
        <ele>1823.4000244140625</ele>
        <time>2026-06-17T09:15:33.000Z</time>
        <extensions>
          <ns3:TrackPointExtension>
            <ns3:atemp>20.0</ns3:atemp>
          </ns3:TrackPointExtension>
        </extensions>
      </trkpt>
      <trkpt lat="42.5206506438553333282470703125" lon="19.9484599940478801727294921875">
        <ele>1823.4000244140625</ele>
        <time>2026-06-17T09:15:34.000Z</time>
        <extensions>
          <ns3:TrackPointExtension>
            <ns3:atemp>20.0</ns3:atemp>
          </ns3:TrackPointExtension>
        </extensions>
      </trkpt>
      <trkpt lat="42.5206506438553333282470703125" lon="19.9484599940478801727294921875">
        <ele>1823.4000244140625</ele>
        <time>2026-06-17T09:15:35.000Z</time>
        <extensions>
          <ns3:TrackPointExtension>
            <ns3:atemp>20.0</ns3:atemp>
          </ns3:TrackPointExtension>
        </extensions>
      </trkpt>
      <trkpt lat="42.5206506438553333282470703125" lon="19.9484599940478801727294921875">
        <ele>1823.4000244140625</ele>
        <time>2026-06-17T09:15:36.000Z</time>
        <extensions>
          <ns3:TrackPointExtension>
            <ns3:atemp>20.0</ns3:atemp>
          </ns3:TrackPointExtension>
        </extensions>
      </trkpt>
      <trkpt lat="42.5206506438553333282470703125" lon="19.9484599940478801727294921875">
        <ele>1823.4000244140625</ele>
        <time>2026-06-17T09:15:37.000Z</time>
        <extensions>
          <ns3:TrackPointExtension>
            <ns3:atemp>20.0</ns3:atemp>
          </ns3:TrackPointExtension>
        </extensions>
      </trkpt>
      <trkpt lat="42.5206506438553333282470703125" lon="19.9484599940478801727294921875">
        <ele>1823.199951171875</ele>
        <time>2026-06-17T09:15:38.000Z</time>
        <extensions>
          <ns3:TrackPointExtension>
            <ns3:atemp>20.0</ns3:atemp>
          </ns3:TrackPointExtension>
        </extensions>
      </trkpt>
      <trkpt lat="42.5206506438553333282470703125" lon="19.9484599940478801727294921875">
        <ele>1823.199951171875</ele>
        <time>2026-06-17T09:15:39.000Z</time>
        <extensions>
          <ns3:TrackPointExtension>
            <ns3:atemp>20.0</ns3:atemp>
          </ns3:TrackPointExtension>
        </extensions>
      </trkpt>
      <trkpt lat="42.5206506438553333282470703125" lon="19.9484599940478801727294921875">
        <ele>1823.199951171875</ele>
        <time>2026-06-17T09:15:40.000Z</time>
        <extensions>
          <ns3:TrackPointExtension>
            <ns3:atemp>20.0</ns3:atemp>
          </ns3:TrackPointExtension>
        </extensions>
      </trkpt>
      <trkpt lat="42.5206506438553333282470703125" lon="19.9484599940478801727294921875">
        <ele>1823.199951171875</ele>
        <time>2026-06-17T09:15:41.000Z</time>
        <extensions>
          <ns3:TrackPointExtension>
            <ns3:atemp>20.0</ns3:atemp>
          </ns3:TrackPointExtension>
        </extensions>
      </trkpt>
      <trkpt lat="42.5206506438553333282470703125" lon="19.9484599940478801727294921875">
        <ele>1823.199951171875</ele>
        <time>2026-06-17T09:15:42.000Z</time>
        <extensions>
          <ns3:TrackPointExtension>
            <ns3:atemp>20.0</ns3:atemp>
          </ns3:TrackPointExtension>
        </extensions>
      </trkpt>
      <trkpt lat="42.5206506438553333282470703125" lon="19.9484599940478801727294921875">
        <ele>1823.199951171875</ele>
        <time>2026-06-17T09:15:43.000Z</time>
        <extensions>
          <ns3:TrackPointExtension>
            <ns3:atemp>20.0</ns3:atemp>
          </ns3:TrackPointExtension>
        </extensions>
      </trkpt>
      <trkpt lat="42.5206506438553333282470703125" lon="19.9484599940478801727294921875">
        <ele>1823.199951171875</ele>
        <time>2026-06-17T09:15:44.000Z</time>
        <extensions>
          <ns3:TrackPointExtension>
            <ns3:atemp>20.0</ns3:atemp>
          </ns3:TrackPointExtension>
        </extensions>
      </trkpt>
      <trkpt lat="42.5206506438553333282470703125" lon="19.9484599940478801727294921875">
        <ele>1823.199951171875</ele>
        <time>2026-06-17T09:15:45.000Z</time>
        <extensions>
          <ns3:TrackPointExtension>
            <ns3:atemp>20.0</ns3:atemp>
          </ns3:TrackPointExtension>
        </extensions>
      </trkpt>
      <trkpt lat="42.5206506438553333282470703125" lon="19.9484599940478801727294921875">
        <ele>1823.199951171875</ele>
        <time>2026-06-17T09:15:46.000Z</time>
        <extensions>
          <ns3:TrackPointExtension>
            <ns3:atemp>20.0</ns3:atemp>
          </ns3:TrackPointExtension>
        </extensions>
      </trkpt>
      <trkpt lat="42.5206506438553333282470703125" lon="19.9484599940478801727294921875">
        <ele>1823.199951171875</ele>
        <time>2026-06-17T09:15:47.000Z</time>
        <extensions>
          <ns3:TrackPointExtension>
            <ns3:atemp>20.0</ns3:atemp>
          </ns3:TrackPointExtension>
        </extensions>
      </trkpt>
      <trkpt lat="42.5206506438553333282470703125" lon="19.9484599940478801727294921875">
        <ele>1823.199951171875</ele>
        <time>2026-06-17T09:15:48.000Z</time>
        <extensions>
          <ns3:TrackPointExtension>
            <ns3:atemp>20.0</ns3:atemp>
          </ns3:TrackPointExtension>
        </extensions>
      </trkpt>
      <trkpt lat="42.5206506438553333282470703125" lon="19.9484599940478801727294921875">
        <ele>1823.199951171875</ele>
        <time>2026-06-17T09:15:49.000Z</time>
        <extensions>
          <ns3:TrackPointExtension>
            <ns3:atemp>20.0</ns3:atemp>
          </ns3:TrackPointExtension>
        </extensions>
      </trkpt>
      <trkpt lat="42.5206506438553333282470703125" lon="19.9484599940478801727294921875">
        <ele>1823.199951171875</ele>
        <time>2026-06-17T09:15:50.000Z</time>
        <extensions>
          <ns3:TrackPointExtension>
            <ns3:atemp>20.0</ns3:atemp>
          </ns3:TrackPointExtension>
        </extensions>
      </trkpt>
      <trkpt lat="42.5206506438553333282470703125" lon="19.9484599940478801727294921875">
        <ele>1823.199951171875</ele>
        <time>2026-06-17T09:15:51.000Z</time>
        <extensions>
          <ns3:TrackPointExtension>
            <ns3:atemp>20.0</ns3:atemp>
          </ns3:TrackPointExtension>
        </extensions>
      </trkpt>
      <trkpt lat="42.5206506438553333282470703125" lon="19.9484599940478801727294921875">
        <ele>1823.199951171875</ele>
        <time>2026-06-17T09:15:52.000Z</time>
        <extensions>
          <ns3:TrackPointExtension>
            <ns3:atemp>20.0</ns3:atemp>
          </ns3:TrackPointExtension>
        </extensions>
      </trkpt>
      <trkpt lat="42.5206506438553333282470703125" lon="19.9484599940478801727294921875">
        <ele>1823.199951171875</ele>
        <time>2026-06-17T09:15:53.000Z</time>
        <extensions>
          <ns3:TrackPointExtension>
            <ns3:atemp>20.0</ns3:atemp>
          </ns3:TrackPointExtension>
        </extensions>
      </trkpt>
      <trkpt lat="42.5206506438553333282470703125" lon="19.9484599940478801727294921875">
        <ele>1823.199951171875</ele>
        <time>2026-06-17T09:15:54.000Z</time>
        <extensions>
          <ns3:TrackPointExtension>
            <ns3:atemp>20.0</ns3:atemp>
          </ns3:TrackPointExtension>
        </extensions>
      </trkpt>
      <trkpt lat="42.5206506438553333282470703125" lon="19.9484599940478801727294921875">
        <ele>1823.199951171875</ele>
        <time>2026-06-17T09:15:55.000Z</time>
        <extensions>
          <ns3:TrackPointExtension>
            <ns3:atemp>20.0</ns3:atemp>
          </ns3:TrackPointExtension>
        </extensions>
      </trkpt>
      <trkpt lat="42.5206506438553333282470703125" lon="19.9484599940478801727294921875">
        <ele>1823.199951171875</ele>
        <time>2026-06-17T09:15:56.000Z</time>
        <extensions>
          <ns3:TrackPointExtension>
            <ns3:atemp>20.0</ns3:atemp>
          </ns3:TrackPointExtension>
        </extensions>
      </trkpt>
      <trkpt lat="42.5206506438553333282470703125" lon="19.9484599940478801727294921875">
        <ele>1823.199951171875</ele>
        <time>2026-06-17T09:15:57.000Z</time>
        <extensions>
          <ns3:TrackPointExtension>
            <ns3:atemp>20.0</ns3:atemp>
          </ns3:TrackPointExtension>
        </extensions>
      </trkpt>
      <trkpt lat="42.5206506438553333282470703125" lon="19.9484599940478801727294921875">
        <ele>1823.199951171875</ele>
        <time>2026-06-17T09:15:58.000Z</time>
        <extensions>
          <ns3:TrackPointExtension>
            <ns3:atemp>20.0</ns3:atemp>
          </ns3:TrackPointExtension>
        </extensions>
      </trkpt>
      <trkpt lat="42.5206506438553333282470703125" lon="19.9484599940478801727294921875">
        <ele>1823.199951171875</ele>
        <time>2026-06-17T09:15:59.000Z</time>
        <extensions>
          <ns3:TrackPointExtension>
            <ns3:atemp>20.0</ns3:atemp>
          </ns3:TrackPointExtension>
        </extensions>
      </trkpt>
      <trkpt lat="42.5206506438553333282470703125" lon="19.9484599940478801727294921875">
        <ele>1823.199951171875</ele>
        <time>2026-06-17T09:16:00.000Z</time>
        <extensions>
          <ns3:TrackPointExtension>
            <ns3:atemp>20.0</ns3:atemp>
          </ns3:TrackPointExtension>
        </extensions>
      </trkpt>
      <trkpt lat="42.5206506438553333282470703125" lon="19.9484599940478801727294921875">
        <ele>1823.199951171875</ele>
        <time>2026-06-17T09:16:01.000Z</time>
        <extensions>
          <ns3:TrackPointExtension>
            <ns3:atemp>20.0</ns3:atemp>
          </ns3:TrackPointExtension>
        </extensions>
      </trkpt>
      <trkpt lat="42.5206506438553333282470703125" lon="19.9484599940478801727294921875">
        <ele>1823.199951171875</ele>
        <time>2026-06-17T09:16:02.000Z</time>
        <extensions>
          <ns3:TrackPointExtension>
            <ns3:atemp>20.0</ns3:atemp>
          </ns3:TrackPointExtension>
        </extensions>
      </trkpt>
      <trkpt lat="42.5206506438553333282470703125" lon="19.9484599940478801727294921875">
        <ele>1823.199951171875</ele>
        <time>2026-06-17T09:16:03.000Z</time>
        <extensions>
          <ns3:TrackPointExtension>
            <ns3:atemp>20.0</ns3:atemp>
          </ns3:TrackPointExtension>
        </extensions>
      </trkpt>
      <trkpt lat="42.5206506438553333282470703125" lon="19.9484599940478801727294921875">
        <ele>1823.199951171875</ele>
        <time>2026-06-17T09:16:04.000Z</time>
        <extensions>
          <ns3:TrackPointExtension>
            <ns3:atemp>20.0</ns3:atemp>
          </ns3:TrackPointExtension>
        </extensions>
      </trkpt>
      <trkpt lat="42.5206506438553333282470703125" lon="19.9484599940478801727294921875">
        <ele>1823.199951171875</ele>
        <time>2026-06-17T09:16:05.000Z</time>
        <extensions>
          <ns3:TrackPointExtension>
            <ns3:atemp>20.0</ns3:atemp>
          </ns3:TrackPointExtension>
        </extensions>
      </trkpt>
      <trkpt lat="42.5206506438553333282470703125" lon="19.9484599940478801727294921875">
        <ele>1823.199951171875</ele>
        <time>2026-06-17T09:16:06.000Z</time>
        <extensions>
          <ns3:TrackPointExtension>
            <ns3:atemp>20.0</ns3:atemp>
          </ns3:TrackPointExtension>
        </extensions>
      </trkpt>
      <trkpt lat="42.5206506438553333282470703125" lon="19.9484599940478801727294921875">
        <ele>1823.199951171875</ele>
        <time>2026-06-17T09:16:07.000Z</time>
        <extensions>
          <ns3:TrackPointExtension>
            <ns3:atemp>20.0</ns3:atemp>
          </ns3:TrackPointExtension>
        </extensions>
      </trkpt>
      <trkpt lat="42.5206506438553333282470703125" lon="19.9484599940478801727294921875">
        <ele>1823</ele>
        <time>2026-06-17T09:16:08.000Z</time>
        <extensions>
          <ns3:TrackPointExtension>
            <ns3:atemp>20.0</ns3:atemp>
          </ns3:TrackPointExtension>
        </extensions>
      </trkpt>
      <trkpt lat="42.5206506438553333282470703125" lon="19.9484599940478801727294921875">
        <ele>1823</ele>
        <time>2026-06-17T09:16:09.000Z</time>
        <extensions>
          <ns3:TrackPointExtension>
            <ns3:atemp>20.0</ns3:atemp>
          </ns3:TrackPointExtension>
        </extensions>
      </trkpt>
      <trkpt lat="42.5206506438553333282470703125" lon="19.9484599940478801727294921875">
        <ele>1823</ele>
        <time>2026-06-17T09:16:10.000Z</time>
        <extensions>
          <ns3:TrackPointExtension>
            <ns3:atemp>20.0</ns3:atemp>
          </ns3:TrackPointExtension>
        </extensions>
      </trkpt>
      <trkpt lat="42.5206506438553333282470703125" lon="19.9484599940478801727294921875">
        <ele>1823</ele>
        <time>2026-06-17T09:16:11.000Z</time>
        <extensions>
          <ns3:TrackPointExtension>
            <ns3:atemp>20.0</ns3:atemp>
          </ns3:TrackPointExtension>
        </extensions>
      </trkpt>
      <trkpt lat="42.5206506438553333282470703125" lon="19.9484599940478801727294921875">
        <ele>1823</ele>
        <time>2026-06-17T09:16:12.000Z</time>
        <extensions>
          <ns3:TrackPointExtension>
            <ns3:atemp>20.0</ns3:atemp>
          </ns3:TrackPointExtension>
        </extensions>
      </trkpt>
      <trkpt lat="42.5206506438553333282470703125" lon="19.9484599940478801727294921875">
        <ele>1823.199951171875</ele>
        <time>2026-06-17T09:16:13.000Z</time>
        <extensions>
          <ns3:TrackPointExtension>
            <ns3:atemp>20.0</ns3:atemp>
          </ns3:TrackPointExtension>
        </extensions>
      </trkpt>
      <trkpt lat="42.5206506438553333282470703125" lon="19.9484599940478801727294921875">
        <ele>1823.199951171875</ele>
        <time>2026-06-17T09:16:14.000Z</time>
        <extensions>
          <ns3:TrackPointExtension>
            <ns3:atemp>20.0</ns3:atemp>
          </ns3:TrackPointExtension>
        </extensions>
      </trkpt>
      <trkpt lat="42.5206506438553333282470703125" lon="19.9484599940478801727294921875">
        <ele>1823.199951171875</ele>
        <time>2026-06-17T09:16:15.000Z</time>
        <extensions>
          <ns3:TrackPointExtension>
            <ns3:atemp>20.0</ns3:atemp>
          </ns3:TrackPointExtension>
        </extensions>
      </trkpt>
      <trkpt lat="42.5206506438553333282470703125" lon="19.9484599940478801727294921875">
        <ele>1823.199951171875</ele>
        <time>2026-06-17T09:16:16.000Z</time>
        <extensions>
          <ns3:TrackPointExtension>
            <ns3:atemp>20.0</ns3:atemp>
          </ns3:TrackPointExtension>
        </extensions>
      </trkpt>
      <trkpt lat="42.5206506438553333282470703125" lon="19.9484599940478801727294921875">
        <ele>1823.199951171875</ele>
        <time>2026-06-17T09:16:17.000Z</time>
        <extensions>
          <ns3:TrackPointExtension>
            <ns3:atemp>20.0</ns3:atemp>
          </ns3:TrackPointExtension>
        </extensions>
      </trkpt>
      <trkpt lat="42.5206506438553333282470703125" lon="19.9484599940478801727294921875">
        <ele>1823.199951171875</ele>
        <time>2026-06-17T09:16:18.000Z</time>
        <extensions>
          <ns3:TrackPointExtension>
            <ns3:atemp>20.0</ns3:atemp>
          </ns3:TrackPointExtension>
        </extensions>
      </trkpt>
      <trkpt lat="42.5206506438553333282470703125" lon="19.9484599940478801727294921875">
        <ele>1823.199951171875</ele>
        <time>2026-06-17T09:16:19.000Z</time>
        <extensions>
          <ns3:TrackPointExtension>
            <ns3:atemp>20.0</ns3:atemp>
          </ns3:TrackPointExtension>
        </extensions>
      </trkpt>
      <trkpt lat="42.5206506438553333282470703125" lon="19.9484599940478801727294921875">
        <ele>1823.199951171875</ele>
        <time>2026-06-17T09:16:20.000Z</time>
        <extensions>
          <ns3:TrackPointExtension>
            <ns3:atemp>20.0</ns3:atemp>
          </ns3:TrackPointExtension>
        </extensions>
      </trkpt>
      <trkpt lat="42.5206506438553333282470703125" lon="19.9484599940478801727294921875">
        <ele>1823.199951171875</ele>
        <time>2026-06-17T09:16:21.000Z</time>
        <extensions>
          <ns3:TrackPointExtension>
            <ns3:atemp>20.0</ns3:atemp>
          </ns3:TrackPointExtension>
        </extensions>
      </trkpt>
      <trkpt lat="42.5206506438553333282470703125" lon="19.9484599940478801727294921875">
        <ele>1823.199951171875</ele>
        <time>2026-06-17T09:16:22.000Z</time>
        <extensions>
          <ns3:TrackPointExtension>
            <ns3:atemp>20.0</ns3:atemp>
          </ns3:TrackPointExtension>
        </extensions>
      </trkpt>
      <trkpt lat="42.5206506438553333282470703125" lon="19.9484599940478801727294921875">
        <ele>1823.199951171875</ele>
        <time>2026-06-17T09:16:23.000Z</time>
        <extensions>
          <ns3:TrackPointExtension>
            <ns3:atemp>20.0</ns3:atemp>
          </ns3:TrackPointExtension>
        </extensions>
      </trkpt>
      <trkpt lat="42.5206506438553333282470703125" lon="19.9484599940478801727294921875">
        <ele>1823</ele>
        <time>2026-06-17T09:16:24.000Z</time>
        <extensions>
          <ns3:TrackPointExtension>
            <ns3:atemp>20.0</ns3:atemp>
          </ns3:TrackPointExtension>
        </extensions>
      </trkpt>
      <trkpt lat="42.5206506438553333282470703125" lon="19.9484599940478801727294921875">
        <ele>1823</ele>
        <time>2026-06-17T09:16:25.000Z</time>
        <extensions>
          <ns3:TrackPointExtension>
            <ns3:atemp>20.0</ns3:atemp>
          </ns3:TrackPointExtension>
        </extensions>
      </trkpt>
      <trkpt lat="42.5206506438553333282470703125" lon="19.9484599940478801727294921875">
        <ele>1823</ele>
        <time>2026-06-17T09:16:26.000Z</time>
        <extensions>
          <ns3:TrackPointExtension>
            <ns3:atemp>20.0</ns3:atemp>
          </ns3:TrackPointExtension>
        </extensions>
      </trkpt>
      <trkpt lat="42.5206506438553333282470703125" lon="19.9484599940478801727294921875">
        <ele>1823</ele>
        <time>2026-06-17T09:16:27.000Z</time>
        <extensions>
          <ns3:TrackPointExtension>
            <ns3:atemp>20.0</ns3:atemp>
          </ns3:TrackPointExtension>
        </extensions>
      </trkpt>
      <trkpt lat="42.5206506438553333282470703125" lon="19.9484599940478801727294921875">
        <ele>1823</ele>
        <time>2026-06-17T09:16:28.000Z</time>
        <extensions>
          <ns3:TrackPointExtension>
            <ns3:atemp>20.0</ns3:atemp>
          </ns3:TrackPointExtension>
        </extensions>
      </trkpt>
      <trkpt lat="42.5206506438553333282470703125" lon="19.9484599940478801727294921875">
        <ele>1823</ele>
        <time>2026-06-17T09:16:29.000Z</time>
        <extensions>
          <ns3:TrackPointExtension>
            <ns3:atemp>20.0</ns3:atemp>
          </ns3:TrackPointExtension>
        </extensions>
      </trkpt>
      <trkpt lat="42.5206506438553333282470703125" lon="19.9484599940478801727294921875">
        <ele>1823</ele>
        <time>2026-06-17T09:16:30.000Z</time>
        <extensions>
          <ns3:TrackPointExtension>
            <ns3:atemp>20.0</ns3:atemp>
          </ns3:TrackPointExtension>
        </extensions>
      </trkpt>
      <trkpt lat="42.5206506438553333282470703125" lon="19.9484599940478801727294921875">
        <ele>1823</ele>
        <time>2026-06-17T09:16:31.000Z</time>
        <extensions>
          <ns3:TrackPointExtension>
            <ns3:atemp>20.0</ns3:atemp>
          </ns3:TrackPointExtension>
        </extensions>
      </trkpt>
      <trkpt lat="42.5206506438553333282470703125" lon="19.9484599940478801727294921875">
        <ele>1823</ele>
        <time>2026-06-17T09:16:32.000Z</time>
        <extensions>
          <ns3:TrackPointExtension>
            <ns3:atemp>20.0</ns3:atemp>
          </ns3:TrackPointExtension>
        </extensions>
      </trkpt>
      <trkpt lat="42.5206506438553333282470703125" lon="19.9484599940478801727294921875">
        <ele>1823</ele>
        <time>2026-06-17T09:16:33.000Z</time>
        <extensions>
          <ns3:TrackPointExtension>
            <ns3:atemp>20.0</ns3:atemp>
          </ns3:TrackPointExtension>
        </extensions>
      </trkpt>
      <trkpt lat="42.5206506438553333282470703125" lon="19.9484599940478801727294921875">
        <ele>1823</ele>
        <time>2026-06-17T09:16:34.000Z</time>
        <extensions>
          <ns3:TrackPointExtension>
            <ns3:atemp>20.0</ns3:atemp>
          </ns3:TrackPointExtension>
        </extensions>
      </trkpt>
      <trkpt lat="42.5206506438553333282470703125" lon="19.9484599940478801727294921875">
        <ele>1823</ele>
        <time>2026-06-17T09:16:35.000Z</time>
        <extensions>
          <ns3:TrackPointExtension>
            <ns3:atemp>20.0</ns3:atemp>
          </ns3:TrackPointExtension>
        </extensions>
      </trkpt>
      <trkpt lat="42.5206506438553333282470703125" lon="19.9484599940478801727294921875">
        <ele>1823</ele>
        <time>2026-06-17T09:16:36.000Z</time>
        <extensions>
          <ns3:TrackPointExtension>
            <ns3:atemp>20.0</ns3:atemp>
          </ns3:TrackPointExtension>
        </extensions>
      </trkpt>
      <trkpt lat="42.5206506438553333282470703125" lon="19.9484599940478801727294921875">
        <ele>1823</ele>
        <time>2026-06-17T09:16:37.000Z</time>
        <extensions>
          <ns3:TrackPointExtension>
            <ns3:atemp>20.0</ns3:atemp>
          </ns3:TrackPointExtension>
        </extensions>
      </trkpt>
      <trkpt lat="42.5206506438553333282470703125" lon="19.9484599940478801727294921875">
        <ele>1823</ele>
        <time>2026-06-17T09:16:38.000Z</time>
        <extensions>
          <ns3:TrackPointExtension>
            <ns3:atemp>20.0</ns3:atemp>
          </ns3:TrackPointExtension>
        </extensions>
      </trkpt>
      <trkpt lat="42.5206506438553333282470703125" lon="19.9484599940478801727294921875">
        <ele>1823</ele>
        <time>2026-06-17T09:16:39.000Z</time>
        <extensions>
          <ns3:TrackPointExtension>
            <ns3:atemp>20.0</ns3:atemp>
          </ns3:TrackPointExtension>
        </extensions>
      </trkpt>
      <trkpt lat="42.5206506438553333282470703125" lon="19.9484599940478801727294921875">
        <ele>1823</ele>
        <time>2026-06-17T09:16:40.000Z</time>
        <extensions>
          <ns3:TrackPointExtension>
            <ns3:atemp>20.0</ns3:atemp>
          </ns3:TrackPointExtension>
        </extensions>
      </trkpt>
      <trkpt lat="42.5206506438553333282470703125" lon="19.9484599940478801727294921875">
        <ele>1823</ele>
        <time>2026-06-17T09:16:41.000Z</time>
        <extensions>
          <ns3:TrackPointExtension>
            <ns3:atemp>20.0</ns3:atemp>
          </ns3:TrackPointExtension>
        </extensions>
      </trkpt>
      <trkpt lat="42.5206506438553333282470703125" lon="19.9484599940478801727294921875">
        <ele>1823</ele>
        <time>2026-06-17T09:16:42.000Z</time>
        <extensions>
          <ns3:TrackPointExtension>
            <ns3:atemp>20.0</ns3:atemp>
          </ns3:TrackPointExtension>
        </extensions>
      </trkpt>
      <trkpt lat="42.5206506438553333282470703125" lon="19.9484599940478801727294921875">
        <ele>1823</ele>
        <time>2026-06-17T09:16:43.000Z</time>
        <extensions>
          <ns3:TrackPointExtension>
            <ns3:atemp>20.0</ns3:atemp>
          </ns3:TrackPointExtension>
        </extensions>
      </trkpt>
      <trkpt lat="42.5206506438553333282470703125" lon="19.9484599940478801727294921875">
        <ele>1823</ele>
        <time>2026-06-17T09:16:44.000Z</time>
        <extensions>
          <ns3:TrackPointExtension>
            <ns3:atemp>20.0</ns3:atemp>
          </ns3:TrackPointExtension>
        </extensions>
      </trkpt>
      <trkpt lat="42.5206506438553333282470703125" lon="19.9484599940478801727294921875">
        <ele>1823</ele>
        <time>2026-06-17T09:16:45.000Z</time>
        <extensions>
          <ns3:TrackPointExtension>
            <ns3:atemp>20.0</ns3:atemp>
          </ns3:TrackPointExtension>
        </extensions>
      </trkpt>
      <trkpt lat="42.5206506438553333282470703125" lon="19.9484599940478801727294921875">
        <ele>1823</ele>
        <time>2026-06-17T09:16:46.000Z</time>
        <extensions>
          <ns3:TrackPointExtension>
            <ns3:atemp>20.0</ns3:atemp>
          </ns3:TrackPointExtension>
        </extensions>
      </trkpt>
      <trkpt lat="42.5206506438553333282470703125" lon="19.9484599940478801727294921875">
        <ele>1823</ele>
        <time>2026-06-17T09:16:47.000Z</time>
        <extensions>
          <ns3:TrackPointExtension>
            <ns3:atemp>20.0</ns3:atemp>
          </ns3:TrackPointExtension>
        </extensions>
      </trkpt>
      <trkpt lat="42.5206506438553333282470703125" lon="19.9484599940478801727294921875">
        <ele>1823</ele>
        <time>2026-06-17T09:16:48.000Z</time>
        <extensions>
          <ns3:TrackPointExtension>
            <ns3:atemp>20.0</ns3:atemp>
          </ns3:TrackPointExtension>
        </extensions>
      </trkpt>
      <trkpt lat="42.5206506438553333282470703125" lon="19.9484599940478801727294921875">
        <ele>1823</ele>
        <time>2026-06-17T09:16:49.000Z</time>
        <extensions>
          <ns3:TrackPointExtension>
            <ns3:atemp>20.0</ns3:atemp>
          </ns3:TrackPointExtension>
        </extensions>
      </trkpt>
      <trkpt lat="42.5206506438553333282470703125" lon="19.9484599940478801727294921875">
        <ele>1823</ele>
        <time>2026-06-17T09:16:50.000Z</time>
        <extensions>
          <ns3:TrackPointExtension>
            <ns3:atemp>20.0</ns3:atemp>
          </ns3:TrackPointExtension>
        </extensions>
      </trkpt>
      <trkpt lat="42.5206506438553333282470703125" lon="19.9484599940478801727294921875">
        <ele>1823</ele>
        <time>2026-06-17T09:16:51.000Z</time>
        <extensions>
          <ns3:TrackPointExtension>
            <ns3:atemp>20.0</ns3:atemp>
          </ns3:TrackPointExtension>
        </extensions>
      </trkpt>
      <trkpt lat="42.5206506438553333282470703125" lon="19.9484599940478801727294921875">
        <ele>1823</ele>
        <time>2026-06-17T09:16:52.000Z</time>
        <extensions>
          <ns3:TrackPointExtension>
            <ns3:atemp>20.0</ns3:atemp>
          </ns3:TrackPointExtension>
        </extensions>
      </trkpt>
      <trkpt lat="42.5206506438553333282470703125" lon="19.9484599940478801727294921875">
        <ele>1823</ele>
        <time>2026-06-17T09:16:53.000Z</time>
        <extensions>
          <ns3:TrackPointExtension>
            <ns3:atemp>20.0</ns3:atemp>
          </ns3:TrackPointExtension>
        </extensions>
      </trkpt>
      <trkpt lat="42.5206506438553333282470703125" lon="19.9484599940478801727294921875">
        <ele>1823</ele>
        <time>2026-06-17T09:16:54.000Z</time>
        <extensions>
          <ns3:TrackPointExtension>
            <ns3:atemp>20.0</ns3:atemp>
          </ns3:TrackPointExtension>
        </extensions>
      </trkpt>
      <trkpt lat="42.5206506438553333282470703125" lon="19.9484599940478801727294921875">
        <ele>1823</ele>
        <time>2026-06-17T09:16:55.000Z</time>
        <extensions>
          <ns3:TrackPointExtension>
            <ns3:atemp>20.0</ns3:atemp>
          </ns3:TrackPointExtension>
        </extensions>
      </trkpt>
      <trkpt lat="42.5206506438553333282470703125" lon="19.9484599940478801727294921875">
        <ele>1823</ele>
        <time>2026-06-17T09:16:56.000Z</time>
        <extensions>
          <ns3:TrackPointExtension>
            <ns3:atemp>20.0</ns3:atemp>
          </ns3:TrackPointExtension>
        </extensions>
      </trkpt>
      <trkpt lat="42.5206506438553333282470703125" lon="19.9484599940478801727294921875">
        <ele>1823</ele>
        <time>2026-06-17T09:16:57.000Z</time>
        <extensions>
          <ns3:TrackPointExtension>
            <ns3:atemp>20.0</ns3:atemp>
          </ns3:TrackPointExtension>
        </extensions>
      </trkpt>
      <trkpt lat="42.5206506438553333282470703125" lon="19.9484599940478801727294921875">
        <ele>1823</ele>
        <time>2026-06-17T09:16:58.000Z</time>
        <extensions>
          <ns3:TrackPointExtension>
            <ns3:atemp>20.0</ns3:atemp>
          </ns3:TrackPointExtension>
        </extensions>
      </trkpt>
      <trkpt lat="42.5206506438553333282470703125" lon="19.9484599940478801727294921875">
        <ele>1823</ele>
        <time>2026-06-17T09:16:59.000Z</time>
        <extensions>
          <ns3:TrackPointExtension>
            <ns3:atemp>20.0</ns3:atemp>
          </ns3:TrackPointExtension>
        </extensions>
      </trkpt>
      <trkpt lat="42.5206506438553333282470703125" lon="19.9484599940478801727294921875">
        <ele>1823</ele>
        <time>2026-06-17T09:17:00.000Z</time>
        <extensions>
          <ns3:TrackPointExtension>
            <ns3:atemp>20.0</ns3:atemp>
          </ns3:TrackPointExtension>
        </extensions>
      </trkpt>
      <trkpt lat="42.5206506438553333282470703125" lon="19.9484599940478801727294921875">
        <ele>1823</ele>
        <time>2026-06-17T09:17:01.000Z</time>
        <extensions>
          <ns3:TrackPointExtension>
            <ns3:atemp>20.0</ns3:atemp>
          </ns3:TrackPointExtension>
        </extensions>
      </trkpt>
      <trkpt lat="42.5206506438553333282470703125" lon="19.9484599940478801727294921875">
        <ele>1823</ele>
        <time>2026-06-17T09:17:02.000Z</time>
        <extensions>
          <ns3:TrackPointExtension>
            <ns3:atemp>20.0</ns3:atemp>
          </ns3:TrackPointExtension>
        </extensions>
      </trkpt>
      <trkpt lat="42.5206506438553333282470703125" lon="19.9484599940478801727294921875">
        <ele>1823</ele>
        <time>2026-06-17T09:17:03.000Z</time>
        <extensions>
          <ns3:TrackPointExtension>
            <ns3:atemp>20.0</ns3:atemp>
          </ns3:TrackPointExtension>
        </extensions>
      </trkpt>
      <trkpt lat="42.5206506438553333282470703125" lon="19.9484599940478801727294921875">
        <ele>1823</ele>
        <time>2026-06-17T09:17:04.000Z</time>
        <extensions>
          <ns3:TrackPointExtension>
            <ns3:atemp>20.0</ns3:atemp>
          </ns3:TrackPointExtension>
        </extensions>
      </trkpt>
      <trkpt lat="42.5206506438553333282470703125" lon="19.9484599940478801727294921875">
        <ele>1823</ele>
        <time>2026-06-17T09:17:05.000Z</time>
        <extensions>
          <ns3:TrackPointExtension>
            <ns3:atemp>20.0</ns3:atemp>
          </ns3:TrackPointExtension>
        </extensions>
      </trkpt>
      <trkpt lat="42.5206506438553333282470703125" lon="19.9484599940478801727294921875">
        <ele>1823</ele>
        <time>2026-06-17T09:17:06.000Z</time>
        <extensions>
          <ns3:TrackPointExtension>
            <ns3:atemp>20.0</ns3:atemp>
          </ns3:TrackPointExtension>
        </extensions>
      </trkpt>
      <trkpt lat="42.5206506438553333282470703125" lon="19.9484599940478801727294921875">
        <ele>1823</ele>
        <time>2026-06-17T09:17:07.000Z</time>
        <extensions>
          <ns3:TrackPointExtension>
            <ns3:atemp>20.0</ns3:atemp>
          </ns3:TrackPointExtension>
        </extensions>
      </trkpt>
      <trkpt lat="42.5206506438553333282470703125" lon="19.9484599940478801727294921875">
        <ele>1823</ele>
        <time>2026-06-17T09:17:08.000Z</time>
        <extensions>
          <ns3:TrackPointExtension>
            <ns3:atemp>20.0</ns3:atemp>
          </ns3:TrackPointExtension>
        </extensions>
      </trkpt>
      <trkpt lat="42.5206506438553333282470703125" lon="19.9484599940478801727294921875">
        <ele>1823</ele>
        <time>2026-06-17T09:17:09.000Z</time>
        <extensions>
          <ns3:TrackPointExtension>
            <ns3:atemp>20.0</ns3:atemp>
          </ns3:TrackPointExtension>
        </extensions>
      </trkpt>
      <trkpt lat="42.5206506438553333282470703125" lon="19.9484599940478801727294921875">
        <ele>1823</ele>
        <time>2026-06-17T09:17:10.000Z</time>
        <extensions>
          <ns3:TrackPointExtension>
            <ns3:atemp>20.0</ns3:atemp>
          </ns3:TrackPointExtension>
        </extensions>
      </trkpt>
      <trkpt lat="42.5206506438553333282470703125" lon="19.9484599940478801727294921875">
        <ele>1823</ele>
        <time>2026-06-17T09:17:11.000Z</time>
        <extensions>
          <ns3:TrackPointExtension>
            <ns3:atemp>20.0</ns3:atemp>
          </ns3:TrackPointExtension>
        </extensions>
      </trkpt>
      <trkpt lat="42.5206506438553333282470703125" lon="19.9484599940478801727294921875">
        <ele>1823</ele>
        <time>2026-06-17T09:17:12.000Z</time>
        <extensions>
          <ns3:TrackPointExtension>
            <ns3:atemp>20.0</ns3:atemp>
          </ns3:TrackPointExtension>
        </extensions>
      </trkpt>
      <trkpt lat="42.5206506438553333282470703125" lon="19.9484599940478801727294921875">
        <ele>1823</ele>
        <time>2026-06-17T09:17:13.000Z</time>
        <extensions>
          <ns3:TrackPointExtension>
            <ns3:atemp>20.0</ns3:atemp>
          </ns3:TrackPointExtension>
        </extensions>
      </trkpt>
      <trkpt lat="42.5206506438553333282470703125" lon="19.9484599940478801727294921875">
        <ele>1823</ele>
        <time>2026-06-17T09:17:14.000Z</time>
        <extensions>
          <ns3:TrackPointExtension>
            <ns3:atemp>20.0</ns3:atemp>
          </ns3:TrackPointExtension>
        </extensions>
      </trkpt>
      <trkpt lat="42.5206506438553333282470703125" lon="19.9484599940478801727294921875">
        <ele>1823</ele>
        <time>2026-06-17T09:17:15.000Z</time>
        <extensions>
          <ns3:TrackPointExtension>
            <ns3:atemp>20.0</ns3:atemp>
          </ns3:TrackPointExtension>
        </extensions>
      </trkpt>
      <trkpt lat="42.5206506438553333282470703125" lon="19.9484599940478801727294921875">
        <ele>1823</ele>
        <time>2026-06-17T09:17:16.000Z</time>
        <extensions>
          <ns3:TrackPointExtension>
            <ns3:atemp>20.0</ns3:atemp>
          </ns3:TrackPointExtension>
        </extensions>
      </trkpt>
      <trkpt lat="42.5206506438553333282470703125" lon="19.9484599940478801727294921875">
        <ele>1823</ele>
        <time>2026-06-17T09:17:17.000Z</time>
        <extensions>
          <ns3:TrackPointExtension>
            <ns3:atemp>20.0</ns3:atemp>
          </ns3:TrackPointExtension>
        </extensions>
      </trkpt>
      <trkpt lat="42.5206506438553333282470703125" lon="19.9484599940478801727294921875">
        <ele>1823</ele>
        <time>2026-06-17T09:17:18.000Z</time>
        <extensions>
          <ns3:TrackPointExtension>
            <ns3:atemp>20.0</ns3:atemp>
          </ns3:TrackPointExtension>
        </extensions>
      </trkpt>
      <trkpt lat="42.5206506438553333282470703125" lon="19.9484599940478801727294921875">
        <ele>1823</ele>
        <time>2026-06-17T09:17:19.000Z</time>
        <extensions>
          <ns3:TrackPointExtension>
            <ns3:atemp>20.0</ns3:atemp>
          </ns3:TrackPointExtension>
        </extensions>
      </trkpt>
      <trkpt lat="42.5206506438553333282470703125" lon="19.9484599940478801727294921875">
        <ele>1823</ele>
        <time>2026-06-17T09:17:20.000Z</time>
        <extensions>
          <ns3:TrackPointExtension>
            <ns3:atemp>20.0</ns3:atemp>
          </ns3:TrackPointExtension>
        </extensions>
      </trkpt>
      <trkpt lat="42.5206506438553333282470703125" lon="19.9484599940478801727294921875">
        <ele>1823</ele>
        <time>2026-06-17T09:17:21.000Z</time>
        <extensions>
          <ns3:TrackPointExtension>
            <ns3:atemp>20.0</ns3:atemp>
          </ns3:TrackPointExtension>
        </extensions>
      </trkpt>
      <trkpt lat="42.5206506438553333282470703125" lon="19.9484599940478801727294921875">
        <ele>1823</ele>
        <time>2026-06-17T09:17:22.000Z</time>
        <extensions>
          <ns3:TrackPointExtension>
            <ns3:atemp>20.0</ns3:atemp>
          </ns3:TrackPointExtension>
        </extensions>
      </trkpt>
      <trkpt lat="42.5206506438553333282470703125" lon="19.9484599940478801727294921875">
        <ele>1823</ele>
        <time>2026-06-17T09:17:23.000Z</time>
        <extensions>
          <ns3:TrackPointExtension>
            <ns3:atemp>20.0</ns3:atemp>
          </ns3:TrackPointExtension>
        </extensions>
      </trkpt>
      <trkpt lat="42.5206506438553333282470703125" lon="19.9484599940478801727294921875">
        <ele>1823</ele>
        <time>2026-06-17T09:17:24.000Z</time>
        <extensions>
          <ns3:TrackPointExtension>
            <ns3:atemp>20.0</ns3:atemp>
          </ns3:TrackPointExtension>
        </extensions>
      </trkpt>
      <trkpt lat="42.5206506438553333282470703125" lon="19.9484599940478801727294921875">
        <ele>1823</ele>
        <time>2026-06-17T09:17:25.000Z</time>
        <extensions>
          <ns3:TrackPointExtension>
            <ns3:atemp>20.0</ns3:atemp>
          </ns3:TrackPointExtension>
        </extensions>
      </trkpt>
      <trkpt lat="42.5206506438553333282470703125" lon="19.9484599940478801727294921875">
        <ele>1823</ele>
        <time>2026-06-17T09:17:26.000Z</time>
        <extensions>
          <ns3:TrackPointExtension>
            <ns3:atemp>20.0</ns3:atemp>
          </ns3:TrackPointExtension>
        </extensions>
      </trkpt>
      <trkpt lat="42.5206506438553333282470703125" lon="19.9484599940478801727294921875">
        <ele>1823</ele>
        <time>2026-06-17T09:17:27.000Z</time>
        <extensions>
          <ns3:TrackPointExtension>
            <ns3:atemp>20.0</ns3:atemp>
          </ns3:TrackPointExtension>
        </extensions>
      </trkpt>
      <trkpt lat="42.5206506438553333282470703125" lon="19.9484599940478801727294921875">
        <ele>1823</ele>
        <time>2026-06-17T09:17:28.000Z</time>
        <extensions>
          <ns3:TrackPointExtension>
            <ns3:atemp>20.0</ns3:atemp>
          </ns3:TrackPointExtension>
        </extensions>
      </trkpt>
      <trkpt lat="42.5206506438553333282470703125" lon="19.9484599940478801727294921875">
        <ele>1823</ele>
        <time>2026-06-17T09:17:29.000Z</time>
        <extensions>
          <ns3:TrackPointExtension>
            <ns3:atemp>20.0</ns3:atemp>
          </ns3:TrackPointExtension>
        </extensions>
      </trkpt>
      <trkpt lat="42.5206506438553333282470703125" lon="19.9484599940478801727294921875">
        <ele>1823</ele>
        <time>2026-06-17T09:17:30.000Z</time>
        <extensions>
          <ns3:TrackPointExtension>
            <ns3:atemp>20.0</ns3:atemp>
          </ns3:TrackPointExtension>
        </extensions>
      </trkpt>
      <trkpt lat="42.5206506438553333282470703125" lon="19.9484599940478801727294921875">
        <ele>1823</ele>
        <time>2026-06-17T09:17:31.000Z</time>
        <extensions>
          <ns3:TrackPointExtension>
            <ns3:atemp>20.0</ns3:atemp>
          </ns3:TrackPointExtension>
        </extensions>
      </trkpt>
      <trkpt lat="42.5206506438553333282470703125" lon="19.9484599940478801727294921875">
        <ele>1823</ele>
        <time>2026-06-17T09:17:32.000Z</time>
        <extensions>
          <ns3:TrackPointExtension>
            <ns3:atemp>20.0</ns3:atemp>
          </ns3:TrackPointExtension>
        </extensions>
      </trkpt>
      <trkpt lat="42.5206506438553333282470703125" lon="19.9484599940478801727294921875">
        <ele>1823</ele>
        <time>2026-06-17T09:17:33.000Z</time>
        <extensions>
          <ns3:TrackPointExtension>
            <ns3:atemp>20.0</ns3:atemp>
          </ns3:TrackPointExtension>
        </extensions>
      </trkpt>
      <trkpt lat="42.5206506438553333282470703125" lon="19.9484599940478801727294921875">
        <ele>1823</ele>
        <time>2026-06-17T09:17:34.000Z</time>
        <extensions>
          <ns3:TrackPointExtension>
            <ns3:atemp>20.0</ns3:atemp>
          </ns3:TrackPointExtension>
        </extensions>
      </trkpt>
      <trkpt lat="42.5206506438553333282470703125" lon="19.9484599940478801727294921875">
        <ele>1823</ele>
        <time>2026-06-17T09:17:35.000Z</time>
        <extensions>
          <ns3:TrackPointExtension>
            <ns3:atemp>20.0</ns3:atemp>
          </ns3:TrackPointExtension>
        </extensions>
      </trkpt>
      <trkpt lat="42.5206506438553333282470703125" lon="19.9484599940478801727294921875">
        <ele>1823</ele>
        <time>2026-06-17T09:17:36.000Z</time>
        <extensions>
          <ns3:TrackPointExtension>
            <ns3:atemp>20.0</ns3:atemp>
          </ns3:TrackPointExtension>
        </extensions>
      </trkpt>
      <trkpt lat="42.5206506438553333282470703125" lon="19.9484599940478801727294921875">
        <ele>1823</ele>
        <time>2026-06-17T09:17:37.000Z</time>
        <extensions>
          <ns3:TrackPointExtension>
            <ns3:atemp>20.0</ns3:atemp>
          </ns3:TrackPointExtension>
        </extensions>
      </trkpt>
      <trkpt lat="42.5206506438553333282470703125" lon="19.9484599940478801727294921875">
        <ele>1823</ele>
        <time>2026-06-17T09:17:38.000Z</time>
        <extensions>
          <ns3:TrackPointExtension>
            <ns3:atemp>20.0</ns3:atemp>
          </ns3:TrackPointExtension>
        </extensions>
      </trkpt>
      <trkpt lat="42.5206506438553333282470703125" lon="19.9484599940478801727294921875">
        <ele>1823</ele>
        <time>2026-06-17T09:17:39.000Z</time>
        <extensions>
          <ns3:TrackPointExtension>
            <ns3:atemp>20.0</ns3:atemp>
          </ns3:TrackPointExtension>
        </extensions>
      </trkpt>
      <trkpt lat="42.5206506438553333282470703125" lon="19.9484599940478801727294921875">
        <ele>1823</ele>
        <time>2026-06-17T09:17:40.000Z</time>
        <extensions>
          <ns3:TrackPointExtension>
            <ns3:atemp>20.0</ns3:atemp>
          </ns3:TrackPointExtension>
        </extensions>
      </trkpt>
      <trkpt lat="42.5206506438553333282470703125" lon="19.9484599940478801727294921875">
        <ele>1823</ele>
        <time>2026-06-17T09:17:41.000Z</time>
        <extensions>
          <ns3:TrackPointExtension>
            <ns3:atemp>20.0</ns3:atemp>
          </ns3:TrackPointExtension>
        </extensions>
      </trkpt>
      <trkpt lat="42.5206506438553333282470703125" lon="19.9484599940478801727294921875">
        <ele>1823</ele>
        <time>2026-06-17T09:17:42.000Z</time>
        <extensions>
          <ns3:TrackPointExtension>
            <ns3:atemp>20.0</ns3:atemp>
          </ns3:TrackPointExtension>
        </extensions>
      </trkpt>
      <trkpt lat="42.5206506438553333282470703125" lon="19.9484599940478801727294921875">
        <ele>1823</ele>
        <time>2026-06-17T09:17:43.000Z</time>
        <extensions>
          <ns3:TrackPointExtension>
            <ns3:atemp>20.0</ns3:atemp>
          </ns3:TrackPointExtension>
        </extensions>
      </trkpt>
      <trkpt lat="42.5206506438553333282470703125" lon="19.9484599940478801727294921875">
        <ele>1823</ele>
        <time>2026-06-17T09:17:44.000Z</time>
        <extensions>
          <ns3:TrackPointExtension>
            <ns3:atemp>20.0</ns3:atemp>
          </ns3:TrackPointExtension>
        </extensions>
      </trkpt>
      <trkpt lat="42.5206506438553333282470703125" lon="19.9484599940478801727294921875">
        <ele>1823</ele>
        <time>2026-06-17T09:17:45.000Z</time>
        <extensions>
          <ns3:TrackPointExtension>
            <ns3:atemp>20.0</ns3:atemp>
          </ns3:TrackPointExtension>
        </extensions>
      </trkpt>
      <trkpt lat="42.5206506438553333282470703125" lon="19.9484599940478801727294921875">
        <ele>1823</ele>
        <time>2026-06-17T09:17:46.000Z</time>
        <extensions>
          <ns3:TrackPointExtension>
            <ns3:atemp>20.0</ns3:atemp>
          </ns3:TrackPointExtension>
        </extensions>
      </trkpt>
      <trkpt lat="42.5206506438553333282470703125" lon="19.9484599940478801727294921875">
        <ele>1823</ele>
        <time>2026-06-17T09:17:47.000Z</time>
        <extensions>
          <ns3:TrackPointExtension>
            <ns3:atemp>20.0</ns3:atemp>
          </ns3:TrackPointExtension>
        </extensions>
      </trkpt>
      <trkpt lat="42.5206506438553333282470703125" lon="19.9484599940478801727294921875">
        <ele>1823</ele>
        <time>2026-06-17T09:17:48.000Z</time>
        <extensions>
          <ns3:TrackPointExtension>
            <ns3:atemp>20.0</ns3:atemp>
          </ns3:TrackPointExtension>
        </extensions>
      </trkpt>
      <trkpt lat="42.5206506438553333282470703125" lon="19.9484599940478801727294921875">
        <ele>1823</ele>
        <time>2026-06-17T09:17:49.000Z</time>
        <extensions>
          <ns3:TrackPointExtension>
            <ns3:atemp>20.0</ns3:atemp>
          </ns3:TrackPointExtension>
        </extensions>
      </trkpt>
      <trkpt lat="42.5206506438553333282470703125" lon="19.9484599940478801727294921875">
        <ele>1823</ele>
        <time>2026-06-17T09:17:50.000Z</time>
        <extensions>
          <ns3:TrackPointExtension>
            <ns3:atemp>20.0</ns3:atemp>
          </ns3:TrackPointExtension>
        </extensions>
      </trkpt>
      <trkpt lat="42.5206506438553333282470703125" lon="19.9484599940478801727294921875">
        <ele>1823</ele>
        <time>2026-06-17T09:17:51.000Z</time>
        <extensions>
          <ns3:TrackPointExtension>
            <ns3:atemp>20.0</ns3:atemp>
          </ns3:TrackPointExtension>
        </extensions>
      </trkpt>
      <trkpt lat="42.5206506438553333282470703125" lon="19.9484599940478801727294921875">
        <ele>1823</ele>
        <time>2026-06-17T09:17:52.000Z</time>
        <extensions>
          <ns3:TrackPointExtension>
            <ns3:atemp>20.0</ns3:atemp>
          </ns3:TrackPointExtension>
        </extensions>
      </trkpt>
      <trkpt lat="42.5206506438553333282470703125" lon="19.9484599940478801727294921875">
        <ele>1823</ele>
        <time>2026-06-17T09:17:53.000Z</time>
        <extensions>
          <ns3:TrackPointExtension>
            <ns3:atemp>20.0</ns3:atemp>
          </ns3:TrackPointExtension>
        </extensions>
      </trkpt>
      <trkpt lat="42.5206506438553333282470703125" lon="19.9484599940478801727294921875">
        <ele>1823</ele>
        <time>2026-06-17T09:17:54.000Z</time>
        <extensions>
          <ns3:TrackPointExtension>
            <ns3:atemp>20.0</ns3:atemp>
          </ns3:TrackPointExtension>
        </extensions>
      </trkpt>
      <trkpt lat="42.5206506438553333282470703125" lon="19.9484599940478801727294921875">
        <ele>1823</ele>
        <time>2026-06-17T09:17:55.000Z</time>
        <extensions>
          <ns3:TrackPointExtension>
            <ns3:atemp>20.0</ns3:atemp>
          </ns3:TrackPointExtension>
        </extensions>
      </trkpt>
      <trkpt lat="42.5206506438553333282470703125" lon="19.9484599940478801727294921875">
        <ele>1823</ele>
        <time>2026-06-17T09:17:56.000Z</time>
        <extensions>
          <ns3:TrackPointExtension>
            <ns3:atemp>20.0</ns3:atemp>
          </ns3:TrackPointExtension>
        </extensions>
      </trkpt>
      <trkpt lat="42.5206506438553333282470703125" lon="19.9484599940478801727294921875">
        <ele>1823</ele>
        <time>2026-06-17T09:17:57.000Z</time>
        <extensions>
          <ns3:TrackPointExtension>
            <ns3:atemp>20.0</ns3:atemp>
          </ns3:TrackPointExtension>
        </extensions>
      </trkpt>
      <trkpt lat="42.5206506438553333282470703125" lon="19.9484599940478801727294921875">
        <ele>1823</ele>
        <time>2026-06-17T09:17:58.000Z</time>
        <extensions>
          <ns3:TrackPointExtension>
            <ns3:atemp>20.0</ns3:atemp>
          </ns3:TrackPointExtension>
        </extensions>
      </trkpt>
      <trkpt lat="42.5206506438553333282470703125" lon="19.9484599940478801727294921875">
        <ele>1823</ele>
        <time>2026-06-17T09:17:59.000Z</time>
        <extensions>
          <ns3:TrackPointExtension>
            <ns3:atemp>20.0</ns3:atemp>
          </ns3:TrackPointExtension>
        </extensions>
      </trkpt>
      <trkpt lat="42.5206506438553333282470703125" lon="19.9484599940478801727294921875">
        <ele>1823</ele>
        <time>2026-06-17T09:18:00.000Z</time>
        <extensions>
          <ns3:TrackPointExtension>
            <ns3:atemp>20.0</ns3:atemp>
          </ns3:TrackPointExtension>
        </extensions>
      </trkpt>
      <trkpt lat="42.5206506438553333282470703125" lon="19.9484599940478801727294921875">
        <ele>1823</ele>
        <time>2026-06-17T09:18:01.000Z</time>
        <extensions>
          <ns3:TrackPointExtension>
            <ns3:atemp>20.0</ns3:atemp>
          </ns3:TrackPointExtension>
        </extensions>
      </trkpt>
      <trkpt lat="42.5206506438553333282470703125" lon="19.9484599940478801727294921875">
        <ele>1823</ele>
        <time>2026-06-17T09:18:02.000Z</time>
        <extensions>
          <ns3:TrackPointExtension>
            <ns3:atemp>20.0</ns3:atemp>
          </ns3:TrackPointExtension>
        </extensions>
      </trkpt>
      <trkpt lat="42.5206506438553333282470703125" lon="19.9484599940478801727294921875">
        <ele>1823</ele>
        <time>2026-06-17T09:18:03.000Z</time>
        <extensions>
          <ns3:TrackPointExtension>
            <ns3:atemp>20.0</ns3:atemp>
          </ns3:TrackPointExtension>
        </extensions>
      </trkpt>
      <trkpt lat="42.5206506438553333282470703125" lon="19.9484599940478801727294921875">
        <ele>1823</ele>
        <time>2026-06-17T09:18:04.000Z</time>
        <extensions>
          <ns3:TrackPointExtension>
            <ns3:atemp>20.0</ns3:atemp>
          </ns3:TrackPointExtension>
        </extensions>
      </trkpt>
      <trkpt lat="42.5206506438553333282470703125" lon="19.9484599940478801727294921875">
        <ele>1823</ele>
        <time>2026-06-17T09:18:05.000Z</time>
        <extensions>
          <ns3:TrackPointExtension>
            <ns3:atemp>20.0</ns3:atemp>
          </ns3:TrackPointExtension>
        </extensions>
      </trkpt>
      <trkpt lat="42.5206506438553333282470703125" lon="19.9484599940478801727294921875">
        <ele>1823</ele>
        <time>2026-06-17T09:18:06.000Z</time>
        <extensions>
          <ns3:TrackPointExtension>
            <ns3:atemp>20.0</ns3:atemp>
          </ns3:TrackPointExtension>
        </extensions>
      </trkpt>
      <trkpt lat="42.5206506438553333282470703125" lon="19.9484599940478801727294921875">
        <ele>1823</ele>
        <time>2026-06-17T09:18:07.000Z</time>
        <extensions>
          <ns3:TrackPointExtension>
            <ns3:atemp>20.0</ns3:atemp>
          </ns3:TrackPointExtension>
        </extensions>
      </trkpt>
      <trkpt lat="42.5206506438553333282470703125" lon="19.9484599940478801727294921875">
        <ele>1823</ele>
        <time>2026-06-17T09:18:08.000Z</time>
        <extensions>
          <ns3:TrackPointExtension>
            <ns3:atemp>20.0</ns3:atemp>
          </ns3:TrackPointExtension>
        </extensions>
      </trkpt>
      <trkpt lat="42.5206506438553333282470703125" lon="19.9484599940478801727294921875">
        <ele>1823</ele>
        <time>2026-06-17T09:18:09.000Z</time>
        <extensions>
          <ns3:TrackPointExtension>
            <ns3:atemp>20.0</ns3:atemp>
          </ns3:TrackPointExtension>
        </extensions>
      </trkpt>
      <trkpt lat="42.5206506438553333282470703125" lon="19.9484599940478801727294921875">
        <ele>1823</ele>
        <time>2026-06-17T09:18:10.000Z</time>
        <extensions>
          <ns3:TrackPointExtension>
            <ns3:atemp>20.0</ns3:atemp>
          </ns3:TrackPointExtension>
        </extensions>
      </trkpt>
      <trkpt lat="42.5206506438553333282470703125" lon="19.9484599940478801727294921875">
        <ele>1823</ele>
        <time>2026-06-17T09:18:11.000Z</time>
        <extensions>
          <ns3:TrackPointExtension>
            <ns3:atemp>20.0</ns3:atemp>
          </ns3:TrackPointExtension>
        </extensions>
      </trkpt>
      <trkpt lat="42.5206506438553333282470703125" lon="19.9484599940478801727294921875">
        <ele>1823</ele>
        <time>2026-06-17T09:18:12.000Z</time>
        <extensions>
          <ns3:TrackPointExtension>
            <ns3:atemp>19.0</ns3:atemp>
          </ns3:TrackPointExtension>
        </extensions>
      </trkpt>
      <trkpt lat="42.5206506438553333282470703125" lon="19.9484599940478801727294921875">
        <ele>1823</ele>
        <time>2026-06-17T09:18:13.000Z</time>
        <extensions>
          <ns3:TrackPointExtension>
            <ns3:atemp>19.0</ns3:atemp>
          </ns3:TrackPointExtension>
        </extensions>
      </trkpt>
      <trkpt lat="42.5206506438553333282470703125" lon="19.9484599940478801727294921875">
        <ele>1823</ele>
        <time>2026-06-17T09:18:14.000Z</time>
        <extensions>
          <ns3:TrackPointExtension>
            <ns3:atemp>19.0</ns3:atemp>
          </ns3:TrackPointExtension>
        </extensions>
      </trkpt>
      <trkpt lat="42.5206506438553333282470703125" lon="19.9484599940478801727294921875">
        <ele>1823</ele>
        <time>2026-06-17T09:18:15.000Z</time>
        <extensions>
          <ns3:TrackPointExtension>
            <ns3:atemp>19.0</ns3:atemp>
          </ns3:TrackPointExtension>
        </extensions>
      </trkpt>
      <trkpt lat="42.5206506438553333282470703125" lon="19.9484599940478801727294921875">
        <ele>1823</ele>
        <time>2026-06-17T09:18:16.000Z</time>
        <extensions>
          <ns3:TrackPointExtension>
            <ns3:atemp>19.0</ns3:atemp>
          </ns3:TrackPointExtension>
        </extensions>
      </trkpt>
      <trkpt lat="42.5206506438553333282470703125" lon="19.9484599940478801727294921875">
        <ele>1823</ele>
        <time>2026-06-17T09:18:17.000Z</time>
        <extensions>
          <ns3:TrackPointExtension>
            <ns3:atemp>19.0</ns3:atemp>
          </ns3:TrackPointExtension>
        </extensions>
      </trkpt>
      <trkpt lat="42.5206506438553333282470703125" lon="19.9484599940478801727294921875">
        <ele>1823</ele>
        <time>2026-06-17T09:18:18.000Z</time>
        <extensions>
          <ns3:TrackPointExtension>
            <ns3:atemp>19.0</ns3:atemp>
          </ns3:TrackPointExtension>
        </extensions>
      </trkpt>
      <trkpt lat="42.5206506438553333282470703125" lon="19.9484599940478801727294921875">
        <ele>1823</ele>
        <time>2026-06-17T09:18:19.000Z</time>
        <extensions>
          <ns3:TrackPointExtension>
            <ns3:atemp>19.0</ns3:atemp>
          </ns3:TrackPointExtension>
        </extensions>
      </trkpt>
      <trkpt lat="42.5206506438553333282470703125" lon="19.9484599940478801727294921875">
        <ele>1823</ele>
        <time>2026-06-17T09:18:20.000Z</time>
        <extensions>
          <ns3:TrackPointExtension>
            <ns3:atemp>19.0</ns3:atemp>
          </ns3:TrackPointExtension>
        </extensions>
      </trkpt>
      <trkpt lat="42.5206506438553333282470703125" lon="19.9484599940478801727294921875">
        <ele>1823</ele>
        <time>2026-06-17T09:18:21.000Z</time>
        <extensions>
          <ns3:TrackPointExtension>
            <ns3:atemp>19.0</ns3:atemp>
          </ns3:TrackPointExtension>
        </extensions>
      </trkpt>
      <trkpt lat="42.5206506438553333282470703125" lon="19.9484599940478801727294921875">
        <ele>1823</ele>
        <time>2026-06-17T09:18:22.000Z</time>
        <extensions>
          <ns3:TrackPointExtension>
            <ns3:atemp>20.0</ns3:atemp>
          </ns3:TrackPointExtension>
        </extensions>
      </trkpt>
      <trkpt lat="42.5206506438553333282470703125" lon="19.9484599940478801727294921875">
        <ele>1823</ele>
        <time>2026-06-17T09:18:23.000Z</time>
        <extensions>
          <ns3:TrackPointExtension>
            <ns3:atemp>19.0</ns3:atemp>
          </ns3:TrackPointExtension>
        </extensions>
      </trkpt>
      <trkpt lat="42.5206506438553333282470703125" lon="19.9484599940478801727294921875">
        <ele>1823</ele>
        <time>2026-06-17T09:18:24.000Z</time>
        <extensions>
          <ns3:TrackPointExtension>
            <ns3:atemp>20.0</ns3:atemp>
          </ns3:TrackPointExtension>
        </extensions>
      </trkpt>
      <trkpt lat="42.5206506438553333282470703125" lon="19.9484599940478801727294921875">
        <ele>1823</ele>
        <time>2026-06-17T09:18:25.000Z</time>
        <extensions>
          <ns3:TrackPointExtension>
            <ns3:atemp>19.0</ns3:atemp>
          </ns3:TrackPointExtension>
        </extensions>
      </trkpt>
      <trkpt lat="42.5206506438553333282470703125" lon="19.9484599940478801727294921875">
        <ele>1823</ele>
        <time>2026-06-17T09:18:26.000Z</time>
        <extensions>
          <ns3:TrackPointExtension>
            <ns3:atemp>19.0</ns3:atemp>
          </ns3:TrackPointExtension>
        </extensions>
      </trkpt>
      <trkpt lat="42.5206506438553333282470703125" lon="19.9484599940478801727294921875">
        <ele>1823</ele>
        <time>2026-06-17T09:18:27.000Z</time>
        <extensions>
          <ns3:TrackPointExtension>
            <ns3:atemp>19.0</ns3:atemp>
          </ns3:TrackPointExtension>
        </extensions>
      </trkpt>
      <trkpt lat="42.5206506438553333282470703125" lon="19.9484599940478801727294921875">
        <ele>1823</ele>
        <time>2026-06-17T09:18:28.000Z</time>
        <extensions>
          <ns3:TrackPointExtension>
            <ns3:atemp>19.0</ns3:atemp>
          </ns3:TrackPointExtension>
        </extensions>
      </trkpt>
      <trkpt lat="42.5206506438553333282470703125" lon="19.9484599940478801727294921875">
        <ele>1823</ele>
        <time>2026-06-17T09:18:29.000Z</time>
        <extensions>
          <ns3:TrackPointExtension>
            <ns3:atemp>19.0</ns3:atemp>
          </ns3:TrackPointExtension>
        </extensions>
      </trkpt>
      <trkpt lat="42.5206506438553333282470703125" lon="19.9484599940478801727294921875">
        <ele>1823</ele>
        <time>2026-06-17T09:18:30.000Z</time>
        <extensions>
          <ns3:TrackPointExtension>
            <ns3:atemp>19.0</ns3:atemp>
          </ns3:TrackPointExtension>
        </extensions>
      </trkpt>
      <trkpt lat="42.5206506438553333282470703125" lon="19.9484599940478801727294921875">
        <ele>1823</ele>
        <time>2026-06-17T09:18:31.000Z</time>
        <extensions>
          <ns3:TrackPointExtension>
            <ns3:atemp>19.0</ns3:atemp>
          </ns3:TrackPointExtension>
        </extensions>
      </trkpt>
      <trkpt lat="42.5206506438553333282470703125" lon="19.9484599940478801727294921875">
        <ele>1823</ele>
        <time>2026-06-17T09:18:32.000Z</time>
        <extensions>
          <ns3:TrackPointExtension>
            <ns3:atemp>19.0</ns3:atemp>
          </ns3:TrackPointExtension>
        </extensions>
      </trkpt>
      <trkpt lat="42.5206506438553333282470703125" lon="19.9484599940478801727294921875">
        <ele>1823</ele>
        <time>2026-06-17T09:18:33.000Z</time>
        <extensions>
          <ns3:TrackPointExtension>
            <ns3:atemp>19.0</ns3:atemp>
          </ns3:TrackPointExtension>
        </extensions>
      </trkpt>
      <trkpt lat="42.5206506438553333282470703125" lon="19.9484599940478801727294921875">
        <ele>1823</ele>
        <time>2026-06-17T09:18:34.000Z</time>
        <extensions>
          <ns3:TrackPointExtension>
            <ns3:atemp>19.0</ns3:atemp>
          </ns3:TrackPointExtension>
        </extensions>
      </trkpt>
      <trkpt lat="42.5206506438553333282470703125" lon="19.9484599940478801727294921875">
        <ele>1823</ele>
        <time>2026-06-17T09:18:35.000Z</time>
        <extensions>
          <ns3:TrackPointExtension>
            <ns3:atemp>19.0</ns3:atemp>
          </ns3:TrackPointExtension>
        </extensions>
      </trkpt>
      <trkpt lat="42.5206506438553333282470703125" lon="19.9484599940478801727294921875">
        <ele>1823</ele>
        <time>2026-06-17T09:18:36.000Z</time>
        <extensions>
          <ns3:TrackPointExtension>
            <ns3:atemp>19.0</ns3:atemp>
          </ns3:TrackPointExtension>
        </extensions>
      </trkpt>
      <trkpt lat="42.5206506438553333282470703125" lon="19.9484599940478801727294921875">
        <ele>1823</ele>
        <time>2026-06-17T09:18:37.000Z</time>
        <extensions>
          <ns3:TrackPointExtension>
            <ns3:atemp>19.0</ns3:atemp>
          </ns3:TrackPointExtension>
        </extensions>
      </trkpt>
      <trkpt lat="42.5206506438553333282470703125" lon="19.9484599940478801727294921875">
        <ele>1823</ele>
        <time>2026-06-17T09:18:38.000Z</time>
        <extensions>
          <ns3:TrackPointExtension>
            <ns3:atemp>19.0</ns3:atemp>
          </ns3:TrackPointExtension>
        </extensions>
      </trkpt>
      <trkpt lat="42.5206506438553333282470703125" lon="19.9484599940478801727294921875">
        <ele>1823</ele>
        <time>2026-06-17T09:18:39.000Z</time>
        <extensions>
          <ns3:TrackPointExtension>
            <ns3:atemp>19.0</ns3:atemp>
          </ns3:TrackPointExtension>
        </extensions>
      </trkpt>
      <trkpt lat="42.5206506438553333282470703125" lon="19.9484599940478801727294921875">
        <ele>1823</ele>
        <time>2026-06-17T09:18:40.000Z</time>
        <extensions>
          <ns3:TrackPointExtension>
            <ns3:atemp>19.0</ns3:atemp>
          </ns3:TrackPointExtension>
        </extensions>
      </trkpt>
      <trkpt lat="42.5206506438553333282470703125" lon="19.9484599940478801727294921875">
        <ele>1823</ele>
        <time>2026-06-17T09:18:41.000Z</time>
        <extensions>
          <ns3:TrackPointExtension>
            <ns3:atemp>19.0</ns3:atemp>
          </ns3:TrackPointExtension>
        </extensions>
      </trkpt>
      <trkpt lat="42.5206506438553333282470703125" lon="19.9484599940478801727294921875">
        <ele>1823</ele>
        <time>2026-06-17T09:18:42.000Z</time>
        <extensions>
          <ns3:TrackPointExtension>
            <ns3:atemp>19.0</ns3:atemp>
          </ns3:TrackPointExtension>
        </extensions>
      </trkpt>
      <trkpt lat="42.5206506438553333282470703125" lon="19.9484599940478801727294921875">
        <ele>1823</ele>
        <time>2026-06-17T09:18:43.000Z</time>
        <extensions>
          <ns3:TrackPointExtension>
            <ns3:atemp>19.0</ns3:atemp>
          </ns3:TrackPointExtension>
        </extensions>
      </trkpt>
      <trkpt lat="42.5206506438553333282470703125" lon="19.9484599940478801727294921875">
        <ele>1823</ele>
        <time>2026-06-17T09:18:44.000Z</time>
        <extensions>
          <ns3:TrackPointExtension>
            <ns3:atemp>19.0</ns3:atemp>
          </ns3:TrackPointExtension>
        </extensions>
      </trkpt>
      <trkpt lat="42.5206506438553333282470703125" lon="19.9484599940478801727294921875">
        <ele>1823</ele>
        <time>2026-06-17T09:18:45.000Z</time>
        <extensions>
          <ns3:TrackPointExtension>
            <ns3:atemp>19.0</ns3:atemp>
          </ns3:TrackPointExtension>
        </extensions>
      </trkpt>
      <trkpt lat="42.5206506438553333282470703125" lon="19.9484599940478801727294921875">
        <ele>1823</ele>
        <time>2026-06-17T09:18:46.000Z</time>
        <extensions>
          <ns3:TrackPointExtension>
            <ns3:atemp>19.0</ns3:atemp>
          </ns3:TrackPointExtension>
        </extensions>
      </trkpt>
      <trkpt lat="42.5206506438553333282470703125" lon="19.9484599940478801727294921875">
        <ele>1823</ele>
        <time>2026-06-17T09:18:47.000Z</time>
        <extensions>
          <ns3:TrackPointExtension>
            <ns3:atemp>19.0</ns3:atemp>
          </ns3:TrackPointExtension>
        </extensions>
      </trkpt>
      <trkpt lat="42.5206506438553333282470703125" lon="19.9484599940478801727294921875">
        <ele>1823</ele>
        <time>2026-06-17T09:18:48.000Z</time>
        <extensions>
          <ns3:TrackPointExtension>
            <ns3:atemp>19.0</ns3:atemp>
          </ns3:TrackPointExtension>
        </extensions>
      </trkpt>
      <trkpt lat="42.5206506438553333282470703125" lon="19.9484599940478801727294921875">
        <ele>1823</ele>
        <time>2026-06-17T09:18:49.000Z</time>
        <extensions>
          <ns3:TrackPointExtension>
            <ns3:atemp>19.0</ns3:atemp>
          </ns3:TrackPointExtension>
        </extensions>
      </trkpt>
      <trkpt lat="42.5206506438553333282470703125" lon="19.9484599940478801727294921875">
        <ele>1823</ele>
        <time>2026-06-17T09:18:50.000Z</time>
        <extensions>
          <ns3:TrackPointExtension>
            <ns3:atemp>19.0</ns3:atemp>
          </ns3:TrackPointExtension>
        </extensions>
      </trkpt>
      <trkpt lat="42.5206506438553333282470703125" lon="19.9484599940478801727294921875">
        <ele>1823</ele>
        <time>2026-06-17T09:18:51.000Z</time>
        <extensions>
          <ns3:TrackPointExtension>
            <ns3:atemp>19.0</ns3:atemp>
          </ns3:TrackPointExtension>
        </extensions>
      </trkpt>
      <trkpt lat="42.5206506438553333282470703125" lon="19.9484599940478801727294921875">
        <ele>1823</ele>
        <time>2026-06-17T09:18:52.000Z</time>
        <extensions>
          <ns3:TrackPointExtension>
            <ns3:atemp>19.0</ns3:atemp>
          </ns3:TrackPointExtension>
        </extensions>
      </trkpt>
      <trkpt lat="42.5206506438553333282470703125" lon="19.9484599940478801727294921875">
        <ele>1823</ele>
        <time>2026-06-17T09:18:53.000Z</time>
        <extensions>
          <ns3:TrackPointExtension>
            <ns3:atemp>19.0</ns3:atemp>
          </ns3:TrackPointExtension>
        </extensions>
      </trkpt>
      <trkpt lat="42.5206506438553333282470703125" lon="19.9484599940478801727294921875">
        <ele>1823</ele>
        <time>2026-06-17T09:18:54.000Z</time>
        <extensions>
          <ns3:TrackPointExtension>
            <ns3:atemp>19.0</ns3:atemp>
          </ns3:TrackPointExtension>
        </extensions>
      </trkpt>
      <trkpt lat="42.5206506438553333282470703125" lon="19.9484599940478801727294921875">
        <ele>1823</ele>
        <time>2026-06-17T09:18:55.000Z</time>
        <extensions>
          <ns3:TrackPointExtension>
            <ns3:atemp>19.0</ns3:atemp>
          </ns3:TrackPointExtension>
        </extensions>
      </trkpt>
      <trkpt lat="42.5206506438553333282470703125" lon="19.9484599940478801727294921875">
        <ele>1823</ele>
        <time>2026-06-17T09:18:56.000Z</time>
        <extensions>
          <ns3:TrackPointExtension>
            <ns3:atemp>19.0</ns3:atemp>
          </ns3:TrackPointExtension>
        </extensions>
      </trkpt>
      <trkpt lat="42.5206506438553333282470703125" lon="19.9484599940478801727294921875">
        <ele>1823</ele>
        <time>2026-06-17T09:18:57.000Z</time>
        <extensions>
          <ns3:TrackPointExtension>
            <ns3:atemp>19.0</ns3:atemp>
          </ns3:TrackPointExtension>
        </extensions>
      </trkpt>
      <trkpt lat="42.5206506438553333282470703125" lon="19.9484599940478801727294921875">
        <ele>1823</ele>
        <time>2026-06-17T09:18:58.000Z</time>
        <extensions>
          <ns3:TrackPointExtension>
            <ns3:atemp>19.0</ns3:atemp>
          </ns3:TrackPointExtension>
        </extensions>
      </trkpt>
      <trkpt lat="42.5206506438553333282470703125" lon="19.9484599940478801727294921875">
        <ele>1823</ele>
        <time>2026-06-17T09:18:59.000Z</time>
        <extensions>
          <ns3:TrackPointExtension>
            <ns3:atemp>19.0</ns3:atemp>
          </ns3:TrackPointExtension>
        </extensions>
      </trkpt>
      <trkpt lat="42.5206506438553333282470703125" lon="19.9484599940478801727294921875">
        <ele>1823</ele>
        <time>2026-06-17T09:19:00.000Z</time>
        <extensions>
          <ns3:TrackPointExtension>
            <ns3:atemp>19.0</ns3:atemp>
          </ns3:TrackPointExtension>
        </extensions>
      </trkpt>
      <trkpt lat="42.5206506438553333282470703125" lon="19.9484599940478801727294921875">
        <ele>1823</ele>
        <time>2026-06-17T09:19:01.000Z</time>
        <extensions>
          <ns3:TrackPointExtension>
            <ns3:atemp>19.0</ns3:atemp>
          </ns3:TrackPointExtension>
        </extensions>
      </trkpt>
      <trkpt lat="42.5206506438553333282470703125" lon="19.9484599940478801727294921875">
        <ele>1823</ele>
        <time>2026-06-17T09:19:02.000Z</time>
        <extensions>
          <ns3:TrackPointExtension>
            <ns3:atemp>19.0</ns3:atemp>
          </ns3:TrackPointExtension>
        </extensions>
      </trkpt>
      <trkpt lat="42.5206506438553333282470703125" lon="19.9484599940478801727294921875">
        <ele>1823</ele>
        <time>2026-06-17T09:19:03.000Z</time>
        <extensions>
          <ns3:TrackPointExtension>
            <ns3:atemp>19.0</ns3:atemp>
          </ns3:TrackPointExtension>
        </extensions>
      </trkpt>
      <trkpt lat="42.5206506438553333282470703125" lon="19.9484599940478801727294921875">
        <ele>1823</ele>
        <time>2026-06-17T09:19:04.000Z</time>
        <extensions>
          <ns3:TrackPointExtension>
            <ns3:atemp>19.0</ns3:atemp>
          </ns3:TrackPointExtension>
        </extensions>
      </trkpt>
      <trkpt lat="42.5206506438553333282470703125" lon="19.9484599940478801727294921875">
        <ele>1823</ele>
        <time>2026-06-17T09:19:05.000Z</time>
        <extensions>
          <ns3:TrackPointExtension>
            <ns3:atemp>19.0</ns3:atemp>
          </ns3:TrackPointExtension>
        </extensions>
      </trkpt>
      <trkpt lat="42.5206506438553333282470703125" lon="19.9484599940478801727294921875">
        <ele>1823</ele>
        <time>2026-06-17T09:19:06.000Z</time>
        <extensions>
          <ns3:TrackPointExtension>
            <ns3:atemp>19.0</ns3:atemp>
          </ns3:TrackPointExtension>
        </extensions>
      </trkpt>
      <trkpt lat="42.5206506438553333282470703125" lon="19.9484599940478801727294921875">
        <ele>1823</ele>
        <time>2026-06-17T09:19:07.000Z</time>
        <extensions>
          <ns3:TrackPointExtension>
            <ns3:atemp>19.0</ns3:atemp>
          </ns3:TrackPointExtension>
        </extensions>
      </trkpt>
      <trkpt lat="42.5206506438553333282470703125" lon="19.9484599940478801727294921875">
        <ele>1823</ele>
        <time>2026-06-17T09:19:08.000Z</time>
        <extensions>
          <ns3:TrackPointExtension>
            <ns3:atemp>19.0</ns3:atemp>
          </ns3:TrackPointExtension>
        </extensions>
      </trkpt>
      <trkpt lat="42.5206506438553333282470703125" lon="19.9484599940478801727294921875">
        <ele>1823</ele>
        <time>2026-06-17T09:19:09.000Z</time>
        <extensions>
          <ns3:TrackPointExtension>
            <ns3:atemp>19.0</ns3:atemp>
          </ns3:TrackPointExtension>
        </extensions>
      </trkpt>
      <trkpt lat="42.5206506438553333282470703125" lon="19.9484599940478801727294921875">
        <ele>1823</ele>
        <time>2026-06-17T09:19:10.000Z</time>
        <extensions>
          <ns3:TrackPointExtension>
            <ns3:atemp>19.0</ns3:atemp>
          </ns3:TrackPointExtension>
        </extensions>
      </trkpt>
      <trkpt lat="42.5206506438553333282470703125" lon="19.9484599940478801727294921875">
        <ele>1823</ele>
        <time>2026-06-17T09:19:11.000Z</time>
        <extensions>
          <ns3:TrackPointExtension>
            <ns3:atemp>19.0</ns3:atemp>
          </ns3:TrackPointExtension>
        </extensions>
      </trkpt>
      <trkpt lat="42.5206506438553333282470703125" lon="19.9484599940478801727294921875">
        <ele>1823</ele>
        <time>2026-06-17T09:19:12.000Z</time>
        <extensions>
          <ns3:TrackPointExtension>
            <ns3:atemp>19.0</ns3:atemp>
          </ns3:TrackPointExtension>
        </extensions>
      </trkpt>
      <trkpt lat="42.5206506438553333282470703125" lon="19.9484599940478801727294921875">
        <ele>1823</ele>
        <time>2026-06-17T09:19:13.000Z</time>
        <extensions>
          <ns3:TrackPointExtension>
            <ns3:atemp>19.0</ns3:atemp>
          </ns3:TrackPointExtension>
        </extensions>
      </trkpt>
      <trkpt lat="42.5206506438553333282470703125" lon="19.9484599940478801727294921875">
        <ele>1823</ele>
        <time>2026-06-17T09:19:14.000Z</time>
        <extensions>
          <ns3:TrackPointExtension>
            <ns3:atemp>19.0</ns3:atemp>
          </ns3:TrackPointExtension>
        </extensions>
      </trkpt>
      <trkpt lat="42.5206506438553333282470703125" lon="19.9484599940478801727294921875">
        <ele>1823</ele>
        <time>2026-06-17T09:19:15.000Z</time>
        <extensions>
          <ns3:TrackPointExtension>
            <ns3:atemp>19.0</ns3:atemp>
          </ns3:TrackPointExtension>
        </extensions>
      </trkpt>
      <trkpt lat="42.5206506438553333282470703125" lon="19.9484599940478801727294921875">
        <ele>1823</ele>
        <time>2026-06-17T09:19:16.000Z</time>
        <extensions>
          <ns3:TrackPointExtension>
            <ns3:atemp>19.0</ns3:atemp>
          </ns3:TrackPointExtension>
        </extensions>
      </trkpt>
      <trkpt lat="42.5206506438553333282470703125" lon="19.9484599940478801727294921875">
        <ele>1823</ele>
        <time>2026-06-17T09:19:17.000Z</time>
        <extensions>
          <ns3:TrackPointExtension>
            <ns3:atemp>19.0</ns3:atemp>
          </ns3:TrackPointExtension>
        </extensions>
      </trkpt>
      <trkpt lat="42.5206506438553333282470703125" lon="19.9484599940478801727294921875">
        <ele>1823</ele>
        <time>2026-06-17T09:19:18.000Z</time>
        <extensions>
          <ns3:TrackPointExtension>
            <ns3:atemp>19.0</ns3:atemp>
          </ns3:TrackPointExtension>
        </extensions>
      </trkpt>
      <trkpt lat="42.5206506438553333282470703125" lon="19.9484599940478801727294921875">
        <ele>1823</ele>
        <time>2026-06-17T09:19:19.000Z</time>
        <extensions>
          <ns3:TrackPointExtension>
            <ns3:atemp>19.0</ns3:atemp>
          </ns3:TrackPointExtension>
        </extensions>
      </trkpt>
      <trkpt lat="42.5206506438553333282470703125" lon="19.9484599940478801727294921875">
        <ele>1823</ele>
        <time>2026-06-17T09:19:20.000Z</time>
        <extensions>
          <ns3:TrackPointExtension>
            <ns3:atemp>19.0</ns3:atemp>
          </ns3:TrackPointExtension>
        </extensions>
      </trkpt>
      <trkpt lat="42.5206506438553333282470703125" lon="19.9484599940478801727294921875">
        <ele>1823</ele>
        <time>2026-06-17T09:19:21.000Z</time>
        <extensions>
          <ns3:TrackPointExtension>
            <ns3:atemp>19.0</ns3:atemp>
          </ns3:TrackPointExtension>
        </extensions>
      </trkpt>
      <trkpt lat="42.5206506438553333282470703125" lon="19.9484599940478801727294921875">
        <ele>1823</ele>
        <time>2026-06-17T09:19:22.000Z</time>
        <extensions>
          <ns3:TrackPointExtension>
            <ns3:atemp>19.0</ns3:atemp>
          </ns3:TrackPointExtension>
        </extensions>
      </trkpt>
      <trkpt lat="42.5206506438553333282470703125" lon="19.9484599940478801727294921875">
        <ele>1823</ele>
        <time>2026-06-17T09:19:23.000Z</time>
        <extensions>
          <ns3:TrackPointExtension>
            <ns3:atemp>19.0</ns3:atemp>
          </ns3:TrackPointExtension>
        </extensions>
      </trkpt>
      <trkpt lat="42.5206506438553333282470703125" lon="19.9484599940478801727294921875">
        <ele>1823</ele>
        <time>2026-06-17T09:19:24.000Z</time>
        <extensions>
          <ns3:TrackPointExtension>
            <ns3:atemp>19.0</ns3:atemp>
          </ns3:TrackPointExtension>
        </extensions>
      </trkpt>
      <trkpt lat="42.5206506438553333282470703125" lon="19.9484599940478801727294921875">
        <ele>1823</ele>
        <time>2026-06-17T09:19:25.000Z</time>
        <extensions>
          <ns3:TrackPointExtension>
            <ns3:atemp>19.0</ns3:atemp>
          </ns3:TrackPointExtension>
        </extensions>
      </trkpt>
      <trkpt lat="42.5206506438553333282470703125" lon="19.9484599940478801727294921875">
        <ele>1823</ele>
        <time>2026-06-17T09:19:26.000Z</time>
        <extensions>
          <ns3:TrackPointExtension>
            <ns3:atemp>19.0</ns3:atemp>
          </ns3:TrackPointExtension>
        </extensions>
      </trkpt>
      <trkpt lat="42.5206506438553333282470703125" lon="19.9484599940478801727294921875">
        <ele>1823</ele>
        <time>2026-06-17T09:19:27.000Z</time>
        <extensions>
          <ns3:TrackPointExtension>
            <ns3:atemp>19.0</ns3:atemp>
          </ns3:TrackPointExtension>
        </extensions>
      </trkpt>
      <trkpt lat="42.5206506438553333282470703125" lon="19.9484599940478801727294921875">
        <ele>1823</ele>
        <time>2026-06-17T09:19:28.000Z</time>
        <extensions>
          <ns3:TrackPointExtension>
            <ns3:atemp>19.0</ns3:atemp>
          </ns3:TrackPointExtension>
        </extensions>
      </trkpt>
      <trkpt lat="42.5206506438553333282470703125" lon="19.9484599940478801727294921875">
        <ele>1823</ele>
        <time>2026-06-17T09:19:29.000Z</time>
        <extensions>
          <ns3:TrackPointExtension>
            <ns3:atemp>19.0</ns3:atemp>
          </ns3:TrackPointExtension>
        </extensions>
      </trkpt>
      <trkpt lat="42.5206506438553333282470703125" lon="19.9484599940478801727294921875">
        <ele>1823</ele>
        <time>2026-06-17T09:19:30.000Z</time>
        <extensions>
          <ns3:TrackPointExtension>
            <ns3:atemp>19.0</ns3:atemp>
          </ns3:TrackPointExtension>
        </extensions>
      </trkpt>
      <trkpt lat="42.5206506438553333282470703125" lon="19.9484599940478801727294921875">
        <ele>1823</ele>
        <time>2026-06-17T09:19:31.000Z</time>
        <extensions>
          <ns3:TrackPointExtension>
            <ns3:atemp>19.0</ns3:atemp>
          </ns3:TrackPointExtension>
        </extensions>
      </trkpt>
      <trkpt lat="42.5206506438553333282470703125" lon="19.9484599940478801727294921875">
        <ele>1823</ele>
        <time>2026-06-17T09:19:32.000Z</time>
        <extensions>
          <ns3:TrackPointExtension>
            <ns3:atemp>19.0</ns3:atemp>
          </ns3:TrackPointExtension>
        </extensions>
      </trkpt>
      <trkpt lat="42.5206506438553333282470703125" lon="19.9484599940478801727294921875">
        <ele>1823</ele>
        <time>2026-06-17T09:19:33.000Z</time>
        <extensions>
          <ns3:TrackPointExtension>
            <ns3:atemp>19.0</ns3:atemp>
          </ns3:TrackPointExtension>
        </extensions>
      </trkpt>
      <trkpt lat="42.5206506438553333282470703125" lon="19.9484599940478801727294921875">
        <ele>1823</ele>
        <time>2026-06-17T09:19:34.000Z</time>
        <extensions>
          <ns3:TrackPointExtension>
            <ns3:atemp>19.0</ns3:atemp>
          </ns3:TrackPointExtension>
        </extensions>
      </trkpt>
      <trkpt lat="42.5206506438553333282470703125" lon="19.9484599940478801727294921875">
        <ele>1823</ele>
        <time>2026-06-17T09:19:35.000Z</time>
        <extensions>
          <ns3:TrackPointExtension>
            <ns3:atemp>19.0</ns3:atemp>
          </ns3:TrackPointExtension>
        </extensions>
      </trkpt>
      <trkpt lat="42.5206506438553333282470703125" lon="19.9484599940478801727294921875">
        <ele>1823</ele>
        <time>2026-06-17T09:19:36.000Z</time>
        <extensions>
          <ns3:TrackPointExtension>
            <ns3:atemp>19.0</ns3:atemp>
          </ns3:TrackPointExtension>
        </extensions>
      </trkpt>
      <trkpt lat="42.5206506438553333282470703125" lon="19.9484599940478801727294921875">
        <ele>1823</ele>
        <time>2026-06-17T09:19:37.000Z</time>
        <extensions>
          <ns3:TrackPointExtension>
            <ns3:atemp>19.0</ns3:atemp>
          </ns3:TrackPointExtension>
        </extensions>
      </trkpt>
      <trkpt lat="42.5206506438553333282470703125" lon="19.9484599940478801727294921875">
        <ele>1823</ele>
        <time>2026-06-17T09:19:38.000Z</time>
        <extensions>
          <ns3:TrackPointExtension>
            <ns3:atemp>19.0</ns3:atemp>
          </ns3:TrackPointExtension>
        </extensions>
      </trkpt>
      <trkpt lat="42.5206506438553333282470703125" lon="19.9484599940478801727294921875">
        <ele>1823</ele>
        <time>2026-06-17T09:19:39.000Z</time>
        <extensions>
          <ns3:TrackPointExtension>
            <ns3:atemp>19.0</ns3:atemp>
          </ns3:TrackPointExtension>
        </extensions>
      </trkpt>
      <trkpt lat="42.5206506438553333282470703125" lon="19.9484599940478801727294921875">
        <ele>1823</ele>
        <time>2026-06-17T09:19:40.000Z</time>
        <extensions>
          <ns3:TrackPointExtension>
            <ns3:atemp>19.0</ns3:atemp>
          </ns3:TrackPointExtension>
        </extensions>
      </trkpt>
      <trkpt lat="42.5206506438553333282470703125" lon="19.9484599940478801727294921875">
        <ele>1823</ele>
        <time>2026-06-17T09:19:41.000Z</time>
        <extensions>
          <ns3:TrackPointExtension>
            <ns3:atemp>19.0</ns3:atemp>
          </ns3:TrackPointExtension>
        </extensions>
      </trkpt>
      <trkpt lat="42.5206506438553333282470703125" lon="19.9484599940478801727294921875">
        <ele>1823</ele>
        <time>2026-06-17T09:19:42.000Z</time>
        <extensions>
          <ns3:TrackPointExtension>
            <ns3:atemp>19.0</ns3:atemp>
          </ns3:TrackPointExtension>
        </extensions>
      </trkpt>
      <trkpt lat="42.5206506438553333282470703125" lon="19.9484599940478801727294921875">
        <ele>1823</ele>
        <time>2026-06-17T09:19:43.000Z</time>
        <extensions>
          <ns3:TrackPointExtension>
            <ns3:atemp>19.0</ns3:atemp>
          </ns3:TrackPointExtension>
        </extensions>
      </trkpt>
      <trkpt lat="42.5206506438553333282470703125" lon="19.9484599940478801727294921875">
        <ele>1823</ele>
        <time>2026-06-17T09:19:44.000Z</time>
        <extensions>
          <ns3:TrackPointExtension>
            <ns3:atemp>19.0</ns3:atemp>
          </ns3:TrackPointExtension>
        </extensions>
      </trkpt>
      <trkpt lat="42.5206506438553333282470703125" lon="19.9484599940478801727294921875">
        <ele>1823</ele>
        <time>2026-06-17T09:19:45.000Z</time>
        <extensions>
          <ns3:TrackPointExtension>
            <ns3:atemp>19.0</ns3:atemp>
          </ns3:TrackPointExtension>
        </extensions>
      </trkpt>
      <trkpt lat="42.5206506438553333282470703125" lon="19.9484599940478801727294921875">
        <ele>1823</ele>
        <time>2026-06-17T09:19:46.000Z</time>
        <extensions>
          <ns3:TrackPointExtension>
            <ns3:atemp>19.0</ns3:atemp>
          </ns3:TrackPointExtension>
        </extensions>
      </trkpt>
      <trkpt lat="42.5206506438553333282470703125" lon="19.9484599940478801727294921875">
        <ele>1823</ele>
        <time>2026-06-17T09:19:47.000Z</time>
        <extensions>
          <ns3:TrackPointExtension>
            <ns3:atemp>19.0</ns3:atemp>
          </ns3:TrackPointExtension>
        </extensions>
      </trkpt>
      <trkpt lat="42.5206506438553333282470703125" lon="19.9484599940478801727294921875">
        <ele>1823</ele>
        <time>2026-06-17T09:19:48.000Z</time>
        <extensions>
          <ns3:TrackPointExtension>
            <ns3:atemp>19.0</ns3:atemp>
          </ns3:TrackPointExtension>
        </extensions>
      </trkpt>
      <trkpt lat="42.5206506438553333282470703125" lon="19.9484599940478801727294921875">
        <ele>1823</ele>
        <time>2026-06-17T09:19:49.000Z</time>
        <extensions>
          <ns3:TrackPointExtension>
            <ns3:atemp>19.0</ns3:atemp>
          </ns3:TrackPointExtension>
        </extensions>
      </trkpt>
      <trkpt lat="42.5206506438553333282470703125" lon="19.9484599940478801727294921875">
        <ele>1823</ele>
        <time>2026-06-17T09:19:50.000Z</time>
        <extensions>
          <ns3:TrackPointExtension>
            <ns3:atemp>19.0</ns3:atemp>
          </ns3:TrackPointExtension>
        </extensions>
      </trkpt>
      <trkpt lat="42.5206506438553333282470703125" lon="19.9484599940478801727294921875">
        <ele>1823</ele>
        <time>2026-06-17T09:19:51.000Z</time>
        <extensions>
          <ns3:TrackPointExtension>
            <ns3:atemp>19.0</ns3:atemp>
          </ns3:TrackPointExtension>
        </extensions>
      </trkpt>
      <trkpt lat="42.5206506438553333282470703125" lon="19.9484599940478801727294921875">
        <ele>1823</ele>
        <time>2026-06-17T09:19:52.000Z</time>
        <extensions>
          <ns3:TrackPointExtension>
            <ns3:atemp>19.0</ns3:atemp>
          </ns3:TrackPointExtension>
        </extensions>
      </trkpt>
      <trkpt lat="42.5206506438553333282470703125" lon="19.9484599940478801727294921875">
        <ele>1823</ele>
        <time>2026-06-17T09:19:53.000Z</time>
        <extensions>
          <ns3:TrackPointExtension>
            <ns3:atemp>19.0</ns3:atemp>
          </ns3:TrackPointExtension>
        </extensions>
      </trkpt>
      <trkpt lat="42.5206506438553333282470703125" lon="19.9484599940478801727294921875">
        <ele>1823</ele>
        <time>2026-06-17T09:19:54.000Z</time>
        <extensions>
          <ns3:TrackPointExtension>
            <ns3:atemp>19.0</ns3:atemp>
          </ns3:TrackPointExtension>
        </extensions>
      </trkpt>
      <trkpt lat="42.5206506438553333282470703125" lon="19.9484599940478801727294921875">
        <ele>1823</ele>
        <time>2026-06-17T09:19:55.000Z</time>
        <extensions>
          <ns3:TrackPointExtension>
            <ns3:atemp>19.0</ns3:atemp>
          </ns3:TrackPointExtension>
        </extensions>
      </trkpt>
      <trkpt lat="42.5206506438553333282470703125" lon="19.9484599940478801727294921875">
        <ele>1823</ele>
        <time>2026-06-17T09:19:56.000Z</time>
        <extensions>
          <ns3:TrackPointExtension>
            <ns3:atemp>19.0</ns3:atemp>
          </ns3:TrackPointExtension>
        </extensions>
      </trkpt>
      <trkpt lat="42.5206506438553333282470703125" lon="19.9484599940478801727294921875">
        <ele>1823</ele>
        <time>2026-06-17T09:19:57.000Z</time>
        <extensions>
          <ns3:TrackPointExtension>
            <ns3:atemp>19.0</ns3:atemp>
          </ns3:TrackPointExtension>
        </extensions>
      </trkpt>
      <trkpt lat="42.5206506438553333282470703125" lon="19.9484599940478801727294921875">
        <ele>1823</ele>
        <time>2026-06-17T09:19:58.000Z</time>
        <extensions>
          <ns3:TrackPointExtension>
            <ns3:atemp>19.0</ns3:atemp>
          </ns3:TrackPointExtension>
        </extensions>
      </trkpt>
      <trkpt lat="42.5206506438553333282470703125" lon="19.9484599940478801727294921875">
        <ele>1823</ele>
        <time>2026-06-17T09:19:59.000Z</time>
        <extensions>
          <ns3:TrackPointExtension>
            <ns3:atemp>19.0</ns3:atemp>
          </ns3:TrackPointExtension>
        </extensions>
      </trkpt>
      <trkpt lat="42.5206506438553333282470703125" lon="19.9484599940478801727294921875">
        <ele>1823</ele>
        <time>2026-06-17T09:20:00.000Z</time>
        <extensions>
          <ns3:TrackPointExtension>
            <ns3:atemp>19.0</ns3:atemp>
          </ns3:TrackPointExtension>
        </extensions>
      </trkpt>
      <trkpt lat="42.5206506438553333282470703125" lon="19.9484599940478801727294921875">
        <ele>1823</ele>
        <time>2026-06-17T09:20:01.000Z</time>
        <extensions>
          <ns3:TrackPointExtension>
            <ns3:atemp>19.0</ns3:atemp>
          </ns3:TrackPointExtension>
        </extensions>
      </trkpt>
      <trkpt lat="42.5206506438553333282470703125" lon="19.9484599940478801727294921875">
        <ele>1823</ele>
        <time>2026-06-17T09:20:02.000Z</time>
        <extensions>
          <ns3:TrackPointExtension>
            <ns3:atemp>19.0</ns3:atemp>
          </ns3:TrackPointExtension>
        </extensions>
      </trkpt>
      <trkpt lat="42.5206506438553333282470703125" lon="19.9484599940478801727294921875">
        <ele>1823</ele>
        <time>2026-06-17T09:20:03.000Z</time>
        <extensions>
          <ns3:TrackPointExtension>
            <ns3:atemp>19.0</ns3:atemp>
          </ns3:TrackPointExtension>
        </extensions>
      </trkpt>
      <trkpt lat="42.5206506438553333282470703125" lon="19.9484599940478801727294921875">
        <ele>1823</ele>
        <time>2026-06-17T09:20:04.000Z</time>
        <extensions>
          <ns3:TrackPointExtension>
            <ns3:atemp>19.0</ns3:atemp>
          </ns3:TrackPointExtension>
        </extensions>
      </trkpt>
      <trkpt lat="42.5206506438553333282470703125" lon="19.9484599940478801727294921875">
        <ele>1823</ele>
        <time>2026-06-17T09:20:05.000Z</time>
        <extensions>
          <ns3:TrackPointExtension>
            <ns3:atemp>19.0</ns3:atemp>
          </ns3:TrackPointExtension>
        </extensions>
      </trkpt>
      <trkpt lat="42.5206506438553333282470703125" lon="19.9484599940478801727294921875">
        <ele>1823</ele>
        <time>2026-06-17T09:20:06.000Z</time>
        <extensions>
          <ns3:TrackPointExtension>
            <ns3:atemp>19.0</ns3:atemp>
          </ns3:TrackPointExtension>
        </extensions>
      </trkpt>
      <trkpt lat="42.5206506438553333282470703125" lon="19.9484599940478801727294921875">
        <ele>1823</ele>
        <time>2026-06-17T09:20:07.000Z</time>
        <extensions>
          <ns3:TrackPointExtension>
            <ns3:atemp>19.0</ns3:atemp>
          </ns3:TrackPointExtension>
        </extensions>
      </trkpt>
      <trkpt lat="42.5206506438553333282470703125" lon="19.9484599940478801727294921875">
        <ele>1823</ele>
        <time>2026-06-17T09:20:08.000Z</time>
        <extensions>
          <ns3:TrackPointExtension>
            <ns3:atemp>19.0</ns3:atemp>
          </ns3:TrackPointExtension>
        </extensions>
      </trkpt>
      <trkpt lat="42.5206506438553333282470703125" lon="19.9484599940478801727294921875">
        <ele>1823</ele>
        <time>2026-06-17T09:20:09.000Z</time>
        <extensions>
          <ns3:TrackPointExtension>
            <ns3:atemp>19.0</ns3:atemp>
          </ns3:TrackPointExtension>
        </extensions>
      </trkpt>
      <trkpt lat="42.5206506438553333282470703125" lon="19.9484599940478801727294921875">
        <ele>1823</ele>
        <time>2026-06-17T09:20:10.000Z</time>
        <extensions>
          <ns3:TrackPointExtension>
            <ns3:atemp>19.0</ns3:atemp>
          </ns3:TrackPointExtension>
        </extensions>
      </trkpt>
      <trkpt lat="42.5206506438553333282470703125" lon="19.9484599940478801727294921875">
        <ele>1823</ele>
        <time>2026-06-17T09:20:11.000Z</time>
        <extensions>
          <ns3:TrackPointExtension>
            <ns3:atemp>19.0</ns3:atemp>
          </ns3:TrackPointExtension>
        </extensions>
      </trkpt>
      <trkpt lat="42.5206506438553333282470703125" lon="19.9484599940478801727294921875">
        <ele>1823</ele>
        <time>2026-06-17T09:20:12.000Z</time>
        <extensions>
          <ns3:TrackPointExtension>
            <ns3:atemp>19.0</ns3:atemp>
          </ns3:TrackPointExtension>
        </extensions>
      </trkpt>
      <trkpt lat="42.5206506438553333282470703125" lon="19.9484599940478801727294921875">
        <ele>1823</ele>
        <time>2026-06-17T09:20:13.000Z</time>
        <extensions>
          <ns3:TrackPointExtension>
            <ns3:atemp>19.0</ns3:atemp>
          </ns3:TrackPointExtension>
        </extensions>
      </trkpt>
      <trkpt lat="42.5206506438553333282470703125" lon="19.9484599940478801727294921875">
        <ele>1823</ele>
        <time>2026-06-17T09:20:14.000Z</time>
        <extensions>
          <ns3:TrackPointExtension>
            <ns3:atemp>19.0</ns3:atemp>
          </ns3:TrackPointExtension>
        </extensions>
      </trkpt>
      <trkpt lat="42.5206506438553333282470703125" lon="19.9484599940478801727294921875">
        <ele>1823</ele>
        <time>2026-06-17T09:20:15.000Z</time>
        <extensions>
          <ns3:TrackPointExtension>
            <ns3:atemp>19.0</ns3:atemp>
          </ns3:TrackPointExtension>
        </extensions>
      </trkpt>
      <trkpt lat="42.5206506438553333282470703125" lon="19.9484599940478801727294921875">
        <ele>1823</ele>
        <time>2026-06-17T09:20:16.000Z</time>
        <extensions>
          <ns3:TrackPointExtension>
            <ns3:atemp>19.0</ns3:atemp>
          </ns3:TrackPointExtension>
        </extensions>
      </trkpt>
      <trkpt lat="42.5206506438553333282470703125" lon="19.9484599940478801727294921875">
        <ele>1823</ele>
        <time>2026-06-17T09:20:17.000Z</time>
        <extensions>
          <ns3:TrackPointExtension>
            <ns3:atemp>19.0</ns3:atemp>
          </ns3:TrackPointExtension>
        </extensions>
      </trkpt>
      <trkpt lat="42.5206506438553333282470703125" lon="19.9484599940478801727294921875">
        <ele>1823</ele>
        <time>2026-06-17T09:20:18.000Z</time>
        <extensions>
          <ns3:TrackPointExtension>
            <ns3:atemp>19.0</ns3:atemp>
          </ns3:TrackPointExtension>
        </extensions>
      </trkpt>
      <trkpt lat="42.5206506438553333282470703125" lon="19.9484599940478801727294921875">
        <ele>1823</ele>
        <time>2026-06-17T09:20:19.000Z</time>
        <extensions>
          <ns3:TrackPointExtension>
            <ns3:atemp>19.0</ns3:atemp>
          </ns3:TrackPointExtension>
        </extensions>
      </trkpt>
      <trkpt lat="42.5206506438553333282470703125" lon="19.9484599940478801727294921875">
        <ele>1823</ele>
        <time>2026-06-17T09:20:20.000Z</time>
        <extensions>
          <ns3:TrackPointExtension>
            <ns3:atemp>19.0</ns3:atemp>
          </ns3:TrackPointExtension>
        </extensions>
      </trkpt>
      <trkpt lat="42.5206506438553333282470703125" lon="19.9484599940478801727294921875">
        <ele>1823</ele>
        <time>2026-06-17T09:20:21.000Z</time>
        <extensions>
          <ns3:TrackPointExtension>
            <ns3:atemp>19.0</ns3:atemp>
          </ns3:TrackPointExtension>
        </extensions>
      </trkpt>
      <trkpt lat="42.5206506438553333282470703125" lon="19.9484599940478801727294921875">
        <ele>1823</ele>
        <time>2026-06-17T09:20:22.000Z</time>
        <extensions>
          <ns3:TrackPointExtension>
            <ns3:atemp>19.0</ns3:atemp>
          </ns3:TrackPointExtension>
        </extensions>
      </trkpt>
      <trkpt lat="42.5206506438553333282470703125" lon="19.9484599940478801727294921875">
        <ele>1823</ele>
        <time>2026-06-17T09:20:23.000Z</time>
        <extensions>
          <ns3:TrackPointExtension>
            <ns3:atemp>19.0</ns3:atemp>
          </ns3:TrackPointExtension>
        </extensions>
      </trkpt>
      <trkpt lat="42.5206506438553333282470703125" lon="19.9484599940478801727294921875">
        <ele>1823</ele>
        <time>2026-06-17T09:20:24.000Z</time>
        <extensions>
          <ns3:TrackPointExtension>
            <ns3:atemp>19.0</ns3:atemp>
          </ns3:TrackPointExtension>
        </extensions>
      </trkpt>
      <trkpt lat="42.5206506438553333282470703125" lon="19.9484599940478801727294921875">
        <ele>1823</ele>
        <time>2026-06-17T09:20:25.000Z</time>
        <extensions>
          <ns3:TrackPointExtension>
            <ns3:atemp>19.0</ns3:atemp>
          </ns3:TrackPointExtension>
        </extensions>
      </trkpt>
      <trkpt lat="42.5206506438553333282470703125" lon="19.9484599940478801727294921875">
        <ele>1823</ele>
        <time>2026-06-17T09:20:26.000Z</time>
        <extensions>
          <ns3:TrackPointExtension>
            <ns3:atemp>19.0</ns3:atemp>
          </ns3:TrackPointExtension>
        </extensions>
      </trkpt>
      <trkpt lat="42.5206506438553333282470703125" lon="19.9484599940478801727294921875">
        <ele>1823</ele>
        <time>2026-06-17T09:20:27.000Z</time>
        <extensions>
          <ns3:TrackPointExtension>
            <ns3:atemp>19.0</ns3:atemp>
          </ns3:TrackPointExtension>
        </extensions>
      </trkpt>
      <trkpt lat="42.5206506438553333282470703125" lon="19.9484599940478801727294921875">
        <ele>1823</ele>
        <time>2026-06-17T09:20:28.000Z</time>
        <extensions>
          <ns3:TrackPointExtension>
            <ns3:atemp>19.0</ns3:atemp>
          </ns3:TrackPointExtension>
        </extensions>
      </trkpt>
      <trkpt lat="42.5206506438553333282470703125" lon="19.9484599940478801727294921875">
        <ele>1823</ele>
        <time>2026-06-17T09:20:29.000Z</time>
        <extensions>
          <ns3:TrackPointExtension>
            <ns3:atemp>19.0</ns3:atemp>
          </ns3:TrackPointExtension>
        </extensions>
      </trkpt>
      <trkpt lat="42.5206506438553333282470703125" lon="19.9484599940478801727294921875">
        <ele>1823</ele>
        <time>2026-06-17T09:20:30.000Z</time>
        <extensions>
          <ns3:TrackPointExtension>
            <ns3:atemp>19.0</ns3:atemp>
          </ns3:TrackPointExtension>
        </extensions>
      </trkpt>
      <trkpt lat="42.5206506438553333282470703125" lon="19.9484599940478801727294921875">
        <ele>1823</ele>
        <time>2026-06-17T09:20:31.000Z</time>
        <extensions>
          <ns3:TrackPointExtension>
            <ns3:atemp>19.0</ns3:atemp>
          </ns3:TrackPointExtension>
        </extensions>
      </trkpt>
      <trkpt lat="42.5206506438553333282470703125" lon="19.9484599940478801727294921875">
        <ele>1823</ele>
        <time>2026-06-17T09:20:32.000Z</time>
        <extensions>
          <ns3:TrackPointExtension>
            <ns3:atemp>19.0</ns3:atemp>
          </ns3:TrackPointExtension>
        </extensions>
      </trkpt>
      <trkpt lat="42.5206506438553333282470703125" lon="19.9484599940478801727294921875">
        <ele>1823</ele>
        <time>2026-06-17T09:20:33.000Z</time>
        <extensions>
          <ns3:TrackPointExtension>
            <ns3:atemp>19.0</ns3:atemp>
          </ns3:TrackPointExtension>
        </extensions>
      </trkpt>
      <trkpt lat="42.5206506438553333282470703125" lon="19.9484599940478801727294921875">
        <ele>1823</ele>
        <time>2026-06-17T09:20:34.000Z</time>
        <extensions>
          <ns3:TrackPointExtension>
            <ns3:atemp>19.0</ns3:atemp>
          </ns3:TrackPointExtension>
        </extensions>
      </trkpt>
      <trkpt lat="42.5206506438553333282470703125" lon="19.9484599940478801727294921875">
        <ele>1823</ele>
        <time>2026-06-17T09:20:35.000Z</time>
        <extensions>
          <ns3:TrackPointExtension>
            <ns3:atemp>19.0</ns3:atemp>
          </ns3:TrackPointExtension>
        </extensions>
      </trkpt>
      <trkpt lat="42.5206506438553333282470703125" lon="19.9484599940478801727294921875">
        <ele>1823</ele>
        <time>2026-06-17T09:20:36.000Z</time>
        <extensions>
          <ns3:TrackPointExtension>
            <ns3:atemp>19.0</ns3:atemp>
          </ns3:TrackPointExtension>
        </extensions>
      </trkpt>
      <trkpt lat="42.5206506438553333282470703125" lon="19.9484599940478801727294921875">
        <ele>1823</ele>
        <time>2026-06-17T09:20:37.000Z</time>
        <extensions>
          <ns3:TrackPointExtension>
            <ns3:atemp>19.0</ns3:atemp>
          </ns3:TrackPointExtension>
        </extensions>
      </trkpt>
      <trkpt lat="42.5206506438553333282470703125" lon="19.9484599940478801727294921875">
        <ele>1823</ele>
        <time>2026-06-17T09:20:38.000Z</time>
        <extensions>
          <ns3:TrackPointExtension>
            <ns3:atemp>19.0</ns3:atemp>
          </ns3:TrackPointExtension>
        </extensions>
      </trkpt>
      <trkpt lat="42.5206506438553333282470703125" lon="19.9484599940478801727294921875">
        <ele>1823</ele>
        <time>2026-06-17T09:20:39.000Z</time>
        <extensions>
          <ns3:TrackPointExtension>
            <ns3:atemp>19.0</ns3:atemp>
          </ns3:TrackPointExtension>
        </extensions>
      </trkpt>
      <trkpt lat="42.5206506438553333282470703125" lon="19.9484599940478801727294921875">
        <ele>1823</ele>
        <time>2026-06-17T09:20:40.000Z</time>
        <extensions>
          <ns3:TrackPointExtension>
            <ns3:atemp>19.0</ns3:atemp>
          </ns3:TrackPointExtension>
        </extensions>
      </trkpt>
      <trkpt lat="42.5206506438553333282470703125" lon="19.9484599940478801727294921875">
        <ele>1823</ele>
        <time>2026-06-17T09:20:41.000Z</time>
        <extensions>
          <ns3:TrackPointExtension>
            <ns3:atemp>19.0</ns3:atemp>
          </ns3:TrackPointExtension>
        </extensions>
      </trkpt>
      <trkpt lat="42.5206506438553333282470703125" lon="19.9484599940478801727294921875">
        <ele>1823</ele>
        <time>2026-06-17T09:20:42.000Z</time>
        <extensions>
          <ns3:TrackPointExtension>
            <ns3:atemp>19.0</ns3:atemp>
          </ns3:TrackPointExtension>
        </extensions>
      </trkpt>
      <trkpt lat="42.5206506438553333282470703125" lon="19.9484599940478801727294921875">
        <ele>1823</ele>
        <time>2026-06-17T09:20:43.000Z</time>
        <extensions>
          <ns3:TrackPointExtension>
            <ns3:atemp>19.0</ns3:atemp>
          </ns3:TrackPointExtension>
        </extensions>
      </trkpt>
      <trkpt lat="42.5206506438553333282470703125" lon="19.9484599940478801727294921875">
        <ele>1823</ele>
        <time>2026-06-17T09:20:44.000Z</time>
        <extensions>
          <ns3:TrackPointExtension>
            <ns3:atemp>19.0</ns3:atemp>
          </ns3:TrackPointExtension>
        </extensions>
      </trkpt>
      <trkpt lat="42.5206506438553333282470703125" lon="19.9484599940478801727294921875">
        <ele>1823</ele>
        <time>2026-06-17T09:20:45.000Z</time>
        <extensions>
          <ns3:TrackPointExtension>
            <ns3:atemp>19.0</ns3:atemp>
          </ns3:TrackPointExtension>
        </extensions>
      </trkpt>
      <trkpt lat="42.5206506438553333282470703125" lon="19.9484599940478801727294921875">
        <ele>1823</ele>
        <time>2026-06-17T09:20:46.000Z</time>
        <extensions>
          <ns3:TrackPointExtension>
            <ns3:atemp>19.0</ns3:atemp>
          </ns3:TrackPointExtension>
        </extensions>
      </trkpt>
      <trkpt lat="42.5206506438553333282470703125" lon="19.9484599940478801727294921875">
        <ele>1823</ele>
        <time>2026-06-17T09:20:47.000Z</time>
        <extensions>
          <ns3:TrackPointExtension>
            <ns3:atemp>19.0</ns3:atemp>
          </ns3:TrackPointExtension>
        </extensions>
      </trkpt>
      <trkpt lat="42.5206506438553333282470703125" lon="19.9484599940478801727294921875">
        <ele>1823</ele>
        <time>2026-06-17T09:20:48.000Z</time>
        <extensions>
          <ns3:TrackPointExtension>
            <ns3:atemp>19.0</ns3:atemp>
          </ns3:TrackPointExtension>
        </extensions>
      </trkpt>
      <trkpt lat="42.5206506438553333282470703125" lon="19.9484599940478801727294921875">
        <ele>1823</ele>
        <time>2026-06-17T09:20:49.000Z</time>
        <extensions>
          <ns3:TrackPointExtension>
            <ns3:atemp>19.0</ns3:atemp>
          </ns3:TrackPointExtension>
        </extensions>
      </trkpt>
      <trkpt lat="42.5206506438553333282470703125" lon="19.9484599940478801727294921875">
        <ele>1823</ele>
        <time>2026-06-17T09:20:50.000Z</time>
        <extensions>
          <ns3:TrackPointExtension>
            <ns3:atemp>19.0</ns3:atemp>
          </ns3:TrackPointExtension>
        </extensions>
      </trkpt>
      <trkpt lat="42.5206506438553333282470703125" lon="19.9484599940478801727294921875">
        <ele>1823</ele>
        <time>2026-06-17T09:20:51.000Z</time>
        <extensions>
          <ns3:TrackPointExtension>
            <ns3:atemp>19.0</ns3:atemp>
          </ns3:TrackPointExtension>
        </extensions>
      </trkpt>
      <trkpt lat="42.5206506438553333282470703125" lon="19.9484599940478801727294921875">
        <ele>1823</ele>
        <time>2026-06-17T09:20:52.000Z</time>
        <extensions>
          <ns3:TrackPointExtension>
            <ns3:atemp>19.0</ns3:atemp>
          </ns3:TrackPointExtension>
        </extensions>
      </trkpt>
      <trkpt lat="42.5206506438553333282470703125" lon="19.9484599940478801727294921875">
        <ele>1823</ele>
        <time>2026-06-17T09:20:53.000Z</time>
        <extensions>
          <ns3:TrackPointExtension>
            <ns3:atemp>19.0</ns3:atemp>
          </ns3:TrackPointExtension>
        </extensions>
      </trkpt>
      <trkpt lat="42.5206506438553333282470703125" lon="19.9484599940478801727294921875">
        <ele>1823</ele>
        <time>2026-06-17T09:20:54.000Z</time>
        <extensions>
          <ns3:TrackPointExtension>
            <ns3:atemp>19.0</ns3:atemp>
          </ns3:TrackPointExtension>
        </extensions>
      </trkpt>
      <trkpt lat="42.5206506438553333282470703125" lon="19.9484599940478801727294921875">
        <ele>1823</ele>
        <time>2026-06-17T09:20:55.000Z</time>
        <extensions>
          <ns3:TrackPointExtension>
            <ns3:atemp>19.0</ns3:atemp>
          </ns3:TrackPointExtension>
        </extensions>
      </trkpt>
      <trkpt lat="42.5206506438553333282470703125" lon="19.9484599940478801727294921875">
        <ele>1823</ele>
        <time>2026-06-17T09:20:56.000Z</time>
        <extensions>
          <ns3:TrackPointExtension>
            <ns3:atemp>19.0</ns3:atemp>
          </ns3:TrackPointExtension>
        </extensions>
      </trkpt>
      <trkpt lat="42.5206506438553333282470703125" lon="19.9484599940478801727294921875">
        <ele>1823</ele>
        <time>2026-06-17T09:20:57.000Z</time>
        <extensions>
          <ns3:TrackPointExtension>
            <ns3:atemp>19.0</ns3:atemp>
          </ns3:TrackPointExtension>
        </extensions>
      </trkpt>
      <trkpt lat="42.5206506438553333282470703125" lon="19.9484599940478801727294921875">
        <ele>1823</ele>
        <time>2026-06-17T09:20:58.000Z</time>
        <extensions>
          <ns3:TrackPointExtension>
            <ns3:atemp>19.0</ns3:atemp>
          </ns3:TrackPointExtension>
        </extensions>
      </trkpt>
      <trkpt lat="42.5206506438553333282470703125" lon="19.9484599940478801727294921875">
        <ele>1823</ele>
        <time>2026-06-17T09:20:59.000Z</time>
        <extensions>
          <ns3:TrackPointExtension>
            <ns3:atemp>19.0</ns3:atemp>
          </ns3:TrackPointExtension>
        </extensions>
      </trkpt>
      <trkpt lat="42.5206506438553333282470703125" lon="19.9484599940478801727294921875">
        <ele>1823</ele>
        <time>2026-06-17T09:21:00.000Z</time>
        <extensions>
          <ns3:TrackPointExtension>
            <ns3:atemp>19.0</ns3:atemp>
          </ns3:TrackPointExtension>
        </extensions>
      </trkpt>
      <trkpt lat="42.5206506438553333282470703125" lon="19.9484599940478801727294921875">
        <ele>1823</ele>
        <time>2026-06-17T09:21:01.000Z</time>
        <extensions>
          <ns3:TrackPointExtension>
            <ns3:atemp>19.0</ns3:atemp>
          </ns3:TrackPointExtension>
        </extensions>
      </trkpt>
      <trkpt lat="42.5206506438553333282470703125" lon="19.9484599940478801727294921875">
        <ele>1823</ele>
        <time>2026-06-17T09:21:02.000Z</time>
        <extensions>
          <ns3:TrackPointExtension>
            <ns3:atemp>19.0</ns3:atemp>
          </ns3:TrackPointExtension>
        </extensions>
      </trkpt>
      <trkpt lat="42.5206506438553333282470703125" lon="19.9484599940478801727294921875">
        <ele>1823</ele>
        <time>2026-06-17T09:21:03.000Z</time>
        <extensions>
          <ns3:TrackPointExtension>
            <ns3:atemp>19.0</ns3:atemp>
          </ns3:TrackPointExtension>
        </extensions>
      </trkpt>
      <trkpt lat="42.5206506438553333282470703125" lon="19.9484599940478801727294921875">
        <ele>1823</ele>
        <time>2026-06-17T09:21:04.000Z</time>
        <extensions>
          <ns3:TrackPointExtension>
            <ns3:atemp>19.0</ns3:atemp>
          </ns3:TrackPointExtension>
        </extensions>
      </trkpt>
      <trkpt lat="42.5206506438553333282470703125" lon="19.9484599940478801727294921875">
        <ele>1823</ele>
        <time>2026-06-17T09:21:05.000Z</time>
        <extensions>
          <ns3:TrackPointExtension>
            <ns3:atemp>19.0</ns3:atemp>
          </ns3:TrackPointExtension>
        </extensions>
      </trkpt>
      <trkpt lat="42.5206506438553333282470703125" lon="19.9484599940478801727294921875">
        <ele>1823</ele>
        <time>2026-06-17T09:21:06.000Z</time>
        <extensions>
          <ns3:TrackPointExtension>
            <ns3:atemp>19.0</ns3:atemp>
          </ns3:TrackPointExtension>
        </extensions>
      </trkpt>
      <trkpt lat="42.5206506438553333282470703125" lon="19.9484599940478801727294921875">
        <ele>1823</ele>
        <time>2026-06-17T09:21:07.000Z</time>
        <extensions>
          <ns3:TrackPointExtension>
            <ns3:atemp>19.0</ns3:atemp>
          </ns3:TrackPointExtension>
        </extensions>
      </trkpt>
      <trkpt lat="42.5206506438553333282470703125" lon="19.9484599940478801727294921875">
        <ele>1823</ele>
        <time>2026-06-17T09:21:08.000Z</time>
        <extensions>
          <ns3:TrackPointExtension>
            <ns3:atemp>19.0</ns3:atemp>
          </ns3:TrackPointExtension>
        </extensions>
      </trkpt>
      <trkpt lat="42.5206506438553333282470703125" lon="19.9484599940478801727294921875">
        <ele>1823</ele>
        <time>2026-06-17T09:21:09.000Z</time>
        <extensions>
          <ns3:TrackPointExtension>
            <ns3:atemp>19.0</ns3:atemp>
          </ns3:TrackPointExtension>
        </extensions>
      </trkpt>
      <trkpt lat="42.5206506438553333282470703125" lon="19.9484599940478801727294921875">
        <ele>1823</ele>
        <time>2026-06-17T09:21:10.000Z</time>
        <extensions>
          <ns3:TrackPointExtension>
            <ns3:atemp>19.0</ns3:atemp>
          </ns3:TrackPointExtension>
        </extensions>
      </trkpt>
      <trkpt lat="42.5206506438553333282470703125" lon="19.9484599940478801727294921875">
        <ele>1823</ele>
        <time>2026-06-17T09:21:11.000Z</time>
        <extensions>
          <ns3:TrackPointExtension>
            <ns3:atemp>19.0</ns3:atemp>
          </ns3:TrackPointExtension>
        </extensions>
      </trkpt>
      <trkpt lat="42.5206506438553333282470703125" lon="19.9484599940478801727294921875">
        <ele>1823</ele>
        <time>2026-06-17T09:21:12.000Z</time>
        <extensions>
          <ns3:TrackPointExtension>
            <ns3:atemp>19.0</ns3:atemp>
          </ns3:TrackPointExtension>
        </extensions>
      </trkpt>
      <trkpt lat="42.5206506438553333282470703125" lon="19.9484599940478801727294921875">
        <ele>1823</ele>
        <time>2026-06-17T09:21:13.000Z</time>
        <extensions>
          <ns3:TrackPointExtension>
            <ns3:atemp>19.0</ns3:atemp>
          </ns3:TrackPointExtension>
        </extensions>
      </trkpt>
      <trkpt lat="42.5206506438553333282470703125" lon="19.9484599940478801727294921875">
        <ele>1823</ele>
        <time>2026-06-17T09:21:14.000Z</time>
        <extensions>
          <ns3:TrackPointExtension>
            <ns3:atemp>19.0</ns3:atemp>
          </ns3:TrackPointExtension>
        </extensions>
      </trkpt>
      <trkpt lat="42.5206506438553333282470703125" lon="19.9484599940478801727294921875">
        <ele>1823</ele>
        <time>2026-06-17T09:21:15.000Z</time>
        <extensions>
          <ns3:TrackPointExtension>
            <ns3:atemp>19.0</ns3:atemp>
          </ns3:TrackPointExtension>
        </extensions>
      </trkpt>
      <trkpt lat="42.5206506438553333282470703125" lon="19.9484599940478801727294921875">
        <ele>1823</ele>
        <time>2026-06-17T09:21:16.000Z</time>
        <extensions>
          <ns3:TrackPointExtension>
            <ns3:atemp>19.0</ns3:atemp>
          </ns3:TrackPointExtension>
        </extensions>
      </trkpt>
      <trkpt lat="42.5206506438553333282470703125" lon="19.9484599940478801727294921875">
        <ele>1823</ele>
        <time>2026-06-17T09:21:17.000Z</time>
        <extensions>
          <ns3:TrackPointExtension>
            <ns3:atemp>19.0</ns3:atemp>
          </ns3:TrackPointExtension>
        </extensions>
      </trkpt>
      <trkpt lat="42.5206506438553333282470703125" lon="19.9484599940478801727294921875">
        <ele>1823</ele>
        <time>2026-06-17T09:21:18.000Z</time>
        <extensions>
          <ns3:TrackPointExtension>
            <ns3:atemp>19.0</ns3:atemp>
          </ns3:TrackPointExtension>
        </extensions>
      </trkpt>
      <trkpt lat="42.5206506438553333282470703125" lon="19.9484599940478801727294921875">
        <ele>1823</ele>
        <time>2026-06-17T09:21:19.000Z</time>
        <extensions>
          <ns3:TrackPointExtension>
            <ns3:atemp>19.0</ns3:atemp>
          </ns3:TrackPointExtension>
        </extensions>
      </trkpt>
      <trkpt lat="42.5206506438553333282470703125" lon="19.9484599940478801727294921875">
        <ele>1823</ele>
        <time>2026-06-17T09:21:20.000Z</time>
        <extensions>
          <ns3:TrackPointExtension>
            <ns3:atemp>19.0</ns3:atemp>
          </ns3:TrackPointExtension>
        </extensions>
      </trkpt>
      <trkpt lat="42.5206506438553333282470703125" lon="19.9484599940478801727294921875">
        <ele>1823</ele>
        <time>2026-06-17T09:21:21.000Z</time>
        <extensions>
          <ns3:TrackPointExtension>
            <ns3:atemp>19.0</ns3:atemp>
          </ns3:TrackPointExtension>
        </extensions>
      </trkpt>
      <trkpt lat="42.5206506438553333282470703125" lon="19.9484599940478801727294921875">
        <ele>1823</ele>
        <time>2026-06-17T09:21:22.000Z</time>
        <extensions>
          <ns3:TrackPointExtension>
            <ns3:atemp>19.0</ns3:atemp>
          </ns3:TrackPointExtension>
        </extensions>
      </trkpt>
      <trkpt lat="42.5206506438553333282470703125" lon="19.9484599940478801727294921875">
        <ele>1823</ele>
        <time>2026-06-17T09:21:23.000Z</time>
        <extensions>
          <ns3:TrackPointExtension>
            <ns3:atemp>19.0</ns3:atemp>
          </ns3:TrackPointExtension>
        </extensions>
      </trkpt>
      <trkpt lat="42.5206506438553333282470703125" lon="19.9484599940478801727294921875">
        <ele>1823</ele>
        <time>2026-06-17T09:21:24.000Z</time>
        <extensions>
          <ns3:TrackPointExtension>
            <ns3:atemp>19.0</ns3:atemp>
          </ns3:TrackPointExtension>
        </extensions>
      </trkpt>
      <trkpt lat="42.5206506438553333282470703125" lon="19.9484599940478801727294921875">
        <ele>1823</ele>
        <time>2026-06-17T09:21:25.000Z</time>
        <extensions>
          <ns3:TrackPointExtension>
            <ns3:atemp>19.0</ns3:atemp>
          </ns3:TrackPointExtension>
        </extensions>
      </trkpt>
      <trkpt lat="42.5206506438553333282470703125" lon="19.9484599940478801727294921875">
        <ele>1823</ele>
        <time>2026-06-17T09:21:26.000Z</time>
        <extensions>
          <ns3:TrackPointExtension>
            <ns3:atemp>19.0</ns3:atemp>
          </ns3:TrackPointExtension>
        </extensions>
      </trkpt>
      <trkpt lat="42.5206506438553333282470703125" lon="19.9484599940478801727294921875">
        <ele>1823</ele>
        <time>2026-06-17T09:21:27.000Z</time>
        <extensions>
          <ns3:TrackPointExtension>
            <ns3:atemp>19.0</ns3:atemp>
          </ns3:TrackPointExtension>
        </extensions>
      </trkpt>
      <trkpt lat="42.5206506438553333282470703125" lon="19.9484599940478801727294921875">
        <ele>1823</ele>
        <time>2026-06-17T09:21:28.000Z</time>
        <extensions>
          <ns3:TrackPointExtension>
            <ns3:atemp>19.0</ns3:atemp>
          </ns3:TrackPointExtension>
        </extensions>
      </trkpt>
      <trkpt lat="42.5206506438553333282470703125" lon="19.9484599940478801727294921875">
        <ele>1823</ele>
        <time>2026-06-17T09:21:29.000Z</time>
        <extensions>
          <ns3:TrackPointExtension>
            <ns3:atemp>19.0</ns3:atemp>
          </ns3:TrackPointExtension>
        </extensions>
      </trkpt>
      <trkpt lat="42.5206506438553333282470703125" lon="19.9484599940478801727294921875">
        <ele>1823</ele>
        <time>2026-06-17T09:21:30.000Z</time>
        <extensions>
          <ns3:TrackPointExtension>
            <ns3:atemp>19.0</ns3:atemp>
          </ns3:TrackPointExtension>
        </extensions>
      </trkpt>
      <trkpt lat="42.5206506438553333282470703125" lon="19.9484599940478801727294921875">
        <ele>1823</ele>
        <time>2026-06-17T09:21:31.000Z</time>
        <extensions>
          <ns3:TrackPointExtension>
            <ns3:atemp>19.0</ns3:atemp>
          </ns3:TrackPointExtension>
        </extensions>
      </trkpt>
      <trkpt lat="42.5206506438553333282470703125" lon="19.9484599940478801727294921875">
        <ele>1823</ele>
        <time>2026-06-17T09:21:32.000Z</time>
        <extensions>
          <ns3:TrackPointExtension>
            <ns3:atemp>19.0</ns3:atemp>
          </ns3:TrackPointExtension>
        </extensions>
      </trkpt>
      <trkpt lat="42.5206506438553333282470703125" lon="19.9484599940478801727294921875">
        <ele>1823</ele>
        <time>2026-06-17T09:21:33.000Z</time>
        <extensions>
          <ns3:TrackPointExtension>
            <ns3:atemp>19.0</ns3:atemp>
          </ns3:TrackPointExtension>
        </extensions>
      </trkpt>
      <trkpt lat="42.5206506438553333282470703125" lon="19.9484599940478801727294921875">
        <ele>1823</ele>
        <time>2026-06-17T09:21:34.000Z</time>
        <extensions>
          <ns3:TrackPointExtension>
            <ns3:atemp>19.0</ns3:atemp>
          </ns3:TrackPointExtension>
        </extensions>
      </trkpt>
      <trkpt lat="42.5206506438553333282470703125" lon="19.9484599940478801727294921875">
        <ele>1823</ele>
        <time>2026-06-17T09:21:35.000Z</time>
        <extensions>
          <ns3:TrackPointExtension>
            <ns3:atemp>19.0</ns3:atemp>
          </ns3:TrackPointExtension>
        </extensions>
      </trkpt>
      <trkpt lat="42.5206506438553333282470703125" lon="19.9484599940478801727294921875">
        <ele>1823</ele>
        <time>2026-06-17T09:21:36.000Z</time>
        <extensions>
          <ns3:TrackPointExtension>
            <ns3:atemp>19.0</ns3:atemp>
          </ns3:TrackPointExtension>
        </extensions>
      </trkpt>
      <trkpt lat="42.5206506438553333282470703125" lon="19.9484599940478801727294921875">
        <ele>1823</ele>
        <time>2026-06-17T09:21:37.000Z</time>
        <extensions>
          <ns3:TrackPointExtension>
            <ns3:atemp>19.0</ns3:atemp>
          </ns3:TrackPointExtension>
        </extensions>
      </trkpt>
      <trkpt lat="42.5206506438553333282470703125" lon="19.9484599940478801727294921875">
        <ele>1823</ele>
        <time>2026-06-17T09:21:38.000Z</time>
        <extensions>
          <ns3:TrackPointExtension>
            <ns3:atemp>19.0</ns3:atemp>
          </ns3:TrackPointExtension>
        </extensions>
      </trkpt>
      <trkpt lat="42.5206506438553333282470703125" lon="19.9484599940478801727294921875">
        <ele>1823</ele>
        <time>2026-06-17T09:21:39.000Z</time>
        <extensions>
          <ns3:TrackPointExtension>
            <ns3:atemp>19.0</ns3:atemp>
          </ns3:TrackPointExtension>
        </extensions>
      </trkpt>
      <trkpt lat="42.5206506438553333282470703125" lon="19.9484599940478801727294921875">
        <ele>1823</ele>
        <time>2026-06-17T09:21:40.000Z</time>
        <extensions>
          <ns3:TrackPointExtension>
            <ns3:atemp>19.0</ns3:atemp>
          </ns3:TrackPointExtension>
        </extensions>
      </trkpt>
      <trkpt lat="42.5206506438553333282470703125" lon="19.9484599940478801727294921875">
        <ele>1823</ele>
        <time>2026-06-17T09:21:41.000Z</time>
        <extensions>
          <ns3:TrackPointExtension>
            <ns3:atemp>19.0</ns3:atemp>
          </ns3:TrackPointExtension>
        </extensions>
      </trkpt>
      <trkpt lat="42.5206506438553333282470703125" lon="19.9484599940478801727294921875">
        <ele>1823</ele>
        <time>2026-06-17T09:21:42.000Z</time>
        <extensions>
          <ns3:TrackPointExtension>
            <ns3:atemp>19.0</ns3:atemp>
          </ns3:TrackPointExtension>
        </extensions>
      </trkpt>
      <trkpt lat="42.5206506438553333282470703125" lon="19.9484599940478801727294921875">
        <ele>1823</ele>
        <time>2026-06-17T09:21:43.000Z</time>
        <extensions>
          <ns3:TrackPointExtension>
            <ns3:atemp>19.0</ns3:atemp>
          </ns3:TrackPointExtension>
        </extensions>
      </trkpt>
      <trkpt lat="42.5206506438553333282470703125" lon="19.9484599940478801727294921875">
        <ele>1823</ele>
        <time>2026-06-17T09:21:44.000Z</time>
        <extensions>
          <ns3:TrackPointExtension>
            <ns3:atemp>19.0</ns3:atemp>
          </ns3:TrackPointExtension>
        </extensions>
      </trkpt>
      <trkpt lat="42.5206506438553333282470703125" lon="19.9484599940478801727294921875">
        <ele>1823</ele>
        <time>2026-06-17T09:21:45.000Z</time>
        <extensions>
          <ns3:TrackPointExtension>
            <ns3:atemp>19.0</ns3:atemp>
          </ns3:TrackPointExtension>
        </extensions>
      </trkpt>
      <trkpt lat="42.5206506438553333282470703125" lon="19.9484599940478801727294921875">
        <ele>1823</ele>
        <time>2026-06-17T09:21:46.000Z</time>
        <extensions>
          <ns3:TrackPointExtension>
            <ns3:atemp>19.0</ns3:atemp>
          </ns3:TrackPointExtension>
        </extensions>
      </trkpt>
      <trkpt lat="42.5206506438553333282470703125" lon="19.9484599940478801727294921875">
        <ele>1823</ele>
        <time>2026-06-17T09:21:47.000Z</time>
        <extensions>
          <ns3:TrackPointExtension>
            <ns3:atemp>19.0</ns3:atemp>
          </ns3:TrackPointExtension>
        </extensions>
      </trkpt>
      <trkpt lat="42.5206506438553333282470703125" lon="19.9484599940478801727294921875">
        <ele>1823</ele>
        <time>2026-06-17T09:21:48.000Z</time>
        <extensions>
          <ns3:TrackPointExtension>
            <ns3:atemp>19.0</ns3:atemp>
          </ns3:TrackPointExtension>
        </extensions>
      </trkpt>
      <trkpt lat="42.5206506438553333282470703125" lon="19.9484599940478801727294921875">
        <ele>1823</ele>
        <time>2026-06-17T09:21:49.000Z</time>
        <extensions>
          <ns3:TrackPointExtension>
            <ns3:atemp>19.0</ns3:atemp>
          </ns3:TrackPointExtension>
        </extensions>
      </trkpt>
      <trkpt lat="42.5206506438553333282470703125" lon="19.9484599940478801727294921875">
        <ele>1823</ele>
        <time>2026-06-17T09:21:50.000Z</time>
        <extensions>
          <ns3:TrackPointExtension>
            <ns3:atemp>19.0</ns3:atemp>
          </ns3:TrackPointExtension>
        </extensions>
      </trkpt>
      <trkpt lat="42.5206506438553333282470703125" lon="19.9484599940478801727294921875">
        <ele>1823</ele>
        <time>2026-06-17T09:21:51.000Z</time>
        <extensions>
          <ns3:TrackPointExtension>
            <ns3:atemp>19.0</ns3:atemp>
          </ns3:TrackPointExtension>
        </extensions>
      </trkpt>
      <trkpt lat="42.5206506438553333282470703125" lon="19.9484599940478801727294921875">
        <ele>1823</ele>
        <time>2026-06-17T09:21:52.000Z</time>
        <extensions>
          <ns3:TrackPointExtension>
            <ns3:atemp>19.0</ns3:atemp>
          </ns3:TrackPointExtension>
        </extensions>
      </trkpt>
      <trkpt lat="42.5206506438553333282470703125" lon="19.9484599940478801727294921875">
        <ele>1823</ele>
        <time>2026-06-17T09:21:53.000Z</time>
        <extensions>
          <ns3:TrackPointExtension>
            <ns3:atemp>19.0</ns3:atemp>
          </ns3:TrackPointExtension>
        </extensions>
      </trkpt>
      <trkpt lat="42.5206506438553333282470703125" lon="19.9484599940478801727294921875">
        <ele>1823</ele>
        <time>2026-06-17T09:21:54.000Z</time>
        <extensions>
          <ns3:TrackPointExtension>
            <ns3:atemp>19.0</ns3:atemp>
          </ns3:TrackPointExtension>
        </extensions>
      </trkpt>
      <trkpt lat="42.5206506438553333282470703125" lon="19.9484599940478801727294921875">
        <ele>1823</ele>
        <time>2026-06-17T09:21:55.000Z</time>
        <extensions>
          <ns3:TrackPointExtension>
            <ns3:atemp>19.0</ns3:atemp>
          </ns3:TrackPointExtension>
        </extensions>
      </trkpt>
      <trkpt lat="42.5206506438553333282470703125" lon="19.9484599940478801727294921875">
        <ele>1823</ele>
        <time>2026-06-17T09:21:56.000Z</time>
        <extensions>
          <ns3:TrackPointExtension>
            <ns3:atemp>19.0</ns3:atemp>
          </ns3:TrackPointExtension>
        </extensions>
      </trkpt>
      <trkpt lat="42.5206506438553333282470703125" lon="19.9484599940478801727294921875">
        <ele>1823</ele>
        <time>2026-06-17T09:21:57.000Z</time>
        <extensions>
          <ns3:TrackPointExtension>
            <ns3:atemp>19.0</ns3:atemp>
          </ns3:TrackPointExtension>
        </extensions>
      </trkpt>
      <trkpt lat="42.5206506438553333282470703125" lon="19.9484599940478801727294921875">
        <ele>1823</ele>
        <time>2026-06-17T09:21:58.000Z</time>
        <extensions>
          <ns3:TrackPointExtension>
            <ns3:atemp>19.0</ns3:atemp>
          </ns3:TrackPointExtension>
        </extensions>
      </trkpt>
      <trkpt lat="42.5206506438553333282470703125" lon="19.9484599940478801727294921875">
        <ele>1823</ele>
        <time>2026-06-17T09:21:59.000Z</time>
        <extensions>
          <ns3:TrackPointExtension>
            <ns3:atemp>19.0</ns3:atemp>
          </ns3:TrackPointExtension>
        </extensions>
      </trkpt>
      <trkpt lat="42.5206506438553333282470703125" lon="19.9484599940478801727294921875">
        <ele>1823</ele>
        <time>2026-06-17T09:22:00.000Z</time>
        <extensions>
          <ns3:TrackPointExtension>
            <ns3:atemp>19.0</ns3:atemp>
          </ns3:TrackPointExtension>
        </extensions>
      </trkpt>
      <trkpt lat="42.5206506438553333282470703125" lon="19.9484599940478801727294921875">
        <ele>1823</ele>
        <time>2026-06-17T09:22:01.000Z</time>
        <extensions>
          <ns3:TrackPointExtension>
            <ns3:atemp>19.0</ns3:atemp>
          </ns3:TrackPointExtension>
        </extensions>
      </trkpt>
      <trkpt lat="42.5206506438553333282470703125" lon="19.9484599940478801727294921875">
        <ele>1823</ele>
        <time>2026-06-17T09:22:02.000Z</time>
        <extensions>
          <ns3:TrackPointExtension>
            <ns3:atemp>19.0</ns3:atemp>
          </ns3:TrackPointExtension>
        </extensions>
      </trkpt>
      <trkpt lat="42.5206506438553333282470703125" lon="19.9484599940478801727294921875">
        <ele>1823</ele>
        <time>2026-06-17T09:22:03.000Z</time>
        <extensions>
          <ns3:TrackPointExtension>
            <ns3:atemp>19.0</ns3:atemp>
          </ns3:TrackPointExtension>
        </extensions>
      </trkpt>
      <trkpt lat="42.5206506438553333282470703125" lon="19.9484599940478801727294921875">
        <ele>1823</ele>
        <time>2026-06-17T09:22:04.000Z</time>
        <extensions>
          <ns3:TrackPointExtension>
            <ns3:atemp>19.0</ns3:atemp>
          </ns3:TrackPointExtension>
        </extensions>
      </trkpt>
      <trkpt lat="42.5206506438553333282470703125" lon="19.9484599940478801727294921875">
        <ele>1823</ele>
        <time>2026-06-17T09:22:05.000Z</time>
        <extensions>
          <ns3:TrackPointExtension>
            <ns3:atemp>19.0</ns3:atemp>
          </ns3:TrackPointExtension>
        </extensions>
      </trkpt>
      <trkpt lat="42.5206506438553333282470703125" lon="19.9484599940478801727294921875">
        <ele>1823</ele>
        <time>2026-06-17T09:22:06.000Z</time>
        <extensions>
          <ns3:TrackPointExtension>
            <ns3:atemp>19.0</ns3:atemp>
          </ns3:TrackPointExtension>
        </extensions>
      </trkpt>
      <trkpt lat="42.5206506438553333282470703125" lon="19.9484599940478801727294921875">
        <ele>1823</ele>
        <time>2026-06-17T09:22:07.000Z</time>
        <extensions>
          <ns3:TrackPointExtension>
            <ns3:atemp>19.0</ns3:atemp>
          </ns3:TrackPointExtension>
        </extensions>
      </trkpt>
      <trkpt lat="42.5206506438553333282470703125" lon="19.9484599940478801727294921875">
        <ele>1823</ele>
        <time>2026-06-17T09:22:08.000Z</time>
        <extensions>
          <ns3:TrackPointExtension>
            <ns3:atemp>19.0</ns3:atemp>
          </ns3:TrackPointExtension>
        </extensions>
      </trkpt>
      <trkpt lat="42.5206506438553333282470703125" lon="19.9484599940478801727294921875">
        <ele>1823</ele>
        <time>2026-06-17T09:22:09.000Z</time>
        <extensions>
          <ns3:TrackPointExtension>
            <ns3:atemp>19.0</ns3:atemp>
          </ns3:TrackPointExtension>
        </extensions>
      </trkpt>
      <trkpt lat="42.5206506438553333282470703125" lon="19.9484599940478801727294921875">
        <ele>1823</ele>
        <time>2026-06-17T09:22:10.000Z</time>
        <extensions>
          <ns3:TrackPointExtension>
            <ns3:atemp>19.0</ns3:atemp>
          </ns3:TrackPointExtension>
        </extensions>
      </trkpt>
      <trkpt lat="42.5206506438553333282470703125" lon="19.9484599940478801727294921875">
        <ele>1823</ele>
        <time>2026-06-17T09:22:11.000Z</time>
        <extensions>
          <ns3:TrackPointExtension>
            <ns3:atemp>19.0</ns3:atemp>
          </ns3:TrackPointExtension>
        </extensions>
      </trkpt>
      <trkpt lat="42.5206506438553333282470703125" lon="19.9484599940478801727294921875">
        <ele>1823</ele>
        <time>2026-06-17T09:22:12.000Z</time>
        <extensions>
          <ns3:TrackPointExtension>
            <ns3:atemp>19.0</ns3:atemp>
          </ns3:TrackPointExtension>
        </extensions>
      </trkpt>
      <trkpt lat="42.5206506438553333282470703125" lon="19.9484599940478801727294921875">
        <ele>1823</ele>
        <time>2026-06-17T09:22:13.000Z</time>
        <extensions>
          <ns3:TrackPointExtension>
            <ns3:atemp>19.0</ns3:atemp>
          </ns3:TrackPointExtension>
        </extensions>
      </trkpt>
      <trkpt lat="42.5206506438553333282470703125" lon="19.9484599940478801727294921875">
        <ele>1823</ele>
        <time>2026-06-17T09:22:14.000Z</time>
        <extensions>
          <ns3:TrackPointExtension>
            <ns3:atemp>19.0</ns3:atemp>
          </ns3:TrackPointExtension>
        </extensions>
      </trkpt>
      <trkpt lat="42.5206506438553333282470703125" lon="19.9484599940478801727294921875">
        <ele>1823</ele>
        <time>2026-06-17T09:22:15.000Z</time>
        <extensions>
          <ns3:TrackPointExtension>
            <ns3:atemp>19.0</ns3:atemp>
          </ns3:TrackPointExtension>
        </extensions>
      </trkpt>
      <trkpt lat="42.5206506438553333282470703125" lon="19.9484599940478801727294921875">
        <ele>1823</ele>
        <time>2026-06-17T09:22:16.000Z</time>
        <extensions>
          <ns3:TrackPointExtension>
            <ns3:atemp>19.0</ns3:atemp>
          </ns3:TrackPointExtension>
        </extensions>
      </trkpt>
      <trkpt lat="42.5206506438553333282470703125" lon="19.9484599940478801727294921875">
        <ele>1823</ele>
        <time>2026-06-17T09:22:17.000Z</time>
        <extensions>
          <ns3:TrackPointExtension>
            <ns3:atemp>19.0</ns3:atemp>
          </ns3:TrackPointExtension>
        </extensions>
      </trkpt>
      <trkpt lat="42.5206506438553333282470703125" lon="19.9484599940478801727294921875">
        <ele>1823</ele>
        <time>2026-06-17T09:22:18.000Z</time>
        <extensions>
          <ns3:TrackPointExtension>
            <ns3:atemp>19.0</ns3:atemp>
          </ns3:TrackPointExtension>
        </extensions>
      </trkpt>
      <trkpt lat="42.5206506438553333282470703125" lon="19.9484599940478801727294921875">
        <ele>1823</ele>
        <time>2026-06-17T09:22:19.000Z</time>
        <extensions>
          <ns3:TrackPointExtension>
            <ns3:atemp>19.0</ns3:atemp>
          </ns3:TrackPointExtension>
        </extensions>
      </trkpt>
      <trkpt lat="42.5206506438553333282470703125" lon="19.9484599940478801727294921875">
        <ele>1823</ele>
        <time>2026-06-17T09:22:20.000Z</time>
        <extensions>
          <ns3:TrackPointExtension>
            <ns3:atemp>19.0</ns3:atemp>
          </ns3:TrackPointExtension>
        </extensions>
      </trkpt>
      <trkpt lat="42.5206506438553333282470703125" lon="19.9484599940478801727294921875">
        <ele>1823</ele>
        <time>2026-06-17T09:22:21.000Z</time>
        <extensions>
          <ns3:TrackPointExtension>
            <ns3:atemp>19.0</ns3:atemp>
          </ns3:TrackPointExtension>
        </extensions>
      </trkpt>
      <trkpt lat="42.5206506438553333282470703125" lon="19.9484599940478801727294921875">
        <ele>1823</ele>
        <time>2026-06-17T09:22:22.000Z</time>
        <extensions>
          <ns3:TrackPointExtension>
            <ns3:atemp>19.0</ns3:atemp>
          </ns3:TrackPointExtension>
        </extensions>
      </trkpt>
      <trkpt lat="42.5206506438553333282470703125" lon="19.9484599940478801727294921875">
        <ele>1823</ele>
        <time>2026-06-17T09:22:23.000Z</time>
        <extensions>
          <ns3:TrackPointExtension>
            <ns3:atemp>19.0</ns3:atemp>
          </ns3:TrackPointExtension>
        </extensions>
      </trkpt>
      <trkpt lat="42.5206506438553333282470703125" lon="19.9484599940478801727294921875">
        <ele>1823</ele>
        <time>2026-06-17T09:22:24.000Z</time>
        <extensions>
          <ns3:TrackPointExtension>
            <ns3:atemp>19.0</ns3:atemp>
          </ns3:TrackPointExtension>
        </extensions>
      </trkpt>
      <trkpt lat="42.5206506438553333282470703125" lon="19.9484599940478801727294921875">
        <ele>1823</ele>
        <time>2026-06-17T09:22:25.000Z</time>
        <extensions>
          <ns3:TrackPointExtension>
            <ns3:atemp>19.0</ns3:atemp>
          </ns3:TrackPointExtension>
        </extensions>
      </trkpt>
      <trkpt lat="42.5206506438553333282470703125" lon="19.9484599940478801727294921875">
        <ele>1823</ele>
        <time>2026-06-17T09:22:26.000Z</time>
        <extensions>
          <ns3:TrackPointExtension>
            <ns3:atemp>19.0</ns3:atemp>
          </ns3:TrackPointExtension>
        </extensions>
      </trkpt>
      <trkpt lat="42.5206506438553333282470703125" lon="19.9484599940478801727294921875">
        <ele>1823</ele>
        <time>2026-06-17T09:22:27.000Z</time>
        <extensions>
          <ns3:TrackPointExtension>
            <ns3:atemp>19.0</ns3:atemp>
          </ns3:TrackPointExtension>
        </extensions>
      </trkpt>
      <trkpt lat="42.5206506438553333282470703125" lon="19.9484599940478801727294921875">
        <ele>1823</ele>
        <time>2026-06-17T09:22:28.000Z</time>
        <extensions>
          <ns3:TrackPointExtension>
            <ns3:atemp>19.0</ns3:atemp>
          </ns3:TrackPointExtension>
        </extensions>
      </trkpt>
      <trkpt lat="42.5206506438553333282470703125" lon="19.9484599940478801727294921875">
        <ele>1823</ele>
        <time>2026-06-17T09:22:29.000Z</time>
        <extensions>
          <ns3:TrackPointExtension>
            <ns3:atemp>19.0</ns3:atemp>
          </ns3:TrackPointExtension>
        </extensions>
      </trkpt>
      <trkpt lat="42.5206506438553333282470703125" lon="19.9484599940478801727294921875">
        <ele>1823</ele>
        <time>2026-06-17T09:22:30.000Z</time>
        <extensions>
          <ns3:TrackPointExtension>
            <ns3:atemp>19.0</ns3:atemp>
          </ns3:TrackPointExtension>
        </extensions>
      </trkpt>
      <trkpt lat="42.5206506438553333282470703125" lon="19.9484599940478801727294921875">
        <ele>1823</ele>
        <time>2026-06-17T09:22:31.000Z</time>
        <extensions>
          <ns3:TrackPointExtension>
            <ns3:atemp>19.0</ns3:atemp>
          </ns3:TrackPointExtension>
        </extensions>
      </trkpt>
      <trkpt lat="42.5206506438553333282470703125" lon="19.9484599940478801727294921875">
        <ele>1823</ele>
        <time>2026-06-17T09:22:32.000Z</time>
        <extensions>
          <ns3:TrackPointExtension>
            <ns3:atemp>19.0</ns3:atemp>
          </ns3:TrackPointExtension>
        </extensions>
      </trkpt>
      <trkpt lat="42.5206506438553333282470703125" lon="19.9484599940478801727294921875">
        <ele>1823</ele>
        <time>2026-06-17T09:22:33.000Z</time>
        <extensions>
          <ns3:TrackPointExtension>
            <ns3:atemp>19.0</ns3:atemp>
          </ns3:TrackPointExtension>
        </extensions>
      </trkpt>
      <trkpt lat="42.5206506438553333282470703125" lon="19.9484599940478801727294921875">
        <ele>1823</ele>
        <time>2026-06-17T09:22:34.000Z</time>
        <extensions>
          <ns3:TrackPointExtension>
            <ns3:atemp>19.0</ns3:atemp>
          </ns3:TrackPointExtension>
        </extensions>
      </trkpt>
      <trkpt lat="42.5206506438553333282470703125" lon="19.9484599940478801727294921875">
        <ele>1823</ele>
        <time>2026-06-17T09:22:35.000Z</time>
        <extensions>
          <ns3:TrackPointExtension>
            <ns3:atemp>19.0</ns3:atemp>
          </ns3:TrackPointExtension>
        </extensions>
      </trkpt>
      <trkpt lat="42.5206506438553333282470703125" lon="19.9484599940478801727294921875">
        <ele>1823</ele>
        <time>2026-06-17T09:22:36.000Z</time>
        <extensions>
          <ns3:TrackPointExtension>
            <ns3:atemp>19.0</ns3:atemp>
          </ns3:TrackPointExtension>
        </extensions>
      </trkpt>
      <trkpt lat="42.5206506438553333282470703125" lon="19.9484599940478801727294921875">
        <ele>1823</ele>
        <time>2026-06-17T09:22:37.000Z</time>
        <extensions>
          <ns3:TrackPointExtension>
            <ns3:atemp>19.0</ns3:atemp>
          </ns3:TrackPointExtension>
        </extensions>
      </trkpt>
      <trkpt lat="42.5206506438553333282470703125" lon="19.9484599940478801727294921875">
        <ele>1823</ele>
        <time>2026-06-17T09:22:38.000Z</time>
        <extensions>
          <ns3:TrackPointExtension>
            <ns3:atemp>19.0</ns3:atemp>
          </ns3:TrackPointExtension>
        </extensions>
      </trkpt>
      <trkpt lat="42.5206506438553333282470703125" lon="19.9484599940478801727294921875">
        <ele>1823</ele>
        <time>2026-06-17T09:22:39.000Z</time>
        <extensions>
          <ns3:TrackPointExtension>
            <ns3:atemp>19.0</ns3:atemp>
          </ns3:TrackPointExtension>
        </extensions>
      </trkpt>
      <trkpt lat="42.5206506438553333282470703125" lon="19.9484599940478801727294921875">
        <ele>1823</ele>
        <time>2026-06-17T09:22:40.000Z</time>
        <extensions>
          <ns3:TrackPointExtension>
            <ns3:atemp>19.0</ns3:atemp>
          </ns3:TrackPointExtension>
        </extensions>
      </trkpt>
      <trkpt lat="42.5206506438553333282470703125" lon="19.9484599940478801727294921875">
        <ele>1823</ele>
        <time>2026-06-17T09:22:41.000Z</time>
        <extensions>
          <ns3:TrackPointExtension>
            <ns3:atemp>19.0</ns3:atemp>
          </ns3:TrackPointExtension>
        </extensions>
      </trkpt>
      <trkpt lat="42.5206506438553333282470703125" lon="19.9484599940478801727294921875">
        <ele>1823</ele>
        <time>2026-06-17T09:22:42.000Z</time>
        <extensions>
          <ns3:TrackPointExtension>
            <ns3:atemp>19.0</ns3:atemp>
          </ns3:TrackPointExtension>
        </extensions>
      </trkpt>
      <trkpt lat="42.5206506438553333282470703125" lon="19.9484599940478801727294921875">
        <ele>1823</ele>
        <time>2026-06-17T09:22:43.000Z</time>
        <extensions>
          <ns3:TrackPointExtension>
            <ns3:atemp>19.0</ns3:atemp>
          </ns3:TrackPointExtension>
        </extensions>
      </trkpt>
      <trkpt lat="42.5206506438553333282470703125" lon="19.9484599940478801727294921875">
        <ele>1823</ele>
        <time>2026-06-17T09:22:44.000Z</time>
        <extensions>
          <ns3:TrackPointExtension>
            <ns3:atemp>19.0</ns3:atemp>
          </ns3:TrackPointExtension>
        </extensions>
      </trkpt>
      <trkpt lat="42.5206506438553333282470703125" lon="19.9484599940478801727294921875">
        <ele>1823</ele>
        <time>2026-06-17T09:22:45.000Z</time>
        <extensions>
          <ns3:TrackPointExtension>
            <ns3:atemp>19.0</ns3:atemp>
          </ns3:TrackPointExtension>
        </extensions>
      </trkpt>
      <trkpt lat="42.5206506438553333282470703125" lon="19.9484599940478801727294921875">
        <ele>1823</ele>
        <time>2026-06-17T09:22:46.000Z</time>
        <extensions>
          <ns3:TrackPointExtension>
            <ns3:atemp>19.0</ns3:atemp>
          </ns3:TrackPointExtension>
        </extensions>
      </trkpt>
      <trkpt lat="42.5206506438553333282470703125" lon="19.9484599940478801727294921875">
        <ele>1823</ele>
        <time>2026-06-17T09:22:47.000Z</time>
        <extensions>
          <ns3:TrackPointExtension>
            <ns3:atemp>19.0</ns3:atemp>
          </ns3:TrackPointExtension>
        </extensions>
      </trkpt>
      <trkpt lat="42.5206506438553333282470703125" lon="19.9484599940478801727294921875">
        <ele>1823</ele>
        <time>2026-06-17T09:22:48.000Z</time>
        <extensions>
          <ns3:TrackPointExtension>
            <ns3:atemp>19.0</ns3:atemp>
          </ns3:TrackPointExtension>
        </extensions>
      </trkpt>
      <trkpt lat="42.5206506438553333282470703125" lon="19.9484599940478801727294921875">
        <ele>1823</ele>
        <time>2026-06-17T09:22:49.000Z</time>
        <extensions>
          <ns3:TrackPointExtension>
            <ns3:atemp>19.0</ns3:atemp>
          </ns3:TrackPointExtension>
        </extensions>
      </trkpt>
      <trkpt lat="42.5206506438553333282470703125" lon="19.9484599940478801727294921875">
        <ele>1823</ele>
        <time>2026-06-17T09:22:50.000Z</time>
        <extensions>
          <ns3:TrackPointExtension>
            <ns3:atemp>19.0</ns3:atemp>
          </ns3:TrackPointExtension>
        </extensions>
      </trkpt>
      <trkpt lat="42.5206506438553333282470703125" lon="19.9484599940478801727294921875">
        <ele>1823</ele>
        <time>2026-06-17T09:22:51.000Z</time>
        <extensions>
          <ns3:TrackPointExtension>
            <ns3:atemp>19.0</ns3:atemp>
          </ns3:TrackPointExtension>
        </extensions>
      </trkpt>
      <trkpt lat="42.5206506438553333282470703125" lon="19.9484599940478801727294921875">
        <ele>1823</ele>
        <time>2026-06-17T09:22:52.000Z</time>
        <extensions>
          <ns3:TrackPointExtension>
            <ns3:atemp>19.0</ns3:atemp>
          </ns3:TrackPointExtension>
        </extensions>
      </trkpt>
      <trkpt lat="42.5206506438553333282470703125" lon="19.9484599940478801727294921875">
        <ele>1823</ele>
        <time>2026-06-17T09:22:53.000Z</time>
        <extensions>
          <ns3:TrackPointExtension>
            <ns3:atemp>19.0</ns3:atemp>
          </ns3:TrackPointExtension>
        </extensions>
      </trkpt>
      <trkpt lat="42.5206506438553333282470703125" lon="19.9484599940478801727294921875">
        <ele>1823</ele>
        <time>2026-06-17T09:22:54.000Z</time>
        <extensions>
          <ns3:TrackPointExtension>
            <ns3:atemp>19.0</ns3:atemp>
          </ns3:TrackPointExtension>
        </extensions>
      </trkpt>
      <trkpt lat="42.5206506438553333282470703125" lon="19.9484599940478801727294921875">
        <ele>1823</ele>
        <time>2026-06-17T09:22:55.000Z</time>
        <extensions>
          <ns3:TrackPointExtension>
            <ns3:atemp>19.0</ns3:atemp>
          </ns3:TrackPointExtension>
        </extensions>
      </trkpt>
      <trkpt lat="42.5206506438553333282470703125" lon="19.9484599940478801727294921875">
        <ele>1823</ele>
        <time>2026-06-17T09:22:56.000Z</time>
        <extensions>
          <ns3:TrackPointExtension>
            <ns3:atemp>19.0</ns3:atemp>
          </ns3:TrackPointExtension>
        </extensions>
      </trkpt>
      <trkpt lat="42.5206506438553333282470703125" lon="19.9484599940478801727294921875">
        <ele>1823</ele>
        <time>2026-06-17T09:22:57.000Z</time>
        <extensions>
          <ns3:TrackPointExtension>
            <ns3:atemp>19.0</ns3:atemp>
          </ns3:TrackPointExtension>
        </extensions>
      </trkpt>
      <trkpt lat="42.5206506438553333282470703125" lon="19.9484599940478801727294921875">
        <ele>1823</ele>
        <time>2026-06-17T09:22:58.000Z</time>
        <extensions>
          <ns3:TrackPointExtension>
            <ns3:atemp>19.0</ns3:atemp>
          </ns3:TrackPointExtension>
        </extensions>
      </trkpt>
      <trkpt lat="42.5206506438553333282470703125" lon="19.9484599940478801727294921875">
        <ele>1823</ele>
        <time>2026-06-17T09:22:59.000Z</time>
        <extensions>
          <ns3:TrackPointExtension>
            <ns3:atemp>19.0</ns3:atemp>
          </ns3:TrackPointExtension>
        </extensions>
      </trkpt>
      <trkpt lat="42.5206506438553333282470703125" lon="19.9484599940478801727294921875">
        <ele>1823</ele>
        <time>2026-06-17T09:23:00.000Z</time>
        <extensions>
          <ns3:TrackPointExtension>
            <ns3:atemp>19.0</ns3:atemp>
          </ns3:TrackPointExtension>
        </extensions>
      </trkpt>
      <trkpt lat="42.5206506438553333282470703125" lon="19.9484599940478801727294921875">
        <ele>1823</ele>
        <time>2026-06-17T09:23:01.000Z</time>
        <extensions>
          <ns3:TrackPointExtension>
            <ns3:atemp>19.0</ns3:atemp>
          </ns3:TrackPointExtension>
        </extensions>
      </trkpt>
      <trkpt lat="42.5206506438553333282470703125" lon="19.9484599940478801727294921875">
        <ele>1823</ele>
        <time>2026-06-17T09:23:02.000Z</time>
        <extensions>
          <ns3:TrackPointExtension>
            <ns3:atemp>19.0</ns3:atemp>
          </ns3:TrackPointExtension>
        </extensions>
      </trkpt>
      <trkpt lat="42.5206506438553333282470703125" lon="19.9484599940478801727294921875">
        <ele>1823</ele>
        <time>2026-06-17T09:23:03.000Z</time>
        <extensions>
          <ns3:TrackPointExtension>
            <ns3:atemp>19.0</ns3:atemp>
          </ns3:TrackPointExtension>
        </extensions>
      </trkpt>
      <trkpt lat="42.5206506438553333282470703125" lon="19.9484599940478801727294921875">
        <ele>1823</ele>
        <time>2026-06-17T09:23:04.000Z</time>
        <extensions>
          <ns3:TrackPointExtension>
            <ns3:atemp>19.0</ns3:atemp>
          </ns3:TrackPointExtension>
        </extensions>
      </trkpt>
      <trkpt lat="42.5206506438553333282470703125" lon="19.9484599940478801727294921875">
        <ele>1823</ele>
        <time>2026-06-17T09:23:05.000Z</time>
        <extensions>
          <ns3:TrackPointExtension>
            <ns3:atemp>19.0</ns3:atemp>
          </ns3:TrackPointExtension>
        </extensions>
      </trkpt>
      <trkpt lat="42.5206506438553333282470703125" lon="19.9484599940478801727294921875">
        <ele>1823</ele>
        <time>2026-06-17T09:23:06.000Z</time>
        <extensions>
          <ns3:TrackPointExtension>
            <ns3:atemp>19.0</ns3:atemp>
          </ns3:TrackPointExtension>
        </extensions>
      </trkpt>
      <trkpt lat="42.5206506438553333282470703125" lon="19.9484599940478801727294921875">
        <ele>1823</ele>
        <time>2026-06-17T09:23:07.000Z</time>
        <extensions>
          <ns3:TrackPointExtension>
            <ns3:atemp>19.0</ns3:atemp>
          </ns3:TrackPointExtension>
        </extensions>
      </trkpt>
      <trkpt lat="42.5206506438553333282470703125" lon="19.9484599940478801727294921875">
        <ele>1823</ele>
        <time>2026-06-17T09:23:08.000Z</time>
        <extensions>
          <ns3:TrackPointExtension>
            <ns3:atemp>19.0</ns3:atemp>
          </ns3:TrackPointExtension>
        </extensions>
      </trkpt>
      <trkpt lat="42.5206506438553333282470703125" lon="19.9484599940478801727294921875">
        <ele>1823</ele>
        <time>2026-06-17T09:23:09.000Z</time>
        <extensions>
          <ns3:TrackPointExtension>
            <ns3:atemp>19.0</ns3:atemp>
          </ns3:TrackPointExtension>
        </extensions>
      </trkpt>
      <trkpt lat="42.5206506438553333282470703125" lon="19.9484599940478801727294921875">
        <ele>1823</ele>
        <time>2026-06-17T09:23:10.000Z</time>
        <extensions>
          <ns3:TrackPointExtension>
            <ns3:atemp>19.0</ns3:atemp>
          </ns3:TrackPointExtension>
        </extensions>
      </trkpt>
      <trkpt lat="42.5206506438553333282470703125" lon="19.9484599940478801727294921875">
        <ele>1823</ele>
        <time>2026-06-17T09:23:11.000Z</time>
        <extensions>
          <ns3:TrackPointExtension>
            <ns3:atemp>19.0</ns3:atemp>
          </ns3:TrackPointExtension>
        </extensions>
      </trkpt>
      <trkpt lat="42.5206506438553333282470703125" lon="19.9484599940478801727294921875">
        <ele>1823</ele>
        <time>2026-06-17T09:23:12.000Z</time>
        <extensions>
          <ns3:TrackPointExtension>
            <ns3:atemp>19.0</ns3:atemp>
          </ns3:TrackPointExtension>
        </extensions>
      </trkpt>
      <trkpt lat="42.5206506438553333282470703125" lon="19.9484599940478801727294921875">
        <ele>1823</ele>
        <time>2026-06-17T09:23:13.000Z</time>
        <extensions>
          <ns3:TrackPointExtension>
            <ns3:atemp>19.0</ns3:atemp>
          </ns3:TrackPointExtension>
        </extensions>
      </trkpt>
      <trkpt lat="42.5206506438553333282470703125" lon="19.9484599940478801727294921875">
        <ele>1823</ele>
        <time>2026-06-17T09:23:14.000Z</time>
        <extensions>
          <ns3:TrackPointExtension>
            <ns3:atemp>19.0</ns3:atemp>
          </ns3:TrackPointExtension>
        </extensions>
      </trkpt>
      <trkpt lat="42.5206506438553333282470703125" lon="19.9484599940478801727294921875">
        <ele>1823</ele>
        <time>2026-06-17T09:23:15.000Z</time>
        <extensions>
          <ns3:TrackPointExtension>
            <ns3:atemp>19.0</ns3:atemp>
          </ns3:TrackPointExtension>
        </extensions>
      </trkpt>
      <trkpt lat="42.5206506438553333282470703125" lon="19.9484599940478801727294921875">
        <ele>1823</ele>
        <time>2026-06-17T09:23:16.000Z</time>
        <extensions>
          <ns3:TrackPointExtension>
            <ns3:atemp>19.0</ns3:atemp>
          </ns3:TrackPointExtension>
        </extensions>
      </trkpt>
      <trkpt lat="42.5206506438553333282470703125" lon="19.9484599940478801727294921875">
        <ele>1823</ele>
        <time>2026-06-17T09:23:17.000Z</time>
        <extensions>
          <ns3:TrackPointExtension>
            <ns3:atemp>19.0</ns3:atemp>
          </ns3:TrackPointExtension>
        </extensions>
      </trkpt>
      <trkpt lat="42.5206506438553333282470703125" lon="19.9484599940478801727294921875">
        <ele>1823</ele>
        <time>2026-06-17T09:23:18.000Z</time>
        <extensions>
          <ns3:TrackPointExtension>
            <ns3:atemp>19.0</ns3:atemp>
          </ns3:TrackPointExtension>
        </extensions>
      </trkpt>
      <trkpt lat="42.5206506438553333282470703125" lon="19.9484599940478801727294921875">
        <ele>1823</ele>
        <time>2026-06-17T09:23:19.000Z</time>
        <extensions>
          <ns3:TrackPointExtension>
            <ns3:atemp>19.0</ns3:atemp>
          </ns3:TrackPointExtension>
        </extensions>
      </trkpt>
      <trkpt lat="42.5206506438553333282470703125" lon="19.9484599940478801727294921875">
        <ele>1823</ele>
        <time>2026-06-17T09:23:20.000Z</time>
        <extensions>
          <ns3:TrackPointExtension>
            <ns3:atemp>19.0</ns3:atemp>
          </ns3:TrackPointExtension>
        </extensions>
      </trkpt>
      <trkpt lat="42.5206506438553333282470703125" lon="19.9484599940478801727294921875">
        <ele>1823</ele>
        <time>2026-06-17T09:23:21.000Z</time>
        <extensions>
          <ns3:TrackPointExtension>
            <ns3:atemp>19.0</ns3:atemp>
          </ns3:TrackPointExtension>
        </extensions>
      </trkpt>
      <trkpt lat="42.5206506438553333282470703125" lon="19.9484599940478801727294921875">
        <ele>1823</ele>
        <time>2026-06-17T09:23:22.000Z</time>
        <extensions>
          <ns3:TrackPointExtension>
            <ns3:atemp>19.0</ns3:atemp>
          </ns3:TrackPointExtension>
        </extensions>
      </trkpt>
      <trkpt lat="42.5206506438553333282470703125" lon="19.9484599940478801727294921875">
        <ele>1823</ele>
        <time>2026-06-17T09:23:23.000Z</time>
        <extensions>
          <ns3:TrackPointExtension>
            <ns3:atemp>19.0</ns3:atemp>
          </ns3:TrackPointExtension>
        </extensions>
      </trkpt>
      <trkpt lat="42.5206506438553333282470703125" lon="19.9484599940478801727294921875">
        <ele>1823</ele>
        <time>2026-06-17T09:23:24.000Z</time>
        <extensions>
          <ns3:TrackPointExtension>
            <ns3:atemp>19.0</ns3:atemp>
          </ns3:TrackPointExtension>
        </extensions>
      </trkpt>
      <trkpt lat="42.5206506438553333282470703125" lon="19.9484599940478801727294921875">
        <ele>1823</ele>
        <time>2026-06-17T09:23:25.000Z</time>
        <extensions>
          <ns3:TrackPointExtension>
            <ns3:atemp>19.0</ns3:atemp>
          </ns3:TrackPointExtension>
        </extensions>
      </trkpt>
      <trkpt lat="42.5206506438553333282470703125" lon="19.9484599940478801727294921875">
        <ele>1823</ele>
        <time>2026-06-17T09:23:26.000Z</time>
        <extensions>
          <ns3:TrackPointExtension>
            <ns3:atemp>19.0</ns3:atemp>
          </ns3:TrackPointExtension>
        </extensions>
      </trkpt>
      <trkpt lat="42.5206506438553333282470703125" lon="19.9484599940478801727294921875">
        <ele>1823</ele>
        <time>2026-06-17T09:23:27.000Z</time>
        <extensions>
          <ns3:TrackPointExtension>
            <ns3:atemp>19.0</ns3:atemp>
          </ns3:TrackPointExtension>
        </extensions>
      </trkpt>
      <trkpt lat="42.5206506438553333282470703125" lon="19.9484599940478801727294921875">
        <ele>1823</ele>
        <time>2026-06-17T09:23:28.000Z</time>
        <extensions>
          <ns3:TrackPointExtension>
            <ns3:atemp>19.0</ns3:atemp>
          </ns3:TrackPointExtension>
        </extensions>
      </trkpt>
      <trkpt lat="42.5206506438553333282470703125" lon="19.9484599940478801727294921875">
        <ele>1823</ele>
        <time>2026-06-17T09:23:29.000Z</time>
        <extensions>
          <ns3:TrackPointExtension>
            <ns3:atemp>19.0</ns3:atemp>
          </ns3:TrackPointExtension>
        </extensions>
      </trkpt>
      <trkpt lat="42.5206506438553333282470703125" lon="19.9484599940478801727294921875">
        <ele>1823</ele>
        <time>2026-06-17T09:23:30.000Z</time>
        <extensions>
          <ns3:TrackPointExtension>
            <ns3:atemp>19.0</ns3:atemp>
          </ns3:TrackPointExtension>
        </extensions>
      </trkpt>
      <trkpt lat="42.5206506438553333282470703125" lon="19.9484599940478801727294921875">
        <ele>1823</ele>
        <time>2026-06-17T09:23:31.000Z</time>
        <extensions>
          <ns3:TrackPointExtension>
            <ns3:atemp>19.0</ns3:atemp>
          </ns3:TrackPointExtension>
        </extensions>
      </trkpt>
      <trkpt lat="42.5206506438553333282470703125" lon="19.9484599940478801727294921875">
        <ele>1823</ele>
        <time>2026-06-17T09:23:32.000Z</time>
        <extensions>
          <ns3:TrackPointExtension>
            <ns3:atemp>19.0</ns3:atemp>
          </ns3:TrackPointExtension>
        </extensions>
      </trkpt>
      <trkpt lat="42.5206506438553333282470703125" lon="19.9484599940478801727294921875">
        <ele>1823</ele>
        <time>2026-06-17T09:23:33.000Z</time>
        <extensions>
          <ns3:TrackPointExtension>
            <ns3:atemp>19.0</ns3:atemp>
          </ns3:TrackPointExtension>
        </extensions>
      </trkpt>
      <trkpt lat="42.5206506438553333282470703125" lon="19.9484599940478801727294921875">
        <ele>1823</ele>
        <time>2026-06-17T09:23:34.000Z</time>
        <extensions>
          <ns3:TrackPointExtension>
            <ns3:atemp>19.0</ns3:atemp>
          </ns3:TrackPointExtension>
        </extensions>
      </trkpt>
      <trkpt lat="42.5206506438553333282470703125" lon="19.9484599940478801727294921875">
        <ele>1823</ele>
        <time>2026-06-17T09:23:35.000Z</time>
        <extensions>
          <ns3:TrackPointExtension>
            <ns3:atemp>19.0</ns3:atemp>
          </ns3:TrackPointExtension>
        </extensions>
      </trkpt>
      <trkpt lat="42.5206506438553333282470703125" lon="19.9484599940478801727294921875">
        <ele>1823</ele>
        <time>2026-06-17T09:23:36.000Z</time>
        <extensions>
          <ns3:TrackPointExtension>
            <ns3:atemp>19.0</ns3:atemp>
          </ns3:TrackPointExtension>
        </extensions>
      </trkpt>
      <trkpt lat="42.5206506438553333282470703125" lon="19.9484599940478801727294921875">
        <ele>1823</ele>
        <time>2026-06-17T09:23:37.000Z</time>
        <extensions>
          <ns3:TrackPointExtension>
            <ns3:atemp>19.0</ns3:atemp>
          </ns3:TrackPointExtension>
        </extensions>
      </trkpt>
      <trkpt lat="42.5206506438553333282470703125" lon="19.9484599940478801727294921875">
        <ele>1823</ele>
        <time>2026-06-17T09:23:38.000Z</time>
        <extensions>
          <ns3:TrackPointExtension>
            <ns3:atemp>19.0</ns3:atemp>
          </ns3:TrackPointExtension>
        </extensions>
      </trkpt>
      <trkpt lat="42.5206506438553333282470703125" lon="19.9484599940478801727294921875">
        <ele>1823</ele>
        <time>2026-06-17T09:23:39.000Z</time>
        <extensions>
          <ns3:TrackPointExtension>
            <ns3:atemp>19.0</ns3:atemp>
          </ns3:TrackPointExtension>
        </extensions>
      </trkpt>
      <trkpt lat="42.5206506438553333282470703125" lon="19.9484599940478801727294921875">
        <ele>1823</ele>
        <time>2026-06-17T09:23:40.000Z</time>
        <extensions>
          <ns3:TrackPointExtension>
            <ns3:atemp>19.0</ns3:atemp>
          </ns3:TrackPointExtension>
        </extensions>
      </trkpt>
      <trkpt lat="42.5206506438553333282470703125" lon="19.9484599940478801727294921875">
        <ele>1823</ele>
        <time>2026-06-17T09:23:41.000Z</time>
        <extensions>
          <ns3:TrackPointExtension>
            <ns3:atemp>19.0</ns3:atemp>
          </ns3:TrackPointExtension>
        </extensions>
      </trkpt>
      <trkpt lat="42.5206506438553333282470703125" lon="19.9484599940478801727294921875">
        <ele>1823</ele>
        <time>2026-06-17T09:23:42.000Z</time>
        <extensions>
          <ns3:TrackPointExtension>
            <ns3:atemp>19.0</ns3:atemp>
          </ns3:TrackPointExtension>
        </extensions>
      </trkpt>
      <trkpt lat="42.5206506438553333282470703125" lon="19.9484599940478801727294921875">
        <ele>1823</ele>
        <time>2026-06-17T09:23:43.000Z</time>
        <extensions>
          <ns3:TrackPointExtension>
            <ns3:atemp>19.0</ns3:atemp>
          </ns3:TrackPointExtension>
        </extensions>
      </trkpt>
      <trkpt lat="42.5206506438553333282470703125" lon="19.9484599940478801727294921875">
        <ele>1823</ele>
        <time>2026-06-17T09:23:44.000Z</time>
        <extensions>
          <ns3:TrackPointExtension>
            <ns3:atemp>19.0</ns3:atemp>
          </ns3:TrackPointExtension>
        </extensions>
      </trkpt>
      <trkpt lat="42.5206506438553333282470703125" lon="19.9484599940478801727294921875">
        <ele>1823</ele>
        <time>2026-06-17T09:23:45.000Z</time>
        <extensions>
          <ns3:TrackPointExtension>
            <ns3:atemp>19.0</ns3:atemp>
          </ns3:TrackPointExtension>
        </extensions>
      </trkpt>
      <trkpt lat="42.5206506438553333282470703125" lon="19.9484599940478801727294921875">
        <ele>1823</ele>
        <time>2026-06-17T09:23:46.000Z</time>
        <extensions>
          <ns3:TrackPointExtension>
            <ns3:atemp>19.0</ns3:atemp>
          </ns3:TrackPointExtension>
        </extensions>
      </trkpt>
      <trkpt lat="42.5206506438553333282470703125" lon="19.9484599940478801727294921875">
        <ele>1823</ele>
        <time>2026-06-17T09:23:47.000Z</time>
        <extensions>
          <ns3:TrackPointExtension>
            <ns3:atemp>19.0</ns3:atemp>
          </ns3:TrackPointExtension>
        </extensions>
      </trkpt>
      <trkpt lat="42.5206506438553333282470703125" lon="19.9484599940478801727294921875">
        <ele>1823</ele>
        <time>2026-06-17T09:23:48.000Z</time>
        <extensions>
          <ns3:TrackPointExtension>
            <ns3:atemp>19.0</ns3:atemp>
          </ns3:TrackPointExtension>
        </extensions>
      </trkpt>
      <trkpt lat="42.5206506438553333282470703125" lon="19.9484599940478801727294921875">
        <ele>1823</ele>
        <time>2026-06-17T09:23:49.000Z</time>
        <extensions>
          <ns3:TrackPointExtension>
            <ns3:atemp>19.0</ns3:atemp>
          </ns3:TrackPointExtension>
        </extensions>
      </trkpt>
      <trkpt lat="42.5206506438553333282470703125" lon="19.9484599940478801727294921875">
        <ele>1823</ele>
        <time>2026-06-17T09:23:50.000Z</time>
        <extensions>
          <ns3:TrackPointExtension>
            <ns3:atemp>19.0</ns3:atemp>
          </ns3:TrackPointExtension>
        </extensions>
      </trkpt>
      <trkpt lat="42.5206506438553333282470703125" lon="19.9484599940478801727294921875">
        <ele>1823</ele>
        <time>2026-06-17T09:23:51.000Z</time>
        <extensions>
          <ns3:TrackPointExtension>
            <ns3:atemp>19.0</ns3:atemp>
          </ns3:TrackPointExtension>
        </extensions>
      </trkpt>
      <trkpt lat="42.5206506438553333282470703125" lon="19.9484599940478801727294921875">
        <ele>1823</ele>
        <time>2026-06-17T09:23:52.000Z</time>
        <extensions>
          <ns3:TrackPointExtension>
            <ns3:atemp>19.0</ns3:atemp>
          </ns3:TrackPointExtension>
        </extensions>
      </trkpt>
      <trkpt lat="42.5206506438553333282470703125" lon="19.9484599940478801727294921875">
        <ele>1823</ele>
        <time>2026-06-17T09:23:53.000Z</time>
        <extensions>
          <ns3:TrackPointExtension>
            <ns3:atemp>19.0</ns3:atemp>
          </ns3:TrackPointExtension>
        </extensions>
      </trkpt>
      <trkpt lat="42.5206506438553333282470703125" lon="19.9484599940478801727294921875">
        <ele>1823</ele>
        <time>2026-06-17T09:23:54.000Z</time>
        <extensions>
          <ns3:TrackPointExtension>
            <ns3:atemp>19.0</ns3:atemp>
          </ns3:TrackPointExtension>
        </extensions>
      </trkpt>
      <trkpt lat="42.5206506438553333282470703125" lon="19.9484599940478801727294921875">
        <ele>1823</ele>
        <time>2026-06-17T09:23:55.000Z</time>
        <extensions>
          <ns3:TrackPointExtension>
            <ns3:atemp>19.0</ns3:atemp>
          </ns3:TrackPointExtension>
        </extensions>
      </trkpt>
      <trkpt lat="42.5206506438553333282470703125" lon="19.9484599940478801727294921875">
        <ele>1823</ele>
        <time>2026-06-17T09:23:56.000Z</time>
        <extensions>
          <ns3:TrackPointExtension>
            <ns3:atemp>19.0</ns3:atemp>
          </ns3:TrackPointExtension>
        </extensions>
      </trkpt>
      <trkpt lat="42.5206506438553333282470703125" lon="19.9484599940478801727294921875">
        <ele>1823</ele>
        <time>2026-06-17T09:23:57.000Z</time>
        <extensions>
          <ns3:TrackPointExtension>
            <ns3:atemp>19.0</ns3:atemp>
          </ns3:TrackPointExtension>
        </extensions>
      </trkpt>
      <trkpt lat="42.5206506438553333282470703125" lon="19.9484599940478801727294921875">
        <ele>1823</ele>
        <time>2026-06-17T09:23:58.000Z</time>
        <extensions>
          <ns3:TrackPointExtension>
            <ns3:atemp>19.0</ns3:atemp>
          </ns3:TrackPointExtension>
        </extensions>
      </trkpt>
      <trkpt lat="42.5206506438553333282470703125" lon="19.9484599940478801727294921875">
        <ele>1823</ele>
        <time>2026-06-17T09:23:59.000Z</time>
        <extensions>
          <ns3:TrackPointExtension>
            <ns3:atemp>19.0</ns3:atemp>
          </ns3:TrackPointExtension>
        </extensions>
      </trkpt>
      <trkpt lat="42.5206506438553333282470703125" lon="19.9484599940478801727294921875">
        <ele>1823</ele>
        <time>2026-06-17T09:24:00.000Z</time>
        <extensions>
          <ns3:TrackPointExtension>
            <ns3:atemp>19.0</ns3:atemp>
          </ns3:TrackPointExtension>
        </extensions>
      </trkpt>
      <trkpt lat="42.5206506438553333282470703125" lon="19.9484599940478801727294921875">
        <ele>1823</ele>
        <time>2026-06-17T09:24:01.000Z</time>
        <extensions>
          <ns3:TrackPointExtension>
            <ns3:atemp>19.0</ns3:atemp>
          </ns3:TrackPointExtension>
        </extensions>
      </trkpt>
      <trkpt lat="42.5206506438553333282470703125" lon="19.9484599940478801727294921875">
        <ele>1823</ele>
        <time>2026-06-17T09:24:02.000Z</time>
        <extensions>
          <ns3:TrackPointExtension>
            <ns3:atemp>19.0</ns3:atemp>
          </ns3:TrackPointExtension>
        </extensions>
      </trkpt>
      <trkpt lat="42.5206506438553333282470703125" lon="19.9484599940478801727294921875">
        <ele>1823</ele>
        <time>2026-06-17T09:24:03.000Z</time>
        <extensions>
          <ns3:TrackPointExtension>
            <ns3:atemp>19.0</ns3:atemp>
          </ns3:TrackPointExtension>
        </extensions>
      </trkpt>
      <trkpt lat="42.5206506438553333282470703125" lon="19.9484599940478801727294921875">
        <ele>1823</ele>
        <time>2026-06-17T09:24:04.000Z</time>
        <extensions>
          <ns3:TrackPointExtension>
            <ns3:atemp>19.0</ns3:atemp>
          </ns3:TrackPointExtension>
        </extensions>
      </trkpt>
      <trkpt lat="42.5206506438553333282470703125" lon="19.9484599940478801727294921875">
        <ele>1823</ele>
        <time>2026-06-17T09:24:05.000Z</time>
        <extensions>
          <ns3:TrackPointExtension>
            <ns3:atemp>19.0</ns3:atemp>
          </ns3:TrackPointExtension>
        </extensions>
      </trkpt>
      <trkpt lat="42.5206506438553333282470703125" lon="19.9484599940478801727294921875">
        <ele>1823</ele>
        <time>2026-06-17T09:24:06.000Z</time>
        <extensions>
          <ns3:TrackPointExtension>
            <ns3:atemp>19.0</ns3:atemp>
          </ns3:TrackPointExtension>
        </extensions>
      </trkpt>
      <trkpt lat="42.5206506438553333282470703125" lon="19.9484599940478801727294921875">
        <ele>1823</ele>
        <time>2026-06-17T09:24:07.000Z</time>
        <extensions>
          <ns3:TrackPointExtension>
            <ns3:atemp>19.0</ns3:atemp>
          </ns3:TrackPointExtension>
        </extensions>
      </trkpt>
      <trkpt lat="42.5206506438553333282470703125" lon="19.9484599940478801727294921875">
        <ele>1823</ele>
        <time>2026-06-17T09:24:08.000Z</time>
        <extensions>
          <ns3:TrackPointExtension>
            <ns3:atemp>19.0</ns3:atemp>
          </ns3:TrackPointExtension>
        </extensions>
      </trkpt>
      <trkpt lat="42.5206506438553333282470703125" lon="19.9484599940478801727294921875">
        <ele>1823</ele>
        <time>2026-06-17T09:24:09.000Z</time>
        <extensions>
          <ns3:TrackPointExtension>
            <ns3:atemp>19.0</ns3:atemp>
          </ns3:TrackPointExtension>
        </extensions>
      </trkpt>
      <trkpt lat="42.5206506438553333282470703125" lon="19.9484599940478801727294921875">
        <ele>1823</ele>
        <time>2026-06-17T09:24:10.000Z</time>
        <extensions>
          <ns3:TrackPointExtension>
            <ns3:atemp>19.0</ns3:atemp>
          </ns3:TrackPointExtension>
        </extensions>
      </trkpt>
      <trkpt lat="42.5206506438553333282470703125" lon="19.9484599940478801727294921875">
        <ele>1823</ele>
        <time>2026-06-17T09:24:11.000Z</time>
        <extensions>
          <ns3:TrackPointExtension>
            <ns3:atemp>19.0</ns3:atemp>
          </ns3:TrackPointExtension>
        </extensions>
      </trkpt>
      <trkpt lat="42.5206506438553333282470703125" lon="19.9484599940478801727294921875">
        <ele>1823</ele>
        <time>2026-06-17T09:24:12.000Z</time>
        <extensions>
          <ns3:TrackPointExtension>
            <ns3:atemp>19.0</ns3:atemp>
          </ns3:TrackPointExtension>
        </extensions>
      </trkpt>
      <trkpt lat="42.5206506438553333282470703125" lon="19.9484599940478801727294921875">
        <ele>1823</ele>
        <time>2026-06-17T09:24:13.000Z</time>
        <extensions>
          <ns3:TrackPointExtension>
            <ns3:atemp>19.0</ns3:atemp>
          </ns3:TrackPointExtension>
        </extensions>
      </trkpt>
      <trkpt lat="42.5206506438553333282470703125" lon="19.9484599940478801727294921875">
        <ele>1823</ele>
        <time>2026-06-17T09:24:14.000Z</time>
        <extensions>
          <ns3:TrackPointExtension>
            <ns3:atemp>19.0</ns3:atemp>
          </ns3:TrackPointExtension>
        </extensions>
      </trkpt>
      <trkpt lat="42.5206506438553333282470703125" lon="19.9484599940478801727294921875">
        <ele>1823</ele>
        <time>2026-06-17T09:24:15.000Z</time>
        <extensions>
          <ns3:TrackPointExtension>
            <ns3:atemp>19.0</ns3:atemp>
          </ns3:TrackPointExtension>
        </extensions>
      </trkpt>
      <trkpt lat="42.5206506438553333282470703125" lon="19.9484599940478801727294921875">
        <ele>1823</ele>
        <time>2026-06-17T09:24:16.000Z</time>
        <extensions>
          <ns3:TrackPointExtension>
            <ns3:atemp>19.0</ns3:atemp>
          </ns3:TrackPointExtension>
        </extensions>
      </trkpt>
      <trkpt lat="42.5206506438553333282470703125" lon="19.9484599940478801727294921875">
        <ele>1823</ele>
        <time>2026-06-17T09:24:17.000Z</time>
        <extensions>
          <ns3:TrackPointExtension>
            <ns3:atemp>19.0</ns3:atemp>
          </ns3:TrackPointExtension>
        </extensions>
      </trkpt>
      <trkpt lat="42.5206506438553333282470703125" lon="19.9484599940478801727294921875">
        <ele>1823</ele>
        <time>2026-06-17T09:24:18.000Z</time>
        <extensions>
          <ns3:TrackPointExtension>
            <ns3:atemp>19.0</ns3:atemp>
          </ns3:TrackPointExtension>
        </extensions>
      </trkpt>
      <trkpt lat="42.5206506438553333282470703125" lon="19.9484599940478801727294921875">
        <ele>1823</ele>
        <time>2026-06-17T09:24:19.000Z</time>
        <extensions>
          <ns3:TrackPointExtension>
            <ns3:atemp>19.0</ns3:atemp>
          </ns3:TrackPointExtension>
        </extensions>
      </trkpt>
      <trkpt lat="42.5206506438553333282470703125" lon="19.9484599940478801727294921875">
        <ele>1823</ele>
        <time>2026-06-17T09:24:20.000Z</time>
        <extensions>
          <ns3:TrackPointExtension>
            <ns3:atemp>19.0</ns3:atemp>
          </ns3:TrackPointExtension>
        </extensions>
      </trkpt>
      <trkpt lat="42.5206506438553333282470703125" lon="19.9484599940478801727294921875">
        <ele>1823</ele>
        <time>2026-06-17T09:24:21.000Z</time>
        <extensions>
          <ns3:TrackPointExtension>
            <ns3:atemp>19.0</ns3:atemp>
          </ns3:TrackPointExtension>
        </extensions>
      </trkpt>
      <trkpt lat="42.5206506438553333282470703125" lon="19.9484599940478801727294921875">
        <ele>1823</ele>
        <time>2026-06-17T09:24:22.000Z</time>
        <extensions>
          <ns3:TrackPointExtension>
            <ns3:atemp>19.0</ns3:atemp>
          </ns3:TrackPointExtension>
        </extensions>
      </trkpt>
      <trkpt lat="42.5206506438553333282470703125" lon="19.9484599940478801727294921875">
        <ele>1823</ele>
        <time>2026-06-17T09:24:23.000Z</time>
        <extensions>
          <ns3:TrackPointExtension>
            <ns3:atemp>19.0</ns3:atemp>
          </ns3:TrackPointExtension>
        </extensions>
      </trkpt>
      <trkpt lat="42.5206506438553333282470703125" lon="19.9484599940478801727294921875">
        <ele>1823</ele>
        <time>2026-06-17T09:24:24.000Z</time>
        <extensions>
          <ns3:TrackPointExtension>
            <ns3:atemp>19.0</ns3:atemp>
          </ns3:TrackPointExtension>
        </extensions>
      </trkpt>
      <trkpt lat="42.5206506438553333282470703125" lon="19.9484599940478801727294921875">
        <ele>1823</ele>
        <time>2026-06-17T09:24:25.000Z</time>
        <extensions>
          <ns3:TrackPointExtension>
            <ns3:atemp>19.0</ns3:atemp>
          </ns3:TrackPointExtension>
        </extensions>
      </trkpt>
      <trkpt lat="42.5206506438553333282470703125" lon="19.9484599940478801727294921875">
        <ele>1823</ele>
        <time>2026-06-17T09:24:26.000Z</time>
        <extensions>
          <ns3:TrackPointExtension>
            <ns3:atemp>19.0</ns3:atemp>
          </ns3:TrackPointExtension>
        </extensions>
      </trkpt>
      <trkpt lat="42.5206506438553333282470703125" lon="19.9484599940478801727294921875">
        <ele>1823</ele>
        <time>2026-06-17T09:24:27.000Z</time>
        <extensions>
          <ns3:TrackPointExtension>
            <ns3:atemp>19.0</ns3:atemp>
          </ns3:TrackPointExtension>
        </extensions>
      </trkpt>
      <trkpt lat="42.5206506438553333282470703125" lon="19.9484599940478801727294921875">
        <ele>1823</ele>
        <time>2026-06-17T09:24:28.000Z</time>
        <extensions>
          <ns3:TrackPointExtension>
            <ns3:atemp>19.0</ns3:atemp>
          </ns3:TrackPointExtension>
        </extensions>
      </trkpt>
      <trkpt lat="42.5206506438553333282470703125" lon="19.9484599940478801727294921875">
        <ele>1823</ele>
        <time>2026-06-17T09:24:29.000Z</time>
        <extensions>
          <ns3:TrackPointExtension>
            <ns3:atemp>19.0</ns3:atemp>
          </ns3:TrackPointExtension>
        </extensions>
      </trkpt>
      <trkpt lat="42.5206506438553333282470703125" lon="19.9484599940478801727294921875">
        <ele>1823</ele>
        <time>2026-06-17T09:24:30.000Z</time>
        <extensions>
          <ns3:TrackPointExtension>
            <ns3:atemp>19.0</ns3:atemp>
          </ns3:TrackPointExtension>
        </extensions>
      </trkpt>
      <trkpt lat="42.5206506438553333282470703125" lon="19.9484599940478801727294921875">
        <ele>1823</ele>
        <time>2026-06-17T09:24:31.000Z</time>
        <extensions>
          <ns3:TrackPointExtension>
            <ns3:atemp>19.0</ns3:atemp>
          </ns3:TrackPointExtension>
        </extensions>
      </trkpt>
      <trkpt lat="42.5206506438553333282470703125" lon="19.9484599940478801727294921875">
        <ele>1823</ele>
        <time>2026-06-17T09:24:32.000Z</time>
        <extensions>
          <ns3:TrackPointExtension>
            <ns3:atemp>19.0</ns3:atemp>
          </ns3:TrackPointExtension>
        </extensions>
      </trkpt>
      <trkpt lat="42.5206506438553333282470703125" lon="19.9484599940478801727294921875">
        <ele>1823</ele>
        <time>2026-06-17T09:24:33.000Z</time>
        <extensions>
          <ns3:TrackPointExtension>
            <ns3:atemp>19.0</ns3:atemp>
          </ns3:TrackPointExtension>
        </extensions>
      </trkpt>
      <trkpt lat="42.5206506438553333282470703125" lon="19.9484599940478801727294921875">
        <ele>1823</ele>
        <time>2026-06-17T09:24:34.000Z</time>
        <extensions>
          <ns3:TrackPointExtension>
            <ns3:atemp>19.0</ns3:atemp>
          </ns3:TrackPointExtension>
        </extensions>
      </trkpt>
      <trkpt lat="42.5206506438553333282470703125" lon="19.9484599940478801727294921875">
        <ele>1823</ele>
        <time>2026-06-17T09:24:35.000Z</time>
        <extensions>
          <ns3:TrackPointExtension>
            <ns3:atemp>19.0</ns3:atemp>
          </ns3:TrackPointExtension>
        </extensions>
      </trkpt>
      <trkpt lat="42.5206506438553333282470703125" lon="19.9484599940478801727294921875">
        <ele>1823</ele>
        <time>2026-06-17T09:24:36.000Z</time>
        <extensions>
          <ns3:TrackPointExtension>
            <ns3:atemp>19.0</ns3:atemp>
          </ns3:TrackPointExtension>
        </extensions>
      </trkpt>
      <trkpt lat="42.5206506438553333282470703125" lon="19.9484599940478801727294921875">
        <ele>1823</ele>
        <time>2026-06-17T09:24:37.000Z</time>
        <extensions>
          <ns3:TrackPointExtension>
            <ns3:atemp>19.0</ns3:atemp>
          </ns3:TrackPointExtension>
        </extensions>
      </trkpt>
      <trkpt lat="42.5206506438553333282470703125" lon="19.9484599940478801727294921875">
        <ele>1823</ele>
        <time>2026-06-17T09:24:38.000Z</time>
        <extensions>
          <ns3:TrackPointExtension>
            <ns3:atemp>19.0</ns3:atemp>
          </ns3:TrackPointExtension>
        </extensions>
      </trkpt>
      <trkpt lat="42.5206506438553333282470703125" lon="19.9484599940478801727294921875">
        <ele>1823</ele>
        <time>2026-06-17T09:24:39.000Z</time>
        <extensions>
          <ns3:TrackPointExtension>
            <ns3:atemp>19.0</ns3:atemp>
          </ns3:TrackPointExtension>
        </extensions>
      </trkpt>
      <trkpt lat="42.5206506438553333282470703125" lon="19.9484599940478801727294921875">
        <ele>1823</ele>
        <time>2026-06-17T09:24:40.000Z</time>
        <extensions>
          <ns3:TrackPointExtension>
            <ns3:atemp>19.0</ns3:atemp>
          </ns3:TrackPointExtension>
        </extensions>
      </trkpt>
      <trkpt lat="42.5206506438553333282470703125" lon="19.9484599940478801727294921875">
        <ele>1823</ele>
        <time>2026-06-17T09:24:41.000Z</time>
        <extensions>
          <ns3:TrackPointExtension>
            <ns3:atemp>19.0</ns3:atemp>
          </ns3:TrackPointExtension>
        </extensions>
      </trkpt>
      <trkpt lat="42.5206506438553333282470703125" lon="19.9484599940478801727294921875">
        <ele>1823</ele>
        <time>2026-06-17T09:24:42.000Z</time>
        <extensions>
          <ns3:TrackPointExtension>
            <ns3:atemp>19.0</ns3:atemp>
          </ns3:TrackPointExtension>
        </extensions>
      </trkpt>
      <trkpt lat="42.5206506438553333282470703125" lon="19.9484599940478801727294921875">
        <ele>1823</ele>
        <time>2026-06-17T09:24:43.000Z</time>
        <extensions>
          <ns3:TrackPointExtension>
            <ns3:atemp>19.0</ns3:atemp>
          </ns3:TrackPointExtension>
        </extensions>
      </trkpt>
      <trkpt lat="42.5206506438553333282470703125" lon="19.9484599940478801727294921875">
        <ele>1823</ele>
        <time>2026-06-17T09:24:44.000Z</time>
        <extensions>
          <ns3:TrackPointExtension>
            <ns3:atemp>19.0</ns3:atemp>
          </ns3:TrackPointExtension>
        </extensions>
      </trkpt>
      <trkpt lat="42.5206506438553333282470703125" lon="19.9484599940478801727294921875">
        <ele>1823</ele>
        <time>2026-06-17T09:24:45.000Z</time>
        <extensions>
          <ns3:TrackPointExtension>
            <ns3:atemp>19.0</ns3:atemp>
          </ns3:TrackPointExtension>
        </extensions>
      </trkpt>
      <trkpt lat="42.5206506438553333282470703125" lon="19.9484599940478801727294921875">
        <ele>1823</ele>
        <time>2026-06-17T09:24:46.000Z</time>
        <extensions>
          <ns3:TrackPointExtension>
            <ns3:atemp>19.0</ns3:atemp>
          </ns3:TrackPointExtension>
        </extensions>
      </trkpt>
      <trkpt lat="42.5206506438553333282470703125" lon="19.9484599940478801727294921875">
        <ele>1823</ele>
        <time>2026-06-17T09:24:47.000Z</time>
        <extensions>
          <ns3:TrackPointExtension>
            <ns3:atemp>19.0</ns3:atemp>
          </ns3:TrackPointExtension>
        </extensions>
      </trkpt>
      <trkpt lat="42.5206506438553333282470703125" lon="19.9484599940478801727294921875">
        <ele>1823</ele>
        <time>2026-06-17T09:24:48.000Z</time>
        <extensions>
          <ns3:TrackPointExtension>
            <ns3:atemp>19.0</ns3:atemp>
          </ns3:TrackPointExtension>
        </extensions>
      </trkpt>
      <trkpt lat="42.5206506438553333282470703125" lon="19.9484599940478801727294921875">
        <ele>1823</ele>
        <time>2026-06-17T09:24:49.000Z</time>
        <extensions>
          <ns3:TrackPointExtension>
            <ns3:atemp>19.0</ns3:atemp>
          </ns3:TrackPointExtension>
        </extensions>
      </trkpt>
      <trkpt lat="42.5206506438553333282470703125" lon="19.9484599940478801727294921875">
        <ele>1823</ele>
        <time>2026-06-17T09:24:50.000Z</time>
        <extensions>
          <ns3:TrackPointExtension>
            <ns3:atemp>19.0</ns3:atemp>
          </ns3:TrackPointExtension>
        </extensions>
      </trkpt>
      <trkpt lat="42.5206506438553333282470703125" lon="19.9484599940478801727294921875">
        <ele>1823</ele>
        <time>2026-06-17T09:24:51.000Z</time>
        <extensions>
          <ns3:TrackPointExtension>
            <ns3:atemp>19.0</ns3:atemp>
          </ns3:TrackPointExtension>
        </extensions>
      </trkpt>
      <trkpt lat="42.5206506438553333282470703125" lon="19.9484599940478801727294921875">
        <ele>1823</ele>
        <time>2026-06-17T09:24:52.000Z</time>
        <extensions>
          <ns3:TrackPointExtension>
            <ns3:atemp>19.0</ns3:atemp>
          </ns3:TrackPointExtension>
        </extensions>
      </trkpt>
      <trkpt lat="42.5206506438553333282470703125" lon="19.9484599940478801727294921875">
        <ele>1823</ele>
        <time>2026-06-17T09:24:53.000Z</time>
        <extensions>
          <ns3:TrackPointExtension>
            <ns3:atemp>19.0</ns3:atemp>
          </ns3:TrackPointExtension>
        </extensions>
      </trkpt>
      <trkpt lat="42.5206506438553333282470703125" lon="19.9484599940478801727294921875">
        <ele>1823</ele>
        <time>2026-06-17T09:24:54.000Z</time>
        <extensions>
          <ns3:TrackPointExtension>
            <ns3:atemp>19.0</ns3:atemp>
          </ns3:TrackPointExtension>
        </extensions>
      </trkpt>
      <trkpt lat="42.5206506438553333282470703125" lon="19.9484599940478801727294921875">
        <ele>1823</ele>
        <time>2026-06-17T09:24:55.000Z</time>
        <extensions>
          <ns3:TrackPointExtension>
            <ns3:atemp>19.0</ns3:atemp>
          </ns3:TrackPointExtension>
        </extensions>
      </trkpt>
      <trkpt lat="42.5206506438553333282470703125" lon="19.9484599940478801727294921875">
        <ele>1823</ele>
        <time>2026-06-17T09:24:56.000Z</time>
        <extensions>
          <ns3:TrackPointExtension>
            <ns3:atemp>19.0</ns3:atemp>
          </ns3:TrackPointExtension>
        </extensions>
      </trkpt>
      <trkpt lat="42.5206506438553333282470703125" lon="19.9484599940478801727294921875">
        <ele>1823</ele>
        <time>2026-06-17T09:24:57.000Z</time>
        <extensions>
          <ns3:TrackPointExtension>
            <ns3:atemp>19.0</ns3:atemp>
          </ns3:TrackPointExtension>
        </extensions>
      </trkpt>
      <trkpt lat="42.5206506438553333282470703125" lon="19.9484599940478801727294921875">
        <ele>1823</ele>
        <time>2026-06-17T09:24:58.000Z</time>
        <extensions>
          <ns3:TrackPointExtension>
            <ns3:atemp>19.0</ns3:atemp>
          </ns3:TrackPointExtension>
        </extensions>
      </trkpt>
      <trkpt lat="42.5206506438553333282470703125" lon="19.9484599940478801727294921875">
        <ele>1823</ele>
        <time>2026-06-17T09:24:59.000Z</time>
        <extensions>
          <ns3:TrackPointExtension>
            <ns3:atemp>19.0</ns3:atemp>
          </ns3:TrackPointExtension>
        </extensions>
      </trkpt>
      <trkpt lat="42.5206506438553333282470703125" lon="19.9484599940478801727294921875">
        <ele>1823</ele>
        <time>2026-06-17T09:25:00.000Z</time>
        <extensions>
          <ns3:TrackPointExtension>
            <ns3:atemp>19.0</ns3:atemp>
          </ns3:TrackPointExtension>
        </extensions>
      </trkpt>
      <trkpt lat="42.5206506438553333282470703125" lon="19.9484599940478801727294921875">
        <ele>1823</ele>
        <time>2026-06-17T09:25:01.000Z</time>
        <extensions>
          <ns3:TrackPointExtension>
            <ns3:atemp>19.0</ns3:atemp>
          </ns3:TrackPointExtension>
        </extensions>
      </trkpt>
      <trkpt lat="42.5206506438553333282470703125" lon="19.9484599940478801727294921875">
        <ele>1823</ele>
        <time>2026-06-17T09:25:02.000Z</time>
        <extensions>
          <ns3:TrackPointExtension>
            <ns3:atemp>19.0</ns3:atemp>
          </ns3:TrackPointExtension>
        </extensions>
      </trkpt>
      <trkpt lat="42.5206506438553333282470703125" lon="19.9484599940478801727294921875">
        <ele>1823</ele>
        <time>2026-06-17T09:25:03.000Z</time>
        <extensions>
          <ns3:TrackPointExtension>
            <ns3:atemp>19.0</ns3:atemp>
          </ns3:TrackPointExtension>
        </extensions>
      </trkpt>
      <trkpt lat="42.5206506438553333282470703125" lon="19.9484599940478801727294921875">
        <ele>1823</ele>
        <time>2026-06-17T09:25:04.000Z</time>
        <extensions>
          <ns3:TrackPointExtension>
            <ns3:atemp>19.0</ns3:atemp>
          </ns3:TrackPointExtension>
        </extensions>
      </trkpt>
      <trkpt lat="42.5206506438553333282470703125" lon="19.9484599940478801727294921875">
        <ele>1823</ele>
        <time>2026-06-17T09:25:05.000Z</time>
        <extensions>
          <ns3:TrackPointExtension>
            <ns3:atemp>19.0</ns3:atemp>
          </ns3:TrackPointExtension>
        </extensions>
      </trkpt>
      <trkpt lat="42.5206506438553333282470703125" lon="19.9484599940478801727294921875">
        <ele>1823</ele>
        <time>2026-06-17T09:25:06.000Z</time>
        <extensions>
          <ns3:TrackPointExtension>
            <ns3:atemp>19.0</ns3:atemp>
          </ns3:TrackPointExtension>
        </extensions>
      </trkpt>
      <trkpt lat="42.5206506438553333282470703125" lon="19.9484599940478801727294921875">
        <ele>1823</ele>
        <time>2026-06-17T09:25:07.000Z</time>
        <extensions>
          <ns3:TrackPointExtension>
            <ns3:atemp>19.0</ns3:atemp>
          </ns3:TrackPointExtension>
        </extensions>
      </trkpt>
      <trkpt lat="42.5206506438553333282470703125" lon="19.9484599940478801727294921875">
        <ele>1823</ele>
        <time>2026-06-17T09:25:08.000Z</time>
        <extensions>
          <ns3:TrackPointExtension>
            <ns3:atemp>19.0</ns3:atemp>
          </ns3:TrackPointExtension>
        </extensions>
      </trkpt>
      <trkpt lat="42.5206506438553333282470703125" lon="19.9484599940478801727294921875">
        <ele>1823</ele>
        <time>2026-06-17T09:25:09.000Z</time>
        <extensions>
          <ns3:TrackPointExtension>
            <ns3:atemp>19.0</ns3:atemp>
          </ns3:TrackPointExtension>
        </extensions>
      </trkpt>
      <trkpt lat="42.5206506438553333282470703125" lon="19.9484599940478801727294921875">
        <ele>1823</ele>
        <time>2026-06-17T09:25:10.000Z</time>
        <extensions>
          <ns3:TrackPointExtension>
            <ns3:atemp>19.0</ns3:atemp>
          </ns3:TrackPointExtension>
        </extensions>
      </trkpt>
      <trkpt lat="42.5206506438553333282470703125" lon="19.9484599940478801727294921875">
        <ele>1823</ele>
        <time>2026-06-17T09:25:11.000Z</time>
        <extensions>
          <ns3:TrackPointExtension>
            <ns3:atemp>19.0</ns3:atemp>
          </ns3:TrackPointExtension>
        </extensions>
      </trkpt>
      <trkpt lat="42.5206506438553333282470703125" lon="19.9484599940478801727294921875">
        <ele>1823</ele>
        <time>2026-06-17T09:25:12.000Z</time>
        <extensions>
          <ns3:TrackPointExtension>
            <ns3:atemp>19.0</ns3:atemp>
          </ns3:TrackPointExtension>
        </extensions>
      </trkpt>
      <trkpt lat="42.5206506438553333282470703125" lon="19.9484599940478801727294921875">
        <ele>1823</ele>
        <time>2026-06-17T09:25:13.000Z</time>
        <extensions>
          <ns3:TrackPointExtension>
            <ns3:atemp>19.0</ns3:atemp>
          </ns3:TrackPointExtension>
        </extensions>
      </trkpt>
      <trkpt lat="42.5206529907882213592529296875" lon="19.94845789857208728790283203125">
        <ele>1823</ele>
        <time>2026-06-17T09:25:14.000Z</time>
        <extensions>
          <ns3:TrackPointExtension>
            <ns3:atemp>19.0</ns3:atemp>
          </ns3:TrackPointExtension>
        </extensions>
      </trkpt>
      <trkpt lat="42.5206506438553333282470703125" lon="19.9484599940478801727294921875">
        <ele>1823</ele>
        <time>2026-06-17T09:25:15.000Z</time>
        <extensions>
          <ns3:TrackPointExtension>
            <ns3:atemp>19.0</ns3:atemp>
          </ns3:TrackPointExtension>
        </extensions>
      </trkpt>
      <trkpt lat="42.5206506438553333282470703125" lon="19.9484599940478801727294921875">
        <ele>1823</ele>
        <time>2026-06-17T09:25:16.000Z</time>
        <extensions>
          <ns3:TrackPointExtension>
            <ns3:atemp>19.0</ns3:atemp>
          </ns3:TrackPointExtension>
        </extensions>
      </trkpt>
      <trkpt lat="42.5206506438553333282470703125" lon="19.9484599940478801727294921875">
        <ele>1823</ele>
        <time>2026-06-17T09:25:17.000Z</time>
        <extensions>
          <ns3:TrackPointExtension>
            <ns3:atemp>19.0</ns3:atemp>
          </ns3:TrackPointExtension>
        </extensions>
      </trkpt>
      <trkpt lat="42.5206506438553333282470703125" lon="19.9484599940478801727294921875">
        <ele>1823</ele>
        <time>2026-06-17T09:25:18.000Z</time>
        <extensions>
          <ns3:TrackPointExtension>
            <ns3:atemp>19.0</ns3:atemp>
          </ns3:TrackPointExtension>
        </extensions>
      </trkpt>
      <trkpt lat="42.5206506438553333282470703125" lon="19.9484599940478801727294921875">
        <ele>1823</ele>
        <time>2026-06-17T09:25:19.000Z</time>
        <extensions>
          <ns3:TrackPointExtension>
            <ns3:atemp>19.0</ns3:atemp>
          </ns3:TrackPointExtension>
        </extensions>
      </trkpt>
      <trkpt lat="42.5206506438553333282470703125" lon="19.9484599940478801727294921875">
        <ele>1823</ele>
        <time>2026-06-17T09:25:20.000Z</time>
        <extensions>
          <ns3:TrackPointExtension>
            <ns3:atemp>19.0</ns3:atemp>
          </ns3:TrackPointExtension>
        </extensions>
      </trkpt>
      <trkpt lat="42.5206506438553333282470703125" lon="19.9484599940478801727294921875">
        <ele>1823</ele>
        <time>2026-06-17T09:25:21.000Z</time>
        <extensions>
          <ns3:TrackPointExtension>
            <ns3:atemp>19.0</ns3:atemp>
          </ns3:TrackPointExtension>
        </extensions>
      </trkpt>
      <trkpt lat="42.5206506438553333282470703125" lon="19.9484599940478801727294921875">
        <ele>1823</ele>
        <time>2026-06-17T09:25:22.000Z</time>
        <extensions>
          <ns3:TrackPointExtension>
            <ns3:atemp>19.0</ns3:atemp>
          </ns3:TrackPointExtension>
        </extensions>
      </trkpt>
      <trkpt lat="42.5206506438553333282470703125" lon="19.9484599940478801727294921875">
        <ele>1823</ele>
        <time>2026-06-17T09:25:23.000Z</time>
        <extensions>
          <ns3:TrackPointExtension>
            <ns3:atemp>19.0</ns3:atemp>
          </ns3:TrackPointExtension>
        </extensions>
      </trkpt>
      <trkpt lat="42.5206506438553333282470703125" lon="19.9484599940478801727294921875">
        <ele>1823</ele>
        <time>2026-06-17T09:25:24.000Z</time>
        <extensions>
          <ns3:TrackPointExtension>
            <ns3:atemp>19.0</ns3:atemp>
          </ns3:TrackPointExtension>
        </extensions>
      </trkpt>
      <trkpt lat="42.5206506438553333282470703125" lon="19.9484599940478801727294921875">
        <ele>1823</ele>
        <time>2026-06-17T09:25:25.000Z</time>
        <extensions>
          <ns3:TrackPointExtension>
            <ns3:atemp>19.0</ns3:atemp>
          </ns3:TrackPointExtension>
        </extensions>
      </trkpt>
      <trkpt lat="42.5206506438553333282470703125" lon="19.9484599940478801727294921875">
        <ele>1823</ele>
        <time>2026-06-17T09:25:26.000Z</time>
        <extensions>
          <ns3:TrackPointExtension>
            <ns3:atemp>19.0</ns3:atemp>
          </ns3:TrackPointExtension>
        </extensions>
      </trkpt>
      <trkpt lat="42.5206506438553333282470703125" lon="19.9484599940478801727294921875">
        <ele>1823</ele>
        <time>2026-06-17T09:25:27.000Z</time>
        <extensions>
          <ns3:TrackPointExtension>
            <ns3:atemp>19.0</ns3:atemp>
          </ns3:TrackPointExtension>
        </extensions>
      </trkpt>
      <trkpt lat="42.5206506438553333282470703125" lon="19.9484599940478801727294921875">
        <ele>1823</ele>
        <time>2026-06-17T09:25:28.000Z</time>
        <extensions>
          <ns3:TrackPointExtension>
            <ns3:atemp>19.0</ns3:atemp>
          </ns3:TrackPointExtension>
        </extensions>
      </trkpt>
      <trkpt lat="42.5206506438553333282470703125" lon="19.9484599940478801727294921875">
        <ele>1823</ele>
        <time>2026-06-17T09:25:29.000Z</time>
        <extensions>
          <ns3:TrackPointExtension>
            <ns3:atemp>19.0</ns3:atemp>
          </ns3:TrackPointExtension>
        </extensions>
      </trkpt>
      <trkpt lat="42.5206506438553333282470703125" lon="19.9484599940478801727294921875">
        <ele>1823</ele>
        <time>2026-06-17T09:25:30.000Z</time>
        <extensions>
          <ns3:TrackPointExtension>
            <ns3:atemp>19.0</ns3:atemp>
          </ns3:TrackPointExtension>
        </extensions>
      </trkpt>
      <trkpt lat="42.5206506438553333282470703125" lon="19.9484599940478801727294921875">
        <ele>1823</ele>
        <time>2026-06-17T09:25:31.000Z</time>
        <extensions>
          <ns3:TrackPointExtension>
            <ns3:atemp>19.0</ns3:atemp>
          </ns3:TrackPointExtension>
        </extensions>
      </trkpt>
      <trkpt lat="42.5206506438553333282470703125" lon="19.9484599940478801727294921875">
        <ele>1823</ele>
        <time>2026-06-17T09:25:32.000Z</time>
        <extensions>
          <ns3:TrackPointExtension>
            <ns3:atemp>19.0</ns3:atemp>
          </ns3:TrackPointExtension>
        </extensions>
      </trkpt>
      <trkpt lat="42.5206506438553333282470703125" lon="19.9484599940478801727294921875">
        <ele>1823</ele>
        <time>2026-06-17T09:25:33.000Z</time>
        <extensions>
          <ns3:TrackPointExtension>
            <ns3:atemp>19.0</ns3:atemp>
          </ns3:TrackPointExtension>
        </extensions>
      </trkpt>
      <trkpt lat="42.5206506438553333282470703125" lon="19.9484599940478801727294921875">
        <ele>1823</ele>
        <time>2026-06-17T09:25:34.000Z</time>
        <extensions>
          <ns3:TrackPointExtension>
            <ns3:atemp>19.0</ns3:atemp>
          </ns3:TrackPointExtension>
        </extensions>
      </trkpt>
      <trkpt lat="42.5206506438553333282470703125" lon="19.9484599940478801727294921875">
        <ele>1823</ele>
        <time>2026-06-17T09:25:35.000Z</time>
        <extensions>
          <ns3:TrackPointExtension>
            <ns3:atemp>19.0</ns3:atemp>
          </ns3:TrackPointExtension>
        </extensions>
      </trkpt>
      <trkpt lat="42.5206506438553333282470703125" lon="19.9484599940478801727294921875">
        <ele>1823</ele>
        <time>2026-06-17T09:25:36.000Z</time>
        <extensions>
          <ns3:TrackPointExtension>
            <ns3:atemp>19.0</ns3:atemp>
          </ns3:TrackPointExtension>
        </extensions>
      </trkpt>
      <trkpt lat="42.5206506438553333282470703125" lon="19.9484599940478801727294921875">
        <ele>1823</ele>
        <time>2026-06-17T09:25:37.000Z</time>
        <extensions>
          <ns3:TrackPointExtension>
            <ns3:atemp>19.0</ns3:atemp>
          </ns3:TrackPointExtension>
        </extensions>
      </trkpt>
      <trkpt lat="42.5206506438553333282470703125" lon="19.9484599940478801727294921875">
        <ele>1823</ele>
        <time>2026-06-17T09:25:38.000Z</time>
        <extensions>
          <ns3:TrackPointExtension>
            <ns3:atemp>19.0</ns3:atemp>
          </ns3:TrackPointExtension>
        </extensions>
      </trkpt>
      <trkpt lat="42.5206506438553333282470703125" lon="19.9484599940478801727294921875">
        <ele>1823</ele>
        <time>2026-06-17T09:25:39.000Z</time>
        <extensions>
          <ns3:TrackPointExtension>
            <ns3:atemp>19.0</ns3:atemp>
          </ns3:TrackPointExtension>
        </extensions>
      </trkpt>
      <trkpt lat="42.5206519849598407745361328125" lon="19.94845454581081867218017578125">
        <ele>1823</ele>
        <time>2026-06-17T09:25:40.000Z</time>
        <extensions>
          <ns3:TrackPointExtension>
            <ns3:atemp>19.0</ns3:atemp>
          </ns3:TrackPointExtension>
        </extensions>
      </trkpt>
      <trkpt lat="42.5206553377211093902587890625" lon="19.94845588691532611846923828125">
        <ele>1823</ele>
        <time>2026-06-17T09:25:41.000Z</time>
        <extensions>
          <ns3:TrackPointExtension>
            <ns3:atemp>19.0</ns3:atemp>
          </ns3:TrackPointExtension>
        </extensions>
      </trkpt>
      <trkpt lat="42.5206506438553333282470703125" lon="19.9484599940478801727294921875">
        <ele>1823</ele>
        <time>2026-06-17T09:25:42.000Z</time>
        <extensions>
          <ns3:TrackPointExtension>
            <ns3:atemp>19.0</ns3:atemp>
          </ns3:TrackPointExtension>
        </extensions>
      </trkpt>
      <trkpt lat="42.5206506438553333282470703125" lon="19.9484599940478801727294921875">
        <ele>1823</ele>
        <time>2026-06-17T09:25:43.000Z</time>
        <extensions>
          <ns3:TrackPointExtension>
            <ns3:atemp>19.0</ns3:atemp>
          </ns3:TrackPointExtension>
        </extensions>
      </trkpt>
      <trkpt lat="42.5206506438553333282470703125" lon="19.9484599940478801727294921875">
        <ele>1823</ele>
        <time>2026-06-17T09:25:44.000Z</time>
        <extensions>
          <ns3:TrackPointExtension>
            <ns3:atemp>19.0</ns3:atemp>
          </ns3:TrackPointExtension>
        </extensions>
      </trkpt>
      <trkpt lat="42.5206506438553333282470703125" lon="19.9484599940478801727294921875">
        <ele>1823</ele>
        <time>2026-06-17T09:25:45.000Z</time>
        <extensions>
          <ns3:TrackPointExtension>
            <ns3:atemp>19.0</ns3:atemp>
          </ns3:TrackPointExtension>
        </extensions>
      </trkpt>
      <trkpt lat="42.5206506438553333282470703125" lon="19.9484599940478801727294921875">
        <ele>1823</ele>
        <time>2026-06-17T09:25:46.000Z</time>
        <extensions>
          <ns3:TrackPointExtension>
            <ns3:atemp>19.0</ns3:atemp>
          </ns3:TrackPointExtension>
        </extensions>
      </trkpt>
      <trkpt lat="42.5206506438553333282470703125" lon="19.9484599940478801727294921875">
        <ele>1823</ele>
        <time>2026-06-17T09:25:47.000Z</time>
        <extensions>
          <ns3:TrackPointExtension>
            <ns3:atemp>19.0</ns3:atemp>
          </ns3:TrackPointExtension>
        </extensions>
      </trkpt>
      <trkpt lat="42.5206506438553333282470703125" lon="19.9484599940478801727294921875">
        <ele>1823</ele>
        <time>2026-06-17T09:25:48.000Z</time>
        <extensions>
          <ns3:TrackPointExtension>
            <ns3:atemp>19.0</ns3:atemp>
          </ns3:TrackPointExtension>
        </extensions>
      </trkpt>
      <trkpt lat="42.5206506438553333282470703125" lon="19.9484599940478801727294921875">
        <ele>1823</ele>
        <time>2026-06-17T09:25:49.000Z</time>
        <extensions>
          <ns3:TrackPointExtension>
            <ns3:atemp>19.0</ns3:atemp>
          </ns3:TrackPointExtension>
        </extensions>
      </trkpt>
      <trkpt lat="42.5206506438553333282470703125" lon="19.9484599940478801727294921875">
        <ele>1823</ele>
        <time>2026-06-17T09:25:50.000Z</time>
        <extensions>
          <ns3:TrackPointExtension>
            <ns3:atemp>19.0</ns3:atemp>
          </ns3:TrackPointExtension>
        </extensions>
      </trkpt>
      <trkpt lat="42.5206506438553333282470703125" lon="19.9484599940478801727294921875">
        <ele>1823</ele>
        <time>2026-06-17T09:25:51.000Z</time>
        <extensions>
          <ns3:TrackPointExtension>
            <ns3:atemp>19.0</ns3:atemp>
          </ns3:TrackPointExtension>
        </extensions>
      </trkpt>
      <trkpt lat="42.5206506438553333282470703125" lon="19.9484599940478801727294921875">
        <ele>1823</ele>
        <time>2026-06-17T09:25:52.000Z</time>
        <extensions>
          <ns3:TrackPointExtension>
            <ns3:atemp>19.0</ns3:atemp>
          </ns3:TrackPointExtension>
        </extensions>
      </trkpt>
      <trkpt lat="42.5206506438553333282470703125" lon="19.9484599940478801727294921875">
        <ele>1823</ele>
        <time>2026-06-17T09:25:53.000Z</time>
        <extensions>
          <ns3:TrackPointExtension>
            <ns3:atemp>19.0</ns3:atemp>
          </ns3:TrackPointExtension>
        </extensions>
      </trkpt>
      <trkpt lat="42.5206506438553333282470703125" lon="19.9484599940478801727294921875">
        <ele>1823</ele>
        <time>2026-06-17T09:25:54.000Z</time>
        <extensions>
          <ns3:TrackPointExtension>
            <ns3:atemp>19.0</ns3:atemp>
          </ns3:TrackPointExtension>
        </extensions>
      </trkpt>
      <trkpt lat="42.5206506438553333282470703125" lon="19.9484599940478801727294921875">
        <ele>1823</ele>
        <time>2026-06-17T09:25:55.000Z</time>
        <extensions>
          <ns3:TrackPointExtension>
            <ns3:atemp>18.0</ns3:atemp>
          </ns3:TrackPointExtension>
        </extensions>
      </trkpt>
      <trkpt lat="42.5206506438553333282470703125" lon="19.9484599940478801727294921875">
        <ele>1823</ele>
        <time>2026-06-17T09:25:56.000Z</time>
        <extensions>
          <ns3:TrackPointExtension>
            <ns3:atemp>19.0</ns3:atemp>
          </ns3:TrackPointExtension>
        </extensions>
      </trkpt>
      <trkpt lat="42.5206506438553333282470703125" lon="19.9484599940478801727294921875">
        <ele>1823</ele>
        <time>2026-06-17T09:25:57.000Z</time>
        <extensions>
          <ns3:TrackPointExtension>
            <ns3:atemp>19.0</ns3:atemp>
          </ns3:TrackPointExtension>
        </extensions>
      </trkpt>
      <trkpt lat="42.5206506438553333282470703125" lon="19.9484599940478801727294921875">
        <ele>1823</ele>
        <time>2026-06-17T09:25:58.000Z</time>
        <extensions>
          <ns3:TrackPointExtension>
            <ns3:atemp>19.0</ns3:atemp>
          </ns3:TrackPointExtension>
        </extensions>
      </trkpt>
      <trkpt lat="42.5206506438553333282470703125" lon="19.9484599940478801727294921875">
        <ele>1823</ele>
        <time>2026-06-17T09:25:59.000Z</time>
        <extensions>
          <ns3:TrackPointExtension>
            <ns3:atemp>19.0</ns3:atemp>
          </ns3:TrackPointExtension>
        </extensions>
      </trkpt>
      <trkpt lat="42.5206506438553333282470703125" lon="19.9484599940478801727294921875">
        <ele>1823</ele>
        <time>2026-06-17T09:26:00.000Z</time>
        <extensions>
          <ns3:TrackPointExtension>
            <ns3:atemp>19.0</ns3:atemp>
          </ns3:TrackPointExtension>
        </extensions>
      </trkpt>
      <trkpt lat="42.5206506438553333282470703125" lon="19.9484599940478801727294921875">
        <ele>1823</ele>
        <time>2026-06-17T09:26:01.000Z</time>
        <extensions>
          <ns3:TrackPointExtension>
            <ns3:atemp>19.0</ns3:atemp>
          </ns3:TrackPointExtension>
        </extensions>
      </trkpt>
      <trkpt lat="42.5206506438553333282470703125" lon="19.9484599940478801727294921875">
        <ele>1823</ele>
        <time>2026-06-17T09:26:02.000Z</time>
        <extensions>
          <ns3:TrackPointExtension>
            <ns3:atemp>19.0</ns3:atemp>
          </ns3:TrackPointExtension>
        </extensions>
      </trkpt>
      <trkpt lat="42.5206506438553333282470703125" lon="19.9484599940478801727294921875">
        <ele>1823</ele>
        <time>2026-06-17T09:26:03.000Z</time>
        <extensions>
          <ns3:TrackPointExtension>
            <ns3:atemp>19.0</ns3:atemp>
          </ns3:TrackPointExtension>
        </extensions>
      </trkpt>
      <trkpt lat="42.5206506438553333282470703125" lon="19.9484599940478801727294921875">
        <ele>1823</ele>
        <time>2026-06-17T09:26:04.000Z</time>
        <extensions>
          <ns3:TrackPointExtension>
            <ns3:atemp>19.0</ns3:atemp>
          </ns3:TrackPointExtension>
        </extensions>
      </trkpt>
      <trkpt lat="42.5206506438553333282470703125" lon="19.9484599940478801727294921875">
        <ele>1823</ele>
        <time>2026-06-17T09:26:05.000Z</time>
        <extensions>
          <ns3:TrackPointExtension>
            <ns3:atemp>19.0</ns3:atemp>
          </ns3:TrackPointExtension>
        </extensions>
      </trkpt>
      <trkpt lat="42.5206506438553333282470703125" lon="19.9484599940478801727294921875">
        <ele>1823</ele>
        <time>2026-06-17T09:26:06.000Z</time>
        <extensions>
          <ns3:TrackPointExtension>
            <ns3:atemp>18.0</ns3:atemp>
          </ns3:TrackPointExtension>
        </extensions>
      </trkpt>
      <trkpt lat="42.5206563435494899749755859375" lon="19.948460161685943603515625">
        <ele>1823</ele>
        <time>2026-06-17T09:26:07.000Z</time>
        <extensions>
          <ns3:TrackPointExtension>
            <ns3:atemp>18.0</ns3:atemp>
          </ns3:TrackPointExtension>
        </extensions>
      </trkpt>
      <trkpt lat="42.5206506438553333282470703125" lon="19.9484599940478801727294921875">
        <ele>1823</ele>
        <time>2026-06-17T09:26:08.000Z</time>
        <extensions>
          <ns3:TrackPointExtension>
            <ns3:atemp>19.0</ns3:atemp>
          </ns3:TrackPointExtension>
        </extensions>
      </trkpt>
      <trkpt lat="42.5206506438553333282470703125" lon="19.9484599940478801727294921875">
        <ele>1823</ele>
        <time>2026-06-17T09:26:09.000Z</time>
        <extensions>
          <ns3:TrackPointExtension>
            <ns3:atemp>18.0</ns3:atemp>
          </ns3:TrackPointExtension>
        </extensions>
      </trkpt>
      <trkpt lat="42.5206506438553333282470703125" lon="19.9484599940478801727294921875">
        <ele>1823</ele>
        <time>2026-06-17T09:26:10.000Z</time>
        <extensions>
          <ns3:TrackPointExtension>
            <ns3:atemp>19.0</ns3:atemp>
          </ns3:TrackPointExtension>
        </extensions>
      </trkpt>
      <trkpt lat="42.5206506438553333282470703125" lon="19.9484599940478801727294921875">
        <ele>1823</ele>
        <time>2026-06-17T09:26:11.000Z</time>
        <extensions>
          <ns3:TrackPointExtension>
            <ns3:atemp>19.0</ns3:atemp>
          </ns3:TrackPointExtension>
        </extensions>
      </trkpt>
      <trkpt lat="42.5206506438553333282470703125" lon="19.9484599940478801727294921875">
        <ele>1823</ele>
        <time>2026-06-17T09:26:12.000Z</time>
        <extensions>
          <ns3:TrackPointExtension>
            <ns3:atemp>19.0</ns3:atemp>
          </ns3:TrackPointExtension>
        </extensions>
      </trkpt>
      <trkpt lat="42.5206506438553333282470703125" lon="19.9484599940478801727294921875">
        <ele>1823</ele>
        <time>2026-06-17T09:26:13.000Z</time>
        <extensions>
          <ns3:TrackPointExtension>
            <ns3:atemp>18.0</ns3:atemp>
          </ns3:TrackPointExtension>
        </extensions>
      </trkpt>
      <trkpt lat="42.5206506438553333282470703125" lon="19.9484599940478801727294921875">
        <ele>1823</ele>
        <time>2026-06-17T09:26:14.000Z</time>
        <extensions>
          <ns3:TrackPointExtension>
            <ns3:atemp>18.0</ns3:atemp>
          </ns3:TrackPointExtension>
        </extensions>
      </trkpt>
      <trkpt lat="42.5206506438553333282470703125" lon="19.9484599940478801727294921875">
        <ele>1823</ele>
        <time>2026-06-17T09:26:15.000Z</time>
        <extensions>
          <ns3:TrackPointExtension>
            <ns3:atemp>18.0</ns3:atemp>
          </ns3:TrackPointExtension>
        </extensions>
      </trkpt>
      <trkpt lat="42.5206506438553333282470703125" lon="19.9484599940478801727294921875">
        <ele>1823</ele>
        <time>2026-06-17T09:26:16.000Z</time>
        <extensions>
          <ns3:TrackPointExtension>
            <ns3:atemp>18.0</ns3:atemp>
          </ns3:TrackPointExtension>
        </extensions>
      </trkpt>
      <trkpt lat="42.5206506438553333282470703125" lon="19.9484599940478801727294921875">
        <ele>1823</ele>
        <time>2026-06-17T09:26:17.000Z</time>
        <extensions>
          <ns3:TrackPointExtension>
            <ns3:atemp>19.0</ns3:atemp>
          </ns3:TrackPointExtension>
        </extensions>
      </trkpt>
      <trkpt lat="42.5206506438553333282470703125" lon="19.9484599940478801727294921875">
        <ele>1823</ele>
        <time>2026-06-17T09:26:18.000Z</time>
        <extensions>
          <ns3:TrackPointExtension>
            <ns3:atemp>19.0</ns3:atemp>
          </ns3:TrackPointExtension>
        </extensions>
      </trkpt>
      <trkpt lat="42.5206506438553333282470703125" lon="19.9484599940478801727294921875">
        <ele>1823</ele>
        <time>2026-06-17T09:26:19.000Z</time>
        <extensions>
          <ns3:TrackPointExtension>
            <ns3:atemp>19.0</ns3:atemp>
          </ns3:TrackPointExtension>
        </extensions>
      </trkpt>
      <trkpt lat="42.5206506438553333282470703125" lon="19.9484599940478801727294921875">
        <ele>1823</ele>
        <time>2026-06-17T09:26:20.000Z</time>
        <extensions>
          <ns3:TrackPointExtension>
            <ns3:atemp>18.0</ns3:atemp>
          </ns3:TrackPointExtension>
        </extensions>
      </trkpt>
      <trkpt lat="42.5206506438553333282470703125" lon="19.9484599940478801727294921875">
        <ele>1823</ele>
        <time>2026-06-17T09:26:21.000Z</time>
        <extensions>
          <ns3:TrackPointExtension>
            <ns3:atemp>18.0</ns3:atemp>
          </ns3:TrackPointExtension>
        </extensions>
      </trkpt>
      <trkpt lat="42.5206506438553333282470703125" lon="19.9484599940478801727294921875">
        <ele>1823</ele>
        <time>2026-06-17T09:26:22.000Z</time>
        <extensions>
          <ns3:TrackPointExtension>
            <ns3:atemp>19.0</ns3:atemp>
          </ns3:TrackPointExtension>
        </extensions>
      </trkpt>
      <trkpt lat="42.5206506438553333282470703125" lon="19.9484599940478801727294921875">
        <ele>1823</ele>
        <time>2026-06-17T09:26:23.000Z</time>
        <extensions>
          <ns3:TrackPointExtension>
            <ns3:atemp>19.0</ns3:atemp>
          </ns3:TrackPointExtension>
        </extensions>
      </trkpt>
      <trkpt lat="42.5206506438553333282470703125" lon="19.9484599940478801727294921875">
        <ele>1823</ele>
        <time>2026-06-17T09:26:24.000Z</time>
        <extensions>
          <ns3:TrackPointExtension>
            <ns3:atemp>18.0</ns3:atemp>
          </ns3:TrackPointExtension>
        </extensions>
      </trkpt>
      <trkpt lat="42.5206506438553333282470703125" lon="19.9484599940478801727294921875">
        <ele>1823</ele>
        <time>2026-06-17T09:26:25.000Z</time>
        <extensions>
          <ns3:TrackPointExtension>
            <ns3:atemp>18.0</ns3:atemp>
          </ns3:TrackPointExtension>
        </extensions>
      </trkpt>
      <trkpt lat="42.5206506438553333282470703125" lon="19.9484599940478801727294921875">
        <ele>1823</ele>
        <time>2026-06-17T09:26:26.000Z</time>
        <extensions>
          <ns3:TrackPointExtension>
            <ns3:atemp>18.0</ns3:atemp>
          </ns3:TrackPointExtension>
        </extensions>
      </trkpt>
      <trkpt lat="42.5206506438553333282470703125" lon="19.9484599940478801727294921875">
        <ele>1823</ele>
        <time>2026-06-17T09:26:27.000Z</time>
        <extensions>
          <ns3:TrackPointExtension>
            <ns3:atemp>19.0</ns3:atemp>
          </ns3:TrackPointExtension>
        </extensions>
      </trkpt>
      <trkpt lat="42.5206506438553333282470703125" lon="19.9484599940478801727294921875">
        <ele>1823</ele>
        <time>2026-06-17T09:26:28.000Z</time>
        <extensions>
          <ns3:TrackPointExtension>
            <ns3:atemp>18.0</ns3:atemp>
          </ns3:TrackPointExtension>
        </extensions>
      </trkpt>
      <trkpt lat="42.5206506438553333282470703125" lon="19.9484599940478801727294921875">
        <ele>1823</ele>
        <time>2026-06-17T09:26:29.000Z</time>
        <extensions>
          <ns3:TrackPointExtension>
            <ns3:atemp>18.0</ns3:atemp>
          </ns3:TrackPointExtension>
        </extensions>
      </trkpt>
      <trkpt lat="42.5206506438553333282470703125" lon="19.9484599940478801727294921875">
        <ele>1823</ele>
        <time>2026-06-17T09:26:30.000Z</time>
        <extensions>
          <ns3:TrackPointExtension>
            <ns3:atemp>19.0</ns3:atemp>
          </ns3:TrackPointExtension>
        </extensions>
      </trkpt>
      <trkpt lat="42.5206506438553333282470703125" lon="19.9484599940478801727294921875">
        <ele>1823</ele>
        <time>2026-06-17T09:26:31.000Z</time>
        <extensions>
          <ns3:TrackPointExtension>
            <ns3:atemp>18.0</ns3:atemp>
          </ns3:TrackPointExtension>
        </extensions>
      </trkpt>
      <trkpt lat="42.5206506438553333282470703125" lon="19.9484599940478801727294921875">
        <ele>1823</ele>
        <time>2026-06-17T09:26:32.000Z</time>
        <extensions>
          <ns3:TrackPointExtension>
            <ns3:atemp>18.0</ns3:atemp>
          </ns3:TrackPointExtension>
        </extensions>
      </trkpt>
      <trkpt lat="42.5206506438553333282470703125" lon="19.9484599940478801727294921875">
        <ele>1823</ele>
        <time>2026-06-17T09:26:33.000Z</time>
        <extensions>
          <ns3:TrackPointExtension>
            <ns3:atemp>18.0</ns3:atemp>
          </ns3:TrackPointExtension>
        </extensions>
      </trkpt>
      <trkpt lat="42.5206506438553333282470703125" lon="19.9484599940478801727294921875">
        <ele>1823</ele>
        <time>2026-06-17T09:26:34.000Z</time>
        <extensions>
          <ns3:TrackPointExtension>
            <ns3:atemp>18.0</ns3:atemp>
          </ns3:TrackPointExtension>
        </extensions>
      </trkpt>
      <trkpt lat="42.5206506438553333282470703125" lon="19.9484599940478801727294921875">
        <ele>1823</ele>
        <time>2026-06-17T09:26:35.000Z</time>
        <extensions>
          <ns3:TrackPointExtension>
            <ns3:atemp>18.0</ns3:atemp>
          </ns3:TrackPointExtension>
        </extensions>
      </trkpt>
      <trkpt lat="42.5206506438553333282470703125" lon="19.9484599940478801727294921875">
        <ele>1823</ele>
        <time>2026-06-17T09:26:36.000Z</time>
        <extensions>
          <ns3:TrackPointExtension>
            <ns3:atemp>18.0</ns3:atemp>
          </ns3:TrackPointExtension>
        </extensions>
      </trkpt>
      <trkpt lat="42.5206506438553333282470703125" lon="19.9484599940478801727294921875">
        <ele>1823</ele>
        <time>2026-06-17T09:26:37.000Z</time>
        <extensions>
          <ns3:TrackPointExtension>
            <ns3:atemp>18.0</ns3:atemp>
          </ns3:TrackPointExtension>
        </extensions>
      </trkpt>
      <trkpt lat="42.5206506438553333282470703125" lon="19.9484599940478801727294921875">
        <ele>1823</ele>
        <time>2026-06-17T09:26:38.000Z</time>
        <extensions>
          <ns3:TrackPointExtension>
            <ns3:atemp>18.0</ns3:atemp>
          </ns3:TrackPointExtension>
        </extensions>
      </trkpt>
      <trkpt lat="42.5206506438553333282470703125" lon="19.9484599940478801727294921875">
        <ele>1823</ele>
        <time>2026-06-17T09:26:39.000Z</time>
        <extensions>
          <ns3:TrackPointExtension>
            <ns3:atemp>18.0</ns3:atemp>
          </ns3:TrackPointExtension>
        </extensions>
      </trkpt>
      <trkpt lat="42.5206506438553333282470703125" lon="19.9484599940478801727294921875">
        <ele>1823</ele>
        <time>2026-06-17T09:26:40.000Z</time>
        <extensions>
          <ns3:TrackPointExtension>
            <ns3:atemp>18.0</ns3:atemp>
          </ns3:TrackPointExtension>
        </extensions>
      </trkpt>
      <trkpt lat="42.5206506438553333282470703125" lon="19.9484599940478801727294921875">
        <ele>1823</ele>
        <time>2026-06-17T09:26:41.000Z</time>
        <extensions>
          <ns3:TrackPointExtension>
            <ns3:atemp>19.0</ns3:atemp>
          </ns3:TrackPointExtension>
        </extensions>
      </trkpt>
      <trkpt lat="42.5206506438553333282470703125" lon="19.9484599940478801727294921875">
        <ele>1823</ele>
        <time>2026-06-17T09:26:42.000Z</time>
        <extensions>
          <ns3:TrackPointExtension>
            <ns3:atemp>19.0</ns3:atemp>
          </ns3:TrackPointExtension>
        </extensions>
      </trkpt>
      <trkpt lat="42.5206506438553333282470703125" lon="19.9484599940478801727294921875">
        <ele>1823</ele>
        <time>2026-06-17T09:26:43.000Z</time>
        <extensions>
          <ns3:TrackPointExtension>
            <ns3:atemp>19.0</ns3:atemp>
          </ns3:TrackPointExtension>
        </extensions>
      </trkpt>
      <trkpt lat="42.5206506438553333282470703125" lon="19.9484599940478801727294921875">
        <ele>1823</ele>
        <time>2026-06-17T09:26:44.000Z</time>
        <extensions>
          <ns3:TrackPointExtension>
            <ns3:atemp>19.0</ns3:atemp>
          </ns3:TrackPointExtension>
        </extensions>
      </trkpt>
      <trkpt lat="42.5206506438553333282470703125" lon="19.9484599940478801727294921875">
        <ele>1823</ele>
        <time>2026-06-17T09:26:45.000Z</time>
        <extensions>
          <ns3:TrackPointExtension>
            <ns3:atemp>19.0</ns3:atemp>
          </ns3:TrackPointExtension>
        </extensions>
      </trkpt>
      <trkpt lat="42.5206506438553333282470703125" lon="19.9484599940478801727294921875">
        <ele>1823</ele>
        <time>2026-06-17T09:26:46.000Z</time>
        <extensions>
          <ns3:TrackPointExtension>
            <ns3:atemp>18.0</ns3:atemp>
          </ns3:TrackPointExtension>
        </extensions>
      </trkpt>
      <trkpt lat="42.5206506438553333282470703125" lon="19.9484599940478801727294921875">
        <ele>1823</ele>
        <time>2026-06-17T09:26:47.000Z</time>
        <extensions>
          <ns3:TrackPointExtension>
            <ns3:atemp>19.0</ns3:atemp>
          </ns3:TrackPointExtension>
        </extensions>
      </trkpt>
      <trkpt lat="42.5206506438553333282470703125" lon="19.9484599940478801727294921875">
        <ele>1823</ele>
        <time>2026-06-17T09:26:48.000Z</time>
        <extensions>
          <ns3:TrackPointExtension>
            <ns3:atemp>19.0</ns3:atemp>
          </ns3:TrackPointExtension>
        </extensions>
      </trkpt>
      <trkpt lat="42.5206506438553333282470703125" lon="19.9484599940478801727294921875">
        <ele>1823</ele>
        <time>2026-06-17T09:26:49.000Z</time>
        <extensions>
          <ns3:TrackPointExtension>
            <ns3:atemp>18.0</ns3:atemp>
          </ns3:TrackPointExtension>
        </extensions>
      </trkpt>
      <trkpt lat="42.5206506438553333282470703125" lon="19.9484599940478801727294921875">
        <ele>1823</ele>
        <time>2026-06-17T09:26:50.000Z</time>
        <extensions>
          <ns3:TrackPointExtension>
            <ns3:atemp>18.0</ns3:atemp>
          </ns3:TrackPointExtension>
        </extensions>
      </trkpt>
      <trkpt lat="42.5206506438553333282470703125" lon="19.9484599940478801727294921875">
        <ele>1823</ele>
        <time>2026-06-17T09:26:51.000Z</time>
        <extensions>
          <ns3:TrackPointExtension>
            <ns3:atemp>18.0</ns3:atemp>
          </ns3:TrackPointExtension>
        </extensions>
      </trkpt>
      <trkpt lat="42.5206506438553333282470703125" lon="19.9484599940478801727294921875">
        <ele>1823</ele>
        <time>2026-06-17T09:26:52.000Z</time>
        <extensions>
          <ns3:TrackPointExtension>
            <ns3:atemp>18.0</ns3:atemp>
          </ns3:TrackPointExtension>
        </extensions>
      </trkpt>
      <trkpt lat="42.5206506438553333282470703125" lon="19.9484599940478801727294921875">
        <ele>1823</ele>
        <time>2026-06-17T09:26:53.000Z</time>
        <extensions>
          <ns3:TrackPointExtension>
            <ns3:atemp>18.0</ns3:atemp>
          </ns3:TrackPointExtension>
        </extensions>
      </trkpt>
      <trkpt lat="42.5206506438553333282470703125" lon="19.9484599940478801727294921875">
        <ele>1823</ele>
        <time>2026-06-17T09:26:54.000Z</time>
        <extensions>
          <ns3:TrackPointExtension>
            <ns3:atemp>18.0</ns3:atemp>
          </ns3:TrackPointExtension>
        </extensions>
      </trkpt>
      <trkpt lat="42.5206506438553333282470703125" lon="19.9484599940478801727294921875">
        <ele>1823</ele>
        <time>2026-06-17T09:26:55.000Z</time>
        <extensions>
          <ns3:TrackPointExtension>
            <ns3:atemp>18.0</ns3:atemp>
          </ns3:TrackPointExtension>
        </extensions>
      </trkpt>
      <trkpt lat="42.5206506438553333282470703125" lon="19.9484599940478801727294921875">
        <ele>1823</ele>
        <time>2026-06-17T09:26:56.000Z</time>
        <extensions>
          <ns3:TrackPointExtension>
            <ns3:atemp>18.0</ns3:atemp>
          </ns3:TrackPointExtension>
        </extensions>
      </trkpt>
      <trkpt lat="42.5206506438553333282470703125" lon="19.9484599940478801727294921875">
        <ele>1823</ele>
        <time>2026-06-17T09:26:57.000Z</time>
        <extensions>
          <ns3:TrackPointExtension>
            <ns3:atemp>18.0</ns3:atemp>
          </ns3:TrackPointExtension>
        </extensions>
      </trkpt>
      <trkpt lat="42.5206506438553333282470703125" lon="19.9484599940478801727294921875">
        <ele>1823</ele>
        <time>2026-06-17T09:26:58.000Z</time>
        <extensions>
          <ns3:TrackPointExtension>
            <ns3:atemp>18.0</ns3:atemp>
          </ns3:TrackPointExtension>
        </extensions>
      </trkpt>
      <trkpt lat="42.5206506438553333282470703125" lon="19.9484599940478801727294921875">
        <ele>1823</ele>
        <time>2026-06-17T09:26:59.000Z</time>
        <extensions>
          <ns3:TrackPointExtension>
            <ns3:atemp>18.0</ns3:atemp>
          </ns3:TrackPointExtension>
        </extensions>
      </trkpt>
      <trkpt lat="42.5206506438553333282470703125" lon="19.9484599940478801727294921875">
        <ele>1823</ele>
        <time>2026-06-17T09:27:00.000Z</time>
        <extensions>
          <ns3:TrackPointExtension>
            <ns3:atemp>18.0</ns3:atemp>
          </ns3:TrackPointExtension>
        </extensions>
      </trkpt>
      <trkpt lat="42.5206506438553333282470703125" lon="19.9484599940478801727294921875">
        <ele>1823</ele>
        <time>2026-06-17T09:27:01.000Z</time>
        <extensions>
          <ns3:TrackPointExtension>
            <ns3:atemp>18.0</ns3:atemp>
          </ns3:TrackPointExtension>
        </extensions>
      </trkpt>
      <trkpt lat="42.5206506438553333282470703125" lon="19.9484599940478801727294921875">
        <ele>1823</ele>
        <time>2026-06-17T09:27:02.000Z</time>
        <extensions>
          <ns3:TrackPointExtension>
            <ns3:atemp>18.0</ns3:atemp>
          </ns3:TrackPointExtension>
        </extensions>
      </trkpt>
      <trkpt lat="42.5206506438553333282470703125" lon="19.9484599940478801727294921875">
        <ele>1823</ele>
        <time>2026-06-17T09:27:03.000Z</time>
        <extensions>
          <ns3:TrackPointExtension>
            <ns3:atemp>18.0</ns3:atemp>
          </ns3:TrackPointExtension>
        </extensions>
      </trkpt>
      <trkpt lat="42.5206506438553333282470703125" lon="19.9484599940478801727294921875">
        <ele>1823</ele>
        <time>2026-06-17T09:27:04.000Z</time>
        <extensions>
          <ns3:TrackPointExtension>
            <ns3:atemp>18.0</ns3:atemp>
          </ns3:TrackPointExtension>
        </extensions>
      </trkpt>
      <trkpt lat="42.5206506438553333282470703125" lon="19.9484599940478801727294921875">
        <ele>1823</ele>
        <time>2026-06-17T09:27:05.000Z</time>
        <extensions>
          <ns3:TrackPointExtension>
            <ns3:atemp>18.0</ns3:atemp>
          </ns3:TrackPointExtension>
        </extensions>
      </trkpt>
      <trkpt lat="42.5206506438553333282470703125" lon="19.9484599940478801727294921875">
        <ele>1823</ele>
        <time>2026-06-17T09:27:06.000Z</time>
        <extensions>
          <ns3:TrackPointExtension>
            <ns3:atemp>18.0</ns3:atemp>
          </ns3:TrackPointExtension>
        </extensions>
      </trkpt>
      <trkpt lat="42.5206506438553333282470703125" lon="19.9484599940478801727294921875">
        <ele>1823</ele>
        <time>2026-06-17T09:27:07.000Z</time>
        <extensions>
          <ns3:TrackPointExtension>
            <ns3:atemp>18.0</ns3:atemp>
          </ns3:TrackPointExtension>
        </extensions>
      </trkpt>
      <trkpt lat="42.5206506438553333282470703125" lon="19.9484599940478801727294921875">
        <ele>1823</ele>
        <time>2026-06-17T09:27:08.000Z</time>
        <extensions>
          <ns3:TrackPointExtension>
            <ns3:atemp>18.0</ns3:atemp>
          </ns3:TrackPointExtension>
        </extensions>
      </trkpt>
      <trkpt lat="42.5206506438553333282470703125" lon="19.9484599940478801727294921875">
        <ele>1823</ele>
        <time>2026-06-17T09:27:09.000Z</time>
        <extensions>
          <ns3:TrackPointExtension>
            <ns3:atemp>18.0</ns3:atemp>
          </ns3:TrackPointExtension>
        </extensions>
      </trkpt>
      <trkpt lat="42.5206506438553333282470703125" lon="19.9484599940478801727294921875">
        <ele>1823</ele>
        <time>2026-06-17T09:27:10.000Z</time>
        <extensions>
          <ns3:TrackPointExtension>
            <ns3:atemp>18.0</ns3:atemp>
          </ns3:TrackPointExtension>
        </extensions>
      </trkpt>
      <trkpt lat="42.5206506438553333282470703125" lon="19.9484599940478801727294921875">
        <ele>1823</ele>
        <time>2026-06-17T09:27:11.000Z</time>
        <extensions>
          <ns3:TrackPointExtension>
            <ns3:atemp>18.0</ns3:atemp>
          </ns3:TrackPointExtension>
        </extensions>
      </trkpt>
      <trkpt lat="42.5206506438553333282470703125" lon="19.9484599940478801727294921875">
        <ele>1823</ele>
        <time>2026-06-17T09:27:12.000Z</time>
        <extensions>
          <ns3:TrackPointExtension>
            <ns3:atemp>18.0</ns3:atemp>
          </ns3:TrackPointExtension>
        </extensions>
      </trkpt>
      <trkpt lat="42.5206506438553333282470703125" lon="19.9484599940478801727294921875">
        <ele>1823</ele>
        <time>2026-06-17T09:27:13.000Z</time>
        <extensions>
          <ns3:TrackPointExtension>
            <ns3:atemp>18.0</ns3:atemp>
          </ns3:TrackPointExtension>
        </extensions>
      </trkpt>
      <trkpt lat="42.5206506438553333282470703125" lon="19.9484599940478801727294921875">
        <ele>1823</ele>
        <time>2026-06-17T09:27:14.000Z</time>
        <extensions>
          <ns3:TrackPointExtension>
            <ns3:atemp>18.0</ns3:atemp>
          </ns3:TrackPointExtension>
        </extensions>
      </trkpt>
      <trkpt lat="42.5206506438553333282470703125" lon="19.9484599940478801727294921875">
        <ele>1823</ele>
        <time>2026-06-17T09:27:15.000Z</time>
        <extensions>
          <ns3:TrackPointExtension>
            <ns3:atemp>18.0</ns3:atemp>
          </ns3:TrackPointExtension>
        </extensions>
      </trkpt>
      <trkpt lat="42.5206506438553333282470703125" lon="19.9484599940478801727294921875">
        <ele>1823</ele>
        <time>2026-06-17T09:27:16.000Z</time>
        <extensions>
          <ns3:TrackPointExtension>
            <ns3:atemp>18.0</ns3:atemp>
          </ns3:TrackPointExtension>
        </extensions>
      </trkpt>
      <trkpt lat="42.5206506438553333282470703125" lon="19.9484599940478801727294921875">
        <ele>1823</ele>
        <time>2026-06-17T09:27:17.000Z</time>
        <extensions>
          <ns3:TrackPointExtension>
            <ns3:atemp>18.0</ns3:atemp>
          </ns3:TrackPointExtension>
        </extensions>
      </trkpt>
      <trkpt lat="42.5206506438553333282470703125" lon="19.9484599940478801727294921875">
        <ele>1823</ele>
        <time>2026-06-17T09:27:18.000Z</time>
        <extensions>
          <ns3:TrackPointExtension>
            <ns3:atemp>18.0</ns3:atemp>
          </ns3:TrackPointExtension>
        </extensions>
      </trkpt>
      <trkpt lat="42.5206506438553333282470703125" lon="19.9484599940478801727294921875">
        <ele>1823</ele>
        <time>2026-06-17T09:27:19.000Z</time>
        <extensions>
          <ns3:TrackPointExtension>
            <ns3:atemp>18.0</ns3:atemp>
          </ns3:TrackPointExtension>
        </extensions>
      </trkpt>
      <trkpt lat="42.5206506438553333282470703125" lon="19.9484599940478801727294921875">
        <ele>1823</ele>
        <time>2026-06-17T09:27:20.000Z</time>
        <extensions>
          <ns3:TrackPointExtension>
            <ns3:atemp>18.0</ns3:atemp>
          </ns3:TrackPointExtension>
        </extensions>
      </trkpt>
      <trkpt lat="42.5206506438553333282470703125" lon="19.9484599940478801727294921875">
        <ele>1823</ele>
        <time>2026-06-17T09:27:21.000Z</time>
        <extensions>
          <ns3:TrackPointExtension>
            <ns3:atemp>18.0</ns3:atemp>
          </ns3:TrackPointExtension>
        </extensions>
      </trkpt>
      <trkpt lat="42.5206506438553333282470703125" lon="19.9484599940478801727294921875">
        <ele>1823</ele>
        <time>2026-06-17T09:27:22.000Z</time>
        <extensions>
          <ns3:TrackPointExtension>
            <ns3:atemp>18.0</ns3:atemp>
          </ns3:TrackPointExtension>
        </extensions>
      </trkpt>
      <trkpt lat="42.5206506438553333282470703125" lon="19.9484599940478801727294921875">
        <ele>1823</ele>
        <time>2026-06-17T09:27:23.000Z</time>
        <extensions>
          <ns3:TrackPointExtension>
            <ns3:atemp>18.0</ns3:atemp>
          </ns3:TrackPointExtension>
        </extensions>
      </trkpt>
      <trkpt lat="42.5206506438553333282470703125" lon="19.9484599940478801727294921875">
        <ele>1823</ele>
        <time>2026-06-17T09:27:24.000Z</time>
        <extensions>
          <ns3:TrackPointExtension>
            <ns3:atemp>18.0</ns3:atemp>
          </ns3:TrackPointExtension>
        </extensions>
      </trkpt>
      <trkpt lat="42.5206506438553333282470703125" lon="19.9484599940478801727294921875">
        <ele>1823</ele>
        <time>2026-06-17T09:27:25.000Z</time>
        <extensions>
          <ns3:TrackPointExtension>
            <ns3:atemp>18.0</ns3:atemp>
          </ns3:TrackPointExtension>
        </extensions>
      </trkpt>
      <trkpt lat="42.5206506438553333282470703125" lon="19.9484599940478801727294921875">
        <ele>1823</ele>
        <time>2026-06-17T09:27:26.000Z</time>
        <extensions>
          <ns3:TrackPointExtension>
            <ns3:atemp>18.0</ns3:atemp>
          </ns3:TrackPointExtension>
        </extensions>
      </trkpt>
      <trkpt lat="42.5206506438553333282470703125" lon="19.9484599940478801727294921875">
        <ele>1823</ele>
        <time>2026-06-17T09:27:27.000Z</time>
        <extensions>
          <ns3:TrackPointExtension>
            <ns3:atemp>18.0</ns3:atemp>
          </ns3:TrackPointExtension>
        </extensions>
      </trkpt>
      <trkpt lat="42.5206506438553333282470703125" lon="19.9484599940478801727294921875">
        <ele>1823</ele>
        <time>2026-06-17T09:27:28.000Z</time>
        <extensions>
          <ns3:TrackPointExtension>
            <ns3:atemp>18.0</ns3:atemp>
          </ns3:TrackPointExtension>
        </extensions>
      </trkpt>
      <trkpt lat="42.5206506438553333282470703125" lon="19.9484599940478801727294921875">
        <ele>1823</ele>
        <time>2026-06-17T09:27:29.000Z</time>
        <extensions>
          <ns3:TrackPointExtension>
            <ns3:atemp>18.0</ns3:atemp>
          </ns3:TrackPointExtension>
        </extensions>
      </trkpt>
      <trkpt lat="42.5206506438553333282470703125" lon="19.9484599940478801727294921875">
        <ele>1823</ele>
        <time>2026-06-17T09:27:30.000Z</time>
        <extensions>
          <ns3:TrackPointExtension>
            <ns3:atemp>18.0</ns3:atemp>
          </ns3:TrackPointExtension>
        </extensions>
      </trkpt>
      <trkpt lat="42.5206506438553333282470703125" lon="19.9484599940478801727294921875">
        <ele>1823</ele>
        <time>2026-06-17T09:27:31.000Z</time>
        <extensions>
          <ns3:TrackPointExtension>
            <ns3:atemp>18.0</ns3:atemp>
          </ns3:TrackPointExtension>
        </extensions>
      </trkpt>
      <trkpt lat="42.5206506438553333282470703125" lon="19.9484599940478801727294921875">
        <ele>1823</ele>
        <time>2026-06-17T09:27:32.000Z</time>
        <extensions>
          <ns3:TrackPointExtension>
            <ns3:atemp>18.0</ns3:atemp>
          </ns3:TrackPointExtension>
        </extensions>
      </trkpt>
      <trkpt lat="42.5206506438553333282470703125" lon="19.9484599940478801727294921875">
        <ele>1823</ele>
        <time>2026-06-17T09:27:33.000Z</time>
        <extensions>
          <ns3:TrackPointExtension>
            <ns3:atemp>18.0</ns3:atemp>
          </ns3:TrackPointExtension>
        </extensions>
      </trkpt>
      <trkpt lat="42.5206506438553333282470703125" lon="19.9484599940478801727294921875">
        <ele>1823</ele>
        <time>2026-06-17T09:27:34.000Z</time>
        <extensions>
          <ns3:TrackPointExtension>
            <ns3:atemp>18.0</ns3:atemp>
          </ns3:TrackPointExtension>
        </extensions>
      </trkpt>
      <trkpt lat="42.5206506438553333282470703125" lon="19.9484599940478801727294921875">
        <ele>1823</ele>
        <time>2026-06-17T09:27:35.000Z</time>
        <extensions>
          <ns3:TrackPointExtension>
            <ns3:atemp>18.0</ns3:atemp>
          </ns3:TrackPointExtension>
        </extensions>
      </trkpt>
      <trkpt lat="42.5206506438553333282470703125" lon="19.9484599940478801727294921875">
        <ele>1823</ele>
        <time>2026-06-17T09:27:36.000Z</time>
        <extensions>
          <ns3:TrackPointExtension>
            <ns3:atemp>18.0</ns3:atemp>
          </ns3:TrackPointExtension>
        </extensions>
      </trkpt>
      <trkpt lat="42.5206506438553333282470703125" lon="19.9484599940478801727294921875">
        <ele>1823</ele>
        <time>2026-06-17T09:27:37.000Z</time>
        <extensions>
          <ns3:TrackPointExtension>
            <ns3:atemp>18.0</ns3:atemp>
          </ns3:TrackPointExtension>
        </extensions>
      </trkpt>
      <trkpt lat="42.5206506438553333282470703125" lon="19.9484599940478801727294921875">
        <ele>1823</ele>
        <time>2026-06-17T09:27:38.000Z</time>
        <extensions>
          <ns3:TrackPointExtension>
            <ns3:atemp>18.0</ns3:atemp>
          </ns3:TrackPointExtension>
        </extensions>
      </trkpt>
      <trkpt lat="42.5206506438553333282470703125" lon="19.9484599940478801727294921875">
        <ele>1823</ele>
        <time>2026-06-17T09:27:39.000Z</time>
        <extensions>
          <ns3:TrackPointExtension>
            <ns3:atemp>18.0</ns3:atemp>
          </ns3:TrackPointExtension>
        </extensions>
      </trkpt>
      <trkpt lat="42.5206506438553333282470703125" lon="19.9484599940478801727294921875">
        <ele>1823</ele>
        <time>2026-06-17T09:27:40.000Z</time>
        <extensions>
          <ns3:TrackPointExtension>
            <ns3:atemp>18.0</ns3:atemp>
          </ns3:TrackPointExtension>
        </extensions>
      </trkpt>
      <trkpt lat="42.5206506438553333282470703125" lon="19.9484599940478801727294921875">
        <ele>1823</ele>
        <time>2026-06-17T09:27:41.000Z</time>
        <extensions>
          <ns3:TrackPointExtension>
            <ns3:atemp>18.0</ns3:atemp>
          </ns3:TrackPointExtension>
        </extensions>
      </trkpt>
      <trkpt lat="42.5206506438553333282470703125" lon="19.9484599940478801727294921875">
        <ele>1823</ele>
        <time>2026-06-17T09:27:42.000Z</time>
        <extensions>
          <ns3:TrackPointExtension>
            <ns3:atemp>18.0</ns3:atemp>
          </ns3:TrackPointExtension>
        </extensions>
      </trkpt>
      <trkpt lat="42.5206506438553333282470703125" lon="19.9484599940478801727294921875">
        <ele>1823</ele>
        <time>2026-06-17T09:27:43.000Z</time>
        <extensions>
          <ns3:TrackPointExtension>
            <ns3:atemp>18.0</ns3:atemp>
          </ns3:TrackPointExtension>
        </extensions>
      </trkpt>
      <trkpt lat="42.5206506438553333282470703125" lon="19.9484599940478801727294921875">
        <ele>1823</ele>
        <time>2026-06-17T09:27:44.000Z</time>
        <extensions>
          <ns3:TrackPointExtension>
            <ns3:atemp>18.0</ns3:atemp>
          </ns3:TrackPointExtension>
        </extensions>
      </trkpt>
      <trkpt lat="42.5206506438553333282470703125" lon="19.9484599940478801727294921875">
        <ele>1823</ele>
        <time>2026-06-17T09:27:45.000Z</time>
        <extensions>
          <ns3:TrackPointExtension>
            <ns3:atemp>18.0</ns3:atemp>
          </ns3:TrackPointExtension>
        </extensions>
      </trkpt>
      <trkpt lat="42.5206506438553333282470703125" lon="19.9484599940478801727294921875">
        <ele>1823</ele>
        <time>2026-06-17T09:27:46.000Z</time>
        <extensions>
          <ns3:TrackPointExtension>
            <ns3:atemp>18.0</ns3:atemp>
          </ns3:TrackPointExtension>
        </extensions>
      </trkpt>
      <trkpt lat="42.5206506438553333282470703125" lon="19.9484599940478801727294921875">
        <ele>1823</ele>
        <time>2026-06-17T09:27:47.000Z</time>
        <extensions>
          <ns3:TrackPointExtension>
            <ns3:atemp>18.0</ns3:atemp>
          </ns3:TrackPointExtension>
        </extensions>
      </trkpt>
      <trkpt lat="42.5206506438553333282470703125" lon="19.9484599940478801727294921875">
        <ele>1823</ele>
        <time>2026-06-17T09:27:48.000Z</time>
        <extensions>
          <ns3:TrackPointExtension>
            <ns3:atemp>18.0</ns3:atemp>
          </ns3:TrackPointExtension>
        </extensions>
      </trkpt>
      <trkpt lat="42.5206506438553333282470703125" lon="19.9484599940478801727294921875">
        <ele>1823</ele>
        <time>2026-06-17T09:27:49.000Z</time>
        <extensions>
          <ns3:TrackPointExtension>
            <ns3:atemp>18.0</ns3:atemp>
          </ns3:TrackPointExtension>
        </extensions>
      </trkpt>
      <trkpt lat="42.5206506438553333282470703125" lon="19.9484599940478801727294921875">
        <ele>1823</ele>
        <time>2026-06-17T09:27:50.000Z</time>
        <extensions>
          <ns3:TrackPointExtension>
            <ns3:atemp>18.0</ns3:atemp>
          </ns3:TrackPointExtension>
        </extensions>
      </trkpt>
      <trkpt lat="42.5206506438553333282470703125" lon="19.9484599940478801727294921875">
        <ele>1823</ele>
        <time>2026-06-17T09:27:51.000Z</time>
        <extensions>
          <ns3:TrackPointExtension>
            <ns3:atemp>18.0</ns3:atemp>
          </ns3:TrackPointExtension>
        </extensions>
      </trkpt>
      <trkpt lat="42.5206506438553333282470703125" lon="19.9484599940478801727294921875">
        <ele>1823</ele>
        <time>2026-06-17T09:27:52.000Z</time>
        <extensions>
          <ns3:TrackPointExtension>
            <ns3:atemp>18.0</ns3:atemp>
          </ns3:TrackPointExtension>
        </extensions>
      </trkpt>
      <trkpt lat="42.5206506438553333282470703125" lon="19.9484599940478801727294921875">
        <ele>1823</ele>
        <time>2026-06-17T09:27:53.000Z</time>
        <extensions>
          <ns3:TrackPointExtension>
            <ns3:atemp>18.0</ns3:atemp>
          </ns3:TrackPointExtension>
        </extensions>
      </trkpt>
      <trkpt lat="42.5206506438553333282470703125" lon="19.9484599940478801727294921875">
        <ele>1823</ele>
        <time>2026-06-17T09:27:54.000Z</time>
        <extensions>
          <ns3:TrackPointExtension>
            <ns3:atemp>18.0</ns3:atemp>
          </ns3:TrackPointExtension>
        </extensions>
      </trkpt>
      <trkpt lat="42.5206506438553333282470703125" lon="19.9484599940478801727294921875">
        <ele>1823</ele>
        <time>2026-06-17T09:27:55.000Z</time>
        <extensions>
          <ns3:TrackPointExtension>
            <ns3:atemp>18.0</ns3:atemp>
          </ns3:TrackPointExtension>
        </extensions>
      </trkpt>
      <trkpt lat="42.5206506438553333282470703125" lon="19.9484599940478801727294921875">
        <ele>1823</ele>
        <time>2026-06-17T09:27:56.000Z</time>
        <extensions>
          <ns3:TrackPointExtension>
            <ns3:atemp>18.0</ns3:atemp>
          </ns3:TrackPointExtension>
        </extensions>
      </trkpt>
      <trkpt lat="42.5206506438553333282470703125" lon="19.9484599940478801727294921875">
        <ele>1823</ele>
        <time>2026-06-17T09:27:57.000Z</time>
        <extensions>
          <ns3:TrackPointExtension>
            <ns3:atemp>18.0</ns3:atemp>
          </ns3:TrackPointExtension>
        </extensions>
      </trkpt>
      <trkpt lat="42.5206506438553333282470703125" lon="19.9484599940478801727294921875">
        <ele>1823</ele>
        <time>2026-06-17T09:27:58.000Z</time>
        <extensions>
          <ns3:TrackPointExtension>
            <ns3:atemp>18.0</ns3:atemp>
          </ns3:TrackPointExtension>
        </extensions>
      </trkpt>
      <trkpt lat="42.5206506438553333282470703125" lon="19.9484599940478801727294921875">
        <ele>1823</ele>
        <time>2026-06-17T09:27:59.000Z</time>
        <extensions>
          <ns3:TrackPointExtension>
            <ns3:atemp>18.0</ns3:atemp>
          </ns3:TrackPointExtension>
        </extensions>
      </trkpt>
      <trkpt lat="42.5206506438553333282470703125" lon="19.9484599940478801727294921875">
        <ele>1823</ele>
        <time>2026-06-17T09:28:00.000Z</time>
        <extensions>
          <ns3:TrackPointExtension>
            <ns3:atemp>18.0</ns3:atemp>
          </ns3:TrackPointExtension>
        </extensions>
      </trkpt>
      <trkpt lat="42.5206506438553333282470703125" lon="19.9484599940478801727294921875">
        <ele>1823</ele>
        <time>2026-06-17T09:28:01.000Z</time>
        <extensions>
          <ns3:TrackPointExtension>
            <ns3:atemp>18.0</ns3:atemp>
          </ns3:TrackPointExtension>
        </extensions>
      </trkpt>
      <trkpt lat="42.5206506438553333282470703125" lon="19.9484599940478801727294921875">
        <ele>1823</ele>
        <time>2026-06-17T09:28:02.000Z</time>
        <extensions>
          <ns3:TrackPointExtension>
            <ns3:atemp>18.0</ns3:atemp>
          </ns3:TrackPointExtension>
        </extensions>
      </trkpt>
      <trkpt lat="42.5206506438553333282470703125" lon="19.9484599940478801727294921875">
        <ele>1823</ele>
        <time>2026-06-17T09:28:03.000Z</time>
        <extensions>
          <ns3:TrackPointExtension>
            <ns3:atemp>18.0</ns3:atemp>
          </ns3:TrackPointExtension>
        </extensions>
      </trkpt>
      <trkpt lat="42.5206506438553333282470703125" lon="19.9484599940478801727294921875">
        <ele>1823</ele>
        <time>2026-06-17T09:28:04.000Z</time>
        <extensions>
          <ns3:TrackPointExtension>
            <ns3:atemp>18.0</ns3:atemp>
          </ns3:TrackPointExtension>
        </extensions>
      </trkpt>
      <trkpt lat="42.5206506438553333282470703125" lon="19.9484599940478801727294921875">
        <ele>1823</ele>
        <time>2026-06-17T09:28:05.000Z</time>
        <extensions>
          <ns3:TrackPointExtension>
            <ns3:atemp>18.0</ns3:atemp>
          </ns3:TrackPointExtension>
        </extensions>
      </trkpt>
      <trkpt lat="42.5206506438553333282470703125" lon="19.9484599940478801727294921875">
        <ele>1823</ele>
        <time>2026-06-17T09:28:06.000Z</time>
        <extensions>
          <ns3:TrackPointExtension>
            <ns3:atemp>18.0</ns3:atemp>
          </ns3:TrackPointExtension>
        </extensions>
      </trkpt>
      <trkpt lat="42.5206506438553333282470703125" lon="19.9484599940478801727294921875">
        <ele>1823</ele>
        <time>2026-06-17T09:28:07.000Z</time>
        <extensions>
          <ns3:TrackPointExtension>
            <ns3:atemp>18.0</ns3:atemp>
          </ns3:TrackPointExtension>
        </extensions>
      </trkpt>
      <trkpt lat="42.5206506438553333282470703125" lon="19.9484599940478801727294921875">
        <ele>1823</ele>
        <time>2026-06-17T09:28:08.000Z</time>
        <extensions>
          <ns3:TrackPointExtension>
            <ns3:atemp>18.0</ns3:atemp>
          </ns3:TrackPointExtension>
        </extensions>
      </trkpt>
      <trkpt lat="42.5206506438553333282470703125" lon="19.9484599940478801727294921875">
        <ele>1823</ele>
        <time>2026-06-17T09:28:09.000Z</time>
        <extensions>
          <ns3:TrackPointExtension>
            <ns3:atemp>19.0</ns3:atemp>
          </ns3:TrackPointExtension>
        </extensions>
      </trkpt>
      <trkpt lat="42.5206506438553333282470703125" lon="19.9484599940478801727294921875">
        <ele>1823</ele>
        <time>2026-06-17T09:28:10.000Z</time>
        <extensions>
          <ns3:TrackPointExtension>
            <ns3:atemp>18.0</ns3:atemp>
          </ns3:TrackPointExtension>
        </extensions>
      </trkpt>
      <trkpt lat="42.5206506438553333282470703125" lon="19.9484599940478801727294921875">
        <ele>1823</ele>
        <time>2026-06-17T09:28:11.000Z</time>
        <extensions>
          <ns3:TrackPointExtension>
            <ns3:atemp>18.0</ns3:atemp>
          </ns3:TrackPointExtension>
        </extensions>
      </trkpt>
      <trkpt lat="42.5206506438553333282470703125" lon="19.9484599940478801727294921875">
        <ele>1823</ele>
        <time>2026-06-17T09:28:12.000Z</time>
        <extensions>
          <ns3:TrackPointExtension>
            <ns3:atemp>18.0</ns3:atemp>
          </ns3:TrackPointExtension>
        </extensions>
      </trkpt>
      <trkpt lat="42.5206506438553333282470703125" lon="19.9484599940478801727294921875">
        <ele>1823</ele>
        <time>2026-06-17T09:28:13.000Z</time>
        <extensions>
          <ns3:TrackPointExtension>
            <ns3:atemp>18.0</ns3:atemp>
          </ns3:TrackPointExtension>
        </extensions>
      </trkpt>
      <trkpt lat="42.5206506438553333282470703125" lon="19.9484599940478801727294921875">
        <ele>1823</ele>
        <time>2026-06-17T09:28:14.000Z</time>
        <extensions>
          <ns3:TrackPointExtension>
            <ns3:atemp>18.0</ns3:atemp>
          </ns3:TrackPointExtension>
        </extensions>
      </trkpt>
      <trkpt lat="42.5206506438553333282470703125" lon="19.9484599940478801727294921875">
        <ele>1823</ele>
        <time>2026-06-17T09:28:15.000Z</time>
        <extensions>
          <ns3:TrackPointExtension>
            <ns3:atemp>18.0</ns3:atemp>
          </ns3:TrackPointExtension>
        </extensions>
      </trkpt>
      <trkpt lat="42.5206506438553333282470703125" lon="19.9484599940478801727294921875">
        <ele>1823</ele>
        <time>2026-06-17T09:28:16.000Z</time>
        <extensions>
          <ns3:TrackPointExtension>
            <ns3:atemp>18.0</ns3:atemp>
          </ns3:TrackPointExtension>
        </extensions>
      </trkpt>
      <trkpt lat="42.5206506438553333282470703125" lon="19.9484599940478801727294921875">
        <ele>1823</ele>
        <time>2026-06-17T09:28:17.000Z</time>
        <extensions>
          <ns3:TrackPointExtension>
            <ns3:atemp>18.0</ns3:atemp>
          </ns3:TrackPointExtension>
        </extensions>
      </trkpt>
      <trkpt lat="42.5206506438553333282470703125" lon="19.9484599940478801727294921875">
        <ele>1823</ele>
        <time>2026-06-17T09:28:18.000Z</time>
        <extensions>
          <ns3:TrackPointExtension>
            <ns3:atemp>18.0</ns3:atemp>
          </ns3:TrackPointExtension>
        </extensions>
      </trkpt>
      <trkpt lat="42.5206506438553333282470703125" lon="19.9484599940478801727294921875">
        <ele>1823</ele>
        <time>2026-06-17T09:28:19.000Z</time>
        <extensions>
          <ns3:TrackPointExtension>
            <ns3:atemp>18.0</ns3:atemp>
          </ns3:TrackPointExtension>
        </extensions>
      </trkpt>
      <trkpt lat="42.5206506438553333282470703125" lon="19.9484599940478801727294921875">
        <ele>1823</ele>
        <time>2026-06-17T09:28:20.000Z</time>
        <extensions>
          <ns3:TrackPointExtension>
            <ns3:atemp>18.0</ns3:atemp>
          </ns3:TrackPointExtension>
        </extensions>
      </trkpt>
      <trkpt lat="42.5206506438553333282470703125" lon="19.9484599940478801727294921875">
        <ele>1823</ele>
        <time>2026-06-17T09:28:21.000Z</time>
        <extensions>
          <ns3:TrackPointExtension>
            <ns3:atemp>18.0</ns3:atemp>
          </ns3:TrackPointExtension>
        </extensions>
      </trkpt>
      <trkpt lat="42.5206506438553333282470703125" lon="19.9484599940478801727294921875">
        <ele>1823</ele>
        <time>2026-06-17T09:28:22.000Z</time>
        <extensions>
          <ns3:TrackPointExtension>
            <ns3:atemp>18.0</ns3:atemp>
          </ns3:TrackPointExtension>
        </extensions>
      </trkpt>
      <trkpt lat="42.5206506438553333282470703125" lon="19.9484599940478801727294921875">
        <ele>1823</ele>
        <time>2026-06-17T09:28:23.000Z</time>
        <extensions>
          <ns3:TrackPointExtension>
            <ns3:atemp>18.0</ns3:atemp>
          </ns3:TrackPointExtension>
        </extensions>
      </trkpt>
      <trkpt lat="42.5206506438553333282470703125" lon="19.9484599940478801727294921875">
        <ele>1823</ele>
        <time>2026-06-17T09:28:24.000Z</time>
        <extensions>
          <ns3:TrackPointExtension>
            <ns3:atemp>18.0</ns3:atemp>
          </ns3:TrackPointExtension>
        </extensions>
      </trkpt>
      <trkpt lat="42.5206506438553333282470703125" lon="19.9484599940478801727294921875">
        <ele>1823</ele>
        <time>2026-06-17T09:28:25.000Z</time>
        <extensions>
          <ns3:TrackPointExtension>
            <ns3:atemp>18.0</ns3:atemp>
          </ns3:TrackPointExtension>
        </extensions>
      </trkpt>
      <trkpt lat="42.52065290696918964385986328125" lon="19.94846091605722904205322265625">
        <ele>1823</ele>
        <time>2026-06-17T09:28:26.000Z</time>
        <extensions>
          <ns3:TrackPointExtension>
            <ns3:atemp>18.0</ns3:atemp>
          </ns3:TrackPointExtension>
        </extensions>
      </trkpt>
      <trkpt lat="42.5206476263701915740966796875" lon="19.9484603293240070343017578125">
        <ele>1823</ele>
        <time>2026-06-17T09:28:27.000Z</time>
        <extensions>
          <ns3:TrackPointExtension>
            <ns3:atemp>18.0</ns3:atemp>
          </ns3:TrackPointExtension>
        </extensions>
      </trkpt>
      <trkpt lat="42.5206385739147663116455078125" lon="19.94846024550497531890869140625">
        <ele>1823</ele>
        <time>2026-06-17T09:28:28.000Z</time>
        <extensions>
          <ns3:TrackPointExtension>
            <ns3:atemp>18.0</ns3:atemp>
          </ns3:TrackPointExtension>
        </extensions>
      </trkpt>
      <trkpt lat="42.52062826417386531829833984375" lon="19.9484566412866115570068359375">
        <ele>1823</ele>
        <time>2026-06-17T09:28:29.000Z</time>
        <extensions>
          <ns3:TrackPointExtension>
            <ns3:atemp>18.0</ns3:atemp>
          </ns3:TrackPointExtension>
        </extensions>
      </trkpt>
      <trkpt lat="42.52061015926301479339599609375" lon="19.94845555163919925689697265625">
        <ele>1823</ele>
        <time>2026-06-17T09:28:30.000Z</time>
        <extensions>
          <ns3:TrackPointExtension>
            <ns3:atemp>18.0</ns3:atemp>
          </ns3:TrackPointExtension>
        </extensions>
      </trkpt>
      <trkpt lat="42.52059473656117916107177734375" lon="19.94845437817275524139404296875">
        <ele>1823.199951171875</ele>
        <time>2026-06-17T09:28:31.000Z</time>
        <extensions>
          <ns3:TrackPointExtension>
            <ns3:atemp>18.0</ns3:atemp>
          </ns3:TrackPointExtension>
        </extensions>
      </trkpt>
      <trkpt lat="42.52057897858321666717529296875" lon="19.94845521636307239532470703125">
        <ele>1823.199951171875</ele>
        <time>2026-06-17T09:28:32.000Z</time>
        <extensions>
          <ns3:TrackPointExtension>
            <ns3:atemp>18.0</ns3:atemp>
          </ns3:TrackPointExtension>
        </extensions>
      </trkpt>
      <trkpt lat="42.5205674953758716583251953125" lon="19.9484599940478801727294921875">
        <ele>1823.4000244140625</ele>
        <time>2026-06-17T09:28:33.000Z</time>
        <extensions>
          <ns3:TrackPointExtension>
            <ns3:atemp>18.0</ns3:atemp>
          </ns3:TrackPointExtension>
        </extensions>
      </trkpt>
      <trkpt lat="42.52055324614048004150390625" lon="19.948469214141368865966796875">
        <ele>1823.4000244140625</ele>
        <time>2026-06-17T09:28:34.000Z</time>
        <extensions>
          <ns3:TrackPointExtension>
            <ns3:atemp>18.0</ns3:atemp>
          </ns3:TrackPointExtension>
        </extensions>
      </trkpt>
      <trkpt lat="42.520545534789562225341796875" lon="19.94848036207258701324462890625">
        <ele>1823.5999755859375</ele>
        <time>2026-06-17T09:28:35.000Z</time>
        <extensions>
          <ns3:TrackPointExtension>
            <ns3:atemp>18.0</ns3:atemp>
          </ns3:TrackPointExtension>
        </extensions>
      </trkpt>
      <trkpt lat="42.52053421922028064727783203125" lon="19.9484941922128200531005859375">
        <ele>1823.800048828125</ele>
        <time>2026-06-17T09:28:36.000Z</time>
        <extensions>
          <ns3:TrackPointExtension>
            <ns3:atemp>18.0</ns3:atemp>
          </ns3:TrackPointExtension>
        </extensions>
      </trkpt>
      <trkpt lat="42.52051812596619129180908203125" lon="19.94850818999111652374267578125">
        <ele>1824</ele>
        <time>2026-06-17T09:28:37.000Z</time>
        <extensions>
          <ns3:TrackPointExtension>
            <ns3:atemp>18.0</ns3:atemp>
          </ns3:TrackPointExtension>
        </extensions>
      </trkpt>
      <trkpt lat="42.5205056369304656982421875" lon="19.9485116265714168548583984375">
        <ele>1824.199951171875</ele>
        <time>2026-06-17T09:28:38.000Z</time>
        <extensions>
          <ns3:TrackPointExtension>
            <ns3:atemp>18.0</ns3:atemp>
          </ns3:TrackPointExtension>
        </extensions>
      </trkpt>
      <trkpt lat="42.52048778347671031951904296875" lon="19.948516823351383209228515625">
        <ele>1824.4000244140625</ele>
        <time>2026-06-17T09:28:39.000Z</time>
        <extensions>
          <ns3:TrackPointExtension>
            <ns3:atemp>18.0</ns3:atemp>
          </ns3:TrackPointExtension>
        </extensions>
      </trkpt>
      <trkpt lat="42.52047018148005008697509765625" lon="19.94852445088326930999755859375">
        <ele>1824.4000244140625</ele>
        <time>2026-06-17T09:28:40.000Z</time>
        <extensions>
          <ns3:TrackPointExtension>
            <ns3:atemp>18.0</ns3:atemp>
          </ns3:TrackPointExtension>
        </extensions>
      </trkpt>
      <trkpt lat="42.5204581953585147857666015625" lon="19.94853182695806026458740234375">
        <ele>1824.5999755859375</ele>
        <time>2026-06-17T09:28:41.000Z</time>
        <extensions>
          <ns3:TrackPointExtension>
            <ns3:atemp>18.0</ns3:atemp>
          </ns3:TrackPointExtension>
        </extensions>
      </trkpt>
      <trkpt lat="42.520440258085727691650390625" lon="19.948540292680263519287109375">
        <ele>1824.5999755859375</ele>
        <time>2026-06-17T09:28:42.000Z</time>
        <extensions>
          <ns3:TrackPointExtension>
            <ns3:atemp>18.0</ns3:atemp>
          </ns3:TrackPointExtension>
        </extensions>
      </trkpt>
      <trkpt lat="42.52042693085968494415283203125" lon="19.948541633784770965576171875">
        <ele>1824.800048828125</ele>
        <time>2026-06-17T09:28:43.000Z</time>
        <extensions>
          <ns3:TrackPointExtension>
            <ns3:atemp>18.0</ns3:atemp>
          </ns3:TrackPointExtension>
        </extensions>
      </trkpt>
      <trkpt lat="42.52041217871010303497314453125" lon="19.94854272343218326568603515625">
        <ele>1824.800048828125</ele>
        <time>2026-06-17T09:28:44.000Z</time>
        <extensions>
          <ns3:TrackPointExtension>
            <ns3:atemp>18.0</ns3:atemp>
          </ns3:TrackPointExtension>
        </extensions>
      </trkpt>
      <trkpt lat="42.52039927057921886444091796875" lon="19.94854171760380268096923828125">
        <ele>1825</ele>
        <time>2026-06-17T09:28:45.000Z</time>
        <extensions>
          <ns3:TrackPointExtension>
            <ns3:atemp>18.0</ns3:atemp>
          </ns3:TrackPointExtension>
        </extensions>
      </trkpt>
      <trkpt lat="42.52038292586803436279296875" lon="19.94853794574737548828125">
        <ele>1825.199951171875</ele>
        <time>2026-06-17T09:28:46.000Z</time>
        <extensions>
          <ns3:TrackPointExtension>
            <ns3:atemp>18.0</ns3:atemp>
          </ns3:TrackPointExtension>
        </extensions>
      </trkpt>
      <trkpt lat="42.52036758698523044586181640625" lon="19.94853048585355281829833984375">
        <ele>1825.4000244140625</ele>
        <time>2026-06-17T09:28:47.000Z</time>
        <extensions>
          <ns3:TrackPointExtension>
            <ns3:atemp>18.0</ns3:atemp>
          </ns3:TrackPointExtension>
        </extensions>
      </trkpt>
      <trkpt lat="42.520353756844997406005859375" lon="19.94852176867425441741943359375">
        <ele>1825.5999755859375</ele>
        <time>2026-06-17T09:28:48.000Z</time>
        <extensions>
          <ns3:TrackPointExtension>
            <ns3:atemp>18.0</ns3:atemp>
          </ns3:TrackPointExtension>
        </extensions>
      </trkpt>
      <trkpt lat="42.52033992670476436614990234375" lon="19.94851087220013141632080078125">
        <ele>1825.800048828125</ele>
        <time>2026-06-17T09:28:49.000Z</time>
        <extensions>
          <ns3:TrackPointExtension>
            <ns3:atemp>18.0</ns3:atemp>
          </ns3:TrackPointExtension>
        </extensions>
      </trkpt>
      <trkpt lat="42.52033053897321224212646484375" lon="19.9484925158321857452392578125">
        <ele>1826</ele>
        <time>2026-06-17T09:28:50.000Z</time>
        <extensions>
          <ns3:TrackPointExtension>
            <ns3:atemp>18.0</ns3:atemp>
          </ns3:TrackPointExtension>
        </extensions>
      </trkpt>
      <trkpt lat="42.520326934754848480224609375" lon="19.9484744109213352203369140625">
        <ele>1826.199951171875</ele>
        <time>2026-06-17T09:28:51.000Z</time>
        <extensions>
          <ns3:TrackPointExtension>
            <ns3:atemp>18.0</ns3:atemp>
          </ns3:TrackPointExtension>
        </extensions>
      </trkpt>
      <trkpt lat="42.52032852731645107269287109375" lon="19.9484512768685817718505859375">
        <ele>1826.4000244140625</ele>
        <time>2026-06-17T09:28:52.000Z</time>
        <extensions>
          <ns3:TrackPointExtension>
            <ns3:atemp>18.0</ns3:atemp>
          </ns3:TrackPointExtension>
        </extensions>
      </trkpt>
      <trkpt lat="42.5203312933444976806640625" lon="19.94843509979546070098876953125">
        <ele>1826.800048828125</ele>
        <time>2026-06-17T09:28:53.000Z</time>
        <extensions>
          <ns3:TrackPointExtension>
            <ns3:atemp>18.0</ns3:atemp>
          </ns3:TrackPointExtension>
        </extensions>
      </trkpt>
      <trkpt lat="42.52033908851444721221923828125" lon="19.9484150670468807220458984375">
        <ele>1827</ele>
        <time>2026-06-17T09:28:54.000Z</time>
        <extensions>
          <ns3:TrackPointExtension>
            <ns3:atemp>18.0</ns3:atemp>
          </ns3:TrackPointExtension>
        </extensions>
      </trkpt>
      <trkpt lat="42.520342357456684112548828125" lon="19.948400147259235382080078125">
        <ele>1827.199951171875</ele>
        <time>2026-06-17T09:28:55.000Z</time>
        <extensions>
          <ns3:TrackPointExtension>
            <ns3:atemp>18.0</ns3:atemp>
          </ns3:TrackPointExtension>
        </extensions>
      </trkpt>
      <trkpt lat="42.52034512348473072052001953125" lon="19.94838296435773372650146484375">
        <ele>1827.4000244140625</ele>
        <time>2026-06-17T09:28:56.000Z</time>
        <extensions>
          <ns3:TrackPointExtension>
            <ns3:atemp>18.0</ns3:atemp>
          </ns3:TrackPointExtension>
        </extensions>
      </trkpt>
      <trkpt lat="42.5203452073037624359130859375" lon="19.94836695492267608642578125">
        <ele>1827.5999755859375</ele>
        <time>2026-06-17T09:28:57.000Z</time>
        <extensions>
          <ns3:TrackPointExtension>
            <ns3:atemp>18.0</ns3:atemp>
          </ns3:TrackPointExtension>
        </extensions>
      </trkpt>
      <trkpt lat="42.52034671604633331298828125" lon="19.94834541343152523040771484375">
        <ele>1827.800048828125</ele>
        <time>2026-06-17T09:28:58.000Z</time>
        <extensions>
          <ns3:TrackPointExtension>
            <ns3:atemp>18.0</ns3:atemp>
          </ns3:TrackPointExtension>
        </extensions>
      </trkpt>
      <trkpt lat="42.52034663222730159759521484375" lon="19.94832294993102550506591796875">
        <ele>1828</ele>
        <time>2026-06-17T09:28:59.000Z</time>
        <extensions>
          <ns3:TrackPointExtension>
            <ns3:atemp>18.0</ns3:atemp>
          </ns3:TrackPointExtension>
        </extensions>
      </trkpt>
      <trkpt lat="42.5203472189605236053466796875" lon="19.9482963792979717254638671875">
        <ele>1828.199951171875</ele>
        <time>2026-06-17T09:29:00.000Z</time>
        <extensions>
          <ns3:TrackPointExtension>
            <ns3:atemp>18.0</ns3:atemp>
          </ns3:TrackPointExtension>
        </extensions>
      </trkpt>
      <trkpt lat="42.520349733531475067138671875" lon="19.94827701710164546966552734375">
        <ele>1828.4000244140625</ele>
        <time>2026-06-17T09:29:01.000Z</time>
        <extensions>
          <ns3:TrackPointExtension>
            <ns3:atemp>18.0</ns3:atemp>
          </ns3:TrackPointExtension>
        </extensions>
      </trkpt>
      <trkpt lat="42.5203509069979190826416015625" lon="19.9482554756104946136474609375">
        <ele>1828.4000244140625</ele>
        <time>2026-06-17T09:29:02.000Z</time>
        <extensions>
          <ns3:TrackPointExtension>
            <ns3:atemp>18.0</ns3:atemp>
          </ns3:TrackPointExtension>
        </extensions>
      </trkpt>
      <trkpt lat="42.52034830860793590545654296875" lon="19.9482299946248531341552734375">
        <ele>1828.5999755859375</ele>
        <time>2026-06-17T09:29:03.000Z</time>
        <extensions>
          <ns3:TrackPointExtension>
            <ns3:atemp>18.0</ns3:atemp>
          </ns3:TrackPointExtension>
        </extensions>
      </trkpt>
      <trkpt lat="42.5203482247889041900634765625" lon="19.94820292107760906219482421875">
        <ele>1828.800048828125</ele>
        <time>2026-06-17T09:29:04.000Z</time>
        <extensions>
          <ns3:TrackPointExtension>
            <ns3:atemp>18.0</ns3:atemp>
          </ns3:TrackPointExtension>
        </extensions>
      </trkpt>
      <trkpt lat="42.5203554332256317138671875" lon="19.94818548671901226043701171875">
        <ele>1829</ele>
        <time>2026-06-17T09:29:05.000Z</time>
        <extensions>
          <ns3:TrackPointExtension>
            <ns3:atemp>18.0</ns3:atemp>
          </ns3:TrackPointExtension>
        </extensions>
      </trkpt>
      <trkpt lat="42.52036473713815212249755859375" lon="19.94816369377076625823974609375">
        <ele>1829.199951171875</ele>
        <time>2026-06-17T09:29:06.000Z</time>
        <extensions>
          <ns3:TrackPointExtension>
            <ns3:atemp>18.0</ns3:atemp>
          </ns3:TrackPointExtension>
        </extensions>
      </trkpt>
      <trkpt lat="42.520374543964862823486328125" lon="19.94814525358378887176513671875">
        <ele>1829.4000244140625</ele>
        <time>2026-06-17T09:29:07.000Z</time>
        <extensions>
          <ns3:TrackPointExtension>
            <ns3:atemp>18.0</ns3:atemp>
          </ns3:TrackPointExtension>
        </extensions>
      </trkpt>
      <trkpt lat="42.5203824229538440704345703125" lon="19.9481287412345409393310546875">
        <ele>1829.5999755859375</ele>
        <time>2026-06-17T09:29:08.000Z</time>
        <extensions>
          <ns3:TrackPointExtension>
            <ns3:atemp>18.0</ns3:atemp>
          </ns3:TrackPointExtension>
        </extensions>
      </trkpt>
      <trkpt lat="42.520385272800922393798828125" lon="19.94811088778078556060791015625">
        <ele>1829.5999755859375</ele>
        <time>2026-06-17T09:29:09.000Z</time>
        <extensions>
          <ns3:TrackPointExtension>
            <ns3:atemp>18.0</ns3:atemp>
          </ns3:TrackPointExtension>
        </extensions>
      </trkpt>
      <trkpt lat="42.5203822553157806396484375" lon="19.94809202849864959716796875">
        <ele>1829.800048828125</ele>
        <time>2026-06-17T09:29:10.000Z</time>
        <extensions>
          <ns3:TrackPointExtension>
            <ns3:atemp>18.0</ns3:atemp>
          </ns3:TrackPointExtension>
        </extensions>
      </trkpt>
      <trkpt lat="42.5203763879835605621337890625" lon="19.9480636976659297943115234375">
        <ele>1830</ele>
        <time>2026-06-17T09:29:11.000Z</time>
        <extensions>
          <ns3:TrackPointExtension>
            <ns3:atemp>18.0</ns3:atemp>
          </ns3:TrackPointExtension>
        </extensions>
      </trkpt>
      <trkpt lat="42.52036549150943756103515625" lon="19.94804886169731616973876953125">
        <ele>1830.199951171875</ele>
        <time>2026-06-17T09:29:12.000Z</time>
        <extensions>
          <ns3:TrackPointExtension>
            <ns3:atemp>18.0</ns3:atemp>
          </ns3:TrackPointExtension>
        </extensions>
      </trkpt>
      <trkpt lat="42.52035434357821941375732421875" lon="19.94805472902953624725341796875">
        <ele>1830.199951171875</ele>
        <time>2026-06-17T09:29:13.000Z</time>
        <extensions>
          <ns3:TrackPointExtension>
            <ns3:atemp>18.0</ns3:atemp>
          </ns3:TrackPointExtension>
        </extensions>
      </trkpt>
      <trkpt lat="42.5203462131321430206298828125" lon="19.9480710737407207489013671875">
        <ele>1830.4000244140625</ele>
        <time>2026-06-17T09:29:14.000Z</time>
        <extensions>
          <ns3:TrackPointExtension>
            <ns3:atemp>18.0</ns3:atemp>
          </ns3:TrackPointExtension>
        </extensions>
      </trkpt>
      <trkpt lat="42.5203351490199565887451171875" lon="19.94808339513838291168212890625">
        <ele>1830.800048828125</ele>
        <time>2026-06-17T09:29:15.000Z</time>
        <extensions>
          <ns3:TrackPointExtension>
            <ns3:atemp>18.0</ns3:atemp>
          </ns3:TrackPointExtension>
        </extensions>
      </trkpt>
      <trkpt lat="42.52032165415585041046142578125" lon="19.9480913579463958740234375">
        <ele>1831</ele>
        <time>2026-06-17T09:29:16.000Z</time>
        <extensions>
          <ns3:TrackPointExtension>
            <ns3:atemp>18.0</ns3:atemp>
          </ns3:TrackPointExtension>
        </extensions>
      </trkpt>
      <trkpt lat="42.52031377516686916351318359375" lon="19.9481042660772800445556640625">
        <ele>1831.199951171875</ele>
        <time>2026-06-17T09:29:17.000Z</time>
        <extensions>
          <ns3:TrackPointExtension>
            <ns3:atemp>18.0</ns3:atemp>
          </ns3:TrackPointExtension>
        </extensions>
      </trkpt>
      <trkpt lat="42.520305477082729339599609375" lon="19.94811826385557651519775390625">
        <ele>1831.4000244140625</ele>
        <time>2026-06-17T09:29:18.000Z</time>
        <extensions>
          <ns3:TrackPointExtension>
            <ns3:atemp>18.0</ns3:atemp>
          </ns3:TrackPointExtension>
        </extensions>
      </trkpt>
      <trkpt lat="42.52030019648373126983642578125" lon="19.9481334351003170013427734375">
        <ele>1831.800048828125</ele>
        <time>2026-06-17T09:29:19.000Z</time>
        <extensions>
          <ns3:TrackPointExtension>
            <ns3:atemp>18.0</ns3:atemp>
          </ns3:TrackPointExtension>
        </extensions>
      </trkpt>
      <trkpt lat="42.52029064111411571502685546875" lon="19.94814810343086719512939453125">
        <ele>1832</ele>
        <time>2026-06-17T09:29:20.000Z</time>
        <extensions>
          <ns3:TrackPointExtension>
            <ns3:atemp>18.0</ns3:atemp>
          </ns3:TrackPointExtension>
        </extensions>
      </trkpt>
      <trkpt lat="42.5202821753919124603271484375" lon="19.94815246202051639556884765625">
        <ele>1832.199951171875</ele>
        <time>2026-06-17T09:29:21.000Z</time>
        <extensions>
          <ns3:TrackPointExtension>
            <ns3:atemp>18.0</ns3:atemp>
          </ns3:TrackPointExtension>
        </extensions>
      </trkpt>
      <trkpt lat="42.52027303911745548248291015625" lon="19.94815640151500701904296875">
        <ele>1832.4000244140625</ele>
        <time>2026-06-17T09:29:22.000Z</time>
        <extensions>
          <ns3:TrackPointExtension>
            <ns3:atemp>18.0</ns3:atemp>
          </ns3:TrackPointExtension>
        </extensions>
      </trkpt>
      <trkpt lat="42.52026281319558620452880859375" lon="19.94815866462886333465576171875">
        <ele>1832.5999755859375</ele>
        <time>2026-06-17T09:29:23.000Z</time>
        <extensions>
          <ns3:TrackPointExtension>
            <ns3:atemp>18.0</ns3:atemp>
          </ns3:TrackPointExtension>
        </extensions>
      </trkpt>
      <trkpt lat="42.52024856396019458770751953125" lon="19.94815849699079990386962890625">
        <ele>1832.800048828125</ele>
        <time>2026-06-17T09:29:24.000Z</time>
        <extensions>
          <ns3:TrackPointExtension>
            <ns3:atemp>18.0</ns3:atemp>
          </ns3:TrackPointExtension>
        </extensions>
      </trkpt>
      <trkpt lat="42.52023649401962757110595703125" lon="19.94815581478178501129150390625">
        <ele>1833.199951171875</ele>
        <time>2026-06-17T09:29:25.000Z</time>
        <extensions>
          <ns3:TrackPointExtension>
            <ns3:atemp>18.0</ns3:atemp>
          </ns3:TrackPointExtension>
        </extensions>
      </trkpt>
      <trkpt lat="42.52022542990744113922119140625" lon="19.9481557309627532958984375">
        <ele>1833.4000244140625</ele>
        <time>2026-06-17T09:29:26.000Z</time>
        <extensions>
          <ns3:TrackPointExtension>
            <ns3:atemp>18.0</ns3:atemp>
          </ns3:TrackPointExtension>
        </extensions>
      </trkpt>
      <trkpt lat="42.52021453343331813812255859375" lon="19.94815514422953128814697265625">
        <ele>1833.5999755859375</ele>
        <time>2026-06-17T09:29:27.000Z</time>
        <extensions>
          <ns3:TrackPointExtension>
            <ns3:atemp>18.0</ns3:atemp>
          </ns3:TrackPointExtension>
        </extensions>
      </trkpt>
      <trkpt lat="42.5202003680169582366943359375" lon="19.94815313257277011871337890625">
        <ele>1834</ele>
        <time>2026-06-17T09:29:28.000Z</time>
        <extensions>
          <ns3:TrackPointExtension>
            <ns3:atemp>18.0</ns3:atemp>
          </ns3:TrackPointExtension>
        </extensions>
      </trkpt>
      <trkpt lat="42.52018452621996402740478515625" lon="19.94815279729664325714111328125">
        <ele>1834.199951171875</ele>
        <time>2026-06-17T09:29:29.000Z</time>
        <extensions>
          <ns3:TrackPointExtension>
            <ns3:atemp>18.0</ns3:atemp>
          </ns3:TrackPointExtension>
        </extensions>
      </trkpt>
      <trkpt lat="42.52017128281295299530029296875" lon="19.9481545574963092803955078125">
        <ele>1834.4000244140625</ele>
        <time>2026-06-17T09:29:30.000Z</time>
        <extensions>
          <ns3:TrackPointExtension>
            <ns3:atemp>18.0</ns3:atemp>
          </ns3:TrackPointExtension>
        </extensions>
      </trkpt>
      <trkpt lat="42.5201581232249736785888671875" lon="19.9481548927724361419677734375">
        <ele>1834.5999755859375</ele>
        <time>2026-06-17T09:29:31.000Z</time>
        <extensions>
          <ns3:TrackPointExtension>
            <ns3:atemp>18.0</ns3:atemp>
          </ns3:TrackPointExtension>
        </extensions>
      </trkpt>
      <trkpt lat="42.52014152705669403076171875" lon="19.94815715588629245758056640625">
        <ele>1835</ele>
        <time>2026-06-17T09:29:32.000Z</time>
        <extensions>
          <ns3:TrackPointExtension>
            <ns3:atemp>18.0</ns3:atemp>
          </ns3:TrackPointExtension>
        </extensions>
      </trkpt>
      <trkpt lat="42.52012669108808040618896484375" lon="19.94815916754305362701416015625">
        <ele>1835.4000244140625</ele>
        <time>2026-06-17T09:29:33.000Z</time>
        <extensions>
          <ns3:TrackPointExtension>
            <ns3:atemp>18.0</ns3:atemp>
          </ns3:TrackPointExtension>
        </extensions>
      </trkpt>
      <trkpt lat="42.52011110074818134307861328125" lon="19.9481602571904659271240234375">
        <ele>1835.5999755859375</ele>
        <time>2026-06-17T09:29:34.000Z</time>
        <extensions>
          <ns3:TrackPointExtension>
            <ns3:atemp>18.0</ns3:atemp>
          </ns3:TrackPointExtension>
        </extensions>
      </trkpt>
      <trkpt lat="42.5200977735221385955810546875" lon="19.9481672979891300201416015625">
        <ele>1836</ele>
        <time>2026-06-17T09:29:35.000Z</time>
        <extensions>
          <ns3:TrackPointExtension>
            <ns3:atemp>18.0</ns3:atemp>
          </ns3:TrackPointExtension>
        </extensions>
      </trkpt>
      <trkpt lat="42.5200898945331573486328125" lon="19.94817475788295269012451171875">
        <ele>1836.199951171875</ele>
        <time>2026-06-17T09:29:36.000Z</time>
        <extensions>
          <ns3:TrackPointExtension>
            <ns3:atemp>18.0</ns3:atemp>
          </ns3:TrackPointExtension>
        </extensions>
      </trkpt>
      <trkpt lat="42.52008327282965183258056640625" lon="19.94818196631968021392822265625">
        <ele>1836.5999755859375</ele>
        <time>2026-06-17T09:29:37.000Z</time>
        <extensions>
          <ns3:TrackPointExtension>
            <ns3:atemp>18.0</ns3:atemp>
          </ns3:TrackPointExtension>
        </extensions>
      </trkpt>
      <trkpt lat="42.52007522620260715484619140625" lon="19.9481905996799468994140625">
        <ele>1837</ele>
        <time>2026-06-17T09:29:38.000Z</time>
        <extensions>
          <ns3:TrackPointExtension>
            <ns3:atemp>18.0</ns3:atemp>
          </ns3:TrackPointExtension>
        </extensions>
      </trkpt>
      <trkpt lat="42.5200696103274822235107421875" lon="19.94820409454405307769775390625">
        <ele>1837.199951171875</ele>
        <time>2026-06-17T09:29:39.000Z</time>
        <extensions>
          <ns3:TrackPointExtension>
            <ns3:atemp>18.0</ns3:atemp>
          </ns3:TrackPointExtension>
        </extensions>
      </trkpt>
      <trkpt lat="42.520060054957866668701171875" lon="19.94821515865623950958251953125">
        <ele>1837.5999755859375</ele>
        <time>2026-06-17T09:29:40.000Z</time>
        <extensions>
          <ns3:TrackPointExtension>
            <ns3:atemp>18.0</ns3:atemp>
          </ns3:TrackPointExtension>
        </extensions>
      </trkpt>
      <trkpt lat="42.52004538662731647491455078125" lon="19.9482286535203456878662109375">
        <ele>1838</ele>
        <time>2026-06-17T09:29:41.000Z</time>
        <extensions>
          <ns3:TrackPointExtension>
            <ns3:atemp>18.0</ns3:atemp>
          </ns3:TrackPointExtension>
        </extensions>
      </trkpt>
      <trkpt lat="42.52003516070544719696044921875" lon="19.948237203061580657958984375">
        <ele>1838.199951171875</ele>
        <time>2026-06-17T09:29:42.000Z</time>
        <extensions>
          <ns3:TrackPointExtension>
            <ns3:atemp>18.0</ns3:atemp>
          </ns3:TrackPointExtension>
        </extensions>
      </trkpt>
      <trkpt lat="42.520024515688419342041015625" lon="19.94824365712702274322509765625">
        <ele>1838.5999755859375</ele>
        <time>2026-06-17T09:29:43.000Z</time>
        <extensions>
          <ns3:TrackPointExtension>
            <ns3:atemp>18.0</ns3:atemp>
          </ns3:TrackPointExtension>
        </extensions>
      </trkpt>
      <trkpt lat="42.52001680433750152587890625" lon="19.94825706817209720611572265625">
        <ele>1839</ele>
        <time>2026-06-17T09:29:44.000Z</time>
        <extensions>
          <ns3:TrackPointExtension>
            <ns3:atemp>18.0</ns3:atemp>
          </ns3:TrackPointExtension>
        </extensions>
      </trkpt>
      <trkpt lat="42.520021162927150726318359375" lon="19.94826226495206356048583984375">
        <ele>1839.4000244140625</ele>
        <time>2026-06-17T09:29:45.000Z</time>
        <extensions>
          <ns3:TrackPointExtension>
            <ns3:atemp>18.0</ns3:atemp>
          </ns3:TrackPointExtension>
        </extensions>
      </trkpt>
      <trkpt lat="42.52001948654651641845703125" lon="19.94827031157910823822021484375">
        <ele>1839.800048828125</ele>
        <time>2026-06-17T09:29:46.000Z</time>
        <extensions>
          <ns3:TrackPointExtension>
            <ns3:atemp>18.0</ns3:atemp>
          </ns3:TrackPointExtension>
        </extensions>
      </trkpt>
      <trkpt lat="42.52001940272748470306396484375" lon="19.9482702277600765228271484375">
        <ele>1840</ele>
        <time>2026-06-17T09:29:47.000Z</time>
        <extensions>
          <ns3:TrackPointExtension>
            <ns3:atemp>18.0</ns3:atemp>
          </ns3:TrackPointExtension>
        </extensions>
      </trkpt>
      <trkpt lat="42.5200193189084529876708984375" lon="19.94827014394104480743408203125">
        <ele>1840.4000244140625</ele>
        <time>2026-06-17T09:29:48.000Z</time>
        <extensions>
          <ns3:TrackPointExtension>
            <ns3:atemp>18.0</ns3:atemp>
          </ns3:TrackPointExtension>
        </extensions>
      </trkpt>
      <trkpt lat="42.5200089253485202789306640625" lon="19.94826645590364933013916015625">
        <ele>1840.5999755859375</ele>
        <time>2026-06-17T09:29:49.000Z</time>
        <extensions>
          <ns3:TrackPointExtension>
            <ns3:atemp>18.0</ns3:atemp>
          </ns3:TrackPointExtension>
        </extensions>
      </trkpt>
      <trkpt lat="42.520005069673061370849609375" lon="19.94826628826558589935302734375">
        <ele>1840.800048828125</ele>
        <time>2026-06-17T09:29:50.000Z</time>
        <extensions>
          <ns3:TrackPointExtension>
            <ns3:atemp>18.0</ns3:atemp>
          </ns3:TrackPointExtension>
        </extensions>
      </trkpt>
      <trkpt lat="42.519996352493762969970703125" lon="19.94826192967593669891357421875">
        <ele>1840.800048828125</ele>
        <time>2026-06-17T09:29:51.000Z</time>
        <extensions>
          <ns3:TrackPointExtension>
            <ns3:atemp>18.0</ns3:atemp>
          </ns3:TrackPointExtension>
        </extensions>
      </trkpt>
      <trkpt lat="42.519990988075733184814453125" lon="19.9482584930956363677978515625">
        <ele>1841</ele>
        <time>2026-06-17T09:29:52.000Z</time>
        <extensions>
          <ns3:TrackPointExtension>
            <ns3:atemp>18.0</ns3:atemp>
          </ns3:TrackPointExtension>
        </extensions>
      </trkpt>
      <trkpt lat="42.51998587511479854583740234375" lon="19.948251955211162567138671875">
        <ele>1841</ele>
        <time>2026-06-17T09:29:53.000Z</time>
        <extensions>
          <ns3:TrackPointExtension>
            <ns3:atemp>18.0</ns3:atemp>
          </ns3:TrackPointExtension>
        </extensions>
      </trkpt>
      <trkpt lat="42.51998285762965679168701171875" lon="19.9482497759163379669189453125">
        <ele>1841</ele>
        <time>2026-06-17T09:29:54.000Z</time>
        <extensions>
          <ns3:TrackPointExtension>
            <ns3:atemp>18.0</ns3:atemp>
          </ns3:TrackPointExtension>
        </extensions>
      </trkpt>
      <trkpt lat="42.5199794210493564605712890625" lon="19.9482467584311962127685546875">
        <ele>1841.199951171875</ele>
        <time>2026-06-17T09:29:55.000Z</time>
        <extensions>
          <ns3:TrackPointExtension>
            <ns3:atemp>18.0</ns3:atemp>
          </ns3:TrackPointExtension>
        </extensions>
      </trkpt>
      <trkpt lat="42.51997229643166065216064453125" lon="19.94824868626892566680908203125">
        <ele>1841.4000244140625</ele>
        <time>2026-06-17T09:29:56.000Z</time>
        <extensions>
          <ns3:TrackPointExtension>
            <ns3:atemp>18.0</ns3:atemp>
          </ns3:TrackPointExtension>
        </extensions>
      </trkpt>
      <trkpt lat="42.51996508799493312835693359375" lon="19.94824650697410106658935546875">
        <ele>1841.5999755859375</ele>
        <time>2026-06-17T09:29:57.000Z</time>
        <extensions>
          <ns3:TrackPointExtension>
            <ns3:atemp>18.0</ns3:atemp>
          </ns3:TrackPointExtension>
        </extensions>
      </trkpt>
      <trkpt lat="42.51995972357690334320068359375" lon="19.94824449531733989715576171875">
        <ele>1841.800048828125</ele>
        <time>2026-06-17T09:29:58.000Z</time>
        <extensions>
          <ns3:TrackPointExtension>
            <ns3:atemp>18.0</ns3:atemp>
          </ns3:TrackPointExtension>
        </extensions>
      </trkpt>
      <trkpt lat="42.51995352096855640411376953125" lon="19.94824047200381755828857421875">
        <ele>1841.800048828125</ele>
        <time>2026-06-17T09:29:59.000Z</time>
        <extensions>
          <ns3:TrackPointExtension>
            <ns3:atemp>18.0</ns3:atemp>
          </ns3:TrackPointExtension>
        </extensions>
      </trkpt>
      <trkpt lat="42.51994949765503406524658203125" lon="19.94823460467159748077392578125">
        <ele>1842</ele>
        <time>2026-06-17T09:30:00.000Z</time>
        <extensions>
          <ns3:TrackPointExtension>
            <ns3:atemp>18.0</ns3:atemp>
          </ns3:TrackPointExtension>
        </extensions>
      </trkpt>
      <trkpt lat="42.5199438817799091339111328125" lon="19.94822890497744083404541015625">
        <ele>1842.199951171875</ele>
        <time>2026-06-17T09:30:01.000Z</time>
        <extensions>
          <ns3:TrackPointExtension>
            <ns3:atemp>18.0</ns3:atemp>
          </ns3:TrackPointExtension>
        </extensions>
      </trkpt>
      <trkpt lat="42.51993809826672077178955078125" lon="19.948227144777774810791015625">
        <ele>1842.4000244140625</ele>
        <time>2026-06-17T09:30:02.000Z</time>
        <extensions>
          <ns3:TrackPointExtension>
            <ns3:atemp>18.0</ns3:atemp>
          </ns3:TrackPointExtension>
        </extensions>
      </trkpt>
      <trkpt lat="42.51993474550545215606689453125" lon="19.94822270236909389495849609375">
        <ele>1842.4000244140625</ele>
        <time>2026-06-17T09:30:03.000Z</time>
        <extensions>
          <ns3:TrackPointExtension>
            <ns3:atemp>18.0</ns3:atemp>
          </ns3:TrackPointExtension>
        </extensions>
      </trkpt>
      <trkpt lat="42.519929967820644378662109375" lon="19.948219098150730133056640625">
        <ele>1842.5999755859375</ele>
        <time>2026-06-17T09:30:04.000Z</time>
        <extensions>
          <ns3:TrackPointExtension>
            <ns3:atemp>18.0</ns3:atemp>
          </ns3:TrackPointExtension>
        </extensions>
      </trkpt>
      <trkpt lat="42.51992334611713886260986328125" lon="19.94821364991366863250732421875">
        <ele>1842.800048828125</ele>
        <time>2026-06-17T09:30:05.000Z</time>
        <extensions>
          <ns3:TrackPointExtension>
            <ns3:atemp>18.0</ns3:atemp>
          </ns3:TrackPointExtension>
        </extensions>
      </trkpt>
      <trkpt lat="42.5199157185852527618408203125" lon="19.94820962660014629364013671875">
        <ele>1843</ele>
        <time>2026-06-17T09:30:06.000Z</time>
        <extensions>
          <ns3:TrackPointExtension>
            <ns3:atemp>18.0</ns3:atemp>
          </ns3:TrackPointExtension>
        </extensions>
      </trkpt>
      <trkpt lat="42.5199110247194766998291015625" lon="19.94820510037243366241455078125">
        <ele>1843.199951171875</ele>
        <time>2026-06-17T09:30:07.000Z</time>
        <extensions>
          <ns3:TrackPointExtension>
            <ns3:atemp>18.0</ns3:atemp>
          </ns3:TrackPointExtension>
        </extensions>
      </trkpt>
      <trkpt lat="42.5199059955775737762451171875" lon="19.9481974728405475616455078125">
        <ele>1843.4000244140625</ele>
        <time>2026-06-17T09:30:08.000Z</time>
        <extensions>
          <ns3:TrackPointExtension>
            <ns3:atemp>18.0</ns3:atemp>
          </ns3:TrackPointExtension>
        </extensions>
      </trkpt>
      <trkpt lat="42.5199056603014469146728515625" lon="19.94819269515573978424072265625">
        <ele>1843.5999755859375</ele>
        <time>2026-06-17T09:30:09.000Z</time>
        <extensions>
          <ns3:TrackPointExtension>
            <ns3:atemp>18.0</ns3:atemp>
          </ns3:TrackPointExtension>
        </extensions>
      </trkpt>
      <trkpt lat="42.5199046544730663299560546875" lon="19.948189593851566314697265625">
        <ele>1843.800048828125</ele>
        <time>2026-06-17T09:30:10.000Z</time>
        <extensions>
          <ns3:TrackPointExtension>
            <ns3:atemp>18.0</ns3:atemp>
          </ns3:TrackPointExtension>
        </extensions>
      </trkpt>
      <trkpt lat="42.51990406773984432220458984375" lon="19.948185570538043975830078125">
        <ele>1844</ele>
        <time>2026-06-17T09:30:11.000Z</time>
        <extensions>
          <ns3:TrackPointExtension>
            <ns3:atemp>18.0</ns3:atemp>
          </ns3:TrackPointExtension>
        </extensions>
      </trkpt>
      <trkpt lat="42.51990239135921001434326171875" lon="19.9481719918549060821533203125">
        <ele>1844.199951171875</ele>
        <time>2026-06-17T09:30:12.000Z</time>
        <extensions>
          <ns3:TrackPointExtension>
            <ns3:atemp>18.0</ns3:atemp>
          </ns3:TrackPointExtension>
        </extensions>
      </trkpt>
      <trkpt lat="42.5198999606072902679443359375" lon="19.9481582455337047576904296875">
        <ele>1844.199951171875</ele>
        <time>2026-06-17T09:30:13.000Z</time>
        <extensions>
          <ns3:TrackPointExtension>
            <ns3:atemp>18.0</ns3:atemp>
          </ns3:TrackPointExtension>
        </extensions>
      </trkpt>
      <trkpt lat="42.5198935903608798980712890625" lon="19.9481448344886302947998046875">
        <ele>1844.4000244140625</ele>
        <time>2026-06-17T09:30:14.000Z</time>
        <extensions>
          <ns3:TrackPointExtension>
            <ns3:atemp>18.0</ns3:atemp>
          </ns3:TrackPointExtension>
        </extensions>
      </trkpt>
      <trkpt lat="42.51988411881029605865478515625" lon="19.94813620112836360931396484375">
        <ele>1844.5999755859375</ele>
        <time>2026-06-17T09:30:15.000Z</time>
        <extensions>
          <ns3:TrackPointExtension>
            <ns3:atemp>18.0</ns3:atemp>
          </ns3:TrackPointExtension>
        </extensions>
      </trkpt>
      <trkpt lat="42.51987573690712451934814453125" lon="19.94813972152769565582275390625">
        <ele>1844.800048828125</ele>
        <time>2026-06-17T09:30:16.000Z</time>
        <extensions>
          <ns3:TrackPointExtension>
            <ns3:atemp>18.0</ns3:atemp>
          </ns3:TrackPointExtension>
        </extensions>
      </trkpt>
      <trkpt lat="42.5198701210319995880126953125" lon="19.9481438286602497100830078125">
        <ele>1845</ele>
        <time>2026-06-17T09:30:17.000Z</time>
        <extensions>
          <ns3:TrackPointExtension>
            <ns3:atemp>18.0</ns3:atemp>
          </ns3:TrackPointExtension>
        </extensions>
      </trkpt>
      <trkpt lat="42.519864924252033233642578125" lon="19.94814810343086719512939453125">
        <ele>1845.199951171875</ele>
        <time>2026-06-17T09:30:18.000Z</time>
        <extensions>
          <ns3:TrackPointExtension>
            <ns3:atemp>18.0</ns3:atemp>
          </ns3:TrackPointExtension>
        </extensions>
      </trkpt>
      <trkpt lat="42.51985779963433742523193359375" lon="19.948154725134372711181640625">
        <ele>1845.4000244140625</ele>
        <time>2026-06-17T09:30:19.000Z</time>
        <extensions>
          <ns3:TrackPointExtension>
            <ns3:atemp>18.0</ns3:atemp>
          </ns3:TrackPointExtension>
        </extensions>
      </trkpt>
      <trkpt lat="42.51985662616789340972900390625" lon="19.948154389858245849609375">
        <ele>1845.4000244140625</ele>
        <time>2026-06-17T09:30:20.000Z</time>
        <extensions>
          <ns3:TrackPointExtension>
            <ns3:atemp>18.0</ns3:atemp>
          </ns3:TrackPointExtension>
        </extensions>
      </trkpt>
      <trkpt lat="42.51985662616789340972900390625" lon="19.94815447367727756500244140625">
        <ele>1845.5999755859375</ele>
        <time>2026-06-17T09:30:21.000Z</time>
        <extensions>
          <ns3:TrackPointExtension>
            <ns3:atemp>18.0</ns3:atemp>
          </ns3:TrackPointExtension>
        </extensions>
      </trkpt>
      <trkpt lat="42.51985662616789340972900390625" lon="19.94815447367727756500244140625">
        <ele>1845.800048828125</ele>
        <time>2026-06-17T09:30:22.000Z</time>
        <extensions>
          <ns3:TrackPointExtension>
            <ns3:atemp>18.0</ns3:atemp>
          </ns3:TrackPointExtension>
        </extensions>
      </trkpt>
      <trkpt lat="42.51985662616789340972900390625" lon="19.94815447367727756500244140625">
        <ele>1845.800048828125</ele>
        <time>2026-06-17T09:30:23.000Z</time>
        <extensions>
          <ns3:TrackPointExtension>
            <ns3:atemp>18.0</ns3:atemp>
          </ns3:TrackPointExtension>
        </extensions>
      </trkpt>
      <trkpt lat="42.51985662616789340972900390625" lon="19.94815447367727756500244140625">
        <ele>1846</ele>
        <time>2026-06-17T09:30:24.000Z</time>
        <extensions>
          <ns3:TrackPointExtension>
            <ns3:atemp>18.0</ns3:atemp>
          </ns3:TrackPointExtension>
        </extensions>
      </trkpt>
      <trkpt lat="42.51985662616789340972900390625" lon="19.94815447367727756500244140625">
        <ele>1846</ele>
        <time>2026-06-17T09:30:25.000Z</time>
        <extensions>
          <ns3:TrackPointExtension>
            <ns3:atemp>18.0</ns3:atemp>
          </ns3:TrackPointExtension>
        </extensions>
      </trkpt>
      <trkpt lat="42.51985662616789340972900390625" lon="19.94815447367727756500244140625">
        <ele>1846</ele>
        <time>2026-06-17T09:30:26.000Z</time>
        <extensions>
          <ns3:TrackPointExtension>
            <ns3:atemp>18.0</ns3:atemp>
          </ns3:TrackPointExtension>
        </extensions>
      </trkpt>
      <trkpt lat="42.51985629089176654815673828125" lon="19.9481548927724361419677734375">
        <ele>1846</ele>
        <time>2026-06-17T09:30:27.000Z</time>
        <extensions>
          <ns3:TrackPointExtension>
            <ns3:atemp>18.0</ns3:atemp>
          </ns3:TrackPointExtension>
        </extensions>
      </trkpt>
      <trkpt lat="42.5198573805391788482666015625" lon="19.9481552280485630035400390625">
        <ele>1846</ele>
        <time>2026-06-17T09:30:28.000Z</time>
        <extensions>
          <ns3:TrackPointExtension>
            <ns3:atemp>18.0</ns3:atemp>
          </ns3:TrackPointExtension>
        </extensions>
      </trkpt>
      <trkpt lat="42.519858218729496002197265625" lon="19.948154054582118988037109375">
        <ele>1846</ele>
        <time>2026-06-17T09:30:29.000Z</time>
        <extensions>
          <ns3:TrackPointExtension>
            <ns3:atemp>18.0</ns3:atemp>
          </ns3:TrackPointExtension>
        </extensions>
      </trkpt>
      <trkpt lat="42.51985662616789340972900390625" lon="19.94815447367727756500244140625">
        <ele>1846</ele>
        <time>2026-06-17T09:30:30.000Z</time>
        <extensions>
          <ns3:TrackPointExtension>
            <ns3:atemp>18.0</ns3:atemp>
          </ns3:TrackPointExtension>
        </extensions>
      </trkpt>
      <trkpt lat="42.51985662616789340972900390625" lon="19.94815447367727756500244140625">
        <ele>1846</ele>
        <time>2026-06-17T09:30:31.000Z</time>
        <extensions>
          <ns3:TrackPointExtension>
            <ns3:atemp>18.0</ns3:atemp>
          </ns3:TrackPointExtension>
        </extensions>
      </trkpt>
      <trkpt lat="42.51985662616789340972900390625" lon="19.94815447367727756500244140625">
        <ele>1846</ele>
        <time>2026-06-17T09:30:32.000Z</time>
        <extensions>
          <ns3:TrackPointExtension>
            <ns3:atemp>18.0</ns3:atemp>
          </ns3:TrackPointExtension>
        </extensions>
      </trkpt>
      <trkpt lat="42.51985662616789340972900390625" lon="19.94815447367727756500244140625">
        <ele>1846</ele>
        <time>2026-06-17T09:30:33.000Z</time>
        <extensions>
          <ns3:TrackPointExtension>
            <ns3:atemp>18.0</ns3:atemp>
          </ns3:TrackPointExtension>
        </extensions>
      </trkpt>
      <trkpt lat="42.51985662616789340972900390625" lon="19.94815447367727756500244140625">
        <ele>1846</ele>
        <time>2026-06-17T09:30:34.000Z</time>
        <extensions>
          <ns3:TrackPointExtension>
            <ns3:atemp>18.0</ns3:atemp>
          </ns3:TrackPointExtension>
        </extensions>
      </trkpt>
      <trkpt lat="42.51985746435821056365966796875" lon="19.94815262965857982635498046875">
        <ele>1846</ele>
        <time>2026-06-17T09:30:35.000Z</time>
        <extensions>
          <ns3:TrackPointExtension>
            <ns3:atemp>18.0</ns3:atemp>
          </ns3:TrackPointExtension>
        </extensions>
      </trkpt>
      <trkpt lat="42.51984908245503902435302734375" lon="19.9481696449220180511474609375">
        <ele>1846</ele>
        <time>2026-06-17T09:30:36.000Z</time>
        <extensions>
          <ns3:TrackPointExtension>
            <ns3:atemp>18.0</ns3:atemp>
          </ns3:TrackPointExtension>
        </extensions>
      </trkpt>
      <trkpt lat="42.51984103582799434661865234375" lon="19.94818699546158313751220703125">
        <ele>1846</ele>
        <time>2026-06-17T09:30:37.000Z</time>
        <extensions>
          <ns3:TrackPointExtension>
            <ns3:atemp>18.0</ns3:atemp>
          </ns3:TrackPointExtension>
        </extensions>
      </trkpt>
      <trkpt lat="42.51983575522899627685546875" lon="19.94820677675306797027587890625">
        <ele>1846</ele>
        <time>2026-06-17T09:30:38.000Z</time>
        <extensions>
          <ns3:TrackPointExtension>
            <ns3:atemp>18.0</ns3:atemp>
          </ns3:TrackPointExtension>
        </extensions>
      </trkpt>
      <trkpt lat="42.51982745714485645294189453125" lon="19.94822655804455280303955078125">
        <ele>1846</ele>
        <time>2026-06-17T09:30:39.000Z</time>
        <extensions>
          <ns3:TrackPointExtension>
            <ns3:atemp>18.0</ns3:atemp>
          </ns3:TrackPointExtension>
        </extensions>
      </trkpt>
      <trkpt lat="42.51981957815587520599365234375" lon="19.94824491441249847412109375">
        <ele>1846.199951171875</ele>
        <time>2026-06-17T09:30:40.000Z</time>
        <extensions>
          <ns3:TrackPointExtension>
            <ns3:atemp>18.0</ns3:atemp>
          </ns3:TrackPointExtension>
        </extensions>
      </trkpt>
      <trkpt lat="42.51981605775654315948486328125" lon="19.94826503098011016845703125">
        <ele>1846.199951171875</ele>
        <time>2026-06-17T09:30:41.000Z</time>
        <extensions>
          <ns3:TrackPointExtension>
            <ns3:atemp>18.0</ns3:atemp>
          </ns3:TrackPointExtension>
        </extensions>
      </trkpt>
      <trkpt lat="42.5198178179562091827392578125" lon="19.9482739157974720001220703125">
        <ele>1846.5999755859375</ele>
        <time>2026-06-17T09:30:42.000Z</time>
        <extensions>
          <ns3:TrackPointExtension>
            <ns3:atemp>18.0</ns3:atemp>
          </ns3:TrackPointExtension>
        </extensions>
      </trkpt>
      <trkpt lat="42.51982175745069980621337890625" lon="19.948288165032863616943359375">
        <ele>1846.800048828125</ele>
        <time>2026-06-17T09:30:43.000Z</time>
        <extensions>
          <ns3:TrackPointExtension>
            <ns3:atemp>18.0</ns3:atemp>
          </ns3:TrackPointExtension>
        </extensions>
      </trkpt>
      <trkpt lat="42.5198174826800823211669921875" lon="19.94829076342284679412841796875">
        <ele>1847</ele>
        <time>2026-06-17T09:30:44.000Z</time>
        <extensions>
          <ns3:TrackPointExtension>
            <ns3:atemp>18.0</ns3:atemp>
          </ns3:TrackPointExtension>
        </extensions>
      </trkpt>
      <trkpt lat="42.51981161534786224365234375" lon="19.94828606955707073211669921875">
        <ele>1847.199951171875</ele>
        <time>2026-06-17T09:30:45.000Z</time>
        <extensions>
          <ns3:TrackPointExtension>
            <ns3:atemp>18.0</ns3:atemp>
          </ns3:TrackPointExtension>
        </extensions>
      </trkpt>
      <trkpt lat="42.51981153152883052825927734375" lon="19.9482898414134979248046875">
        <ele>1847.4000244140625</ele>
        <time>2026-06-17T09:30:46.000Z</time>
        <extensions>
          <ns3:TrackPointExtension>
            <ns3:atemp>18.0</ns3:atemp>
          </ns3:TrackPointExtension>
        </extensions>
      </trkpt>
      <trkpt lat="42.51981153152883052825927734375" lon="19.9482898414134979248046875">
        <ele>1847.5999755859375</ele>
        <time>2026-06-17T09:30:47.000Z</time>
        <extensions>
          <ns3:TrackPointExtension>
            <ns3:atemp>18.0</ns3:atemp>
          </ns3:TrackPointExtension>
        </extensions>
      </trkpt>
      <trkpt lat="42.51981153152883052825927734375" lon="19.94828975759446620941162109375">
        <ele>1847.5999755859375</ele>
        <time>2026-06-17T09:30:48.000Z</time>
        <extensions>
          <ns3:TrackPointExtension>
            <ns3:atemp>18.0</ns3:atemp>
          </ns3:TrackPointExtension>
        </extensions>
      </trkpt>
      <trkpt lat="42.51980650238692760467529296875" lon="19.94829344563186168670654296875">
        <ele>1847.800048828125</ele>
        <time>2026-06-17T09:30:49.000Z</time>
        <extensions>
          <ns3:TrackPointExtension>
            <ns3:atemp>18.0</ns3:atemp>
          </ns3:TrackPointExtension>
        </extensions>
      </trkpt>
      <trkpt lat="42.51980080269277095794677734375" lon="19.94830819778144359588623046875">
        <ele>1848</ele>
        <time>2026-06-17T09:30:50.000Z</time>
        <extensions>
          <ns3:TrackPointExtension>
            <ns3:atemp>18.0</ns3:atemp>
          </ns3:TrackPointExtension>
        </extensions>
      </trkpt>
      <trkpt lat="42.51979359425604343414306640625" lon="19.9483097903430461883544921875">
        <ele>1848.199951171875</ele>
        <time>2026-06-17T09:30:51.000Z</time>
        <extensions>
          <ns3:TrackPointExtension>
            <ns3:atemp>18.0</ns3:atemp>
          </ns3:TrackPointExtension>
        </extensions>
      </trkpt>
      <trkpt lat="42.5197913311421871185302734375" lon="19.9483131431043148040771484375">
        <ele>1848.4000244140625</ele>
        <time>2026-06-17T09:30:52.000Z</time>
        <extensions>
          <ns3:TrackPointExtension>
            <ns3:atemp>18.0</ns3:atemp>
          </ns3:TrackPointExtension>
        </extensions>
      </trkpt>
      <trkpt lat="42.5197894871234893798828125" lon="19.948313646018505096435546875">
        <ele>1848.4000244140625</ele>
        <time>2026-06-17T09:30:53.000Z</time>
        <extensions>
          <ns3:TrackPointExtension>
            <ns3:atemp>18.0</ns3:atemp>
          </ns3:TrackPointExtension>
        </extensions>
      </trkpt>
      <trkpt lat="42.5197894871234893798828125" lon="19.948313646018505096435546875">
        <ele>1848.5999755859375</ele>
        <time>2026-06-17T09:30:54.000Z</time>
        <extensions>
          <ns3:TrackPointExtension>
            <ns3:atemp>18.0</ns3:atemp>
          </ns3:TrackPointExtension>
        </extensions>
      </trkpt>
      <trkpt lat="42.5197894871234893798828125" lon="19.948313646018505096435546875">
        <ele>1848.800048828125</ele>
        <time>2026-06-17T09:30:55.000Z</time>
        <extensions>
          <ns3:TrackPointExtension>
            <ns3:atemp>18.0</ns3:atemp>
          </ns3:TrackPointExtension>
        </extensions>
      </trkpt>
      <trkpt lat="42.5197894871234893798828125" lon="19.948313646018505096435546875">
        <ele>1848.800048828125</ele>
        <time>2026-06-17T09:30:56.000Z</time>
        <extensions>
          <ns3:TrackPointExtension>
            <ns3:atemp>18.0</ns3:atemp>
          </ns3:TrackPointExtension>
        </extensions>
      </trkpt>
      <trkpt lat="42.51978923566639423370361328125" lon="19.94831440038979053497314453125">
        <ele>1849</ele>
        <time>2026-06-17T09:30:57.000Z</time>
        <extensions>
          <ns3:TrackPointExtension>
            <ns3:atemp>18.0</ns3:atemp>
          </ns3:TrackPointExtension>
        </extensions>
      </trkpt>
      <trkpt lat="42.5197894871234893798828125" lon="19.948313646018505096435546875">
        <ele>1849</ele>
        <time>2026-06-17T09:30:58.000Z</time>
        <extensions>
          <ns3:TrackPointExtension>
            <ns3:atemp>18.0</ns3:atemp>
          </ns3:TrackPointExtension>
        </extensions>
      </trkpt>
      <trkpt lat="42.5197894871234893798828125" lon="19.948313646018505096435546875">
        <ele>1849</ele>
        <time>2026-06-17T09:30:59.000Z</time>
        <extensions>
          <ns3:TrackPointExtension>
            <ns3:atemp>18.0</ns3:atemp>
          </ns3:TrackPointExtension>
        </extensions>
      </trkpt>
      <trkpt lat="42.5197894871234893798828125" lon="19.948313646018505096435546875">
        <ele>1849</ele>
        <time>2026-06-17T09:31:00.000Z</time>
        <extensions>
          <ns3:TrackPointExtension>
            <ns3:atemp>18.0</ns3:atemp>
          </ns3:TrackPointExtension>
        </extensions>
      </trkpt>
      <trkpt lat="42.5197894871234893798828125" lon="19.948313646018505096435546875">
        <ele>1849.199951171875</ele>
        <time>2026-06-17T09:31:01.000Z</time>
        <extensions>
          <ns3:TrackPointExtension>
            <ns3:atemp>18.0</ns3:atemp>
          </ns3:TrackPointExtension>
        </extensions>
      </trkpt>
      <trkpt lat="42.5197894871234893798828125" lon="19.948313646018505096435546875">
        <ele>1849.199951171875</ele>
        <time>2026-06-17T09:31:02.000Z</time>
        <extensions>
          <ns3:TrackPointExtension>
            <ns3:atemp>18.0</ns3:atemp>
          </ns3:TrackPointExtension>
        </extensions>
      </trkpt>
      <trkpt lat="42.5197894871234893798828125" lon="19.948313646018505096435546875">
        <ele>1849.199951171875</ele>
        <time>2026-06-17T09:31:03.000Z</time>
        <extensions>
          <ns3:TrackPointExtension>
            <ns3:atemp>18.0</ns3:atemp>
          </ns3:TrackPointExtension>
        </extensions>
      </trkpt>
      <trkpt lat="42.5197894871234893798828125" lon="19.948313646018505096435546875">
        <ele>1849.199951171875</ele>
        <time>2026-06-17T09:31:04.000Z</time>
        <extensions>
          <ns3:TrackPointExtension>
            <ns3:atemp>18.0</ns3:atemp>
          </ns3:TrackPointExtension>
        </extensions>
      </trkpt>
      <trkpt lat="42.5197894871234893798828125" lon="19.948313646018505096435546875">
        <ele>1849.199951171875</ele>
        <time>2026-06-17T09:31:05.000Z</time>
        <extensions>
          <ns3:TrackPointExtension>
            <ns3:atemp>18.0</ns3:atemp>
          </ns3:TrackPointExtension>
        </extensions>
      </trkpt>
      <trkpt lat="42.5197894871234893798828125" lon="19.948313646018505096435546875">
        <ele>1849.199951171875</ele>
        <time>2026-06-17T09:31:06.000Z</time>
        <extensions>
          <ns3:TrackPointExtension>
            <ns3:atemp>18.0</ns3:atemp>
          </ns3:TrackPointExtension>
        </extensions>
      </trkpt>
      <trkpt lat="42.5197894871234893798828125" lon="19.948313646018505096435546875">
        <ele>1849.199951171875</ele>
        <time>2026-06-17T09:31:07.000Z</time>
        <extensions>
          <ns3:TrackPointExtension>
            <ns3:atemp>18.0</ns3:atemp>
          </ns3:TrackPointExtension>
        </extensions>
      </trkpt>
      <trkpt lat="42.5197894871234893798828125" lon="19.948313646018505096435546875">
        <ele>1849.199951171875</ele>
        <time>2026-06-17T09:31:08.000Z</time>
        <extensions>
          <ns3:TrackPointExtension>
            <ns3:atemp>18.0</ns3:atemp>
          </ns3:TrackPointExtension>
        </extensions>
      </trkpt>
      <trkpt lat="42.5197894871234893798828125" lon="19.948313646018505096435546875">
        <ele>1849.199951171875</ele>
        <time>2026-06-17T09:31:09.000Z</time>
        <extensions>
          <ns3:TrackPointExtension>
            <ns3:atemp>18.0</ns3:atemp>
          </ns3:TrackPointExtension>
        </extensions>
      </trkpt>
      <trkpt lat="42.5197894871234893798828125" lon="19.948313646018505096435546875">
        <ele>1849.199951171875</ele>
        <time>2026-06-17T09:31:10.000Z</time>
        <extensions>
          <ns3:TrackPointExtension>
            <ns3:atemp>18.0</ns3:atemp>
          </ns3:TrackPointExtension>
        </extensions>
      </trkpt>
      <trkpt lat="42.5197894871234893798828125" lon="19.948313646018505096435546875">
        <ele>1849.199951171875</ele>
        <time>2026-06-17T09:31:11.000Z</time>
        <extensions>
          <ns3:TrackPointExtension>
            <ns3:atemp>18.0</ns3:atemp>
          </ns3:TrackPointExtension>
        </extensions>
      </trkpt>
      <trkpt lat="42.5197894871234893798828125" lon="19.948313646018505096435546875">
        <ele>1849.199951171875</ele>
        <time>2026-06-17T09:31:12.000Z</time>
        <extensions>
          <ns3:TrackPointExtension>
            <ns3:atemp>18.0</ns3:atemp>
          </ns3:TrackPointExtension>
        </extensions>
      </trkpt>
      <trkpt lat="42.5197894871234893798828125" lon="19.948313646018505096435546875">
        <ele>1849.199951171875</ele>
        <time>2026-06-17T09:31:13.000Z</time>
        <extensions>
          <ns3:TrackPointExtension>
            <ns3:atemp>18.0</ns3:atemp>
          </ns3:TrackPointExtension>
        </extensions>
      </trkpt>
      <trkpt lat="42.5197894871234893798828125" lon="19.948313646018505096435546875">
        <ele>1849.199951171875</ele>
        <time>2026-06-17T09:31:14.000Z</time>
        <extensions>
          <ns3:TrackPointExtension>
            <ns3:atemp>18.0</ns3:atemp>
          </ns3:TrackPointExtension>
        </extensions>
      </trkpt>
      <trkpt lat="42.5197894871234893798828125" lon="19.948313646018505096435546875">
        <ele>1849.199951171875</ele>
        <time>2026-06-17T09:31:15.000Z</time>
        <extensions>
          <ns3:TrackPointExtension>
            <ns3:atemp>18.0</ns3:atemp>
          </ns3:TrackPointExtension>
        </extensions>
      </trkpt>
      <trkpt lat="42.5197894871234893798828125" lon="19.948313646018505096435546875">
        <ele>1849.199951171875</ele>
        <time>2026-06-17T09:31:16.000Z</time>
        <extensions>
          <ns3:TrackPointExtension>
            <ns3:atemp>18.0</ns3:atemp>
          </ns3:TrackPointExtension>
        </extensions>
      </trkpt>
      <trkpt lat="42.5197894871234893798828125" lon="19.948313646018505096435546875">
        <ele>1849.199951171875</ele>
        <time>2026-06-17T09:31:17.000Z</time>
        <extensions>
          <ns3:TrackPointExtension>
            <ns3:atemp>18.0</ns3:atemp>
          </ns3:TrackPointExtension>
        </extensions>
      </trkpt>
      <trkpt lat="42.5197894871234893798828125" lon="19.948313646018505096435546875">
        <ele>1849.199951171875</ele>
        <time>2026-06-17T09:31:18.000Z</time>
        <extensions>
          <ns3:TrackPointExtension>
            <ns3:atemp>18.0</ns3:atemp>
          </ns3:TrackPointExtension>
        </extensions>
      </trkpt>
      <trkpt lat="42.5197894871234893798828125" lon="19.948313646018505096435546875">
        <ele>1849.199951171875</ele>
        <time>2026-06-17T09:31:19.000Z</time>
        <extensions>
          <ns3:TrackPointExtension>
            <ns3:atemp>18.0</ns3:atemp>
          </ns3:TrackPointExtension>
        </extensions>
      </trkpt>
      <trkpt lat="42.5197894871234893798828125" lon="19.948313646018505096435546875">
        <ele>1849.4000244140625</ele>
        <time>2026-06-17T09:31:20.000Z</time>
        <extensions>
          <ns3:TrackPointExtension>
            <ns3:atemp>18.0</ns3:atemp>
          </ns3:TrackPointExtension>
        </extensions>
      </trkpt>
      <trkpt lat="42.5197894871234893798828125" lon="19.948313646018505096435546875">
        <ele>1849.4000244140625</ele>
        <time>2026-06-17T09:31:21.000Z</time>
        <extensions>
          <ns3:TrackPointExtension>
            <ns3:atemp>18.0</ns3:atemp>
          </ns3:TrackPointExtension>
        </extensions>
      </trkpt>
      <trkpt lat="42.5197894871234893798828125" lon="19.948313646018505096435546875">
        <ele>1849.4000244140625</ele>
        <time>2026-06-17T09:31:22.000Z</time>
        <extensions>
          <ns3:TrackPointExtension>
            <ns3:atemp>18.0</ns3:atemp>
          </ns3:TrackPointExtension>
        </extensions>
      </trkpt>
      <trkpt lat="42.5197894871234893798828125" lon="19.948313646018505096435546875">
        <ele>1849.4000244140625</ele>
        <time>2026-06-17T09:31:23.000Z</time>
        <extensions>
          <ns3:TrackPointExtension>
            <ns3:atemp>18.0</ns3:atemp>
          </ns3:TrackPointExtension>
        </extensions>
      </trkpt>
      <trkpt lat="42.51978571526706218719482421875" lon="19.94832630269229412078857421875">
        <ele>1849.5999755859375</ele>
        <time>2026-06-17T09:31:24.000Z</time>
        <extensions>
          <ns3:TrackPointExtension>
            <ns3:atemp>18.0</ns3:atemp>
          </ns3:TrackPointExtension>
        </extensions>
      </trkpt>
      <trkpt lat="42.5197829492390155792236328125" lon="19.948364607989788055419921875">
        <ele>1849.5999755859375</ele>
        <time>2026-06-17T09:31:25.000Z</time>
        <extensions>
          <ns3:TrackPointExtension>
            <ns3:atemp>18.0</ns3:atemp>
          </ns3:TrackPointExtension>
        </extensions>
      </trkpt>
      <trkpt lat="42.51977934502065181732177734375" lon="19.9483775161206722259521484375">
        <ele>1849.5999755859375</ele>
        <time>2026-06-17T09:31:26.000Z</time>
        <extensions>
          <ns3:TrackPointExtension>
            <ns3:atemp>18.0</ns3:atemp>
          </ns3:TrackPointExtension>
        </extensions>
      </trkpt>
      <trkpt lat="42.51977096311748027801513671875" lon="19.94838531129062175750732421875">
        <ele>1849.5999755859375</ele>
        <time>2026-06-17T09:31:27.000Z</time>
        <extensions>
          <ns3:TrackPointExtension>
            <ns3:atemp>18.0</ns3:atemp>
          </ns3:TrackPointExtension>
        </extensions>
      </trkpt>
      <trkpt lat="42.519764006137847900390625" lon="19.9483892507851123809814453125">
        <ele>1849.800048828125</ele>
        <time>2026-06-17T09:31:28.000Z</time>
        <extensions>
          <ns3:TrackPointExtension>
            <ns3:atemp>18.0</ns3:atemp>
          </ns3:TrackPointExtension>
        </extensions>
      </trkpt>
      <trkpt lat="42.51975704915821552276611328125" lon="19.94839084334671497344970703125">
        <ele>1849.800048828125</ele>
        <time>2026-06-17T09:31:29.000Z</time>
        <extensions>
          <ns3:TrackPointExtension>
            <ns3:atemp>18.0</ns3:atemp>
          </ns3:TrackPointExtension>
        </extensions>
      </trkpt>
      <trkpt lat="42.5197514332830905914306640625" lon="19.94839520193636417388916015625">
        <ele>1850</ele>
        <time>2026-06-17T09:31:30.000Z</time>
        <extensions>
          <ns3:TrackPointExtension>
            <ns3:atemp>18.0</ns3:atemp>
          </ns3:TrackPointExtension>
        </extensions>
      </trkpt>
      <trkpt lat="42.519742548465728759765625" lon="19.9484029971063137054443359375">
        <ele>1850.199951171875</ele>
        <time>2026-06-17T09:31:31.000Z</time>
        <extensions>
          <ns3:TrackPointExtension>
            <ns3:atemp>18.0</ns3:atemp>
          </ns3:TrackPointExtension>
        </extensions>
      </trkpt>
      <trkpt lat="42.51973793841898441314697265625" lon="19.94840878061950206756591796875">
        <ele>1850.4000244140625</ele>
        <time>2026-06-17T09:31:32.000Z</time>
        <extensions>
          <ns3:TrackPointExtension>
            <ns3:atemp>18.0</ns3:atemp>
          </ns3:TrackPointExtension>
        </extensions>
      </trkpt>
      <trkpt lat="42.51973626203835010528564453125" lon="19.94840718805789947509765625">
        <ele>1850.800048828125</ele>
        <time>2026-06-17T09:31:33.000Z</time>
        <extensions>
          <ns3:TrackPointExtension>
            <ns3:atemp>18.0</ns3:atemp>
          </ns3:TrackPointExtension>
        </extensions>
      </trkpt>
      <trkpt lat="42.51973357982933521270751953125" lon="19.948410205543041229248046875">
        <ele>1851</ele>
        <time>2026-06-17T09:31:34.000Z</time>
        <extensions>
          <ns3:TrackPointExtension>
            <ns3:atemp>18.0</ns3:atemp>
          </ns3:TrackPointExtension>
        </extensions>
      </trkpt>
      <trkpt lat="42.51972720958292484283447265625" lon="19.94841414503753185272216796875">
        <ele>1851.199951171875</ele>
        <time>2026-06-17T09:31:35.000Z</time>
        <extensions>
          <ns3:TrackPointExtension>
            <ns3:atemp>18.0</ns3:atemp>
          </ns3:TrackPointExtension>
        </extensions>
      </trkpt>
      <trkpt lat="42.5197222642600536346435546875" lon="19.948414228856563568115234375">
        <ele>1851.4000244140625</ele>
        <time>2026-06-17T09:31:36.000Z</time>
        <extensions>
          <ns3:TrackPointExtension>
            <ns3:atemp>18.0</ns3:atemp>
          </ns3:TrackPointExtension>
        </extensions>
      </trkpt>
      <trkpt lat="42.519714049994945526123046875" lon="19.94841464795172214508056640625">
        <ele>1851.5999755859375</ele>
        <time>2026-06-17T09:31:37.000Z</time>
        <extensions>
          <ns3:TrackPointExtension>
            <ns3:atemp>18.0</ns3:atemp>
          </ns3:TrackPointExtension>
        </extensions>
      </trkpt>
      <trkpt lat="42.5197063386440277099609375" lon="19.9484167434275150299072265625">
        <ele>1851.5999755859375</ele>
        <time>2026-06-17T09:31:38.000Z</time>
        <extensions>
          <ns3:TrackPointExtension>
            <ns3:atemp>18.0</ns3:atemp>
          </ns3:TrackPointExtension>
        </extensions>
      </trkpt>
      <trkpt lat="42.51970164477825164794921875" lon="19.948416911065578460693359375">
        <ele>1851.800048828125</ele>
        <time>2026-06-17T09:31:39.000Z</time>
        <extensions>
          <ns3:TrackPointExtension>
            <ns3:atemp>18.0</ns3:atemp>
          </ns3:TrackPointExtension>
        </extensions>
      </trkpt>
      <trkpt lat="42.5196956098079681396484375" lon="19.9484197609126567840576171875">
        <ele>1852</ele>
        <time>2026-06-17T09:31:40.000Z</time>
        <extensions>
          <ns3:TrackPointExtension>
            <ns3:atemp>18.0</ns3:atemp>
          </ns3:TrackPointExtension>
        </extensions>
      </trkpt>
      <trkpt lat="42.51969083212316036224365234375" lon="19.948424287140369415283203125">
        <ele>1852.199951171875</ele>
        <time>2026-06-17T09:31:41.000Z</time>
        <extensions>
          <ns3:TrackPointExtension>
            <ns3:atemp>18.0</ns3:atemp>
          </ns3:TrackPointExtension>
        </extensions>
      </trkpt>
      <trkpt lat="42.5196873955428600311279296875" lon="19.948428310453891754150390625">
        <ele>1852.4000244140625</ele>
        <time>2026-06-17T09:31:42.000Z</time>
        <extensions>
          <ns3:TrackPointExtension>
            <ns3:atemp>18.0</ns3:atemp>
          </ns3:TrackPointExtension>
        </extensions>
      </trkpt>
      <trkpt lat="42.5196813605725765228271484375" lon="19.94843074120581150054931640625">
        <ele>1852.5999755859375</ele>
        <time>2026-06-17T09:31:43.000Z</time>
        <extensions>
          <ns3:TrackPointExtension>
            <ns3:atemp>18.0</ns3:atemp>
          </ns3:TrackPointExtension>
        </extensions>
      </trkpt>
      <trkpt lat="42.51967675052583217620849609375" lon="19.94843509979546070098876953125">
        <ele>1852.800048828125</ele>
        <time>2026-06-17T09:31:44.000Z</time>
        <extensions>
          <ns3:TrackPointExtension>
            <ns3:atemp>18.0</ns3:atemp>
          </ns3:TrackPointExtension>
        </extensions>
      </trkpt>
      <trkpt lat="42.51967088319361209869384765625" lon="19.94844029657542705535888671875">
        <ele>1853</ele>
        <time>2026-06-17T09:31:45.000Z</time>
        <extensions>
          <ns3:TrackPointExtension>
            <ns3:atemp>18.0</ns3:atemp>
          </ns3:TrackPointExtension>
        </extensions>
      </trkpt>
      <trkpt lat="42.519663088023662567138671875" lon="19.948447756469249725341796875">
        <ele>1853.199951171875</ele>
        <time>2026-06-17T09:31:46.000Z</time>
        <extensions>
          <ns3:TrackPointExtension>
            <ns3:atemp>18.0</ns3:atemp>
          </ns3:TrackPointExtension>
        </extensions>
      </trkpt>
      <trkpt lat="42.5196615792810916900634765625" lon="19.948454461991786956787109375">
        <ele>1853.4000244140625</ele>
        <time>2026-06-17T09:31:47.000Z</time>
        <extensions>
          <ns3:TrackPointExtension>
            <ns3:atemp>18.0</ns3:atemp>
          </ns3:TrackPointExtension>
        </extensions>
      </trkpt>
      <trkpt lat="42.519656382501125335693359375" lon="19.94845856912434101104736328125">
        <ele>1853.5999755859375</ele>
        <time>2026-06-17T09:31:48.000Z</time>
        <extensions>
          <ns3:TrackPointExtension>
            <ns3:atemp>18.0</ns3:atemp>
          </ns3:TrackPointExtension>
        </extensions>
      </trkpt>
      <trkpt lat="42.51964808441698551177978515625" lon="19.94846326299011707305908203125">
        <ele>1853.800048828125</ele>
        <time>2026-06-17T09:31:49.000Z</time>
        <extensions>
          <ns3:TrackPointExtension>
            <ns3:atemp>18.0</ns3:atemp>
          </ns3:TrackPointExtension>
        </extensions>
      </trkpt>
      <trkpt lat="42.5196438096463680267333984375" lon="19.94846829213201999664306640625">
        <ele>1854</ele>
        <time>2026-06-17T09:31:50.000Z</time>
        <extensions>
          <ns3:TrackPointExtension>
            <ns3:atemp>18.0</ns3:atemp>
          </ns3:TrackPointExtension>
        </extensions>
      </trkpt>
      <trkpt lat="42.51964003778994083404541015625" lon="19.94847483001649379730224609375">
        <ele>1854.199951171875</ele>
        <time>2026-06-17T09:31:51.000Z</time>
        <extensions>
          <ns3:TrackPointExtension>
            <ns3:atemp>18.0</ns3:atemp>
          </ns3:TrackPointExtension>
        </extensions>
      </trkpt>
      <trkpt lat="42.51963819377124309539794921875" lon="19.9484804458916187286376953125">
        <ele>1854.4000244140625</ele>
        <time>2026-06-17T09:31:52.000Z</time>
        <extensions>
          <ns3:TrackPointExtension>
            <ns3:atemp>18.0</ns3:atemp>
          </ns3:TrackPointExtension>
        </extensions>
      </trkpt>
      <trkpt lat="42.519634924829006195068359375" lon="19.94848421774804592132568359375">
        <ele>1854.5999755859375</ele>
        <time>2026-06-17T09:31:53.000Z</time>
        <extensions>
          <ns3:TrackPointExtension>
            <ns3:atemp>18.0</ns3:atemp>
          </ns3:TrackPointExtension>
        </extensions>
      </trkpt>
      <trkpt lat="42.519631572067737579345703125" lon="19.94848430156707763671875">
        <ele>1854.800048828125</ele>
        <time>2026-06-17T09:31:54.000Z</time>
        <extensions>
          <ns3:TrackPointExtension>
            <ns3:atemp>18.0</ns3:atemp>
          </ns3:TrackPointExtension>
        </extensions>
      </trkpt>
      <trkpt lat="42.51962528564035892486572265625" lon="19.94848187081515789031982421875">
        <ele>1855</ele>
        <time>2026-06-17T09:31:55.000Z</time>
        <extensions>
          <ns3:TrackPointExtension>
            <ns3:atemp>18.0</ns3:atemp>
          </ns3:TrackPointExtension>
        </extensions>
      </trkpt>
      <trkpt lat="42.51961975358426570892333984375" lon="19.94847650639712810516357421875">
        <ele>1855</ele>
        <time>2026-06-17T09:31:56.000Z</time>
        <extensions>
          <ns3:TrackPointExtension>
            <ns3:atemp>18.0</ns3:atemp>
          </ns3:TrackPointExtension>
        </extensions>
      </trkpt>
      <trkpt lat="42.519614808261394500732421875" lon="19.94847550056874752044677734375">
        <ele>1855.199951171875</ele>
        <time>2026-06-17T09:31:57.000Z</time>
        <extensions>
          <ns3:TrackPointExtension>
            <ns3:atemp>18.0</ns3:atemp>
          </ns3:TrackPointExtension>
        </extensions>
      </trkpt>
      <trkpt lat="42.51960701309144496917724609375" lon="19.948472566902637481689453125">
        <ele>1855.4000244140625</ele>
        <time>2026-06-17T09:31:58.000Z</time>
        <extensions>
          <ns3:TrackPointExtension>
            <ns3:atemp>18.0</ns3:atemp>
          </ns3:TrackPointExtension>
        </extensions>
      </trkpt>
      <trkpt lat="42.51959837973117828369140625" lon="19.94847298599779605865478515625">
        <ele>1855.5999755859375</ele>
        <time>2026-06-17T09:31:59.000Z</time>
        <extensions>
          <ns3:TrackPointExtension>
            <ns3:atemp>18.0</ns3:atemp>
          </ns3:TrackPointExtension>
        </extensions>
      </trkpt>
      <trkpt lat="42.51958874054253101348876953125" lon="19.948474578559398651123046875">
        <ele>1855.800048828125</ele>
        <time>2026-06-17T09:32:00.000Z</time>
        <extensions>
          <ns3:TrackPointExtension>
            <ns3:atemp>18.0</ns3:atemp>
          </ns3:TrackPointExtension>
        </extensions>
      </trkpt>
      <trkpt lat="42.51957985572516918182373046875" lon="19.94847684167325496673583984375">
        <ele>1856</ele>
        <time>2026-06-17T09:32:01.000Z</time>
        <extensions>
          <ns3:TrackPointExtension>
            <ns3:atemp>18.0</ns3:atemp>
          </ns3:TrackPointExtension>
        </extensions>
      </trkpt>
      <trkpt lat="42.51957616768777370452880859375" lon="19.9484791047871112823486328125">
        <ele>1856.199951171875</ele>
        <time>2026-06-17T09:32:02.000Z</time>
        <extensions>
          <ns3:TrackPointExtension>
            <ns3:atemp>18.0</ns3:atemp>
          </ns3:TrackPointExtension>
        </extensions>
      </trkpt>
      <trkpt lat="42.51956979744136333465576171875" lon="19.9484804458916187286376953125">
        <ele>1856.4000244140625</ele>
        <time>2026-06-17T09:32:03.000Z</time>
        <extensions>
          <ns3:TrackPointExtension>
            <ns3:atemp>18.0</ns3:atemp>
          </ns3:TrackPointExtension>
        </extensions>
      </trkpt>
      <trkpt lat="42.51956359483301639556884765625" lon="19.9484804458916187286376953125">
        <ele>1856.5999755859375</ele>
        <time>2026-06-17T09:32:04.000Z</time>
        <extensions>
          <ns3:TrackPointExtension>
            <ns3:atemp>18.0</ns3:atemp>
          </ns3:TrackPointExtension>
        </extensions>
      </trkpt>
      <trkpt lat="42.51955890096724033355712890625" lon="19.94848254136741161346435546875">
        <ele>1856.800048828125</ele>
        <time>2026-06-17T09:32:05.000Z</time>
        <extensions>
          <ns3:TrackPointExtension>
            <ns3:atemp>18.0</ns3:atemp>
          </ns3:TrackPointExtension>
        </extensions>
      </trkpt>
      <trkpt lat="42.51956208609044551849365234375" lon="19.9484802782535552978515625">
        <ele>1857</ele>
        <time>2026-06-17T09:32:06.000Z</time>
        <extensions>
          <ns3:TrackPointExtension>
            <ns3:atemp>18.0</ns3:atemp>
          </ns3:TrackPointExtension>
        </extensions>
      </trkpt>
      <trkpt lat="42.51956208609044551849365234375" lon="19.94848019443452358245849609375">
        <ele>1857.199951171875</ele>
        <time>2026-06-17T09:32:07.000Z</time>
        <extensions>
          <ns3:TrackPointExtension>
            <ns3:atemp>18.0</ns3:atemp>
          </ns3:TrackPointExtension>
        </extensions>
      </trkpt>
      <trkpt lat="42.51956208609044551849365234375" lon="19.94848019443452358245849609375">
        <ele>1857.199951171875</ele>
        <time>2026-06-17T09:32:08.000Z</time>
        <extensions>
          <ns3:TrackPointExtension>
            <ns3:atemp>18.0</ns3:atemp>
          </ns3:TrackPointExtension>
        </extensions>
      </trkpt>
      <trkpt lat="42.51956208609044551849365234375" lon="19.94848019443452358245849609375">
        <ele>1857.4000244140625</ele>
        <time>2026-06-17T09:32:09.000Z</time>
        <extensions>
          <ns3:TrackPointExtension>
            <ns3:atemp>18.0</ns3:atemp>
          </ns3:TrackPointExtension>
        </extensions>
      </trkpt>
      <trkpt lat="42.51956208609044551849365234375" lon="19.948479942977428436279296875">
        <ele>1857.5999755859375</ele>
        <time>2026-06-17T09:32:10.000Z</time>
        <extensions>
          <ns3:TrackPointExtension>
            <ns3:atemp>18.0</ns3:atemp>
          </ns3:TrackPointExtension>
        </extensions>
      </trkpt>
      <trkpt lat="42.519559822976589202880859375" lon="19.9484703876078128814697265625">
        <ele>1857.5999755859375</ele>
        <time>2026-06-17T09:32:11.000Z</time>
        <extensions>
          <ns3:TrackPointExtension>
            <ns3:atemp>18.0</ns3:atemp>
          </ns3:TrackPointExtension>
        </extensions>
      </trkpt>
      <trkpt lat="42.51956208609044551849365234375" lon="19.94848019443452358245849609375">
        <ele>1857.5999755859375</ele>
        <time>2026-06-17T09:32:12.000Z</time>
        <extensions>
          <ns3:TrackPointExtension>
            <ns3:atemp>18.0</ns3:atemp>
          </ns3:TrackPointExtension>
        </extensions>
      </trkpt>
      <trkpt lat="42.51956208609044551849365234375" lon="19.94848019443452358245849609375">
        <ele>1857.5999755859375</ele>
        <time>2026-06-17T09:32:13.000Z</time>
        <extensions>
          <ns3:TrackPointExtension>
            <ns3:atemp>18.0</ns3:atemp>
          </ns3:TrackPointExtension>
        </extensions>
      </trkpt>
      <trkpt lat="42.51956208609044551849365234375" lon="19.94848019443452358245849609375">
        <ele>1857.5999755859375</ele>
        <time>2026-06-17T09:32:14.000Z</time>
        <extensions>
          <ns3:TrackPointExtension>
            <ns3:atemp>18.0</ns3:atemp>
          </ns3:TrackPointExtension>
        </extensions>
      </trkpt>
      <trkpt lat="42.51956208609044551849365234375" lon="19.94848019443452358245849609375">
        <ele>1857.5999755859375</ele>
        <time>2026-06-17T09:32:15.000Z</time>
        <extensions>
          <ns3:TrackPointExtension>
            <ns3:atemp>18.0</ns3:atemp>
          </ns3:TrackPointExtension>
        </extensions>
      </trkpt>
      <trkpt lat="42.51956208609044551849365234375" lon="19.94848019443452358245849609375">
        <ele>1857.5999755859375</ele>
        <time>2026-06-17T09:32:16.000Z</time>
        <extensions>
          <ns3:TrackPointExtension>
            <ns3:atemp>18.0</ns3:atemp>
          </ns3:TrackPointExtension>
        </extensions>
      </trkpt>
      <trkpt lat="42.51956208609044551849365234375" lon="19.94848019443452358245849609375">
        <ele>1857.5999755859375</ele>
        <time>2026-06-17T09:32:17.000Z</time>
        <extensions>
          <ns3:TrackPointExtension>
            <ns3:atemp>18.0</ns3:atemp>
          </ns3:TrackPointExtension>
        </extensions>
      </trkpt>
      <trkpt lat="42.519561164081096649169921875" lon="19.94847399182617664337158203125">
        <ele>1857.5999755859375</ele>
        <time>2026-06-17T09:32:18.000Z</time>
        <extensions>
          <ns3:TrackPointExtension>
            <ns3:atemp>18.0</ns3:atemp>
          </ns3:TrackPointExtension>
        </extensions>
      </trkpt>
      <trkpt lat="42.51954817213118076324462890625" lon="19.94848757050931453704833984375">
        <ele>1857.5999755859375</ele>
        <time>2026-06-17T09:32:19.000Z</time>
        <extensions>
          <ns3:TrackPointExtension>
            <ns3:atemp>18.0</ns3:atemp>
          </ns3:TrackPointExtension>
        </extensions>
      </trkpt>
      <trkpt lat="42.5195373594760894775390625" lon="19.948500730097293853759765625">
        <ele>1857.5999755859375</ele>
        <time>2026-06-17T09:32:20.000Z</time>
        <extensions>
          <ns3:TrackPointExtension>
            <ns3:atemp>18.0</ns3:atemp>
          </ns3:TrackPointExtension>
        </extensions>
      </trkpt>
      <trkpt lat="42.51952704973518848419189453125" lon="19.9485099501907825469970703125">
        <ele>1857.800048828125</ele>
        <time>2026-06-17T09:32:21.000Z</time>
        <extensions>
          <ns3:TrackPointExtension>
            <ns3:atemp>18.0</ns3:atemp>
          </ns3:TrackPointExtension>
        </extensions>
      </trkpt>
      <trkpt lat="42.51951447688043117523193359375" lon="19.94851472787559032440185546875">
        <ele>1858</ele>
        <time>2026-06-17T09:32:22.000Z</time>
        <extensions>
          <ns3:TrackPointExtension>
            <ns3:atemp>18.0</ns3:atemp>
          </ns3:TrackPointExtension>
        </extensions>
      </trkpt>
      <trkpt lat="42.5195013172924518585205078125" lon="19.9485179968178272247314453125">
        <ele>1858.199951171875</ele>
        <time>2026-06-17T09:32:23.000Z</time>
        <extensions>
          <ns3:TrackPointExtension>
            <ns3:atemp>18.0</ns3:atemp>
          </ns3:TrackPointExtension>
        </extensions>
      </trkpt>
      <trkpt lat="42.5194915942847728729248046875" lon="19.9485213495790958404541015625">
        <ele>1858.4000244140625</ele>
        <time>2026-06-17T09:32:24.000Z</time>
        <extensions>
          <ns3:TrackPointExtension>
            <ns3:atemp>18.0</ns3:atemp>
          </ns3:TrackPointExtension>
        </extensions>
      </trkpt>
      <trkpt lat="42.51948061399161815643310546875" lon="19.94853434152901172637939453125">
        <ele>1858.800048828125</ele>
        <time>2026-06-17T09:32:25.000Z</time>
        <extensions>
          <ns3:TrackPointExtension>
            <ns3:atemp>18.0</ns3:atemp>
          </ns3:TrackPointExtension>
        </extensions>
      </trkpt>
      <trkpt lat="42.51946971751749515533447265625" lon="19.94854859076440334320068359375">
        <ele>1859</ele>
        <time>2026-06-17T09:32:26.000Z</time>
        <extensions>
          <ns3:TrackPointExtension>
            <ns3:atemp>18.0</ns3:atemp>
          </ns3:TrackPointExtension>
        </extensions>
      </trkpt>
      <trkpt lat="42.51946016214787960052490234375" lon="19.94856099598109722137451171875">
        <ele>1859.4000244140625</ele>
        <time>2026-06-17T09:32:27.000Z</time>
        <extensions>
          <ns3:TrackPointExtension>
            <ns3:atemp>18.0</ns3:atemp>
          </ns3:TrackPointExtension>
        </extensions>
      </trkpt>
      <trkpt lat="42.51945328898727893829345703125" lon="19.948575496673583984375">
        <ele>1859.800048828125</ele>
        <time>2026-06-17T09:32:28.000Z</time>
        <extensions>
          <ns3:TrackPointExtension>
            <ns3:atemp>18.0</ns3:atemp>
          </ns3:TrackPointExtension>
        </extensions>
      </trkpt>
      <trkpt lat="42.51944415271282196044921875" lon="19.9485902488231658935546875">
        <ele>1860.199951171875</ele>
        <time>2026-06-17T09:32:29.000Z</time>
        <extensions>
          <ns3:TrackPointExtension>
            <ns3:atemp>18.0</ns3:atemp>
          </ns3:TrackPointExtension>
        </extensions>
      </trkpt>
      <trkpt lat="42.51943744719028472900390625" lon="19.94860273785889148712158203125">
        <ele>1860.5999755859375</ele>
        <time>2026-06-17T09:32:30.000Z</time>
        <extensions>
          <ns3:TrackPointExtension>
            <ns3:atemp>18.0</ns3:atemp>
          </ns3:TrackPointExtension>
        </extensions>
      </trkpt>
      <trkpt lat="42.5194282270967960357666015625" lon="19.94862067513167858123779296875">
        <ele>1861.199951171875</ele>
        <time>2026-06-17T09:32:31.000Z</time>
        <extensions>
          <ns3:TrackPointExtension>
            <ns3:atemp>18.0</ns3:atemp>
          </ns3:TrackPointExtension>
        </extensions>
      </trkpt>
      <trkpt lat="42.51941657625138759613037109375" lon="19.94863693602383136749267578125">
        <ele>1861.5999755859375</ele>
        <time>2026-06-17T09:32:32.000Z</time>
        <extensions>
          <ns3:TrackPointExtension>
            <ns3:atemp>18.0</ns3:atemp>
          </ns3:TrackPointExtension>
        </extensions>
      </trkpt>
      <trkpt lat="42.51940987072885036468505859375" lon="19.94864900596439838409423828125">
        <ele>1861.800048828125</ele>
        <time>2026-06-17T09:32:33.000Z</time>
        <extensions>
          <ns3:TrackPointExtension>
            <ns3:atemp>18.0</ns3:atemp>
          </ns3:TrackPointExtension>
        </extensions>
      </trkpt>
      <trkpt lat="42.5194010697305202484130859375" lon="19.94865805841982364654541015625">
        <ele>1862.199951171875</ele>
        <time>2026-06-17T09:32:34.000Z</time>
        <extensions>
          <ns3:TrackPointExtension>
            <ns3:atemp>18.0</ns3:atemp>
          </ns3:TrackPointExtension>
        </extensions>
      </trkpt>
      <trkpt lat="42.5193977169692516326904296875" lon="19.9486638419330120086669921875">
        <ele>1862.5999755859375</ele>
        <time>2026-06-17T09:32:35.000Z</time>
        <extensions>
          <ns3:TrackPointExtension>
            <ns3:atemp>18.0</ns3:atemp>
          </ns3:TrackPointExtension>
        </extensions>
      </trkpt>
      <trkpt lat="42.519397549331188201904296875" lon="19.948664009571075439453125">
        <ele>1863</ele>
        <time>2026-06-17T09:32:36.000Z</time>
        <extensions>
          <ns3:TrackPointExtension>
            <ns3:atemp>18.0</ns3:atemp>
          </ns3:TrackPointExtension>
        </extensions>
      </trkpt>
      <trkpt lat="42.51939746551215648651123046875" lon="19.94866426102817058563232421875">
        <ele>1863.4000244140625</ele>
        <time>2026-06-17T09:32:37.000Z</time>
        <extensions>
          <ns3:TrackPointExtension>
            <ns3:atemp>18.0</ns3:atemp>
          </ns3:TrackPointExtension>
        </extensions>
      </trkpt>
      <trkpt lat="42.5193889997899532318115234375" lon="19.9486886523663997650146484375">
        <ele>1863.5999755859375</ele>
        <time>2026-06-17T09:32:38.000Z</time>
        <extensions>
          <ns3:TrackPointExtension>
            <ns3:atemp>18.0</ns3:atemp>
          </ns3:TrackPointExtension>
        </extensions>
      </trkpt>
      <trkpt lat="42.51938656903803348541259765625" lon="19.94869896210730075836181640625">
        <ele>1863.800048828125</ele>
        <time>2026-06-17T09:32:39.000Z</time>
        <extensions>
          <ns3:TrackPointExtension>
            <ns3:atemp>18.0</ns3:atemp>
          </ns3:TrackPointExtension>
        </extensions>
      </trkpt>
      <trkpt lat="42.51938640139997005462646484375" lon="19.94871119968593120574951171875">
        <ele>1864</ele>
        <time>2026-06-17T09:32:40.000Z</time>
        <extensions>
          <ns3:TrackPointExtension>
            <ns3:atemp>18.0</ns3:atemp>
          </ns3:TrackPointExtension>
        </extensions>
      </trkpt>
      <trkpt lat="42.51938791014254093170166015625" lon="19.94872343726456165313720703125">
        <ele>1864.199951171875</ele>
        <time>2026-06-17T09:32:41.000Z</time>
        <extensions>
          <ns3:TrackPointExtension>
            <ns3:atemp>18.0</ns3:atemp>
          </ns3:TrackPointExtension>
        </extensions>
      </trkpt>
      <trkpt lat="42.519386149942874908447265625" lon="19.9487275443971157073974609375">
        <ele>1864.4000244140625</ele>
        <time>2026-06-17T09:32:42.000Z</time>
        <extensions>
          <ns3:TrackPointExtension>
            <ns3:atemp>18.0</ns3:atemp>
          </ns3:TrackPointExtension>
        </extensions>
      </trkpt>
      <trkpt lat="42.5193859823048114776611328125" lon="19.94872896932065486907958984375">
        <ele>1864.5999755859375</ele>
        <time>2026-06-17T09:32:43.000Z</time>
        <extensions>
          <ns3:TrackPointExtension>
            <ns3:atemp>18.0</ns3:atemp>
          </ns3:TrackPointExtension>
        </extensions>
      </trkpt>
      <trkpt lat="42.51938606612384319305419921875" lon="19.9487288855016231536865234375">
        <ele>1864.800048828125</ele>
        <time>2026-06-17T09:32:44.000Z</time>
        <extensions>
          <ns3:TrackPointExtension>
            <ns3:atemp>18.0</ns3:atemp>
          </ns3:TrackPointExtension>
        </extensions>
      </trkpt>
      <trkpt lat="42.51938606612384319305419921875" lon="19.9487288855016231536865234375">
        <ele>1865</ele>
        <time>2026-06-17T09:32:45.000Z</time>
        <extensions>
          <ns3:TrackPointExtension>
            <ns3:atemp>18.0</ns3:atemp>
          </ns3:TrackPointExtension>
        </extensions>
      </trkpt>
      <trkpt lat="42.51938623376190662384033203125" lon="19.9487288855016231536865234375">
        <ele>1865</ele>
        <time>2026-06-17T09:32:46.000Z</time>
        <extensions>
          <ns3:TrackPointExtension>
            <ns3:atemp>18.0</ns3:atemp>
          </ns3:TrackPointExtension>
        </extensions>
      </trkpt>
      <trkpt lat="42.51938003115355968475341796875" lon="19.94873969815671443939208984375">
        <ele>1865.199951171875</ele>
        <time>2026-06-17T09:32:47.000Z</time>
        <extensions>
          <ns3:TrackPointExtension>
            <ns3:atemp>18.0</ns3:atemp>
          </ns3:TrackPointExtension>
        </extensions>
      </trkpt>
      <trkpt lat="42.5193745829164981842041015625" lon="19.94874858297407627105712890625">
        <ele>1865.199951171875</ele>
        <time>2026-06-17T09:32:48.000Z</time>
        <extensions>
          <ns3:TrackPointExtension>
            <ns3:atemp>18.0</ns3:atemp>
          </ns3:TrackPointExtension>
        </extensions>
      </trkpt>
      <trkpt lat="42.51936326734721660614013671875" lon="19.94876031763851642608642578125">
        <ele>1865.199951171875</ele>
        <time>2026-06-17T09:32:49.000Z</time>
        <extensions>
          <ns3:TrackPointExtension>
            <ns3:atemp>18.0</ns3:atemp>
          </ns3:TrackPointExtension>
        </extensions>
      </trkpt>
      <trkpt lat="42.519348599016666412353515625" lon="19.948765598237514495849609375">
        <ele>1865.4000244140625</ele>
        <time>2026-06-17T09:32:50.000Z</time>
        <extensions>
          <ns3:TrackPointExtension>
            <ns3:atemp>18.0</ns3:atemp>
          </ns3:TrackPointExtension>
        </extensions>
      </trkpt>
      <trkpt lat="42.51933426596224308013916015625" lon="19.94877221994102001190185546875">
        <ele>1865.5999755859375</ele>
        <time>2026-06-17T09:32:51.000Z</time>
        <extensions>
          <ns3:TrackPointExtension>
            <ns3:atemp>18.0</ns3:atemp>
          </ns3:TrackPointExtension>
        </extensions>
      </trkpt>
      <trkpt lat="42.51932554878294467926025390625" lon="19.94878194294869899749755859375">
        <ele>1865.800048828125</ele>
        <time>2026-06-17T09:32:52.000Z</time>
        <extensions>
          <ns3:TrackPointExtension>
            <ns3:atemp>18.0</ns3:atemp>
          </ns3:TrackPointExtension>
        </extensions>
      </trkpt>
      <trkpt lat="42.51931549049913883209228515625" lon="19.9487922526895999908447265625">
        <ele>1866</ele>
        <time>2026-06-17T09:32:53.000Z</time>
        <extensions>
          <ns3:TrackPointExtension>
            <ns3:atemp>18.0</ns3:atemp>
          </ns3:TrackPointExtension>
        </extensions>
      </trkpt>
      <trkpt lat="42.51931230537593364715576171875" lon="19.94880826212465763092041015625">
        <ele>1866.4000244140625</ele>
        <time>2026-06-17T09:32:54.000Z</time>
        <extensions>
          <ns3:TrackPointExtension>
            <ns3:atemp>18.0</ns3:atemp>
          </ns3:TrackPointExtension>
        </extensions>
      </trkpt>
      <trkpt lat="42.5193105451762676239013671875" lon="19.94882334955036640167236328125">
        <ele>1866.5999755859375</ele>
        <time>2026-06-17T09:32:55.000Z</time>
        <extensions>
          <ns3:TrackPointExtension>
            <ns3:atemp>18.0</ns3:atemp>
          </ns3:TrackPointExtension>
        </extensions>
      </trkpt>
      <trkpt lat="42.5193018279969692230224609375" lon="19.94883768260478973388671875">
        <ele>1867</ele>
        <time>2026-06-17T09:32:56.000Z</time>
        <extensions>
          <ns3:TrackPointExtension>
            <ns3:atemp>18.0</ns3:atemp>
          </ns3:TrackPointExtension>
        </extensions>
      </trkpt>
      <trkpt lat="42.51929185353219509124755859375" lon="19.94884598068892955780029296875">
        <ele>1867.199951171875</ele>
        <time>2026-06-17T09:32:57.000Z</time>
        <extensions>
          <ns3:TrackPointExtension>
            <ns3:atemp>18.0</ns3:atemp>
          </ns3:TrackPointExtension>
        </extensions>
      </trkpt>
      <trkpt lat="42.519276849925518035888671875" lon="19.9488583020865917205810546875">
        <ele>1867.4000244140625</ele>
        <time>2026-06-17T09:32:58.000Z</time>
        <extensions>
          <ns3:TrackPointExtension>
            <ns3:atemp>18.0</ns3:atemp>
          </ns3:TrackPointExtension>
        </extensions>
      </trkpt>
      <trkpt lat="42.51926637254655361175537109375" lon="19.94886391796171665191650390625">
        <ele>1867.5999755859375</ele>
        <time>2026-06-17T09:32:59.000Z</time>
        <extensions>
          <ns3:TrackPointExtension>
            <ns3:atemp>18.0</ns3:atemp>
          </ns3:TrackPointExtension>
        </extensions>
      </trkpt>
      <trkpt lat="42.5192530453205108642578125" lon="19.948867857456207275390625">
        <ele>1867.800048828125</ele>
        <time>2026-06-17T09:33:00.000Z</time>
        <extensions>
          <ns3:TrackPointExtension>
            <ns3:atemp>18.0</ns3:atemp>
          </ns3:TrackPointExtension>
        </extensions>
      </trkpt>
      <trkpt lat="42.51924038864672183990478515625" lon="19.94886986911296844482421875">
        <ele>1868.199951171875</ele>
        <time>2026-06-17T09:33:01.000Z</time>
        <extensions>
          <ns3:TrackPointExtension>
            <ns3:atemp>18.0</ns3:atemp>
          </ns3:TrackPointExtension>
        </extensions>
      </trkpt>
      <trkpt lat="42.51922496594488620758056640625" lon="19.94887280277907848358154296875">
        <ele>1868.4000244140625</ele>
        <time>2026-06-17T09:33:02.000Z</time>
        <extensions>
          <ns3:TrackPointExtension>
            <ns3:atemp>18.0</ns3:atemp>
          </ns3:TrackPointExtension>
        </extensions>
      </trkpt>
      <trkpt lat="42.51921708695590496063232421875" lon="19.9488693661987781524658203125">
        <ele>1868.5999755859375</ele>
        <time>2026-06-17T09:33:03.000Z</time>
        <extensions>
          <ns3:TrackPointExtension>
            <ns3:atemp>18.0</ns3:atemp>
          </ns3:TrackPointExtension>
        </extensions>
      </trkpt>
      <trkpt lat="42.519213147461414337158203125" lon="19.9488683603703975677490234375">
        <ele>1868.800048828125</ele>
        <time>2026-06-17T09:33:04.000Z</time>
        <extensions>
          <ns3:TrackPointExtension>
            <ns3:atemp>18.0</ns3:atemp>
          </ns3:TrackPointExtension>
        </extensions>
      </trkpt>
      <trkpt lat="42.51921306364238262176513671875" lon="19.9488683603703975677490234375">
        <ele>1868.800048828125</ele>
        <time>2026-06-17T09:33:05.000Z</time>
        <extensions>
          <ns3:TrackPointExtension>
            <ns3:atemp>18.0</ns3:atemp>
          </ns3:TrackPointExtension>
        </extensions>
      </trkpt>
      <trkpt lat="42.51921306364238262176513671875" lon="19.9488683603703975677490234375">
        <ele>1869</ele>
        <time>2026-06-17T09:33:06.000Z</time>
        <extensions>
          <ns3:TrackPointExtension>
            <ns3:atemp>18.0</ns3:atemp>
          </ns3:TrackPointExtension>
        </extensions>
      </trkpt>
      <trkpt lat="42.51921306364238262176513671875" lon="19.9488683603703975677490234375">
        <ele>1869.199951171875</ele>
        <time>2026-06-17T09:33:07.000Z</time>
        <extensions>
          <ns3:TrackPointExtension>
            <ns3:atemp>18.0</ns3:atemp>
          </ns3:TrackPointExtension>
        </extensions>
      </trkpt>
      <trkpt lat="42.51921306364238262176513671875" lon="19.9488683603703975677490234375">
        <ele>1869.199951171875</ele>
        <time>2026-06-17T09:33:08.000Z</time>
        <extensions>
          <ns3:TrackPointExtension>
            <ns3:atemp>18.0</ns3:atemp>
          </ns3:TrackPointExtension>
        </extensions>
      </trkpt>
      <trkpt lat="42.51921306364238262176513671875" lon="19.9488683603703975677490234375">
        <ele>1869.199951171875</ele>
        <time>2026-06-17T09:33:09.000Z</time>
        <extensions>
          <ns3:TrackPointExtension>
            <ns3:atemp>18.0</ns3:atemp>
          </ns3:TrackPointExtension>
        </extensions>
      </trkpt>
      <trkpt lat="42.51921306364238262176513671875" lon="19.9488683603703975677490234375">
        <ele>1869.199951171875</ele>
        <time>2026-06-17T09:33:10.000Z</time>
        <extensions>
          <ns3:TrackPointExtension>
            <ns3:atemp>18.0</ns3:atemp>
          </ns3:TrackPointExtension>
        </extensions>
      </trkpt>
      <trkpt lat="42.51921306364238262176513671875" lon="19.9488683603703975677490234375">
        <ele>1869.199951171875</ele>
        <time>2026-06-17T09:33:11.000Z</time>
        <extensions>
          <ns3:TrackPointExtension>
            <ns3:atemp>18.0</ns3:atemp>
          </ns3:TrackPointExtension>
        </extensions>
      </trkpt>
      <trkpt lat="42.51921306364238262176513671875" lon="19.9488683603703975677490234375">
        <ele>1869.199951171875</ele>
        <time>2026-06-17T09:33:12.000Z</time>
        <extensions>
          <ns3:TrackPointExtension>
            <ns3:atemp>18.0</ns3:atemp>
          </ns3:TrackPointExtension>
        </extensions>
      </trkpt>
      <trkpt lat="42.51921306364238262176513671875" lon="19.9488683603703975677490234375">
        <ele>1869.199951171875</ele>
        <time>2026-06-17T09:33:13.000Z</time>
        <extensions>
          <ns3:TrackPointExtension>
            <ns3:atemp>18.0</ns3:atemp>
          </ns3:TrackPointExtension>
        </extensions>
      </trkpt>
      <trkpt lat="42.51921306364238262176513671875" lon="19.9488683603703975677490234375">
        <ele>1869.199951171875</ele>
        <time>2026-06-17T09:33:14.000Z</time>
        <extensions>
          <ns3:TrackPointExtension>
            <ns3:atemp>18.0</ns3:atemp>
          </ns3:TrackPointExtension>
        </extensions>
      </trkpt>
      <trkpt lat="42.51921306364238262176513671875" lon="19.9488683603703975677490234375">
        <ele>1869.199951171875</ele>
        <time>2026-06-17T09:33:15.000Z</time>
        <extensions>
          <ns3:TrackPointExtension>
            <ns3:atemp>18.0</ns3:atemp>
          </ns3:TrackPointExtension>
        </extensions>
      </trkpt>
      <trkpt lat="42.51921306364238262176513671875" lon="19.9488683603703975677490234375">
        <ele>1869.199951171875</ele>
        <time>2026-06-17T09:33:16.000Z</time>
        <extensions>
          <ns3:TrackPointExtension>
            <ns3:atemp>18.0</ns3:atemp>
          </ns3:TrackPointExtension>
        </extensions>
      </trkpt>
      <trkpt lat="42.51921306364238262176513671875" lon="19.9488683603703975677490234375">
        <ele>1869.199951171875</ele>
        <time>2026-06-17T09:33:17.000Z</time>
        <extensions>
          <ns3:TrackPointExtension>
            <ns3:atemp>18.0</ns3:atemp>
          </ns3:TrackPointExtension>
        </extensions>
      </trkpt>
      <trkpt lat="42.51921306364238262176513671875" lon="19.9488683603703975677490234375">
        <ele>1869.199951171875</ele>
        <time>2026-06-17T09:33:18.000Z</time>
        <extensions>
          <ns3:TrackPointExtension>
            <ns3:atemp>18.0</ns3:atemp>
          </ns3:TrackPointExtension>
        </extensions>
      </trkpt>
      <trkpt lat="42.51921306364238262176513671875" lon="19.9488683603703975677490234375">
        <ele>1869</ele>
        <time>2026-06-17T09:33:19.000Z</time>
        <extensions>
          <ns3:TrackPointExtension>
            <ns3:atemp>18.0</ns3:atemp>
          </ns3:TrackPointExtension>
        </extensions>
      </trkpt>
      <trkpt lat="42.51921306364238262176513671875" lon="19.9488683603703975677490234375">
        <ele>1868.800048828125</ele>
        <time>2026-06-17T09:33:20.000Z</time>
        <extensions>
          <ns3:TrackPointExtension>
            <ns3:atemp>18.0</ns3:atemp>
          </ns3:TrackPointExtension>
        </extensions>
      </trkpt>
      <trkpt lat="42.51921306364238262176513671875" lon="19.9488683603703975677490234375">
        <ele>1868.800048828125</ele>
        <time>2026-06-17T09:33:21.000Z</time>
        <extensions>
          <ns3:TrackPointExtension>
            <ns3:atemp>18.0</ns3:atemp>
          </ns3:TrackPointExtension>
        </extensions>
      </trkpt>
      <trkpt lat="42.51921306364238262176513671875" lon="19.9488683603703975677490234375">
        <ele>1868.5999755859375</ele>
        <time>2026-06-17T09:33:22.000Z</time>
        <extensions>
          <ns3:TrackPointExtension>
            <ns3:atemp>18.0</ns3:atemp>
          </ns3:TrackPointExtension>
        </extensions>
      </trkpt>
      <trkpt lat="42.51921306364238262176513671875" lon="19.9488683603703975677490234375">
        <ele>1868.5999755859375</ele>
        <time>2026-06-17T09:33:23.000Z</time>
        <extensions>
          <ns3:TrackPointExtension>
            <ns3:atemp>18.0</ns3:atemp>
          </ns3:TrackPointExtension>
        </extensions>
      </trkpt>
      <trkpt lat="42.51921306364238262176513671875" lon="19.9488683603703975677490234375">
        <ele>1868.4000244140625</ele>
        <time>2026-06-17T09:33:24.000Z</time>
        <extensions>
          <ns3:TrackPointExtension>
            <ns3:atemp>18.0</ns3:atemp>
          </ns3:TrackPointExtension>
        </extensions>
      </trkpt>
      <trkpt lat="42.51921306364238262176513671875" lon="19.9488683603703975677490234375">
        <ele>1868.4000244140625</ele>
        <time>2026-06-17T09:33:25.000Z</time>
        <extensions>
          <ns3:TrackPointExtension>
            <ns3:atemp>18.0</ns3:atemp>
          </ns3:TrackPointExtension>
        </extensions>
      </trkpt>
      <trkpt lat="42.51921306364238262176513671875" lon="19.9488683603703975677490234375">
        <ele>1868.4000244140625</ele>
        <time>2026-06-17T09:33:26.000Z</time>
        <extensions>
          <ns3:TrackPointExtension>
            <ns3:atemp>18.0</ns3:atemp>
          </ns3:TrackPointExtension>
        </extensions>
      </trkpt>
      <trkpt lat="42.51921306364238262176513671875" lon="19.9488683603703975677490234375">
        <ele>1868.4000244140625</ele>
        <time>2026-06-17T09:33:27.000Z</time>
        <extensions>
          <ns3:TrackPointExtension>
            <ns3:atemp>18.0</ns3:atemp>
          </ns3:TrackPointExtension>
        </extensions>
      </trkpt>
      <trkpt lat="42.51921306364238262176513671875" lon="19.9488683603703975677490234375">
        <ele>1868.4000244140625</ele>
        <time>2026-06-17T09:33:28.000Z</time>
        <extensions>
          <ns3:TrackPointExtension>
            <ns3:atemp>18.0</ns3:atemp>
          </ns3:TrackPointExtension>
        </extensions>
      </trkpt>
      <trkpt lat="42.51921306364238262176513671875" lon="19.9488683603703975677490234375">
        <ele>1868.4000244140625</ele>
        <time>2026-06-17T09:33:29.000Z</time>
        <extensions>
          <ns3:TrackPointExtension>
            <ns3:atemp>18.0</ns3:atemp>
          </ns3:TrackPointExtension>
        </extensions>
      </trkpt>
      <trkpt lat="42.51921306364238262176513671875" lon="19.9488683603703975677490234375">
        <ele>1868.4000244140625</ele>
        <time>2026-06-17T09:33:30.000Z</time>
        <extensions>
          <ns3:TrackPointExtension>
            <ns3:atemp>18.0</ns3:atemp>
          </ns3:TrackPointExtension>
        </extensions>
      </trkpt>
      <trkpt lat="42.51921306364238262176513671875" lon="19.9488683603703975677490234375">
        <ele>1868.4000244140625</ele>
        <time>2026-06-17T09:33:31.000Z</time>
        <extensions>
          <ns3:TrackPointExtension>
            <ns3:atemp>18.0</ns3:atemp>
          </ns3:TrackPointExtension>
        </extensions>
      </trkpt>
      <trkpt lat="42.51921306364238262176513671875" lon="19.9488683603703975677490234375">
        <ele>1868.199951171875</ele>
        <time>2026-06-17T09:33:32.000Z</time>
        <extensions>
          <ns3:TrackPointExtension>
            <ns3:atemp>18.0</ns3:atemp>
          </ns3:TrackPointExtension>
        </extensions>
      </trkpt>
      <trkpt lat="42.51921306364238262176513671875" lon="19.9488683603703975677490234375">
        <ele>1868.199951171875</ele>
        <time>2026-06-17T09:33:33.000Z</time>
        <extensions>
          <ns3:TrackPointExtension>
            <ns3:atemp>18.0</ns3:atemp>
          </ns3:TrackPointExtension>
        </extensions>
      </trkpt>
      <trkpt lat="42.51921306364238262176513671875" lon="19.9488683603703975677490234375">
        <ele>1868.199951171875</ele>
        <time>2026-06-17T09:33:34.000Z</time>
        <extensions>
          <ns3:TrackPointExtension>
            <ns3:atemp>18.0</ns3:atemp>
          </ns3:TrackPointExtension>
        </extensions>
      </trkpt>
      <trkpt lat="42.51921306364238262176513671875" lon="19.9488683603703975677490234375">
        <ele>1868.199951171875</ele>
        <time>2026-06-17T09:33:35.000Z</time>
        <extensions>
          <ns3:TrackPointExtension>
            <ns3:atemp>18.0</ns3:atemp>
          </ns3:TrackPointExtension>
        </extensions>
      </trkpt>
      <trkpt lat="42.51921306364238262176513671875" lon="19.9488683603703975677490234375">
        <ele>1868.199951171875</ele>
        <time>2026-06-17T09:33:36.000Z</time>
        <extensions>
          <ns3:TrackPointExtension>
            <ns3:atemp>18.0</ns3:atemp>
          </ns3:TrackPointExtension>
        </extensions>
      </trkpt>
      <trkpt lat="42.51921306364238262176513671875" lon="19.9488683603703975677490234375">
        <ele>1868.199951171875</ele>
        <time>2026-06-17T09:33:37.000Z</time>
        <extensions>
          <ns3:TrackPointExtension>
            <ns3:atemp>18.0</ns3:atemp>
          </ns3:TrackPointExtension>
        </extensions>
      </trkpt>
      <trkpt lat="42.51921306364238262176513671875" lon="19.9488683603703975677490234375">
        <ele>1868.199951171875</ele>
        <time>2026-06-17T09:33:38.000Z</time>
        <extensions>
          <ns3:TrackPointExtension>
            <ns3:atemp>18.0</ns3:atemp>
          </ns3:TrackPointExtension>
        </extensions>
      </trkpt>
      <trkpt lat="42.51921306364238262176513671875" lon="19.9488683603703975677490234375">
        <ele>1868.199951171875</ele>
        <time>2026-06-17T09:33:39.000Z</time>
        <extensions>
          <ns3:TrackPointExtension>
            <ns3:atemp>18.0</ns3:atemp>
          </ns3:TrackPointExtension>
        </extensions>
      </trkpt>
      <trkpt lat="42.51921306364238262176513671875" lon="19.9488683603703975677490234375">
        <ele>1868.199951171875</ele>
        <time>2026-06-17T09:33:40.000Z</time>
        <extensions>
          <ns3:TrackPointExtension>
            <ns3:atemp>18.0</ns3:atemp>
          </ns3:TrackPointExtension>
        </extensions>
      </trkpt>
      <trkpt lat="42.51921306364238262176513671875" lon="19.9488683603703975677490234375">
        <ele>1868.199951171875</ele>
        <time>2026-06-17T09:33:41.000Z</time>
        <extensions>
          <ns3:TrackPointExtension>
            <ns3:atemp>18.0</ns3:atemp>
          </ns3:TrackPointExtension>
        </extensions>
      </trkpt>
      <trkpt lat="42.51921306364238262176513671875" lon="19.9488683603703975677490234375">
        <ele>1868.199951171875</ele>
        <time>2026-06-17T09:33:42.000Z</time>
        <extensions>
          <ns3:TrackPointExtension>
            <ns3:atemp>18.0</ns3:atemp>
          </ns3:TrackPointExtension>
        </extensions>
      </trkpt>
      <trkpt lat="42.51921306364238262176513671875" lon="19.9488683603703975677490234375">
        <ele>1868</ele>
        <time>2026-06-17T09:33:43.000Z</time>
        <extensions>
          <ns3:TrackPointExtension>
            <ns3:atemp>18.0</ns3:atemp>
          </ns3:TrackPointExtension>
        </extensions>
      </trkpt>
      <trkpt lat="42.51921306364238262176513671875" lon="19.9488683603703975677490234375">
        <ele>1868</ele>
        <time>2026-06-17T09:33:44.000Z</time>
        <extensions>
          <ns3:TrackPointExtension>
            <ns3:atemp>18.0</ns3:atemp>
          </ns3:TrackPointExtension>
        </extensions>
      </trkpt>
      <trkpt lat="42.51921306364238262176513671875" lon="19.9488683603703975677490234375">
        <ele>1868</ele>
        <time>2026-06-17T09:33:45.000Z</time>
        <extensions>
          <ns3:TrackPointExtension>
            <ns3:atemp>18.0</ns3:atemp>
          </ns3:TrackPointExtension>
        </extensions>
      </trkpt>
      <trkpt lat="42.51921306364238262176513671875" lon="19.9488683603703975677490234375">
        <ele>1868</ele>
        <time>2026-06-17T09:33:46.000Z</time>
        <extensions>
          <ns3:TrackPointExtension>
            <ns3:atemp>18.0</ns3:atemp>
          </ns3:TrackPointExtension>
        </extensions>
      </trkpt>
      <trkpt lat="42.51921306364238262176513671875" lon="19.9488683603703975677490234375">
        <ele>1868</ele>
        <time>2026-06-17T09:33:47.000Z</time>
        <extensions>
          <ns3:TrackPointExtension>
            <ns3:atemp>18.0</ns3:atemp>
          </ns3:TrackPointExtension>
        </extensions>
      </trkpt>
      <trkpt lat="42.51921306364238262176513671875" lon="19.9488683603703975677490234375">
        <ele>1868</ele>
        <time>2026-06-17T09:33:48.000Z</time>
        <extensions>
          <ns3:TrackPointExtension>
            <ns3:atemp>18.0</ns3:atemp>
          </ns3:TrackPointExtension>
        </extensions>
      </trkpt>
      <trkpt lat="42.51921306364238262176513671875" lon="19.9488683603703975677490234375">
        <ele>1868</ele>
        <time>2026-06-17T09:33:49.000Z</time>
        <extensions>
          <ns3:TrackPointExtension>
            <ns3:atemp>18.0</ns3:atemp>
          </ns3:TrackPointExtension>
        </extensions>
      </trkpt>
      <trkpt lat="42.51921306364238262176513671875" lon="19.9488683603703975677490234375">
        <ele>1868</ele>
        <time>2026-06-17T09:33:50.000Z</time>
        <extensions>
          <ns3:TrackPointExtension>
            <ns3:atemp>18.0</ns3:atemp>
          </ns3:TrackPointExtension>
        </extensions>
      </trkpt>
      <trkpt lat="42.51921306364238262176513671875" lon="19.9488683603703975677490234375">
        <ele>1868</ele>
        <time>2026-06-17T09:33:51.000Z</time>
        <extensions>
          <ns3:TrackPointExtension>
            <ns3:atemp>18.0</ns3:atemp>
          </ns3:TrackPointExtension>
        </extensions>
      </trkpt>
      <trkpt lat="42.51921306364238262176513671875" lon="19.9488683603703975677490234375">
        <ele>1868</ele>
        <time>2026-06-17T09:33:52.000Z</time>
        <extensions>
          <ns3:TrackPointExtension>
            <ns3:atemp>18.0</ns3:atemp>
          </ns3:TrackPointExtension>
        </extensions>
      </trkpt>
      <trkpt lat="42.51921306364238262176513671875" lon="19.9488683603703975677490234375">
        <ele>1868</ele>
        <time>2026-06-17T09:33:53.000Z</time>
        <extensions>
          <ns3:TrackPointExtension>
            <ns3:atemp>18.0</ns3:atemp>
          </ns3:TrackPointExtension>
        </extensions>
      </trkpt>
      <trkpt lat="42.51921306364238262176513671875" lon="19.9488683603703975677490234375">
        <ele>1868</ele>
        <time>2026-06-17T09:33:54.000Z</time>
        <extensions>
          <ns3:TrackPointExtension>
            <ns3:atemp>18.0</ns3:atemp>
          </ns3:TrackPointExtension>
        </extensions>
      </trkpt>
      <trkpt lat="42.51921306364238262176513671875" lon="19.9488683603703975677490234375">
        <ele>1868</ele>
        <time>2026-06-17T09:33:55.000Z</time>
        <extensions>
          <ns3:TrackPointExtension>
            <ns3:atemp>18.0</ns3:atemp>
          </ns3:TrackPointExtension>
        </extensions>
      </trkpt>
      <trkpt lat="42.51921306364238262176513671875" lon="19.9488683603703975677490234375">
        <ele>1867.800048828125</ele>
        <time>2026-06-17T09:33:56.000Z</time>
        <extensions>
          <ns3:TrackPointExtension>
            <ns3:atemp>18.0</ns3:atemp>
          </ns3:TrackPointExtension>
        </extensions>
      </trkpt>
      <trkpt lat="42.51921306364238262176513671875" lon="19.9488683603703975677490234375">
        <ele>1867.800048828125</ele>
        <time>2026-06-17T09:33:57.000Z</time>
        <extensions>
          <ns3:TrackPointExtension>
            <ns3:atemp>18.0</ns3:atemp>
          </ns3:TrackPointExtension>
        </extensions>
      </trkpt>
      <trkpt lat="42.51921306364238262176513671875" lon="19.9488683603703975677490234375">
        <ele>1867.800048828125</ele>
        <time>2026-06-17T09:33:58.000Z</time>
        <extensions>
          <ns3:TrackPointExtension>
            <ns3:atemp>18.0</ns3:atemp>
          </ns3:TrackPointExtension>
        </extensions>
      </trkpt>
      <trkpt lat="42.51921306364238262176513671875" lon="19.9488683603703975677490234375">
        <ele>1867.800048828125</ele>
        <time>2026-06-17T09:33:59.000Z</time>
        <extensions>
          <ns3:TrackPointExtension>
            <ns3:atemp>18.0</ns3:atemp>
          </ns3:TrackPointExtension>
        </extensions>
      </trkpt>
      <trkpt lat="42.51921306364238262176513671875" lon="19.9488683603703975677490234375">
        <ele>1867.800048828125</ele>
        <time>2026-06-17T09:34:00.000Z</time>
        <extensions>
          <ns3:TrackPointExtension>
            <ns3:atemp>18.0</ns3:atemp>
          </ns3:TrackPointExtension>
        </extensions>
      </trkpt>
      <trkpt lat="42.51921306364238262176513671875" lon="19.9488683603703975677490234375">
        <ele>1867.800048828125</ele>
        <time>2026-06-17T09:34:01.000Z</time>
        <extensions>
          <ns3:TrackPointExtension>
            <ns3:atemp>18.0</ns3:atemp>
          </ns3:TrackPointExtension>
        </extensions>
      </trkpt>
      <trkpt lat="42.51921306364238262176513671875" lon="19.9488683603703975677490234375">
        <ele>1867.800048828125</ele>
        <time>2026-06-17T09:34:02.000Z</time>
        <extensions>
          <ns3:TrackPointExtension>
            <ns3:atemp>18.0</ns3:atemp>
          </ns3:TrackPointExtension>
        </extensions>
      </trkpt>
      <trkpt lat="42.51921306364238262176513671875" lon="19.9488683603703975677490234375">
        <ele>1867.800048828125</ele>
        <time>2026-06-17T09:34:03.000Z</time>
        <extensions>
          <ns3:TrackPointExtension>
            <ns3:atemp>18.0</ns3:atemp>
          </ns3:TrackPointExtension>
        </extensions>
      </trkpt>
      <trkpt lat="42.51921306364238262176513671875" lon="19.9488683603703975677490234375">
        <ele>1867.800048828125</ele>
        <time>2026-06-17T09:34:04.000Z</time>
        <extensions>
          <ns3:TrackPointExtension>
            <ns3:atemp>18.0</ns3:atemp>
          </ns3:TrackPointExtension>
        </extensions>
      </trkpt>
      <trkpt lat="42.51921306364238262176513671875" lon="19.9488683603703975677490234375">
        <ele>1867.800048828125</ele>
        <time>2026-06-17T09:34:05.000Z</time>
        <extensions>
          <ns3:TrackPointExtension>
            <ns3:atemp>18.0</ns3:atemp>
          </ns3:TrackPointExtension>
        </extensions>
      </trkpt>
      <trkpt lat="42.51921306364238262176513671875" lon="19.9488683603703975677490234375">
        <ele>1867.800048828125</ele>
        <time>2026-06-17T09:34:06.000Z</time>
        <extensions>
          <ns3:TrackPointExtension>
            <ns3:atemp>18.0</ns3:atemp>
          </ns3:TrackPointExtension>
        </extensions>
      </trkpt>
      <trkpt lat="42.51921306364238262176513671875" lon="19.9488683603703975677490234375">
        <ele>1867.5999755859375</ele>
        <time>2026-06-17T09:34:07.000Z</time>
        <extensions>
          <ns3:TrackPointExtension>
            <ns3:atemp>18.0</ns3:atemp>
          </ns3:TrackPointExtension>
        </extensions>
      </trkpt>
      <trkpt lat="42.51921306364238262176513671875" lon="19.9488683603703975677490234375">
        <ele>1867.5999755859375</ele>
        <time>2026-06-17T09:34:08.000Z</time>
        <extensions>
          <ns3:TrackPointExtension>
            <ns3:atemp>18.0</ns3:atemp>
          </ns3:TrackPointExtension>
        </extensions>
      </trkpt>
      <trkpt lat="42.51921306364238262176513671875" lon="19.9488683603703975677490234375">
        <ele>1867.5999755859375</ele>
        <time>2026-06-17T09:34:09.000Z</time>
        <extensions>
          <ns3:TrackPointExtension>
            <ns3:atemp>18.0</ns3:atemp>
          </ns3:TrackPointExtension>
        </extensions>
      </trkpt>
      <trkpt lat="42.51921306364238262176513671875" lon="19.9488683603703975677490234375">
        <ele>1867.5999755859375</ele>
        <time>2026-06-17T09:34:10.000Z</time>
        <extensions>
          <ns3:TrackPointExtension>
            <ns3:atemp>18.0</ns3:atemp>
          </ns3:TrackPointExtension>
        </extensions>
      </trkpt>
      <trkpt lat="42.51921306364238262176513671875" lon="19.9488683603703975677490234375">
        <ele>1867.5999755859375</ele>
        <time>2026-06-17T09:34:11.000Z</time>
        <extensions>
          <ns3:TrackPointExtension>
            <ns3:atemp>18.0</ns3:atemp>
          </ns3:TrackPointExtension>
        </extensions>
      </trkpt>
      <trkpt lat="42.51921306364238262176513671875" lon="19.9488683603703975677490234375">
        <ele>1867.5999755859375</ele>
        <time>2026-06-17T09:34:12.000Z</time>
        <extensions>
          <ns3:TrackPointExtension>
            <ns3:atemp>18.0</ns3:atemp>
          </ns3:TrackPointExtension>
        </extensions>
      </trkpt>
      <trkpt lat="42.51921306364238262176513671875" lon="19.9488683603703975677490234375">
        <ele>1867.5999755859375</ele>
        <time>2026-06-17T09:34:13.000Z</time>
        <extensions>
          <ns3:TrackPointExtension>
            <ns3:atemp>18.0</ns3:atemp>
          </ns3:TrackPointExtension>
        </extensions>
      </trkpt>
      <trkpt lat="42.51921306364238262176513671875" lon="19.9488683603703975677490234375">
        <ele>1867.5999755859375</ele>
        <time>2026-06-17T09:34:14.000Z</time>
        <extensions>
          <ns3:TrackPointExtension>
            <ns3:atemp>18.0</ns3:atemp>
          </ns3:TrackPointExtension>
        </extensions>
      </trkpt>
      <trkpt lat="42.51921306364238262176513671875" lon="19.9488683603703975677490234375">
        <ele>1867.5999755859375</ele>
        <time>2026-06-17T09:34:15.000Z</time>
        <extensions>
          <ns3:TrackPointExtension>
            <ns3:atemp>18.0</ns3:atemp>
          </ns3:TrackPointExtension>
        </extensions>
      </trkpt>
      <trkpt lat="42.51921306364238262176513671875" lon="19.9488683603703975677490234375">
        <ele>1867.5999755859375</ele>
        <time>2026-06-17T09:34:16.000Z</time>
        <extensions>
          <ns3:TrackPointExtension>
            <ns3:atemp>18.0</ns3:atemp>
          </ns3:TrackPointExtension>
        </extensions>
      </trkpt>
      <trkpt lat="42.51921306364238262176513671875" lon="19.9488683603703975677490234375">
        <ele>1867.5999755859375</ele>
        <time>2026-06-17T09:34:17.000Z</time>
        <extensions>
          <ns3:TrackPointExtension>
            <ns3:atemp>18.0</ns3:atemp>
          </ns3:TrackPointExtension>
        </extensions>
      </trkpt>
      <trkpt lat="42.51921306364238262176513671875" lon="19.9488683603703975677490234375">
        <ele>1867.5999755859375</ele>
        <time>2026-06-17T09:34:18.000Z</time>
        <extensions>
          <ns3:TrackPointExtension>
            <ns3:atemp>18.0</ns3:atemp>
          </ns3:TrackPointExtension>
        </extensions>
      </trkpt>
      <trkpt lat="42.51921306364238262176513671875" lon="19.9488683603703975677490234375">
        <ele>1867.5999755859375</ele>
        <time>2026-06-17T09:34:19.000Z</time>
        <extensions>
          <ns3:TrackPointExtension>
            <ns3:atemp>18.0</ns3:atemp>
          </ns3:TrackPointExtension>
        </extensions>
      </trkpt>
      <trkpt lat="42.51921306364238262176513671875" lon="19.9488683603703975677490234375">
        <ele>1867.5999755859375</ele>
        <time>2026-06-17T09:34:20.000Z</time>
        <extensions>
          <ns3:TrackPointExtension>
            <ns3:atemp>18.0</ns3:atemp>
          </ns3:TrackPointExtension>
        </extensions>
      </trkpt>
      <trkpt lat="42.51921306364238262176513671875" lon="19.9488683603703975677490234375">
        <ele>1867.5999755859375</ele>
        <time>2026-06-17T09:34:21.000Z</time>
        <extensions>
          <ns3:TrackPointExtension>
            <ns3:atemp>18.0</ns3:atemp>
          </ns3:TrackPointExtension>
        </extensions>
      </trkpt>
      <trkpt lat="42.51921306364238262176513671875" lon="19.9488683603703975677490234375">
        <ele>1867.5999755859375</ele>
        <time>2026-06-17T09:34:22.000Z</time>
        <extensions>
          <ns3:TrackPointExtension>
            <ns3:atemp>18.0</ns3:atemp>
          </ns3:TrackPointExtension>
        </extensions>
      </trkpt>
      <trkpt lat="42.51921306364238262176513671875" lon="19.9488683603703975677490234375">
        <ele>1867.4000244140625</ele>
        <time>2026-06-17T09:34:23.000Z</time>
        <extensions>
          <ns3:TrackPointExtension>
            <ns3:atemp>18.0</ns3:atemp>
          </ns3:TrackPointExtension>
        </extensions>
      </trkpt>
      <trkpt lat="42.51921306364238262176513671875" lon="19.9488683603703975677490234375">
        <ele>1867.4000244140625</ele>
        <time>2026-06-17T09:34:24.000Z</time>
        <extensions>
          <ns3:TrackPointExtension>
            <ns3:atemp>18.0</ns3:atemp>
          </ns3:TrackPointExtension>
        </extensions>
      </trkpt>
      <trkpt lat="42.51921306364238262176513671875" lon="19.9488683603703975677490234375">
        <ele>1867.4000244140625</ele>
        <time>2026-06-17T09:34:25.000Z</time>
        <extensions>
          <ns3:TrackPointExtension>
            <ns3:atemp>18.0</ns3:atemp>
          </ns3:TrackPointExtension>
        </extensions>
      </trkpt>
      <trkpt lat="42.51921306364238262176513671875" lon="19.9488683603703975677490234375">
        <ele>1867.4000244140625</ele>
        <time>2026-06-17T09:34:26.000Z</time>
        <extensions>
          <ns3:TrackPointExtension>
            <ns3:atemp>18.0</ns3:atemp>
          </ns3:TrackPointExtension>
        </extensions>
      </trkpt>
      <trkpt lat="42.51921306364238262176513671875" lon="19.9488683603703975677490234375">
        <ele>1867.4000244140625</ele>
        <time>2026-06-17T09:34:27.000Z</time>
        <extensions>
          <ns3:TrackPointExtension>
            <ns3:atemp>18.0</ns3:atemp>
          </ns3:TrackPointExtension>
        </extensions>
      </trkpt>
      <trkpt lat="42.51921306364238262176513671875" lon="19.9488683603703975677490234375">
        <ele>1867.4000244140625</ele>
        <time>2026-06-17T09:34:28.000Z</time>
        <extensions>
          <ns3:TrackPointExtension>
            <ns3:atemp>18.0</ns3:atemp>
          </ns3:TrackPointExtension>
        </extensions>
      </trkpt>
      <trkpt lat="42.51921306364238262176513671875" lon="19.9488683603703975677490234375">
        <ele>1867.4000244140625</ele>
        <time>2026-06-17T09:34:29.000Z</time>
        <extensions>
          <ns3:TrackPointExtension>
            <ns3:atemp>18.0</ns3:atemp>
          </ns3:TrackPointExtension>
        </extensions>
      </trkpt>
      <trkpt lat="42.51921306364238262176513671875" lon="19.9488683603703975677490234375">
        <ele>1867.4000244140625</ele>
        <time>2026-06-17T09:34:30.000Z</time>
        <extensions>
          <ns3:TrackPointExtension>
            <ns3:atemp>18.0</ns3:atemp>
          </ns3:TrackPointExtension>
        </extensions>
      </trkpt>
      <trkpt lat="42.51921306364238262176513671875" lon="19.9488683603703975677490234375">
        <ele>1867.4000244140625</ele>
        <time>2026-06-17T09:34:31.000Z</time>
        <extensions>
          <ns3:TrackPointExtension>
            <ns3:atemp>18.0</ns3:atemp>
          </ns3:TrackPointExtension>
        </extensions>
      </trkpt>
      <trkpt lat="42.51921306364238262176513671875" lon="19.9488683603703975677490234375">
        <ele>1867.4000244140625</ele>
        <time>2026-06-17T09:34:32.000Z</time>
        <extensions>
          <ns3:TrackPointExtension>
            <ns3:atemp>18.0</ns3:atemp>
          </ns3:TrackPointExtension>
        </extensions>
      </trkpt>
      <trkpt lat="42.51921306364238262176513671875" lon="19.9488683603703975677490234375">
        <ele>1867.4000244140625</ele>
        <time>2026-06-17T09:34:33.000Z</time>
        <extensions>
          <ns3:TrackPointExtension>
            <ns3:atemp>18.0</ns3:atemp>
          </ns3:TrackPointExtension>
        </extensions>
      </trkpt>
      <trkpt lat="42.51921306364238262176513671875" lon="19.9488683603703975677490234375">
        <ele>1867.4000244140625</ele>
        <time>2026-06-17T09:34:34.000Z</time>
        <extensions>
          <ns3:TrackPointExtension>
            <ns3:atemp>18.0</ns3:atemp>
          </ns3:TrackPointExtension>
        </extensions>
      </trkpt>
      <trkpt lat="42.51921306364238262176513671875" lon="19.9488683603703975677490234375">
        <ele>1867.4000244140625</ele>
        <time>2026-06-17T09:34:35.000Z</time>
        <extensions>
          <ns3:TrackPointExtension>
            <ns3:atemp>18.0</ns3:atemp>
          </ns3:TrackPointExtension>
        </extensions>
      </trkpt>
      <trkpt lat="42.51921306364238262176513671875" lon="19.9488683603703975677490234375">
        <ele>1867.4000244140625</ele>
        <time>2026-06-17T09:34:36.000Z</time>
        <extensions>
          <ns3:TrackPointExtension>
            <ns3:atemp>18.0</ns3:atemp>
          </ns3:TrackPointExtension>
        </extensions>
      </trkpt>
      <trkpt lat="42.51921306364238262176513671875" lon="19.9488683603703975677490234375">
        <ele>1867.4000244140625</ele>
        <time>2026-06-17T09:34:37.000Z</time>
        <extensions>
          <ns3:TrackPointExtension>
            <ns3:atemp>18.0</ns3:atemp>
          </ns3:TrackPointExtension>
        </extensions>
      </trkpt>
      <trkpt lat="42.51921306364238262176513671875" lon="19.9488683603703975677490234375">
        <ele>1867.199951171875</ele>
        <time>2026-06-17T09:34:38.000Z</time>
        <extensions>
          <ns3:TrackPointExtension>
            <ns3:atemp>18.0</ns3:atemp>
          </ns3:TrackPointExtension>
        </extensions>
      </trkpt>
      <trkpt lat="42.51921306364238262176513671875" lon="19.9488683603703975677490234375">
        <ele>1867.199951171875</ele>
        <time>2026-06-17T09:34:39.000Z</time>
        <extensions>
          <ns3:TrackPointExtension>
            <ns3:atemp>18.0</ns3:atemp>
          </ns3:TrackPointExtension>
        </extensions>
      </trkpt>
      <trkpt lat="42.51921306364238262176513671875" lon="19.9488683603703975677490234375">
        <ele>1867.199951171875</ele>
        <time>2026-06-17T09:34:40.000Z</time>
        <extensions>
          <ns3:TrackPointExtension>
            <ns3:atemp>18.0</ns3:atemp>
          </ns3:TrackPointExtension>
        </extensions>
      </trkpt>
      <trkpt lat="42.51921306364238262176513671875" lon="19.9488683603703975677490234375">
        <ele>1867.199951171875</ele>
        <time>2026-06-17T09:34:41.000Z</time>
        <extensions>
          <ns3:TrackPointExtension>
            <ns3:atemp>18.0</ns3:atemp>
          </ns3:TrackPointExtension>
        </extensions>
      </trkpt>
      <trkpt lat="42.51921306364238262176513671875" lon="19.9488683603703975677490234375">
        <ele>1867.199951171875</ele>
        <time>2026-06-17T09:34:42.000Z</time>
        <extensions>
          <ns3:TrackPointExtension>
            <ns3:atemp>18.0</ns3:atemp>
          </ns3:TrackPointExtension>
        </extensions>
      </trkpt>
      <trkpt lat="42.51921306364238262176513671875" lon="19.9488683603703975677490234375">
        <ele>1867.199951171875</ele>
        <time>2026-06-17T09:34:43.000Z</time>
        <extensions>
          <ns3:TrackPointExtension>
            <ns3:atemp>18.0</ns3:atemp>
          </ns3:TrackPointExtension>
        </extensions>
      </trkpt>
      <trkpt lat="42.51921306364238262176513671875" lon="19.9488683603703975677490234375">
        <ele>1867.199951171875</ele>
        <time>2026-06-17T09:34:44.000Z</time>
        <extensions>
          <ns3:TrackPointExtension>
            <ns3:atemp>18.0</ns3:atemp>
          </ns3:TrackPointExtension>
        </extensions>
      </trkpt>
      <trkpt lat="42.51921306364238262176513671875" lon="19.9488683603703975677490234375">
        <ele>1867.199951171875</ele>
        <time>2026-06-17T09:34:45.000Z</time>
        <extensions>
          <ns3:TrackPointExtension>
            <ns3:atemp>18.0</ns3:atemp>
          </ns3:TrackPointExtension>
        </extensions>
      </trkpt>
      <trkpt lat="42.51921306364238262176513671875" lon="19.9488683603703975677490234375">
        <ele>1867</ele>
        <time>2026-06-17T09:34:46.000Z</time>
        <extensions>
          <ns3:TrackPointExtension>
            <ns3:atemp>18.0</ns3:atemp>
          </ns3:TrackPointExtension>
        </extensions>
      </trkpt>
      <trkpt lat="42.51921306364238262176513671875" lon="19.9488683603703975677490234375">
        <ele>1867.199951171875</ele>
        <time>2026-06-17T09:34:47.000Z</time>
        <extensions>
          <ns3:TrackPointExtension>
            <ns3:atemp>18.0</ns3:atemp>
          </ns3:TrackPointExtension>
        </extensions>
      </trkpt>
      <trkpt lat="42.51921306364238262176513671875" lon="19.9488683603703975677490234375">
        <ele>1867.199951171875</ele>
        <time>2026-06-17T09:34:48.000Z</time>
        <extensions>
          <ns3:TrackPointExtension>
            <ns3:atemp>18.0</ns3:atemp>
          </ns3:TrackPointExtension>
        </extensions>
      </trkpt>
      <trkpt lat="42.51921306364238262176513671875" lon="19.9488683603703975677490234375">
        <ele>1867.199951171875</ele>
        <time>2026-06-17T09:34:49.000Z</time>
        <extensions>
          <ns3:TrackPointExtension>
            <ns3:atemp>18.0</ns3:atemp>
          </ns3:TrackPointExtension>
        </extensions>
      </trkpt>
      <trkpt lat="42.51921306364238262176513671875" lon="19.9488683603703975677490234375">
        <ele>1867.199951171875</ele>
        <time>2026-06-17T09:34:50.000Z</time>
        <extensions>
          <ns3:TrackPointExtension>
            <ns3:atemp>18.0</ns3:atemp>
          </ns3:TrackPointExtension>
        </extensions>
      </trkpt>
      <trkpt lat="42.51921306364238262176513671875" lon="19.9488683603703975677490234375">
        <ele>1867.199951171875</ele>
        <time>2026-06-17T09:34:51.000Z</time>
        <extensions>
          <ns3:TrackPointExtension>
            <ns3:atemp>18.0</ns3:atemp>
          </ns3:TrackPointExtension>
        </extensions>
      </trkpt>
      <trkpt lat="42.51921306364238262176513671875" lon="19.9488683603703975677490234375">
        <ele>1867.199951171875</ele>
        <time>2026-06-17T09:34:52.000Z</time>
        <extensions>
          <ns3:TrackPointExtension>
            <ns3:atemp>18.0</ns3:atemp>
          </ns3:TrackPointExtension>
        </extensions>
      </trkpt>
      <trkpt lat="42.51921306364238262176513671875" lon="19.9488683603703975677490234375">
        <ele>1867.199951171875</ele>
        <time>2026-06-17T09:34:53.000Z</time>
        <extensions>
          <ns3:TrackPointExtension>
            <ns3:atemp>18.0</ns3:atemp>
          </ns3:TrackPointExtension>
        </extensions>
      </trkpt>
      <trkpt lat="42.51921306364238262176513671875" lon="19.9488683603703975677490234375">
        <ele>1867</ele>
        <time>2026-06-17T09:34:54.000Z</time>
        <extensions>
          <ns3:TrackPointExtension>
            <ns3:atemp>18.0</ns3:atemp>
          </ns3:TrackPointExtension>
        </extensions>
      </trkpt>
      <trkpt lat="42.51921306364238262176513671875" lon="19.9488683603703975677490234375">
        <ele>1867</ele>
        <time>2026-06-17T09:34:55.000Z</time>
        <extensions>
          <ns3:TrackPointExtension>
            <ns3:atemp>18.0</ns3:atemp>
          </ns3:TrackPointExtension>
        </extensions>
      </trkpt>
      <trkpt lat="42.51921306364238262176513671875" lon="19.9488683603703975677490234375">
        <ele>1867</ele>
        <time>2026-06-17T09:34:56.000Z</time>
        <extensions>
          <ns3:TrackPointExtension>
            <ns3:atemp>18.0</ns3:atemp>
          </ns3:TrackPointExtension>
        </extensions>
      </trkpt>
      <trkpt lat="42.51921306364238262176513671875" lon="19.9488683603703975677490234375">
        <ele>1867</ele>
        <time>2026-06-17T09:34:57.000Z</time>
        <extensions>
          <ns3:TrackPointExtension>
            <ns3:atemp>18.0</ns3:atemp>
          </ns3:TrackPointExtension>
        </extensions>
      </trkpt>
      <trkpt lat="42.51921306364238262176513671875" lon="19.9488683603703975677490234375">
        <ele>1867</ele>
        <time>2026-06-17T09:34:58.000Z</time>
        <extensions>
          <ns3:TrackPointExtension>
            <ns3:atemp>18.0</ns3:atemp>
          </ns3:TrackPointExtension>
        </extensions>
      </trkpt>
      <trkpt lat="42.51921306364238262176513671875" lon="19.9488683603703975677490234375">
        <ele>1867</ele>
        <time>2026-06-17T09:34:59.000Z</time>
        <extensions>
          <ns3:TrackPointExtension>
            <ns3:atemp>18.0</ns3:atemp>
          </ns3:TrackPointExtension>
        </extensions>
      </trkpt>
      <trkpt lat="42.51921306364238262176513671875" lon="19.9488683603703975677490234375">
        <ele>1867</ele>
        <time>2026-06-17T09:35:00.000Z</time>
        <extensions>
          <ns3:TrackPointExtension>
            <ns3:atemp>18.0</ns3:atemp>
          </ns3:TrackPointExtension>
        </extensions>
      </trkpt>
      <trkpt lat="42.51921306364238262176513671875" lon="19.9488683603703975677490234375">
        <ele>1867</ele>
        <time>2026-06-17T09:35:01.000Z</time>
        <extensions>
          <ns3:TrackPointExtension>
            <ns3:atemp>18.0</ns3:atemp>
          </ns3:TrackPointExtension>
        </extensions>
      </trkpt>
      <trkpt lat="42.51921306364238262176513671875" lon="19.9488683603703975677490234375">
        <ele>1867</ele>
        <time>2026-06-17T09:35:02.000Z</time>
        <extensions>
          <ns3:TrackPointExtension>
            <ns3:atemp>18.0</ns3:atemp>
          </ns3:TrackPointExtension>
        </extensions>
      </trkpt>
      <trkpt lat="42.51921306364238262176513671875" lon="19.9488683603703975677490234375">
        <ele>1867</ele>
        <time>2026-06-17T09:35:03.000Z</time>
        <extensions>
          <ns3:TrackPointExtension>
            <ns3:atemp>18.0</ns3:atemp>
          </ns3:TrackPointExtension>
        </extensions>
      </trkpt>
      <trkpt lat="42.51921306364238262176513671875" lon="19.9488683603703975677490234375">
        <ele>1867</ele>
        <time>2026-06-17T09:35:04.000Z</time>
        <extensions>
          <ns3:TrackPointExtension>
            <ns3:atemp>18.0</ns3:atemp>
          </ns3:TrackPointExtension>
        </extensions>
      </trkpt>
      <trkpt lat="42.51921306364238262176513671875" lon="19.9488683603703975677490234375">
        <ele>1867</ele>
        <time>2026-06-17T09:35:05.000Z</time>
        <extensions>
          <ns3:TrackPointExtension>
            <ns3:atemp>18.0</ns3:atemp>
          </ns3:TrackPointExtension>
        </extensions>
      </trkpt>
      <trkpt lat="42.51921306364238262176513671875" lon="19.9488683603703975677490234375">
        <ele>1867</ele>
        <time>2026-06-17T09:35:06.000Z</time>
        <extensions>
          <ns3:TrackPointExtension>
            <ns3:atemp>18.0</ns3:atemp>
          </ns3:TrackPointExtension>
        </extensions>
      </trkpt>
      <trkpt lat="42.51921306364238262176513671875" lon="19.9488683603703975677490234375">
        <ele>1866.800048828125</ele>
        <time>2026-06-17T09:35:07.000Z</time>
        <extensions>
          <ns3:TrackPointExtension>
            <ns3:atemp>18.0</ns3:atemp>
          </ns3:TrackPointExtension>
        </extensions>
      </trkpt>
      <trkpt lat="42.51921306364238262176513671875" lon="19.9488683603703975677490234375">
        <ele>1866.800048828125</ele>
        <time>2026-06-17T09:35:08.000Z</time>
        <extensions>
          <ns3:TrackPointExtension>
            <ns3:atemp>18.0</ns3:atemp>
          </ns3:TrackPointExtension>
        </extensions>
      </trkpt>
      <trkpt lat="42.51921306364238262176513671875" lon="19.9488683603703975677490234375">
        <ele>1866.800048828125</ele>
        <time>2026-06-17T09:35:09.000Z</time>
        <extensions>
          <ns3:TrackPointExtension>
            <ns3:atemp>18.0</ns3:atemp>
          </ns3:TrackPointExtension>
        </extensions>
      </trkpt>
      <trkpt lat="42.51921306364238262176513671875" lon="19.9488683603703975677490234375">
        <ele>1866.800048828125</ele>
        <time>2026-06-17T09:35:10.000Z</time>
        <extensions>
          <ns3:TrackPointExtension>
            <ns3:atemp>18.0</ns3:atemp>
          </ns3:TrackPointExtension>
        </extensions>
      </trkpt>
      <trkpt lat="42.51921306364238262176513671875" lon="19.9488683603703975677490234375">
        <ele>1866.800048828125</ele>
        <time>2026-06-17T09:35:11.000Z</time>
        <extensions>
          <ns3:TrackPointExtension>
            <ns3:atemp>18.0</ns3:atemp>
          </ns3:TrackPointExtension>
        </extensions>
      </trkpt>
      <trkpt lat="42.51921306364238262176513671875" lon="19.9488683603703975677490234375">
        <ele>1866.800048828125</ele>
        <time>2026-06-17T09:35:12.000Z</time>
        <extensions>
          <ns3:TrackPointExtension>
            <ns3:atemp>18.0</ns3:atemp>
          </ns3:TrackPointExtension>
        </extensions>
      </trkpt>
      <trkpt lat="42.51921306364238262176513671875" lon="19.9488683603703975677490234375">
        <ele>1866.800048828125</ele>
        <time>2026-06-17T09:35:13.000Z</time>
        <extensions>
          <ns3:TrackPointExtension>
            <ns3:atemp>18.0</ns3:atemp>
          </ns3:TrackPointExtension>
        </extensions>
      </trkpt>
      <trkpt lat="42.51921306364238262176513671875" lon="19.9488683603703975677490234375">
        <ele>1866.800048828125</ele>
        <time>2026-06-17T09:35:14.000Z</time>
        <extensions>
          <ns3:TrackPointExtension>
            <ns3:atemp>18.0</ns3:atemp>
          </ns3:TrackPointExtension>
        </extensions>
      </trkpt>
      <trkpt lat="42.51921306364238262176513671875" lon="19.9488683603703975677490234375">
        <ele>1866.800048828125</ele>
        <time>2026-06-17T09:35:15.000Z</time>
        <extensions>
          <ns3:TrackPointExtension>
            <ns3:atemp>18.0</ns3:atemp>
          </ns3:TrackPointExtension>
        </extensions>
      </trkpt>
      <trkpt lat="42.51921306364238262176513671875" lon="19.9488683603703975677490234375">
        <ele>1866.800048828125</ele>
        <time>2026-06-17T09:35:16.000Z</time>
        <extensions>
          <ns3:TrackPointExtension>
            <ns3:atemp>18.0</ns3:atemp>
          </ns3:TrackPointExtension>
        </extensions>
      </trkpt>
      <trkpt lat="42.51921306364238262176513671875" lon="19.9488683603703975677490234375">
        <ele>1866.800048828125</ele>
        <time>2026-06-17T09:35:17.000Z</time>
        <extensions>
          <ns3:TrackPointExtension>
            <ns3:atemp>18.0</ns3:atemp>
          </ns3:TrackPointExtension>
        </extensions>
      </trkpt>
      <trkpt lat="42.51921306364238262176513671875" lon="19.9488683603703975677490234375">
        <ele>1866.800048828125</ele>
        <time>2026-06-17T09:35:18.000Z</time>
        <extensions>
          <ns3:TrackPointExtension>
            <ns3:atemp>18.0</ns3:atemp>
          </ns3:TrackPointExtension>
        </extensions>
      </trkpt>
      <trkpt lat="42.51921306364238262176513671875" lon="19.9488683603703975677490234375">
        <ele>1866.5999755859375</ele>
        <time>2026-06-17T09:35:19.000Z</time>
        <extensions>
          <ns3:TrackPointExtension>
            <ns3:atemp>18.0</ns3:atemp>
          </ns3:TrackPointExtension>
        </extensions>
      </trkpt>
      <trkpt lat="42.51921306364238262176513671875" lon="19.9488683603703975677490234375">
        <ele>1866.5999755859375</ele>
        <time>2026-06-17T09:35:20.000Z</time>
        <extensions>
          <ns3:TrackPointExtension>
            <ns3:atemp>18.0</ns3:atemp>
          </ns3:TrackPointExtension>
        </extensions>
      </trkpt>
      <trkpt lat="42.51921306364238262176513671875" lon="19.9488683603703975677490234375">
        <ele>1866.5999755859375</ele>
        <time>2026-06-17T09:35:21.000Z</time>
        <extensions>
          <ns3:TrackPointExtension>
            <ns3:atemp>18.0</ns3:atemp>
          </ns3:TrackPointExtension>
        </extensions>
      </trkpt>
      <trkpt lat="42.51921306364238262176513671875" lon="19.9488683603703975677490234375">
        <ele>1866.5999755859375</ele>
        <time>2026-06-17T09:35:22.000Z</time>
        <extensions>
          <ns3:TrackPointExtension>
            <ns3:atemp>18.0</ns3:atemp>
          </ns3:TrackPointExtension>
        </extensions>
      </trkpt>
      <trkpt lat="42.51921306364238262176513671875" lon="19.9488683603703975677490234375">
        <ele>1866.5999755859375</ele>
        <time>2026-06-17T09:35:23.000Z</time>
        <extensions>
          <ns3:TrackPointExtension>
            <ns3:atemp>18.0</ns3:atemp>
          </ns3:TrackPointExtension>
        </extensions>
      </trkpt>
      <trkpt lat="42.51921306364238262176513671875" lon="19.9488683603703975677490234375">
        <ele>1866.5999755859375</ele>
        <time>2026-06-17T09:35:24.000Z</time>
        <extensions>
          <ns3:TrackPointExtension>
            <ns3:atemp>18.0</ns3:atemp>
          </ns3:TrackPointExtension>
        </extensions>
      </trkpt>
      <trkpt lat="42.51921306364238262176513671875" lon="19.9488683603703975677490234375">
        <ele>1866.5999755859375</ele>
        <time>2026-06-17T09:35:25.000Z</time>
        <extensions>
          <ns3:TrackPointExtension>
            <ns3:atemp>18.0</ns3:atemp>
          </ns3:TrackPointExtension>
        </extensions>
      </trkpt>
      <trkpt lat="42.51921306364238262176513671875" lon="19.9488683603703975677490234375">
        <ele>1866.5999755859375</ele>
        <time>2026-06-17T09:35:26.000Z</time>
        <extensions>
          <ns3:TrackPointExtension>
            <ns3:atemp>18.0</ns3:atemp>
          </ns3:TrackPointExtension>
        </extensions>
      </trkpt>
      <trkpt lat="42.51921306364238262176513671875" lon="19.9488683603703975677490234375">
        <ele>1866.5999755859375</ele>
        <time>2026-06-17T09:35:27.000Z</time>
        <extensions>
          <ns3:TrackPointExtension>
            <ns3:atemp>18.0</ns3:atemp>
          </ns3:TrackPointExtension>
        </extensions>
      </trkpt>
      <trkpt lat="42.51921306364238262176513671875" lon="19.9488683603703975677490234375">
        <ele>1866.5999755859375</ele>
        <time>2026-06-17T09:35:28.000Z</time>
        <extensions>
          <ns3:TrackPointExtension>
            <ns3:atemp>18.0</ns3:atemp>
          </ns3:TrackPointExtension>
        </extensions>
      </trkpt>
      <trkpt lat="42.51921306364238262176513671875" lon="19.9488683603703975677490234375">
        <ele>1866.5999755859375</ele>
        <time>2026-06-17T09:35:29.000Z</time>
        <extensions>
          <ns3:TrackPointExtension>
            <ns3:atemp>18.0</ns3:atemp>
          </ns3:TrackPointExtension>
        </extensions>
      </trkpt>
      <trkpt lat="42.51921306364238262176513671875" lon="19.9488683603703975677490234375">
        <ele>1866.5999755859375</ele>
        <time>2026-06-17T09:35:30.000Z</time>
        <extensions>
          <ns3:TrackPointExtension>
            <ns3:atemp>18.0</ns3:atemp>
          </ns3:TrackPointExtension>
        </extensions>
      </trkpt>
      <trkpt lat="42.51921306364238262176513671875" lon="19.9488683603703975677490234375">
        <ele>1866.5999755859375</ele>
        <time>2026-06-17T09:35:31.000Z</time>
        <extensions>
          <ns3:TrackPointExtension>
            <ns3:atemp>18.0</ns3:atemp>
          </ns3:TrackPointExtension>
        </extensions>
      </trkpt>
      <trkpt lat="42.51921306364238262176513671875" lon="19.9488683603703975677490234375">
        <ele>1866.5999755859375</ele>
        <time>2026-06-17T09:35:32.000Z</time>
        <extensions>
          <ns3:TrackPointExtension>
            <ns3:atemp>18.0</ns3:atemp>
          </ns3:TrackPointExtension>
        </extensions>
      </trkpt>
      <trkpt lat="42.51921306364238262176513671875" lon="19.9488683603703975677490234375">
        <ele>1866.5999755859375</ele>
        <time>2026-06-17T09:35:33.000Z</time>
        <extensions>
          <ns3:TrackPointExtension>
            <ns3:atemp>18.0</ns3:atemp>
          </ns3:TrackPointExtension>
        </extensions>
      </trkpt>
      <trkpt lat="42.51921306364238262176513671875" lon="19.9488683603703975677490234375">
        <ele>1866.4000244140625</ele>
        <time>2026-06-17T09:35:34.000Z</time>
        <extensions>
          <ns3:TrackPointExtension>
            <ns3:atemp>18.0</ns3:atemp>
          </ns3:TrackPointExtension>
        </extensions>
      </trkpt>
      <trkpt lat="42.51921306364238262176513671875" lon="19.9488683603703975677490234375">
        <ele>1866.4000244140625</ele>
        <time>2026-06-17T09:35:35.000Z</time>
        <extensions>
          <ns3:TrackPointExtension>
            <ns3:atemp>18.0</ns3:atemp>
          </ns3:TrackPointExtension>
        </extensions>
      </trkpt>
      <trkpt lat="42.51921306364238262176513671875" lon="19.9488683603703975677490234375">
        <ele>1866.4000244140625</ele>
        <time>2026-06-17T09:35:36.000Z</time>
        <extensions>
          <ns3:TrackPointExtension>
            <ns3:atemp>18.0</ns3:atemp>
          </ns3:TrackPointExtension>
        </extensions>
      </trkpt>
      <trkpt lat="42.51921306364238262176513671875" lon="19.9488683603703975677490234375">
        <ele>1866.4000244140625</ele>
        <time>2026-06-17T09:35:37.000Z</time>
        <extensions>
          <ns3:TrackPointExtension>
            <ns3:atemp>18.0</ns3:atemp>
          </ns3:TrackPointExtension>
        </extensions>
      </trkpt>
      <trkpt lat="42.51921306364238262176513671875" lon="19.9488683603703975677490234375">
        <ele>1866.4000244140625</ele>
        <time>2026-06-17T09:35:38.000Z</time>
        <extensions>
          <ns3:TrackPointExtension>
            <ns3:atemp>18.0</ns3:atemp>
          </ns3:TrackPointExtension>
        </extensions>
      </trkpt>
      <trkpt lat="42.51921306364238262176513671875" lon="19.9488683603703975677490234375">
        <ele>1866.4000244140625</ele>
        <time>2026-06-17T09:35:39.000Z</time>
        <extensions>
          <ns3:TrackPointExtension>
            <ns3:atemp>18.0</ns3:atemp>
          </ns3:TrackPointExtension>
        </extensions>
      </trkpt>
      <trkpt lat="42.51921306364238262176513671875" lon="19.9488683603703975677490234375">
        <ele>1866.4000244140625</ele>
        <time>2026-06-17T09:35:40.000Z</time>
        <extensions>
          <ns3:TrackPointExtension>
            <ns3:atemp>18.0</ns3:atemp>
          </ns3:TrackPointExtension>
        </extensions>
      </trkpt>
      <trkpt lat="42.51921306364238262176513671875" lon="19.9488683603703975677490234375">
        <ele>1866.4000244140625</ele>
        <time>2026-06-17T09:35:41.000Z</time>
        <extensions>
          <ns3:TrackPointExtension>
            <ns3:atemp>18.0</ns3:atemp>
          </ns3:TrackPointExtension>
        </extensions>
      </trkpt>
      <trkpt lat="42.51921306364238262176513671875" lon="19.9488683603703975677490234375">
        <ele>1866.4000244140625</ele>
        <time>2026-06-17T09:35:42.000Z</time>
        <extensions>
          <ns3:TrackPointExtension>
            <ns3:atemp>18.0</ns3:atemp>
          </ns3:TrackPointExtension>
        </extensions>
      </trkpt>
      <trkpt lat="42.51921306364238262176513671875" lon="19.9488683603703975677490234375">
        <ele>1866.4000244140625</ele>
        <time>2026-06-17T09:35:43.000Z</time>
        <extensions>
          <ns3:TrackPointExtension>
            <ns3:atemp>18.0</ns3:atemp>
          </ns3:TrackPointExtension>
        </extensions>
      </trkpt>
      <trkpt lat="42.51921306364238262176513671875" lon="19.9488683603703975677490234375">
        <ele>1866.4000244140625</ele>
        <time>2026-06-17T09:35:44.000Z</time>
        <extensions>
          <ns3:TrackPointExtension>
            <ns3:atemp>18.0</ns3:atemp>
          </ns3:TrackPointExtension>
        </extensions>
      </trkpt>
      <trkpt lat="42.51921306364238262176513671875" lon="19.9488683603703975677490234375">
        <ele>1866.4000244140625</ele>
        <time>2026-06-17T09:35:45.000Z</time>
        <extensions>
          <ns3:TrackPointExtension>
            <ns3:atemp>18.0</ns3:atemp>
          </ns3:TrackPointExtension>
        </extensions>
      </trkpt>
      <trkpt lat="42.51921306364238262176513671875" lon="19.9488683603703975677490234375">
        <ele>1866.4000244140625</ele>
        <time>2026-06-17T09:35:46.000Z</time>
        <extensions>
          <ns3:TrackPointExtension>
            <ns3:atemp>18.0</ns3:atemp>
          </ns3:TrackPointExtension>
        </extensions>
      </trkpt>
      <trkpt lat="42.51921306364238262176513671875" lon="19.9488683603703975677490234375">
        <ele>1866.4000244140625</ele>
        <time>2026-06-17T09:35:47.000Z</time>
        <extensions>
          <ns3:TrackPointExtension>
            <ns3:atemp>18.0</ns3:atemp>
          </ns3:TrackPointExtension>
        </extensions>
      </trkpt>
      <trkpt lat="42.51921306364238262176513671875" lon="19.9488683603703975677490234375">
        <ele>1866.4000244140625</ele>
        <time>2026-06-17T09:35:48.000Z</time>
        <extensions>
          <ns3:TrackPointExtension>
            <ns3:atemp>18.0</ns3:atemp>
          </ns3:TrackPointExtension>
        </extensions>
      </trkpt>
      <trkpt lat="42.51921306364238262176513671875" lon="19.9488683603703975677490234375">
        <ele>1866.199951171875</ele>
        <time>2026-06-17T09:35:49.000Z</time>
        <extensions>
          <ns3:TrackPointExtension>
            <ns3:atemp>18.0</ns3:atemp>
          </ns3:TrackPointExtension>
        </extensions>
      </trkpt>
      <trkpt lat="42.51921306364238262176513671875" lon="19.9488683603703975677490234375">
        <ele>1866.199951171875</ele>
        <time>2026-06-17T09:35:50.000Z</time>
        <extensions>
          <ns3:TrackPointExtension>
            <ns3:atemp>18.0</ns3:atemp>
          </ns3:TrackPointExtension>
        </extensions>
      </trkpt>
      <trkpt lat="42.51921306364238262176513671875" lon="19.9488683603703975677490234375">
        <ele>1866.199951171875</ele>
        <time>2026-06-17T09:35:51.000Z</time>
        <extensions>
          <ns3:TrackPointExtension>
            <ns3:atemp>18.0</ns3:atemp>
          </ns3:TrackPointExtension>
        </extensions>
      </trkpt>
      <trkpt lat="42.51921306364238262176513671875" lon="19.9488683603703975677490234375">
        <ele>1866.199951171875</ele>
        <time>2026-06-17T09:35:52.000Z</time>
        <extensions>
          <ns3:TrackPointExtension>
            <ns3:atemp>18.0</ns3:atemp>
          </ns3:TrackPointExtension>
        </extensions>
      </trkpt>
      <trkpt lat="42.51921306364238262176513671875" lon="19.9488683603703975677490234375">
        <ele>1866.199951171875</ele>
        <time>2026-06-17T09:35:53.000Z</time>
        <extensions>
          <ns3:TrackPointExtension>
            <ns3:atemp>18.0</ns3:atemp>
          </ns3:TrackPointExtension>
        </extensions>
      </trkpt>
      <trkpt lat="42.51921306364238262176513671875" lon="19.9488683603703975677490234375">
        <ele>1866.199951171875</ele>
        <time>2026-06-17T09:35:54.000Z</time>
        <extensions>
          <ns3:TrackPointExtension>
            <ns3:atemp>18.0</ns3:atemp>
          </ns3:TrackPointExtension>
        </extensions>
      </trkpt>
      <trkpt lat="42.51921306364238262176513671875" lon="19.9488683603703975677490234375">
        <ele>1866.199951171875</ele>
        <time>2026-06-17T09:35:55.000Z</time>
        <extensions>
          <ns3:TrackPointExtension>
            <ns3:atemp>18.0</ns3:atemp>
          </ns3:TrackPointExtension>
        </extensions>
      </trkpt>
      <trkpt lat="42.51921306364238262176513671875" lon="19.9488683603703975677490234375">
        <ele>1866.199951171875</ele>
        <time>2026-06-17T09:35:56.000Z</time>
        <extensions>
          <ns3:TrackPointExtension>
            <ns3:atemp>18.0</ns3:atemp>
          </ns3:TrackPointExtension>
        </extensions>
      </trkpt>
      <trkpt lat="42.51921306364238262176513671875" lon="19.9488683603703975677490234375">
        <ele>1866.199951171875</ele>
        <time>2026-06-17T09:35:57.000Z</time>
        <extensions>
          <ns3:TrackPointExtension>
            <ns3:atemp>18.0</ns3:atemp>
          </ns3:TrackPointExtension>
        </extensions>
      </trkpt>
      <trkpt lat="42.51921306364238262176513671875" lon="19.9488683603703975677490234375">
        <ele>1866.199951171875</ele>
        <time>2026-06-17T09:35:58.000Z</time>
        <extensions>
          <ns3:TrackPointExtension>
            <ns3:atemp>18.0</ns3:atemp>
          </ns3:TrackPointExtension>
        </extensions>
      </trkpt>
      <trkpt lat="42.51921306364238262176513671875" lon="19.9488683603703975677490234375">
        <ele>1866.199951171875</ele>
        <time>2026-06-17T09:35:59.000Z</time>
        <extensions>
          <ns3:TrackPointExtension>
            <ns3:atemp>18.0</ns3:atemp>
          </ns3:TrackPointExtension>
        </extensions>
      </trkpt>
      <trkpt lat="42.51921306364238262176513671875" lon="19.9488683603703975677490234375">
        <ele>1866.199951171875</ele>
        <time>2026-06-17T09:36:00.000Z</time>
        <extensions>
          <ns3:TrackPointExtension>
            <ns3:atemp>18.0</ns3:atemp>
          </ns3:TrackPointExtension>
        </extensions>
      </trkpt>
      <trkpt lat="42.51921306364238262176513671875" lon="19.9488683603703975677490234375">
        <ele>1866.199951171875</ele>
        <time>2026-06-17T09:36:01.000Z</time>
        <extensions>
          <ns3:TrackPointExtension>
            <ns3:atemp>18.0</ns3:atemp>
          </ns3:TrackPointExtension>
        </extensions>
      </trkpt>
      <trkpt lat="42.51921306364238262176513671875" lon="19.9488683603703975677490234375">
        <ele>1866.199951171875</ele>
        <time>2026-06-17T09:36:02.000Z</time>
        <extensions>
          <ns3:TrackPointExtension>
            <ns3:atemp>18.0</ns3:atemp>
          </ns3:TrackPointExtension>
        </extensions>
      </trkpt>
      <trkpt lat="42.51921306364238262176513671875" lon="19.9488683603703975677490234375">
        <ele>1866.199951171875</ele>
        <time>2026-06-17T09:36:03.000Z</time>
        <extensions>
          <ns3:TrackPointExtension>
            <ns3:atemp>18.0</ns3:atemp>
          </ns3:TrackPointExtension>
        </extensions>
      </trkpt>
      <trkpt lat="42.51921306364238262176513671875" lon="19.9488683603703975677490234375">
        <ele>1866.199951171875</ele>
        <time>2026-06-17T09:36:04.000Z</time>
        <extensions>
          <ns3:TrackPointExtension>
            <ns3:atemp>18.0</ns3:atemp>
          </ns3:TrackPointExtension>
        </extensions>
      </trkpt>
      <trkpt lat="42.51921306364238262176513671875" lon="19.9488683603703975677490234375">
        <ele>1866.199951171875</ele>
        <time>2026-06-17T09:36:05.000Z</time>
        <extensions>
          <ns3:TrackPointExtension>
            <ns3:atemp>18.0</ns3:atemp>
          </ns3:TrackPointExtension>
        </extensions>
      </trkpt>
      <trkpt lat="42.51921306364238262176513671875" lon="19.9488683603703975677490234375">
        <ele>1866</ele>
        <time>2026-06-17T09:36:06.000Z</time>
        <extensions>
          <ns3:TrackPointExtension>
            <ns3:atemp>18.0</ns3:atemp>
          </ns3:TrackPointExtension>
        </extensions>
      </trkpt>
      <trkpt lat="42.51921306364238262176513671875" lon="19.9488683603703975677490234375">
        <ele>1866</ele>
        <time>2026-06-17T09:36:07.000Z</time>
        <extensions>
          <ns3:TrackPointExtension>
            <ns3:atemp>18.0</ns3:atemp>
          </ns3:TrackPointExtension>
        </extensions>
      </trkpt>
      <trkpt lat="42.51921306364238262176513671875" lon="19.9488683603703975677490234375">
        <ele>1866</ele>
        <time>2026-06-17T09:36:08.000Z</time>
        <extensions>
          <ns3:TrackPointExtension>
            <ns3:atemp>18.0</ns3:atemp>
          </ns3:TrackPointExtension>
        </extensions>
      </trkpt>
      <trkpt lat="42.51921306364238262176513671875" lon="19.9488683603703975677490234375">
        <ele>1866</ele>
        <time>2026-06-17T09:36:09.000Z</time>
        <extensions>
          <ns3:TrackPointExtension>
            <ns3:atemp>18.0</ns3:atemp>
          </ns3:TrackPointExtension>
        </extensions>
      </trkpt>
      <trkpt lat="42.51921306364238262176513671875" lon="19.9488683603703975677490234375">
        <ele>1866</ele>
        <time>2026-06-17T09:36:10.000Z</time>
        <extensions>
          <ns3:TrackPointExtension>
            <ns3:atemp>18.0</ns3:atemp>
          </ns3:TrackPointExtension>
        </extensions>
      </trkpt>
      <trkpt lat="42.51921306364238262176513671875" lon="19.9488683603703975677490234375">
        <ele>1866</ele>
        <time>2026-06-17T09:36:11.000Z</time>
        <extensions>
          <ns3:TrackPointExtension>
            <ns3:atemp>18.0</ns3:atemp>
          </ns3:TrackPointExtension>
        </extensions>
      </trkpt>
      <trkpt lat="42.51921306364238262176513671875" lon="19.9488683603703975677490234375">
        <ele>1866</ele>
        <time>2026-06-17T09:36:12.000Z</time>
        <extensions>
          <ns3:TrackPointExtension>
            <ns3:atemp>18.0</ns3:atemp>
          </ns3:TrackPointExtension>
        </extensions>
      </trkpt>
      <trkpt lat="42.51921306364238262176513671875" lon="19.9488683603703975677490234375">
        <ele>1866</ele>
        <time>2026-06-17T09:36:13.000Z</time>
        <extensions>
          <ns3:TrackPointExtension>
            <ns3:atemp>18.0</ns3:atemp>
          </ns3:TrackPointExtension>
        </extensions>
      </trkpt>
      <trkpt lat="42.51921306364238262176513671875" lon="19.9488683603703975677490234375">
        <ele>1866</ele>
        <time>2026-06-17T09:36:14.000Z</time>
        <extensions>
          <ns3:TrackPointExtension>
            <ns3:atemp>18.0</ns3:atemp>
          </ns3:TrackPointExtension>
        </extensions>
      </trkpt>
      <trkpt lat="42.51921306364238262176513671875" lon="19.9488683603703975677490234375">
        <ele>1866</ele>
        <time>2026-06-17T09:36:15.000Z</time>
        <extensions>
          <ns3:TrackPointExtension>
            <ns3:atemp>18.0</ns3:atemp>
          </ns3:TrackPointExtension>
        </extensions>
      </trkpt>
      <trkpt lat="42.51921306364238262176513671875" lon="19.9488683603703975677490234375">
        <ele>1866</ele>
        <time>2026-06-17T09:36:16.000Z</time>
        <extensions>
          <ns3:TrackPointExtension>
            <ns3:atemp>18.0</ns3:atemp>
          </ns3:TrackPointExtension>
        </extensions>
      </trkpt>
      <trkpt lat="42.51921306364238262176513671875" lon="19.9488683603703975677490234375">
        <ele>1866</ele>
        <time>2026-06-17T09:36:17.000Z</time>
        <extensions>
          <ns3:TrackPointExtension>
            <ns3:atemp>18.0</ns3:atemp>
          </ns3:TrackPointExtension>
        </extensions>
      </trkpt>
      <trkpt lat="42.51921306364238262176513671875" lon="19.9488683603703975677490234375">
        <ele>1866</ele>
        <time>2026-06-17T09:36:18.000Z</time>
        <extensions>
          <ns3:TrackPointExtension>
            <ns3:atemp>18.0</ns3:atemp>
          </ns3:TrackPointExtension>
        </extensions>
      </trkpt>
      <trkpt lat="42.51921306364238262176513671875" lon="19.9488683603703975677490234375">
        <ele>1866</ele>
        <time>2026-06-17T09:36:19.000Z</time>
        <extensions>
          <ns3:TrackPointExtension>
            <ns3:atemp>18.0</ns3:atemp>
          </ns3:TrackPointExtension>
        </extensions>
      </trkpt>
      <trkpt lat="42.51921306364238262176513671875" lon="19.9488683603703975677490234375">
        <ele>1866</ele>
        <time>2026-06-17T09:36:20.000Z</time>
        <extensions>
          <ns3:TrackPointExtension>
            <ns3:atemp>18.0</ns3:atemp>
          </ns3:TrackPointExtension>
        </extensions>
      </trkpt>
      <trkpt lat="42.51921306364238262176513671875" lon="19.9488683603703975677490234375">
        <ele>1865.800048828125</ele>
        <time>2026-06-17T09:36:21.000Z</time>
        <extensions>
          <ns3:TrackPointExtension>
            <ns3:atemp>18.0</ns3:atemp>
          </ns3:TrackPointExtension>
        </extensions>
      </trkpt>
      <trkpt lat="42.51921306364238262176513671875" lon="19.9488683603703975677490234375">
        <ele>1865.800048828125</ele>
        <time>2026-06-17T09:36:22.000Z</time>
        <extensions>
          <ns3:TrackPointExtension>
            <ns3:atemp>18.0</ns3:atemp>
          </ns3:TrackPointExtension>
        </extensions>
      </trkpt>
      <trkpt lat="42.51921306364238262176513671875" lon="19.9488683603703975677490234375">
        <ele>1865.800048828125</ele>
        <time>2026-06-17T09:36:23.000Z</time>
        <extensions>
          <ns3:TrackPointExtension>
            <ns3:atemp>18.0</ns3:atemp>
          </ns3:TrackPointExtension>
        </extensions>
      </trkpt>
      <trkpt lat="42.51921306364238262176513671875" lon="19.9488683603703975677490234375">
        <ele>1865.800048828125</ele>
        <time>2026-06-17T09:36:24.000Z</time>
        <extensions>
          <ns3:TrackPointExtension>
            <ns3:atemp>18.0</ns3:atemp>
          </ns3:TrackPointExtension>
        </extensions>
      </trkpt>
      <trkpt lat="42.51921306364238262176513671875" lon="19.9488683603703975677490234375">
        <ele>1865.800048828125</ele>
        <time>2026-06-17T09:36:25.000Z</time>
        <extensions>
          <ns3:TrackPointExtension>
            <ns3:atemp>18.0</ns3:atemp>
          </ns3:TrackPointExtension>
        </extensions>
      </trkpt>
      <trkpt lat="42.51921306364238262176513671875" lon="19.9488683603703975677490234375">
        <ele>1865.800048828125</ele>
        <time>2026-06-17T09:36:26.000Z</time>
        <extensions>
          <ns3:TrackPointExtension>
            <ns3:atemp>18.0</ns3:atemp>
          </ns3:TrackPointExtension>
        </extensions>
      </trkpt>
      <trkpt lat="42.51921306364238262176513671875" lon="19.9488683603703975677490234375">
        <ele>1865.800048828125</ele>
        <time>2026-06-17T09:36:27.000Z</time>
        <extensions>
          <ns3:TrackPointExtension>
            <ns3:atemp>18.0</ns3:atemp>
          </ns3:TrackPointExtension>
        </extensions>
      </trkpt>
      <trkpt lat="42.51921306364238262176513671875" lon="19.9488683603703975677490234375">
        <ele>1865.800048828125</ele>
        <time>2026-06-17T09:36:28.000Z</time>
        <extensions>
          <ns3:TrackPointExtension>
            <ns3:atemp>18.0</ns3:atemp>
          </ns3:TrackPointExtension>
        </extensions>
      </trkpt>
      <trkpt lat="42.51921306364238262176513671875" lon="19.9488683603703975677490234375">
        <ele>1865.800048828125</ele>
        <time>2026-06-17T09:36:29.000Z</time>
        <extensions>
          <ns3:TrackPointExtension>
            <ns3:atemp>18.0</ns3:atemp>
          </ns3:TrackPointExtension>
        </extensions>
      </trkpt>
      <trkpt lat="42.5192186795175075531005859375" lon="19.9488650076091289520263671875">
        <ele>1865.800048828125</ele>
        <time>2026-06-17T09:36:30.000Z</time>
        <extensions>
          <ns3:TrackPointExtension>
            <ns3:atemp>18.0</ns3:atemp>
          </ns3:TrackPointExtension>
        </extensions>
      </trkpt>
      <trkpt lat="42.519231252372264862060546875" lon="19.94886157102882862091064453125">
        <ele>1865.800048828125</ele>
        <time>2026-06-17T09:36:31.000Z</time>
        <extensions>
          <ns3:TrackPointExtension>
            <ns3:atemp>18.0</ns3:atemp>
          </ns3:TrackPointExtension>
        </extensions>
      </trkpt>
      <trkpt lat="42.5192310847342014312744140625" lon="19.94886173866689205169677734375">
        <ele>1865.800048828125</ele>
        <time>2026-06-17T09:36:32.000Z</time>
        <extensions>
          <ns3:TrackPointExtension>
            <ns3:atemp>18.0</ns3:atemp>
          </ns3:TrackPointExtension>
        </extensions>
      </trkpt>
      <trkpt lat="42.5192310847342014312744140625" lon="19.94886173866689205169677734375">
        <ele>1865.800048828125</ele>
        <time>2026-06-17T09:36:33.000Z</time>
        <extensions>
          <ns3:TrackPointExtension>
            <ns3:atemp>18.0</ns3:atemp>
          </ns3:TrackPointExtension>
        </extensions>
      </trkpt>
      <trkpt lat="42.5192307494580745697021484375" lon="19.9488623254001140594482421875">
        <ele>1865.800048828125</ele>
        <time>2026-06-17T09:36:34.000Z</time>
        <extensions>
          <ns3:TrackPointExtension>
            <ns3:atemp>18.0</ns3:atemp>
          </ns3:TrackPointExtension>
        </extensions>
      </trkpt>
      <trkpt lat="42.5192310847342014312744140625" lon="19.94886173866689205169677734375">
        <ele>1865.800048828125</ele>
        <time>2026-06-17T09:36:35.000Z</time>
        <extensions>
          <ns3:TrackPointExtension>
            <ns3:atemp>18.0</ns3:atemp>
          </ns3:TrackPointExtension>
        </extensions>
      </trkpt>
      <trkpt lat="42.5192310847342014312744140625" lon="19.94886173866689205169677734375">
        <ele>1865.800048828125</ele>
        <time>2026-06-17T09:36:36.000Z</time>
        <extensions>
          <ns3:TrackPointExtension>
            <ns3:atemp>18.0</ns3:atemp>
          </ns3:TrackPointExtension>
        </extensions>
      </trkpt>
      <trkpt lat="42.5192310847342014312744140625" lon="19.94886173866689205169677734375">
        <ele>1866</ele>
        <time>2026-06-17T09:36:37.000Z</time>
        <extensions>
          <ns3:TrackPointExtension>
            <ns3:atemp>18.0</ns3:atemp>
          </ns3:TrackPointExtension>
        </extensions>
      </trkpt>
      <trkpt lat="42.5192310847342014312744140625" lon="19.94886173866689205169677734375">
        <ele>1866</ele>
        <time>2026-06-17T09:36:38.000Z</time>
        <extensions>
          <ns3:TrackPointExtension>
            <ns3:atemp>18.0</ns3:atemp>
          </ns3:TrackPointExtension>
        </extensions>
      </trkpt>
      <trkpt lat="42.5192310847342014312744140625" lon="19.94886173866689205169677734375">
        <ele>1866.199951171875</ele>
        <time>2026-06-17T09:36:39.000Z</time>
        <extensions>
          <ns3:TrackPointExtension>
            <ns3:atemp>18.0</ns3:atemp>
          </ns3:TrackPointExtension>
        </extensions>
      </trkpt>
      <trkpt lat="42.5192310847342014312744140625" lon="19.94886173866689205169677734375">
        <ele>1866.199951171875</ele>
        <time>2026-06-17T09:36:40.000Z</time>
        <extensions>
          <ns3:TrackPointExtension>
            <ns3:atemp>18.0</ns3:atemp>
          </ns3:TrackPointExtension>
        </extensions>
      </trkpt>
      <trkpt lat="42.5192310847342014312744140625" lon="19.94886173866689205169677734375">
        <ele>1866</ele>
        <time>2026-06-17T09:36:41.000Z</time>
        <extensions>
          <ns3:TrackPointExtension>
            <ns3:atemp>18.0</ns3:atemp>
          </ns3:TrackPointExtension>
        </extensions>
      </trkpt>
      <trkpt lat="42.5192310847342014312744140625" lon="19.94886173866689205169677734375">
        <ele>1866</ele>
        <time>2026-06-17T09:36:42.000Z</time>
        <extensions>
          <ns3:TrackPointExtension>
            <ns3:atemp>18.0</ns3:atemp>
          </ns3:TrackPointExtension>
        </extensions>
      </trkpt>
      <trkpt lat="42.5192310847342014312744140625" lon="19.94886173866689205169677734375">
        <ele>1866</ele>
        <time>2026-06-17T09:36:43.000Z</time>
        <extensions>
          <ns3:TrackPointExtension>
            <ns3:atemp>18.0</ns3:atemp>
          </ns3:TrackPointExtension>
        </extensions>
      </trkpt>
      <trkpt lat="42.5192310847342014312744140625" lon="19.94886173866689205169677734375">
        <ele>1866</ele>
        <time>2026-06-17T09:36:44.000Z</time>
        <extensions>
          <ns3:TrackPointExtension>
            <ns3:atemp>18.0</ns3:atemp>
          </ns3:TrackPointExtension>
        </extensions>
      </trkpt>
      <trkpt lat="42.5192310847342014312744140625" lon="19.94886173866689205169677734375">
        <ele>1866</ele>
        <time>2026-06-17T09:36:45.000Z</time>
        <extensions>
          <ns3:TrackPointExtension>
            <ns3:atemp>18.0</ns3:atemp>
          </ns3:TrackPointExtension>
        </extensions>
      </trkpt>
      <trkpt lat="42.5192310847342014312744140625" lon="19.94886173866689205169677734375">
        <ele>1866</ele>
        <time>2026-06-17T09:36:46.000Z</time>
        <extensions>
          <ns3:TrackPointExtension>
            <ns3:atemp>18.0</ns3:atemp>
          </ns3:TrackPointExtension>
        </extensions>
      </trkpt>
      <trkpt lat="42.5192310847342014312744140625" lon="19.94886173866689205169677734375">
        <ele>1866</ele>
        <time>2026-06-17T09:36:47.000Z</time>
        <extensions>
          <ns3:TrackPointExtension>
            <ns3:atemp>18.0</ns3:atemp>
          </ns3:TrackPointExtension>
        </extensions>
      </trkpt>
      <trkpt lat="42.5192310847342014312744140625" lon="19.94886173866689205169677734375">
        <ele>1866</ele>
        <time>2026-06-17T09:36:48.000Z</time>
        <extensions>
          <ns3:TrackPointExtension>
            <ns3:atemp>19.0</ns3:atemp>
          </ns3:TrackPointExtension>
        </extensions>
      </trkpt>
      <trkpt lat="42.5192310847342014312744140625" lon="19.94886173866689205169677734375">
        <ele>1866</ele>
        <time>2026-06-17T09:36:49.000Z</time>
        <extensions>
          <ns3:TrackPointExtension>
            <ns3:atemp>18.0</ns3:atemp>
          </ns3:TrackPointExtension>
        </extensions>
      </trkpt>
      <trkpt lat="42.5192310847342014312744140625" lon="19.94886173866689205169677734375">
        <ele>1866</ele>
        <time>2026-06-17T09:36:50.000Z</time>
        <extensions>
          <ns3:TrackPointExtension>
            <ns3:atemp>18.0</ns3:atemp>
          </ns3:TrackPointExtension>
        </extensions>
      </trkpt>
      <trkpt lat="42.5192310847342014312744140625" lon="19.94886173866689205169677734375">
        <ele>1866</ele>
        <time>2026-06-17T09:36:51.000Z</time>
        <extensions>
          <ns3:TrackPointExtension>
            <ns3:atemp>18.0</ns3:atemp>
          </ns3:TrackPointExtension>
        </extensions>
      </trkpt>
      <trkpt lat="42.5192310847342014312744140625" lon="19.94886173866689205169677734375">
        <ele>1866</ele>
        <time>2026-06-17T09:36:52.000Z</time>
        <extensions>
          <ns3:TrackPointExtension>
            <ns3:atemp>18.0</ns3:atemp>
          </ns3:TrackPointExtension>
        </extensions>
      </trkpt>
      <trkpt lat="42.5192310847342014312744140625" lon="19.94886173866689205169677734375">
        <ele>1866</ele>
        <time>2026-06-17T09:36:53.000Z</time>
        <extensions>
          <ns3:TrackPointExtension>
            <ns3:atemp>18.0</ns3:atemp>
          </ns3:TrackPointExtension>
        </extensions>
      </trkpt>
      <trkpt lat="42.5192310847342014312744140625" lon="19.94886173866689205169677734375">
        <ele>1866</ele>
        <time>2026-06-17T09:36:54.000Z</time>
        <extensions>
          <ns3:TrackPointExtension>
            <ns3:atemp>18.0</ns3:atemp>
          </ns3:TrackPointExtension>
        </extensions>
      </trkpt>
      <trkpt lat="42.5192310847342014312744140625" lon="19.94886173866689205169677734375">
        <ele>1866</ele>
        <time>2026-06-17T09:36:55.000Z</time>
        <extensions>
          <ns3:TrackPointExtension>
            <ns3:atemp>18.0</ns3:atemp>
          </ns3:TrackPointExtension>
        </extensions>
      </trkpt>
      <trkpt lat="42.5192310847342014312744140625" lon="19.94886173866689205169677734375">
        <ele>1866</ele>
        <time>2026-06-17T09:36:56.000Z</time>
        <extensions>
          <ns3:TrackPointExtension>
            <ns3:atemp>18.0</ns3:atemp>
          </ns3:TrackPointExtension>
        </extensions>
      </trkpt>
      <trkpt lat="42.5192310847342014312744140625" lon="19.94886173866689205169677734375">
        <ele>1866</ele>
        <time>2026-06-17T09:36:57.000Z</time>
        <extensions>
          <ns3:TrackPointExtension>
            <ns3:atemp>18.0</ns3:atemp>
          </ns3:TrackPointExtension>
        </extensions>
      </trkpt>
      <trkpt lat="42.5192310847342014312744140625" lon="19.94886173866689205169677734375">
        <ele>1866</ele>
        <time>2026-06-17T09:36:58.000Z</time>
        <extensions>
          <ns3:TrackPointExtension>
            <ns3:atemp>18.0</ns3:atemp>
          </ns3:TrackPointExtension>
        </extensions>
      </trkpt>
      <trkpt lat="42.5192310847342014312744140625" lon="19.94886173866689205169677734375">
        <ele>1866</ele>
        <time>2026-06-17T09:36:59.000Z</time>
        <extensions>
          <ns3:TrackPointExtension>
            <ns3:atemp>18.0</ns3:atemp>
          </ns3:TrackPointExtension>
        </extensions>
      </trkpt>
      <trkpt lat="42.5192310847342014312744140625" lon="19.94886173866689205169677734375">
        <ele>1866</ele>
        <time>2026-06-17T09:37:00.000Z</time>
        <extensions>
          <ns3:TrackPointExtension>
            <ns3:atemp>18.0</ns3:atemp>
          </ns3:TrackPointExtension>
        </extensions>
      </trkpt>
      <trkpt lat="42.5192310847342014312744140625" lon="19.94886173866689205169677734375">
        <ele>1866</ele>
        <time>2026-06-17T09:37:01.000Z</time>
        <extensions>
          <ns3:TrackPointExtension>
            <ns3:atemp>18.0</ns3:atemp>
          </ns3:TrackPointExtension>
        </extensions>
      </trkpt>
      <trkpt lat="42.5192310847342014312744140625" lon="19.94886173866689205169677734375">
        <ele>1866</ele>
        <time>2026-06-17T09:37:02.000Z</time>
        <extensions>
          <ns3:TrackPointExtension>
            <ns3:atemp>18.0</ns3:atemp>
          </ns3:TrackPointExtension>
        </extensions>
      </trkpt>
      <trkpt lat="42.5192310847342014312744140625" lon="19.94886173866689205169677734375">
        <ele>1866</ele>
        <time>2026-06-17T09:37:03.000Z</time>
        <extensions>
          <ns3:TrackPointExtension>
            <ns3:atemp>18.0</ns3:atemp>
          </ns3:TrackPointExtension>
        </extensions>
      </trkpt>
      <trkpt lat="42.5192310847342014312744140625" lon="19.94886173866689205169677734375">
        <ele>1866</ele>
        <time>2026-06-17T09:37:04.000Z</time>
        <extensions>
          <ns3:TrackPointExtension>
            <ns3:atemp>18.0</ns3:atemp>
          </ns3:TrackPointExtension>
        </extensions>
      </trkpt>
      <trkpt lat="42.5192310847342014312744140625" lon="19.94886173866689205169677734375">
        <ele>1866</ele>
        <time>2026-06-17T09:37:05.000Z</time>
        <extensions>
          <ns3:TrackPointExtension>
            <ns3:atemp>19.0</ns3:atemp>
          </ns3:TrackPointExtension>
        </extensions>
      </trkpt>
      <trkpt lat="42.5192310847342014312744140625" lon="19.94886173866689205169677734375">
        <ele>1866</ele>
        <time>2026-06-17T09:37:06.000Z</time>
        <extensions>
          <ns3:TrackPointExtension>
            <ns3:atemp>19.0</ns3:atemp>
          </ns3:TrackPointExtension>
        </extensions>
      </trkpt>
      <trkpt lat="42.5192310847342014312744140625" lon="19.94886173866689205169677734375">
        <ele>1866</ele>
        <time>2026-06-17T09:37:07.000Z</time>
        <extensions>
          <ns3:TrackPointExtension>
            <ns3:atemp>19.0</ns3:atemp>
          </ns3:TrackPointExtension>
        </extensions>
      </trkpt>
      <trkpt lat="42.5192310847342014312744140625" lon="19.94886173866689205169677734375">
        <ele>1866</ele>
        <time>2026-06-17T09:37:08.000Z</time>
        <extensions>
          <ns3:TrackPointExtension>
            <ns3:atemp>18.0</ns3:atemp>
          </ns3:TrackPointExtension>
        </extensions>
      </trkpt>
      <trkpt lat="42.5192310847342014312744140625" lon="19.94886173866689205169677734375">
        <ele>1866</ele>
        <time>2026-06-17T09:37:09.000Z</time>
        <extensions>
          <ns3:TrackPointExtension>
            <ns3:atemp>19.0</ns3:atemp>
          </ns3:TrackPointExtension>
        </extensions>
      </trkpt>
      <trkpt lat="42.5192310847342014312744140625" lon="19.94886173866689205169677734375">
        <ele>1866</ele>
        <time>2026-06-17T09:37:10.000Z</time>
        <extensions>
          <ns3:TrackPointExtension>
            <ns3:atemp>18.0</ns3:atemp>
          </ns3:TrackPointExtension>
        </extensions>
      </trkpt>
      <trkpt lat="42.5192310847342014312744140625" lon="19.94886173866689205169677734375">
        <ele>1866</ele>
        <time>2026-06-17T09:37:11.000Z</time>
        <extensions>
          <ns3:TrackPointExtension>
            <ns3:atemp>19.0</ns3:atemp>
          </ns3:TrackPointExtension>
        </extensions>
      </trkpt>
      <trkpt lat="42.5192310847342014312744140625" lon="19.94886173866689205169677734375">
        <ele>1866</ele>
        <time>2026-06-17T09:37:12.000Z</time>
        <extensions>
          <ns3:TrackPointExtension>
            <ns3:atemp>18.0</ns3:atemp>
          </ns3:TrackPointExtension>
        </extensions>
      </trkpt>
      <trkpt lat="42.5192310847342014312744140625" lon="19.94886173866689205169677734375">
        <ele>1866</ele>
        <time>2026-06-17T09:37:13.000Z</time>
        <extensions>
          <ns3:TrackPointExtension>
            <ns3:atemp>19.0</ns3:atemp>
          </ns3:TrackPointExtension>
        </extensions>
      </trkpt>
      <trkpt lat="42.5192310847342014312744140625" lon="19.94886173866689205169677734375">
        <ele>1866</ele>
        <time>2026-06-17T09:37:14.000Z</time>
        <extensions>
          <ns3:TrackPointExtension>
            <ns3:atemp>19.0</ns3:atemp>
          </ns3:TrackPointExtension>
        </extensions>
      </trkpt>
      <trkpt lat="42.5192310847342014312744140625" lon="19.94886173866689205169677734375">
        <ele>1866</ele>
        <time>2026-06-17T09:37:15.000Z</time>
        <extensions>
          <ns3:TrackPointExtension>
            <ns3:atemp>19.0</ns3:atemp>
          </ns3:TrackPointExtension>
        </extensions>
      </trkpt>
      <trkpt lat="42.5192310847342014312744140625" lon="19.94886173866689205169677734375">
        <ele>1866</ele>
        <time>2026-06-17T09:37:16.000Z</time>
        <extensions>
          <ns3:TrackPointExtension>
            <ns3:atemp>19.0</ns3:atemp>
          </ns3:TrackPointExtension>
        </extensions>
      </trkpt>
      <trkpt lat="42.5192310847342014312744140625" lon="19.94886173866689205169677734375">
        <ele>1866</ele>
        <time>2026-06-17T09:37:17.000Z</time>
        <extensions>
          <ns3:TrackPointExtension>
            <ns3:atemp>19.0</ns3:atemp>
          </ns3:TrackPointExtension>
        </extensions>
      </trkpt>
      <trkpt lat="42.5192310847342014312744140625" lon="19.94886173866689205169677734375">
        <ele>1866</ele>
        <time>2026-06-17T09:37:18.000Z</time>
        <extensions>
          <ns3:TrackPointExtension>
            <ns3:atemp>19.0</ns3:atemp>
          </ns3:TrackPointExtension>
        </extensions>
      </trkpt>
      <trkpt lat="42.5192310847342014312744140625" lon="19.94886173866689205169677734375">
        <ele>1866</ele>
        <time>2026-06-17T09:37:19.000Z</time>
        <extensions>
          <ns3:TrackPointExtension>
            <ns3:atemp>19.0</ns3:atemp>
          </ns3:TrackPointExtension>
        </extensions>
      </trkpt>
      <trkpt lat="42.5192310847342014312744140625" lon="19.94886173866689205169677734375">
        <ele>1866</ele>
        <time>2026-06-17T09:37:20.000Z</time>
        <extensions>
          <ns3:TrackPointExtension>
            <ns3:atemp>19.0</ns3:atemp>
          </ns3:TrackPointExtension>
        </extensions>
      </trkpt>
      <trkpt lat="42.5192310847342014312744140625" lon="19.94886173866689205169677734375">
        <ele>1866</ele>
        <time>2026-06-17T09:37:21.000Z</time>
        <extensions>
          <ns3:TrackPointExtension>
            <ns3:atemp>19.0</ns3:atemp>
          </ns3:TrackPointExtension>
        </extensions>
      </trkpt>
      <trkpt lat="42.5192310847342014312744140625" lon="19.94886173866689205169677734375">
        <ele>1866</ele>
        <time>2026-06-17T09:37:22.000Z</time>
        <extensions>
          <ns3:TrackPointExtension>
            <ns3:atemp>19.0</ns3:atemp>
          </ns3:TrackPointExtension>
        </extensions>
      </trkpt>
      <trkpt lat="42.5192310847342014312744140625" lon="19.94886173866689205169677734375">
        <ele>1866</ele>
        <time>2026-06-17T09:37:23.000Z</time>
        <extensions>
          <ns3:TrackPointExtension>
            <ns3:atemp>19.0</ns3:atemp>
          </ns3:TrackPointExtension>
        </extensions>
      </trkpt>
      <trkpt lat="42.5192310847342014312744140625" lon="19.94886173866689205169677734375">
        <ele>1866</ele>
        <time>2026-06-17T09:37:24.000Z</time>
        <extensions>
          <ns3:TrackPointExtension>
            <ns3:atemp>19.0</ns3:atemp>
          </ns3:TrackPointExtension>
        </extensions>
      </trkpt>
      <trkpt lat="42.5192310847342014312744140625" lon="19.94886173866689205169677734375">
        <ele>1866</ele>
        <time>2026-06-17T09:37:25.000Z</time>
        <extensions>
          <ns3:TrackPointExtension>
            <ns3:atemp>19.0</ns3:atemp>
          </ns3:TrackPointExtension>
        </extensions>
      </trkpt>
      <trkpt lat="42.5192310847342014312744140625" lon="19.94886173866689205169677734375">
        <ele>1866</ele>
        <time>2026-06-17T09:37:26.000Z</time>
        <extensions>
          <ns3:TrackPointExtension>
            <ns3:atemp>19.0</ns3:atemp>
          </ns3:TrackPointExtension>
        </extensions>
      </trkpt>
      <trkpt lat="42.5192310847342014312744140625" lon="19.94886173866689205169677734375">
        <ele>1866</ele>
        <time>2026-06-17T09:37:27.000Z</time>
        <extensions>
          <ns3:TrackPointExtension>
            <ns3:atemp>19.0</ns3:atemp>
          </ns3:TrackPointExtension>
        </extensions>
      </trkpt>
      <trkpt lat="42.5192310847342014312744140625" lon="19.94886173866689205169677734375">
        <ele>1866</ele>
        <time>2026-06-17T09:37:28.000Z</time>
        <extensions>
          <ns3:TrackPointExtension>
            <ns3:atemp>19.0</ns3:atemp>
          </ns3:TrackPointExtension>
        </extensions>
      </trkpt>
      <trkpt lat="42.5192310847342014312744140625" lon="19.94886173866689205169677734375">
        <ele>1866</ele>
        <time>2026-06-17T09:37:29.000Z</time>
        <extensions>
          <ns3:TrackPointExtension>
            <ns3:atemp>19.0</ns3:atemp>
          </ns3:TrackPointExtension>
        </extensions>
      </trkpt>
      <trkpt lat="42.5192310847342014312744140625" lon="19.94886173866689205169677734375">
        <ele>1866</ele>
        <time>2026-06-17T09:37:30.000Z</time>
        <extensions>
          <ns3:TrackPointExtension>
            <ns3:atemp>19.0</ns3:atemp>
          </ns3:TrackPointExtension>
        </extensions>
      </trkpt>
      <trkpt lat="42.5192310847342014312744140625" lon="19.94886173866689205169677734375">
        <ele>1866</ele>
        <time>2026-06-17T09:37:31.000Z</time>
        <extensions>
          <ns3:TrackPointExtension>
            <ns3:atemp>19.0</ns3:atemp>
          </ns3:TrackPointExtension>
        </extensions>
      </trkpt>
      <trkpt lat="42.5192310847342014312744140625" lon="19.94886173866689205169677734375">
        <ele>1866</ele>
        <time>2026-06-17T09:37:32.000Z</time>
        <extensions>
          <ns3:TrackPointExtension>
            <ns3:atemp>19.0</ns3:atemp>
          </ns3:TrackPointExtension>
        </extensions>
      </trkpt>
      <trkpt lat="42.5192310847342014312744140625" lon="19.94886173866689205169677734375">
        <ele>1866</ele>
        <time>2026-06-17T09:37:33.000Z</time>
        <extensions>
          <ns3:TrackPointExtension>
            <ns3:atemp>19.0</ns3:atemp>
          </ns3:TrackPointExtension>
        </extensions>
      </trkpt>
      <trkpt lat="42.5192310847342014312744140625" lon="19.94886173866689205169677734375">
        <ele>1866</ele>
        <time>2026-06-17T09:37:34.000Z</time>
        <extensions>
          <ns3:TrackPointExtension>
            <ns3:atemp>19.0</ns3:atemp>
          </ns3:TrackPointExtension>
        </extensions>
      </trkpt>
      <trkpt lat="42.5192310847342014312744140625" lon="19.94886173866689205169677734375">
        <ele>1866</ele>
        <time>2026-06-17T09:37:35.000Z</time>
        <extensions>
          <ns3:TrackPointExtension>
            <ns3:atemp>19.0</ns3:atemp>
          </ns3:TrackPointExtension>
        </extensions>
      </trkpt>
      <trkpt lat="42.5192310847342014312744140625" lon="19.94886173866689205169677734375">
        <ele>1866</ele>
        <time>2026-06-17T09:37:36.000Z</time>
        <extensions>
          <ns3:TrackPointExtension>
            <ns3:atemp>19.0</ns3:atemp>
          </ns3:TrackPointExtension>
        </extensions>
      </trkpt>
      <trkpt lat="42.51922328956425189971923828125" lon="19.9488707073032855987548828125">
        <ele>1866</ele>
        <time>2026-06-17T09:37:37.000Z</time>
        <extensions>
          <ns3:TrackPointExtension>
            <ns3:atemp>19.0</ns3:atemp>
          </ns3:TrackPointExtension>
        </extensions>
      </trkpt>
      <trkpt lat="42.51921624876558780670166015625" lon="19.94887665845453739166259765625">
        <ele>1866</ele>
        <time>2026-06-17T09:37:38.000Z</time>
        <extensions>
          <ns3:TrackPointExtension>
            <ns3:atemp>19.0</ns3:atemp>
          </ns3:TrackPointExtension>
        </extensions>
      </trkpt>
      <trkpt lat="42.51921189017593860626220703125" lon="19.9488740600645542144775390625">
        <ele>1866</ele>
        <time>2026-06-17T09:37:39.000Z</time>
        <extensions>
          <ns3:TrackPointExtension>
            <ns3:atemp>19.0</ns3:atemp>
          </ns3:TrackPointExtension>
        </extensions>
      </trkpt>
      <trkpt lat="42.5192066095769405364990234375" lon="19.94887146167457103729248046875">
        <ele>1866</ele>
        <time>2026-06-17T09:37:40.000Z</time>
        <extensions>
          <ns3:TrackPointExtension>
            <ns3:atemp>19.0</ns3:atemp>
          </ns3:TrackPointExtension>
        </extensions>
      </trkpt>
      <trkpt lat="42.51920652575790882110595703125" lon="19.948871545493602752685546875">
        <ele>1866</ele>
        <time>2026-06-17T09:37:41.000Z</time>
        <extensions>
          <ns3:TrackPointExtension>
            <ns3:atemp>19.0</ns3:atemp>
          </ns3:TrackPointExtension>
        </extensions>
      </trkpt>
      <trkpt lat="42.5192022509872913360595703125" lon="19.94886324740946292877197265625">
        <ele>1866</ele>
        <time>2026-06-17T09:37:42.000Z</time>
        <extensions>
          <ns3:TrackPointExtension>
            <ns3:atemp>19.0</ns3:atemp>
          </ns3:TrackPointExtension>
        </extensions>
      </trkpt>
      <trkpt lat="42.51919730566442012786865234375" lon="19.9488504230976104736328125">
        <ele>1866</ele>
        <time>2026-06-17T09:37:43.000Z</time>
        <extensions>
          <ns3:TrackPointExtension>
            <ns3:atemp>19.0</ns3:atemp>
          </ns3:TrackPointExtension>
        </extensions>
      </trkpt>
      <trkpt lat="42.51919068396091461181640625" lon="19.9488408677279949188232421875">
        <ele>1865.800048828125</ele>
        <time>2026-06-17T09:37:44.000Z</time>
        <extensions>
          <ns3:TrackPointExtension>
            <ns3:atemp>19.0</ns3:atemp>
          </ns3:TrackPointExtension>
        </extensions>
      </trkpt>
      <trkpt lat="42.51918037422001361846923828125" lon="19.9488348327577114105224609375">
        <ele>1865.800048828125</ele>
        <time>2026-06-17T09:37:45.000Z</time>
        <extensions>
          <ns3:TrackPointExtension>
            <ns3:atemp>19.0</ns3:atemp>
          </ns3:TrackPointExtension>
        </extensions>
      </trkpt>
      <trkpt lat="42.5191663764417171478271484375" lon="19.94881622493267059326171875">
        <ele>1866</ele>
        <time>2026-06-17T09:37:46.000Z</time>
        <extensions>
          <ns3:TrackPointExtension>
            <ns3:atemp>19.0</ns3:atemp>
          </ns3:TrackPointExtension>
        </extensions>
      </trkpt>
      <trkpt lat="42.519148103892803192138671875" lon="19.94879568926990032196044921875">
        <ele>1866</ele>
        <time>2026-06-17T09:37:47.000Z</time>
        <extensions>
          <ns3:TrackPointExtension>
            <ns3:atemp>19.0</ns3:atemp>
          </ns3:TrackPointExtension>
        </extensions>
      </trkpt>
      <trkpt lat="42.51913343556225299835205078125" lon="19.9487721361219882965087890625">
        <ele>1866</ele>
        <time>2026-06-17T09:37:48.000Z</time>
        <extensions>
          <ns3:TrackPointExtension>
            <ns3:atemp>19.0</ns3:atemp>
          </ns3:TrackPointExtension>
        </extensions>
      </trkpt>
      <trkpt lat="42.51912237145006656646728515625" lon="19.948749840259552001953125">
        <ele>1866</ele>
        <time>2026-06-17T09:37:49.000Z</time>
        <extensions>
          <ns3:TrackPointExtension>
            <ns3:atemp>19.0</ns3:atemp>
          </ns3:TrackPointExtension>
        </extensions>
      </trkpt>
      <trkpt lat="42.51910879276692867279052734375" lon="19.94872905313968658447265625">
        <ele>1866</ele>
        <time>2026-06-17T09:37:50.000Z</time>
        <extensions>
          <ns3:TrackPointExtension>
            <ns3:atemp>19.0</ns3:atemp>
          </ns3:TrackPointExtension>
        </extensions>
      </trkpt>
      <trkpt lat="42.51909454353153705596923828125" lon="19.94871270842850208282470703125">
        <ele>1866</ele>
        <time>2026-06-17T09:37:51.000Z</time>
        <extensions>
          <ns3:TrackPointExtension>
            <ns3:atemp>19.0</ns3:atemp>
          </ns3:TrackPointExtension>
        </extensions>
      </trkpt>
      <trkpt lat="42.51908280886709690093994140625" lon="19.94869996793568134307861328125">
        <ele>1866</ele>
        <time>2026-06-17T09:37:52.000Z</time>
        <extensions>
          <ns3:TrackPointExtension>
            <ns3:atemp>19.0</ns3:atemp>
          </ns3:TrackPointExtension>
        </extensions>
      </trkpt>
      <trkpt lat="42.51907266676425933837890625" lon="19.94868705980479717254638671875">
        <ele>1866</ele>
        <time>2026-06-17T09:37:53.000Z</time>
        <extensions>
          <ns3:TrackPointExtension>
            <ns3:atemp>19.0</ns3:atemp>
          </ns3:TrackPointExtension>
        </extensions>
      </trkpt>
      <trkpt lat="42.519062943756580352783203125" lon="19.94867633096873760223388671875">
        <ele>1866</ele>
        <time>2026-06-17T09:37:54.000Z</time>
        <extensions>
          <ns3:TrackPointExtension>
            <ns3:atemp>19.0</ns3:atemp>
          </ns3:TrackPointExtension>
        </extensions>
      </trkpt>
      <trkpt lat="42.5190510414540767669677734375" lon="19.94866660796105861663818359375">
        <ele>1866</ele>
        <time>2026-06-17T09:37:55.000Z</time>
        <extensions>
          <ns3:TrackPointExtension>
            <ns3:atemp>19.0</ns3:atemp>
          </ns3:TrackPointExtension>
        </extensions>
      </trkpt>
      <trkpt lat="42.51904140226542949676513671875" lon="19.94865537621080875396728515625">
        <ele>1865.800048828125</ele>
        <time>2026-06-17T09:37:56.000Z</time>
        <extensions>
          <ns3:TrackPointExtension>
            <ns3:atemp>19.0</ns3:atemp>
          </ns3:TrackPointExtension>
        </extensions>
      </trkpt>
      <trkpt lat="42.51903033815324306488037109375" lon="19.94864364154636859893798828125">
        <ele>1865.800048828125</ele>
        <time>2026-06-17T09:37:57.000Z</time>
        <extensions>
          <ns3:TrackPointExtension>
            <ns3:atemp>19.0</ns3:atemp>
          </ns3:TrackPointExtension>
        </extensions>
      </trkpt>
      <trkpt lat="42.5190141610801219940185546875" lon="19.9486289732158184051513671875">
        <ele>1865.800048828125</ele>
        <time>2026-06-17T09:37:58.000Z</time>
        <extensions>
          <ns3:TrackPointExtension>
            <ns3:atemp>19.0</ns3:atemp>
          </ns3:TrackPointExtension>
        </extensions>
      </trkpt>
      <trkpt lat="42.518998570740222930908203125" lon="19.9486081860959529876708984375">
        <ele>1865.5999755859375</ele>
        <time>2026-06-17T09:37:59.000Z</time>
        <extensions>
          <ns3:TrackPointExtension>
            <ns3:atemp>19.0</ns3:atemp>
          </ns3:TrackPointExtension>
        </extensions>
      </trkpt>
      <trkpt lat="42.5189890153706073760986328125" lon="19.94859200902283191680908203125">
        <ele>1865.5999755859375</ele>
        <time>2026-06-17T09:38:00.000Z</time>
        <extensions>
          <ns3:TrackPointExtension>
            <ns3:atemp>19.0</ns3:atemp>
          </ns3:TrackPointExtension>
        </extensions>
      </trkpt>
      <trkpt lat="42.51898557879030704498291015625" lon="19.9485780112445354461669921875">
        <ele>1865.4000244140625</ele>
        <time>2026-06-17T09:38:01.000Z</time>
        <extensions>
          <ns3:TrackPointExtension>
            <ns3:atemp>19.0</ns3:atemp>
          </ns3:TrackPointExtension>
        </extensions>
      </trkpt>
      <trkpt lat="42.5189779512584209442138671875" lon="19.948575161397457122802734375">
        <ele>1865.4000244140625</ele>
        <time>2026-06-17T09:38:02.000Z</time>
        <extensions>
          <ns3:TrackPointExtension>
            <ns3:atemp>19.0</ns3:atemp>
          </ns3:TrackPointExtension>
        </extensions>
      </trkpt>
      <trkpt lat="42.5189695693552494049072265625" lon="19.94856971316039562225341796875">
        <ele>1865.5999755859375</ele>
        <time>2026-06-17T09:38:03.000Z</time>
        <extensions>
          <ns3:TrackPointExtension>
            <ns3:atemp>19.0</ns3:atemp>
          </ns3:TrackPointExtension>
        </extensions>
      </trkpt>
      <trkpt lat="42.518966384232044219970703125" lon="19.948564432561397552490234375">
        <ele>1865.5999755859375</ele>
        <time>2026-06-17T09:38:04.000Z</time>
        <extensions>
          <ns3:TrackPointExtension>
            <ns3:atemp>19.0</ns3:atemp>
          </ns3:TrackPointExtension>
        </extensions>
      </trkpt>
      <trkpt lat="42.51896613277494907379150390625" lon="19.948562420904636383056640625">
        <ele>1865.5999755859375</ele>
        <time>2026-06-17T09:38:05.000Z</time>
        <extensions>
          <ns3:TrackPointExtension>
            <ns3:atemp>19.0</ns3:atemp>
          </ns3:TrackPointExtension>
        </extensions>
      </trkpt>
      <trkpt lat="42.51896462403237819671630859375" lon="19.94855395518243312835693359375">
        <ele>1865.5999755859375</ele>
        <time>2026-06-17T09:38:06.000Z</time>
        <extensions>
          <ns3:TrackPointExtension>
            <ns3:atemp>19.0</ns3:atemp>
          </ns3:TrackPointExtension>
        </extensions>
      </trkpt>
      <trkpt lat="42.5189581699669361114501953125" lon="19.94854842312633991241455078125">
        <ele>1865.4000244140625</ele>
        <time>2026-06-17T09:38:07.000Z</time>
        <extensions>
          <ns3:TrackPointExtension>
            <ns3:atemp>19.0</ns3:atemp>
          </ns3:TrackPointExtension>
        </extensions>
      </trkpt>
      <trkpt lat="42.5189499557018280029296875" lon="19.94854263961315155029296875">
        <ele>1865.4000244140625</ele>
        <time>2026-06-17T09:38:08.000Z</time>
        <extensions>
          <ns3:TrackPointExtension>
            <ns3:atemp>19.0</ns3:atemp>
          </ns3:TrackPointExtension>
        </extensions>
      </trkpt>
      <trkpt lat="42.51893780194222927093505859375" lon="19.94852847419679164886474609375">
        <ele>1865.4000244140625</ele>
        <time>2026-06-17T09:38:09.000Z</time>
        <extensions>
          <ns3:TrackPointExtension>
            <ns3:atemp>19.0</ns3:atemp>
          </ns3:TrackPointExtension>
        </extensions>
      </trkpt>
      <trkpt lat="42.5189239718019962310791015625" lon="19.9485029093921184539794921875">
        <ele>1865.199951171875</ele>
        <time>2026-06-17T09:38:10.000Z</time>
        <extensions>
          <ns3:TrackPointExtension>
            <ns3:atemp>19.0</ns3:atemp>
          </ns3:TrackPointExtension>
        </extensions>
      </trkpt>
      <trkpt lat="42.5189028494060039520263671875" lon="19.94847047142684459686279296875">
        <ele>1865.199951171875</ele>
        <time>2026-06-17T09:38:11.000Z</time>
        <extensions>
          <ns3:TrackPointExtension>
            <ns3:atemp>19.0</ns3:atemp>
          </ns3:TrackPointExtension>
        </extensions>
      </trkpt>
      <trkpt lat="42.51888357102870941162109375" lon="19.94843535125255584716796875">
        <ele>1865</ele>
        <time>2026-06-17T09:38:12.000Z</time>
        <extensions>
          <ns3:TrackPointExtension>
            <ns3:atemp>19.0</ns3:atemp>
          </ns3:TrackPointExtension>
        </extensions>
      </trkpt>
      <trkpt lat="42.5188689865171909332275390625" lon="19.948412217199802398681640625">
        <ele>1865</ele>
        <time>2026-06-17T09:38:13.000Z</time>
        <extensions>
          <ns3:TrackPointExtension>
            <ns3:atemp>19.0</ns3:atemp>
          </ns3:TrackPointExtension>
        </extensions>
      </trkpt>
      <trkpt lat="42.51885498873889446258544921875" lon="19.9483852274715900421142578125">
        <ele>1865</ele>
        <time>2026-06-17T09:38:14.000Z</time>
        <extensions>
          <ns3:TrackPointExtension>
            <ns3:atemp>19.0</ns3:atemp>
          </ns3:TrackPointExtension>
        </extensions>
      </trkpt>
      <trkpt lat="42.518841326236724853515625" lon="19.9483617581427097320556640625">
        <ele>1865</ele>
        <time>2026-06-17T09:38:15.000Z</time>
        <extensions>
          <ns3:TrackPointExtension>
            <ns3:atemp>19.0</ns3:atemp>
          </ns3:TrackPointExtension>
        </extensions>
      </trkpt>
      <trkpt lat="42.51883118413388729095458984375" lon="19.948331080377101898193359375">
        <ele>1865</ele>
        <time>2026-06-17T09:38:16.000Z</time>
        <extensions>
          <ns3:TrackPointExtension>
            <ns3:atemp>19.0</ns3:atemp>
          </ns3:TrackPointExtension>
        </extensions>
      </trkpt>
      <trkpt lat="42.51882322132587432861328125" lon="19.9483044259250164031982421875">
        <ele>1865</ele>
        <time>2026-06-17T09:38:17.000Z</time>
        <extensions>
          <ns3:TrackPointExtension>
            <ns3:atemp>19.0</ns3:atemp>
          </ns3:TrackPointExtension>
        </extensions>
      </trkpt>
      <trkpt lat="42.51880989409983158111572265625" lon="19.94828640483319759368896484375">
        <ele>1865.199951171875</ele>
        <time>2026-06-17T09:38:18.000Z</time>
        <extensions>
          <ns3:TrackPointExtension>
            <ns3:atemp>19.0</ns3:atemp>
          </ns3:TrackPointExtension>
        </extensions>
      </trkpt>
      <trkpt lat="42.51879782415926456451416015625" lon="19.94826578535139560699462890625">
        <ele>1865.4000244140625</ele>
        <time>2026-06-17T09:38:19.000Z</time>
        <extensions>
          <ns3:TrackPointExtension>
            <ns3:atemp>19.0</ns3:atemp>
          </ns3:TrackPointExtension>
        </extensions>
      </trkpt>
      <trkpt lat="42.51878642477095127105712890625" lon="19.94824365712702274322509765625">
        <ele>1865.4000244140625</ele>
        <time>2026-06-17T09:38:20.000Z</time>
        <extensions>
          <ns3:TrackPointExtension>
            <ns3:atemp>19.0</ns3:atemp>
          </ns3:TrackPointExtension>
        </extensions>
      </trkpt>
      <trkpt lat="42.5187774561345577239990234375" lon="19.9482340179383754730224609375">
        <ele>1865.5999755859375</ele>
        <time>2026-06-17T09:38:21.000Z</time>
        <extensions>
          <ns3:TrackPointExtension>
            <ns3:atemp>19.0</ns3:atemp>
          </ns3:TrackPointExtension>
        </extensions>
      </trkpt>
      <trkpt lat="42.51876681111752986907958984375" lon="19.948218762874603271484375">
        <ele>1865.5999755859375</ele>
        <time>2026-06-17T09:38:22.000Z</time>
        <extensions>
          <ns3:TrackPointExtension>
            <ns3:atemp>19.0</ns3:atemp>
          </ns3:TrackPointExtension>
        </extensions>
      </trkpt>
      <trkpt lat="42.5187549926340579986572265625" lon="19.94819931685924530029296875">
        <ele>1865.5999755859375</ele>
        <time>2026-06-17T09:38:23.000Z</time>
        <extensions>
          <ns3:TrackPointExtension>
            <ns3:atemp>19.0</ns3:atemp>
          </ns3:TrackPointExtension>
        </extensions>
      </trkpt>
      <trkpt lat="42.51874032430350780487060546875" lon="19.94817920029163360595703125">
        <ele>1865.5999755859375</ele>
        <time>2026-06-17T09:38:24.000Z</time>
        <extensions>
          <ns3:TrackPointExtension>
            <ns3:atemp>19.0</ns3:atemp>
          </ns3:TrackPointExtension>
        </extensions>
      </trkpt>
      <trkpt lat="42.5187315233051776885986328125" lon="19.948164112865924835205078125">
        <ele>1865.5999755859375</ele>
        <time>2026-06-17T09:38:25.000Z</time>
        <extensions>
          <ns3:TrackPointExtension>
            <ns3:atemp>19.0</ns3:atemp>
          </ns3:TrackPointExtension>
        </extensions>
      </trkpt>
      <trkpt lat="42.5187231414020061492919921875" lon="19.9481424875557422637939453125">
        <ele>1865.5999755859375</ele>
        <time>2026-06-17T09:38:26.000Z</time>
        <extensions>
          <ns3:TrackPointExtension>
            <ns3:atemp>19.0</ns3:atemp>
          </ns3:TrackPointExtension>
        </extensions>
      </trkpt>
      <trkpt lat="42.5187097303569316864013671875" lon="19.94811675511300563812255859375">
        <ele>1865.5999755859375</ele>
        <time>2026-06-17T09:38:27.000Z</time>
        <extensions>
          <ns3:TrackPointExtension>
            <ns3:atemp>19.0</ns3:atemp>
          </ns3:TrackPointExtension>
        </extensions>
      </trkpt>
      <trkpt lat="42.51870444975793361663818359375" lon="19.94810116477310657501220703125">
        <ele>1865.5999755859375</ele>
        <time>2026-06-17T09:38:28.000Z</time>
        <extensions>
          <ns3:TrackPointExtension>
            <ns3:atemp>19.0</ns3:atemp>
          </ns3:TrackPointExtension>
        </extensions>
      </trkpt>
      <trkpt lat="42.518696486949920654296875" lon="19.948080293834209442138671875">
        <ele>1865.5999755859375</ele>
        <time>2026-06-17T09:38:29.000Z</time>
        <extensions>
          <ns3:TrackPointExtension>
            <ns3:atemp>19.0</ns3:atemp>
          </ns3:TrackPointExtension>
        </extensions>
      </trkpt>
      <trkpt lat="42.5186884403228759765625" lon="19.9480539746582508087158203125">
        <ele>1865.5999755859375</ele>
        <time>2026-06-17T09:38:30.000Z</time>
        <extensions>
          <ns3:TrackPointExtension>
            <ns3:atemp>19.0</ns3:atemp>
          </ns3:TrackPointExtension>
        </extensions>
      </trkpt>
      <trkpt lat="42.51867427490651607513427734375" lon="19.94802136905491352081298828125">
        <ele>1865.5999755859375</ele>
        <time>2026-06-17T09:38:31.000Z</time>
        <extensions>
          <ns3:TrackPointExtension>
            <ns3:atemp>19.0</ns3:atemp>
          </ns3:TrackPointExtension>
        </extensions>
      </trkpt>
      <trkpt lat="42.5186627916991710662841796875" lon="19.9480083771049976348876953125">
        <ele>1865.5999755859375</ele>
        <time>2026-06-17T09:38:32.000Z</time>
        <extensions>
          <ns3:TrackPointExtension>
            <ns3:atemp>19.0</ns3:atemp>
          </ns3:TrackPointExtension>
        </extensions>
      </trkpt>
      <trkpt lat="42.5186480395495891571044921875" lon="19.94798398576676845550537109375">
        <ele>1865.4000244140625</ele>
        <time>2026-06-17T09:38:33.000Z</time>
        <extensions>
          <ns3:TrackPointExtension>
            <ns3:atemp>19.0</ns3:atemp>
          </ns3:TrackPointExtension>
        </extensions>
      </trkpt>
      <trkpt lat="42.518634796142578125" lon="19.94796730577945709228515625">
        <ele>1865.4000244140625</ele>
        <time>2026-06-17T09:38:34.000Z</time>
        <extensions>
          <ns3:TrackPointExtension>
            <ns3:atemp>19.0</ns3:atemp>
          </ns3:TrackPointExtension>
        </extensions>
      </trkpt>
      <trkpt lat="42.51862213946878910064697265625" lon="19.94794626720249652862548828125">
        <ele>1865.199951171875</ele>
        <time>2026-06-17T09:38:35.000Z</time>
        <extensions>
          <ns3:TrackPointExtension>
            <ns3:atemp>19.0</ns3:atemp>
          </ns3:TrackPointExtension>
        </extensions>
      </trkpt>
      <trkpt lat="42.51860939897596836090087890625" lon="19.9479319341480731964111328125">
        <ele>1865.199951171875</ele>
        <time>2026-06-17T09:38:36.000Z</time>
        <extensions>
          <ns3:TrackPointExtension>
            <ns3:atemp>19.0</ns3:atemp>
          </ns3:TrackPointExtension>
        </extensions>
      </trkpt>
      <trkpt lat="42.51860235817730426788330078125" lon="19.94791273958981037139892578125">
        <ele>1865.4000244140625</ele>
        <time>2026-06-17T09:38:37.000Z</time>
        <extensions>
          <ns3:TrackPointExtension>
            <ns3:atemp>19.0</ns3:atemp>
          </ns3:TrackPointExtension>
        </extensions>
      </trkpt>
      <trkpt lat="42.51859297044575214385986328125" lon="19.94790427386760711669921875">
        <ele>1865.5999755859375</ele>
        <time>2026-06-17T09:38:38.000Z</time>
        <extensions>
          <ns3:TrackPointExtension>
            <ns3:atemp>19.0</ns3:atemp>
          </ns3:TrackPointExtension>
        </extensions>
      </trkpt>
      <trkpt lat="42.51858257688581943511962890625" lon="19.9478940479457378387451171875">
        <ele>1865.800048828125</ele>
        <time>2026-06-17T09:38:39.000Z</time>
        <extensions>
          <ns3:TrackPointExtension>
            <ns3:atemp>19.0</ns3:atemp>
          </ns3:TrackPointExtension>
        </extensions>
      </trkpt>
      <trkpt lat="42.51856732182204723358154296875" lon="19.9478792957961559295654296875">
        <ele>1866</ele>
        <time>2026-06-17T09:38:40.000Z</time>
        <extensions>
          <ns3:TrackPointExtension>
            <ns3:atemp>19.0</ns3:atemp>
          </ns3:TrackPointExtension>
        </extensions>
      </trkpt>
      <trkpt lat="42.51854938454926013946533203125" lon="19.9478665553033351898193359375">
        <ele>1866.199951171875</ele>
        <time>2026-06-17T09:38:41.000Z</time>
        <extensions>
          <ns3:TrackPointExtension>
            <ns3:atemp>19.0</ns3:atemp>
          </ns3:TrackPointExtension>
        </extensions>
      </trkpt>
      <trkpt lat="42.5185360573232173919677734375" lon="19.94784853421151638031005859375">
        <ele>1866.4000244140625</ele>
        <time>2026-06-17T09:38:42.000Z</time>
        <extensions>
          <ns3:TrackPointExtension>
            <ns3:atemp>19.0</ns3:atemp>
          </ns3:TrackPointExtension>
        </extensions>
      </trkpt>
      <trkpt lat="42.5185196287930011749267578125" lon="19.94782984256744384765625">
        <ele>1866.5999755859375</ele>
        <time>2026-06-17T09:38:43.000Z</time>
        <extensions>
          <ns3:TrackPointExtension>
            <ns3:atemp>19.0</ns3:atemp>
          </ns3:TrackPointExtension>
        </extensions>
      </trkpt>
      <trkpt lat="42.5185028649866580963134765625" lon="19.94781081564724445343017578125">
        <ele>1866.800048828125</ele>
        <time>2026-06-17T09:38:44.000Z</time>
        <extensions>
          <ns3:TrackPointExtension>
            <ns3:atemp>19.0</ns3:atemp>
          </ns3:TrackPointExtension>
        </extensions>
      </trkpt>
      <trkpt lat="42.51849289052188396453857421875" lon="19.947789274156093597412109375">
        <ele>1867</ele>
        <time>2026-06-17T09:38:45.000Z</time>
        <extensions>
          <ns3:TrackPointExtension>
            <ns3:atemp>19.0</ns3:atemp>
          </ns3:TrackPointExtension>
        </extensions>
      </trkpt>
      <trkpt lat="42.5184814073145389556884765625" lon="19.94776421226561069488525390625">
        <ele>1867.199951171875</ele>
        <time>2026-06-17T09:38:46.000Z</time>
        <extensions>
          <ns3:TrackPointExtension>
            <ns3:atemp>19.0</ns3:atemp>
          </ns3:TrackPointExtension>
        </extensions>
      </trkpt>
      <trkpt lat="42.51847109757363796234130859375" lon="19.94774996303021907806396484375">
        <ele>1867.199951171875</ele>
        <time>2026-06-17T09:38:47.000Z</time>
        <extensions>
          <ns3:TrackPointExtension>
            <ns3:atemp>19.0</ns3:atemp>
          </ns3:TrackPointExtension>
        </extensions>
      </trkpt>
      <trkpt lat="42.51845885999500751495361328125" lon="19.94773034937679767608642578125">
        <ele>1867.4000244140625</ele>
        <time>2026-06-17T09:38:48.000Z</time>
        <extensions>
          <ns3:TrackPointExtension>
            <ns3:atemp>19.0</ns3:atemp>
          </ns3:TrackPointExtension>
        </extensions>
      </trkpt>
      <trkpt lat="42.51844704151153564453125" lon="19.94771249592304229736328125">
        <ele>1867.4000244140625</ele>
        <time>2026-06-17T09:38:49.000Z</time>
        <extensions>
          <ns3:TrackPointExtension>
            <ns3:atemp>19.0</ns3:atemp>
          </ns3:TrackPointExtension>
        </extensions>
      </trkpt>
      <trkpt lat="42.5184349715709686279296875" lon="19.94769413955509662628173828125">
        <ele>1867.5999755859375</ele>
        <time>2026-06-17T09:38:50.000Z</time>
        <extensions>
          <ns3:TrackPointExtension>
            <ns3:atemp>19.0</ns3:atemp>
          </ns3:TrackPointExtension>
        </extensions>
      </trkpt>
      <trkpt lat="42.518423236906528472900390625" lon="19.94767502881586551666259765625">
        <ele>1867.800048828125</ele>
        <time>2026-06-17T09:38:51.000Z</time>
        <extensions>
          <ns3:TrackPointExtension>
            <ns3:atemp>19.0</ns3:atemp>
          </ns3:TrackPointExtension>
        </extensions>
      </trkpt>
      <trkpt lat="42.51841343007981777191162109375" lon="19.94765340350568294525146484375">
        <ele>1868</ele>
        <time>2026-06-17T09:38:52.000Z</time>
        <extensions>
          <ns3:TrackPointExtension>
            <ns3:atemp>19.0</ns3:atemp>
          </ns3:TrackPointExtension>
        </extensions>
      </trkpt>
      <trkpt lat="42.5184032879769802093505859375" lon="19.94763605296611785888671875">
        <ele>1868</ele>
        <time>2026-06-17T09:38:53.000Z</time>
        <extensions>
          <ns3:TrackPointExtension>
            <ns3:atemp>19.0</ns3:atemp>
          </ns3:TrackPointExtension>
        </extensions>
      </trkpt>
      <trkpt lat="42.51839314587414264678955078125" lon="19.947617612779140472412109375">
        <ele>1868.4000244140625</ele>
        <time>2026-06-17T09:38:54.000Z</time>
        <extensions>
          <ns3:TrackPointExtension>
            <ns3:atemp>19.0</ns3:atemp>
          </ns3:TrackPointExtension>
        </extensions>
      </trkpt>
      <trkpt lat="42.51837705262005329132080078125" lon="19.94760244153439998626708984375">
        <ele>1868.5999755859375</ele>
        <time>2026-06-17T09:38:55.000Z</time>
        <extensions>
          <ns3:TrackPointExtension>
            <ns3:atemp>19.0</ns3:atemp>
          </ns3:TrackPointExtension>
        </extensions>
      </trkpt>
      <trkpt lat="42.5183630548417568206787109375" lon="19.94757846929132938385009765625">
        <ele>1868.800048828125</ele>
        <time>2026-06-17T09:38:56.000Z</time>
        <extensions>
          <ns3:TrackPointExtension>
            <ns3:atemp>19.0</ns3:atemp>
          </ns3:TrackPointExtension>
        </extensions>
      </trkpt>
      <trkpt lat="42.51834771595895290374755859375" lon="19.94756472297012805938720703125">
        <ele>1869</ele>
        <time>2026-06-17T09:38:57.000Z</time>
        <extensions>
          <ns3:TrackPointExtension>
            <ns3:atemp>19.0</ns3:atemp>
          </ns3:TrackPointExtension>
        </extensions>
      </trkpt>
      <trkpt lat="42.5183288566768169403076171875" lon="19.94755064137279987335205078125">
        <ele>1869.4000244140625</ele>
        <time>2026-06-17T09:38:58.000Z</time>
        <extensions>
          <ns3:TrackPointExtension>
            <ns3:atemp>19.0</ns3:atemp>
          </ns3:TrackPointExtension>
        </extensions>
      </trkpt>
      <trkpt lat="42.51830932684242725372314453125" lon="19.947528429329395294189453125">
        <ele>1869.5999755859375</ele>
        <time>2026-06-17T09:38:59.000Z</time>
        <extensions>
          <ns3:TrackPointExtension>
            <ns3:atemp>19.0</ns3:atemp>
          </ns3:TrackPointExtension>
        </extensions>
      </trkpt>
      <trkpt lat="42.51828552223742008209228515625" lon="19.9475242383778095245361328125">
        <ele>1869.800048828125</ele>
        <time>2026-06-17T09:39:00.000Z</time>
        <extensions>
          <ns3:TrackPointExtension>
            <ns3:atemp>19.0</ns3:atemp>
          </ns3:TrackPointExtension>
        </extensions>
      </trkpt>
      <trkpt lat="42.51826674677431583404541015625" lon="19.9475064687430858612060546875">
        <ele>1870</ele>
        <time>2026-06-17T09:39:01.000Z</time>
        <extensions>
          <ns3:TrackPointExtension>
            <ns3:atemp>19.0</ns3:atemp>
          </ns3:TrackPointExtension>
        </extensions>
      </trkpt>
      <trkpt lat="42.51824520528316497802734375" lon="19.94749364443123340606689453125">
        <ele>1870.199951171875</ele>
        <time>2026-06-17T09:39:02.000Z</time>
        <extensions>
          <ns3:TrackPointExtension>
            <ns3:atemp>19.0</ns3:atemp>
          </ns3:TrackPointExtension>
        </extensions>
      </trkpt>
      <trkpt lat="42.51822852529585361480712890625" lon="19.94748073630034923553466796875">
        <ele>1870.4000244140625</ele>
        <time>2026-06-17T09:39:03.000Z</time>
        <extensions>
          <ns3:TrackPointExtension>
            <ns3:atemp>19.0</ns3:atemp>
          </ns3:TrackPointExtension>
        </extensions>
      </trkpt>
      <trkpt lat="42.51821167767047882080078125" lon="19.94746933691203594207763671875">
        <ele>1870.5999755859375</ele>
        <time>2026-06-17T09:39:04.000Z</time>
        <extensions>
          <ns3:TrackPointExtension>
            <ns3:atemp>19.0</ns3:atemp>
          </ns3:TrackPointExtension>
        </extensions>
      </trkpt>
      <trkpt lat="42.51819902099668979644775390625" lon="19.94745634496212005615234375">
        <ele>1870.800048828125</ele>
        <time>2026-06-17T09:39:05.000Z</time>
        <extensions>
          <ns3:TrackPointExtension>
            <ns3:atemp>19.0</ns3:atemp>
          </ns3:TrackPointExtension>
        </extensions>
      </trkpt>
      <trkpt lat="42.51818812452256679534912109375" lon="19.947447963058948516845703125">
        <ele>1871</ele>
        <time>2026-06-17T09:39:06.000Z</time>
        <extensions>
          <ns3:TrackPointExtension>
            <ns3:atemp>19.0</ns3:atemp>
          </ns3:TrackPointExtension>
        </extensions>
      </trkpt>
      <trkpt lat="42.51817488111555576324462890625" lon="19.9474461190402507781982421875">
        <ele>1871.199951171875</ele>
        <time>2026-06-17T09:39:07.000Z</time>
        <extensions>
          <ns3:TrackPointExtension>
            <ns3:atemp>19.0</ns3:atemp>
          </ns3:TrackPointExtension>
        </extensions>
      </trkpt>
      <trkpt lat="42.51816113479435443878173828125" lon="19.947435222566127777099609375">
        <ele>1871.4000244140625</ele>
        <time>2026-06-17T09:39:08.000Z</time>
        <extensions>
          <ns3:TrackPointExtension>
            <ns3:atemp>19.0</ns3:atemp>
          </ns3:TrackPointExtension>
        </extensions>
      </trkpt>
      <trkpt lat="42.51814328134059906005859375" lon="19.9474208056926727294921875">
        <ele>1871.5999755859375</ele>
        <time>2026-06-17T09:39:09.000Z</time>
        <extensions>
          <ns3:TrackPointExtension>
            <ns3:atemp>19.0</ns3:atemp>
          </ns3:TrackPointExtension>
        </extensions>
      </trkpt>
      <trkpt lat="42.518126852810382843017578125" lon="19.94740135967731475830078125">
        <ele>1871.800048828125</ele>
        <time>2026-06-17T09:39:10.000Z</time>
        <extensions>
          <ns3:TrackPointExtension>
            <ns3:atemp>19.0</ns3:atemp>
          </ns3:TrackPointExtension>
        </extensions>
      </trkpt>
      <trkpt lat="42.5181169621646404266357421875" lon="19.94737981818616390228271484375">
        <ele>1871.800048828125</ele>
        <time>2026-06-17T09:39:11.000Z</time>
        <extensions>
          <ns3:TrackPointExtension>
            <ns3:atemp>19.0</ns3:atemp>
          </ns3:TrackPointExtension>
        </extensions>
      </trkpt>
      <trkpt lat="42.518107406795024871826171875" lon="19.94735869579017162322998046875">
        <ele>1871.800048828125</ele>
        <time>2026-06-17T09:39:12.000Z</time>
        <extensions>
          <ns3:TrackPointExtension>
            <ns3:atemp>19.0</ns3:atemp>
          </ns3:TrackPointExtension>
        </extensions>
      </trkpt>
      <trkpt lat="42.5180943310260772705078125" lon="19.94733941741287708282470703125">
        <ele>1871.800048828125</ele>
        <time>2026-06-17T09:39:13.000Z</time>
        <extensions>
          <ns3:TrackPointExtension>
            <ns3:atemp>19.0</ns3:atemp>
          </ns3:TrackPointExtension>
        </extensions>
      </trkpt>
      <trkpt lat="42.518081255257129669189453125" lon="19.947315864264965057373046875">
        <ele>1871.5999755859375</ele>
        <time>2026-06-17T09:39:14.000Z</time>
        <extensions>
          <ns3:TrackPointExtension>
            <ns3:atemp>19.0</ns3:atemp>
          </ns3:TrackPointExtension>
        </extensions>
      </trkpt>
      <trkpt lat="42.51806021668016910552978515625" lon="19.9472893774509429931640625">
        <ele>1871.4000244140625</ele>
        <time>2026-06-17T09:39:15.000Z</time>
        <extensions>
          <ns3:TrackPointExtension>
            <ns3:atemp>19.0</ns3:atemp>
          </ns3:TrackPointExtension>
        </extensions>
      </trkpt>
      <trkpt lat="42.51804010011255741119384765625" lon="19.94726188480854034423828125">
        <ele>1871.199951171875</ele>
        <time>2026-06-17T09:39:16.000Z</time>
        <extensions>
          <ns3:TrackPointExtension>
            <ns3:atemp>19.0</ns3:atemp>
          </ns3:TrackPointExtension>
        </extensions>
      </trkpt>
      <trkpt lat="42.51802836544811725616455078125" lon="19.9472385831177234649658203125">
        <ele>1870.800048828125</ele>
        <time>2026-06-17T09:39:17.000Z</time>
        <extensions>
          <ns3:TrackPointExtension>
            <ns3:atemp>19.0</ns3:atemp>
          </ns3:TrackPointExtension>
        </extensions>
      </trkpt>
      <trkpt lat="42.51801579259335994720458984375" lon="19.94722567498683929443359375">
        <ele>1870.5999755859375</ele>
        <time>2026-06-17T09:39:18.000Z</time>
        <extensions>
          <ns3:TrackPointExtension>
            <ns3:atemp>19.0</ns3:atemp>
          </ns3:TrackPointExtension>
        </extensions>
      </trkpt>
      <trkpt lat="42.51801579259335994720458984375" lon="19.94722567498683929443359375">
        <ele>1870.5999755859375</ele>
        <time>2026-06-17T09:39:19.000Z</time>
        <extensions>
          <ns3:TrackPointExtension>
            <ns3:atemp>19.0</ns3:atemp>
          </ns3:TrackPointExtension>
        </extensions>
      </trkpt>
      <trkpt lat="42.51801579259335994720458984375" lon="19.94722567498683929443359375">
        <ele>1870.5999755859375</ele>
        <time>2026-06-17T09:39:20.000Z</time>
        <extensions>
          <ns3:TrackPointExtension>
            <ns3:atemp>19.0</ns3:atemp>
          </ns3:TrackPointExtension>
        </extensions>
      </trkpt>
      <trkpt lat="42.51801579259335994720458984375" lon="19.94722567498683929443359375">
        <ele>1870.5999755859375</ele>
        <time>2026-06-17T09:39:21.000Z</time>
        <extensions>
          <ns3:TrackPointExtension>
            <ns3:atemp>19.0</ns3:atemp>
          </ns3:TrackPointExtension>
        </extensions>
      </trkpt>
      <trkpt lat="42.51801579259335994720458984375" lon="19.94722567498683929443359375">
        <ele>1870.5999755859375</ele>
        <time>2026-06-17T09:39:22.000Z</time>
        <extensions>
          <ns3:TrackPointExtension>
            <ns3:atemp>19.0</ns3:atemp>
          </ns3:TrackPointExtension>
        </extensions>
      </trkpt>
      <trkpt lat="42.51801579259335994720458984375" lon="19.94722567498683929443359375">
        <ele>1870.5999755859375</ele>
        <time>2026-06-17T09:39:23.000Z</time>
        <extensions>
          <ns3:TrackPointExtension>
            <ns3:atemp>19.0</ns3:atemp>
          </ns3:TrackPointExtension>
        </extensions>
      </trkpt>
      <trkpt lat="42.51801579259335994720458984375" lon="19.94722567498683929443359375">
        <ele>1870.5999755859375</ele>
        <time>2026-06-17T09:39:24.000Z</time>
        <extensions>
          <ns3:TrackPointExtension>
            <ns3:atemp>19.0</ns3:atemp>
          </ns3:TrackPointExtension>
        </extensions>
      </trkpt>
      <trkpt lat="42.51801579259335994720458984375" lon="19.94722567498683929443359375">
        <ele>1870.5999755859375</ele>
        <time>2026-06-17T09:39:25.000Z</time>
        <extensions>
          <ns3:TrackPointExtension>
            <ns3:atemp>19.0</ns3:atemp>
          </ns3:TrackPointExtension>
        </extensions>
      </trkpt>
      <trkpt lat="42.51801579259335994720458984375" lon="19.94722567498683929443359375">
        <ele>1870.5999755859375</ele>
        <time>2026-06-17T09:39:26.000Z</time>
        <extensions>
          <ns3:TrackPointExtension>
            <ns3:atemp>19.0</ns3:atemp>
          </ns3:TrackPointExtension>
        </extensions>
      </trkpt>
      <trkpt lat="42.51801579259335994720458984375" lon="19.94722567498683929443359375">
        <ele>1870.5999755859375</ele>
        <time>2026-06-17T09:39:27.000Z</time>
        <extensions>
          <ns3:TrackPointExtension>
            <ns3:atemp>19.0</ns3:atemp>
          </ns3:TrackPointExtension>
        </extensions>
      </trkpt>
      <trkpt lat="42.51801579259335994720458984375" lon="19.94722567498683929443359375">
        <ele>1870.4000244140625</ele>
        <time>2026-06-17T09:39:28.000Z</time>
        <extensions>
          <ns3:TrackPointExtension>
            <ns3:atemp>19.0</ns3:atemp>
          </ns3:TrackPointExtension>
        </extensions>
      </trkpt>
      <trkpt lat="42.51801579259335994720458984375" lon="19.94722567498683929443359375">
        <ele>1870.4000244140625</ele>
        <time>2026-06-17T09:39:29.000Z</time>
        <extensions>
          <ns3:TrackPointExtension>
            <ns3:atemp>19.0</ns3:atemp>
          </ns3:TrackPointExtension>
        </extensions>
      </trkpt>
      <trkpt lat="42.51801579259335994720458984375" lon="19.94722567498683929443359375">
        <ele>1870.4000244140625</ele>
        <time>2026-06-17T09:39:30.000Z</time>
        <extensions>
          <ns3:TrackPointExtension>
            <ns3:atemp>19.0</ns3:atemp>
          </ns3:TrackPointExtension>
        </extensions>
      </trkpt>
      <trkpt lat="42.51801579259335994720458984375" lon="19.94722567498683929443359375">
        <ele>1870.4000244140625</ele>
        <time>2026-06-17T09:39:31.000Z</time>
        <extensions>
          <ns3:TrackPointExtension>
            <ns3:atemp>19.0</ns3:atemp>
          </ns3:TrackPointExtension>
        </extensions>
      </trkpt>
      <trkpt lat="42.51801579259335994720458984375" lon="19.94722567498683929443359375">
        <ele>1870.199951171875</ele>
        <time>2026-06-17T09:39:32.000Z</time>
        <extensions>
          <ns3:TrackPointExtension>
            <ns3:atemp>19.0</ns3:atemp>
          </ns3:TrackPointExtension>
        </extensions>
      </trkpt>
      <trkpt lat="42.51801579259335994720458984375" lon="19.94722567498683929443359375">
        <ele>1870.199951171875</ele>
        <time>2026-06-17T09:39:33.000Z</time>
        <extensions>
          <ns3:TrackPointExtension>
            <ns3:atemp>19.0</ns3:atemp>
          </ns3:TrackPointExtension>
        </extensions>
      </trkpt>
      <trkpt lat="42.51801579259335994720458984375" lon="19.94722567498683929443359375">
        <ele>1870.199951171875</ele>
        <time>2026-06-17T09:39:34.000Z</time>
        <extensions>
          <ns3:TrackPointExtension>
            <ns3:atemp>19.0</ns3:atemp>
          </ns3:TrackPointExtension>
        </extensions>
      </trkpt>
      <trkpt lat="42.51801579259335994720458984375" lon="19.94722567498683929443359375">
        <ele>1870.199951171875</ele>
        <time>2026-06-17T09:39:35.000Z</time>
        <extensions>
          <ns3:TrackPointExtension>
            <ns3:atemp>19.0</ns3:atemp>
          </ns3:TrackPointExtension>
        </extensions>
      </trkpt>
      <trkpt lat="42.51801579259335994720458984375" lon="19.94722567498683929443359375">
        <ele>1870.199951171875</ele>
        <time>2026-06-17T09:39:36.000Z</time>
        <extensions>
          <ns3:TrackPointExtension>
            <ns3:atemp>19.0</ns3:atemp>
          </ns3:TrackPointExtension>
        </extensions>
      </trkpt>
      <trkpt lat="42.51801579259335994720458984375" lon="19.94722567498683929443359375">
        <ele>1870.199951171875</ele>
        <time>2026-06-17T09:39:37.000Z</time>
        <extensions>
          <ns3:TrackPointExtension>
            <ns3:atemp>19.0</ns3:atemp>
          </ns3:TrackPointExtension>
        </extensions>
      </trkpt>
      <trkpt lat="42.51801579259335994720458984375" lon="19.94722567498683929443359375">
        <ele>1870.199951171875</ele>
        <time>2026-06-17T09:39:38.000Z</time>
        <extensions>
          <ns3:TrackPointExtension>
            <ns3:atemp>19.0</ns3:atemp>
          </ns3:TrackPointExtension>
        </extensions>
      </trkpt>
      <trkpt lat="42.51801579259335994720458984375" lon="19.94722567498683929443359375">
        <ele>1870.199951171875</ele>
        <time>2026-06-17T09:39:39.000Z</time>
        <extensions>
          <ns3:TrackPointExtension>
            <ns3:atemp>19.0</ns3:atemp>
          </ns3:TrackPointExtension>
        </extensions>
      </trkpt>
      <trkpt lat="42.51801579259335994720458984375" lon="19.94722567498683929443359375">
        <ele>1870.199951171875</ele>
        <time>2026-06-17T09:39:40.000Z</time>
        <extensions>
          <ns3:TrackPointExtension>
            <ns3:atemp>19.0</ns3:atemp>
          </ns3:TrackPointExtension>
        </extensions>
      </trkpt>
      <trkpt lat="42.51801579259335994720458984375" lon="19.94722567498683929443359375">
        <ele>1870.199951171875</ele>
        <time>2026-06-17T09:39:41.000Z</time>
        <extensions>
          <ns3:TrackPointExtension>
            <ns3:atemp>19.0</ns3:atemp>
          </ns3:TrackPointExtension>
        </extensions>
      </trkpt>
      <trkpt lat="42.51801579259335994720458984375" lon="19.94722567498683929443359375">
        <ele>1870.199951171875</ele>
        <time>2026-06-17T09:39:42.000Z</time>
        <extensions>
          <ns3:TrackPointExtension>
            <ns3:atemp>19.0</ns3:atemp>
          </ns3:TrackPointExtension>
        </extensions>
      </trkpt>
      <trkpt lat="42.51801579259335994720458984375" lon="19.94722567498683929443359375">
        <ele>1870.199951171875</ele>
        <time>2026-06-17T09:39:43.000Z</time>
        <extensions>
          <ns3:TrackPointExtension>
            <ns3:atemp>19.0</ns3:atemp>
          </ns3:TrackPointExtension>
        </extensions>
      </trkpt>
      <trkpt lat="42.51801579259335994720458984375" lon="19.94722567498683929443359375">
        <ele>1870.199951171875</ele>
        <time>2026-06-17T09:39:44.000Z</time>
        <extensions>
          <ns3:TrackPointExtension>
            <ns3:atemp>19.0</ns3:atemp>
          </ns3:TrackPointExtension>
        </extensions>
      </trkpt>
      <trkpt lat="42.51801579259335994720458984375" lon="19.94722567498683929443359375">
        <ele>1870.199951171875</ele>
        <time>2026-06-17T09:39:45.000Z</time>
        <extensions>
          <ns3:TrackPointExtension>
            <ns3:atemp>19.0</ns3:atemp>
          </ns3:TrackPointExtension>
        </extensions>
      </trkpt>
      <trkpt lat="42.51801579259335994720458984375" lon="19.94722567498683929443359375">
        <ele>1870.199951171875</ele>
        <time>2026-06-17T09:39:46.000Z</time>
        <extensions>
          <ns3:TrackPointExtension>
            <ns3:atemp>19.0</ns3:atemp>
          </ns3:TrackPointExtension>
        </extensions>
      </trkpt>
      <trkpt lat="42.51801579259335994720458984375" lon="19.94722567498683929443359375">
        <ele>1870.199951171875</ele>
        <time>2026-06-17T09:39:47.000Z</time>
        <extensions>
          <ns3:TrackPointExtension>
            <ns3:atemp>19.0</ns3:atemp>
          </ns3:TrackPointExtension>
        </extensions>
      </trkpt>
      <trkpt lat="42.51801579259335994720458984375" lon="19.94722567498683929443359375">
        <ele>1870.199951171875</ele>
        <time>2026-06-17T09:39:48.000Z</time>
        <extensions>
          <ns3:TrackPointExtension>
            <ns3:atemp>19.0</ns3:atemp>
          </ns3:TrackPointExtension>
        </extensions>
      </trkpt>
      <trkpt lat="42.51801579259335994720458984375" lon="19.94722567498683929443359375">
        <ele>1870.199951171875</ele>
        <time>2026-06-17T09:39:49.000Z</time>
        <extensions>
          <ns3:TrackPointExtension>
            <ns3:atemp>19.0</ns3:atemp>
          </ns3:TrackPointExtension>
        </extensions>
      </trkpt>
      <trkpt lat="42.5180183909833431243896484375" lon="19.94721838273108005523681640625">
        <ele>1870.199951171875</ele>
        <time>2026-06-17T09:39:50.000Z</time>
        <extensions>
          <ns3:TrackPointExtension>
            <ns3:atemp>19.0</ns3:atemp>
          </ns3:TrackPointExtension>
        </extensions>
      </trkpt>
      <trkpt lat="42.518000118434429168701171875" lon="19.9472063966095447540283203125">
        <ele>1870.199951171875</ele>
        <time>2026-06-17T09:39:51.000Z</time>
        <extensions>
          <ns3:TrackPointExtension>
            <ns3:atemp>19.0</ns3:atemp>
          </ns3:TrackPointExtension>
        </extensions>
      </trkpt>
      <trkpt lat="42.5179862044751644134521484375" lon="19.94717613793909549713134765625">
        <ele>1870</ele>
        <time>2026-06-17T09:39:52.000Z</time>
        <extensions>
          <ns3:TrackPointExtension>
            <ns3:atemp>19.0</ns3:atemp>
          </ns3:TrackPointExtension>
        </extensions>
      </trkpt>
      <trkpt lat="42.5179687701165676116943359375" lon="19.94713758118450641632080078125">
        <ele>1869.800048828125</ele>
        <time>2026-06-17T09:39:53.000Z</time>
        <extensions>
          <ns3:TrackPointExtension>
            <ns3:atemp>19.0</ns3:atemp>
          </ns3:TrackPointExtension>
        </extensions>
      </trkpt>
      <trkpt lat="42.517938427627086639404296875" lon="19.94711126200854778289794921875">
        <ele>1869.5999755859375</ele>
        <time>2026-06-17T09:39:54.000Z</time>
        <extensions>
          <ns3:TrackPointExtension>
            <ns3:atemp>19.0</ns3:atemp>
          </ns3:TrackPointExtension>
        </extensions>
      </trkpt>
      <trkpt lat="42.517912946641445159912109375" lon="19.9471108429133892059326171875">
        <ele>1869.4000244140625</ele>
        <time>2026-06-17T09:39:55.000Z</time>
        <extensions>
          <ns3:TrackPointExtension>
            <ns3:atemp>19.0</ns3:atemp>
          </ns3:TrackPointExtension>
        </extensions>
      </trkpt>
      <trkpt lat="42.51789039932191371917724609375" lon="19.947107993066310882568359375">
        <ele>1869.199951171875</ele>
        <time>2026-06-17T09:39:56.000Z</time>
        <extensions>
          <ns3:TrackPointExtension>
            <ns3:atemp>19.0</ns3:atemp>
          </ns3:TrackPointExtension>
        </extensions>
      </trkpt>
      <trkpt lat="42.51788050867617130279541015625" lon="19.94709718041121959686279296875">
        <ele>1869</ele>
        <time>2026-06-17T09:39:57.000Z</time>
        <extensions>
          <ns3:TrackPointExtension>
            <ns3:atemp>19.0</ns3:atemp>
          </ns3:TrackPointExtension>
        </extensions>
      </trkpt>
      <trkpt lat="42.5178695283830165863037109375" lon="19.94708796031773090362548828125">
        <ele>1869</ele>
        <time>2026-06-17T09:39:58.000Z</time>
        <extensions>
          <ns3:TrackPointExtension>
            <ns3:atemp>19.0</ns3:atemp>
          </ns3:TrackPointExtension>
        </extensions>
      </trkpt>
      <trkpt lat="42.5178581289947032928466796875" lon="19.9470712803304195404052734375">
        <ele>1868.800048828125</ele>
        <time>2026-06-17T09:39:59.000Z</time>
        <extensions>
          <ns3:TrackPointExtension>
            <ns3:atemp>19.0</ns3:atemp>
          </ns3:TrackPointExtension>
        </extensions>
      </trkpt>
      <trkpt lat="42.51784748397767543792724609375" lon="19.947059713304042816162109375">
        <ele>1868.5999755859375</ele>
        <time>2026-06-17T09:40:00.000Z</time>
        <extensions>
          <ns3:TrackPointExtension>
            <ns3:atemp>19.0</ns3:atemp>
          </ns3:TrackPointExtension>
        </extensions>
      </trkpt>
      <trkpt lat="42.51782703213393688201904296875" lon="19.94704420678317546844482421875">
        <ele>1868.4000244140625</ele>
        <time>2026-06-17T09:40:01.000Z</time>
        <extensions>
          <ns3:TrackPointExtension>
            <ns3:atemp>19.0</ns3:atemp>
          </ns3:TrackPointExtension>
        </extensions>
      </trkpt>
      <trkpt lat="42.51781026832759380340576171875" lon="19.94703917764127254486083984375">
        <ele>1868.4000244140625</ele>
        <time>2026-06-17T09:40:02.000Z</time>
        <extensions>
          <ns3:TrackPointExtension>
            <ns3:atemp>19.0</ns3:atemp>
          </ns3:TrackPointExtension>
        </extensions>
      </trkpt>
      <trkpt lat="42.5177961029112339019775390625" lon="19.94704051874577999114990234375">
        <ele>1868.199951171875</ele>
        <time>2026-06-17T09:40:03.000Z</time>
        <extensions>
          <ns3:TrackPointExtension>
            <ns3:atemp>19.0</ns3:atemp>
          </ns3:TrackPointExtension>
        </extensions>
      </trkpt>
      <trkpt lat="42.51778344623744487762451171875" lon="19.94705443270504474639892578125">
        <ele>1868.199951171875</ele>
        <time>2026-06-17T09:40:04.000Z</time>
        <extensions>
          <ns3:TrackPointExtension>
            <ns3:atemp>19.0</ns3:atemp>
          </ns3:TrackPointExtension>
        </extensions>
      </trkpt>
      <trkpt lat="42.5177736394107341766357421875" lon="19.94706214405596256256103515625">
        <ele>1868.4000244140625</ele>
        <time>2026-06-17T09:40:05.000Z</time>
        <extensions>
          <ns3:TrackPointExtension>
            <ns3:atemp>19.0</ns3:atemp>
          </ns3:TrackPointExtension>
        </extensions>
      </trkpt>
      <trkpt lat="42.5177669338881969451904296875" lon="19.94706750847399234771728515625">
        <ele>1868.5999755859375</ele>
        <time>2026-06-17T09:40:06.000Z</time>
        <extensions>
          <ns3:TrackPointExtension>
            <ns3:atemp>19.0</ns3:atemp>
          </ns3:TrackPointExtension>
        </extensions>
      </trkpt>
      <trkpt lat="42.51776047982275485992431640625" lon="19.947060048580169677734375">
        <ele>1868.800048828125</ele>
        <time>2026-06-17T09:40:07.000Z</time>
        <extensions>
          <ns3:TrackPointExtension>
            <ns3:atemp>19.0</ns3:atemp>
          </ns3:TrackPointExtension>
        </extensions>
      </trkpt>
      <trkpt lat="42.5177536904811859130859375" lon="19.94705627672374248504638671875">
        <ele>1869</ele>
        <time>2026-06-17T09:40:08.000Z</time>
        <extensions>
          <ns3:TrackPointExtension>
            <ns3:atemp>19.0</ns3:atemp>
          </ns3:TrackPointExtension>
        </extensions>
      </trkpt>
      <trkpt lat="42.5177511759102344512939453125" lon="19.94705577380955219268798828125">
        <ele>1869.199951171875</ele>
        <time>2026-06-17T09:40:09.000Z</time>
        <extensions>
          <ns3:TrackPointExtension>
            <ns3:atemp>19.0</ns3:atemp>
          </ns3:TrackPointExtension>
        </extensions>
      </trkpt>
      <trkpt lat="42.51775410957634449005126953125" lon="19.94705736637115478515625">
        <ele>1869.4000244140625</ele>
        <time>2026-06-17T09:40:10.000Z</time>
        <extensions>
          <ns3:TrackPointExtension>
            <ns3:atemp>19.0</ns3:atemp>
          </ns3:TrackPointExtension>
        </extensions>
      </trkpt>
      <trkpt lat="42.51775410957634449005126953125" lon="19.9470571987330913543701171875">
        <ele>1869.5999755859375</ele>
        <time>2026-06-17T09:40:11.000Z</time>
        <extensions>
          <ns3:TrackPointExtension>
            <ns3:atemp>19.0</ns3:atemp>
          </ns3:TrackPointExtension>
        </extensions>
      </trkpt>
      <trkpt lat="42.517754696309566497802734375" lon="19.9470558576285839080810546875">
        <ele>1869.5999755859375</ele>
        <time>2026-06-17T09:40:12.000Z</time>
        <extensions>
          <ns3:TrackPointExtension>
            <ns3:atemp>19.0</ns3:atemp>
          </ns3:TrackPointExtension>
        </extensions>
      </trkpt>
      <trkpt lat="42.517754696309566497802734375" lon="19.9470558576285839080810546875">
        <ele>1869.800048828125</ele>
        <time>2026-06-17T09:40:13.000Z</time>
        <extensions>
          <ns3:TrackPointExtension>
            <ns3:atemp>19.0</ns3:atemp>
          </ns3:TrackPointExtension>
        </extensions>
      </trkpt>
      <trkpt lat="42.51775444485247135162353515625" lon="19.94705577380955219268798828125">
        <ele>1870</ele>
        <time>2026-06-17T09:40:14.000Z</time>
        <extensions>
          <ns3:TrackPointExtension>
            <ns3:atemp>19.0</ns3:atemp>
          </ns3:TrackPointExtension>
        </extensions>
      </trkpt>
      <trkpt lat="42.5177429616451263427734375" lon="19.9470541812479496002197265625">
        <ele>1870</ele>
        <time>2026-06-17T09:40:15.000Z</time>
        <extensions>
          <ns3:TrackPointExtension>
            <ns3:atemp>19.0</ns3:atemp>
          </ns3:TrackPointExtension>
        </extensions>
      </trkpt>
      <trkpt lat="42.5177360884845256805419921875" lon="19.9470535106956958770751953125">
        <ele>1870.199951171875</ele>
        <time>2026-06-17T09:40:16.000Z</time>
        <extensions>
          <ns3:TrackPointExtension>
            <ns3:atemp>19.0</ns3:atemp>
          </ns3:TrackPointExtension>
        </extensions>
      </trkpt>
      <trkpt lat="42.517735920846462249755859375" lon="19.9470535106956958770751953125">
        <ele>1870.199951171875</ele>
        <time>2026-06-17T09:40:17.000Z</time>
        <extensions>
          <ns3:TrackPointExtension>
            <ns3:atemp>19.0</ns3:atemp>
          </ns3:TrackPointExtension>
        </extensions>
      </trkpt>
      <trkpt lat="42.51772963441908359527587890625" lon="19.9470592103898525238037109375">
        <ele>1870.4000244140625</ele>
        <time>2026-06-17T09:40:18.000Z</time>
        <extensions>
          <ns3:TrackPointExtension>
            <ns3:atemp>19.0</ns3:atemp>
          </ns3:TrackPointExtension>
        </extensions>
      </trkpt>
      <trkpt lat="42.51771773211658000946044921875" lon="19.947061724960803985595703125">
        <ele>1870.4000244140625</ele>
        <time>2026-06-17T09:40:19.000Z</time>
        <extensions>
          <ns3:TrackPointExtension>
            <ns3:atemp>19.0</ns3:atemp>
          </ns3:TrackPointExtension>
        </extensions>
      </trkpt>
      <trkpt lat="42.51770750619471073150634765625" lon="19.94706566445529460906982421875">
        <ele>1870.800048828125</ele>
        <time>2026-06-17T09:40:20.000Z</time>
        <extensions>
          <ns3:TrackPointExtension>
            <ns3:atemp>19.0</ns3:atemp>
          </ns3:TrackPointExtension>
        </extensions>
      </trkpt>
      <trkpt lat="42.5177018903195858001708984375" lon="19.9470685981214046478271484375">
        <ele>1870.800048828125</ele>
        <time>2026-06-17T09:40:21.000Z</time>
        <extensions>
          <ns3:TrackPointExtension>
            <ns3:atemp>19.0</ns3:atemp>
          </ns3:TrackPointExtension>
        </extensions>
      </trkpt>
      <trkpt lat="42.51770180650055408477783203125" lon="19.9470685981214046478271484375">
        <ele>1870.800048828125</ele>
        <time>2026-06-17T09:40:22.000Z</time>
        <extensions>
          <ns3:TrackPointExtension>
            <ns3:atemp>19.0</ns3:atemp>
          </ns3:TrackPointExtension>
        </extensions>
      </trkpt>
      <trkpt lat="42.51768923364579677581787109375" lon="19.94705728255212306976318359375">
        <ele>1870.800048828125</ele>
        <time>2026-06-17T09:40:23.000Z</time>
        <extensions>
          <ns3:TrackPointExtension>
            <ns3:atemp>19.0</ns3:atemp>
          </ns3:TrackPointExtension>
        </extensions>
      </trkpt>
      <trkpt lat="42.51767749898135662078857421875" lon="19.94704596698284149169921875">
        <ele>1870.800048828125</ele>
        <time>2026-06-17T09:40:24.000Z</time>
        <extensions>
          <ns3:TrackPointExtension>
            <ns3:atemp>19.0</ns3:atemp>
          </ns3:TrackPointExtension>
        </extensions>
      </trkpt>
      <trkpt lat="42.51766140572726726531982421875" lon="19.94704370386898517608642578125">
        <ele>1870.800048828125</ele>
        <time>2026-06-17T09:40:25.000Z</time>
        <extensions>
          <ns3:TrackPointExtension>
            <ns3:atemp>19.0</ns3:atemp>
          </ns3:TrackPointExtension>
        </extensions>
      </trkpt>
      <trkpt lat="42.51764304935932159423828125" lon="19.9470404349267482757568359375">
        <ele>1870.800048828125</ele>
        <time>2026-06-17T09:40:26.000Z</time>
        <extensions>
          <ns3:TrackPointExtension>
            <ns3:atemp>19.0</ns3:atemp>
          </ns3:TrackPointExtension>
        </extensions>
      </trkpt>
      <trkpt lat="42.5176220946013927459716796875" lon="19.9470337294042110443115234375">
        <ele>1870.800048828125</ele>
        <time>2026-06-17T09:40:27.000Z</time>
        <extensions>
          <ns3:TrackPointExtension>
            <ns3:atemp>19.0</ns3:atemp>
          </ns3:TrackPointExtension>
        </extensions>
      </trkpt>
      <trkpt lat="42.51760457642376422882080078125" lon="19.94702425785362720489501953125">
        <ele>1871</ele>
        <time>2026-06-17T09:40:28.000Z</time>
        <extensions>
          <ns3:TrackPointExtension>
            <ns3:atemp>19.0</ns3:atemp>
          </ns3:TrackPointExtension>
        </extensions>
      </trkpt>
      <trkpt lat="42.51758378930389881134033203125" lon="19.94701621122658252716064453125">
        <ele>1871</ele>
        <time>2026-06-17T09:40:29.000Z</time>
        <extensions>
          <ns3:TrackPointExtension>
            <ns3:atemp>19.0</ns3:atemp>
          </ns3:TrackPointExtension>
        </extensions>
      </trkpt>
      <trkpt lat="42.5175632536411285400390625" lon="19.94700363837182521820068359375">
        <ele>1871</ele>
        <time>2026-06-17T09:40:30.000Z</time>
        <extensions>
          <ns3:TrackPointExtension>
            <ns3:atemp>19.0</ns3:atemp>
          </ns3:TrackPointExtension>
        </extensions>
      </trkpt>
      <trkpt lat="42.51754523254930973052978515625" lon="19.94699642993509769439697265625">
        <ele>1871</ele>
        <time>2026-06-17T09:40:31.000Z</time>
        <extensions>
          <ns3:TrackPointExtension>
            <ns3:atemp>19.0</ns3:atemp>
          </ns3:TrackPointExtension>
        </extensions>
      </trkpt>
      <trkpt lat="42.51753383316099643707275390625" lon="19.9469881318509578704833984375">
        <ele>1871</ele>
        <time>2026-06-17T09:40:32.000Z</time>
        <extensions>
          <ns3:TrackPointExtension>
            <ns3:atemp>19.0</ns3:atemp>
          </ns3:TrackPointExtension>
        </extensions>
      </trkpt>
      <trkpt lat="42.51753048039972782135009765625" lon="19.9469814263284206390380859375">
        <ele>1871</ele>
        <time>2026-06-17T09:40:33.000Z</time>
        <extensions>
          <ns3:TrackPointExtension>
            <ns3:atemp>19.0</ns3:atemp>
          </ns3:TrackPointExtension>
        </extensions>
      </trkpt>
      <trkpt lat="42.51752897165715694427490234375" lon="19.94698050431907176971435546875">
        <ele>1871.199951171875</ele>
        <time>2026-06-17T09:40:34.000Z</time>
        <extensions>
          <ns3:TrackPointExtension>
            <ns3:atemp>19.0</ns3:atemp>
          </ns3:TrackPointExtension>
        </extensions>
      </trkpt>
      <trkpt lat="42.51752897165715694427490234375" lon="19.9469804205000400543212890625">
        <ele>1871.199951171875</ele>
        <time>2026-06-17T09:40:35.000Z</time>
        <extensions>
          <ns3:TrackPointExtension>
            <ns3:atemp>19.0</ns3:atemp>
          </ns3:TrackPointExtension>
        </extensions>
      </trkpt>
      <trkpt lat="42.51752897165715694427490234375" lon="19.9469804205000400543212890625">
        <ele>1871.199951171875</ele>
        <time>2026-06-17T09:40:36.000Z</time>
        <extensions>
          <ns3:TrackPointExtension>
            <ns3:atemp>19.0</ns3:atemp>
          </ns3:TrackPointExtension>
        </extensions>
      </trkpt>
      <trkpt lat="42.51752897165715694427490234375" lon="19.9469804205000400543212890625">
        <ele>1871.4000244140625</ele>
        <time>2026-06-17T09:40:37.000Z</time>
        <extensions>
          <ns3:TrackPointExtension>
            <ns3:atemp>19.0</ns3:atemp>
          </ns3:TrackPointExtension>
        </extensions>
      </trkpt>
      <trkpt lat="42.51752897165715694427490234375" lon="19.9469804205000400543212890625">
        <ele>1871.4000244140625</ele>
        <time>2026-06-17T09:40:38.000Z</time>
        <extensions>
          <ns3:TrackPointExtension>
            <ns3:atemp>19.0</ns3:atemp>
          </ns3:TrackPointExtension>
        </extensions>
      </trkpt>
      <trkpt lat="42.51752897165715694427490234375" lon="19.9469804205000400543212890625">
        <ele>1871.4000244140625</ele>
        <time>2026-06-17T09:40:39.000Z</time>
        <extensions>
          <ns3:TrackPointExtension>
            <ns3:atemp>19.0</ns3:atemp>
          </ns3:TrackPointExtension>
        </extensions>
      </trkpt>
      <trkpt lat="42.51752897165715694427490234375" lon="19.9469804205000400543212890625">
        <ele>1871.199951171875</ele>
        <time>2026-06-17T09:40:40.000Z</time>
        <extensions>
          <ns3:TrackPointExtension>
            <ns3:atemp>19.0</ns3:atemp>
          </ns3:TrackPointExtension>
        </extensions>
      </trkpt>
      <trkpt lat="42.51752897165715694427490234375" lon="19.9469804205000400543212890625">
        <ele>1871.199951171875</ele>
        <time>2026-06-17T09:40:41.000Z</time>
        <extensions>
          <ns3:TrackPointExtension>
            <ns3:atemp>19.0</ns3:atemp>
          </ns3:TrackPointExtension>
        </extensions>
      </trkpt>
      <trkpt lat="42.51752964220941066741943359375" lon="19.94697866030037403106689453125">
        <ele>1871.199951171875</ele>
        <time>2026-06-17T09:40:42.000Z</time>
        <extensions>
          <ns3:TrackPointExtension>
            <ns3:atemp>19.0</ns3:atemp>
          </ns3:TrackPointExtension>
        </extensions>
      </trkpt>
      <trkpt lat="42.517524696886539459228515625" lon="19.94697396643459796905517578125">
        <ele>1871.199951171875</ele>
        <time>2026-06-17T09:40:43.000Z</time>
        <extensions>
          <ns3:TrackPointExtension>
            <ns3:atemp>19.0</ns3:atemp>
          </ns3:TrackPointExtension>
        </extensions>
      </trkpt>
      <trkpt lat="42.51751908101141452789306640625" lon="19.94696843437850475311279296875">
        <ele>1871.199951171875</ele>
        <time>2026-06-17T09:40:44.000Z</time>
        <extensions>
          <ns3:TrackPointExtension>
            <ns3:atemp>19.0</ns3:atemp>
          </ns3:TrackPointExtension>
        </extensions>
      </trkpt>
      <trkpt lat="42.51751002855598926544189453125" lon="19.94695753790438175201416015625">
        <ele>1871</ele>
        <time>2026-06-17T09:40:45.000Z</time>
        <extensions>
          <ns3:TrackPointExtension>
            <ns3:atemp>19.0</ns3:atemp>
          </ns3:TrackPointExtension>
        </extensions>
      </trkpt>
      <trkpt lat="42.51749879680573940277099609375" lon="19.94694538414478302001953125">
        <ele>1871</ele>
        <time>2026-06-17T09:40:46.000Z</time>
        <extensions>
          <ns3:TrackPointExtension>
            <ns3:atemp>19.0</ns3:atemp>
          </ns3:TrackPointExtension>
        </extensions>
      </trkpt>
      <trkpt lat="42.51748454757034778594970703125" lon="19.94692970998585224151611328125">
        <ele>1871</ele>
        <time>2026-06-17T09:40:47.000Z</time>
        <extensions>
          <ns3:TrackPointExtension>
            <ns3:atemp>18.0</ns3:atemp>
          </ns3:TrackPointExtension>
        </extensions>
      </trkpt>
      <trkpt lat="42.51746459864079952239990234375" lon="19.94692183099687099456787109375">
        <ele>1871</ele>
        <time>2026-06-17T09:40:48.000Z</time>
        <extensions>
          <ns3:TrackPointExtension>
            <ns3:atemp>18.0</ns3:atemp>
          </ns3:TrackPointExtension>
        </extensions>
      </trkpt>
      <trkpt lat="42.51743459142744541168212890625" lon="19.94691177271306514739990234375">
        <ele>1870.800048828125</ele>
        <time>2026-06-17T09:40:49.000Z</time>
        <extensions>
          <ns3:TrackPointExtension>
            <ns3:atemp>18.0</ns3:atemp>
          </ns3:TrackPointExtension>
        </extensions>
      </trkpt>
      <trkpt lat="42.517396621406078338623046875" lon="19.9468910694122314453125">
        <ele>1870.4000244140625</ele>
        <time>2026-06-17T09:40:50.000Z</time>
        <extensions>
          <ns3:TrackPointExtension>
            <ns3:atemp>18.0</ns3:atemp>
          </ns3:TrackPointExtension>
        </extensions>
      </trkpt>
      <trkpt lat="42.51736016012728214263916015625" lon="19.94686416350305080413818359375">
        <ele>1870</ele>
        <time>2026-06-17T09:40:51.000Z</time>
        <extensions>
          <ns3:TrackPointExtension>
            <ns3:atemp>18.0</ns3:atemp>
          </ns3:TrackPointExtension>
        </extensions>
      </trkpt>
      <trkpt lat="42.51732730306684970855712890625" lon="19.94684119708836078643798828125">
        <ele>1869.4000244140625</ele>
        <time>2026-06-17T09:40:52.000Z</time>
        <extensions>
          <ns3:TrackPointExtension>
            <ns3:atemp>18.0</ns3:atemp>
          </ns3:TrackPointExtension>
        </extensions>
      </trkpt>
      <trkpt lat="42.5173069350421428680419921875" lon="19.946829043328762054443359375">
        <ele>1869</ele>
        <time>2026-06-17T09:40:53.000Z</time>
        <extensions>
          <ns3:TrackPointExtension>
            <ns3:atemp>18.0</ns3:atemp>
          </ns3:TrackPointExtension>
        </extensions>
      </trkpt>
      <trkpt lat="42.5172945298254489898681640625" lon="19.9468184821307659149169921875">
        <ele>1868.5999755859375</ele>
        <time>2026-06-17T09:40:54.000Z</time>
        <extensions>
          <ns3:TrackPointExtension>
            <ns3:atemp>18.0</ns3:atemp>
          </ns3:TrackPointExtension>
        </extensions>
      </trkpt>
      <trkpt lat="42.51728790812194347381591796875" lon="19.94680901058018207550048828125">
        <ele>1868.5999755859375</ele>
        <time>2026-06-17T09:40:55.000Z</time>
        <extensions>
          <ns3:TrackPointExtension>
            <ns3:atemp>18.0</ns3:atemp>
          </ns3:TrackPointExtension>
        </extensions>
      </trkpt>
      <trkpt lat="42.51727986149489879608154296875" lon="19.9468007124960422515869140625">
        <ele>1868.5999755859375</ele>
        <time>2026-06-17T09:40:56.000Z</time>
        <extensions>
          <ns3:TrackPointExtension>
            <ns3:atemp>18.0</ns3:atemp>
          </ns3:TrackPointExtension>
        </extensions>
      </trkpt>
      <trkpt lat="42.51726963557302951812744140625" lon="19.946797527372837066650390625">
        <ele>1868.5999755859375</ele>
        <time>2026-06-17T09:40:57.000Z</time>
        <extensions>
          <ns3:TrackPointExtension>
            <ns3:atemp>18.0</ns3:atemp>
          </ns3:TrackPointExtension>
        </extensions>
      </trkpt>
      <trkpt lat="42.51726846210658550262451171875" lon="19.946791492402553558349609375">
        <ele>1868.5999755859375</ele>
        <time>2026-06-17T09:40:58.000Z</time>
        <extensions>
          <ns3:TrackPointExtension>
            <ns3:atemp>18.0</ns3:atemp>
          </ns3:TrackPointExtension>
        </extensions>
      </trkpt>
      <trkpt lat="42.51726795919239521026611328125" lon="19.94679576717317104339599609375">
        <ele>1868.800048828125</ele>
        <time>2026-06-17T09:40:59.000Z</time>
        <extensions>
          <ns3:TrackPointExtension>
            <ns3:atemp>18.0</ns3:atemp>
          </ns3:TrackPointExtension>
        </extensions>
      </trkpt>
      <trkpt lat="42.5172677077353000640869140625" lon="19.9467958509922027587890625">
        <ele>1868.800048828125</ele>
        <time>2026-06-17T09:41:00.000Z</time>
        <extensions>
          <ns3:TrackPointExtension>
            <ns3:atemp>18.0</ns3:atemp>
          </ns3:TrackPointExtension>
        </extensions>
      </trkpt>
      <trkpt lat="42.5172677077353000640869140625" lon="19.9467958509922027587890625">
        <ele>1869</ele>
        <time>2026-06-17T09:41:01.000Z</time>
        <extensions>
          <ns3:TrackPointExtension>
            <ns3:atemp>18.0</ns3:atemp>
          </ns3:TrackPointExtension>
        </extensions>
      </trkpt>
      <trkpt lat="42.5172670371830463409423828125" lon="19.94679526425898075103759765625">
        <ele>1869</ele>
        <time>2026-06-17T09:41:02.000Z</time>
        <extensions>
          <ns3:TrackPointExtension>
            <ns3:atemp>18.0</ns3:atemp>
          </ns3:TrackPointExtension>
        </extensions>
      </trkpt>
      <trkpt lat="42.5172593258321285247802734375" lon="19.94678721763193607330322265625">
        <ele>1869</ele>
        <time>2026-06-17T09:41:03.000Z</time>
        <extensions>
          <ns3:TrackPointExtension>
            <ns3:atemp>18.0</ns3:atemp>
          </ns3:TrackPointExtension>
        </extensions>
      </trkpt>
      <trkpt lat="42.5172522850334644317626953125" lon="19.94678453542292118072509765625">
        <ele>1869</ele>
        <time>2026-06-17T09:41:04.000Z</time>
        <extensions>
          <ns3:TrackPointExtension>
            <ns3:atemp>18.0</ns3:atemp>
          </ns3:TrackPointExtension>
        </extensions>
      </trkpt>
      <trkpt lat="42.51724365167319774627685546875" lon="19.94678554125130176544189453125">
        <ele>1869</ele>
        <time>2026-06-17T09:41:05.000Z</time>
        <extensions>
          <ns3:TrackPointExtension>
            <ns3:atemp>18.0</ns3:atemp>
          </ns3:TrackPointExtension>
        </extensions>
      </trkpt>
      <trkpt lat="42.51724264584481716156005859375" lon="19.94679174385964870452880859375">
        <ele>1869</ele>
        <time>2026-06-17T09:41:06.000Z</time>
        <extensions>
          <ns3:TrackPointExtension>
            <ns3:atemp>18.0</ns3:atemp>
          </ns3:TrackPointExtension>
        </extensions>
      </trkpt>
      <trkpt lat="42.51724264584481716156005859375" lon="19.94679191149771213531494140625">
        <ele>1869</ele>
        <time>2026-06-17T09:41:07.000Z</time>
        <extensions>
          <ns3:TrackPointExtension>
            <ns3:atemp>18.0</ns3:atemp>
          </ns3:TrackPointExtension>
        </extensions>
      </trkpt>
      <trkpt lat="42.5172425620257854461669921875" lon="19.9467919953167438507080078125">
        <ele>1869.199951171875</ele>
        <time>2026-06-17T09:41:08.000Z</time>
        <extensions>
          <ns3:TrackPointExtension>
            <ns3:atemp>18.0</ns3:atemp>
          </ns3:TrackPointExtension>
        </extensions>
      </trkpt>
      <trkpt lat="42.51723359338939189910888671875" lon="19.94679476134479045867919921875">
        <ele>1869.199951171875</ele>
        <time>2026-06-17T09:41:09.000Z</time>
        <extensions>
          <ns3:TrackPointExtension>
            <ns3:atemp>18.0</ns3:atemp>
          </ns3:TrackPointExtension>
        </extensions>
      </trkpt>
      <trkpt lat="42.5172247923910617828369140625" lon="19.94678889401257038116455078125">
        <ele>1869.199951171875</ele>
        <time>2026-06-17T09:41:10.000Z</time>
        <extensions>
          <ns3:TrackPointExtension>
            <ns3:atemp>18.0</ns3:atemp>
          </ns3:TrackPointExtension>
        </extensions>
      </trkpt>
      <trkpt lat="42.51721783541142940521240234375" lon="19.9467769078910350799560546875">
        <ele>1869.199951171875</ele>
        <time>2026-06-17T09:41:11.000Z</time>
        <extensions>
          <ns3:TrackPointExtension>
            <ns3:atemp>18.0</ns3:atemp>
          </ns3:TrackPointExtension>
        </extensions>
      </trkpt>
      <trkpt lat="42.51721448265016078948974609375" lon="19.9467624910175800323486328125">
        <ele>1869.199951171875</ele>
        <time>2026-06-17T09:41:12.000Z</time>
        <extensions>
          <ns3:TrackPointExtension>
            <ns3:atemp>18.0</ns3:atemp>
          </ns3:TrackPointExtension>
        </extensions>
      </trkpt>
      <trkpt lat="42.51721163280308246612548828125" lon="19.9467514269053936004638671875">
        <ele>1869.4000244140625</ele>
        <time>2026-06-17T09:41:13.000Z</time>
        <extensions>
          <ns3:TrackPointExtension>
            <ns3:atemp>18.0</ns3:atemp>
          </ns3:TrackPointExtension>
        </extensions>
      </trkpt>
      <trkpt lat="42.5172118842601776123046875" lon="19.94674379937350749969482421875">
        <ele>1869.4000244140625</ele>
        <time>2026-06-17T09:41:14.000Z</time>
        <extensions>
          <ns3:TrackPointExtension>
            <ns3:atemp>18.0</ns3:atemp>
          </ns3:TrackPointExtension>
        </extensions>
      </trkpt>
      <trkpt lat="42.51721012406051158905029296875" lon="19.946734495460987091064453125">
        <ele>1869.5999755859375</ele>
        <time>2026-06-17T09:41:15.000Z</time>
        <extensions>
          <ns3:TrackPointExtension>
            <ns3:atemp>18.0</ns3:atemp>
          </ns3:TrackPointExtension>
        </extensions>
      </trkpt>
      <trkpt lat="42.51720719039440155029296875" lon="19.94672946631908416748046875">
        <ele>1869.800048828125</ele>
        <time>2026-06-17T09:41:16.000Z</time>
        <extensions>
          <ns3:TrackPointExtension>
            <ns3:atemp>18.0</ns3:atemp>
          </ns3:TrackPointExtension>
        </extensions>
      </trkpt>
      <trkpt lat="42.51720811240375041961669921875" lon="19.94673055596649646759033203125">
        <ele>1869.800048828125</ele>
        <time>2026-06-17T09:41:17.000Z</time>
        <extensions>
          <ns3:TrackPointExtension>
            <ns3:atemp>18.0</ns3:atemp>
          </ns3:TrackPointExtension>
        </extensions>
      </trkpt>
      <trkpt lat="42.51720677129924297332763671875" lon="19.94672670029103755950927734375">
        <ele>1870</ele>
        <time>2026-06-17T09:41:18.000Z</time>
        <extensions>
          <ns3:TrackPointExtension>
            <ns3:atemp>18.0</ns3:atemp>
          </ns3:TrackPointExtension>
        </extensions>
      </trkpt>
      <trkpt lat="42.51720660366117954254150390625" lon="19.9467266164720058441162109375">
        <ele>1870</ele>
        <time>2026-06-17T09:41:19.000Z</time>
        <extensions>
          <ns3:TrackPointExtension>
            <ns3:atemp>18.0</ns3:atemp>
          </ns3:TrackPointExtension>
        </extensions>
      </trkpt>
      <trkpt lat="42.51720660366117954254150390625" lon="19.9467266164720058441162109375">
        <ele>1870</ele>
        <time>2026-06-17T09:41:20.000Z</time>
        <extensions>
          <ns3:TrackPointExtension>
            <ns3:atemp>18.0</ns3:atemp>
          </ns3:TrackPointExtension>
        </extensions>
      </trkpt>
      <trkpt lat="42.51720626838505268096923828125" lon="19.94672636501491069793701171875">
        <ele>1870</ele>
        <time>2026-06-17T09:41:21.000Z</time>
        <extensions>
          <ns3:TrackPointExtension>
            <ns3:atemp>18.0</ns3:atemp>
          </ns3:TrackPointExtension>
        </extensions>
      </trkpt>
      <trkpt lat="42.5171902589499950408935546875" lon="19.9467178992927074432373046875">
        <ele>1870.199951171875</ele>
        <time>2026-06-17T09:41:22.000Z</time>
        <extensions>
          <ns3:TrackPointExtension>
            <ns3:atemp>18.0</ns3:atemp>
          </ns3:TrackPointExtension>
        </extensions>
      </trkpt>
      <trkpt lat="42.51718078739941120147705078125" lon="19.94671345688402652740478515625">
        <ele>1870.199951171875</ele>
        <time>2026-06-17T09:41:23.000Z</time>
        <extensions>
          <ns3:TrackPointExtension>
            <ns3:atemp>18.0</ns3:atemp>
          </ns3:TrackPointExtension>
        </extensions>
      </trkpt>
      <trkpt lat="42.517181374132633209228515625" lon="19.946710355579853057861328125">
        <ele>1870.199951171875</ele>
        <time>2026-06-17T09:41:24.000Z</time>
        <extensions>
          <ns3:TrackPointExtension>
            <ns3:atemp>18.0</ns3:atemp>
          </ns3:TrackPointExtension>
        </extensions>
      </trkpt>
      <trkpt lat="42.51718036830425262451171875" lon="19.946714378893375396728515625">
        <ele>1870.199951171875</ele>
        <time>2026-06-17T09:41:25.000Z</time>
        <extensions>
          <ns3:TrackPointExtension>
            <ns3:atemp>18.0</ns3:atemp>
          </ns3:TrackPointExtension>
        </extensions>
      </trkpt>
      <trkpt lat="42.51717391423881053924560546875" lon="19.94671010412275791168212890625">
        <ele>1870.199951171875</ele>
        <time>2026-06-17T09:41:26.000Z</time>
        <extensions>
          <ns3:TrackPointExtension>
            <ns3:atemp>18.0</ns3:atemp>
          </ns3:TrackPointExtension>
        </extensions>
      </trkpt>
      <trkpt lat="42.5171738304197788238525390625" lon="19.9467100203037261962890625">
        <ele>1870.199951171875</ele>
        <time>2026-06-17T09:41:27.000Z</time>
        <extensions>
          <ns3:TrackPointExtension>
            <ns3:atemp>18.0</ns3:atemp>
          </ns3:TrackPointExtension>
        </extensions>
      </trkpt>
      <trkpt lat="42.51717366278171539306640625" lon="19.94670993648469448089599609375">
        <ele>1870.199951171875</ele>
        <time>2026-06-17T09:41:28.000Z</time>
        <extensions>
          <ns3:TrackPointExtension>
            <ns3:atemp>18.0</ns3:atemp>
          </ns3:TrackPointExtension>
        </extensions>
      </trkpt>
      <trkpt lat="42.51715958118438720703125" lon="19.94670088402926921844482421875">
        <ele>1870.4000244140625</ele>
        <time>2026-06-17T09:41:29.000Z</time>
        <extensions>
          <ns3:TrackPointExtension>
            <ns3:atemp>18.0</ns3:atemp>
          </ns3:TrackPointExtension>
        </extensions>
      </trkpt>
      <trkpt lat="42.51715396530926227569580078125" lon="19.94669593870639801025390625">
        <ele>1870.4000244140625</ele>
        <time>2026-06-17T09:41:30.000Z</time>
        <extensions>
          <ns3:TrackPointExtension>
            <ns3:atemp>18.0</ns3:atemp>
          </ns3:TrackPointExtension>
        </extensions>
      </trkpt>
      <trkpt lat="42.5171517021954059600830078125" lon="19.94669551961123943328857421875">
        <ele>1870.4000244140625</ele>
        <time>2026-06-17T09:41:31.000Z</time>
        <extensions>
          <ns3:TrackPointExtension>
            <ns3:atemp>18.0</ns3:atemp>
          </ns3:TrackPointExtension>
        </extensions>
      </trkpt>
      <trkpt lat="42.5171517021954059600830078125" lon="19.94669551961123943328857421875">
        <ele>1870.4000244140625</ele>
        <time>2026-06-17T09:41:32.000Z</time>
        <extensions>
          <ns3:TrackPointExtension>
            <ns3:atemp>18.0</ns3:atemp>
          </ns3:TrackPointExtension>
        </extensions>
      </trkpt>
      <trkpt lat="42.5171517021954059600830078125" lon="19.94669551961123943328857421875">
        <ele>1870.4000244140625</ele>
        <time>2026-06-17T09:41:33.000Z</time>
        <extensions>
          <ns3:TrackPointExtension>
            <ns3:atemp>18.0</ns3:atemp>
          </ns3:TrackPointExtension>
        </extensions>
      </trkpt>
      <trkpt lat="42.5171517021954059600830078125" lon="19.94669551961123943328857421875">
        <ele>1870.5999755859375</ele>
        <time>2026-06-17T09:41:34.000Z</time>
        <extensions>
          <ns3:TrackPointExtension>
            <ns3:atemp>18.0</ns3:atemp>
          </ns3:TrackPointExtension>
        </extensions>
      </trkpt>
      <trkpt lat="42.5171517021954059600830078125" lon="19.94669551961123943328857421875">
        <ele>1870.5999755859375</ele>
        <time>2026-06-17T09:41:35.000Z</time>
        <extensions>
          <ns3:TrackPointExtension>
            <ns3:atemp>18.0</ns3:atemp>
          </ns3:TrackPointExtension>
        </extensions>
      </trkpt>
      <trkpt lat="42.5171517021954059600830078125" lon="19.94669551961123943328857421875">
        <ele>1870.5999755859375</ele>
        <time>2026-06-17T09:41:36.000Z</time>
        <extensions>
          <ns3:TrackPointExtension>
            <ns3:atemp>18.0</ns3:atemp>
          </ns3:TrackPointExtension>
        </extensions>
      </trkpt>
      <trkpt lat="42.5171517021954059600830078125" lon="19.94669551961123943328857421875">
        <ele>1870.5999755859375</ele>
        <time>2026-06-17T09:41:37.000Z</time>
        <extensions>
          <ns3:TrackPointExtension>
            <ns3:atemp>18.0</ns3:atemp>
          </ns3:TrackPointExtension>
        </extensions>
      </trkpt>
      <trkpt lat="42.5171517021954059600830078125" lon="19.94669551961123943328857421875">
        <ele>1870.5999755859375</ele>
        <time>2026-06-17T09:41:38.000Z</time>
        <extensions>
          <ns3:TrackPointExtension>
            <ns3:atemp>18.0</ns3:atemp>
          </ns3:TrackPointExtension>
        </extensions>
      </trkpt>
      <trkpt lat="42.5171517021954059600830078125" lon="19.94669551961123943328857421875">
        <ele>1870.800048828125</ele>
        <time>2026-06-17T09:41:39.000Z</time>
        <extensions>
          <ns3:TrackPointExtension>
            <ns3:atemp>18.0</ns3:atemp>
          </ns3:TrackPointExtension>
        </extensions>
      </trkpt>
      <trkpt lat="42.5171517021954059600830078125" lon="19.94669551961123943328857421875">
        <ele>1870.800048828125</ele>
        <time>2026-06-17T09:41:40.000Z</time>
        <extensions>
          <ns3:TrackPointExtension>
            <ns3:atemp>18.0</ns3:atemp>
          </ns3:TrackPointExtension>
        </extensions>
      </trkpt>
      <trkpt lat="42.5171517021954059600830078125" lon="19.94669551961123943328857421875">
        <ele>1870.800048828125</ele>
        <time>2026-06-17T09:41:41.000Z</time>
        <extensions>
          <ns3:TrackPointExtension>
            <ns3:atemp>18.0</ns3:atemp>
          </ns3:TrackPointExtension>
        </extensions>
      </trkpt>
      <trkpt lat="42.5171517021954059600830078125" lon="19.94669551961123943328857421875">
        <ele>1870.800048828125</ele>
        <time>2026-06-17T09:41:42.000Z</time>
        <extensions>
          <ns3:TrackPointExtension>
            <ns3:atemp>18.0</ns3:atemp>
          </ns3:TrackPointExtension>
        </extensions>
      </trkpt>
      <trkpt lat="42.5171517021954059600830078125" lon="19.94669551961123943328857421875">
        <ele>1870.800048828125</ele>
        <time>2026-06-17T09:41:43.000Z</time>
        <extensions>
          <ns3:TrackPointExtension>
            <ns3:atemp>18.0</ns3:atemp>
          </ns3:TrackPointExtension>
        </extensions>
      </trkpt>
      <trkpt lat="42.5171517021954059600830078125" lon="19.94669551961123943328857421875">
        <ele>1870.800048828125</ele>
        <time>2026-06-17T09:41:44.000Z</time>
        <extensions>
          <ns3:TrackPointExtension>
            <ns3:atemp>18.0</ns3:atemp>
          </ns3:TrackPointExtension>
        </extensions>
      </trkpt>
      <trkpt lat="42.5171517021954059600830078125" lon="19.94669551961123943328857421875">
        <ele>1870.800048828125</ele>
        <time>2026-06-17T09:41:45.000Z</time>
        <extensions>
          <ns3:TrackPointExtension>
            <ns3:atemp>18.0</ns3:atemp>
          </ns3:TrackPointExtension>
        </extensions>
      </trkpt>
      <trkpt lat="42.5171517021954059600830078125" lon="19.94669551961123943328857421875">
        <ele>1870.800048828125</ele>
        <time>2026-06-17T09:41:46.000Z</time>
        <extensions>
          <ns3:TrackPointExtension>
            <ns3:atemp>18.0</ns3:atemp>
          </ns3:TrackPointExtension>
        </extensions>
      </trkpt>
      <trkpt lat="42.5171517021954059600830078125" lon="19.94669551961123943328857421875">
        <ele>1870.800048828125</ele>
        <time>2026-06-17T09:41:47.000Z</time>
        <extensions>
          <ns3:TrackPointExtension>
            <ns3:atemp>18.0</ns3:atemp>
          </ns3:TrackPointExtension>
        </extensions>
      </trkpt>
      <trkpt lat="42.51714658923447132110595703125" lon="19.94669727981090545654296875">
        <ele>1870.800048828125</ele>
        <time>2026-06-17T09:41:48.000Z</time>
        <extensions>
          <ns3:TrackPointExtension>
            <ns3:atemp>18.0</ns3:atemp>
          </ns3:TrackPointExtension>
        </extensions>
      </trkpt>
      <trkpt lat="42.517126388847827911376953125" lon="19.9466937594115734100341796875">
        <ele>1870.800048828125</ele>
        <time>2026-06-17T09:41:49.000Z</time>
        <extensions>
          <ns3:TrackPointExtension>
            <ns3:atemp>18.0</ns3:atemp>
          </ns3:TrackPointExtension>
        </extensions>
      </trkpt>
      <trkpt lat="42.51711331307888031005859375" lon="19.946691580116748809814453125">
        <ele>1870.5999755859375</ele>
        <time>2026-06-17T09:41:50.000Z</time>
        <extensions>
          <ns3:TrackPointExtension>
            <ns3:atemp>18.0</ns3:atemp>
          </ns3:TrackPointExtension>
        </extensions>
      </trkpt>
      <trkpt lat="42.5170990638434886932373046875" lon="19.94668546132743358612060546875">
        <ele>1870.5999755859375</ele>
        <time>2026-06-17T09:41:51.000Z</time>
        <extensions>
          <ns3:TrackPointExtension>
            <ns3:atemp>18.0</ns3:atemp>
          </ns3:TrackPointExtension>
        </extensions>
      </trkpt>
      <trkpt lat="42.517077438533306121826171875" lon="19.94667573831975460052490234375">
        <ele>1870.4000244140625</ele>
        <time>2026-06-17T09:41:52.000Z</time>
        <extensions>
          <ns3:TrackPointExtension>
            <ns3:atemp>18.0</ns3:atemp>
          </ns3:TrackPointExtension>
        </extensions>
      </trkpt>
      <trkpt lat="42.517056651413440704345703125" lon="19.94667355902493000030517578125">
        <ele>1870.199951171875</ele>
        <time>2026-06-17T09:41:53.000Z</time>
        <extensions>
          <ns3:TrackPointExtension>
            <ns3:atemp>18.0</ns3:atemp>
          </ns3:TrackPointExtension>
        </extensions>
      </trkpt>
      <trkpt lat="42.51704717986285686492919921875" lon="19.9466769956052303314208984375">
        <ele>1870</ele>
        <time>2026-06-17T09:41:54.000Z</time>
        <extensions>
          <ns3:TrackPointExtension>
            <ns3:atemp>18.0</ns3:atemp>
          </ns3:TrackPointExtension>
        </extensions>
      </trkpt>
      <trkpt lat="42.51703795976936817169189453125" lon="19.9466837011277675628662109375">
        <ele>1870</ele>
        <time>2026-06-17T09:41:55.000Z</time>
        <extensions>
          <ns3:TrackPointExtension>
            <ns3:atemp>18.0</ns3:atemp>
          </ns3:TrackPointExtension>
        </extensions>
      </trkpt>
      <trkpt lat="42.51703418791294097900390625" lon="19.946688897907733917236328125">
        <ele>1870</ele>
        <time>2026-06-17T09:41:56.000Z</time>
        <extensions>
          <ns3:TrackPointExtension>
            <ns3:atemp>18.0</ns3:atemp>
          </ns3:TrackPointExtension>
        </extensions>
      </trkpt>
      <trkpt lat="42.51702790148556232452392578125" lon="19.94670088402926921844482421875">
        <ele>1870</ele>
        <time>2026-06-17T09:41:57.000Z</time>
        <extensions>
          <ns3:TrackPointExtension>
            <ns3:atemp>18.0</ns3:atemp>
          </ns3:TrackPointExtension>
        </extensions>
      </trkpt>
      <trkpt lat="42.51701985485851764678955078125" lon="19.94671764783561229705810546875">
        <ele>1870</ele>
        <time>2026-06-17T09:41:58.000Z</time>
        <extensions>
          <ns3:TrackPointExtension>
            <ns3:atemp>18.0</ns3:atemp>
          </ns3:TrackPointExtension>
        </extensions>
      </trkpt>
      <trkpt lat="42.517002336680889129638671875" lon="19.94673491455614566802978515625">
        <ele>1870</ele>
        <time>2026-06-17T09:41:59.000Z</time>
        <extensions>
          <ns3:TrackPointExtension>
            <ns3:atemp>18.0</ns3:atemp>
          </ns3:TrackPointExtension>
        </extensions>
      </trkpt>
      <trkpt lat="42.51699395477771759033203125" lon="19.946748577058315277099609375">
        <ele>1870.199951171875</ele>
        <time>2026-06-17T09:42:00.000Z</time>
        <extensions>
          <ns3:TrackPointExtension>
            <ns3:atemp>18.0</ns3:atemp>
          </ns3:TrackPointExtension>
        </extensions>
      </trkpt>
      <trkpt lat="42.5169860757887363433837890625" lon="19.94676291011273860931396484375">
        <ele>1870.199951171875</ele>
        <time>2026-06-17T09:42:01.000Z</time>
        <extensions>
          <ns3:TrackPointExtension>
            <ns3:atemp>18.0</ns3:atemp>
          </ns3:TrackPointExtension>
        </extensions>
      </trkpt>
      <trkpt lat="42.51697660423815250396728515625" lon="19.946774728596210479736328125">
        <ele>1870.5999755859375</ele>
        <time>2026-06-17T09:42:02.000Z</time>
        <extensions>
          <ns3:TrackPointExtension>
            <ns3:atemp>18.0</ns3:atemp>
          </ns3:TrackPointExtension>
        </extensions>
      </trkpt>
      <trkpt lat="42.51697140745818614959716796875" lon="19.94678956456482410430908203125">
        <ele>1870.800048828125</ele>
        <time>2026-06-17T09:42:03.000Z</time>
        <extensions>
          <ns3:TrackPointExtension>
            <ns3:atemp>18.0</ns3:atemp>
          </ns3:TrackPointExtension>
        </extensions>
      </trkpt>
      <trkpt lat="42.51696688123047351837158203125" lon="19.9468127824366092681884765625">
        <ele>1871</ele>
        <time>2026-06-17T09:42:04.000Z</time>
        <extensions>
          <ns3:TrackPointExtension>
            <ns3:atemp>18.0</ns3:atemp>
          </ns3:TrackPointExtension>
        </extensions>
      </trkpt>
      <trkpt lat="42.51695506274700164794921875" lon="19.9468292109668254852294921875">
        <ele>1871.199951171875</ele>
        <time>2026-06-17T09:42:05.000Z</time>
        <extensions>
          <ns3:TrackPointExtension>
            <ns3:atemp>18.0</ns3:atemp>
          </ns3:TrackPointExtension>
        </extensions>
      </trkpt>
      <trkpt lat="42.5169418193399906158447265625" lon="19.94684555567800998687744140625">
        <ele>1871.5999755859375</ele>
        <time>2026-06-17T09:42:06.000Z</time>
        <extensions>
          <ns3:TrackPointExtension>
            <ns3:atemp>18.0</ns3:atemp>
          </ns3:TrackPointExtension>
        </extensions>
      </trkpt>
      <trkpt lat="42.516926564276218414306640625" lon="19.94685762561857700347900390625">
        <ele>1871.800048828125</ele>
        <time>2026-06-17T09:42:07.000Z</time>
        <extensions>
          <ns3:TrackPointExtension>
            <ns3:atemp>18.0</ns3:atemp>
          </ns3:TrackPointExtension>
        </extensions>
      </trkpt>
      <trkpt lat="42.51691256649792194366455078125" lon="19.9468620680272579193115234375">
        <ele>1872</ele>
        <time>2026-06-17T09:42:08.000Z</time>
        <extensions>
          <ns3:TrackPointExtension>
            <ns3:atemp>18.0</ns3:atemp>
          </ns3:TrackPointExtension>
        </extensions>
      </trkpt>
      <trkpt lat="42.51689529977738857269287109375" lon="19.94686986319720745086669921875">
        <ele>1872.4000244140625</ele>
        <time>2026-06-17T09:42:09.000Z</time>
        <extensions>
          <ns3:TrackPointExtension>
            <ns3:atemp>18.0</ns3:atemp>
          </ns3:TrackPointExtension>
        </extensions>
      </trkpt>
      <trkpt lat="42.51687484793365001678466796875" lon="19.9468848668038845062255859375">
        <ele>1872.5999755859375</ele>
        <time>2026-06-17T09:42:10.000Z</time>
        <extensions>
          <ns3:TrackPointExtension>
            <ns3:atemp>18.0</ns3:atemp>
          </ns3:TrackPointExtension>
        </extensions>
      </trkpt>
      <trkpt lat="42.51685221679508686065673828125" lon="19.94689182378351688385009765625">
        <ele>1872.800048828125</ele>
        <time>2026-06-17T09:42:11.000Z</time>
        <extensions>
          <ns3:TrackPointExtension>
            <ns3:atemp>18.0</ns3:atemp>
          </ns3:TrackPointExtension>
        </extensions>
      </trkpt>
      <trkpt lat="42.516835369169712066650390625" lon="19.946898110210895538330078125">
        <ele>1873</ele>
        <time>2026-06-17T09:42:12.000Z</time>
        <extensions>
          <ns3:TrackPointExtension>
            <ns3:atemp>18.0</ns3:atemp>
          </ns3:TrackPointExtension>
        </extensions>
      </trkpt>
      <trkpt lat="42.516806535422801971435546875" lon="19.946906827390193939208984375">
        <ele>1873.199951171875</ele>
        <time>2026-06-17T09:42:13.000Z</time>
        <extensions>
          <ns3:TrackPointExtension>
            <ns3:atemp>18.0</ns3:atemp>
          </ns3:TrackPointExtension>
        </extensions>
      </trkpt>
      <trkpt lat="42.5167839042842388153076171875" lon="19.9469153769314289093017578125">
        <ele>1873.199951171875</ele>
        <time>2026-06-17T09:42:14.000Z</time>
        <extensions>
          <ns3:TrackPointExtension>
            <ns3:atemp>18.0</ns3:atemp>
          </ns3:TrackPointExtension>
        </extensions>
      </trkpt>
      <trkpt lat="42.5167634524405002593994140625" lon="19.94692602194845676422119140625">
        <ele>1873.4000244140625</ele>
        <time>2026-06-17T09:42:15.000Z</time>
        <extensions>
          <ns3:TrackPointExtension>
            <ns3:atemp>18.0</ns3:atemp>
          </ns3:TrackPointExtension>
        </extensions>
      </trkpt>
      <trkpt lat="42.5167426653206348419189453125" lon="19.9469297938048839569091796875">
        <ele>1873.4000244140625</ele>
        <time>2026-06-17T09:42:16.000Z</time>
        <extensions>
          <ns3:TrackPointExtension>
            <ns3:atemp>18.0</ns3:atemp>
          </ns3:TrackPointExtension>
        </extensions>
      </trkpt>
      <trkpt lat="42.51672036945819854736328125" lon="19.94694865308701992034912109375">
        <ele>1873.4000244140625</ele>
        <time>2026-06-17T09:42:17.000Z</time>
        <extensions>
          <ns3:TrackPointExtension>
            <ns3:atemp>18.0</ns3:atemp>
          </ns3:TrackPointExtension>
        </extensions>
      </trkpt>
      <trkpt lat="42.51669983379542827606201171875" lon="19.9469626508653163909912109375">
        <ele>1873.5999755859375</ele>
        <time>2026-06-17T09:42:18.000Z</time>
        <extensions>
          <ns3:TrackPointExtension>
            <ns3:atemp>18.0</ns3:atemp>
          </ns3:TrackPointExtension>
        </extensions>
      </trkpt>
      <trkpt lat="42.5166893564164638519287109375" lon="19.94697363115847110748291015625">
        <ele>1873.800048828125</ele>
        <time>2026-06-17T09:42:19.000Z</time>
        <extensions>
          <ns3:TrackPointExtension>
            <ns3:atemp>18.0</ns3:atemp>
          </ns3:TrackPointExtension>
        </extensions>
      </trkpt>
      <trkpt lat="42.51667737029492855072021484375" lon="19.94698293507099151611328125">
        <ele>1874</ele>
        <time>2026-06-17T09:42:20.000Z</time>
        <extensions>
          <ns3:TrackPointExtension>
            <ns3:atemp>18.0</ns3:atemp>
          </ns3:TrackPointExtension>
        </extensions>
      </trkpt>
      <trkpt lat="42.5166615284979343414306640625" lon="19.9469983577728271484375">
        <ele>1874.199951171875</ele>
        <time>2026-06-17T09:42:21.000Z</time>
        <extensions>
          <ns3:TrackPointExtension>
            <ns3:atemp>18.0</ns3:atemp>
          </ns3:TrackPointExtension>
        </extensions>
      </trkpt>
      <trkpt lat="42.51664384268224239349365234375" lon="19.94700665585696697235107421875">
        <ele>1874.5999755859375</ele>
        <time>2026-06-17T09:42:22.000Z</time>
        <extensions>
          <ns3:TrackPointExtension>
            <ns3:atemp>18.0</ns3:atemp>
          </ns3:TrackPointExtension>
        </extensions>
      </trkpt>
      <trkpt lat="42.51663386821746826171875" lon="19.9470142833888530731201171875">
        <ele>1874.800048828125</ele>
        <time>2026-06-17T09:42:23.000Z</time>
        <extensions>
          <ns3:TrackPointExtension>
            <ns3:atemp>18.0</ns3:atemp>
          </ns3:TrackPointExtension>
        </extensions>
      </trkpt>
      <trkpt lat="42.51662380993366241455078125" lon="19.94702040217816829681396484375">
        <ele>1875</ele>
        <time>2026-06-17T09:42:24.000Z</time>
        <extensions>
          <ns3:TrackPointExtension>
            <ns3:atemp>18.0</ns3:atemp>
          </ns3:TrackPointExtension>
        </extensions>
      </trkpt>
      <trkpt lat="42.51661903224885463714599609375" lon="19.9470139481127262115478515625">
        <ele>1875.199951171875</ele>
        <time>2026-06-17T09:42:25.000Z</time>
        <extensions>
          <ns3:TrackPointExtension>
            <ns3:atemp>18.0</ns3:atemp>
          </ns3:TrackPointExtension>
        </extensions>
      </trkpt>
      <trkpt lat="42.51661266200244426727294921875" lon="19.94700841605663299560546875">
        <ele>1875.199951171875</ele>
        <time>2026-06-17T09:42:26.000Z</time>
        <extensions>
          <ns3:TrackPointExtension>
            <ns3:atemp>18.0</ns3:atemp>
          </ns3:TrackPointExtension>
        </extensions>
      </trkpt>
      <trkpt lat="42.51661266200244426727294921875" lon="19.94700849987566471099853515625">
        <ele>1875.4000244140625</ele>
        <time>2026-06-17T09:42:27.000Z</time>
        <extensions>
          <ns3:TrackPointExtension>
            <ns3:atemp>18.0</ns3:atemp>
          </ns3:TrackPointExtension>
        </extensions>
      </trkpt>
      <trkpt lat="42.51661266200244426727294921875" lon="19.94700849987566471099853515625">
        <ele>1875.4000244140625</ele>
        <time>2026-06-17T09:42:28.000Z</time>
        <extensions>
          <ns3:TrackPointExtension>
            <ns3:atemp>18.0</ns3:atemp>
          </ns3:TrackPointExtension>
        </extensions>
      </trkpt>
      <trkpt lat="42.51661266200244426727294921875" lon="19.94700849987566471099853515625">
        <ele>1875.4000244140625</ele>
        <time>2026-06-17T09:42:29.000Z</time>
        <extensions>
          <ns3:TrackPointExtension>
            <ns3:atemp>18.0</ns3:atemp>
          </ns3:TrackPointExtension>
        </extensions>
      </trkpt>
      <trkpt lat="42.51661266200244426727294921875" lon="19.94700849987566471099853515625">
        <ele>1875.4000244140625</ele>
        <time>2026-06-17T09:42:30.000Z</time>
        <extensions>
          <ns3:TrackPointExtension>
            <ns3:atemp>18.0</ns3:atemp>
          </ns3:TrackPointExtension>
        </extensions>
      </trkpt>
      <trkpt lat="42.51661266200244426727294921875" lon="19.94700849987566471099853515625">
        <ele>1875.4000244140625</ele>
        <time>2026-06-17T09:42:31.000Z</time>
        <extensions>
          <ns3:TrackPointExtension>
            <ns3:atemp>18.0</ns3:atemp>
          </ns3:TrackPointExtension>
        </extensions>
      </trkpt>
      <trkpt lat="42.51661266200244426727294921875" lon="19.94700849987566471099853515625">
        <ele>1875.4000244140625</ele>
        <time>2026-06-17T09:42:32.000Z</time>
        <extensions>
          <ns3:TrackPointExtension>
            <ns3:atemp>18.0</ns3:atemp>
          </ns3:TrackPointExtension>
        </extensions>
      </trkpt>
      <trkpt lat="42.51661266200244426727294921875" lon="19.94700849987566471099853515625">
        <ele>1875.4000244140625</ele>
        <time>2026-06-17T09:42:33.000Z</time>
        <extensions>
          <ns3:TrackPointExtension>
            <ns3:atemp>18.0</ns3:atemp>
          </ns3:TrackPointExtension>
        </extensions>
      </trkpt>
      <trkpt lat="42.51661266200244426727294921875" lon="19.94700849987566471099853515625">
        <ele>1875.4000244140625</ele>
        <time>2026-06-17T09:42:34.000Z</time>
        <extensions>
          <ns3:TrackPointExtension>
            <ns3:atemp>18.0</ns3:atemp>
          </ns3:TrackPointExtension>
        </extensions>
      </trkpt>
      <trkpt lat="42.51661266200244426727294921875" lon="19.94700849987566471099853515625">
        <ele>1875.4000244140625</ele>
        <time>2026-06-17T09:42:35.000Z</time>
        <extensions>
          <ns3:TrackPointExtension>
            <ns3:atemp>18.0</ns3:atemp>
          </ns3:TrackPointExtension>
        </extensions>
      </trkpt>
      <trkpt lat="42.51661266200244426727294921875" lon="19.94700849987566471099853515625">
        <ele>1875.199951171875</ele>
        <time>2026-06-17T09:42:36.000Z</time>
        <extensions>
          <ns3:TrackPointExtension>
            <ns3:atemp>18.0</ns3:atemp>
          </ns3:TrackPointExtension>
        </extensions>
      </trkpt>
      <trkpt lat="42.51661266200244426727294921875" lon="19.94700849987566471099853515625">
        <ele>1875.199951171875</ele>
        <time>2026-06-17T09:42:37.000Z</time>
        <extensions>
          <ns3:TrackPointExtension>
            <ns3:atemp>18.0</ns3:atemp>
          </ns3:TrackPointExtension>
        </extensions>
      </trkpt>
      <trkpt lat="42.51661266200244426727294921875" lon="19.94700849987566471099853515625">
        <ele>1875.199951171875</ele>
        <time>2026-06-17T09:42:38.000Z</time>
        <extensions>
          <ns3:TrackPointExtension>
            <ns3:atemp>18.0</ns3:atemp>
          </ns3:TrackPointExtension>
        </extensions>
      </trkpt>
      <trkpt lat="42.51661266200244426727294921875" lon="19.94700849987566471099853515625">
        <ele>1875.199951171875</ele>
        <time>2026-06-17T09:42:39.000Z</time>
        <extensions>
          <ns3:TrackPointExtension>
            <ns3:atemp>18.0</ns3:atemp>
          </ns3:TrackPointExtension>
        </extensions>
      </trkpt>
      <trkpt lat="42.51661266200244426727294921875" lon="19.94700849987566471099853515625">
        <ele>1875.199951171875</ele>
        <time>2026-06-17T09:42:40.000Z</time>
        <extensions>
          <ns3:TrackPointExtension>
            <ns3:atemp>18.0</ns3:atemp>
          </ns3:TrackPointExtension>
        </extensions>
      </trkpt>
      <trkpt lat="42.51661266200244426727294921875" lon="19.94700849987566471099853515625">
        <ele>1875.199951171875</ele>
        <time>2026-06-17T09:42:41.000Z</time>
        <extensions>
          <ns3:TrackPointExtension>
            <ns3:atemp>18.0</ns3:atemp>
          </ns3:TrackPointExtension>
        </extensions>
      </trkpt>
      <trkpt lat="42.51661266200244426727294921875" lon="19.94700849987566471099853515625">
        <ele>1875.199951171875</ele>
        <time>2026-06-17T09:42:42.000Z</time>
        <extensions>
          <ns3:TrackPointExtension>
            <ns3:atemp>18.0</ns3:atemp>
          </ns3:TrackPointExtension>
        </extensions>
      </trkpt>
      <trkpt lat="42.51661266200244426727294921875" lon="19.94700849987566471099853515625">
        <ele>1875.199951171875</ele>
        <time>2026-06-17T09:42:43.000Z</time>
        <extensions>
          <ns3:TrackPointExtension>
            <ns3:atemp>18.0</ns3:atemp>
          </ns3:TrackPointExtension>
        </extensions>
      </trkpt>
      <trkpt lat="42.51661266200244426727294921875" lon="19.94700849987566471099853515625">
        <ele>1875.199951171875</ele>
        <time>2026-06-17T09:42:44.000Z</time>
        <extensions>
          <ns3:TrackPointExtension>
            <ns3:atemp>18.0</ns3:atemp>
          </ns3:TrackPointExtension>
        </extensions>
      </trkpt>
      <trkpt lat="42.51661266200244426727294921875" lon="19.94700849987566471099853515625">
        <ele>1875.199951171875</ele>
        <time>2026-06-17T09:42:45.000Z</time>
        <extensions>
          <ns3:TrackPointExtension>
            <ns3:atemp>18.0</ns3:atemp>
          </ns3:TrackPointExtension>
        </extensions>
      </trkpt>
      <trkpt lat="42.51661266200244426727294921875" lon="19.94700849987566471099853515625">
        <ele>1875.199951171875</ele>
        <time>2026-06-17T09:42:46.000Z</time>
        <extensions>
          <ns3:TrackPointExtension>
            <ns3:atemp>18.0</ns3:atemp>
          </ns3:TrackPointExtension>
        </extensions>
      </trkpt>
      <trkpt lat="42.51661266200244426727294921875" lon="19.94700849987566471099853515625">
        <ele>1875</ele>
        <time>2026-06-17T09:42:47.000Z</time>
        <extensions>
          <ns3:TrackPointExtension>
            <ns3:atemp>18.0</ns3:atemp>
          </ns3:TrackPointExtension>
        </extensions>
      </trkpt>
      <trkpt lat="42.51661266200244426727294921875" lon="19.94700849987566471099853515625">
        <ele>1875</ele>
        <time>2026-06-17T09:42:48.000Z</time>
        <extensions>
          <ns3:TrackPointExtension>
            <ns3:atemp>18.0</ns3:atemp>
          </ns3:TrackPointExtension>
        </extensions>
      </trkpt>
      <trkpt lat="42.51661266200244426727294921875" lon="19.94700849987566471099853515625">
        <ele>1875</ele>
        <time>2026-06-17T09:42:49.000Z</time>
        <extensions>
          <ns3:TrackPointExtension>
            <ns3:atemp>18.0</ns3:atemp>
          </ns3:TrackPointExtension>
        </extensions>
      </trkpt>
      <trkpt lat="42.51661266200244426727294921875" lon="19.94700849987566471099853515625">
        <ele>1875</ele>
        <time>2026-06-17T09:42:50.000Z</time>
        <extensions>
          <ns3:TrackPointExtension>
            <ns3:atemp>18.0</ns3:atemp>
          </ns3:TrackPointExtension>
        </extensions>
      </trkpt>
      <trkpt lat="42.51661266200244426727294921875" lon="19.94700849987566471099853515625">
        <ele>1875</ele>
        <time>2026-06-17T09:42:51.000Z</time>
        <extensions>
          <ns3:TrackPointExtension>
            <ns3:atemp>18.0</ns3:atemp>
          </ns3:TrackPointExtension>
        </extensions>
      </trkpt>
      <trkpt lat="42.51661266200244426727294921875" lon="19.94700849987566471099853515625">
        <ele>1875</ele>
        <time>2026-06-17T09:42:52.000Z</time>
        <extensions>
          <ns3:TrackPointExtension>
            <ns3:atemp>18.0</ns3:atemp>
          </ns3:TrackPointExtension>
        </extensions>
      </trkpt>
      <trkpt lat="42.51661266200244426727294921875" lon="19.94700849987566471099853515625">
        <ele>1875</ele>
        <time>2026-06-17T09:42:53.000Z</time>
        <extensions>
          <ns3:TrackPointExtension>
            <ns3:atemp>18.0</ns3:atemp>
          </ns3:TrackPointExtension>
        </extensions>
      </trkpt>
      <trkpt lat="42.51661266200244426727294921875" lon="19.94700849987566471099853515625">
        <ele>1875</ele>
        <time>2026-06-17T09:42:54.000Z</time>
        <extensions>
          <ns3:TrackPointExtension>
            <ns3:atemp>18.0</ns3:atemp>
          </ns3:TrackPointExtension>
        </extensions>
      </trkpt>
      <trkpt lat="42.51661266200244426727294921875" lon="19.94700849987566471099853515625">
        <ele>1875</ele>
        <time>2026-06-17T09:42:55.000Z</time>
        <extensions>
          <ns3:TrackPointExtension>
            <ns3:atemp>18.0</ns3:atemp>
          </ns3:TrackPointExtension>
        </extensions>
      </trkpt>
      <trkpt lat="42.51661266200244426727294921875" lon="19.94700849987566471099853515625">
        <ele>1875</ele>
        <time>2026-06-17T09:42:56.000Z</time>
        <extensions>
          <ns3:TrackPointExtension>
            <ns3:atemp>18.0</ns3:atemp>
          </ns3:TrackPointExtension>
        </extensions>
      </trkpt>
      <trkpt lat="42.51661266200244426727294921875" lon="19.94700849987566471099853515625">
        <ele>1875</ele>
        <time>2026-06-17T09:42:57.000Z</time>
        <extensions>
          <ns3:TrackPointExtension>
            <ns3:atemp>18.0</ns3:atemp>
          </ns3:TrackPointExtension>
        </extensions>
      </trkpt>
      <trkpt lat="42.51661266200244426727294921875" lon="19.94700849987566471099853515625">
        <ele>1875</ele>
        <time>2026-06-17T09:42:58.000Z</time>
        <extensions>
          <ns3:TrackPointExtension>
            <ns3:atemp>18.0</ns3:atemp>
          </ns3:TrackPointExtension>
        </extensions>
      </trkpt>
      <trkpt lat="42.51661266200244426727294921875" lon="19.94700849987566471099853515625">
        <ele>1875</ele>
        <time>2026-06-17T09:42:59.000Z</time>
        <extensions>
          <ns3:TrackPointExtension>
            <ns3:atemp>18.0</ns3:atemp>
          </ns3:TrackPointExtension>
        </extensions>
      </trkpt>
      <trkpt lat="42.51661266200244426727294921875" lon="19.94700849987566471099853515625">
        <ele>1875</ele>
        <time>2026-06-17T09:43:00.000Z</time>
        <extensions>
          <ns3:TrackPointExtension>
            <ns3:atemp>18.0</ns3:atemp>
          </ns3:TrackPointExtension>
        </extensions>
      </trkpt>
      <trkpt lat="42.51661266200244426727294921875" lon="19.94700849987566471099853515625">
        <ele>1875</ele>
        <time>2026-06-17T09:43:01.000Z</time>
        <extensions>
          <ns3:TrackPointExtension>
            <ns3:atemp>18.0</ns3:atemp>
          </ns3:TrackPointExtension>
        </extensions>
      </trkpt>
      <trkpt lat="42.51661266200244426727294921875" lon="19.94700849987566471099853515625">
        <ele>1875</ele>
        <time>2026-06-17T09:43:02.000Z</time>
        <extensions>
          <ns3:TrackPointExtension>
            <ns3:atemp>18.0</ns3:atemp>
          </ns3:TrackPointExtension>
        </extensions>
      </trkpt>
      <trkpt lat="42.51661266200244426727294921875" lon="19.94700849987566471099853515625">
        <ele>1875</ele>
        <time>2026-06-17T09:43:03.000Z</time>
        <extensions>
          <ns3:TrackPointExtension>
            <ns3:atemp>18.0</ns3:atemp>
          </ns3:TrackPointExtension>
        </extensions>
      </trkpt>
      <trkpt lat="42.51661266200244426727294921875" lon="19.94700849987566471099853515625">
        <ele>1875</ele>
        <time>2026-06-17T09:43:04.000Z</time>
        <extensions>
          <ns3:TrackPointExtension>
            <ns3:atemp>18.0</ns3:atemp>
          </ns3:TrackPointExtension>
        </extensions>
      </trkpt>
      <trkpt lat="42.51661266200244426727294921875" lon="19.94700849987566471099853515625">
        <ele>1875</ele>
        <time>2026-06-17T09:43:05.000Z</time>
        <extensions>
          <ns3:TrackPointExtension>
            <ns3:atemp>18.0</ns3:atemp>
          </ns3:TrackPointExtension>
        </extensions>
      </trkpt>
      <trkpt lat="42.51661266200244426727294921875" lon="19.94700849987566471099853515625">
        <ele>1875</ele>
        <time>2026-06-17T09:43:06.000Z</time>
        <extensions>
          <ns3:TrackPointExtension>
            <ns3:atemp>18.0</ns3:atemp>
          </ns3:TrackPointExtension>
        </extensions>
      </trkpt>
      <trkpt lat="42.51661266200244426727294921875" lon="19.94700849987566471099853515625">
        <ele>1875</ele>
        <time>2026-06-17T09:43:07.000Z</time>
        <extensions>
          <ns3:TrackPointExtension>
            <ns3:atemp>18.0</ns3:atemp>
          </ns3:TrackPointExtension>
        </extensions>
      </trkpt>
      <trkpt lat="42.51661266200244426727294921875" lon="19.94700849987566471099853515625">
        <ele>1875</ele>
        <time>2026-06-17T09:43:08.000Z</time>
        <extensions>
          <ns3:TrackPointExtension>
            <ns3:atemp>18.0</ns3:atemp>
          </ns3:TrackPointExtension>
        </extensions>
      </trkpt>
      <trkpt lat="42.51661266200244426727294921875" lon="19.94700849987566471099853515625">
        <ele>1875</ele>
        <time>2026-06-17T09:43:09.000Z</time>
        <extensions>
          <ns3:TrackPointExtension>
            <ns3:atemp>18.0</ns3:atemp>
          </ns3:TrackPointExtension>
        </extensions>
      </trkpt>
      <trkpt lat="42.51661266200244426727294921875" lon="19.94700849987566471099853515625">
        <ele>1875</ele>
        <time>2026-06-17T09:43:10.000Z</time>
        <extensions>
          <ns3:TrackPointExtension>
            <ns3:atemp>18.0</ns3:atemp>
          </ns3:TrackPointExtension>
        </extensions>
      </trkpt>
      <trkpt lat="42.51661266200244426727294921875" lon="19.94700849987566471099853515625">
        <ele>1875</ele>
        <time>2026-06-17T09:43:11.000Z</time>
        <extensions>
          <ns3:TrackPointExtension>
            <ns3:atemp>18.0</ns3:atemp>
          </ns3:TrackPointExtension>
        </extensions>
      </trkpt>
      <trkpt lat="42.51661266200244426727294921875" lon="19.94700849987566471099853515625">
        <ele>1875</ele>
        <time>2026-06-17T09:43:12.000Z</time>
        <extensions>
          <ns3:TrackPointExtension>
            <ns3:atemp>18.0</ns3:atemp>
          </ns3:TrackPointExtension>
        </extensions>
      </trkpt>
      <trkpt lat="42.51661266200244426727294921875" lon="19.94700849987566471099853515625">
        <ele>1875</ele>
        <time>2026-06-17T09:43:13.000Z</time>
        <extensions>
          <ns3:TrackPointExtension>
            <ns3:atemp>18.0</ns3:atemp>
          </ns3:TrackPointExtension>
        </extensions>
      </trkpt>
      <trkpt lat="42.51661266200244426727294921875" lon="19.94700849987566471099853515625">
        <ele>1875</ele>
        <time>2026-06-17T09:43:14.000Z</time>
        <extensions>
          <ns3:TrackPointExtension>
            <ns3:atemp>18.0</ns3:atemp>
          </ns3:TrackPointExtension>
        </extensions>
      </trkpt>
      <trkpt lat="42.51661266200244426727294921875" lon="19.94700849987566471099853515625">
        <ele>1875</ele>
        <time>2026-06-17T09:43:15.000Z</time>
        <extensions>
          <ns3:TrackPointExtension>
            <ns3:atemp>18.0</ns3:atemp>
          </ns3:TrackPointExtension>
        </extensions>
      </trkpt>
      <trkpt lat="42.51661266200244426727294921875" lon="19.94700849987566471099853515625">
        <ele>1875</ele>
        <time>2026-06-17T09:43:16.000Z</time>
        <extensions>
          <ns3:TrackPointExtension>
            <ns3:atemp>18.0</ns3:atemp>
          </ns3:TrackPointExtension>
        </extensions>
      </trkpt>
      <trkpt lat="42.51661266200244426727294921875" lon="19.94700849987566471099853515625">
        <ele>1875</ele>
        <time>2026-06-17T09:43:17.000Z</time>
        <extensions>
          <ns3:TrackPointExtension>
            <ns3:atemp>18.0</ns3:atemp>
          </ns3:TrackPointExtension>
        </extensions>
      </trkpt>
      <trkpt lat="42.51661266200244426727294921875" lon="19.94700849987566471099853515625">
        <ele>1875</ele>
        <time>2026-06-17T09:43:18.000Z</time>
        <extensions>
          <ns3:TrackPointExtension>
            <ns3:atemp>18.0</ns3:atemp>
          </ns3:TrackPointExtension>
        </extensions>
      </trkpt>
      <trkpt lat="42.51661266200244426727294921875" lon="19.94700849987566471099853515625">
        <ele>1875</ele>
        <time>2026-06-17T09:43:19.000Z</time>
        <extensions>
          <ns3:TrackPointExtension>
            <ns3:atemp>18.0</ns3:atemp>
          </ns3:TrackPointExtension>
        </extensions>
      </trkpt>
      <trkpt lat="42.51661266200244426727294921875" lon="19.94700849987566471099853515625">
        <ele>1875</ele>
        <time>2026-06-17T09:43:20.000Z</time>
        <extensions>
          <ns3:TrackPointExtension>
            <ns3:atemp>18.0</ns3:atemp>
          </ns3:TrackPointExtension>
        </extensions>
      </trkpt>
      <trkpt lat="42.51661266200244426727294921875" lon="19.94700849987566471099853515625">
        <ele>1875</ele>
        <time>2026-06-17T09:43:21.000Z</time>
        <extensions>
          <ns3:TrackPointExtension>
            <ns3:atemp>18.0</ns3:atemp>
          </ns3:TrackPointExtension>
        </extensions>
      </trkpt>
      <trkpt lat="42.51661266200244426727294921875" lon="19.94700849987566471099853515625">
        <ele>1875</ele>
        <time>2026-06-17T09:43:22.000Z</time>
        <extensions>
          <ns3:TrackPointExtension>
            <ns3:atemp>18.0</ns3:atemp>
          </ns3:TrackPointExtension>
        </extensions>
      </trkpt>
      <trkpt lat="42.51661266200244426727294921875" lon="19.94700849987566471099853515625">
        <ele>1875</ele>
        <time>2026-06-17T09:43:23.000Z</time>
        <extensions>
          <ns3:TrackPointExtension>
            <ns3:atemp>18.0</ns3:atemp>
          </ns3:TrackPointExtension>
        </extensions>
      </trkpt>
      <trkpt lat="42.51661266200244426727294921875" lon="19.94700849987566471099853515625">
        <ele>1875</ele>
        <time>2026-06-17T09:43:24.000Z</time>
        <extensions>
          <ns3:TrackPointExtension>
            <ns3:atemp>18.0</ns3:atemp>
          </ns3:TrackPointExtension>
        </extensions>
      </trkpt>
      <trkpt lat="42.51661266200244426727294921875" lon="19.94700849987566471099853515625">
        <ele>1875</ele>
        <time>2026-06-17T09:43:25.000Z</time>
        <extensions>
          <ns3:TrackPointExtension>
            <ns3:atemp>18.0</ns3:atemp>
          </ns3:TrackPointExtension>
        </extensions>
      </trkpt>
      <trkpt lat="42.51661266200244426727294921875" lon="19.94700849987566471099853515625">
        <ele>1875</ele>
        <time>2026-06-17T09:43:26.000Z</time>
        <extensions>
          <ns3:TrackPointExtension>
            <ns3:atemp>18.0</ns3:atemp>
          </ns3:TrackPointExtension>
        </extensions>
      </trkpt>
      <trkpt lat="42.51661266200244426727294921875" lon="19.94700849987566471099853515625">
        <ele>1875</ele>
        <time>2026-06-17T09:43:27.000Z</time>
        <extensions>
          <ns3:TrackPointExtension>
            <ns3:atemp>18.0</ns3:atemp>
          </ns3:TrackPointExtension>
        </extensions>
      </trkpt>
      <trkpt lat="42.51661266200244426727294921875" lon="19.94700849987566471099853515625">
        <ele>1875</ele>
        <time>2026-06-17T09:43:28.000Z</time>
        <extensions>
          <ns3:TrackPointExtension>
            <ns3:atemp>18.0</ns3:atemp>
          </ns3:TrackPointExtension>
        </extensions>
      </trkpt>
      <trkpt lat="42.51661266200244426727294921875" lon="19.94700849987566471099853515625">
        <ele>1875</ele>
        <time>2026-06-17T09:43:29.000Z</time>
        <extensions>
          <ns3:TrackPointExtension>
            <ns3:atemp>18.0</ns3:atemp>
          </ns3:TrackPointExtension>
        </extensions>
      </trkpt>
      <trkpt lat="42.51661266200244426727294921875" lon="19.94700849987566471099853515625">
        <ele>1875</ele>
        <time>2026-06-17T09:43:30.000Z</time>
        <extensions>
          <ns3:TrackPointExtension>
            <ns3:atemp>18.0</ns3:atemp>
          </ns3:TrackPointExtension>
        </extensions>
      </trkpt>
      <trkpt lat="42.51661266200244426727294921875" lon="19.94700849987566471099853515625">
        <ele>1875</ele>
        <time>2026-06-17T09:43:31.000Z</time>
        <extensions>
          <ns3:TrackPointExtension>
            <ns3:atemp>18.0</ns3:atemp>
          </ns3:TrackPointExtension>
        </extensions>
      </trkpt>
      <trkpt lat="42.51661266200244426727294921875" lon="19.94700849987566471099853515625">
        <ele>1875</ele>
        <time>2026-06-17T09:43:32.000Z</time>
        <extensions>
          <ns3:TrackPointExtension>
            <ns3:atemp>18.0</ns3:atemp>
          </ns3:TrackPointExtension>
        </extensions>
      </trkpt>
      <trkpt lat="42.51661266200244426727294921875" lon="19.94700849987566471099853515625">
        <ele>1875</ele>
        <time>2026-06-17T09:43:33.000Z</time>
        <extensions>
          <ns3:TrackPointExtension>
            <ns3:atemp>18.0</ns3:atemp>
          </ns3:TrackPointExtension>
        </extensions>
      </trkpt>
      <trkpt lat="42.51661266200244426727294921875" lon="19.94700849987566471099853515625">
        <ele>1875</ele>
        <time>2026-06-17T09:43:34.000Z</time>
        <extensions>
          <ns3:TrackPointExtension>
            <ns3:atemp>18.0</ns3:atemp>
          </ns3:TrackPointExtension>
        </extensions>
      </trkpt>
      <trkpt lat="42.51661266200244426727294921875" lon="19.94700849987566471099853515625">
        <ele>1875</ele>
        <time>2026-06-17T09:43:35.000Z</time>
        <extensions>
          <ns3:TrackPointExtension>
            <ns3:atemp>18.0</ns3:atemp>
          </ns3:TrackPointExtension>
        </extensions>
      </trkpt>
      <trkpt lat="42.51661266200244426727294921875" lon="19.94700849987566471099853515625">
        <ele>1875</ele>
        <time>2026-06-17T09:43:36.000Z</time>
        <extensions>
          <ns3:TrackPointExtension>
            <ns3:atemp>18.0</ns3:atemp>
          </ns3:TrackPointExtension>
        </extensions>
      </trkpt>
      <trkpt lat="42.51661266200244426727294921875" lon="19.94700849987566471099853515625">
        <ele>1875</ele>
        <time>2026-06-17T09:43:37.000Z</time>
        <extensions>
          <ns3:TrackPointExtension>
            <ns3:atemp>18.0</ns3:atemp>
          </ns3:TrackPointExtension>
        </extensions>
      </trkpt>
      <trkpt lat="42.51661266200244426727294921875" lon="19.94700849987566471099853515625">
        <ele>1875</ele>
        <time>2026-06-17T09:43:38.000Z</time>
        <extensions>
          <ns3:TrackPointExtension>
            <ns3:atemp>18.0</ns3:atemp>
          </ns3:TrackPointExtension>
        </extensions>
      </trkpt>
      <trkpt lat="42.51661266200244426727294921875" lon="19.94700849987566471099853515625">
        <ele>1875</ele>
        <time>2026-06-17T09:43:39.000Z</time>
        <extensions>
          <ns3:TrackPointExtension>
            <ns3:atemp>18.0</ns3:atemp>
          </ns3:TrackPointExtension>
        </extensions>
      </trkpt>
      <trkpt lat="42.51661266200244426727294921875" lon="19.94700849987566471099853515625">
        <ele>1875</ele>
        <time>2026-06-17T09:43:40.000Z</time>
        <extensions>
          <ns3:TrackPointExtension>
            <ns3:atemp>18.0</ns3:atemp>
          </ns3:TrackPointExtension>
        </extensions>
      </trkpt>
      <trkpt lat="42.51661266200244426727294921875" lon="19.94700849987566471099853515625">
        <ele>1875</ele>
        <time>2026-06-17T09:43:41.000Z</time>
        <extensions>
          <ns3:TrackPointExtension>
            <ns3:atemp>18.0</ns3:atemp>
          </ns3:TrackPointExtension>
        </extensions>
      </trkpt>
      <trkpt lat="42.51661266200244426727294921875" lon="19.94700849987566471099853515625">
        <ele>1875</ele>
        <time>2026-06-17T09:43:42.000Z</time>
        <extensions>
          <ns3:TrackPointExtension>
            <ns3:atemp>18.0</ns3:atemp>
          </ns3:TrackPointExtension>
        </extensions>
      </trkpt>
      <trkpt lat="42.51661266200244426727294921875" lon="19.94700849987566471099853515625">
        <ele>1875</ele>
        <time>2026-06-17T09:43:43.000Z</time>
        <extensions>
          <ns3:TrackPointExtension>
            <ns3:atemp>18.0</ns3:atemp>
          </ns3:TrackPointExtension>
        </extensions>
      </trkpt>
      <trkpt lat="42.51661266200244426727294921875" lon="19.94700849987566471099853515625">
        <ele>1875</ele>
        <time>2026-06-17T09:43:44.000Z</time>
        <extensions>
          <ns3:TrackPointExtension>
            <ns3:atemp>18.0</ns3:atemp>
          </ns3:TrackPointExtension>
        </extensions>
      </trkpt>
      <trkpt lat="42.51661266200244426727294921875" lon="19.94700849987566471099853515625">
        <ele>1875</ele>
        <time>2026-06-17T09:43:45.000Z</time>
        <extensions>
          <ns3:TrackPointExtension>
            <ns3:atemp>18.0</ns3:atemp>
          </ns3:TrackPointExtension>
        </extensions>
      </trkpt>
      <trkpt lat="42.51661266200244426727294921875" lon="19.94700849987566471099853515625">
        <ele>1875</ele>
        <time>2026-06-17T09:43:46.000Z</time>
        <extensions>
          <ns3:TrackPointExtension>
            <ns3:atemp>18.0</ns3:atemp>
          </ns3:TrackPointExtension>
        </extensions>
      </trkpt>
      <trkpt lat="42.51661266200244426727294921875" lon="19.94700849987566471099853515625">
        <ele>1875</ele>
        <time>2026-06-17T09:43:47.000Z</time>
        <extensions>
          <ns3:TrackPointExtension>
            <ns3:atemp>18.0</ns3:atemp>
          </ns3:TrackPointExtension>
        </extensions>
      </trkpt>
      <trkpt lat="42.51661266200244426727294921875" lon="19.94700849987566471099853515625">
        <ele>1875</ele>
        <time>2026-06-17T09:43:48.000Z</time>
        <extensions>
          <ns3:TrackPointExtension>
            <ns3:atemp>18.0</ns3:atemp>
          </ns3:TrackPointExtension>
        </extensions>
      </trkpt>
      <trkpt lat="42.51661266200244426727294921875" lon="19.94700849987566471099853515625">
        <ele>1875</ele>
        <time>2026-06-17T09:43:49.000Z</time>
        <extensions>
          <ns3:TrackPointExtension>
            <ns3:atemp>18.0</ns3:atemp>
          </ns3:TrackPointExtension>
        </extensions>
      </trkpt>
      <trkpt lat="42.51661266200244426727294921875" lon="19.94700849987566471099853515625">
        <ele>1875</ele>
        <time>2026-06-17T09:43:50.000Z</time>
        <extensions>
          <ns3:TrackPointExtension>
            <ns3:atemp>18.0</ns3:atemp>
          </ns3:TrackPointExtension>
        </extensions>
      </trkpt>
      <trkpt lat="42.51661266200244426727294921875" lon="19.94700849987566471099853515625">
        <ele>1875</ele>
        <time>2026-06-17T09:43:51.000Z</time>
        <extensions>
          <ns3:TrackPointExtension>
            <ns3:atemp>18.0</ns3:atemp>
          </ns3:TrackPointExtension>
        </extensions>
      </trkpt>
      <trkpt lat="42.51661266200244426727294921875" lon="19.94700849987566471099853515625">
        <ele>1875</ele>
        <time>2026-06-17T09:43:52.000Z</time>
        <extensions>
          <ns3:TrackPointExtension>
            <ns3:atemp>18.0</ns3:atemp>
          </ns3:TrackPointExtension>
        </extensions>
      </trkpt>
      <trkpt lat="42.51661266200244426727294921875" lon="19.94700849987566471099853515625">
        <ele>1875</ele>
        <time>2026-06-17T09:43:53.000Z</time>
        <extensions>
          <ns3:TrackPointExtension>
            <ns3:atemp>18.0</ns3:atemp>
          </ns3:TrackPointExtension>
        </extensions>
      </trkpt>
      <trkpt lat="42.51661266200244426727294921875" lon="19.94700849987566471099853515625">
        <ele>1875</ele>
        <time>2026-06-17T09:43:54.000Z</time>
        <extensions>
          <ns3:TrackPointExtension>
            <ns3:atemp>18.0</ns3:atemp>
          </ns3:TrackPointExtension>
        </extensions>
      </trkpt>
      <trkpt lat="42.51661266200244426727294921875" lon="19.94700849987566471099853515625">
        <ele>1875</ele>
        <time>2026-06-17T09:43:55.000Z</time>
        <extensions>
          <ns3:TrackPointExtension>
            <ns3:atemp>18.0</ns3:atemp>
          </ns3:TrackPointExtension>
        </extensions>
      </trkpt>
      <trkpt lat="42.51661266200244426727294921875" lon="19.94700849987566471099853515625">
        <ele>1875</ele>
        <time>2026-06-17T09:43:56.000Z</time>
        <extensions>
          <ns3:TrackPointExtension>
            <ns3:atemp>18.0</ns3:atemp>
          </ns3:TrackPointExtension>
        </extensions>
      </trkpt>
      <trkpt lat="42.51661266200244426727294921875" lon="19.94700849987566471099853515625">
        <ele>1875</ele>
        <time>2026-06-17T09:43:57.000Z</time>
        <extensions>
          <ns3:TrackPointExtension>
            <ns3:atemp>18.0</ns3:atemp>
          </ns3:TrackPointExtension>
        </extensions>
      </trkpt>
      <trkpt lat="42.51661266200244426727294921875" lon="19.94700849987566471099853515625">
        <ele>1875</ele>
        <time>2026-06-17T09:43:58.000Z</time>
        <extensions>
          <ns3:TrackPointExtension>
            <ns3:atemp>18.0</ns3:atemp>
          </ns3:TrackPointExtension>
        </extensions>
      </trkpt>
      <trkpt lat="42.51661266200244426727294921875" lon="19.94700849987566471099853515625">
        <ele>1875</ele>
        <time>2026-06-17T09:43:59.000Z</time>
        <extensions>
          <ns3:TrackPointExtension>
            <ns3:atemp>18.0</ns3:atemp>
          </ns3:TrackPointExtension>
        </extensions>
      </trkpt>
      <trkpt lat="42.51661266200244426727294921875" lon="19.94700849987566471099853515625">
        <ele>1875</ele>
        <time>2026-06-17T09:44:00.000Z</time>
        <extensions>
          <ns3:TrackPointExtension>
            <ns3:atemp>18.0</ns3:atemp>
          </ns3:TrackPointExtension>
        </extensions>
      </trkpt>
      <trkpt lat="42.51661266200244426727294921875" lon="19.94700849987566471099853515625">
        <ele>1875</ele>
        <time>2026-06-17T09:44:01.000Z</time>
        <extensions>
          <ns3:TrackPointExtension>
            <ns3:atemp>18.0</ns3:atemp>
          </ns3:TrackPointExtension>
        </extensions>
      </trkpt>
      <trkpt lat="42.51661266200244426727294921875" lon="19.94700849987566471099853515625">
        <ele>1875</ele>
        <time>2026-06-17T09:44:02.000Z</time>
        <extensions>
          <ns3:TrackPointExtension>
            <ns3:atemp>18.0</ns3:atemp>
          </ns3:TrackPointExtension>
        </extensions>
      </trkpt>
      <trkpt lat="42.51661266200244426727294921875" lon="19.94700849987566471099853515625">
        <ele>1875</ele>
        <time>2026-06-17T09:44:03.000Z</time>
        <extensions>
          <ns3:TrackPointExtension>
            <ns3:atemp>18.0</ns3:atemp>
          </ns3:TrackPointExtension>
        </extensions>
      </trkpt>
      <trkpt lat="42.51661266200244426727294921875" lon="19.94700849987566471099853515625">
        <ele>1875</ele>
        <time>2026-06-17T09:44:04.000Z</time>
        <extensions>
          <ns3:TrackPointExtension>
            <ns3:atemp>18.0</ns3:atemp>
          </ns3:TrackPointExtension>
        </extensions>
      </trkpt>
      <trkpt lat="42.51661266200244426727294921875" lon="19.94700849987566471099853515625">
        <ele>1875</ele>
        <time>2026-06-17T09:44:05.000Z</time>
        <extensions>
          <ns3:TrackPointExtension>
            <ns3:atemp>18.0</ns3:atemp>
          </ns3:TrackPointExtension>
        </extensions>
      </trkpt>
      <trkpt lat="42.51661266200244426727294921875" lon="19.94700849987566471099853515625">
        <ele>1875</ele>
        <time>2026-06-17T09:44:06.000Z</time>
        <extensions>
          <ns3:TrackPointExtension>
            <ns3:atemp>18.0</ns3:atemp>
          </ns3:TrackPointExtension>
        </extensions>
      </trkpt>
      <trkpt lat="42.51661266200244426727294921875" lon="19.94700849987566471099853515625">
        <ele>1875</ele>
        <time>2026-06-17T09:44:07.000Z</time>
        <extensions>
          <ns3:TrackPointExtension>
            <ns3:atemp>18.0</ns3:atemp>
          </ns3:TrackPointExtension>
        </extensions>
      </trkpt>
      <trkpt lat="42.51661266200244426727294921875" lon="19.94700849987566471099853515625">
        <ele>1875</ele>
        <time>2026-06-17T09:44:08.000Z</time>
        <extensions>
          <ns3:TrackPointExtension>
            <ns3:atemp>18.0</ns3:atemp>
          </ns3:TrackPointExtension>
        </extensions>
      </trkpt>
      <trkpt lat="42.51661266200244426727294921875" lon="19.94700849987566471099853515625">
        <ele>1875</ele>
        <time>2026-06-17T09:44:09.000Z</time>
        <extensions>
          <ns3:TrackPointExtension>
            <ns3:atemp>18.0</ns3:atemp>
          </ns3:TrackPointExtension>
        </extensions>
      </trkpt>
      <trkpt lat="42.51661266200244426727294921875" lon="19.94700849987566471099853515625">
        <ele>1875</ele>
        <time>2026-06-17T09:44:10.000Z</time>
        <extensions>
          <ns3:TrackPointExtension>
            <ns3:atemp>18.0</ns3:atemp>
          </ns3:TrackPointExtension>
        </extensions>
      </trkpt>
      <trkpt lat="42.51661266200244426727294921875" lon="19.94700849987566471099853515625">
        <ele>1875</ele>
        <time>2026-06-17T09:44:11.000Z</time>
        <extensions>
          <ns3:TrackPointExtension>
            <ns3:atemp>18.0</ns3:atemp>
          </ns3:TrackPointExtension>
        </extensions>
      </trkpt>
      <trkpt lat="42.51661266200244426727294921875" lon="19.94700849987566471099853515625">
        <ele>1875</ele>
        <time>2026-06-17T09:44:12.000Z</time>
        <extensions>
          <ns3:TrackPointExtension>
            <ns3:atemp>18.0</ns3:atemp>
          </ns3:TrackPointExtension>
        </extensions>
      </trkpt>
      <trkpt lat="42.51661266200244426727294921875" lon="19.94700849987566471099853515625">
        <ele>1875</ele>
        <time>2026-06-17T09:44:13.000Z</time>
        <extensions>
          <ns3:TrackPointExtension>
            <ns3:atemp>18.0</ns3:atemp>
          </ns3:TrackPointExtension>
        </extensions>
      </trkpt>
      <trkpt lat="42.51661266200244426727294921875" lon="19.94700849987566471099853515625">
        <ele>1875</ele>
        <time>2026-06-17T09:44:14.000Z</time>
        <extensions>
          <ns3:TrackPointExtension>
            <ns3:atemp>18.0</ns3:atemp>
          </ns3:TrackPointExtension>
        </extensions>
      </trkpt>
      <trkpt lat="42.51661266200244426727294921875" lon="19.94700849987566471099853515625">
        <ele>1875</ele>
        <time>2026-06-17T09:44:15.000Z</time>
        <extensions>
          <ns3:TrackPointExtension>
            <ns3:atemp>18.0</ns3:atemp>
          </ns3:TrackPointExtension>
        </extensions>
      </trkpt>
      <trkpt lat="42.51661266200244426727294921875" lon="19.94700849987566471099853515625">
        <ele>1875</ele>
        <time>2026-06-17T09:44:16.000Z</time>
        <extensions>
          <ns3:TrackPointExtension>
            <ns3:atemp>18.0</ns3:atemp>
          </ns3:TrackPointExtension>
        </extensions>
      </trkpt>
      <trkpt lat="42.51661266200244426727294921875" lon="19.94700849987566471099853515625">
        <ele>1875</ele>
        <time>2026-06-17T09:44:17.000Z</time>
        <extensions>
          <ns3:TrackPointExtension>
            <ns3:atemp>18.0</ns3:atemp>
          </ns3:TrackPointExtension>
        </extensions>
      </trkpt>
      <trkpt lat="42.51661266200244426727294921875" lon="19.94700849987566471099853515625">
        <ele>1875</ele>
        <time>2026-06-17T09:44:18.000Z</time>
        <extensions>
          <ns3:TrackPointExtension>
            <ns3:atemp>18.0</ns3:atemp>
          </ns3:TrackPointExtension>
        </extensions>
      </trkpt>
      <trkpt lat="42.51661266200244426727294921875" lon="19.94700849987566471099853515625">
        <ele>1875</ele>
        <time>2026-06-17T09:44:19.000Z</time>
        <extensions>
          <ns3:TrackPointExtension>
            <ns3:atemp>18.0</ns3:atemp>
          </ns3:TrackPointExtension>
        </extensions>
      </trkpt>
      <trkpt lat="42.51661266200244426727294921875" lon="19.94700849987566471099853515625">
        <ele>1875</ele>
        <time>2026-06-17T09:44:20.000Z</time>
        <extensions>
          <ns3:TrackPointExtension>
            <ns3:atemp>18.0</ns3:atemp>
          </ns3:TrackPointExtension>
        </extensions>
      </trkpt>
      <trkpt lat="42.51661266200244426727294921875" lon="19.94700849987566471099853515625">
        <ele>1875</ele>
        <time>2026-06-17T09:44:21.000Z</time>
        <extensions>
          <ns3:TrackPointExtension>
            <ns3:atemp>18.0</ns3:atemp>
          </ns3:TrackPointExtension>
        </extensions>
      </trkpt>
      <trkpt lat="42.51661266200244426727294921875" lon="19.94700849987566471099853515625">
        <ele>1875</ele>
        <time>2026-06-17T09:44:22.000Z</time>
        <extensions>
          <ns3:TrackPointExtension>
            <ns3:atemp>18.0</ns3:atemp>
          </ns3:TrackPointExtension>
        </extensions>
      </trkpt>
      <trkpt lat="42.51661266200244426727294921875" lon="19.94700849987566471099853515625">
        <ele>1875</ele>
        <time>2026-06-17T09:44:23.000Z</time>
        <extensions>
          <ns3:TrackPointExtension>
            <ns3:atemp>18.0</ns3:atemp>
          </ns3:TrackPointExtension>
        </extensions>
      </trkpt>
      <trkpt lat="42.51661266200244426727294921875" lon="19.94700849987566471099853515625">
        <ele>1875</ele>
        <time>2026-06-17T09:44:24.000Z</time>
        <extensions>
          <ns3:TrackPointExtension>
            <ns3:atemp>18.0</ns3:atemp>
          </ns3:TrackPointExtension>
        </extensions>
      </trkpt>
      <trkpt lat="42.51661266200244426727294921875" lon="19.94700849987566471099853515625">
        <ele>1875</ele>
        <time>2026-06-17T09:44:25.000Z</time>
        <extensions>
          <ns3:TrackPointExtension>
            <ns3:atemp>18.0</ns3:atemp>
          </ns3:TrackPointExtension>
        </extensions>
      </trkpt>
      <trkpt lat="42.51661266200244426727294921875" lon="19.94700849987566471099853515625">
        <ele>1875</ele>
        <time>2026-06-17T09:44:26.000Z</time>
        <extensions>
          <ns3:TrackPointExtension>
            <ns3:atemp>18.0</ns3:atemp>
          </ns3:TrackPointExtension>
        </extensions>
      </trkpt>
      <trkpt lat="42.51661266200244426727294921875" lon="19.94700849987566471099853515625">
        <ele>1875</ele>
        <time>2026-06-17T09:44:27.000Z</time>
        <extensions>
          <ns3:TrackPointExtension>
            <ns3:atemp>18.0</ns3:atemp>
          </ns3:TrackPointExtension>
        </extensions>
      </trkpt>
      <trkpt lat="42.51661266200244426727294921875" lon="19.94700849987566471099853515625">
        <ele>1875</ele>
        <time>2026-06-17T09:44:28.000Z</time>
        <extensions>
          <ns3:TrackPointExtension>
            <ns3:atemp>18.0</ns3:atemp>
          </ns3:TrackPointExtension>
        </extensions>
      </trkpt>
      <trkpt lat="42.51661266200244426727294921875" lon="19.94700849987566471099853515625">
        <ele>1875</ele>
        <time>2026-06-17T09:44:29.000Z</time>
        <extensions>
          <ns3:TrackPointExtension>
            <ns3:atemp>18.0</ns3:atemp>
          </ns3:TrackPointExtension>
        </extensions>
      </trkpt>
      <trkpt lat="42.51661266200244426727294921875" lon="19.94700849987566471099853515625">
        <ele>1875</ele>
        <time>2026-06-17T09:44:30.000Z</time>
        <extensions>
          <ns3:TrackPointExtension>
            <ns3:atemp>18.0</ns3:atemp>
          </ns3:TrackPointExtension>
        </extensions>
      </trkpt>
      <trkpt lat="42.51661266200244426727294921875" lon="19.94700849987566471099853515625">
        <ele>1875</ele>
        <time>2026-06-17T09:44:31.000Z</time>
        <extensions>
          <ns3:TrackPointExtension>
            <ns3:atemp>18.0</ns3:atemp>
          </ns3:TrackPointExtension>
        </extensions>
      </trkpt>
      <trkpt lat="42.51661266200244426727294921875" lon="19.94700849987566471099853515625">
        <ele>1875</ele>
        <time>2026-06-17T09:44:32.000Z</time>
        <extensions>
          <ns3:TrackPointExtension>
            <ns3:atemp>18.0</ns3:atemp>
          </ns3:TrackPointExtension>
        </extensions>
      </trkpt>
      <trkpt lat="42.51661266200244426727294921875" lon="19.94700849987566471099853515625">
        <ele>1875</ele>
        <time>2026-06-17T09:44:33.000Z</time>
        <extensions>
          <ns3:TrackPointExtension>
            <ns3:atemp>18.0</ns3:atemp>
          </ns3:TrackPointExtension>
        </extensions>
      </trkpt>
      <trkpt lat="42.51661266200244426727294921875" lon="19.94700849987566471099853515625">
        <ele>1875</ele>
        <time>2026-06-17T09:44:34.000Z</time>
        <extensions>
          <ns3:TrackPointExtension>
            <ns3:atemp>18.0</ns3:atemp>
          </ns3:TrackPointExtension>
        </extensions>
      </trkpt>
      <trkpt lat="42.51661266200244426727294921875" lon="19.94700849987566471099853515625">
        <ele>1875</ele>
        <time>2026-06-17T09:44:35.000Z</time>
        <extensions>
          <ns3:TrackPointExtension>
            <ns3:atemp>18.0</ns3:atemp>
          </ns3:TrackPointExtension>
        </extensions>
      </trkpt>
      <trkpt lat="42.51661266200244426727294921875" lon="19.94700849987566471099853515625">
        <ele>1875</ele>
        <time>2026-06-17T09:44:36.000Z</time>
        <extensions>
          <ns3:TrackPointExtension>
            <ns3:atemp>18.0</ns3:atemp>
          </ns3:TrackPointExtension>
        </extensions>
      </trkpt>
      <trkpt lat="42.51661266200244426727294921875" lon="19.94700849987566471099853515625">
        <ele>1875</ele>
        <time>2026-06-17T09:44:37.000Z</time>
        <extensions>
          <ns3:TrackPointExtension>
            <ns3:atemp>18.0</ns3:atemp>
          </ns3:TrackPointExtension>
        </extensions>
      </trkpt>
      <trkpt lat="42.51661266200244426727294921875" lon="19.94700849987566471099853515625">
        <ele>1875</ele>
        <time>2026-06-17T09:44:38.000Z</time>
        <extensions>
          <ns3:TrackPointExtension>
            <ns3:atemp>18.0</ns3:atemp>
          </ns3:TrackPointExtension>
        </extensions>
      </trkpt>
      <trkpt lat="42.51661266200244426727294921875" lon="19.94700849987566471099853515625">
        <ele>1875</ele>
        <time>2026-06-17T09:44:39.000Z</time>
        <extensions>
          <ns3:TrackPointExtension>
            <ns3:atemp>18.0</ns3:atemp>
          </ns3:TrackPointExtension>
        </extensions>
      </trkpt>
      <trkpt lat="42.51661266200244426727294921875" lon="19.94700849987566471099853515625">
        <ele>1875</ele>
        <time>2026-06-17T09:44:40.000Z</time>
        <extensions>
          <ns3:TrackPointExtension>
            <ns3:atemp>18.0</ns3:atemp>
          </ns3:TrackPointExtension>
        </extensions>
      </trkpt>
      <trkpt lat="42.51661266200244426727294921875" lon="19.94700849987566471099853515625">
        <ele>1875</ele>
        <time>2026-06-17T09:44:41.000Z</time>
        <extensions>
          <ns3:TrackPointExtension>
            <ns3:atemp>18.0</ns3:atemp>
          </ns3:TrackPointExtension>
        </extensions>
      </trkpt>
      <trkpt lat="42.51661266200244426727294921875" lon="19.94700849987566471099853515625">
        <ele>1875</ele>
        <time>2026-06-17T09:44:42.000Z</time>
        <extensions>
          <ns3:TrackPointExtension>
            <ns3:atemp>18.0</ns3:atemp>
          </ns3:TrackPointExtension>
        </extensions>
      </trkpt>
      <trkpt lat="42.51661266200244426727294921875" lon="19.94700849987566471099853515625">
        <ele>1875</ele>
        <time>2026-06-17T09:44:43.000Z</time>
        <extensions>
          <ns3:TrackPointExtension>
            <ns3:atemp>18.0</ns3:atemp>
          </ns3:TrackPointExtension>
        </extensions>
      </trkpt>
      <trkpt lat="42.51661266200244426727294921875" lon="19.94700849987566471099853515625">
        <ele>1875</ele>
        <time>2026-06-17T09:44:44.000Z</time>
        <extensions>
          <ns3:TrackPointExtension>
            <ns3:atemp>18.0</ns3:atemp>
          </ns3:TrackPointExtension>
        </extensions>
      </trkpt>
      <trkpt lat="42.51661266200244426727294921875" lon="19.94700849987566471099853515625">
        <ele>1875</ele>
        <time>2026-06-17T09:44:45.000Z</time>
        <extensions>
          <ns3:TrackPointExtension>
            <ns3:atemp>18.0</ns3:atemp>
          </ns3:TrackPointExtension>
        </extensions>
      </trkpt>
      <trkpt lat="42.51661165617406368255615234375" lon="19.9470082484185695648193359375">
        <ele>1875</ele>
        <time>2026-06-17T09:44:46.000Z</time>
        <extensions>
          <ns3:TrackPointExtension>
            <ns3:atemp>18.0</ns3:atemp>
          </ns3:TrackPointExtension>
        </extensions>
      </trkpt>
      <trkpt lat="42.51661266200244426727294921875" lon="19.94700849987566471099853515625">
        <ele>1875</ele>
        <time>2026-06-17T09:44:47.000Z</time>
        <extensions>
          <ns3:TrackPointExtension>
            <ns3:atemp>18.0</ns3:atemp>
          </ns3:TrackPointExtension>
        </extensions>
      </trkpt>
      <trkpt lat="42.51661266200244426727294921875" lon="19.94700849987566471099853515625">
        <ele>1875</ele>
        <time>2026-06-17T09:44:48.000Z</time>
        <extensions>
          <ns3:TrackPointExtension>
            <ns3:atemp>18.0</ns3:atemp>
          </ns3:TrackPointExtension>
        </extensions>
      </trkpt>
      <trkpt lat="42.51661266200244426727294921875" lon="19.94700849987566471099853515625">
        <ele>1875</ele>
        <time>2026-06-17T09:44:49.000Z</time>
        <extensions>
          <ns3:TrackPointExtension>
            <ns3:atemp>18.0</ns3:atemp>
          </ns3:TrackPointExtension>
        </extensions>
      </trkpt>
      <trkpt lat="42.51661266200244426727294921875" lon="19.94700849987566471099853515625">
        <ele>1875</ele>
        <time>2026-06-17T09:44:50.000Z</time>
        <extensions>
          <ns3:TrackPointExtension>
            <ns3:atemp>18.0</ns3:atemp>
          </ns3:TrackPointExtension>
        </extensions>
      </trkpt>
      <trkpt lat="42.51661266200244426727294921875" lon="19.94700849987566471099853515625">
        <ele>1875</ele>
        <time>2026-06-17T09:44:51.000Z</time>
        <extensions>
          <ns3:TrackPointExtension>
            <ns3:atemp>18.0</ns3:atemp>
          </ns3:TrackPointExtension>
        </extensions>
      </trkpt>
      <trkpt lat="42.51661266200244426727294921875" lon="19.94700849987566471099853515625">
        <ele>1875</ele>
        <time>2026-06-17T09:44:52.000Z</time>
        <extensions>
          <ns3:TrackPointExtension>
            <ns3:atemp>18.0</ns3:atemp>
          </ns3:TrackPointExtension>
        </extensions>
      </trkpt>
      <trkpt lat="42.51661266200244426727294921875" lon="19.94700849987566471099853515625">
        <ele>1875</ele>
        <time>2026-06-17T09:44:53.000Z</time>
        <extensions>
          <ns3:TrackPointExtension>
            <ns3:atemp>18.0</ns3:atemp>
          </ns3:TrackPointExtension>
        </extensions>
      </trkpt>
      <trkpt lat="42.51661266200244426727294921875" lon="19.94700849987566471099853515625">
        <ele>1875</ele>
        <time>2026-06-17T09:44:54.000Z</time>
        <extensions>
          <ns3:TrackPointExtension>
            <ns3:atemp>18.0</ns3:atemp>
          </ns3:TrackPointExtension>
        </extensions>
      </trkpt>
      <trkpt lat="42.51661266200244426727294921875" lon="19.94700849987566471099853515625">
        <ele>1875</ele>
        <time>2026-06-17T09:44:55.000Z</time>
        <extensions>
          <ns3:TrackPointExtension>
            <ns3:atemp>18.0</ns3:atemp>
          </ns3:TrackPointExtension>
        </extensions>
      </trkpt>
      <trkpt lat="42.51661266200244426727294921875" lon="19.94700849987566471099853515625">
        <ele>1875</ele>
        <time>2026-06-17T09:44:56.000Z</time>
        <extensions>
          <ns3:TrackPointExtension>
            <ns3:atemp>18.0</ns3:atemp>
          </ns3:TrackPointExtension>
        </extensions>
      </trkpt>
      <trkpt lat="42.51661266200244426727294921875" lon="19.94700849987566471099853515625">
        <ele>1875</ele>
        <time>2026-06-17T09:44:57.000Z</time>
        <extensions>
          <ns3:TrackPointExtension>
            <ns3:atemp>18.0</ns3:atemp>
          </ns3:TrackPointExtension>
        </extensions>
      </trkpt>
      <trkpt lat="42.51660293899476528167724609375" lon="19.94701352901756763458251953125">
        <ele>1875</ele>
        <time>2026-06-17T09:44:58.000Z</time>
        <extensions>
          <ns3:TrackPointExtension>
            <ns3:atemp>18.0</ns3:atemp>
          </ns3:TrackPointExtension>
        </extensions>
      </trkpt>
      <trkpt lat="42.51657544635236263275146484375" lon="19.9470119364559650421142578125">
        <ele>1875</ele>
        <time>2026-06-17T09:44:59.000Z</time>
        <extensions>
          <ns3:TrackPointExtension>
            <ns3:atemp>18.0</ns3:atemp>
          </ns3:TrackPointExtension>
        </extensions>
      </trkpt>
      <trkpt lat="42.5165485404431819915771484375" lon="19.94700975716114044189453125">
        <ele>1875</ele>
        <time>2026-06-17T09:45:00.000Z</time>
        <extensions>
          <ns3:TrackPointExtension>
            <ns3:atemp>18.0</ns3:atemp>
          </ns3:TrackPointExtension>
        </extensions>
      </trkpt>
      <trkpt lat="42.51653001643717288970947265625" lon="19.94701168499886989593505859375">
        <ele>1875.5999755859375</ele>
        <time>2026-06-17T09:45:01.000Z</time>
        <extensions>
          <ns3:TrackPointExtension>
            <ns3:atemp>18.0</ns3:atemp>
          </ns3:TrackPointExtension>
        </extensions>
      </trkpt>
      <trkpt lat="42.51649883575737476348876953125" lon="19.9470052309334278106689453125">
        <ele>1875.199951171875</ele>
        <time>2026-06-17T09:45:02.000Z</time>
        <extensions>
          <ns3:TrackPointExtension>
            <ns3:atemp>18.0</ns3:atemp>
          </ns3:TrackPointExtension>
        </extensions>
      </trkpt>
      <trkpt lat="42.5164610333740711212158203125" lon="19.94698134250938892364501953125">
        <ele>1874.800048828125</ele>
        <time>2026-06-17T09:45:03.000Z</time>
        <extensions>
          <ns3:TrackPointExtension>
            <ns3:atemp>18.0</ns3:atemp>
          </ns3:TrackPointExtension>
        </extensions>
      </trkpt>
      <trkpt lat="42.5164268352091312408447265625" lon="19.94695586152374744415283203125">
        <ele>1874.4000244140625</ele>
        <time>2026-06-17T09:45:04.000Z</time>
        <extensions>
          <ns3:TrackPointExtension>
            <ns3:atemp>18.0</ns3:atemp>
          </ns3:TrackPointExtension>
        </extensions>
      </trkpt>
      <trkpt lat="42.51638685353100299835205078125" lon="19.94693406857550144195556640625">
        <ele>1873.800048828125</ele>
        <time>2026-06-17T09:45:05.000Z</time>
        <extensions>
          <ns3:TrackPointExtension>
            <ns3:atemp>18.0</ns3:atemp>
          </ns3:TrackPointExtension>
        </extensions>
      </trkpt>
      <trkpt lat="42.51636095345020294189453125" lon="19.946924932301044464111328125">
        <ele>1873.4000244140625</ele>
        <time>2026-06-17T09:45:06.000Z</time>
        <extensions>
          <ns3:TrackPointExtension>
            <ns3:atemp>18.0</ns3:atemp>
          </ns3:TrackPointExtension>
        </extensions>
      </trkpt>
      <trkpt lat="42.51632600091397762298583984375" lon="19.9469234235584735870361328125">
        <ele>1873</ele>
        <time>2026-06-17T09:45:07.000Z</time>
        <extensions>
          <ns3:TrackPointExtension>
            <ns3:atemp>18.0</ns3:atemp>
          </ns3:TrackPointExtension>
        </extensions>
      </trkpt>
      <trkpt lat="42.51631644554436206817626953125" lon="19.94692258536815643310546875">
        <ele>1872.800048828125</ele>
        <time>2026-06-17T09:45:08.000Z</time>
        <extensions>
          <ns3:TrackPointExtension>
            <ns3:atemp>18.0</ns3:atemp>
          </ns3:TrackPointExtension>
        </extensions>
      </trkpt>
      <trkpt lat="42.516306303441524505615234375" lon="19.9469190649688243865966796875">
        <ele>1872.5999755859375</ele>
        <time>2026-06-17T09:45:09.000Z</time>
        <extensions>
          <ns3:TrackPointExtension>
            <ns3:atemp>18.0</ns3:atemp>
          </ns3:TrackPointExtension>
        </extensions>
      </trkpt>
      <trkpt lat="42.51630060374736785888671875" lon="19.94692065753042697906494140625">
        <ele>1872.4000244140625</ele>
        <time>2026-06-17T09:45:10.000Z</time>
        <extensions>
          <ns3:TrackPointExtension>
            <ns3:atemp>18.0</ns3:atemp>
          </ns3:TrackPointExtension>
        </extensions>
      </trkpt>
      <trkpt lat="42.51630051992833614349365234375" lon="19.94692065753042697906494140625">
        <ele>1872.199951171875</ele>
        <time>2026-06-17T09:45:11.000Z</time>
        <extensions>
          <ns3:TrackPointExtension>
            <ns3:atemp>18.0</ns3:atemp>
          </ns3:TrackPointExtension>
        </extensions>
      </trkpt>
      <trkpt lat="42.51630051992833614349365234375" lon="19.94692065753042697906494140625">
        <ele>1872.199951171875</ele>
        <time>2026-06-17T09:45:12.000Z</time>
        <extensions>
          <ns3:TrackPointExtension>
            <ns3:atemp>18.0</ns3:atemp>
          </ns3:TrackPointExtension>
        </extensions>
      </trkpt>
      <trkpt lat="42.51630051992833614349365234375" lon="19.94692065753042697906494140625">
        <ele>1872.199951171875</ele>
        <time>2026-06-17T09:45:13.000Z</time>
        <extensions>
          <ns3:TrackPointExtension>
            <ns3:atemp>18.0</ns3:atemp>
          </ns3:TrackPointExtension>
        </extensions>
      </trkpt>
      <trkpt lat="42.51630051992833614349365234375" lon="19.94692065753042697906494140625">
        <ele>1872.199951171875</ele>
        <time>2026-06-17T09:45:14.000Z</time>
        <extensions>
          <ns3:TrackPointExtension>
            <ns3:atemp>18.0</ns3:atemp>
          </ns3:TrackPointExtension>
        </extensions>
      </trkpt>
      <trkpt lat="42.51630051992833614349365234375" lon="19.94692065753042697906494140625">
        <ele>1872.199951171875</ele>
        <time>2026-06-17T09:45:15.000Z</time>
        <extensions>
          <ns3:TrackPointExtension>
            <ns3:atemp>18.0</ns3:atemp>
          </ns3:TrackPointExtension>
        </extensions>
      </trkpt>
      <trkpt lat="42.51630051992833614349365234375" lon="19.94692065753042697906494140625">
        <ele>1872.199951171875</ele>
        <time>2026-06-17T09:45:16.000Z</time>
        <extensions>
          <ns3:TrackPointExtension>
            <ns3:atemp>18.0</ns3:atemp>
          </ns3:TrackPointExtension>
        </extensions>
      </trkpt>
      <trkpt lat="42.51630051992833614349365234375" lon="19.94692065753042697906494140625">
        <ele>1872.199951171875</ele>
        <time>2026-06-17T09:45:17.000Z</time>
        <extensions>
          <ns3:TrackPointExtension>
            <ns3:atemp>18.0</ns3:atemp>
          </ns3:TrackPointExtension>
        </extensions>
      </trkpt>
      <trkpt lat="42.51630051992833614349365234375" lon="19.94692065753042697906494140625">
        <ele>1872</ele>
        <time>2026-06-17T09:45:18.000Z</time>
        <extensions>
          <ns3:TrackPointExtension>
            <ns3:atemp>18.0</ns3:atemp>
          </ns3:TrackPointExtension>
        </extensions>
      </trkpt>
      <trkpt lat="42.51630051992833614349365234375" lon="19.94692065753042697906494140625">
        <ele>1872</ele>
        <time>2026-06-17T09:45:19.000Z</time>
        <extensions>
          <ns3:TrackPointExtension>
            <ns3:atemp>18.0</ns3:atemp>
          </ns3:TrackPointExtension>
        </extensions>
      </trkpt>
      <trkpt lat="42.51630051992833614349365234375" lon="19.94692065753042697906494140625">
        <ele>1871.800048828125</ele>
        <time>2026-06-17T09:45:20.000Z</time>
        <extensions>
          <ns3:TrackPointExtension>
            <ns3:atemp>18.0</ns3:atemp>
          </ns3:TrackPointExtension>
        </extensions>
      </trkpt>
      <trkpt lat="42.51630051992833614349365234375" lon="19.94692065753042697906494140625">
        <ele>1871.5999755859375</ele>
        <time>2026-06-17T09:45:21.000Z</time>
        <extensions>
          <ns3:TrackPointExtension>
            <ns3:atemp>18.0</ns3:atemp>
          </ns3:TrackPointExtension>
        </extensions>
      </trkpt>
      <trkpt lat="42.51630051992833614349365234375" lon="19.94692065753042697906494140625">
        <ele>1871.5999755859375</ele>
        <time>2026-06-17T09:45:22.000Z</time>
        <extensions>
          <ns3:TrackPointExtension>
            <ns3:atemp>18.0</ns3:atemp>
          </ns3:TrackPointExtension>
        </extensions>
      </trkpt>
      <trkpt lat="42.51630051992833614349365234375" lon="19.94692065753042697906494140625">
        <ele>1871.4000244140625</ele>
        <time>2026-06-17T09:45:23.000Z</time>
        <extensions>
          <ns3:TrackPointExtension>
            <ns3:atemp>18.0</ns3:atemp>
          </ns3:TrackPointExtension>
        </extensions>
      </trkpt>
      <trkpt lat="42.51630051992833614349365234375" lon="19.94692065753042697906494140625">
        <ele>1871.4000244140625</ele>
        <time>2026-06-17T09:45:24.000Z</time>
        <extensions>
          <ns3:TrackPointExtension>
            <ns3:atemp>18.0</ns3:atemp>
          </ns3:TrackPointExtension>
        </extensions>
      </trkpt>
      <trkpt lat="42.51630051992833614349365234375" lon="19.94692065753042697906494140625">
        <ele>1871.4000244140625</ele>
        <time>2026-06-17T09:45:25.000Z</time>
        <extensions>
          <ns3:TrackPointExtension>
            <ns3:atemp>18.0</ns3:atemp>
          </ns3:TrackPointExtension>
        </extensions>
      </trkpt>
      <trkpt lat="42.51630051992833614349365234375" lon="19.94692065753042697906494140625">
        <ele>1871.4000244140625</ele>
        <time>2026-06-17T09:45:26.000Z</time>
        <extensions>
          <ns3:TrackPointExtension>
            <ns3:atemp>18.0</ns3:atemp>
          </ns3:TrackPointExtension>
        </extensions>
      </trkpt>
      <trkpt lat="42.51630051992833614349365234375" lon="19.94692065753042697906494140625">
        <ele>1871.4000244140625</ele>
        <time>2026-06-17T09:45:27.000Z</time>
        <extensions>
          <ns3:TrackPointExtension>
            <ns3:atemp>18.0</ns3:atemp>
          </ns3:TrackPointExtension>
        </extensions>
      </trkpt>
      <trkpt lat="42.51630051992833614349365234375" lon="19.94692065753042697906494140625">
        <ele>1871.4000244140625</ele>
        <time>2026-06-17T09:45:28.000Z</time>
        <extensions>
          <ns3:TrackPointExtension>
            <ns3:atemp>18.0</ns3:atemp>
          </ns3:TrackPointExtension>
        </extensions>
      </trkpt>
      <trkpt lat="42.51630051992833614349365234375" lon="19.94692065753042697906494140625">
        <ele>1871.4000244140625</ele>
        <time>2026-06-17T09:45:29.000Z</time>
        <extensions>
          <ns3:TrackPointExtension>
            <ns3:atemp>18.0</ns3:atemp>
          </ns3:TrackPointExtension>
        </extensions>
      </trkpt>
      <trkpt lat="42.51630051992833614349365234375" lon="19.94692065753042697906494140625">
        <ele>1871.4000244140625</ele>
        <time>2026-06-17T09:45:30.000Z</time>
        <extensions>
          <ns3:TrackPointExtension>
            <ns3:atemp>18.0</ns3:atemp>
          </ns3:TrackPointExtension>
        </extensions>
      </trkpt>
      <trkpt lat="42.51630051992833614349365234375" lon="19.94692065753042697906494140625">
        <ele>1871.4000244140625</ele>
        <time>2026-06-17T09:45:31.000Z</time>
        <extensions>
          <ns3:TrackPointExtension>
            <ns3:atemp>18.0</ns3:atemp>
          </ns3:TrackPointExtension>
        </extensions>
      </trkpt>
      <trkpt lat="42.51630051992833614349365234375" lon="19.94692065753042697906494140625">
        <ele>1871.4000244140625</ele>
        <time>2026-06-17T09:45:32.000Z</time>
        <extensions>
          <ns3:TrackPointExtension>
            <ns3:atemp>18.0</ns3:atemp>
          </ns3:TrackPointExtension>
        </extensions>
      </trkpt>
      <trkpt lat="42.51630051992833614349365234375" lon="19.94692065753042697906494140625">
        <ele>1871.4000244140625</ele>
        <time>2026-06-17T09:45:33.000Z</time>
        <extensions>
          <ns3:TrackPointExtension>
            <ns3:atemp>18.0</ns3:atemp>
          </ns3:TrackPointExtension>
        </extensions>
      </trkpt>
      <trkpt lat="42.51630051992833614349365234375" lon="19.94692065753042697906494140625">
        <ele>1871.199951171875</ele>
        <time>2026-06-17T09:45:34.000Z</time>
        <extensions>
          <ns3:TrackPointExtension>
            <ns3:atemp>18.0</ns3:atemp>
          </ns3:TrackPointExtension>
        </extensions>
      </trkpt>
      <trkpt lat="42.51630051992833614349365234375" lon="19.94692065753042697906494140625">
        <ele>1871.199951171875</ele>
        <time>2026-06-17T09:45:35.000Z</time>
        <extensions>
          <ns3:TrackPointExtension>
            <ns3:atemp>18.0</ns3:atemp>
          </ns3:TrackPointExtension>
        </extensions>
      </trkpt>
      <trkpt lat="42.51630051992833614349365234375" lon="19.94692065753042697906494140625">
        <ele>1871.199951171875</ele>
        <time>2026-06-17T09:45:36.000Z</time>
        <extensions>
          <ns3:TrackPointExtension>
            <ns3:atemp>18.0</ns3:atemp>
          </ns3:TrackPointExtension>
        </extensions>
      </trkpt>
      <trkpt lat="42.51630051992833614349365234375" lon="19.94692065753042697906494140625">
        <ele>1871.199951171875</ele>
        <time>2026-06-17T09:45:37.000Z</time>
        <extensions>
          <ns3:TrackPointExtension>
            <ns3:atemp>18.0</ns3:atemp>
          </ns3:TrackPointExtension>
        </extensions>
      </trkpt>
      <trkpt lat="42.51630051992833614349365234375" lon="19.94692065753042697906494140625">
        <ele>1871</ele>
        <time>2026-06-17T09:45:38.000Z</time>
        <extensions>
          <ns3:TrackPointExtension>
            <ns3:atemp>18.0</ns3:atemp>
          </ns3:TrackPointExtension>
        </extensions>
      </trkpt>
      <trkpt lat="42.51630051992833614349365234375" lon="19.94692065753042697906494140625">
        <ele>1871</ele>
        <time>2026-06-17T09:45:39.000Z</time>
        <extensions>
          <ns3:TrackPointExtension>
            <ns3:atemp>18.0</ns3:atemp>
          </ns3:TrackPointExtension>
        </extensions>
      </trkpt>
      <trkpt lat="42.51630051992833614349365234375" lon="19.94692065753042697906494140625">
        <ele>1871</ele>
        <time>2026-06-17T09:45:40.000Z</time>
        <extensions>
          <ns3:TrackPointExtension>
            <ns3:atemp>18.0</ns3:atemp>
          </ns3:TrackPointExtension>
        </extensions>
      </trkpt>
      <trkpt lat="42.51630051992833614349365234375" lon="19.94692065753042697906494140625">
        <ele>1871</ele>
        <time>2026-06-17T09:45:41.000Z</time>
        <extensions>
          <ns3:TrackPointExtension>
            <ns3:atemp>18.0</ns3:atemp>
          </ns3:TrackPointExtension>
        </extensions>
      </trkpt>
      <trkpt lat="42.51630051992833614349365234375" lon="19.94692065753042697906494140625">
        <ele>1871</ele>
        <time>2026-06-17T09:45:42.000Z</time>
        <extensions>
          <ns3:TrackPointExtension>
            <ns3:atemp>18.0</ns3:atemp>
          </ns3:TrackPointExtension>
        </extensions>
      </trkpt>
      <trkpt lat="42.51630051992833614349365234375" lon="19.94692065753042697906494140625">
        <ele>1870.800048828125</ele>
        <time>2026-06-17T09:45:43.000Z</time>
        <extensions>
          <ns3:TrackPointExtension>
            <ns3:atemp>18.0</ns3:atemp>
          </ns3:TrackPointExtension>
        </extensions>
      </trkpt>
      <trkpt lat="42.51630051992833614349365234375" lon="19.94692065753042697906494140625">
        <ele>1870.800048828125</ele>
        <time>2026-06-17T09:45:44.000Z</time>
        <extensions>
          <ns3:TrackPointExtension>
            <ns3:atemp>18.0</ns3:atemp>
          </ns3:TrackPointExtension>
        </extensions>
      </trkpt>
      <trkpt lat="42.51630051992833614349365234375" lon="19.94692065753042697906494140625">
        <ele>1870.800048828125</ele>
        <time>2026-06-17T09:45:45.000Z</time>
        <extensions>
          <ns3:TrackPointExtension>
            <ns3:atemp>18.0</ns3:atemp>
          </ns3:TrackPointExtension>
        </extensions>
      </trkpt>
      <trkpt lat="42.51630051992833614349365234375" lon="19.94692065753042697906494140625">
        <ele>1870.800048828125</ele>
        <time>2026-06-17T09:45:46.000Z</time>
        <extensions>
          <ns3:TrackPointExtension>
            <ns3:atemp>18.0</ns3:atemp>
          </ns3:TrackPointExtension>
        </extensions>
      </trkpt>
      <trkpt lat="42.51630051992833614349365234375" lon="19.94692065753042697906494140625">
        <ele>1870.800048828125</ele>
        <time>2026-06-17T09:45:47.000Z</time>
        <extensions>
          <ns3:TrackPointExtension>
            <ns3:atemp>18.0</ns3:atemp>
          </ns3:TrackPointExtension>
        </extensions>
      </trkpt>
      <trkpt lat="42.51630051992833614349365234375" lon="19.94692065753042697906494140625">
        <ele>1870.800048828125</ele>
        <time>2026-06-17T09:45:48.000Z</time>
        <extensions>
          <ns3:TrackPointExtension>
            <ns3:atemp>18.0</ns3:atemp>
          </ns3:TrackPointExtension>
        </extensions>
      </trkpt>
      <trkpt lat="42.51630051992833614349365234375" lon="19.94692065753042697906494140625">
        <ele>1870.800048828125</ele>
        <time>2026-06-17T09:45:49.000Z</time>
        <extensions>
          <ns3:TrackPointExtension>
            <ns3:atemp>18.0</ns3:atemp>
          </ns3:TrackPointExtension>
        </extensions>
      </trkpt>
      <trkpt lat="42.51629934646189212799072265625" lon="19.94691797532141208648681640625">
        <ele>1870.5999755859375</ele>
        <time>2026-06-17T09:45:50.000Z</time>
        <extensions>
          <ns3:TrackPointExtension>
            <ns3:atemp>18.0</ns3:atemp>
          </ns3:TrackPointExtension>
        </extensions>
      </trkpt>
      <trkpt lat="42.51630051992833614349365234375" lon="19.94692065753042697906494140625">
        <ele>1870.4000244140625</ele>
        <time>2026-06-17T09:45:51.000Z</time>
        <extensions>
          <ns3:TrackPointExtension>
            <ns3:atemp>18.0</ns3:atemp>
          </ns3:TrackPointExtension>
        </extensions>
      </trkpt>
      <trkpt lat="42.51630051992833614349365234375" lon="19.94692065753042697906494140625">
        <ele>1870.4000244140625</ele>
        <time>2026-06-17T09:45:52.000Z</time>
        <extensions>
          <ns3:TrackPointExtension>
            <ns3:atemp>18.0</ns3:atemp>
          </ns3:TrackPointExtension>
        </extensions>
      </trkpt>
      <trkpt lat="42.51629850827157497406005859375" lon="19.9469133652746677398681640625">
        <ele>1870.199951171875</ele>
        <time>2026-06-17T09:45:53.000Z</time>
        <extensions>
          <ns3:TrackPointExtension>
            <ns3:atemp>18.0</ns3:atemp>
          </ns3:TrackPointExtension>
        </extensions>
      </trkpt>
      <trkpt lat="42.51629817299544811248779296875" lon="19.946916885673999786376953125">
        <ele>1870.199951171875</ele>
        <time>2026-06-17T09:45:54.000Z</time>
        <extensions>
          <ns3:TrackPointExtension>
            <ns3:atemp>18.0</ns3:atemp>
          </ns3:TrackPointExtension>
        </extensions>
      </trkpt>
      <trkpt lat="42.51630051992833614349365234375" lon="19.94692065753042697906494140625">
        <ele>1870.199951171875</ele>
        <time>2026-06-17T09:45:55.000Z</time>
        <extensions>
          <ns3:TrackPointExtension>
            <ns3:atemp>18.0</ns3:atemp>
          </ns3:TrackPointExtension>
        </extensions>
      </trkpt>
      <trkpt lat="42.51630051992833614349365234375" lon="19.94692065753042697906494140625">
        <ele>1870.4000244140625</ele>
        <time>2026-06-17T09:45:56.000Z</time>
        <extensions>
          <ns3:TrackPointExtension>
            <ns3:atemp>18.0</ns3:atemp>
          </ns3:TrackPointExtension>
        </extensions>
      </trkpt>
      <trkpt lat="42.51630051992833614349365234375" lon="19.94692065753042697906494140625">
        <ele>1870.5999755859375</ele>
        <time>2026-06-17T09:45:57.000Z</time>
        <extensions>
          <ns3:TrackPointExtension>
            <ns3:atemp>18.0</ns3:atemp>
          </ns3:TrackPointExtension>
        </extensions>
      </trkpt>
      <trkpt lat="42.51630051992833614349365234375" lon="19.94692065753042697906494140625">
        <ele>1870.800048828125</ele>
        <time>2026-06-17T09:45:58.000Z</time>
        <extensions>
          <ns3:TrackPointExtension>
            <ns3:atemp>18.0</ns3:atemp>
          </ns3:TrackPointExtension>
        </extensions>
      </trkpt>
      <trkpt lat="42.51630051992833614349365234375" lon="19.94692065753042697906494140625">
        <ele>1870.800048828125</ele>
        <time>2026-06-17T09:45:59.000Z</time>
        <extensions>
          <ns3:TrackPointExtension>
            <ns3:atemp>18.0</ns3:atemp>
          </ns3:TrackPointExtension>
        </extensions>
      </trkpt>
      <trkpt lat="42.51630051992833614349365234375" lon="19.94692065753042697906494140625">
        <ele>1870.800048828125</ele>
        <time>2026-06-17T09:46:00.000Z</time>
        <extensions>
          <ns3:TrackPointExtension>
            <ns3:atemp>18.0</ns3:atemp>
          </ns3:TrackPointExtension>
        </extensions>
      </trkpt>
      <trkpt lat="42.51630051992833614349365234375" lon="19.94692065753042697906494140625">
        <ele>1870.5999755859375</ele>
        <time>2026-06-17T09:46:01.000Z</time>
        <extensions>
          <ns3:TrackPointExtension>
            <ns3:atemp>18.0</ns3:atemp>
          </ns3:TrackPointExtension>
        </extensions>
      </trkpt>
      <trkpt lat="42.51630051992833614349365234375" lon="19.94692065753042697906494140625">
        <ele>1870.5999755859375</ele>
        <time>2026-06-17T09:46:02.000Z</time>
        <extensions>
          <ns3:TrackPointExtension>
            <ns3:atemp>18.0</ns3:atemp>
          </ns3:TrackPointExtension>
        </extensions>
      </trkpt>
      <trkpt lat="42.51630051992833614349365234375" lon="19.94692065753042697906494140625">
        <ele>1870.4000244140625</ele>
        <time>2026-06-17T09:46:03.000Z</time>
        <extensions>
          <ns3:TrackPointExtension>
            <ns3:atemp>18.0</ns3:atemp>
          </ns3:TrackPointExtension>
        </extensions>
      </trkpt>
      <trkpt lat="42.51629331149160861968994140625" lon="19.94691990315914154052734375">
        <ele>1870.4000244140625</ele>
        <time>2026-06-17T09:46:04.000Z</time>
        <extensions>
          <ns3:TrackPointExtension>
            <ns3:atemp>18.0</ns3:atemp>
          </ns3:TrackPointExtension>
        </extensions>
      </trkpt>
      <trkpt lat="42.51627403311431407928466796875" lon="19.94692233391106128692626953125">
        <ele>1870.4000244140625</ele>
        <time>2026-06-17T09:46:05.000Z</time>
        <extensions>
          <ns3:TrackPointExtension>
            <ns3:atemp>18.0</ns3:atemp>
          </ns3:TrackPointExtension>
        </extensions>
      </trkpt>
      <trkpt lat="42.51627017743885517120361328125" lon="19.94691562838852405548095703125">
        <ele>1870.4000244140625</ele>
        <time>2026-06-17T09:46:06.000Z</time>
        <extensions>
          <ns3:TrackPointExtension>
            <ns3:atemp>18.0</ns3:atemp>
          </ns3:TrackPointExtension>
        </extensions>
      </trkpt>
      <trkpt lat="42.51626866869628429412841796875" lon="19.94691076688468456268310546875">
        <ele>1870.4000244140625</ele>
        <time>2026-06-17T09:46:07.000Z</time>
        <extensions>
          <ns3:TrackPointExtension>
            <ns3:atemp>18.0</ns3:atemp>
          </ns3:TrackPointExtension>
        </extensions>
      </trkpt>
      <trkpt lat="42.516268752515316009521484375" lon="19.94691093452274799346923828125">
        <ele>1870.5999755859375</ele>
        <time>2026-06-17T09:46:08.000Z</time>
        <extensions>
          <ns3:TrackPointExtension>
            <ns3:atemp>18.0</ns3:atemp>
          </ns3:TrackPointExtension>
        </extensions>
      </trkpt>
      <trkpt lat="42.516268752515316009521484375" lon="19.94691093452274799346923828125">
        <ele>1870.800048828125</ele>
        <time>2026-06-17T09:46:09.000Z</time>
        <extensions>
          <ns3:TrackPointExtension>
            <ns3:atemp>18.0</ns3:atemp>
          </ns3:TrackPointExtension>
        </extensions>
      </trkpt>
      <trkpt lat="42.516268752515316009521484375" lon="19.94691093452274799346923828125">
        <ele>1871</ele>
        <time>2026-06-17T09:46:10.000Z</time>
        <extensions>
          <ns3:TrackPointExtension>
            <ns3:atemp>18.0</ns3:atemp>
          </ns3:TrackPointExtension>
        </extensions>
      </trkpt>
      <trkpt lat="42.516268752515316009521484375" lon="19.94691093452274799346923828125">
        <ele>1871.199951171875</ele>
        <time>2026-06-17T09:46:11.000Z</time>
        <extensions>
          <ns3:TrackPointExtension>
            <ns3:atemp>18.0</ns3:atemp>
          </ns3:TrackPointExtension>
        </extensions>
      </trkpt>
      <trkpt lat="42.516268752515316009521484375" lon="19.94691093452274799346923828125">
        <ele>1871.199951171875</ele>
        <time>2026-06-17T09:46:12.000Z</time>
        <extensions>
          <ns3:TrackPointExtension>
            <ns3:atemp>18.0</ns3:atemp>
          </ns3:TrackPointExtension>
        </extensions>
      </trkpt>
      <trkpt lat="42.516268752515316009521484375" lon="19.94691093452274799346923828125">
        <ele>1871.199951171875</ele>
        <time>2026-06-17T09:46:13.000Z</time>
        <extensions>
          <ns3:TrackPointExtension>
            <ns3:atemp>18.0</ns3:atemp>
          </ns3:TrackPointExtension>
        </extensions>
      </trkpt>
      <trkpt lat="42.516268752515316009521484375" lon="19.94691093452274799346923828125">
        <ele>1871.199951171875</ele>
        <time>2026-06-17T09:46:14.000Z</time>
        <extensions>
          <ns3:TrackPointExtension>
            <ns3:atemp>18.0</ns3:atemp>
          </ns3:TrackPointExtension>
        </extensions>
      </trkpt>
      <trkpt lat="42.516268752515316009521484375" lon="19.94691093452274799346923828125">
        <ele>1871.199951171875</ele>
        <time>2026-06-17T09:46:15.000Z</time>
        <extensions>
          <ns3:TrackPointExtension>
            <ns3:atemp>18.0</ns3:atemp>
          </ns3:TrackPointExtension>
        </extensions>
      </trkpt>
      <trkpt lat="42.516268752515316009521484375" lon="19.94691093452274799346923828125">
        <ele>1871.199951171875</ele>
        <time>2026-06-17T09:46:16.000Z</time>
        <extensions>
          <ns3:TrackPointExtension>
            <ns3:atemp>18.0</ns3:atemp>
          </ns3:TrackPointExtension>
        </extensions>
      </trkpt>
      <trkpt lat="42.516268752515316009521484375" lon="19.94691093452274799346923828125">
        <ele>1871.199951171875</ele>
        <time>2026-06-17T09:46:17.000Z</time>
        <extensions>
          <ns3:TrackPointExtension>
            <ns3:atemp>18.0</ns3:atemp>
          </ns3:TrackPointExtension>
        </extensions>
      </trkpt>
      <trkpt lat="42.516268752515316009521484375" lon="19.94691093452274799346923828125">
        <ele>1871.199951171875</ele>
        <time>2026-06-17T09:46:18.000Z</time>
        <extensions>
          <ns3:TrackPointExtension>
            <ns3:atemp>18.0</ns3:atemp>
          </ns3:TrackPointExtension>
        </extensions>
      </trkpt>
      <trkpt lat="42.516268752515316009521484375" lon="19.94691093452274799346923828125">
        <ele>1871.199951171875</ele>
        <time>2026-06-17T09:46:19.000Z</time>
        <extensions>
          <ns3:TrackPointExtension>
            <ns3:atemp>18.0</ns3:atemp>
          </ns3:TrackPointExtension>
        </extensions>
      </trkpt>
      <trkpt lat="42.516268752515316009521484375" lon="19.94691093452274799346923828125">
        <ele>1871.199951171875</ele>
        <time>2026-06-17T09:46:20.000Z</time>
        <extensions>
          <ns3:TrackPointExtension>
            <ns3:atemp>18.0</ns3:atemp>
          </ns3:TrackPointExtension>
        </extensions>
      </trkpt>
      <trkpt lat="42.516268752515316009521484375" lon="19.94691093452274799346923828125">
        <ele>1871.199951171875</ele>
        <time>2026-06-17T09:46:21.000Z</time>
        <extensions>
          <ns3:TrackPointExtension>
            <ns3:atemp>18.0</ns3:atemp>
          </ns3:TrackPointExtension>
        </extensions>
      </trkpt>
      <trkpt lat="42.516268752515316009521484375" lon="19.94691093452274799346923828125">
        <ele>1871.4000244140625</ele>
        <time>2026-06-17T09:46:22.000Z</time>
        <extensions>
          <ns3:TrackPointExtension>
            <ns3:atemp>18.0</ns3:atemp>
          </ns3:TrackPointExtension>
        </extensions>
      </trkpt>
      <trkpt lat="42.516268752515316009521484375" lon="19.94691093452274799346923828125">
        <ele>1871.4000244140625</ele>
        <time>2026-06-17T09:46:23.000Z</time>
        <extensions>
          <ns3:TrackPointExtension>
            <ns3:atemp>18.0</ns3:atemp>
          </ns3:TrackPointExtension>
        </extensions>
      </trkpt>
      <trkpt lat="42.516268752515316009521484375" lon="19.94691093452274799346923828125">
        <ele>1871.4000244140625</ele>
        <time>2026-06-17T09:46:24.000Z</time>
        <extensions>
          <ns3:TrackPointExtension>
            <ns3:atemp>18.0</ns3:atemp>
          </ns3:TrackPointExtension>
        </extensions>
      </trkpt>
      <trkpt lat="42.516268752515316009521484375" lon="19.94691093452274799346923828125">
        <ele>1871.4000244140625</ele>
        <time>2026-06-17T09:46:25.000Z</time>
        <extensions>
          <ns3:TrackPointExtension>
            <ns3:atemp>18.0</ns3:atemp>
          </ns3:TrackPointExtension>
        </extensions>
      </trkpt>
      <trkpt lat="42.516268752515316009521484375" lon="19.94691093452274799346923828125">
        <ele>1871.4000244140625</ele>
        <time>2026-06-17T09:46:26.000Z</time>
        <extensions>
          <ns3:TrackPointExtension>
            <ns3:atemp>18.0</ns3:atemp>
          </ns3:TrackPointExtension>
        </extensions>
      </trkpt>
      <trkpt lat="42.516268752515316009521484375" lon="19.94691093452274799346923828125">
        <ele>1871.4000244140625</ele>
        <time>2026-06-17T09:46:27.000Z</time>
        <extensions>
          <ns3:TrackPointExtension>
            <ns3:atemp>18.0</ns3:atemp>
          </ns3:TrackPointExtension>
        </extensions>
      </trkpt>
      <trkpt lat="42.516268752515316009521484375" lon="19.94691093452274799346923828125">
        <ele>1871.5999755859375</ele>
        <time>2026-06-17T09:46:28.000Z</time>
        <extensions>
          <ns3:TrackPointExtension>
            <ns3:atemp>18.0</ns3:atemp>
          </ns3:TrackPointExtension>
        </extensions>
      </trkpt>
      <trkpt lat="42.516268752515316009521484375" lon="19.94691093452274799346923828125">
        <ele>1871.5999755859375</ele>
        <time>2026-06-17T09:46:29.000Z</time>
        <extensions>
          <ns3:TrackPointExtension>
            <ns3:atemp>18.0</ns3:atemp>
          </ns3:TrackPointExtension>
        </extensions>
      </trkpt>
      <trkpt lat="42.516268752515316009521484375" lon="19.94691093452274799346923828125">
        <ele>1871.5999755859375</ele>
        <time>2026-06-17T09:46:30.000Z</time>
        <extensions>
          <ns3:TrackPointExtension>
            <ns3:atemp>18.0</ns3:atemp>
          </ns3:TrackPointExtension>
        </extensions>
      </trkpt>
      <trkpt lat="42.516268752515316009521484375" lon="19.94691093452274799346923828125">
        <ele>1871.5999755859375</ele>
        <time>2026-06-17T09:46:31.000Z</time>
        <extensions>
          <ns3:TrackPointExtension>
            <ns3:atemp>18.0</ns3:atemp>
          </ns3:TrackPointExtension>
        </extensions>
      </trkpt>
      <trkpt lat="42.516268752515316009521484375" lon="19.94691093452274799346923828125">
        <ele>1871.5999755859375</ele>
        <time>2026-06-17T09:46:32.000Z</time>
        <extensions>
          <ns3:TrackPointExtension>
            <ns3:atemp>18.0</ns3:atemp>
          </ns3:TrackPointExtension>
        </extensions>
      </trkpt>
      <trkpt lat="42.516268752515316009521484375" lon="19.94691093452274799346923828125">
        <ele>1871.5999755859375</ele>
        <time>2026-06-17T09:46:33.000Z</time>
        <extensions>
          <ns3:TrackPointExtension>
            <ns3:atemp>18.0</ns3:atemp>
          </ns3:TrackPointExtension>
        </extensions>
      </trkpt>
      <trkpt lat="42.516268752515316009521484375" lon="19.94691093452274799346923828125">
        <ele>1871.5999755859375</ele>
        <time>2026-06-17T09:46:34.000Z</time>
        <extensions>
          <ns3:TrackPointExtension>
            <ns3:atemp>18.0</ns3:atemp>
          </ns3:TrackPointExtension>
        </extensions>
      </trkpt>
      <trkpt lat="42.516268752515316009521484375" lon="19.94691093452274799346923828125">
        <ele>1871.5999755859375</ele>
        <time>2026-06-17T09:46:35.000Z</time>
        <extensions>
          <ns3:TrackPointExtension>
            <ns3:atemp>18.0</ns3:atemp>
          </ns3:TrackPointExtension>
        </extensions>
      </trkpt>
      <trkpt lat="42.516268752515316009521484375" lon="19.94691093452274799346923828125">
        <ele>1871.5999755859375</ele>
        <time>2026-06-17T09:46:36.000Z</time>
        <extensions>
          <ns3:TrackPointExtension>
            <ns3:atemp>18.0</ns3:atemp>
          </ns3:TrackPointExtension>
        </extensions>
      </trkpt>
      <trkpt lat="42.516268752515316009521484375" lon="19.94691093452274799346923828125">
        <ele>1871.800048828125</ele>
        <time>2026-06-17T09:46:37.000Z</time>
        <extensions>
          <ns3:TrackPointExtension>
            <ns3:atemp>18.0</ns3:atemp>
          </ns3:TrackPointExtension>
        </extensions>
      </trkpt>
      <trkpt lat="42.516268752515316009521484375" lon="19.94691093452274799346923828125">
        <ele>1871.800048828125</ele>
        <time>2026-06-17T09:46:38.000Z</time>
        <extensions>
          <ns3:TrackPointExtension>
            <ns3:atemp>18.0</ns3:atemp>
          </ns3:TrackPointExtension>
        </extensions>
      </trkpt>
      <trkpt lat="42.516268752515316009521484375" lon="19.94691093452274799346923828125">
        <ele>1871.800048828125</ele>
        <time>2026-06-17T09:46:39.000Z</time>
        <extensions>
          <ns3:TrackPointExtension>
            <ns3:atemp>18.0</ns3:atemp>
          </ns3:TrackPointExtension>
        </extensions>
      </trkpt>
      <trkpt lat="42.516268752515316009521484375" lon="19.94691093452274799346923828125">
        <ele>1871.800048828125</ele>
        <time>2026-06-17T09:46:40.000Z</time>
        <extensions>
          <ns3:TrackPointExtension>
            <ns3:atemp>18.0</ns3:atemp>
          </ns3:TrackPointExtension>
        </extensions>
      </trkpt>
      <trkpt lat="42.516268752515316009521484375" lon="19.94691093452274799346923828125">
        <ele>1871.800048828125</ele>
        <time>2026-06-17T09:46:41.000Z</time>
        <extensions>
          <ns3:TrackPointExtension>
            <ns3:atemp>18.0</ns3:atemp>
          </ns3:TrackPointExtension>
        </extensions>
      </trkpt>
      <trkpt lat="42.516268752515316009521484375" lon="19.94691093452274799346923828125">
        <ele>1871.800048828125</ele>
        <time>2026-06-17T09:46:42.000Z</time>
        <extensions>
          <ns3:TrackPointExtension>
            <ns3:atemp>18.0</ns3:atemp>
          </ns3:TrackPointExtension>
        </extensions>
      </trkpt>
      <trkpt lat="42.516268752515316009521484375" lon="19.94691093452274799346923828125">
        <ele>1871.800048828125</ele>
        <time>2026-06-17T09:46:43.000Z</time>
        <extensions>
          <ns3:TrackPointExtension>
            <ns3:atemp>18.0</ns3:atemp>
          </ns3:TrackPointExtension>
        </extensions>
      </trkpt>
      <trkpt lat="42.516268752515316009521484375" lon="19.94691093452274799346923828125">
        <ele>1871.800048828125</ele>
        <time>2026-06-17T09:46:44.000Z</time>
        <extensions>
          <ns3:TrackPointExtension>
            <ns3:atemp>18.0</ns3:atemp>
          </ns3:TrackPointExtension>
        </extensions>
      </trkpt>
      <trkpt lat="42.516268752515316009521484375" lon="19.94691093452274799346923828125">
        <ele>1871.800048828125</ele>
        <time>2026-06-17T09:46:45.000Z</time>
        <extensions>
          <ns3:TrackPointExtension>
            <ns3:atemp>18.0</ns3:atemp>
          </ns3:TrackPointExtension>
        </extensions>
      </trkpt>
      <trkpt lat="42.516268752515316009521484375" lon="19.94691093452274799346923828125">
        <ele>1871.800048828125</ele>
        <time>2026-06-17T09:46:46.000Z</time>
        <extensions>
          <ns3:TrackPointExtension>
            <ns3:atemp>18.0</ns3:atemp>
          </ns3:TrackPointExtension>
        </extensions>
      </trkpt>
      <trkpt lat="42.516268752515316009521484375" lon="19.94691093452274799346923828125">
        <ele>1871.800048828125</ele>
        <time>2026-06-17T09:46:47.000Z</time>
        <extensions>
          <ns3:TrackPointExtension>
            <ns3:atemp>18.0</ns3:atemp>
          </ns3:TrackPointExtension>
        </extensions>
      </trkpt>
      <trkpt lat="42.516268752515316009521484375" lon="19.94691093452274799346923828125">
        <ele>1871.800048828125</ele>
        <time>2026-06-17T09:46:48.000Z</time>
        <extensions>
          <ns3:TrackPointExtension>
            <ns3:atemp>18.0</ns3:atemp>
          </ns3:TrackPointExtension>
        </extensions>
      </trkpt>
      <trkpt lat="42.516268752515316009521484375" lon="19.94691093452274799346923828125">
        <ele>1871.800048828125</ele>
        <time>2026-06-17T09:46:49.000Z</time>
        <extensions>
          <ns3:TrackPointExtension>
            <ns3:atemp>18.0</ns3:atemp>
          </ns3:TrackPointExtension>
        </extensions>
      </trkpt>
      <trkpt lat="42.516268752515316009521484375" lon="19.94691093452274799346923828125">
        <ele>1872</ele>
        <time>2026-06-17T09:46:50.000Z</time>
        <extensions>
          <ns3:TrackPointExtension>
            <ns3:atemp>18.0</ns3:atemp>
          </ns3:TrackPointExtension>
        </extensions>
      </trkpt>
      <trkpt lat="42.516268752515316009521484375" lon="19.94691093452274799346923828125">
        <ele>1872</ele>
        <time>2026-06-17T09:46:51.000Z</time>
        <extensions>
          <ns3:TrackPointExtension>
            <ns3:atemp>18.0</ns3:atemp>
          </ns3:TrackPointExtension>
        </extensions>
      </trkpt>
      <trkpt lat="42.516268752515316009521484375" lon="19.94691093452274799346923828125">
        <ele>1872</ele>
        <time>2026-06-17T09:46:52.000Z</time>
        <extensions>
          <ns3:TrackPointExtension>
            <ns3:atemp>18.0</ns3:atemp>
          </ns3:TrackPointExtension>
        </extensions>
      </trkpt>
      <trkpt lat="42.516268752515316009521484375" lon="19.94691093452274799346923828125">
        <ele>1872</ele>
        <time>2026-06-17T09:46:53.000Z</time>
        <extensions>
          <ns3:TrackPointExtension>
            <ns3:atemp>18.0</ns3:atemp>
          </ns3:TrackPointExtension>
        </extensions>
      </trkpt>
      <trkpt lat="42.516268752515316009521484375" lon="19.94691093452274799346923828125">
        <ele>1872</ele>
        <time>2026-06-17T09:46:54.000Z</time>
        <extensions>
          <ns3:TrackPointExtension>
            <ns3:atemp>18.0</ns3:atemp>
          </ns3:TrackPointExtension>
        </extensions>
      </trkpt>
      <trkpt lat="42.516268752515316009521484375" lon="19.94691093452274799346923828125">
        <ele>1872</ele>
        <time>2026-06-17T09:46:55.000Z</time>
        <extensions>
          <ns3:TrackPointExtension>
            <ns3:atemp>18.0</ns3:atemp>
          </ns3:TrackPointExtension>
        </extensions>
      </trkpt>
      <trkpt lat="42.516268752515316009521484375" lon="19.94691093452274799346923828125">
        <ele>1872</ele>
        <time>2026-06-17T09:46:56.000Z</time>
        <extensions>
          <ns3:TrackPointExtension>
            <ns3:atemp>18.0</ns3:atemp>
          </ns3:TrackPointExtension>
        </extensions>
      </trkpt>
      <trkpt lat="42.516268752515316009521484375" lon="19.94691093452274799346923828125">
        <ele>1872</ele>
        <time>2026-06-17T09:46:57.000Z</time>
        <extensions>
          <ns3:TrackPointExtension>
            <ns3:atemp>18.0</ns3:atemp>
          </ns3:TrackPointExtension>
        </extensions>
      </trkpt>
      <trkpt lat="42.516268752515316009521484375" lon="19.94691093452274799346923828125">
        <ele>1872</ele>
        <time>2026-06-17T09:46:58.000Z</time>
        <extensions>
          <ns3:TrackPointExtension>
            <ns3:atemp>18.0</ns3:atemp>
          </ns3:TrackPointExtension>
        </extensions>
      </trkpt>
      <trkpt lat="42.516268752515316009521484375" lon="19.94691093452274799346923828125">
        <ele>1872</ele>
        <time>2026-06-17T09:46:59.000Z</time>
        <extensions>
          <ns3:TrackPointExtension>
            <ns3:atemp>18.0</ns3:atemp>
          </ns3:TrackPointExtension>
        </extensions>
      </trkpt>
      <trkpt lat="42.516268752515316009521484375" lon="19.94691093452274799346923828125">
        <ele>1871.800048828125</ele>
        <time>2026-06-17T09:47:00.000Z</time>
        <extensions>
          <ns3:TrackPointExtension>
            <ns3:atemp>18.0</ns3:atemp>
          </ns3:TrackPointExtension>
        </extensions>
      </trkpt>
      <trkpt lat="42.516268752515316009521484375" lon="19.94691093452274799346923828125">
        <ele>1871.800048828125</ele>
        <time>2026-06-17T09:47:01.000Z</time>
        <extensions>
          <ns3:TrackPointExtension>
            <ns3:atemp>18.0</ns3:atemp>
          </ns3:TrackPointExtension>
        </extensions>
      </trkpt>
      <trkpt lat="42.516268752515316009521484375" lon="19.94691093452274799346923828125">
        <ele>1871.5999755859375</ele>
        <time>2026-06-17T09:47:02.000Z</time>
        <extensions>
          <ns3:TrackPointExtension>
            <ns3:atemp>18.0</ns3:atemp>
          </ns3:TrackPointExtension>
        </extensions>
      </trkpt>
      <trkpt lat="42.516268752515316009521484375" lon="19.94691093452274799346923828125">
        <ele>1871.5999755859375</ele>
        <time>2026-06-17T09:47:03.000Z</time>
        <extensions>
          <ns3:TrackPointExtension>
            <ns3:atemp>18.0</ns3:atemp>
          </ns3:TrackPointExtension>
        </extensions>
      </trkpt>
      <trkpt lat="42.516268752515316009521484375" lon="19.94691093452274799346923828125">
        <ele>1871.4000244140625</ele>
        <time>2026-06-17T09:47:04.000Z</time>
        <extensions>
          <ns3:TrackPointExtension>
            <ns3:atemp>18.0</ns3:atemp>
          </ns3:TrackPointExtension>
        </extensions>
      </trkpt>
      <trkpt lat="42.516268752515316009521484375" lon="19.94691093452274799346923828125">
        <ele>1871.4000244140625</ele>
        <time>2026-06-17T09:47:05.000Z</time>
        <extensions>
          <ns3:TrackPointExtension>
            <ns3:atemp>18.0</ns3:atemp>
          </ns3:TrackPointExtension>
        </extensions>
      </trkpt>
      <trkpt lat="42.516268752515316009521484375" lon="19.94691093452274799346923828125">
        <ele>1871.4000244140625</ele>
        <time>2026-06-17T09:47:06.000Z</time>
        <extensions>
          <ns3:TrackPointExtension>
            <ns3:atemp>18.0</ns3:atemp>
          </ns3:TrackPointExtension>
        </extensions>
      </trkpt>
      <trkpt lat="42.516268752515316009521484375" lon="19.94691093452274799346923828125">
        <ele>1871.4000244140625</ele>
        <time>2026-06-17T09:47:07.000Z</time>
        <extensions>
          <ns3:TrackPointExtension>
            <ns3:atemp>18.0</ns3:atemp>
          </ns3:TrackPointExtension>
        </extensions>
      </trkpt>
      <trkpt lat="42.516268752515316009521484375" lon="19.94691093452274799346923828125">
        <ele>1871.199951171875</ele>
        <time>2026-06-17T09:47:08.000Z</time>
        <extensions>
          <ns3:TrackPointExtension>
            <ns3:atemp>18.0</ns3:atemp>
          </ns3:TrackPointExtension>
        </extensions>
      </trkpt>
      <trkpt lat="42.516268752515316009521484375" lon="19.94691093452274799346923828125">
        <ele>1871.199951171875</ele>
        <time>2026-06-17T09:47:09.000Z</time>
        <extensions>
          <ns3:TrackPointExtension>
            <ns3:atemp>18.0</ns3:atemp>
          </ns3:TrackPointExtension>
        </extensions>
      </trkpt>
      <trkpt lat="42.516268752515316009521484375" lon="19.94691093452274799346923828125">
        <ele>1871</ele>
        <time>2026-06-17T09:47:10.000Z</time>
        <extensions>
          <ns3:TrackPointExtension>
            <ns3:atemp>18.0</ns3:atemp>
          </ns3:TrackPointExtension>
        </extensions>
      </trkpt>
      <trkpt lat="42.516268752515316009521484375" lon="19.94691093452274799346923828125">
        <ele>1871</ele>
        <time>2026-06-17T09:47:11.000Z</time>
        <extensions>
          <ns3:TrackPointExtension>
            <ns3:atemp>18.0</ns3:atemp>
          </ns3:TrackPointExtension>
        </extensions>
      </trkpt>
      <trkpt lat="42.516268752515316009521484375" lon="19.94691093452274799346923828125">
        <ele>1871</ele>
        <time>2026-06-17T09:47:12.000Z</time>
        <extensions>
          <ns3:TrackPointExtension>
            <ns3:atemp>18.0</ns3:atemp>
          </ns3:TrackPointExtension>
        </extensions>
      </trkpt>
      <trkpt lat="42.516268752515316009521484375" lon="19.94691093452274799346923828125">
        <ele>1871</ele>
        <time>2026-06-17T09:47:13.000Z</time>
        <extensions>
          <ns3:TrackPointExtension>
            <ns3:atemp>18.0</ns3:atemp>
          </ns3:TrackPointExtension>
        </extensions>
      </trkpt>
      <trkpt lat="42.516268752515316009521484375" lon="19.94691093452274799346923828125">
        <ele>1871</ele>
        <time>2026-06-17T09:47:14.000Z</time>
        <extensions>
          <ns3:TrackPointExtension>
            <ns3:atemp>18.0</ns3:atemp>
          </ns3:TrackPointExtension>
        </extensions>
      </trkpt>
      <trkpt lat="42.516268752515316009521484375" lon="19.94691093452274799346923828125">
        <ele>1871</ele>
        <time>2026-06-17T09:47:15.000Z</time>
        <extensions>
          <ns3:TrackPointExtension>
            <ns3:atemp>18.0</ns3:atemp>
          </ns3:TrackPointExtension>
        </extensions>
      </trkpt>
      <trkpt lat="42.516268752515316009521484375" lon="19.94691093452274799346923828125">
        <ele>1871</ele>
        <time>2026-06-17T09:47:16.000Z</time>
        <extensions>
          <ns3:TrackPointExtension>
            <ns3:atemp>18.0</ns3:atemp>
          </ns3:TrackPointExtension>
        </extensions>
      </trkpt>
      <trkpt lat="42.516268752515316009521484375" lon="19.94691093452274799346923828125">
        <ele>1871</ele>
        <time>2026-06-17T09:47:17.000Z</time>
        <extensions>
          <ns3:TrackPointExtension>
            <ns3:atemp>18.0</ns3:atemp>
          </ns3:TrackPointExtension>
        </extensions>
      </trkpt>
      <trkpt lat="42.516268752515316009521484375" lon="19.94691093452274799346923828125">
        <ele>1871</ele>
        <time>2026-06-17T09:47:18.000Z</time>
        <extensions>
          <ns3:TrackPointExtension>
            <ns3:atemp>18.0</ns3:atemp>
          </ns3:TrackPointExtension>
        </extensions>
      </trkpt>
      <trkpt lat="42.516268752515316009521484375" lon="19.94691093452274799346923828125">
        <ele>1871</ele>
        <time>2026-06-17T09:47:19.000Z</time>
        <extensions>
          <ns3:TrackPointExtension>
            <ns3:atemp>18.0</ns3:atemp>
          </ns3:TrackPointExtension>
        </extensions>
      </trkpt>
      <trkpt lat="42.51626900397241115570068359375" lon="19.9469167180359363555908203125">
        <ele>1871</ele>
        <time>2026-06-17T09:47:20.000Z</time>
        <extensions>
          <ns3:TrackPointExtension>
            <ns3:atemp>18.0</ns3:atemp>
          </ns3:TrackPointExtension>
        </extensions>
      </trkpt>
      <trkpt lat="42.51627017743885517120361328125" lon="19.94693071581423282623291015625">
        <ele>1871</ele>
        <time>2026-06-17T09:47:21.000Z</time>
        <extensions>
          <ns3:TrackPointExtension>
            <ns3:atemp>18.0</ns3:atemp>
          </ns3:TrackPointExtension>
        </extensions>
      </trkpt>
      <trkpt lat="42.516270093619823455810546875" lon="19.9469307996332645416259765625">
        <ele>1871</ele>
        <time>2026-06-17T09:47:22.000Z</time>
        <extensions>
          <ns3:TrackPointExtension>
            <ns3:atemp>18.0</ns3:atemp>
          </ns3:TrackPointExtension>
        </extensions>
      </trkpt>
      <trkpt lat="42.516270093619823455810546875" lon="19.9469307996332645416259765625">
        <ele>1871</ele>
        <time>2026-06-17T09:47:23.000Z</time>
        <extensions>
          <ns3:TrackPointExtension>
            <ns3:atemp>18.0</ns3:atemp>
          </ns3:TrackPointExtension>
        </extensions>
      </trkpt>
      <trkpt lat="42.516270093619823455810546875" lon="19.9469307996332645416259765625">
        <ele>1871</ele>
        <time>2026-06-17T09:47:24.000Z</time>
        <extensions>
          <ns3:TrackPointExtension>
            <ns3:atemp>18.0</ns3:atemp>
          </ns3:TrackPointExtension>
        </extensions>
      </trkpt>
      <trkpt lat="42.516270093619823455810546875" lon="19.9469307996332645416259765625">
        <ele>1871</ele>
        <time>2026-06-17T09:47:25.000Z</time>
        <extensions>
          <ns3:TrackPointExtension>
            <ns3:atemp>18.0</ns3:atemp>
          </ns3:TrackPointExtension>
        </extensions>
      </trkpt>
      <trkpt lat="42.516270093619823455810546875" lon="19.9469307996332645416259765625">
        <ele>1871</ele>
        <time>2026-06-17T09:47:26.000Z</time>
        <extensions>
          <ns3:TrackPointExtension>
            <ns3:atemp>18.0</ns3:atemp>
          </ns3:TrackPointExtension>
        </extensions>
      </trkpt>
      <trkpt lat="42.516270093619823455810546875" lon="19.9469307996332645416259765625">
        <ele>1871</ele>
        <time>2026-06-17T09:47:27.000Z</time>
        <extensions>
          <ns3:TrackPointExtension>
            <ns3:atemp>18.0</ns3:atemp>
          </ns3:TrackPointExtension>
        </extensions>
      </trkpt>
      <trkpt lat="42.516270093619823455810546875" lon="19.9469307996332645416259765625">
        <ele>1871</ele>
        <time>2026-06-17T09:47:28.000Z</time>
        <extensions>
          <ns3:TrackPointExtension>
            <ns3:atemp>18.0</ns3:atemp>
          </ns3:TrackPointExtension>
        </extensions>
      </trkpt>
      <trkpt lat="42.516270093619823455810546875" lon="19.9469307996332645416259765625">
        <ele>1871</ele>
        <time>2026-06-17T09:47:29.000Z</time>
        <extensions>
          <ns3:TrackPointExtension>
            <ns3:atemp>18.0</ns3:atemp>
          </ns3:TrackPointExtension>
        </extensions>
      </trkpt>
      <trkpt lat="42.516270093619823455810546875" lon="19.9469307996332645416259765625">
        <ele>1871</ele>
        <time>2026-06-17T09:47:30.000Z</time>
        <extensions>
          <ns3:TrackPointExtension>
            <ns3:atemp>18.0</ns3:atemp>
          </ns3:TrackPointExtension>
        </extensions>
      </trkpt>
      <trkpt lat="42.516270093619823455810546875" lon="19.9469307996332645416259765625">
        <ele>1871</ele>
        <time>2026-06-17T09:47:31.000Z</time>
        <extensions>
          <ns3:TrackPointExtension>
            <ns3:atemp>18.0</ns3:atemp>
          </ns3:TrackPointExtension>
        </extensions>
      </trkpt>
      <trkpt lat="42.516270093619823455810546875" lon="19.9469307996332645416259765625">
        <ele>1871</ele>
        <time>2026-06-17T09:47:32.000Z</time>
        <extensions>
          <ns3:TrackPointExtension>
            <ns3:atemp>18.0</ns3:atemp>
          </ns3:TrackPointExtension>
        </extensions>
      </trkpt>
      <trkpt lat="42.51626841723918914794921875" lon="19.94693188928067684173583984375">
        <ele>1871</ele>
        <time>2026-06-17T09:47:33.000Z</time>
        <extensions>
          <ns3:TrackPointExtension>
            <ns3:atemp>18.0</ns3:atemp>
          </ns3:TrackPointExtension>
        </extensions>
      </trkpt>
      <trkpt lat="42.516270093619823455810546875" lon="19.9469307996332645416259765625">
        <ele>1871</ele>
        <time>2026-06-17T09:47:34.000Z</time>
        <extensions>
          <ns3:TrackPointExtension>
            <ns3:atemp>18.0</ns3:atemp>
          </ns3:TrackPointExtension>
        </extensions>
      </trkpt>
      <trkpt lat="42.516270093619823455810546875" lon="19.9469307996332645416259765625">
        <ele>1871</ele>
        <time>2026-06-17T09:47:35.000Z</time>
        <extensions>
          <ns3:TrackPointExtension>
            <ns3:atemp>18.0</ns3:atemp>
          </ns3:TrackPointExtension>
        </extensions>
      </trkpt>
      <trkpt lat="42.516270093619823455810546875" lon="19.9469307996332645416259765625">
        <ele>1871</ele>
        <time>2026-06-17T09:47:36.000Z</time>
        <extensions>
          <ns3:TrackPointExtension>
            <ns3:atemp>18.0</ns3:atemp>
          </ns3:TrackPointExtension>
        </extensions>
      </trkpt>
      <trkpt lat="42.516270093619823455810546875" lon="19.9469307996332645416259765625">
        <ele>1871</ele>
        <time>2026-06-17T09:47:37.000Z</time>
        <extensions>
          <ns3:TrackPointExtension>
            <ns3:atemp>18.0</ns3:atemp>
          </ns3:TrackPointExtension>
        </extensions>
      </trkpt>
      <trkpt lat="42.516270093619823455810546875" lon="19.9469307996332645416259765625">
        <ele>1871</ele>
        <time>2026-06-17T09:47:38.000Z</time>
        <extensions>
          <ns3:TrackPointExtension>
            <ns3:atemp>18.0</ns3:atemp>
          </ns3:TrackPointExtension>
        </extensions>
      </trkpt>
      <trkpt lat="42.516270093619823455810546875" lon="19.9469307996332645416259765625">
        <ele>1871</ele>
        <time>2026-06-17T09:47:39.000Z</time>
        <extensions>
          <ns3:TrackPointExtension>
            <ns3:atemp>18.0</ns3:atemp>
          </ns3:TrackPointExtension>
        </extensions>
      </trkpt>
      <trkpt lat="42.516270093619823455810546875" lon="19.9469307996332645416259765625">
        <ele>1871</ele>
        <time>2026-06-17T09:47:40.000Z</time>
        <extensions>
          <ns3:TrackPointExtension>
            <ns3:atemp>18.0</ns3:atemp>
          </ns3:TrackPointExtension>
        </extensions>
      </trkpt>
      <trkpt lat="42.516270093619823455810546875" lon="19.9469307996332645416259765625">
        <ele>1871</ele>
        <time>2026-06-17T09:47:41.000Z</time>
        <extensions>
          <ns3:TrackPointExtension>
            <ns3:atemp>18.0</ns3:atemp>
          </ns3:TrackPointExtension>
        </extensions>
      </trkpt>
      <trkpt lat="42.516270093619823455810546875" lon="19.9469307996332645416259765625">
        <ele>1871</ele>
        <time>2026-06-17T09:47:42.000Z</time>
        <extensions>
          <ns3:TrackPointExtension>
            <ns3:atemp>18.0</ns3:atemp>
          </ns3:TrackPointExtension>
        </extensions>
      </trkpt>
      <trkpt lat="42.516270093619823455810546875" lon="19.9469307996332645416259765625">
        <ele>1871</ele>
        <time>2026-06-17T09:47:43.000Z</time>
        <extensions>
          <ns3:TrackPointExtension>
            <ns3:atemp>18.0</ns3:atemp>
          </ns3:TrackPointExtension>
        </extensions>
      </trkpt>
      <trkpt lat="42.516270093619823455810546875" lon="19.9469307996332645416259765625">
        <ele>1871</ele>
        <time>2026-06-17T09:47:44.000Z</time>
        <extensions>
          <ns3:TrackPointExtension>
            <ns3:atemp>18.0</ns3:atemp>
          </ns3:TrackPointExtension>
        </extensions>
      </trkpt>
      <trkpt lat="42.516270093619823455810546875" lon="19.9469307996332645416259765625">
        <ele>1871</ele>
        <time>2026-06-17T09:47:45.000Z</time>
        <extensions>
          <ns3:TrackPointExtension>
            <ns3:atemp>18.0</ns3:atemp>
          </ns3:TrackPointExtension>
        </extensions>
      </trkpt>
      <trkpt lat="42.516256682574748992919921875" lon="19.94693507440388202667236328125">
        <ele>1871</ele>
        <time>2026-06-17T09:47:46.000Z</time>
        <extensions>
          <ns3:TrackPointExtension>
            <ns3:atemp>18.0</ns3:atemp>
          </ns3:TrackPointExtension>
        </extensions>
      </trkpt>
      <trkpt lat="42.51625626347959041595458984375" lon="19.9469351582229137420654296875">
        <ele>1871</ele>
        <time>2026-06-17T09:47:47.000Z</time>
        <extensions>
          <ns3:TrackPointExtension>
            <ns3:atemp>18.0</ns3:atemp>
          </ns3:TrackPointExtension>
        </extensions>
      </trkpt>
      <trkpt lat="42.51625626347959041595458984375" lon="19.9469351582229137420654296875">
        <ele>1871</ele>
        <time>2026-06-17T09:47:48.000Z</time>
        <extensions>
          <ns3:TrackPointExtension>
            <ns3:atemp>18.0</ns3:atemp>
          </ns3:TrackPointExtension>
        </extensions>
      </trkpt>
      <trkpt lat="42.51625542528927326202392578125" lon="19.94693540968000888824462890625">
        <ele>1871</ele>
        <time>2026-06-17T09:47:49.000Z</time>
        <extensions>
          <ns3:TrackPointExtension>
            <ns3:atemp>18.0</ns3:atemp>
          </ns3:TrackPointExtension>
        </extensions>
      </trkpt>
      <trkpt lat="42.51623220741748809814453125" lon="19.94694295339286327362060546875">
        <ele>1871</ele>
        <time>2026-06-17T09:47:50.000Z</time>
        <extensions>
          <ns3:TrackPointExtension>
            <ns3:atemp>18.0</ns3:atemp>
          </ns3:TrackPointExtension>
        </extensions>
      </trkpt>
      <trkpt lat="42.5162129290401935577392578125" lon="19.946947395801544189453125">
        <ele>1871.5999755859375</ele>
        <time>2026-06-17T09:47:51.000Z</time>
        <extensions>
          <ns3:TrackPointExtension>
            <ns3:atemp>18.0</ns3:atemp>
          </ns3:TrackPointExtension>
        </extensions>
      </trkpt>
      <trkpt lat="42.51619373448193073272705078125" lon="19.946951754391193389892578125">
        <ele>1871.4000244140625</ele>
        <time>2026-06-17T09:47:52.000Z</time>
        <extensions>
          <ns3:TrackPointExtension>
            <ns3:atemp>18.0</ns3:atemp>
          </ns3:TrackPointExtension>
        </extensions>
      </trkpt>
      <trkpt lat="42.51616909168660640716552734375" lon="19.9469572864472866058349609375">
        <ele>1871.199951171875</ele>
        <time>2026-06-17T09:47:53.000Z</time>
        <extensions>
          <ns3:TrackPointExtension>
            <ns3:atemp>18.0</ns3:atemp>
          </ns3:TrackPointExtension>
        </extensions>
      </trkpt>
      <trkpt lat="42.51614126376807689666748046875" lon="19.946963824331760406494140625">
        <ele>1871.199951171875</ele>
        <time>2026-06-17T09:47:54.000Z</time>
        <extensions>
          <ns3:TrackPointExtension>
            <ns3:atemp>18.0</ns3:atemp>
          </ns3:TrackPointExtension>
        </extensions>
      </trkpt>
      <trkpt lat="42.51610991545021533966064453125" lon="19.94696390815079212188720703125">
        <ele>1870.800048828125</ele>
        <time>2026-06-17T09:47:55.000Z</time>
        <extensions>
          <ns3:TrackPointExtension>
            <ns3:atemp>18.0</ns3:atemp>
          </ns3:TrackPointExtension>
        </extensions>
      </trkpt>
      <trkpt lat="42.51607320271432399749755859375" lon="19.9469676800072193145751953125">
        <ele>1870.5999755859375</ele>
        <time>2026-06-17T09:47:56.000Z</time>
        <extensions>
          <ns3:TrackPointExtension>
            <ns3:atemp>18.0</ns3:atemp>
          </ns3:TrackPointExtension>
        </extensions>
      </trkpt>
      <trkpt lat="42.51604269258677959442138671875" lon="19.94697296060621738433837890625">
        <ele>1870.4000244140625</ele>
        <time>2026-06-17T09:47:57.000Z</time>
        <extensions>
          <ns3:TrackPointExtension>
            <ns3:atemp>18.0</ns3:atemp>
          </ns3:TrackPointExtension>
        </extensions>
      </trkpt>
      <trkpt lat="42.51602240838110446929931640625" lon="19.94697111658751964569091796875">
        <ele>1870.4000244140625</ele>
        <time>2026-06-17T09:47:58.000Z</time>
        <extensions>
          <ns3:TrackPointExtension>
            <ns3:atemp>18.0</ns3:atemp>
          </ns3:TrackPointExtension>
        </extensions>
      </trkpt>
      <trkpt lat="42.516011260449886322021484375" lon="19.9469690211117267608642578125">
        <ele>1870.4000244140625</ele>
        <time>2026-06-17T09:47:59.000Z</time>
        <extensions>
          <ns3:TrackPointExtension>
            <ns3:atemp>18.0</ns3:atemp>
          </ns3:TrackPointExtension>
        </extensions>
      </trkpt>
      <trkpt lat="42.51600086688995361328125" lon="19.9469643272459506988525390625">
        <ele>1870.5999755859375</ele>
        <time>2026-06-17T09:48:00.000Z</time>
        <extensions>
          <ns3:TrackPointExtension>
            <ns3:atemp>18.0</ns3:atemp>
          </ns3:TrackPointExtension>
        </extensions>
      </trkpt>
      <trkpt lat="42.51598971895873546600341796875" lon="19.94696273468434810638427734375">
        <ele>1870.800048828125</ele>
        <time>2026-06-17T09:48:01.000Z</time>
        <extensions>
          <ns3:TrackPointExtension>
            <ns3:atemp>18.0</ns3:atemp>
          </ns3:TrackPointExtension>
        </extensions>
      </trkpt>
      <trkpt lat="42.5159742124378681182861328125" lon="19.9469717033207416534423828125">
        <ele>1871</ele>
        <time>2026-06-17T09:48:02.000Z</time>
        <extensions>
          <ns3:TrackPointExtension>
            <ns3:atemp>18.0</ns3:atemp>
          </ns3:TrackPointExtension>
        </extensions>
      </trkpt>
      <trkpt lat="42.515947557985782623291015625" lon="19.9469809234142303466796875">
        <ele>1871</ele>
        <time>2026-06-17T09:48:03.000Z</time>
        <extensions>
          <ns3:TrackPointExtension>
            <ns3:atemp>18.0</ns3:atemp>
          </ns3:TrackPointExtension>
        </extensions>
      </trkpt>
      <trkpt lat="42.51592107117176055908203125" lon="19.94699592702090740203857421875">
        <ele>1870.800048828125</ele>
        <time>2026-06-17T09:48:04.000Z</time>
        <extensions>
          <ns3:TrackPointExtension>
            <ns3:atemp>18.0</ns3:atemp>
          </ns3:TrackPointExtension>
        </extensions>
      </trkpt>
      <trkpt lat="42.5158820115029811859130859375" lon="19.9470045603811740875244140625">
        <ele>1870.4000244140625</ele>
        <time>2026-06-17T09:48:05.000Z</time>
        <extensions>
          <ns3:TrackPointExtension>
            <ns3:atemp>18.0</ns3:atemp>
          </ns3:TrackPointExtension>
        </extensions>
      </trkpt>
      <trkpt lat="42.51584756188094615936279296875" lon="19.94702174328267574310302734375">
        <ele>1870.199951171875</ele>
        <time>2026-06-17T09:48:06.000Z</time>
        <extensions>
          <ns3:TrackPointExtension>
            <ns3:atemp>18.0</ns3:atemp>
          </ns3:TrackPointExtension>
        </extensions>
      </trkpt>
      <trkpt lat="42.5158085860311985015869140625" lon="19.94703331030905246734619140625">
        <ele>1870</ele>
        <time>2026-06-17T09:48:07.000Z</time>
        <extensions>
          <ns3:TrackPointExtension>
            <ns3:atemp>18.0</ns3:atemp>
          </ns3:TrackPointExtension>
        </extensions>
      </trkpt>
      <trkpt lat="42.5157690234482288360595703125" lon="19.94705258868634700775146484375">
        <ele>1869.5999755859375</ele>
        <time>2026-06-17T09:48:08.000Z</time>
        <extensions>
          <ns3:TrackPointExtension>
            <ns3:atemp>18.0</ns3:atemp>
          </ns3:TrackPointExtension>
        </extensions>
      </trkpt>
      <trkpt lat="42.5157344900071620941162109375" lon="19.94707002304494380950927734375">
        <ele>1869.5999755859375</ele>
        <time>2026-06-17T09:48:09.000Z</time>
        <extensions>
          <ns3:TrackPointExtension>
            <ns3:atemp>18.0</ns3:atemp>
          </ns3:TrackPointExtension>
        </extensions>
      </trkpt>
      <trkpt lat="42.5157058238983154296875" lon="19.94708678685128688812255859375">
        <ele>1869.199951171875</ele>
        <time>2026-06-17T09:48:10.000Z</time>
        <extensions>
          <ns3:TrackPointExtension>
            <ns3:atemp>18.0</ns3:atemp>
          </ns3:TrackPointExtension>
        </extensions>
      </trkpt>
      <trkpt lat="42.5156835280358791351318359375" lon="19.94709667749702930450439453125">
        <ele>1869.199951171875</ele>
        <time>2026-06-17T09:48:11.000Z</time>
        <extensions>
          <ns3:TrackPointExtension>
            <ns3:atemp>18.0</ns3:atemp>
          </ns3:TrackPointExtension>
        </extensions>
      </trkpt>
      <trkpt lat="42.51566215418279170989990234375" lon="19.94710489176213741302490234375">
        <ele>1869.199951171875</ele>
        <time>2026-06-17T09:48:12.000Z</time>
        <extensions>
          <ns3:TrackPointExtension>
            <ns3:atemp>18.0</ns3:atemp>
          </ns3:TrackPointExtension>
        </extensions>
      </trkpt>
      <trkpt lat="42.515641115605831146240234375" lon="19.94710958562791347503662109375">
        <ele>1869.199951171875</ele>
        <time>2026-06-17T09:48:13.000Z</time>
        <extensions>
          <ns3:TrackPointExtension>
            <ns3:atemp>18.0</ns3:atemp>
          </ns3:TrackPointExtension>
        </extensions>
      </trkpt>
      <trkpt lat="42.515621669590473175048828125" lon="19.94711997918784618377685546875">
        <ele>1869.199951171875</ele>
        <time>2026-06-17T09:48:14.000Z</time>
        <extensions>
          <ns3:TrackPointExtension>
            <ns3:atemp>18.0</ns3:atemp>
          </ns3:TrackPointExtension>
        </extensions>
      </trkpt>
      <trkpt lat="42.515603564679622650146484375" lon="19.94713992811739444732666015625">
        <ele>1869.199951171875</ele>
        <time>2026-06-17T09:48:15.000Z</time>
        <extensions>
          <ns3:TrackPointExtension>
            <ns3:atemp>18.0</ns3:atemp>
          </ns3:TrackPointExtension>
        </extensions>
      </trkpt>
      <trkpt lat="42.5155770778656005859375" lon="19.94716239161789417266845703125">
        <ele>1869.199951171875</ele>
        <time>2026-06-17T09:48:16.000Z</time>
        <extensions>
          <ns3:TrackPointExtension>
            <ns3:atemp>18.0</ns3:atemp>
          </ns3:TrackPointExtension>
        </extensions>
      </trkpt>
      <trkpt lat="42.5155484117567539215087890625" lon="19.94718552567064762115478515625">
        <ele>1869</ele>
        <time>2026-06-17T09:48:17.000Z</time>
        <extensions>
          <ns3:TrackPointExtension>
            <ns3:atemp>18.0</ns3:atemp>
          </ns3:TrackPointExtension>
        </extensions>
      </trkpt>
      <trkpt lat="42.51552552916109561920166015625" lon="19.947205223143100738525390625">
        <ele>1869</ele>
        <time>2026-06-17T09:48:18.000Z</time>
        <extensions>
          <ns3:TrackPointExtension>
            <ns3:atemp>18.0</ns3:atemp>
          </ns3:TrackPointExtension>
        </extensions>
      </trkpt>
      <trkpt lat="42.5155048258602619171142578125" lon="19.947219304740428924560546875">
        <ele>1869.199951171875</ele>
        <time>2026-06-17T09:48:19.000Z</time>
        <extensions>
          <ns3:TrackPointExtension>
            <ns3:atemp>18.0</ns3:atemp>
          </ns3:TrackPointExtension>
        </extensions>
      </trkpt>
      <trkpt lat="42.515480518341064453125" lon="19.9472261779010295867919921875">
        <ele>1869.199951171875</ele>
        <time>2026-06-17T09:48:20.000Z</time>
        <extensions>
          <ns3:TrackPointExtension>
            <ns3:atemp>18.0</ns3:atemp>
          </ns3:TrackPointExtension>
        </extensions>
      </trkpt>
      <trkpt lat="42.515451014041900634765625" lon="19.94724134914577007293701171875">
        <ele>1869.199951171875</ele>
        <time>2026-06-17T09:48:21.000Z</time>
        <extensions>
          <ns3:TrackPointExtension>
            <ns3:atemp>18.0</ns3:atemp>
          </ns3:TrackPointExtension>
        </extensions>
      </trkpt>
      <trkpt lat="42.515427209436893463134765625" lon="19.9472533352673053741455078125">
        <ele>1869.199951171875</ele>
        <time>2026-06-17T09:48:22.000Z</time>
        <extensions>
          <ns3:TrackPointExtension>
            <ns3:atemp>18.0</ns3:atemp>
          </ns3:TrackPointExtension>
        </extensions>
      </trkpt>
      <trkpt lat="42.51540449447929859161376953125" lon="19.947269260883331298828125">
        <ele>1869.199951171875</ele>
        <time>2026-06-17T09:48:23.000Z</time>
        <extensions>
          <ns3:TrackPointExtension>
            <ns3:atemp>18.0</ns3:atemp>
          </ns3:TrackPointExtension>
        </extensions>
      </trkpt>
      <trkpt lat="42.51537733711302280426025390625" lon="19.94729449041187763214111328125">
        <ele>1869</ele>
        <time>2026-06-17T09:48:24.000Z</time>
        <extensions>
          <ns3:TrackPointExtension>
            <ns3:atemp>18.0</ns3:atemp>
          </ns3:TrackPointExtension>
        </extensions>
      </trkpt>
      <trkpt lat="42.5153499282896518707275390625" lon="19.94732223451137542724609375">
        <ele>1868.800048828125</ele>
        <time>2026-06-17T09:48:25.000Z</time>
        <extensions>
          <ns3:TrackPointExtension>
            <ns3:atemp>18.0</ns3:atemp>
          </ns3:TrackPointExtension>
        </extensions>
      </trkpt>
      <trkpt lat="42.5153157301247119903564453125" lon="19.94735182262957096099853515625">
        <ele>1868.5999755859375</ele>
        <time>2026-06-17T09:48:26.000Z</time>
        <extensions>
          <ns3:TrackPointExtension>
            <ns3:atemp>18.0</ns3:atemp>
          </ns3:TrackPointExtension>
        </extensions>
      </trkpt>
      <trkpt lat="42.51528748311102390289306640625" lon="19.9473686702549457550048828125">
        <ele>1868.5999755859375</ele>
        <time>2026-06-17T09:48:27.000Z</time>
        <extensions>
          <ns3:TrackPointExtension>
            <ns3:atemp>18.0</ns3:atemp>
          </ns3:TrackPointExtension>
        </extensions>
      </trkpt>
      <trkpt lat="42.51526434905827045440673828125" lon="19.94738526642322540283203125">
        <ele>1868.4000244140625</ele>
        <time>2026-06-17T09:48:28.000Z</time>
        <extensions>
          <ns3:TrackPointExtension>
            <ns3:atemp>18.0</ns3:atemp>
          </ns3:TrackPointExtension>
        </extensions>
      </trkpt>
      <trkpt lat="42.51524305902421474456787109375" lon="19.9474042095243930816650390625">
        <ele>1868.4000244140625</ele>
        <time>2026-06-17T09:48:29.000Z</time>
        <extensions>
          <ns3:TrackPointExtension>
            <ns3:atemp>18.0</ns3:atemp>
          </ns3:TrackPointExtension>
        </extensions>
      </trkpt>
      <trkpt lat="42.5152231939136981964111328125" lon="19.9474166147410869598388671875">
        <ele>1868.4000244140625</ele>
        <time>2026-06-17T09:48:30.000Z</time>
        <extensions>
          <ns3:TrackPointExtension>
            <ns3:atemp>18.0</ns3:atemp>
          </ns3:TrackPointExtension>
        </extensions>
      </trkpt>
      <trkpt lat="42.51521221362054347991943359375" lon="19.94742407463490962982177734375">
        <ele>1868.4000244140625</ele>
        <time>2026-06-17T09:48:31.000Z</time>
        <extensions>
          <ns3:TrackPointExtension>
            <ns3:atemp>18.0</ns3:atemp>
          </ns3:TrackPointExtension>
        </extensions>
      </trkpt>
      <trkpt lat="42.51520047895610332489013671875" lon="19.94743647985160350799560546875">
        <ele>1868.4000244140625</ele>
        <time>2026-06-17T09:48:32.000Z</time>
        <extensions>
          <ns3:TrackPointExtension>
            <ns3:atemp>18.0</ns3:atemp>
          </ns3:TrackPointExtension>
        </extensions>
      </trkpt>
      <trkpt lat="42.515190504491329193115234375" lon="19.9474457837641239166259765625">
        <ele>1868.5999755859375</ele>
        <time>2026-06-17T09:48:33.000Z</time>
        <extensions>
          <ns3:TrackPointExtension>
            <ns3:atemp>18.0</ns3:atemp>
          </ns3:TrackPointExtension>
        </extensions>
      </trkpt>
      <trkpt lat="42.51518773846328258514404296875" lon="19.947451986372470855712890625">
        <ele>1868.5999755859375</ele>
        <time>2026-06-17T09:48:34.000Z</time>
        <extensions>
          <ns3:TrackPointExtension>
            <ns3:atemp>18.0</ns3:atemp>
          </ns3:TrackPointExtension>
        </extensions>
      </trkpt>
      <trkpt lat="42.515191845595836639404296875" lon="19.94744829833507537841796875">
        <ele>1869</ele>
        <time>2026-06-17T09:48:35.000Z</time>
        <extensions>
          <ns3:TrackPointExtension>
            <ns3:atemp>18.0</ns3:atemp>
          </ns3:TrackPointExtension>
        </extensions>
      </trkpt>
      <trkpt lat="42.51519192941486835479736328125" lon="19.9474484659731388092041015625">
        <ele>1869.199951171875</ele>
        <time>2026-06-17T09:48:36.000Z</time>
        <extensions>
          <ns3:TrackPointExtension>
            <ns3:atemp>18.0</ns3:atemp>
          </ns3:TrackPointExtension>
        </extensions>
      </trkpt>
      <trkpt lat="42.5151920132339000701904296875" lon="19.9474488012492656707763671875">
        <ele>1869.4000244140625</ele>
        <time>2026-06-17T09:48:37.000Z</time>
        <extensions>
          <ns3:TrackPointExtension>
            <ns3:atemp>18.0</ns3:atemp>
          </ns3:TrackPointExtension>
        </extensions>
      </trkpt>
      <trkpt lat="42.51518572680652141571044921875" lon="19.9474521540105342864990234375">
        <ele>1869.4000244140625</ele>
        <time>2026-06-17T09:48:38.000Z</time>
        <extensions>
          <ns3:TrackPointExtension>
            <ns3:atemp>18.0</ns3:atemp>
          </ns3:TrackPointExtension>
        </extensions>
      </trkpt>
      <trkpt lat="42.515179105103015899658203125" lon="19.94746061973273754119873046875">
        <ele>1869.5999755859375</ele>
        <time>2026-06-17T09:48:39.000Z</time>
        <extensions>
          <ns3:TrackPointExtension>
            <ns3:atemp>18.0</ns3:atemp>
          </ns3:TrackPointExtension>
        </extensions>
      </trkpt>
      <trkpt lat="42.51518078148365020751953125" lon="19.9474608711898326873779296875">
        <ele>1869.5999755859375</ele>
        <time>2026-06-17T09:48:40.000Z</time>
        <extensions>
          <ns3:TrackPointExtension>
            <ns3:atemp>18.0</ns3:atemp>
          </ns3:TrackPointExtension>
        </extensions>
      </trkpt>
      <trkpt lat="42.51518086530268192291259765625" lon="19.9474610388278961181640625">
        <ele>1869.5999755859375</ele>
        <time>2026-06-17T09:48:41.000Z</time>
        <extensions>
          <ns3:TrackPointExtension>
            <ns3:atemp>18.0</ns3:atemp>
          </ns3:TrackPointExtension>
        </extensions>
      </trkpt>
      <trkpt lat="42.51518086530268192291259765625" lon="19.9474610388278961181640625">
        <ele>1869.5999755859375</ele>
        <time>2026-06-17T09:48:42.000Z</time>
        <extensions>
          <ns3:TrackPointExtension>
            <ns3:atemp>18.0</ns3:atemp>
          </ns3:TrackPointExtension>
        </extensions>
      </trkpt>
      <trkpt lat="42.51518086530268192291259765625" lon="19.9474610388278961181640625">
        <ele>1869.800048828125</ele>
        <time>2026-06-17T09:48:43.000Z</time>
        <extensions>
          <ns3:TrackPointExtension>
            <ns3:atemp>18.0</ns3:atemp>
          </ns3:TrackPointExtension>
        </extensions>
      </trkpt>
      <trkpt lat="42.51518086530268192291259765625" lon="19.94746129028499126434326171875">
        <ele>1869.800048828125</ele>
        <time>2026-06-17T09:48:44.000Z</time>
        <extensions>
          <ns3:TrackPointExtension>
            <ns3:atemp>18.0</ns3:atemp>
          </ns3:TrackPointExtension>
        </extensions>
      </trkpt>
      <trkpt lat="42.51517533324658870697021484375" lon="19.94746849872171878814697265625">
        <ele>1869.800048828125</ele>
        <time>2026-06-17T09:48:45.000Z</time>
        <extensions>
          <ns3:TrackPointExtension>
            <ns3:atemp>18.0</ns3:atemp>
          </ns3:TrackPointExtension>
        </extensions>
      </trkpt>
      <trkpt lat="42.51518086530268192291259765625" lon="19.9474610388278961181640625">
        <ele>1869.800048828125</ele>
        <time>2026-06-17T09:48:46.000Z</time>
        <extensions>
          <ns3:TrackPointExtension>
            <ns3:atemp>18.0</ns3:atemp>
          </ns3:TrackPointExtension>
        </extensions>
      </trkpt>
      <trkpt lat="42.51518086530268192291259765625" lon="19.9474610388278961181640625">
        <ele>1869.800048828125</ele>
        <time>2026-06-17T09:48:47.000Z</time>
        <extensions>
          <ns3:TrackPointExtension>
            <ns3:atemp>18.0</ns3:atemp>
          </ns3:TrackPointExtension>
        </extensions>
      </trkpt>
      <trkpt lat="42.51518086530268192291259765625" lon="19.9474610388278961181640625">
        <ele>1869.800048828125</ele>
        <time>2026-06-17T09:48:48.000Z</time>
        <extensions>
          <ns3:TrackPointExtension>
            <ns3:atemp>18.0</ns3:atemp>
          </ns3:TrackPointExtension>
        </extensions>
      </trkpt>
      <trkpt lat="42.51518086530268192291259765625" lon="19.9474610388278961181640625">
        <ele>1869.800048828125</ele>
        <time>2026-06-17T09:48:49.000Z</time>
        <extensions>
          <ns3:TrackPointExtension>
            <ns3:atemp>18.0</ns3:atemp>
          </ns3:TrackPointExtension>
        </extensions>
      </trkpt>
      <trkpt lat="42.51518086530268192291259765625" lon="19.9474610388278961181640625">
        <ele>1869.800048828125</ele>
        <time>2026-06-17T09:48:50.000Z</time>
        <extensions>
          <ns3:TrackPointExtension>
            <ns3:atemp>18.0</ns3:atemp>
          </ns3:TrackPointExtension>
        </extensions>
      </trkpt>
      <trkpt lat="42.51518086530268192291259765625" lon="19.9474610388278961181640625">
        <ele>1869.5999755859375</ele>
        <time>2026-06-17T09:48:51.000Z</time>
        <extensions>
          <ns3:TrackPointExtension>
            <ns3:atemp>18.0</ns3:atemp>
          </ns3:TrackPointExtension>
        </extensions>
      </trkpt>
      <trkpt lat="42.51518086530268192291259765625" lon="19.9474610388278961181640625">
        <ele>1869.5999755859375</ele>
        <time>2026-06-17T09:48:52.000Z</time>
        <extensions>
          <ns3:TrackPointExtension>
            <ns3:atemp>18.0</ns3:atemp>
          </ns3:TrackPointExtension>
        </extensions>
      </trkpt>
      <trkpt lat="42.51518086530268192291259765625" lon="19.9474610388278961181640625">
        <ele>1869.4000244140625</ele>
        <time>2026-06-17T09:48:53.000Z</time>
        <extensions>
          <ns3:TrackPointExtension>
            <ns3:atemp>18.0</ns3:atemp>
          </ns3:TrackPointExtension>
        </extensions>
      </trkpt>
      <trkpt lat="42.51518086530268192291259765625" lon="19.9474610388278961181640625">
        <ele>1869.4000244140625</ele>
        <time>2026-06-17T09:48:54.000Z</time>
        <extensions>
          <ns3:TrackPointExtension>
            <ns3:atemp>18.0</ns3:atemp>
          </ns3:TrackPointExtension>
        </extensions>
      </trkpt>
      <trkpt lat="42.51518086530268192291259765625" lon="19.9474610388278961181640625">
        <ele>1869.5999755859375</ele>
        <time>2026-06-17T09:48:55.000Z</time>
        <extensions>
          <ns3:TrackPointExtension>
            <ns3:atemp>18.0</ns3:atemp>
          </ns3:TrackPointExtension>
        </extensions>
      </trkpt>
      <trkpt lat="42.51518086530268192291259765625" lon="19.9474610388278961181640625">
        <ele>1869.5999755859375</ele>
        <time>2026-06-17T09:48:56.000Z</time>
        <extensions>
          <ns3:TrackPointExtension>
            <ns3:atemp>18.0</ns3:atemp>
          </ns3:TrackPointExtension>
        </extensions>
      </trkpt>
      <trkpt lat="42.51518086530268192291259765625" lon="19.9474610388278961181640625">
        <ele>1869.800048828125</ele>
        <time>2026-06-17T09:48:57.000Z</time>
        <extensions>
          <ns3:TrackPointExtension>
            <ns3:atemp>18.0</ns3:atemp>
          </ns3:TrackPointExtension>
        </extensions>
      </trkpt>
      <trkpt lat="42.51518086530268192291259765625" lon="19.9474610388278961181640625">
        <ele>1869.800048828125</ele>
        <time>2026-06-17T09:48:58.000Z</time>
        <extensions>
          <ns3:TrackPointExtension>
            <ns3:atemp>18.0</ns3:atemp>
          </ns3:TrackPointExtension>
        </extensions>
      </trkpt>
      <trkpt lat="42.5151692144572734832763671875" lon="19.94747067801654338836669921875">
        <ele>1870</ele>
        <time>2026-06-17T09:48:59.000Z</time>
        <extensions>
          <ns3:TrackPointExtension>
            <ns3:atemp>18.0</ns3:atemp>
          </ns3:TrackPointExtension>
        </extensions>
      </trkpt>
      <trkpt lat="42.51516896300017833709716796875" lon="19.94747118093073368072509765625">
        <ele>1870</ele>
        <time>2026-06-17T09:49:00.000Z</time>
        <extensions>
          <ns3:TrackPointExtension>
            <ns3:atemp>18.0</ns3:atemp>
          </ns3:TrackPointExtension>
        </extensions>
      </trkpt>
      <trkpt lat="42.51516896300017833709716796875" lon="19.94747118093073368072509765625">
        <ele>1870.199951171875</ele>
        <time>2026-06-17T09:49:01.000Z</time>
        <extensions>
          <ns3:TrackPointExtension>
            <ns3:atemp>18.0</ns3:atemp>
          </ns3:TrackPointExtension>
        </extensions>
      </trkpt>
      <trkpt lat="42.51516896300017833709716796875" lon="19.94747118093073368072509765625">
        <ele>1870.199951171875</ele>
        <time>2026-06-17T09:49:02.000Z</time>
        <extensions>
          <ns3:TrackPointExtension>
            <ns3:atemp>18.0</ns3:atemp>
          </ns3:TrackPointExtension>
        </extensions>
      </trkpt>
      <trkpt lat="42.51516896300017833709716796875" lon="19.94747118093073368072509765625">
        <ele>1870.199951171875</ele>
        <time>2026-06-17T09:49:03.000Z</time>
        <extensions>
          <ns3:TrackPointExtension>
            <ns3:atemp>18.0</ns3:atemp>
          </ns3:TrackPointExtension>
        </extensions>
      </trkpt>
      <trkpt lat="42.51516896300017833709716796875" lon="19.94747118093073368072509765625">
        <ele>1870.199951171875</ele>
        <time>2026-06-17T09:49:04.000Z</time>
        <extensions>
          <ns3:TrackPointExtension>
            <ns3:atemp>18.0</ns3:atemp>
          </ns3:TrackPointExtension>
        </extensions>
      </trkpt>
      <trkpt lat="42.51516896300017833709716796875" lon="19.94747118093073368072509765625">
        <ele>1870.199951171875</ele>
        <time>2026-06-17T09:49:05.000Z</time>
        <extensions>
          <ns3:TrackPointExtension>
            <ns3:atemp>18.0</ns3:atemp>
          </ns3:TrackPointExtension>
        </extensions>
      </trkpt>
      <trkpt lat="42.51516896300017833709716796875" lon="19.94747118093073368072509765625">
        <ele>1870.199951171875</ele>
        <time>2026-06-17T09:49:06.000Z</time>
        <extensions>
          <ns3:TrackPointExtension>
            <ns3:atemp>18.0</ns3:atemp>
          </ns3:TrackPointExtension>
        </extensions>
      </trkpt>
      <trkpt lat="42.51516678370535373687744140625" lon="19.9474736116826534271240234375">
        <ele>1870.199951171875</ele>
        <time>2026-06-17T09:49:07.000Z</time>
        <extensions>
          <ns3:TrackPointExtension>
            <ns3:atemp>18.0</ns3:atemp>
          </ns3:TrackPointExtension>
        </extensions>
      </trkpt>
      <trkpt lat="42.51515588723123073577880859375" lon="19.9474900402128696441650390625">
        <ele>1870.199951171875</ele>
        <time>2026-06-17T09:49:08.000Z</time>
        <extensions>
          <ns3:TrackPointExtension>
            <ns3:atemp>18.0</ns3:atemp>
          </ns3:TrackPointExtension>
        </extensions>
      </trkpt>
      <trkpt lat="42.515155635774135589599609375" lon="19.9474903754889965057373046875">
        <ele>1870.199951171875</ele>
        <time>2026-06-17T09:49:09.000Z</time>
        <extensions>
          <ns3:TrackPointExtension>
            <ns3:atemp>18.0</ns3:atemp>
          </ns3:TrackPointExtension>
        </extensions>
      </trkpt>
      <trkpt lat="42.51515538431704044342041015625" lon="19.94749079458415508270263671875">
        <ele>1870</ele>
        <time>2026-06-17T09:49:10.000Z</time>
        <extensions>
          <ns3:TrackPointExtension>
            <ns3:atemp>18.0</ns3:atemp>
          </ns3:TrackPointExtension>
        </extensions>
      </trkpt>
      <trkpt lat="42.515140883624553680419921875" lon="19.94750923477113246917724609375">
        <ele>1870</ele>
        <time>2026-06-17T09:49:11.000Z</time>
        <extensions>
          <ns3:TrackPointExtension>
            <ns3:atemp>18.0</ns3:atemp>
          </ns3:TrackPointExtension>
        </extensions>
      </trkpt>
      <trkpt lat="42.51513183116912841796875" lon="19.94752340018749237060546875">
        <ele>1869.800048828125</ele>
        <time>2026-06-17T09:49:12.000Z</time>
        <extensions>
          <ns3:TrackPointExtension>
            <ns3:atemp>18.0</ns3:atemp>
          </ns3:TrackPointExtension>
        </extensions>
      </trkpt>
      <trkpt lat="42.51512839458882808685302734375" lon="19.94753102771937847137451171875">
        <ele>1869.5999755859375</ele>
        <time>2026-06-17T09:49:13.000Z</time>
        <extensions>
          <ns3:TrackPointExtension>
            <ns3:atemp>18.0</ns3:atemp>
          </ns3:TrackPointExtension>
        </extensions>
      </trkpt>
      <trkpt lat="42.5151283107697963714599609375" lon="19.94753144681453704833984375">
        <ele>1869.5999755859375</ele>
        <time>2026-06-17T09:49:14.000Z</time>
        <extensions>
          <ns3:TrackPointExtension>
            <ns3:atemp>18.0</ns3:atemp>
          </ns3:TrackPointExtension>
        </extensions>
      </trkpt>
      <trkpt lat="42.51512839458882808685302734375" lon="19.94753153063356876373291015625">
        <ele>1869.5999755859375</ele>
        <time>2026-06-17T09:49:15.000Z</time>
        <extensions>
          <ns3:TrackPointExtension>
            <ns3:atemp>18.0</ns3:atemp>
          </ns3:TrackPointExtension>
        </extensions>
      </trkpt>
      <trkpt lat="42.51512839458882808685302734375" lon="19.94753153063356876373291015625">
        <ele>1869.5999755859375</ele>
        <time>2026-06-17T09:49:16.000Z</time>
        <extensions>
          <ns3:TrackPointExtension>
            <ns3:atemp>18.0</ns3:atemp>
          </ns3:TrackPointExtension>
        </extensions>
      </trkpt>
      <trkpt lat="42.51512839458882808685302734375" lon="19.94753153063356876373291015625">
        <ele>1869.5999755859375</ele>
        <time>2026-06-17T09:49:17.000Z</time>
        <extensions>
          <ns3:TrackPointExtension>
            <ns3:atemp>18.0</ns3:atemp>
          </ns3:TrackPointExtension>
        </extensions>
      </trkpt>
      <trkpt lat="42.51512839458882808685302734375" lon="19.94753153063356876373291015625">
        <ele>1869.5999755859375</ele>
        <time>2026-06-17T09:49:18.000Z</time>
        <extensions>
          <ns3:TrackPointExtension>
            <ns3:atemp>18.0</ns3:atemp>
          </ns3:TrackPointExtension>
        </extensions>
      </trkpt>
      <trkpt lat="42.51512839458882808685302734375" lon="19.94753153063356876373291015625">
        <ele>1869.5999755859375</ele>
        <time>2026-06-17T09:49:19.000Z</time>
        <extensions>
          <ns3:TrackPointExtension>
            <ns3:atemp>18.0</ns3:atemp>
          </ns3:TrackPointExtension>
        </extensions>
      </trkpt>
      <trkpt lat="42.515128143131732940673828125" lon="19.9475322850048542022705078125">
        <ele>1869.5999755859375</ele>
        <time>2026-06-17T09:49:20.000Z</time>
        <extensions>
          <ns3:TrackPointExtension>
            <ns3:atemp>18.0</ns3:atemp>
          </ns3:TrackPointExtension>
        </extensions>
      </trkpt>
      <trkpt lat="42.51511950977146625518798828125" lon="19.94754645042121410369873046875">
        <ele>1869.4000244140625</ele>
        <time>2026-06-17T09:49:21.000Z</time>
        <extensions>
          <ns3:TrackPointExtension>
            <ns3:atemp>18.0</ns3:atemp>
          </ns3:TrackPointExtension>
        </extensions>
      </trkpt>
      <trkpt lat="42.51511297188699245452880859375" lon="19.94756363332271575927734375">
        <ele>1869.199951171875</ele>
        <time>2026-06-17T09:49:22.000Z</time>
        <extensions>
          <ns3:TrackPointExtension>
            <ns3:atemp>18.0</ns3:atemp>
          </ns3:TrackPointExtension>
        </extensions>
      </trkpt>
      <trkpt lat="42.51510106958448886871337890625" lon="19.94757880456745624542236328125">
        <ele>1869.199951171875</ele>
        <time>2026-06-17T09:49:23.000Z</time>
        <extensions>
          <ns3:TrackPointExtension>
            <ns3:atemp>18.0</ns3:atemp>
          </ns3:TrackPointExtension>
        </extensions>
      </trkpt>
      <trkpt lat="42.5150864012539386749267578125" lon="19.94759447872638702392578125">
        <ele>1869.199951171875</ele>
        <time>2026-06-17T09:49:24.000Z</time>
        <extensions>
          <ns3:TrackPointExtension>
            <ns3:atemp>18.0</ns3:atemp>
          </ns3:TrackPointExtension>
        </extensions>
      </trkpt>
      <trkpt lat="42.515075504779815673828125" lon="19.9476067163050174713134765625">
        <ele>1869.199951171875</ele>
        <time>2026-06-17T09:49:25.000Z</time>
        <extensions>
          <ns3:TrackPointExtension>
            <ns3:atemp>18.0</ns3:atemp>
          </ns3:TrackPointExtension>
        </extensions>
      </trkpt>
      <trkpt lat="42.5150636024773120880126953125" lon="19.9476218037307262420654296875">
        <ele>1869.199951171875</ele>
        <time>2026-06-17T09:49:26.000Z</time>
        <extensions>
          <ns3:TrackPointExtension>
            <ns3:atemp>18.0</ns3:atemp>
          </ns3:TrackPointExtension>
        </extensions>
      </trkpt>
      <trkpt lat="42.51505614258348941802978515625" lon="19.9476301856338977813720703125">
        <ele>1869.4000244140625</ele>
        <time>2026-06-17T09:49:27.000Z</time>
        <extensions>
          <ns3:TrackPointExtension>
            <ns3:atemp>18.0</ns3:atemp>
          </ns3:TrackPointExtension>
        </extensions>
      </trkpt>
      <trkpt lat="42.51505094580352306365966796875" lon="19.94764141738414764404296875">
        <ele>1869.5999755859375</ele>
        <time>2026-06-17T09:49:28.000Z</time>
        <extensions>
          <ns3:TrackPointExtension>
            <ns3:atemp>18.0</ns3:atemp>
          </ns3:TrackPointExtension>
        </extensions>
      </trkpt>
      <trkpt lat="42.5150424800813198089599609375" lon="19.9476513080298900604248046875">
        <ele>1869.5999755859375</ele>
        <time>2026-06-17T09:49:29.000Z</time>
        <extensions>
          <ns3:TrackPointExtension>
            <ns3:atemp>18.0</ns3:atemp>
          </ns3:TrackPointExtension>
        </extensions>
      </trkpt>
      <trkpt lat="42.51503250561654567718505859375" lon="19.94766497053205966949462890625">
        <ele>1869.800048828125</ele>
        <time>2026-06-17T09:49:30.000Z</time>
        <extensions>
          <ns3:TrackPointExtension>
            <ns3:atemp>18.0</ns3:atemp>
          </ns3:TrackPointExtension>
        </extensions>
      </trkpt>
      <trkpt lat="42.51502387225627899169921875" lon="19.94767519645392894744873046875">
        <ele>1869.800048828125</ele>
        <time>2026-06-17T09:49:31.000Z</time>
        <extensions>
          <ns3:TrackPointExtension>
            <ns3:atemp>18.0</ns3:atemp>
          </ns3:TrackPointExtension>
        </extensions>
      </trkpt>
      <trkpt lat="42.5150099582970142364501953125" lon="19.94768969714641571044921875">
        <ele>1870</ele>
        <time>2026-06-17T09:49:32.000Z</time>
        <extensions>
          <ns3:TrackPointExtension>
            <ns3:atemp>18.0</ns3:atemp>
          </ns3:TrackPointExtension>
        </extensions>
      </trkpt>
      <trkpt lat="42.51499294303357601165771484375" lon="19.94770470075309276580810546875">
        <ele>1870</ele>
        <time>2026-06-17T09:49:33.000Z</time>
        <extensions>
          <ns3:TrackPointExtension>
            <ns3:atemp>18.0</ns3:atemp>
          </ns3:TrackPointExtension>
        </extensions>
      </trkpt>
      <trkpt lat="42.51498120836913585662841796875" lon="19.9477227218449115753173828125">
        <ele>1870.199951171875</ele>
        <time>2026-06-17T09:49:34.000Z</time>
        <extensions>
          <ns3:TrackPointExtension>
            <ns3:atemp>18.0</ns3:atemp>
          </ns3:TrackPointExtension>
        </extensions>
      </trkpt>
      <trkpt lat="42.51497299410402774810791015625" lon="19.94774065911769866943359375">
        <ele>1870.4000244140625</ele>
        <time>2026-06-17T09:49:35.000Z</time>
        <extensions>
          <ns3:TrackPointExtension>
            <ns3:atemp>18.0</ns3:atemp>
          </ns3:TrackPointExtension>
        </extensions>
      </trkpt>
      <trkpt lat="42.51496176235377788543701171875" lon="19.947760105133056640625">
        <ele>1870.5999755859375</ele>
        <time>2026-06-17T09:49:36.000Z</time>
        <extensions>
          <ns3:TrackPointExtension>
            <ns3:atemp>18.0</ns3:atemp>
          </ns3:TrackPointExtension>
        </extensions>
      </trkpt>
      <trkpt lat="42.514951117336750030517578125" lon="19.9477679841220378875732421875">
        <ele>1870.800048828125</ele>
        <time>2026-06-17T09:49:37.000Z</time>
        <extensions>
          <ns3:TrackPointExtension>
            <ns3:atemp>18.0</ns3:atemp>
          </ns3:TrackPointExtension>
        </extensions>
      </trkpt>
      <trkpt lat="42.51493913121521472930908203125" lon="19.94778089225292205810546875">
        <ele>1871.199951171875</ele>
        <time>2026-06-17T09:49:38.000Z</time>
        <extensions>
          <ns3:TrackPointExtension>
            <ns3:atemp>18.0</ns3:atemp>
          </ns3:TrackPointExtension>
        </extensions>
      </trkpt>
      <trkpt lat="42.51492731273174285888671875" lon="19.94779698550701141357421875">
        <ele>1871.4000244140625</ele>
        <time>2026-06-17T09:49:39.000Z</time>
        <extensions>
          <ns3:TrackPointExtension>
            <ns3:atemp>18.0</ns3:atemp>
          </ns3:TrackPointExtension>
        </extensions>
      </trkpt>
      <trkpt lat="42.51491499133408069610595703125" lon="19.9478095583617687225341796875">
        <ele>1871.5999755859375</ele>
        <time>2026-06-17T09:49:40.000Z</time>
        <extensions>
          <ns3:TrackPointExtension>
            <ns3:atemp>18.0</ns3:atemp>
          </ns3:TrackPointExtension>
        </extensions>
      </trkpt>
      <trkpt lat="42.51490183174610137939453125" lon="19.94781844317913055419921875">
        <ele>1871.800048828125</ele>
        <time>2026-06-17T09:49:41.000Z</time>
        <extensions>
          <ns3:TrackPointExtension>
            <ns3:atemp>18.0</ns3:atemp>
          </ns3:TrackPointExtension>
        </extensions>
      </trkpt>
      <trkpt lat="42.5149060226976871490478515625" lon="19.94781819172203540802001953125">
        <ele>1872</ele>
        <time>2026-06-17T09:49:42.000Z</time>
        <extensions>
          <ns3:TrackPointExtension>
            <ns3:atemp>18.0</ns3:atemp>
          </ns3:TrackPointExtension>
        </extensions>
      </trkpt>
      <trkpt lat="42.51490593887865543365478515625" lon="19.9478182755410671234130859375">
        <ele>1872.199951171875</ele>
        <time>2026-06-17T09:49:43.000Z</time>
        <extensions>
          <ns3:TrackPointExtension>
            <ns3:atemp>18.0</ns3:atemp>
          </ns3:TrackPointExtension>
        </extensions>
      </trkpt>
      <trkpt lat="42.51490593887865543365478515625" lon="19.9478182755410671234130859375">
        <ele>1872.4000244140625</ele>
        <time>2026-06-17T09:49:44.000Z</time>
        <extensions>
          <ns3:TrackPointExtension>
            <ns3:atemp>18.0</ns3:atemp>
          </ns3:TrackPointExtension>
        </extensions>
      </trkpt>
      <trkpt lat="42.51490593887865543365478515625" lon="19.9478182755410671234130859375">
        <ele>1872.4000244140625</ele>
        <time>2026-06-17T09:49:45.000Z</time>
        <extensions>
          <ns3:TrackPointExtension>
            <ns3:atemp>18.0</ns3:atemp>
          </ns3:TrackPointExtension>
        </extensions>
      </trkpt>
      <trkpt lat="42.51490593887865543365478515625" lon="19.9478182755410671234130859375">
        <ele>1872.5999755859375</ele>
        <time>2026-06-17T09:49:46.000Z</time>
        <extensions>
          <ns3:TrackPointExtension>
            <ns3:atemp>18.0</ns3:atemp>
          </ns3:TrackPointExtension>
        </extensions>
      </trkpt>
      <trkpt lat="42.51490593887865543365478515625" lon="19.9478182755410671234130859375">
        <ele>1872.5999755859375</ele>
        <time>2026-06-17T09:49:47.000Z</time>
        <extensions>
          <ns3:TrackPointExtension>
            <ns3:atemp>18.0</ns3:atemp>
          </ns3:TrackPointExtension>
        </extensions>
      </trkpt>
      <trkpt lat="42.51490593887865543365478515625" lon="19.9478182755410671234130859375">
        <ele>1872.5999755859375</ele>
        <time>2026-06-17T09:49:48.000Z</time>
        <extensions>
          <ns3:TrackPointExtension>
            <ns3:atemp>18.0</ns3:atemp>
          </ns3:TrackPointExtension>
        </extensions>
      </trkpt>
      <trkpt lat="42.51490577124059200286865234375" lon="19.947818778455257415771484375">
        <ele>1872.5999755859375</ele>
        <time>2026-06-17T09:49:49.000Z</time>
        <extensions>
          <ns3:TrackPointExtension>
            <ns3:atemp>18.0</ns3:atemp>
          </ns3:TrackPointExtension>
        </extensions>
      </trkpt>
      <trkpt lat="42.51489755697548389434814453125" lon="19.947829507291316986083984375">
        <ele>1872.5999755859375</ele>
        <time>2026-06-17T09:49:50.000Z</time>
        <extensions>
          <ns3:TrackPointExtension>
            <ns3:atemp>18.0</ns3:atemp>
          </ns3:TrackPointExtension>
        </extensions>
      </trkpt>
      <trkpt lat="42.5148869119584560394287109375" lon="19.94783914647996425628662109375">
        <ele>1872.5999755859375</ele>
        <time>2026-06-17T09:49:51.000Z</time>
        <extensions>
          <ns3:TrackPointExtension>
            <ns3:atemp>18.0</ns3:atemp>
          </ns3:TrackPointExtension>
        </extensions>
      </trkpt>
      <trkpt lat="42.514886744320392608642578125" lon="19.9478414095938205718994140625">
        <ele>1872.5999755859375</ele>
        <time>2026-06-17T09:49:52.000Z</time>
        <extensions>
          <ns3:TrackPointExtension>
            <ns3:atemp>18.0</ns3:atemp>
          </ns3:TrackPointExtension>
        </extensions>
      </trkpt>
      <trkpt lat="42.51488666050136089324951171875" lon="19.94784149341285228729248046875">
        <ele>1872.5999755859375</ele>
        <time>2026-06-17T09:49:53.000Z</time>
        <extensions>
          <ns3:TrackPointExtension>
            <ns3:atemp>18.0</ns3:atemp>
          </ns3:TrackPointExtension>
        </extensions>
      </trkpt>
      <trkpt lat="42.51487961970269680023193359375" lon="19.94785205461084842681884765625">
        <ele>1872.5999755859375</ele>
        <time>2026-06-17T09:49:54.000Z</time>
        <extensions>
          <ns3:TrackPointExtension>
            <ns3:atemp>18.0</ns3:atemp>
          </ns3:TrackPointExtension>
        </extensions>
      </trkpt>
      <trkpt lat="42.5148718245327472686767578125" lon="19.9478678964078426361083984375">
        <ele>1872.5999755859375</ele>
        <time>2026-06-17T09:49:55.000Z</time>
        <extensions>
          <ns3:TrackPointExtension>
            <ns3:atemp>18.0</ns3:atemp>
          </ns3:TrackPointExtension>
        </extensions>
      </trkpt>
      <trkpt lat="42.514861263334751129150390625" lon="19.947887174785137176513671875">
        <ele>1872.5999755859375</ele>
        <time>2026-06-17T09:49:56.000Z</time>
        <extensions>
          <ns3:TrackPointExtension>
            <ns3:atemp>18.0</ns3:atemp>
          </ns3:TrackPointExtension>
        </extensions>
      </trkpt>
      <trkpt lat="42.5148523785173892974853515625" lon="19.94789463467895984649658203125">
        <ele>1872.5999755859375</ele>
        <time>2026-06-17T09:49:57.000Z</time>
        <extensions>
          <ns3:TrackPointExtension>
            <ns3:atemp>18.0</ns3:atemp>
          </ns3:TrackPointExtension>
        </extensions>
      </trkpt>
      <trkpt lat="42.514844499528408050537109375" lon="19.9478984065353870391845703125">
        <ele>1872.5999755859375</ele>
        <time>2026-06-17T09:49:58.000Z</time>
        <extensions>
          <ns3:TrackPointExtension>
            <ns3:atemp>18.0</ns3:atemp>
          </ns3:TrackPointExtension>
        </extensions>
      </trkpt>
      <trkpt lat="42.51483745872974395751953125" lon="19.94790402241051197052001953125">
        <ele>1872.5999755859375</ele>
        <time>2026-06-17T09:49:59.000Z</time>
        <extensions>
          <ns3:TrackPointExtension>
            <ns3:atemp>18.0</ns3:atemp>
          </ns3:TrackPointExtension>
        </extensions>
      </trkpt>
      <trkpt lat="42.51482807099819183349609375" lon="19.94791005738079547882080078125">
        <ele>1872.5999755859375</ele>
        <time>2026-06-17T09:50:00.000Z</time>
        <extensions>
          <ns3:TrackPointExtension>
            <ns3:atemp>18.0</ns3:atemp>
          </ns3:TrackPointExtension>
        </extensions>
      </trkpt>
      <trkpt lat="42.51482178457081317901611328125" lon="19.94791491888463497161865234375">
        <ele>1872.800048828125</ele>
        <time>2026-06-17T09:50:01.000Z</time>
        <extensions>
          <ns3:TrackPointExtension>
            <ns3:atemp>18.0</ns3:atemp>
          </ns3:TrackPointExtension>
        </extensions>
      </trkpt>
      <trkpt lat="42.51482136547565460205078125" lon="19.9479171819984912872314453125">
        <ele>1873</ele>
        <time>2026-06-17T09:50:02.000Z</time>
        <extensions>
          <ns3:TrackPointExtension>
            <ns3:atemp>18.0</ns3:atemp>
          </ns3:TrackPointExtension>
        </extensions>
      </trkpt>
      <trkpt lat="42.51482136547565460205078125" lon="19.9479171819984912872314453125">
        <ele>1873</ele>
        <time>2026-06-17T09:50:03.000Z</time>
        <extensions>
          <ns3:TrackPointExtension>
            <ns3:atemp>18.0</ns3:atemp>
          </ns3:TrackPointExtension>
        </extensions>
      </trkpt>
      <trkpt lat="42.51482128165662288665771484375" lon="19.94791743345558643341064453125">
        <ele>1873.199951171875</ele>
        <time>2026-06-17T09:50:04.000Z</time>
        <extensions>
          <ns3:TrackPointExtension>
            <ns3:atemp>18.0</ns3:atemp>
          </ns3:TrackPointExtension>
        </extensions>
      </trkpt>
      <trkpt lat="42.51482136547565460205078125" lon="19.9479171819984912872314453125">
        <ele>1873.199951171875</ele>
        <time>2026-06-17T09:50:05.000Z</time>
        <extensions>
          <ns3:TrackPointExtension>
            <ns3:atemp>18.0</ns3:atemp>
          </ns3:TrackPointExtension>
        </extensions>
      </trkpt>
      <trkpt lat="42.51482136547565460205078125" lon="19.9479171819984912872314453125">
        <ele>1873.199951171875</ele>
        <time>2026-06-17T09:50:06.000Z</time>
        <extensions>
          <ns3:TrackPointExtension>
            <ns3:atemp>18.0</ns3:atemp>
          </ns3:TrackPointExtension>
        </extensions>
      </trkpt>
      <trkpt lat="42.51482136547565460205078125" lon="19.9479171819984912872314453125">
        <ele>1873.4000244140625</ele>
        <time>2026-06-17T09:50:07.000Z</time>
        <extensions>
          <ns3:TrackPointExtension>
            <ns3:atemp>18.0</ns3:atemp>
          </ns3:TrackPointExtension>
        </extensions>
      </trkpt>
      <trkpt lat="42.514819018542766571044921875" lon="19.94792212732136249542236328125">
        <ele>1873.4000244140625</ele>
        <time>2026-06-17T09:50:08.000Z</time>
        <extensions>
          <ns3:TrackPointExtension>
            <ns3:atemp>18.0</ns3:atemp>
          </ns3:TrackPointExtension>
        </extensions>
      </trkpt>
      <trkpt lat="42.5148104690015316009521484375" lon="19.94793738238513469696044921875">
        <ele>1873.5999755859375</ele>
        <time>2026-06-17T09:50:09.000Z</time>
        <extensions>
          <ns3:TrackPointExtension>
            <ns3:atemp>18.0</ns3:atemp>
          </ns3:TrackPointExtension>
        </extensions>
      </trkpt>
      <trkpt lat="42.514801584184169769287109375" lon="19.94794643484055995941162109375">
        <ele>1873.5999755859375</ele>
        <time>2026-06-17T09:50:10.000Z</time>
        <extensions>
          <ns3:TrackPointExtension>
            <ns3:atemp>18.0</ns3:atemp>
          </ns3:TrackPointExtension>
        </extensions>
      </trkpt>
      <trkpt lat="42.51479320228099822998046875" lon="19.94795716367661952972412109375">
        <ele>1873.5999755859375</ele>
        <time>2026-06-17T09:50:11.000Z</time>
        <extensions>
          <ns3:TrackPointExtension>
            <ns3:atemp>18.0</ns3:atemp>
          </ns3:TrackPointExtension>
        </extensions>
      </trkpt>
      <trkpt lat="42.51478440128266811370849609375" lon="19.9479728378355503082275390625">
        <ele>1873.800048828125</ele>
        <time>2026-06-17T09:50:12.000Z</time>
        <extensions>
          <ns3:TrackPointExtension>
            <ns3:atemp>18.0</ns3:atemp>
          </ns3:TrackPointExtension>
        </extensions>
      </trkpt>
      <trkpt lat="42.51477467827498912811279296875" lon="19.947989769279956817626953125">
        <ele>1873.800048828125</ele>
        <time>2026-06-17T09:50:13.000Z</time>
        <extensions>
          <ns3:TrackPointExtension>
            <ns3:atemp>18.0</ns3:atemp>
          </ns3:TrackPointExtension>
        </extensions>
      </trkpt>
      <trkpt lat="42.51476705074310302734375" lon="19.94800083339214324951171875">
        <ele>1874</ele>
        <time>2026-06-17T09:50:14.000Z</time>
        <extensions>
          <ns3:TrackPointExtension>
            <ns3:atemp>18.0</ns3:atemp>
          </ns3:TrackPointExtension>
        </extensions>
      </trkpt>
      <trkpt lat="42.51475875265896320343017578125" lon="19.948011897504329681396484375">
        <ele>1874</ele>
        <time>2026-06-17T09:50:15.000Z</time>
        <extensions>
          <ns3:TrackPointExtension>
            <ns3:atemp>18.0</ns3:atemp>
          </ns3:TrackPointExtension>
        </extensions>
      </trkpt>
      <trkpt lat="42.5147497840225696563720703125" lon="19.948025979101657867431640625">
        <ele>1874.199951171875</ele>
        <time>2026-06-17T09:50:16.000Z</time>
        <extensions>
          <ns3:TrackPointExtension>
            <ns3:atemp>18.0</ns3:atemp>
          </ns3:TrackPointExtension>
        </extensions>
      </trkpt>
      <trkpt lat="42.51473461277782917022705078125" lon="19.948041401803493499755859375">
        <ele>1874.4000244140625</ele>
        <time>2026-06-17T09:50:17.000Z</time>
        <extensions>
          <ns3:TrackPointExtension>
            <ns3:atemp>18.0</ns3:atemp>
          </ns3:TrackPointExtension>
        </extensions>
      </trkpt>
      <trkpt lat="42.51472237519919872283935546875" lon="19.94805305264890193939208984375">
        <ele>1874.4000244140625</ele>
        <time>2026-06-17T09:50:18.000Z</time>
        <extensions>
          <ns3:TrackPointExtension>
            <ns3:atemp>18.0</ns3:atemp>
          </ns3:TrackPointExtension>
        </extensions>
      </trkpt>
      <trkpt lat="42.51471013762056827545166015625" lon="19.94806696660816669464111328125">
        <ele>1874.5999755859375</ele>
        <time>2026-06-17T09:50:19.000Z</time>
        <extensions>
          <ns3:TrackPointExtension>
            <ns3:atemp>18.0</ns3:atemp>
          </ns3:TrackPointExtension>
        </extensions>
      </trkpt>
      <trkpt lat="42.51469454728066921234130859375" lon="19.94808037765324115753173828125">
        <ele>1874.800048828125</ele>
        <time>2026-06-17T09:50:20.000Z</time>
        <extensions>
          <ns3:TrackPointExtension>
            <ns3:atemp>18.0</ns3:atemp>
          </ns3:TrackPointExtension>
        </extensions>
      </trkpt>
      <trkpt lat="42.51468314789235591888427734375" lon="19.94809605181217193603515625">
        <ele>1875</ele>
        <time>2026-06-17T09:50:21.000Z</time>
        <extensions>
          <ns3:TrackPointExtension>
            <ns3:atemp>18.0</ns3:atemp>
          </ns3:TrackPointExtension>
        </extensions>
      </trkpt>
      <trkpt lat="42.51467308960855007171630859375" lon="19.94812287390232086181640625">
        <ele>1875</ele>
        <time>2026-06-17T09:50:22.000Z</time>
        <extensions>
          <ns3:TrackPointExtension>
            <ns3:atemp>18.0</ns3:atemp>
          </ns3:TrackPointExtension>
        </extensions>
      </trkpt>
      <trkpt lat="42.5146575830876827239990234375" lon="19.9481528811156749725341796875">
        <ele>1875.199951171875</ele>
        <time>2026-06-17T09:50:23.000Z</time>
        <extensions>
          <ns3:TrackPointExtension>
            <ns3:atemp>18.0</ns3:atemp>
          </ns3:TrackPointExtension>
        </extensions>
      </trkpt>
      <trkpt lat="42.514645345509052276611328125" lon="19.94818188250064849853515625">
        <ele>1875.199951171875</ele>
        <time>2026-06-17T09:50:24.000Z</time>
        <extensions>
          <ns3:TrackPointExtension>
            <ns3:atemp>18.0</ns3:atemp>
          </ns3:TrackPointExtension>
        </extensions>
      </trkpt>
      <trkpt lat="42.5146321021020412445068359375" lon="19.9482085369527339935302734375">
        <ele>1875.4000244140625</ele>
        <time>2026-06-17T09:50:25.000Z</time>
        <extensions>
          <ns3:TrackPointExtension>
            <ns3:atemp>18.0</ns3:atemp>
          </ns3:TrackPointExtension>
        </extensions>
      </trkpt>
      <trkpt lat="42.51461793668568134307861328125" lon="19.9482387118041515350341796875">
        <ele>1875.4000244140625</ele>
        <time>2026-06-17T09:50:26.000Z</time>
        <extensions>
          <ns3:TrackPointExtension>
            <ns3:atemp>18.0</ns3:atemp>
          </ns3:TrackPointExtension>
        </extensions>
      </trkpt>
      <trkpt lat="42.51460469327867031097412109375" lon="19.94826679117977619171142578125">
        <ele>1875.4000244140625</ele>
        <time>2026-06-17T09:50:27.000Z</time>
        <extensions>
          <ns3:TrackPointExtension>
            <ns3:atemp>18.0</ns3:atemp>
          </ns3:TrackPointExtension>
        </extensions>
      </trkpt>
      <trkpt lat="42.514595724642276763916015625" lon="19.94829394854605197906494140625">
        <ele>1875.5999755859375</ele>
        <time>2026-06-17T09:50:28.000Z</time>
        <extensions>
          <ns3:TrackPointExtension>
            <ns3:atemp>18.0</ns3:atemp>
          </ns3:TrackPointExtension>
        </extensions>
      </trkpt>
      <trkpt lat="42.51458776183426380157470703125" lon="19.9483188427984714508056640625">
        <ele>1875.800048828125</ele>
        <time>2026-06-17T09:50:29.000Z</time>
        <extensions>
          <ns3:TrackPointExtension>
            <ns3:atemp>18.0</ns3:atemp>
          </ns3:TrackPointExtension>
        </extensions>
      </trkpt>
      <trkpt lat="42.51457686536014080047607421875" lon="19.9483362771570682525634765625">
        <ele>1876</ele>
        <time>2026-06-17T09:50:30.000Z</time>
        <extensions>
          <ns3:TrackPointExtension>
            <ns3:atemp>18.0</ns3:atemp>
          </ns3:TrackPointExtension>
        </extensions>
      </trkpt>
      <trkpt lat="42.514566220343112945556640625" lon="19.94835748337209224700927734375">
        <ele>1876.199951171875</ele>
        <time>2026-06-17T09:50:31.000Z</time>
        <extensions>
          <ns3:TrackPointExtension>
            <ns3:atemp>18.0</ns3:atemp>
          </ns3:TrackPointExtension>
        </extensions>
      </trkpt>
      <trkpt lat="42.51455808989703655242919921875" lon="19.9483703076839447021484375">
        <ele>1876.4000244140625</ele>
        <time>2026-06-17T09:50:32.000Z</time>
        <extensions>
          <ns3:TrackPointExtension>
            <ns3:atemp>18.0</ns3:atemp>
          </ns3:TrackPointExtension>
        </extensions>
      </trkpt>
      <trkpt lat="42.51455054618418216705322265625" lon="19.94837961159646511077880859375">
        <ele>1876.5999755859375</ele>
        <time>2026-06-17T09:50:33.000Z</time>
        <extensions>
          <ns3:TrackPointExtension>
            <ns3:atemp>18.0</ns3:atemp>
          </ns3:TrackPointExtension>
        </extensions>
      </trkpt>
      <trkpt lat="42.514542080461978912353515625" lon="19.94838698767125606536865234375">
        <ele>1876.5999755859375</ele>
        <time>2026-06-17T09:50:34.000Z</time>
        <extensions>
          <ns3:TrackPointExtension>
            <ns3:atemp>18.0</ns3:atemp>
          </ns3:TrackPointExtension>
        </extensions>
      </trkpt>
      <trkpt lat="42.51453998498618602752685546875" lon="19.9483909271657466888427734375">
        <ele>1876.800048828125</ele>
        <time>2026-06-17T09:50:35.000Z</time>
        <extensions>
          <ns3:TrackPointExtension>
            <ns3:atemp>18.0</ns3:atemp>
          </ns3:TrackPointExtension>
        </extensions>
      </trkpt>
      <trkpt lat="42.5145399011671543121337890625" lon="19.9483909271657466888427734375">
        <ele>1877</ele>
        <time>2026-06-17T09:50:36.000Z</time>
        <extensions>
          <ns3:TrackPointExtension>
            <ns3:atemp>18.0</ns3:atemp>
          </ns3:TrackPointExtension>
        </extensions>
      </trkpt>
      <trkpt lat="42.5145399011671543121337890625" lon="19.9483909271657466888427734375">
        <ele>1877</ele>
        <time>2026-06-17T09:50:37.000Z</time>
        <extensions>
          <ns3:TrackPointExtension>
            <ns3:atemp>18.0</ns3:atemp>
          </ns3:TrackPointExtension>
        </extensions>
      </trkpt>
      <trkpt lat="42.5145399011671543121337890625" lon="19.9483909271657466888427734375">
        <ele>1877.199951171875</ele>
        <time>2026-06-17T09:50:38.000Z</time>
        <extensions>
          <ns3:TrackPointExtension>
            <ns3:atemp>18.0</ns3:atemp>
          </ns3:TrackPointExtension>
        </extensions>
      </trkpt>
      <trkpt lat="42.5145399011671543121337890625" lon="19.9483909271657466888427734375">
        <ele>1877.199951171875</ele>
        <time>2026-06-17T09:50:39.000Z</time>
        <extensions>
          <ns3:TrackPointExtension>
            <ns3:atemp>18.0</ns3:atemp>
          </ns3:TrackPointExtension>
        </extensions>
      </trkpt>
      <trkpt lat="42.5145399011671543121337890625" lon="19.9483909271657466888427734375">
        <ele>1877.199951171875</ele>
        <time>2026-06-17T09:50:40.000Z</time>
        <extensions>
          <ns3:TrackPointExtension>
            <ns3:atemp>18.0</ns3:atemp>
          </ns3:TrackPointExtension>
        </extensions>
      </trkpt>
      <trkpt lat="42.5145399011671543121337890625" lon="19.9483909271657466888427734375">
        <ele>1877.199951171875</ele>
        <time>2026-06-17T09:50:41.000Z</time>
        <extensions>
          <ns3:TrackPointExtension>
            <ns3:atemp>18.0</ns3:atemp>
          </ns3:TrackPointExtension>
        </extensions>
      </trkpt>
      <trkpt lat="42.5145399011671543121337890625" lon="19.9483909271657466888427734375">
        <ele>1877.199951171875</ele>
        <time>2026-06-17T09:50:42.000Z</time>
        <extensions>
          <ns3:TrackPointExtension>
            <ns3:atemp>18.0</ns3:atemp>
          </ns3:TrackPointExtension>
        </extensions>
      </trkpt>
      <trkpt lat="42.51453981734812259674072265625" lon="19.9483912624418735504150390625">
        <ele>1877.199951171875</ele>
        <time>2026-06-17T09:50:43.000Z</time>
        <extensions>
          <ns3:TrackPointExtension>
            <ns3:atemp>18.0</ns3:atemp>
          </ns3:TrackPointExtension>
        </extensions>
      </trkpt>
      <trkpt lat="42.514536045491695404052734375" lon="19.94839645922183990478515625">
        <ele>1877.199951171875</ele>
        <time>2026-06-17T09:50:44.000Z</time>
        <extensions>
          <ns3:TrackPointExtension>
            <ns3:atemp>18.0</ns3:atemp>
          </ns3:TrackPointExtension>
        </extensions>
      </trkpt>
      <trkpt lat="42.5145399011671543121337890625" lon="19.9483909271657466888427734375">
        <ele>1877</ele>
        <time>2026-06-17T09:50:45.000Z</time>
        <extensions>
          <ns3:TrackPointExtension>
            <ns3:atemp>18.0</ns3:atemp>
          </ns3:TrackPointExtension>
        </extensions>
      </trkpt>
      <trkpt lat="42.5145311839878559112548828125" lon="19.9484024941921234130859375">
        <ele>1877</ele>
        <time>2026-06-17T09:50:46.000Z</time>
        <extensions>
          <ns3:TrackPointExtension>
            <ns3:atemp>18.0</ns3:atemp>
          </ns3:TrackPointExtension>
        </extensions>
      </trkpt>
      <trkpt lat="42.51452389173209667205810546875" lon="19.948412887752056121826171875">
        <ele>1877</ele>
        <time>2026-06-17T09:50:47.000Z</time>
        <extensions>
          <ns3:TrackPointExtension>
            <ns3:atemp>18.0</ns3:atemp>
          </ns3:TrackPointExtension>
        </extensions>
      </trkpt>
      <trkpt lat="42.514517940580844879150390625" lon="19.9484211020171642303466796875">
        <ele>1877</ele>
        <time>2026-06-17T09:50:48.000Z</time>
        <extensions>
          <ns3:TrackPointExtension>
            <ns3:atemp>18.0</ns3:atemp>
          </ns3:TrackPointExtension>
        </extensions>
      </trkpt>
      <trkpt lat="42.514514923095703125" lon="19.94842856191098690032958984375">
        <ele>1877</ele>
        <time>2026-06-17T09:50:49.000Z</time>
        <extensions>
          <ns3:TrackPointExtension>
            <ns3:atemp>18.0</ns3:atemp>
          </ns3:TrackPointExtension>
        </extensions>
      </trkpt>
      <trkpt lat="42.51451232470571994781494140625" lon="19.94843543507158756256103515625">
        <ele>1877</ele>
        <time>2026-06-17T09:50:50.000Z</time>
        <extensions>
          <ns3:TrackPointExtension>
            <ns3:atemp>18.0</ns3:atemp>
          </ns3:TrackPointExtension>
        </extensions>
      </trkpt>
      <trkpt lat="42.51450888812541961669921875" lon="19.9484428949654102325439453125">
        <ele>1877</ele>
        <time>2026-06-17T09:50:51.000Z</time>
        <extensions>
          <ns3:TrackPointExtension>
            <ns3:atemp>18.0</ns3:atemp>
          </ns3:TrackPointExtension>
        </extensions>
      </trkpt>
      <trkpt lat="42.51450880430638790130615234375" lon="19.948443062603473663330078125">
        <ele>1876.800048828125</ele>
        <time>2026-06-17T09:50:52.000Z</time>
        <extensions>
          <ns3:TrackPointExtension>
            <ns3:atemp>18.0</ns3:atemp>
          </ns3:TrackPointExtension>
        </extensions>
      </trkpt>
      <trkpt lat="42.5145087204873561859130859375" lon="19.94844314642250537872314453125">
        <ele>1876.800048828125</ele>
        <time>2026-06-17T09:50:53.000Z</time>
        <extensions>
          <ns3:TrackPointExtension>
            <ns3:atemp>18.0</ns3:atemp>
          </ns3:TrackPointExtension>
        </extensions>
      </trkpt>
      <trkpt lat="42.51449639908969402313232421875" lon="19.948459155857563018798828125">
        <ele>1876.800048828125</ele>
        <time>2026-06-17T09:50:54.000Z</time>
        <extensions>
          <ns3:TrackPointExtension>
            <ns3:atemp>18.0</ns3:atemp>
          </ns3:TrackPointExtension>
        </extensions>
      </trkpt>
      <trkpt lat="42.51448499970138072967529296875" lon="19.9484754167497158050537109375">
        <ele>1876.800048828125</ele>
        <time>2026-06-17T09:50:55.000Z</time>
        <extensions>
          <ns3:TrackPointExtension>
            <ns3:atemp>18.0</ns3:atemp>
          </ns3:TrackPointExtension>
        </extensions>
      </trkpt>
      <trkpt lat="42.51447561196982860565185546875" lon="19.9484856426715850830078125">
        <ele>1876.5999755859375</ele>
        <time>2026-06-17T09:50:56.000Z</time>
        <extensions>
          <ns3:TrackPointExtension>
            <ns3:atemp>18.0</ns3:atemp>
          </ns3:TrackPointExtension>
        </extensions>
      </trkpt>
      <trkpt lat="42.51446287147700786590576171875" lon="19.9485008977353572845458984375">
        <ele>1876.5999755859375</ele>
        <time>2026-06-17T09:50:57.000Z</time>
        <extensions>
          <ns3:TrackPointExtension>
            <ns3:atemp>18.0</ns3:atemp>
          </ns3:TrackPointExtension>
        </extensions>
      </trkpt>
      <trkpt lat="42.51444694586098194122314453125" lon="19.94852344505488872528076171875">
        <ele>1876.5999755859375</ele>
        <time>2026-06-17T09:50:58.000Z</time>
        <extensions>
          <ns3:TrackPointExtension>
            <ns3:atemp>18.0</ns3:atemp>
          </ns3:TrackPointExtension>
        </extensions>
      </trkpt>
      <trkpt lat="42.514432780444622039794921875" lon="19.948536269366741180419921875">
        <ele>1876.5999755859375</ele>
        <time>2026-06-17T09:50:59.000Z</time>
        <extensions>
          <ns3:TrackPointExtension>
            <ns3:atemp>18.0</ns3:atemp>
          </ns3:TrackPointExtension>
        </extensions>
      </trkpt>
      <trkpt lat="42.514414675533771514892578125" lon="19.94853802956640720367431640625">
        <ele>1876.5999755859375</ele>
        <time>2026-06-17T09:51:00.000Z</time>
        <extensions>
          <ns3:TrackPointExtension>
            <ns3:atemp>18.0</ns3:atemp>
          </ns3:TrackPointExtension>
        </extensions>
      </trkpt>
      <trkpt lat="42.5144010968506336212158203125" lon="19.9485371075570583343505859375">
        <ele>1876.800048828125</ele>
        <time>2026-06-17T09:51:01.000Z</time>
        <extensions>
          <ns3:TrackPointExtension>
            <ns3:atemp>18.0</ns3:atemp>
          </ns3:TrackPointExtension>
        </extensions>
      </trkpt>
      <trkpt lat="42.5143928825855255126953125" lon="19.948529899120330810546875">
        <ele>1876.800048828125</ele>
        <time>2026-06-17T09:51:02.000Z</time>
        <extensions>
          <ns3:TrackPointExtension>
            <ns3:atemp>18.0</ns3:atemp>
          </ns3:TrackPointExtension>
        </extensions>
      </trkpt>
      <trkpt lat="42.5143943913280963897705078125" lon="19.9485146440565586090087890625">
        <ele>1877</ele>
        <time>2026-06-17T09:51:03.000Z</time>
        <extensions>
          <ns3:TrackPointExtension>
            <ns3:atemp>18.0</ns3:atemp>
          </ns3:TrackPointExtension>
        </extensions>
      </trkpt>
      <trkpt lat="42.5143890269100666046142578125" lon="19.948500059545040130615234375">
        <ele>1877.199951171875</ele>
        <time>2026-06-17T09:51:04.000Z</time>
        <extensions>
          <ns3:TrackPointExtension>
            <ns3:atemp>18.0</ns3:atemp>
          </ns3:TrackPointExtension>
        </extensions>
      </trkpt>
      <trkpt lat="42.514383494853973388671875" lon="19.94850064627826213836669921875">
        <ele>1877.4000244140625</ele>
        <time>2026-06-17T09:51:05.000Z</time>
        <extensions>
          <ns3:TrackPointExtension>
            <ns3:atemp>18.0</ns3:atemp>
          </ns3:TrackPointExtension>
        </extensions>
      </trkpt>
      <trkpt lat="42.51438290812075138092041015625" lon="19.948496706783771514892578125">
        <ele>1877.5999755859375</ele>
        <time>2026-06-17T09:51:06.000Z</time>
        <extensions>
          <ns3:TrackPointExtension>
            <ns3:atemp>18.0</ns3:atemp>
          </ns3:TrackPointExtension>
        </extensions>
      </trkpt>
      <trkpt lat="42.51438290812075138092041015625" lon="19.948496706783771514892578125">
        <ele>1877.800048828125</ele>
        <time>2026-06-17T09:51:07.000Z</time>
        <extensions>
          <ns3:TrackPointExtension>
            <ns3:atemp>18.0</ns3:atemp>
          </ns3:TrackPointExtension>
        </extensions>
      </trkpt>
      <trkpt lat="42.51438290812075138092041015625" lon="19.948496706783771514892578125">
        <ele>1877.800048828125</ele>
        <time>2026-06-17T09:51:08.000Z</time>
        <extensions>
          <ns3:TrackPointExtension>
            <ns3:atemp>18.0</ns3:atemp>
          </ns3:TrackPointExtension>
        </extensions>
      </trkpt>
      <trkpt lat="42.51438290812075138092041015625" lon="19.948496706783771514892578125">
        <ele>1877.5999755859375</ele>
        <time>2026-06-17T09:51:09.000Z</time>
        <extensions>
          <ns3:TrackPointExtension>
            <ns3:atemp>18.0</ns3:atemp>
          </ns3:TrackPointExtension>
        </extensions>
      </trkpt>
      <trkpt lat="42.51438290812075138092041015625" lon="19.948496706783771514892578125">
        <ele>1877.5999755859375</ele>
        <time>2026-06-17T09:51:10.000Z</time>
        <extensions>
          <ns3:TrackPointExtension>
            <ns3:atemp>18.0</ns3:atemp>
          </ns3:TrackPointExtension>
        </extensions>
      </trkpt>
      <trkpt lat="42.51438290812075138092041015625" lon="19.948496706783771514892578125">
        <ele>1877.4000244140625</ele>
        <time>2026-06-17T09:51:11.000Z</time>
        <extensions>
          <ns3:TrackPointExtension>
            <ns3:atemp>18.0</ns3:atemp>
          </ns3:TrackPointExtension>
        </extensions>
      </trkpt>
      <trkpt lat="42.51438290812075138092041015625" lon="19.948496706783771514892578125">
        <ele>1877.199951171875</ele>
        <time>2026-06-17T09:51:12.000Z</time>
        <extensions>
          <ns3:TrackPointExtension>
            <ns3:atemp>19.0</ns3:atemp>
          </ns3:TrackPointExtension>
        </extensions>
      </trkpt>
      <trkpt lat="42.51438290812075138092041015625" lon="19.948496706783771514892578125">
        <ele>1877</ele>
        <time>2026-06-17T09:51:13.000Z</time>
        <extensions>
          <ns3:TrackPointExtension>
            <ns3:atemp>19.0</ns3:atemp>
          </ns3:TrackPointExtension>
        </extensions>
      </trkpt>
      <trkpt lat="42.51438290812075138092041015625" lon="19.948496706783771514892578125">
        <ele>1877</ele>
        <time>2026-06-17T09:51:14.000Z</time>
        <extensions>
          <ns3:TrackPointExtension>
            <ns3:atemp>19.0</ns3:atemp>
          </ns3:TrackPointExtension>
        </extensions>
      </trkpt>
      <trkpt lat="42.51438290812075138092041015625" lon="19.948496706783771514892578125">
        <ele>1876.800048828125</ele>
        <time>2026-06-17T09:51:15.000Z</time>
        <extensions>
          <ns3:TrackPointExtension>
            <ns3:atemp>19.0</ns3:atemp>
          </ns3:TrackPointExtension>
        </extensions>
      </trkpt>
      <trkpt lat="42.51438290812075138092041015625" lon="19.948496706783771514892578125">
        <ele>1876.800048828125</ele>
        <time>2026-06-17T09:51:16.000Z</time>
        <extensions>
          <ns3:TrackPointExtension>
            <ns3:atemp>19.0</ns3:atemp>
          </ns3:TrackPointExtension>
        </extensions>
      </trkpt>
      <trkpt lat="42.51438290812075138092041015625" lon="19.948496706783771514892578125">
        <ele>1876.800048828125</ele>
        <time>2026-06-17T09:51:17.000Z</time>
        <extensions>
          <ns3:TrackPointExtension>
            <ns3:atemp>19.0</ns3:atemp>
          </ns3:TrackPointExtension>
        </extensions>
      </trkpt>
      <trkpt lat="42.51438290812075138092041015625" lon="19.948496706783771514892578125">
        <ele>1876.800048828125</ele>
        <time>2026-06-17T09:51:18.000Z</time>
        <extensions>
          <ns3:TrackPointExtension>
            <ns3:atemp>18.0</ns3:atemp>
          </ns3:TrackPointExtension>
        </extensions>
      </trkpt>
      <trkpt lat="42.51438290812075138092041015625" lon="19.948496706783771514892578125">
        <ele>1876.5999755859375</ele>
        <time>2026-06-17T09:51:19.000Z</time>
        <extensions>
          <ns3:TrackPointExtension>
            <ns3:atemp>19.0</ns3:atemp>
          </ns3:TrackPointExtension>
        </extensions>
      </trkpt>
      <trkpt lat="42.51438290812075138092041015625" lon="19.948496706783771514892578125">
        <ele>1876.5999755859375</ele>
        <time>2026-06-17T09:51:20.000Z</time>
        <extensions>
          <ns3:TrackPointExtension>
            <ns3:atemp>19.0</ns3:atemp>
          </ns3:TrackPointExtension>
        </extensions>
      </trkpt>
      <trkpt lat="42.51438290812075138092041015625" lon="19.948496706783771514892578125">
        <ele>1876.5999755859375</ele>
        <time>2026-06-17T09:51:21.000Z</time>
        <extensions>
          <ns3:TrackPointExtension>
            <ns3:atemp>18.0</ns3:atemp>
          </ns3:TrackPointExtension>
        </extensions>
      </trkpt>
      <trkpt lat="42.51438290812075138092041015625" lon="19.948496706783771514892578125">
        <ele>1876.4000244140625</ele>
        <time>2026-06-17T09:51:22.000Z</time>
        <extensions>
          <ns3:TrackPointExtension>
            <ns3:atemp>19.0</ns3:atemp>
          </ns3:TrackPointExtension>
        </extensions>
      </trkpt>
      <trkpt lat="42.51438290812075138092041015625" lon="19.948496706783771514892578125">
        <ele>1876.4000244140625</ele>
        <time>2026-06-17T09:51:23.000Z</time>
        <extensions>
          <ns3:TrackPointExtension>
            <ns3:atemp>19.0</ns3:atemp>
          </ns3:TrackPointExtension>
        </extensions>
      </trkpt>
      <trkpt lat="42.51438290812075138092041015625" lon="19.948496706783771514892578125">
        <ele>1876.4000244140625</ele>
        <time>2026-06-17T09:51:24.000Z</time>
        <extensions>
          <ns3:TrackPointExtension>
            <ns3:atemp>19.0</ns3:atemp>
          </ns3:TrackPointExtension>
        </extensions>
      </trkpt>
      <trkpt lat="42.51438290812075138092041015625" lon="19.948496706783771514892578125">
        <ele>1876.4000244140625</ele>
        <time>2026-06-17T09:51:25.000Z</time>
        <extensions>
          <ns3:TrackPointExtension>
            <ns3:atemp>19.0</ns3:atemp>
          </ns3:TrackPointExtension>
        </extensions>
      </trkpt>
      <trkpt lat="42.51438290812075138092041015625" lon="19.948496706783771514892578125">
        <ele>1876.4000244140625</ele>
        <time>2026-06-17T09:51:26.000Z</time>
        <extensions>
          <ns3:TrackPointExtension>
            <ns3:atemp>19.0</ns3:atemp>
          </ns3:TrackPointExtension>
        </extensions>
      </trkpt>
      <trkpt lat="42.51438290812075138092041015625" lon="19.948496706783771514892578125">
        <ele>1876.4000244140625</ele>
        <time>2026-06-17T09:51:27.000Z</time>
        <extensions>
          <ns3:TrackPointExtension>
            <ns3:atemp>19.0</ns3:atemp>
          </ns3:TrackPointExtension>
        </extensions>
      </trkpt>
      <trkpt lat="42.51438290812075138092041015625" lon="19.948496706783771514892578125">
        <ele>1876.4000244140625</ele>
        <time>2026-06-17T09:51:28.000Z</time>
        <extensions>
          <ns3:TrackPointExtension>
            <ns3:atemp>19.0</ns3:atemp>
          </ns3:TrackPointExtension>
        </extensions>
      </trkpt>
      <trkpt lat="42.51438290812075138092041015625" lon="19.948496706783771514892578125">
        <ele>1876.199951171875</ele>
        <time>2026-06-17T09:51:29.000Z</time>
        <extensions>
          <ns3:TrackPointExtension>
            <ns3:atemp>19.0</ns3:atemp>
          </ns3:TrackPointExtension>
        </extensions>
      </trkpt>
      <trkpt lat="42.51438290812075138092041015625" lon="19.948496706783771514892578125">
        <ele>1876.199951171875</ele>
        <time>2026-06-17T09:51:30.000Z</time>
        <extensions>
          <ns3:TrackPointExtension>
            <ns3:atemp>19.0</ns3:atemp>
          </ns3:TrackPointExtension>
        </extensions>
      </trkpt>
      <trkpt lat="42.51438290812075138092041015625" lon="19.948496706783771514892578125">
        <ele>1876.199951171875</ele>
        <time>2026-06-17T09:51:31.000Z</time>
        <extensions>
          <ns3:TrackPointExtension>
            <ns3:atemp>19.0</ns3:atemp>
          </ns3:TrackPointExtension>
        </extensions>
      </trkpt>
      <trkpt lat="42.51438290812075138092041015625" lon="19.948496706783771514892578125">
        <ele>1876.199951171875</ele>
        <time>2026-06-17T09:51:32.000Z</time>
        <extensions>
          <ns3:TrackPointExtension>
            <ns3:atemp>19.0</ns3:atemp>
          </ns3:TrackPointExtension>
        </extensions>
      </trkpt>
      <trkpt lat="42.51438290812075138092041015625" lon="19.948496706783771514892578125">
        <ele>1876.199951171875</ele>
        <time>2026-06-17T09:51:33.000Z</time>
        <extensions>
          <ns3:TrackPointExtension>
            <ns3:atemp>19.0</ns3:atemp>
          </ns3:TrackPointExtension>
        </extensions>
      </trkpt>
      <trkpt lat="42.51438290812075138092041015625" lon="19.948496706783771514892578125">
        <ele>1876.199951171875</ele>
        <time>2026-06-17T09:51:34.000Z</time>
        <extensions>
          <ns3:TrackPointExtension>
            <ns3:atemp>19.0</ns3:atemp>
          </ns3:TrackPointExtension>
        </extensions>
      </trkpt>
      <trkpt lat="42.51438290812075138092041015625" lon="19.948496706783771514892578125">
        <ele>1876.199951171875</ele>
        <time>2026-06-17T09:51:35.000Z</time>
        <extensions>
          <ns3:TrackPointExtension>
            <ns3:atemp>19.0</ns3:atemp>
          </ns3:TrackPointExtension>
        </extensions>
      </trkpt>
      <trkpt lat="42.51438290812075138092041015625" lon="19.948496706783771514892578125">
        <ele>1876.199951171875</ele>
        <time>2026-06-17T09:51:36.000Z</time>
        <extensions>
          <ns3:TrackPointExtension>
            <ns3:atemp>19.0</ns3:atemp>
          </ns3:TrackPointExtension>
        </extensions>
      </trkpt>
      <trkpt lat="42.51438290812075138092041015625" lon="19.948496706783771514892578125">
        <ele>1876</ele>
        <time>2026-06-17T09:51:37.000Z</time>
        <extensions>
          <ns3:TrackPointExtension>
            <ns3:atemp>19.0</ns3:atemp>
          </ns3:TrackPointExtension>
        </extensions>
      </trkpt>
      <trkpt lat="42.51438290812075138092041015625" lon="19.948496706783771514892578125">
        <ele>1876</ele>
        <time>2026-06-17T09:51:38.000Z</time>
        <extensions>
          <ns3:TrackPointExtension>
            <ns3:atemp>19.0</ns3:atemp>
          </ns3:TrackPointExtension>
        </extensions>
      </trkpt>
      <trkpt lat="42.51438290812075138092041015625" lon="19.948496706783771514892578125">
        <ele>1876</ele>
        <time>2026-06-17T09:51:39.000Z</time>
        <extensions>
          <ns3:TrackPointExtension>
            <ns3:atemp>19.0</ns3:atemp>
          </ns3:TrackPointExtension>
        </extensions>
      </trkpt>
      <trkpt lat="42.51438290812075138092041015625" lon="19.948496706783771514892578125">
        <ele>1875.800048828125</ele>
        <time>2026-06-17T09:51:40.000Z</time>
        <extensions>
          <ns3:TrackPointExtension>
            <ns3:atemp>19.0</ns3:atemp>
          </ns3:TrackPointExtension>
        </extensions>
      </trkpt>
      <trkpt lat="42.51438290812075138092041015625" lon="19.948496706783771514892578125">
        <ele>1875.800048828125</ele>
        <time>2026-06-17T09:51:41.000Z</time>
        <extensions>
          <ns3:TrackPointExtension>
            <ns3:atemp>19.0</ns3:atemp>
          </ns3:TrackPointExtension>
        </extensions>
      </trkpt>
      <trkpt lat="42.51438290812075138092041015625" lon="19.948496706783771514892578125">
        <ele>1875.800048828125</ele>
        <time>2026-06-17T09:51:42.000Z</time>
        <extensions>
          <ns3:TrackPointExtension>
            <ns3:atemp>19.0</ns3:atemp>
          </ns3:TrackPointExtension>
        </extensions>
      </trkpt>
      <trkpt lat="42.51438290812075138092041015625" lon="19.948496706783771514892578125">
        <ele>1875.5999755859375</ele>
        <time>2026-06-17T09:51:43.000Z</time>
        <extensions>
          <ns3:TrackPointExtension>
            <ns3:atemp>19.0</ns3:atemp>
          </ns3:TrackPointExtension>
        </extensions>
      </trkpt>
      <trkpt lat="42.51438290812075138092041015625" lon="19.948496706783771514892578125">
        <ele>1875.5999755859375</ele>
        <time>2026-06-17T09:51:44.000Z</time>
        <extensions>
          <ns3:TrackPointExtension>
            <ns3:atemp>19.0</ns3:atemp>
          </ns3:TrackPointExtension>
        </extensions>
      </trkpt>
      <trkpt lat="42.51438290812075138092041015625" lon="19.948496706783771514892578125">
        <ele>1875.5999755859375</ele>
        <time>2026-06-17T09:51:45.000Z</time>
        <extensions>
          <ns3:TrackPointExtension>
            <ns3:atemp>19.0</ns3:atemp>
          </ns3:TrackPointExtension>
        </extensions>
      </trkpt>
      <trkpt lat="42.51438290812075138092041015625" lon="19.948496706783771514892578125">
        <ele>1875.5999755859375</ele>
        <time>2026-06-17T09:51:46.000Z</time>
        <extensions>
          <ns3:TrackPointExtension>
            <ns3:atemp>19.0</ns3:atemp>
          </ns3:TrackPointExtension>
        </extensions>
      </trkpt>
      <trkpt lat="42.51438290812075138092041015625" lon="19.948496706783771514892578125">
        <ele>1875.5999755859375</ele>
        <time>2026-06-17T09:51:47.000Z</time>
        <extensions>
          <ns3:TrackPointExtension>
            <ns3:atemp>19.0</ns3:atemp>
          </ns3:TrackPointExtension>
        </extensions>
      </trkpt>
      <trkpt lat="42.51438290812075138092041015625" lon="19.948496706783771514892578125">
        <ele>1875.5999755859375</ele>
        <time>2026-06-17T09:51:48.000Z</time>
        <extensions>
          <ns3:TrackPointExtension>
            <ns3:atemp>19.0</ns3:atemp>
          </ns3:TrackPointExtension>
        </extensions>
      </trkpt>
      <trkpt lat="42.51438290812075138092041015625" lon="19.948496706783771514892578125">
        <ele>1875.5999755859375</ele>
        <time>2026-06-17T09:51:49.000Z</time>
        <extensions>
          <ns3:TrackPointExtension>
            <ns3:atemp>19.0</ns3:atemp>
          </ns3:TrackPointExtension>
        </extensions>
      </trkpt>
      <trkpt lat="42.51438290812075138092041015625" lon="19.948496706783771514892578125">
        <ele>1875.5999755859375</ele>
        <time>2026-06-17T09:51:50.000Z</time>
        <extensions>
          <ns3:TrackPointExtension>
            <ns3:atemp>19.0</ns3:atemp>
          </ns3:TrackPointExtension>
        </extensions>
      </trkpt>
      <trkpt lat="42.51438290812075138092041015625" lon="19.948496706783771514892578125">
        <ele>1875.800048828125</ele>
        <time>2026-06-17T09:51:51.000Z</time>
        <extensions>
          <ns3:TrackPointExtension>
            <ns3:atemp>19.0</ns3:atemp>
          </ns3:TrackPointExtension>
        </extensions>
      </trkpt>
      <trkpt lat="42.51438290812075138092041015625" lon="19.948496706783771514892578125">
        <ele>1875.800048828125</ele>
        <time>2026-06-17T09:51:52.000Z</time>
        <extensions>
          <ns3:TrackPointExtension>
            <ns3:atemp>19.0</ns3:atemp>
          </ns3:TrackPointExtension>
        </extensions>
      </trkpt>
      <trkpt lat="42.51438290812075138092041015625" lon="19.948496706783771514892578125">
        <ele>1876</ele>
        <time>2026-06-17T09:51:53.000Z</time>
        <extensions>
          <ns3:TrackPointExtension>
            <ns3:atemp>19.0</ns3:atemp>
          </ns3:TrackPointExtension>
        </extensions>
      </trkpt>
      <trkpt lat="42.51438290812075138092041015625" lon="19.948496706783771514892578125">
        <ele>1876</ele>
        <time>2026-06-17T09:51:54.000Z</time>
        <extensions>
          <ns3:TrackPointExtension>
            <ns3:atemp>19.0</ns3:atemp>
          </ns3:TrackPointExtension>
        </extensions>
      </trkpt>
      <trkpt lat="42.51438290812075138092041015625" lon="19.948496706783771514892578125">
        <ele>1876.199951171875</ele>
        <time>2026-06-17T09:51:55.000Z</time>
        <extensions>
          <ns3:TrackPointExtension>
            <ns3:atemp>19.0</ns3:atemp>
          </ns3:TrackPointExtension>
        </extensions>
      </trkpt>
      <trkpt lat="42.51438290812075138092041015625" lon="19.948496706783771514892578125">
        <ele>1876.199951171875</ele>
        <time>2026-06-17T09:51:56.000Z</time>
        <extensions>
          <ns3:TrackPointExtension>
            <ns3:atemp>19.0</ns3:atemp>
          </ns3:TrackPointExtension>
        </extensions>
      </trkpt>
      <trkpt lat="42.51438290812075138092041015625" lon="19.948496706783771514892578125">
        <ele>1876.199951171875</ele>
        <time>2026-06-17T09:51:57.000Z</time>
        <extensions>
          <ns3:TrackPointExtension>
            <ns3:atemp>19.0</ns3:atemp>
          </ns3:TrackPointExtension>
        </extensions>
      </trkpt>
      <trkpt lat="42.51438290812075138092041015625" lon="19.948496706783771514892578125">
        <ele>1876.199951171875</ele>
        <time>2026-06-17T09:51:58.000Z</time>
        <extensions>
          <ns3:TrackPointExtension>
            <ns3:atemp>19.0</ns3:atemp>
          </ns3:TrackPointExtension>
        </extensions>
      </trkpt>
      <trkpt lat="42.51438290812075138092041015625" lon="19.948496706783771514892578125">
        <ele>1876.199951171875</ele>
        <time>2026-06-17T09:51:59.000Z</time>
        <extensions>
          <ns3:TrackPointExtension>
            <ns3:atemp>19.0</ns3:atemp>
          </ns3:TrackPointExtension>
        </extensions>
      </trkpt>
      <trkpt lat="42.51438290812075138092041015625" lon="19.948496706783771514892578125">
        <ele>1876.199951171875</ele>
        <time>2026-06-17T09:52:00.000Z</time>
        <extensions>
          <ns3:TrackPointExtension>
            <ns3:atemp>19.0</ns3:atemp>
          </ns3:TrackPointExtension>
        </extensions>
      </trkpt>
      <trkpt lat="42.51438290812075138092041015625" lon="19.948496706783771514892578125">
        <ele>1876.199951171875</ele>
        <time>2026-06-17T09:52:01.000Z</time>
        <extensions>
          <ns3:TrackPointExtension>
            <ns3:atemp>19.0</ns3:atemp>
          </ns3:TrackPointExtension>
        </extensions>
      </trkpt>
      <trkpt lat="42.51438290812075138092041015625" lon="19.948496706783771514892578125">
        <ele>1876.199951171875</ele>
        <time>2026-06-17T09:52:02.000Z</time>
        <extensions>
          <ns3:TrackPointExtension>
            <ns3:atemp>19.0</ns3:atemp>
          </ns3:TrackPointExtension>
        </extensions>
      </trkpt>
      <trkpt lat="42.51438290812075138092041015625" lon="19.948496706783771514892578125">
        <ele>1876.199951171875</ele>
        <time>2026-06-17T09:52:03.000Z</time>
        <extensions>
          <ns3:TrackPointExtension>
            <ns3:atemp>19.0</ns3:atemp>
          </ns3:TrackPointExtension>
        </extensions>
      </trkpt>
      <trkpt lat="42.51438290812075138092041015625" lon="19.948496706783771514892578125">
        <ele>1876.199951171875</ele>
        <time>2026-06-17T09:52:04.000Z</time>
        <extensions>
          <ns3:TrackPointExtension>
            <ns3:atemp>19.0</ns3:atemp>
          </ns3:TrackPointExtension>
        </extensions>
      </trkpt>
      <trkpt lat="42.51438290812075138092041015625" lon="19.948496706783771514892578125">
        <ele>1876.199951171875</ele>
        <time>2026-06-17T09:52:05.000Z</time>
        <extensions>
          <ns3:TrackPointExtension>
            <ns3:atemp>19.0</ns3:atemp>
          </ns3:TrackPointExtension>
        </extensions>
      </trkpt>
      <trkpt lat="42.51438290812075138092041015625" lon="19.948496706783771514892578125">
        <ele>1876.4000244140625</ele>
        <time>2026-06-17T09:52:06.000Z</time>
        <extensions>
          <ns3:TrackPointExtension>
            <ns3:atemp>19.0</ns3:atemp>
          </ns3:TrackPointExtension>
        </extensions>
      </trkpt>
      <trkpt lat="42.51438290812075138092041015625" lon="19.948496706783771514892578125">
        <ele>1876.4000244140625</ele>
        <time>2026-06-17T09:52:07.000Z</time>
        <extensions>
          <ns3:TrackPointExtension>
            <ns3:atemp>19.0</ns3:atemp>
          </ns3:TrackPointExtension>
        </extensions>
      </trkpt>
      <trkpt lat="42.51438290812075138092041015625" lon="19.948496706783771514892578125">
        <ele>1876.4000244140625</ele>
        <time>2026-06-17T09:52:08.000Z</time>
        <extensions>
          <ns3:TrackPointExtension>
            <ns3:atemp>19.0</ns3:atemp>
          </ns3:TrackPointExtension>
        </extensions>
      </trkpt>
      <trkpt lat="42.51438290812075138092041015625" lon="19.948496706783771514892578125">
        <ele>1876.4000244140625</ele>
        <time>2026-06-17T09:52:09.000Z</time>
        <extensions>
          <ns3:TrackPointExtension>
            <ns3:atemp>19.0</ns3:atemp>
          </ns3:TrackPointExtension>
        </extensions>
      </trkpt>
      <trkpt lat="42.51438290812075138092041015625" lon="19.948496706783771514892578125">
        <ele>1876.4000244140625</ele>
        <time>2026-06-17T09:52:10.000Z</time>
        <extensions>
          <ns3:TrackPointExtension>
            <ns3:atemp>19.0</ns3:atemp>
          </ns3:TrackPointExtension>
        </extensions>
      </trkpt>
      <trkpt lat="42.51438290812075138092041015625" lon="19.948496706783771514892578125">
        <ele>1876.4000244140625</ele>
        <time>2026-06-17T09:52:11.000Z</time>
        <extensions>
          <ns3:TrackPointExtension>
            <ns3:atemp>19.0</ns3:atemp>
          </ns3:TrackPointExtension>
        </extensions>
      </trkpt>
      <trkpt lat="42.51438290812075138092041015625" lon="19.948496706783771514892578125">
        <ele>1876.4000244140625</ele>
        <time>2026-06-17T09:52:12.000Z</time>
        <extensions>
          <ns3:TrackPointExtension>
            <ns3:atemp>19.0</ns3:atemp>
          </ns3:TrackPointExtension>
        </extensions>
      </trkpt>
      <trkpt lat="42.51438290812075138092041015625" lon="19.948496706783771514892578125">
        <ele>1876.4000244140625</ele>
        <time>2026-06-17T09:52:13.000Z</time>
        <extensions>
          <ns3:TrackPointExtension>
            <ns3:atemp>19.0</ns3:atemp>
          </ns3:TrackPointExtension>
        </extensions>
      </trkpt>
      <trkpt lat="42.51438290812075138092041015625" lon="19.948496706783771514892578125">
        <ele>1876.4000244140625</ele>
        <time>2026-06-17T09:52:14.000Z</time>
        <extensions>
          <ns3:TrackPointExtension>
            <ns3:atemp>19.0</ns3:atemp>
          </ns3:TrackPointExtension>
        </extensions>
      </trkpt>
      <trkpt lat="42.51438290812075138092041015625" lon="19.948496706783771514892578125">
        <ele>1876.4000244140625</ele>
        <time>2026-06-17T09:52:15.000Z</time>
        <extensions>
          <ns3:TrackPointExtension>
            <ns3:atemp>19.0</ns3:atemp>
          </ns3:TrackPointExtension>
        </extensions>
      </trkpt>
      <trkpt lat="42.51438290812075138092041015625" lon="19.948496706783771514892578125">
        <ele>1876.4000244140625</ele>
        <time>2026-06-17T09:52:16.000Z</time>
        <extensions>
          <ns3:TrackPointExtension>
            <ns3:atemp>19.0</ns3:atemp>
          </ns3:TrackPointExtension>
        </extensions>
      </trkpt>
      <trkpt lat="42.51438290812075138092041015625" lon="19.948496706783771514892578125">
        <ele>1876.4000244140625</ele>
        <time>2026-06-17T09:52:17.000Z</time>
        <extensions>
          <ns3:TrackPointExtension>
            <ns3:atemp>19.0</ns3:atemp>
          </ns3:TrackPointExtension>
        </extensions>
      </trkpt>
      <trkpt lat="42.51438290812075138092041015625" lon="19.948496706783771514892578125">
        <ele>1876.4000244140625</ele>
        <time>2026-06-17T09:52:18.000Z</time>
        <extensions>
          <ns3:TrackPointExtension>
            <ns3:atemp>19.0</ns3:atemp>
          </ns3:TrackPointExtension>
        </extensions>
      </trkpt>
      <trkpt lat="42.51438290812075138092041015625" lon="19.948496706783771514892578125">
        <ele>1876.4000244140625</ele>
        <time>2026-06-17T09:52:19.000Z</time>
        <extensions>
          <ns3:TrackPointExtension>
            <ns3:atemp>19.0</ns3:atemp>
          </ns3:TrackPointExtension>
        </extensions>
      </trkpt>
      <trkpt lat="42.51438290812075138092041015625" lon="19.948496706783771514892578125">
        <ele>1876.4000244140625</ele>
        <time>2026-06-17T09:52:20.000Z</time>
        <extensions>
          <ns3:TrackPointExtension>
            <ns3:atemp>19.0</ns3:atemp>
          </ns3:TrackPointExtension>
        </extensions>
      </trkpt>
      <trkpt lat="42.51438290812075138092041015625" lon="19.948496706783771514892578125">
        <ele>1876.5999755859375</ele>
        <time>2026-06-17T09:52:21.000Z</time>
        <extensions>
          <ns3:TrackPointExtension>
            <ns3:atemp>19.0</ns3:atemp>
          </ns3:TrackPointExtension>
        </extensions>
      </trkpt>
      <trkpt lat="42.51438290812075138092041015625" lon="19.948496706783771514892578125">
        <ele>1876.5999755859375</ele>
        <time>2026-06-17T09:52:22.000Z</time>
        <extensions>
          <ns3:TrackPointExtension>
            <ns3:atemp>19.0</ns3:atemp>
          </ns3:TrackPointExtension>
        </extensions>
      </trkpt>
      <trkpt lat="42.51438290812075138092041015625" lon="19.948496706783771514892578125">
        <ele>1876.5999755859375</ele>
        <time>2026-06-17T09:52:23.000Z</time>
        <extensions>
          <ns3:TrackPointExtension>
            <ns3:atemp>19.0</ns3:atemp>
          </ns3:TrackPointExtension>
        </extensions>
      </trkpt>
      <trkpt lat="42.51438290812075138092041015625" lon="19.948496706783771514892578125">
        <ele>1876.5999755859375</ele>
        <time>2026-06-17T09:52:24.000Z</time>
        <extensions>
          <ns3:TrackPointExtension>
            <ns3:atemp>19.0</ns3:atemp>
          </ns3:TrackPointExtension>
        </extensions>
      </trkpt>
      <trkpt lat="42.51438290812075138092041015625" lon="19.948496706783771514892578125">
        <ele>1876.5999755859375</ele>
        <time>2026-06-17T09:52:25.000Z</time>
        <extensions>
          <ns3:TrackPointExtension>
            <ns3:atemp>19.0</ns3:atemp>
          </ns3:TrackPointExtension>
        </extensions>
      </trkpt>
      <trkpt lat="42.51438290812075138092041015625" lon="19.948496706783771514892578125">
        <ele>1876.5999755859375</ele>
        <time>2026-06-17T09:52:26.000Z</time>
        <extensions>
          <ns3:TrackPointExtension>
            <ns3:atemp>19.0</ns3:atemp>
          </ns3:TrackPointExtension>
        </extensions>
      </trkpt>
      <trkpt lat="42.51438290812075138092041015625" lon="19.948496706783771514892578125">
        <ele>1876.5999755859375</ele>
        <time>2026-06-17T09:52:27.000Z</time>
        <extensions>
          <ns3:TrackPointExtension>
            <ns3:atemp>19.0</ns3:atemp>
          </ns3:TrackPointExtension>
        </extensions>
      </trkpt>
      <trkpt lat="42.51438290812075138092041015625" lon="19.948496706783771514892578125">
        <ele>1876.5999755859375</ele>
        <time>2026-06-17T09:52:28.000Z</time>
        <extensions>
          <ns3:TrackPointExtension>
            <ns3:atemp>19.0</ns3:atemp>
          </ns3:TrackPointExtension>
        </extensions>
      </trkpt>
      <trkpt lat="42.51438290812075138092041015625" lon="19.948496706783771514892578125">
        <ele>1876.5999755859375</ele>
        <time>2026-06-17T09:52:29.000Z</time>
        <extensions>
          <ns3:TrackPointExtension>
            <ns3:atemp>19.0</ns3:atemp>
          </ns3:TrackPointExtension>
        </extensions>
      </trkpt>
      <trkpt lat="42.51438290812075138092041015625" lon="19.948496706783771514892578125">
        <ele>1876.5999755859375</ele>
        <time>2026-06-17T09:52:30.000Z</time>
        <extensions>
          <ns3:TrackPointExtension>
            <ns3:atemp>19.0</ns3:atemp>
          </ns3:TrackPointExtension>
        </extensions>
      </trkpt>
      <trkpt lat="42.51438290812075138092041015625" lon="19.948496706783771514892578125">
        <ele>1876.5999755859375</ele>
        <time>2026-06-17T09:52:31.000Z</time>
        <extensions>
          <ns3:TrackPointExtension>
            <ns3:atemp>19.0</ns3:atemp>
          </ns3:TrackPointExtension>
        </extensions>
      </trkpt>
      <trkpt lat="42.51438290812075138092041015625" lon="19.948496706783771514892578125">
        <ele>1876.5999755859375</ele>
        <time>2026-06-17T09:52:32.000Z</time>
        <extensions>
          <ns3:TrackPointExtension>
            <ns3:atemp>19.0</ns3:atemp>
          </ns3:TrackPointExtension>
        </extensions>
      </trkpt>
      <trkpt lat="42.51438290812075138092041015625" lon="19.948496706783771514892578125">
        <ele>1876.5999755859375</ele>
        <time>2026-06-17T09:52:33.000Z</time>
        <extensions>
          <ns3:TrackPointExtension>
            <ns3:atemp>19.0</ns3:atemp>
          </ns3:TrackPointExtension>
        </extensions>
      </trkpt>
      <trkpt lat="42.51438290812075138092041015625" lon="19.948496706783771514892578125">
        <ele>1876.5999755859375</ele>
        <time>2026-06-17T09:52:34.000Z</time>
        <extensions>
          <ns3:TrackPointExtension>
            <ns3:atemp>19.0</ns3:atemp>
          </ns3:TrackPointExtension>
        </extensions>
      </trkpt>
      <trkpt lat="42.51438290812075138092041015625" lon="19.948496706783771514892578125">
        <ele>1876.5999755859375</ele>
        <time>2026-06-17T09:52:35.000Z</time>
        <extensions>
          <ns3:TrackPointExtension>
            <ns3:atemp>19.0</ns3:atemp>
          </ns3:TrackPointExtension>
        </extensions>
      </trkpt>
      <trkpt lat="42.51438290812075138092041015625" lon="19.948496706783771514892578125">
        <ele>1876.5999755859375</ele>
        <time>2026-06-17T09:52:36.000Z</time>
        <extensions>
          <ns3:TrackPointExtension>
            <ns3:atemp>19.0</ns3:atemp>
          </ns3:TrackPointExtension>
        </extensions>
      </trkpt>
      <trkpt lat="42.51438290812075138092041015625" lon="19.948496706783771514892578125">
        <ele>1876.5999755859375</ele>
        <time>2026-06-17T09:52:37.000Z</time>
        <extensions>
          <ns3:TrackPointExtension>
            <ns3:atemp>19.0</ns3:atemp>
          </ns3:TrackPointExtension>
        </extensions>
      </trkpt>
      <trkpt lat="42.51438290812075138092041015625" lon="19.948496706783771514892578125">
        <ele>1876.5999755859375</ele>
        <time>2026-06-17T09:52:38.000Z</time>
        <extensions>
          <ns3:TrackPointExtension>
            <ns3:atemp>19.0</ns3:atemp>
          </ns3:TrackPointExtension>
        </extensions>
      </trkpt>
      <trkpt lat="42.51438290812075138092041015625" lon="19.948496706783771514892578125">
        <ele>1876.5999755859375</ele>
        <time>2026-06-17T09:52:39.000Z</time>
        <extensions>
          <ns3:TrackPointExtension>
            <ns3:atemp>19.0</ns3:atemp>
          </ns3:TrackPointExtension>
        </extensions>
      </trkpt>
      <trkpt lat="42.51438290812075138092041015625" lon="19.948496706783771514892578125">
        <ele>1876.5999755859375</ele>
        <time>2026-06-17T09:52:40.000Z</time>
        <extensions>
          <ns3:TrackPointExtension>
            <ns3:atemp>19.0</ns3:atemp>
          </ns3:TrackPointExtension>
        </extensions>
      </trkpt>
      <trkpt lat="42.51438290812075138092041015625" lon="19.948496706783771514892578125">
        <ele>1876.5999755859375</ele>
        <time>2026-06-17T09:52:41.000Z</time>
        <extensions>
          <ns3:TrackPointExtension>
            <ns3:atemp>19.0</ns3:atemp>
          </ns3:TrackPointExtension>
        </extensions>
      </trkpt>
      <trkpt lat="42.51438290812075138092041015625" lon="19.948496706783771514892578125">
        <ele>1876.5999755859375</ele>
        <time>2026-06-17T09:52:42.000Z</time>
        <extensions>
          <ns3:TrackPointExtension>
            <ns3:atemp>19.0</ns3:atemp>
          </ns3:TrackPointExtension>
        </extensions>
      </trkpt>
      <trkpt lat="42.51438290812075138092041015625" lon="19.948496706783771514892578125">
        <ele>1876.4000244140625</ele>
        <time>2026-06-17T09:52:43.000Z</time>
        <extensions>
          <ns3:TrackPointExtension>
            <ns3:atemp>19.0</ns3:atemp>
          </ns3:TrackPointExtension>
        </extensions>
      </trkpt>
      <trkpt lat="42.51438290812075138092041015625" lon="19.948496706783771514892578125">
        <ele>1876.4000244140625</ele>
        <time>2026-06-17T09:52:44.000Z</time>
        <extensions>
          <ns3:TrackPointExtension>
            <ns3:atemp>19.0</ns3:atemp>
          </ns3:TrackPointExtension>
        </extensions>
      </trkpt>
      <trkpt lat="42.51438290812075138092041015625" lon="19.948496706783771514892578125">
        <ele>1876.4000244140625</ele>
        <time>2026-06-17T09:52:45.000Z</time>
        <extensions>
          <ns3:TrackPointExtension>
            <ns3:atemp>19.0</ns3:atemp>
          </ns3:TrackPointExtension>
        </extensions>
      </trkpt>
      <trkpt lat="42.51438290812075138092041015625" lon="19.948496706783771514892578125">
        <ele>1876.4000244140625</ele>
        <time>2026-06-17T09:52:46.000Z</time>
        <extensions>
          <ns3:TrackPointExtension>
            <ns3:atemp>19.0</ns3:atemp>
          </ns3:TrackPointExtension>
        </extensions>
      </trkpt>
      <trkpt lat="42.51438290812075138092041015625" lon="19.948496706783771514892578125">
        <ele>1876.5999755859375</ele>
        <time>2026-06-17T09:52:47.000Z</time>
        <extensions>
          <ns3:TrackPointExtension>
            <ns3:atemp>19.0</ns3:atemp>
          </ns3:TrackPointExtension>
        </extensions>
      </trkpt>
      <trkpt lat="42.51438290812075138092041015625" lon="19.948496706783771514892578125">
        <ele>1876.5999755859375</ele>
        <time>2026-06-17T09:52:48.000Z</time>
        <extensions>
          <ns3:TrackPointExtension>
            <ns3:atemp>19.0</ns3:atemp>
          </ns3:TrackPointExtension>
        </extensions>
      </trkpt>
      <trkpt lat="42.51438290812075138092041015625" lon="19.948496706783771514892578125">
        <ele>1876.5999755859375</ele>
        <time>2026-06-17T09:52:49.000Z</time>
        <extensions>
          <ns3:TrackPointExtension>
            <ns3:atemp>19.0</ns3:atemp>
          </ns3:TrackPointExtension>
        </extensions>
      </trkpt>
      <trkpt lat="42.51438290812075138092041015625" lon="19.948496706783771514892578125">
        <ele>1876.5999755859375</ele>
        <time>2026-06-17T09:52:50.000Z</time>
        <extensions>
          <ns3:TrackPointExtension>
            <ns3:atemp>19.0</ns3:atemp>
          </ns3:TrackPointExtension>
        </extensions>
      </trkpt>
      <trkpt lat="42.51438290812075138092041015625" lon="19.948496706783771514892578125">
        <ele>1876.5999755859375</ele>
        <time>2026-06-17T09:52:51.000Z</time>
        <extensions>
          <ns3:TrackPointExtension>
            <ns3:atemp>19.0</ns3:atemp>
          </ns3:TrackPointExtension>
        </extensions>
      </trkpt>
      <trkpt lat="42.51438290812075138092041015625" lon="19.948496706783771514892578125">
        <ele>1876.5999755859375</ele>
        <time>2026-06-17T09:52:52.000Z</time>
        <extensions>
          <ns3:TrackPointExtension>
            <ns3:atemp>19.0</ns3:atemp>
          </ns3:TrackPointExtension>
        </extensions>
      </trkpt>
      <trkpt lat="42.51438290812075138092041015625" lon="19.948496706783771514892578125">
        <ele>1876.4000244140625</ele>
        <time>2026-06-17T09:52:53.000Z</time>
        <extensions>
          <ns3:TrackPointExtension>
            <ns3:atemp>19.0</ns3:atemp>
          </ns3:TrackPointExtension>
        </extensions>
      </trkpt>
      <trkpt lat="42.51438290812075138092041015625" lon="19.948496706783771514892578125">
        <ele>1876.4000244140625</ele>
        <time>2026-06-17T09:52:54.000Z</time>
        <extensions>
          <ns3:TrackPointExtension>
            <ns3:atemp>19.0</ns3:atemp>
          </ns3:TrackPointExtension>
        </extensions>
      </trkpt>
      <trkpt lat="42.51438290812075138092041015625" lon="19.948496706783771514892578125">
        <ele>1876.4000244140625</ele>
        <time>2026-06-17T09:52:55.000Z</time>
        <extensions>
          <ns3:TrackPointExtension>
            <ns3:atemp>19.0</ns3:atemp>
          </ns3:TrackPointExtension>
        </extensions>
      </trkpt>
      <trkpt lat="42.51438290812075138092041015625" lon="19.948496706783771514892578125">
        <ele>1876.4000244140625</ele>
        <time>2026-06-17T09:52:56.000Z</time>
        <extensions>
          <ns3:TrackPointExtension>
            <ns3:atemp>19.0</ns3:atemp>
          </ns3:TrackPointExtension>
        </extensions>
      </trkpt>
      <trkpt lat="42.51438290812075138092041015625" lon="19.948496706783771514892578125">
        <ele>1876.4000244140625</ele>
        <time>2026-06-17T09:52:57.000Z</time>
        <extensions>
          <ns3:TrackPointExtension>
            <ns3:atemp>19.0</ns3:atemp>
          </ns3:TrackPointExtension>
        </extensions>
      </trkpt>
      <trkpt lat="42.51438290812075138092041015625" lon="19.948496706783771514892578125">
        <ele>1876.4000244140625</ele>
        <time>2026-06-17T09:52:58.000Z</time>
        <extensions>
          <ns3:TrackPointExtension>
            <ns3:atemp>19.0</ns3:atemp>
          </ns3:TrackPointExtension>
        </extensions>
      </trkpt>
      <trkpt lat="42.51438290812075138092041015625" lon="19.948496706783771514892578125">
        <ele>1876.5999755859375</ele>
        <time>2026-06-17T09:52:59.000Z</time>
        <extensions>
          <ns3:TrackPointExtension>
            <ns3:atemp>19.0</ns3:atemp>
          </ns3:TrackPointExtension>
        </extensions>
      </trkpt>
      <trkpt lat="42.51438290812075138092041015625" lon="19.948496706783771514892578125">
        <ele>1876.5999755859375</ele>
        <time>2026-06-17T09:53:00.000Z</time>
        <extensions>
          <ns3:TrackPointExtension>
            <ns3:atemp>19.0</ns3:atemp>
          </ns3:TrackPointExtension>
        </extensions>
      </trkpt>
      <trkpt lat="42.51438290812075138092041015625" lon="19.948496706783771514892578125">
        <ele>1876.5999755859375</ele>
        <time>2026-06-17T09:53:01.000Z</time>
        <extensions>
          <ns3:TrackPointExtension>
            <ns3:atemp>19.0</ns3:atemp>
          </ns3:TrackPointExtension>
        </extensions>
      </trkpt>
      <trkpt lat="42.51438290812075138092041015625" lon="19.948496706783771514892578125">
        <ele>1876.5999755859375</ele>
        <time>2026-06-17T09:53:02.000Z</time>
        <extensions>
          <ns3:TrackPointExtension>
            <ns3:atemp>19.0</ns3:atemp>
          </ns3:TrackPointExtension>
        </extensions>
      </trkpt>
      <trkpt lat="42.51438290812075138092041015625" lon="19.948496706783771514892578125">
        <ele>1876.5999755859375</ele>
        <time>2026-06-17T09:53:03.000Z</time>
        <extensions>
          <ns3:TrackPointExtension>
            <ns3:atemp>19.0</ns3:atemp>
          </ns3:TrackPointExtension>
        </extensions>
      </trkpt>
      <trkpt lat="42.51438290812075138092041015625" lon="19.948496706783771514892578125">
        <ele>1876.5999755859375</ele>
        <time>2026-06-17T09:53:04.000Z</time>
        <extensions>
          <ns3:TrackPointExtension>
            <ns3:atemp>19.0</ns3:atemp>
          </ns3:TrackPointExtension>
        </extensions>
      </trkpt>
      <trkpt lat="42.51438290812075138092041015625" lon="19.948496706783771514892578125">
        <ele>1876.5999755859375</ele>
        <time>2026-06-17T09:53:05.000Z</time>
        <extensions>
          <ns3:TrackPointExtension>
            <ns3:atemp>19.0</ns3:atemp>
          </ns3:TrackPointExtension>
        </extensions>
      </trkpt>
      <trkpt lat="42.51438290812075138092041015625" lon="19.948496706783771514892578125">
        <ele>1876.5999755859375</ele>
        <time>2026-06-17T09:53:06.000Z</time>
        <extensions>
          <ns3:TrackPointExtension>
            <ns3:atemp>19.0</ns3:atemp>
          </ns3:TrackPointExtension>
        </extensions>
      </trkpt>
      <trkpt lat="42.51438290812075138092041015625" lon="19.948496706783771514892578125">
        <ele>1876.5999755859375</ele>
        <time>2026-06-17T09:53:07.000Z</time>
        <extensions>
          <ns3:TrackPointExtension>
            <ns3:atemp>19.0</ns3:atemp>
          </ns3:TrackPointExtension>
        </extensions>
      </trkpt>
      <trkpt lat="42.51438290812075138092041015625" lon="19.948496706783771514892578125">
        <ele>1876.5999755859375</ele>
        <time>2026-06-17T09:53:08.000Z</time>
        <extensions>
          <ns3:TrackPointExtension>
            <ns3:atemp>19.0</ns3:atemp>
          </ns3:TrackPointExtension>
        </extensions>
      </trkpt>
      <trkpt lat="42.51438290812075138092041015625" lon="19.948496706783771514892578125">
        <ele>1876.4000244140625</ele>
        <time>2026-06-17T09:53:09.000Z</time>
        <extensions>
          <ns3:TrackPointExtension>
            <ns3:atemp>19.0</ns3:atemp>
          </ns3:TrackPointExtension>
        </extensions>
      </trkpt>
      <trkpt lat="42.51438290812075138092041015625" lon="19.948496706783771514892578125">
        <ele>1876.4000244140625</ele>
        <time>2026-06-17T09:53:10.000Z</time>
        <extensions>
          <ns3:TrackPointExtension>
            <ns3:atemp>19.0</ns3:atemp>
          </ns3:TrackPointExtension>
        </extensions>
      </trkpt>
      <trkpt lat="42.51438290812075138092041015625" lon="19.948496706783771514892578125">
        <ele>1876.4000244140625</ele>
        <time>2026-06-17T09:53:11.000Z</time>
        <extensions>
          <ns3:TrackPointExtension>
            <ns3:atemp>19.0</ns3:atemp>
          </ns3:TrackPointExtension>
        </extensions>
      </trkpt>
      <trkpt lat="42.51438290812075138092041015625" lon="19.948496706783771514892578125">
        <ele>1876.4000244140625</ele>
        <time>2026-06-17T09:53:12.000Z</time>
        <extensions>
          <ns3:TrackPointExtension>
            <ns3:atemp>19.0</ns3:atemp>
          </ns3:TrackPointExtension>
        </extensions>
      </trkpt>
      <trkpt lat="42.51438290812075138092041015625" lon="19.948496706783771514892578125">
        <ele>1876.4000244140625</ele>
        <time>2026-06-17T09:53:13.000Z</time>
        <extensions>
          <ns3:TrackPointExtension>
            <ns3:atemp>19.0</ns3:atemp>
          </ns3:TrackPointExtension>
        </extensions>
      </trkpt>
      <trkpt lat="42.51438290812075138092041015625" lon="19.948496706783771514892578125">
        <ele>1876.4000244140625</ele>
        <time>2026-06-17T09:53:14.000Z</time>
        <extensions>
          <ns3:TrackPointExtension>
            <ns3:atemp>19.0</ns3:atemp>
          </ns3:TrackPointExtension>
        </extensions>
      </trkpt>
      <trkpt lat="42.51438290812075138092041015625" lon="19.948496706783771514892578125">
        <ele>1876.4000244140625</ele>
        <time>2026-06-17T09:53:15.000Z</time>
        <extensions>
          <ns3:TrackPointExtension>
            <ns3:atemp>19.0</ns3:atemp>
          </ns3:TrackPointExtension>
        </extensions>
      </trkpt>
      <trkpt lat="42.51438290812075138092041015625" lon="19.948496706783771514892578125">
        <ele>1876.4000244140625</ele>
        <time>2026-06-17T09:53:16.000Z</time>
        <extensions>
          <ns3:TrackPointExtension>
            <ns3:atemp>19.0</ns3:atemp>
          </ns3:TrackPointExtension>
        </extensions>
      </trkpt>
      <trkpt lat="42.51438290812075138092041015625" lon="19.948496706783771514892578125">
        <ele>1876.4000244140625</ele>
        <time>2026-06-17T09:53:17.000Z</time>
        <extensions>
          <ns3:TrackPointExtension>
            <ns3:atemp>19.0</ns3:atemp>
          </ns3:TrackPointExtension>
        </extensions>
      </trkpt>
      <trkpt lat="42.51438290812075138092041015625" lon="19.948496706783771514892578125">
        <ele>1876.4000244140625</ele>
        <time>2026-06-17T09:53:18.000Z</time>
        <extensions>
          <ns3:TrackPointExtension>
            <ns3:atemp>19.0</ns3:atemp>
          </ns3:TrackPointExtension>
        </extensions>
      </trkpt>
      <trkpt lat="42.51438290812075138092041015625" lon="19.948496706783771514892578125">
        <ele>1876.4000244140625</ele>
        <time>2026-06-17T09:53:19.000Z</time>
        <extensions>
          <ns3:TrackPointExtension>
            <ns3:atemp>19.0</ns3:atemp>
          </ns3:TrackPointExtension>
        </extensions>
      </trkpt>
      <trkpt lat="42.51438290812075138092041015625" lon="19.948496706783771514892578125">
        <ele>1876.4000244140625</ele>
        <time>2026-06-17T09:53:20.000Z</time>
        <extensions>
          <ns3:TrackPointExtension>
            <ns3:atemp>19.0</ns3:atemp>
          </ns3:TrackPointExtension>
        </extensions>
      </trkpt>
      <trkpt lat="42.51438290812075138092041015625" lon="19.948496706783771514892578125">
        <ele>1876.4000244140625</ele>
        <time>2026-06-17T09:53:21.000Z</time>
        <extensions>
          <ns3:TrackPointExtension>
            <ns3:atemp>19.0</ns3:atemp>
          </ns3:TrackPointExtension>
        </extensions>
      </trkpt>
      <trkpt lat="42.51438290812075138092041015625" lon="19.948496706783771514892578125">
        <ele>1876.4000244140625</ele>
        <time>2026-06-17T09:53:22.000Z</time>
        <extensions>
          <ns3:TrackPointExtension>
            <ns3:atemp>19.0</ns3:atemp>
          </ns3:TrackPointExtension>
        </extensions>
      </trkpt>
      <trkpt lat="42.51438290812075138092041015625" lon="19.948496706783771514892578125">
        <ele>1876.5999755859375</ele>
        <time>2026-06-17T09:53:23.000Z</time>
        <extensions>
          <ns3:TrackPointExtension>
            <ns3:atemp>19.0</ns3:atemp>
          </ns3:TrackPointExtension>
        </extensions>
      </trkpt>
      <trkpt lat="42.51438290812075138092041015625" lon="19.948496706783771514892578125">
        <ele>1876.4000244140625</ele>
        <time>2026-06-17T09:53:24.000Z</time>
        <extensions>
          <ns3:TrackPointExtension>
            <ns3:atemp>19.0</ns3:atemp>
          </ns3:TrackPointExtension>
        </extensions>
      </trkpt>
      <trkpt lat="42.51438290812075138092041015625" lon="19.948496706783771514892578125">
        <ele>1876.4000244140625</ele>
        <time>2026-06-17T09:53:25.000Z</time>
        <extensions>
          <ns3:TrackPointExtension>
            <ns3:atemp>19.0</ns3:atemp>
          </ns3:TrackPointExtension>
        </extensions>
      </trkpt>
      <trkpt lat="42.51438290812075138092041015625" lon="19.948496706783771514892578125">
        <ele>1876.4000244140625</ele>
        <time>2026-06-17T09:53:26.000Z</time>
        <extensions>
          <ns3:TrackPointExtension>
            <ns3:atemp>19.0</ns3:atemp>
          </ns3:TrackPointExtension>
        </extensions>
      </trkpt>
      <trkpt lat="42.51438290812075138092041015625" lon="19.948496706783771514892578125">
        <ele>1876.4000244140625</ele>
        <time>2026-06-17T09:53:27.000Z</time>
        <extensions>
          <ns3:TrackPointExtension>
            <ns3:atemp>19.0</ns3:atemp>
          </ns3:TrackPointExtension>
        </extensions>
      </trkpt>
      <trkpt lat="42.51438290812075138092041015625" lon="19.948496706783771514892578125">
        <ele>1876.4000244140625</ele>
        <time>2026-06-17T09:53:28.000Z</time>
        <extensions>
          <ns3:TrackPointExtension>
            <ns3:atemp>20.0</ns3:atemp>
          </ns3:TrackPointExtension>
        </extensions>
      </trkpt>
      <trkpt lat="42.51438290812075138092041015625" lon="19.948496706783771514892578125">
        <ele>1876.4000244140625</ele>
        <time>2026-06-17T09:53:29.000Z</time>
        <extensions>
          <ns3:TrackPointExtension>
            <ns3:atemp>20.0</ns3:atemp>
          </ns3:TrackPointExtension>
        </extensions>
      </trkpt>
      <trkpt lat="42.51438290812075138092041015625" lon="19.948496706783771514892578125">
        <ele>1876.4000244140625</ele>
        <time>2026-06-17T09:53:30.000Z</time>
        <extensions>
          <ns3:TrackPointExtension>
            <ns3:atemp>20.0</ns3:atemp>
          </ns3:TrackPointExtension>
        </extensions>
      </trkpt>
      <trkpt lat="42.51438290812075138092041015625" lon="19.948496706783771514892578125">
        <ele>1876.199951171875</ele>
        <time>2026-06-17T09:53:31.000Z</time>
        <extensions>
          <ns3:TrackPointExtension>
            <ns3:atemp>20.0</ns3:atemp>
          </ns3:TrackPointExtension>
        </extensions>
      </trkpt>
      <trkpt lat="42.51438290812075138092041015625" lon="19.948496706783771514892578125">
        <ele>1876.199951171875</ele>
        <time>2026-06-17T09:53:32.000Z</time>
        <extensions>
          <ns3:TrackPointExtension>
            <ns3:atemp>20.0</ns3:atemp>
          </ns3:TrackPointExtension>
        </extensions>
      </trkpt>
      <trkpt lat="42.51438290812075138092041015625" lon="19.948496706783771514892578125">
        <ele>1876.199951171875</ele>
        <time>2026-06-17T09:53:33.000Z</time>
        <extensions>
          <ns3:TrackPointExtension>
            <ns3:atemp>20.0</ns3:atemp>
          </ns3:TrackPointExtension>
        </extensions>
      </trkpt>
      <trkpt lat="42.51438290812075138092041015625" lon="19.948496706783771514892578125">
        <ele>1876.199951171875</ele>
        <time>2026-06-17T09:53:34.000Z</time>
        <extensions>
          <ns3:TrackPointExtension>
            <ns3:atemp>20.0</ns3:atemp>
          </ns3:TrackPointExtension>
        </extensions>
      </trkpt>
      <trkpt lat="42.51438290812075138092041015625" lon="19.948496706783771514892578125">
        <ele>1876.199951171875</ele>
        <time>2026-06-17T09:53:35.000Z</time>
        <extensions>
          <ns3:TrackPointExtension>
            <ns3:atemp>20.0</ns3:atemp>
          </ns3:TrackPointExtension>
        </extensions>
      </trkpt>
      <trkpt lat="42.51438290812075138092041015625" lon="19.948496706783771514892578125">
        <ele>1876.199951171875</ele>
        <time>2026-06-17T09:53:36.000Z</time>
        <extensions>
          <ns3:TrackPointExtension>
            <ns3:atemp>20.0</ns3:atemp>
          </ns3:TrackPointExtension>
        </extensions>
      </trkpt>
      <trkpt lat="42.51438290812075138092041015625" lon="19.948496706783771514892578125">
        <ele>1876.4000244140625</ele>
        <time>2026-06-17T09:53:37.000Z</time>
        <extensions>
          <ns3:TrackPointExtension>
            <ns3:atemp>20.0</ns3:atemp>
          </ns3:TrackPointExtension>
        </extensions>
      </trkpt>
      <trkpt lat="42.51438290812075138092041015625" lon="19.948496706783771514892578125">
        <ele>1876.4000244140625</ele>
        <time>2026-06-17T09:53:38.000Z</time>
        <extensions>
          <ns3:TrackPointExtension>
            <ns3:atemp>20.0</ns3:atemp>
          </ns3:TrackPointExtension>
        </extensions>
      </trkpt>
      <trkpt lat="42.51438290812075138092041015625" lon="19.948496706783771514892578125">
        <ele>1876.4000244140625</ele>
        <time>2026-06-17T09:53:39.000Z</time>
        <extensions>
          <ns3:TrackPointExtension>
            <ns3:atemp>20.0</ns3:atemp>
          </ns3:TrackPointExtension>
        </extensions>
      </trkpt>
      <trkpt lat="42.51438290812075138092041015625" lon="19.948496706783771514892578125">
        <ele>1876.199951171875</ele>
        <time>2026-06-17T09:53:40.000Z</time>
        <extensions>
          <ns3:TrackPointExtension>
            <ns3:atemp>20.0</ns3:atemp>
          </ns3:TrackPointExtension>
        </extensions>
      </trkpt>
      <trkpt lat="42.51438290812075138092041015625" lon="19.948496706783771514892578125">
        <ele>1876.199951171875</ele>
        <time>2026-06-17T09:53:41.000Z</time>
        <extensions>
          <ns3:TrackPointExtension>
            <ns3:atemp>20.0</ns3:atemp>
          </ns3:TrackPointExtension>
        </extensions>
      </trkpt>
      <trkpt lat="42.51438290812075138092041015625" lon="19.948496706783771514892578125">
        <ele>1876.199951171875</ele>
        <time>2026-06-17T09:53:42.000Z</time>
        <extensions>
          <ns3:TrackPointExtension>
            <ns3:atemp>20.0</ns3:atemp>
          </ns3:TrackPointExtension>
        </extensions>
      </trkpt>
      <trkpt lat="42.51438290812075138092041015625" lon="19.948496706783771514892578125">
        <ele>1876.199951171875</ele>
        <time>2026-06-17T09:53:43.000Z</time>
        <extensions>
          <ns3:TrackPointExtension>
            <ns3:atemp>20.0</ns3:atemp>
          </ns3:TrackPointExtension>
        </extensions>
      </trkpt>
      <trkpt lat="42.51438290812075138092041015625" lon="19.948496706783771514892578125">
        <ele>1876.199951171875</ele>
        <time>2026-06-17T09:53:44.000Z</time>
        <extensions>
          <ns3:TrackPointExtension>
            <ns3:atemp>20.0</ns3:atemp>
          </ns3:TrackPointExtension>
        </extensions>
      </trkpt>
      <trkpt lat="42.51438290812075138092041015625" lon="19.948496706783771514892578125">
        <ele>1876.199951171875</ele>
        <time>2026-06-17T09:53:45.000Z</time>
        <extensions>
          <ns3:TrackPointExtension>
            <ns3:atemp>20.0</ns3:atemp>
          </ns3:TrackPointExtension>
        </extensions>
      </trkpt>
      <trkpt lat="42.51438290812075138092041015625" lon="19.948496706783771514892578125">
        <ele>1876.199951171875</ele>
        <time>2026-06-17T09:53:46.000Z</time>
        <extensions>
          <ns3:TrackPointExtension>
            <ns3:atemp>20.0</ns3:atemp>
          </ns3:TrackPointExtension>
        </extensions>
      </trkpt>
      <trkpt lat="42.51438290812075138092041015625" lon="19.948496706783771514892578125">
        <ele>1876.199951171875</ele>
        <time>2026-06-17T09:53:47.000Z</time>
        <extensions>
          <ns3:TrackPointExtension>
            <ns3:atemp>20.0</ns3:atemp>
          </ns3:TrackPointExtension>
        </extensions>
      </trkpt>
      <trkpt lat="42.51438290812075138092041015625" lon="19.948496706783771514892578125">
        <ele>1876.199951171875</ele>
        <time>2026-06-17T09:53:48.000Z</time>
        <extensions>
          <ns3:TrackPointExtension>
            <ns3:atemp>20.0</ns3:atemp>
          </ns3:TrackPointExtension>
        </extensions>
      </trkpt>
      <trkpt lat="42.51438290812075138092041015625" lon="19.948496706783771514892578125">
        <ele>1876.199951171875</ele>
        <time>2026-06-17T09:53:49.000Z</time>
        <extensions>
          <ns3:TrackPointExtension>
            <ns3:atemp>20.0</ns3:atemp>
          </ns3:TrackPointExtension>
        </extensions>
      </trkpt>
      <trkpt lat="42.51438290812075138092041015625" lon="19.948496706783771514892578125">
        <ele>1876.199951171875</ele>
        <time>2026-06-17T09:53:50.000Z</time>
        <extensions>
          <ns3:TrackPointExtension>
            <ns3:atemp>20.0</ns3:atemp>
          </ns3:TrackPointExtension>
        </extensions>
      </trkpt>
      <trkpt lat="42.51438290812075138092041015625" lon="19.948496706783771514892578125">
        <ele>1876.199951171875</ele>
        <time>2026-06-17T09:53:51.000Z</time>
        <extensions>
          <ns3:TrackPointExtension>
            <ns3:atemp>20.0</ns3:atemp>
          </ns3:TrackPointExtension>
        </extensions>
      </trkpt>
      <trkpt lat="42.51438290812075138092041015625" lon="19.948496706783771514892578125">
        <ele>1876.199951171875</ele>
        <time>2026-06-17T09:53:52.000Z</time>
        <extensions>
          <ns3:TrackPointExtension>
            <ns3:atemp>20.0</ns3:atemp>
          </ns3:TrackPointExtension>
        </extensions>
      </trkpt>
      <trkpt lat="42.51438290812075138092041015625" lon="19.948496706783771514892578125">
        <ele>1876.199951171875</ele>
        <time>2026-06-17T09:53:53.000Z</time>
        <extensions>
          <ns3:TrackPointExtension>
            <ns3:atemp>20.0</ns3:atemp>
          </ns3:TrackPointExtension>
        </extensions>
      </trkpt>
      <trkpt lat="42.51438290812075138092041015625" lon="19.948496706783771514892578125">
        <ele>1876.199951171875</ele>
        <time>2026-06-17T09:53:54.000Z</time>
        <extensions>
          <ns3:TrackPointExtension>
            <ns3:atemp>20.0</ns3:atemp>
          </ns3:TrackPointExtension>
        </extensions>
      </trkpt>
      <trkpt lat="42.51438290812075138092041015625" lon="19.948496706783771514892578125">
        <ele>1876.199951171875</ele>
        <time>2026-06-17T09:53:55.000Z</time>
        <extensions>
          <ns3:TrackPointExtension>
            <ns3:atemp>20.0</ns3:atemp>
          </ns3:TrackPointExtension>
        </extensions>
      </trkpt>
      <trkpt lat="42.51438290812075138092041015625" lon="19.948496706783771514892578125">
        <ele>1876.199951171875</ele>
        <time>2026-06-17T09:53:56.000Z</time>
        <extensions>
          <ns3:TrackPointExtension>
            <ns3:atemp>20.0</ns3:atemp>
          </ns3:TrackPointExtension>
        </extensions>
      </trkpt>
      <trkpt lat="42.51438290812075138092041015625" lon="19.948496706783771514892578125">
        <ele>1876.199951171875</ele>
        <time>2026-06-17T09:53:57.000Z</time>
        <extensions>
          <ns3:TrackPointExtension>
            <ns3:atemp>20.0</ns3:atemp>
          </ns3:TrackPointExtension>
        </extensions>
      </trkpt>
      <trkpt lat="42.51438290812075138092041015625" lon="19.948496706783771514892578125">
        <ele>1876.199951171875</ele>
        <time>2026-06-17T09:53:58.000Z</time>
        <extensions>
          <ns3:TrackPointExtension>
            <ns3:atemp>20.0</ns3:atemp>
          </ns3:TrackPointExtension>
        </extensions>
      </trkpt>
      <trkpt lat="42.51438290812075138092041015625" lon="19.948496706783771514892578125">
        <ele>1876.199951171875</ele>
        <time>2026-06-17T09:53:59.000Z</time>
        <extensions>
          <ns3:TrackPointExtension>
            <ns3:atemp>20.0</ns3:atemp>
          </ns3:TrackPointExtension>
        </extensions>
      </trkpt>
      <trkpt lat="42.51438290812075138092041015625" lon="19.948496706783771514892578125">
        <ele>1876.199951171875</ele>
        <time>2026-06-17T09:54:00.000Z</time>
        <extensions>
          <ns3:TrackPointExtension>
            <ns3:atemp>20.0</ns3:atemp>
          </ns3:TrackPointExtension>
        </extensions>
      </trkpt>
      <trkpt lat="42.51438290812075138092041015625" lon="19.948496706783771514892578125">
        <ele>1876.199951171875</ele>
        <time>2026-06-17T09:54:01.000Z</time>
        <extensions>
          <ns3:TrackPointExtension>
            <ns3:atemp>20.0</ns3:atemp>
          </ns3:TrackPointExtension>
        </extensions>
      </trkpt>
      <trkpt lat="42.51438290812075138092041015625" lon="19.948496706783771514892578125">
        <ele>1876.199951171875</ele>
        <time>2026-06-17T09:54:02.000Z</time>
        <extensions>
          <ns3:TrackPointExtension>
            <ns3:atemp>20.0</ns3:atemp>
          </ns3:TrackPointExtension>
        </extensions>
      </trkpt>
      <trkpt lat="42.51438290812075138092041015625" lon="19.948496706783771514892578125">
        <ele>1876.199951171875</ele>
        <time>2026-06-17T09:54:03.000Z</time>
        <extensions>
          <ns3:TrackPointExtension>
            <ns3:atemp>20.0</ns3:atemp>
          </ns3:TrackPointExtension>
        </extensions>
      </trkpt>
      <trkpt lat="42.51438290812075138092041015625" lon="19.948496706783771514892578125">
        <ele>1876.199951171875</ele>
        <time>2026-06-17T09:54:04.000Z</time>
        <extensions>
          <ns3:TrackPointExtension>
            <ns3:atemp>20.0</ns3:atemp>
          </ns3:TrackPointExtension>
        </extensions>
      </trkpt>
      <trkpt lat="42.51438290812075138092041015625" lon="19.948496706783771514892578125">
        <ele>1876.199951171875</ele>
        <time>2026-06-17T09:54:05.000Z</time>
        <extensions>
          <ns3:TrackPointExtension>
            <ns3:atemp>20.0</ns3:atemp>
          </ns3:TrackPointExtension>
        </extensions>
      </trkpt>
      <trkpt lat="42.51438290812075138092041015625" lon="19.948496706783771514892578125">
        <ele>1876.199951171875</ele>
        <time>2026-06-17T09:54:06.000Z</time>
        <extensions>
          <ns3:TrackPointExtension>
            <ns3:atemp>20.0</ns3:atemp>
          </ns3:TrackPointExtension>
        </extensions>
      </trkpt>
      <trkpt lat="42.51438290812075138092041015625" lon="19.948496706783771514892578125">
        <ele>1876.199951171875</ele>
        <time>2026-06-17T09:54:07.000Z</time>
        <extensions>
          <ns3:TrackPointExtension>
            <ns3:atemp>20.0</ns3:atemp>
          </ns3:TrackPointExtension>
        </extensions>
      </trkpt>
      <trkpt lat="42.51438290812075138092041015625" lon="19.948496706783771514892578125">
        <ele>1876.199951171875</ele>
        <time>2026-06-17T09:54:08.000Z</time>
        <extensions>
          <ns3:TrackPointExtension>
            <ns3:atemp>20.0</ns3:atemp>
          </ns3:TrackPointExtension>
        </extensions>
      </trkpt>
      <trkpt lat="42.51438290812075138092041015625" lon="19.948496706783771514892578125">
        <ele>1876.199951171875</ele>
        <time>2026-06-17T09:54:09.000Z</time>
        <extensions>
          <ns3:TrackPointExtension>
            <ns3:atemp>20.0</ns3:atemp>
          </ns3:TrackPointExtension>
        </extensions>
      </trkpt>
      <trkpt lat="42.51438290812075138092041015625" lon="19.948496706783771514892578125">
        <ele>1876.199951171875</ele>
        <time>2026-06-17T09:54:10.000Z</time>
        <extensions>
          <ns3:TrackPointExtension>
            <ns3:atemp>20.0</ns3:atemp>
          </ns3:TrackPointExtension>
        </extensions>
      </trkpt>
      <trkpt lat="42.51438290812075138092041015625" lon="19.948496706783771514892578125">
        <ele>1876.199951171875</ele>
        <time>2026-06-17T09:54:11.000Z</time>
        <extensions>
          <ns3:TrackPointExtension>
            <ns3:atemp>20.0</ns3:atemp>
          </ns3:TrackPointExtension>
        </extensions>
      </trkpt>
      <trkpt lat="42.51438290812075138092041015625" lon="19.948496706783771514892578125">
        <ele>1876.199951171875</ele>
        <time>2026-06-17T09:54:12.000Z</time>
        <extensions>
          <ns3:TrackPointExtension>
            <ns3:atemp>20.0</ns3:atemp>
          </ns3:TrackPointExtension>
        </extensions>
      </trkpt>
      <trkpt lat="42.51438290812075138092041015625" lon="19.948496706783771514892578125">
        <ele>1876.199951171875</ele>
        <time>2026-06-17T09:54:13.000Z</time>
        <extensions>
          <ns3:TrackPointExtension>
            <ns3:atemp>20.0</ns3:atemp>
          </ns3:TrackPointExtension>
        </extensions>
      </trkpt>
      <trkpt lat="42.51438290812075138092041015625" lon="19.948496706783771514892578125">
        <ele>1876.199951171875</ele>
        <time>2026-06-17T09:54:14.000Z</time>
        <extensions>
          <ns3:TrackPointExtension>
            <ns3:atemp>20.0</ns3:atemp>
          </ns3:TrackPointExtension>
        </extensions>
      </trkpt>
      <trkpt lat="42.51438290812075138092041015625" lon="19.948496706783771514892578125">
        <ele>1876.199951171875</ele>
        <time>2026-06-17T09:54:15.000Z</time>
        <extensions>
          <ns3:TrackPointExtension>
            <ns3:atemp>20.0</ns3:atemp>
          </ns3:TrackPointExtension>
        </extensions>
      </trkpt>
      <trkpt lat="42.51438290812075138092041015625" lon="19.948496706783771514892578125">
        <ele>1876.199951171875</ele>
        <time>2026-06-17T09:54:16.000Z</time>
        <extensions>
          <ns3:TrackPointExtension>
            <ns3:atemp>20.0</ns3:atemp>
          </ns3:TrackPointExtension>
        </extensions>
      </trkpt>
      <trkpt lat="42.51438290812075138092041015625" lon="19.948496706783771514892578125">
        <ele>1876.199951171875</ele>
        <time>2026-06-17T09:54:17.000Z</time>
        <extensions>
          <ns3:TrackPointExtension>
            <ns3:atemp>20.0</ns3:atemp>
          </ns3:TrackPointExtension>
        </extensions>
      </trkpt>
      <trkpt lat="42.51438290812075138092041015625" lon="19.948496706783771514892578125">
        <ele>1876.199951171875</ele>
        <time>2026-06-17T09:54:18.000Z</time>
        <extensions>
          <ns3:TrackPointExtension>
            <ns3:atemp>20.0</ns3:atemp>
          </ns3:TrackPointExtension>
        </extensions>
      </trkpt>
      <trkpt lat="42.51438290812075138092041015625" lon="19.948496706783771514892578125">
        <ele>1876.199951171875</ele>
        <time>2026-06-17T09:54:19.000Z</time>
        <extensions>
          <ns3:TrackPointExtension>
            <ns3:atemp>20.0</ns3:atemp>
          </ns3:TrackPointExtension>
        </extensions>
      </trkpt>
      <trkpt lat="42.51438290812075138092041015625" lon="19.948496706783771514892578125">
        <ele>1876.199951171875</ele>
        <time>2026-06-17T09:54:20.000Z</time>
        <extensions>
          <ns3:TrackPointExtension>
            <ns3:atemp>20.0</ns3:atemp>
          </ns3:TrackPointExtension>
        </extensions>
      </trkpt>
      <trkpt lat="42.51438290812075138092041015625" lon="19.948496706783771514892578125">
        <ele>1876.199951171875</ele>
        <time>2026-06-17T09:54:21.000Z</time>
        <extensions>
          <ns3:TrackPointExtension>
            <ns3:atemp>20.0</ns3:atemp>
          </ns3:TrackPointExtension>
        </extensions>
      </trkpt>
      <trkpt lat="42.51438290812075138092041015625" lon="19.948496706783771514892578125">
        <ele>1876.199951171875</ele>
        <time>2026-06-17T09:54:22.000Z</time>
        <extensions>
          <ns3:TrackPointExtension>
            <ns3:atemp>20.0</ns3:atemp>
          </ns3:TrackPointExtension>
        </extensions>
      </trkpt>
      <trkpt lat="42.51438290812075138092041015625" lon="19.948496706783771514892578125">
        <ele>1876.199951171875</ele>
        <time>2026-06-17T09:54:23.000Z</time>
        <extensions>
          <ns3:TrackPointExtension>
            <ns3:atemp>20.0</ns3:atemp>
          </ns3:TrackPointExtension>
        </extensions>
      </trkpt>
      <trkpt lat="42.51438290812075138092041015625" lon="19.948496706783771514892578125">
        <ele>1876.199951171875</ele>
        <time>2026-06-17T09:54:24.000Z</time>
        <extensions>
          <ns3:TrackPointExtension>
            <ns3:atemp>20.0</ns3:atemp>
          </ns3:TrackPointExtension>
        </extensions>
      </trkpt>
      <trkpt lat="42.51438290812075138092041015625" lon="19.948496706783771514892578125">
        <ele>1876.199951171875</ele>
        <time>2026-06-17T09:54:25.000Z</time>
        <extensions>
          <ns3:TrackPointExtension>
            <ns3:atemp>20.0</ns3:atemp>
          </ns3:TrackPointExtension>
        </extensions>
      </trkpt>
      <trkpt lat="42.51438290812075138092041015625" lon="19.948496706783771514892578125">
        <ele>1876.199951171875</ele>
        <time>2026-06-17T09:54:26.000Z</time>
        <extensions>
          <ns3:TrackPointExtension>
            <ns3:atemp>20.0</ns3:atemp>
          </ns3:TrackPointExtension>
        </extensions>
      </trkpt>
      <trkpt lat="42.51438290812075138092041015625" lon="19.948496706783771514892578125">
        <ele>1876.199951171875</ele>
        <time>2026-06-17T09:54:27.000Z</time>
        <extensions>
          <ns3:TrackPointExtension>
            <ns3:atemp>20.0</ns3:atemp>
          </ns3:TrackPointExtension>
        </extensions>
      </trkpt>
      <trkpt lat="42.51438290812075138092041015625" lon="19.948496706783771514892578125">
        <ele>1876.199951171875</ele>
        <time>2026-06-17T09:54:28.000Z</time>
        <extensions>
          <ns3:TrackPointExtension>
            <ns3:atemp>20.0</ns3:atemp>
          </ns3:TrackPointExtension>
        </extensions>
      </trkpt>
      <trkpt lat="42.51438290812075138092041015625" lon="19.948496706783771514892578125">
        <ele>1876.199951171875</ele>
        <time>2026-06-17T09:54:29.000Z</time>
        <extensions>
          <ns3:TrackPointExtension>
            <ns3:atemp>20.0</ns3:atemp>
          </ns3:TrackPointExtension>
        </extensions>
      </trkpt>
      <trkpt lat="42.51438290812075138092041015625" lon="19.948496706783771514892578125">
        <ele>1876.199951171875</ele>
        <time>2026-06-17T09:54:30.000Z</time>
        <extensions>
          <ns3:TrackPointExtension>
            <ns3:atemp>20.0</ns3:atemp>
          </ns3:TrackPointExtension>
        </extensions>
      </trkpt>
      <trkpt lat="42.51438290812075138092041015625" lon="19.948496706783771514892578125">
        <ele>1876.199951171875</ele>
        <time>2026-06-17T09:54:31.000Z</time>
        <extensions>
          <ns3:TrackPointExtension>
            <ns3:atemp>20.0</ns3:atemp>
          </ns3:TrackPointExtension>
        </extensions>
      </trkpt>
      <trkpt lat="42.51438290812075138092041015625" lon="19.948496706783771514892578125">
        <ele>1876.199951171875</ele>
        <time>2026-06-17T09:54:32.000Z</time>
        <extensions>
          <ns3:TrackPointExtension>
            <ns3:atemp>20.0</ns3:atemp>
          </ns3:TrackPointExtension>
        </extensions>
      </trkpt>
      <trkpt lat="42.51438290812075138092041015625" lon="19.948496706783771514892578125">
        <ele>1876.199951171875</ele>
        <time>2026-06-17T09:54:33.000Z</time>
        <extensions>
          <ns3:TrackPointExtension>
            <ns3:atemp>20.0</ns3:atemp>
          </ns3:TrackPointExtension>
        </extensions>
      </trkpt>
      <trkpt lat="42.51438290812075138092041015625" lon="19.948496706783771514892578125">
        <ele>1876.199951171875</ele>
        <time>2026-06-17T09:54:34.000Z</time>
        <extensions>
          <ns3:TrackPointExtension>
            <ns3:atemp>20.0</ns3:atemp>
          </ns3:TrackPointExtension>
        </extensions>
      </trkpt>
      <trkpt lat="42.51438290812075138092041015625" lon="19.948496706783771514892578125">
        <ele>1876.199951171875</ele>
        <time>2026-06-17T09:54:35.000Z</time>
        <extensions>
          <ns3:TrackPointExtension>
            <ns3:atemp>20.0</ns3:atemp>
          </ns3:TrackPointExtension>
        </extensions>
      </trkpt>
      <trkpt lat="42.51438290812075138092041015625" lon="19.948496706783771514892578125">
        <ele>1876.199951171875</ele>
        <time>2026-06-17T09:54:36.000Z</time>
        <extensions>
          <ns3:TrackPointExtension>
            <ns3:atemp>20.0</ns3:atemp>
          </ns3:TrackPointExtension>
        </extensions>
      </trkpt>
      <trkpt lat="42.51438290812075138092041015625" lon="19.948496706783771514892578125">
        <ele>1876.199951171875</ele>
        <time>2026-06-17T09:54:37.000Z</time>
        <extensions>
          <ns3:TrackPointExtension>
            <ns3:atemp>20.0</ns3:atemp>
          </ns3:TrackPointExtension>
        </extensions>
      </trkpt>
      <trkpt lat="42.51438290812075138092041015625" lon="19.948496706783771514892578125">
        <ele>1876.199951171875</ele>
        <time>2026-06-17T09:54:38.000Z</time>
        <extensions>
          <ns3:TrackPointExtension>
            <ns3:atemp>20.0</ns3:atemp>
          </ns3:TrackPointExtension>
        </extensions>
      </trkpt>
      <trkpt lat="42.51438290812075138092041015625" lon="19.948496706783771514892578125">
        <ele>1876.199951171875</ele>
        <time>2026-06-17T09:54:39.000Z</time>
        <extensions>
          <ns3:TrackPointExtension>
            <ns3:atemp>20.0</ns3:atemp>
          </ns3:TrackPointExtension>
        </extensions>
      </trkpt>
      <trkpt lat="42.51438290812075138092041015625" lon="19.948496706783771514892578125">
        <ele>1876.199951171875</ele>
        <time>2026-06-17T09:54:40.000Z</time>
        <extensions>
          <ns3:TrackPointExtension>
            <ns3:atemp>20.0</ns3:atemp>
          </ns3:TrackPointExtension>
        </extensions>
      </trkpt>
      <trkpt lat="42.51438290812075138092041015625" lon="19.948496706783771514892578125">
        <ele>1876.199951171875</ele>
        <time>2026-06-17T09:54:41.000Z</time>
        <extensions>
          <ns3:TrackPointExtension>
            <ns3:atemp>20.0</ns3:atemp>
          </ns3:TrackPointExtension>
        </extensions>
      </trkpt>
      <trkpt lat="42.51438290812075138092041015625" lon="19.948496706783771514892578125">
        <ele>1876.199951171875</ele>
        <time>2026-06-17T09:54:42.000Z</time>
        <extensions>
          <ns3:TrackPointExtension>
            <ns3:atemp>20.0</ns3:atemp>
          </ns3:TrackPointExtension>
        </extensions>
      </trkpt>
      <trkpt lat="42.51438290812075138092041015625" lon="19.948496706783771514892578125">
        <ele>1876.199951171875</ele>
        <time>2026-06-17T09:54:43.000Z</time>
        <extensions>
          <ns3:TrackPointExtension>
            <ns3:atemp>20.0</ns3:atemp>
          </ns3:TrackPointExtension>
        </extensions>
      </trkpt>
      <trkpt lat="42.51438290812075138092041015625" lon="19.948496706783771514892578125">
        <ele>1876.199951171875</ele>
        <time>2026-06-17T09:54:44.000Z</time>
        <extensions>
          <ns3:TrackPointExtension>
            <ns3:atemp>20.0</ns3:atemp>
          </ns3:TrackPointExtension>
        </extensions>
      </trkpt>
      <trkpt lat="42.51438290812075138092041015625" lon="19.948496706783771514892578125">
        <ele>1876.199951171875</ele>
        <time>2026-06-17T09:54:45.000Z</time>
        <extensions>
          <ns3:TrackPointExtension>
            <ns3:atemp>20.0</ns3:atemp>
          </ns3:TrackPointExtension>
        </extensions>
      </trkpt>
      <trkpt lat="42.51438290812075138092041015625" lon="19.948496706783771514892578125">
        <ele>1876.199951171875</ele>
        <time>2026-06-17T09:54:46.000Z</time>
        <extensions>
          <ns3:TrackPointExtension>
            <ns3:atemp>20.0</ns3:atemp>
          </ns3:TrackPointExtension>
        </extensions>
      </trkpt>
      <trkpt lat="42.51438290812075138092041015625" lon="19.948496706783771514892578125">
        <ele>1876.199951171875</ele>
        <time>2026-06-17T09:54:47.000Z</time>
        <extensions>
          <ns3:TrackPointExtension>
            <ns3:atemp>20.0</ns3:atemp>
          </ns3:TrackPointExtension>
        </extensions>
      </trkpt>
      <trkpt lat="42.51438290812075138092041015625" lon="19.948496706783771514892578125">
        <ele>1876.199951171875</ele>
        <time>2026-06-17T09:54:48.000Z</time>
        <extensions>
          <ns3:TrackPointExtension>
            <ns3:atemp>20.0</ns3:atemp>
          </ns3:TrackPointExtension>
        </extensions>
      </trkpt>
      <trkpt lat="42.51438290812075138092041015625" lon="19.948496706783771514892578125">
        <ele>1876.199951171875</ele>
        <time>2026-06-17T09:54:49.000Z</time>
        <extensions>
          <ns3:TrackPointExtension>
            <ns3:atemp>20.0</ns3:atemp>
          </ns3:TrackPointExtension>
        </extensions>
      </trkpt>
      <trkpt lat="42.51438290812075138092041015625" lon="19.948496706783771514892578125">
        <ele>1876.199951171875</ele>
        <time>2026-06-17T09:54:50.000Z</time>
        <extensions>
          <ns3:TrackPointExtension>
            <ns3:atemp>20.0</ns3:atemp>
          </ns3:TrackPointExtension>
        </extensions>
      </trkpt>
      <trkpt lat="42.51438290812075138092041015625" lon="19.948496706783771514892578125">
        <ele>1876.199951171875</ele>
        <time>2026-06-17T09:54:51.000Z</time>
        <extensions>
          <ns3:TrackPointExtension>
            <ns3:atemp>20.0</ns3:atemp>
          </ns3:TrackPointExtension>
        </extensions>
      </trkpt>
      <trkpt lat="42.51438290812075138092041015625" lon="19.948496706783771514892578125">
        <ele>1876.199951171875</ele>
        <time>2026-06-17T09:54:52.000Z</time>
        <extensions>
          <ns3:TrackPointExtension>
            <ns3:atemp>20.0</ns3:atemp>
          </ns3:TrackPointExtension>
        </extensions>
      </trkpt>
      <trkpt lat="42.51438290812075138092041015625" lon="19.948496706783771514892578125">
        <ele>1876.199951171875</ele>
        <time>2026-06-17T09:54:53.000Z</time>
        <extensions>
          <ns3:TrackPointExtension>
            <ns3:atemp>20.0</ns3:atemp>
          </ns3:TrackPointExtension>
        </extensions>
      </trkpt>
      <trkpt lat="42.51438290812075138092041015625" lon="19.948496706783771514892578125">
        <ele>1876.199951171875</ele>
        <time>2026-06-17T09:54:54.000Z</time>
        <extensions>
          <ns3:TrackPointExtension>
            <ns3:atemp>20.0</ns3:atemp>
          </ns3:TrackPointExtension>
        </extensions>
      </trkpt>
      <trkpt lat="42.51438290812075138092041015625" lon="19.948496706783771514892578125">
        <ele>1876.199951171875</ele>
        <time>2026-06-17T09:54:55.000Z</time>
        <extensions>
          <ns3:TrackPointExtension>
            <ns3:atemp>20.0</ns3:atemp>
          </ns3:TrackPointExtension>
        </extensions>
      </trkpt>
      <trkpt lat="42.51438290812075138092041015625" lon="19.948496706783771514892578125">
        <ele>1876.199951171875</ele>
        <time>2026-06-17T09:54:56.000Z</time>
        <extensions>
          <ns3:TrackPointExtension>
            <ns3:atemp>20.0</ns3:atemp>
          </ns3:TrackPointExtension>
        </extensions>
      </trkpt>
      <trkpt lat="42.51438290812075138092041015625" lon="19.948496706783771514892578125">
        <ele>1876.199951171875</ele>
        <time>2026-06-17T09:54:57.000Z</time>
        <extensions>
          <ns3:TrackPointExtension>
            <ns3:atemp>20.0</ns3:atemp>
          </ns3:TrackPointExtension>
        </extensions>
      </trkpt>
      <trkpt lat="42.51438290812075138092041015625" lon="19.948496706783771514892578125">
        <ele>1876.199951171875</ele>
        <time>2026-06-17T09:54:58.000Z</time>
        <extensions>
          <ns3:TrackPointExtension>
            <ns3:atemp>20.0</ns3:atemp>
          </ns3:TrackPointExtension>
        </extensions>
      </trkpt>
      <trkpt lat="42.51438290812075138092041015625" lon="19.948496706783771514892578125">
        <ele>1876.199951171875</ele>
        <time>2026-06-17T09:54:59.000Z</time>
        <extensions>
          <ns3:TrackPointExtension>
            <ns3:atemp>20.0</ns3:atemp>
          </ns3:TrackPointExtension>
        </extensions>
      </trkpt>
      <trkpt lat="42.51438290812075138092041015625" lon="19.948496706783771514892578125">
        <ele>1876.199951171875</ele>
        <time>2026-06-17T09:55:00.000Z</time>
        <extensions>
          <ns3:TrackPointExtension>
            <ns3:atemp>20.0</ns3:atemp>
          </ns3:TrackPointExtension>
        </extensions>
      </trkpt>
      <trkpt lat="42.51438290812075138092041015625" lon="19.948496706783771514892578125">
        <ele>1876.199951171875</ele>
        <time>2026-06-17T09:55:01.000Z</time>
        <extensions>
          <ns3:TrackPointExtension>
            <ns3:atemp>20.0</ns3:atemp>
          </ns3:TrackPointExtension>
        </extensions>
      </trkpt>
      <trkpt lat="42.51438290812075138092041015625" lon="19.948496706783771514892578125">
        <ele>1876.199951171875</ele>
        <time>2026-06-17T09:55:02.000Z</time>
        <extensions>
          <ns3:TrackPointExtension>
            <ns3:atemp>20.0</ns3:atemp>
          </ns3:TrackPointExtension>
        </extensions>
      </trkpt>
      <trkpt lat="42.51438290812075138092041015625" lon="19.948496706783771514892578125">
        <ele>1876.199951171875</ele>
        <time>2026-06-17T09:55:03.000Z</time>
        <extensions>
          <ns3:TrackPointExtension>
            <ns3:atemp>20.0</ns3:atemp>
          </ns3:TrackPointExtension>
        </extensions>
      </trkpt>
      <trkpt lat="42.51438290812075138092041015625" lon="19.948496706783771514892578125">
        <ele>1876.199951171875</ele>
        <time>2026-06-17T09:55:04.000Z</time>
        <extensions>
          <ns3:TrackPointExtension>
            <ns3:atemp>20.0</ns3:atemp>
          </ns3:TrackPointExtension>
        </extensions>
      </trkpt>
      <trkpt lat="42.51438290812075138092041015625" lon="19.948496706783771514892578125">
        <ele>1876.199951171875</ele>
        <time>2026-06-17T09:55:05.000Z</time>
        <extensions>
          <ns3:TrackPointExtension>
            <ns3:atemp>20.0</ns3:atemp>
          </ns3:TrackPointExtension>
        </extensions>
      </trkpt>
      <trkpt lat="42.51438290812075138092041015625" lon="19.948496706783771514892578125">
        <ele>1876.199951171875</ele>
        <time>2026-06-17T09:55:06.000Z</time>
        <extensions>
          <ns3:TrackPointExtension>
            <ns3:atemp>20.0</ns3:atemp>
          </ns3:TrackPointExtension>
        </extensions>
      </trkpt>
      <trkpt lat="42.51438290812075138092041015625" lon="19.948496706783771514892578125">
        <ele>1876.199951171875</ele>
        <time>2026-06-17T09:55:07.000Z</time>
        <extensions>
          <ns3:TrackPointExtension>
            <ns3:atemp>20.0</ns3:atemp>
          </ns3:TrackPointExtension>
        </extensions>
      </trkpt>
      <trkpt lat="42.51438290812075138092041015625" lon="19.948496706783771514892578125">
        <ele>1876.199951171875</ele>
        <time>2026-06-17T09:55:08.000Z</time>
        <extensions>
          <ns3:TrackPointExtension>
            <ns3:atemp>20.0</ns3:atemp>
          </ns3:TrackPointExtension>
        </extensions>
      </trkpt>
      <trkpt lat="42.51438290812075138092041015625" lon="19.948496706783771514892578125">
        <ele>1876.199951171875</ele>
        <time>2026-06-17T09:55:09.000Z</time>
        <extensions>
          <ns3:TrackPointExtension>
            <ns3:atemp>20.0</ns3:atemp>
          </ns3:TrackPointExtension>
        </extensions>
      </trkpt>
      <trkpt lat="42.51438290812075138092041015625" lon="19.948496706783771514892578125">
        <ele>1876.199951171875</ele>
        <time>2026-06-17T09:55:10.000Z</time>
        <extensions>
          <ns3:TrackPointExtension>
            <ns3:atemp>20.0</ns3:atemp>
          </ns3:TrackPointExtension>
        </extensions>
      </trkpt>
      <trkpt lat="42.51438290812075138092041015625" lon="19.948496706783771514892578125">
        <ele>1876.199951171875</ele>
        <time>2026-06-17T09:55:11.000Z</time>
        <extensions>
          <ns3:TrackPointExtension>
            <ns3:atemp>20.0</ns3:atemp>
          </ns3:TrackPointExtension>
        </extensions>
      </trkpt>
      <trkpt lat="42.51438290812075138092041015625" lon="19.948496706783771514892578125">
        <ele>1876.199951171875</ele>
        <time>2026-06-17T09:55:12.000Z</time>
        <extensions>
          <ns3:TrackPointExtension>
            <ns3:atemp>20.0</ns3:atemp>
          </ns3:TrackPointExtension>
        </extensions>
      </trkpt>
      <trkpt lat="42.51438290812075138092041015625" lon="19.948496706783771514892578125">
        <ele>1876.199951171875</ele>
        <time>2026-06-17T09:55:13.000Z</time>
        <extensions>
          <ns3:TrackPointExtension>
            <ns3:atemp>20.0</ns3:atemp>
          </ns3:TrackPointExtension>
        </extensions>
      </trkpt>
      <trkpt lat="42.51438290812075138092041015625" lon="19.948496706783771514892578125">
        <ele>1876.199951171875</ele>
        <time>2026-06-17T09:55:14.000Z</time>
        <extensions>
          <ns3:TrackPointExtension>
            <ns3:atemp>20.0</ns3:atemp>
          </ns3:TrackPointExtension>
        </extensions>
      </trkpt>
      <trkpt lat="42.51438290812075138092041015625" lon="19.948496706783771514892578125">
        <ele>1876.199951171875</ele>
        <time>2026-06-17T09:55:15.000Z</time>
        <extensions>
          <ns3:TrackPointExtension>
            <ns3:atemp>20.0</ns3:atemp>
          </ns3:TrackPointExtension>
        </extensions>
      </trkpt>
      <trkpt lat="42.51438290812075138092041015625" lon="19.948496706783771514892578125">
        <ele>1876.199951171875</ele>
        <time>2026-06-17T09:55:16.000Z</time>
        <extensions>
          <ns3:TrackPointExtension>
            <ns3:atemp>20.0</ns3:atemp>
          </ns3:TrackPointExtension>
        </extensions>
      </trkpt>
      <trkpt lat="42.51438290812075138092041015625" lon="19.948496706783771514892578125">
        <ele>1876.199951171875</ele>
        <time>2026-06-17T09:55:17.000Z</time>
        <extensions>
          <ns3:TrackPointExtension>
            <ns3:atemp>20.0</ns3:atemp>
          </ns3:TrackPointExtension>
        </extensions>
      </trkpt>
      <trkpt lat="42.51438290812075138092041015625" lon="19.948496706783771514892578125">
        <ele>1876.199951171875</ele>
        <time>2026-06-17T09:55:18.000Z</time>
        <extensions>
          <ns3:TrackPointExtension>
            <ns3:atemp>20.0</ns3:atemp>
          </ns3:TrackPointExtension>
        </extensions>
      </trkpt>
      <trkpt lat="42.51438290812075138092041015625" lon="19.948496706783771514892578125">
        <ele>1876.199951171875</ele>
        <time>2026-06-17T09:55:19.000Z</time>
        <extensions>
          <ns3:TrackPointExtension>
            <ns3:atemp>20.0</ns3:atemp>
          </ns3:TrackPointExtension>
        </extensions>
      </trkpt>
      <trkpt lat="42.51438290812075138092041015625" lon="19.948496706783771514892578125">
        <ele>1876.199951171875</ele>
        <time>2026-06-17T09:55:20.000Z</time>
        <extensions>
          <ns3:TrackPointExtension>
            <ns3:atemp>20.0</ns3:atemp>
          </ns3:TrackPointExtension>
        </extensions>
      </trkpt>
      <trkpt lat="42.51438290812075138092041015625" lon="19.948496706783771514892578125">
        <ele>1876.199951171875</ele>
        <time>2026-06-17T09:55:21.000Z</time>
        <extensions>
          <ns3:TrackPointExtension>
            <ns3:atemp>20.0</ns3:atemp>
          </ns3:TrackPointExtension>
        </extensions>
      </trkpt>
      <trkpt lat="42.51438290812075138092041015625" lon="19.948496706783771514892578125">
        <ele>1876.199951171875</ele>
        <time>2026-06-17T09:55:22.000Z</time>
        <extensions>
          <ns3:TrackPointExtension>
            <ns3:atemp>20.0</ns3:atemp>
          </ns3:TrackPointExtension>
        </extensions>
      </trkpt>
      <trkpt lat="42.5143850035965442657470703125" lon="19.94849310256540775299072265625">
        <ele>1876.199951171875</ele>
        <time>2026-06-17T09:55:23.000Z</time>
        <extensions>
          <ns3:TrackPointExtension>
            <ns3:atemp>20.0</ns3:atemp>
          </ns3:TrackPointExtension>
        </extensions>
      </trkpt>
      <trkpt lat="42.51438290812075138092041015625" lon="19.948496706783771514892578125">
        <ele>1876.199951171875</ele>
        <time>2026-06-17T09:55:24.000Z</time>
        <extensions>
          <ns3:TrackPointExtension>
            <ns3:atemp>20.0</ns3:atemp>
          </ns3:TrackPointExtension>
        </extensions>
      </trkpt>
      <trkpt lat="42.51438290812075138092041015625" lon="19.948496706783771514892578125">
        <ele>1876.199951171875</ele>
        <time>2026-06-17T09:55:25.000Z</time>
        <extensions>
          <ns3:TrackPointExtension>
            <ns3:atemp>20.0</ns3:atemp>
          </ns3:TrackPointExtension>
        </extensions>
      </trkpt>
      <trkpt lat="42.51438290812075138092041015625" lon="19.948496706783771514892578125">
        <ele>1876.199951171875</ele>
        <time>2026-06-17T09:55:26.000Z</time>
        <extensions>
          <ns3:TrackPointExtension>
            <ns3:atemp>20.0</ns3:atemp>
          </ns3:TrackPointExtension>
        </extensions>
      </trkpt>
      <trkpt lat="42.51438290812075138092041015625" lon="19.948496706783771514892578125">
        <ele>1876.199951171875</ele>
        <time>2026-06-17T09:55:27.000Z</time>
        <extensions>
          <ns3:TrackPointExtension>
            <ns3:atemp>20.0</ns3:atemp>
          </ns3:TrackPointExtension>
        </extensions>
      </trkpt>
      <trkpt lat="42.5143886916339397430419921875" lon="19.94848689995706081390380859375">
        <ele>1876.199951171875</ele>
        <time>2026-06-17T09:55:28.000Z</time>
        <extensions>
          <ns3:TrackPointExtension>
            <ns3:atemp>20.0</ns3:atemp>
          </ns3:TrackPointExtension>
        </extensions>
      </trkpt>
      <trkpt lat="42.51439229585230350494384765625" lon="19.94847164489328861236572265625">
        <ele>1876.199951171875</ele>
        <time>2026-06-17T09:55:29.000Z</time>
        <extensions>
          <ns3:TrackPointExtension>
            <ns3:atemp>20.0</ns3:atemp>
          </ns3:TrackPointExtension>
        </extensions>
      </trkpt>
      <trkpt lat="42.5143843330442905426025390625" lon="19.94845152832567691802978515625">
        <ele>1876.199951171875</ele>
        <time>2026-06-17T09:55:30.000Z</time>
        <extensions>
          <ns3:TrackPointExtension>
            <ns3:atemp>20.0</ns3:atemp>
          </ns3:TrackPointExtension>
        </extensions>
      </trkpt>
      <trkpt lat="42.51437201164662837982177734375" lon="19.94842370040714740753173828125">
        <ele>1876.5999755859375</ele>
        <time>2026-06-17T09:55:31.000Z</time>
        <extensions>
          <ns3:TrackPointExtension>
            <ns3:atemp>20.0</ns3:atemp>
          </ns3:TrackPointExtension>
        </extensions>
      </trkpt>
      <trkpt lat="42.5143628753721714019775390625" lon="19.94839218445122241973876953125">
        <ele>1876.4000244140625</ele>
        <time>2026-06-17T09:55:32.000Z</time>
        <extensions>
          <ns3:TrackPointExtension>
            <ns3:atemp>20.0</ns3:atemp>
          </ns3:TrackPointExtension>
        </extensions>
      </trkpt>
      <trkpt lat="42.5143568404018878936767578125" lon="19.94836117140948772430419921875">
        <ele>1876.199951171875</ele>
        <time>2026-06-17T09:55:33.000Z</time>
        <extensions>
          <ns3:TrackPointExtension>
            <ns3:atemp>20.0</ns3:atemp>
          </ns3:TrackPointExtension>
        </extensions>
      </trkpt>
      <trkpt lat="42.5143585167825222015380859375" lon="19.9483295716345310211181640625">
        <ele>1876.199951171875</ele>
        <time>2026-06-17T09:55:34.000Z</time>
        <extensions>
          <ns3:TrackPointExtension>
            <ns3:atemp>20.0</ns3:atemp>
          </ns3:TrackPointExtension>
        </extensions>
      </trkpt>
      <trkpt lat="42.514363043010234832763671875" lon="19.948298223316669464111328125">
        <ele>1876.4000244140625</ele>
        <time>2026-06-17T09:55:35.000Z</time>
        <extensions>
          <ns3:TrackPointExtension>
            <ns3:atemp>20.0</ns3:atemp>
          </ns3:TrackPointExtension>
        </extensions>
      </trkpt>
      <trkpt lat="42.5143736042082309722900390625" lon="19.94826578535139560699462890625">
        <ele>1876.4000244140625</ele>
        <time>2026-06-17T09:55:36.000Z</time>
        <extensions>
          <ns3:TrackPointExtension>
            <ns3:atemp>20.0</ns3:atemp>
          </ns3:TrackPointExtension>
        </extensions>
      </trkpt>
      <trkpt lat="42.51438039354979991912841796875" lon="19.94823678396642208099365234375">
        <ele>1876.5999755859375</ele>
        <time>2026-06-17T09:55:37.000Z</time>
        <extensions>
          <ns3:TrackPointExtension>
            <ns3:atemp>20.0</ns3:atemp>
          </ns3:TrackPointExtension>
        </extensions>
      </trkpt>
      <trkpt lat="42.514384500682353973388671875" lon="19.9482118897140026092529296875">
        <ele>1876.800048828125</ele>
        <time>2026-06-17T09:55:38.000Z</time>
        <extensions>
          <ns3:TrackPointExtension>
            <ns3:atemp>20.0</ns3:atemp>
          </ns3:TrackPointExtension>
        </extensions>
      </trkpt>
      <trkpt lat="42.51438726671040058135986328125" lon="19.948188923299312591552734375">
        <ele>1877</ele>
        <time>2026-06-17T09:55:39.000Z</time>
        <extensions>
          <ns3:TrackPointExtension>
            <ns3:atemp>20.0</ns3:atemp>
          </ns3:TrackPointExtension>
        </extensions>
      </trkpt>
      <trkpt lat="42.5143913738429546356201171875" lon="19.948164783418178558349609375">
        <ele>1877.199951171875</ele>
        <time>2026-06-17T09:55:40.000Z</time>
        <extensions>
          <ns3:TrackPointExtension>
            <ns3:atemp>20.0</ns3:atemp>
          </ns3:TrackPointExtension>
        </extensions>
      </trkpt>
      <trkpt lat="42.51439481042325496673583984375" lon="19.9481384642422199249267578125">
        <ele>1877.4000244140625</ele>
        <time>2026-06-17T09:55:41.000Z</time>
        <extensions>
          <ns3:TrackPointExtension>
            <ns3:atemp>20.0</ns3:atemp>
          </ns3:TrackPointExtension>
        </extensions>
      </trkpt>
      <trkpt lat="42.5144021026790142059326171875" lon="19.9481183476746082305908203125">
        <ele>1877.5999755859375</ele>
        <time>2026-06-17T09:55:42.000Z</time>
        <extensions>
          <ns3:TrackPointExtension>
            <ns3:atemp>21.0</ns3:atemp>
          </ns3:TrackPointExtension>
        </extensions>
      </trkpt>
      <trkpt lat="42.51441190950572490692138671875" lon="19.94810099713504314422607421875">
        <ele>1877.800048828125</ele>
        <time>2026-06-17T09:55:43.000Z</time>
        <extensions>
          <ns3:TrackPointExtension>
            <ns3:atemp>21.0</ns3:atemp>
          </ns3:TrackPointExtension>
        </extensions>
      </trkpt>
      <trkpt lat="42.51441744156181812286376953125" lon="19.94808607734739780426025390625">
        <ele>1878</ele>
        <time>2026-06-17T09:55:44.000Z</time>
        <extensions>
          <ns3:TrackPointExtension>
            <ns3:atemp>21.0</ns3:atemp>
          </ns3:TrackPointExtension>
        </extensions>
      </trkpt>
      <trkpt lat="42.5144202075898647308349609375" lon="19.9480801261961460113525390625">
        <ele>1878.199951171875</ele>
        <time>2026-06-17T09:55:45.000Z</time>
        <extensions>
          <ns3:TrackPointExtension>
            <ns3:atemp>21.0</ns3:atemp>
          </ns3:TrackPointExtension>
        </extensions>
      </trkpt>
      <trkpt lat="42.51442280597984790802001953125" lon="19.94808238931000232696533203125">
        <ele>1878.5999755859375</ele>
        <time>2026-06-17T09:55:46.000Z</time>
        <extensions>
          <ns3:TrackPointExtension>
            <ns3:atemp>21.0</ns3:atemp>
          </ns3:TrackPointExtension>
        </extensions>
      </trkpt>
      <trkpt lat="42.51442431472241878509521484375" lon="19.94807568378746509552001953125">
        <ele>1878.800048828125</ele>
        <time>2026-06-17T09:55:47.000Z</time>
        <extensions>
          <ns3:TrackPointExtension>
            <ns3:atemp>21.0</ns3:atemp>
          </ns3:TrackPointExtension>
        </extensions>
      </trkpt>
      <trkpt lat="42.514424733817577362060546875" lon="19.9480752646923065185546875">
        <ele>1879</ele>
        <time>2026-06-17T09:55:48.000Z</time>
        <extensions>
          <ns3:TrackPointExtension>
            <ns3:atemp>21.0</ns3:atemp>
          </ns3:TrackPointExtension>
        </extensions>
      </trkpt>
      <trkpt lat="42.5144249014556407928466796875" lon="19.9480752646923065185546875">
        <ele>1879.199951171875</ele>
        <time>2026-06-17T09:55:49.000Z</time>
        <extensions>
          <ns3:TrackPointExtension>
            <ns3:atemp>21.0</ns3:atemp>
          </ns3:TrackPointExtension>
        </extensions>
      </trkpt>
      <trkpt lat="42.514438144862651824951171875" lon="19.94805841706693172454833984375">
        <ele>1879.4000244140625</ele>
        <time>2026-06-17T09:55:50.000Z</time>
        <extensions>
          <ns3:TrackPointExtension>
            <ns3:atemp>21.0</ns3:atemp>
          </ns3:TrackPointExtension>
        </extensions>
      </trkpt>
      <trkpt lat="42.51444183290004730224609375" lon="19.948044084012508392333984375">
        <ele>1879.4000244140625</ele>
        <time>2026-06-17T09:55:51.000Z</time>
        <extensions>
          <ns3:TrackPointExtension>
            <ns3:atemp>21.0</ns3:atemp>
          </ns3:TrackPointExtension>
        </extensions>
      </trkpt>
      <trkpt lat="42.51444275490939617156982421875" lon="19.94803444482386112213134765625">
        <ele>1879.199951171875</ele>
        <time>2026-06-17T09:55:52.000Z</time>
        <extensions>
          <ns3:TrackPointExtension>
            <ns3:atemp>21.0</ns3:atemp>
          </ns3:TrackPointExtension>
        </extensions>
      </trkpt>
      <trkpt lat="42.5144436769187450408935546875" lon="19.94803360663354396820068359375">
        <ele>1879</ele>
        <time>2026-06-17T09:55:53.000Z</time>
        <extensions>
          <ns3:TrackPointExtension>
            <ns3:atemp>21.0</ns3:atemp>
          </ns3:TrackPointExtension>
        </extensions>
      </trkpt>
      <trkpt lat="42.5144436769187450408935546875" lon="19.94803360663354396820068359375">
        <ele>1879</ele>
        <time>2026-06-17T09:55:54.000Z</time>
        <extensions>
          <ns3:TrackPointExtension>
            <ns3:atemp>21.0</ns3:atemp>
          </ns3:TrackPointExtension>
        </extensions>
      </trkpt>
      <trkpt lat="42.51444376073777675628662109375" lon="19.94803410954773426055908203125">
        <ele>1878.800048828125</ele>
        <time>2026-06-17T09:55:55.000Z</time>
        <extensions>
          <ns3:TrackPointExtension>
            <ns3:atemp>21.0</ns3:atemp>
          </ns3:TrackPointExtension>
        </extensions>
      </trkpt>
      <trkpt lat="42.5144436769187450408935546875" lon="19.94803360663354396820068359375">
        <ele>1878.800048828125</ele>
        <time>2026-06-17T09:55:56.000Z</time>
        <extensions>
          <ns3:TrackPointExtension>
            <ns3:atemp>21.0</ns3:atemp>
          </ns3:TrackPointExtension>
        </extensions>
      </trkpt>
      <trkpt lat="42.5144436769187450408935546875" lon="19.94803360663354396820068359375">
        <ele>1878.800048828125</ele>
        <time>2026-06-17T09:55:57.000Z</time>
        <extensions>
          <ns3:TrackPointExtension>
            <ns3:atemp>21.0</ns3:atemp>
          </ns3:TrackPointExtension>
        </extensions>
      </trkpt>
      <trkpt lat="42.5144436769187450408935546875" lon="19.94803360663354396820068359375">
        <ele>1879</ele>
        <time>2026-06-17T09:55:58.000Z</time>
        <extensions>
          <ns3:TrackPointExtension>
            <ns3:atemp>21.0</ns3:atemp>
          </ns3:TrackPointExtension>
        </extensions>
      </trkpt>
      <trkpt lat="42.5144436769187450408935546875" lon="19.94803360663354396820068359375">
        <ele>1879</ele>
        <time>2026-06-17T09:55:59.000Z</time>
        <extensions>
          <ns3:TrackPointExtension>
            <ns3:atemp>21.0</ns3:atemp>
          </ns3:TrackPointExtension>
        </extensions>
      </trkpt>
      <trkpt lat="42.5144436769187450408935546875" lon="19.94803360663354396820068359375">
        <ele>1879</ele>
        <time>2026-06-17T09:56:00.000Z</time>
        <extensions>
          <ns3:TrackPointExtension>
            <ns3:atemp>21.0</ns3:atemp>
          </ns3:TrackPointExtension>
        </extensions>
      </trkpt>
      <trkpt lat="42.5144436769187450408935546875" lon="19.94803360663354396820068359375">
        <ele>1879</ele>
        <time>2026-06-17T09:56:01.000Z</time>
        <extensions>
          <ns3:TrackPointExtension>
            <ns3:atemp>21.0</ns3:atemp>
          </ns3:TrackPointExtension>
        </extensions>
      </trkpt>
      <trkpt lat="42.5144436769187450408935546875" lon="19.94803360663354396820068359375">
        <ele>1879</ele>
        <time>2026-06-17T09:56:02.000Z</time>
        <extensions>
          <ns3:TrackPointExtension>
            <ns3:atemp>21.0</ns3:atemp>
          </ns3:TrackPointExtension>
        </extensions>
      </trkpt>
      <trkpt lat="42.5144436769187450408935546875" lon="19.94803360663354396820068359375">
        <ele>1879</ele>
        <time>2026-06-17T09:56:03.000Z</time>
        <extensions>
          <ns3:TrackPointExtension>
            <ns3:atemp>21.0</ns3:atemp>
          </ns3:TrackPointExtension>
        </extensions>
      </trkpt>
      <trkpt lat="42.5144436769187450408935546875" lon="19.94803360663354396820068359375">
        <ele>1879</ele>
        <time>2026-06-17T09:56:04.000Z</time>
        <extensions>
          <ns3:TrackPointExtension>
            <ns3:atemp>21.0</ns3:atemp>
          </ns3:TrackPointExtension>
        </extensions>
      </trkpt>
      <trkpt lat="42.5144436769187450408935546875" lon="19.94803360663354396820068359375">
        <ele>1879</ele>
        <time>2026-06-17T09:56:05.000Z</time>
        <extensions>
          <ns3:TrackPointExtension>
            <ns3:atemp>21.0</ns3:atemp>
          </ns3:TrackPointExtension>
        </extensions>
      </trkpt>
      <trkpt lat="42.5144436769187450408935546875" lon="19.94803360663354396820068359375">
        <ele>1878.800048828125</ele>
        <time>2026-06-17T09:56:06.000Z</time>
        <extensions>
          <ns3:TrackPointExtension>
            <ns3:atemp>21.0</ns3:atemp>
          </ns3:TrackPointExtension>
        </extensions>
      </trkpt>
      <trkpt lat="42.5144436769187450408935546875" lon="19.94803360663354396820068359375">
        <ele>1878.800048828125</ele>
        <time>2026-06-17T09:56:07.000Z</time>
        <extensions>
          <ns3:TrackPointExtension>
            <ns3:atemp>21.0</ns3:atemp>
          </ns3:TrackPointExtension>
        </extensions>
      </trkpt>
      <trkpt lat="42.5144436769187450408935546875" lon="19.94803360663354396820068359375">
        <ele>1878.800048828125</ele>
        <time>2026-06-17T09:56:08.000Z</time>
        <extensions>
          <ns3:TrackPointExtension>
            <ns3:atemp>21.0</ns3:atemp>
          </ns3:TrackPointExtension>
        </extensions>
      </trkpt>
      <trkpt lat="42.5144436769187450408935546875" lon="19.94803360663354396820068359375">
        <ele>1878.800048828125</ele>
        <time>2026-06-17T09:56:09.000Z</time>
        <extensions>
          <ns3:TrackPointExtension>
            <ns3:atemp>21.0</ns3:atemp>
          </ns3:TrackPointExtension>
        </extensions>
      </trkpt>
      <trkpt lat="42.5144436769187450408935546875" lon="19.94803360663354396820068359375">
        <ele>1878.800048828125</ele>
        <time>2026-06-17T09:56:10.000Z</time>
        <extensions>
          <ns3:TrackPointExtension>
            <ns3:atemp>21.0</ns3:atemp>
          </ns3:TrackPointExtension>
        </extensions>
      </trkpt>
      <trkpt lat="42.5144436769187450408935546875" lon="19.94803360663354396820068359375">
        <ele>1878.800048828125</ele>
        <time>2026-06-17T09:56:11.000Z</time>
        <extensions>
          <ns3:TrackPointExtension>
            <ns3:atemp>21.0</ns3:atemp>
          </ns3:TrackPointExtension>
        </extensions>
      </trkpt>
      <trkpt lat="42.5144436769187450408935546875" lon="19.94803360663354396820068359375">
        <ele>1878.5999755859375</ele>
        <time>2026-06-17T09:56:12.000Z</time>
        <extensions>
          <ns3:TrackPointExtension>
            <ns3:atemp>21.0</ns3:atemp>
          </ns3:TrackPointExtension>
        </extensions>
      </trkpt>
      <trkpt lat="42.5144436769187450408935546875" lon="19.94803360663354396820068359375">
        <ele>1878.5999755859375</ele>
        <time>2026-06-17T09:56:13.000Z</time>
        <extensions>
          <ns3:TrackPointExtension>
            <ns3:atemp>21.0</ns3:atemp>
          </ns3:TrackPointExtension>
        </extensions>
      </trkpt>
      <trkpt lat="42.5144436769187450408935546875" lon="19.94803360663354396820068359375">
        <ele>1878.4000244140625</ele>
        <time>2026-06-17T09:56:14.000Z</time>
        <extensions>
          <ns3:TrackPointExtension>
            <ns3:atemp>21.0</ns3:atemp>
          </ns3:TrackPointExtension>
        </extensions>
      </trkpt>
      <trkpt lat="42.5144436769187450408935546875" lon="19.94803360663354396820068359375">
        <ele>1878.4000244140625</ele>
        <time>2026-06-17T09:56:15.000Z</time>
        <extensions>
          <ns3:TrackPointExtension>
            <ns3:atemp>21.0</ns3:atemp>
          </ns3:TrackPointExtension>
        </extensions>
      </trkpt>
      <trkpt lat="42.5144436769187450408935546875" lon="19.94803360663354396820068359375">
        <ele>1878.4000244140625</ele>
        <time>2026-06-17T09:56:16.000Z</time>
        <extensions>
          <ns3:TrackPointExtension>
            <ns3:atemp>21.0</ns3:atemp>
          </ns3:TrackPointExtension>
        </extensions>
      </trkpt>
      <trkpt lat="42.5144436769187450408935546875" lon="19.94803360663354396820068359375">
        <ele>1878.4000244140625</ele>
        <time>2026-06-17T09:56:17.000Z</time>
        <extensions>
          <ns3:TrackPointExtension>
            <ns3:atemp>21.0</ns3:atemp>
          </ns3:TrackPointExtension>
        </extensions>
      </trkpt>
      <trkpt lat="42.5144436769187450408935546875" lon="19.94803360663354396820068359375">
        <ele>1878.199951171875</ele>
        <time>2026-06-17T09:56:18.000Z</time>
        <extensions>
          <ns3:TrackPointExtension>
            <ns3:atemp>21.0</ns3:atemp>
          </ns3:TrackPointExtension>
        </extensions>
      </trkpt>
      <trkpt lat="42.5144436769187450408935546875" lon="19.94803360663354396820068359375">
        <ele>1878.199951171875</ele>
        <time>2026-06-17T09:56:19.000Z</time>
        <extensions>
          <ns3:TrackPointExtension>
            <ns3:atemp>21.0</ns3:atemp>
          </ns3:TrackPointExtension>
        </extensions>
      </trkpt>
      <trkpt lat="42.5144436769187450408935546875" lon="19.94803360663354396820068359375">
        <ele>1878.199951171875</ele>
        <time>2026-06-17T09:56:20.000Z</time>
        <extensions>
          <ns3:TrackPointExtension>
            <ns3:atemp>21.0</ns3:atemp>
          </ns3:TrackPointExtension>
        </extensions>
      </trkpt>
      <trkpt lat="42.5144436769187450408935546875" lon="19.94803360663354396820068359375">
        <ele>1878.199951171875</ele>
        <time>2026-06-17T09:56:21.000Z</time>
        <extensions>
          <ns3:TrackPointExtension>
            <ns3:atemp>21.0</ns3:atemp>
          </ns3:TrackPointExtension>
        </extensions>
      </trkpt>
      <trkpt lat="42.5144436769187450408935546875" lon="19.94803360663354396820068359375">
        <ele>1878.199951171875</ele>
        <time>2026-06-17T09:56:22.000Z</time>
        <extensions>
          <ns3:TrackPointExtension>
            <ns3:atemp>21.0</ns3:atemp>
          </ns3:TrackPointExtension>
        </extensions>
      </trkpt>
      <trkpt lat="42.5144436769187450408935546875" lon="19.94803360663354396820068359375">
        <ele>1878.199951171875</ele>
        <time>2026-06-17T09:56:23.000Z</time>
        <extensions>
          <ns3:TrackPointExtension>
            <ns3:atemp>21.0</ns3:atemp>
          </ns3:TrackPointExtension>
        </extensions>
      </trkpt>
      <trkpt lat="42.5144436769187450408935546875" lon="19.94803360663354396820068359375">
        <ele>1878</ele>
        <time>2026-06-17T09:56:24.000Z</time>
        <extensions>
          <ns3:TrackPointExtension>
            <ns3:atemp>21.0</ns3:atemp>
          </ns3:TrackPointExtension>
        </extensions>
      </trkpt>
      <trkpt lat="42.5144436769187450408935546875" lon="19.94803360663354396820068359375">
        <ele>1878</ele>
        <time>2026-06-17T09:56:25.000Z</time>
        <extensions>
          <ns3:TrackPointExtension>
            <ns3:atemp>21.0</ns3:atemp>
          </ns3:TrackPointExtension>
        </extensions>
      </trkpt>
      <trkpt lat="42.5144436769187450408935546875" lon="19.94803360663354396820068359375">
        <ele>1878</ele>
        <time>2026-06-17T09:56:26.000Z</time>
        <extensions>
          <ns3:TrackPointExtension>
            <ns3:atemp>21.0</ns3:atemp>
          </ns3:TrackPointExtension>
        </extensions>
      </trkpt>
      <trkpt lat="42.5144436769187450408935546875" lon="19.94803360663354396820068359375">
        <ele>1878</ele>
        <time>2026-06-17T09:56:27.000Z</time>
        <extensions>
          <ns3:TrackPointExtension>
            <ns3:atemp>21.0</ns3:atemp>
          </ns3:TrackPointExtension>
        </extensions>
      </trkpt>
      <trkpt lat="42.5144436769187450408935546875" lon="19.94803360663354396820068359375">
        <ele>1878.199951171875</ele>
        <time>2026-06-17T09:56:28.000Z</time>
        <extensions>
          <ns3:TrackPointExtension>
            <ns3:atemp>21.0</ns3:atemp>
          </ns3:TrackPointExtension>
        </extensions>
      </trkpt>
      <trkpt lat="42.5144436769187450408935546875" lon="19.94803360663354396820068359375">
        <ele>1878.4000244140625</ele>
        <time>2026-06-17T09:56:29.000Z</time>
        <extensions>
          <ns3:TrackPointExtension>
            <ns3:atemp>21.0</ns3:atemp>
          </ns3:TrackPointExtension>
        </extensions>
      </trkpt>
      <trkpt lat="42.5144436769187450408935546875" lon="19.94803360663354396820068359375">
        <ele>1878.4000244140625</ele>
        <time>2026-06-17T09:56:30.000Z</time>
        <extensions>
          <ns3:TrackPointExtension>
            <ns3:atemp>21.0</ns3:atemp>
          </ns3:TrackPointExtension>
        </extensions>
      </trkpt>
      <trkpt lat="42.5144436769187450408935546875" lon="19.94803360663354396820068359375">
        <ele>1878.5999755859375</ele>
        <time>2026-06-17T09:56:31.000Z</time>
        <extensions>
          <ns3:TrackPointExtension>
            <ns3:atemp>21.0</ns3:atemp>
          </ns3:TrackPointExtension>
        </extensions>
      </trkpt>
      <trkpt lat="42.5144436769187450408935546875" lon="19.94803360663354396820068359375">
        <ele>1878.800048828125</ele>
        <time>2026-06-17T09:56:32.000Z</time>
        <extensions>
          <ns3:TrackPointExtension>
            <ns3:atemp>21.0</ns3:atemp>
          </ns3:TrackPointExtension>
        </extensions>
      </trkpt>
      <trkpt lat="42.5144436769187450408935546875" lon="19.94803360663354396820068359375">
        <ele>1878.800048828125</ele>
        <time>2026-06-17T09:56:33.000Z</time>
        <extensions>
          <ns3:TrackPointExtension>
            <ns3:atemp>21.0</ns3:atemp>
          </ns3:TrackPointExtension>
        </extensions>
      </trkpt>
      <trkpt lat="42.5144436769187450408935546875" lon="19.94803360663354396820068359375">
        <ele>1879</ele>
        <time>2026-06-17T09:56:34.000Z</time>
        <extensions>
          <ns3:TrackPointExtension>
            <ns3:atemp>21.0</ns3:atemp>
          </ns3:TrackPointExtension>
        </extensions>
      </trkpt>
      <trkpt lat="42.5144436769187450408935546875" lon="19.94803360663354396820068359375">
        <ele>1879</ele>
        <time>2026-06-17T09:56:35.000Z</time>
        <extensions>
          <ns3:TrackPointExtension>
            <ns3:atemp>21.0</ns3:atemp>
          </ns3:TrackPointExtension>
        </extensions>
      </trkpt>
      <trkpt lat="42.5144436769187450408935546875" lon="19.94803360663354396820068359375">
        <ele>1879</ele>
        <time>2026-06-17T09:56:36.000Z</time>
        <extensions>
          <ns3:TrackPointExtension>
            <ns3:atemp>21.0</ns3:atemp>
          </ns3:TrackPointExtension>
        </extensions>
      </trkpt>
      <trkpt lat="42.5144436769187450408935546875" lon="19.94803360663354396820068359375">
        <ele>1879</ele>
        <time>2026-06-17T09:56:37.000Z</time>
        <extensions>
          <ns3:TrackPointExtension>
            <ns3:atemp>21.0</ns3:atemp>
          </ns3:TrackPointExtension>
        </extensions>
      </trkpt>
      <trkpt lat="42.5144436769187450408935546875" lon="19.94803360663354396820068359375">
        <ele>1879</ele>
        <time>2026-06-17T09:56:38.000Z</time>
        <extensions>
          <ns3:TrackPointExtension>
            <ns3:atemp>21.0</ns3:atemp>
          </ns3:TrackPointExtension>
        </extensions>
      </trkpt>
      <trkpt lat="42.5144436769187450408935546875" lon="19.94803360663354396820068359375">
        <ele>1879.199951171875</ele>
        <time>2026-06-17T09:56:39.000Z</time>
        <extensions>
          <ns3:TrackPointExtension>
            <ns3:atemp>21.0</ns3:atemp>
          </ns3:TrackPointExtension>
        </extensions>
      </trkpt>
      <trkpt lat="42.5144436769187450408935546875" lon="19.94803360663354396820068359375">
        <ele>1879.199951171875</ele>
        <time>2026-06-17T09:56:40.000Z</time>
        <extensions>
          <ns3:TrackPointExtension>
            <ns3:atemp>21.0</ns3:atemp>
          </ns3:TrackPointExtension>
        </extensions>
      </trkpt>
      <trkpt lat="42.5144436769187450408935546875" lon="19.94803360663354396820068359375">
        <ele>1879.199951171875</ele>
        <time>2026-06-17T09:56:41.000Z</time>
        <extensions>
          <ns3:TrackPointExtension>
            <ns3:atemp>21.0</ns3:atemp>
          </ns3:TrackPointExtension>
        </extensions>
      </trkpt>
      <trkpt lat="42.5144436769187450408935546875" lon="19.94803360663354396820068359375">
        <ele>1879.199951171875</ele>
        <time>2026-06-17T09:56:42.000Z</time>
        <extensions>
          <ns3:TrackPointExtension>
            <ns3:atemp>21.0</ns3:atemp>
          </ns3:TrackPointExtension>
        </extensions>
      </trkpt>
      <trkpt lat="42.5144436769187450408935546875" lon="19.94803360663354396820068359375">
        <ele>1879.199951171875</ele>
        <time>2026-06-17T09:56:43.000Z</time>
        <extensions>
          <ns3:TrackPointExtension>
            <ns3:atemp>21.0</ns3:atemp>
          </ns3:TrackPointExtension>
        </extensions>
      </trkpt>
      <trkpt lat="42.5144436769187450408935546875" lon="19.94803360663354396820068359375">
        <ele>1879.199951171875</ele>
        <time>2026-06-17T09:56:44.000Z</time>
        <extensions>
          <ns3:TrackPointExtension>
            <ns3:atemp>21.0</ns3:atemp>
          </ns3:TrackPointExtension>
        </extensions>
      </trkpt>
      <trkpt lat="42.5144436769187450408935546875" lon="19.94803360663354396820068359375">
        <ele>1879.199951171875</ele>
        <time>2026-06-17T09:56:45.000Z</time>
        <extensions>
          <ns3:TrackPointExtension>
            <ns3:atemp>21.0</ns3:atemp>
          </ns3:TrackPointExtension>
        </extensions>
      </trkpt>
      <trkpt lat="42.5144436769187450408935546875" lon="19.94803360663354396820068359375">
        <ele>1879.199951171875</ele>
        <time>2026-06-17T09:56:46.000Z</time>
        <extensions>
          <ns3:TrackPointExtension>
            <ns3:atemp>21.0</ns3:atemp>
          </ns3:TrackPointExtension>
        </extensions>
      </trkpt>
      <trkpt lat="42.5144436769187450408935546875" lon="19.94803360663354396820068359375">
        <ele>1879.199951171875</ele>
        <time>2026-06-17T09:56:47.000Z</time>
        <extensions>
          <ns3:TrackPointExtension>
            <ns3:atemp>21.0</ns3:atemp>
          </ns3:TrackPointExtension>
        </extensions>
      </trkpt>
      <trkpt lat="42.5144436769187450408935546875" lon="19.94803360663354396820068359375">
        <ele>1879.199951171875</ele>
        <time>2026-06-17T09:56:48.000Z</time>
        <extensions>
          <ns3:TrackPointExtension>
            <ns3:atemp>21.0</ns3:atemp>
          </ns3:TrackPointExtension>
        </extensions>
      </trkpt>
      <trkpt lat="42.5144436769187450408935546875" lon="19.94803360663354396820068359375">
        <ele>1879.199951171875</ele>
        <time>2026-06-17T09:56:49.000Z</time>
        <extensions>
          <ns3:TrackPointExtension>
            <ns3:atemp>21.0</ns3:atemp>
          </ns3:TrackPointExtension>
        </extensions>
      </trkpt>
      <trkpt lat="42.51444107852876186370849609375" lon="19.94804131798446178436279296875">
        <ele>1879.199951171875</ele>
        <time>2026-06-17T09:56:50.000Z</time>
        <extensions>
          <ns3:TrackPointExtension>
            <ns3:atemp>21.0</ns3:atemp>
          </ns3:TrackPointExtension>
        </extensions>
      </trkpt>
      <trkpt lat="42.51443085260689258575439453125" lon="19.94803243316709995269775390625">
        <ele>1879.4000244140625</ele>
        <time>2026-06-17T09:56:51.000Z</time>
        <extensions>
          <ns3:TrackPointExtension>
            <ns3:atemp>21.0</ns3:atemp>
          </ns3:TrackPointExtension>
        </extensions>
      </trkpt>
      <trkpt lat="42.5144436769187450408935546875" lon="19.94803360663354396820068359375">
        <ele>1879.4000244140625</ele>
        <time>2026-06-17T09:56:52.000Z</time>
        <extensions>
          <ns3:TrackPointExtension>
            <ns3:atemp>21.0</ns3:atemp>
          </ns3:TrackPointExtension>
        </extensions>
      </trkpt>
      <trkpt lat="42.5144316069781780242919921875" lon="19.94803436100482940673828125">
        <ele>1879.5999755859375</ele>
        <time>2026-06-17T09:56:53.000Z</time>
        <extensions>
          <ns3:TrackPointExtension>
            <ns3:atemp>21.0</ns3:atemp>
          </ns3:TrackPointExtension>
        </extensions>
      </trkpt>
      <trkpt lat="42.5144436769187450408935546875" lon="19.94803360663354396820068359375">
        <ele>1879.5999755859375</ele>
        <time>2026-06-17T09:56:54.000Z</time>
        <extensions>
          <ns3:TrackPointExtension>
            <ns3:atemp>21.0</ns3:atemp>
          </ns3:TrackPointExtension>
        </extensions>
      </trkpt>
      <trkpt lat="42.5144436769187450408935546875" lon="19.94803360663354396820068359375">
        <ele>1879.5999755859375</ele>
        <time>2026-06-17T09:56:55.000Z</time>
        <extensions>
          <ns3:TrackPointExtension>
            <ns3:atemp>21.0</ns3:atemp>
          </ns3:TrackPointExtension>
        </extensions>
      </trkpt>
      <trkpt lat="42.5144436769187450408935546875" lon="19.94803360663354396820068359375">
        <ele>1879.5999755859375</ele>
        <time>2026-06-17T09:56:56.000Z</time>
        <extensions>
          <ns3:TrackPointExtension>
            <ns3:atemp>21.0</ns3:atemp>
          </ns3:TrackPointExtension>
        </extensions>
      </trkpt>
      <trkpt lat="42.51443286426365375518798828125" lon="19.9480283260345458984375">
        <ele>1879.5999755859375</ele>
        <time>2026-06-17T09:56:57.000Z</time>
        <extensions>
          <ns3:TrackPointExtension>
            <ns3:atemp>21.0</ns3:atemp>
          </ns3:TrackPointExtension>
        </extensions>
      </trkpt>
      <trkpt lat="42.51442163251340389251708984375" lon="19.9480201117694377899169921875">
        <ele>1879.5999755859375</ele>
        <time>2026-06-17T09:56:58.000Z</time>
        <extensions>
          <ns3:TrackPointExtension>
            <ns3:atemp>21.0</ns3:atemp>
          </ns3:TrackPointExtension>
        </extensions>
      </trkpt>
      <trkpt lat="42.514412663877010345458984375" lon="19.9480082094669342041015625">
        <ele>1879.4000244140625</ele>
        <time>2026-06-17T09:56:59.000Z</time>
        <extensions>
          <ns3:TrackPointExtension>
            <ns3:atemp>21.0</ns3:atemp>
          </ns3:TrackPointExtension>
        </extensions>
      </trkpt>
      <trkpt lat="42.51440352760255336761474609375" lon="19.9479936249554157257080078125">
        <ele>1879.4000244140625</ele>
        <time>2026-06-17T09:57:00.000Z</time>
        <extensions>
          <ns3:TrackPointExtension>
            <ns3:atemp>21.0</ns3:atemp>
          </ns3:TrackPointExtension>
        </extensions>
      </trkpt>
      <trkpt lat="42.51439564861357212066650390625" lon="19.94798029772937297821044921875">
        <ele>1879.4000244140625</ele>
        <time>2026-06-17T09:57:01.000Z</time>
        <extensions>
          <ns3:TrackPointExtension>
            <ns3:atemp>21.0</ns3:atemp>
          </ns3:TrackPointExtension>
        </extensions>
      </trkpt>
      <trkpt lat="42.51438927836716175079345703125" lon="19.9479641206562519073486328125">
        <ele>1879.199951171875</ele>
        <time>2026-06-17T09:57:02.000Z</time>
        <extensions>
          <ns3:TrackPointExtension>
            <ns3:atemp>21.0</ns3:atemp>
          </ns3:TrackPointExtension>
        </extensions>
      </trkpt>
      <trkpt lat="42.51438357867300510406494140625" lon="19.947942160069942474365234375">
        <ele>1879.199951171875</ele>
        <time>2026-06-17T09:57:03.000Z</time>
        <extensions>
          <ns3:TrackPointExtension>
            <ns3:atemp>21.0</ns3:atemp>
          </ns3:TrackPointExtension>
        </extensions>
      </trkpt>
      <trkpt lat="42.5143813155591487884521484375" lon="19.947916679084300994873046875">
        <ele>1879</ele>
        <time>2026-06-17T09:57:04.000Z</time>
        <extensions>
          <ns3:TrackPointExtension>
            <ns3:atemp>21.0</ns3:atemp>
          </ns3:TrackPointExtension>
        </extensions>
      </trkpt>
      <trkpt lat="42.51437502913177013397216796875" lon="19.94788357056677341461181640625">
        <ele>1879</ele>
        <time>2026-06-17T09:57:05.000Z</time>
        <extensions>
          <ns3:TrackPointExtension>
            <ns3:atemp>21.0</ns3:atemp>
          </ns3:TrackPointExtension>
        </extensions>
      </trkpt>
      <trkpt lat="42.51437234692275524139404296875" lon="19.94784920476377010345458984375">
        <ele>1879</ele>
        <time>2026-06-17T09:57:06.000Z</time>
        <extensions>
          <ns3:TrackPointExtension>
            <ns3:atemp>21.0</ns3:atemp>
          </ns3:TrackPointExtension>
        </extensions>
      </trkpt>
      <trkpt lat="42.51437016762793064117431640625" lon="19.94781576097011566162109375">
        <ele>1879</ele>
        <time>2026-06-17T09:57:07.000Z</time>
        <extensions>
          <ns3:TrackPointExtension>
            <ns3:atemp>21.0</ns3:atemp>
          </ns3:TrackPointExtension>
        </extensions>
      </trkpt>
      <trkpt lat="42.5143687427043914794921875" lon="19.94778617285192012786865234375">
        <ele>1879</ele>
        <time>2026-06-17T09:57:08.000Z</time>
        <extensions>
          <ns3:TrackPointExtension>
            <ns3:atemp>21.0</ns3:atemp>
          </ns3:TrackPointExtension>
        </extensions>
      </trkpt>
      <trkpt lat="42.51436681486666202545166015625" lon="19.94775616563856601715087890625">
        <ele>1879</ele>
        <time>2026-06-17T09:57:09.000Z</time>
        <extensions>
          <ns3:TrackPointExtension>
            <ns3:atemp>21.0</ns3:atemp>
          </ns3:TrackPointExtension>
        </extensions>
      </trkpt>
      <trkpt lat="42.51436111517250537872314453125" lon="19.9477264098823070526123046875">
        <ele>1879</ele>
        <time>2026-06-17T09:57:10.000Z</time>
        <extensions>
          <ns3:TrackPointExtension>
            <ns3:atemp>21.0</ns3:atemp>
          </ns3:TrackPointExtension>
        </extensions>
      </trkpt>
      <trkpt lat="42.51435725949704647064208984375" lon="19.9476972408592700958251953125">
        <ele>1879.199951171875</ele>
        <time>2026-06-17T09:57:11.000Z</time>
        <extensions>
          <ns3:TrackPointExtension>
            <ns3:atemp>21.0</ns3:atemp>
          </ns3:TrackPointExtension>
        </extensions>
      </trkpt>
      <trkpt lat="42.51435608603060245513916015625" lon="19.94767284952104091644287109375">
        <ele>1879.199951171875</ele>
        <time>2026-06-17T09:57:12.000Z</time>
        <extensions>
          <ns3:TrackPointExtension>
            <ns3:atemp>21.0</ns3:atemp>
          </ns3:TrackPointExtension>
        </extensions>
      </trkpt>
      <trkpt lat="42.51435759477317333221435546875" lon="19.9476452730596065521240234375">
        <ele>1879</ele>
        <time>2026-06-17T09:57:13.000Z</time>
        <extensions>
          <ns3:TrackPointExtension>
            <ns3:atemp>21.0</ns3:atemp>
          </ns3:TrackPointExtension>
        </extensions>
      </trkpt>
      <trkpt lat="42.51435910351574420928955078125" lon="19.947613589465618133544921875">
        <ele>1879</ele>
        <time>2026-06-17T09:57:14.000Z</time>
        <extensions>
          <ns3:TrackPointExtension>
            <ns3:atemp>21.0</ns3:atemp>
          </ns3:TrackPointExtension>
        </extensions>
      </trkpt>
      <trkpt lat="42.5143601931631565093994140625" lon="19.94758517481386661529541015625">
        <ele>1879</ele>
        <time>2026-06-17T09:57:15.000Z</time>
        <extensions>
          <ns3:TrackPointExtension>
            <ns3:atemp>21.0</ns3:atemp>
          </ns3:TrackPointExtension>
        </extensions>
      </trkpt>
      <trkpt lat="42.51435793004930019378662109375" lon="19.9475617893040180206298828125">
        <ele>1879</ele>
        <time>2026-06-17T09:57:16.000Z</time>
        <extensions>
          <ns3:TrackPointExtension>
            <ns3:atemp>21.0</ns3:atemp>
          </ns3:TrackPointExtension>
        </extensions>
      </trkpt>
      <trkpt lat="42.51435876823961734771728515625" lon="19.9475359730422496795654296875">
        <ele>1879</ele>
        <time>2026-06-17T09:57:17.000Z</time>
        <extensions>
          <ns3:TrackPointExtension>
            <ns3:atemp>21.0</ns3:atemp>
          </ns3:TrackPointExtension>
        </extensions>
      </trkpt>
      <trkpt lat="42.51436111517250537872314453125" lon="19.94751376099884510040283203125">
        <ele>1879.199951171875</ele>
        <time>2026-06-17T09:57:18.000Z</time>
        <extensions>
          <ns3:TrackPointExtension>
            <ns3:atemp>21.0</ns3:atemp>
          </ns3:TrackPointExtension>
        </extensions>
      </trkpt>
      <trkpt lat="42.51436270773410797119140625" lon="19.94748794473707675933837890625">
        <ele>1879.199951171875</ele>
        <time>2026-06-17T09:57:19.000Z</time>
        <extensions>
          <ns3:TrackPointExtension>
            <ns3:atemp>21.0</ns3:atemp>
          </ns3:TrackPointExtension>
        </extensions>
      </trkpt>
      <trkpt lat="42.514362372457981109619140625" lon="19.9474583566188812255859375">
        <ele>1879.199951171875</ele>
        <time>2026-06-17T09:57:20.000Z</time>
        <extensions>
          <ns3:TrackPointExtension>
            <ns3:atemp>21.0</ns3:atemp>
          </ns3:TrackPointExtension>
        </extensions>
      </trkpt>
      <trkpt lat="42.51436111517250537872314453125" lon="19.9474317021667957305908203125">
        <ele>1879.4000244140625</ele>
        <time>2026-06-17T09:57:21.000Z</time>
        <extensions>
          <ns3:TrackPointExtension>
            <ns3:atemp>21.0</ns3:atemp>
          </ns3:TrackPointExtension>
        </extensions>
      </trkpt>
      <trkpt lat="42.51435809768736362457275390625" lon="19.9474073946475982666015625">
        <ele>1879.4000244140625</ele>
        <time>2026-06-17T09:57:22.000Z</time>
        <extensions>
          <ns3:TrackPointExtension>
            <ns3:atemp>21.0</ns3:atemp>
          </ns3:TrackPointExtension>
        </extensions>
      </trkpt>
      <trkpt lat="42.5143561698496341705322265625" lon="19.94738166220486164093017578125">
        <ele>1879.5999755859375</ele>
        <time>2026-06-17T09:57:23.000Z</time>
        <extensions>
          <ns3:TrackPointExtension>
            <ns3:atemp>21.0</ns3:atemp>
          </ns3:TrackPointExtension>
        </extensions>
      </trkpt>
      <trkpt lat="42.5143575109541416168212890625" lon="19.94735442101955413818359375">
        <ele>1879.5999755859375</ele>
        <time>2026-06-17T09:57:24.000Z</time>
        <extensions>
          <ns3:TrackPointExtension>
            <ns3:atemp>21.0</ns3:atemp>
          </ns3:TrackPointExtension>
        </extensions>
      </trkpt>
      <trkpt lat="42.51435910351574420928955078125" lon="19.94733690284192562103271484375">
        <ele>1879.800048828125</ele>
        <time>2026-06-17T09:57:25.000Z</time>
        <extensions>
          <ns3:TrackPointExtension>
            <ns3:atemp>21.0</ns3:atemp>
          </ns3:TrackPointExtension>
        </extensions>
      </trkpt>
      <trkpt lat="42.51436195336282253265380859375" lon="19.947312511503696441650390625">
        <ele>1880</ele>
        <time>2026-06-17T09:57:26.000Z</time>
        <extensions>
          <ns3:TrackPointExtension>
            <ns3:atemp>21.0</ns3:atemp>
          </ns3:TrackPointExtension>
        </extensions>
      </trkpt>
      <trkpt lat="42.5143645517528057098388671875" lon="19.94727873243391513824462890625">
        <ele>1880</ele>
        <time>2026-06-17T09:57:27.000Z</time>
        <extensions>
          <ns3:TrackPointExtension>
            <ns3:atemp>21.0</ns3:atemp>
          </ns3:TrackPointExtension>
        </extensions>
      </trkpt>
      <trkpt lat="42.51436798833310604095458984375" lon="19.94724587537348270416259765625">
        <ele>1880</ele>
        <time>2026-06-17T09:57:28.000Z</time>
        <extensions>
          <ns3:TrackPointExtension>
            <ns3:atemp>21.0</ns3:atemp>
          </ns3:TrackPointExtension>
        </extensions>
      </trkpt>
      <trkpt lat="42.514371089637279510498046875" lon="19.94721787981688976287841796875">
        <ele>1880.199951171875</ele>
        <time>2026-06-17T09:57:29.000Z</time>
        <extensions>
          <ns3:TrackPointExtension>
            <ns3:atemp>21.0</ns3:atemp>
          </ns3:TrackPointExtension>
        </extensions>
      </trkpt>
      <trkpt lat="42.51437469385564327239990234375" lon="19.94719340465962886810302734375">
        <ele>1880.199951171875</ele>
        <time>2026-06-17T09:57:30.000Z</time>
        <extensions>
          <ns3:TrackPointExtension>
            <ns3:atemp>21.0</ns3:atemp>
          </ns3:TrackPointExtension>
        </extensions>
      </trkpt>
      <trkpt lat="42.514375783503055572509765625" lon="19.94717337191104888916015625">
        <ele>1880.199951171875</ele>
        <time>2026-06-17T09:57:31.000Z</time>
        <extensions>
          <ns3:TrackPointExtension>
            <ns3:atemp>21.0</ns3:atemp>
          </ns3:TrackPointExtension>
        </extensions>
      </trkpt>
      <trkpt lat="42.51438190229237079620361328125" lon="19.947151243686676025390625">
        <ele>1880.199951171875</ele>
        <time>2026-06-17T09:57:32.000Z</time>
        <extensions>
          <ns3:TrackPointExtension>
            <ns3:atemp>21.0</ns3:atemp>
          </ns3:TrackPointExtension>
        </extensions>
      </trkpt>
      <trkpt lat="42.51438676379621028900146484375" lon="19.94712869636714458465576171875">
        <ele>1880.4000244140625</ele>
        <time>2026-06-17T09:57:33.000Z</time>
        <extensions>
          <ns3:TrackPointExtension>
            <ns3:atemp>21.0</ns3:atemp>
          </ns3:TrackPointExtension>
        </extensions>
      </trkpt>
      <trkpt lat="42.51439061947166919708251953125" lon="19.9471048079431056976318359375">
        <ele>1880.4000244140625</ele>
        <time>2026-06-17T09:57:34.000Z</time>
        <extensions>
          <ns3:TrackPointExtension>
            <ns3:atemp>21.0</ns3:atemp>
          </ns3:TrackPointExtension>
        </extensions>
      </trkpt>
      <trkpt lat="42.514395900070667266845703125" lon="19.9470739625394344329833984375">
        <ele>1880.5999755859375</ele>
        <time>2026-06-17T09:57:35.000Z</time>
        <extensions>
          <ns3:TrackPointExtension>
            <ns3:atemp>21.0</ns3:atemp>
          </ns3:TrackPointExtension>
        </extensions>
      </trkpt>
      <trkpt lat="42.5144024379551410675048828125" lon="19.94704504497349262237548828125">
        <ele>1880.800048828125</ele>
        <time>2026-06-17T09:57:36.000Z</time>
        <extensions>
          <ns3:TrackPointExtension>
            <ns3:atemp>21.0</ns3:atemp>
          </ns3:TrackPointExtension>
        </extensions>
      </trkpt>
      <trkpt lat="42.51440922729671001434326171875" lon="19.947017133235931396484375">
        <ele>1880.800048828125</ele>
        <time>2026-06-17T09:57:37.000Z</time>
        <extensions>
          <ns3:TrackPointExtension>
            <ns3:atemp>21.0</ns3:atemp>
          </ns3:TrackPointExtension>
        </extensions>
      </trkpt>
      <trkpt lat="42.51441610045731067657470703125" lon="19.9469914846122264862060546875">
        <ele>1881</ele>
        <time>2026-06-17T09:57:38.000Z</time>
        <extensions>
          <ns3:TrackPointExtension>
            <ns3:atemp>21.0</ns3:atemp>
          </ns3:TrackPointExtension>
        </extensions>
      </trkpt>
      <trkpt lat="42.51442171633243560791015625" lon="19.946964494884014129638671875">
        <ele>1881.199951171875</ele>
        <time>2026-06-17T09:57:39.000Z</time>
        <extensions>
          <ns3:TrackPointExtension>
            <ns3:atemp>21.0</ns3:atemp>
          </ns3:TrackPointExtension>
        </extensions>
      </trkpt>
      <trkpt lat="42.51442850567400455474853515625" lon="19.94694161228835582733154296875">
        <ele>1881.4000244140625</ele>
        <time>2026-06-17T09:57:40.000Z</time>
        <extensions>
          <ns3:TrackPointExtension>
            <ns3:atemp>22.0</ns3:atemp>
          </ns3:TrackPointExtension>
        </extensions>
      </trkpt>
      <trkpt lat="42.51443655230104923248291015625" lon="19.94691680185496807098388671875">
        <ele>1881.5999755859375</ele>
        <time>2026-06-17T09:57:41.000Z</time>
        <extensions>
          <ns3:TrackPointExtension>
            <ns3:atemp>22.0</ns3:atemp>
          </ns3:TrackPointExtension>
        </extensions>
      </trkpt>
      <trkpt lat="42.5144403241574764251708984375" lon="19.94689987041056156158447265625">
        <ele>1881.800048828125</ele>
        <time>2026-06-17T09:57:42.000Z</time>
        <extensions>
          <ns3:TrackPointExtension>
            <ns3:atemp>22.0</ns3:atemp>
          </ns3:TrackPointExtension>
        </extensions>
      </trkpt>
      <trkpt lat="42.5144470296800136566162109375" lon="19.9468741379678249359130859375">
        <ele>1882</ele>
        <time>2026-06-17T09:57:43.000Z</time>
        <extensions>
          <ns3:TrackPointExtension>
            <ns3:atemp>22.0</ns3:atemp>
          </ns3:TrackPointExtension>
        </extensions>
      </trkpt>
      <trkpt lat="42.5144550763070583343505859375" lon="19.94684957899153232574462890625">
        <ele>1882</ele>
        <time>2026-06-17T09:57:44.000Z</time>
        <extensions>
          <ns3:TrackPointExtension>
            <ns3:atemp>22.0</ns3:atemp>
          </ns3:TrackPointExtension>
        </extensions>
      </trkpt>
      <trkpt lat="42.5144678167998790740966796875" lon="19.946823678910732269287109375">
        <ele>1882</ele>
        <time>2026-06-17T09:57:45.000Z</time>
        <extensions>
          <ns3:TrackPointExtension>
            <ns3:atemp>22.0</ns3:atemp>
          </ns3:TrackPointExtension>
        </extensions>
      </trkpt>
      <trkpt lat="42.514475025236606597900390625" lon="19.9467976950109004974365234375">
        <ele>1882</ele>
        <time>2026-06-17T09:57:46.000Z</time>
        <extensions>
          <ns3:TrackPointExtension>
            <ns3:atemp>22.0</ns3:atemp>
          </ns3:TrackPointExtension>
        </extensions>
      </trkpt>
      <trkpt lat="42.5144795514643192291259765625" lon="19.94676257483661174774169921875">
        <ele>1881.800048828125</ele>
        <time>2026-06-17T09:57:47.000Z</time>
        <extensions>
          <ns3:TrackPointExtension>
            <ns3:atemp>22.0</ns3:atemp>
          </ns3:TrackPointExtension>
        </extensions>
      </trkpt>
      <trkpt lat="42.5144932977855205535888671875" lon="19.9467242695391178131103515625">
        <ele>1881.5999755859375</ele>
        <time>2026-06-17T09:57:48.000Z</time>
        <extensions>
          <ns3:TrackPointExtension>
            <ns3:atemp>22.0</ns3:atemp>
          </ns3:TrackPointExtension>
        </extensions>
      </trkpt>
      <trkpt lat="42.5145124085247516632080078125" lon="19.9466883949935436248779296875">
        <ele>1881.5999755859375</ele>
        <time>2026-06-17T09:57:49.000Z</time>
        <extensions>
          <ns3:TrackPointExtension>
            <ns3:atemp>22.0</ns3:atemp>
          </ns3:TrackPointExtension>
        </extensions>
      </trkpt>
      <trkpt lat="42.514532022178173065185546875" lon="19.946650005877017974853515625">
        <ele>1881.4000244140625</ele>
        <time>2026-06-17T09:57:50.000Z</time>
        <extensions>
          <ns3:TrackPointExtension>
            <ns3:atemp>22.0</ns3:atemp>
          </ns3:TrackPointExtension>
        </extensions>
      </trkpt>
      <trkpt lat="42.5145580060780048370361328125" lon="19.94661136530339717864990234375">
        <ele>1881.4000244140625</ele>
        <time>2026-06-17T09:57:51.000Z</time>
        <extensions>
          <ns3:TrackPointExtension>
            <ns3:atemp>22.0</ns3:atemp>
          </ns3:TrackPointExtension>
        </extensions>
      </trkpt>
      <trkpt lat="42.5145861692726612091064453125" lon="19.94656543247401714324951171875">
        <ele>1881.199951171875</ele>
        <time>2026-06-17T09:57:52.000Z</time>
        <extensions>
          <ns3:TrackPointExtension>
            <ns3:atemp>22.0</ns3:atemp>
          </ns3:TrackPointExtension>
        </extensions>
      </trkpt>
      <trkpt lat="42.51461324281990528106689453125" lon="19.9465204216539859771728515625">
        <ele>1881.199951171875</ele>
        <time>2026-06-17T09:57:53.000Z</time>
        <extensions>
          <ns3:TrackPointExtension>
            <ns3:atemp>22.0</ns3:atemp>
          </ns3:TrackPointExtension>
        </extensions>
      </trkpt>
      <trkpt lat="42.51464366912841796875" lon="19.9464801885187625885009765625">
        <ele>1881</ele>
        <time>2026-06-17T09:57:54.000Z</time>
        <extensions>
          <ns3:TrackPointExtension>
            <ns3:atemp>22.0</ns3:atemp>
          </ns3:TrackPointExtension>
        </extensions>
      </trkpt>
      <trkpt lat="42.5146709941327571868896484375" lon="19.94643869809806346893310546875">
        <ele>1880.800048828125</ele>
        <time>2026-06-17T09:57:55.000Z</time>
        <extensions>
          <ns3:TrackPointExtension>
            <ns3:atemp>22.0</ns3:atemp>
          </ns3:TrackPointExtension>
        </extensions>
      </trkpt>
      <trkpt lat="42.51469605602324008941650390625" lon="19.94639812968671321868896484375">
        <ele>1880.4000244140625</ele>
        <time>2026-06-17T09:57:56.000Z</time>
        <extensions>
          <ns3:TrackPointExtension>
            <ns3:atemp>22.0</ns3:atemp>
          </ns3:TrackPointExtension>
        </extensions>
      </trkpt>
      <trkpt lat="42.514729835093021392822265625" lon="19.946362674236297607421875">
        <ele>1880.199951171875</ele>
        <time>2026-06-17T09:57:57.000Z</time>
        <extensions>
          <ns3:TrackPointExtension>
            <ns3:atemp>22.0</ns3:atemp>
          </ns3:TrackPointExtension>
        </extensions>
      </trkpt>
      <trkpt lat="42.51476210542023181915283203125" lon="19.946326129138469696044921875">
        <ele>1879.800048828125</ele>
        <time>2026-06-17T09:57:58.000Z</time>
        <extensions>
          <ns3:TrackPointExtension>
            <ns3:atemp>22.0</ns3:atemp>
          </ns3:TrackPointExtension>
        </extensions>
      </trkpt>
      <trkpt lat="42.5147920288145542144775390625" lon="19.9462884105741977691650390625">
        <ele>1879.5999755859375</ele>
        <time>2026-06-17T09:57:59.000Z</time>
        <extensions>
          <ns3:TrackPointExtension>
            <ns3:atemp>22.0</ns3:atemp>
          </ns3:TrackPointExtension>
        </extensions>
      </trkpt>
      <trkpt lat="42.5148168392479419708251953125" lon="19.94624742306768894195556640625">
        <ele>1879.199951171875</ele>
        <time>2026-06-17T09:58:00.000Z</time>
        <extensions>
          <ns3:TrackPointExtension>
            <ns3:atemp>22.0</ns3:atemp>
          </ns3:TrackPointExtension>
        </extensions>
      </trkpt>
      <trkpt lat="42.51483603380620479583740234375" lon="19.94621154852211475372314453125">
        <ele>1879</ele>
        <time>2026-06-17T09:58:01.000Z</time>
        <extensions>
          <ns3:TrackPointExtension>
            <ns3:atemp>22.0</ns3:atemp>
          </ns3:TrackPointExtension>
        </extensions>
      </trkpt>
      <trkpt lat="42.51485765911638736724853515625" lon="19.9461781047284603118896484375">
        <ele>1878.5999755859375</ele>
        <time>2026-06-17T09:58:02.000Z</time>
        <extensions>
          <ns3:TrackPointExtension>
            <ns3:atemp>22.0</ns3:atemp>
          </ns3:TrackPointExtension>
        </extensions>
      </trkpt>
      <trkpt lat="42.51489185728132724761962890625" lon="19.94613938033580780029296875">
        <ele>1878.4000244140625</ele>
        <time>2026-06-17T09:58:03.000Z</time>
        <extensions>
          <ns3:TrackPointExtension>
            <ns3:atemp>22.0</ns3:atemp>
          </ns3:TrackPointExtension>
        </extensions>
      </trkpt>
      <trkpt lat="42.51492303796112537384033203125" lon="19.94610442779958248138427734375">
        <ele>1878.199951171875</ele>
        <time>2026-06-17T09:58:04.000Z</time>
        <extensions>
          <ns3:TrackPointExtension>
            <ns3:atemp>22.0</ns3:atemp>
          </ns3:TrackPointExtension>
        </extensions>
      </trkpt>
      <trkpt lat="42.51495505683124065399169921875" lon="19.94605933316051959991455078125">
        <ele>1878</ele>
        <time>2026-06-17T09:58:05.000Z</time>
        <extensions>
          <ns3:TrackPointExtension>
            <ns3:atemp>22.0</ns3:atemp>
          </ns3:TrackPointExtension>
        </extensions>
      </trkpt>
      <trkpt lat="42.5149936974048614501953125" lon="19.94600971229374408721923828125">
        <ele>1877.800048828125</ele>
        <time>2026-06-17T09:58:06.000Z</time>
        <extensions>
          <ns3:TrackPointExtension>
            <ns3:atemp>22.0</ns3:atemp>
          </ns3:TrackPointExtension>
        </extensions>
      </trkpt>
      <trkpt lat="42.51503015868365764617919921875" lon="19.945969395339488983154296875">
        <ele>1877.5999755859375</ele>
        <time>2026-06-17T09:58:07.000Z</time>
        <extensions>
          <ns3:TrackPointExtension>
            <ns3:atemp>22.0</ns3:atemp>
          </ns3:TrackPointExtension>
        </extensions>
      </trkpt>
      <trkpt lat="42.51506620086729526519775390625" lon="19.9459108896553516387939453125">
        <ele>1877.199951171875</ele>
        <time>2026-06-17T09:58:08.000Z</time>
        <extensions>
          <ns3:TrackPointExtension>
            <ns3:atemp>22.0</ns3:atemp>
          </ns3:TrackPointExtension>
        </extensions>
      </trkpt>
      <trkpt lat="42.51510257832705974578857421875" lon="19.945858418941497802734375">
        <ele>1877.199951171875</ele>
        <time>2026-06-17T09:58:09.000Z</time>
        <extensions>
          <ns3:TrackPointExtension>
            <ns3:atemp>22.0</ns3:atemp>
          </ns3:TrackPointExtension>
        </extensions>
      </trkpt>
      <trkpt lat="42.51512981951236724853515625" lon="19.94581122882664203643798828125">
        <ele>1877</ele>
        <time>2026-06-17T09:58:10.000Z</time>
        <extensions>
          <ns3:TrackPointExtension>
            <ns3:atemp>22.0</ns3:atemp>
          </ns3:TrackPointExtension>
        </extensions>
      </trkpt>
      <trkpt lat="42.5151519477367401123046875" lon="19.9457606859505176544189453125">
        <ele>1876.800048828125</ele>
        <time>2026-06-17T09:58:11.000Z</time>
        <extensions>
          <ns3:TrackPointExtension>
            <ns3:atemp>22.0</ns3:atemp>
          </ns3:TrackPointExtension>
        </extensions>
      </trkpt>
      <trkpt lat="42.51517768017947673797607421875" lon="19.9457110650837421417236328125">
        <ele>1876.800048828125</ele>
        <time>2026-06-17T09:58:12.000Z</time>
        <extensions>
          <ns3:TrackPointExtension>
            <ns3:atemp>22.0</ns3:atemp>
          </ns3:TrackPointExtension>
        </extensions>
      </trkpt>
      <trkpt lat="42.51520064659416675567626953125" lon="19.94566236622631549835205078125">
        <ele>1876.800048828125</ele>
        <time>2026-06-17T09:58:13.000Z</time>
        <extensions>
          <ns3:TrackPointExtension>
            <ns3:atemp>22.0</ns3:atemp>
          </ns3:TrackPointExtension>
        </extensions>
      </trkpt>
      <trkpt lat="42.51522109843790531158447265625" lon="19.9456103146076202392578125">
        <ele>1876.5999755859375</ele>
        <time>2026-06-17T09:58:14.000Z</time>
        <extensions>
          <ns3:TrackPointExtension>
            <ns3:atemp>22.0</ns3:atemp>
          </ns3:TrackPointExtension>
        </extensions>
      </trkpt>
      <trkpt lat="42.51524624414741992950439453125" lon="19.9455588497221469879150390625">
        <ele>1876.4000244140625</ele>
        <time>2026-06-17T09:58:15.000Z</time>
        <extensions>
          <ns3:TrackPointExtension>
            <ns3:atemp>22.0</ns3:atemp>
          </ns3:TrackPointExtension>
        </extensions>
      </trkpt>
      <trkpt lat="42.51527063548564910888671875" lon="19.94550260715186595916748046875">
        <ele>1876.199951171875</ele>
        <time>2026-06-17T09:58:16.000Z</time>
        <extensions>
          <ns3:TrackPointExtension>
            <ns3:atemp>22.0</ns3:atemp>
          </ns3:TrackPointExtension>
        </extensions>
      </trkpt>
      <trkpt lat="42.5152887403964996337890625" lon="19.9454468674957752227783203125">
        <ele>1875.800048828125</ele>
        <time>2026-06-17T09:58:17.000Z</time>
        <extensions>
          <ns3:TrackPointExtension>
            <ns3:atemp>22.0</ns3:atemp>
          </ns3:TrackPointExtension>
        </extensions>
      </trkpt>
      <trkpt lat="42.51531799323856830596923828125" lon="19.9454002641141414642333984375">
        <ele>1875.5999755859375</ele>
        <time>2026-06-17T09:58:18.000Z</time>
        <extensions>
          <ns3:TrackPointExtension>
            <ns3:atemp>22.0</ns3:atemp>
          </ns3:TrackPointExtension>
        </extensions>
      </trkpt>
      <trkpt lat="42.51533961854875087738037109375" lon="19.94535617530345916748046875">
        <ele>1875.199951171875</ele>
        <time>2026-06-17T09:58:19.000Z</time>
        <extensions>
          <ns3:TrackPointExtension>
            <ns3:atemp>22.0</ns3:atemp>
          </ns3:TrackPointExtension>
        </extensions>
      </trkpt>
      <trkpt lat="42.51536183059215545654296875" lon="19.945296160876750946044921875">
        <ele>1874.800048828125</ele>
        <time>2026-06-17T09:58:20.000Z</time>
        <extensions>
          <ns3:TrackPointExtension>
            <ns3:atemp>22.0</ns3:atemp>
          </ns3:TrackPointExtension>
        </extensions>
      </trkpt>
      <trkpt lat="42.51538454554975032806396484375" lon="19.945232458412647247314453125">
        <ele>1874.5999755859375</ele>
        <time>2026-06-17T09:58:21.000Z</time>
        <extensions>
          <ns3:TrackPointExtension>
            <ns3:atemp>22.0</ns3:atemp>
          </ns3:TrackPointExtension>
        </extensions>
      </trkpt>
      <trkpt lat="42.51541572622954845428466796875" lon="19.94517244398593902587890625">
        <ele>1874.4000244140625</ele>
        <time>2026-06-17T09:58:22.000Z</time>
        <extensions>
          <ns3:TrackPointExtension>
            <ns3:atemp>22.0</ns3:atemp>
          </ns3:TrackPointExtension>
        </extensions>
      </trkpt>
      <trkpt lat="42.51543651334941387176513671875" lon="19.9451065622270107269287109375">
        <ele>1874</ele>
        <time>2026-06-17T09:58:23.000Z</time>
        <extensions>
          <ns3:TrackPointExtension>
            <ns3:atemp>22.0</ns3:atemp>
          </ns3:TrackPointExtension>
        </extensions>
      </trkpt>
      <trkpt lat="42.51545780338346958160400390625" lon="19.94503221474587917327880859375">
        <ele>1873.800048828125</ele>
        <time>2026-06-17T09:58:24.000Z</time>
        <extensions>
          <ns3:TrackPointExtension>
            <ns3:atemp>22.0</ns3:atemp>
          </ns3:TrackPointExtension>
        </extensions>
      </trkpt>
      <trkpt lat="42.5154657661914825439453125" lon="19.944951832294464111328125">
        <ele>1873.5999755859375</ele>
        <time>2026-06-17T09:58:25.000Z</time>
        <extensions>
          <ns3:TrackPointExtension>
            <ns3:atemp>22.0</ns3:atemp>
          </ns3:TrackPointExtension>
        </extensions>
      </trkpt>
      <trkpt lat="42.515473477542400360107421875" lon="19.9448856152594089508056640625">
        <ele>1873.199951171875</ele>
        <time>2026-06-17T09:58:26.000Z</time>
        <extensions>
          <ns3:TrackPointExtension>
            <ns3:atemp>22.0</ns3:atemp>
          </ns3:TrackPointExtension>
        </extensions>
      </trkpt>
      <trkpt lat="42.515480518341064453125" lon="19.9448386766016483306884765625">
        <ele>1872.800048828125</ele>
        <time>2026-06-17T09:58:27.000Z</time>
        <extensions>
          <ns3:TrackPointExtension>
            <ns3:atemp>22.0</ns3:atemp>
          </ns3:TrackPointExtension>
        </extensions>
      </trkpt>
      <trkpt lat="42.5154833681881427764892578125" lon="19.94478888809680938720703125">
        <ele>1872.4000244140625</ele>
        <time>2026-06-17T09:58:28.000Z</time>
        <extensions>
          <ns3:TrackPointExtension>
            <ns3:atemp>22.0</ns3:atemp>
          </ns3:TrackPointExtension>
        </extensions>
      </trkpt>
      <trkpt lat="42.51548747532069683074951171875" lon="19.9447414465248584747314453125">
        <ele>1872</ele>
        <time>2026-06-17T09:58:29.000Z</time>
        <extensions>
          <ns3:TrackPointExtension>
            <ns3:atemp>22.0</ns3:atemp>
          </ns3:TrackPointExtension>
        </extensions>
      </trkpt>
      <trkpt lat="42.51548714004456996917724609375" lon="19.94470599107444286346435546875">
        <ele>1871.5999755859375</ele>
        <time>2026-06-17T09:58:30.000Z</time>
        <extensions>
          <ns3:TrackPointExtension>
            <ns3:atemp>22.0</ns3:atemp>
          </ns3:TrackPointExtension>
        </extensions>
      </trkpt>
      <trkpt lat="42.5154857151210308074951171875" lon="19.944659806787967681884765625">
        <ele>1871.199951171875</ele>
        <time>2026-06-17T09:58:31.000Z</time>
        <extensions>
          <ns3:TrackPointExtension>
            <ns3:atemp>22.0</ns3:atemp>
          </ns3:TrackPointExtension>
        </extensions>
      </trkpt>
      <trkpt lat="42.51548227854073047637939453125" lon="19.94461186230182647705078125">
        <ele>1871</ele>
        <time>2026-06-17T09:58:32.000Z</time>
        <extensions>
          <ns3:TrackPointExtension>
            <ns3:atemp>22.0</ns3:atemp>
          </ns3:TrackPointExtension>
        </extensions>
      </trkpt>
      <trkpt lat="42.5154793448746204376220703125" lon="19.944561235606670379638671875">
        <ele>1870.5999755859375</ele>
        <time>2026-06-17T09:58:33.000Z</time>
        <extensions>
          <ns3:TrackPointExtension>
            <ns3:atemp>22.0</ns3:atemp>
          </ns3:TrackPointExtension>
        </extensions>
      </trkpt>
      <trkpt lat="42.51547959633171558380126953125" lon="19.944515638053417205810546875">
        <ele>1870.199951171875</ele>
        <time>2026-06-17T09:58:34.000Z</time>
        <extensions>
          <ns3:TrackPointExtension>
            <ns3:atemp>22.0</ns3:atemp>
          </ns3:TrackPointExtension>
        </extensions>
      </trkpt>
      <trkpt lat="42.51548093743622303009033203125" lon="19.94447163306176662445068359375">
        <ele>1870.199951171875</ele>
        <time>2026-06-17T09:58:35.000Z</time>
        <extensions>
          <ns3:TrackPointExtension>
            <ns3:atemp>22.0</ns3:atemp>
          </ns3:TrackPointExtension>
        </extensions>
      </trkpt>
      <trkpt lat="42.5154780037701129913330078125" lon="19.94442653842270374298095703125">
        <ele>1870.199951171875</ele>
        <time>2026-06-17T09:58:36.000Z</time>
        <extensions>
          <ns3:TrackPointExtension>
            <ns3:atemp>22.0</ns3:atemp>
          </ns3:TrackPointExtension>
        </extensions>
      </trkpt>
      <trkpt lat="42.5154733099043369293212890625" lon="19.94438613764941692352294921875">
        <ele>1870.199951171875</ele>
        <time>2026-06-17T09:58:37.000Z</time>
        <extensions>
          <ns3:TrackPointExtension>
            <ns3:atemp>22.0</ns3:atemp>
          </ns3:TrackPointExtension>
        </extensions>
      </trkpt>
      <trkpt lat="42.51546853221952915191650390625" lon="19.94435512460768222808837890625">
        <ele>1870</ele>
        <time>2026-06-17T09:58:38.000Z</time>
        <extensions>
          <ns3:TrackPointExtension>
            <ns3:atemp>22.0</ns3:atemp>
          </ns3:TrackPointExtension>
        </extensions>
      </trkpt>
      <trkpt lat="42.51546786166727542877197265625" lon="19.94432352483272552490234375">
        <ele>1870.199951171875</ele>
        <time>2026-06-17T09:58:39.000Z</time>
        <extensions>
          <ns3:TrackPointExtension>
            <ns3:atemp>22.0</ns3:atemp>
          </ns3:TrackPointExtension>
        </extensions>
      </trkpt>
      <trkpt lat="42.51546585001051425933837890625" lon="19.94429594837129116058349609375">
        <ele>1870</ele>
        <time>2026-06-17T09:58:40.000Z</time>
        <extensions>
          <ns3:TrackPointExtension>
            <ns3:atemp>22.0</ns3:atemp>
          </ns3:TrackPointExtension>
        </extensions>
      </trkpt>
      <trkpt lat="42.515462078154087066650390625" lon="19.9442646838724613189697265625">
        <ele>1870</ele>
        <time>2026-06-17T09:58:41.000Z</time>
        <extensions>
          <ns3:TrackPointExtension>
            <ns3:atemp>22.0</ns3:atemp>
          </ns3:TrackPointExtension>
        </extensions>
      </trkpt>
      <trkpt lat="42.51546182669699192047119140625" lon="19.94424079544842243194580078125">
        <ele>1870</ele>
        <time>2026-06-17T09:58:42.000Z</time>
        <extensions>
          <ns3:TrackPointExtension>
            <ns3:atemp>22.0</ns3:atemp>
          </ns3:TrackPointExtension>
        </extensions>
      </trkpt>
      <trkpt lat="42.51546434126794338226318359375" lon="19.94421430863440036773681640625">
        <ele>1870</ele>
        <time>2026-06-17T09:58:43.000Z</time>
        <extensions>
          <ns3:TrackPointExtension>
            <ns3:atemp>22.0</ns3:atemp>
          </ns3:TrackPointExtension>
        </extensions>
      </trkpt>
      <trkpt lat="42.51546735875308513641357421875" lon="19.9441805295646190643310546875">
        <ele>1870</ele>
        <time>2026-06-17T09:58:44.000Z</time>
        <extensions>
          <ns3:TrackPointExtension>
            <ns3:atemp>22.0</ns3:atemp>
          </ns3:TrackPointExtension>
        </extensions>
      </trkpt>
      <trkpt lat="42.51546853221952915191650390625" lon="19.94414205662906169891357421875">
        <ele>1869.800048828125</ele>
        <time>2026-06-17T09:58:45.000Z</time>
        <extensions>
          <ns3:TrackPointExtension>
            <ns3:atemp>22.0</ns3:atemp>
          </ns3:TrackPointExtension>
        </extensions>
      </trkpt>
      <trkpt lat="42.515472471714019775390625" lon="19.9441030807793140411376953125">
        <ele>1869.800048828125</ele>
        <time>2026-06-17T09:58:46.000Z</time>
        <extensions>
          <ns3:TrackPointExtension>
            <ns3:atemp>22.0</ns3:atemp>
          </ns3:TrackPointExtension>
        </extensions>
      </trkpt>
      <trkpt lat="42.51547507010400295257568359375" lon="19.944065026938915252685546875">
        <ele>1870</ele>
        <time>2026-06-17T09:58:47.000Z</time>
        <extensions>
          <ns3:TrackPointExtension>
            <ns3:atemp>22.0</ns3:atemp>
          </ns3:TrackPointExtension>
        </extensions>
      </trkpt>
      <trkpt lat="42.51547490246593952178955078125" lon="19.944026470184326171875">
        <ele>1870.199951171875</ele>
        <time>2026-06-17T09:58:48.000Z</time>
        <extensions>
          <ns3:TrackPointExtension>
            <ns3:atemp>22.0</ns3:atemp>
          </ns3:TrackPointExtension>
        </extensions>
      </trkpt>
      <trkpt lat="42.5154780037701129913330078125" lon="19.9439924396574497222900390625">
        <ele>1870.199951171875</ele>
        <time>2026-06-17T09:58:49.000Z</time>
        <extensions>
          <ns3:TrackPointExtension>
            <ns3:atemp>22.0</ns3:atemp>
          </ns3:TrackPointExtension>
        </extensions>
      </trkpt>
      <trkpt lat="42.5154763273894786834716796875" lon="19.94397140108048915863037109375">
        <ele>1870.5999755859375</ele>
        <time>2026-06-17T09:58:50.000Z</time>
        <extensions>
          <ns3:TrackPointExtension>
            <ns3:atemp>22.0</ns3:atemp>
          </ns3:TrackPointExtension>
        </extensions>
      </trkpt>
      <trkpt lat="42.51547624357044696807861328125" lon="19.9439515359699726104736328125">
        <ele>1870.800048828125</ele>
        <time>2026-06-17T09:58:51.000Z</time>
        <extensions>
          <ns3:TrackPointExtension>
            <ns3:atemp>22.0</ns3:atemp>
          </ns3:TrackPointExtension>
        </extensions>
      </trkpt>
      <trkpt lat="42.51547456718981266021728515625" lon="19.94393301196396350860595703125">
        <ele>1871</ele>
        <time>2026-06-17T09:58:52.000Z</time>
        <extensions>
          <ns3:TrackPointExtension>
            <ns3:atemp>22.0</ns3:atemp>
          </ns3:TrackPointExtension>
        </extensions>
      </trkpt>
      <trkpt lat="42.5154719687998294830322265625" lon="19.94391691870987415313720703125">
        <ele>1871.199951171875</ele>
        <time>2026-06-17T09:58:53.000Z</time>
        <extensions>
          <ns3:TrackPointExtension>
            <ns3:atemp>22.0</ns3:atemp>
          </ns3:TrackPointExtension>
        </extensions>
      </trkpt>
      <trkpt lat="42.51546869985759258270263671875" lon="19.9438975565135478973388671875">
        <ele>1871.4000244140625</ele>
        <time>2026-06-17T09:58:54.000Z</time>
        <extensions>
          <ns3:TrackPointExtension>
            <ns3:atemp>22.0</ns3:atemp>
          </ns3:TrackPointExtension>
        </extensions>
      </trkpt>
      <trkpt lat="42.5154602341353893280029296875" lon="19.94387936778366565704345703125">
        <ele>1871.4000244140625</ele>
        <time>2026-06-17T09:58:55.000Z</time>
        <extensions>
          <ns3:TrackPointExtension>
            <ns3:atemp>22.0</ns3:atemp>
          </ns3:TrackPointExtension>
        </extensions>
      </trkpt>
      <trkpt lat="42.515457384288311004638671875" lon="19.9438693933188915252685546875">
        <ele>1871.5999755859375</ele>
        <time>2026-06-17T09:58:56.000Z</time>
        <extensions>
          <ns3:TrackPointExtension>
            <ns3:atemp>22.0</ns3:atemp>
          </ns3:TrackPointExtension>
        </extensions>
      </trkpt>
      <trkpt lat="42.51545595936477184295654296875" lon="19.9438534677028656005859375">
        <ele>1871.5999755859375</ele>
        <time>2026-06-17T09:58:57.000Z</time>
        <extensions>
          <ns3:TrackPointExtension>
            <ns3:atemp>22.0</ns3:atemp>
          </ns3:TrackPointExtension>
        </extensions>
      </trkpt>
      <trkpt lat="42.5154518522322177886962890625" lon="19.94382186792790889739990234375">
        <ele>1871.5999755859375</ele>
        <time>2026-06-17T09:58:58.000Z</time>
        <extensions>
          <ns3:TrackPointExtension>
            <ns3:atemp>22.0</ns3:atemp>
          </ns3:TrackPointExtension>
        </extensions>
      </trkpt>
      <trkpt lat="42.51544858328998088836669921875" lon="19.94378968141973018646240234375">
        <ele>1871.5999755859375</ele>
        <time>2026-06-17T09:58:59.000Z</time>
        <extensions>
          <ns3:TrackPointExtension>
            <ns3:atemp>22.0</ns3:atemp>
          </ns3:TrackPointExtension>
        </extensions>
      </trkpt>
      <trkpt lat="42.5154469907283782958984375" lon="19.943759255111217498779296875">
        <ele>1871.800048828125</ele>
        <time>2026-06-17T09:59:00.000Z</time>
        <extensions>
          <ns3:TrackPointExtension>
            <ns3:atemp>22.0</ns3:atemp>
          </ns3:TrackPointExtension>
        </extensions>
      </trkpt>
      <trkpt lat="42.5154404528439044952392578125" lon="19.9437222070991992950439453125">
        <ele>1871.800048828125</ele>
        <time>2026-06-17T09:59:01.000Z</time>
        <extensions>
          <ns3:TrackPointExtension>
            <ns3:atemp>22.0</ns3:atemp>
          </ns3:TrackPointExtension>
        </extensions>
      </trkpt>
      <trkpt lat="42.515432573854923248291015625" lon="19.94368457235395908355712890625">
        <ele>1871.800048828125</ele>
        <time>2026-06-17T09:59:02.000Z</time>
        <extensions>
          <ns3:TrackPointExtension>
            <ns3:atemp>22.0</ns3:atemp>
          </ns3:TrackPointExtension>
        </extensions>
      </trkpt>
      <trkpt lat="42.5154179893434047698974609375" lon="19.94364886544644832611083984375">
        <ele>1871.800048828125</ele>
        <time>2026-06-17T09:59:03.000Z</time>
        <extensions>
          <ns3:TrackPointExtension>
            <ns3:atemp>22.0</ns3:atemp>
          </ns3:TrackPointExtension>
        </extensions>
      </trkpt>
      <trkpt lat="42.515408098697662353515625" lon="19.9436092190444469451904296875">
        <ele>1871.800048828125</ele>
        <time>2026-06-17T09:59:04.000Z</time>
        <extensions>
          <ns3:TrackPointExtension>
            <ns3:atemp>22.0</ns3:atemp>
          </ns3:TrackPointExtension>
        </extensions>
      </trkpt>
      <trkpt lat="42.5154049135744571685791015625" lon="19.94356823153793811798095703125">
        <ele>1871.5999755859375</ele>
        <time>2026-06-17T09:59:05.000Z</time>
        <extensions>
          <ns3:TrackPointExtension>
            <ns3:atemp>22.0</ns3:atemp>
          </ns3:TrackPointExtension>
        </extensions>
      </trkpt>
      <trkpt lat="42.51540248282253742218017578125" lon="19.94353017769753932952880859375">
        <ele>1871.800048828125</ele>
        <time>2026-06-17T09:59:06.000Z</time>
        <extensions>
          <ns3:TrackPointExtension>
            <ns3:atemp>22.0</ns3:atemp>
          </ns3:TrackPointExtension>
        </extensions>
      </trkpt>
      <trkpt lat="42.515397705137729644775390625" lon="19.94347862899303436279296875">
        <ele>1871.5999755859375</ele>
        <time>2026-06-17T09:59:07.000Z</time>
        <extensions>
          <ns3:TrackPointExtension>
            <ns3:atemp>22.0</ns3:atemp>
          </ns3:TrackPointExtension>
        </extensions>
      </trkpt>
      <trkpt lat="42.5153968669474124908447265625" lon="19.9434221349656581878662109375">
        <ele>1871.5999755859375</ele>
        <time>2026-06-17T09:59:08.000Z</time>
        <extensions>
          <ns3:TrackPointExtension>
            <ns3:atemp>22.0</ns3:atemp>
          </ns3:TrackPointExtension>
        </extensions>
      </trkpt>
      <trkpt lat="42.5153901614248752593994140625" lon="19.94337628595530986785888671875">
        <ele>1871.4000244140625</ele>
        <time>2026-06-17T09:59:09.000Z</time>
        <extensions>
          <ns3:TrackPointExtension>
            <ns3:atemp>22.0</ns3:atemp>
          </ns3:TrackPointExtension>
        </extensions>
      </trkpt>
      <trkpt lat="42.51538320444524288177490234375" lon="19.94332917965948581695556640625">
        <ele>1871.199951171875</ele>
        <time>2026-06-17T09:59:10.000Z</time>
        <extensions>
          <ns3:TrackPointExtension>
            <ns3:atemp>22.0</ns3:atemp>
          </ns3:TrackPointExtension>
        </extensions>
      </trkpt>
      <trkpt lat="42.51538731157779693603515625" lon="19.94327419437468051910400390625">
        <ele>1870.800048828125</ele>
        <time>2026-06-17T09:59:11.000Z</time>
        <extensions>
          <ns3:TrackPointExtension>
            <ns3:atemp>22.0</ns3:atemp>
          </ns3:TrackPointExtension>
        </extensions>
      </trkpt>
      <trkpt lat="42.5153972022235393524169921875" lon="19.943217448890209197998046875">
        <ele>1870.5999755859375</ele>
        <time>2026-06-17T09:59:12.000Z</time>
        <extensions>
          <ns3:TrackPointExtension>
            <ns3:atemp>22.0</ns3:atemp>
          </ns3:TrackPointExtension>
        </extensions>
      </trkpt>
      <trkpt lat="42.51539913006126880645751953125" lon="19.9431508965790271759033203125">
        <ele>1870.199951171875</ele>
        <time>2026-06-17T09:59:13.000Z</time>
        <extensions>
          <ns3:TrackPointExtension>
            <ns3:atemp>22.0</ns3:atemp>
          </ns3:TrackPointExtension>
        </extensions>
      </trkpt>
      <trkpt lat="42.51539594493806362152099609375" lon="19.9430700950324535369873046875">
        <ele>1869.800048828125</ele>
        <time>2026-06-17T09:59:14.000Z</time>
        <extensions>
          <ns3:TrackPointExtension>
            <ns3:atemp>22.0</ns3:atemp>
          </ns3:TrackPointExtension>
        </extensions>
      </trkpt>
      <trkpt lat="42.51539309509098529815673828125" lon="19.94298770092427730560302734375">
        <ele>1869.4000244140625</ele>
        <time>2026-06-17T09:59:15.000Z</time>
        <extensions>
          <ns3:TrackPointExtension>
            <ns3:atemp>22.0</ns3:atemp>
          </ns3:TrackPointExtension>
        </extensions>
      </trkpt>
      <trkpt lat="42.5153747387230396270751953125" lon="19.94291192851960659027099609375">
        <ele>1868.800048828125</ele>
        <time>2026-06-17T09:59:16.000Z</time>
        <extensions>
          <ns3:TrackPointExtension>
            <ns3:atemp>22.0</ns3:atemp>
          </ns3:TrackPointExtension>
        </extensions>
      </trkpt>
      <trkpt lat="42.51535839401185512542724609375" lon="19.942845292389392852783203125">
        <ele>1868.4000244140625</ele>
        <time>2026-06-17T09:59:17.000Z</time>
        <extensions>
          <ns3:TrackPointExtension>
            <ns3:atemp>22.0</ns3:atemp>
          </ns3:TrackPointExtension>
        </extensions>
      </trkpt>
      <trkpt lat="42.51535286195576190948486328125" lon="19.942786954343318939208984375">
        <ele>1868.199951171875</ele>
        <time>2026-06-17T09:59:18.000Z</time>
        <extensions>
          <ns3:TrackPointExtension>
            <ns3:atemp>22.0</ns3:atemp>
          </ns3:TrackPointExtension>
        </extensions>
      </trkpt>
      <trkpt lat="42.51535403542220592498779296875" lon="19.9427375011146068572998046875">
        <ele>1868</ele>
        <time>2026-06-17T09:59:19.000Z</time>
        <extensions>
          <ns3:TrackPointExtension>
            <ns3:atemp>22.0</ns3:atemp>
          </ns3:TrackPointExtension>
        </extensions>
      </trkpt>
      <trkpt lat="42.51537029631435871124267578125" lon="19.942703805863857269287109375">
        <ele>1867.800048828125</ele>
        <time>2026-06-17T09:59:20.000Z</time>
        <extensions>
          <ns3:TrackPointExtension>
            <ns3:atemp>22.0</ns3:atemp>
          </ns3:TrackPointExtension>
        </extensions>
      </trkpt>
      <trkpt lat="42.5153901614248752593994140625" lon="19.94267421774566173553466796875">
        <ele>1867.5999755859375</ele>
        <time>2026-06-17T09:59:21.000Z</time>
        <extensions>
          <ns3:TrackPointExtension>
            <ns3:atemp>22.0</ns3:atemp>
          </ns3:TrackPointExtension>
        </extensions>
      </trkpt>
      <trkpt lat="42.5154079310595989227294921875" lon="19.9426439590752124786376953125">
        <ele>1867.5999755859375</ele>
        <time>2026-06-17T09:59:22.000Z</time>
        <extensions>
          <ns3:TrackPointExtension>
            <ns3:atemp>22.0</ns3:atemp>
          </ns3:TrackPointExtension>
        </extensions>
      </trkpt>
      <trkpt lat="42.51542595215141773223876953125" lon="19.94259911589324474334716796875">
        <ele>1867.199951171875</ele>
        <time>2026-06-17T09:59:23.000Z</time>
        <extensions>
          <ns3:TrackPointExtension>
            <ns3:atemp>22.0</ns3:atemp>
          </ns3:TrackPointExtension>
        </extensions>
      </trkpt>
      <trkpt lat="42.51544455997645854949951171875" lon="19.94253851473331451416015625">
        <ele>1866.800048828125</ele>
        <time>2026-06-17T09:59:24.000Z</time>
        <extensions>
          <ns3:TrackPointExtension>
            <ns3:atemp>22.0</ns3:atemp>
          </ns3:TrackPointExtension>
        </extensions>
      </trkpt>
      <trkpt lat="42.51545595936477184295654296875" lon="19.942490570247173309326171875">
        <ele>1866.5999755859375</ele>
        <time>2026-06-17T09:59:25.000Z</time>
        <extensions>
          <ns3:TrackPointExtension>
            <ns3:atemp>22.0</ns3:atemp>
          </ns3:TrackPointExtension>
        </extensions>
      </trkpt>
      <trkpt lat="42.51546199433505535125732421875" lon="19.942453689873218536376953125">
        <ele>1866.199951171875</ele>
        <time>2026-06-17T09:59:26.000Z</time>
        <extensions>
          <ns3:TrackPointExtension>
            <ns3:atemp>22.0</ns3:atemp>
          </ns3:TrackPointExtension>
        </extensions>
      </trkpt>
      <trkpt lat="42.515478171408176422119140625" lon="19.94241110980510711669921875">
        <ele>1865.800048828125</ele>
        <time>2026-06-17T09:59:27.000Z</time>
        <extensions>
          <ns3:TrackPointExtension>
            <ns3:atemp>22.0</ns3:atemp>
          </ns3:TrackPointExtension>
        </extensions>
      </trkpt>
      <trkpt lat="42.51549451611936092376708984375" lon="19.9423621594905853271484375">
        <ele>1865.5999755859375</ele>
        <time>2026-06-17T09:59:28.000Z</time>
        <extensions>
          <ns3:TrackPointExtension>
            <ns3:atemp>22.0</ns3:atemp>
          </ns3:TrackPointExtension>
        </extensions>
      </trkpt>
      <trkpt lat="42.515516392886638641357421875" lon="19.9423026479780673980712890625">
        <ele>1865</ele>
        <time>2026-06-17T09:59:29.000Z</time>
        <extensions>
          <ns3:TrackPointExtension>
            <ns3:atemp>22.0</ns3:atemp>
          </ns3:TrackPointExtension>
        </extensions>
      </trkpt>
      <trkpt lat="42.51552569679915904998779296875" lon="19.94223735295236110687255859375">
        <ele>1864.4000244140625</ele>
        <time>2026-06-17T09:59:30.000Z</time>
        <extensions>
          <ns3:TrackPointExtension>
            <ns3:atemp>22.0</ns3:atemp>
          </ns3:TrackPointExtension>
        </extensions>
      </trkpt>
      <trkpt lat="42.51553826965391635894775390625" lon="19.94219007901847362518310546875">
        <ele>1864</ele>
        <time>2026-06-17T09:59:31.000Z</time>
        <extensions>
          <ns3:TrackPointExtension>
            <ns3:atemp>22.0</ns3:atemp>
          </ns3:TrackPointExtension>
        </extensions>
      </trkpt>
      <trkpt lat="42.51555536873638629913330078125" lon="19.9421497620642185211181640625">
        <ele>1863.5999755859375</ele>
        <time>2026-06-17T09:59:32.000Z</time>
        <extensions>
          <ns3:TrackPointExtension>
            <ns3:atemp>22.0</ns3:atemp>
          </ns3:TrackPointExtension>
        </extensions>
      </trkpt>
      <trkpt lat="42.51555620692670345306396484375" lon="19.9421142227947711944580078125">
        <ele>1863.199951171875</ele>
        <time>2026-06-17T09:59:33.000Z</time>
        <extensions>
          <ns3:TrackPointExtension>
            <ns3:atemp>22.0</ns3:atemp>
          </ns3:TrackPointExtension>
        </extensions>
      </trkpt>
      <trkpt lat="42.51554665155708789825439453125" lon="19.94208312593400478363037109375">
        <ele>1862.800048828125</ele>
        <time>2026-06-17T09:59:34.000Z</time>
        <extensions>
          <ns3:TrackPointExtension>
            <ns3:atemp>22.0</ns3:atemp>
          </ns3:TrackPointExtension>
        </extensions>
      </trkpt>
      <trkpt lat="42.5155427120625972747802734375" lon="19.94203157722949981689453125">
        <ele>1862.4000244140625</ele>
        <time>2026-06-17T09:59:35.000Z</time>
        <extensions>
          <ns3:TrackPointExtension>
            <ns3:atemp>22.0</ns3:atemp>
          </ns3:TrackPointExtension>
        </extensions>
      </trkpt>
      <trkpt lat="42.51551748253405094146728515625" lon="19.9419786036014556884765625">
        <ele>1862</ele>
        <time>2026-06-17T09:59:36.000Z</time>
        <extensions>
          <ns3:TrackPointExtension>
            <ns3:atemp>22.0</ns3:atemp>
          </ns3:TrackPointExtension>
        </extensions>
      </trkpt>
      <trkpt lat="42.5154937617480754852294921875" lon="19.94194440543651580810546875">
        <ele>1861.5999755859375</ele>
        <time>2026-06-17T09:59:37.000Z</time>
        <extensions>
          <ns3:TrackPointExtension>
            <ns3:atemp>22.0</ns3:atemp>
          </ns3:TrackPointExtension>
        </extensions>
      </trkpt>
      <trkpt lat="42.51548060216009616851806640625" lon="19.94191984646022319793701171875">
        <ele>1861.199951171875</ele>
        <time>2026-06-17T09:59:38.000Z</time>
        <extensions>
          <ns3:TrackPointExtension>
            <ns3:atemp>22.0</ns3:atemp>
          </ns3:TrackPointExtension>
        </extensions>
      </trkpt>
      <trkpt lat="42.5154726393520832061767578125" lon="19.94189855642616748809814453125">
        <ele>1861</ele>
        <time>2026-06-17T09:59:39.000Z</time>
        <extensions>
          <ns3:TrackPointExtension>
            <ns3:atemp>22.0</ns3:atemp>
          </ns3:TrackPointExtension>
        </extensions>
      </trkpt>
      <trkpt lat="42.51546417362987995147705078125" lon="19.9418738298118114471435546875">
        <ele>1861</ele>
        <time>2026-06-17T09:59:40.000Z</time>
        <extensions>
          <ns3:TrackPointExtension>
            <ns3:atemp>22.0</ns3:atemp>
          </ns3:TrackPointExtension>
        </extensions>
      </trkpt>
      <trkpt lat="42.51546031795442104339599609375" lon="19.94185145013034343719482421875">
        <ele>1861.199951171875</ele>
        <time>2026-06-17T09:59:41.000Z</time>
        <extensions>
          <ns3:TrackPointExtension>
            <ns3:atemp>22.0</ns3:atemp>
          </ns3:TrackPointExtension>
        </extensions>
      </trkpt>
      <trkpt lat="42.5154625810682773590087890625" lon="19.94183284230530261993408203125">
        <ele>1861.199951171875</ele>
        <time>2026-06-17T09:59:42.000Z</time>
        <extensions>
          <ns3:TrackPointExtension>
            <ns3:atemp>22.0</ns3:atemp>
          </ns3:TrackPointExtension>
        </extensions>
      </trkpt>
      <trkpt lat="42.51546182669699192047119140625" lon="19.94180518202483654022216796875">
        <ele>1861.199951171875</ele>
        <time>2026-06-17T09:59:43.000Z</time>
        <extensions>
          <ns3:TrackPointExtension>
            <ns3:atemp>22.0</ns3:atemp>
          </ns3:TrackPointExtension>
        </extensions>
      </trkpt>
      <trkpt lat="42.515470795333385467529296875" lon="19.94176578707993030548095703125">
        <ele>1861.199951171875</ele>
        <time>2026-06-17T09:59:44.000Z</time>
        <extensions>
          <ns3:TrackPointExtension>
            <ns3:atemp>22.0</ns3:atemp>
          </ns3:TrackPointExtension>
        </extensions>
      </trkpt>
      <trkpt lat="42.51547406427562236785888671875" lon="19.941718764603137969970703125">
        <ele>1860.800048828125</ele>
        <time>2026-06-17T09:59:45.000Z</time>
        <extensions>
          <ns3:TrackPointExtension>
            <ns3:atemp>22.0</ns3:atemp>
          </ns3:TrackPointExtension>
        </extensions>
      </trkpt>
      <trkpt lat="42.515477836132049560546875" lon="19.9416797049343585968017578125">
        <ele>1860.5999755859375</ele>
        <time>2026-06-17T09:59:46.000Z</time>
        <extensions>
          <ns3:TrackPointExtension>
            <ns3:atemp>22.0</ns3:atemp>
          </ns3:TrackPointExtension>
        </extensions>
      </trkpt>
      <trkpt lat="42.51547875814139842987060546875" lon="19.94163285009562969207763671875">
        <ele>1860.4000244140625</ele>
        <time>2026-06-17T09:59:47.000Z</time>
        <extensions>
          <ns3:TrackPointExtension>
            <ns3:atemp>22.0</ns3:atemp>
          </ns3:TrackPointExtension>
        </extensions>
      </trkpt>
      <trkpt lat="42.51548261381685733795166015625" lon="19.9415854923427104949951171875">
        <ele>1860</ele>
        <time>2026-06-17T09:59:48.000Z</time>
        <extensions>
          <ns3:TrackPointExtension>
            <ns3:atemp>22.0</ns3:atemp>
          </ns3:TrackPointExtension>
        </extensions>
      </trkpt>
      <trkpt lat="42.5154872238636016845703125" lon="19.9415412358939647674560546875">
        <ele>1859.5999755859375</ele>
        <time>2026-06-17T09:59:49.000Z</time>
        <extensions>
          <ns3:TrackPointExtension>
            <ns3:atemp>22.0</ns3:atemp>
          </ns3:TrackPointExtension>
        </extensions>
      </trkpt>
      <trkpt lat="42.515490911900997161865234375" lon="19.9414902739226818084716796875">
        <ele>1859.199951171875</ele>
        <time>2026-06-17T09:59:50.000Z</time>
        <extensions>
          <ns3:TrackPointExtension>
            <ns3:atemp>22.0</ns3:atemp>
          </ns3:TrackPointExtension>
        </extensions>
      </trkpt>
      <trkpt lat="42.51549200154840946197509765625" lon="19.94144543074071407318115234375">
        <ele>1858.800048828125</ele>
        <time>2026-06-17T09:59:51.000Z</time>
        <extensions>
          <ns3:TrackPointExtension>
            <ns3:atemp>22.0</ns3:atemp>
          </ns3:TrackPointExtension>
        </extensions>
      </trkpt>
      <trkpt lat="42.51548948697745800018310546875" lon="19.94139723479747772216796875">
        <ele>1858.4000244140625</ele>
        <time>2026-06-17T09:59:52.000Z</time>
        <extensions>
          <ns3:TrackPointExtension>
            <ns3:atemp>22.0</ns3:atemp>
          </ns3:TrackPointExtension>
        </extensions>
      </trkpt>
      <trkpt lat="42.515484206378459930419921875" lon="19.94134149514138698577880859375">
        <ele>1858</ele>
        <time>2026-06-17T09:59:53.000Z</time>
        <extensions>
          <ns3:TrackPointExtension>
            <ns3:atemp>22.0</ns3:atemp>
          </ns3:TrackPointExtension>
        </extensions>
      </trkpt>
      <trkpt lat="42.5154746510088443756103515625" lon="19.94129874743521213531494140625">
        <ele>1857.5999755859375</ele>
        <time>2026-06-17T09:59:54.000Z</time>
        <extensions>
          <ns3:TrackPointExtension>
            <ns3:atemp>22.0</ns3:atemp>
          </ns3:TrackPointExtension>
        </extensions>
      </trkpt>
      <trkpt lat="42.5154655985534191131591796875" lon="19.9412624537944793701171875">
        <ele>1857.4000244140625</ele>
        <time>2026-06-17T09:59:55.000Z</time>
        <extensions>
          <ns3:TrackPointExtension>
            <ns3:atemp>22.0</ns3:atemp>
          </ns3:TrackPointExtension>
        </extensions>
      </trkpt>
      <trkpt lat="42.51546199433505535125732421875" lon="19.94122917763888835906982421875">
        <ele>1857.199951171875</ele>
        <time>2026-06-17T09:59:56.000Z</time>
        <extensions>
          <ns3:TrackPointExtension>
            <ns3:atemp>22.0</ns3:atemp>
          </ns3:TrackPointExtension>
        </extensions>
      </trkpt>
      <trkpt lat="42.5154575519263744354248046875" lon="19.941194392740726470947265625">
        <ele>1857.199951171875</ele>
        <time>2026-06-17T09:59:57.000Z</time>
        <extensions>
          <ns3:TrackPointExtension>
            <ns3:atemp>22.0</ns3:atemp>
          </ns3:TrackPointExtension>
        </extensions>
      </trkpt>
      <trkpt lat="42.51544506289064884185791015625" lon="19.94115759618580341339111328125">
        <ele>1857</ele>
        <time>2026-06-17T09:59:58.000Z</time>
        <extensions>
          <ns3:TrackPointExtension>
            <ns3:atemp>22.0</ns3:atemp>
          </ns3:TrackPointExtension>
        </extensions>
      </trkpt>
      <trkpt lat="42.515431903302669525146484375" lon="19.94112121872603893280029296875">
        <ele>1857</ele>
        <time>2026-06-17T09:59:59.000Z</time>
        <extensions>
          <ns3:TrackPointExtension>
            <ns3:atemp>22.0</ns3:atemp>
          </ns3:TrackPointExtension>
        </extensions>
      </trkpt>
      <trkpt lat="42.51542477868497371673583984375" lon="19.94109146296977996826171875">
        <ele>1857</ele>
        <time>2026-06-17T10:00:00.000Z</time>
        <extensions>
          <ns3:TrackPointExtension>
            <ns3:atemp>22.0</ns3:atemp>
          </ns3:TrackPointExtension>
        </extensions>
      </trkpt>
      <trkpt lat="42.51542209647595882415771484375" lon="19.94106640107929706573486328125">
        <ele>1857</ele>
        <time>2026-06-17T10:00:01.000Z</time>
        <extensions>
          <ns3:TrackPointExtension>
            <ns3:atemp>22.0</ns3:atemp>
          </ns3:TrackPointExtension>
        </extensions>
      </trkpt>
      <trkpt lat="42.51542243175208568572998046875" lon="19.94103974662721157073974609375">
        <ele>1857</ele>
        <time>2026-06-17T10:00:02.000Z</time>
        <extensions>
          <ns3:TrackPointExtension>
            <ns3:atemp>22.0</ns3:atemp>
          </ns3:TrackPointExtension>
        </extensions>
      </trkpt>
      <trkpt lat="42.51543223857879638671875" lon="19.94101996533572673797607421875">
        <ele>1857</ele>
        <time>2026-06-17T10:00:03.000Z</time>
        <extensions>
          <ns3:TrackPointExtension>
            <ns3:atemp>22.0</ns3:atemp>
          </ns3:TrackPointExtension>
        </extensions>
      </trkpt>
      <trkpt lat="42.51543701626360416412353515625" lon="19.94099381379783153533935546875">
        <ele>1857</ele>
        <time>2026-06-17T10:00:04.000Z</time>
        <extensions>
          <ns3:TrackPointExtension>
            <ns3:atemp>22.0</ns3:atemp>
          </ns3:TrackPointExtension>
        </extensions>
      </trkpt>
      <trkpt lat="42.51544288359582424163818359375" lon="19.9409674108028411865234375">
        <ele>1856.800048828125</ele>
        <time>2026-06-17T10:00:05.000Z</time>
        <extensions>
          <ns3:TrackPointExtension>
            <ns3:atemp>22.0</ns3:atemp>
          </ns3:TrackPointExtension>
        </extensions>
      </trkpt>
      <trkpt lat="42.51544556580483913421630859375" lon="19.9409337155520915985107421875">
        <ele>1856.5999755859375</ele>
        <time>2026-06-17T10:00:06.000Z</time>
        <extensions>
          <ns3:TrackPointExtension>
            <ns3:atemp>22.0</ns3:atemp>
          </ns3:TrackPointExtension>
        </extensions>
      </trkpt>
      <trkpt lat="42.51544296741485595703125" lon="19.94090328924357891082763671875">
        <ele>1856.4000244140625</ele>
        <time>2026-06-17T10:00:07.000Z</time>
        <extensions>
          <ns3:TrackPointExtension>
            <ns3:atemp>22.0</ns3:atemp>
          </ns3:TrackPointExtension>
        </extensions>
      </trkpt>
      <trkpt lat="42.5154290534555912017822265625" lon="19.9408730305731296539306640625">
        <ele>1856</ele>
        <time>2026-06-17T10:00:08.000Z</time>
        <extensions>
          <ns3:TrackPointExtension>
            <ns3:atemp>22.0</ns3:atemp>
          </ns3:TrackPointExtension>
        </extensions>
      </trkpt>
      <trkpt lat="42.5154099427163600921630859375" lon="19.94085785932838916778564453125">
        <ele>1855.5999755859375</ele>
        <time>2026-06-17T10:00:09.000Z</time>
        <extensions>
          <ns3:TrackPointExtension>
            <ns3:atemp>22.0</ns3:atemp>
          </ns3:TrackPointExtension>
        </extensions>
      </trkpt>
      <trkpt lat="42.5153992138803005218505859375" lon="19.94084847159683704376220703125">
        <ele>1855.4000244140625</ele>
        <time>2026-06-17T10:00:10.000Z</time>
        <extensions>
          <ns3:TrackPointExtension>
            <ns3:atemp>22.0</ns3:atemp>
          </ns3:TrackPointExtension>
        </extensions>
      </trkpt>
      <trkpt lat="42.51538923941552639007568359375" lon="19.940839670598506927490234375">
        <ele>1855.4000244140625</ele>
        <time>2026-06-17T10:00:11.000Z</time>
        <extensions>
          <ns3:TrackPointExtension>
            <ns3:atemp>22.0</ns3:atemp>
          </ns3:TrackPointExtension>
        </extensions>
      </trkpt>
      <trkpt lat="42.51537448726594448089599609375" lon="19.94083254598081111907958984375">
        <ele>1855.4000244140625</ele>
        <time>2026-06-17T10:00:12.000Z</time>
        <extensions>
          <ns3:TrackPointExtension>
            <ns3:atemp>22.0</ns3:atemp>
          </ns3:TrackPointExtension>
        </extensions>
      </trkpt>
      <trkpt lat="42.51536325551569461822509765625" lon="19.9408197216689586639404296875">
        <ele>1855.4000244140625</ele>
        <time>2026-06-17T10:00:13.000Z</time>
        <extensions>
          <ns3:TrackPointExtension>
            <ns3:atemp>22.0</ns3:atemp>
          </ns3:TrackPointExtension>
        </extensions>
      </trkpt>
      <trkpt lat="42.5153529457747936248779296875" lon="19.94081117212772369384765625">
        <ele>1855.5999755859375</ele>
        <time>2026-06-17T10:00:14.000Z</time>
        <extensions>
          <ns3:TrackPointExtension>
            <ns3:atemp>22.0</ns3:atemp>
          </ns3:TrackPointExtension>
        </extensions>
      </trkpt>
      <trkpt lat="42.5153316557407379150390625" lon="19.940797425806522369384765625">
        <ele>1855.800048828125</ele>
        <time>2026-06-17T10:00:15.000Z</time>
        <extensions>
          <ns3:TrackPointExtension>
            <ns3:atemp>22.0</ns3:atemp>
          </ns3:TrackPointExtension>
        </extensions>
      </trkpt>
      <trkpt lat="42.5153100304305553436279296875" lon="19.940783679485321044921875">
        <ele>1856</ele>
        <time>2026-06-17T10:00:16.000Z</time>
        <extensions>
          <ns3:TrackPointExtension>
            <ns3:atemp>22.0</ns3:atemp>
          </ns3:TrackPointExtension>
        </extensions>
      </trkpt>
      <trkpt lat="42.51529343426227569580078125" lon="19.94077320210635662078857421875">
        <ele>1856.4000244140625</ele>
        <time>2026-06-17T10:00:17.000Z</time>
        <extensions>
          <ns3:TrackPointExtension>
            <ns3:atemp>22.0</ns3:atemp>
          </ns3:TrackPointExtension>
        </extensions>
      </trkpt>
      <trkpt lat="42.51527876593172550201416015625" lon="19.9407583661377429962158203125">
        <ele>1857</ele>
        <time>2026-06-17T10:00:18.000Z</time>
        <extensions>
          <ns3:TrackPointExtension>
            <ns3:atemp>22.0</ns3:atemp>
          </ns3:TrackPointExtension>
        </extensions>
      </trkpt>
      <trkpt lat="42.51526124775409698486328125" lon="19.94074285961687564849853515625">
        <ele>1857.4000244140625</ele>
        <time>2026-06-17T10:00:19.000Z</time>
        <extensions>
          <ns3:TrackPointExtension>
            <ns3:atemp>22.0</ns3:atemp>
          </ns3:TrackPointExtension>
        </extensions>
      </trkpt>
      <trkpt lat="42.515250854194164276123046875" lon="19.94072475470602512359619140625">
        <ele>1857.800048828125</ele>
        <time>2026-06-17T10:00:20.000Z</time>
        <extensions>
          <ns3:TrackPointExtension>
            <ns3:atemp>22.0</ns3:atemp>
          </ns3:TrackPointExtension>
        </extensions>
      </trkpt>
      <trkpt lat="42.5152443163096904754638671875" lon="19.94070681743323802947998046875">
        <ele>1858.199951171875</ele>
        <time>2026-06-17T10:00:21.000Z</time>
        <extensions>
          <ns3:TrackPointExtension>
            <ns3:atemp>22.0</ns3:atemp>
          </ns3:TrackPointExtension>
        </extensions>
      </trkpt>
      <trkpt lat="42.51524171791970729827880859375" lon="19.9406829290091991424560546875">
        <ele>1858.800048828125</ele>
        <time>2026-06-17T10:00:22.000Z</time>
        <extensions>
          <ns3:TrackPointExtension>
            <ns3:atemp>22.0</ns3:atemp>
          </ns3:TrackPointExtension>
        </extensions>
      </trkpt>
      <trkpt lat="42.51524188555777072906494140625" lon="19.94065870530903339385986328125">
        <ele>1859.199951171875</ele>
        <time>2026-06-17T10:00:23.000Z</time>
        <extensions>
          <ns3:TrackPointExtension>
            <ns3:atemp>22.0</ns3:atemp>
          </ns3:TrackPointExtension>
        </extensions>
      </trkpt>
      <trkpt lat="42.51523802988231182098388671875" lon="19.9406254291534423828125">
        <ele>1859.5999755859375</ele>
        <time>2026-06-17T10:00:24.000Z</time>
        <extensions>
          <ns3:TrackPointExtension>
            <ns3:atemp>22.0</ns3:atemp>
          </ns3:TrackPointExtension>
        </extensions>
      </trkpt>
      <trkpt lat="42.5152352638542652130126953125" lon="19.94060355238616466522216796875">
        <ele>1859.800048828125</ele>
        <time>2026-06-17T10:00:25.000Z</time>
        <extensions>
          <ns3:TrackPointExtension>
            <ns3:atemp>22.0</ns3:atemp>
          </ns3:TrackPointExtension>
        </extensions>
      </trkpt>
      <trkpt lat="42.51523048616945743560791015625" lon="19.94057379662990570068359375">
        <ele>1860.199951171875</ele>
        <time>2026-06-17T10:00:26.000Z</time>
        <extensions>
          <ns3:TrackPointExtension>
            <ns3:atemp>22.0</ns3:atemp>
          </ns3:TrackPointExtension>
        </extensions>
      </trkpt>
      <trkpt lat="42.51522813923656940460205078125" lon="19.9405434541404247283935546875">
        <ele>1860.4000244140625</ele>
        <time>2026-06-17T10:00:27.000Z</time>
        <extensions>
          <ns3:TrackPointExtension>
            <ns3:atemp>22.0</ns3:atemp>
          </ns3:TrackPointExtension>
        </extensions>
      </trkpt>
      <trkpt lat="42.51522445119917392730712890625" lon="19.9405038915574550628662109375">
        <ele>1860.5999755859375</ele>
        <time>2026-06-17T10:00:28.000Z</time>
        <extensions>
          <ns3:TrackPointExtension>
            <ns3:atemp>22.0</ns3:atemp>
          </ns3:TrackPointExtension>
        </extensions>
      </trkpt>
      <trkpt lat="42.51522101461887359619140625" lon="19.94046650826930999755859375">
        <ele>1860.5999755859375</ele>
        <time>2026-06-17T10:00:29.000Z</time>
        <extensions>
          <ns3:TrackPointExtension>
            <ns3:atemp>22.0</ns3:atemp>
          </ns3:TrackPointExtension>
        </extensions>
      </trkpt>
      <trkpt lat="42.51521405763924121856689453125" lon="19.9404321424663066864013671875">
        <ele>1860.5999755859375</ele>
        <time>2026-06-17T10:00:30.000Z</time>
        <extensions>
          <ns3:TrackPointExtension>
            <ns3:atemp>22.0</ns3:atemp>
          </ns3:TrackPointExtension>
        </extensions>
      </trkpt>
      <trkpt lat="42.5152027420699596405029296875" lon="19.94040003977715969085693359375">
        <ele>1860.4000244140625</ele>
        <time>2026-06-17T10:00:31.000Z</time>
        <extensions>
          <ns3:TrackPointExtension>
            <ns3:atemp>22.0</ns3:atemp>
          </ns3:TrackPointExtension>
        </extensions>
      </trkpt>
      <trkpt lat="42.515188157558441162109375" lon="19.94036885909736156463623046875">
        <ele>1860.199951171875</ele>
        <time>2026-06-17T10:00:32.000Z</time>
        <extensions>
          <ns3:TrackPointExtension>
            <ns3:atemp>22.0</ns3:atemp>
          </ns3:TrackPointExtension>
        </extensions>
      </trkpt>
      <trkpt lat="42.5151718966662883758544921875" lon="19.940347485244274139404296875">
        <ele>1860.199951171875</ele>
        <time>2026-06-17T10:00:33.000Z</time>
        <extensions>
          <ns3:TrackPointExtension>
            <ns3:atemp>22.0</ns3:atemp>
          </ns3:TrackPointExtension>
        </extensions>
      </trkpt>
      <trkpt lat="42.51515739597380161285400390625" lon="19.940343461930751800537109375">
        <ele>1860.199951171875</ele>
        <time>2026-06-17T10:00:34.000Z</time>
        <extensions>
          <ns3:TrackPointExtension>
            <ns3:atemp>22.0</ns3:atemp>
          </ns3:TrackPointExtension>
        </extensions>
      </trkpt>
      <trkpt lat="42.51514398492872714996337890625" lon="19.94034270755946636199951171875">
        <ele>1860.4000244140625</ele>
        <time>2026-06-17T10:00:35.000Z</time>
        <extensions>
          <ns3:TrackPointExtension>
            <ns3:atemp>22.0</ns3:atemp>
          </ns3:TrackPointExtension>
        </extensions>
      </trkpt>
      <trkpt lat="42.51513652503490447998046875" lon="19.940342120826244354248046875">
        <ele>1860.5999755859375</ele>
        <time>2026-06-17T10:00:36.000Z</time>
        <extensions>
          <ns3:TrackPointExtension>
            <ns3:atemp>22.0</ns3:atemp>
          </ns3:TrackPointExtension>
        </extensions>
      </trkpt>
      <trkpt lat="42.5151366926729679107666015625" lon="19.9403397738933563232421875">
        <ele>1860.5999755859375</ele>
        <time>2026-06-17T10:00:37.000Z</time>
        <extensions>
          <ns3:TrackPointExtension>
            <ns3:atemp>22.0</ns3:atemp>
          </ns3:TrackPointExtension>
        </extensions>
      </trkpt>
      <trkpt lat="42.5151366926729679107666015625" lon="19.940339438617229461669921875">
        <ele>1860.800048828125</ele>
        <time>2026-06-17T10:00:38.000Z</time>
        <extensions>
          <ns3:TrackPointExtension>
            <ns3:atemp>22.0</ns3:atemp>
          </ns3:TrackPointExtension>
        </extensions>
      </trkpt>
      <trkpt lat="42.5151366926729679107666015625" lon="19.940339438617229461669921875">
        <ele>1860.800048828125</ele>
        <time>2026-06-17T10:00:39.000Z</time>
        <extensions>
          <ns3:TrackPointExtension>
            <ns3:atemp>22.0</ns3:atemp>
          </ns3:TrackPointExtension>
        </extensions>
      </trkpt>
      <trkpt lat="42.5151366926729679107666015625" lon="19.940339438617229461669921875">
        <ele>1860.800048828125</ele>
        <time>2026-06-17T10:00:40.000Z</time>
        <extensions>
          <ns3:TrackPointExtension>
            <ns3:atemp>22.0</ns3:atemp>
          </ns3:TrackPointExtension>
        </extensions>
      </trkpt>
      <trkpt lat="42.5151366926729679107666015625" lon="19.940339438617229461669921875">
        <ele>1860.800048828125</ele>
        <time>2026-06-17T10:00:41.000Z</time>
        <extensions>
          <ns3:TrackPointExtension>
            <ns3:atemp>22.0</ns3:atemp>
          </ns3:TrackPointExtension>
        </extensions>
      </trkpt>
      <trkpt lat="42.515136189758777618408203125" lon="19.94033818133175373077392578125">
        <ele>1860.5999755859375</ele>
        <time>2026-06-17T10:00:42.000Z</time>
        <extensions>
          <ns3:TrackPointExtension>
            <ns3:atemp>22.0</ns3:atemp>
          </ns3:TrackPointExtension>
        </extensions>
      </trkpt>
      <trkpt lat="42.5151143968105316162109375" lon="19.94031286798417568206787109375">
        <ele>1860.5999755859375</ele>
        <time>2026-06-17T10:00:43.000Z</time>
        <extensions>
          <ns3:TrackPointExtension>
            <ns3:atemp>22.0</ns3:atemp>
          </ns3:TrackPointExtension>
        </extensions>
      </trkpt>
      <trkpt lat="42.51509989611804485321044921875" lon="19.94028747081756591796875">
        <ele>1860.4000244140625</ele>
        <time>2026-06-17T10:00:44.000Z</time>
        <extensions>
          <ns3:TrackPointExtension>
            <ns3:atemp>22.0</ns3:atemp>
          </ns3:TrackPointExtension>
        </extensions>
      </trkpt>
      <trkpt lat="42.515087239444255828857421875" lon="19.94026391766965389251708984375">
        <ele>1860.4000244140625</ele>
        <time>2026-06-17T10:00:45.000Z</time>
        <extensions>
          <ns3:TrackPointExtension>
            <ns3:atemp>22.0</ns3:atemp>
          </ns3:TrackPointExtension>
        </extensions>
      </trkpt>
      <trkpt lat="42.51507349312305450439453125" lon="19.9402333237230777740478515625">
        <ele>1860.199951171875</ele>
        <time>2026-06-17T10:00:46.000Z</time>
        <extensions>
          <ns3:TrackPointExtension>
            <ns3:atemp>22.0</ns3:atemp>
          </ns3:TrackPointExtension>
        </extensions>
      </trkpt>
      <trkpt lat="42.515059076249599456787109375" lon="19.9402054958045482635498046875">
        <ele>1860.199951171875</ele>
        <time>2026-06-17T10:00:47.000Z</time>
        <extensions>
          <ns3:TrackPointExtension>
            <ns3:atemp>22.0</ns3:atemp>
          </ns3:TrackPointExtension>
        </extensions>
      </trkpt>
      <trkpt lat="42.51504893414676189422607421875" lon="19.94017590768635272979736328125">
        <ele>1860.199951171875</ele>
        <time>2026-06-17T10:00:48.000Z</time>
        <extensions>
          <ns3:TrackPointExtension>
            <ns3:atemp>22.0</ns3:atemp>
          </ns3:TrackPointExtension>
        </extensions>
      </trkpt>
      <trkpt lat="42.5150444917380809783935546875" lon="19.94014891795814037322998046875">
        <ele>1860.4000244140625</ele>
        <time>2026-06-17T10:00:49.000Z</time>
        <extensions>
          <ns3:TrackPointExtension>
            <ns3:atemp>22.0</ns3:atemp>
          </ns3:TrackPointExtension>
        </extensions>
      </trkpt>
      <trkpt lat="42.5150361098349094390869140625" lon="19.9401263706386089324951171875">
        <ele>1860.5999755859375</ele>
        <time>2026-06-17T10:00:50.000Z</time>
        <extensions>
          <ns3:TrackPointExtension>
            <ns3:atemp>22.0</ns3:atemp>
          </ns3:TrackPointExtension>
        </extensions>
      </trkpt>
      <trkpt lat="42.515027225017547607421875" lon="19.94010533206164836883544921875">
        <ele>1860.800048828125</ele>
        <time>2026-06-17T10:00:51.000Z</time>
        <extensions>
          <ns3:TrackPointExtension>
            <ns3:atemp>22.0</ns3:atemp>
          </ns3:TrackPointExtension>
        </extensions>
      </trkpt>
      <trkpt lat="42.5150159932672977447509765625" lon="19.94008689187467098236083984375">
        <ele>1861</ele>
        <time>2026-06-17T10:00:52.000Z</time>
        <extensions>
          <ns3:TrackPointExtension>
            <ns3:atemp>22.0</ns3:atemp>
          </ns3:TrackPointExtension>
        </extensions>
      </trkpt>
      <trkpt lat="42.5150022469460964202880859375" lon="19.94006208144128322601318359375">
        <ele>1861.199951171875</ele>
        <time>2026-06-17T10:00:53.000Z</time>
        <extensions>
          <ns3:TrackPointExtension>
            <ns3:atemp>22.0</ns3:atemp>
          </ns3:TrackPointExtension>
        </extensions>
      </trkpt>
      <trkpt lat="42.5149898417294025421142578125" lon="19.9400345049798488616943359375">
        <ele>1861.4000244140625</ele>
        <time>2026-06-17T10:00:54.000Z</time>
        <extensions>
          <ns3:TrackPointExtension>
            <ns3:atemp>22.0</ns3:atemp>
          </ns3:TrackPointExtension>
        </extensions>
      </trkpt>
      <trkpt lat="42.514982633292675018310546875" lon="19.94000441394746303558349609375">
        <ele>1861.4000244140625</ele>
        <time>2026-06-17T10:00:55.000Z</time>
        <extensions>
          <ns3:TrackPointExtension>
            <ns3:atemp>22.0</ns3:atemp>
          </ns3:TrackPointExtension>
        </extensions>
      </trkpt>
      <trkpt lat="42.51497584395110607147216796875" lon="19.9399808607995510101318359375">
        <ele>1861.5999755859375</ele>
        <time>2026-06-17T10:00:56.000Z</time>
        <extensions>
          <ns3:TrackPointExtension>
            <ns3:atemp>22.0</ns3:atemp>
          </ns3:TrackPointExtension>
        </extensions>
      </trkpt>
      <trkpt lat="42.514967210590839385986328125" lon="19.93995420634746551513671875">
        <ele>1861.5999755859375</ele>
        <time>2026-06-17T10:00:57.000Z</time>
        <extensions>
          <ns3:TrackPointExtension>
            <ns3:atemp>22.0</ns3:atemp>
          </ns3:TrackPointExtension>
        </extensions>
      </trkpt>
      <trkpt lat="42.5149589963257312774658203125" lon="19.9399362690746784210205078125">
        <ele>1861.800048828125</ele>
        <time>2026-06-17T10:00:58.000Z</time>
        <extensions>
          <ns3:TrackPointExtension>
            <ns3:atemp>22.0</ns3:atemp>
          </ns3:TrackPointExtension>
        </extensions>
      </trkpt>
      <trkpt lat="42.5149479322135448455810546875" lon="19.93991690687835216522216796875">
        <ele>1862</ele>
        <time>2026-06-17T10:00:59.000Z</time>
        <extensions>
          <ns3:TrackPointExtension>
            <ns3:atemp>22.0</ns3:atemp>
          </ns3:TrackPointExtension>
        </extensions>
      </trkpt>
      <trkpt lat="42.514933012425899505615234375" lon="19.93990399874746799468994140625">
        <ele>1862.199951171875</ele>
        <time>2026-06-17T10:01:00.000Z</time>
        <extensions>
          <ns3:TrackPointExtension>
            <ns3:atemp>22.0</ns3:atemp>
          </ns3:TrackPointExtension>
        </extensions>
      </trkpt>
      <trkpt lat="42.514917589724063873291015625" lon="19.93988673202693462371826171875">
        <ele>1862.199951171875</ele>
        <time>2026-06-17T10:01:01.000Z</time>
        <extensions>
          <ns3:TrackPointExtension>
            <ns3:atemp>22.0</ns3:atemp>
          </ns3:TrackPointExtension>
        </extensions>
      </trkpt>
      <trkpt lat="42.514898814260959625244140625" lon="19.93986913003027439117431640625">
        <ele>1862.199951171875</ele>
        <time>2026-06-17T10:01:02.000Z</time>
        <extensions>
          <ns3:TrackPointExtension>
            <ns3:atemp>22.0</ns3:atemp>
          </ns3:TrackPointExtension>
        </extensions>
      </trkpt>
      <trkpt lat="42.5148792006075382232666015625" lon="19.939847923815250396728515625">
        <ele>1862.4000244140625</ele>
        <time>2026-06-17T10:01:03.000Z</time>
        <extensions>
          <ns3:TrackPointExtension>
            <ns3:atemp>22.0</ns3:atemp>
          </ns3:TrackPointExtension>
        </extensions>
      </trkpt>
      <trkpt lat="42.51486252062022686004638671875" lon="19.93983216583728790283203125">
        <ele>1862.4000244140625</ele>
        <time>2026-06-17T10:01:04.000Z</time>
        <extensions>
          <ns3:TrackPointExtension>
            <ns3:atemp>22.0</ns3:atemp>
          </ns3:TrackPointExtension>
        </extensions>
      </trkpt>
      <trkpt lat="42.5148483552038669586181640625" lon="19.93981515057384967803955078125">
        <ele>1862.5999755859375</ele>
        <time>2026-06-17T10:01:05.000Z</time>
        <extensions>
          <ns3:TrackPointExtension>
            <ns3:atemp>22.0</ns3:atemp>
          </ns3:TrackPointExtension>
        </extensions>
      </trkpt>
      <trkpt lat="42.51483452506363391876220703125" lon="19.939798973500728607177734375">
        <ele>1862.5999755859375</ele>
        <time>2026-06-17T10:01:06.000Z</time>
        <extensions>
          <ns3:TrackPointExtension>
            <ns3:atemp>22.0</ns3:atemp>
          </ns3:TrackPointExtension>
        </extensions>
      </trkpt>
      <trkpt lat="42.5148193538188934326171875" lon="19.9397791922092437744140625">
        <ele>1862.800048828125</ele>
        <time>2026-06-17T10:01:07.000Z</time>
        <extensions>
          <ns3:TrackPointExtension>
            <ns3:atemp>22.0</ns3:atemp>
          </ns3:TrackPointExtension>
        </extensions>
      </trkpt>
      <trkpt lat="42.51480837352573871612548828125" lon="19.93976376950740814208984375">
        <ele>1863</ele>
        <time>2026-06-17T10:01:08.000Z</time>
        <extensions>
          <ns3:TrackPointExtension>
            <ns3:atemp>22.0</ns3:atemp>
          </ns3:TrackPointExtension>
        </extensions>
      </trkpt>
      <trkpt lat="42.51480049453675746917724609375" lon="19.939741306006908416748046875">
        <ele>1863</ele>
        <time>2026-06-17T10:01:09.000Z</time>
        <extensions>
          <ns3:TrackPointExtension>
            <ns3:atemp>22.0</ns3:atemp>
          </ns3:TrackPointExtension>
        </extensions>
      </trkpt>
      <trkpt lat="42.514792196452617645263671875" lon="19.93971305899322032928466796875">
        <ele>1863.199951171875</ele>
        <time>2026-06-17T10:01:10.000Z</time>
        <extensions>
          <ns3:TrackPointExtension>
            <ns3:atemp>22.0</ns3:atemp>
          </ns3:TrackPointExtension>
        </extensions>
      </trkpt>
      <trkpt lat="42.51478515565395355224609375" lon="19.93968355469405651092529296875">
        <ele>1863.199951171875</ele>
        <time>2026-06-17T10:01:11.000Z</time>
        <extensions>
          <ns3:TrackPointExtension>
            <ns3:atemp>22.0</ns3:atemp>
          </ns3:TrackPointExtension>
        </extensions>
      </trkpt>
      <trkpt lat="42.5147806294262409210205078125" lon="19.939656145870685577392578125">
        <ele>1863.199951171875</ele>
        <time>2026-06-17T10:01:12.000Z</time>
        <extensions>
          <ns3:TrackPointExtension>
            <ns3:atemp>22.0</ns3:atemp>
          </ns3:TrackPointExtension>
        </extensions>
      </trkpt>
      <trkpt lat="42.51477719284594058990478515625" lon="19.93962764739990234375">
        <ele>1863.199951171875</ele>
        <time>2026-06-17T10:01:13.000Z</time>
        <extensions>
          <ns3:TrackPointExtension>
            <ns3:atemp>22.0</ns3:atemp>
          </ns3:TrackPointExtension>
        </extensions>
      </trkpt>
      <trkpt lat="42.51477316953241825103759765625" lon="19.93960107676684856414794921875">
        <ele>1863.4000244140625</ele>
        <time>2026-06-17T10:01:14.000Z</time>
        <extensions>
          <ns3:TrackPointExtension>
            <ns3:atemp>22.0</ns3:atemp>
          </ns3:TrackPointExtension>
        </extensions>
      </trkpt>
      <trkpt lat="42.514772750437259674072265625" lon="19.939575679600238800048828125">
        <ele>1863.4000244140625</ele>
        <time>2026-06-17T10:01:15.000Z</time>
        <extensions>
          <ns3:TrackPointExtension>
            <ns3:atemp>22.0</ns3:atemp>
          </ns3:TrackPointExtension>
        </extensions>
      </trkpt>
      <trkpt lat="42.51476897858083248138427734375" lon="19.93955028243362903594970703125">
        <ele>1863.4000244140625</ele>
        <time>2026-06-17T10:01:16.000Z</time>
        <extensions>
          <ns3:TrackPointExtension>
            <ns3:atemp>22.0</ns3:atemp>
          </ns3:TrackPointExtension>
        </extensions>
      </trkpt>
      <trkpt lat="42.51476260833442211151123046875" lon="19.93952505290508270263671875">
        <ele>1863.4000244140625</ele>
        <time>2026-06-17T10:01:17.000Z</time>
        <extensions>
          <ns3:TrackPointExtension>
            <ns3:atemp>22.0</ns3:atemp>
          </ns3:TrackPointExtension>
        </extensions>
      </trkpt>
      <trkpt lat="42.51475757919251918792724609375" lon="19.93949462659657001495361328125">
        <ele>1863.5999755859375</ele>
        <time>2026-06-17T10:01:18.000Z</time>
        <extensions>
          <ns3:TrackPointExtension>
            <ns3:atemp>22.0</ns3:atemp>
          </ns3:TrackPointExtension>
        </extensions>
      </trkpt>
      <trkpt lat="42.5147541426122188568115234375" lon="19.9394578300416469573974609375">
        <ele>1863.5999755859375</ele>
        <time>2026-06-17T10:01:19.000Z</time>
        <extensions>
          <ns3:TrackPointExtension>
            <ns3:atemp>22.0</ns3:atemp>
          </ns3:TrackPointExtension>
        </extensions>
      </trkpt>
      <trkpt lat="42.5147554837167263031005859375" lon="19.93942405097186565399169921875">
        <ele>1863.5999755859375</ele>
        <time>2026-06-17T10:01:20.000Z</time>
        <extensions>
          <ns3:TrackPointExtension>
            <ns3:atemp>22.0</ns3:atemp>
          </ns3:TrackPointExtension>
        </extensions>
      </trkpt>
      <trkpt lat="42.5147576630115509033203125" lon="19.93939622305333614349365234375">
        <ele>1863.5999755859375</ele>
        <time>2026-06-17T10:01:21.000Z</time>
        <extensions>
          <ns3:TrackPointExtension>
            <ns3:atemp>22.0</ns3:atemp>
          </ns3:TrackPointExtension>
        </extensions>
      </trkpt>
      <trkpt lat="42.5147595070302486419677734375" lon="19.93936554528772830963134765625">
        <ele>1863.800048828125</ele>
        <time>2026-06-17T10:01:22.000Z</time>
        <extensions>
          <ns3:TrackPointExtension>
            <ns3:atemp>22.0</ns3:atemp>
          </ns3:TrackPointExtension>
        </extensions>
      </trkpt>
      <trkpt lat="42.51475741155445575714111328125" lon="19.93934324942529201507568359375">
        <ele>1863.800048828125</ele>
        <time>2026-06-17T10:01:23.000Z</time>
        <extensions>
          <ns3:TrackPointExtension>
            <ns3:atemp>22.0</ns3:atemp>
          </ns3:TrackPointExtension>
        </extensions>
      </trkpt>
      <trkpt lat="42.5147534720599651336669921875" lon="19.93931449949741363525390625">
        <ele>1864</ele>
        <time>2026-06-17T10:01:24.000Z</time>
        <extensions>
          <ns3:TrackPointExtension>
            <ns3:atemp>22.0</ns3:atemp>
          </ns3:TrackPointExtension>
        </extensions>
      </trkpt>
      <trkpt lat="42.51474970020353794097900390625" lon="19.93928289972245693206787109375">
        <ele>1864</ele>
        <time>2026-06-17T10:01:25.000Z</time>
        <extensions>
          <ns3:TrackPointExtension>
            <ns3:atemp>22.0</ns3:atemp>
          </ns3:TrackPointExtension>
        </extensions>
      </trkpt>
      <trkpt lat="42.51474467106163501739501953125" lon="19.9392459355294704437255859375">
        <ele>1864</ele>
        <time>2026-06-17T10:01:26.000Z</time>
        <extensions>
          <ns3:TrackPointExtension>
            <ns3:atemp>22.0</ns3:atemp>
          </ns3:TrackPointExtension>
        </extensions>
      </trkpt>
      <trkpt lat="42.514737211167812347412109375" lon="19.93921718560159206390380859375">
        <ele>1864</ele>
        <time>2026-06-17T10:01:27.000Z</time>
        <extensions>
          <ns3:TrackPointExtension>
            <ns3:atemp>22.0</ns3:atemp>
          </ns3:TrackPointExtension>
        </extensions>
      </trkpt>
      <trkpt lat="42.51473042182624340057373046875" lon="19.9391943030059337615966796875">
        <ele>1863.800048828125</ele>
        <time>2026-06-17T10:01:28.000Z</time>
        <extensions>
          <ns3:TrackPointExtension>
            <ns3:atemp>22.0</ns3:atemp>
          </ns3:TrackPointExtension>
        </extensions>
      </trkpt>
      <trkpt lat="42.514727152884006500244140625" lon="19.93916572071611881256103515625">
        <ele>1863.5999755859375</ele>
        <time>2026-06-17T10:01:29.000Z</time>
        <extensions>
          <ns3:TrackPointExtension>
            <ns3:atemp>22.0</ns3:atemp>
          </ns3:TrackPointExtension>
        </extensions>
      </trkpt>
      <trkpt lat="42.514719776809215545654296875" lon="19.93913470767438411712646484375">
        <ele>1863.5999755859375</ele>
        <time>2026-06-17T10:01:30.000Z</time>
        <extensions>
          <ns3:TrackPointExtension>
            <ns3:atemp>22.0</ns3:atemp>
          </ns3:TrackPointExtension>
        </extensions>
      </trkpt>
      <trkpt lat="42.51471013762056827545166015625" lon="19.93910503573715686798095703125">
        <ele>1863.4000244140625</ele>
        <time>2026-06-17T10:01:31.000Z</time>
        <extensions>
          <ns3:TrackPointExtension>
            <ns3:atemp>22.0</ns3:atemp>
          </ns3:TrackPointExtension>
        </extensions>
      </trkpt>
      <trkpt lat="42.51469203270971775054931640625" lon="19.93907980620861053466796875">
        <ele>1863.199951171875</ele>
        <time>2026-06-17T10:01:32.000Z</time>
        <extensions>
          <ns3:TrackPointExtension>
            <ns3:atemp>22.0</ns3:atemp>
          </ns3:TrackPointExtension>
        </extensions>
      </trkpt>
      <trkpt lat="42.5146746821701526641845703125" lon="19.93905172683298587799072265625">
        <ele>1863.199951171875</ele>
        <time>2026-06-17T10:01:33.000Z</time>
        <extensions>
          <ns3:TrackPointExtension>
            <ns3:atemp>22.0</ns3:atemp>
          </ns3:TrackPointExtension>
        </extensions>
      </trkpt>
      <trkpt lat="42.51465640962123870849609375" lon="19.93902482092380523681640625">
        <ele>1863</ele>
        <time>2026-06-17T10:01:34.000Z</time>
        <extensions>
          <ns3:TrackPointExtension>
            <ns3:atemp>22.0</ns3:atemp>
          </ns3:TrackPointExtension>
        </extensions>
      </trkpt>
      <trkpt lat="42.514640651643276214599609375" lon="19.93899791501462459564208984375">
        <ele>1862.800048828125</ele>
        <time>2026-06-17T10:01:35.000Z</time>
        <extensions>
          <ns3:TrackPointExtension>
            <ns3:atemp>22.0</ns3:atemp>
          </ns3:TrackPointExtension>
        </extensions>
      </trkpt>
      <trkpt lat="42.51462665386497974395751953125" lon="19.93897193111479282379150390625">
        <ele>1862.800048828125</ele>
        <time>2026-06-17T10:01:36.000Z</time>
        <extensions>
          <ns3:TrackPointExtension>
            <ns3:atemp>22.0</ns3:atemp>
          </ns3:TrackPointExtension>
        </extensions>
      </trkpt>
      <trkpt lat="42.5146133266389369964599609375" lon="19.93894661776721477508544921875">
        <ele>1862.800048828125</ele>
        <time>2026-06-17T10:01:37.000Z</time>
        <extensions>
          <ns3:TrackPointExtension>
            <ns3:atemp>22.0</ns3:atemp>
          </ns3:TrackPointExtension>
        </extensions>
      </trkpt>
      <trkpt lat="42.51460008323192596435546875" lon="19.9389153532683849334716796875">
        <ele>1862.800048828125</ele>
        <time>2026-06-17T10:01:38.000Z</time>
        <extensions>
          <ns3:TrackPointExtension>
            <ns3:atemp>22.0</ns3:atemp>
          </ns3:TrackPointExtension>
        </extensions>
      </trkpt>
      <trkpt lat="42.5145791284739971160888671875" lon="19.938884675502777099609375">
        <ele>1863</ele>
        <time>2026-06-17T10:01:39.000Z</time>
        <extensions>
          <ns3:TrackPointExtension>
            <ns3:atemp>22.0</ns3:atemp>
          </ns3:TrackPointExtension>
        </extensions>
      </trkpt>
      <trkpt lat="42.51456496305763721466064453125" lon="19.93886330164968967437744140625">
        <ele>1863</ele>
        <time>2026-06-17T10:01:40.000Z</time>
        <extensions>
          <ns3:TrackPointExtension>
            <ns3:atemp>22.0</ns3:atemp>
          </ns3:TrackPointExtension>
        </extensions>
      </trkpt>
      <trkpt lat="42.51454685814678668975830078125" lon="19.93884050287306308746337890625">
        <ele>1863.199951171875</ele>
        <time>2026-06-17T10:01:41.000Z</time>
        <extensions>
          <ns3:TrackPointExtension>
            <ns3:atemp>22.0</ns3:atemp>
          </ns3:TrackPointExtension>
        </extensions>
      </trkpt>
      <trkpt lat="42.5145362131297588348388671875" lon="19.938822649419307708740234375">
        <ele>1863.4000244140625</ele>
        <time>2026-06-17T10:01:42.000Z</time>
        <extensions>
          <ns3:TrackPointExtension>
            <ns3:atemp>22.0</ns3:atemp>
          </ns3:TrackPointExtension>
        </extensions>
      </trkpt>
      <trkpt lat="42.5145238079130649566650390625" lon="19.93880328722298145294189453125">
        <ele>1863.5999755859375</ele>
        <time>2026-06-17T10:01:43.000Z</time>
        <extensions>
          <ns3:TrackPointExtension>
            <ns3:atemp>22.0</ns3:atemp>
          </ns3:TrackPointExtension>
        </extensions>
      </trkpt>
      <trkpt lat="42.51450645737349987030029296875" lon="19.938779734075069427490234375">
        <ele>1863.800048828125</ele>
        <time>2026-06-17T10:01:44.000Z</time>
        <extensions>
          <ns3:TrackPointExtension>
            <ns3:atemp>22.0</ns3:atemp>
          </ns3:TrackPointExtension>
        </extensions>
      </trkpt>
      <trkpt lat="42.51448868773877620697021484375" lon="19.93875391781330108642578125">
        <ele>1864</ele>
        <time>2026-06-17T10:01:45.000Z</time>
        <extensions>
          <ns3:TrackPointExtension>
            <ns3:atemp>22.0</ns3:atemp>
          </ns3:TrackPointExtension>
        </extensions>
      </trkpt>
      <trkpt lat="42.51447913236916065216064453125" lon="19.93872231803834438323974609375">
        <ele>1864.199951171875</ele>
        <time>2026-06-17T10:01:46.000Z</time>
        <extensions>
          <ns3:TrackPointExtension>
            <ns3:atemp>22.0</ns3:atemp>
          </ns3:TrackPointExtension>
        </extensions>
      </trkpt>
      <trkpt lat="42.51447142101824283599853515625" lon="19.93869281373918056488037109375">
        <ele>1864.4000244140625</ele>
        <time>2026-06-17T10:01:47.000Z</time>
        <extensions>
          <ns3:TrackPointExtension>
            <ns3:atemp>22.0</ns3:atemp>
          </ns3:TrackPointExtension>
        </extensions>
      </trkpt>
      <trkpt lat="42.51445029862225055694580078125" lon="19.9386568553745746612548828125">
        <ele>1864.4000244140625</ele>
        <time>2026-06-17T10:01:48.000Z</time>
        <extensions>
          <ns3:TrackPointExtension>
            <ns3:atemp>22.0</ns3:atemp>
          </ns3:TrackPointExtension>
        </extensions>
      </trkpt>
      <trkpt lat="42.51442666165530681610107421875" lon="19.93862517178058624267578125">
        <ele>1864.5999755859375</ele>
        <time>2026-06-17T10:01:49.000Z</time>
        <extensions>
          <ns3:TrackPointExtension>
            <ns3:atemp>22.0</ns3:atemp>
          </ns3:TrackPointExtension>
        </extensions>
      </trkpt>
      <trkpt lat="42.5144074670970439910888671875" lon="19.938593991100788116455078125">
        <ele>1864.800048828125</ele>
        <time>2026-06-17T10:01:50.000Z</time>
        <extensions>
          <ns3:TrackPointExtension>
            <ns3:atemp>22.0</ns3:atemp>
          </ns3:TrackPointExtension>
        </extensions>
      </trkpt>
      <trkpt lat="42.51438626088201999664306640625" lon="19.9385614693164825439453125">
        <ele>1864.800048828125</ele>
        <time>2026-06-17T10:01:51.000Z</time>
        <extensions>
          <ns3:TrackPointExtension>
            <ns3:atemp>22.0</ns3:atemp>
          </ns3:TrackPointExtension>
        </extensions>
      </trkpt>
      <trkpt lat="42.5143633782863616943359375" lon="19.93852601386606693267822265625">
        <ele>1865</ele>
        <time>2026-06-17T10:01:52.000Z</time>
        <extensions>
          <ns3:TrackPointExtension>
            <ns3:atemp>22.0</ns3:atemp>
          </ns3:TrackPointExtension>
        </extensions>
      </trkpt>
      <trkpt lat="42.51434351317584514617919921875" lon="19.93849365971982479095458984375">
        <ele>1865</ele>
        <time>2026-06-17T10:01:53.000Z</time>
        <extensions>
          <ns3:TrackPointExtension>
            <ns3:atemp>22.0</ns3:atemp>
          </ns3:TrackPointExtension>
        </extensions>
      </trkpt>
      <trkpt lat="42.51432113349437713623046875" lon="19.93845862336456775665283203125">
        <ele>1865.199951171875</ele>
        <time>2026-06-17T10:01:54.000Z</time>
        <extensions>
          <ns3:TrackPointExtension>
            <ns3:atemp>22.0</ns3:atemp>
          </ns3:TrackPointExtension>
        </extensions>
      </trkpt>
      <trkpt lat="42.51429758034646511077880859375" lon="19.9384208209812641143798828125">
        <ele>1865.4000244140625</ele>
        <time>2026-06-17T10:01:55.000Z</time>
        <extensions>
          <ns3:TrackPointExtension>
            <ns3:atemp>22.0</ns3:atemp>
          </ns3:TrackPointExtension>
        </extensions>
      </trkpt>
      <trkpt lat="42.51427545212209224700927734375" lon="19.93838771246373653411865234375">
        <ele>1865.4000244140625</ele>
        <time>2026-06-17T10:01:56.000Z</time>
        <extensions>
          <ns3:TrackPointExtension>
            <ns3:atemp>22.0</ns3:atemp>
          </ns3:TrackPointExtension>
        </extensions>
      </trkpt>
      <trkpt lat="42.51425399444997310638427734375" lon="19.93835552595555782318115234375">
        <ele>1865.5999755859375</ele>
        <time>2026-06-17T10:01:57.000Z</time>
        <extensions>
          <ns3:TrackPointExtension>
            <ns3:atemp>22.0</ns3:atemp>
          </ns3:TrackPointExtension>
        </extensions>
      </trkpt>
      <trkpt lat="42.51423572190105915069580078125" lon="19.9383199028670787811279296875">
        <ele>1865.800048828125</ele>
        <time>2026-06-17T10:01:58.000Z</time>
        <extensions>
          <ns3:TrackPointExtension>
            <ns3:atemp>22.0</ns3:atemp>
          </ns3:TrackPointExtension>
        </extensions>
      </trkpt>
      <trkpt lat="42.514222897589206695556640625" lon="19.938294589519500732421875">
        <ele>1866</ele>
        <time>2026-06-17T10:01:59.000Z</time>
        <extensions>
          <ns3:TrackPointExtension>
            <ns3:atemp>22.0</ns3:atemp>
          </ns3:TrackPointExtension>
        </extensions>
      </trkpt>
      <trkpt lat="42.514209486544132232666015625" lon="19.93827170692384243011474609375">
        <ele>1866.199951171875</ele>
        <time>2026-06-17T10:02:00.000Z</time>
        <extensions>
          <ns3:TrackPointExtension>
            <ns3:atemp>22.0</ns3:atemp>
          </ns3:TrackPointExtension>
        </extensions>
      </trkpt>
      <trkpt lat="42.5141938962042331695556640625" lon="19.9382436275482177734375">
        <ele>1866.4000244140625</ele>
        <time>2026-06-17T10:02:01.000Z</time>
        <extensions>
          <ns3:TrackPointExtension>
            <ns3:atemp>22.0</ns3:atemp>
          </ns3:TrackPointExtension>
        </extensions>
      </trkpt>
      <trkpt lat="42.5141754560172557830810546875" lon="19.93821169249713420867919921875">
        <ele>1866.800048828125</ele>
        <time>2026-06-17T10:02:02.000Z</time>
        <extensions>
          <ns3:TrackPointExtension>
            <ns3:atemp>22.0</ns3:atemp>
          </ns3:TrackPointExtension>
        </extensions>
      </trkpt>
      <trkpt lat="42.51415642909705638885498046875" lon="19.93817481212317943572998046875">
        <ele>1867</ele>
        <time>2026-06-17T10:02:03.000Z</time>
        <extensions>
          <ns3:TrackPointExtension>
            <ns3:atemp>22.0</ns3:atemp>
          </ns3:TrackPointExtension>
        </extensions>
      </trkpt>
      <trkpt lat="42.514133043587207794189453125" lon="19.9381425417959690093994140625">
        <ele>1867.199951171875</ele>
        <time>2026-06-17T10:02:04.000Z</time>
        <extensions>
          <ns3:TrackPointExtension>
            <ns3:atemp>22.0</ns3:atemp>
          </ns3:TrackPointExtension>
        </extensions>
      </trkpt>
      <trkpt lat="42.51411351375281810760498046875" lon="19.93810976855456829071044921875">
        <ele>1867.4000244140625</ele>
        <time>2026-06-17T10:02:05.000Z</time>
        <extensions>
          <ns3:TrackPointExtension>
            <ns3:atemp>22.0</ns3:atemp>
          </ns3:TrackPointExtension>
        </extensions>
      </trkpt>
      <trkpt lat="42.5140993483364582061767578125" lon="19.93807758204638957977294921875">
        <ele>1867.5999755859375</ele>
        <time>2026-06-17T10:02:06.000Z</time>
        <extensions>
          <ns3:TrackPointExtension>
            <ns3:atemp>22.0</ns3:atemp>
          </ns3:TrackPointExtension>
        </extensions>
      </trkpt>
      <trkpt lat="42.51409155316650867462158203125" lon="19.9380453117191791534423828125">
        <ele>1867.800048828125</ele>
        <time>2026-06-17T10:02:07.000Z</time>
        <extensions>
          <ns3:TrackPointExtension>
            <ns3:atemp>22.0</ns3:atemp>
          </ns3:TrackPointExtension>
        </extensions>
      </trkpt>
      <trkpt lat="42.5140832550823688507080078125" lon="19.93801228702068328857421875">
        <ele>1868</ele>
        <time>2026-06-17T10:02:08.000Z</time>
        <extensions>
          <ns3:TrackPointExtension>
            <ns3:atemp>22.0</ns3:atemp>
          </ns3:TrackPointExtension>
        </extensions>
      </trkpt>
      <trkpt lat="42.51407193951308727264404296875" lon="19.9379849620163440704345703125">
        <ele>1868</ele>
        <time>2026-06-17T10:02:09.000Z</time>
        <extensions>
          <ns3:TrackPointExtension>
            <ns3:atemp>22.0</ns3:atemp>
          </ns3:TrackPointExtension>
        </extensions>
      </trkpt>
      <trkpt lat="42.51406406052410602569580078125" lon="19.9379510991275310516357421875">
        <ele>1868</ele>
        <time>2026-06-17T10:02:10.000Z</time>
        <extensions>
          <ns3:TrackPointExtension>
            <ns3:atemp>22.0</ns3:atemp>
          </ns3:TrackPointExtension>
        </extensions>
      </trkpt>
      <trkpt lat="42.5140577740967273712158203125" lon="19.93791497312486171722412109375">
        <ele>1868.199951171875</ele>
        <time>2026-06-17T10:02:11.000Z</time>
        <extensions>
          <ns3:TrackPointExtension>
            <ns3:atemp>22.0</ns3:atemp>
          </ns3:TrackPointExtension>
        </extensions>
      </trkpt>
      <trkpt lat="42.51405383460223674774169921875" lon="19.93787658400833606719970703125">
        <ele>1868.199951171875</ele>
        <time>2026-06-17T10:02:12.000Z</time>
        <extensions>
          <ns3:TrackPointExtension>
            <ns3:atemp>22.0</ns3:atemp>
          </ns3:TrackPointExtension>
        </extensions>
      </trkpt>
      <trkpt lat="42.514047883450984954833984375" lon="19.93783903308212757110595703125">
        <ele>1868.199951171875</ele>
        <time>2026-06-17T10:02:13.000Z</time>
        <extensions>
          <ns3:TrackPointExtension>
            <ns3:atemp>22.0</ns3:atemp>
          </ns3:TrackPointExtension>
        </extensions>
      </trkpt>
      <trkpt lat="42.51404360868036746978759765625" lon="19.93780198507010936737060546875">
        <ele>1868.199951171875</ele>
        <time>2026-06-17T10:02:14.000Z</time>
        <extensions>
          <ns3:TrackPointExtension>
            <ns3:atemp>22.0</ns3:atemp>
          </ns3:TrackPointExtension>
        </extensions>
      </trkpt>
      <trkpt lat="42.51404243521392345428466796875" lon="19.93776619434356689453125">
        <ele>1868.199951171875</ele>
        <time>2026-06-17T10:02:15.000Z</time>
        <extensions>
          <ns3:TrackPointExtension>
            <ns3:atemp>22.0</ns3:atemp>
          </ns3:TrackPointExtension>
        </extensions>
      </trkpt>
      <trkpt lat="42.51403757371008396148681640625" lon="19.93774264119565486907958984375">
        <ele>1868.199951171875</ele>
        <time>2026-06-17T10:02:16.000Z</time>
        <extensions>
          <ns3:TrackPointExtension>
            <ns3:atemp>22.0</ns3:atemp>
          </ns3:TrackPointExtension>
        </extensions>
      </trkpt>
      <trkpt lat="42.51403220929205417633056640625" lon="19.93773928843438625335693359375">
        <ele>1868</ele>
        <time>2026-06-17T10:02:17.000Z</time>
        <extensions>
          <ns3:TrackPointExtension>
            <ns3:atemp>22.0</ns3:atemp>
          </ns3:TrackPointExtension>
        </extensions>
      </trkpt>
      <trkpt lat="42.5140321254730224609375" lon="19.9377392046153545379638671875">
        <ele>1868</ele>
        <time>2026-06-17T10:02:18.000Z</time>
        <extensions>
          <ns3:TrackPointExtension>
            <ns3:atemp>22.0</ns3:atemp>
          </ns3:TrackPointExtension>
        </extensions>
      </trkpt>
      <trkpt lat="42.5140321254730224609375" lon="19.9377392046153545379638671875">
        <ele>1868</ele>
        <time>2026-06-17T10:02:19.000Z</time>
        <extensions>
          <ns3:TrackPointExtension>
            <ns3:atemp>22.0</ns3:atemp>
          </ns3:TrackPointExtension>
        </extensions>
      </trkpt>
      <trkpt lat="42.5140321254730224609375" lon="19.9377392046153545379638671875">
        <ele>1868</ele>
        <time>2026-06-17T10:02:20.000Z</time>
        <extensions>
          <ns3:TrackPointExtension>
            <ns3:atemp>22.0</ns3:atemp>
          </ns3:TrackPointExtension>
        </extensions>
      </trkpt>
      <trkpt lat="42.5140321254730224609375" lon="19.9377392046153545379638671875">
        <ele>1868</ele>
        <time>2026-06-17T10:02:21.000Z</time>
        <extensions>
          <ns3:TrackPointExtension>
            <ns3:atemp>22.0</ns3:atemp>
          </ns3:TrackPointExtension>
        </extensions>
      </trkpt>
      <trkpt lat="42.5140321254730224609375" lon="19.9377392046153545379638671875">
        <ele>1868</ele>
        <time>2026-06-17T10:02:22.000Z</time>
        <extensions>
          <ns3:TrackPointExtension>
            <ns3:atemp>22.0</ns3:atemp>
          </ns3:TrackPointExtension>
        </extensions>
      </trkpt>
      <trkpt lat="42.5140321254730224609375" lon="19.9377392046153545379638671875">
        <ele>1868</ele>
        <time>2026-06-17T10:02:23.000Z</time>
        <extensions>
          <ns3:TrackPointExtension>
            <ns3:atemp>22.0</ns3:atemp>
          </ns3:TrackPointExtension>
        </extensions>
      </trkpt>
      <trkpt lat="42.5140321254730224609375" lon="19.9377392046153545379638671875">
        <ele>1868</ele>
        <time>2026-06-17T10:02:24.000Z</time>
        <extensions>
          <ns3:TrackPointExtension>
            <ns3:atemp>22.0</ns3:atemp>
          </ns3:TrackPointExtension>
        </extensions>
      </trkpt>
      <trkpt lat="42.5140307843685150146484375" lon="19.93773861788213253021240234375">
        <ele>1868</ele>
        <time>2026-06-17T10:02:25.000Z</time>
        <extensions>
          <ns3:TrackPointExtension>
            <ns3:atemp>22.0</ns3:atemp>
          </ns3:TrackPointExtension>
        </extensions>
      </trkpt>
      <trkpt lat="42.5140321254730224609375" lon="19.9377392046153545379638671875">
        <ele>1868</ele>
        <time>2026-06-17T10:02:26.000Z</time>
        <extensions>
          <ns3:TrackPointExtension>
            <ns3:atemp>22.0</ns3:atemp>
          </ns3:TrackPointExtension>
        </extensions>
      </trkpt>
      <trkpt lat="42.5140321254730224609375" lon="19.9377392046153545379638671875">
        <ele>1868</ele>
        <time>2026-06-17T10:02:27.000Z</time>
        <extensions>
          <ns3:TrackPointExtension>
            <ns3:atemp>22.0</ns3:atemp>
          </ns3:TrackPointExtension>
        </extensions>
      </trkpt>
      <trkpt lat="42.5140321254730224609375" lon="19.9377392046153545379638671875">
        <ele>1868</ele>
        <time>2026-06-17T10:02:28.000Z</time>
        <extensions>
          <ns3:TrackPointExtension>
            <ns3:atemp>22.0</ns3:atemp>
          </ns3:TrackPointExtension>
        </extensions>
      </trkpt>
      <trkpt lat="42.5140321254730224609375" lon="19.9377392046153545379638671875">
        <ele>1868</ele>
        <time>2026-06-17T10:02:29.000Z</time>
        <extensions>
          <ns3:TrackPointExtension>
            <ns3:atemp>22.0</ns3:atemp>
          </ns3:TrackPointExtension>
        </extensions>
      </trkpt>
      <trkpt lat="42.5140321254730224609375" lon="19.9377392046153545379638671875">
        <ele>1867.800048828125</ele>
        <time>2026-06-17T10:02:30.000Z</time>
        <extensions>
          <ns3:TrackPointExtension>
            <ns3:atemp>22.0</ns3:atemp>
          </ns3:TrackPointExtension>
        </extensions>
      </trkpt>
      <trkpt lat="42.5140321254730224609375" lon="19.9377392046153545379638671875">
        <ele>1867.5999755859375</ele>
        <time>2026-06-17T10:02:31.000Z</time>
        <extensions>
          <ns3:TrackPointExtension>
            <ns3:atemp>22.0</ns3:atemp>
          </ns3:TrackPointExtension>
        </extensions>
      </trkpt>
      <trkpt lat="42.5140321254730224609375" lon="19.9377392046153545379638671875">
        <ele>1867.4000244140625</ele>
        <time>2026-06-17T10:02:32.000Z</time>
        <extensions>
          <ns3:TrackPointExtension>
            <ns3:atemp>22.0</ns3:atemp>
          </ns3:TrackPointExtension>
        </extensions>
      </trkpt>
      <trkpt lat="42.5140321254730224609375" lon="19.9377392046153545379638671875">
        <ele>1867.199951171875</ele>
        <time>2026-06-17T10:02:33.000Z</time>
        <extensions>
          <ns3:TrackPointExtension>
            <ns3:atemp>22.0</ns3:atemp>
          </ns3:TrackPointExtension>
        </extensions>
      </trkpt>
      <trkpt lat="42.5140321254730224609375" lon="19.9377392046153545379638671875">
        <ele>1867.199951171875</ele>
        <time>2026-06-17T10:02:34.000Z</time>
        <extensions>
          <ns3:TrackPointExtension>
            <ns3:atemp>22.0</ns3:atemp>
          </ns3:TrackPointExtension>
        </extensions>
      </trkpt>
      <trkpt lat="42.5140321254730224609375" lon="19.9377392046153545379638671875">
        <ele>1867</ele>
        <time>2026-06-17T10:02:35.000Z</time>
        <extensions>
          <ns3:TrackPointExtension>
            <ns3:atemp>22.0</ns3:atemp>
          </ns3:TrackPointExtension>
        </extensions>
      </trkpt>
      <trkpt lat="42.5140321254730224609375" lon="19.9377392046153545379638671875">
        <ele>1867</ele>
        <time>2026-06-17T10:02:36.000Z</time>
        <extensions>
          <ns3:TrackPointExtension>
            <ns3:atemp>22.0</ns3:atemp>
          </ns3:TrackPointExtension>
        </extensions>
      </trkpt>
      <trkpt lat="42.5140321254730224609375" lon="19.9377392046153545379638671875">
        <ele>1867</ele>
        <time>2026-06-17T10:02:37.000Z</time>
        <extensions>
          <ns3:TrackPointExtension>
            <ns3:atemp>22.0</ns3:atemp>
          </ns3:TrackPointExtension>
        </extensions>
      </trkpt>
      <trkpt lat="42.51402877271175384521484375" lon="19.93774180300533771514892578125">
        <ele>1867</ele>
        <time>2026-06-17T10:02:38.000Z</time>
        <extensions>
          <ns3:TrackPointExtension>
            <ns3:atemp>22.0</ns3:atemp>
          </ns3:TrackPointExtension>
        </extensions>
      </trkpt>
      <trkpt lat="42.514017038047313690185546875" lon="19.937745742499828338623046875">
        <ele>1866.800048828125</ele>
        <time>2026-06-17T10:02:39.000Z</time>
        <extensions>
          <ns3:TrackPointExtension>
            <ns3:atemp>22.0</ns3:atemp>
          </ns3:TrackPointExtension>
        </extensions>
      </trkpt>
      <trkpt lat="42.51401611603796482086181640625" lon="19.93773492984473705291748046875">
        <ele>1866.800048828125</ele>
        <time>2026-06-17T10:02:40.000Z</time>
        <extensions>
          <ns3:TrackPointExtension>
            <ns3:atemp>22.0</ns3:atemp>
          </ns3:TrackPointExtension>
        </extensions>
      </trkpt>
      <trkpt lat="42.5140138529241085052490234375" lon="19.93772235698997974395751953125">
        <ele>1866.5999755859375</ele>
        <time>2026-06-17T10:02:41.000Z</time>
        <extensions>
          <ns3:TrackPointExtension>
            <ns3:atemp>22.0</ns3:atemp>
          </ns3:TrackPointExtension>
        </extensions>
      </trkpt>
      <trkpt lat="42.5140091590583324432373046875" lon="19.93770156987011432647705078125">
        <ele>1866.5999755859375</ele>
        <time>2026-06-17T10:02:42.000Z</time>
        <extensions>
          <ns3:TrackPointExtension>
            <ns3:atemp>22.0</ns3:atemp>
          </ns3:TrackPointExtension>
        </extensions>
      </trkpt>
      <trkpt lat="42.51400387845933437347412109375" lon="19.93767290376126766204833984375">
        <ele>1866.4000244140625</ele>
        <time>2026-06-17T10:02:43.000Z</time>
        <extensions>
          <ns3:TrackPointExtension>
            <ns3:atemp>22.0</ns3:atemp>
          </ns3:TrackPointExtension>
        </extensions>
      </trkpt>
      <trkpt lat="42.5139900483191013336181640625" lon="19.93764641694724559783935546875">
        <ele>1866.4000244140625</ele>
        <time>2026-06-17T10:02:44.000Z</time>
        <extensions>
          <ns3:TrackPointExtension>
            <ns3:atemp>22.0</ns3:atemp>
          </ns3:TrackPointExtension>
        </extensions>
      </trkpt>
      <trkpt lat="42.51397554762661457061767578125" lon="19.937612973153591156005859375">
        <ele>1866.199951171875</ele>
        <time>2026-06-17T10:02:45.000Z</time>
        <extensions>
          <ns3:TrackPointExtension>
            <ns3:atemp>22.0</ns3:atemp>
          </ns3:TrackPointExtension>
        </extensions>
      </trkpt>
      <trkpt lat="42.5139622204005718231201171875" lon="19.93757282383739948272705078125">
        <ele>1866.199951171875</ele>
        <time>2026-06-17T10:02:46.000Z</time>
        <extensions>
          <ns3:TrackPointExtension>
            <ns3:atemp>22.0</ns3:atemp>
          </ns3:TrackPointExtension>
        </extensions>
      </trkpt>
      <trkpt lat="42.513947300612926483154296875" lon="19.9375377036631107330322265625">
        <ele>1866</ele>
        <time>2026-06-17T10:02:47.000Z</time>
        <extensions>
          <ns3:TrackPointExtension>
            <ns3:atemp>22.0</ns3:atemp>
          </ns3:TrackPointExtension>
        </extensions>
      </trkpt>
      <trkpt lat="42.5139343924820423126220703125" lon="19.93750509805977344512939453125">
        <ele>1865.800048828125</ele>
        <time>2026-06-17T10:02:48.000Z</time>
        <extensions>
          <ns3:TrackPointExtension>
            <ns3:atemp>22.0</ns3:atemp>
          </ns3:TrackPointExtension>
        </extensions>
      </trkpt>
      <trkpt lat="42.51392710022628307342529296875" lon="19.9374716542661190032958984375">
        <ele>1865.800048828125</ele>
        <time>2026-06-17T10:02:49.000Z</time>
        <extensions>
          <ns3:TrackPointExtension>
            <ns3:atemp>22.0</ns3:atemp>
          </ns3:TrackPointExtension>
        </extensions>
      </trkpt>
      <trkpt lat="42.5139199756085872650146484375" lon="19.93743636645376682281494140625">
        <ele>1865.5999755859375</ele>
        <time>2026-06-17T10:02:50.000Z</time>
        <extensions>
          <ns3:TrackPointExtension>
            <ns3:atemp>22.0</ns3:atemp>
          </ns3:TrackPointExtension>
        </extensions>
      </trkpt>
      <trkpt lat="42.513915784657001495361328125" lon="19.93739211000502109527587890625">
        <ele>1865.5999755859375</ele>
        <time>2026-06-17T10:02:51.000Z</time>
        <extensions>
          <ns3:TrackPointExtension>
            <ns3:atemp>22.0</ns3:atemp>
          </ns3:TrackPointExtension>
        </extensions>
      </trkpt>
      <trkpt lat="42.5139154493808746337890625" lon="19.93733494542539119720458984375">
        <ele>1865.4000244140625</ele>
        <time>2026-06-17T10:02:52.000Z</time>
        <extensions>
          <ns3:TrackPointExtension>
            <ns3:atemp>22.0</ns3:atemp>
          </ns3:TrackPointExtension>
        </extensions>
      </trkpt>
      <trkpt lat="42.51390941441059112548828125" lon="19.937277026474475860595703125">
        <ele>1865.199951171875</ele>
        <time>2026-06-17T10:02:53.000Z</time>
        <extensions>
          <ns3:TrackPointExtension>
            <ns3:atemp>22.0</ns3:atemp>
          </ns3:TrackPointExtension>
        </extensions>
      </trkpt>
      <trkpt lat="42.51389122568070888519287109375" lon="19.93722371757030487060546875">
        <ele>1865</ele>
        <time>2026-06-17T10:02:54.000Z</time>
        <extensions>
          <ns3:TrackPointExtension>
            <ns3:atemp>22.0</ns3:atemp>
          </ns3:TrackPointExtension>
        </extensions>
      </trkpt>
      <trkpt lat="42.51387395896017551422119140625" lon="19.93718256242573261260986328125">
        <ele>1864.5999755859375</ele>
        <time>2026-06-17T10:02:55.000Z</time>
        <extensions>
          <ns3:TrackPointExtension>
            <ns3:atemp>22.0</ns3:atemp>
          </ns3:TrackPointExtension>
        </extensions>
      </trkpt>
      <trkpt lat="42.51386373303830623626708984375" lon="19.93715272285044193267822265625">
        <ele>1864.5999755859375</ele>
        <time>2026-06-17T10:02:56.000Z</time>
        <extensions>
          <ns3:TrackPointExtension>
            <ns3:atemp>22.0</ns3:atemp>
          </ns3:TrackPointExtension>
        </extensions>
      </trkpt>
      <trkpt lat="42.5138559378683567047119140625" lon="19.93712313473224639892578125">
        <ele>1864.5999755859375</ele>
        <time>2026-06-17T10:02:57.000Z</time>
        <extensions>
          <ns3:TrackPointExtension>
            <ns3:atemp>22.0</ns3:atemp>
          </ns3:TrackPointExtension>
        </extensions>
      </trkpt>
      <trkpt lat="42.51384076662361621856689453125" lon="19.93708902038633823394775390625">
        <ele>1864.800048828125</ele>
        <time>2026-06-17T10:02:58.000Z</time>
        <extensions>
          <ns3:TrackPointExtension>
            <ns3:atemp>22.0</ns3:atemp>
          </ns3:TrackPointExtension>
        </extensions>
      </trkpt>
      <trkpt lat="42.513825260102748870849609375" lon="19.937052391469478607177734375">
        <ele>1864.800048828125</ele>
        <time>2026-06-17T10:02:59.000Z</time>
        <extensions>
          <ns3:TrackPointExtension>
            <ns3:atemp>22.0</ns3:atemp>
          </ns3:TrackPointExtension>
        </extensions>
      </trkpt>
      <trkpt lat="42.51381880603730678558349609375" lon="19.9370113201439380645751953125">
        <ele>1864.800048828125</ele>
        <time>2026-06-17T10:03:00.000Z</time>
        <extensions>
          <ns3:TrackPointExtension>
            <ns3:atemp>22.0</ns3:atemp>
          </ns3:TrackPointExtension>
        </extensions>
      </trkpt>
      <trkpt lat="42.5138079933822154998779296875" lon="19.93697435595095157623291015625">
        <ele>1864.800048828125</ele>
        <time>2026-06-17T10:03:01.000Z</time>
        <extensions>
          <ns3:TrackPointExtension>
            <ns3:atemp>22.0</ns3:atemp>
          </ns3:TrackPointExtension>
        </extensions>
      </trkpt>
      <trkpt lat="42.51378812827169895172119140625" lon="19.93695239536464214324951171875">
        <ele>1864.800048828125</ele>
        <time>2026-06-17T10:03:02.000Z</time>
        <extensions>
          <ns3:TrackPointExtension>
            <ns3:atemp>22.0</ns3:atemp>
          </ns3:TrackPointExtension>
        </extensions>
      </trkpt>
      <trkpt lat="42.51376566477119922637939453125" lon="19.93693680502474308013916015625">
        <ele>1864.5999755859375</ele>
        <time>2026-06-17T10:03:03.000Z</time>
        <extensions>
          <ns3:TrackPointExtension>
            <ns3:atemp>22.0</ns3:atemp>
          </ns3:TrackPointExtension>
        </extensions>
      </trkpt>
      <trkpt lat="42.51375057734549045562744140625" lon="19.93693512864410877227783203125">
        <ele>1864.800048828125</ele>
        <time>2026-06-17T10:03:04.000Z</time>
        <extensions>
          <ns3:TrackPointExtension>
            <ns3:atemp>22.0</ns3:atemp>
          </ns3:TrackPointExtension>
        </extensions>
      </trkpt>
      <trkpt lat="42.51373481936752796173095703125" lon="19.9369258247315883636474609375">
        <ele>1864.800048828125</ele>
        <time>2026-06-17T10:03:05.000Z</time>
        <extensions>
          <ns3:TrackPointExtension>
            <ns3:atemp>22.0</ns3:atemp>
          </ns3:TrackPointExtension>
        </extensions>
      </trkpt>
      <trkpt lat="42.513712607324123382568359375" lon="19.93691258132457733154296875">
        <ele>1864.800048828125</ele>
        <time>2026-06-17T10:03:06.000Z</time>
        <extensions>
          <ns3:TrackPointExtension>
            <ns3:atemp>22.0</ns3:atemp>
          </ns3:TrackPointExtension>
        </extensions>
      </trkpt>
      <trkpt lat="42.51369693316519260406494140625" lon="19.936896152794361114501953125">
        <ele>1865</ele>
        <time>2026-06-17T10:03:07.000Z</time>
        <extensions>
          <ns3:TrackPointExtension>
            <ns3:atemp>22.0</ns3:atemp>
          </ns3:TrackPointExtension>
        </extensions>
      </trkpt>
      <trkpt lat="42.513685785233974456787109375" lon="19.93688081391155719757080078125">
        <ele>1865.199951171875</ele>
        <time>2026-06-17T10:03:08.000Z</time>
        <extensions>
          <ns3:TrackPointExtension>
            <ns3:atemp>22.0</ns3:atemp>
          </ns3:TrackPointExtension>
        </extensions>
      </trkpt>
      <trkpt lat="42.51367145217955112457275390625" lon="19.93686388246715068817138671875">
        <ele>1865.199951171875</ele>
        <time>2026-06-17T10:03:09.000Z</time>
        <extensions>
          <ns3:TrackPointExtension>
            <ns3:atemp>22.0</ns3:atemp>
          </ns3:TrackPointExtension>
        </extensions>
      </trkpt>
      <trkpt lat="42.5136530958116054534912109375" lon="19.93684896267950534820556640625">
        <ele>1865.199951171875</ele>
        <time>2026-06-17T10:03:10.000Z</time>
        <extensions>
          <ns3:TrackPointExtension>
            <ns3:atemp>22.0</ns3:atemp>
          </ns3:TrackPointExtension>
        </extensions>
      </trkpt>
      <trkpt lat="42.51363155432045459747314453125" lon="19.9368369765579700469970703125">
        <ele>1865</ele>
        <time>2026-06-17T10:03:11.000Z</time>
        <extensions>
          <ns3:TrackPointExtension>
            <ns3:atemp>22.0</ns3:atemp>
          </ns3:TrackPointExtension>
        </extensions>
      </trkpt>
      <trkpt lat="42.51362350769340991973876953125" lon="19.93683119304478168487548828125">
        <ele>1864.800048828125</ele>
        <time>2026-06-17T10:03:12.000Z</time>
        <extensions>
          <ns3:TrackPointExtension>
            <ns3:atemp>22.0</ns3:atemp>
          </ns3:TrackPointExtension>
        </extensions>
      </trkpt>
      <trkpt lat="42.513623423874378204345703125" lon="19.936827085912227630615234375">
        <ele>1864.5999755859375</ele>
        <time>2026-06-17T10:03:13.000Z</time>
        <extensions>
          <ns3:TrackPointExtension>
            <ns3:atemp>22.0</ns3:atemp>
          </ns3:TrackPointExtension>
        </extensions>
      </trkpt>
      <trkpt lat="42.5136245973408222198486328125" lon="19.936824738979339599609375">
        <ele>1864.5999755859375</ele>
        <time>2026-06-17T10:03:14.000Z</time>
        <extensions>
          <ns3:TrackPointExtension>
            <ns3:atemp>22.0</ns3:atemp>
          </ns3:TrackPointExtension>
        </extensions>
      </trkpt>
      <trkpt lat="42.51362451352179050445556640625" lon="19.93682465516030788421630859375">
        <ele>1864.4000244140625</ele>
        <time>2026-06-17T10:03:15.000Z</time>
        <extensions>
          <ns3:TrackPointExtension>
            <ns3:atemp>22.0</ns3:atemp>
          </ns3:TrackPointExtension>
        </extensions>
      </trkpt>
      <trkpt lat="42.51362451352179050445556640625" lon="19.93682465516030788421630859375">
        <ele>1864.4000244140625</ele>
        <time>2026-06-17T10:03:16.000Z</time>
        <extensions>
          <ns3:TrackPointExtension>
            <ns3:atemp>22.0</ns3:atemp>
          </ns3:TrackPointExtension>
        </extensions>
      </trkpt>
      <trkpt lat="42.51362451352179050445556640625" lon="19.93682465516030788421630859375">
        <ele>1864.199951171875</ele>
        <time>2026-06-17T10:03:17.000Z</time>
        <extensions>
          <ns3:TrackPointExtension>
            <ns3:atemp>22.0</ns3:atemp>
          </ns3:TrackPointExtension>
        </extensions>
      </trkpt>
      <trkpt lat="42.51362451352179050445556640625" lon="19.93682465516030788421630859375">
        <ele>1864.199951171875</ele>
        <time>2026-06-17T10:03:18.000Z</time>
        <extensions>
          <ns3:TrackPointExtension>
            <ns3:atemp>22.0</ns3:atemp>
          </ns3:TrackPointExtension>
        </extensions>
      </trkpt>
      <trkpt lat="42.51362451352179050445556640625" lon="19.93682465516030788421630859375">
        <ele>1864</ele>
        <time>2026-06-17T10:03:19.000Z</time>
        <extensions>
          <ns3:TrackPointExtension>
            <ns3:atemp>22.0</ns3:atemp>
          </ns3:TrackPointExtension>
        </extensions>
      </trkpt>
      <trkpt lat="42.51362451352179050445556640625" lon="19.93682465516030788421630859375">
        <ele>1864</ele>
        <time>2026-06-17T10:03:20.000Z</time>
        <extensions>
          <ns3:TrackPointExtension>
            <ns3:atemp>22.0</ns3:atemp>
          </ns3:TrackPointExtension>
        </extensions>
      </trkpt>
      <trkpt lat="42.51362451352179050445556640625" lon="19.93682465516030788421630859375">
        <ele>1864</ele>
        <time>2026-06-17T10:03:21.000Z</time>
        <extensions>
          <ns3:TrackPointExtension>
            <ns3:atemp>22.0</ns3:atemp>
          </ns3:TrackPointExtension>
        </extensions>
      </trkpt>
      <trkpt lat="42.51362451352179050445556640625" lon="19.93682465516030788421630859375">
        <ele>1864</ele>
        <time>2026-06-17T10:03:22.000Z</time>
        <extensions>
          <ns3:TrackPointExtension>
            <ns3:atemp>22.0</ns3:atemp>
          </ns3:TrackPointExtension>
        </extensions>
      </trkpt>
      <trkpt lat="42.51362451352179050445556640625" lon="19.93682465516030788421630859375">
        <ele>1864</ele>
        <time>2026-06-17T10:03:23.000Z</time>
        <extensions>
          <ns3:TrackPointExtension>
            <ns3:atemp>22.0</ns3:atemp>
          </ns3:TrackPointExtension>
        </extensions>
      </trkpt>
      <trkpt lat="42.51362451352179050445556640625" lon="19.93682465516030788421630859375">
        <ele>1864</ele>
        <time>2026-06-17T10:03:24.000Z</time>
        <extensions>
          <ns3:TrackPointExtension>
            <ns3:atemp>22.0</ns3:atemp>
          </ns3:TrackPointExtension>
        </extensions>
      </trkpt>
      <trkpt lat="42.51362451352179050445556640625" lon="19.93682465516030788421630859375">
        <ele>1864</ele>
        <time>2026-06-17T10:03:25.000Z</time>
        <extensions>
          <ns3:TrackPointExtension>
            <ns3:atemp>22.0</ns3:atemp>
          </ns3:TrackPointExtension>
        </extensions>
      </trkpt>
      <trkpt lat="42.51362451352179050445556640625" lon="19.93682465516030788421630859375">
        <ele>1864</ele>
        <time>2026-06-17T10:03:26.000Z</time>
        <extensions>
          <ns3:TrackPointExtension>
            <ns3:atemp>22.0</ns3:atemp>
          </ns3:TrackPointExtension>
        </extensions>
      </trkpt>
      <trkpt lat="42.5136222504079341888427734375" lon="19.936823733150959014892578125">
        <ele>1863.800048828125</ele>
        <time>2026-06-17T10:03:27.000Z</time>
        <extensions>
          <ns3:TrackPointExtension>
            <ns3:atemp>22.0</ns3:atemp>
          </ns3:TrackPointExtension>
        </extensions>
      </trkpt>
      <trkpt lat="42.51362451352179050445556640625" lon="19.93682465516030788421630859375">
        <ele>1863.800048828125</ele>
        <time>2026-06-17T10:03:28.000Z</time>
        <extensions>
          <ns3:TrackPointExtension>
            <ns3:atemp>22.0</ns3:atemp>
          </ns3:TrackPointExtension>
        </extensions>
      </trkpt>
      <trkpt lat="42.51362451352179050445556640625" lon="19.93682465516030788421630859375">
        <ele>1863.800048828125</ele>
        <time>2026-06-17T10:03:29.000Z</time>
        <extensions>
          <ns3:TrackPointExtension>
            <ns3:atemp>22.0</ns3:atemp>
          </ns3:TrackPointExtension>
        </extensions>
      </trkpt>
      <trkpt lat="42.51361294649541378021240234375" lon="19.9368212185800075531005859375">
        <ele>1863.5999755859375</ele>
        <time>2026-06-17T10:03:30.000Z</time>
        <extensions>
          <ns3:TrackPointExtension>
            <ns3:atemp>22.0</ns3:atemp>
          </ns3:TrackPointExtension>
        </extensions>
      </trkpt>
      <trkpt lat="42.513601966202259063720703125" lon="19.9368104897439479827880859375">
        <ele>1863.5999755859375</ele>
        <time>2026-06-17T10:03:31.000Z</time>
        <extensions>
          <ns3:TrackPointExtension>
            <ns3:atemp>22.0</ns3:atemp>
          </ns3:TrackPointExtension>
        </extensions>
      </trkpt>
      <trkpt lat="42.5135924108326435089111328125" lon="19.9367890320718288421630859375">
        <ele>1863.5999755859375</ele>
        <time>2026-06-17T10:03:32.000Z</time>
        <extensions>
          <ns3:TrackPointExtension>
            <ns3:atemp>22.0</ns3:atemp>
          </ns3:TrackPointExtension>
        </extensions>
      </trkpt>
      <trkpt lat="42.51358310692012310028076171875" lon="19.93675768375396728515625">
        <ele>1863.4000244140625</ele>
        <time>2026-06-17T10:03:33.000Z</time>
        <extensions>
          <ns3:TrackPointExtension>
            <ns3:atemp>22.0</ns3:atemp>
          </ns3:TrackPointExtension>
        </extensions>
      </trkpt>
      <trkpt lat="42.51356567256152629852294921875" lon="19.93673077784478664398193359375">
        <ele>1863.199951171875</ele>
        <time>2026-06-17T10:03:34.000Z</time>
        <extensions>
          <ns3:TrackPointExtension>
            <ns3:atemp>22.0</ns3:atemp>
          </ns3:TrackPointExtension>
        </extensions>
      </trkpt>
      <trkpt lat="42.513545639812946319580078125" lon="19.9367125891149044036865234375">
        <ele>1863</ele>
        <time>2026-06-17T10:03:35.000Z</time>
        <extensions>
          <ns3:TrackPointExtension>
            <ns3:atemp>22.0</ns3:atemp>
          </ns3:TrackPointExtension>
        </extensions>
      </trkpt>
      <trkpt lat="42.51352376304566860198974609375" lon="19.93670362047851085662841796875">
        <ele>1862.800048828125</ele>
        <time>2026-06-17T10:03:36.000Z</time>
        <extensions>
          <ns3:TrackPointExtension>
            <ns3:atemp>22.0</ns3:atemp>
          </ns3:TrackPointExtension>
        </extensions>
      </trkpt>
      <trkpt lat="42.51350783742964267730712890625" lon="19.93671703152358531951904296875">
        <ele>1862.5999755859375</ele>
        <time>2026-06-17T10:03:37.000Z</time>
        <extensions>
          <ns3:TrackPointExtension>
            <ns3:atemp>22.0</ns3:atemp>
          </ns3:TrackPointExtension>
        </extensions>
      </trkpt>
      <trkpt lat="42.513506077229976654052734375" lon="19.93673689663410186767578125">
        <ele>1862.5999755859375</ele>
        <time>2026-06-17T10:03:38.000Z</time>
        <extensions>
          <ns3:TrackPointExtension>
            <ns3:atemp>22.0</ns3:atemp>
          </ns3:TrackPointExtension>
        </extensions>
      </trkpt>
      <trkpt lat="42.51350440084934234619140625" lon="19.936755336821079254150390625">
        <ele>1862.5999755859375</ele>
        <time>2026-06-17T10:03:39.000Z</time>
        <extensions>
          <ns3:TrackPointExtension>
            <ns3:atemp>22.0</ns3:atemp>
          </ns3:TrackPointExtension>
        </extensions>
      </trkpt>
      <trkpt lat="42.51349777914583683013916015625" lon="19.93676698766648769378662109375">
        <ele>1862.5999755859375</ele>
        <time>2026-06-17T10:03:40.000Z</time>
        <extensions>
          <ns3:TrackPointExtension>
            <ns3:atemp>22.0</ns3:atemp>
          </ns3:TrackPointExtension>
        </extensions>
      </trkpt>
      <trkpt lat="42.51349811442196369171142578125" lon="19.93677268736064434051513671875">
        <ele>1862.800048828125</ele>
        <time>2026-06-17T10:03:41.000Z</time>
        <extensions>
          <ns3:TrackPointExtension>
            <ns3:atemp>22.0</ns3:atemp>
          </ns3:TrackPointExtension>
        </extensions>
      </trkpt>
      <trkpt lat="42.51349710859358310699462890625" lon="19.93678509257733821868896484375">
        <ele>1862.800048828125</ele>
        <time>2026-06-17T10:03:42.000Z</time>
        <extensions>
          <ns3:TrackPointExtension>
            <ns3:atemp>22.0</ns3:atemp>
          </ns3:TrackPointExtension>
        </extensions>
      </trkpt>
      <trkpt lat="42.51349191181361675262451171875" lon="19.93680235929787158966064453125">
        <ele>1863</ele>
        <time>2026-06-17T10:03:43.000Z</time>
        <extensions>
          <ns3:TrackPointExtension>
            <ns3:atemp>22.0</ns3:atemp>
          </ns3:TrackPointExtension>
        </extensions>
      </trkpt>
      <trkpt lat="42.51348034478724002838134765625" lon="19.936823733150959014892578125">
        <ele>1863.199951171875</ele>
        <time>2026-06-17T10:03:44.000Z</time>
        <extensions>
          <ns3:TrackPointExtension>
            <ns3:atemp>22.0</ns3:atemp>
          </ns3:TrackPointExtension>
        </extensions>
      </trkpt>
      <trkpt lat="42.513477243483066558837890625" lon="19.93684351444244384765625">
        <ele>1863.4000244140625</ele>
        <time>2026-06-17T10:03:45.000Z</time>
        <extensions>
          <ns3:TrackPointExtension>
            <ns3:atemp>22.0</ns3:atemp>
          </ns3:TrackPointExtension>
        </extensions>
      </trkpt>
      <trkpt lat="42.5134717114269733428955078125" lon="19.936870671808719635009765625">
        <ele>1863.5999755859375</ele>
        <time>2026-06-17T10:03:46.000Z</time>
        <extensions>
          <ns3:TrackPointExtension>
            <ns3:atemp>22.0</ns3:atemp>
          </ns3:TrackPointExtension>
        </extensions>
      </trkpt>
      <trkpt lat="42.513460479676723480224609375" lon="19.93689053691923618316650390625">
        <ele>1863.5999755859375</ele>
        <time>2026-06-17T10:03:47.000Z</time>
        <extensions>
          <ns3:TrackPointExtension>
            <ns3:atemp>22.0</ns3:atemp>
          </ns3:TrackPointExtension>
        </extensions>
      </trkpt>
      <trkpt lat="42.5134539417922496795654296875" lon="19.9368963204324245452880859375">
        <ele>1863.800048828125</ele>
        <time>2026-06-17T10:03:48.000Z</time>
        <extensions>
          <ns3:TrackPointExtension>
            <ns3:atemp>22.0</ns3:atemp>
          </ns3:TrackPointExtension>
        </extensions>
      </trkpt>
      <trkpt lat="42.51344983465969562530517578125" lon="19.9368979968130588531494140625">
        <ele>1863.800048828125</ele>
        <time>2026-06-17T10:03:49.000Z</time>
        <extensions>
          <ns3:TrackPointExtension>
            <ns3:atemp>22.0</ns3:atemp>
          </ns3:TrackPointExtension>
        </extensions>
      </trkpt>
      <trkpt lat="42.51344681717455387115478515625" lon="19.93689992465078830718994140625">
        <ele>1864</ele>
        <time>2026-06-17T10:03:50.000Z</time>
        <extensions>
          <ns3:TrackPointExtension>
            <ns3:atemp>22.0</ns3:atemp>
          </ns3:TrackPointExtension>
        </extensions>
      </trkpt>
      <trkpt lat="42.51343868672847747802734375" lon="19.9369047023355960845947265625">
        <ele>1864.199951171875</ele>
        <time>2026-06-17T10:03:51.000Z</time>
        <extensions>
          <ns3:TrackPointExtension>
            <ns3:atemp>22.0</ns3:atemp>
          </ns3:TrackPointExtension>
        </extensions>
      </trkpt>
      <trkpt lat="42.513428293168544769287109375" lon="19.936903528869152069091796875">
        <ele>1864.199951171875</ele>
        <time>2026-06-17T10:03:52.000Z</time>
        <extensions>
          <ns3:TrackPointExtension>
            <ns3:atemp>22.0</ns3:atemp>
          </ns3:TrackPointExtension>
        </extensions>
      </trkpt>
      <trkpt lat="42.51340993680059909820556640625" lon="19.936905205249786376953125">
        <ele>1864.199951171875</ele>
        <time>2026-06-17T10:03:53.000Z</time>
        <extensions>
          <ns3:TrackPointExtension>
            <ns3:atemp>22.0</ns3:atemp>
          </ns3:TrackPointExtension>
        </extensions>
      </trkpt>
      <trkpt lat="42.51338713802397251129150390625" lon="19.93690813891589641571044921875">
        <ele>1864.199951171875</ele>
        <time>2026-06-17T10:03:54.000Z</time>
        <extensions>
          <ns3:TrackPointExtension>
            <ns3:atemp>22.0</ns3:atemp>
          </ns3:TrackPointExtension>
        </extensions>
      </trkpt>
      <trkpt lat="42.51336785964667797088623046875" lon="19.936912246048450469970703125">
        <ele>1864.199951171875</ele>
        <time>2026-06-17T10:03:55.000Z</time>
        <extensions>
          <ns3:TrackPointExtension>
            <ns3:atemp>22.0</ns3:atemp>
          </ns3:TrackPointExtension>
        </extensions>
      </trkpt>
      <trkpt lat="42.51334874890744686126708984375" lon="19.9369057081639766693115234375">
        <ele>1864.4000244140625</ele>
        <time>2026-06-17T10:03:56.000Z</time>
        <extensions>
          <ns3:TrackPointExtension>
            <ns3:atemp>22.0</ns3:atemp>
          </ns3:TrackPointExtension>
        </extensions>
      </trkpt>
      <trkpt lat="42.51332846470177173614501953125" lon="19.9369016848504543304443359375">
        <ele>1864.5999755859375</ele>
        <time>2026-06-17T10:03:57.000Z</time>
        <extensions>
          <ns3:TrackPointExtension>
            <ns3:atemp>22.0</ns3:atemp>
          </ns3:TrackPointExtension>
        </extensions>
      </trkpt>
      <trkpt lat="42.51330968923866748809814453125" lon="19.9368892796337604522705078125">
        <ele>1864.800048828125</ele>
        <time>2026-06-17T10:03:58.000Z</time>
        <extensions>
          <ns3:TrackPointExtension>
            <ns3:atemp>22.0</ns3:atemp>
          </ns3:TrackPointExtension>
        </extensions>
      </trkpt>
      <trkpt lat="42.51329560764133930206298828125" lon="19.93687243200838565826416015625">
        <ele>1865</ele>
        <time>2026-06-17T10:03:59.000Z</time>
        <extensions>
          <ns3:TrackPointExtension>
            <ns3:atemp>22.0</ns3:atemp>
          </ns3:TrackPointExtension>
        </extensions>
      </trkpt>
      <trkpt lat="42.51328286714851856231689453125" lon="19.9368507228791713714599609375">
        <ele>1865.199951171875</ele>
        <time>2026-06-17T10:04:00.000Z</time>
        <extensions>
          <ns3:TrackPointExtension>
            <ns3:atemp>22.0</ns3:atemp>
          </ns3:TrackPointExtension>
        </extensions>
      </trkpt>
      <trkpt lat="42.51327130012214183807373046875" lon="19.93683706037700176239013671875">
        <ele>1865.4000244140625</ele>
        <time>2026-06-17T10:04:01.000Z</time>
        <extensions>
          <ns3:TrackPointExtension>
            <ns3:atemp>22.0</ns3:atemp>
          </ns3:TrackPointExtension>
        </extensions>
      </trkpt>
      <trkpt lat="42.51326073892414569854736328125" lon="19.93682532571256160736083984375">
        <ele>1865.800048828125</ele>
        <time>2026-06-17T10:04:02.000Z</time>
        <extensions>
          <ns3:TrackPointExtension>
            <ns3:atemp>22.0</ns3:atemp>
          </ns3:TrackPointExtension>
        </extensions>
      </trkpt>
      <trkpt lat="42.51326140947639942169189453125" lon="19.9368198774755001068115234375">
        <ele>1866.199951171875</ele>
        <time>2026-06-17T10:04:03.000Z</time>
        <extensions>
          <ns3:TrackPointExtension>
            <ns3:atemp>22.0</ns3:atemp>
          </ns3:TrackPointExtension>
        </extensions>
      </trkpt>
      <trkpt lat="42.51326140947639942169189453125" lon="19.93681996129453182220458984375">
        <ele>1866.4000244140625</ele>
        <time>2026-06-17T10:04:04.000Z</time>
        <extensions>
          <ns3:TrackPointExtension>
            <ns3:atemp>22.0</ns3:atemp>
          </ns3:TrackPointExtension>
        </extensions>
      </trkpt>
      <trkpt lat="42.51326140947639942169189453125" lon="19.93681996129453182220458984375">
        <ele>1866.5999755859375</ele>
        <time>2026-06-17T10:04:05.000Z</time>
        <extensions>
          <ns3:TrackPointExtension>
            <ns3:atemp>22.0</ns3:atemp>
          </ns3:TrackPointExtension>
        </extensions>
      </trkpt>
      <trkpt lat="42.51326140947639942169189453125" lon="19.93681996129453182220458984375">
        <ele>1867</ele>
        <time>2026-06-17T10:04:06.000Z</time>
        <extensions>
          <ns3:TrackPointExtension>
            <ns3:atemp>22.0</ns3:atemp>
          </ns3:TrackPointExtension>
        </extensions>
      </trkpt>
      <trkpt lat="42.51326140947639942169189453125" lon="19.93681996129453182220458984375">
        <ele>1867</ele>
        <time>2026-06-17T10:04:07.000Z</time>
        <extensions>
          <ns3:TrackPointExtension>
            <ns3:atemp>22.0</ns3:atemp>
          </ns3:TrackPointExtension>
        </extensions>
      </trkpt>
      <trkpt lat="42.51326140947639942169189453125" lon="19.93681996129453182220458984375">
        <ele>1867.199951171875</ele>
        <time>2026-06-17T10:04:08.000Z</time>
        <extensions>
          <ns3:TrackPointExtension>
            <ns3:atemp>22.0</ns3:atemp>
          </ns3:TrackPointExtension>
        </extensions>
      </trkpt>
      <trkpt lat="42.51326140947639942169189453125" lon="19.93681996129453182220458984375">
        <ele>1867.199951171875</ele>
        <time>2026-06-17T10:04:09.000Z</time>
        <extensions>
          <ns3:TrackPointExtension>
            <ns3:atemp>22.0</ns3:atemp>
          </ns3:TrackPointExtension>
        </extensions>
      </trkpt>
      <trkpt lat="42.51326140947639942169189453125" lon="19.93681996129453182220458984375">
        <ele>1867.199951171875</ele>
        <time>2026-06-17T10:04:10.000Z</time>
        <extensions>
          <ns3:TrackPointExtension>
            <ns3:atemp>22.0</ns3:atemp>
          </ns3:TrackPointExtension>
        </extensions>
      </trkpt>
      <trkpt lat="42.51326140947639942169189453125" lon="19.93681996129453182220458984375">
        <ele>1867</ele>
        <time>2026-06-17T10:04:11.000Z</time>
        <extensions>
          <ns3:TrackPointExtension>
            <ns3:atemp>22.0</ns3:atemp>
          </ns3:TrackPointExtension>
        </extensions>
      </trkpt>
      <trkpt lat="42.51326140947639942169189453125" lon="19.93681996129453182220458984375">
        <ele>1867</ele>
        <time>2026-06-17T10:04:12.000Z</time>
        <extensions>
          <ns3:TrackPointExtension>
            <ns3:atemp>22.0</ns3:atemp>
          </ns3:TrackPointExtension>
        </extensions>
      </trkpt>
      <trkpt lat="42.51326140947639942169189453125" lon="19.93681996129453182220458984375">
        <ele>1867</ele>
        <time>2026-06-17T10:04:13.000Z</time>
        <extensions>
          <ns3:TrackPointExtension>
            <ns3:atemp>22.0</ns3:atemp>
          </ns3:TrackPointExtension>
        </extensions>
      </trkpt>
      <trkpt lat="42.51326140947639942169189453125" lon="19.93681996129453182220458984375">
        <ele>1867</ele>
        <time>2026-06-17T10:04:14.000Z</time>
        <extensions>
          <ns3:TrackPointExtension>
            <ns3:atemp>22.0</ns3:atemp>
          </ns3:TrackPointExtension>
        </extensions>
      </trkpt>
      <trkpt lat="42.51326140947639942169189453125" lon="19.93681996129453182220458984375">
        <ele>1867</ele>
        <time>2026-06-17T10:04:15.000Z</time>
        <extensions>
          <ns3:TrackPointExtension>
            <ns3:atemp>22.0</ns3:atemp>
          </ns3:TrackPointExtension>
        </extensions>
      </trkpt>
      <trkpt lat="42.51326140947639942169189453125" lon="19.93681996129453182220458984375">
        <ele>1867</ele>
        <time>2026-06-17T10:04:16.000Z</time>
        <extensions>
          <ns3:TrackPointExtension>
            <ns3:atemp>22.0</ns3:atemp>
          </ns3:TrackPointExtension>
        </extensions>
      </trkpt>
      <trkpt lat="42.51326140947639942169189453125" lon="19.93681996129453182220458984375">
        <ele>1867</ele>
        <time>2026-06-17T10:04:17.000Z</time>
        <extensions>
          <ns3:TrackPointExtension>
            <ns3:atemp>22.0</ns3:atemp>
          </ns3:TrackPointExtension>
        </extensions>
      </trkpt>
      <trkpt lat="42.51326140947639942169189453125" lon="19.93681996129453182220458984375">
        <ele>1867.199951171875</ele>
        <time>2026-06-17T10:04:18.000Z</time>
        <extensions>
          <ns3:TrackPointExtension>
            <ns3:atemp>22.0</ns3:atemp>
          </ns3:TrackPointExtension>
        </extensions>
      </trkpt>
      <trkpt lat="42.51326140947639942169189453125" lon="19.93681996129453182220458984375">
        <ele>1867.199951171875</ele>
        <time>2026-06-17T10:04:19.000Z</time>
        <extensions>
          <ns3:TrackPointExtension>
            <ns3:atemp>22.0</ns3:atemp>
          </ns3:TrackPointExtension>
        </extensions>
      </trkpt>
      <trkpt lat="42.51326140947639942169189453125" lon="19.93681996129453182220458984375">
        <ele>1867.199951171875</ele>
        <time>2026-06-17T10:04:20.000Z</time>
        <extensions>
          <ns3:TrackPointExtension>
            <ns3:atemp>22.0</ns3:atemp>
          </ns3:TrackPointExtension>
        </extensions>
      </trkpt>
      <trkpt lat="42.51326140947639942169189453125" lon="19.93681996129453182220458984375">
        <ele>1867.199951171875</ele>
        <time>2026-06-17T10:04:21.000Z</time>
        <extensions>
          <ns3:TrackPointExtension>
            <ns3:atemp>22.0</ns3:atemp>
          </ns3:TrackPointExtension>
        </extensions>
      </trkpt>
      <trkpt lat="42.51326140947639942169189453125" lon="19.93681996129453182220458984375">
        <ele>1867.199951171875</ele>
        <time>2026-06-17T10:04:22.000Z</time>
        <extensions>
          <ns3:TrackPointExtension>
            <ns3:atemp>22.0</ns3:atemp>
          </ns3:TrackPointExtension>
        </extensions>
      </trkpt>
      <trkpt lat="42.51326140947639942169189453125" lon="19.93681996129453182220458984375">
        <ele>1867.199951171875</ele>
        <time>2026-06-17T10:04:23.000Z</time>
        <extensions>
          <ns3:TrackPointExtension>
            <ns3:atemp>22.0</ns3:atemp>
          </ns3:TrackPointExtension>
        </extensions>
      </trkpt>
      <trkpt lat="42.51326140947639942169189453125" lon="19.93681996129453182220458984375">
        <ele>1867.199951171875</ele>
        <time>2026-06-17T10:04:24.000Z</time>
        <extensions>
          <ns3:TrackPointExtension>
            <ns3:atemp>22.0</ns3:atemp>
          </ns3:TrackPointExtension>
        </extensions>
      </trkpt>
      <trkpt lat="42.51326140947639942169189453125" lon="19.93681996129453182220458984375">
        <ele>1867.199951171875</ele>
        <time>2026-06-17T10:04:25.000Z</time>
        <extensions>
          <ns3:TrackPointExtension>
            <ns3:atemp>22.0</ns3:atemp>
          </ns3:TrackPointExtension>
        </extensions>
      </trkpt>
      <trkpt lat="42.51326140947639942169189453125" lon="19.93681996129453182220458984375">
        <ele>1867.4000244140625</ele>
        <time>2026-06-17T10:04:26.000Z</time>
        <extensions>
          <ns3:TrackPointExtension>
            <ns3:atemp>22.0</ns3:atemp>
          </ns3:TrackPointExtension>
        </extensions>
      </trkpt>
      <trkpt lat="42.51326140947639942169189453125" lon="19.93681996129453182220458984375">
        <ele>1867.4000244140625</ele>
        <time>2026-06-17T10:04:27.000Z</time>
        <extensions>
          <ns3:TrackPointExtension>
            <ns3:atemp>22.0</ns3:atemp>
          </ns3:TrackPointExtension>
        </extensions>
      </trkpt>
      <trkpt lat="42.5132604874670505523681640625" lon="19.93681744672358036041259765625">
        <ele>1867.4000244140625</ele>
        <time>2026-06-17T10:04:28.000Z</time>
        <extensions>
          <ns3:TrackPointExtension>
            <ns3:atemp>22.0</ns3:atemp>
          </ns3:TrackPointExtension>
        </extensions>
      </trkpt>
      <trkpt lat="42.5132393650710582733154296875" lon="19.9368019402027130126953125">
        <ele>1867.199951171875</ele>
        <time>2026-06-17T10:04:29.000Z</time>
        <extensions>
          <ns3:TrackPointExtension>
            <ns3:atemp>22.0</ns3:atemp>
          </ns3:TrackPointExtension>
        </extensions>
      </trkpt>
      <trkpt lat="42.513221763074398040771484375" lon="19.93679456412792205810546875">
        <ele>1867.199951171875</ele>
        <time>2026-06-17T10:04:30.000Z</time>
        <extensions>
          <ns3:TrackPointExtension>
            <ns3:atemp>22.0</ns3:atemp>
          </ns3:TrackPointExtension>
        </extensions>
      </trkpt>
      <trkpt lat="42.51320072449743747711181640625" lon="19.93678844533860683441162109375">
        <ele>1867</ele>
        <time>2026-06-17T10:04:31.000Z</time>
        <extensions>
          <ns3:TrackPointExtension>
            <ns3:atemp>22.0</ns3:atemp>
          </ns3:TrackPointExtension>
        </extensions>
      </trkpt>
      <trkpt lat="42.51318253576755523681640625" lon="19.93678056634962558746337890625">
        <ele>1867</ele>
        <time>2026-06-17T10:04:32.000Z</time>
        <extensions>
          <ns3:TrackPointExtension>
            <ns3:atemp>22.0</ns3:atemp>
          </ns3:TrackPointExtension>
        </extensions>
      </trkpt>
      <trkpt lat="42.5131652690470218658447265625" lon="19.93677017278969287872314453125">
        <ele>1866.800048828125</ele>
        <time>2026-06-17T10:04:33.000Z</time>
        <extensions>
          <ns3:TrackPointExtension>
            <ns3:atemp>22.0</ns3:atemp>
          </ns3:TrackPointExtension>
        </extensions>
      </trkpt>
      <trkpt lat="42.51314708031713962554931640625" lon="19.9367558397352695465087890625">
        <ele>1866.800048828125</ele>
        <time>2026-06-17T10:04:34.000Z</time>
        <extensions>
          <ns3:TrackPointExtension>
            <ns3:atemp>22.0</ns3:atemp>
          </ns3:TrackPointExtension>
        </extensions>
      </trkpt>
      <trkpt lat="42.51312847249209880828857421875" lon="19.9367467872798442840576171875">
        <ele>1867</ele>
        <time>2026-06-17T10:04:35.000Z</time>
        <extensions>
          <ns3:TrackPointExtension>
            <ns3:atemp>22.0</ns3:atemp>
          </ns3:TrackPointExtension>
        </extensions>
      </trkpt>
      <trkpt lat="42.51311103813350200653076171875" lon="19.9367343820631504058837890625">
        <ele>1867</ele>
        <time>2026-06-17T10:04:36.000Z</time>
        <extensions>
          <ns3:TrackPointExtension>
            <ns3:atemp>22.0</ns3:atemp>
          </ns3:TrackPointExtension>
        </extensions>
      </trkpt>
      <trkpt lat="42.513090670108795166015625" lon="19.9367226473987102508544921875">
        <ele>1867.199951171875</ele>
        <time>2026-06-17T10:04:37.000Z</time>
        <extensions>
          <ns3:TrackPointExtension>
            <ns3:atemp>22.0</ns3:atemp>
          </ns3:TrackPointExtension>
        </extensions>
      </trkpt>
      <trkpt lat="42.5130754150450229644775390625" lon="19.93671217001974582672119140625">
        <ele>1867.4000244140625</ele>
        <time>2026-06-17T10:04:38.000Z</time>
        <extensions>
          <ns3:TrackPointExtension>
            <ns3:atemp>22.0</ns3:atemp>
          </ns3:TrackPointExtension>
        </extensions>
      </trkpt>
      <trkpt lat="42.513064183294773101806640625" lon="19.9366991780698299407958984375">
        <ele>1867.5999755859375</ele>
        <time>2026-06-17T10:04:39.000Z</time>
        <extensions>
          <ns3:TrackPointExtension>
            <ns3:atemp>22.0</ns3:atemp>
          </ns3:TrackPointExtension>
        </extensions>
      </trkpt>
      <trkpt lat="42.51306644640862941741943359375" lon="19.936697669327259063720703125">
        <ele>1867.800048828125</ele>
        <time>2026-06-17T10:04:40.000Z</time>
        <extensions>
          <ns3:TrackPointExtension>
            <ns3:atemp>22.0</ns3:atemp>
          </ns3:TrackPointExtension>
        </extensions>
      </trkpt>
      <trkpt lat="42.51306644640862941741943359375" lon="19.9366975016891956329345703125">
        <ele>1868</ele>
        <time>2026-06-17T10:04:41.000Z</time>
        <extensions>
          <ns3:TrackPointExtension>
            <ns3:atemp>22.0</ns3:atemp>
          </ns3:TrackPointExtension>
        </extensions>
      </trkpt>
      <trkpt lat="42.51306644640862941741943359375" lon="19.9366975016891956329345703125">
        <ele>1868.199951171875</ele>
        <time>2026-06-17T10:04:42.000Z</time>
        <extensions>
          <ns3:TrackPointExtension>
            <ns3:atemp>22.0</ns3:atemp>
          </ns3:TrackPointExtension>
        </extensions>
      </trkpt>
      <trkpt lat="42.513066194951534271240234375" lon="19.93669691495597362518310546875">
        <ele>1868.199951171875</ele>
        <time>2026-06-17T10:04:43.000Z</time>
        <extensions>
          <ns3:TrackPointExtension>
            <ns3:atemp>22.0</ns3:atemp>
          </ns3:TrackPointExtension>
        </extensions>
      </trkpt>
      <trkpt lat="42.51304884441196918487548828125" lon="19.93669037707149982452392578125">
        <ele>1868.4000244140625</ele>
        <time>2026-06-17T10:04:44.000Z</time>
        <extensions>
          <ns3:TrackPointExtension>
            <ns3:atemp>22.0</ns3:atemp>
          </ns3:TrackPointExtension>
        </extensions>
      </trkpt>
      <trkpt lat="42.5130348466336727142333984375" lon="19.93669976480305194854736328125">
        <ele>1868.199951171875</ele>
        <time>2026-06-17T10:04:45.000Z</time>
        <extensions>
          <ns3:TrackPointExtension>
            <ns3:atemp>22.0</ns3:atemp>
          </ns3:TrackPointExtension>
        </extensions>
      </trkpt>
      <trkpt lat="42.51301498152315616607666015625" lon="19.93672390468418598175048828125">
        <ele>1868</ele>
        <time>2026-06-17T10:04:46.000Z</time>
        <extensions>
          <ns3:TrackPointExtension>
            <ns3:atemp>22.0</ns3:atemp>
          </ns3:TrackPointExtension>
        </extensions>
      </trkpt>
      <trkpt lat="42.51299478113651275634765625" lon="19.93675692938268184661865234375">
        <ele>1868</ele>
        <time>2026-06-17T10:04:47.000Z</time>
        <extensions>
          <ns3:TrackPointExtension>
            <ns3:atemp>22.0</ns3:atemp>
          </ns3:TrackPointExtension>
        </extensions>
      </trkpt>
      <trkpt lat="42.5129808671772480010986328125" lon="19.9367920495569705963134765625">
        <ele>1867.800048828125</ele>
        <time>2026-06-17T10:04:48.000Z</time>
        <extensions>
          <ns3:TrackPointExtension>
            <ns3:atemp>22.0</ns3:atemp>
          </ns3:TrackPointExtension>
        </extensions>
      </trkpt>
      <trkpt lat="42.5129704736173152923583984375" lon="19.93682499043643474578857421875">
        <ele>1867.800048828125</ele>
        <time>2026-06-17T10:04:49.000Z</time>
        <extensions>
          <ns3:TrackPointExtension>
            <ns3:atemp>22.0</ns3:atemp>
          </ns3:TrackPointExtension>
        </extensions>
      </trkpt>
      <trkpt lat="42.512954883277416229248046875" lon="19.9368487112224102020263671875">
        <ele>1867.800048828125</ele>
        <time>2026-06-17T10:04:50.000Z</time>
        <extensions>
          <ns3:TrackPointExtension>
            <ns3:atemp>22.0</ns3:atemp>
          </ns3:TrackPointExtension>
        </extensions>
      </trkpt>
      <trkpt lat="42.5129389576613903045654296875" lon="19.93687192909419536590576171875">
        <ele>1868</ele>
        <time>2026-06-17T10:04:51.000Z</time>
        <extensions>
          <ns3:TrackPointExtension>
            <ns3:atemp>22.0</ns3:atemp>
          </ns3:TrackPointExtension>
        </extensions>
      </trkpt>
      <trkpt lat="42.5129205174744129180908203125" lon="19.93689204566180706024169921875">
        <ele>1868.199951171875</ele>
        <time>2026-06-17T10:04:52.000Z</time>
        <extensions>
          <ns3:TrackPointExtension>
            <ns3:atemp>22.0</ns3:atemp>
          </ns3:TrackPointExtension>
        </extensions>
      </trkpt>
      <trkpt lat="42.5129014067351818084716796875" lon="19.93690478615462779998779296875">
        <ele>1868.4000244140625</ele>
        <time>2026-06-17T10:04:53.000Z</time>
        <extensions>
          <ns3:TrackPointExtension>
            <ns3:atemp>22.0</ns3:atemp>
          </ns3:TrackPointExtension>
        </extensions>
      </trkpt>
      <trkpt lat="42.512880451977252960205078125" lon="19.93691551499068737030029296875">
        <ele>1869</ele>
        <time>2026-06-17T10:04:54.000Z</time>
        <extensions>
          <ns3:TrackPointExtension>
            <ns3:atemp>22.0</ns3:atemp>
          </ns3:TrackPointExtension>
        </extensions>
      </trkpt>
      <trkpt lat="42.51286108978092670440673828125" lon="19.93692255578935146331787109375">
        <ele>1869.4000244140625</ele>
        <time>2026-06-17T10:04:55.000Z</time>
        <extensions>
          <ns3:TrackPointExtension>
            <ns3:atemp>21.0</ns3:atemp>
          </ns3:TrackPointExtension>
        </extensions>
      </trkpt>
      <trkpt lat="42.5128447450697422027587890625" lon="19.93692188523709774017333984375">
        <ele>1869.800048828125</ele>
        <time>2026-06-17T10:04:56.000Z</time>
        <extensions>
          <ns3:TrackPointExtension>
            <ns3:atemp>22.0</ns3:atemp>
          </ns3:TrackPointExtension>
        </extensions>
      </trkpt>
      <trkpt lat="42.51282588578760623931884765625" lon="19.93691719137132167816162109375">
        <ele>1870.199951171875</ele>
        <time>2026-06-17T10:04:57.000Z</time>
        <extensions>
          <ns3:TrackPointExtension>
            <ns3:atemp>22.0</ns3:atemp>
          </ns3:TrackPointExtension>
        </extensions>
      </trkpt>
      <trkpt lat="42.512807361781597137451171875" lon="19.93690495379269123077392578125">
        <ele>1870.5999755859375</ele>
        <time>2026-06-17T10:04:58.000Z</time>
        <extensions>
          <ns3:TrackPointExtension>
            <ns3:atemp>21.0</ns3:atemp>
          </ns3:TrackPointExtension>
        </extensions>
      </trkpt>
      <trkpt lat="42.5127931125462055206298828125" lon="19.93689238093793392181396484375">
        <ele>1871</ele>
        <time>2026-06-17T10:04:59.000Z</time>
        <extensions>
          <ns3:TrackPointExtension>
            <ns3:atemp>21.0</ns3:atemp>
          </ns3:TrackPointExtension>
        </extensions>
      </trkpt>
      <trkpt lat="42.51277928240597248077392578125" lon="19.93688215501606464385986328125">
        <ele>1871.199951171875</ele>
        <time>2026-06-17T10:05:00.000Z</time>
        <extensions>
          <ns3:TrackPointExtension>
            <ns3:atemp>22.0</ns3:atemp>
          </ns3:TrackPointExtension>
        </extensions>
      </trkpt>
      <trkpt lat="42.51277224160730838775634765625" lon="19.93686740286648273468017578125">
        <ele>1871.4000244140625</ele>
        <time>2026-06-17T10:05:01.000Z</time>
        <extensions>
          <ns3:TrackPointExtension>
            <ns3:atemp>21.0</ns3:atemp>
          </ns3:TrackPointExtension>
        </extensions>
      </trkpt>
      <trkpt lat="42.5127659551799297332763671875" lon="19.93684477172791957855224609375">
        <ele>1871.5999755859375</ele>
        <time>2026-06-17T10:05:02.000Z</time>
        <extensions>
          <ns3:TrackPointExtension>
            <ns3:atemp>21.0</ns3:atemp>
          </ns3:TrackPointExtension>
        </extensions>
      </trkpt>
      <trkpt lat="42.51275866292417049407958984375" lon="19.93682180531322956085205078125">
        <ele>1871.800048828125</ele>
        <time>2026-06-17T10:05:03.000Z</time>
        <extensions>
          <ns3:TrackPointExtension>
            <ns3:atemp>21.0</ns3:atemp>
          </ns3:TrackPointExtension>
        </extensions>
      </trkpt>
      <trkpt lat="42.51274961046874523162841796875" lon="19.93679850362241268157958984375">
        <ele>1872</ele>
        <time>2026-06-17T10:05:04.000Z</time>
        <extensions>
          <ns3:TrackPointExtension>
            <ns3:atemp>21.0</ns3:atemp>
          </ns3:TrackPointExtension>
        </extensions>
      </trkpt>
      <trkpt lat="42.51274407841265201568603515625" lon="19.93677285499870777130126953125">
        <ele>1872.199951171875</ele>
        <time>2026-06-17T10:05:05.000Z</time>
        <extensions>
          <ns3:TrackPointExtension>
            <ns3:atemp>21.0</ns3:atemp>
          </ns3:TrackPointExtension>
        </extensions>
      </trkpt>
      <trkpt lat="42.5127433240413665771484375" lon="19.93674896657466888427734375">
        <ele>1872.199951171875</ele>
        <time>2026-06-17T10:05:06.000Z</time>
        <extensions>
          <ns3:TrackPointExtension>
            <ns3:atemp>21.0</ns3:atemp>
          </ns3:TrackPointExtension>
        </extensions>
      </trkpt>
      <trkpt lat="42.51274592243134975433349609375" lon="19.93672356940805912017822265625">
        <ele>1872.4000244140625</ele>
        <time>2026-06-17T10:05:07.000Z</time>
        <extensions>
          <ns3:TrackPointExtension>
            <ns3:atemp>21.0</ns3:atemp>
          </ns3:TrackPointExtension>
        </extensions>
      </trkpt>
      <trkpt lat="42.51274642534554004669189453125" lon="19.93670311756432056427001953125">
        <ele>1872.5999755859375</ele>
        <time>2026-06-17T10:05:08.000Z</time>
        <extensions>
          <ns3:TrackPointExtension>
            <ns3:atemp>21.0</ns3:atemp>
          </ns3:TrackPointExtension>
        </extensions>
      </trkpt>
      <trkpt lat="42.5127448327839374542236328125" lon="19.9366800673305988311767578125">
        <ele>1872.800048828125</ele>
        <time>2026-06-17T10:05:09.000Z</time>
        <extensions>
          <ns3:TrackPointExtension>
            <ns3:atemp>21.0</ns3:atemp>
          </ns3:TrackPointExtension>
        </extensions>
      </trkpt>
      <trkpt lat="42.512747347354888916015625" lon="19.9366571009159088134765625">
        <ele>1873</ele>
        <time>2026-06-17T10:05:10.000Z</time>
        <extensions>
          <ns3:TrackPointExtension>
            <ns3:atemp>21.0</ns3:atemp>
          </ns3:TrackPointExtension>
        </extensions>
      </trkpt>
      <trkpt lat="42.5127498619258403778076171875" lon="19.93663287721574306488037109375">
        <ele>1873.199951171875</ele>
        <time>2026-06-17T10:05:11.000Z</time>
        <extensions>
          <ns3:TrackPointExtension>
            <ns3:atemp>21.0</ns3:atemp>
          </ns3:TrackPointExtension>
        </extensions>
      </trkpt>
      <trkpt lat="42.512750364840030670166015625" lon="19.936607144773006439208984375">
        <ele>1873.4000244140625</ele>
        <time>2026-06-17T10:05:12.000Z</time>
        <extensions>
          <ns3:TrackPointExtension>
            <ns3:atemp>21.0</ns3:atemp>
          </ns3:TrackPointExtension>
        </extensions>
      </trkpt>
      <trkpt lat="42.51275011338293552398681640625" lon="19.936583675444126129150390625">
        <ele>1873.4000244140625</ele>
        <time>2026-06-17T10:05:13.000Z</time>
        <extensions>
          <ns3:TrackPointExtension>
            <ns3:atemp>21.0</ns3:atemp>
          </ns3:TrackPointExtension>
        </extensions>
      </trkpt>
      <trkpt lat="42.512749694287776947021484375" lon="19.9365627206861972808837890625">
        <ele>1873.5999755859375</ele>
        <time>2026-06-17T10:05:14.000Z</time>
        <extensions>
          <ns3:TrackPointExtension>
            <ns3:atemp>21.0</ns3:atemp>
          </ns3:TrackPointExtension>
        </extensions>
      </trkpt>
      <trkpt lat="42.51275162212550640106201171875" lon="19.93654151447117328643798828125">
        <ele>1873.5999755859375</ele>
        <time>2026-06-17T10:05:15.000Z</time>
        <extensions>
          <ns3:TrackPointExtension>
            <ns3:atemp>21.0</ns3:atemp>
          </ns3:TrackPointExtension>
        </extensions>
      </trkpt>
      <trkpt lat="42.51275363378226757049560546875" lon="19.93652022443711757659912109375">
        <ele>1873.5999755859375</ele>
        <time>2026-06-17T10:05:16.000Z</time>
        <extensions>
          <ns3:TrackPointExtension>
            <ns3:atemp>21.0</ns3:atemp>
          </ns3:TrackPointExtension>
        </extensions>
      </trkpt>
      <trkpt lat="42.512752711772918701171875" lon="19.9364996887743473052978515625">
        <ele>1873.800048828125</ele>
        <time>2026-06-17T10:05:17.000Z</time>
        <extensions>
          <ns3:TrackPointExtension>
            <ns3:atemp>21.0</ns3:atemp>
          </ns3:TrackPointExtension>
        </extensions>
      </trkpt>
      <trkpt lat="42.5127567350864410400390625" lon="19.93648074567317962646484375">
        <ele>1873.800048828125</ele>
        <time>2026-06-17T10:05:18.000Z</time>
        <extensions>
          <ns3:TrackPointExtension>
            <ns3:atemp>21.0</ns3:atemp>
          </ns3:TrackPointExtension>
        </extensions>
      </trkpt>
      <trkpt lat="42.51276201568543910980224609375" lon="19.9364611320197582244873046875">
        <ele>1873.5999755859375</ele>
        <time>2026-06-17T10:05:19.000Z</time>
        <extensions>
          <ns3:TrackPointExtension>
            <ns3:atemp>21.0</ns3:atemp>
          </ns3:TrackPointExtension>
        </extensions>
      </trkpt>
      <trkpt lat="42.51276704482734203338623046875" lon="19.9364443682134151458740234375">
        <ele>1873.5999755859375</ele>
        <time>2026-06-17T10:05:20.000Z</time>
        <extensions>
          <ns3:TrackPointExtension>
            <ns3:atemp>21.0</ns3:atemp>
          </ns3:TrackPointExtension>
        </extensions>
      </trkpt>
      <trkpt lat="42.512768805027008056640625" lon="19.936434142291545867919921875">
        <ele>1873.5999755859375</ele>
        <time>2026-06-17T10:05:21.000Z</time>
        <extensions>
          <ns3:TrackPointExtension>
            <ns3:atemp>21.0</ns3:atemp>
          </ns3:TrackPointExtension>
        </extensions>
      </trkpt>
      <trkpt lat="42.51276905648410320281982421875" lon="19.93643070571124553680419921875">
        <ele>1873.5999755859375</ele>
        <time>2026-06-17T10:05:22.000Z</time>
        <extensions>
          <ns3:TrackPointExtension>
            <ns3:atemp>21.0</ns3:atemp>
          </ns3:TrackPointExtension>
        </extensions>
      </trkpt>
      <trkpt lat="42.5127701461315155029296875" lon="19.93642835877835750579833984375">
        <ele>1873.5999755859375</ele>
        <time>2026-06-17T10:05:23.000Z</time>
        <extensions>
          <ns3:TrackPointExtension>
            <ns3:atemp>21.0</ns3:atemp>
          </ns3:TrackPointExtension>
        </extensions>
      </trkpt>
      <trkpt lat="42.51277006231248378753662109375" lon="19.93642835877835750579833984375">
        <ele>1873.5999755859375</ele>
        <time>2026-06-17T10:05:24.000Z</time>
        <extensions>
          <ns3:TrackPointExtension>
            <ns3:atemp>21.0</ns3:atemp>
          </ns3:TrackPointExtension>
        </extensions>
      </trkpt>
      <trkpt lat="42.51277006231248378753662109375" lon="19.93642835877835750579833984375">
        <ele>1873.5999755859375</ele>
        <time>2026-06-17T10:05:25.000Z</time>
        <extensions>
          <ns3:TrackPointExtension>
            <ns3:atemp>21.0</ns3:atemp>
          </ns3:TrackPointExtension>
        </extensions>
      </trkpt>
      <trkpt lat="42.51277006231248378753662109375" lon="19.93642835877835750579833984375">
        <ele>1873.5999755859375</ele>
        <time>2026-06-17T10:05:26.000Z</time>
        <extensions>
          <ns3:TrackPointExtension>
            <ns3:atemp>21.0</ns3:atemp>
          </ns3:TrackPointExtension>
        </extensions>
      </trkpt>
      <trkpt lat="42.51277006231248378753662109375" lon="19.93642835877835750579833984375">
        <ele>1873.4000244140625</ele>
        <time>2026-06-17T10:05:27.000Z</time>
        <extensions>
          <ns3:TrackPointExtension>
            <ns3:atemp>21.0</ns3:atemp>
          </ns3:TrackPointExtension>
        </extensions>
      </trkpt>
      <trkpt lat="42.51277006231248378753662109375" lon="19.93642835877835750579833984375">
        <ele>1873.4000244140625</ele>
        <time>2026-06-17T10:05:28.000Z</time>
        <extensions>
          <ns3:TrackPointExtension>
            <ns3:atemp>21.0</ns3:atemp>
          </ns3:TrackPointExtension>
        </extensions>
      </trkpt>
      <trkpt lat="42.5127701461315155029296875" lon="19.93642902933061122894287109375">
        <ele>1873.4000244140625</ele>
        <time>2026-06-17T10:05:29.000Z</time>
        <extensions>
          <ns3:TrackPointExtension>
            <ns3:atemp>21.0</ns3:atemp>
          </ns3:TrackPointExtension>
        </extensions>
      </trkpt>
      <trkpt lat="42.51277006231248378753662109375" lon="19.93642835877835750579833984375">
        <ele>1873.199951171875</ele>
        <time>2026-06-17T10:05:30.000Z</time>
        <extensions>
          <ns3:TrackPointExtension>
            <ns3:atemp>21.0</ns3:atemp>
          </ns3:TrackPointExtension>
        </extensions>
      </trkpt>
      <trkpt lat="42.51277006231248378753662109375" lon="19.93642835877835750579833984375">
        <ele>1873.199951171875</ele>
        <time>2026-06-17T10:05:31.000Z</time>
        <extensions>
          <ns3:TrackPointExtension>
            <ns3:atemp>21.0</ns3:atemp>
          </ns3:TrackPointExtension>
        </extensions>
      </trkpt>
      <trkpt lat="42.51277006231248378753662109375" lon="19.93642835877835750579833984375">
        <ele>1873.199951171875</ele>
        <time>2026-06-17T10:05:32.000Z</time>
        <extensions>
          <ns3:TrackPointExtension>
            <ns3:atemp>21.0</ns3:atemp>
          </ns3:TrackPointExtension>
        </extensions>
      </trkpt>
      <trkpt lat="42.51277006231248378753662109375" lon="19.93642835877835750579833984375">
        <ele>1873.199951171875</ele>
        <time>2026-06-17T10:05:33.000Z</time>
        <extensions>
          <ns3:TrackPointExtension>
            <ns3:atemp>21.0</ns3:atemp>
          </ns3:TrackPointExtension>
        </extensions>
      </trkpt>
      <trkpt lat="42.51277006231248378753662109375" lon="19.93642835877835750579833984375">
        <ele>1873.199951171875</ele>
        <time>2026-06-17T10:05:34.000Z</time>
        <extensions>
          <ns3:TrackPointExtension>
            <ns3:atemp>21.0</ns3:atemp>
          </ns3:TrackPointExtension>
        </extensions>
      </trkpt>
      <trkpt lat="42.51277006231248378753662109375" lon="19.93642835877835750579833984375">
        <ele>1873.199951171875</ele>
        <time>2026-06-17T10:05:35.000Z</time>
        <extensions>
          <ns3:TrackPointExtension>
            <ns3:atemp>21.0</ns3:atemp>
          </ns3:TrackPointExtension>
        </extensions>
      </trkpt>
      <trkpt lat="42.51277006231248378753662109375" lon="19.93642835877835750579833984375">
        <ele>1873.4000244140625</ele>
        <time>2026-06-17T10:05:36.000Z</time>
        <extensions>
          <ns3:TrackPointExtension>
            <ns3:atemp>21.0</ns3:atemp>
          </ns3:TrackPointExtension>
        </extensions>
      </trkpt>
      <trkpt lat="42.51277006231248378753662109375" lon="19.93642835877835750579833984375">
        <ele>1873.199951171875</ele>
        <time>2026-06-17T10:05:37.000Z</time>
        <extensions>
          <ns3:TrackPointExtension>
            <ns3:atemp>21.0</ns3:atemp>
          </ns3:TrackPointExtension>
        </extensions>
      </trkpt>
      <trkpt lat="42.51277006231248378753662109375" lon="19.93642835877835750579833984375">
        <ele>1873.199951171875</ele>
        <time>2026-06-17T10:05:38.000Z</time>
        <extensions>
          <ns3:TrackPointExtension>
            <ns3:atemp>21.0</ns3:atemp>
          </ns3:TrackPointExtension>
        </extensions>
      </trkpt>
      <trkpt lat="42.51277006231248378753662109375" lon="19.93642835877835750579833984375">
        <ele>1873.199951171875</ele>
        <time>2026-06-17T10:05:39.000Z</time>
        <extensions>
          <ns3:TrackPointExtension>
            <ns3:atemp>21.0</ns3:atemp>
          </ns3:TrackPointExtension>
        </extensions>
      </trkpt>
      <trkpt lat="42.51277006231248378753662109375" lon="19.93642835877835750579833984375">
        <ele>1873.199951171875</ele>
        <time>2026-06-17T10:05:40.000Z</time>
        <extensions>
          <ns3:TrackPointExtension>
            <ns3:atemp>21.0</ns3:atemp>
          </ns3:TrackPointExtension>
        </extensions>
      </trkpt>
      <trkpt lat="42.51277006231248378753662109375" lon="19.93642835877835750579833984375">
        <ele>1873</ele>
        <time>2026-06-17T10:05:41.000Z</time>
        <extensions>
          <ns3:TrackPointExtension>
            <ns3:atemp>21.0</ns3:atemp>
          </ns3:TrackPointExtension>
        </extensions>
      </trkpt>
      <trkpt lat="42.51277006231248378753662109375" lon="19.93642835877835750579833984375">
        <ele>1873</ele>
        <time>2026-06-17T10:05:42.000Z</time>
        <extensions>
          <ns3:TrackPointExtension>
            <ns3:atemp>21.0</ns3:atemp>
          </ns3:TrackPointExtension>
        </extensions>
      </trkpt>
      <trkpt lat="42.51277006231248378753662109375" lon="19.93642835877835750579833984375">
        <ele>1873</ele>
        <time>2026-06-17T10:05:43.000Z</time>
        <extensions>
          <ns3:TrackPointExtension>
            <ns3:atemp>21.0</ns3:atemp>
          </ns3:TrackPointExtension>
        </extensions>
      </trkpt>
      <trkpt lat="42.51277190633118152618408203125" lon="19.9364316277205944061279296875">
        <ele>1873</ele>
        <time>2026-06-17T10:05:44.000Z</time>
        <extensions>
          <ns3:TrackPointExtension>
            <ns3:atemp>21.0</ns3:atemp>
          </ns3:TrackPointExtension>
        </extensions>
      </trkpt>
      <trkpt lat="42.512765116989612579345703125" lon="19.93643112480640411376953125">
        <ele>1873.199951171875</ele>
        <time>2026-06-17T10:05:45.000Z</time>
        <extensions>
          <ns3:TrackPointExtension>
            <ns3:atemp>21.0</ns3:atemp>
          </ns3:TrackPointExtension>
        </extensions>
      </trkpt>
      <trkpt lat="42.51276536844670772552490234375" lon="19.936438165605068206787109375">
        <ele>1873.4000244140625</ele>
        <time>2026-06-17T10:05:46.000Z</time>
        <extensions>
          <ns3:TrackPointExtension>
            <ns3:atemp>21.0</ns3:atemp>
          </ns3:TrackPointExtension>
        </extensions>
      </trkpt>
      <trkpt lat="42.512763775885105133056640625" lon="19.93644763715565204620361328125">
        <ele>1873.5999755859375</ele>
        <time>2026-06-17T10:05:47.000Z</time>
        <extensions>
          <ns3:TrackPointExtension>
            <ns3:atemp>21.0</ns3:atemp>
          </ns3:TrackPointExtension>
        </extensions>
      </trkpt>
      <trkpt lat="42.51277006231248378753662109375" lon="19.93642835877835750579833984375">
        <ele>1873.5999755859375</ele>
        <time>2026-06-17T10:05:48.000Z</time>
        <extensions>
          <ns3:TrackPointExtension>
            <ns3:atemp>21.0</ns3:atemp>
          </ns3:TrackPointExtension>
        </extensions>
      </trkpt>
      <trkpt lat="42.51277006231248378753662109375" lon="19.93642835877835750579833984375">
        <ele>1873.4000244140625</ele>
        <time>2026-06-17T10:05:49.000Z</time>
        <extensions>
          <ns3:TrackPointExtension>
            <ns3:atemp>21.0</ns3:atemp>
          </ns3:TrackPointExtension>
        </extensions>
      </trkpt>
      <trkpt lat="42.51277006231248378753662109375" lon="19.93642835877835750579833984375">
        <ele>1873.199951171875</ele>
        <time>2026-06-17T10:05:50.000Z</time>
        <extensions>
          <ns3:TrackPointExtension>
            <ns3:atemp>21.0</ns3:atemp>
          </ns3:TrackPointExtension>
        </extensions>
      </trkpt>
      <trkpt lat="42.51277006231248378753662109375" lon="19.93642835877835750579833984375">
        <ele>1872.5999755859375</ele>
        <time>2026-06-17T10:05:51.000Z</time>
        <extensions>
          <ns3:TrackPointExtension>
            <ns3:atemp>21.0</ns3:atemp>
          </ns3:TrackPointExtension>
        </extensions>
      </trkpt>
      <trkpt lat="42.51277006231248378753662109375" lon="19.93642835877835750579833984375">
        <ele>1872.800048828125</ele>
        <time>2026-06-17T10:05:52.000Z</time>
        <extensions>
          <ns3:TrackPointExtension>
            <ns3:atemp>21.0</ns3:atemp>
          </ns3:TrackPointExtension>
        </extensions>
      </trkpt>
      <trkpt lat="42.51277006231248378753662109375" lon="19.93642835877835750579833984375">
        <ele>1872.800048828125</ele>
        <time>2026-06-17T10:05:53.000Z</time>
        <extensions>
          <ns3:TrackPointExtension>
            <ns3:atemp>21.0</ns3:atemp>
          </ns3:TrackPointExtension>
        </extensions>
      </trkpt>
      <trkpt lat="42.51277006231248378753662109375" lon="19.93642835877835750579833984375">
        <ele>1872.800048828125</ele>
        <time>2026-06-17T10:05:54.000Z</time>
        <extensions>
          <ns3:TrackPointExtension>
            <ns3:atemp>21.0</ns3:atemp>
          </ns3:TrackPointExtension>
        </extensions>
      </trkpt>
      <trkpt lat="42.5127619318664073944091796875" lon="19.936438836157321929931640625">
        <ele>1873</ele>
        <time>2026-06-17T10:05:55.000Z</time>
        <extensions>
          <ns3:TrackPointExtension>
            <ns3:atemp>21.0</ns3:atemp>
          </ns3:TrackPointExtension>
        </extensions>
      </trkpt>
      <trkpt lat="42.51275832764804363250732421875" lon="19.93643917143344879150390625">
        <ele>1873</ele>
        <time>2026-06-17T10:05:56.000Z</time>
        <extensions>
          <ns3:TrackPointExtension>
            <ns3:atemp>21.0</ns3:atemp>
          </ns3:TrackPointExtension>
        </extensions>
      </trkpt>
      <trkpt lat="42.5127582438290119171142578125" lon="19.93643925525248050689697265625">
        <ele>1873</ele>
        <time>2026-06-17T10:05:57.000Z</time>
        <extensions>
          <ns3:TrackPointExtension>
            <ns3:atemp>21.0</ns3:atemp>
          </ns3:TrackPointExtension>
        </extensions>
      </trkpt>
      <trkpt lat="42.5127582438290119171142578125" lon="19.93643925525248050689697265625">
        <ele>1873</ele>
        <time>2026-06-17T10:05:58.000Z</time>
        <extensions>
          <ns3:TrackPointExtension>
            <ns3:atemp>21.0</ns3:atemp>
          </ns3:TrackPointExtension>
        </extensions>
      </trkpt>
      <trkpt lat="42.5127582438290119171142578125" lon="19.93643925525248050689697265625">
        <ele>1873</ele>
        <time>2026-06-17T10:05:59.000Z</time>
        <extensions>
          <ns3:TrackPointExtension>
            <ns3:atemp>21.0</ns3:atemp>
          </ns3:TrackPointExtension>
        </extensions>
      </trkpt>
      <trkpt lat="42.5127582438290119171142578125" lon="19.93643925525248050689697265625">
        <ele>1873</ele>
        <time>2026-06-17T10:06:00.000Z</time>
        <extensions>
          <ns3:TrackPointExtension>
            <ns3:atemp>21.0</ns3:atemp>
          </ns3:TrackPointExtension>
        </extensions>
      </trkpt>
      <trkpt lat="42.5127582438290119171142578125" lon="19.93643925525248050689697265625">
        <ele>1873.199951171875</ele>
        <time>2026-06-17T10:06:01.000Z</time>
        <extensions>
          <ns3:TrackPointExtension>
            <ns3:atemp>21.0</ns3:atemp>
          </ns3:TrackPointExtension>
        </extensions>
      </trkpt>
      <trkpt lat="42.5127582438290119171142578125" lon="19.93643925525248050689697265625">
        <ele>1873.199951171875</ele>
        <time>2026-06-17T10:06:02.000Z</time>
        <extensions>
          <ns3:TrackPointExtension>
            <ns3:atemp>21.0</ns3:atemp>
          </ns3:TrackPointExtension>
        </extensions>
      </trkpt>
      <trkpt lat="42.5127582438290119171142578125" lon="19.93643925525248050689697265625">
        <ele>1873.199951171875</ele>
        <time>2026-06-17T10:06:03.000Z</time>
        <extensions>
          <ns3:TrackPointExtension>
            <ns3:atemp>21.0</ns3:atemp>
          </ns3:TrackPointExtension>
        </extensions>
      </trkpt>
      <trkpt lat="42.5127582438290119171142578125" lon="19.93643925525248050689697265625">
        <ele>1873.199951171875</ele>
        <time>2026-06-17T10:06:04.000Z</time>
        <extensions>
          <ns3:TrackPointExtension>
            <ns3:atemp>21.0</ns3:atemp>
          </ns3:TrackPointExtension>
        </extensions>
      </trkpt>
      <trkpt lat="42.5127582438290119171142578125" lon="19.93643925525248050689697265625">
        <ele>1873.199951171875</ele>
        <time>2026-06-17T10:06:05.000Z</time>
        <extensions>
          <ns3:TrackPointExtension>
            <ns3:atemp>21.0</ns3:atemp>
          </ns3:TrackPointExtension>
        </extensions>
      </trkpt>
      <trkpt lat="42.5127569027245044708251953125" lon="19.93644051253795623779296875">
        <ele>1873.199951171875</ele>
        <time>2026-06-17T10:06:06.000Z</time>
        <extensions>
          <ns3:TrackPointExtension>
            <ns3:atemp>21.0</ns3:atemp>
          </ns3:TrackPointExtension>
        </extensions>
      </trkpt>
      <trkpt lat="42.51274374313652515411376953125" lon="19.936467669904232025146484375">
        <ele>1873.199951171875</ele>
        <time>2026-06-17T10:06:07.000Z</time>
        <extensions>
          <ns3:TrackPointExtension>
            <ns3:atemp>21.0</ns3:atemp>
          </ns3:TrackPointExtension>
        </extensions>
      </trkpt>
      <trkpt lat="42.51273636706173419952392578125" lon="19.936491809785366058349609375">
        <ele>1873.199951171875</ele>
        <time>2026-06-17T10:06:08.000Z</time>
        <extensions>
          <ns3:TrackPointExtension>
            <ns3:atemp>21.0</ns3:atemp>
          </ns3:TrackPointExtension>
        </extensions>
      </trkpt>
      <trkpt lat="42.51272790133953094482421875" lon="19.93651167489588260650634765625">
        <ele>1873.4000244140625</ele>
        <time>2026-06-17T10:06:09.000Z</time>
        <extensions>
          <ns3:TrackPointExtension>
            <ns3:atemp>21.0</ns3:atemp>
          </ns3:TrackPointExtension>
        </extensions>
      </trkpt>
      <trkpt lat="42.5127216987311840057373046875" lon="19.9365382455289363861083984375">
        <ele>1873.4000244140625</ele>
        <time>2026-06-17T10:06:10.000Z</time>
        <extensions>
          <ns3:TrackPointExtension>
            <ns3:atemp>21.0</ns3:atemp>
          </ns3:TrackPointExtension>
        </extensions>
      </trkpt>
      <trkpt lat="42.51271625049412250518798828125" lon="19.93656364269554615020751953125">
        <ele>1873.4000244140625</ele>
        <time>2026-06-17T10:06:11.000Z</time>
        <extensions>
          <ns3:TrackPointExtension>
            <ns3:atemp>21.0</ns3:atemp>
          </ns3:TrackPointExtension>
        </extensions>
      </trkpt>
      <trkpt lat="42.51270853914320468902587890625" lon="19.9365835078060626983642578125">
        <ele>1873.4000244140625</ele>
        <time>2026-06-17T10:06:12.000Z</time>
        <extensions>
          <ns3:TrackPointExtension>
            <ns3:atemp>21.0</ns3:atemp>
          </ns3:TrackPointExtension>
        </extensions>
      </trkpt>
      <trkpt lat="42.5127022527158260345458984375" lon="19.9366076476871967315673828125">
        <ele>1873.4000244140625</ele>
        <time>2026-06-17T10:06:13.000Z</time>
        <extensions>
          <ns3:TrackPointExtension>
            <ns3:atemp>21.0</ns3:atemp>
          </ns3:TrackPointExtension>
        </extensions>
      </trkpt>
      <trkpt lat="42.51269571483135223388671875" lon="19.9366374872624874114990234375">
        <ele>1873.4000244140625</ele>
        <time>2026-06-17T10:06:14.000Z</time>
        <extensions>
          <ns3:TrackPointExtension>
            <ns3:atemp>21.0</ns3:atemp>
          </ns3:TrackPointExtension>
        </extensions>
      </trkpt>
      <trkpt lat="42.51268691383302211761474609375" lon="19.936664812266826629638671875">
        <ele>1873.199951171875</ele>
        <time>2026-06-17T10:06:15.000Z</time>
        <extensions>
          <ns3:TrackPointExtension>
            <ns3:atemp>21.0</ns3:atemp>
          </ns3:TrackPointExtension>
        </extensions>
      </trkpt>
      <trkpt lat="42.51267668791115283966064453125" lon="19.93668970651924610137939453125">
        <ele>1873.199951171875</ele>
        <time>2026-06-17T10:06:16.000Z</time>
        <extensions>
          <ns3:TrackPointExtension>
            <ns3:atemp>21.0</ns3:atemp>
          </ns3:TrackPointExtension>
        </extensions>
      </trkpt>
      <trkpt lat="42.5126643665134906768798828125" lon="19.9367142654955387115478515625">
        <ele>1873.199951171875</ele>
        <time>2026-06-17T10:06:17.000Z</time>
        <extensions>
          <ns3:TrackPointExtension>
            <ns3:atemp>21.0</ns3:atemp>
          </ns3:TrackPointExtension>
        </extensions>
      </trkpt>
      <trkpt lat="42.51265523023903369903564453125" lon="19.93673287332057952880859375">
        <ele>1873.199951171875</ele>
        <time>2026-06-17T10:06:18.000Z</time>
        <extensions>
          <ns3:TrackPointExtension>
            <ns3:atemp>21.0</ns3:atemp>
          </ns3:TrackPointExtension>
        </extensions>
      </trkpt>
      <trkpt lat="42.512650452554225921630859375" lon="19.93675441481173038482666015625">
        <ele>1873.199951171875</ele>
        <time>2026-06-17T10:06:19.000Z</time>
        <extensions>
          <ns3:TrackPointExtension>
            <ns3:atemp>21.0</ns3:atemp>
          </ns3:TrackPointExtension>
        </extensions>
      </trkpt>
      <trkpt lat="42.5126509554684162139892578125" lon="19.93677712976932525634765625">
        <ele>1873.4000244140625</ele>
        <time>2026-06-17T10:06:20.000Z</time>
        <extensions>
          <ns3:TrackPointExtension>
            <ns3:atemp>21.0</ns3:atemp>
          </ns3:TrackPointExtension>
        </extensions>
      </trkpt>
      <trkpt lat="42.51265548169612884521484375" lon="19.9367831647396087646484375">
        <ele>1873.4000244140625</ele>
        <time>2026-06-17T10:06:21.000Z</time>
        <extensions>
          <ns3:TrackPointExtension>
            <ns3:atemp>21.0</ns3:atemp>
          </ns3:TrackPointExtension>
        </extensions>
      </trkpt>
      <trkpt lat="42.51266880892217159271240234375" lon="19.93677587248384952545166015625">
        <ele>1873.5999755859375</ele>
        <time>2026-06-17T10:06:22.000Z</time>
        <extensions>
          <ns3:TrackPointExtension>
            <ns3:atemp>21.0</ns3:atemp>
          </ns3:TrackPointExtension>
        </extensions>
      </trkpt>
      <trkpt lat="42.51268221996724605560302734375" lon="19.9367524869740009307861328125">
        <ele>1873.5999755859375</ele>
        <time>2026-06-17T10:06:23.000Z</time>
        <extensions>
          <ns3:TrackPointExtension>
            <ns3:atemp>21.0</ns3:atemp>
          </ns3:TrackPointExtension>
        </extensions>
      </trkpt>
      <trkpt lat="42.51268590800464153289794921875" lon="19.936723820865154266357421875">
        <ele>1873.4000244140625</ele>
        <time>2026-06-17T10:06:24.000Z</time>
        <extensions>
          <ns3:TrackPointExtension>
            <ns3:atemp>21.0</ns3:atemp>
          </ns3:TrackPointExtension>
        </extensions>
      </trkpt>
      <trkpt lat="42.51268641091883182525634765625" lon="19.93670512922108173370361328125">
        <ele>1873.4000244140625</ele>
        <time>2026-06-17T10:06:25.000Z</time>
        <extensions>
          <ns3:TrackPointExtension>
            <ns3:atemp>21.0</ns3:atemp>
          </ns3:TrackPointExtension>
        </extensions>
      </trkpt>
      <trkpt lat="42.512690685689449310302734375" lon="19.936679899692535400390625">
        <ele>1873.199951171875</ele>
        <time>2026-06-17T10:06:26.000Z</time>
        <extensions>
          <ns3:TrackPointExtension>
            <ns3:atemp>21.0</ns3:atemp>
          </ns3:TrackPointExtension>
        </extensions>
      </trkpt>
      <trkpt lat="42.5126977264881134033203125" lon="19.93665483780205249786376953125">
        <ele>1873</ele>
        <time>2026-06-17T10:06:27.000Z</time>
        <extensions>
          <ns3:TrackPointExtension>
            <ns3:atemp>21.0</ns3:atemp>
          </ns3:TrackPointExtension>
        </extensions>
      </trkpt>
      <trkpt lat="42.5127057731151580810546875" lon="19.93663036264479160308837890625">
        <ele>1873</ele>
        <time>2026-06-17T10:06:28.000Z</time>
        <extensions>
          <ns3:TrackPointExtension>
            <ns3:atemp>21.0</ns3:atemp>
          </ns3:TrackPointExtension>
        </extensions>
      </trkpt>
      <trkpt lat="42.51271340064704418182373046875" lon="19.93660815060138702392578125">
        <ele>1873</ele>
        <time>2026-06-17T10:06:29.000Z</time>
        <extensions>
          <ns3:TrackPointExtension>
            <ns3:atemp>21.0</ns3:atemp>
          </ns3:TrackPointExtension>
        </extensions>
      </trkpt>
      <trkpt lat="42.51271859742701053619384765625" lon="19.9365848489105701446533203125">
        <ele>1873</ele>
        <time>2026-06-17T10:06:30.000Z</time>
        <extensions>
          <ns3:TrackPointExtension>
            <ns3:atemp>21.0</ns3:atemp>
          </ns3:TrackPointExtension>
        </extensions>
      </trkpt>
      <trkpt lat="42.5127213634550571441650390625" lon="19.9365690909326076507568359375">
        <ele>1873</ele>
        <time>2026-06-17T10:06:31.000Z</time>
        <extensions>
          <ns3:TrackPointExtension>
            <ns3:atemp>21.0</ns3:atemp>
          </ns3:TrackPointExtension>
        </extensions>
      </trkpt>
      <trkpt lat="42.512725889682769775390625" lon="19.93655157275497913360595703125">
        <ele>1873</ele>
        <time>2026-06-17T10:06:32.000Z</time>
        <extensions>
          <ns3:TrackPointExtension>
            <ns3:atemp>21.0</ns3:atemp>
          </ns3:TrackPointExtension>
        </extensions>
      </trkpt>
      <trkpt lat="42.51273326575756072998046875" lon="19.93653095327317714691162109375">
        <ele>1873</ele>
        <time>2026-06-17T10:06:33.000Z</time>
        <extensions>
          <ns3:TrackPointExtension>
            <ns3:atemp>21.0</ns3:atemp>
          </ns3:TrackPointExtension>
        </extensions>
      </trkpt>
      <trkpt lat="42.5127414800226688385009765625" lon="19.93651234544813632965087890625">
        <ele>1873</ele>
        <time>2026-06-17T10:06:34.000Z</time>
        <extensions>
          <ns3:TrackPointExtension>
            <ns3:atemp>21.0</ns3:atemp>
          </ns3:TrackPointExtension>
        </extensions>
      </trkpt>
      <trkpt lat="42.5127468444406986236572265625" lon="19.9364903010427951812744140625">
        <ele>1873</ele>
        <time>2026-06-17T10:06:35.000Z</time>
        <extensions>
          <ns3:TrackPointExtension>
            <ns3:atemp>21.0</ns3:atemp>
          </ns3:TrackPointExtension>
        </extensions>
      </trkpt>
      <trkpt lat="42.51275145448744297027587890625" lon="19.9364626407623291015625">
        <ele>1873</ele>
        <time>2026-06-17T10:06:36.000Z</time>
        <extensions>
          <ns3:TrackPointExtension>
            <ns3:atemp>21.0</ns3:atemp>
          </ns3:TrackPointExtension>
        </extensions>
      </trkpt>
      <trkpt lat="42.512757070362567901611328125" lon="19.93644730187952518463134765625">
        <ele>1873</ele>
        <time>2026-06-17T10:06:37.000Z</time>
        <extensions>
          <ns3:TrackPointExtension>
            <ns3:atemp>21.0</ns3:atemp>
          </ns3:TrackPointExtension>
        </extensions>
      </trkpt>
      <trkpt lat="42.512763775885105133056640625" lon="19.9364359863102436065673828125">
        <ele>1873</ele>
        <time>2026-06-17T10:06:38.000Z</time>
        <extensions>
          <ns3:TrackPointExtension>
            <ns3:atemp>21.0</ns3:atemp>
          </ns3:TrackPointExtension>
        </extensions>
      </trkpt>
      <trkpt lat="42.5127582438290119171142578125" lon="19.93643925525248050689697265625">
        <ele>1872.800048828125</ele>
        <time>2026-06-17T10:06:39.000Z</time>
        <extensions>
          <ns3:TrackPointExtension>
            <ns3:atemp>21.0</ns3:atemp>
          </ns3:TrackPointExtension>
        </extensions>
      </trkpt>
      <trkpt lat="42.5127582438290119171142578125" lon="19.93643925525248050689697265625">
        <ele>1872.800048828125</ele>
        <time>2026-06-17T10:06:40.000Z</time>
        <extensions>
          <ns3:TrackPointExtension>
            <ns3:atemp>21.0</ns3:atemp>
          </ns3:TrackPointExtension>
        </extensions>
      </trkpt>
      <trkpt lat="42.5127582438290119171142578125" lon="19.93643925525248050689697265625">
        <ele>1872.800048828125</ele>
        <time>2026-06-17T10:06:41.000Z</time>
        <extensions>
          <ns3:TrackPointExtension>
            <ns3:atemp>21.0</ns3:atemp>
          </ns3:TrackPointExtension>
        </extensions>
      </trkpt>
      <trkpt lat="42.5127582438290119171142578125" lon="19.93643925525248050689697265625">
        <ele>1872.800048828125</ele>
        <time>2026-06-17T10:06:42.000Z</time>
        <extensions>
          <ns3:TrackPointExtension>
            <ns3:atemp>21.0</ns3:atemp>
          </ns3:TrackPointExtension>
        </extensions>
      </trkpt>
      <trkpt lat="42.5127582438290119171142578125" lon="19.93643925525248050689697265625">
        <ele>1872.800048828125</ele>
        <time>2026-06-17T10:06:43.000Z</time>
        <extensions>
          <ns3:TrackPointExtension>
            <ns3:atemp>21.0</ns3:atemp>
          </ns3:TrackPointExtension>
        </extensions>
      </trkpt>
      <trkpt lat="42.5127582438290119171142578125" lon="19.93643925525248050689697265625">
        <ele>1872.800048828125</ele>
        <time>2026-06-17T10:06:44.000Z</time>
        <extensions>
          <ns3:TrackPointExtension>
            <ns3:atemp>21.0</ns3:atemp>
          </ns3:TrackPointExtension>
        </extensions>
      </trkpt>
      <trkpt lat="42.5127582438290119171142578125" lon="19.93643925525248050689697265625">
        <ele>1872.800048828125</ele>
        <time>2026-06-17T10:06:45.000Z</time>
        <extensions>
          <ns3:TrackPointExtension>
            <ns3:atemp>21.0</ns3:atemp>
          </ns3:TrackPointExtension>
        </extensions>
      </trkpt>
      <trkpt lat="42.5127582438290119171142578125" lon="19.93643925525248050689697265625">
        <ele>1872.800048828125</ele>
        <time>2026-06-17T10:06:46.000Z</time>
        <extensions>
          <ns3:TrackPointExtension>
            <ns3:atemp>21.0</ns3:atemp>
          </ns3:TrackPointExtension>
        </extensions>
      </trkpt>
      <trkpt lat="42.5127582438290119171142578125" lon="19.93643925525248050689697265625">
        <ele>1872.800048828125</ele>
        <time>2026-06-17T10:06:47.000Z</time>
        <extensions>
          <ns3:TrackPointExtension>
            <ns3:atemp>21.0</ns3:atemp>
          </ns3:TrackPointExtension>
        </extensions>
      </trkpt>
      <trkpt lat="42.5127582438290119171142578125" lon="19.93643925525248050689697265625">
        <ele>1872.5999755859375</ele>
        <time>2026-06-17T10:06:48.000Z</time>
        <extensions>
          <ns3:TrackPointExtension>
            <ns3:atemp>21.0</ns3:atemp>
          </ns3:TrackPointExtension>
        </extensions>
      </trkpt>
      <trkpt lat="42.5127582438290119171142578125" lon="19.93643925525248050689697265625">
        <ele>1872.5999755859375</ele>
        <time>2026-06-17T10:06:49.000Z</time>
        <extensions>
          <ns3:TrackPointExtension>
            <ns3:atemp>21.0</ns3:atemp>
          </ns3:TrackPointExtension>
        </extensions>
      </trkpt>
      <trkpt lat="42.5127582438290119171142578125" lon="19.93643925525248050689697265625">
        <ele>1872.5999755859375</ele>
        <time>2026-06-17T10:06:50.000Z</time>
        <extensions>
          <ns3:TrackPointExtension>
            <ns3:atemp>21.0</ns3:atemp>
          </ns3:TrackPointExtension>
        </extensions>
      </trkpt>
      <trkpt lat="42.5127582438290119171142578125" lon="19.93643925525248050689697265625">
        <ele>1872.5999755859375</ele>
        <time>2026-06-17T10:06:51.000Z</time>
        <extensions>
          <ns3:TrackPointExtension>
            <ns3:atemp>21.0</ns3:atemp>
          </ns3:TrackPointExtension>
        </extensions>
      </trkpt>
      <trkpt lat="42.5127582438290119171142578125" lon="19.93643925525248050689697265625">
        <ele>1872.5999755859375</ele>
        <time>2026-06-17T10:06:52.000Z</time>
        <extensions>
          <ns3:TrackPointExtension>
            <ns3:atemp>21.0</ns3:atemp>
          </ns3:TrackPointExtension>
        </extensions>
      </trkpt>
      <trkpt lat="42.5127582438290119171142578125" lon="19.93643925525248050689697265625">
        <ele>1872.5999755859375</ele>
        <time>2026-06-17T10:06:53.000Z</time>
        <extensions>
          <ns3:TrackPointExtension>
            <ns3:atemp>21.0</ns3:atemp>
          </ns3:TrackPointExtension>
        </extensions>
      </trkpt>
      <trkpt lat="42.5127582438290119171142578125" lon="19.93643925525248050689697265625">
        <ele>1872.800048828125</ele>
        <time>2026-06-17T10:06:54.000Z</time>
        <extensions>
          <ns3:TrackPointExtension>
            <ns3:atemp>21.0</ns3:atemp>
          </ns3:TrackPointExtension>
        </extensions>
      </trkpt>
      <trkpt lat="42.5127582438290119171142578125" lon="19.93643925525248050689697265625">
        <ele>1872.800048828125</ele>
        <time>2026-06-17T10:06:55.000Z</time>
        <extensions>
          <ns3:TrackPointExtension>
            <ns3:atemp>21.0</ns3:atemp>
          </ns3:TrackPointExtension>
        </extensions>
      </trkpt>
      <trkpt lat="42.5127582438290119171142578125" lon="19.93643925525248050689697265625">
        <ele>1872.800048828125</ele>
        <time>2026-06-17T10:06:56.000Z</time>
        <extensions>
          <ns3:TrackPointExtension>
            <ns3:atemp>21.0</ns3:atemp>
          </ns3:TrackPointExtension>
        </extensions>
      </trkpt>
      <trkpt lat="42.5127582438290119171142578125" lon="19.93643925525248050689697265625">
        <ele>1872.800048828125</ele>
        <time>2026-06-17T10:06:57.000Z</time>
        <extensions>
          <ns3:TrackPointExtension>
            <ns3:atemp>21.0</ns3:atemp>
          </ns3:TrackPointExtension>
        </extensions>
      </trkpt>
      <trkpt lat="42.5127582438290119171142578125" lon="19.93643925525248050689697265625">
        <ele>1872.800048828125</ele>
        <time>2026-06-17T10:06:58.000Z</time>
        <extensions>
          <ns3:TrackPointExtension>
            <ns3:atemp>21.0</ns3:atemp>
          </ns3:TrackPointExtension>
        </extensions>
      </trkpt>
      <trkpt lat="42.5127582438290119171142578125" lon="19.93643925525248050689697265625">
        <ele>1872.5999755859375</ele>
        <time>2026-06-17T10:06:59.000Z</time>
        <extensions>
          <ns3:TrackPointExtension>
            <ns3:atemp>21.0</ns3:atemp>
          </ns3:TrackPointExtension>
        </extensions>
      </trkpt>
      <trkpt lat="42.5127582438290119171142578125" lon="19.93643925525248050689697265625">
        <ele>1872.5999755859375</ele>
        <time>2026-06-17T10:07:00.000Z</time>
        <extensions>
          <ns3:TrackPointExtension>
            <ns3:atemp>21.0</ns3:atemp>
          </ns3:TrackPointExtension>
        </extensions>
      </trkpt>
      <trkpt lat="42.5127582438290119171142578125" lon="19.93643925525248050689697265625">
        <ele>1872.5999755859375</ele>
        <time>2026-06-17T10:07:01.000Z</time>
        <extensions>
          <ns3:TrackPointExtension>
            <ns3:atemp>21.0</ns3:atemp>
          </ns3:TrackPointExtension>
        </extensions>
      </trkpt>
      <trkpt lat="42.5127582438290119171142578125" lon="19.93643925525248050689697265625">
        <ele>1872.5999755859375</ele>
        <time>2026-06-17T10:07:02.000Z</time>
        <extensions>
          <ns3:TrackPointExtension>
            <ns3:atemp>21.0</ns3:atemp>
          </ns3:TrackPointExtension>
        </extensions>
      </trkpt>
      <trkpt lat="42.5127582438290119171142578125" lon="19.93643925525248050689697265625">
        <ele>1872.5999755859375</ele>
        <time>2026-06-17T10:07:03.000Z</time>
        <extensions>
          <ns3:TrackPointExtension>
            <ns3:atemp>21.0</ns3:atemp>
          </ns3:TrackPointExtension>
        </extensions>
      </trkpt>
      <trkpt lat="42.5127582438290119171142578125" lon="19.93643925525248050689697265625">
        <ele>1872.5999755859375</ele>
        <time>2026-06-17T10:07:04.000Z</time>
        <extensions>
          <ns3:TrackPointExtension>
            <ns3:atemp>21.0</ns3:atemp>
          </ns3:TrackPointExtension>
        </extensions>
      </trkpt>
      <trkpt lat="42.5127582438290119171142578125" lon="19.93643925525248050689697265625">
        <ele>1872.5999755859375</ele>
        <time>2026-06-17T10:07:05.000Z</time>
        <extensions>
          <ns3:TrackPointExtension>
            <ns3:atemp>21.0</ns3:atemp>
          </ns3:TrackPointExtension>
        </extensions>
      </trkpt>
      <trkpt lat="42.5127582438290119171142578125" lon="19.93643925525248050689697265625">
        <ele>1872.5999755859375</ele>
        <time>2026-06-17T10:07:06.000Z</time>
        <extensions>
          <ns3:TrackPointExtension>
            <ns3:atemp>21.0</ns3:atemp>
          </ns3:TrackPointExtension>
        </extensions>
      </trkpt>
      <trkpt lat="42.5127582438290119171142578125" lon="19.93643925525248050689697265625">
        <ele>1872.5999755859375</ele>
        <time>2026-06-17T10:07:07.000Z</time>
        <extensions>
          <ns3:TrackPointExtension>
            <ns3:atemp>21.0</ns3:atemp>
          </ns3:TrackPointExtension>
        </extensions>
      </trkpt>
      <trkpt lat="42.5127582438290119171142578125" lon="19.93643925525248050689697265625">
        <ele>1872.4000244140625</ele>
        <time>2026-06-17T10:07:08.000Z</time>
        <extensions>
          <ns3:TrackPointExtension>
            <ns3:atemp>21.0</ns3:atemp>
          </ns3:TrackPointExtension>
        </extensions>
      </trkpt>
      <trkpt lat="42.5127582438290119171142578125" lon="19.93643925525248050689697265625">
        <ele>1872.4000244140625</ele>
        <time>2026-06-17T10:07:09.000Z</time>
        <extensions>
          <ns3:TrackPointExtension>
            <ns3:atemp>21.0</ns3:atemp>
          </ns3:TrackPointExtension>
        </extensions>
      </trkpt>
      <trkpt lat="42.5127582438290119171142578125" lon="19.93643925525248050689697265625">
        <ele>1872.4000244140625</ele>
        <time>2026-06-17T10:07:10.000Z</time>
        <extensions>
          <ns3:TrackPointExtension>
            <ns3:atemp>21.0</ns3:atemp>
          </ns3:TrackPointExtension>
        </extensions>
      </trkpt>
      <trkpt lat="42.5127582438290119171142578125" lon="19.93643925525248050689697265625">
        <ele>1872.4000244140625</ele>
        <time>2026-06-17T10:07:11.000Z</time>
        <extensions>
          <ns3:TrackPointExtension>
            <ns3:atemp>21.0</ns3:atemp>
          </ns3:TrackPointExtension>
        </extensions>
      </trkpt>
      <trkpt lat="42.5127582438290119171142578125" lon="19.93643925525248050689697265625">
        <ele>1872.4000244140625</ele>
        <time>2026-06-17T10:07:12.000Z</time>
        <extensions>
          <ns3:TrackPointExtension>
            <ns3:atemp>21.0</ns3:atemp>
          </ns3:TrackPointExtension>
        </extensions>
      </trkpt>
      <trkpt lat="42.5127582438290119171142578125" lon="19.93643925525248050689697265625">
        <ele>1872.4000244140625</ele>
        <time>2026-06-17T10:07:13.000Z</time>
        <extensions>
          <ns3:TrackPointExtension>
            <ns3:atemp>21.0</ns3:atemp>
          </ns3:TrackPointExtension>
        </extensions>
      </trkpt>
      <trkpt lat="42.5127582438290119171142578125" lon="19.93643925525248050689697265625">
        <ele>1872.4000244140625</ele>
        <time>2026-06-17T10:07:14.000Z</time>
        <extensions>
          <ns3:TrackPointExtension>
            <ns3:atemp>21.0</ns3:atemp>
          </ns3:TrackPointExtension>
        </extensions>
      </trkpt>
      <trkpt lat="42.5127582438290119171142578125" lon="19.93643925525248050689697265625">
        <ele>1872.4000244140625</ele>
        <time>2026-06-17T10:07:15.000Z</time>
        <extensions>
          <ns3:TrackPointExtension>
            <ns3:atemp>21.0</ns3:atemp>
          </ns3:TrackPointExtension>
        </extensions>
      </trkpt>
      <trkpt lat="42.5127582438290119171142578125" lon="19.93643925525248050689697265625">
        <ele>1872.4000244140625</ele>
        <time>2026-06-17T10:07:16.000Z</time>
        <extensions>
          <ns3:TrackPointExtension>
            <ns3:atemp>21.0</ns3:atemp>
          </ns3:TrackPointExtension>
        </extensions>
      </trkpt>
      <trkpt lat="42.5127582438290119171142578125" lon="19.93643925525248050689697265625">
        <ele>1872.4000244140625</ele>
        <time>2026-06-17T10:07:17.000Z</time>
        <extensions>
          <ns3:TrackPointExtension>
            <ns3:atemp>21.0</ns3:atemp>
          </ns3:TrackPointExtension>
        </extensions>
      </trkpt>
      <trkpt lat="42.51276075839996337890625" lon="19.9364329688251018524169921875">
        <ele>1872.4000244140625</ele>
        <time>2026-06-17T10:07:18.000Z</time>
        <extensions>
          <ns3:TrackPointExtension>
            <ns3:atemp>21.0</ns3:atemp>
          </ns3:TrackPointExtension>
        </extensions>
      </trkpt>
      <trkpt lat="42.51276620663702487945556640625" lon="19.9364343099296092987060546875">
        <ele>1872.4000244140625</ele>
        <time>2026-06-17T10:07:19.000Z</time>
        <extensions>
          <ns3:TrackPointExtension>
            <ns3:atemp>21.0</ns3:atemp>
          </ns3:TrackPointExtension>
        </extensions>
      </trkpt>
      <trkpt lat="42.5127783603966236114501953125" lon="19.93644193746149539947509765625">
        <ele>1872.4000244140625</ele>
        <time>2026-06-17T10:07:20.000Z</time>
        <extensions>
          <ns3:TrackPointExtension>
            <ns3:atemp>21.0</ns3:atemp>
          </ns3:TrackPointExtension>
        </extensions>
      </trkpt>
      <trkpt lat="42.51280166208744049072265625" lon="19.93644210509955883026123046875">
        <ele>1872.199951171875</ele>
        <time>2026-06-17T10:07:21.000Z</time>
        <extensions>
          <ns3:TrackPointExtension>
            <ns3:atemp>21.0</ns3:atemp>
          </ns3:TrackPointExtension>
        </extensions>
      </trkpt>
      <trkpt lat="42.51282018609344959259033203125" lon="19.93643456138670444488525390625">
        <ele>1872</ele>
        <time>2026-06-17T10:07:22.000Z</time>
        <extensions>
          <ns3:TrackPointExtension>
            <ns3:atemp>21.0</ns3:atemp>
          </ns3:TrackPointExtension>
        </extensions>
      </trkpt>
      <trkpt lat="42.51284332014620304107666015625" lon="19.93641771376132965087890625">
        <ele>1871.5999755859375</ele>
        <time>2026-06-17T10:07:23.000Z</time>
        <extensions>
          <ns3:TrackPointExtension>
            <ns3:atemp>21.0</ns3:atemp>
          </ns3:TrackPointExtension>
        </extensions>
      </trkpt>
      <trkpt lat="42.51286025159060955047607421875" lon="19.93639181368052959442138671875">
        <ele>1871.199951171875</ele>
        <time>2026-06-17T10:07:24.000Z</time>
        <extensions>
          <ns3:TrackPointExtension>
            <ns3:atemp>21.0</ns3:atemp>
          </ns3:TrackPointExtension>
        </extensions>
      </trkpt>
      <trkpt lat="42.5128635205328464508056640625" lon="19.93636968545615673065185546875">
        <ele>1870.800048828125</ele>
        <time>2026-06-17T10:07:25.000Z</time>
        <extensions>
          <ns3:TrackPointExtension>
            <ns3:atemp>21.0</ns3:atemp>
          </ns3:TrackPointExtension>
        </extensions>
      </trkpt>
      <trkpt lat="42.51286410726606845855712890625" lon="19.93636767379939556121826171875">
        <ele>1870.4000244140625</ele>
        <time>2026-06-17T10:07:26.000Z</time>
        <extensions>
          <ns3:TrackPointExtension>
            <ns3:atemp>21.0</ns3:atemp>
          </ns3:TrackPointExtension>
        </extensions>
      </trkpt>
      <trkpt lat="42.51286410726606845855712890625" lon="19.9363675899803638458251953125">
        <ele>1870.199951171875</ele>
        <time>2026-06-17T10:07:27.000Z</time>
        <extensions>
          <ns3:TrackPointExtension>
            <ns3:atemp>21.0</ns3:atemp>
          </ns3:TrackPointExtension>
        </extensions>
      </trkpt>
      <trkpt lat="42.51286410726606845855712890625" lon="19.9363675899803638458251953125">
        <ele>1870</ele>
        <time>2026-06-17T10:07:28.000Z</time>
        <extensions>
          <ns3:TrackPointExtension>
            <ns3:atemp>21.0</ns3:atemp>
          </ns3:TrackPointExtension>
        </extensions>
      </trkpt>
      <trkpt lat="42.51286410726606845855712890625" lon="19.9363675899803638458251953125">
        <ele>1870</ele>
        <time>2026-06-17T10:07:29.000Z</time>
        <extensions>
          <ns3:TrackPointExtension>
            <ns3:atemp>21.0</ns3:atemp>
          </ns3:TrackPointExtension>
        </extensions>
      </trkpt>
      <trkpt lat="42.51286410726606845855712890625" lon="19.9363675899803638458251953125">
        <ele>1869.800048828125</ele>
        <time>2026-06-17T10:07:30.000Z</time>
        <extensions>
          <ns3:TrackPointExtension>
            <ns3:atemp>21.0</ns3:atemp>
          </ns3:TrackPointExtension>
        </extensions>
      </trkpt>
      <trkpt lat="42.51286410726606845855712890625" lon="19.9363675899803638458251953125">
        <ele>1869.800048828125</ele>
        <time>2026-06-17T10:07:31.000Z</time>
        <extensions>
          <ns3:TrackPointExtension>
            <ns3:atemp>21.0</ns3:atemp>
          </ns3:TrackPointExtension>
        </extensions>
      </trkpt>
      <trkpt lat="42.51286410726606845855712890625" lon="19.9363675899803638458251953125">
        <ele>1869.5999755859375</ele>
        <time>2026-06-17T10:07:32.000Z</time>
        <extensions>
          <ns3:TrackPointExtension>
            <ns3:atemp>21.0</ns3:atemp>
          </ns3:TrackPointExtension>
        </extensions>
      </trkpt>
      <trkpt lat="42.51286410726606845855712890625" lon="19.9363675899803638458251953125">
        <ele>1869.5999755859375</ele>
        <time>2026-06-17T10:07:33.000Z</time>
        <extensions>
          <ns3:TrackPointExtension>
            <ns3:atemp>21.0</ns3:atemp>
          </ns3:TrackPointExtension>
        </extensions>
      </trkpt>
      <trkpt lat="42.51286410726606845855712890625" lon="19.9363675899803638458251953125">
        <ele>1869.5999755859375</ele>
        <time>2026-06-17T10:07:34.000Z</time>
        <extensions>
          <ns3:TrackPointExtension>
            <ns3:atemp>21.0</ns3:atemp>
          </ns3:TrackPointExtension>
        </extensions>
      </trkpt>
      <trkpt lat="42.51286410726606845855712890625" lon="19.9363675899803638458251953125">
        <ele>1869.5999755859375</ele>
        <time>2026-06-17T10:07:35.000Z</time>
        <extensions>
          <ns3:TrackPointExtension>
            <ns3:atemp>21.0</ns3:atemp>
          </ns3:TrackPointExtension>
        </extensions>
      </trkpt>
      <trkpt lat="42.51286410726606845855712890625" lon="19.9363675899803638458251953125">
        <ele>1869.4000244140625</ele>
        <time>2026-06-17T10:07:36.000Z</time>
        <extensions>
          <ns3:TrackPointExtension>
            <ns3:atemp>21.0</ns3:atemp>
          </ns3:TrackPointExtension>
        </extensions>
      </trkpt>
      <trkpt lat="42.51286410726606845855712890625" lon="19.9363675899803638458251953125">
        <ele>1869.4000244140625</ele>
        <time>2026-06-17T10:07:37.000Z</time>
        <extensions>
          <ns3:TrackPointExtension>
            <ns3:atemp>21.0</ns3:atemp>
          </ns3:TrackPointExtension>
        </extensions>
      </trkpt>
      <trkpt lat="42.51286410726606845855712890625" lon="19.9363675899803638458251953125">
        <ele>1869.4000244140625</ele>
        <time>2026-06-17T10:07:38.000Z</time>
        <extensions>
          <ns3:TrackPointExtension>
            <ns3:atemp>21.0</ns3:atemp>
          </ns3:TrackPointExtension>
        </extensions>
      </trkpt>
      <trkpt lat="42.51286410726606845855712890625" lon="19.9363675899803638458251953125">
        <ele>1869.4000244140625</ele>
        <time>2026-06-17T10:07:39.000Z</time>
        <extensions>
          <ns3:TrackPointExtension>
            <ns3:atemp>21.0</ns3:atemp>
          </ns3:TrackPointExtension>
        </extensions>
      </trkpt>
      <trkpt lat="42.51286410726606845855712890625" lon="19.9363675899803638458251953125">
        <ele>1869.4000244140625</ele>
        <time>2026-06-17T10:07:40.000Z</time>
        <extensions>
          <ns3:TrackPointExtension>
            <ns3:atemp>21.0</ns3:atemp>
          </ns3:TrackPointExtension>
        </extensions>
      </trkpt>
      <trkpt lat="42.51286410726606845855712890625" lon="19.9363675899803638458251953125">
        <ele>1869.4000244140625</ele>
        <time>2026-06-17T10:07:41.000Z</time>
        <extensions>
          <ns3:TrackPointExtension>
            <ns3:atemp>21.0</ns3:atemp>
          </ns3:TrackPointExtension>
        </extensions>
      </trkpt>
      <trkpt lat="42.51286410726606845855712890625" lon="19.9363675899803638458251953125">
        <ele>1869.4000244140625</ele>
        <time>2026-06-17T10:07:42.000Z</time>
        <extensions>
          <ns3:TrackPointExtension>
            <ns3:atemp>21.0</ns3:atemp>
          </ns3:TrackPointExtension>
        </extensions>
      </trkpt>
      <trkpt lat="42.51286410726606845855712890625" lon="19.9363675899803638458251953125">
        <ele>1869.199951171875</ele>
        <time>2026-06-17T10:07:43.000Z</time>
        <extensions>
          <ns3:TrackPointExtension>
            <ns3:atemp>21.0</ns3:atemp>
          </ns3:TrackPointExtension>
        </extensions>
      </trkpt>
      <trkpt lat="42.5128658674657344818115234375" lon="19.93636432103812694549560546875">
        <ele>1869.199951171875</ele>
        <time>2026-06-17T10:07:44.000Z</time>
        <extensions>
          <ns3:TrackPointExtension>
            <ns3:atemp>21.0</ns3:atemp>
          </ns3:TrackPointExtension>
        </extensions>
      </trkpt>
      <trkpt lat="42.5128651969134807586669921875" lon="19.9363486468791961669921875">
        <ele>1869.199951171875</ele>
        <time>2026-06-17T10:07:45.000Z</time>
        <extensions>
          <ns3:TrackPointExtension>
            <ns3:atemp>21.0</ns3:atemp>
          </ns3:TrackPointExtension>
        </extensions>
      </trkpt>
      <trkpt lat="42.5128541328012943267822265625" lon="19.93634051643311977386474609375">
        <ele>1869.199951171875</ele>
        <time>2026-06-17T10:07:46.000Z</time>
        <extensions>
          <ns3:TrackPointExtension>
            <ns3:atemp>21.0</ns3:atemp>
          </ns3:TrackPointExtension>
        </extensions>
      </trkpt>
      <trkpt lat="42.51283728517591953277587890625" lon="19.936337582767009735107421875">
        <ele>1869.199951171875</ele>
        <time>2026-06-17T10:07:47.000Z</time>
        <extensions>
          <ns3:TrackPointExtension>
            <ns3:atemp>21.0</ns3:atemp>
          </ns3:TrackPointExtension>
        </extensions>
      </trkpt>
      <trkpt lat="42.5128179229795932769775390625" lon="19.936334900557994842529296875">
        <ele>1869.199951171875</ele>
        <time>2026-06-17T10:07:48.000Z</time>
        <extensions>
          <ns3:TrackPointExtension>
            <ns3:atemp>21.0</ns3:atemp>
          </ns3:TrackPointExtension>
        </extensions>
      </trkpt>
      <trkpt lat="42.51280166208744049072265625" lon="19.93633263744413852691650390625">
        <ele>1869.199951171875</ele>
        <time>2026-06-17T10:07:49.000Z</time>
        <extensions>
          <ns3:TrackPointExtension>
            <ns3:atemp>21.0</ns3:atemp>
          </ns3:TrackPointExtension>
        </extensions>
      </trkpt>
      <trkpt lat="42.51279629766941070556640625" lon="19.9363271892070770263671875">
        <ele>1869.4000244140625</ele>
        <time>2026-06-17T10:07:50.000Z</time>
        <extensions>
          <ns3:TrackPointExtension>
            <ns3:atemp>21.0</ns3:atemp>
          </ns3:TrackPointExtension>
        </extensions>
      </trkpt>
      <trkpt lat="42.5127944536507129669189453125" lon="19.93632920086383819580078125">
        <ele>1869.4000244140625</ele>
        <time>2026-06-17T10:07:51.000Z</time>
        <extensions>
          <ns3:TrackPointExtension>
            <ns3:atemp>21.0</ns3:atemp>
          </ns3:TrackPointExtension>
        </extensions>
      </trkpt>
      <trkpt lat="42.5127944536507129669189453125" lon="19.93632920086383819580078125">
        <ele>1869.5999755859375</ele>
        <time>2026-06-17T10:07:52.000Z</time>
        <extensions>
          <ns3:TrackPointExtension>
            <ns3:atemp>21.0</ns3:atemp>
          </ns3:TrackPointExtension>
        </extensions>
      </trkpt>
      <trkpt lat="42.5127944536507129669189453125" lon="19.93632920086383819580078125">
        <ele>1869.800048828125</ele>
        <time>2026-06-17T10:07:53.000Z</time>
        <extensions>
          <ns3:TrackPointExtension>
            <ns3:atemp>21.0</ns3:atemp>
          </ns3:TrackPointExtension>
        </extensions>
      </trkpt>
      <trkpt lat="42.5127944536507129669189453125" lon="19.93632920086383819580078125">
        <ele>1870</ele>
        <time>2026-06-17T10:07:54.000Z</time>
        <extensions>
          <ns3:TrackPointExtension>
            <ns3:atemp>21.0</ns3:atemp>
          </ns3:TrackPointExtension>
        </extensions>
      </trkpt>
      <trkpt lat="42.5127944536507129669189453125" lon="19.93632920086383819580078125">
        <ele>1870</ele>
        <time>2026-06-17T10:07:55.000Z</time>
        <extensions>
          <ns3:TrackPointExtension>
            <ns3:atemp>21.0</ns3:atemp>
          </ns3:TrackPointExtension>
        </extensions>
      </trkpt>
      <trkpt lat="42.5127944536507129669189453125" lon="19.93632920086383819580078125">
        <ele>1870</ele>
        <time>2026-06-17T10:07:56.000Z</time>
        <extensions>
          <ns3:TrackPointExtension>
            <ns3:atemp>21.0</ns3:atemp>
          </ns3:TrackPointExtension>
        </extensions>
      </trkpt>
      <trkpt lat="42.5127944536507129669189453125" lon="19.93632920086383819580078125">
        <ele>1870</ele>
        <time>2026-06-17T10:07:57.000Z</time>
        <extensions>
          <ns3:TrackPointExtension>
            <ns3:atemp>21.0</ns3:atemp>
          </ns3:TrackPointExtension>
        </extensions>
      </trkpt>
      <trkpt lat="42.5127944536507129669189453125" lon="19.93632920086383819580078125">
        <ele>1870</ele>
        <time>2026-06-17T10:07:58.000Z</time>
        <extensions>
          <ns3:TrackPointExtension>
            <ns3:atemp>21.0</ns3:atemp>
          </ns3:TrackPointExtension>
        </extensions>
      </trkpt>
      <trkpt lat="42.5127944536507129669189453125" lon="19.93632920086383819580078125">
        <ele>1870</ele>
        <time>2026-06-17T10:07:59.000Z</time>
        <extensions>
          <ns3:TrackPointExtension>
            <ns3:atemp>21.0</ns3:atemp>
          </ns3:TrackPointExtension>
        </extensions>
      </trkpt>
      <trkpt lat="42.5127944536507129669189453125" lon="19.93632920086383819580078125">
        <ele>1870</ele>
        <time>2026-06-17T10:08:00.000Z</time>
        <extensions>
          <ns3:TrackPointExtension>
            <ns3:atemp>21.0</ns3:atemp>
          </ns3:TrackPointExtension>
        </extensions>
      </trkpt>
      <trkpt lat="42.5127944536507129669189453125" lon="19.93632920086383819580078125">
        <ele>1870</ele>
        <time>2026-06-17T10:08:01.000Z</time>
        <extensions>
          <ns3:TrackPointExtension>
            <ns3:atemp>21.0</ns3:atemp>
          </ns3:TrackPointExtension>
        </extensions>
      </trkpt>
      <trkpt lat="42.5127944536507129669189453125" lon="19.93632920086383819580078125">
        <ele>1869.800048828125</ele>
        <time>2026-06-17T10:08:02.000Z</time>
        <extensions>
          <ns3:TrackPointExtension>
            <ns3:atemp>21.0</ns3:atemp>
          </ns3:TrackPointExtension>
        </extensions>
      </trkpt>
      <trkpt lat="42.5127944536507129669189453125" lon="19.93632920086383819580078125">
        <ele>1869.800048828125</ele>
        <time>2026-06-17T10:08:03.000Z</time>
        <extensions>
          <ns3:TrackPointExtension>
            <ns3:atemp>21.0</ns3:atemp>
          </ns3:TrackPointExtension>
        </extensions>
      </trkpt>
      <trkpt lat="42.5127944536507129669189453125" lon="19.93632920086383819580078125">
        <ele>1870</ele>
        <time>2026-06-17T10:08:04.000Z</time>
        <extensions>
          <ns3:TrackPointExtension>
            <ns3:atemp>21.0</ns3:atemp>
          </ns3:TrackPointExtension>
        </extensions>
      </trkpt>
      <trkpt lat="42.5127944536507129669189453125" lon="19.93632920086383819580078125">
        <ele>1870</ele>
        <time>2026-06-17T10:08:05.000Z</time>
        <extensions>
          <ns3:TrackPointExtension>
            <ns3:atemp>21.0</ns3:atemp>
          </ns3:TrackPointExtension>
        </extensions>
      </trkpt>
      <trkpt lat="42.5127944536507129669189453125" lon="19.93632920086383819580078125">
        <ele>1870</ele>
        <time>2026-06-17T10:08:06.000Z</time>
        <extensions>
          <ns3:TrackPointExtension>
            <ns3:atemp>21.0</ns3:atemp>
          </ns3:TrackPointExtension>
        </extensions>
      </trkpt>
      <trkpt lat="42.5127944536507129669189453125" lon="19.93632920086383819580078125">
        <ele>1870</ele>
        <time>2026-06-17T10:08:07.000Z</time>
        <extensions>
          <ns3:TrackPointExtension>
            <ns3:atemp>21.0</ns3:atemp>
          </ns3:TrackPointExtension>
        </extensions>
      </trkpt>
      <trkpt lat="42.5127944536507129669189453125" lon="19.93632920086383819580078125">
        <ele>1870</ele>
        <time>2026-06-17T10:08:08.000Z</time>
        <extensions>
          <ns3:TrackPointExtension>
            <ns3:atemp>21.0</ns3:atemp>
          </ns3:TrackPointExtension>
        </extensions>
      </trkpt>
      <trkpt lat="42.5127944536507129669189453125" lon="19.93632920086383819580078125">
        <ele>1870</ele>
        <time>2026-06-17T10:08:09.000Z</time>
        <extensions>
          <ns3:TrackPointExtension>
            <ns3:atemp>21.0</ns3:atemp>
          </ns3:TrackPointExtension>
        </extensions>
      </trkpt>
      <trkpt lat="42.5127944536507129669189453125" lon="19.93632920086383819580078125">
        <ele>1870</ele>
        <time>2026-06-17T10:08:10.000Z</time>
        <extensions>
          <ns3:TrackPointExtension>
            <ns3:atemp>21.0</ns3:atemp>
          </ns3:TrackPointExtension>
        </extensions>
      </trkpt>
      <trkpt lat="42.5127944536507129669189453125" lon="19.93632920086383819580078125">
        <ele>1870</ele>
        <time>2026-06-17T10:08:11.000Z</time>
        <extensions>
          <ns3:TrackPointExtension>
            <ns3:atemp>21.0</ns3:atemp>
          </ns3:TrackPointExtension>
        </extensions>
      </trkpt>
      <trkpt lat="42.5127944536507129669189453125" lon="19.93632920086383819580078125">
        <ele>1870</ele>
        <time>2026-06-17T10:08:12.000Z</time>
        <extensions>
          <ns3:TrackPointExtension>
            <ns3:atemp>21.0</ns3:atemp>
          </ns3:TrackPointExtension>
        </extensions>
      </trkpt>
      <trkpt lat="42.5127944536507129669189453125" lon="19.93632920086383819580078125">
        <ele>1870</ele>
        <time>2026-06-17T10:08:13.000Z</time>
        <extensions>
          <ns3:TrackPointExtension>
            <ns3:atemp>21.0</ns3:atemp>
          </ns3:TrackPointExtension>
        </extensions>
      </trkpt>
      <trkpt lat="42.5127944536507129669189453125" lon="19.93632920086383819580078125">
        <ele>1870</ele>
        <time>2026-06-17T10:08:14.000Z</time>
        <extensions>
          <ns3:TrackPointExtension>
            <ns3:atemp>21.0</ns3:atemp>
          </ns3:TrackPointExtension>
        </extensions>
      </trkpt>
      <trkpt lat="42.5127944536507129669189453125" lon="19.93632920086383819580078125">
        <ele>1870</ele>
        <time>2026-06-17T10:08:15.000Z</time>
        <extensions>
          <ns3:TrackPointExtension>
            <ns3:atemp>21.0</ns3:atemp>
          </ns3:TrackPointExtension>
        </extensions>
      </trkpt>
      <trkpt lat="42.5127944536507129669189453125" lon="19.93632920086383819580078125">
        <ele>1870</ele>
        <time>2026-06-17T10:08:16.000Z</time>
        <extensions>
          <ns3:TrackPointExtension>
            <ns3:atemp>21.0</ns3:atemp>
          </ns3:TrackPointExtension>
        </extensions>
      </trkpt>
      <trkpt lat="42.5127944536507129669189453125" lon="19.93632920086383819580078125">
        <ele>1870</ele>
        <time>2026-06-17T10:08:17.000Z</time>
        <extensions>
          <ns3:TrackPointExtension>
            <ns3:atemp>21.0</ns3:atemp>
          </ns3:TrackPointExtension>
        </extensions>
      </trkpt>
      <trkpt lat="42.5127944536507129669189453125" lon="19.93632920086383819580078125">
        <ele>1870</ele>
        <time>2026-06-17T10:08:18.000Z</time>
        <extensions>
          <ns3:TrackPointExtension>
            <ns3:atemp>21.0</ns3:atemp>
          </ns3:TrackPointExtension>
        </extensions>
      </trkpt>
      <trkpt lat="42.5127944536507129669189453125" lon="19.93632920086383819580078125">
        <ele>1870</ele>
        <time>2026-06-17T10:08:19.000Z</time>
        <extensions>
          <ns3:TrackPointExtension>
            <ns3:atemp>21.0</ns3:atemp>
          </ns3:TrackPointExtension>
        </extensions>
      </trkpt>
      <trkpt lat="42.5127944536507129669189453125" lon="19.93632920086383819580078125">
        <ele>1870</ele>
        <time>2026-06-17T10:08:20.000Z</time>
        <extensions>
          <ns3:TrackPointExtension>
            <ns3:atemp>21.0</ns3:atemp>
          </ns3:TrackPointExtension>
        </extensions>
      </trkpt>
      <trkpt lat="42.5127944536507129669189453125" lon="19.93632920086383819580078125">
        <ele>1870</ele>
        <time>2026-06-17T10:08:21.000Z</time>
        <extensions>
          <ns3:TrackPointExtension>
            <ns3:atemp>21.0</ns3:atemp>
          </ns3:TrackPointExtension>
        </extensions>
      </trkpt>
      <trkpt lat="42.5127944536507129669189453125" lon="19.93632920086383819580078125">
        <ele>1870</ele>
        <time>2026-06-17T10:08:22.000Z</time>
        <extensions>
          <ns3:TrackPointExtension>
            <ns3:atemp>21.0</ns3:atemp>
          </ns3:TrackPointExtension>
        </extensions>
      </trkpt>
      <trkpt lat="42.5127944536507129669189453125" lon="19.93632920086383819580078125">
        <ele>1870</ele>
        <time>2026-06-17T10:08:23.000Z</time>
        <extensions>
          <ns3:TrackPointExtension>
            <ns3:atemp>21.0</ns3:atemp>
          </ns3:TrackPointExtension>
        </extensions>
      </trkpt>
      <trkpt lat="42.5127944536507129669189453125" lon="19.93632920086383819580078125">
        <ele>1870</ele>
        <time>2026-06-17T10:08:24.000Z</time>
        <extensions>
          <ns3:TrackPointExtension>
            <ns3:atemp>21.0</ns3:atemp>
          </ns3:TrackPointExtension>
        </extensions>
      </trkpt>
      <trkpt lat="42.5127944536507129669189453125" lon="19.93632920086383819580078125">
        <ele>1870</ele>
        <time>2026-06-17T10:08:25.000Z</time>
        <extensions>
          <ns3:TrackPointExtension>
            <ns3:atemp>21.0</ns3:atemp>
          </ns3:TrackPointExtension>
        </extensions>
      </trkpt>
      <trkpt lat="42.5127944536507129669189453125" lon="19.93632920086383819580078125">
        <ele>1870</ele>
        <time>2026-06-17T10:08:26.000Z</time>
        <extensions>
          <ns3:TrackPointExtension>
            <ns3:atemp>21.0</ns3:atemp>
          </ns3:TrackPointExtension>
        </extensions>
      </trkpt>
      <trkpt lat="42.5127944536507129669189453125" lon="19.93632920086383819580078125">
        <ele>1870</ele>
        <time>2026-06-17T10:08:27.000Z</time>
        <extensions>
          <ns3:TrackPointExtension>
            <ns3:atemp>21.0</ns3:atemp>
          </ns3:TrackPointExtension>
        </extensions>
      </trkpt>
      <trkpt lat="42.5127944536507129669189453125" lon="19.93632920086383819580078125">
        <ele>1869.800048828125</ele>
        <time>2026-06-17T10:08:28.000Z</time>
        <extensions>
          <ns3:TrackPointExtension>
            <ns3:atemp>21.0</ns3:atemp>
          </ns3:TrackPointExtension>
        </extensions>
      </trkpt>
      <trkpt lat="42.5127944536507129669189453125" lon="19.93632920086383819580078125">
        <ele>1869.800048828125</ele>
        <time>2026-06-17T10:08:29.000Z</time>
        <extensions>
          <ns3:TrackPointExtension>
            <ns3:atemp>21.0</ns3:atemp>
          </ns3:TrackPointExtension>
        </extensions>
      </trkpt>
      <trkpt lat="42.5127944536507129669189453125" lon="19.93632920086383819580078125">
        <ele>1869.800048828125</ele>
        <time>2026-06-17T10:08:30.000Z</time>
        <extensions>
          <ns3:TrackPointExtension>
            <ns3:atemp>21.0</ns3:atemp>
          </ns3:TrackPointExtension>
        </extensions>
      </trkpt>
      <trkpt lat="42.5127944536507129669189453125" lon="19.93632920086383819580078125">
        <ele>1869.800048828125</ele>
        <time>2026-06-17T10:08:31.000Z</time>
        <extensions>
          <ns3:TrackPointExtension>
            <ns3:atemp>21.0</ns3:atemp>
          </ns3:TrackPointExtension>
        </extensions>
      </trkpt>
      <trkpt lat="42.5127944536507129669189453125" lon="19.93632920086383819580078125">
        <ele>1869.800048828125</ele>
        <time>2026-06-17T10:08:32.000Z</time>
        <extensions>
          <ns3:TrackPointExtension>
            <ns3:atemp>21.0</ns3:atemp>
          </ns3:TrackPointExtension>
        </extensions>
      </trkpt>
      <trkpt lat="42.5127944536507129669189453125" lon="19.93632920086383819580078125">
        <ele>1870</ele>
        <time>2026-06-17T10:08:33.000Z</time>
        <extensions>
          <ns3:TrackPointExtension>
            <ns3:atemp>21.0</ns3:atemp>
          </ns3:TrackPointExtension>
        </extensions>
      </trkpt>
      <trkpt lat="42.5127944536507129669189453125" lon="19.93632920086383819580078125">
        <ele>1870</ele>
        <time>2026-06-17T10:08:34.000Z</time>
        <extensions>
          <ns3:TrackPointExtension>
            <ns3:atemp>21.0</ns3:atemp>
          </ns3:TrackPointExtension>
        </extensions>
      </trkpt>
      <trkpt lat="42.5127944536507129669189453125" lon="19.93632920086383819580078125">
        <ele>1870</ele>
        <time>2026-06-17T10:08:35.000Z</time>
        <extensions>
          <ns3:TrackPointExtension>
            <ns3:atemp>21.0</ns3:atemp>
          </ns3:TrackPointExtension>
        </extensions>
      </trkpt>
      <trkpt lat="42.5127944536507129669189453125" lon="19.93632920086383819580078125">
        <ele>1870</ele>
        <time>2026-06-17T10:08:36.000Z</time>
        <extensions>
          <ns3:TrackPointExtension>
            <ns3:atemp>21.0</ns3:atemp>
          </ns3:TrackPointExtension>
        </extensions>
      </trkpt>
      <trkpt lat="42.5127944536507129669189453125" lon="19.93632920086383819580078125">
        <ele>1870</ele>
        <time>2026-06-17T10:08:37.000Z</time>
        <extensions>
          <ns3:TrackPointExtension>
            <ns3:atemp>21.0</ns3:atemp>
          </ns3:TrackPointExtension>
        </extensions>
      </trkpt>
      <trkpt lat="42.5127944536507129669189453125" lon="19.93632920086383819580078125">
        <ele>1870</ele>
        <time>2026-06-17T10:08:38.000Z</time>
        <extensions>
          <ns3:TrackPointExtension>
            <ns3:atemp>21.0</ns3:atemp>
          </ns3:TrackPointExtension>
        </extensions>
      </trkpt>
      <trkpt lat="42.5127944536507129669189453125" lon="19.93632920086383819580078125">
        <ele>1870</ele>
        <time>2026-06-17T10:08:39.000Z</time>
        <extensions>
          <ns3:TrackPointExtension>
            <ns3:atemp>21.0</ns3:atemp>
          </ns3:TrackPointExtension>
        </extensions>
      </trkpt>
      <trkpt lat="42.5127944536507129669189453125" lon="19.93632920086383819580078125">
        <ele>1870</ele>
        <time>2026-06-17T10:08:40.000Z</time>
        <extensions>
          <ns3:TrackPointExtension>
            <ns3:atemp>21.0</ns3:atemp>
          </ns3:TrackPointExtension>
        </extensions>
      </trkpt>
      <trkpt lat="42.5127944536507129669189453125" lon="19.93632920086383819580078125">
        <ele>1870</ele>
        <time>2026-06-17T10:08:41.000Z</time>
        <extensions>
          <ns3:TrackPointExtension>
            <ns3:atemp>21.0</ns3:atemp>
          </ns3:TrackPointExtension>
        </extensions>
      </trkpt>
      <trkpt lat="42.5127944536507129669189453125" lon="19.93632920086383819580078125">
        <ele>1869.800048828125</ele>
        <time>2026-06-17T10:08:42.000Z</time>
        <extensions>
          <ns3:TrackPointExtension>
            <ns3:atemp>21.0</ns3:atemp>
          </ns3:TrackPointExtension>
        </extensions>
      </trkpt>
      <trkpt lat="42.5127944536507129669189453125" lon="19.93632920086383819580078125">
        <ele>1869.800048828125</ele>
        <time>2026-06-17T10:08:43.000Z</time>
        <extensions>
          <ns3:TrackPointExtension>
            <ns3:atemp>21.0</ns3:atemp>
          </ns3:TrackPointExtension>
        </extensions>
      </trkpt>
      <trkpt lat="42.5127944536507129669189453125" lon="19.93632920086383819580078125">
        <ele>1869.800048828125</ele>
        <time>2026-06-17T10:08:44.000Z</time>
        <extensions>
          <ns3:TrackPointExtension>
            <ns3:atemp>21.0</ns3:atemp>
          </ns3:TrackPointExtension>
        </extensions>
      </trkpt>
      <trkpt lat="42.5127944536507129669189453125" lon="19.93632920086383819580078125">
        <ele>1869.800048828125</ele>
        <time>2026-06-17T10:08:45.000Z</time>
        <extensions>
          <ns3:TrackPointExtension>
            <ns3:atemp>21.0</ns3:atemp>
          </ns3:TrackPointExtension>
        </extensions>
      </trkpt>
      <trkpt lat="42.5127944536507129669189453125" lon="19.93632920086383819580078125">
        <ele>1869.800048828125</ele>
        <time>2026-06-17T10:08:46.000Z</time>
        <extensions>
          <ns3:TrackPointExtension>
            <ns3:atemp>21.0</ns3:atemp>
          </ns3:TrackPointExtension>
        </extensions>
      </trkpt>
      <trkpt lat="42.5127944536507129669189453125" lon="19.93632920086383819580078125">
        <ele>1869.800048828125</ele>
        <time>2026-06-17T10:08:47.000Z</time>
        <extensions>
          <ns3:TrackPointExtension>
            <ns3:atemp>21.0</ns3:atemp>
          </ns3:TrackPointExtension>
        </extensions>
      </trkpt>
      <trkpt lat="42.5127944536507129669189453125" lon="19.93632920086383819580078125">
        <ele>1869.800048828125</ele>
        <time>2026-06-17T10:08:48.000Z</time>
        <extensions>
          <ns3:TrackPointExtension>
            <ns3:atemp>21.0</ns3:atemp>
          </ns3:TrackPointExtension>
        </extensions>
      </trkpt>
      <trkpt lat="42.5127944536507129669189453125" lon="19.93632920086383819580078125">
        <ele>1869.800048828125</ele>
        <time>2026-06-17T10:08:49.000Z</time>
        <extensions>
          <ns3:TrackPointExtension>
            <ns3:atemp>21.0</ns3:atemp>
          </ns3:TrackPointExtension>
        </extensions>
      </trkpt>
      <trkpt lat="42.5127944536507129669189453125" lon="19.93632920086383819580078125">
        <ele>1869.800048828125</ele>
        <time>2026-06-17T10:08:50.000Z</time>
        <extensions>
          <ns3:TrackPointExtension>
            <ns3:atemp>21.0</ns3:atemp>
          </ns3:TrackPointExtension>
        </extensions>
      </trkpt>
      <trkpt lat="42.5127944536507129669189453125" lon="19.93632920086383819580078125">
        <ele>1869.800048828125</ele>
        <time>2026-06-17T10:08:51.000Z</time>
        <extensions>
          <ns3:TrackPointExtension>
            <ns3:atemp>21.0</ns3:atemp>
          </ns3:TrackPointExtension>
        </extensions>
      </trkpt>
      <trkpt lat="42.5127944536507129669189453125" lon="19.93632920086383819580078125">
        <ele>1869.800048828125</ele>
        <time>2026-06-17T10:08:52.000Z</time>
        <extensions>
          <ns3:TrackPointExtension>
            <ns3:atemp>21.0</ns3:atemp>
          </ns3:TrackPointExtension>
        </extensions>
      </trkpt>
      <trkpt lat="42.5127944536507129669189453125" lon="19.93632920086383819580078125">
        <ele>1869.800048828125</ele>
        <time>2026-06-17T10:08:53.000Z</time>
        <extensions>
          <ns3:TrackPointExtension>
            <ns3:atemp>21.0</ns3:atemp>
          </ns3:TrackPointExtension>
        </extensions>
      </trkpt>
      <trkpt lat="42.5127944536507129669189453125" lon="19.93632920086383819580078125">
        <ele>1869.800048828125</ele>
        <time>2026-06-17T10:08:54.000Z</time>
        <extensions>
          <ns3:TrackPointExtension>
            <ns3:atemp>21.0</ns3:atemp>
          </ns3:TrackPointExtension>
        </extensions>
      </trkpt>
      <trkpt lat="42.5127944536507129669189453125" lon="19.93632920086383819580078125">
        <ele>1869.800048828125</ele>
        <time>2026-06-17T10:08:55.000Z</time>
        <extensions>
          <ns3:TrackPointExtension>
            <ns3:atemp>21.0</ns3:atemp>
          </ns3:TrackPointExtension>
        </extensions>
      </trkpt>
      <trkpt lat="42.5127944536507129669189453125" lon="19.93632920086383819580078125">
        <ele>1869.800048828125</ele>
        <time>2026-06-17T10:08:56.000Z</time>
        <extensions>
          <ns3:TrackPointExtension>
            <ns3:atemp>21.0</ns3:atemp>
          </ns3:TrackPointExtension>
        </extensions>
      </trkpt>
      <trkpt lat="42.5127944536507129669189453125" lon="19.93632920086383819580078125">
        <ele>1869.800048828125</ele>
        <time>2026-06-17T10:08:57.000Z</time>
        <extensions>
          <ns3:TrackPointExtension>
            <ns3:atemp>21.0</ns3:atemp>
          </ns3:TrackPointExtension>
        </extensions>
      </trkpt>
      <trkpt lat="42.5127944536507129669189453125" lon="19.93632920086383819580078125">
        <ele>1869.800048828125</ele>
        <time>2026-06-17T10:08:58.000Z</time>
        <extensions>
          <ns3:TrackPointExtension>
            <ns3:atemp>21.0</ns3:atemp>
          </ns3:TrackPointExtension>
        </extensions>
      </trkpt>
      <trkpt lat="42.5127944536507129669189453125" lon="19.93632920086383819580078125">
        <ele>1869.800048828125</ele>
        <time>2026-06-17T10:08:59.000Z</time>
        <extensions>
          <ns3:TrackPointExtension>
            <ns3:atemp>21.0</ns3:atemp>
          </ns3:TrackPointExtension>
        </extensions>
      </trkpt>
      <trkpt lat="42.5127944536507129669189453125" lon="19.93632920086383819580078125">
        <ele>1869.800048828125</ele>
        <time>2026-06-17T10:09:00.000Z</time>
        <extensions>
          <ns3:TrackPointExtension>
            <ns3:atemp>21.0</ns3:atemp>
          </ns3:TrackPointExtension>
        </extensions>
      </trkpt>
      <trkpt lat="42.5127944536507129669189453125" lon="19.93632920086383819580078125">
        <ele>1869.800048828125</ele>
        <time>2026-06-17T10:09:01.000Z</time>
        <extensions>
          <ns3:TrackPointExtension>
            <ns3:atemp>21.0</ns3:atemp>
          </ns3:TrackPointExtension>
        </extensions>
      </trkpt>
      <trkpt lat="42.5127944536507129669189453125" lon="19.93632920086383819580078125">
        <ele>1869.800048828125</ele>
        <time>2026-06-17T10:09:02.000Z</time>
        <extensions>
          <ns3:TrackPointExtension>
            <ns3:atemp>21.0</ns3:atemp>
          </ns3:TrackPointExtension>
        </extensions>
      </trkpt>
      <trkpt lat="42.5127944536507129669189453125" lon="19.93632920086383819580078125">
        <ele>1869.800048828125</ele>
        <time>2026-06-17T10:09:03.000Z</time>
        <extensions>
          <ns3:TrackPointExtension>
            <ns3:atemp>21.0</ns3:atemp>
          </ns3:TrackPointExtension>
        </extensions>
      </trkpt>
      <trkpt lat="42.5127944536507129669189453125" lon="19.93632920086383819580078125">
        <ele>1869.800048828125</ele>
        <time>2026-06-17T10:09:04.000Z</time>
        <extensions>
          <ns3:TrackPointExtension>
            <ns3:atemp>21.0</ns3:atemp>
          </ns3:TrackPointExtension>
        </extensions>
      </trkpt>
      <trkpt lat="42.5127944536507129669189453125" lon="19.93632920086383819580078125">
        <ele>1869.800048828125</ele>
        <time>2026-06-17T10:09:05.000Z</time>
        <extensions>
          <ns3:TrackPointExtension>
            <ns3:atemp>21.0</ns3:atemp>
          </ns3:TrackPointExtension>
        </extensions>
      </trkpt>
      <trkpt lat="42.5127944536507129669189453125" lon="19.93632920086383819580078125">
        <ele>1869.800048828125</ele>
        <time>2026-06-17T10:09:06.000Z</time>
        <extensions>
          <ns3:TrackPointExtension>
            <ns3:atemp>21.0</ns3:atemp>
          </ns3:TrackPointExtension>
        </extensions>
      </trkpt>
      <trkpt lat="42.5127944536507129669189453125" lon="19.93632920086383819580078125">
        <ele>1869.800048828125</ele>
        <time>2026-06-17T10:09:07.000Z</time>
        <extensions>
          <ns3:TrackPointExtension>
            <ns3:atemp>21.0</ns3:atemp>
          </ns3:TrackPointExtension>
        </extensions>
      </trkpt>
      <trkpt lat="42.5127944536507129669189453125" lon="19.93632920086383819580078125">
        <ele>1869.800048828125</ele>
        <time>2026-06-17T10:09:08.000Z</time>
        <extensions>
          <ns3:TrackPointExtension>
            <ns3:atemp>21.0</ns3:atemp>
          </ns3:TrackPointExtension>
        </extensions>
      </trkpt>
      <trkpt lat="42.5127944536507129669189453125" lon="19.93632920086383819580078125">
        <ele>1869.800048828125</ele>
        <time>2026-06-17T10:09:09.000Z</time>
        <extensions>
          <ns3:TrackPointExtension>
            <ns3:atemp>21.0</ns3:atemp>
          </ns3:TrackPointExtension>
        </extensions>
      </trkpt>
      <trkpt lat="42.5127944536507129669189453125" lon="19.93632920086383819580078125">
        <ele>1869.800048828125</ele>
        <time>2026-06-17T10:09:10.000Z</time>
        <extensions>
          <ns3:TrackPointExtension>
            <ns3:atemp>21.0</ns3:atemp>
          </ns3:TrackPointExtension>
        </extensions>
      </trkpt>
      <trkpt lat="42.5127944536507129669189453125" lon="19.93632920086383819580078125">
        <ele>1869.800048828125</ele>
        <time>2026-06-17T10:09:11.000Z</time>
        <extensions>
          <ns3:TrackPointExtension>
            <ns3:atemp>21.0</ns3:atemp>
          </ns3:TrackPointExtension>
        </extensions>
      </trkpt>
      <trkpt lat="42.5127944536507129669189453125" lon="19.93632920086383819580078125">
        <ele>1869.800048828125</ele>
        <time>2026-06-17T10:09:12.000Z</time>
        <extensions>
          <ns3:TrackPointExtension>
            <ns3:atemp>21.0</ns3:atemp>
          </ns3:TrackPointExtension>
        </extensions>
      </trkpt>
      <trkpt lat="42.5127944536507129669189453125" lon="19.93632920086383819580078125">
        <ele>1869.800048828125</ele>
        <time>2026-06-17T10:09:13.000Z</time>
        <extensions>
          <ns3:TrackPointExtension>
            <ns3:atemp>21.0</ns3:atemp>
          </ns3:TrackPointExtension>
        </extensions>
      </trkpt>
      <trkpt lat="42.5127944536507129669189453125" lon="19.93632920086383819580078125">
        <ele>1869.800048828125</ele>
        <time>2026-06-17T10:09:14.000Z</time>
        <extensions>
          <ns3:TrackPointExtension>
            <ns3:atemp>21.0</ns3:atemp>
          </ns3:TrackPointExtension>
        </extensions>
      </trkpt>
      <trkpt lat="42.5127944536507129669189453125" lon="19.93632920086383819580078125">
        <ele>1869.800048828125</ele>
        <time>2026-06-17T10:09:15.000Z</time>
        <extensions>
          <ns3:TrackPointExtension>
            <ns3:atemp>21.0</ns3:atemp>
          </ns3:TrackPointExtension>
        </extensions>
      </trkpt>
      <trkpt lat="42.5127944536507129669189453125" lon="19.93632920086383819580078125">
        <ele>1869.5999755859375</ele>
        <time>2026-06-17T10:09:16.000Z</time>
        <extensions>
          <ns3:TrackPointExtension>
            <ns3:atemp>21.0</ns3:atemp>
          </ns3:TrackPointExtension>
        </extensions>
      </trkpt>
      <trkpt lat="42.5127944536507129669189453125" lon="19.93632920086383819580078125">
        <ele>1869.5999755859375</ele>
        <time>2026-06-17T10:09:17.000Z</time>
        <extensions>
          <ns3:TrackPointExtension>
            <ns3:atemp>21.0</ns3:atemp>
          </ns3:TrackPointExtension>
        </extensions>
      </trkpt>
      <trkpt lat="42.5127944536507129669189453125" lon="19.93632920086383819580078125">
        <ele>1869.5999755859375</ele>
        <time>2026-06-17T10:09:18.000Z</time>
        <extensions>
          <ns3:TrackPointExtension>
            <ns3:atemp>21.0</ns3:atemp>
          </ns3:TrackPointExtension>
        </extensions>
      </trkpt>
      <trkpt lat="42.5127944536507129669189453125" lon="19.93632920086383819580078125">
        <ele>1869.5999755859375</ele>
        <time>2026-06-17T10:09:19.000Z</time>
        <extensions>
          <ns3:TrackPointExtension>
            <ns3:atemp>21.0</ns3:atemp>
          </ns3:TrackPointExtension>
        </extensions>
      </trkpt>
      <trkpt lat="42.5127944536507129669189453125" lon="19.93632920086383819580078125">
        <ele>1869.5999755859375</ele>
        <time>2026-06-17T10:09:20.000Z</time>
        <extensions>
          <ns3:TrackPointExtension>
            <ns3:atemp>21.0</ns3:atemp>
          </ns3:TrackPointExtension>
        </extensions>
      </trkpt>
      <trkpt lat="42.5127944536507129669189453125" lon="19.93632920086383819580078125">
        <ele>1869.5999755859375</ele>
        <time>2026-06-17T10:09:21.000Z</time>
        <extensions>
          <ns3:TrackPointExtension>
            <ns3:atemp>21.0</ns3:atemp>
          </ns3:TrackPointExtension>
        </extensions>
      </trkpt>
      <trkpt lat="42.5127944536507129669189453125" lon="19.93632920086383819580078125">
        <ele>1869.5999755859375</ele>
        <time>2026-06-17T10:09:22.000Z</time>
        <extensions>
          <ns3:TrackPointExtension>
            <ns3:atemp>21.0</ns3:atemp>
          </ns3:TrackPointExtension>
        </extensions>
      </trkpt>
      <trkpt lat="42.5127944536507129669189453125" lon="19.93632920086383819580078125">
        <ele>1869.5999755859375</ele>
        <time>2026-06-17T10:09:23.000Z</time>
        <extensions>
          <ns3:TrackPointExtension>
            <ns3:atemp>21.0</ns3:atemp>
          </ns3:TrackPointExtension>
        </extensions>
      </trkpt>
      <trkpt lat="42.5127944536507129669189453125" lon="19.93632920086383819580078125">
        <ele>1869.5999755859375</ele>
        <time>2026-06-17T10:09:24.000Z</time>
        <extensions>
          <ns3:TrackPointExtension>
            <ns3:atemp>20.0</ns3:atemp>
          </ns3:TrackPointExtension>
        </extensions>
      </trkpt>
      <trkpt lat="42.5127944536507129669189453125" lon="19.93632920086383819580078125">
        <ele>1869.5999755859375</ele>
        <time>2026-06-17T10:09:25.000Z</time>
        <extensions>
          <ns3:TrackPointExtension>
            <ns3:atemp>20.0</ns3:atemp>
          </ns3:TrackPointExtension>
        </extensions>
      </trkpt>
      <trkpt lat="42.5127944536507129669189453125" lon="19.93632920086383819580078125">
        <ele>1869.5999755859375</ele>
        <time>2026-06-17T10:09:26.000Z</time>
        <extensions>
          <ns3:TrackPointExtension>
            <ns3:atemp>20.0</ns3:atemp>
          </ns3:TrackPointExtension>
        </extensions>
      </trkpt>
      <trkpt lat="42.5127944536507129669189453125" lon="19.93632920086383819580078125">
        <ele>1869.5999755859375</ele>
        <time>2026-06-17T10:09:27.000Z</time>
        <extensions>
          <ns3:TrackPointExtension>
            <ns3:atemp>20.0</ns3:atemp>
          </ns3:TrackPointExtension>
        </extensions>
      </trkpt>
      <trkpt lat="42.5127944536507129669189453125" lon="19.93632920086383819580078125">
        <ele>1869.5999755859375</ele>
        <time>2026-06-17T10:09:28.000Z</time>
        <extensions>
          <ns3:TrackPointExtension>
            <ns3:atemp>20.0</ns3:atemp>
          </ns3:TrackPointExtension>
        </extensions>
      </trkpt>
      <trkpt lat="42.5127944536507129669189453125" lon="19.93632920086383819580078125">
        <ele>1869.5999755859375</ele>
        <time>2026-06-17T10:09:29.000Z</time>
        <extensions>
          <ns3:TrackPointExtension>
            <ns3:atemp>20.0</ns3:atemp>
          </ns3:TrackPointExtension>
        </extensions>
      </trkpt>
      <trkpt lat="42.5127944536507129669189453125" lon="19.93632920086383819580078125">
        <ele>1869.5999755859375</ele>
        <time>2026-06-17T10:09:30.000Z</time>
        <extensions>
          <ns3:TrackPointExtension>
            <ns3:atemp>20.0</ns3:atemp>
          </ns3:TrackPointExtension>
        </extensions>
      </trkpt>
      <trkpt lat="42.5127944536507129669189453125" lon="19.93632920086383819580078125">
        <ele>1869.5999755859375</ele>
        <time>2026-06-17T10:09:31.000Z</time>
        <extensions>
          <ns3:TrackPointExtension>
            <ns3:atemp>20.0</ns3:atemp>
          </ns3:TrackPointExtension>
        </extensions>
      </trkpt>
      <trkpt lat="42.5127944536507129669189453125" lon="19.93632920086383819580078125">
        <ele>1869.5999755859375</ele>
        <time>2026-06-17T10:09:32.000Z</time>
        <extensions>
          <ns3:TrackPointExtension>
            <ns3:atemp>20.0</ns3:atemp>
          </ns3:TrackPointExtension>
        </extensions>
      </trkpt>
      <trkpt lat="42.5127944536507129669189453125" lon="19.93632920086383819580078125">
        <ele>1869.5999755859375</ele>
        <time>2026-06-17T10:09:33.000Z</time>
        <extensions>
          <ns3:TrackPointExtension>
            <ns3:atemp>20.0</ns3:atemp>
          </ns3:TrackPointExtension>
        </extensions>
      </trkpt>
      <trkpt lat="42.5127944536507129669189453125" lon="19.93632920086383819580078125">
        <ele>1869.5999755859375</ele>
        <time>2026-06-17T10:09:34.000Z</time>
        <extensions>
          <ns3:TrackPointExtension>
            <ns3:atemp>21.0</ns3:atemp>
          </ns3:TrackPointExtension>
        </extensions>
      </trkpt>
      <trkpt lat="42.5127944536507129669189453125" lon="19.93632920086383819580078125">
        <ele>1869.5999755859375</ele>
        <time>2026-06-17T10:09:35.000Z</time>
        <extensions>
          <ns3:TrackPointExtension>
            <ns3:atemp>20.0</ns3:atemp>
          </ns3:TrackPointExtension>
        </extensions>
      </trkpt>
      <trkpt lat="42.5127944536507129669189453125" lon="19.93632920086383819580078125">
        <ele>1869.5999755859375</ele>
        <time>2026-06-17T10:09:36.000Z</time>
        <extensions>
          <ns3:TrackPointExtension>
            <ns3:atemp>20.0</ns3:atemp>
          </ns3:TrackPointExtension>
        </extensions>
      </trkpt>
      <trkpt lat="42.5127944536507129669189453125" lon="19.93632920086383819580078125">
        <ele>1869.5999755859375</ele>
        <time>2026-06-17T10:09:37.000Z</time>
        <extensions>
          <ns3:TrackPointExtension>
            <ns3:atemp>20.0</ns3:atemp>
          </ns3:TrackPointExtension>
        </extensions>
      </trkpt>
      <trkpt lat="42.5127944536507129669189453125" lon="19.93632920086383819580078125">
        <ele>1869.5999755859375</ele>
        <time>2026-06-17T10:09:38.000Z</time>
        <extensions>
          <ns3:TrackPointExtension>
            <ns3:atemp>20.0</ns3:atemp>
          </ns3:TrackPointExtension>
        </extensions>
      </trkpt>
      <trkpt lat="42.5127944536507129669189453125" lon="19.93632920086383819580078125">
        <ele>1869.5999755859375</ele>
        <time>2026-06-17T10:09:39.000Z</time>
        <extensions>
          <ns3:TrackPointExtension>
            <ns3:atemp>20.0</ns3:atemp>
          </ns3:TrackPointExtension>
        </extensions>
      </trkpt>
      <trkpt lat="42.5127944536507129669189453125" lon="19.93632920086383819580078125">
        <ele>1869.5999755859375</ele>
        <time>2026-06-17T10:09:40.000Z</time>
        <extensions>
          <ns3:TrackPointExtension>
            <ns3:atemp>20.0</ns3:atemp>
          </ns3:TrackPointExtension>
        </extensions>
      </trkpt>
      <trkpt lat="42.5127944536507129669189453125" lon="19.93632920086383819580078125">
        <ele>1869.5999755859375</ele>
        <time>2026-06-17T10:09:41.000Z</time>
        <extensions>
          <ns3:TrackPointExtension>
            <ns3:atemp>20.0</ns3:atemp>
          </ns3:TrackPointExtension>
        </extensions>
      </trkpt>
      <trkpt lat="42.5127944536507129669189453125" lon="19.93632920086383819580078125">
        <ele>1869.5999755859375</ele>
        <time>2026-06-17T10:09:42.000Z</time>
        <extensions>
          <ns3:TrackPointExtension>
            <ns3:atemp>20.0</ns3:atemp>
          </ns3:TrackPointExtension>
        </extensions>
      </trkpt>
      <trkpt lat="42.5127944536507129669189453125" lon="19.93632920086383819580078125">
        <ele>1869.5999755859375</ele>
        <time>2026-06-17T10:09:43.000Z</time>
        <extensions>
          <ns3:TrackPointExtension>
            <ns3:atemp>20.0</ns3:atemp>
          </ns3:TrackPointExtension>
        </extensions>
      </trkpt>
      <trkpt lat="42.5127944536507129669189453125" lon="19.93632920086383819580078125">
        <ele>1869.5999755859375</ele>
        <time>2026-06-17T10:09:44.000Z</time>
        <extensions>
          <ns3:TrackPointExtension>
            <ns3:atemp>20.0</ns3:atemp>
          </ns3:TrackPointExtension>
        </extensions>
      </trkpt>
      <trkpt lat="42.5127944536507129669189453125" lon="19.93632920086383819580078125">
        <ele>1869.5999755859375</ele>
        <time>2026-06-17T10:09:45.000Z</time>
        <extensions>
          <ns3:TrackPointExtension>
            <ns3:atemp>20.0</ns3:atemp>
          </ns3:TrackPointExtension>
        </extensions>
      </trkpt>
      <trkpt lat="42.5127944536507129669189453125" lon="19.93632920086383819580078125">
        <ele>1869.5999755859375</ele>
        <time>2026-06-17T10:09:46.000Z</time>
        <extensions>
          <ns3:TrackPointExtension>
            <ns3:atemp>20.0</ns3:atemp>
          </ns3:TrackPointExtension>
        </extensions>
      </trkpt>
      <trkpt lat="42.5127944536507129669189453125" lon="19.93632920086383819580078125">
        <ele>1869.5999755859375</ele>
        <time>2026-06-17T10:09:47.000Z</time>
        <extensions>
          <ns3:TrackPointExtension>
            <ns3:atemp>20.0</ns3:atemp>
          </ns3:TrackPointExtension>
        </extensions>
      </trkpt>
      <trkpt lat="42.5127944536507129669189453125" lon="19.93632920086383819580078125">
        <ele>1869.5999755859375</ele>
        <time>2026-06-17T10:09:48.000Z</time>
        <extensions>
          <ns3:TrackPointExtension>
            <ns3:atemp>20.0</ns3:atemp>
          </ns3:TrackPointExtension>
        </extensions>
      </trkpt>
      <trkpt lat="42.5127944536507129669189453125" lon="19.93632920086383819580078125">
        <ele>1869.5999755859375</ele>
        <time>2026-06-17T10:09:49.000Z</time>
        <extensions>
          <ns3:TrackPointExtension>
            <ns3:atemp>20.0</ns3:atemp>
          </ns3:TrackPointExtension>
        </extensions>
      </trkpt>
      <trkpt lat="42.5127944536507129669189453125" lon="19.93632920086383819580078125">
        <ele>1869.5999755859375</ele>
        <time>2026-06-17T10:09:50.000Z</time>
        <extensions>
          <ns3:TrackPointExtension>
            <ns3:atemp>20.0</ns3:atemp>
          </ns3:TrackPointExtension>
        </extensions>
      </trkpt>
      <trkpt lat="42.5127944536507129669189453125" lon="19.93632920086383819580078125">
        <ele>1869.5999755859375</ele>
        <time>2026-06-17T10:09:51.000Z</time>
        <extensions>
          <ns3:TrackPointExtension>
            <ns3:atemp>20.0</ns3:atemp>
          </ns3:TrackPointExtension>
        </extensions>
      </trkpt>
      <trkpt lat="42.5127944536507129669189453125" lon="19.93632920086383819580078125">
        <ele>1869.5999755859375</ele>
        <time>2026-06-17T10:09:52.000Z</time>
        <extensions>
          <ns3:TrackPointExtension>
            <ns3:atemp>20.0</ns3:atemp>
          </ns3:TrackPointExtension>
        </extensions>
      </trkpt>
      <trkpt lat="42.5127944536507129669189453125" lon="19.93632920086383819580078125">
        <ele>1869.5999755859375</ele>
        <time>2026-06-17T10:09:53.000Z</time>
        <extensions>
          <ns3:TrackPointExtension>
            <ns3:atemp>20.0</ns3:atemp>
          </ns3:TrackPointExtension>
        </extensions>
      </trkpt>
      <trkpt lat="42.5127944536507129669189453125" lon="19.93632920086383819580078125">
        <ele>1869.5999755859375</ele>
        <time>2026-06-17T10:09:54.000Z</time>
        <extensions>
          <ns3:TrackPointExtension>
            <ns3:atemp>20.0</ns3:atemp>
          </ns3:TrackPointExtension>
        </extensions>
      </trkpt>
      <trkpt lat="42.5127944536507129669189453125" lon="19.93632920086383819580078125">
        <ele>1869.5999755859375</ele>
        <time>2026-06-17T10:09:55.000Z</time>
        <extensions>
          <ns3:TrackPointExtension>
            <ns3:atemp>20.0</ns3:atemp>
          </ns3:TrackPointExtension>
        </extensions>
      </trkpt>
      <trkpt lat="42.5127944536507129669189453125" lon="19.93632920086383819580078125">
        <ele>1869.5999755859375</ele>
        <time>2026-06-17T10:09:56.000Z</time>
        <extensions>
          <ns3:TrackPointExtension>
            <ns3:atemp>20.0</ns3:atemp>
          </ns3:TrackPointExtension>
        </extensions>
      </trkpt>
      <trkpt lat="42.5127944536507129669189453125" lon="19.93632920086383819580078125">
        <ele>1869.5999755859375</ele>
        <time>2026-06-17T10:09:57.000Z</time>
        <extensions>
          <ns3:TrackPointExtension>
            <ns3:atemp>20.0</ns3:atemp>
          </ns3:TrackPointExtension>
        </extensions>
      </trkpt>
      <trkpt lat="42.5127944536507129669189453125" lon="19.93632920086383819580078125">
        <ele>1869.5999755859375</ele>
        <time>2026-06-17T10:09:58.000Z</time>
        <extensions>
          <ns3:TrackPointExtension>
            <ns3:atemp>20.0</ns3:atemp>
          </ns3:TrackPointExtension>
        </extensions>
      </trkpt>
      <trkpt lat="42.5127944536507129669189453125" lon="19.93632920086383819580078125">
        <ele>1869.5999755859375</ele>
        <time>2026-06-17T10:09:59.000Z</time>
        <extensions>
          <ns3:TrackPointExtension>
            <ns3:atemp>20.0</ns3:atemp>
          </ns3:TrackPointExtension>
        </extensions>
      </trkpt>
      <trkpt lat="42.5127944536507129669189453125" lon="19.93632920086383819580078125">
        <ele>1869.5999755859375</ele>
        <time>2026-06-17T10:10:00.000Z</time>
        <extensions>
          <ns3:TrackPointExtension>
            <ns3:atemp>20.0</ns3:atemp>
          </ns3:TrackPointExtension>
        </extensions>
      </trkpt>
      <trkpt lat="42.5127944536507129669189453125" lon="19.93632920086383819580078125">
        <ele>1869.5999755859375</ele>
        <time>2026-06-17T10:10:01.000Z</time>
        <extensions>
          <ns3:TrackPointExtension>
            <ns3:atemp>20.0</ns3:atemp>
          </ns3:TrackPointExtension>
        </extensions>
      </trkpt>
      <trkpt lat="42.5127944536507129669189453125" lon="19.93632920086383819580078125">
        <ele>1869.5999755859375</ele>
        <time>2026-06-17T10:10:02.000Z</time>
        <extensions>
          <ns3:TrackPointExtension>
            <ns3:atemp>20.0</ns3:atemp>
          </ns3:TrackPointExtension>
        </extensions>
      </trkpt>
      <trkpt lat="42.5127944536507129669189453125" lon="19.93632920086383819580078125">
        <ele>1869.5999755859375</ele>
        <time>2026-06-17T10:10:03.000Z</time>
        <extensions>
          <ns3:TrackPointExtension>
            <ns3:atemp>20.0</ns3:atemp>
          </ns3:TrackPointExtension>
        </extensions>
      </trkpt>
      <trkpt lat="42.5127944536507129669189453125" lon="19.93632920086383819580078125">
        <ele>1869.5999755859375</ele>
        <time>2026-06-17T10:10:04.000Z</time>
        <extensions>
          <ns3:TrackPointExtension>
            <ns3:atemp>20.0</ns3:atemp>
          </ns3:TrackPointExtension>
        </extensions>
      </trkpt>
      <trkpt lat="42.5127944536507129669189453125" lon="19.93632920086383819580078125">
        <ele>1869.5999755859375</ele>
        <time>2026-06-17T10:10:05.000Z</time>
        <extensions>
          <ns3:TrackPointExtension>
            <ns3:atemp>20.0</ns3:atemp>
          </ns3:TrackPointExtension>
        </extensions>
      </trkpt>
      <trkpt lat="42.5127944536507129669189453125" lon="19.93632920086383819580078125">
        <ele>1869.5999755859375</ele>
        <time>2026-06-17T10:10:06.000Z</time>
        <extensions>
          <ns3:TrackPointExtension>
            <ns3:atemp>20.0</ns3:atemp>
          </ns3:TrackPointExtension>
        </extensions>
      </trkpt>
      <trkpt lat="42.5127944536507129669189453125" lon="19.93632920086383819580078125">
        <ele>1869.5999755859375</ele>
        <time>2026-06-17T10:10:07.000Z</time>
        <extensions>
          <ns3:TrackPointExtension>
            <ns3:atemp>20.0</ns3:atemp>
          </ns3:TrackPointExtension>
        </extensions>
      </trkpt>
      <trkpt lat="42.5127944536507129669189453125" lon="19.93632920086383819580078125">
        <ele>1869.5999755859375</ele>
        <time>2026-06-17T10:10:08.000Z</time>
        <extensions>
          <ns3:TrackPointExtension>
            <ns3:atemp>20.0</ns3:atemp>
          </ns3:TrackPointExtension>
        </extensions>
      </trkpt>
      <trkpt lat="42.5127944536507129669189453125" lon="19.93632920086383819580078125">
        <ele>1869.5999755859375</ele>
        <time>2026-06-17T10:10:09.000Z</time>
        <extensions>
          <ns3:TrackPointExtension>
            <ns3:atemp>20.0</ns3:atemp>
          </ns3:TrackPointExtension>
        </extensions>
      </trkpt>
      <trkpt lat="42.5127944536507129669189453125" lon="19.93632920086383819580078125">
        <ele>1869.5999755859375</ele>
        <time>2026-06-17T10:10:10.000Z</time>
        <extensions>
          <ns3:TrackPointExtension>
            <ns3:atemp>20.0</ns3:atemp>
          </ns3:TrackPointExtension>
        </extensions>
      </trkpt>
      <trkpt lat="42.5127944536507129669189453125" lon="19.93632920086383819580078125">
        <ele>1869.5999755859375</ele>
        <time>2026-06-17T10:10:11.000Z</time>
        <extensions>
          <ns3:TrackPointExtension>
            <ns3:atemp>20.0</ns3:atemp>
          </ns3:TrackPointExtension>
        </extensions>
      </trkpt>
      <trkpt lat="42.5127944536507129669189453125" lon="19.93632920086383819580078125">
        <ele>1869.5999755859375</ele>
        <time>2026-06-17T10:10:12.000Z</time>
        <extensions>
          <ns3:TrackPointExtension>
            <ns3:atemp>20.0</ns3:atemp>
          </ns3:TrackPointExtension>
        </extensions>
      </trkpt>
      <trkpt lat="42.5127944536507129669189453125" lon="19.93632920086383819580078125">
        <ele>1869.5999755859375</ele>
        <time>2026-06-17T10:10:13.000Z</time>
        <extensions>
          <ns3:TrackPointExtension>
            <ns3:atemp>20.0</ns3:atemp>
          </ns3:TrackPointExtension>
        </extensions>
      </trkpt>
      <trkpt lat="42.5127944536507129669189453125" lon="19.93632920086383819580078125">
        <ele>1869.5999755859375</ele>
        <time>2026-06-17T10:10:14.000Z</time>
        <extensions>
          <ns3:TrackPointExtension>
            <ns3:atemp>20.0</ns3:atemp>
          </ns3:TrackPointExtension>
        </extensions>
      </trkpt>
      <trkpt lat="42.5127944536507129669189453125" lon="19.93632920086383819580078125">
        <ele>1869.5999755859375</ele>
        <time>2026-06-17T10:10:15.000Z</time>
        <extensions>
          <ns3:TrackPointExtension>
            <ns3:atemp>20.0</ns3:atemp>
          </ns3:TrackPointExtension>
        </extensions>
      </trkpt>
      <trkpt lat="42.5127944536507129669189453125" lon="19.93632920086383819580078125">
        <ele>1869.5999755859375</ele>
        <time>2026-06-17T10:10:16.000Z</time>
        <extensions>
          <ns3:TrackPointExtension>
            <ns3:atemp>20.0</ns3:atemp>
          </ns3:TrackPointExtension>
        </extensions>
      </trkpt>
      <trkpt lat="42.5127944536507129669189453125" lon="19.93632920086383819580078125">
        <ele>1869.5999755859375</ele>
        <time>2026-06-17T10:10:17.000Z</time>
        <extensions>
          <ns3:TrackPointExtension>
            <ns3:atemp>20.0</ns3:atemp>
          </ns3:TrackPointExtension>
        </extensions>
      </trkpt>
      <trkpt lat="42.5127944536507129669189453125" lon="19.93632920086383819580078125">
        <ele>1869.5999755859375</ele>
        <time>2026-06-17T10:10:18.000Z</time>
        <extensions>
          <ns3:TrackPointExtension>
            <ns3:atemp>20.0</ns3:atemp>
          </ns3:TrackPointExtension>
        </extensions>
      </trkpt>
      <trkpt lat="42.5127944536507129669189453125" lon="19.93632920086383819580078125">
        <ele>1869.5999755859375</ele>
        <time>2026-06-17T10:10:19.000Z</time>
        <extensions>
          <ns3:TrackPointExtension>
            <ns3:atemp>20.0</ns3:atemp>
          </ns3:TrackPointExtension>
        </extensions>
      </trkpt>
      <trkpt lat="42.5127944536507129669189453125" lon="19.93632920086383819580078125">
        <ele>1869.5999755859375</ele>
        <time>2026-06-17T10:10:20.000Z</time>
        <extensions>
          <ns3:TrackPointExtension>
            <ns3:atemp>20.0</ns3:atemp>
          </ns3:TrackPointExtension>
        </extensions>
      </trkpt>
      <trkpt lat="42.5127944536507129669189453125" lon="19.93632920086383819580078125">
        <ele>1869.5999755859375</ele>
        <time>2026-06-17T10:10:21.000Z</time>
        <extensions>
          <ns3:TrackPointExtension>
            <ns3:atemp>20.0</ns3:atemp>
          </ns3:TrackPointExtension>
        </extensions>
      </trkpt>
      <trkpt lat="42.5127944536507129669189453125" lon="19.93632920086383819580078125">
        <ele>1869.5999755859375</ele>
        <time>2026-06-17T10:10:22.000Z</time>
        <extensions>
          <ns3:TrackPointExtension>
            <ns3:atemp>20.0</ns3:atemp>
          </ns3:TrackPointExtension>
        </extensions>
      </trkpt>
      <trkpt lat="42.5127944536507129669189453125" lon="19.93632920086383819580078125">
        <ele>1869.5999755859375</ele>
        <time>2026-06-17T10:10:23.000Z</time>
        <extensions>
          <ns3:TrackPointExtension>
            <ns3:atemp>20.0</ns3:atemp>
          </ns3:TrackPointExtension>
        </extensions>
      </trkpt>
      <trkpt lat="42.5127944536507129669189453125" lon="19.93632920086383819580078125">
        <ele>1869.5999755859375</ele>
        <time>2026-06-17T10:10:24.000Z</time>
        <extensions>
          <ns3:TrackPointExtension>
            <ns3:atemp>20.0</ns3:atemp>
          </ns3:TrackPointExtension>
        </extensions>
      </trkpt>
      <trkpt lat="42.5127944536507129669189453125" lon="19.93632920086383819580078125">
        <ele>1869.5999755859375</ele>
        <time>2026-06-17T10:10:25.000Z</time>
        <extensions>
          <ns3:TrackPointExtension>
            <ns3:atemp>20.0</ns3:atemp>
          </ns3:TrackPointExtension>
        </extensions>
      </trkpt>
      <trkpt lat="42.5127944536507129669189453125" lon="19.93632920086383819580078125">
        <ele>1869.5999755859375</ele>
        <time>2026-06-17T10:10:26.000Z</time>
        <extensions>
          <ns3:TrackPointExtension>
            <ns3:atemp>20.0</ns3:atemp>
          </ns3:TrackPointExtension>
        </extensions>
      </trkpt>
      <trkpt lat="42.5127944536507129669189453125" lon="19.93632920086383819580078125">
        <ele>1869.5999755859375</ele>
        <time>2026-06-17T10:10:27.000Z</time>
        <extensions>
          <ns3:TrackPointExtension>
            <ns3:atemp>20.0</ns3:atemp>
          </ns3:TrackPointExtension>
        </extensions>
      </trkpt>
      <trkpt lat="42.5127944536507129669189453125" lon="19.93632920086383819580078125">
        <ele>1869.5999755859375</ele>
        <time>2026-06-17T10:10:28.000Z</time>
        <extensions>
          <ns3:TrackPointExtension>
            <ns3:atemp>20.0</ns3:atemp>
          </ns3:TrackPointExtension>
        </extensions>
      </trkpt>
      <trkpt lat="42.5127944536507129669189453125" lon="19.93632920086383819580078125">
        <ele>1869.5999755859375</ele>
        <time>2026-06-17T10:10:29.000Z</time>
        <extensions>
          <ns3:TrackPointExtension>
            <ns3:atemp>20.0</ns3:atemp>
          </ns3:TrackPointExtension>
        </extensions>
      </trkpt>
      <trkpt lat="42.5127944536507129669189453125" lon="19.93632920086383819580078125">
        <ele>1869.5999755859375</ele>
        <time>2026-06-17T10:10:30.000Z</time>
        <extensions>
          <ns3:TrackPointExtension>
            <ns3:atemp>20.0</ns3:atemp>
          </ns3:TrackPointExtension>
        </extensions>
      </trkpt>
      <trkpt lat="42.5127944536507129669189453125" lon="19.93632920086383819580078125">
        <ele>1869.5999755859375</ele>
        <time>2026-06-17T10:10:31.000Z</time>
        <extensions>
          <ns3:TrackPointExtension>
            <ns3:atemp>20.0</ns3:atemp>
          </ns3:TrackPointExtension>
        </extensions>
      </trkpt>
      <trkpt lat="42.5127944536507129669189453125" lon="19.93632920086383819580078125">
        <ele>1869.5999755859375</ele>
        <time>2026-06-17T10:10:32.000Z</time>
        <extensions>
          <ns3:TrackPointExtension>
            <ns3:atemp>20.0</ns3:atemp>
          </ns3:TrackPointExtension>
        </extensions>
      </trkpt>
      <trkpt lat="42.5127944536507129669189453125" lon="19.93632920086383819580078125">
        <ele>1869.5999755859375</ele>
        <time>2026-06-17T10:10:33.000Z</time>
        <extensions>
          <ns3:TrackPointExtension>
            <ns3:atemp>20.0</ns3:atemp>
          </ns3:TrackPointExtension>
        </extensions>
      </trkpt>
      <trkpt lat="42.5127944536507129669189453125" lon="19.93632920086383819580078125">
        <ele>1869.5999755859375</ele>
        <time>2026-06-17T10:10:34.000Z</time>
        <extensions>
          <ns3:TrackPointExtension>
            <ns3:atemp>20.0</ns3:atemp>
          </ns3:TrackPointExtension>
        </extensions>
      </trkpt>
      <trkpt lat="42.5127944536507129669189453125" lon="19.93632920086383819580078125">
        <ele>1869.5999755859375</ele>
        <time>2026-06-17T10:10:35.000Z</time>
        <extensions>
          <ns3:TrackPointExtension>
            <ns3:atemp>20.0</ns3:atemp>
          </ns3:TrackPointExtension>
        </extensions>
      </trkpt>
      <trkpt lat="42.5127944536507129669189453125" lon="19.93632920086383819580078125">
        <ele>1869.5999755859375</ele>
        <time>2026-06-17T10:10:36.000Z</time>
        <extensions>
          <ns3:TrackPointExtension>
            <ns3:atemp>20.0</ns3:atemp>
          </ns3:TrackPointExtension>
        </extensions>
      </trkpt>
      <trkpt lat="42.5127944536507129669189453125" lon="19.93632920086383819580078125">
        <ele>1869.5999755859375</ele>
        <time>2026-06-17T10:10:37.000Z</time>
        <extensions>
          <ns3:TrackPointExtension>
            <ns3:atemp>20.0</ns3:atemp>
          </ns3:TrackPointExtension>
        </extensions>
      </trkpt>
      <trkpt lat="42.5127944536507129669189453125" lon="19.93632920086383819580078125">
        <ele>1869.5999755859375</ele>
        <time>2026-06-17T10:10:38.000Z</time>
        <extensions>
          <ns3:TrackPointExtension>
            <ns3:atemp>20.0</ns3:atemp>
          </ns3:TrackPointExtension>
        </extensions>
      </trkpt>
      <trkpt lat="42.5127944536507129669189453125" lon="19.93632920086383819580078125">
        <ele>1869.5999755859375</ele>
        <time>2026-06-17T10:10:39.000Z</time>
        <extensions>
          <ns3:TrackPointExtension>
            <ns3:atemp>20.0</ns3:atemp>
          </ns3:TrackPointExtension>
        </extensions>
      </trkpt>
      <trkpt lat="42.5127944536507129669189453125" lon="19.93632920086383819580078125">
        <ele>1869.5999755859375</ele>
        <time>2026-06-17T10:10:40.000Z</time>
        <extensions>
          <ns3:TrackPointExtension>
            <ns3:atemp>20.0</ns3:atemp>
          </ns3:TrackPointExtension>
        </extensions>
      </trkpt>
      <trkpt lat="42.5127944536507129669189453125" lon="19.93632920086383819580078125">
        <ele>1869.5999755859375</ele>
        <time>2026-06-17T10:10:41.000Z</time>
        <extensions>
          <ns3:TrackPointExtension>
            <ns3:atemp>20.0</ns3:atemp>
          </ns3:TrackPointExtension>
        </extensions>
      </trkpt>
      <trkpt lat="42.5127944536507129669189453125" lon="19.93632920086383819580078125">
        <ele>1869.5999755859375</ele>
        <time>2026-06-17T10:10:42.000Z</time>
        <extensions>
          <ns3:TrackPointExtension>
            <ns3:atemp>20.0</ns3:atemp>
          </ns3:TrackPointExtension>
        </extensions>
      </trkpt>
      <trkpt lat="42.5127944536507129669189453125" lon="19.93632920086383819580078125">
        <ele>1869.5999755859375</ele>
        <time>2026-06-17T10:10:43.000Z</time>
        <extensions>
          <ns3:TrackPointExtension>
            <ns3:atemp>20.0</ns3:atemp>
          </ns3:TrackPointExtension>
        </extensions>
      </trkpt>
      <trkpt lat="42.5127944536507129669189453125" lon="19.93632920086383819580078125">
        <ele>1869.5999755859375</ele>
        <time>2026-06-17T10:10:44.000Z</time>
        <extensions>
          <ns3:TrackPointExtension>
            <ns3:atemp>20.0</ns3:atemp>
          </ns3:TrackPointExtension>
        </extensions>
      </trkpt>
      <trkpt lat="42.5127944536507129669189453125" lon="19.93632920086383819580078125">
        <ele>1869.5999755859375</ele>
        <time>2026-06-17T10:10:45.000Z</time>
        <extensions>
          <ns3:TrackPointExtension>
            <ns3:atemp>20.0</ns3:atemp>
          </ns3:TrackPointExtension>
        </extensions>
      </trkpt>
      <trkpt lat="42.5127944536507129669189453125" lon="19.93632920086383819580078125">
        <ele>1869.5999755859375</ele>
        <time>2026-06-17T10:10:46.000Z</time>
        <extensions>
          <ns3:TrackPointExtension>
            <ns3:atemp>20.0</ns3:atemp>
          </ns3:TrackPointExtension>
        </extensions>
      </trkpt>
      <trkpt lat="42.5127944536507129669189453125" lon="19.93632920086383819580078125">
        <ele>1869.5999755859375</ele>
        <time>2026-06-17T10:10:47.000Z</time>
        <extensions>
          <ns3:TrackPointExtension>
            <ns3:atemp>20.0</ns3:atemp>
          </ns3:TrackPointExtension>
        </extensions>
      </trkpt>
      <trkpt lat="42.5127944536507129669189453125" lon="19.93632920086383819580078125">
        <ele>1869.5999755859375</ele>
        <time>2026-06-17T10:10:48.000Z</time>
        <extensions>
          <ns3:TrackPointExtension>
            <ns3:atemp>20.0</ns3:atemp>
          </ns3:TrackPointExtension>
        </extensions>
      </trkpt>
      <trkpt lat="42.5127944536507129669189453125" lon="19.93632920086383819580078125">
        <ele>1869.5999755859375</ele>
        <time>2026-06-17T10:10:49.000Z</time>
        <extensions>
          <ns3:TrackPointExtension>
            <ns3:atemp>20.0</ns3:atemp>
          </ns3:TrackPointExtension>
        </extensions>
      </trkpt>
      <trkpt lat="42.5127944536507129669189453125" lon="19.93632920086383819580078125">
        <ele>1869.5999755859375</ele>
        <time>2026-06-17T10:10:50.000Z</time>
        <extensions>
          <ns3:TrackPointExtension>
            <ns3:atemp>20.0</ns3:atemp>
          </ns3:TrackPointExtension>
        </extensions>
      </trkpt>
      <trkpt lat="42.5127944536507129669189453125" lon="19.93632920086383819580078125">
        <ele>1869.5999755859375</ele>
        <time>2026-06-17T10:10:51.000Z</time>
        <extensions>
          <ns3:TrackPointExtension>
            <ns3:atemp>20.0</ns3:atemp>
          </ns3:TrackPointExtension>
        </extensions>
      </trkpt>
      <trkpt lat="42.5127944536507129669189453125" lon="19.93632920086383819580078125">
        <ele>1869.5999755859375</ele>
        <time>2026-06-17T10:10:52.000Z</time>
        <extensions>
          <ns3:TrackPointExtension>
            <ns3:atemp>20.0</ns3:atemp>
          </ns3:TrackPointExtension>
        </extensions>
      </trkpt>
      <trkpt lat="42.5127944536507129669189453125" lon="19.93632920086383819580078125">
        <ele>1869.5999755859375</ele>
        <time>2026-06-17T10:10:53.000Z</time>
        <extensions>
          <ns3:TrackPointExtension>
            <ns3:atemp>20.0</ns3:atemp>
          </ns3:TrackPointExtension>
        </extensions>
      </trkpt>
      <trkpt lat="42.5127944536507129669189453125" lon="19.93632920086383819580078125">
        <ele>1869.5999755859375</ele>
        <time>2026-06-17T10:10:54.000Z</time>
        <extensions>
          <ns3:TrackPointExtension>
            <ns3:atemp>20.0</ns3:atemp>
          </ns3:TrackPointExtension>
        </extensions>
      </trkpt>
      <trkpt lat="42.5127944536507129669189453125" lon="19.93632920086383819580078125">
        <ele>1869.5999755859375</ele>
        <time>2026-06-17T10:10:55.000Z</time>
        <extensions>
          <ns3:TrackPointExtension>
            <ns3:atemp>20.0</ns3:atemp>
          </ns3:TrackPointExtension>
        </extensions>
      </trkpt>
      <trkpt lat="42.5127944536507129669189453125" lon="19.93632920086383819580078125">
        <ele>1869.5999755859375</ele>
        <time>2026-06-17T10:10:56.000Z</time>
        <extensions>
          <ns3:TrackPointExtension>
            <ns3:atemp>20.0</ns3:atemp>
          </ns3:TrackPointExtension>
        </extensions>
      </trkpt>
      <trkpt lat="42.5127944536507129669189453125" lon="19.93632920086383819580078125">
        <ele>1869.5999755859375</ele>
        <time>2026-06-17T10:10:57.000Z</time>
        <extensions>
          <ns3:TrackPointExtension>
            <ns3:atemp>20.0</ns3:atemp>
          </ns3:TrackPointExtension>
        </extensions>
      </trkpt>
      <trkpt lat="42.5127944536507129669189453125" lon="19.93632920086383819580078125">
        <ele>1869.5999755859375</ele>
        <time>2026-06-17T10:10:58.000Z</time>
        <extensions>
          <ns3:TrackPointExtension>
            <ns3:atemp>20.0</ns3:atemp>
          </ns3:TrackPointExtension>
        </extensions>
      </trkpt>
      <trkpt lat="42.5127944536507129669189453125" lon="19.93632920086383819580078125">
        <ele>1869.5999755859375</ele>
        <time>2026-06-17T10:10:59.000Z</time>
        <extensions>
          <ns3:TrackPointExtension>
            <ns3:atemp>20.0</ns3:atemp>
          </ns3:TrackPointExtension>
        </extensions>
      </trkpt>
      <trkpt lat="42.5127944536507129669189453125" lon="19.93632920086383819580078125">
        <ele>1869.5999755859375</ele>
        <time>2026-06-17T10:11:00.000Z</time>
        <extensions>
          <ns3:TrackPointExtension>
            <ns3:atemp>20.0</ns3:atemp>
          </ns3:TrackPointExtension>
        </extensions>
      </trkpt>
      <trkpt lat="42.5127944536507129669189453125" lon="19.93632920086383819580078125">
        <ele>1869.5999755859375</ele>
        <time>2026-06-17T10:11:01.000Z</time>
        <extensions>
          <ns3:TrackPointExtension>
            <ns3:atemp>20.0</ns3:atemp>
          </ns3:TrackPointExtension>
        </extensions>
      </trkpt>
      <trkpt lat="42.5127944536507129669189453125" lon="19.93632920086383819580078125">
        <ele>1869.5999755859375</ele>
        <time>2026-06-17T10:11:02.000Z</time>
        <extensions>
          <ns3:TrackPointExtension>
            <ns3:atemp>20.0</ns3:atemp>
          </ns3:TrackPointExtension>
        </extensions>
      </trkpt>
      <trkpt lat="42.5127944536507129669189453125" lon="19.93632920086383819580078125">
        <ele>1869.5999755859375</ele>
        <time>2026-06-17T10:11:03.000Z</time>
        <extensions>
          <ns3:TrackPointExtension>
            <ns3:atemp>20.0</ns3:atemp>
          </ns3:TrackPointExtension>
        </extensions>
      </trkpt>
      <trkpt lat="42.5127944536507129669189453125" lon="19.93632920086383819580078125">
        <ele>1869.5999755859375</ele>
        <time>2026-06-17T10:11:04.000Z</time>
        <extensions>
          <ns3:TrackPointExtension>
            <ns3:atemp>20.0</ns3:atemp>
          </ns3:TrackPointExtension>
        </extensions>
      </trkpt>
      <trkpt lat="42.5127944536507129669189453125" lon="19.93632920086383819580078125">
        <ele>1869.5999755859375</ele>
        <time>2026-06-17T10:11:05.000Z</time>
        <extensions>
          <ns3:TrackPointExtension>
            <ns3:atemp>20.0</ns3:atemp>
          </ns3:TrackPointExtension>
        </extensions>
      </trkpt>
      <trkpt lat="42.5127944536507129669189453125" lon="19.93632920086383819580078125">
        <ele>1869.5999755859375</ele>
        <time>2026-06-17T10:11:06.000Z</time>
        <extensions>
          <ns3:TrackPointExtension>
            <ns3:atemp>20.0</ns3:atemp>
          </ns3:TrackPointExtension>
        </extensions>
      </trkpt>
      <trkpt lat="42.5127944536507129669189453125" lon="19.93632920086383819580078125">
        <ele>1869.5999755859375</ele>
        <time>2026-06-17T10:11:07.000Z</time>
        <extensions>
          <ns3:TrackPointExtension>
            <ns3:atemp>20.0</ns3:atemp>
          </ns3:TrackPointExtension>
        </extensions>
      </trkpt>
      <trkpt lat="42.5127944536507129669189453125" lon="19.93632920086383819580078125">
        <ele>1869.5999755859375</ele>
        <time>2026-06-17T10:11:08.000Z</time>
        <extensions>
          <ns3:TrackPointExtension>
            <ns3:atemp>20.0</ns3:atemp>
          </ns3:TrackPointExtension>
        </extensions>
      </trkpt>
      <trkpt lat="42.5127944536507129669189453125" lon="19.93632920086383819580078125">
        <ele>1869.5999755859375</ele>
        <time>2026-06-17T10:11:09.000Z</time>
        <extensions>
          <ns3:TrackPointExtension>
            <ns3:atemp>20.0</ns3:atemp>
          </ns3:TrackPointExtension>
        </extensions>
      </trkpt>
      <trkpt lat="42.5127944536507129669189453125" lon="19.93632920086383819580078125">
        <ele>1869.5999755859375</ele>
        <time>2026-06-17T10:11:10.000Z</time>
        <extensions>
          <ns3:TrackPointExtension>
            <ns3:atemp>20.0</ns3:atemp>
          </ns3:TrackPointExtension>
        </extensions>
      </trkpt>
      <trkpt lat="42.5127944536507129669189453125" lon="19.93632920086383819580078125">
        <ele>1869.5999755859375</ele>
        <time>2026-06-17T10:11:11.000Z</time>
        <extensions>
          <ns3:TrackPointExtension>
            <ns3:atemp>20.0</ns3:atemp>
          </ns3:TrackPointExtension>
        </extensions>
      </trkpt>
      <trkpt lat="42.5127944536507129669189453125" lon="19.93632920086383819580078125">
        <ele>1869.5999755859375</ele>
        <time>2026-06-17T10:11:12.000Z</time>
        <extensions>
          <ns3:TrackPointExtension>
            <ns3:atemp>20.0</ns3:atemp>
          </ns3:TrackPointExtension>
        </extensions>
      </trkpt>
      <trkpt lat="42.5127944536507129669189453125" lon="19.93632920086383819580078125">
        <ele>1869.5999755859375</ele>
        <time>2026-06-17T10:11:13.000Z</time>
        <extensions>
          <ns3:TrackPointExtension>
            <ns3:atemp>20.0</ns3:atemp>
          </ns3:TrackPointExtension>
        </extensions>
      </trkpt>
      <trkpt lat="42.5127944536507129669189453125" lon="19.93632920086383819580078125">
        <ele>1869.5999755859375</ele>
        <time>2026-06-17T10:11:14.000Z</time>
        <extensions>
          <ns3:TrackPointExtension>
            <ns3:atemp>20.0</ns3:atemp>
          </ns3:TrackPointExtension>
        </extensions>
      </trkpt>
      <trkpt lat="42.5127944536507129669189453125" lon="19.93632920086383819580078125">
        <ele>1869.5999755859375</ele>
        <time>2026-06-17T10:11:15.000Z</time>
        <extensions>
          <ns3:TrackPointExtension>
            <ns3:atemp>20.0</ns3:atemp>
          </ns3:TrackPointExtension>
        </extensions>
      </trkpt>
      <trkpt lat="42.5127944536507129669189453125" lon="19.93632920086383819580078125">
        <ele>1869.5999755859375</ele>
        <time>2026-06-17T10:11:16.000Z</time>
        <extensions>
          <ns3:TrackPointExtension>
            <ns3:atemp>20.0</ns3:atemp>
          </ns3:TrackPointExtension>
        </extensions>
      </trkpt>
      <trkpt lat="42.5127944536507129669189453125" lon="19.93632920086383819580078125">
        <ele>1869.5999755859375</ele>
        <time>2026-06-17T10:11:17.000Z</time>
        <extensions>
          <ns3:TrackPointExtension>
            <ns3:atemp>20.0</ns3:atemp>
          </ns3:TrackPointExtension>
        </extensions>
      </trkpt>
      <trkpt lat="42.5127944536507129669189453125" lon="19.93632920086383819580078125">
        <ele>1869.5999755859375</ele>
        <time>2026-06-17T10:11:18.000Z</time>
        <extensions>
          <ns3:TrackPointExtension>
            <ns3:atemp>20.0</ns3:atemp>
          </ns3:TrackPointExtension>
        </extensions>
      </trkpt>
      <trkpt lat="42.5127944536507129669189453125" lon="19.93632920086383819580078125">
        <ele>1869.5999755859375</ele>
        <time>2026-06-17T10:11:19.000Z</time>
        <extensions>
          <ns3:TrackPointExtension>
            <ns3:atemp>20.0</ns3:atemp>
          </ns3:TrackPointExtension>
        </extensions>
      </trkpt>
      <trkpt lat="42.5127944536507129669189453125" lon="19.93632920086383819580078125">
        <ele>1869.5999755859375</ele>
        <time>2026-06-17T10:11:20.000Z</time>
        <extensions>
          <ns3:TrackPointExtension>
            <ns3:atemp>20.0</ns3:atemp>
          </ns3:TrackPointExtension>
        </extensions>
      </trkpt>
      <trkpt lat="42.5127944536507129669189453125" lon="19.93632920086383819580078125">
        <ele>1869.5999755859375</ele>
        <time>2026-06-17T10:11:21.000Z</time>
        <extensions>
          <ns3:TrackPointExtension>
            <ns3:atemp>20.0</ns3:atemp>
          </ns3:TrackPointExtension>
        </extensions>
      </trkpt>
      <trkpt lat="42.5127944536507129669189453125" lon="19.93632920086383819580078125">
        <ele>1869.5999755859375</ele>
        <time>2026-06-17T10:11:22.000Z</time>
        <extensions>
          <ns3:TrackPointExtension>
            <ns3:atemp>20.0</ns3:atemp>
          </ns3:TrackPointExtension>
        </extensions>
      </trkpt>
      <trkpt lat="42.5127944536507129669189453125" lon="19.93632920086383819580078125">
        <ele>1869.5999755859375</ele>
        <time>2026-06-17T10:11:23.000Z</time>
        <extensions>
          <ns3:TrackPointExtension>
            <ns3:atemp>20.0</ns3:atemp>
          </ns3:TrackPointExtension>
        </extensions>
      </trkpt>
      <trkpt lat="42.5127944536507129669189453125" lon="19.93632920086383819580078125">
        <ele>1869.5999755859375</ele>
        <time>2026-06-17T10:11:24.000Z</time>
        <extensions>
          <ns3:TrackPointExtension>
            <ns3:atemp>20.0</ns3:atemp>
          </ns3:TrackPointExtension>
        </extensions>
      </trkpt>
      <trkpt lat="42.5127944536507129669189453125" lon="19.93632920086383819580078125">
        <ele>1869.5999755859375</ele>
        <time>2026-06-17T10:11:25.000Z</time>
        <extensions>
          <ns3:TrackPointExtension>
            <ns3:atemp>20.0</ns3:atemp>
          </ns3:TrackPointExtension>
        </extensions>
      </trkpt>
      <trkpt lat="42.5127944536507129669189453125" lon="19.93632920086383819580078125">
        <ele>1869.5999755859375</ele>
        <time>2026-06-17T10:11:26.000Z</time>
        <extensions>
          <ns3:TrackPointExtension>
            <ns3:atemp>20.0</ns3:atemp>
          </ns3:TrackPointExtension>
        </extensions>
      </trkpt>
      <trkpt lat="42.5127944536507129669189453125" lon="19.93632920086383819580078125">
        <ele>1869.5999755859375</ele>
        <time>2026-06-17T10:11:27.000Z</time>
        <extensions>
          <ns3:TrackPointExtension>
            <ns3:atemp>20.0</ns3:atemp>
          </ns3:TrackPointExtension>
        </extensions>
      </trkpt>
      <trkpt lat="42.5127944536507129669189453125" lon="19.93632920086383819580078125">
        <ele>1869.5999755859375</ele>
        <time>2026-06-17T10:11:28.000Z</time>
        <extensions>
          <ns3:TrackPointExtension>
            <ns3:atemp>20.0</ns3:atemp>
          </ns3:TrackPointExtension>
        </extensions>
      </trkpt>
      <trkpt lat="42.5127944536507129669189453125" lon="19.93632920086383819580078125">
        <ele>1869.5999755859375</ele>
        <time>2026-06-17T10:11:29.000Z</time>
        <extensions>
          <ns3:TrackPointExtension>
            <ns3:atemp>20.0</ns3:atemp>
          </ns3:TrackPointExtension>
        </extensions>
      </trkpt>
      <trkpt lat="42.5127944536507129669189453125" lon="19.93632920086383819580078125">
        <ele>1869.5999755859375</ele>
        <time>2026-06-17T10:11:30.000Z</time>
        <extensions>
          <ns3:TrackPointExtension>
            <ns3:atemp>20.0</ns3:atemp>
          </ns3:TrackPointExtension>
        </extensions>
      </trkpt>
      <trkpt lat="42.5127944536507129669189453125" lon="19.93632920086383819580078125">
        <ele>1869.5999755859375</ele>
        <time>2026-06-17T10:11:31.000Z</time>
        <extensions>
          <ns3:TrackPointExtension>
            <ns3:atemp>20.0</ns3:atemp>
          </ns3:TrackPointExtension>
        </extensions>
      </trkpt>
      <trkpt lat="42.5127944536507129669189453125" lon="19.93632920086383819580078125">
        <ele>1869.5999755859375</ele>
        <time>2026-06-17T10:11:32.000Z</time>
        <extensions>
          <ns3:TrackPointExtension>
            <ns3:atemp>20.0</ns3:atemp>
          </ns3:TrackPointExtension>
        </extensions>
      </trkpt>
      <trkpt lat="42.5127944536507129669189453125" lon="19.93632920086383819580078125">
        <ele>1869.5999755859375</ele>
        <time>2026-06-17T10:11:33.000Z</time>
        <extensions>
          <ns3:TrackPointExtension>
            <ns3:atemp>20.0</ns3:atemp>
          </ns3:TrackPointExtension>
        </extensions>
      </trkpt>
      <trkpt lat="42.5127944536507129669189453125" lon="19.93632920086383819580078125">
        <ele>1869.5999755859375</ele>
        <time>2026-06-17T10:11:34.000Z</time>
        <extensions>
          <ns3:TrackPointExtension>
            <ns3:atemp>20.0</ns3:atemp>
          </ns3:TrackPointExtension>
        </extensions>
      </trkpt>
      <trkpt lat="42.5127944536507129669189453125" lon="19.93632920086383819580078125">
        <ele>1869.5999755859375</ele>
        <time>2026-06-17T10:11:35.000Z</time>
        <extensions>
          <ns3:TrackPointExtension>
            <ns3:atemp>20.0</ns3:atemp>
          </ns3:TrackPointExtension>
        </extensions>
      </trkpt>
      <trkpt lat="42.5127944536507129669189453125" lon="19.93632920086383819580078125">
        <ele>1869.5999755859375</ele>
        <time>2026-06-17T10:11:36.000Z</time>
        <extensions>
          <ns3:TrackPointExtension>
            <ns3:atemp>20.0</ns3:atemp>
          </ns3:TrackPointExtension>
        </extensions>
      </trkpt>
      <trkpt lat="42.5127944536507129669189453125" lon="19.93632920086383819580078125">
        <ele>1869.5999755859375</ele>
        <time>2026-06-17T10:11:37.000Z</time>
        <extensions>
          <ns3:TrackPointExtension>
            <ns3:atemp>20.0</ns3:atemp>
          </ns3:TrackPointExtension>
        </extensions>
      </trkpt>
      <trkpt lat="42.5127944536507129669189453125" lon="19.93632920086383819580078125">
        <ele>1869.5999755859375</ele>
        <time>2026-06-17T10:11:38.000Z</time>
        <extensions>
          <ns3:TrackPointExtension>
            <ns3:atemp>20.0</ns3:atemp>
          </ns3:TrackPointExtension>
        </extensions>
      </trkpt>
      <trkpt lat="42.5127944536507129669189453125" lon="19.93632920086383819580078125">
        <ele>1869.5999755859375</ele>
        <time>2026-06-17T10:11:39.000Z</time>
        <extensions>
          <ns3:TrackPointExtension>
            <ns3:atemp>20.0</ns3:atemp>
          </ns3:TrackPointExtension>
        </extensions>
      </trkpt>
      <trkpt lat="42.5127944536507129669189453125" lon="19.93632920086383819580078125">
        <ele>1869.5999755859375</ele>
        <time>2026-06-17T10:11:40.000Z</time>
        <extensions>
          <ns3:TrackPointExtension>
            <ns3:atemp>20.0</ns3:atemp>
          </ns3:TrackPointExtension>
        </extensions>
      </trkpt>
      <trkpt lat="42.5127944536507129669189453125" lon="19.93632920086383819580078125">
        <ele>1869.5999755859375</ele>
        <time>2026-06-17T10:11:41.000Z</time>
        <extensions>
          <ns3:TrackPointExtension>
            <ns3:atemp>20.0</ns3:atemp>
          </ns3:TrackPointExtension>
        </extensions>
      </trkpt>
      <trkpt lat="42.5127944536507129669189453125" lon="19.93632920086383819580078125">
        <ele>1869.5999755859375</ele>
        <time>2026-06-17T10:11:42.000Z</time>
        <extensions>
          <ns3:TrackPointExtension>
            <ns3:atemp>20.0</ns3:atemp>
          </ns3:TrackPointExtension>
        </extensions>
      </trkpt>
      <trkpt lat="42.5127944536507129669189453125" lon="19.93632920086383819580078125">
        <ele>1869.5999755859375</ele>
        <time>2026-06-17T10:11:43.000Z</time>
        <extensions>
          <ns3:TrackPointExtension>
            <ns3:atemp>20.0</ns3:atemp>
          </ns3:TrackPointExtension>
        </extensions>
      </trkpt>
      <trkpt lat="42.5127944536507129669189453125" lon="19.93632920086383819580078125">
        <ele>1869.5999755859375</ele>
        <time>2026-06-17T10:11:44.000Z</time>
        <extensions>
          <ns3:TrackPointExtension>
            <ns3:atemp>20.0</ns3:atemp>
          </ns3:TrackPointExtension>
        </extensions>
      </trkpt>
      <trkpt lat="42.5127944536507129669189453125" lon="19.93632920086383819580078125">
        <ele>1869.5999755859375</ele>
        <time>2026-06-17T10:11:45.000Z</time>
        <extensions>
          <ns3:TrackPointExtension>
            <ns3:atemp>20.0</ns3:atemp>
          </ns3:TrackPointExtension>
        </extensions>
      </trkpt>
      <trkpt lat="42.5127944536507129669189453125" lon="19.93632920086383819580078125">
        <ele>1869.5999755859375</ele>
        <time>2026-06-17T10:11:46.000Z</time>
        <extensions>
          <ns3:TrackPointExtension>
            <ns3:atemp>20.0</ns3:atemp>
          </ns3:TrackPointExtension>
        </extensions>
      </trkpt>
      <trkpt lat="42.5127944536507129669189453125" lon="19.93632920086383819580078125">
        <ele>1869.5999755859375</ele>
        <time>2026-06-17T10:11:47.000Z</time>
        <extensions>
          <ns3:TrackPointExtension>
            <ns3:atemp>20.0</ns3:atemp>
          </ns3:TrackPointExtension>
        </extensions>
      </trkpt>
      <trkpt lat="42.5127944536507129669189453125" lon="19.93632920086383819580078125">
        <ele>1869.5999755859375</ele>
        <time>2026-06-17T10:11:48.000Z</time>
        <extensions>
          <ns3:TrackPointExtension>
            <ns3:atemp>20.0</ns3:atemp>
          </ns3:TrackPointExtension>
        </extensions>
      </trkpt>
      <trkpt lat="42.5127944536507129669189453125" lon="19.93632920086383819580078125">
        <ele>1869.5999755859375</ele>
        <time>2026-06-17T10:11:49.000Z</time>
        <extensions>
          <ns3:TrackPointExtension>
            <ns3:atemp>20.0</ns3:atemp>
          </ns3:TrackPointExtension>
        </extensions>
      </trkpt>
      <trkpt lat="42.5127944536507129669189453125" lon="19.93632920086383819580078125">
        <ele>1869.5999755859375</ele>
        <time>2026-06-17T10:11:50.000Z</time>
        <extensions>
          <ns3:TrackPointExtension>
            <ns3:atemp>20.0</ns3:atemp>
          </ns3:TrackPointExtension>
        </extensions>
      </trkpt>
      <trkpt lat="42.5127944536507129669189453125" lon="19.93632920086383819580078125">
        <ele>1869.5999755859375</ele>
        <time>2026-06-17T10:11:51.000Z</time>
        <extensions>
          <ns3:TrackPointExtension>
            <ns3:atemp>20.0</ns3:atemp>
          </ns3:TrackPointExtension>
        </extensions>
      </trkpt>
      <trkpt lat="42.5127944536507129669189453125" lon="19.93632920086383819580078125">
        <ele>1869.5999755859375</ele>
        <time>2026-06-17T10:11:52.000Z</time>
        <extensions>
          <ns3:TrackPointExtension>
            <ns3:atemp>20.0</ns3:atemp>
          </ns3:TrackPointExtension>
        </extensions>
      </trkpt>
      <trkpt lat="42.5127944536507129669189453125" lon="19.93632920086383819580078125">
        <ele>1869.5999755859375</ele>
        <time>2026-06-17T10:11:53.000Z</time>
        <extensions>
          <ns3:TrackPointExtension>
            <ns3:atemp>20.0</ns3:atemp>
          </ns3:TrackPointExtension>
        </extensions>
      </trkpt>
      <trkpt lat="42.5127944536507129669189453125" lon="19.93632920086383819580078125">
        <ele>1869.5999755859375</ele>
        <time>2026-06-17T10:11:54.000Z</time>
        <extensions>
          <ns3:TrackPointExtension>
            <ns3:atemp>20.0</ns3:atemp>
          </ns3:TrackPointExtension>
        </extensions>
      </trkpt>
      <trkpt lat="42.5127944536507129669189453125" lon="19.93632920086383819580078125">
        <ele>1869.5999755859375</ele>
        <time>2026-06-17T10:11:55.000Z</time>
        <extensions>
          <ns3:TrackPointExtension>
            <ns3:atemp>20.0</ns3:atemp>
          </ns3:TrackPointExtension>
        </extensions>
      </trkpt>
      <trkpt lat="42.5127944536507129669189453125" lon="19.93632920086383819580078125">
        <ele>1869.5999755859375</ele>
        <time>2026-06-17T10:11:56.000Z</time>
        <extensions>
          <ns3:TrackPointExtension>
            <ns3:atemp>20.0</ns3:atemp>
          </ns3:TrackPointExtension>
        </extensions>
      </trkpt>
      <trkpt lat="42.5127944536507129669189453125" lon="19.93632920086383819580078125">
        <ele>1869.5999755859375</ele>
        <time>2026-06-17T10:11:57.000Z</time>
        <extensions>
          <ns3:TrackPointExtension>
            <ns3:atemp>20.0</ns3:atemp>
          </ns3:TrackPointExtension>
        </extensions>
      </trkpt>
      <trkpt lat="42.5127944536507129669189453125" lon="19.93632920086383819580078125">
        <ele>1869.5999755859375</ele>
        <time>2026-06-17T10:11:58.000Z</time>
        <extensions>
          <ns3:TrackPointExtension>
            <ns3:atemp>20.0</ns3:atemp>
          </ns3:TrackPointExtension>
        </extensions>
      </trkpt>
      <trkpt lat="42.5127944536507129669189453125" lon="19.93632920086383819580078125">
        <ele>1869.5999755859375</ele>
        <time>2026-06-17T10:11:59.000Z</time>
        <extensions>
          <ns3:TrackPointExtension>
            <ns3:atemp>20.0</ns3:atemp>
          </ns3:TrackPointExtension>
        </extensions>
      </trkpt>
      <trkpt lat="42.5127944536507129669189453125" lon="19.93632920086383819580078125">
        <ele>1869.5999755859375</ele>
        <time>2026-06-17T10:12:00.000Z</time>
        <extensions>
          <ns3:TrackPointExtension>
            <ns3:atemp>20.0</ns3:atemp>
          </ns3:TrackPointExtension>
        </extensions>
      </trkpt>
      <trkpt lat="42.5127944536507129669189453125" lon="19.93632920086383819580078125">
        <ele>1869.5999755859375</ele>
        <time>2026-06-17T10:12:01.000Z</time>
        <extensions>
          <ns3:TrackPointExtension>
            <ns3:atemp>20.0</ns3:atemp>
          </ns3:TrackPointExtension>
        </extensions>
      </trkpt>
      <trkpt lat="42.5127944536507129669189453125" lon="19.93632920086383819580078125">
        <ele>1869.5999755859375</ele>
        <time>2026-06-17T10:12:02.000Z</time>
        <extensions>
          <ns3:TrackPointExtension>
            <ns3:atemp>20.0</ns3:atemp>
          </ns3:TrackPointExtension>
        </extensions>
      </trkpt>
      <trkpt lat="42.5127944536507129669189453125" lon="19.93632920086383819580078125">
        <ele>1869.5999755859375</ele>
        <time>2026-06-17T10:12:03.000Z</time>
        <extensions>
          <ns3:TrackPointExtension>
            <ns3:atemp>20.0</ns3:atemp>
          </ns3:TrackPointExtension>
        </extensions>
      </trkpt>
      <trkpt lat="42.5127944536507129669189453125" lon="19.93632920086383819580078125">
        <ele>1869.5999755859375</ele>
        <time>2026-06-17T10:12:04.000Z</time>
        <extensions>
          <ns3:TrackPointExtension>
            <ns3:atemp>20.0</ns3:atemp>
          </ns3:TrackPointExtension>
        </extensions>
      </trkpt>
      <trkpt lat="42.5127944536507129669189453125" lon="19.93632920086383819580078125">
        <ele>1869.5999755859375</ele>
        <time>2026-06-17T10:12:05.000Z</time>
        <extensions>
          <ns3:TrackPointExtension>
            <ns3:atemp>20.0</ns3:atemp>
          </ns3:TrackPointExtension>
        </extensions>
      </trkpt>
      <trkpt lat="42.5127944536507129669189453125" lon="19.93632920086383819580078125">
        <ele>1869.5999755859375</ele>
        <time>2026-06-17T10:12:06.000Z</time>
        <extensions>
          <ns3:TrackPointExtension>
            <ns3:atemp>20.0</ns3:atemp>
          </ns3:TrackPointExtension>
        </extensions>
      </trkpt>
      <trkpt lat="42.5127944536507129669189453125" lon="19.93632920086383819580078125">
        <ele>1869.5999755859375</ele>
        <time>2026-06-17T10:12:07.000Z</time>
        <extensions>
          <ns3:TrackPointExtension>
            <ns3:atemp>20.0</ns3:atemp>
          </ns3:TrackPointExtension>
        </extensions>
      </trkpt>
      <trkpt lat="42.5127944536507129669189453125" lon="19.93632920086383819580078125">
        <ele>1869.5999755859375</ele>
        <time>2026-06-17T10:12:08.000Z</time>
        <extensions>
          <ns3:TrackPointExtension>
            <ns3:atemp>20.0</ns3:atemp>
          </ns3:TrackPointExtension>
        </extensions>
      </trkpt>
      <trkpt lat="42.5127944536507129669189453125" lon="19.93632920086383819580078125">
        <ele>1869.5999755859375</ele>
        <time>2026-06-17T10:12:09.000Z</time>
        <extensions>
          <ns3:TrackPointExtension>
            <ns3:atemp>20.0</ns3:atemp>
          </ns3:TrackPointExtension>
        </extensions>
      </trkpt>
      <trkpt lat="42.5127944536507129669189453125" lon="19.93632920086383819580078125">
        <ele>1869.5999755859375</ele>
        <time>2026-06-17T10:12:10.000Z</time>
        <extensions>
          <ns3:TrackPointExtension>
            <ns3:atemp>20.0</ns3:atemp>
          </ns3:TrackPointExtension>
        </extensions>
      </trkpt>
      <trkpt lat="42.5127944536507129669189453125" lon="19.93632920086383819580078125">
        <ele>1869.5999755859375</ele>
        <time>2026-06-17T10:12:11.000Z</time>
        <extensions>
          <ns3:TrackPointExtension>
            <ns3:atemp>20.0</ns3:atemp>
          </ns3:TrackPointExtension>
        </extensions>
      </trkpt>
      <trkpt lat="42.5127944536507129669189453125" lon="19.93632920086383819580078125">
        <ele>1869.5999755859375</ele>
        <time>2026-06-17T10:12:12.000Z</time>
        <extensions>
          <ns3:TrackPointExtension>
            <ns3:atemp>20.0</ns3:atemp>
          </ns3:TrackPointExtension>
        </extensions>
      </trkpt>
      <trkpt lat="42.5127944536507129669189453125" lon="19.93632920086383819580078125">
        <ele>1869.5999755859375</ele>
        <time>2026-06-17T10:12:13.000Z</time>
        <extensions>
          <ns3:TrackPointExtension>
            <ns3:atemp>20.0</ns3:atemp>
          </ns3:TrackPointExtension>
        </extensions>
      </trkpt>
      <trkpt lat="42.5127944536507129669189453125" lon="19.93632920086383819580078125">
        <ele>1869.5999755859375</ele>
        <time>2026-06-17T10:12:14.000Z</time>
        <extensions>
          <ns3:TrackPointExtension>
            <ns3:atemp>20.0</ns3:atemp>
          </ns3:TrackPointExtension>
        </extensions>
      </trkpt>
      <trkpt lat="42.5127944536507129669189453125" lon="19.93632920086383819580078125">
        <ele>1869.5999755859375</ele>
        <time>2026-06-17T10:12:15.000Z</time>
        <extensions>
          <ns3:TrackPointExtension>
            <ns3:atemp>20.0</ns3:atemp>
          </ns3:TrackPointExtension>
        </extensions>
      </trkpt>
      <trkpt lat="42.5127944536507129669189453125" lon="19.93632920086383819580078125">
        <ele>1869.5999755859375</ele>
        <time>2026-06-17T10:12:16.000Z</time>
        <extensions>
          <ns3:TrackPointExtension>
            <ns3:atemp>20.0</ns3:atemp>
          </ns3:TrackPointExtension>
        </extensions>
      </trkpt>
      <trkpt lat="42.5127944536507129669189453125" lon="19.93632920086383819580078125">
        <ele>1869.5999755859375</ele>
        <time>2026-06-17T10:12:17.000Z</time>
        <extensions>
          <ns3:TrackPointExtension>
            <ns3:atemp>20.0</ns3:atemp>
          </ns3:TrackPointExtension>
        </extensions>
      </trkpt>
      <trkpt lat="42.5127944536507129669189453125" lon="19.93632920086383819580078125">
        <ele>1869.5999755859375</ele>
        <time>2026-06-17T10:12:18.000Z</time>
        <extensions>
          <ns3:TrackPointExtension>
            <ns3:atemp>20.0</ns3:atemp>
          </ns3:TrackPointExtension>
        </extensions>
      </trkpt>
      <trkpt lat="42.5127944536507129669189453125" lon="19.93632920086383819580078125">
        <ele>1869.5999755859375</ele>
        <time>2026-06-17T10:12:19.000Z</time>
        <extensions>
          <ns3:TrackPointExtension>
            <ns3:atemp>20.0</ns3:atemp>
          </ns3:TrackPointExtension>
        </extensions>
      </trkpt>
      <trkpt lat="42.5127944536507129669189453125" lon="19.93632920086383819580078125">
        <ele>1869.5999755859375</ele>
        <time>2026-06-17T10:12:20.000Z</time>
        <extensions>
          <ns3:TrackPointExtension>
            <ns3:atemp>20.0</ns3:atemp>
          </ns3:TrackPointExtension>
        </extensions>
      </trkpt>
      <trkpt lat="42.5127944536507129669189453125" lon="19.93632920086383819580078125">
        <ele>1869.5999755859375</ele>
        <time>2026-06-17T10:12:21.000Z</time>
        <extensions>
          <ns3:TrackPointExtension>
            <ns3:atemp>20.0</ns3:atemp>
          </ns3:TrackPointExtension>
        </extensions>
      </trkpt>
      <trkpt lat="42.5127944536507129669189453125" lon="19.93632920086383819580078125">
        <ele>1869.5999755859375</ele>
        <time>2026-06-17T10:12:22.000Z</time>
        <extensions>
          <ns3:TrackPointExtension>
            <ns3:atemp>20.0</ns3:atemp>
          </ns3:TrackPointExtension>
        </extensions>
      </trkpt>
      <trkpt lat="42.5127944536507129669189453125" lon="19.93632920086383819580078125">
        <ele>1869.5999755859375</ele>
        <time>2026-06-17T10:12:23.000Z</time>
        <extensions>
          <ns3:TrackPointExtension>
            <ns3:atemp>20.0</ns3:atemp>
          </ns3:TrackPointExtension>
        </extensions>
      </trkpt>
      <trkpt lat="42.5127944536507129669189453125" lon="19.93632920086383819580078125">
        <ele>1869.5999755859375</ele>
        <time>2026-06-17T10:12:24.000Z</time>
        <extensions>
          <ns3:TrackPointExtension>
            <ns3:atemp>20.0</ns3:atemp>
          </ns3:TrackPointExtension>
        </extensions>
      </trkpt>
      <trkpt lat="42.5127944536507129669189453125" lon="19.93632920086383819580078125">
        <ele>1869.5999755859375</ele>
        <time>2026-06-17T10:12:25.000Z</time>
        <extensions>
          <ns3:TrackPointExtension>
            <ns3:atemp>20.0</ns3:atemp>
          </ns3:TrackPointExtension>
        </extensions>
      </trkpt>
      <trkpt lat="42.5127944536507129669189453125" lon="19.93632920086383819580078125">
        <ele>1869.5999755859375</ele>
        <time>2026-06-17T10:12:26.000Z</time>
        <extensions>
          <ns3:TrackPointExtension>
            <ns3:atemp>20.0</ns3:atemp>
          </ns3:TrackPointExtension>
        </extensions>
      </trkpt>
      <trkpt lat="42.5127944536507129669189453125" lon="19.93632920086383819580078125">
        <ele>1869.5999755859375</ele>
        <time>2026-06-17T10:12:27.000Z</time>
        <extensions>
          <ns3:TrackPointExtension>
            <ns3:atemp>20.0</ns3:atemp>
          </ns3:TrackPointExtension>
        </extensions>
      </trkpt>
      <trkpt lat="42.5127944536507129669189453125" lon="19.93632920086383819580078125">
        <ele>1869.5999755859375</ele>
        <time>2026-06-17T10:12:28.000Z</time>
        <extensions>
          <ns3:TrackPointExtension>
            <ns3:atemp>20.0</ns3:atemp>
          </ns3:TrackPointExtension>
        </extensions>
      </trkpt>
      <trkpt lat="42.5127944536507129669189453125" lon="19.93632920086383819580078125">
        <ele>1869.5999755859375</ele>
        <time>2026-06-17T10:12:29.000Z</time>
        <extensions>
          <ns3:TrackPointExtension>
            <ns3:atemp>20.0</ns3:atemp>
          </ns3:TrackPointExtension>
        </extensions>
      </trkpt>
      <trkpt lat="42.5127944536507129669189453125" lon="19.93632920086383819580078125">
        <ele>1869.5999755859375</ele>
        <time>2026-06-17T10:12:30.000Z</time>
        <extensions>
          <ns3:TrackPointExtension>
            <ns3:atemp>20.0</ns3:atemp>
          </ns3:TrackPointExtension>
        </extensions>
      </trkpt>
      <trkpt lat="42.5127944536507129669189453125" lon="19.93632920086383819580078125">
        <ele>1869.5999755859375</ele>
        <time>2026-06-17T10:12:31.000Z</time>
        <extensions>
          <ns3:TrackPointExtension>
            <ns3:atemp>20.0</ns3:atemp>
          </ns3:TrackPointExtension>
        </extensions>
      </trkpt>
      <trkpt lat="42.5127944536507129669189453125" lon="19.93632920086383819580078125">
        <ele>1869.5999755859375</ele>
        <time>2026-06-17T10:12:32.000Z</time>
        <extensions>
          <ns3:TrackPointExtension>
            <ns3:atemp>20.0</ns3:atemp>
          </ns3:TrackPointExtension>
        </extensions>
      </trkpt>
      <trkpt lat="42.5127944536507129669189453125" lon="19.93632920086383819580078125">
        <ele>1869.5999755859375</ele>
        <time>2026-06-17T10:12:33.000Z</time>
        <extensions>
          <ns3:TrackPointExtension>
            <ns3:atemp>20.0</ns3:atemp>
          </ns3:TrackPointExtension>
        </extensions>
      </trkpt>
      <trkpt lat="42.5127944536507129669189453125" lon="19.93632920086383819580078125">
        <ele>1869.5999755859375</ele>
        <time>2026-06-17T10:12:34.000Z</time>
        <extensions>
          <ns3:TrackPointExtension>
            <ns3:atemp>20.0</ns3:atemp>
          </ns3:TrackPointExtension>
        </extensions>
      </trkpt>
      <trkpt lat="42.5127944536507129669189453125" lon="19.93632920086383819580078125">
        <ele>1869.5999755859375</ele>
        <time>2026-06-17T10:12:35.000Z</time>
        <extensions>
          <ns3:TrackPointExtension>
            <ns3:atemp>20.0</ns3:atemp>
          </ns3:TrackPointExtension>
        </extensions>
      </trkpt>
      <trkpt lat="42.5127944536507129669189453125" lon="19.93632920086383819580078125">
        <ele>1869.5999755859375</ele>
        <time>2026-06-17T10:12:36.000Z</time>
        <extensions>
          <ns3:TrackPointExtension>
            <ns3:atemp>20.0</ns3:atemp>
          </ns3:TrackPointExtension>
        </extensions>
      </trkpt>
      <trkpt lat="42.5127944536507129669189453125" lon="19.93632920086383819580078125">
        <ele>1869.5999755859375</ele>
        <time>2026-06-17T10:12:37.000Z</time>
        <extensions>
          <ns3:TrackPointExtension>
            <ns3:atemp>20.0</ns3:atemp>
          </ns3:TrackPointExtension>
        </extensions>
      </trkpt>
      <trkpt lat="42.5127944536507129669189453125" lon="19.93632920086383819580078125">
        <ele>1869.5999755859375</ele>
        <time>2026-06-17T10:12:38.000Z</time>
        <extensions>
          <ns3:TrackPointExtension>
            <ns3:atemp>20.0</ns3:atemp>
          </ns3:TrackPointExtension>
        </extensions>
      </trkpt>
      <trkpt lat="42.5127944536507129669189453125" lon="19.93632920086383819580078125">
        <ele>1869.5999755859375</ele>
        <time>2026-06-17T10:12:39.000Z</time>
        <extensions>
          <ns3:TrackPointExtension>
            <ns3:atemp>20.0</ns3:atemp>
          </ns3:TrackPointExtension>
        </extensions>
      </trkpt>
      <trkpt lat="42.5127944536507129669189453125" lon="19.93632920086383819580078125">
        <ele>1869.5999755859375</ele>
        <time>2026-06-17T10:12:40.000Z</time>
        <extensions>
          <ns3:TrackPointExtension>
            <ns3:atemp>20.0</ns3:atemp>
          </ns3:TrackPointExtension>
        </extensions>
      </trkpt>
      <trkpt lat="42.5127944536507129669189453125" lon="19.93632920086383819580078125">
        <ele>1869.5999755859375</ele>
        <time>2026-06-17T10:12:41.000Z</time>
        <extensions>
          <ns3:TrackPointExtension>
            <ns3:atemp>20.0</ns3:atemp>
          </ns3:TrackPointExtension>
        </extensions>
      </trkpt>
      <trkpt lat="42.5127944536507129669189453125" lon="19.93632920086383819580078125">
        <ele>1869.5999755859375</ele>
        <time>2026-06-17T10:12:42.000Z</time>
        <extensions>
          <ns3:TrackPointExtension>
            <ns3:atemp>20.0</ns3:atemp>
          </ns3:TrackPointExtension>
        </extensions>
      </trkpt>
      <trkpt lat="42.5127944536507129669189453125" lon="19.93632920086383819580078125">
        <ele>1869.5999755859375</ele>
        <time>2026-06-17T10:12:43.000Z</time>
        <extensions>
          <ns3:TrackPointExtension>
            <ns3:atemp>20.0</ns3:atemp>
          </ns3:TrackPointExtension>
        </extensions>
      </trkpt>
      <trkpt lat="42.5127944536507129669189453125" lon="19.93632920086383819580078125">
        <ele>1869.5999755859375</ele>
        <time>2026-06-17T10:12:44.000Z</time>
        <extensions>
          <ns3:TrackPointExtension>
            <ns3:atemp>20.0</ns3:atemp>
          </ns3:TrackPointExtension>
        </extensions>
      </trkpt>
      <trkpt lat="42.5127944536507129669189453125" lon="19.93632920086383819580078125">
        <ele>1869.5999755859375</ele>
        <time>2026-06-17T10:12:45.000Z</time>
        <extensions>
          <ns3:TrackPointExtension>
            <ns3:atemp>20.0</ns3:atemp>
          </ns3:TrackPointExtension>
        </extensions>
      </trkpt>
      <trkpt lat="42.5127944536507129669189453125" lon="19.93632920086383819580078125">
        <ele>1869.5999755859375</ele>
        <time>2026-06-17T10:12:46.000Z</time>
        <extensions>
          <ns3:TrackPointExtension>
            <ns3:atemp>20.0</ns3:atemp>
          </ns3:TrackPointExtension>
        </extensions>
      </trkpt>
      <trkpt lat="42.5127944536507129669189453125" lon="19.93632920086383819580078125">
        <ele>1869.5999755859375</ele>
        <time>2026-06-17T10:12:47.000Z</time>
        <extensions>
          <ns3:TrackPointExtension>
            <ns3:atemp>20.0</ns3:atemp>
          </ns3:TrackPointExtension>
        </extensions>
      </trkpt>
      <trkpt lat="42.5127944536507129669189453125" lon="19.93632920086383819580078125">
        <ele>1869.5999755859375</ele>
        <time>2026-06-17T10:12:48.000Z</time>
        <extensions>
          <ns3:TrackPointExtension>
            <ns3:atemp>20.0</ns3:atemp>
          </ns3:TrackPointExtension>
        </extensions>
      </trkpt>
      <trkpt lat="42.5127944536507129669189453125" lon="19.93632920086383819580078125">
        <ele>1869.5999755859375</ele>
        <time>2026-06-17T10:12:49.000Z</time>
        <extensions>
          <ns3:TrackPointExtension>
            <ns3:atemp>20.0</ns3:atemp>
          </ns3:TrackPointExtension>
        </extensions>
      </trkpt>
      <trkpt lat="42.5127944536507129669189453125" lon="19.93632920086383819580078125">
        <ele>1869.5999755859375</ele>
        <time>2026-06-17T10:12:50.000Z</time>
        <extensions>
          <ns3:TrackPointExtension>
            <ns3:atemp>20.0</ns3:atemp>
          </ns3:TrackPointExtension>
        </extensions>
      </trkpt>
      <trkpt lat="42.5127944536507129669189453125" lon="19.93632920086383819580078125">
        <ele>1869.5999755859375</ele>
        <time>2026-06-17T10:12:51.000Z</time>
        <extensions>
          <ns3:TrackPointExtension>
            <ns3:atemp>20.0</ns3:atemp>
          </ns3:TrackPointExtension>
        </extensions>
      </trkpt>
      <trkpt lat="42.5127944536507129669189453125" lon="19.93632920086383819580078125">
        <ele>1869.5999755859375</ele>
        <time>2026-06-17T10:12:52.000Z</time>
        <extensions>
          <ns3:TrackPointExtension>
            <ns3:atemp>20.0</ns3:atemp>
          </ns3:TrackPointExtension>
        </extensions>
      </trkpt>
      <trkpt lat="42.5127944536507129669189453125" lon="19.93632920086383819580078125">
        <ele>1869.5999755859375</ele>
        <time>2026-06-17T10:12:53.000Z</time>
        <extensions>
          <ns3:TrackPointExtension>
            <ns3:atemp>20.0</ns3:atemp>
          </ns3:TrackPointExtension>
        </extensions>
      </trkpt>
      <trkpt lat="42.5127944536507129669189453125" lon="19.93632920086383819580078125">
        <ele>1869.5999755859375</ele>
        <time>2026-06-17T10:12:54.000Z</time>
        <extensions>
          <ns3:TrackPointExtension>
            <ns3:atemp>20.0</ns3:atemp>
          </ns3:TrackPointExtension>
        </extensions>
      </trkpt>
      <trkpt lat="42.5127944536507129669189453125" lon="19.93632920086383819580078125">
        <ele>1869.5999755859375</ele>
        <time>2026-06-17T10:12:55.000Z</time>
        <extensions>
          <ns3:TrackPointExtension>
            <ns3:atemp>20.0</ns3:atemp>
          </ns3:TrackPointExtension>
        </extensions>
      </trkpt>
      <trkpt lat="42.5127944536507129669189453125" lon="19.93632920086383819580078125">
        <ele>1869.5999755859375</ele>
        <time>2026-06-17T10:12:56.000Z</time>
        <extensions>
          <ns3:TrackPointExtension>
            <ns3:atemp>20.0</ns3:atemp>
          </ns3:TrackPointExtension>
        </extensions>
      </trkpt>
      <trkpt lat="42.5127944536507129669189453125" lon="19.93632920086383819580078125">
        <ele>1869.5999755859375</ele>
        <time>2026-06-17T10:12:57.000Z</time>
        <extensions>
          <ns3:TrackPointExtension>
            <ns3:atemp>20.0</ns3:atemp>
          </ns3:TrackPointExtension>
        </extensions>
      </trkpt>
      <trkpt lat="42.5127944536507129669189453125" lon="19.93632920086383819580078125">
        <ele>1869.5999755859375</ele>
        <time>2026-06-17T10:12:58.000Z</time>
        <extensions>
          <ns3:TrackPointExtension>
            <ns3:atemp>20.0</ns3:atemp>
          </ns3:TrackPointExtension>
        </extensions>
      </trkpt>
      <trkpt lat="42.5127944536507129669189453125" lon="19.93632920086383819580078125">
        <ele>1869.5999755859375</ele>
        <time>2026-06-17T10:12:59.000Z</time>
        <extensions>
          <ns3:TrackPointExtension>
            <ns3:atemp>20.0</ns3:atemp>
          </ns3:TrackPointExtension>
        </extensions>
      </trkpt>
      <trkpt lat="42.5127944536507129669189453125" lon="19.93632920086383819580078125">
        <ele>1869.5999755859375</ele>
        <time>2026-06-17T10:13:00.000Z</time>
        <extensions>
          <ns3:TrackPointExtension>
            <ns3:atemp>20.0</ns3:atemp>
          </ns3:TrackPointExtension>
        </extensions>
      </trkpt>
      <trkpt lat="42.5127944536507129669189453125" lon="19.93632920086383819580078125">
        <ele>1869.5999755859375</ele>
        <time>2026-06-17T10:13:01.000Z</time>
        <extensions>
          <ns3:TrackPointExtension>
            <ns3:atemp>20.0</ns3:atemp>
          </ns3:TrackPointExtension>
        </extensions>
      </trkpt>
      <trkpt lat="42.5127944536507129669189453125" lon="19.93632920086383819580078125">
        <ele>1869.5999755859375</ele>
        <time>2026-06-17T10:13:02.000Z</time>
        <extensions>
          <ns3:TrackPointExtension>
            <ns3:atemp>20.0</ns3:atemp>
          </ns3:TrackPointExtension>
        </extensions>
      </trkpt>
      <trkpt lat="42.5127944536507129669189453125" lon="19.93632920086383819580078125">
        <ele>1869.5999755859375</ele>
        <time>2026-06-17T10:13:03.000Z</time>
        <extensions>
          <ns3:TrackPointExtension>
            <ns3:atemp>20.0</ns3:atemp>
          </ns3:TrackPointExtension>
        </extensions>
      </trkpt>
      <trkpt lat="42.5127944536507129669189453125" lon="19.93632920086383819580078125">
        <ele>1869.5999755859375</ele>
        <time>2026-06-17T10:13:04.000Z</time>
        <extensions>
          <ns3:TrackPointExtension>
            <ns3:atemp>20.0</ns3:atemp>
          </ns3:TrackPointExtension>
        </extensions>
      </trkpt>
      <trkpt lat="42.5127944536507129669189453125" lon="19.93632920086383819580078125">
        <ele>1869.5999755859375</ele>
        <time>2026-06-17T10:13:05.000Z</time>
        <extensions>
          <ns3:TrackPointExtension>
            <ns3:atemp>20.0</ns3:atemp>
          </ns3:TrackPointExtension>
        </extensions>
      </trkpt>
      <trkpt lat="42.5127944536507129669189453125" lon="19.93632920086383819580078125">
        <ele>1869.5999755859375</ele>
        <time>2026-06-17T10:13:06.000Z</time>
        <extensions>
          <ns3:TrackPointExtension>
            <ns3:atemp>20.0</ns3:atemp>
          </ns3:TrackPointExtension>
        </extensions>
      </trkpt>
      <trkpt lat="42.5127944536507129669189453125" lon="19.93632920086383819580078125">
        <ele>1869.5999755859375</ele>
        <time>2026-06-17T10:13:07.000Z</time>
        <extensions>
          <ns3:TrackPointExtension>
            <ns3:atemp>20.0</ns3:atemp>
          </ns3:TrackPointExtension>
        </extensions>
      </trkpt>
      <trkpt lat="42.5127944536507129669189453125" lon="19.93632920086383819580078125">
        <ele>1869.5999755859375</ele>
        <time>2026-06-17T10:13:08.000Z</time>
        <extensions>
          <ns3:TrackPointExtension>
            <ns3:atemp>20.0</ns3:atemp>
          </ns3:TrackPointExtension>
        </extensions>
      </trkpt>
      <trkpt lat="42.5127944536507129669189453125" lon="19.93632920086383819580078125">
        <ele>1869.5999755859375</ele>
        <time>2026-06-17T10:13:09.000Z</time>
        <extensions>
          <ns3:TrackPointExtension>
            <ns3:atemp>20.0</ns3:atemp>
          </ns3:TrackPointExtension>
        </extensions>
      </trkpt>
      <trkpt lat="42.5127944536507129669189453125" lon="19.93632920086383819580078125">
        <ele>1869.5999755859375</ele>
        <time>2026-06-17T10:13:10.000Z</time>
        <extensions>
          <ns3:TrackPointExtension>
            <ns3:atemp>20.0</ns3:atemp>
          </ns3:TrackPointExtension>
        </extensions>
      </trkpt>
      <trkpt lat="42.5127944536507129669189453125" lon="19.93632920086383819580078125">
        <ele>1869.5999755859375</ele>
        <time>2026-06-17T10:13:11.000Z</time>
        <extensions>
          <ns3:TrackPointExtension>
            <ns3:atemp>20.0</ns3:atemp>
          </ns3:TrackPointExtension>
        </extensions>
      </trkpt>
      <trkpt lat="42.5127944536507129669189453125" lon="19.93632920086383819580078125">
        <ele>1869.5999755859375</ele>
        <time>2026-06-17T10:13:12.000Z</time>
        <extensions>
          <ns3:TrackPointExtension>
            <ns3:atemp>20.0</ns3:atemp>
          </ns3:TrackPointExtension>
        </extensions>
      </trkpt>
      <trkpt lat="42.5127944536507129669189453125" lon="19.93632920086383819580078125">
        <ele>1869.5999755859375</ele>
        <time>2026-06-17T10:13:13.000Z</time>
        <extensions>
          <ns3:TrackPointExtension>
            <ns3:atemp>20.0</ns3:atemp>
          </ns3:TrackPointExtension>
        </extensions>
      </trkpt>
      <trkpt lat="42.5127944536507129669189453125" lon="19.93632920086383819580078125">
        <ele>1869.5999755859375</ele>
        <time>2026-06-17T10:13:14.000Z</time>
        <extensions>
          <ns3:TrackPointExtension>
            <ns3:atemp>20.0</ns3:atemp>
          </ns3:TrackPointExtension>
        </extensions>
      </trkpt>
      <trkpt lat="42.5127944536507129669189453125" lon="19.93632920086383819580078125">
        <ele>1869.5999755859375</ele>
        <time>2026-06-17T10:13:15.000Z</time>
        <extensions>
          <ns3:TrackPointExtension>
            <ns3:atemp>20.0</ns3:atemp>
          </ns3:TrackPointExtension>
        </extensions>
      </trkpt>
      <trkpt lat="42.5127944536507129669189453125" lon="19.93632920086383819580078125">
        <ele>1869.5999755859375</ele>
        <time>2026-06-17T10:13:16.000Z</time>
        <extensions>
          <ns3:TrackPointExtension>
            <ns3:atemp>20.0</ns3:atemp>
          </ns3:TrackPointExtension>
        </extensions>
      </trkpt>
      <trkpt lat="42.5127944536507129669189453125" lon="19.93632920086383819580078125">
        <ele>1869.5999755859375</ele>
        <time>2026-06-17T10:13:17.000Z</time>
        <extensions>
          <ns3:TrackPointExtension>
            <ns3:atemp>20.0</ns3:atemp>
          </ns3:TrackPointExtension>
        </extensions>
      </trkpt>
      <trkpt lat="42.5127944536507129669189453125" lon="19.93632920086383819580078125">
        <ele>1869.5999755859375</ele>
        <time>2026-06-17T10:13:18.000Z</time>
        <extensions>
          <ns3:TrackPointExtension>
            <ns3:atemp>20.0</ns3:atemp>
          </ns3:TrackPointExtension>
        </extensions>
      </trkpt>
      <trkpt lat="42.5127944536507129669189453125" lon="19.93632920086383819580078125">
        <ele>1869.5999755859375</ele>
        <time>2026-06-17T10:13:19.000Z</time>
        <extensions>
          <ns3:TrackPointExtension>
            <ns3:atemp>20.0</ns3:atemp>
          </ns3:TrackPointExtension>
        </extensions>
      </trkpt>
      <trkpt lat="42.5127944536507129669189453125" lon="19.93632920086383819580078125">
        <ele>1869.5999755859375</ele>
        <time>2026-06-17T10:13:20.000Z</time>
        <extensions>
          <ns3:TrackPointExtension>
            <ns3:atemp>20.0</ns3:atemp>
          </ns3:TrackPointExtension>
        </extensions>
      </trkpt>
      <trkpt lat="42.5127944536507129669189453125" lon="19.93632920086383819580078125">
        <ele>1869.5999755859375</ele>
        <time>2026-06-17T10:13:21.000Z</time>
        <extensions>
          <ns3:TrackPointExtension>
            <ns3:atemp>20.0</ns3:atemp>
          </ns3:TrackPointExtension>
        </extensions>
      </trkpt>
      <trkpt lat="42.5127944536507129669189453125" lon="19.93632920086383819580078125">
        <ele>1869.5999755859375</ele>
        <time>2026-06-17T10:13:22.000Z</time>
        <extensions>
          <ns3:TrackPointExtension>
            <ns3:atemp>20.0</ns3:atemp>
          </ns3:TrackPointExtension>
        </extensions>
      </trkpt>
      <trkpt lat="42.5127944536507129669189453125" lon="19.93632920086383819580078125">
        <ele>1869.5999755859375</ele>
        <time>2026-06-17T10:13:23.000Z</time>
        <extensions>
          <ns3:TrackPointExtension>
            <ns3:atemp>20.0</ns3:atemp>
          </ns3:TrackPointExtension>
        </extensions>
      </trkpt>
      <trkpt lat="42.5127944536507129669189453125" lon="19.93632920086383819580078125">
        <ele>1869.5999755859375</ele>
        <time>2026-06-17T10:13:24.000Z</time>
        <extensions>
          <ns3:TrackPointExtension>
            <ns3:atemp>20.0</ns3:atemp>
          </ns3:TrackPointExtension>
        </extensions>
      </trkpt>
      <trkpt lat="42.5127944536507129669189453125" lon="19.93632920086383819580078125">
        <ele>1869.5999755859375</ele>
        <time>2026-06-17T10:13:25.000Z</time>
        <extensions>
          <ns3:TrackPointExtension>
            <ns3:atemp>20.0</ns3:atemp>
          </ns3:TrackPointExtension>
        </extensions>
      </trkpt>
      <trkpt lat="42.5127944536507129669189453125" lon="19.93632920086383819580078125">
        <ele>1869.5999755859375</ele>
        <time>2026-06-17T10:13:26.000Z</time>
        <extensions>
          <ns3:TrackPointExtension>
            <ns3:atemp>20.0</ns3:atemp>
          </ns3:TrackPointExtension>
        </extensions>
      </trkpt>
      <trkpt lat="42.5127944536507129669189453125" lon="19.93632920086383819580078125">
        <ele>1869.5999755859375</ele>
        <time>2026-06-17T10:13:27.000Z</time>
        <extensions>
          <ns3:TrackPointExtension>
            <ns3:atemp>20.0</ns3:atemp>
          </ns3:TrackPointExtension>
        </extensions>
      </trkpt>
      <trkpt lat="42.5127944536507129669189453125" lon="19.93632920086383819580078125">
        <ele>1869.5999755859375</ele>
        <time>2026-06-17T10:13:28.000Z</time>
        <extensions>
          <ns3:TrackPointExtension>
            <ns3:atemp>20.0</ns3:atemp>
          </ns3:TrackPointExtension>
        </extensions>
      </trkpt>
      <trkpt lat="42.5127944536507129669189453125" lon="19.93632920086383819580078125">
        <ele>1869.5999755859375</ele>
        <time>2026-06-17T10:13:29.000Z</time>
        <extensions>
          <ns3:TrackPointExtension>
            <ns3:atemp>20.0</ns3:atemp>
          </ns3:TrackPointExtension>
        </extensions>
      </trkpt>
      <trkpt lat="42.5127944536507129669189453125" lon="19.93632920086383819580078125">
        <ele>1869.5999755859375</ele>
        <time>2026-06-17T10:13:30.000Z</time>
        <extensions>
          <ns3:TrackPointExtension>
            <ns3:atemp>20.0</ns3:atemp>
          </ns3:TrackPointExtension>
        </extensions>
      </trkpt>
      <trkpt lat="42.5127944536507129669189453125" lon="19.93632920086383819580078125">
        <ele>1869.5999755859375</ele>
        <time>2026-06-17T10:13:31.000Z</time>
        <extensions>
          <ns3:TrackPointExtension>
            <ns3:atemp>20.0</ns3:atemp>
          </ns3:TrackPointExtension>
        </extensions>
      </trkpt>
      <trkpt lat="42.5127944536507129669189453125" lon="19.93632920086383819580078125">
        <ele>1869.5999755859375</ele>
        <time>2026-06-17T10:13:32.000Z</time>
        <extensions>
          <ns3:TrackPointExtension>
            <ns3:atemp>20.0</ns3:atemp>
          </ns3:TrackPointExtension>
        </extensions>
      </trkpt>
      <trkpt lat="42.5127944536507129669189453125" lon="19.93632920086383819580078125">
        <ele>1869.5999755859375</ele>
        <time>2026-06-17T10:13:33.000Z</time>
        <extensions>
          <ns3:TrackPointExtension>
            <ns3:atemp>20.0</ns3:atemp>
          </ns3:TrackPointExtension>
        </extensions>
      </trkpt>
      <trkpt lat="42.5127944536507129669189453125" lon="19.93632920086383819580078125">
        <ele>1869.5999755859375</ele>
        <time>2026-06-17T10:13:34.000Z</time>
        <extensions>
          <ns3:TrackPointExtension>
            <ns3:atemp>20.0</ns3:atemp>
          </ns3:TrackPointExtension>
        </extensions>
      </trkpt>
      <trkpt lat="42.5127944536507129669189453125" lon="19.93632920086383819580078125">
        <ele>1869.5999755859375</ele>
        <time>2026-06-17T10:13:35.000Z</time>
        <extensions>
          <ns3:TrackPointExtension>
            <ns3:atemp>20.0</ns3:atemp>
          </ns3:TrackPointExtension>
        </extensions>
      </trkpt>
      <trkpt lat="42.5127944536507129669189453125" lon="19.93632920086383819580078125">
        <ele>1869.5999755859375</ele>
        <time>2026-06-17T10:13:36.000Z</time>
        <extensions>
          <ns3:TrackPointExtension>
            <ns3:atemp>20.0</ns3:atemp>
          </ns3:TrackPointExtension>
        </extensions>
      </trkpt>
      <trkpt lat="42.5127944536507129669189453125" lon="19.93632920086383819580078125">
        <ele>1869.5999755859375</ele>
        <time>2026-06-17T10:13:37.000Z</time>
        <extensions>
          <ns3:TrackPointExtension>
            <ns3:atemp>20.0</ns3:atemp>
          </ns3:TrackPointExtension>
        </extensions>
      </trkpt>
      <trkpt lat="42.5127944536507129669189453125" lon="19.93632920086383819580078125">
        <ele>1869.5999755859375</ele>
        <time>2026-06-17T10:13:38.000Z</time>
        <extensions>
          <ns3:TrackPointExtension>
            <ns3:atemp>20.0</ns3:atemp>
          </ns3:TrackPointExtension>
        </extensions>
      </trkpt>
      <trkpt lat="42.5127944536507129669189453125" lon="19.93632920086383819580078125">
        <ele>1869.5999755859375</ele>
        <time>2026-06-17T10:13:39.000Z</time>
        <extensions>
          <ns3:TrackPointExtension>
            <ns3:atemp>20.0</ns3:atemp>
          </ns3:TrackPointExtension>
        </extensions>
      </trkpt>
      <trkpt lat="42.5127944536507129669189453125" lon="19.93632920086383819580078125">
        <ele>1869.5999755859375</ele>
        <time>2026-06-17T10:13:40.000Z</time>
        <extensions>
          <ns3:TrackPointExtension>
            <ns3:atemp>20.0</ns3:atemp>
          </ns3:TrackPointExtension>
        </extensions>
      </trkpt>
      <trkpt lat="42.51279638148844242095947265625" lon="19.936326853930950164794921875">
        <ele>1869.5999755859375</ele>
        <time>2026-06-17T10:13:41.000Z</time>
        <extensions>
          <ns3:TrackPointExtension>
            <ns3:atemp>20.0</ns3:atemp>
          </ns3:TrackPointExtension>
        </extensions>
      </trkpt>
      <trkpt lat="42.51279629766941070556640625" lon="19.93633079342544078826904296875">
        <ele>1869.5999755859375</ele>
        <time>2026-06-17T10:13:42.000Z</time>
        <extensions>
          <ns3:TrackPointExtension>
            <ns3:atemp>20.0</ns3:atemp>
          </ns3:TrackPointExtension>
        </extensions>
      </trkpt>
      <trkpt lat="42.512802667915821075439453125" lon="19.936340935528278350830078125">
        <ele>1869.5999755859375</ele>
        <time>2026-06-17T10:13:43.000Z</time>
        <extensions>
          <ns3:TrackPointExtension>
            <ns3:atemp>20.0</ns3:atemp>
          </ns3:TrackPointExtension>
        </extensions>
      </trkpt>
      <trkpt lat="42.51280074007809162139892578125" lon="19.9363444559276103973388671875">
        <ele>1869.5999755859375</ele>
        <time>2026-06-17T10:13:44.000Z</time>
        <extensions>
          <ns3:TrackPointExtension>
            <ns3:atemp>20.0</ns3:atemp>
          </ns3:TrackPointExtension>
        </extensions>
      </trkpt>
      <trkpt lat="42.5127944536507129669189453125" lon="19.93632920086383819580078125">
        <ele>1869.5999755859375</ele>
        <time>2026-06-17T10:13:45.000Z</time>
        <extensions>
          <ns3:TrackPointExtension>
            <ns3:atemp>20.0</ns3:atemp>
          </ns3:TrackPointExtension>
        </extensions>
      </trkpt>
      <trkpt lat="42.5127944536507129669189453125" lon="19.93632920086383819580078125">
        <ele>1869.5999755859375</ele>
        <time>2026-06-17T10:13:46.000Z</time>
        <extensions>
          <ns3:TrackPointExtension>
            <ns3:atemp>20.0</ns3:atemp>
          </ns3:TrackPointExtension>
        </extensions>
      </trkpt>
      <trkpt lat="42.5127944536507129669189453125" lon="19.93632920086383819580078125">
        <ele>1869.5999755859375</ele>
        <time>2026-06-17T10:13:47.000Z</time>
        <extensions>
          <ns3:TrackPointExtension>
            <ns3:atemp>20.0</ns3:atemp>
          </ns3:TrackPointExtension>
        </extensions>
      </trkpt>
      <trkpt lat="42.5127944536507129669189453125" lon="19.93632920086383819580078125">
        <ele>1869.5999755859375</ele>
        <time>2026-06-17T10:13:48.000Z</time>
        <extensions>
          <ns3:TrackPointExtension>
            <ns3:atemp>20.0</ns3:atemp>
          </ns3:TrackPointExtension>
        </extensions>
      </trkpt>
      <trkpt lat="42.51280107535421848297119140625" lon="19.93634529411792755126953125">
        <ele>1869.5999755859375</ele>
        <time>2026-06-17T10:13:49.000Z</time>
        <extensions>
          <ns3:TrackPointExtension>
            <ns3:atemp>20.0</ns3:atemp>
          </ns3:TrackPointExtension>
        </extensions>
      </trkpt>
      <trkpt lat="42.51280124299228191375732421875" lon="19.9363808333873748779296875">
        <ele>1870.199951171875</ele>
        <time>2026-06-17T10:13:50.000Z</time>
        <extensions>
          <ns3:TrackPointExtension>
            <ns3:atemp>20.0</ns3:atemp>
          </ns3:TrackPointExtension>
        </extensions>
      </trkpt>
      <trkpt lat="42.51279889605939388275146484375" lon="19.9364022910594940185546875">
        <ele>1870</ele>
        <time>2026-06-17T10:13:51.000Z</time>
        <extensions>
          <ns3:TrackPointExtension>
            <ns3:atemp>20.0</ns3:atemp>
          </ns3:TrackPointExtension>
        </extensions>
      </trkpt>
      <trkpt lat="42.51279897987842559814453125" lon="19.936423413455486297607421875">
        <ele>1870</ele>
        <time>2026-06-17T10:13:52.000Z</time>
        <extensions>
          <ns3:TrackPointExtension>
            <ns3:atemp>20.0</ns3:atemp>
          </ns3:TrackPointExtension>
        </extensions>
      </trkpt>
      <trkpt lat="42.51279671676456928253173828125" lon="19.93644579313695430755615234375">
        <ele>1870</ele>
        <time>2026-06-17T10:13:53.000Z</time>
        <extensions>
          <ns3:TrackPointExtension>
            <ns3:atemp>20.0</ns3:atemp>
          </ns3:TrackPointExtension>
        </extensions>
      </trkpt>
      <trkpt lat="42.51279135234653949737548828125" lon="19.93647177703678607940673828125">
        <ele>1870</ele>
        <time>2026-06-17T10:13:54.000Z</time>
        <extensions>
          <ns3:TrackPointExtension>
            <ns3:atemp>20.0</ns3:atemp>
          </ns3:TrackPointExtension>
        </extensions>
      </trkpt>
      <trkpt lat="42.5127860717475414276123046875" lon="19.9364988505840301513671875">
        <ele>1870.199951171875</ele>
        <time>2026-06-17T10:13:55.000Z</time>
        <extensions>
          <ns3:TrackPointExtension>
            <ns3:atemp>20.0</ns3:atemp>
          </ns3:TrackPointExtension>
        </extensions>
      </trkpt>
      <trkpt lat="42.51277693547308444976806640625" lon="19.93651829659938812255859375">
        <ele>1870.199951171875</ele>
        <time>2026-06-17T10:13:56.000Z</time>
        <extensions>
          <ns3:TrackPointExtension>
            <ns3:atemp>20.0</ns3:atemp>
          </ns3:TrackPointExtension>
        </extensions>
      </trkpt>
      <trkpt lat="42.512773834168910980224609375" lon="19.93653128854930400848388671875">
        <ele>1870.4000244140625</ele>
        <time>2026-06-17T10:13:57.000Z</time>
        <extensions>
          <ns3:TrackPointExtension>
            <ns3:atemp>20.0</ns3:atemp>
          </ns3:TrackPointExtension>
        </extensions>
      </trkpt>
      <trkpt lat="42.512767128646373748779296875" lon="19.9365509860217571258544921875">
        <ele>1870.5999755859375</ele>
        <time>2026-06-17T10:13:58.000Z</time>
        <extensions>
          <ns3:TrackPointExtension>
            <ns3:atemp>20.0</ns3:atemp>
          </ns3:TrackPointExtension>
        </extensions>
      </trkpt>
      <trkpt lat="42.512761764228343963623046875" lon="19.936578981578350067138671875">
        <ele>1870.5999755859375</ele>
        <time>2026-06-17T10:13:59.000Z</time>
        <extensions>
          <ns3:TrackPointExtension>
            <ns3:atemp>20.0</ns3:atemp>
          </ns3:TrackPointExtension>
        </extensions>
      </trkpt>
      <trkpt lat="42.51275681890547275543212890625" lon="19.9366096593439579010009765625">
        <ele>1870.800048828125</ele>
        <time>2026-06-17T10:14:00.000Z</time>
        <extensions>
          <ns3:TrackPointExtension>
            <ns3:atemp>20.0</ns3:atemp>
          </ns3:TrackPointExtension>
        </extensions>
      </trkpt>
      <trkpt lat="42.51274592243134975433349609375" lon="19.9366436898708343505859375">
        <ele>1870.800048828125</ele>
        <time>2026-06-17T10:14:01.000Z</time>
        <extensions>
          <ns3:TrackPointExtension>
            <ns3:atemp>20.0</ns3:atemp>
          </ns3:TrackPointExtension>
        </extensions>
      </trkpt>
      <trkpt lat="42.512730248272418975830078125" lon="19.93667495436966419219970703125">
        <ele>1871</ele>
        <time>2026-06-17T10:14:02.000Z</time>
        <extensions>
          <ns3:TrackPointExtension>
            <ns3:atemp>20.0</ns3:atemp>
          </ns3:TrackPointExtension>
        </extensions>
      </trkpt>
      <trkpt lat="42.5127111375331878662109375" lon="19.93670177645981311798095703125">
        <ele>1871</ele>
        <time>2026-06-17T10:14:03.000Z</time>
        <extensions>
          <ns3:TrackPointExtension>
            <ns3:atemp>20.0</ns3:atemp>
          </ns3:TrackPointExtension>
        </extensions>
      </trkpt>
      <trkpt lat="42.51269009895622730255126953125" lon="19.936712421476840972900390625">
        <ele>1871</ele>
        <time>2026-06-17T10:14:04.000Z</time>
        <extensions>
          <ns3:TrackPointExtension>
            <ns3:atemp>20.0</ns3:atemp>
          </ns3:TrackPointExtension>
        </extensions>
      </trkpt>
      <trkpt lat="42.512681297957897186279296875" lon="19.93670110590755939483642578125">
        <ele>1871.199951171875</ele>
        <time>2026-06-17T10:14:05.000Z</time>
        <extensions>
          <ns3:TrackPointExtension>
            <ns3:atemp>20.0</ns3:atemp>
          </ns3:TrackPointExtension>
        </extensions>
      </trkpt>
      <trkpt lat="42.51267962157726287841796875" lon="19.93669004179537296295166015625">
        <ele>1871.4000244140625</ele>
        <time>2026-06-17T10:14:06.000Z</time>
        <extensions>
          <ns3:TrackPointExtension>
            <ns3:atemp>20.0</ns3:atemp>
          </ns3:TrackPointExtension>
        </extensions>
      </trkpt>
      <trkpt lat="42.5126771070063114166259765625" lon="19.9366797320544719696044921875">
        <ele>1871.5999755859375</ele>
        <time>2026-06-17T10:14:07.000Z</time>
        <extensions>
          <ns3:TrackPointExtension>
            <ns3:atemp>20.0</ns3:atemp>
          </ns3:TrackPointExtension>
        </extensions>
      </trkpt>
      <trkpt lat="42.5126791186630725860595703125" lon="19.93666908703744411468505859375">
        <ele>1872</ele>
        <time>2026-06-17T10:14:08.000Z</time>
        <extensions>
          <ns3:TrackPointExtension>
            <ns3:atemp>20.0</ns3:atemp>
          </ns3:TrackPointExtension>
        </extensions>
      </trkpt>
      <trkpt lat="42.5126841478049755096435546875" lon="19.936658106744289398193359375">
        <ele>1872</ele>
        <time>2026-06-17T10:14:09.000Z</time>
        <extensions>
          <ns3:TrackPointExtension>
            <ns3:atemp>20.0</ns3:atemp>
          </ns3:TrackPointExtension>
        </extensions>
      </trkpt>
      <trkpt lat="42.51268724910914897918701171875" lon="19.93665752001106739044189453125">
        <ele>1872.199951171875</ele>
        <time>2026-06-17T10:14:10.000Z</time>
        <extensions>
          <ns3:TrackPointExtension>
            <ns3:atemp>20.0</ns3:atemp>
          </ns3:TrackPointExtension>
        </extensions>
      </trkpt>
      <trkpt lat="42.51269437372684478759765625" lon="19.9366498924791812896728515625">
        <ele>1872.199951171875</ele>
        <time>2026-06-17T10:14:11.000Z</time>
        <extensions>
          <ns3:TrackPointExtension>
            <ns3:atemp>20.0</ns3:atemp>
          </ns3:TrackPointExtension>
        </extensions>
      </trkpt>
      <trkpt lat="42.51270166598260402679443359375" lon="19.93662868626415729522705078125">
        <ele>1872.199951171875</ele>
        <time>2026-06-17T10:14:12.000Z</time>
        <extensions>
          <ns3:TrackPointExtension>
            <ns3:atemp>20.0</ns3:atemp>
          </ns3:TrackPointExtension>
        </extensions>
      </trkpt>
      <trkpt lat="42.51270887441933155059814453125" lon="19.93660337291657924652099609375">
        <ele>1872.199951171875</ele>
        <time>2026-06-17T10:14:13.000Z</time>
        <extensions>
          <ns3:TrackPointExtension>
            <ns3:atemp>20.0</ns3:atemp>
          </ns3:TrackPointExtension>
        </extensions>
      </trkpt>
      <trkpt lat="42.512714825570583343505859375" lon="19.93658535182476043701171875">
        <ele>1872.199951171875</ele>
        <time>2026-06-17T10:14:14.000Z</time>
        <extensions>
          <ns3:TrackPointExtension>
            <ns3:atemp>20.0</ns3:atemp>
          </ns3:TrackPointExtension>
        </extensions>
      </trkpt>
      <trkpt lat="42.51272027380764484405517578125" lon="19.93656917475163936614990234375">
        <ele>1872.199951171875</ele>
        <time>2026-06-17T10:14:15.000Z</time>
        <extensions>
          <ns3:TrackPointExtension>
            <ns3:atemp>20.0</ns3:atemp>
          </ns3:TrackPointExtension>
        </extensions>
      </trkpt>
      <trkpt lat="42.51272647641599178314208984375" lon="19.93655190803110599517822265625">
        <ele>1872.199951171875</ele>
        <time>2026-06-17T10:14:16.000Z</time>
        <extensions>
          <ns3:TrackPointExtension>
            <ns3:atemp>20.0</ns3:atemp>
          </ns3:TrackPointExtension>
        </extensions>
      </trkpt>
      <trkpt lat="42.51273326575756072998046875" lon="19.936534725129604339599609375">
        <ele>1872.199951171875</ele>
        <time>2026-06-17T10:14:17.000Z</time>
        <extensions>
          <ns3:TrackPointExtension>
            <ns3:atemp>20.0</ns3:atemp>
          </ns3:TrackPointExtension>
        </extensions>
      </trkpt>
      <trkpt lat="42.51273863017559051513671875" lon="19.93652223609387874603271484375">
        <ele>1872.4000244140625</ele>
        <time>2026-06-17T10:14:18.000Z</time>
        <extensions>
          <ns3:TrackPointExtension>
            <ns3:atemp>20.0</ns3:atemp>
          </ns3:TrackPointExtension>
        </extensions>
      </trkpt>
      <trkpt lat="42.51274273730814456939697265625" lon="19.93651050142943859100341796875">
        <ele>1872.4000244140625</ele>
        <time>2026-06-17T10:14:19.000Z</time>
        <extensions>
          <ns3:TrackPointExtension>
            <ns3:atemp>20.0</ns3:atemp>
          </ns3:TrackPointExtension>
        </extensions>
      </trkpt>
      <trkpt lat="42.5127468444406986236572265625" lon="19.93649893440306186676025390625">
        <ele>1872.5999755859375</ele>
        <time>2026-06-17T10:14:20.000Z</time>
        <extensions>
          <ns3:TrackPointExtension>
            <ns3:atemp>20.0</ns3:atemp>
          </ns3:TrackPointExtension>
        </extensions>
      </trkpt>
      <trkpt lat="42.51275044865906238555908203125" lon="19.93648518808186054229736328125">
        <ele>1872.5999755859375</ele>
        <time>2026-06-17T10:14:21.000Z</time>
        <extensions>
          <ns3:TrackPointExtension>
            <ns3:atemp>20.0</ns3:atemp>
          </ns3:TrackPointExtension>
        </extensions>
      </trkpt>
      <trkpt lat="42.51275606453418731689453125" lon="19.93646926246583461761474609375">
        <ele>1872.5999755859375</ele>
        <time>2026-06-17T10:14:22.000Z</time>
        <extensions>
          <ns3:TrackPointExtension>
            <ns3:atemp>20.0</ns3:atemp>
          </ns3:TrackPointExtension>
        </extensions>
      </trkpt>
      <trkpt lat="42.51276277005672454833984375" lon="19.93644897826015949249267578125">
        <ele>1872.4000244140625</ele>
        <time>2026-06-17T10:14:23.000Z</time>
        <extensions>
          <ns3:TrackPointExtension>
            <ns3:atemp>20.0</ns3:atemp>
          </ns3:TrackPointExtension>
        </extensions>
      </trkpt>
      <trkpt lat="42.512768469750881195068359375" lon="19.93643355555832386016845703125">
        <ele>1872.4000244140625</ele>
        <time>2026-06-17T10:14:24.000Z</time>
        <extensions>
          <ns3:TrackPointExtension>
            <ns3:atemp>20.0</ns3:atemp>
          </ns3:TrackPointExtension>
        </extensions>
      </trkpt>
      <trkpt lat="42.5127733312547206878662109375" lon="19.93641612119972705841064453125">
        <ele>1872.4000244140625</ele>
        <time>2026-06-17T10:14:25.000Z</time>
        <extensions>
          <ns3:TrackPointExtension>
            <ns3:atemp>20.0</ns3:atemp>
          </ns3:TrackPointExtension>
        </extensions>
      </trkpt>
      <trkpt lat="42.51277525909245014190673828125" lon="19.9364130198955535888671875">
        <ele>1872.199951171875</ele>
        <time>2026-06-17T10:14:26.000Z</time>
        <extensions>
          <ns3:TrackPointExtension>
            <ns3:atemp>20.0</ns3:atemp>
          </ns3:TrackPointExtension>
        </extensions>
      </trkpt>
      <trkpt lat="42.51277525909245014190673828125" lon="19.93641310371458530426025390625">
        <ele>1872.199951171875</ele>
        <time>2026-06-17T10:14:27.000Z</time>
        <extensions>
          <ns3:TrackPointExtension>
            <ns3:atemp>20.0</ns3:atemp>
          </ns3:TrackPointExtension>
        </extensions>
      </trkpt>
      <trkpt lat="42.51277525909245014190673828125" lon="19.93641310371458530426025390625">
        <ele>1872.199951171875</ele>
        <time>2026-06-17T10:14:28.000Z</time>
        <extensions>
          <ns3:TrackPointExtension>
            <ns3:atemp>20.0</ns3:atemp>
          </ns3:TrackPointExtension>
        </extensions>
      </trkpt>
      <trkpt lat="42.51277525909245014190673828125" lon="19.93641310371458530426025390625">
        <ele>1872.199951171875</ele>
        <time>2026-06-17T10:14:29.000Z</time>
        <extensions>
          <ns3:TrackPointExtension>
            <ns3:atemp>20.0</ns3:atemp>
          </ns3:TrackPointExtension>
        </extensions>
      </trkpt>
      <trkpt lat="42.51277525909245014190673828125" lon="19.93641310371458530426025390625">
        <ele>1872</ele>
        <time>2026-06-17T10:14:30.000Z</time>
        <extensions>
          <ns3:TrackPointExtension>
            <ns3:atemp>20.0</ns3:atemp>
          </ns3:TrackPointExtension>
        </extensions>
      </trkpt>
      <trkpt lat="42.51277525909245014190673828125" lon="19.93641310371458530426025390625">
        <ele>1872</ele>
        <time>2026-06-17T10:14:31.000Z</time>
        <extensions>
          <ns3:TrackPointExtension>
            <ns3:atemp>20.0</ns3:atemp>
          </ns3:TrackPointExtension>
        </extensions>
      </trkpt>
      <trkpt lat="42.51277525909245014190673828125" lon="19.93641310371458530426025390625">
        <ele>1872.199951171875</ele>
        <time>2026-06-17T10:14:32.000Z</time>
        <extensions>
          <ns3:TrackPointExtension>
            <ns3:atemp>20.0</ns3:atemp>
          </ns3:TrackPointExtension>
        </extensions>
      </trkpt>
      <trkpt lat="42.51277525909245014190673828125" lon="19.93641310371458530426025390625">
        <ele>1872.199951171875</ele>
        <time>2026-06-17T10:14:33.000Z</time>
        <extensions>
          <ns3:TrackPointExtension>
            <ns3:atemp>20.0</ns3:atemp>
          </ns3:TrackPointExtension>
        </extensions>
      </trkpt>
      <trkpt lat="42.51277525909245014190673828125" lon="19.93641310371458530426025390625">
        <ele>1872.199951171875</ele>
        <time>2026-06-17T10:14:34.000Z</time>
        <extensions>
          <ns3:TrackPointExtension>
            <ns3:atemp>20.0</ns3:atemp>
          </ns3:TrackPointExtension>
        </extensions>
      </trkpt>
      <trkpt lat="42.51277542673051357269287109375" lon="19.93641444481909275054931640625">
        <ele>1872.199951171875</ele>
        <time>2026-06-17T10:14:35.000Z</time>
        <extensions>
          <ns3:TrackPointExtension>
            <ns3:atemp>20.0</ns3:atemp>
          </ns3:TrackPointExtension>
        </extensions>
      </trkpt>
      <trkpt lat="42.5127773545682430267333984375" lon="19.93642450310289859771728515625">
        <ele>1872.199951171875</ele>
        <time>2026-06-17T10:14:36.000Z</time>
        <extensions>
          <ns3:TrackPointExtension>
            <ns3:atemp>20.0</ns3:atemp>
          </ns3:TrackPointExtension>
        </extensions>
      </trkpt>
      <trkpt lat="42.512776851654052734375" lon="19.93643288500607013702392578125">
        <ele>1872.4000244140625</ele>
        <time>2026-06-17T10:14:37.000Z</time>
        <extensions>
          <ns3:TrackPointExtension>
            <ns3:atemp>20.0</ns3:atemp>
          </ns3:TrackPointExtension>
        </extensions>
      </trkpt>
      <trkpt lat="42.51277542673051357269287109375" lon="19.936434812843799591064453125">
        <ele>1872.4000244140625</ele>
        <time>2026-06-17T10:14:38.000Z</time>
        <extensions>
          <ns3:TrackPointExtension>
            <ns3:atemp>20.0</ns3:atemp>
          </ns3:TrackPointExtension>
        </extensions>
      </trkpt>
      <trkpt lat="42.51277542673051357269287109375" lon="19.93643489666283130645751953125">
        <ele>1872.4000244140625</ele>
        <time>2026-06-17T10:14:39.000Z</time>
        <extensions>
          <ns3:TrackPointExtension>
            <ns3:atemp>20.0</ns3:atemp>
          </ns3:TrackPointExtension>
        </extensions>
      </trkpt>
      <trkpt lat="42.51277542673051357269287109375" lon="19.93643489666283130645751953125">
        <ele>1872.4000244140625</ele>
        <time>2026-06-17T10:14:40.000Z</time>
        <extensions>
          <ns3:TrackPointExtension>
            <ns3:atemp>20.0</ns3:atemp>
          </ns3:TrackPointExtension>
        </extensions>
      </trkpt>
      <trkpt lat="42.51277542673051357269287109375" lon="19.93643489666283130645751953125">
        <ele>1872.199951171875</ele>
        <time>2026-06-17T10:14:41.000Z</time>
        <extensions>
          <ns3:TrackPointExtension>
            <ns3:atemp>20.0</ns3:atemp>
          </ns3:TrackPointExtension>
        </extensions>
      </trkpt>
      <trkpt lat="42.51277542673051357269287109375" lon="19.93643489666283130645751953125">
        <ele>1872.199951171875</ele>
        <time>2026-06-17T10:14:42.000Z</time>
        <extensions>
          <ns3:TrackPointExtension>
            <ns3:atemp>20.0</ns3:atemp>
          </ns3:TrackPointExtension>
        </extensions>
      </trkpt>
      <trkpt lat="42.51277542673051357269287109375" lon="19.93643489666283130645751953125">
        <ele>1872.199951171875</ele>
        <time>2026-06-17T10:14:43.000Z</time>
        <extensions>
          <ns3:TrackPointExtension>
            <ns3:atemp>20.0</ns3:atemp>
          </ns3:TrackPointExtension>
        </extensions>
      </trkpt>
      <trkpt lat="42.51277542673051357269287109375" lon="19.93643489666283130645751953125">
        <ele>1872.199951171875</ele>
        <time>2026-06-17T10:14:44.000Z</time>
        <extensions>
          <ns3:TrackPointExtension>
            <ns3:atemp>20.0</ns3:atemp>
          </ns3:TrackPointExtension>
        </extensions>
      </trkpt>
      <trkpt lat="42.51277542673051357269287109375" lon="19.93643489666283130645751953125">
        <ele>1872.199951171875</ele>
        <time>2026-06-17T10:14:45.000Z</time>
        <extensions>
          <ns3:TrackPointExtension>
            <ns3:atemp>20.0</ns3:atemp>
          </ns3:TrackPointExtension>
        </extensions>
      </trkpt>
      <trkpt lat="42.51277542673051357269287109375" lon="19.93643489666283130645751953125">
        <ele>1872</ele>
        <time>2026-06-17T10:14:46.000Z</time>
        <extensions>
          <ns3:TrackPointExtension>
            <ns3:atemp>20.0</ns3:atemp>
          </ns3:TrackPointExtension>
        </extensions>
      </trkpt>
      <trkpt lat="42.51277542673051357269287109375" lon="19.93643489666283130645751953125">
        <ele>1872</ele>
        <time>2026-06-17T10:14:47.000Z</time>
        <extensions>
          <ns3:TrackPointExtension>
            <ns3:atemp>20.0</ns3:atemp>
          </ns3:TrackPointExtension>
        </extensions>
      </trkpt>
      <trkpt lat="42.51277542673051357269287109375" lon="19.93643489666283130645751953125">
        <ele>1872</ele>
        <time>2026-06-17T10:14:48.000Z</time>
        <extensions>
          <ns3:TrackPointExtension>
            <ns3:atemp>20.0</ns3:atemp>
          </ns3:TrackPointExtension>
        </extensions>
      </trkpt>
      <trkpt lat="42.51277542673051357269287109375" lon="19.93643489666283130645751953125">
        <ele>1872</ele>
        <time>2026-06-17T10:14:49.000Z</time>
        <extensions>
          <ns3:TrackPointExtension>
            <ns3:atemp>20.0</ns3:atemp>
          </ns3:TrackPointExtension>
        </extensions>
      </trkpt>
      <trkpt lat="42.51277542673051357269287109375" lon="19.93643489666283130645751953125">
        <ele>1872</ele>
        <time>2026-06-17T10:14:50.000Z</time>
        <extensions>
          <ns3:TrackPointExtension>
            <ns3:atemp>20.0</ns3:atemp>
          </ns3:TrackPointExtension>
        </extensions>
      </trkpt>
      <trkpt lat="42.51277542673051357269287109375" lon="19.93643489666283130645751953125">
        <ele>1872</ele>
        <time>2026-06-17T10:14:51.000Z</time>
        <extensions>
          <ns3:TrackPointExtension>
            <ns3:atemp>20.0</ns3:atemp>
          </ns3:TrackPointExtension>
        </extensions>
      </trkpt>
      <trkpt lat="42.51277542673051357269287109375" lon="19.93643489666283130645751953125">
        <ele>1872</ele>
        <time>2026-06-17T10:14:52.000Z</time>
        <extensions>
          <ns3:TrackPointExtension>
            <ns3:atemp>20.0</ns3:atemp>
          </ns3:TrackPointExtension>
        </extensions>
      </trkpt>
      <trkpt lat="42.51277542673051357269287109375" lon="19.93643489666283130645751953125">
        <ele>1872</ele>
        <time>2026-06-17T10:14:53.000Z</time>
        <extensions>
          <ns3:TrackPointExtension>
            <ns3:atemp>20.0</ns3:atemp>
          </ns3:TrackPointExtension>
        </extensions>
      </trkpt>
      <trkpt lat="42.51277542673051357269287109375" lon="19.93643489666283130645751953125">
        <ele>1872.199951171875</ele>
        <time>2026-06-17T10:14:54.000Z</time>
        <extensions>
          <ns3:TrackPointExtension>
            <ns3:atemp>20.0</ns3:atemp>
          </ns3:TrackPointExtension>
        </extensions>
      </trkpt>
      <trkpt lat="42.51277542673051357269287109375" lon="19.93643489666283130645751953125">
        <ele>1872.199951171875</ele>
        <time>2026-06-17T10:14:55.000Z</time>
        <extensions>
          <ns3:TrackPointExtension>
            <ns3:atemp>20.0</ns3:atemp>
          </ns3:TrackPointExtension>
        </extensions>
      </trkpt>
      <trkpt lat="42.51277777366340160369873046875" lon="19.93643506430089473724365234375">
        <ele>1872.199951171875</ele>
        <time>2026-06-17T10:14:56.000Z</time>
        <extensions>
          <ns3:TrackPointExtension>
            <ns3:atemp>20.0</ns3:atemp>
          </ns3:TrackPointExtension>
        </extensions>
      </trkpt>
      <trkpt lat="42.5127840600907802581787109375" lon="19.93645350448787212371826171875">
        <ele>1872</ele>
        <time>2026-06-17T10:14:57.000Z</time>
        <extensions>
          <ns3:TrackPointExtension>
            <ns3:atemp>20.0</ns3:atemp>
          </ns3:TrackPointExtension>
        </extensions>
      </trkpt>
      <trkpt lat="42.51278498210012912750244140625" lon="19.93647227995097637176513671875">
        <ele>1872</ele>
        <time>2026-06-17T10:14:58.000Z</time>
        <extensions>
          <ns3:TrackPointExtension>
            <ns3:atemp>20.0</ns3:atemp>
          </ns3:TrackPointExtension>
        </extensions>
      </trkpt>
      <trkpt lat="42.51278280280530452728271484375" lon="19.93648879230022430419921875">
        <ele>1871.800048828125</ele>
        <time>2026-06-17T10:14:59.000Z</time>
        <extensions>
          <ns3:TrackPointExtension>
            <ns3:atemp>20.0</ns3:atemp>
          </ns3:TrackPointExtension>
        </extensions>
      </trkpt>
      <trkpt lat="42.51277777366340160369873046875" lon="19.93651217781007289886474609375">
        <ele>1871.800048828125</ele>
        <time>2026-06-17T10:15:00.000Z</time>
        <extensions>
          <ns3:TrackPointExtension>
            <ns3:atemp>20.0</ns3:atemp>
          </ns3:TrackPointExtension>
        </extensions>
      </trkpt>
      <trkpt lat="42.51277576200664043426513671875" lon="19.93653279729187488555908203125">
        <ele>1871.800048828125</ele>
        <time>2026-06-17T10:15:01.000Z</time>
        <extensions>
          <ns3:TrackPointExtension>
            <ns3:atemp>20.0</ns3:atemp>
          </ns3:TrackPointExtension>
        </extensions>
      </trkpt>
      <trkpt lat="42.512771822512149810791015625" lon="19.93654671125113964080810546875">
        <ele>1871.5999755859375</ele>
        <time>2026-06-17T10:15:02.000Z</time>
        <extensions>
          <ns3:TrackPointExtension>
            <ns3:atemp>20.0</ns3:atemp>
          </ns3:TrackPointExtension>
        </extensions>
      </trkpt>
      <trkpt lat="42.51276620663702487945556640625" lon="19.936558194458484649658203125">
        <ele>1871.5999755859375</ele>
        <time>2026-06-17T10:15:03.000Z</time>
        <extensions>
          <ns3:TrackPointExtension>
            <ns3:atemp>20.0</ns3:atemp>
          </ns3:TrackPointExtension>
        </extensions>
      </trkpt>
      <trkpt lat="42.51276486553251743316650390625" lon="19.93657051585614681243896484375">
        <ele>1871.800048828125</ele>
        <time>2026-06-17T10:15:04.000Z</time>
        <extensions>
          <ns3:TrackPointExtension>
            <ns3:atemp>20.0</ns3:atemp>
          </ns3:TrackPointExtension>
        </extensions>
      </trkpt>
      <trkpt lat="42.51275966875255107879638671875" lon="19.93658225052058696746826171875">
        <ele>1871.800048828125</ele>
        <time>2026-06-17T10:15:05.000Z</time>
        <extensions>
          <ns3:TrackPointExtension>
            <ns3:atemp>20.0</ns3:atemp>
          </ns3:TrackPointExtension>
        </extensions>
      </trkpt>
      <trkpt lat="42.51274927519261837005615234375" lon="19.93659339845180511474609375">
        <ele>1872</ele>
        <time>2026-06-17T10:15:06.000Z</time>
        <extensions>
          <ns3:TrackPointExtension>
            <ns3:atemp>20.0</ns3:atemp>
          </ns3:TrackPointExtension>
        </extensions>
      </trkpt>
      <trkpt lat="42.5127421505749225616455078125" lon="19.93660773150622844696044921875">
        <ele>1872</ele>
        <time>2026-06-17T10:15:07.000Z</time>
        <extensions>
          <ns3:TrackPointExtension>
            <ns3:atemp>20.0</ns3:atemp>
          </ns3:TrackPointExtension>
        </extensions>
      </trkpt>
      <trkpt lat="42.512737624347209930419921875" lon="19.9366307817399501800537109375">
        <ele>1872</ele>
        <time>2026-06-17T10:15:08.000Z</time>
        <extensions>
          <ns3:TrackPointExtension>
            <ns3:atemp>20.0</ns3:atemp>
          </ns3:TrackPointExtension>
        </extensions>
      </trkpt>
      <trkpt lat="42.51272899098694324493408203125" lon="19.9366552568972110748291015625">
        <ele>1872</ele>
        <time>2026-06-17T10:15:09.000Z</time>
        <extensions>
          <ns3:TrackPointExtension>
            <ns3:atemp>20.0</ns3:atemp>
          </ns3:TrackPointExtension>
        </extensions>
      </trkpt>
      <trkpt lat="42.51271675340831279754638671875" lon="19.936680234968662261962890625">
        <ele>1872</ele>
        <time>2026-06-17T10:15:10.000Z</time>
        <extensions>
          <ns3:TrackPointExtension>
            <ns3:atemp>20.0</ns3:atemp>
          </ns3:TrackPointExtension>
        </extensions>
      </trkpt>
      <trkpt lat="42.51270585693418979644775390625" lon="19.9367045424878597259521484375">
        <ele>1871.800048828125</ele>
        <time>2026-06-17T10:15:11.000Z</time>
        <extensions>
          <ns3:TrackPointExtension>
            <ns3:atemp>20.0</ns3:atemp>
          </ns3:TrackPointExtension>
        </extensions>
      </trkpt>
      <trkpt lat="42.51269596628844738006591796875" lon="19.93672885000705718994140625">
        <ele>1871.800048828125</ele>
        <time>2026-06-17T10:15:12.000Z</time>
        <extensions>
          <ns3:TrackPointExtension>
            <ns3:atemp>20.0</ns3:atemp>
          </ns3:TrackPointExtension>
        </extensions>
      </trkpt>
      <trkpt lat="42.51268071122467517852783203125" lon="19.93674150668084621429443359375">
        <ele>1871.800048828125</ele>
        <time>2026-06-17T10:15:13.000Z</time>
        <extensions>
          <ns3:TrackPointExtension>
            <ns3:atemp>20.0</ns3:atemp>
          </ns3:TrackPointExtension>
        </extensions>
      </trkpt>
      <trkpt lat="42.51266562379896640777587890625" lon="19.93674066849052906036376953125">
        <ele>1871.800048828125</ele>
        <time>2026-06-17T10:15:14.000Z</time>
        <extensions>
          <ns3:TrackPointExtension>
            <ns3:atemp>20.0</ns3:atemp>
          </ns3:TrackPointExtension>
        </extensions>
      </trkpt>
      <trkpt lat="42.512658499181270599365234375" lon="19.93673019111156463623046875">
        <ele>1872</ele>
        <time>2026-06-17T10:15:15.000Z</time>
        <extensions>
          <ns3:TrackPointExtension>
            <ns3:atemp>20.0</ns3:atemp>
          </ns3:TrackPointExtension>
        </extensions>
      </trkpt>
      <trkpt lat="42.51265958882868289947509765625" lon="19.9367203004658222198486328125">
        <ele>1872</ele>
        <time>2026-06-17T10:15:16.000Z</time>
        <extensions>
          <ns3:TrackPointExtension>
            <ns3:atemp>20.0</ns3:atemp>
          </ns3:TrackPointExtension>
        </extensions>
      </trkpt>
      <trkpt lat="42.5126616843044757843017578125" lon="19.93671099655330181121826171875">
        <ele>1872.199951171875</ele>
        <time>2026-06-17T10:15:17.000Z</time>
        <extensions>
          <ns3:TrackPointExtension>
            <ns3:atemp>20.0</ns3:atemp>
          </ns3:TrackPointExtension>
        </extensions>
      </trkpt>
      <trkpt lat="42.51266009174287319183349609375" lon="19.936705045402050018310546875">
        <ele>1872.4000244140625</ele>
        <time>2026-06-17T10:15:18.000Z</time>
        <extensions>
          <ns3:TrackPointExtension>
            <ns3:atemp>20.0</ns3:atemp>
          </ns3:TrackPointExtension>
        </extensions>
      </trkpt>
      <trkpt lat="42.512658499181270599365234375" lon="19.93669959716498851776123046875">
        <ele>1872.4000244140625</ele>
        <time>2026-06-17T10:15:19.000Z</time>
        <extensions>
          <ns3:TrackPointExtension>
            <ns3:atemp>20.0</ns3:atemp>
          </ns3:TrackPointExtension>
        </extensions>
      </trkpt>
      <trkpt lat="42.51266025938093662261962890625" lon="19.93669859133660793304443359375">
        <ele>1872.4000244140625</ele>
        <time>2026-06-17T10:15:20.000Z</time>
        <extensions>
          <ns3:TrackPointExtension>
            <ns3:atemp>20.0</ns3:atemp>
          </ns3:TrackPointExtension>
        </extensions>
      </trkpt>
      <trkpt lat="42.51266210339963436126708984375" lon="19.9366911314427852630615234375">
        <ele>1872.4000244140625</ele>
        <time>2026-06-17T10:15:21.000Z</time>
        <extensions>
          <ns3:TrackPointExtension>
            <ns3:atemp>20.0</ns3:atemp>
          </ns3:TrackPointExtension>
        </extensions>
      </trkpt>
      <trkpt lat="42.512671239674091339111328125" lon="19.93668886832892894744873046875">
        <ele>1872.199951171875</ele>
        <time>2026-06-17T10:15:22.000Z</time>
        <extensions>
          <ns3:TrackPointExtension>
            <ns3:atemp>20.0</ns3:atemp>
          </ns3:TrackPointExtension>
        </extensions>
      </trkpt>
      <trkpt lat="42.51267769373953342437744140625" lon="19.93668568320572376251220703125">
        <ele>1872.199951171875</ele>
        <time>2026-06-17T10:15:23.000Z</time>
        <extensions>
          <ns3:TrackPointExtension>
            <ns3:atemp>20.0</ns3:atemp>
          </ns3:TrackPointExtension>
        </extensions>
      </trkpt>
      <trkpt lat="42.51267920248210430145263671875" lon="19.93668618611991405487060546875">
        <ele>1872.199951171875</ele>
        <time>2026-06-17T10:15:24.000Z</time>
        <extensions>
          <ns3:TrackPointExtension>
            <ns3:atemp>20.0</ns3:atemp>
          </ns3:TrackPointExtension>
        </extensions>
      </trkpt>
      <trkpt lat="42.51267937012016773223876953125" lon="19.9366861023008823394775390625">
        <ele>1872.199951171875</ele>
        <time>2026-06-17T10:15:25.000Z</time>
        <extensions>
          <ns3:TrackPointExtension>
            <ns3:atemp>20.0</ns3:atemp>
          </ns3:TrackPointExtension>
        </extensions>
      </trkpt>
      <trkpt lat="42.51267953775823116302490234375" lon="19.93668593466281890869140625">
        <ele>1872.199951171875</ele>
        <time>2026-06-17T10:15:26.000Z</time>
        <extensions>
          <ns3:TrackPointExtension>
            <ns3:atemp>20.0</ns3:atemp>
          </ns3:TrackPointExtension>
        </extensions>
      </trkpt>
      <trkpt lat="42.51268959604203701019287109375" lon="19.936656765639781951904296875">
        <ele>1872.199951171875</ele>
        <time>2026-06-17T10:15:27.000Z</time>
        <extensions>
          <ns3:TrackPointExtension>
            <ns3:atemp>20.0</ns3:atemp>
          </ns3:TrackPointExtension>
        </extensions>
      </trkpt>
      <trkpt lat="42.5126992352306842803955078125" lon="19.9366275966167449951171875">
        <ele>1872</ele>
        <time>2026-06-17T10:15:28.000Z</time>
        <extensions>
          <ns3:TrackPointExtension>
            <ns3:atemp>20.0</ns3:atemp>
          </ns3:TrackPointExtension>
        </extensions>
      </trkpt>
      <trkpt lat="42.5127069465816020965576171875" lon="19.9365979246795177459716796875">
        <ele>1871.5999755859375</ele>
        <time>2026-06-17T10:15:29.000Z</time>
        <extensions>
          <ns3:TrackPointExtension>
            <ns3:atemp>20.0</ns3:atemp>
          </ns3:TrackPointExtension>
        </extensions>
      </trkpt>
      <trkpt lat="42.51271407119929790496826171875" lon="19.93657688610255718231201171875">
        <ele>1871.5999755859375</ele>
        <time>2026-06-17T10:15:30.000Z</time>
        <extensions>
          <ns3:TrackPointExtension>
            <ns3:atemp>20.0</ns3:atemp>
          </ns3:TrackPointExtension>
        </extensions>
      </trkpt>
      <trkpt lat="42.51272253692150115966796875" lon="19.93655609898269176483154296875">
        <ele>1871.4000244140625</ele>
        <time>2026-06-17T10:15:31.000Z</time>
        <extensions>
          <ns3:TrackPointExtension>
            <ns3:atemp>20.0</ns3:atemp>
          </ns3:TrackPointExtension>
        </extensions>
      </trkpt>
      <trkpt lat="42.5127304159104824066162109375" lon="19.93653715588152408599853515625">
        <ele>1871.199951171875</ele>
        <time>2026-06-17T10:15:32.000Z</time>
        <extensions>
          <ns3:TrackPointExtension>
            <ns3:atemp>20.0</ns3:atemp>
          </ns3:TrackPointExtension>
        </extensions>
      </trkpt>
      <trkpt lat="42.51273686997592449188232421875" lon="19.9365176260471343994140625">
        <ele>1871.199951171875</ele>
        <time>2026-06-17T10:15:33.000Z</time>
        <extensions>
          <ns3:TrackPointExtension>
            <ns3:atemp>20.0</ns3:atemp>
          </ns3:TrackPointExtension>
        </extensions>
      </trkpt>
      <trkpt lat="42.512742318212985992431640625" lon="19.93649960495531558990478515625">
        <ele>1871.199951171875</ele>
        <time>2026-06-17T10:15:34.000Z</time>
        <extensions>
          <ns3:TrackPointExtension>
            <ns3:atemp>20.0</ns3:atemp>
          </ns3:TrackPointExtension>
        </extensions>
      </trkpt>
      <trkpt lat="42.5127475149929523468017578125" lon="19.93648015893995761871337890625">
        <ele>1871</ele>
        <time>2026-06-17T10:15:35.000Z</time>
        <extensions>
          <ns3:TrackPointExtension>
            <ns3:atemp>20.0</ns3:atemp>
          </ns3:TrackPointExtension>
        </extensions>
      </trkpt>
      <trkpt lat="42.51275002956390380859375" lon="19.93645635433495044708251953125">
        <ele>1871</ele>
        <time>2026-06-17T10:15:36.000Z</time>
        <extensions>
          <ns3:TrackPointExtension>
            <ns3:atemp>20.0</ns3:atemp>
          </ns3:TrackPointExtension>
        </extensions>
      </trkpt>
      <trkpt lat="42.5127538852393627166748046875" lon="19.9364400096237659454345703125">
        <ele>1870.800048828125</ele>
        <time>2026-06-17T10:15:37.000Z</time>
        <extensions>
          <ns3:TrackPointExtension>
            <ns3:atemp>20.0</ns3:atemp>
          </ns3:TrackPointExtension>
        </extensions>
      </trkpt>
      <trkpt lat="42.51275539398193359375" lon="19.9364212341606616973876953125">
        <ele>1870.800048828125</ele>
        <time>2026-06-17T10:15:38.000Z</time>
        <extensions>
          <ns3:TrackPointExtension>
            <ns3:atemp>20.0</ns3:atemp>
          </ns3:TrackPointExtension>
        </extensions>
      </trkpt>
      <trkpt lat="42.51275950111448764801025390625" lon="19.93640187196433544158935546875">
        <ele>1870.5999755859375</ele>
        <time>2026-06-17T10:15:39.000Z</time>
        <extensions>
          <ns3:TrackPointExtension>
            <ns3:atemp>20.0</ns3:atemp>
          </ns3:TrackPointExtension>
        </extensions>
      </trkpt>
      <trkpt lat="42.512765116989612579345703125" lon="19.93639089167118072509765625">
        <ele>1870.4000244140625</ele>
        <time>2026-06-17T10:15:40.000Z</time>
        <extensions>
          <ns3:TrackPointExtension>
            <ns3:atemp>20.0</ns3:atemp>
          </ns3:TrackPointExtension>
        </extensions>
      </trkpt>
      <trkpt lat="42.51277408562600612640380859375" lon="19.9363753013312816619873046875">
        <ele>1870.199951171875</ele>
        <time>2026-06-17T10:15:41.000Z</time>
        <extensions>
          <ns3:TrackPointExtension>
            <ns3:atemp>20.0</ns3:atemp>
          </ns3:TrackPointExtension>
        </extensions>
      </trkpt>
      <trkpt lat="42.5127857364714145660400390625" lon="19.9363553524017333984375">
        <ele>1870</ele>
        <time>2026-06-17T10:15:42.000Z</time>
        <extensions>
          <ns3:TrackPointExtension>
            <ns3:atemp>20.0</ns3:atemp>
          </ns3:TrackPointExtension>
        </extensions>
      </trkpt>
      <trkpt lat="42.5128038413822650909423828125" lon="19.93633448146283626556396484375">
        <ele>1869.800048828125</ele>
        <time>2026-06-17T10:15:43.000Z</time>
        <extensions>
          <ns3:TrackPointExtension>
            <ns3:atemp>20.0</ns3:atemp>
          </ns3:TrackPointExtension>
        </extensions>
      </trkpt>
      <trkpt lat="42.512817420065402984619140625" lon="19.93632853031158447265625">
        <ele>1869.5999755859375</ele>
        <time>2026-06-17T10:15:44.000Z</time>
        <extensions>
          <ns3:TrackPointExtension>
            <ns3:atemp>20.0</ns3:atemp>
          </ns3:TrackPointExtension>
        </extensions>
      </trkpt>
      <trkpt lat="42.51282580196857452392578125" lon="19.93633917532861232757568359375">
        <ele>1869.4000244140625</ele>
        <time>2026-06-17T10:15:45.000Z</time>
        <extensions>
          <ns3:TrackPointExtension>
            <ns3:atemp>20.0</ns3:atemp>
          </ns3:TrackPointExtension>
        </extensions>
      </trkpt>
      <trkpt lat="42.5128273107111454010009765625" lon="19.93636130355298519134521484375">
        <ele>1869.4000244140625</ele>
        <time>2026-06-17T10:15:46.000Z</time>
        <extensions>
          <ns3:TrackPointExtension>
            <ns3:atemp>20.0</ns3:atemp>
          </ns3:TrackPointExtension>
        </extensions>
      </trkpt>
      <trkpt lat="42.5128259696066379547119140625" lon="19.93638041429221630096435546875">
        <ele>1869</ele>
        <time>2026-06-17T10:15:47.000Z</time>
        <extensions>
          <ns3:TrackPointExtension>
            <ns3:atemp>20.0</ns3:atemp>
          </ns3:TrackPointExtension>
        </extensions>
      </trkpt>
      <trkpt lat="42.5128242932260036468505859375" lon="19.93640103377401828765869140625">
        <ele>1868.800048828125</ele>
        <time>2026-06-17T10:15:48.000Z</time>
        <extensions>
          <ns3:TrackPointExtension>
            <ns3:atemp>20.0</ns3:atemp>
          </ns3:TrackPointExtension>
        </extensions>
      </trkpt>
      <trkpt lat="42.51282689161598682403564453125" lon="19.93642282672226428985595703125">
        <ele>1868.5999755859375</ele>
        <time>2026-06-17T10:15:49.000Z</time>
        <extensions>
          <ns3:TrackPointExtension>
            <ns3:atemp>20.0</ns3:atemp>
          </ns3:TrackPointExtension>
        </extensions>
      </trkpt>
      <trkpt lat="42.51282337121665477752685546875" lon="19.93644185364246368408203125">
        <ele>1868.4000244140625</ele>
        <time>2026-06-17T10:15:50.000Z</time>
        <extensions>
          <ns3:TrackPointExtension>
            <ns3:atemp>20.0</ns3:atemp>
          </ns3:TrackPointExtension>
        </extensions>
      </trkpt>
      <trkpt lat="42.5128138996660709381103515625" lon="19.93646037764847278594970703125">
        <ele>1868.4000244140625</ele>
        <time>2026-06-17T10:15:51.000Z</time>
        <extensions>
          <ns3:TrackPointExtension>
            <ns3:atemp>20.0</ns3:atemp>
          </ns3:TrackPointExtension>
        </extensions>
      </trkpt>
      <trkpt lat="42.5128041766583919525146484375" lon="19.93646624498069286346435546875">
        <ele>1868.4000244140625</ele>
        <time>2026-06-17T10:15:52.000Z</time>
        <extensions>
          <ns3:TrackPointExtension>
            <ns3:atemp>20.0</ns3:atemp>
          </ns3:TrackPointExtension>
        </extensions>
      </trkpt>
      <trkpt lat="42.51279621385037899017333984375" lon="19.9364624731242656707763671875">
        <ele>1868.5999755859375</ele>
        <time>2026-06-17T10:15:53.000Z</time>
        <extensions>
          <ns3:TrackPointExtension>
            <ns3:atemp>20.0</ns3:atemp>
          </ns3:TrackPointExtension>
        </extensions>
      </trkpt>
      <trkpt lat="42.5127830542623996734619140625" lon="19.93645794689655303955078125">
        <ele>1869</ele>
        <time>2026-06-17T10:15:54.000Z</time>
        <extensions>
          <ns3:TrackPointExtension>
            <ns3:atemp>20.0</ns3:atemp>
          </ns3:TrackPointExtension>
        </extensions>
      </trkpt>
      <trkpt lat="42.51277140341699123382568359375" lon="19.9364671669900417327880859375">
        <ele>1869.199951171875</ele>
        <time>2026-06-17T10:15:55.000Z</time>
        <extensions>
          <ns3:TrackPointExtension>
            <ns3:atemp>20.0</ns3:atemp>
          </ns3:TrackPointExtension>
        </extensions>
      </trkpt>
      <trkpt lat="42.51275648362934589385986328125" lon="19.9364822544157505035400390625">
        <ele>1869.4000244140625</ele>
        <time>2026-06-17T10:15:56.000Z</time>
        <extensions>
          <ns3:TrackPointExtension>
            <ns3:atemp>20.0</ns3:atemp>
          </ns3:TrackPointExtension>
        </extensions>
      </trkpt>
      <trkpt lat="42.51274525187909603118896484375" lon="19.9364963360130786895751953125">
        <ele>1869.5999755859375</ele>
        <time>2026-06-17T10:15:57.000Z</time>
        <extensions>
          <ns3:TrackPointExtension>
            <ns3:atemp>20.0</ns3:atemp>
          </ns3:TrackPointExtension>
        </extensions>
      </trkpt>
      <trkpt lat="42.5127351097762584686279296875" lon="19.93651402182877063751220703125">
        <ele>1869.800048828125</ele>
        <time>2026-06-17T10:15:58.000Z</time>
        <extensions>
          <ns3:TrackPointExtension>
            <ns3:atemp>20.0</ns3:atemp>
          </ns3:TrackPointExtension>
        </extensions>
      </trkpt>
      <trkpt lat="42.512725554406642913818359375" lon="19.93653112091124057769775390625">
        <ele>1870</ele>
        <time>2026-06-17T10:15:59.000Z</time>
        <extensions>
          <ns3:TrackPointExtension>
            <ns3:atemp>20.0</ns3:atemp>
          </ns3:TrackPointExtension>
        </extensions>
      </trkpt>
      <trkpt lat="42.51271943561732769012451171875" lon="19.93655140511691570281982421875">
        <ele>1870.199951171875</ele>
        <time>2026-06-17T10:16:00.000Z</time>
        <extensions>
          <ns3:TrackPointExtension>
            <ns3:atemp>20.0</ns3:atemp>
          </ns3:TrackPointExtension>
        </extensions>
      </trkpt>
      <trkpt lat="42.512714825570583343505859375" lon="19.936571605503559112548828125">
        <ele>1870.4000244140625</ele>
        <time>2026-06-17T10:16:01.000Z</time>
        <extensions>
          <ns3:TrackPointExtension>
            <ns3:atemp>20.0</ns3:atemp>
          </ns3:TrackPointExtension>
        </extensions>
      </trkpt>
      <trkpt lat="42.512710802257061004638671875" lon="19.9365912191569805145263671875">
        <ele>1870.4000244140625</ele>
        <time>2026-06-17T10:16:02.000Z</time>
        <extensions>
          <ns3:TrackPointExtension>
            <ns3:atemp>20.0</ns3:atemp>
          </ns3:TrackPointExtension>
        </extensions>
      </trkpt>
      <trkpt lat="42.512702085077762603759765625" lon="19.9366210587322711944580078125">
        <ele>1870.5999755859375</ele>
        <time>2026-06-17T10:16:03.000Z</time>
        <extensions>
          <ns3:TrackPointExtension>
            <ns3:atemp>20.0</ns3:atemp>
          </ns3:TrackPointExtension>
        </extensions>
      </trkpt>
      <trkpt lat="42.512694709002971649169921875" lon="19.93664829991757869720458984375">
        <ele>1870.5999755859375</ele>
        <time>2026-06-17T10:16:04.000Z</time>
        <extensions>
          <ns3:TrackPointExtension>
            <ns3:atemp>20.0</ns3:atemp>
          </ns3:TrackPointExtension>
        </extensions>
      </trkpt>
      <trkpt lat="42.51268875785171985626220703125" lon="19.93667386472225189208984375">
        <ele>1870.5999755859375</ele>
        <time>2026-06-17T10:16:05.000Z</time>
        <extensions>
          <ns3:TrackPointExtension>
            <ns3:atemp>20.0</ns3:atemp>
          </ns3:TrackPointExtension>
        </extensions>
      </trkpt>
      <trkpt lat="42.51268490217626094818115234375" lon="19.93669129908084869384765625">
        <ele>1870.5999755859375</ele>
        <time>2026-06-17T10:16:06.000Z</time>
        <extensions>
          <ns3:TrackPointExtension>
            <ns3:atemp>20.0</ns3:atemp>
          </ns3:TrackPointExtension>
        </extensions>
      </trkpt>
      <trkpt lat="42.51268255524337291717529296875" lon="19.9367042072117328643798828125">
        <ele>1870.5999755859375</ele>
        <time>2026-06-17T10:16:07.000Z</time>
        <extensions>
          <ns3:TrackPointExtension>
            <ns3:atemp>20.0</ns3:atemp>
          </ns3:TrackPointExtension>
        </extensions>
      </trkpt>
      <trkpt lat="42.51268004067242145538330078125" lon="19.93671434931457042694091796875">
        <ele>1870.5999755859375</ele>
        <time>2026-06-17T10:16:08.000Z</time>
        <extensions>
          <ns3:TrackPointExtension>
            <ns3:atemp>20.0</ns3:atemp>
          </ns3:TrackPointExtension>
        </extensions>
      </trkpt>
      <trkpt lat="42.51267501153051853179931640625" lon="19.936722479760646820068359375">
        <ele>1870.800048828125</ele>
        <time>2026-06-17T10:16:09.000Z</time>
        <extensions>
          <ns3:TrackPointExtension>
            <ns3:atemp>20.0</ns3:atemp>
          </ns3:TrackPointExtension>
        </extensions>
      </trkpt>
      <trkpt lat="42.51266713254153728485107421875" lon="19.93672776035964488983154296875">
        <ele>1870.800048828125</ele>
        <time>2026-06-17T10:16:10.000Z</time>
        <extensions>
          <ns3:TrackPointExtension>
            <ns3:atemp>20.0</ns3:atemp>
          </ns3:TrackPointExtension>
        </extensions>
      </trkpt>
      <trkpt lat="42.51265992410480976104736328125" lon="19.9367350526154041290283203125">
        <ele>1871</ele>
        <time>2026-06-17T10:16:11.000Z</time>
        <extensions>
          <ns3:TrackPointExtension>
            <ns3:atemp>20.0</ns3:atemp>
          </ns3:TrackPointExtension>
        </extensions>
      </trkpt>
      <trkpt lat="42.51265523023903369903564453125" lon="19.93674770928919315338134765625">
        <ele>1871</ele>
        <time>2026-06-17T10:16:12.000Z</time>
        <extensions>
          <ns3:TrackPointExtension>
            <ns3:atemp>20.0</ns3:atemp>
          </ns3:TrackPointExtension>
        </extensions>
      </trkpt>
      <trkpt lat="42.5126549787819385528564453125" lon="19.9367601983249187469482421875">
        <ele>1871</ele>
        <time>2026-06-17T10:16:13.000Z</time>
        <extensions>
          <ns3:TrackPointExtension>
            <ns3:atemp>20.0</ns3:atemp>
          </ns3:TrackPointExtension>
        </extensions>
      </trkpt>
      <trkpt lat="42.5126533024013042449951171875" lon="19.936767406761646270751953125">
        <ele>1871.199951171875</ele>
        <time>2026-06-17T10:16:14.000Z</time>
        <extensions>
          <ns3:TrackPointExtension>
            <ns3:atemp>20.0</ns3:atemp>
          </ns3:TrackPointExtension>
        </extensions>
      </trkpt>
      <trkpt lat="42.51265623606741428375244140625" lon="19.93677034042775630950927734375">
        <ele>1871.199951171875</ele>
        <time>2026-06-17T10:16:15.000Z</time>
        <extensions>
          <ns3:TrackPointExtension>
            <ns3:atemp>20.0</ns3:atemp>
          </ns3:TrackPointExtension>
        </extensions>
      </trkpt>
      <trkpt lat="42.512669898569583892822265625" lon="19.93677604012191295623779296875">
        <ele>1871.199951171875</ele>
        <time>2026-06-17T10:16:16.000Z</time>
        <extensions>
          <ns3:TrackPointExtension>
            <ns3:atemp>20.0</ns3:atemp>
          </ns3:TrackPointExtension>
        </extensions>
      </trkpt>
      <trkpt lat="42.512683309614658355712890625" lon="19.936764724552631378173828125">
        <ele>1871.4000244140625</ele>
        <time>2026-06-17T10:16:17.000Z</time>
        <extensions>
          <ns3:TrackPointExtension>
            <ns3:atemp>20.0</ns3:atemp>
          </ns3:TrackPointExtension>
        </extensions>
      </trkpt>
      <trkpt lat="42.51269076950848102569580078125" lon="19.93674620054662227630615234375">
        <ele>1871.199951171875</ele>
        <time>2026-06-17T10:16:18.000Z</time>
        <extensions>
          <ns3:TrackPointExtension>
            <ns3:atemp>20.0</ns3:atemp>
          </ns3:TrackPointExtension>
        </extensions>
      </trkpt>
      <trkpt lat="42.5126921944320201873779296875" lon="19.93672809563577175140380859375">
        <ele>1871.199951171875</ele>
        <time>2026-06-17T10:16:19.000Z</time>
        <extensions>
          <ns3:TrackPointExtension>
            <ns3:atemp>20.0</ns3:atemp>
          </ns3:TrackPointExtension>
        </extensions>
      </trkpt>
      <trkpt lat="42.51269076950848102569580078125" lon="19.9367129243910312652587890625">
        <ele>1871.199951171875</ele>
        <time>2026-06-17T10:16:20.000Z</time>
        <extensions>
          <ns3:TrackPointExtension>
            <ns3:atemp>20.0</ns3:atemp>
          </ns3:TrackPointExtension>
        </extensions>
      </trkpt>
      <trkpt lat="42.512689344584941864013671875" lon="19.93670194409787654876708984375">
        <ele>1871</ele>
        <time>2026-06-17T10:16:21.000Z</time>
        <extensions>
          <ns3:TrackPointExtension>
            <ns3:atemp>20.0</ns3:atemp>
          </ns3:TrackPointExtension>
        </extensions>
      </trkpt>
      <trkpt lat="42.51268825493752956390380859375" lon="19.93669121526181697845458984375">
        <ele>1871</ele>
        <time>2026-06-17T10:16:22.000Z</time>
        <extensions>
          <ns3:TrackPointExtension>
            <ns3:atemp>20.0</ns3:atemp>
          </ns3:TrackPointExtension>
        </extensions>
      </trkpt>
      <trkpt lat="42.51268071122467517852783203125" lon="19.93668534792959690093994140625">
        <ele>1871</ele>
        <time>2026-06-17T10:16:23.000Z</time>
        <extensions>
          <ns3:TrackPointExtension>
            <ns3:atemp>20.0</ns3:atemp>
          </ns3:TrackPointExtension>
        </extensions>
      </trkpt>
      <trkpt lat="42.51267735846340656280517578125" lon="19.936681576073169708251953125">
        <ele>1871</ele>
        <time>2026-06-17T10:16:24.000Z</time>
        <extensions>
          <ns3:TrackPointExtension>
            <ns3:atemp>20.0</ns3:atemp>
          </ns3:TrackPointExtension>
        </extensions>
      </trkpt>
      <trkpt lat="42.51267828047275543212890625" lon="19.93667964823544025421142578125">
        <ele>1871</ele>
        <time>2026-06-17T10:16:25.000Z</time>
        <extensions>
          <ns3:TrackPointExtension>
            <ns3:atemp>20.0</ns3:atemp>
          </ns3:TrackPointExtension>
        </extensions>
      </trkpt>
      <trkpt lat="42.5126811303198337554931640625" lon="19.93666556663811206817626953125">
        <ele>1871</ele>
        <time>2026-06-17T10:16:26.000Z</time>
        <extensions>
          <ns3:TrackPointExtension>
            <ns3:atemp>20.0</ns3:atemp>
          </ns3:TrackPointExtension>
        </extensions>
      </trkpt>
      <trkpt lat="42.51268372870981693267822265625" lon="19.93666573427617549896240234375">
        <ele>1871</ele>
        <time>2026-06-17T10:16:27.000Z</time>
        <extensions>
          <ns3:TrackPointExtension>
            <ns3:atemp>20.0</ns3:atemp>
          </ns3:TrackPointExtension>
        </extensions>
      </trkpt>
      <trkpt lat="42.51268372870981693267822265625" lon="19.93666581809520721435546875">
        <ele>1870.800048828125</ele>
        <time>2026-06-17T10:16:28.000Z</time>
        <extensions>
          <ns3:TrackPointExtension>
            <ns3:atemp>20.0</ns3:atemp>
          </ns3:TrackPointExtension>
        </extensions>
      </trkpt>
      <trkpt lat="42.51268372870981693267822265625" lon="19.93666581809520721435546875">
        <ele>1870.800048828125</ele>
        <time>2026-06-17T10:16:29.000Z</time>
        <extensions>
          <ns3:TrackPointExtension>
            <ns3:atemp>20.0</ns3:atemp>
          </ns3:TrackPointExtension>
        </extensions>
      </trkpt>
      <trkpt lat="42.51268372870981693267822265625" lon="19.93666581809520721435546875">
        <ele>1870.800048828125</ele>
        <time>2026-06-17T10:16:30.000Z</time>
        <extensions>
          <ns3:TrackPointExtension>
            <ns3:atemp>20.0</ns3:atemp>
          </ns3:TrackPointExtension>
        </extensions>
      </trkpt>
      <trkpt lat="42.51268372870981693267822265625" lon="19.93666581809520721435546875">
        <ele>1870.800048828125</ele>
        <time>2026-06-17T10:16:31.000Z</time>
        <extensions>
          <ns3:TrackPointExtension>
            <ns3:atemp>20.0</ns3:atemp>
          </ns3:TrackPointExtension>
        </extensions>
      </trkpt>
      <trkpt lat="42.51268372870981693267822265625" lon="19.93666581809520721435546875">
        <ele>1871</ele>
        <time>2026-06-17T10:16:32.000Z</time>
        <extensions>
          <ns3:TrackPointExtension>
            <ns3:atemp>20.0</ns3:atemp>
          </ns3:TrackPointExtension>
        </extensions>
      </trkpt>
      <trkpt lat="42.51268372870981693267822265625" lon="19.93666581809520721435546875">
        <ele>1871</ele>
        <time>2026-06-17T10:16:33.000Z</time>
        <extensions>
          <ns3:TrackPointExtension>
            <ns3:atemp>20.0</ns3:atemp>
          </ns3:TrackPointExtension>
        </extensions>
      </trkpt>
      <trkpt lat="42.51268372870981693267822265625" lon="19.93666581809520721435546875">
        <ele>1871</ele>
        <time>2026-06-17T10:16:34.000Z</time>
        <extensions>
          <ns3:TrackPointExtension>
            <ns3:atemp>20.0</ns3:atemp>
          </ns3:TrackPointExtension>
        </extensions>
      </trkpt>
      <trkpt lat="42.51268372870981693267822265625" lon="19.93666581809520721435546875">
        <ele>1871</ele>
        <time>2026-06-17T10:16:35.000Z</time>
        <extensions>
          <ns3:TrackPointExtension>
            <ns3:atemp>20.0</ns3:atemp>
          </ns3:TrackPointExtension>
        </extensions>
      </trkpt>
      <trkpt lat="42.51268372870981693267822265625" lon="19.93666581809520721435546875">
        <ele>1871</ele>
        <time>2026-06-17T10:16:36.000Z</time>
        <extensions>
          <ns3:TrackPointExtension>
            <ns3:atemp>20.0</ns3:atemp>
          </ns3:TrackPointExtension>
        </extensions>
      </trkpt>
      <trkpt lat="42.51268372870981693267822265625" lon="19.93666581809520721435546875">
        <ele>1871</ele>
        <time>2026-06-17T10:16:37.000Z</time>
        <extensions>
          <ns3:TrackPointExtension>
            <ns3:atemp>20.0</ns3:atemp>
          </ns3:TrackPointExtension>
        </extensions>
      </trkpt>
      <trkpt lat="42.51268372870981693267822265625" lon="19.93666581809520721435546875">
        <ele>1871</ele>
        <time>2026-06-17T10:16:38.000Z</time>
        <extensions>
          <ns3:TrackPointExtension>
            <ns3:atemp>20.0</ns3:atemp>
          </ns3:TrackPointExtension>
        </extensions>
      </trkpt>
      <trkpt lat="42.51268372870981693267822265625" lon="19.93666581809520721435546875">
        <ele>1871</ele>
        <time>2026-06-17T10:16:39.000Z</time>
        <extensions>
          <ns3:TrackPointExtension>
            <ns3:atemp>20.0</ns3:atemp>
          </ns3:TrackPointExtension>
        </extensions>
      </trkpt>
      <trkpt lat="42.51268372870981693267822265625" lon="19.93666581809520721435546875">
        <ele>1871</ele>
        <time>2026-06-17T10:16:40.000Z</time>
        <extensions>
          <ns3:TrackPointExtension>
            <ns3:atemp>20.0</ns3:atemp>
          </ns3:TrackPointExtension>
        </extensions>
      </trkpt>
      <trkpt lat="42.51268372870981693267822265625" lon="19.93666581809520721435546875">
        <ele>1870.800048828125</ele>
        <time>2026-06-17T10:16:41.000Z</time>
        <extensions>
          <ns3:TrackPointExtension>
            <ns3:atemp>20.0</ns3:atemp>
          </ns3:TrackPointExtension>
        </extensions>
      </trkpt>
      <trkpt lat="42.51268372870981693267822265625" lon="19.93666581809520721435546875">
        <ele>1870.800048828125</ele>
        <time>2026-06-17T10:16:42.000Z</time>
        <extensions>
          <ns3:TrackPointExtension>
            <ns3:atemp>20.0</ns3:atemp>
          </ns3:TrackPointExtension>
        </extensions>
      </trkpt>
      <trkpt lat="42.51268372870981693267822265625" lon="19.93666581809520721435546875">
        <ele>1870.800048828125</ele>
        <time>2026-06-17T10:16:43.000Z</time>
        <extensions>
          <ns3:TrackPointExtension>
            <ns3:atemp>20.0</ns3:atemp>
          </ns3:TrackPointExtension>
        </extensions>
      </trkpt>
      <trkpt lat="42.512686662375926971435546875" lon="19.93666338734328746795654296875">
        <ele>1870.800048828125</ele>
        <time>2026-06-17T10:16:44.000Z</time>
        <extensions>
          <ns3:TrackPointExtension>
            <ns3:atemp>20.0</ns3:atemp>
          </ns3:TrackPointExtension>
        </extensions>
      </trkpt>
      <trkpt lat="42.5126972235739231109619140625" lon="19.93664436042308807373046875">
        <ele>1870.800048828125</ele>
        <time>2026-06-17T10:16:45.000Z</time>
        <extensions>
          <ns3:TrackPointExtension>
            <ns3:atemp>20.0</ns3:atemp>
          </ns3:TrackPointExtension>
        </extensions>
      </trkpt>
      <trkpt lat="42.51270510256290435791015625" lon="19.93662583641707897186279296875">
        <ele>1870.800048828125</ele>
        <time>2026-06-17T10:16:46.000Z</time>
        <extensions>
          <ns3:TrackPointExtension>
            <ns3:atemp>20.0</ns3:atemp>
          </ns3:TrackPointExtension>
        </extensions>
      </trkpt>
      <trkpt lat="42.5127092935144901275634765625" lon="19.936611838638782501220703125">
        <ele>1870.800048828125</ele>
        <time>2026-06-17T10:16:47.000Z</time>
        <extensions>
          <ns3:TrackPointExtension>
            <ns3:atemp>20.0</ns3:atemp>
          </ns3:TrackPointExtension>
        </extensions>
      </trkpt>
      <trkpt lat="42.512712143361568450927734375" lon="19.93659633211791515350341796875">
        <ele>1870.800048828125</ele>
        <time>2026-06-17T10:16:48.000Z</time>
        <extensions>
          <ns3:TrackPointExtension>
            <ns3:atemp>20.0</ns3:atemp>
          </ns3:TrackPointExtension>
        </extensions>
      </trkpt>
      <trkpt lat="42.51271608285605907440185546875" lon="19.936577640473842620849609375">
        <ele>1870.800048828125</ele>
        <time>2026-06-17T10:16:49.000Z</time>
        <extensions>
          <ns3:TrackPointExtension>
            <ns3:atemp>20.0</ns3:atemp>
          </ns3:TrackPointExtension>
        </extensions>
      </trkpt>
      <trkpt lat="42.51271792687475681304931640625" lon="19.93655718863010406494140625">
        <ele>1870.800048828125</ele>
        <time>2026-06-17T10:16:50.000Z</time>
        <extensions>
          <ns3:TrackPointExtension>
            <ns3:atemp>20.0</ns3:atemp>
          </ns3:TrackPointExtension>
        </extensions>
      </trkpt>
      <trkpt lat="42.512725889682769775390625" lon="19.9365369044244289398193359375">
        <ele>1871</ele>
        <time>2026-06-17T10:16:51.000Z</time>
        <extensions>
          <ns3:TrackPointExtension>
            <ns3:atemp>20.0</ns3:atemp>
          </ns3:TrackPointExtension>
        </extensions>
      </trkpt>
      <trkpt lat="42.51273184083402156829833984375" lon="19.93651888333261013031005859375">
        <ele>1871</ele>
        <time>2026-06-17T10:16:52.000Z</time>
        <extensions>
          <ns3:TrackPointExtension>
            <ns3:atemp>20.0</ns3:atemp>
          </ns3:TrackPointExtension>
        </extensions>
      </trkpt>
      <trkpt lat="42.5127391330897808074951171875" lon="19.93649809621274471282958984375">
        <ele>1871.199951171875</ele>
        <time>2026-06-17T10:16:53.000Z</time>
        <extensions>
          <ns3:TrackPointExtension>
            <ns3:atemp>20.0</ns3:atemp>
          </ns3:TrackPointExtension>
        </extensions>
      </trkpt>
      <trkpt lat="42.5127444975078105926513671875" lon="19.93647680617868900299072265625">
        <ele>1871.199951171875</ele>
        <time>2026-06-17T10:16:54.000Z</time>
        <extensions>
          <ns3:TrackPointExtension>
            <ns3:atemp>20.0</ns3:atemp>
          </ns3:TrackPointExtension>
        </extensions>
      </trkpt>
      <trkpt lat="42.51274935901165008544921875" lon="19.9364554323256015777587890625">
        <ele>1871.199951171875</ele>
        <time>2026-06-17T10:16:55.000Z</time>
        <extensions>
          <ns3:TrackPointExtension>
            <ns3:atemp>20.0</ns3:atemp>
          </ns3:TrackPointExtension>
        </extensions>
      </trkpt>
      <trkpt lat="42.51275396905839443206787109375" lon="19.936430118978023529052734375">
        <ele>1871.199951171875</ele>
        <time>2026-06-17T10:16:56.000Z</time>
        <extensions>
          <ns3:TrackPointExtension>
            <ns3:atemp>20.0</ns3:atemp>
          </ns3:TrackPointExtension>
        </extensions>
      </trkpt>
      <trkpt lat="42.51275883056223392486572265625" lon="19.9364088289439678192138671875">
        <ele>1871</ele>
        <time>2026-06-17T10:16:57.000Z</time>
        <extensions>
          <ns3:TrackPointExtension>
            <ns3:atemp>20.0</ns3:atemp>
          </ns3:TrackPointExtension>
        </extensions>
      </trkpt>
      <trkpt lat="42.5127666257321834564208984375" lon="19.936387874186038970947265625">
        <ele>1871</ele>
        <time>2026-06-17T10:16:58.000Z</time>
        <extensions>
          <ns3:TrackPointExtension>
            <ns3:atemp>20.0</ns3:atemp>
          </ns3:TrackPointExtension>
        </extensions>
      </trkpt>
      <trkpt lat="42.5127766840159893035888671875" lon="19.936373122036457061767578125">
        <ele>1870.800048828125</ele>
        <time>2026-06-17T10:16:59.000Z</time>
        <extensions>
          <ns3:TrackPointExtension>
            <ns3:atemp>20.0</ns3:atemp>
          </ns3:TrackPointExtension>
        </extensions>
      </trkpt>
      <trkpt lat="42.5127854011952877044677734375" lon="19.9363551847636699676513671875">
        <ele>1870.5999755859375</ele>
        <time>2026-06-17T10:17:00.000Z</time>
        <extensions>
          <ns3:TrackPointExtension>
            <ns3:atemp>20.0</ns3:atemp>
          </ns3:TrackPointExtension>
        </extensions>
      </trkpt>
      <trkpt lat="42.512785904109477996826171875" lon="19.93633297272026538848876953125">
        <ele>1870.4000244140625</ele>
        <time>2026-06-17T10:17:01.000Z</time>
        <extensions>
          <ns3:TrackPointExtension>
            <ns3:atemp>20.0</ns3:atemp>
          </ns3:TrackPointExtension>
        </extensions>
      </trkpt>
      <trkpt lat="42.51278556883335113525390625" lon="19.9363169632852077484130859375">
        <ele>1870</ele>
        <time>2026-06-17T10:17:02.000Z</time>
        <extensions>
          <ns3:TrackPointExtension>
            <ns3:atemp>20.0</ns3:atemp>
          </ns3:TrackPointExtension>
        </extensions>
      </trkpt>
      <trkpt lat="42.51279118470847606658935546875" lon="19.93631788529455661773681640625">
        <ele>1869.800048828125</ele>
        <time>2026-06-17T10:17:03.000Z</time>
        <extensions>
          <ns3:TrackPointExtension>
            <ns3:atemp>20.0</ns3:atemp>
          </ns3:TrackPointExtension>
        </extensions>
      </trkpt>
      <trkpt lat="42.512789256870746612548828125" lon="19.93631310760974884033203125">
        <ele>1869.5999755859375</ele>
        <time>2026-06-17T10:17:04.000Z</time>
        <extensions>
          <ns3:TrackPointExtension>
            <ns3:atemp>20.0</ns3:atemp>
          </ns3:TrackPointExtension>
        </extensions>
      </trkpt>
      <trkpt lat="42.5127889215946197509765625" lon="19.93631285615265369415283203125">
        <ele>1869.4000244140625</ele>
        <time>2026-06-17T10:17:05.000Z</time>
        <extensions>
          <ns3:TrackPointExtension>
            <ns3:atemp>20.0</ns3:atemp>
          </ns3:TrackPointExtension>
        </extensions>
      </trkpt>
      <trkpt lat="42.5127889215946197509765625" lon="19.93631285615265369415283203125">
        <ele>1869.4000244140625</ele>
        <time>2026-06-17T10:17:06.000Z</time>
        <extensions>
          <ns3:TrackPointExtension>
            <ns3:atemp>20.0</ns3:atemp>
          </ns3:TrackPointExtension>
        </extensions>
      </trkpt>
      <trkpt lat="42.5127889215946197509765625" lon="19.93631285615265369415283203125">
        <ele>1869.199951171875</ele>
        <time>2026-06-17T10:17:07.000Z</time>
        <extensions>
          <ns3:TrackPointExtension>
            <ns3:atemp>20.0</ns3:atemp>
          </ns3:TrackPointExtension>
        </extensions>
      </trkpt>
      <trkpt lat="42.5127889215946197509765625" lon="19.93631285615265369415283203125">
        <ele>1869.199951171875</ele>
        <time>2026-06-17T10:17:08.000Z</time>
        <extensions>
          <ns3:TrackPointExtension>
            <ns3:atemp>20.0</ns3:atemp>
          </ns3:TrackPointExtension>
        </extensions>
      </trkpt>
      <trkpt lat="42.5127889215946197509765625" lon="19.93631285615265369415283203125">
        <ele>1869</ele>
        <time>2026-06-17T10:17:09.000Z</time>
        <extensions>
          <ns3:TrackPointExtension>
            <ns3:atemp>20.0</ns3:atemp>
          </ns3:TrackPointExtension>
        </extensions>
      </trkpt>
      <trkpt lat="42.5127889215946197509765625" lon="19.93631285615265369415283203125">
        <ele>1869</ele>
        <time>2026-06-17T10:17:10.000Z</time>
        <extensions>
          <ns3:TrackPointExtension>
            <ns3:atemp>20.0</ns3:atemp>
          </ns3:TrackPointExtension>
        </extensions>
      </trkpt>
      <trkpt lat="42.5127889215946197509765625" lon="19.93631285615265369415283203125">
        <ele>1869</ele>
        <time>2026-06-17T10:17:11.000Z</time>
        <extensions>
          <ns3:TrackPointExtension>
            <ns3:atemp>20.0</ns3:atemp>
          </ns3:TrackPointExtension>
        </extensions>
      </trkpt>
      <trkpt lat="42.5127889215946197509765625" lon="19.93631285615265369415283203125">
        <ele>1868.800048828125</ele>
        <time>2026-06-17T10:17:12.000Z</time>
        <extensions>
          <ns3:TrackPointExtension>
            <ns3:atemp>20.0</ns3:atemp>
          </ns3:TrackPointExtension>
        </extensions>
      </trkpt>
      <trkpt lat="42.5127889215946197509765625" lon="19.93631285615265369415283203125">
        <ele>1868.800048828125</ele>
        <time>2026-06-17T10:17:13.000Z</time>
        <extensions>
          <ns3:TrackPointExtension>
            <ns3:atemp>20.0</ns3:atemp>
          </ns3:TrackPointExtension>
        </extensions>
      </trkpt>
      <trkpt lat="42.5127889215946197509765625" lon="19.93631285615265369415283203125">
        <ele>1868.800048828125</ele>
        <time>2026-06-17T10:17:14.000Z</time>
        <extensions>
          <ns3:TrackPointExtension>
            <ns3:atemp>20.0</ns3:atemp>
          </ns3:TrackPointExtension>
        </extensions>
      </trkpt>
      <trkpt lat="42.5127889215946197509765625" lon="19.93631285615265369415283203125">
        <ele>1868.800048828125</ele>
        <time>2026-06-17T10:17:15.000Z</time>
        <extensions>
          <ns3:TrackPointExtension>
            <ns3:atemp>20.0</ns3:atemp>
          </ns3:TrackPointExtension>
        </extensions>
      </trkpt>
      <trkpt lat="42.5127889215946197509765625" lon="19.93631285615265369415283203125">
        <ele>1869</ele>
        <time>2026-06-17T10:17:16.000Z</time>
        <extensions>
          <ns3:TrackPointExtension>
            <ns3:atemp>20.0</ns3:atemp>
          </ns3:TrackPointExtension>
        </extensions>
      </trkpt>
      <trkpt lat="42.5127889215946197509765625" lon="19.93631285615265369415283203125">
        <ele>1869</ele>
        <time>2026-06-17T10:17:17.000Z</time>
        <extensions>
          <ns3:TrackPointExtension>
            <ns3:atemp>20.0</ns3:atemp>
          </ns3:TrackPointExtension>
        </extensions>
      </trkpt>
      <trkpt lat="42.51278850249946117401123046875" lon="19.9363109283149242401123046875">
        <ele>1869</ele>
        <time>2026-06-17T10:17:18.000Z</time>
        <extensions>
          <ns3:TrackPointExtension>
            <ns3:atemp>20.0</ns3:atemp>
          </ns3:TrackPointExtension>
        </extensions>
      </trkpt>
      <trkpt lat="42.512798309326171875" lon="19.936304055154323577880859375">
        <ele>1869</ele>
        <time>2026-06-17T10:17:19.000Z</time>
        <extensions>
          <ns3:TrackPointExtension>
            <ns3:atemp>20.0</ns3:atemp>
          </ns3:TrackPointExtension>
        </extensions>
      </trkpt>
      <trkpt lat="42.5128035061061382293701171875" lon="19.93630665354430675506591796875">
        <ele>1869.199951171875</ele>
        <time>2026-06-17T10:17:20.000Z</time>
        <extensions>
          <ns3:TrackPointExtension>
            <ns3:atemp>20.0</ns3:atemp>
          </ns3:TrackPointExtension>
        </extensions>
      </trkpt>
      <trkpt lat="42.51280509866774082183837890625" lon="19.9363119341433048248291015625">
        <ele>1869.199951171875</ele>
        <time>2026-06-17T10:17:21.000Z</time>
        <extensions>
          <ns3:TrackPointExtension>
            <ns3:atemp>20.0</ns3:atemp>
          </ns3:TrackPointExtension>
        </extensions>
      </trkpt>
      <trkpt lat="42.512802667915821075439453125" lon="19.936322830617427825927734375">
        <ele>1869.4000244140625</ele>
        <time>2026-06-17T10:17:22.000Z</time>
        <extensions>
          <ns3:TrackPointExtension>
            <ns3:atemp>20.0</ns3:atemp>
          </ns3:TrackPointExtension>
        </extensions>
      </trkpt>
      <trkpt lat="42.51279336400330066680908203125" lon="19.9363411031663417816162109375">
        <ele>1869.4000244140625</ele>
        <time>2026-06-17T10:17:23.000Z</time>
        <extensions>
          <ns3:TrackPointExtension>
            <ns3:atemp>20.0</ns3:atemp>
          </ns3:TrackPointExtension>
        </extensions>
      </trkpt>
      <trkpt lat="42.512783221900463104248046875" lon="19.936360381543636322021484375">
        <ele>1869.4000244140625</ele>
        <time>2026-06-17T10:17:24.000Z</time>
        <extensions>
          <ns3:TrackPointExtension>
            <ns3:atemp>20.0</ns3:atemp>
          </ns3:TrackPointExtension>
        </extensions>
      </trkpt>
      <trkpt lat="42.51278263516724109649658203125" lon="19.93637387640774250030517578125">
        <ele>1869.4000244140625</ele>
        <time>2026-06-17T10:17:25.000Z</time>
        <extensions>
          <ns3:TrackPointExtension>
            <ns3:atemp>20.0</ns3:atemp>
          </ns3:TrackPointExtension>
        </extensions>
      </trkpt>
      <trkpt lat="42.512783221900463104248046875" lon="19.93638896383345127105712890625">
        <ele>1869.4000244140625</ele>
        <time>2026-06-17T10:17:26.000Z</time>
        <extensions>
          <ns3:TrackPointExtension>
            <ns3:atemp>20.0</ns3:atemp>
          </ns3:TrackPointExtension>
        </extensions>
      </trkpt>
      <trkpt lat="42.5127867422997951507568359375" lon="19.93640103377401828765869140625">
        <ele>1869.4000244140625</ele>
        <time>2026-06-17T10:17:27.000Z</time>
        <extensions>
          <ns3:TrackPointExtension>
            <ns3:atemp>20.0</ns3:atemp>
          </ns3:TrackPointExtension>
        </extensions>
      </trkpt>
      <trkpt lat="42.5127862393856048583984375" lon="19.93641327135264873504638671875">
        <ele>1869.5999755859375</ele>
        <time>2026-06-17T10:17:28.000Z</time>
        <extensions>
          <ns3:TrackPointExtension>
            <ns3:atemp>20.0</ns3:atemp>
          </ns3:TrackPointExtension>
        </extensions>
      </trkpt>
      <trkpt lat="42.512783221900463104248046875" lon="19.9364115111529827117919921875">
        <ele>1869.800048828125</ele>
        <time>2026-06-17T10:17:29.000Z</time>
        <extensions>
          <ns3:TrackPointExtension>
            <ns3:atemp>20.0</ns3:atemp>
          </ns3:TrackPointExtension>
        </extensions>
      </trkpt>
      <trkpt lat="42.512783221900463104248046875" lon="19.9364115111529827117919921875">
        <ele>1870.4000244140625</ele>
        <time>2026-06-17T10:17:30.000Z</time>
        <extensions>
          <ns3:TrackPointExtension>
            <ns3:atemp>20.0</ns3:atemp>
          </ns3:TrackPointExtension>
        </extensions>
      </trkpt>
      <trkpt lat="42.512783221900463104248046875" lon="19.9364115111529827117919921875">
        <ele>1870.4000244140625</ele>
        <time>2026-06-17T10:17:31.000Z</time>
        <extensions>
          <ns3:TrackPointExtension>
            <ns3:atemp>20.0</ns3:atemp>
          </ns3:TrackPointExtension>
        </extensions>
      </trkpt>
      <trkpt lat="42.512783221900463104248046875" lon="19.9364115111529827117919921875">
        <ele>1870.4000244140625</ele>
        <time>2026-06-17T10:17:32.000Z</time>
        <extensions>
          <ns3:TrackPointExtension>
            <ns3:atemp>20.0</ns3:atemp>
          </ns3:TrackPointExtension>
        </extensions>
      </trkpt>
      <trkpt lat="42.512783221900463104248046875" lon="19.9364115111529827117919921875">
        <ele>1870.4000244140625</ele>
        <time>2026-06-17T10:17:33.000Z</time>
        <extensions>
          <ns3:TrackPointExtension>
            <ns3:atemp>20.0</ns3:atemp>
          </ns3:TrackPointExtension>
        </extensions>
      </trkpt>
      <trkpt lat="42.512783221900463104248046875" lon="19.9364115111529827117919921875">
        <ele>1870.4000244140625</ele>
        <time>2026-06-17T10:17:34.000Z</time>
        <extensions>
          <ns3:TrackPointExtension>
            <ns3:atemp>20.0</ns3:atemp>
          </ns3:TrackPointExtension>
        </extensions>
      </trkpt>
      <trkpt lat="42.512783221900463104248046875" lon="19.9364115111529827117919921875">
        <ele>1870.4000244140625</ele>
        <time>2026-06-17T10:17:35.000Z</time>
        <extensions>
          <ns3:TrackPointExtension>
            <ns3:atemp>20.0</ns3:atemp>
          </ns3:TrackPointExtension>
        </extensions>
      </trkpt>
      <trkpt lat="42.512783221900463104248046875" lon="19.9364115111529827117919921875">
        <ele>1870.4000244140625</ele>
        <time>2026-06-17T10:17:36.000Z</time>
        <extensions>
          <ns3:TrackPointExtension>
            <ns3:atemp>20.0</ns3:atemp>
          </ns3:TrackPointExtension>
        </extensions>
      </trkpt>
      <trkpt lat="42.512783221900463104248046875" lon="19.9364115111529827117919921875">
        <ele>1870.4000244140625</ele>
        <time>2026-06-17T10:17:37.000Z</time>
        <extensions>
          <ns3:TrackPointExtension>
            <ns3:atemp>20.0</ns3:atemp>
          </ns3:TrackPointExtension>
        </extensions>
      </trkpt>
      <trkpt lat="42.512783221900463104248046875" lon="19.9364115111529827117919921875">
        <ele>1870.4000244140625</ele>
        <time>2026-06-17T10:17:38.000Z</time>
        <extensions>
          <ns3:TrackPointExtension>
            <ns3:atemp>20.0</ns3:atemp>
          </ns3:TrackPointExtension>
        </extensions>
      </trkpt>
      <trkpt lat="42.512783221900463104248046875" lon="19.9364115111529827117919921875">
        <ele>1870.4000244140625</ele>
        <time>2026-06-17T10:17:39.000Z</time>
        <extensions>
          <ns3:TrackPointExtension>
            <ns3:atemp>20.0</ns3:atemp>
          </ns3:TrackPointExtension>
        </extensions>
      </trkpt>
      <trkpt lat="42.512783221900463104248046875" lon="19.9364115111529827117919921875">
        <ele>1870.4000244140625</ele>
        <time>2026-06-17T10:17:40.000Z</time>
        <extensions>
          <ns3:TrackPointExtension>
            <ns3:atemp>20.0</ns3:atemp>
          </ns3:TrackPointExtension>
        </extensions>
      </trkpt>
      <trkpt lat="42.512783221900463104248046875" lon="19.9364115111529827117919921875">
        <ele>1870.4000244140625</ele>
        <time>2026-06-17T10:17:41.000Z</time>
        <extensions>
          <ns3:TrackPointExtension>
            <ns3:atemp>20.0</ns3:atemp>
          </ns3:TrackPointExtension>
        </extensions>
      </trkpt>
      <trkpt lat="42.512783221900463104248046875" lon="19.9364115111529827117919921875">
        <ele>1870.4000244140625</ele>
        <time>2026-06-17T10:17:42.000Z</time>
        <extensions>
          <ns3:TrackPointExtension>
            <ns3:atemp>20.0</ns3:atemp>
          </ns3:TrackPointExtension>
        </extensions>
      </trkpt>
      <trkpt lat="42.512783221900463104248046875" lon="19.9364115111529827117919921875">
        <ele>1870.4000244140625</ele>
        <time>2026-06-17T10:17:43.000Z</time>
        <extensions>
          <ns3:TrackPointExtension>
            <ns3:atemp>20.0</ns3:atemp>
          </ns3:TrackPointExtension>
        </extensions>
      </trkpt>
      <trkpt lat="42.512783221900463104248046875" lon="19.9364115111529827117919921875">
        <ele>1870.4000244140625</ele>
        <time>2026-06-17T10:17:44.000Z</time>
        <extensions>
          <ns3:TrackPointExtension>
            <ns3:atemp>20.0</ns3:atemp>
          </ns3:TrackPointExtension>
        </extensions>
      </trkpt>
      <trkpt lat="42.512783221900463104248046875" lon="19.9364115111529827117919921875">
        <ele>1870.4000244140625</ele>
        <time>2026-06-17T10:17:45.000Z</time>
        <extensions>
          <ns3:TrackPointExtension>
            <ns3:atemp>20.0</ns3:atemp>
          </ns3:TrackPointExtension>
        </extensions>
      </trkpt>
      <trkpt lat="42.512783221900463104248046875" lon="19.9364115111529827117919921875">
        <ele>1870.4000244140625</ele>
        <time>2026-06-17T10:17:46.000Z</time>
        <extensions>
          <ns3:TrackPointExtension>
            <ns3:atemp>20.0</ns3:atemp>
          </ns3:TrackPointExtension>
        </extensions>
      </trkpt>
      <trkpt lat="42.512783221900463104248046875" lon="19.9364115111529827117919921875">
        <ele>1870.4000244140625</ele>
        <time>2026-06-17T10:17:47.000Z</time>
        <extensions>
          <ns3:TrackPointExtension>
            <ns3:atemp>20.0</ns3:atemp>
          </ns3:TrackPointExtension>
        </extensions>
      </trkpt>
      <trkpt lat="42.512783221900463104248046875" lon="19.9364115111529827117919921875">
        <ele>1870.4000244140625</ele>
        <time>2026-06-17T10:17:48.000Z</time>
        <extensions>
          <ns3:TrackPointExtension>
            <ns3:atemp>20.0</ns3:atemp>
          </ns3:TrackPointExtension>
        </extensions>
      </trkpt>
      <trkpt lat="42.512783221900463104248046875" lon="19.9364115111529827117919921875">
        <ele>1870.4000244140625</ele>
        <time>2026-06-17T10:17:49.000Z</time>
        <extensions>
          <ns3:TrackPointExtension>
            <ns3:atemp>20.0</ns3:atemp>
          </ns3:TrackPointExtension>
        </extensions>
      </trkpt>
      <trkpt lat="42.512783221900463104248046875" lon="19.9364115111529827117919921875">
        <ele>1870.4000244140625</ele>
        <time>2026-06-17T10:17:50.000Z</time>
        <extensions>
          <ns3:TrackPointExtension>
            <ns3:atemp>20.0</ns3:atemp>
          </ns3:TrackPointExtension>
        </extensions>
      </trkpt>
      <trkpt lat="42.512783221900463104248046875" lon="19.9364115111529827117919921875">
        <ele>1870.4000244140625</ele>
        <time>2026-06-17T10:17:51.000Z</time>
        <extensions>
          <ns3:TrackPointExtension>
            <ns3:atemp>20.0</ns3:atemp>
          </ns3:TrackPointExtension>
        </extensions>
      </trkpt>
      <trkpt lat="42.512783221900463104248046875" lon="19.9364115111529827117919921875">
        <ele>1870.4000244140625</ele>
        <time>2026-06-17T10:17:52.000Z</time>
        <extensions>
          <ns3:TrackPointExtension>
            <ns3:atemp>20.0</ns3:atemp>
          </ns3:TrackPointExtension>
        </extensions>
      </trkpt>
      <trkpt lat="42.512783221900463104248046875" lon="19.9364115111529827117919921875">
        <ele>1870.4000244140625</ele>
        <time>2026-06-17T10:17:53.000Z</time>
        <extensions>
          <ns3:TrackPointExtension>
            <ns3:atemp>20.0</ns3:atemp>
          </ns3:TrackPointExtension>
        </extensions>
      </trkpt>
      <trkpt lat="42.51278431154787540435791015625" lon="19.9364108406007289886474609375">
        <ele>1870.4000244140625</ele>
        <time>2026-06-17T10:17:54.000Z</time>
        <extensions>
          <ns3:TrackPointExtension>
            <ns3:atemp>20.0</ns3:atemp>
          </ns3:TrackPointExtension>
        </extensions>
      </trkpt>
      <trkpt lat="42.51279151998460292816162109375" lon="19.93641578592360019683837890625">
        <ele>1870.4000244140625</ele>
        <time>2026-06-17T10:17:55.000Z</time>
        <extensions>
          <ns3:TrackPointExtension>
            <ns3:atemp>20.0</ns3:atemp>
          </ns3:TrackPointExtension>
        </extensions>
      </trkpt>
      <trkpt lat="42.5127942860126495361328125" lon="19.93642349727451801300048828125">
        <ele>1870.4000244140625</ele>
        <time>2026-06-17T10:17:56.000Z</time>
        <extensions>
          <ns3:TrackPointExtension>
            <ns3:atemp>20.0</ns3:atemp>
          </ns3:TrackPointExtension>
        </extensions>
      </trkpt>
      <trkpt lat="42.51279571093618869781494140625" lon="19.93643975816667079925537109375">
        <ele>1870.4000244140625</ele>
        <time>2026-06-17T10:17:57.000Z</time>
        <extensions>
          <ns3:TrackPointExtension>
            <ns3:atemp>20.0</ns3:atemp>
          </ns3:TrackPointExtension>
        </extensions>
      </trkpt>
      <trkpt lat="42.51279671676456928253173828125" lon="19.936454594135284423828125">
        <ele>1870.199951171875</ele>
        <time>2026-06-17T10:17:58.000Z</time>
        <extensions>
          <ns3:TrackPointExtension>
            <ns3:atemp>20.0</ns3:atemp>
          </ns3:TrackPointExtension>
        </extensions>
      </trkpt>
      <trkpt lat="42.51279319636523723602294921875" lon="19.936469681560993194580078125">
        <ele>1870.4000244140625</ele>
        <time>2026-06-17T10:17:59.000Z</time>
        <extensions>
          <ns3:TrackPointExtension>
            <ns3:atemp>20.0</ns3:atemp>
          </ns3:TrackPointExtension>
        </extensions>
      </trkpt>
      <trkpt lat="42.5127875804901123046875" lon="19.93648719973862171173095703125">
        <ele>1870.4000244140625</ele>
        <time>2026-06-17T10:18:00.000Z</time>
        <extensions>
          <ns3:TrackPointExtension>
            <ns3:atemp>20.0</ns3:atemp>
          </ns3:TrackPointExtension>
        </extensions>
      </trkpt>
      <trkpt lat="42.51278146170079708099365234375" lon="19.93650312535464763641357421875">
        <ele>1870.5999755859375</ele>
        <time>2026-06-17T10:18:01.000Z</time>
        <extensions>
          <ns3:TrackPointExtension>
            <ns3:atemp>20.0</ns3:atemp>
          </ns3:TrackPointExtension>
        </extensions>
      </trkpt>
      <trkpt lat="42.512773163616657257080078125" lon="19.9365228228271007537841796875">
        <ele>1870.800048828125</ele>
        <time>2026-06-17T10:18:02.000Z</time>
        <extensions>
          <ns3:TrackPointExtension>
            <ns3:atemp>20.0</ns3:atemp>
          </ns3:TrackPointExtension>
        </extensions>
      </trkpt>
      <trkpt lat="42.51277207396924495697021484375" lon="19.9365432746708393096923828125">
        <ele>1870.800048828125</ele>
        <time>2026-06-17T10:18:03.000Z</time>
        <extensions>
          <ns3:TrackPointExtension>
            <ns3:atemp>20.0</ns3:atemp>
          </ns3:TrackPointExtension>
        </extensions>
      </trkpt>
      <trkpt lat="42.51276520080864429473876953125" lon="19.93655961938202381134033203125">
        <ele>1871</ele>
        <time>2026-06-17T10:18:04.000Z</time>
        <extensions>
          <ns3:TrackPointExtension>
            <ns3:atemp>20.0</ns3:atemp>
          </ns3:TrackPointExtension>
        </extensions>
      </trkpt>
      <trkpt lat="42.51276067458093166351318359375" lon="19.936571605503559112548828125">
        <ele>1871</ele>
        <time>2026-06-17T10:18:05.000Z</time>
        <extensions>
          <ns3:TrackPointExtension>
            <ns3:atemp>20.0</ns3:atemp>
          </ns3:TrackPointExtension>
        </extensions>
      </trkpt>
      <trkpt lat="42.5127558968961238861083984375" lon="19.93658442981541156768798828125">
        <ele>1871.199951171875</ele>
        <time>2026-06-17T10:18:06.000Z</time>
        <extensions>
          <ns3:TrackPointExtension>
            <ns3:atemp>20.0</ns3:atemp>
          </ns3:TrackPointExtension>
        </extensions>
      </trkpt>
      <trkpt lat="42.51274533569812774658203125" lon="19.93659884668886661529541015625">
        <ele>1871.4000244140625</ele>
        <time>2026-06-17T10:18:07.000Z</time>
        <extensions>
          <ns3:TrackPointExtension>
            <ns3:atemp>20.0</ns3:atemp>
          </ns3:TrackPointExtension>
        </extensions>
      </trkpt>
      <trkpt lat="42.5127334333956241607666015625" lon="19.93660421110689640045166015625">
        <ele>1871.5999755859375</ele>
        <time>2026-06-17T10:18:08.000Z</time>
        <extensions>
          <ns3:TrackPointExtension>
            <ns3:atemp>20.0</ns3:atemp>
          </ns3:TrackPointExtension>
        </extensions>
      </trkpt>
      <trkpt lat="42.51272379420697689056396484375" lon="19.93660152889788150787353515625">
        <ele>1871.5999755859375</ele>
        <time>2026-06-17T10:18:09.000Z</time>
        <extensions>
          <ns3:TrackPointExtension>
            <ns3:atemp>20.0</ns3:atemp>
          </ns3:TrackPointExtension>
        </extensions>
      </trkpt>
      <trkpt lat="42.51271675340831279754638671875" lon="19.93659230880439281463623046875">
        <ele>1871.800048828125</ele>
        <time>2026-06-17T10:18:10.000Z</time>
        <extensions>
          <ns3:TrackPointExtension>
            <ns3:atemp>20.0</ns3:atemp>
          </ns3:TrackPointExtension>
        </extensions>
      </trkpt>
      <trkpt lat="42.51271583139896392822265625" lon="19.93657998740673065185546875">
        <ele>1871.800048828125</ele>
        <time>2026-06-17T10:18:11.000Z</time>
        <extensions>
          <ns3:TrackPointExtension>
            <ns3:atemp>20.0</ns3:atemp>
          </ns3:TrackPointExtension>
        </extensions>
      </trkpt>
      <trkpt lat="42.5127190165221691131591796875" lon="19.9365593679249286651611328125">
        <ele>1872</ele>
        <time>2026-06-17T10:18:12.000Z</time>
        <extensions>
          <ns3:TrackPointExtension>
            <ns3:atemp>20.0</ns3:atemp>
          </ns3:TrackPointExtension>
        </extensions>
      </trkpt>
      <trkpt lat="42.51272597350180149078369140625" lon="19.93655106984078884124755859375">
        <ele>1872</ele>
        <time>2026-06-17T10:18:13.000Z</time>
        <extensions>
          <ns3:TrackPointExtension>
            <ns3:atemp>20.0</ns3:atemp>
          </ns3:TrackPointExtension>
        </extensions>
      </trkpt>
      <trkpt lat="42.51273049972951412200927734375" lon="19.93653698824346065521240234375">
        <ele>1872</ele>
        <time>2026-06-17T10:18:14.000Z</time>
        <extensions>
          <ns3:TrackPointExtension>
            <ns3:atemp>20.0</ns3:atemp>
          </ns3:TrackPointExtension>
        </extensions>
      </trkpt>
      <trkpt lat="42.512736283242702484130859375" lon="19.93652231991291046142578125">
        <ele>1872.199951171875</ele>
        <time>2026-06-17T10:18:15.000Z</time>
        <extensions>
          <ns3:TrackPointExtension>
            <ns3:atemp>20.0</ns3:atemp>
          </ns3:TrackPointExtension>
        </extensions>
      </trkpt>
      <trkpt lat="42.51274022273719310760498046875" lon="19.93650932796299457550048828125">
        <ele>1872.199951171875</ele>
        <time>2026-06-17T10:18:16.000Z</time>
        <extensions>
          <ns3:TrackPointExtension>
            <ns3:atemp>20.0</ns3:atemp>
          </ns3:TrackPointExtension>
        </extensions>
      </trkpt>
      <trkpt lat="42.51274525187909603118896484375" lon="19.93649323470890522003173828125">
        <ele>1872.199951171875</ele>
        <time>2026-06-17T10:18:17.000Z</time>
        <extensions>
          <ns3:TrackPointExtension>
            <ns3:atemp>20.0</ns3:atemp>
          </ns3:TrackPointExtension>
        </extensions>
      </trkpt>
      <trkpt lat="42.5127508677542209625244140625" lon="19.9364738725125789642333984375">
        <ele>1872</ele>
        <time>2026-06-17T10:18:18.000Z</time>
        <extensions>
          <ns3:TrackPointExtension>
            <ns3:atemp>20.0</ns3:atemp>
          </ns3:TrackPointExtension>
        </extensions>
      </trkpt>
      <trkpt lat="42.51275313086807727813720703125" lon="19.93645132519304752349853515625">
        <ele>1872</ele>
        <time>2026-06-17T10:18:19.000Z</time>
        <extensions>
          <ns3:TrackPointExtension>
            <ns3:atemp>20.0</ns3:atemp>
          </ns3:TrackPointExtension>
        </extensions>
      </trkpt>
      <trkpt lat="42.51275413669645786285400390625" lon="19.9364356510341167449951171875">
        <ele>1871.800048828125</ele>
        <time>2026-06-17T10:18:20.000Z</time>
        <extensions>
          <ns3:TrackPointExtension>
            <ns3:atemp>20.0</ns3:atemp>
          </ns3:TrackPointExtension>
        </extensions>
      </trkpt>
      <trkpt lat="42.512753047049045562744140625" lon="19.9364264309406280517578125">
        <ele>1871.800048828125</ele>
        <time>2026-06-17T10:18:21.000Z</time>
        <extensions>
          <ns3:TrackPointExtension>
            <ns3:atemp>20.0</ns3:atemp>
          </ns3:TrackPointExtension>
        </extensions>
      </trkpt>
      <trkpt lat="42.5127579085528850555419921875" lon="19.9364165402948856353759765625">
        <ele>1871.800048828125</ele>
        <time>2026-06-17T10:18:22.000Z</time>
        <extensions>
          <ns3:TrackPointExtension>
            <ns3:atemp>20.0</ns3:atemp>
          </ns3:TrackPointExtension>
        </extensions>
      </trkpt>
      <trkpt lat="42.51276033930480480194091796875" lon="19.9364068172872066497802734375">
        <ele>1871.800048828125</ele>
        <time>2026-06-17T10:18:23.000Z</time>
        <extensions>
          <ns3:TrackPointExtension>
            <ns3:atemp>20.0</ns3:atemp>
          </ns3:TrackPointExtension>
        </extensions>
      </trkpt>
      <trkpt lat="42.5127605907618999481201171875" lon="19.9364011175930500030517578125">
        <ele>1871.5999755859375</ele>
        <time>2026-06-17T10:18:24.000Z</time>
        <extensions>
          <ns3:TrackPointExtension>
            <ns3:atemp>20.0</ns3:atemp>
          </ns3:TrackPointExtension>
        </extensions>
      </trkpt>
      <trkpt lat="42.5127592496573925018310546875" lon="19.9363907240331172943115234375">
        <ele>1871.5999755859375</ele>
        <time>2026-06-17T10:18:25.000Z</time>
        <extensions>
          <ns3:TrackPointExtension>
            <ns3:atemp>20.0</ns3:atemp>
          </ns3:TrackPointExtension>
        </extensions>
      </trkpt>
      <trkpt lat="42.51276503317058086395263671875" lon="19.93638284504413604736328125">
        <ele>1871.4000244140625</ele>
        <time>2026-06-17T10:18:26.000Z</time>
        <extensions>
          <ns3:TrackPointExtension>
            <ns3:atemp>20.0</ns3:atemp>
          </ns3:TrackPointExtension>
        </extensions>
      </trkpt>
      <trkpt lat="42.51277073286473751068115234375" lon="19.93637479841709136962890625">
        <ele>1871.199951171875</ele>
        <time>2026-06-17T10:18:27.000Z</time>
        <extensions>
          <ns3:TrackPointExtension>
            <ns3:atemp>20.0</ns3:atemp>
          </ns3:TrackPointExtension>
        </extensions>
      </trkpt>
      <trkpt lat="42.51277157105505466461181640625" lon="19.93637337349355220794677734375">
        <ele>1871.199951171875</ele>
        <time>2026-06-17T10:18:28.000Z</time>
        <extensions>
          <ns3:TrackPointExtension>
            <ns3:atemp>20.0</ns3:atemp>
          </ns3:TrackPointExtension>
        </extensions>
      </trkpt>
      <trkpt lat="42.51276888884603977203369140625" lon="19.93637303821742534637451171875">
        <ele>1871</ele>
        <time>2026-06-17T10:18:29.000Z</time>
        <extensions>
          <ns3:TrackPointExtension>
            <ns3:atemp>20.0</ns3:atemp>
          </ns3:TrackPointExtension>
        </extensions>
      </trkpt>
      <trkpt lat="42.51276888884603977203369140625" lon="19.93637303821742534637451171875">
        <ele>1870.800048828125</ele>
        <time>2026-06-17T10:18:30.000Z</time>
        <extensions>
          <ns3:TrackPointExtension>
            <ns3:atemp>20.0</ns3:atemp>
          </ns3:TrackPointExtension>
        </extensions>
      </trkpt>
      <trkpt lat="42.51276888884603977203369140625" lon="19.93637303821742534637451171875">
        <ele>1870.800048828125</ele>
        <time>2026-06-17T10:18:31.000Z</time>
        <extensions>
          <ns3:TrackPointExtension>
            <ns3:atemp>20.0</ns3:atemp>
          </ns3:TrackPointExtension>
        </extensions>
      </trkpt>
      <trkpt lat="42.51276888884603977203369140625" lon="19.93637303821742534637451171875">
        <ele>1870.5999755859375</ele>
        <time>2026-06-17T10:18:32.000Z</time>
        <extensions>
          <ns3:TrackPointExtension>
            <ns3:atemp>20.0</ns3:atemp>
          </ns3:TrackPointExtension>
        </extensions>
      </trkpt>
      <trkpt lat="42.51276888884603977203369140625" lon="19.93637303821742534637451171875">
        <ele>1870.5999755859375</ele>
        <time>2026-06-17T10:18:33.000Z</time>
        <extensions>
          <ns3:TrackPointExtension>
            <ns3:atemp>20.0</ns3:atemp>
          </ns3:TrackPointExtension>
        </extensions>
      </trkpt>
      <trkpt lat="42.51276888884603977203369140625" lon="19.93637303821742534637451171875">
        <ele>1870.4000244140625</ele>
        <time>2026-06-17T10:18:34.000Z</time>
        <extensions>
          <ns3:TrackPointExtension>
            <ns3:atemp>20.0</ns3:atemp>
          </ns3:TrackPointExtension>
        </extensions>
      </trkpt>
      <trkpt lat="42.51276888884603977203369140625" lon="19.93637303821742534637451171875">
        <ele>1870.4000244140625</ele>
        <time>2026-06-17T10:18:35.000Z</time>
        <extensions>
          <ns3:TrackPointExtension>
            <ns3:atemp>20.0</ns3:atemp>
          </ns3:TrackPointExtension>
        </extensions>
      </trkpt>
      <trkpt lat="42.51276888884603977203369140625" lon="19.93637303821742534637451171875">
        <ele>1870.4000244140625</ele>
        <time>2026-06-17T10:18:36.000Z</time>
        <extensions>
          <ns3:TrackPointExtension>
            <ns3:atemp>20.0</ns3:atemp>
          </ns3:TrackPointExtension>
        </extensions>
      </trkpt>
      <trkpt lat="42.51276888884603977203369140625" lon="19.93637303821742534637451171875">
        <ele>1870.4000244140625</ele>
        <time>2026-06-17T10:18:37.000Z</time>
        <extensions>
          <ns3:TrackPointExtension>
            <ns3:atemp>20.0</ns3:atemp>
          </ns3:TrackPointExtension>
        </extensions>
      </trkpt>
      <trkpt lat="42.51276888884603977203369140625" lon="19.93637303821742534637451171875">
        <ele>1870.5999755859375</ele>
        <time>2026-06-17T10:18:38.000Z</time>
        <extensions>
          <ns3:TrackPointExtension>
            <ns3:atemp>20.0</ns3:atemp>
          </ns3:TrackPointExtension>
        </extensions>
      </trkpt>
      <trkpt lat="42.51276888884603977203369140625" lon="19.93637303821742534637451171875">
        <ele>1870.5999755859375</ele>
        <time>2026-06-17T10:18:39.000Z</time>
        <extensions>
          <ns3:TrackPointExtension>
            <ns3:atemp>20.0</ns3:atemp>
          </ns3:TrackPointExtension>
        </extensions>
      </trkpt>
      <trkpt lat="42.51276888884603977203369140625" lon="19.93637303821742534637451171875">
        <ele>1870.5999755859375</ele>
        <time>2026-06-17T10:18:40.000Z</time>
        <extensions>
          <ns3:TrackPointExtension>
            <ns3:atemp>20.0</ns3:atemp>
          </ns3:TrackPointExtension>
        </extensions>
      </trkpt>
      <trkpt lat="42.51276888884603977203369140625" lon="19.93637303821742534637451171875">
        <ele>1870.5999755859375</ele>
        <time>2026-06-17T10:18:41.000Z</time>
        <extensions>
          <ns3:TrackPointExtension>
            <ns3:atemp>20.0</ns3:atemp>
          </ns3:TrackPointExtension>
        </extensions>
      </trkpt>
      <trkpt lat="42.51276888884603977203369140625" lon="19.93637303821742534637451171875">
        <ele>1870.5999755859375</ele>
        <time>2026-06-17T10:18:42.000Z</time>
        <extensions>
          <ns3:TrackPointExtension>
            <ns3:atemp>20.0</ns3:atemp>
          </ns3:TrackPointExtension>
        </extensions>
      </trkpt>
      <trkpt lat="42.51276888884603977203369140625" lon="19.93637303821742534637451171875">
        <ele>1870.4000244140625</ele>
        <time>2026-06-17T10:18:43.000Z</time>
        <extensions>
          <ns3:TrackPointExtension>
            <ns3:atemp>20.0</ns3:atemp>
          </ns3:TrackPointExtension>
        </extensions>
      </trkpt>
      <trkpt lat="42.51276888884603977203369140625" lon="19.93637303821742534637451171875">
        <ele>1870.4000244140625</ele>
        <time>2026-06-17T10:18:44.000Z</time>
        <extensions>
          <ns3:TrackPointExtension>
            <ns3:atemp>20.0</ns3:atemp>
          </ns3:TrackPointExtension>
        </extensions>
      </trkpt>
      <trkpt lat="42.51276888884603977203369140625" lon="19.93637303821742534637451171875">
        <ele>1870.4000244140625</ele>
        <time>2026-06-17T10:18:45.000Z</time>
        <extensions>
          <ns3:TrackPointExtension>
            <ns3:atemp>20.0</ns3:atemp>
          </ns3:TrackPointExtension>
        </extensions>
      </trkpt>
      <trkpt lat="42.51276888884603977203369140625" lon="19.93637303821742534637451171875">
        <ele>1870.4000244140625</ele>
        <time>2026-06-17T10:18:46.000Z</time>
        <extensions>
          <ns3:TrackPointExtension>
            <ns3:atemp>20.0</ns3:atemp>
          </ns3:TrackPointExtension>
        </extensions>
      </trkpt>
      <trkpt lat="42.51276888884603977203369140625" lon="19.93637303821742534637451171875">
        <ele>1870.4000244140625</ele>
        <time>2026-06-17T10:18:47.000Z</time>
        <extensions>
          <ns3:TrackPointExtension>
            <ns3:atemp>20.0</ns3:atemp>
          </ns3:TrackPointExtension>
        </extensions>
      </trkpt>
      <trkpt lat="42.51276888884603977203369140625" lon="19.93637303821742534637451171875">
        <ele>1870.4000244140625</ele>
        <time>2026-06-17T10:18:48.000Z</time>
        <extensions>
          <ns3:TrackPointExtension>
            <ns3:atemp>20.0</ns3:atemp>
          </ns3:TrackPointExtension>
        </extensions>
      </trkpt>
      <trkpt lat="42.51276888884603977203369140625" lon="19.93637303821742534637451171875">
        <ele>1870.4000244140625</ele>
        <time>2026-06-17T10:18:49.000Z</time>
        <extensions>
          <ns3:TrackPointExtension>
            <ns3:atemp>20.0</ns3:atemp>
          </ns3:TrackPointExtension>
        </extensions>
      </trkpt>
      <trkpt lat="42.51276888884603977203369140625" lon="19.93637303821742534637451171875">
        <ele>1870.4000244140625</ele>
        <time>2026-06-17T10:18:50.000Z</time>
        <extensions>
          <ns3:TrackPointExtension>
            <ns3:atemp>20.0</ns3:atemp>
          </ns3:TrackPointExtension>
        </extensions>
      </trkpt>
      <trkpt lat="42.51276888884603977203369140625" lon="19.93637303821742534637451171875">
        <ele>1870.4000244140625</ele>
        <time>2026-06-17T10:18:51.000Z</time>
        <extensions>
          <ns3:TrackPointExtension>
            <ns3:atemp>20.0</ns3:atemp>
          </ns3:TrackPointExtension>
        </extensions>
      </trkpt>
      <trkpt lat="42.51276888884603977203369140625" lon="19.93637303821742534637451171875">
        <ele>1870.4000244140625</ele>
        <time>2026-06-17T10:18:52.000Z</time>
        <extensions>
          <ns3:TrackPointExtension>
            <ns3:atemp>20.0</ns3:atemp>
          </ns3:TrackPointExtension>
        </extensions>
      </trkpt>
      <trkpt lat="42.51276888884603977203369140625" lon="19.93637303821742534637451171875">
        <ele>1870.4000244140625</ele>
        <time>2026-06-17T10:18:53.000Z</time>
        <extensions>
          <ns3:TrackPointExtension>
            <ns3:atemp>20.0</ns3:atemp>
          </ns3:TrackPointExtension>
        </extensions>
      </trkpt>
      <trkpt lat="42.51276888884603977203369140625" lon="19.93637303821742534637451171875">
        <ele>1870.199951171875</ele>
        <time>2026-06-17T10:18:54.000Z</time>
        <extensions>
          <ns3:TrackPointExtension>
            <ns3:atemp>20.0</ns3:atemp>
          </ns3:TrackPointExtension>
        </extensions>
      </trkpt>
      <trkpt lat="42.51276888884603977203369140625" lon="19.93637303821742534637451171875">
        <ele>1870.199951171875</ele>
        <time>2026-06-17T10:18:55.000Z</time>
        <extensions>
          <ns3:TrackPointExtension>
            <ns3:atemp>20.0</ns3:atemp>
          </ns3:TrackPointExtension>
        </extensions>
      </trkpt>
      <trkpt lat="42.51276888884603977203369140625" lon="19.93637303821742534637451171875">
        <ele>1870.199951171875</ele>
        <time>2026-06-17T10:18:56.000Z</time>
        <extensions>
          <ns3:TrackPointExtension>
            <ns3:atemp>20.0</ns3:atemp>
          </ns3:TrackPointExtension>
        </extensions>
      </trkpt>
      <trkpt lat="42.51276888884603977203369140625" lon="19.93637303821742534637451171875">
        <ele>1870.199951171875</ele>
        <time>2026-06-17T10:18:57.000Z</time>
        <extensions>
          <ns3:TrackPointExtension>
            <ns3:atemp>20.0</ns3:atemp>
          </ns3:TrackPointExtension>
        </extensions>
      </trkpt>
      <trkpt lat="42.51276888884603977203369140625" lon="19.93637303821742534637451171875">
        <ele>1870.199951171875</ele>
        <time>2026-06-17T10:18:58.000Z</time>
        <extensions>
          <ns3:TrackPointExtension>
            <ns3:atemp>20.0</ns3:atemp>
          </ns3:TrackPointExtension>
        </extensions>
      </trkpt>
      <trkpt lat="42.51276888884603977203369140625" lon="19.93637303821742534637451171875">
        <ele>1870.199951171875</ele>
        <time>2026-06-17T10:18:59.000Z</time>
        <extensions>
          <ns3:TrackPointExtension>
            <ns3:atemp>20.0</ns3:atemp>
          </ns3:TrackPointExtension>
        </extensions>
      </trkpt>
      <trkpt lat="42.51276888884603977203369140625" lon="19.93637303821742534637451171875">
        <ele>1870.4000244140625</ele>
        <time>2026-06-17T10:19:00.000Z</time>
        <extensions>
          <ns3:TrackPointExtension>
            <ns3:atemp>20.0</ns3:atemp>
          </ns3:TrackPointExtension>
        </extensions>
      </trkpt>
      <trkpt lat="42.51276888884603977203369140625" lon="19.93637303821742534637451171875">
        <ele>1870.4000244140625</ele>
        <time>2026-06-17T10:19:01.000Z</time>
        <extensions>
          <ns3:TrackPointExtension>
            <ns3:atemp>20.0</ns3:atemp>
          </ns3:TrackPointExtension>
        </extensions>
      </trkpt>
      <trkpt lat="42.51276888884603977203369140625" lon="19.93637303821742534637451171875">
        <ele>1870.4000244140625</ele>
        <time>2026-06-17T10:19:02.000Z</time>
        <extensions>
          <ns3:TrackPointExtension>
            <ns3:atemp>20.0</ns3:atemp>
          </ns3:TrackPointExtension>
        </extensions>
      </trkpt>
      <trkpt lat="42.51276888884603977203369140625" lon="19.93637303821742534637451171875">
        <ele>1870.4000244140625</ele>
        <time>2026-06-17T10:19:03.000Z</time>
        <extensions>
          <ns3:TrackPointExtension>
            <ns3:atemp>20.0</ns3:atemp>
          </ns3:TrackPointExtension>
        </extensions>
      </trkpt>
      <trkpt lat="42.51276888884603977203369140625" lon="19.93637303821742534637451171875">
        <ele>1870.4000244140625</ele>
        <time>2026-06-17T10:19:04.000Z</time>
        <extensions>
          <ns3:TrackPointExtension>
            <ns3:atemp>20.0</ns3:atemp>
          </ns3:TrackPointExtension>
        </extensions>
      </trkpt>
      <trkpt lat="42.51276888884603977203369140625" lon="19.93637303821742534637451171875">
        <ele>1870.4000244140625</ele>
        <time>2026-06-17T10:19:05.000Z</time>
        <extensions>
          <ns3:TrackPointExtension>
            <ns3:atemp>20.0</ns3:atemp>
          </ns3:TrackPointExtension>
        </extensions>
      </trkpt>
      <trkpt lat="42.51276888884603977203369140625" lon="19.93637303821742534637451171875">
        <ele>1870.4000244140625</ele>
        <time>2026-06-17T10:19:06.000Z</time>
        <extensions>
          <ns3:TrackPointExtension>
            <ns3:atemp>20.0</ns3:atemp>
          </ns3:TrackPointExtension>
        </extensions>
      </trkpt>
      <trkpt lat="42.51276888884603977203369140625" lon="19.93637303821742534637451171875">
        <ele>1870.4000244140625</ele>
        <time>2026-06-17T10:19:07.000Z</time>
        <extensions>
          <ns3:TrackPointExtension>
            <ns3:atemp>20.0</ns3:atemp>
          </ns3:TrackPointExtension>
        </extensions>
      </trkpt>
      <trkpt lat="42.51276888884603977203369140625" lon="19.93637303821742534637451171875">
        <ele>1870.4000244140625</ele>
        <time>2026-06-17T10:19:08.000Z</time>
        <extensions>
          <ns3:TrackPointExtension>
            <ns3:atemp>20.0</ns3:atemp>
          </ns3:TrackPointExtension>
        </extensions>
      </trkpt>
      <trkpt lat="42.51276888884603977203369140625" lon="19.93637303821742534637451171875">
        <ele>1870.4000244140625</ele>
        <time>2026-06-17T10:19:09.000Z</time>
        <extensions>
          <ns3:TrackPointExtension>
            <ns3:atemp>20.0</ns3:atemp>
          </ns3:TrackPointExtension>
        </extensions>
      </trkpt>
      <trkpt lat="42.51276888884603977203369140625" lon="19.93637303821742534637451171875">
        <ele>1870.4000244140625</ele>
        <time>2026-06-17T10:19:10.000Z</time>
        <extensions>
          <ns3:TrackPointExtension>
            <ns3:atemp>20.0</ns3:atemp>
          </ns3:TrackPointExtension>
        </extensions>
      </trkpt>
      <trkpt lat="42.51276888884603977203369140625" lon="19.93637303821742534637451171875">
        <ele>1870.199951171875</ele>
        <time>2026-06-17T10:19:11.000Z</time>
        <extensions>
          <ns3:TrackPointExtension>
            <ns3:atemp>20.0</ns3:atemp>
          </ns3:TrackPointExtension>
        </extensions>
      </trkpt>
      <trkpt lat="42.51276888884603977203369140625" lon="19.93637303821742534637451171875">
        <ele>1870.199951171875</ele>
        <time>2026-06-17T10:19:12.000Z</time>
        <extensions>
          <ns3:TrackPointExtension>
            <ns3:atemp>20.0</ns3:atemp>
          </ns3:TrackPointExtension>
        </extensions>
      </trkpt>
      <trkpt lat="42.51276888884603977203369140625" lon="19.93637303821742534637451171875">
        <ele>1870.199951171875</ele>
        <time>2026-06-17T10:19:13.000Z</time>
        <extensions>
          <ns3:TrackPointExtension>
            <ns3:atemp>20.0</ns3:atemp>
          </ns3:TrackPointExtension>
        </extensions>
      </trkpt>
      <trkpt lat="42.51276888884603977203369140625" lon="19.93637303821742534637451171875">
        <ele>1870.199951171875</ele>
        <time>2026-06-17T10:19:14.000Z</time>
        <extensions>
          <ns3:TrackPointExtension>
            <ns3:atemp>20.0</ns3:atemp>
          </ns3:TrackPointExtension>
        </extensions>
      </trkpt>
      <trkpt lat="42.51276888884603977203369140625" lon="19.93637303821742534637451171875">
        <ele>1870.199951171875</ele>
        <time>2026-06-17T10:19:15.000Z</time>
        <extensions>
          <ns3:TrackPointExtension>
            <ns3:atemp>20.0</ns3:atemp>
          </ns3:TrackPointExtension>
        </extensions>
      </trkpt>
      <trkpt lat="42.51276888884603977203369140625" lon="19.93637303821742534637451171875">
        <ele>1870.199951171875</ele>
        <time>2026-06-17T10:19:16.000Z</time>
        <extensions>
          <ns3:TrackPointExtension>
            <ns3:atemp>20.0</ns3:atemp>
          </ns3:TrackPointExtension>
        </extensions>
      </trkpt>
      <trkpt lat="42.51276888884603977203369140625" lon="19.93637303821742534637451171875">
        <ele>1870.199951171875</ele>
        <time>2026-06-17T10:19:17.000Z</time>
        <extensions>
          <ns3:TrackPointExtension>
            <ns3:atemp>20.0</ns3:atemp>
          </ns3:TrackPointExtension>
        </extensions>
      </trkpt>
      <trkpt lat="42.51276888884603977203369140625" lon="19.93637303821742534637451171875">
        <ele>1870.199951171875</ele>
        <time>2026-06-17T10:19:18.000Z</time>
        <extensions>
          <ns3:TrackPointExtension>
            <ns3:atemp>20.0</ns3:atemp>
          </ns3:TrackPointExtension>
        </extensions>
      </trkpt>
      <trkpt lat="42.51276888884603977203369140625" lon="19.93637303821742534637451171875">
        <ele>1870.199951171875</ele>
        <time>2026-06-17T10:19:19.000Z</time>
        <extensions>
          <ns3:TrackPointExtension>
            <ns3:atemp>20.0</ns3:atemp>
          </ns3:TrackPointExtension>
        </extensions>
      </trkpt>
      <trkpt lat="42.51276888884603977203369140625" lon="19.93637303821742534637451171875">
        <ele>1870.199951171875</ele>
        <time>2026-06-17T10:19:20.000Z</time>
        <extensions>
          <ns3:TrackPointExtension>
            <ns3:atemp>20.0</ns3:atemp>
          </ns3:TrackPointExtension>
        </extensions>
      </trkpt>
      <trkpt lat="42.51276888884603977203369140625" lon="19.93637303821742534637451171875">
        <ele>1870.199951171875</ele>
        <time>2026-06-17T10:19:21.000Z</time>
        <extensions>
          <ns3:TrackPointExtension>
            <ns3:atemp>20.0</ns3:atemp>
          </ns3:TrackPointExtension>
        </extensions>
      </trkpt>
      <trkpt lat="42.51276888884603977203369140625" lon="19.93637303821742534637451171875">
        <ele>1870.199951171875</ele>
        <time>2026-06-17T10:19:22.000Z</time>
        <extensions>
          <ns3:TrackPointExtension>
            <ns3:atemp>20.0</ns3:atemp>
          </ns3:TrackPointExtension>
        </extensions>
      </trkpt>
      <trkpt lat="42.51276888884603977203369140625" lon="19.93637303821742534637451171875">
        <ele>1870.199951171875</ele>
        <time>2026-06-17T10:19:23.000Z</time>
        <extensions>
          <ns3:TrackPointExtension>
            <ns3:atemp>20.0</ns3:atemp>
          </ns3:TrackPointExtension>
        </extensions>
      </trkpt>
      <trkpt lat="42.51276888884603977203369140625" lon="19.93637303821742534637451171875">
        <ele>1870.199951171875</ele>
        <time>2026-06-17T10:19:24.000Z</time>
        <extensions>
          <ns3:TrackPointExtension>
            <ns3:atemp>20.0</ns3:atemp>
          </ns3:TrackPointExtension>
        </extensions>
      </trkpt>
      <trkpt lat="42.51276888884603977203369140625" lon="19.93637303821742534637451171875">
        <ele>1870.199951171875</ele>
        <time>2026-06-17T10:19:25.000Z</time>
        <extensions>
          <ns3:TrackPointExtension>
            <ns3:atemp>20.0</ns3:atemp>
          </ns3:TrackPointExtension>
        </extensions>
      </trkpt>
      <trkpt lat="42.51276888884603977203369140625" lon="19.93637303821742534637451171875">
        <ele>1870.199951171875</ele>
        <time>2026-06-17T10:19:26.000Z</time>
        <extensions>
          <ns3:TrackPointExtension>
            <ns3:atemp>20.0</ns3:atemp>
          </ns3:TrackPointExtension>
        </extensions>
      </trkpt>
      <trkpt lat="42.51276888884603977203369140625" lon="19.93637303821742534637451171875">
        <ele>1870.199951171875</ele>
        <time>2026-06-17T10:19:27.000Z</time>
        <extensions>
          <ns3:TrackPointExtension>
            <ns3:atemp>20.0</ns3:atemp>
          </ns3:TrackPointExtension>
        </extensions>
      </trkpt>
      <trkpt lat="42.51276888884603977203369140625" lon="19.93637303821742534637451171875">
        <ele>1870.199951171875</ele>
        <time>2026-06-17T10:19:28.000Z</time>
        <extensions>
          <ns3:TrackPointExtension>
            <ns3:atemp>20.0</ns3:atemp>
          </ns3:TrackPointExtension>
        </extensions>
      </trkpt>
      <trkpt lat="42.51276888884603977203369140625" lon="19.93637303821742534637451171875">
        <ele>1870.199951171875</ele>
        <time>2026-06-17T10:19:29.000Z</time>
        <extensions>
          <ns3:TrackPointExtension>
            <ns3:atemp>20.0</ns3:atemp>
          </ns3:TrackPointExtension>
        </extensions>
      </trkpt>
      <trkpt lat="42.51276888884603977203369140625" lon="19.93637303821742534637451171875">
        <ele>1870.199951171875</ele>
        <time>2026-06-17T10:19:30.000Z</time>
        <extensions>
          <ns3:TrackPointExtension>
            <ns3:atemp>20.0</ns3:atemp>
          </ns3:TrackPointExtension>
        </extensions>
      </trkpt>
      <trkpt lat="42.51276888884603977203369140625" lon="19.93637303821742534637451171875">
        <ele>1870.199951171875</ele>
        <time>2026-06-17T10:19:31.000Z</time>
        <extensions>
          <ns3:TrackPointExtension>
            <ns3:atemp>20.0</ns3:atemp>
          </ns3:TrackPointExtension>
        </extensions>
      </trkpt>
      <trkpt lat="42.51276888884603977203369140625" lon="19.93637303821742534637451171875">
        <ele>1870.199951171875</ele>
        <time>2026-06-17T10:19:32.000Z</time>
        <extensions>
          <ns3:TrackPointExtension>
            <ns3:atemp>20.0</ns3:atemp>
          </ns3:TrackPointExtension>
        </extensions>
      </trkpt>
      <trkpt lat="42.51276888884603977203369140625" lon="19.93637303821742534637451171875">
        <ele>1870.199951171875</ele>
        <time>2026-06-17T10:19:33.000Z</time>
        <extensions>
          <ns3:TrackPointExtension>
            <ns3:atemp>20.0</ns3:atemp>
          </ns3:TrackPointExtension>
        </extensions>
      </trkpt>
      <trkpt lat="42.51276888884603977203369140625" lon="19.93637303821742534637451171875">
        <ele>1870.199951171875</ele>
        <time>2026-06-17T10:19:34.000Z</time>
        <extensions>
          <ns3:TrackPointExtension>
            <ns3:atemp>20.0</ns3:atemp>
          </ns3:TrackPointExtension>
        </extensions>
      </trkpt>
      <trkpt lat="42.51276888884603977203369140625" lon="19.93637303821742534637451171875">
        <ele>1870.4000244140625</ele>
        <time>2026-06-17T10:19:35.000Z</time>
        <extensions>
          <ns3:TrackPointExtension>
            <ns3:atemp>20.0</ns3:atemp>
          </ns3:TrackPointExtension>
        </extensions>
      </trkpt>
      <trkpt lat="42.51276888884603977203369140625" lon="19.93637303821742534637451171875">
        <ele>1870.4000244140625</ele>
        <time>2026-06-17T10:19:36.000Z</time>
        <extensions>
          <ns3:TrackPointExtension>
            <ns3:atemp>20.0</ns3:atemp>
          </ns3:TrackPointExtension>
        </extensions>
      </trkpt>
      <trkpt lat="42.51276888884603977203369140625" lon="19.93637303821742534637451171875">
        <ele>1870.4000244140625</ele>
        <time>2026-06-17T10:19:37.000Z</time>
        <extensions>
          <ns3:TrackPointExtension>
            <ns3:atemp>20.0</ns3:atemp>
          </ns3:TrackPointExtension>
        </extensions>
      </trkpt>
      <trkpt lat="42.51276888884603977203369140625" lon="19.93637303821742534637451171875">
        <ele>1870.4000244140625</ele>
        <time>2026-06-17T10:19:38.000Z</time>
        <extensions>
          <ns3:TrackPointExtension>
            <ns3:atemp>20.0</ns3:atemp>
          </ns3:TrackPointExtension>
        </extensions>
      </trkpt>
      <trkpt lat="42.51276888884603977203369140625" lon="19.93637303821742534637451171875">
        <ele>1870.4000244140625</ele>
        <time>2026-06-17T10:19:39.000Z</time>
        <extensions>
          <ns3:TrackPointExtension>
            <ns3:atemp>20.0</ns3:atemp>
          </ns3:TrackPointExtension>
        </extensions>
      </trkpt>
      <trkpt lat="42.51276888884603977203369140625" lon="19.93637303821742534637451171875">
        <ele>1870.199951171875</ele>
        <time>2026-06-17T10:19:40.000Z</time>
        <extensions>
          <ns3:TrackPointExtension>
            <ns3:atemp>20.0</ns3:atemp>
          </ns3:TrackPointExtension>
        </extensions>
      </trkpt>
      <trkpt lat="42.51276888884603977203369140625" lon="19.93637303821742534637451171875">
        <ele>1870.199951171875</ele>
        <time>2026-06-17T10:19:41.000Z</time>
        <extensions>
          <ns3:TrackPointExtension>
            <ns3:atemp>20.0</ns3:atemp>
          </ns3:TrackPointExtension>
        </extensions>
      </trkpt>
      <trkpt lat="42.51276888884603977203369140625" lon="19.93637303821742534637451171875">
        <ele>1870.199951171875</ele>
        <time>2026-06-17T10:19:42.000Z</time>
        <extensions>
          <ns3:TrackPointExtension>
            <ns3:atemp>20.0</ns3:atemp>
          </ns3:TrackPointExtension>
        </extensions>
      </trkpt>
      <trkpt lat="42.51276888884603977203369140625" lon="19.93637303821742534637451171875">
        <ele>1870.199951171875</ele>
        <time>2026-06-17T10:19:43.000Z</time>
        <extensions>
          <ns3:TrackPointExtension>
            <ns3:atemp>20.0</ns3:atemp>
          </ns3:TrackPointExtension>
        </extensions>
      </trkpt>
      <trkpt lat="42.51276888884603977203369140625" lon="19.93637303821742534637451171875">
        <ele>1870.199951171875</ele>
        <time>2026-06-17T10:19:44.000Z</time>
        <extensions>
          <ns3:TrackPointExtension>
            <ns3:atemp>20.0</ns3:atemp>
          </ns3:TrackPointExtension>
        </extensions>
      </trkpt>
      <trkpt lat="42.51276888884603977203369140625" lon="19.93637303821742534637451171875">
        <ele>1870.199951171875</ele>
        <time>2026-06-17T10:19:45.000Z</time>
        <extensions>
          <ns3:TrackPointExtension>
            <ns3:atemp>20.0</ns3:atemp>
          </ns3:TrackPointExtension>
        </extensions>
      </trkpt>
      <trkpt lat="42.51276888884603977203369140625" lon="19.93637303821742534637451171875">
        <ele>1870.199951171875</ele>
        <time>2026-06-17T10:19:46.000Z</time>
        <extensions>
          <ns3:TrackPointExtension>
            <ns3:atemp>20.0</ns3:atemp>
          </ns3:TrackPointExtension>
        </extensions>
      </trkpt>
      <trkpt lat="42.51276888884603977203369140625" lon="19.93637303821742534637451171875">
        <ele>1870.199951171875</ele>
        <time>2026-06-17T10:19:47.000Z</time>
        <extensions>
          <ns3:TrackPointExtension>
            <ns3:atemp>20.0</ns3:atemp>
          </ns3:TrackPointExtension>
        </extensions>
      </trkpt>
      <trkpt lat="42.51276888884603977203369140625" lon="19.93637303821742534637451171875">
        <ele>1870.199951171875</ele>
        <time>2026-06-17T10:19:48.000Z</time>
        <extensions>
          <ns3:TrackPointExtension>
            <ns3:atemp>20.0</ns3:atemp>
          </ns3:TrackPointExtension>
        </extensions>
      </trkpt>
      <trkpt lat="42.51276888884603977203369140625" lon="19.93637303821742534637451171875">
        <ele>1870.199951171875</ele>
        <time>2026-06-17T10:19:49.000Z</time>
        <extensions>
          <ns3:TrackPointExtension>
            <ns3:atemp>20.0</ns3:atemp>
          </ns3:TrackPointExtension>
        </extensions>
      </trkpt>
      <trkpt lat="42.51276888884603977203369140625" lon="19.93637303821742534637451171875">
        <ele>1870.199951171875</ele>
        <time>2026-06-17T10:19:50.000Z</time>
        <extensions>
          <ns3:TrackPointExtension>
            <ns3:atemp>20.0</ns3:atemp>
          </ns3:TrackPointExtension>
        </extensions>
      </trkpt>
      <trkpt lat="42.51276888884603977203369140625" lon="19.93637303821742534637451171875">
        <ele>1870.199951171875</ele>
        <time>2026-06-17T10:19:51.000Z</time>
        <extensions>
          <ns3:TrackPointExtension>
            <ns3:atemp>20.0</ns3:atemp>
          </ns3:TrackPointExtension>
        </extensions>
      </trkpt>
      <trkpt lat="42.51276888884603977203369140625" lon="19.93637303821742534637451171875">
        <ele>1870.199951171875</ele>
        <time>2026-06-17T10:19:52.000Z</time>
        <extensions>
          <ns3:TrackPointExtension>
            <ns3:atemp>20.0</ns3:atemp>
          </ns3:TrackPointExtension>
        </extensions>
      </trkpt>
      <trkpt lat="42.51276821829378604888916015625" lon="19.9363729543983936309814453125">
        <ele>1870.199951171875</ele>
        <time>2026-06-17T10:19:53.000Z</time>
        <extensions>
          <ns3:TrackPointExtension>
            <ns3:atemp>20.0</ns3:atemp>
          </ns3:TrackPointExtension>
        </extensions>
      </trkpt>
      <trkpt lat="42.5127669610083103179931640625" lon="19.9363820068538188934326171875">
        <ele>1870.4000244140625</ele>
        <time>2026-06-17T10:19:54.000Z</time>
        <extensions>
          <ns3:TrackPointExtension>
            <ns3:atemp>20.0</ns3:atemp>
          </ns3:TrackPointExtension>
        </extensions>
      </trkpt>
      <trkpt lat="42.51276754774153232574462890625" lon="19.9363888800144195556640625">
        <ele>1870.5999755859375</ele>
        <time>2026-06-17T10:19:55.000Z</time>
        <extensions>
          <ns3:TrackPointExtension>
            <ns3:atemp>20.0</ns3:atemp>
          </ns3:TrackPointExtension>
        </extensions>
      </trkpt>
      <trkpt lat="42.51276738010346889495849609375" lon="19.936403296887874603271484375">
        <ele>1870.5999755859375</ele>
        <time>2026-06-17T10:19:56.000Z</time>
        <extensions>
          <ns3:TrackPointExtension>
            <ns3:atemp>20.0</ns3:atemp>
          </ns3:TrackPointExtension>
        </extensions>
      </trkpt>
      <trkpt lat="42.51276587136089801788330078125" lon="19.93641075678169727325439453125">
        <ele>1870.5999755859375</ele>
        <time>2026-06-17T10:19:57.000Z</time>
        <extensions>
          <ns3:TrackPointExtension>
            <ns3:atemp>20.0</ns3:atemp>
          </ns3:TrackPointExtension>
        </extensions>
      </trkpt>
      <trkpt lat="42.5127652846276760101318359375" lon="19.93641679175198078155517578125">
        <ele>1870.5999755859375</ele>
        <time>2026-06-17T10:19:58.000Z</time>
        <extensions>
          <ns3:TrackPointExtension>
            <ns3:atemp>20.0</ns3:atemp>
          </ns3:TrackPointExtension>
        </extensions>
      </trkpt>
      <trkpt lat="42.5127620995044708251953125" lon="19.93642249144613742828369140625">
        <ele>1870.5999755859375</ele>
        <time>2026-06-17T10:19:59.000Z</time>
        <extensions>
          <ns3:TrackPointExtension>
            <ns3:atemp>20.0</ns3:atemp>
          </ns3:TrackPointExtension>
        </extensions>
      </trkpt>
      <trkpt lat="42.51276033930480480194091796875" lon="19.9364329688251018524169921875">
        <ele>1870.5999755859375</ele>
        <time>2026-06-17T10:20:00.000Z</time>
        <extensions>
          <ns3:TrackPointExtension>
            <ns3:atemp>20.0</ns3:atemp>
          </ns3:TrackPointExtension>
        </extensions>
      </trkpt>
      <trkpt lat="42.5127562321722507476806640625" lon="19.93645048700273036956787109375">
        <ele>1870.5999755859375</ele>
        <time>2026-06-17T10:20:01.000Z</time>
        <extensions>
          <ns3:TrackPointExtension>
            <ns3:atemp>20.0</ns3:atemp>
          </ns3:TrackPointExtension>
        </extensions>
      </trkpt>
      <trkpt lat="42.51275204122066497802734375" lon="19.9364675022661685943603515625">
        <ele>1870.800048828125</ele>
        <time>2026-06-17T10:20:02.000Z</time>
        <extensions>
          <ns3:TrackPointExtension>
            <ns3:atemp>20.0</ns3:atemp>
          </ns3:TrackPointExtension>
        </extensions>
      </trkpt>
      <trkpt lat="42.512746341526508331298828125" lon="19.9364778958261013031005859375">
        <ele>1870.800048828125</ele>
        <time>2026-06-17T10:20:03.000Z</time>
        <extensions>
          <ns3:TrackPointExtension>
            <ns3:atemp>20.0</ns3:atemp>
          </ns3:TrackPointExtension>
        </extensions>
      </trkpt>
      <trkpt lat="42.5127408094704151153564453125" lon="19.936488457024097442626953125">
        <ele>1871</ele>
        <time>2026-06-17T10:20:04.000Z</time>
        <extensions>
          <ns3:TrackPointExtension>
            <ns3:atemp>20.0</ns3:atemp>
          </ns3:TrackPointExtension>
        </extensions>
      </trkpt>
      <trkpt lat="42.51273569650948047637939453125" lon="19.93649910204112529754638671875">
        <ele>1871</ele>
        <time>2026-06-17T10:20:05.000Z</time>
        <extensions>
          <ns3:TrackPointExtension>
            <ns3:atemp>20.0</ns3:atemp>
          </ns3:TrackPointExtension>
        </extensions>
      </trkpt>
      <trkpt lat="42.51273066736757755279541015625" lon="19.93650815449655055999755859375">
        <ele>1871.199951171875</ele>
        <time>2026-06-17T10:20:06.000Z</time>
        <extensions>
          <ns3:TrackPointExtension>
            <ns3:atemp>20.0</ns3:atemp>
          </ns3:TrackPointExtension>
        </extensions>
      </trkpt>
      <trkpt lat="42.51272580586373805999755859375" lon="19.93651871569454669952392578125">
        <ele>1871.199951171875</ele>
        <time>2026-06-17T10:20:07.000Z</time>
        <extensions>
          <ns3:TrackPointExtension>
            <ns3:atemp>20.0</ns3:atemp>
          </ns3:TrackPointExtension>
        </extensions>
      </trkpt>
      <trkpt lat="42.5127186812460422515869140625" lon="19.93653112091124057769775390625">
        <ele>1871.4000244140625</ele>
        <time>2026-06-17T10:20:08.000Z</time>
        <extensions>
          <ns3:TrackPointExtension>
            <ns3:atemp>20.0</ns3:atemp>
          </ns3:TrackPointExtension>
        </extensions>
      </trkpt>
      <trkpt lat="42.5127138197422027587890625" lon="19.93654419668018817901611328125">
        <ele>1871.4000244140625</ele>
        <time>2026-06-17T10:20:09.000Z</time>
        <extensions>
          <ns3:TrackPointExtension>
            <ns3:atemp>20.0</ns3:atemp>
          </ns3:TrackPointExtension>
        </extensions>
      </trkpt>
      <trkpt lat="42.5127106346189975738525390625" lon="19.93655727244913578033447265625">
        <ele>1871.4000244140625</ele>
        <time>2026-06-17T10:20:10.000Z</time>
        <extensions>
          <ns3:TrackPointExtension>
            <ns3:atemp>20.0</ns3:atemp>
          </ns3:TrackPointExtension>
        </extensions>
      </trkpt>
      <trkpt lat="42.51271390356123447418212890625" lon="19.936556853353977203369140625">
        <ele>1871.4000244140625</ele>
        <time>2026-06-17T10:20:11.000Z</time>
        <extensions>
          <ns3:TrackPointExtension>
            <ns3:atemp>20.0</ns3:atemp>
          </ns3:TrackPointExtension>
        </extensions>
      </trkpt>
      <trkpt lat="42.51271004788577556610107421875" lon="19.9365526624023914337158203125">
        <ele>1871.4000244140625</ele>
        <time>2026-06-17T10:20:12.000Z</time>
        <extensions>
          <ns3:TrackPointExtension>
            <ns3:atemp>20.0</ns3:atemp>
          </ns3:TrackPointExtension>
        </extensions>
      </trkpt>
      <trkpt lat="42.5127133168280124664306640625" lon="19.93655827827751636505126953125">
        <ele>1871.4000244140625</ele>
        <time>2026-06-17T10:20:13.000Z</time>
        <extensions>
          <ns3:TrackPointExtension>
            <ns3:atemp>20.0</ns3:atemp>
          </ns3:TrackPointExtension>
        </extensions>
      </trkpt>
      <trkpt lat="42.5127166695892810821533203125" lon="19.93655744008719921112060546875">
        <ele>1871.4000244140625</ele>
        <time>2026-06-17T10:20:14.000Z</time>
        <extensions>
          <ns3:TrackPointExtension>
            <ns3:atemp>20.0</ns3:atemp>
          </ns3:TrackPointExtension>
        </extensions>
      </trkpt>
      <trkpt lat="42.512714825570583343505859375" lon="19.93655626662075519561767578125">
        <ele>1871.4000244140625</ele>
        <time>2026-06-17T10:20:15.000Z</time>
        <extensions>
          <ns3:TrackPointExtension>
            <ns3:atemp>20.0</ns3:atemp>
          </ns3:TrackPointExtension>
        </extensions>
      </trkpt>
      <trkpt lat="42.51271490938961505889892578125" lon="19.93655626662075519561767578125">
        <ele>1871.4000244140625</ele>
        <time>2026-06-17T10:20:16.000Z</time>
        <extensions>
          <ns3:TrackPointExtension>
            <ns3:atemp>20.0</ns3:atemp>
          </ns3:TrackPointExtension>
        </extensions>
      </trkpt>
      <trkpt lat="42.51271490938961505889892578125" lon="19.93655626662075519561767578125">
        <ele>1871.4000244140625</ele>
        <time>2026-06-17T10:20:17.000Z</time>
        <extensions>
          <ns3:TrackPointExtension>
            <ns3:atemp>20.0</ns3:atemp>
          </ns3:TrackPointExtension>
        </extensions>
      </trkpt>
      <trkpt lat="42.51271490938961505889892578125" lon="19.93655626662075519561767578125">
        <ele>1871.4000244140625</ele>
        <time>2026-06-17T10:20:18.000Z</time>
        <extensions>
          <ns3:TrackPointExtension>
            <ns3:atemp>20.0</ns3:atemp>
          </ns3:TrackPointExtension>
        </extensions>
      </trkpt>
      <trkpt lat="42.51271490938961505889892578125" lon="19.93655626662075519561767578125">
        <ele>1871.4000244140625</ele>
        <time>2026-06-17T10:20:19.000Z</time>
        <extensions>
          <ns3:TrackPointExtension>
            <ns3:atemp>20.0</ns3:atemp>
          </ns3:TrackPointExtension>
        </extensions>
      </trkpt>
      <trkpt lat="42.51271490938961505889892578125" lon="19.93655626662075519561767578125">
        <ele>1871.5999755859375</ele>
        <time>2026-06-17T10:20:20.000Z</time>
        <extensions>
          <ns3:TrackPointExtension>
            <ns3:atemp>20.0</ns3:atemp>
          </ns3:TrackPointExtension>
        </extensions>
      </trkpt>
      <trkpt lat="42.51271490938961505889892578125" lon="19.93655626662075519561767578125">
        <ele>1871.5999755859375</ele>
        <time>2026-06-17T10:20:21.000Z</time>
        <extensions>
          <ns3:TrackPointExtension>
            <ns3:atemp>20.0</ns3:atemp>
          </ns3:TrackPointExtension>
        </extensions>
      </trkpt>
      <trkpt lat="42.51271490938961505889892578125" lon="19.93655626662075519561767578125">
        <ele>1871.5999755859375</ele>
        <time>2026-06-17T10:20:22.000Z</time>
        <extensions>
          <ns3:TrackPointExtension>
            <ns3:atemp>20.0</ns3:atemp>
          </ns3:TrackPointExtension>
        </extensions>
      </trkpt>
      <trkpt lat="42.51271490938961505889892578125" lon="19.93655626662075519561767578125">
        <ele>1871.4000244140625</ele>
        <time>2026-06-17T10:20:23.000Z</time>
        <extensions>
          <ns3:TrackPointExtension>
            <ns3:atemp>20.0</ns3:atemp>
          </ns3:TrackPointExtension>
        </extensions>
      </trkpt>
      <trkpt lat="42.51271490938961505889892578125" lon="19.93655626662075519561767578125">
        <ele>1871.4000244140625</ele>
        <time>2026-06-17T10:20:24.000Z</time>
        <extensions>
          <ns3:TrackPointExtension>
            <ns3:atemp>20.0</ns3:atemp>
          </ns3:TrackPointExtension>
        </extensions>
      </trkpt>
      <trkpt lat="42.51271490938961505889892578125" lon="19.93655626662075519561767578125">
        <ele>1871.4000244140625</ele>
        <time>2026-06-17T10:20:25.000Z</time>
        <extensions>
          <ns3:TrackPointExtension>
            <ns3:atemp>20.0</ns3:atemp>
          </ns3:TrackPointExtension>
        </extensions>
      </trkpt>
      <trkpt lat="42.51271490938961505889892578125" lon="19.93655626662075519561767578125">
        <ele>1871.199951171875</ele>
        <time>2026-06-17T10:20:26.000Z</time>
        <extensions>
          <ns3:TrackPointExtension>
            <ns3:atemp>20.0</ns3:atemp>
          </ns3:TrackPointExtension>
        </extensions>
      </trkpt>
      <trkpt lat="42.51271490938961505889892578125" lon="19.93655626662075519561767578125">
        <ele>1871.199951171875</ele>
        <time>2026-06-17T10:20:27.000Z</time>
        <extensions>
          <ns3:TrackPointExtension>
            <ns3:atemp>20.0</ns3:atemp>
          </ns3:TrackPointExtension>
        </extensions>
      </trkpt>
      <trkpt lat="42.51271490938961505889892578125" lon="19.93655626662075519561767578125">
        <ele>1871.199951171875</ele>
        <time>2026-06-17T10:20:28.000Z</time>
        <extensions>
          <ns3:TrackPointExtension>
            <ns3:atemp>20.0</ns3:atemp>
          </ns3:TrackPointExtension>
        </extensions>
      </trkpt>
      <trkpt lat="42.51271490938961505889892578125" lon="19.93655626662075519561767578125">
        <ele>1871.199951171875</ele>
        <time>2026-06-17T10:20:29.000Z</time>
        <extensions>
          <ns3:TrackPointExtension>
            <ns3:atemp>20.0</ns3:atemp>
          </ns3:TrackPointExtension>
        </extensions>
      </trkpt>
      <trkpt lat="42.51271490938961505889892578125" lon="19.93655626662075519561767578125">
        <ele>1871.199951171875</ele>
        <time>2026-06-17T10:20:30.000Z</time>
        <extensions>
          <ns3:TrackPointExtension>
            <ns3:atemp>20.0</ns3:atemp>
          </ns3:TrackPointExtension>
        </extensions>
      </trkpt>
      <trkpt lat="42.51271490938961505889892578125" lon="19.93655626662075519561767578125">
        <ele>1871.199951171875</ele>
        <time>2026-06-17T10:20:31.000Z</time>
        <extensions>
          <ns3:TrackPointExtension>
            <ns3:atemp>20.0</ns3:atemp>
          </ns3:TrackPointExtension>
        </extensions>
      </trkpt>
      <trkpt lat="42.51271490938961505889892578125" lon="19.93655626662075519561767578125">
        <ele>1871.199951171875</ele>
        <time>2026-06-17T10:20:32.000Z</time>
        <extensions>
          <ns3:TrackPointExtension>
            <ns3:atemp>20.0</ns3:atemp>
          </ns3:TrackPointExtension>
        </extensions>
      </trkpt>
      <trkpt lat="42.51271490938961505889892578125" lon="19.93655626662075519561767578125">
        <ele>1871.199951171875</ele>
        <time>2026-06-17T10:20:33.000Z</time>
        <extensions>
          <ns3:TrackPointExtension>
            <ns3:atemp>20.0</ns3:atemp>
          </ns3:TrackPointExtension>
        </extensions>
      </trkpt>
      <trkpt lat="42.51271490938961505889892578125" lon="19.93655626662075519561767578125">
        <ele>1871.199951171875</ele>
        <time>2026-06-17T10:20:34.000Z</time>
        <extensions>
          <ns3:TrackPointExtension>
            <ns3:atemp>20.0</ns3:atemp>
          </ns3:TrackPointExtension>
        </extensions>
      </trkpt>
      <trkpt lat="42.51271490938961505889892578125" lon="19.93655626662075519561767578125">
        <ele>1871</ele>
        <time>2026-06-17T10:20:35.000Z</time>
        <extensions>
          <ns3:TrackPointExtension>
            <ns3:atemp>20.0</ns3:atemp>
          </ns3:TrackPointExtension>
        </extensions>
      </trkpt>
      <trkpt lat="42.51271490938961505889892578125" lon="19.93655626662075519561767578125">
        <ele>1871</ele>
        <time>2026-06-17T10:20:36.000Z</time>
        <extensions>
          <ns3:TrackPointExtension>
            <ns3:atemp>20.0</ns3:atemp>
          </ns3:TrackPointExtension>
        </extensions>
      </trkpt>
      <trkpt lat="42.51271490938961505889892578125" lon="19.93655626662075519561767578125">
        <ele>1871</ele>
        <time>2026-06-17T10:20:37.000Z</time>
        <extensions>
          <ns3:TrackPointExtension>
            <ns3:atemp>20.0</ns3:atemp>
          </ns3:TrackPointExtension>
        </extensions>
      </trkpt>
      <trkpt lat="42.51271490938961505889892578125" lon="19.93655626662075519561767578125">
        <ele>1871</ele>
        <time>2026-06-17T10:20:38.000Z</time>
        <extensions>
          <ns3:TrackPointExtension>
            <ns3:atemp>20.0</ns3:atemp>
          </ns3:TrackPointExtension>
        </extensions>
      </trkpt>
      <trkpt lat="42.51271490938961505889892578125" lon="19.93655626662075519561767578125">
        <ele>1871</ele>
        <time>2026-06-17T10:20:39.000Z</time>
        <extensions>
          <ns3:TrackPointExtension>
            <ns3:atemp>20.0</ns3:atemp>
          </ns3:TrackPointExtension>
        </extensions>
      </trkpt>
      <trkpt lat="42.51271490938961505889892578125" lon="19.93655626662075519561767578125">
        <ele>1871</ele>
        <time>2026-06-17T10:20:40.000Z</time>
        <extensions>
          <ns3:TrackPointExtension>
            <ns3:atemp>20.0</ns3:atemp>
          </ns3:TrackPointExtension>
        </extensions>
      </trkpt>
      <trkpt lat="42.51271490938961505889892578125" lon="19.93655626662075519561767578125">
        <ele>1871</ele>
        <time>2026-06-17T10:20:41.000Z</time>
        <extensions>
          <ns3:TrackPointExtension>
            <ns3:atemp>20.0</ns3:atemp>
          </ns3:TrackPointExtension>
        </extensions>
      </trkpt>
      <trkpt lat="42.51271490938961505889892578125" lon="19.93655626662075519561767578125">
        <ele>1871</ele>
        <time>2026-06-17T10:20:42.000Z</time>
        <extensions>
          <ns3:TrackPointExtension>
            <ns3:atemp>20.0</ns3:atemp>
          </ns3:TrackPointExtension>
        </extensions>
      </trkpt>
      <trkpt lat="42.51271490938961505889892578125" lon="19.93655626662075519561767578125">
        <ele>1870.800048828125</ele>
        <time>2026-06-17T10:20:43.000Z</time>
        <extensions>
          <ns3:TrackPointExtension>
            <ns3:atemp>20.0</ns3:atemp>
          </ns3:TrackPointExtension>
        </extensions>
      </trkpt>
      <trkpt lat="42.51271490938961505889892578125" lon="19.93655626662075519561767578125">
        <ele>1870.800048828125</ele>
        <time>2026-06-17T10:20:44.000Z</time>
        <extensions>
          <ns3:TrackPointExtension>
            <ns3:atemp>20.0</ns3:atemp>
          </ns3:TrackPointExtension>
        </extensions>
      </trkpt>
      <trkpt lat="42.51271490938961505889892578125" lon="19.93655626662075519561767578125">
        <ele>1870.800048828125</ele>
        <time>2026-06-17T10:20:45.000Z</time>
        <extensions>
          <ns3:TrackPointExtension>
            <ns3:atemp>20.0</ns3:atemp>
          </ns3:TrackPointExtension>
        </extensions>
      </trkpt>
      <trkpt lat="42.51271490938961505889892578125" lon="19.93655626662075519561767578125">
        <ele>1870.800048828125</ele>
        <time>2026-06-17T10:20:46.000Z</time>
        <extensions>
          <ns3:TrackPointExtension>
            <ns3:atemp>20.0</ns3:atemp>
          </ns3:TrackPointExtension>
        </extensions>
      </trkpt>
      <trkpt lat="42.51271490938961505889892578125" lon="19.93655626662075519561767578125">
        <ele>1870.800048828125</ele>
        <time>2026-06-17T10:20:47.000Z</time>
        <extensions>
          <ns3:TrackPointExtension>
            <ns3:atemp>20.0</ns3:atemp>
          </ns3:TrackPointExtension>
        </extensions>
      </trkpt>
      <trkpt lat="42.51271490938961505889892578125" lon="19.93655626662075519561767578125">
        <ele>1870.800048828125</ele>
        <time>2026-06-17T10:20:48.000Z</time>
        <extensions>
          <ns3:TrackPointExtension>
            <ns3:atemp>20.0</ns3:atemp>
          </ns3:TrackPointExtension>
        </extensions>
      </trkpt>
      <trkpt lat="42.51271490938961505889892578125" lon="19.93655626662075519561767578125">
        <ele>1870.800048828125</ele>
        <time>2026-06-17T10:20:49.000Z</time>
        <extensions>
          <ns3:TrackPointExtension>
            <ns3:atemp>20.0</ns3:atemp>
          </ns3:TrackPointExtension>
        </extensions>
      </trkpt>
      <trkpt lat="42.51271490938961505889892578125" lon="19.93655626662075519561767578125">
        <ele>1870.800048828125</ele>
        <time>2026-06-17T10:20:50.000Z</time>
        <extensions>
          <ns3:TrackPointExtension>
            <ns3:atemp>20.0</ns3:atemp>
          </ns3:TrackPointExtension>
        </extensions>
      </trkpt>
      <trkpt lat="42.51271490938961505889892578125" lon="19.93655626662075519561767578125">
        <ele>1870.800048828125</ele>
        <time>2026-06-17T10:20:51.000Z</time>
        <extensions>
          <ns3:TrackPointExtension>
            <ns3:atemp>20.0</ns3:atemp>
          </ns3:TrackPointExtension>
        </extensions>
      </trkpt>
      <trkpt lat="42.51271490938961505889892578125" lon="19.93655626662075519561767578125">
        <ele>1871</ele>
        <time>2026-06-17T10:20:52.000Z</time>
        <extensions>
          <ns3:TrackPointExtension>
            <ns3:atemp>20.0</ns3:atemp>
          </ns3:TrackPointExtension>
        </extensions>
      </trkpt>
      <trkpt lat="42.51271490938961505889892578125" lon="19.93655626662075519561767578125">
        <ele>1871</ele>
        <time>2026-06-17T10:20:53.000Z</time>
        <extensions>
          <ns3:TrackPointExtension>
            <ns3:atemp>20.0</ns3:atemp>
          </ns3:TrackPointExtension>
        </extensions>
      </trkpt>
      <trkpt lat="42.51271490938961505889892578125" lon="19.93655626662075519561767578125">
        <ele>1871</ele>
        <time>2026-06-17T10:20:54.000Z</time>
        <extensions>
          <ns3:TrackPointExtension>
            <ns3:atemp>20.0</ns3:atemp>
          </ns3:TrackPointExtension>
        </extensions>
      </trkpt>
      <trkpt lat="42.51271490938961505889892578125" lon="19.93655626662075519561767578125">
        <ele>1871</ele>
        <time>2026-06-17T10:20:55.000Z</time>
        <extensions>
          <ns3:TrackPointExtension>
            <ns3:atemp>20.0</ns3:atemp>
          </ns3:TrackPointExtension>
        </extensions>
      </trkpt>
      <trkpt lat="42.51271490938961505889892578125" lon="19.93655626662075519561767578125">
        <ele>1871</ele>
        <time>2026-06-17T10:20:56.000Z</time>
        <extensions>
          <ns3:TrackPointExtension>
            <ns3:atemp>20.0</ns3:atemp>
          </ns3:TrackPointExtension>
        </extensions>
      </trkpt>
      <trkpt lat="42.51271490938961505889892578125" lon="19.93655626662075519561767578125">
        <ele>1871</ele>
        <time>2026-06-17T10:20:57.000Z</time>
        <extensions>
          <ns3:TrackPointExtension>
            <ns3:atemp>20.0</ns3:atemp>
          </ns3:TrackPointExtension>
        </extensions>
      </trkpt>
      <trkpt lat="42.51271490938961505889892578125" lon="19.93655626662075519561767578125">
        <ele>1871</ele>
        <time>2026-06-17T10:20:58.000Z</time>
        <extensions>
          <ns3:TrackPointExtension>
            <ns3:atemp>20.0</ns3:atemp>
          </ns3:TrackPointExtension>
        </extensions>
      </trkpt>
      <trkpt lat="42.51271490938961505889892578125" lon="19.93655626662075519561767578125">
        <ele>1871</ele>
        <time>2026-06-17T10:20:59.000Z</time>
        <extensions>
          <ns3:TrackPointExtension>
            <ns3:atemp>20.0</ns3:atemp>
          </ns3:TrackPointExtension>
        </extensions>
      </trkpt>
      <trkpt lat="42.51271490938961505889892578125" lon="19.93655626662075519561767578125">
        <ele>1871</ele>
        <time>2026-06-17T10:21:00.000Z</time>
        <extensions>
          <ns3:TrackPointExtension>
            <ns3:atemp>20.0</ns3:atemp>
          </ns3:TrackPointExtension>
        </extensions>
      </trkpt>
      <trkpt lat="42.51271490938961505889892578125" lon="19.93655626662075519561767578125">
        <ele>1871</ele>
        <time>2026-06-17T10:21:01.000Z</time>
        <extensions>
          <ns3:TrackPointExtension>
            <ns3:atemp>20.0</ns3:atemp>
          </ns3:TrackPointExtension>
        </extensions>
      </trkpt>
      <trkpt lat="42.51271490938961505889892578125" lon="19.93655626662075519561767578125">
        <ele>1871</ele>
        <time>2026-06-17T10:21:02.000Z</time>
        <extensions>
          <ns3:TrackPointExtension>
            <ns3:atemp>20.0</ns3:atemp>
          </ns3:TrackPointExtension>
        </extensions>
      </trkpt>
      <trkpt lat="42.51271490938961505889892578125" lon="19.93655626662075519561767578125">
        <ele>1871</ele>
        <time>2026-06-17T10:21:03.000Z</time>
        <extensions>
          <ns3:TrackPointExtension>
            <ns3:atemp>20.0</ns3:atemp>
          </ns3:TrackPointExtension>
        </extensions>
      </trkpt>
      <trkpt lat="42.51271490938961505889892578125" lon="19.93655626662075519561767578125">
        <ele>1871.199951171875</ele>
        <time>2026-06-17T10:21:04.000Z</time>
        <extensions>
          <ns3:TrackPointExtension>
            <ns3:atemp>20.0</ns3:atemp>
          </ns3:TrackPointExtension>
        </extensions>
      </trkpt>
      <trkpt lat="42.51271490938961505889892578125" lon="19.93655626662075519561767578125">
        <ele>1871.199951171875</ele>
        <time>2026-06-17T10:21:05.000Z</time>
        <extensions>
          <ns3:TrackPointExtension>
            <ns3:atemp>20.0</ns3:atemp>
          </ns3:TrackPointExtension>
        </extensions>
      </trkpt>
      <trkpt lat="42.51271490938961505889892578125" lon="19.93655626662075519561767578125">
        <ele>1871.199951171875</ele>
        <time>2026-06-17T10:21:06.000Z</time>
        <extensions>
          <ns3:TrackPointExtension>
            <ns3:atemp>20.0</ns3:atemp>
          </ns3:TrackPointExtension>
        </extensions>
      </trkpt>
      <trkpt lat="42.51271490938961505889892578125" lon="19.93655626662075519561767578125">
        <ele>1871.199951171875</ele>
        <time>2026-06-17T10:21:07.000Z</time>
        <extensions>
          <ns3:TrackPointExtension>
            <ns3:atemp>20.0</ns3:atemp>
          </ns3:TrackPointExtension>
        </extensions>
      </trkpt>
      <trkpt lat="42.51271490938961505889892578125" lon="19.93655626662075519561767578125">
        <ele>1871.199951171875</ele>
        <time>2026-06-17T10:21:08.000Z</time>
        <extensions>
          <ns3:TrackPointExtension>
            <ns3:atemp>20.0</ns3:atemp>
          </ns3:TrackPointExtension>
        </extensions>
      </trkpt>
      <trkpt lat="42.51271490938961505889892578125" lon="19.93655626662075519561767578125">
        <ele>1871</ele>
        <time>2026-06-17T10:21:09.000Z</time>
        <extensions>
          <ns3:TrackPointExtension>
            <ns3:atemp>20.0</ns3:atemp>
          </ns3:TrackPointExtension>
        </extensions>
      </trkpt>
      <trkpt lat="42.51271490938961505889892578125" lon="19.93655626662075519561767578125">
        <ele>1871</ele>
        <time>2026-06-17T10:21:10.000Z</time>
        <extensions>
          <ns3:TrackPointExtension>
            <ns3:atemp>20.0</ns3:atemp>
          </ns3:TrackPointExtension>
        </extensions>
      </trkpt>
      <trkpt lat="42.51271490938961505889892578125" lon="19.93655626662075519561767578125">
        <ele>1871</ele>
        <time>2026-06-17T10:21:11.000Z</time>
        <extensions>
          <ns3:TrackPointExtension>
            <ns3:atemp>20.0</ns3:atemp>
          </ns3:TrackPointExtension>
        </extensions>
      </trkpt>
      <trkpt lat="42.51271490938961505889892578125" lon="19.93655626662075519561767578125">
        <ele>1871</ele>
        <time>2026-06-17T10:21:12.000Z</time>
        <extensions>
          <ns3:TrackPointExtension>
            <ns3:atemp>20.0</ns3:atemp>
          </ns3:TrackPointExtension>
        </extensions>
      </trkpt>
      <trkpt lat="42.51271490938961505889892578125" lon="19.93655626662075519561767578125">
        <ele>1871</ele>
        <time>2026-06-17T10:21:13.000Z</time>
        <extensions>
          <ns3:TrackPointExtension>
            <ns3:atemp>20.0</ns3:atemp>
          </ns3:TrackPointExtension>
        </extensions>
      </trkpt>
      <trkpt lat="42.51271490938961505889892578125" lon="19.93655626662075519561767578125">
        <ele>1870.800048828125</ele>
        <time>2026-06-17T10:21:14.000Z</time>
        <extensions>
          <ns3:TrackPointExtension>
            <ns3:atemp>20.0</ns3:atemp>
          </ns3:TrackPointExtension>
        </extensions>
      </trkpt>
      <trkpt lat="42.51271490938961505889892578125" lon="19.93655626662075519561767578125">
        <ele>1870.800048828125</ele>
        <time>2026-06-17T10:21:15.000Z</time>
        <extensions>
          <ns3:TrackPointExtension>
            <ns3:atemp>20.0</ns3:atemp>
          </ns3:TrackPointExtension>
        </extensions>
      </trkpt>
      <trkpt lat="42.51271490938961505889892578125" lon="19.93655626662075519561767578125">
        <ele>1870.800048828125</ele>
        <time>2026-06-17T10:21:16.000Z</time>
        <extensions>
          <ns3:TrackPointExtension>
            <ns3:atemp>20.0</ns3:atemp>
          </ns3:TrackPointExtension>
        </extensions>
      </trkpt>
      <trkpt lat="42.51271490938961505889892578125" lon="19.93655626662075519561767578125">
        <ele>1870.800048828125</ele>
        <time>2026-06-17T10:21:17.000Z</time>
        <extensions>
          <ns3:TrackPointExtension>
            <ns3:atemp>20.0</ns3:atemp>
          </ns3:TrackPointExtension>
        </extensions>
      </trkpt>
      <trkpt lat="42.51271490938961505889892578125" lon="19.93655626662075519561767578125">
        <ele>1870.800048828125</ele>
        <time>2026-06-17T10:21:18.000Z</time>
        <extensions>
          <ns3:TrackPointExtension>
            <ns3:atemp>20.0</ns3:atemp>
          </ns3:TrackPointExtension>
        </extensions>
      </trkpt>
      <trkpt lat="42.51271490938961505889892578125" lon="19.93655626662075519561767578125">
        <ele>1870.800048828125</ele>
        <time>2026-06-17T10:21:19.000Z</time>
        <extensions>
          <ns3:TrackPointExtension>
            <ns3:atemp>20.0</ns3:atemp>
          </ns3:TrackPointExtension>
        </extensions>
      </trkpt>
      <trkpt lat="42.51271490938961505889892578125" lon="19.93655626662075519561767578125">
        <ele>1870.800048828125</ele>
        <time>2026-06-17T10:21:20.000Z</time>
        <extensions>
          <ns3:TrackPointExtension>
            <ns3:atemp>20.0</ns3:atemp>
          </ns3:TrackPointExtension>
        </extensions>
      </trkpt>
      <trkpt lat="42.51271490938961505889892578125" lon="19.93655626662075519561767578125">
        <ele>1870.800048828125</ele>
        <time>2026-06-17T10:21:21.000Z</time>
        <extensions>
          <ns3:TrackPointExtension>
            <ns3:atemp>20.0</ns3:atemp>
          </ns3:TrackPointExtension>
        </extensions>
      </trkpt>
      <trkpt lat="42.51271490938961505889892578125" lon="19.93655626662075519561767578125">
        <ele>1870.800048828125</ele>
        <time>2026-06-17T10:21:22.000Z</time>
        <extensions>
          <ns3:TrackPointExtension>
            <ns3:atemp>20.0</ns3:atemp>
          </ns3:TrackPointExtension>
        </extensions>
      </trkpt>
      <trkpt lat="42.51271490938961505889892578125" lon="19.93655626662075519561767578125">
        <ele>1870.800048828125</ele>
        <time>2026-06-17T10:21:23.000Z</time>
        <extensions>
          <ns3:TrackPointExtension>
            <ns3:atemp>20.0</ns3:atemp>
          </ns3:TrackPointExtension>
        </extensions>
      </trkpt>
      <trkpt lat="42.51271490938961505889892578125" lon="19.93655626662075519561767578125">
        <ele>1870.800048828125</ele>
        <time>2026-06-17T10:21:24.000Z</time>
        <extensions>
          <ns3:TrackPointExtension>
            <ns3:atemp>20.0</ns3:atemp>
          </ns3:TrackPointExtension>
        </extensions>
      </trkpt>
      <trkpt lat="42.51271490938961505889892578125" lon="19.93655626662075519561767578125">
        <ele>1870.800048828125</ele>
        <time>2026-06-17T10:21:25.000Z</time>
        <extensions>
          <ns3:TrackPointExtension>
            <ns3:atemp>20.0</ns3:atemp>
          </ns3:TrackPointExtension>
        </extensions>
      </trkpt>
      <trkpt lat="42.51271490938961505889892578125" lon="19.93655626662075519561767578125">
        <ele>1870.800048828125</ele>
        <time>2026-06-17T10:21:26.000Z</time>
        <extensions>
          <ns3:TrackPointExtension>
            <ns3:atemp>20.0</ns3:atemp>
          </ns3:TrackPointExtension>
        </extensions>
      </trkpt>
      <trkpt lat="42.51271490938961505889892578125" lon="19.93655626662075519561767578125">
        <ele>1870.800048828125</ele>
        <time>2026-06-17T10:21:27.000Z</time>
        <extensions>
          <ns3:TrackPointExtension>
            <ns3:atemp>20.0</ns3:atemp>
          </ns3:TrackPointExtension>
        </extensions>
      </trkpt>
      <trkpt lat="42.51271490938961505889892578125" lon="19.93655626662075519561767578125">
        <ele>1870.800048828125</ele>
        <time>2026-06-17T10:21:28.000Z</time>
        <extensions>
          <ns3:TrackPointExtension>
            <ns3:atemp>20.0</ns3:atemp>
          </ns3:TrackPointExtension>
        </extensions>
      </trkpt>
      <trkpt lat="42.51271490938961505889892578125" lon="19.93655626662075519561767578125">
        <ele>1870.800048828125</ele>
        <time>2026-06-17T10:21:29.000Z</time>
        <extensions>
          <ns3:TrackPointExtension>
            <ns3:atemp>20.0</ns3:atemp>
          </ns3:TrackPointExtension>
        </extensions>
      </trkpt>
      <trkpt lat="42.51271490938961505889892578125" lon="19.93655626662075519561767578125">
        <ele>1870.800048828125</ele>
        <time>2026-06-17T10:21:30.000Z</time>
        <extensions>
          <ns3:TrackPointExtension>
            <ns3:atemp>20.0</ns3:atemp>
          </ns3:TrackPointExtension>
        </extensions>
      </trkpt>
      <trkpt lat="42.51271490938961505889892578125" lon="19.93655626662075519561767578125">
        <ele>1870.800048828125</ele>
        <time>2026-06-17T10:21:31.000Z</time>
        <extensions>
          <ns3:TrackPointExtension>
            <ns3:atemp>20.0</ns3:atemp>
          </ns3:TrackPointExtension>
        </extensions>
      </trkpt>
      <trkpt lat="42.51271490938961505889892578125" lon="19.93655626662075519561767578125">
        <ele>1870.800048828125</ele>
        <time>2026-06-17T10:21:32.000Z</time>
        <extensions>
          <ns3:TrackPointExtension>
            <ns3:atemp>20.0</ns3:atemp>
          </ns3:TrackPointExtension>
        </extensions>
      </trkpt>
      <trkpt lat="42.51271490938961505889892578125" lon="19.93655626662075519561767578125">
        <ele>1870.800048828125</ele>
        <time>2026-06-17T10:21:33.000Z</time>
        <extensions>
          <ns3:TrackPointExtension>
            <ns3:atemp>20.0</ns3:atemp>
          </ns3:TrackPointExtension>
        </extensions>
      </trkpt>
      <trkpt lat="42.51271490938961505889892578125" lon="19.93655626662075519561767578125">
        <ele>1870.800048828125</ele>
        <time>2026-06-17T10:21:34.000Z</time>
        <extensions>
          <ns3:TrackPointExtension>
            <ns3:atemp>20.0</ns3:atemp>
          </ns3:TrackPointExtension>
        </extensions>
      </trkpt>
      <trkpt lat="42.51271490938961505889892578125" lon="19.93655626662075519561767578125">
        <ele>1870.800048828125</ele>
        <time>2026-06-17T10:21:35.000Z</time>
        <extensions>
          <ns3:TrackPointExtension>
            <ns3:atemp>20.0</ns3:atemp>
          </ns3:TrackPointExtension>
        </extensions>
      </trkpt>
      <trkpt lat="42.51271490938961505889892578125" lon="19.93655626662075519561767578125">
        <ele>1870.800048828125</ele>
        <time>2026-06-17T10:21:36.000Z</time>
        <extensions>
          <ns3:TrackPointExtension>
            <ns3:atemp>20.0</ns3:atemp>
          </ns3:TrackPointExtension>
        </extensions>
      </trkpt>
      <trkpt lat="42.51271490938961505889892578125" lon="19.93655626662075519561767578125">
        <ele>1870.800048828125</ele>
        <time>2026-06-17T10:21:37.000Z</time>
        <extensions>
          <ns3:TrackPointExtension>
            <ns3:atemp>20.0</ns3:atemp>
          </ns3:TrackPointExtension>
        </extensions>
      </trkpt>
      <trkpt lat="42.51271490938961505889892578125" lon="19.93655626662075519561767578125">
        <ele>1870.800048828125</ele>
        <time>2026-06-17T10:21:38.000Z</time>
        <extensions>
          <ns3:TrackPointExtension>
            <ns3:atemp>20.0</ns3:atemp>
          </ns3:TrackPointExtension>
        </extensions>
      </trkpt>
      <trkpt lat="42.51271490938961505889892578125" lon="19.93655626662075519561767578125">
        <ele>1870.800048828125</ele>
        <time>2026-06-17T10:21:39.000Z</time>
        <extensions>
          <ns3:TrackPointExtension>
            <ns3:atemp>20.0</ns3:atemp>
          </ns3:TrackPointExtension>
        </extensions>
      </trkpt>
      <trkpt lat="42.51271490938961505889892578125" lon="19.93655626662075519561767578125">
        <ele>1870.800048828125</ele>
        <time>2026-06-17T10:21:40.000Z</time>
        <extensions>
          <ns3:TrackPointExtension>
            <ns3:atemp>20.0</ns3:atemp>
          </ns3:TrackPointExtension>
        </extensions>
      </trkpt>
      <trkpt lat="42.51271490938961505889892578125" lon="19.93655626662075519561767578125">
        <ele>1870.800048828125</ele>
        <time>2026-06-17T10:21:41.000Z</time>
        <extensions>
          <ns3:TrackPointExtension>
            <ns3:atemp>20.0</ns3:atemp>
          </ns3:TrackPointExtension>
        </extensions>
      </trkpt>
      <trkpt lat="42.51271490938961505889892578125" lon="19.93655626662075519561767578125">
        <ele>1870.800048828125</ele>
        <time>2026-06-17T10:21:42.000Z</time>
        <extensions>
          <ns3:TrackPointExtension>
            <ns3:atemp>20.0</ns3:atemp>
          </ns3:TrackPointExtension>
        </extensions>
      </trkpt>
      <trkpt lat="42.51271490938961505889892578125" lon="19.93655626662075519561767578125">
        <ele>1870.800048828125</ele>
        <time>2026-06-17T10:21:43.000Z</time>
        <extensions>
          <ns3:TrackPointExtension>
            <ns3:atemp>20.0</ns3:atemp>
          </ns3:TrackPointExtension>
        </extensions>
      </trkpt>
      <trkpt lat="42.51271490938961505889892578125" lon="19.93655626662075519561767578125">
        <ele>1870.800048828125</ele>
        <time>2026-06-17T10:21:44.000Z</time>
        <extensions>
          <ns3:TrackPointExtension>
            <ns3:atemp>20.0</ns3:atemp>
          </ns3:TrackPointExtension>
        </extensions>
      </trkpt>
      <trkpt lat="42.51271490938961505889892578125" lon="19.93655626662075519561767578125">
        <ele>1870.800048828125</ele>
        <time>2026-06-17T10:21:45.000Z</time>
        <extensions>
          <ns3:TrackPointExtension>
            <ns3:atemp>20.0</ns3:atemp>
          </ns3:TrackPointExtension>
        </extensions>
      </trkpt>
      <trkpt lat="42.51271490938961505889892578125" lon="19.93655626662075519561767578125">
        <ele>1870.800048828125</ele>
        <time>2026-06-17T10:21:46.000Z</time>
        <extensions>
          <ns3:TrackPointExtension>
            <ns3:atemp>20.0</ns3:atemp>
          </ns3:TrackPointExtension>
        </extensions>
      </trkpt>
      <trkpt lat="42.51271490938961505889892578125" lon="19.93655626662075519561767578125">
        <ele>1870.800048828125</ele>
        <time>2026-06-17T10:21:47.000Z</time>
        <extensions>
          <ns3:TrackPointExtension>
            <ns3:atemp>20.0</ns3:atemp>
          </ns3:TrackPointExtension>
        </extensions>
      </trkpt>
      <trkpt lat="42.51271490938961505889892578125" lon="19.93655626662075519561767578125">
        <ele>1870.800048828125</ele>
        <time>2026-06-17T10:21:48.000Z</time>
        <extensions>
          <ns3:TrackPointExtension>
            <ns3:atemp>20.0</ns3:atemp>
          </ns3:TrackPointExtension>
        </extensions>
      </trkpt>
      <trkpt lat="42.51271490938961505889892578125" lon="19.93655626662075519561767578125">
        <ele>1870.800048828125</ele>
        <time>2026-06-17T10:21:49.000Z</time>
        <extensions>
          <ns3:TrackPointExtension>
            <ns3:atemp>20.0</ns3:atemp>
          </ns3:TrackPointExtension>
        </extensions>
      </trkpt>
      <trkpt lat="42.51271490938961505889892578125" lon="19.93655626662075519561767578125">
        <ele>1870.800048828125</ele>
        <time>2026-06-17T10:21:50.000Z</time>
        <extensions>
          <ns3:TrackPointExtension>
            <ns3:atemp>20.0</ns3:atemp>
          </ns3:TrackPointExtension>
        </extensions>
      </trkpt>
      <trkpt lat="42.51271490938961505889892578125" lon="19.93655626662075519561767578125">
        <ele>1870.800048828125</ele>
        <time>2026-06-17T10:21:51.000Z</time>
        <extensions>
          <ns3:TrackPointExtension>
            <ns3:atemp>20.0</ns3:atemp>
          </ns3:TrackPointExtension>
        </extensions>
      </trkpt>
      <trkpt lat="42.51271490938961505889892578125" lon="19.93655626662075519561767578125">
        <ele>1870.800048828125</ele>
        <time>2026-06-17T10:21:52.000Z</time>
        <extensions>
          <ns3:TrackPointExtension>
            <ns3:atemp>20.0</ns3:atemp>
          </ns3:TrackPointExtension>
        </extensions>
      </trkpt>
      <trkpt lat="42.51271490938961505889892578125" lon="19.93655626662075519561767578125">
        <ele>1870.800048828125</ele>
        <time>2026-06-17T10:21:53.000Z</time>
        <extensions>
          <ns3:TrackPointExtension>
            <ns3:atemp>20.0</ns3:atemp>
          </ns3:TrackPointExtension>
        </extensions>
      </trkpt>
      <trkpt lat="42.51271490938961505889892578125" lon="19.93655626662075519561767578125">
        <ele>1870.800048828125</ele>
        <time>2026-06-17T10:21:54.000Z</time>
        <extensions>
          <ns3:TrackPointExtension>
            <ns3:atemp>20.0</ns3:atemp>
          </ns3:TrackPointExtension>
        </extensions>
      </trkpt>
      <trkpt lat="42.51271490938961505889892578125" lon="19.93655626662075519561767578125">
        <ele>1870.800048828125</ele>
        <time>2026-06-17T10:21:55.000Z</time>
        <extensions>
          <ns3:TrackPointExtension>
            <ns3:atemp>20.0</ns3:atemp>
          </ns3:TrackPointExtension>
        </extensions>
      </trkpt>
      <trkpt lat="42.51271490938961505889892578125" lon="19.93655626662075519561767578125">
        <ele>1870.800048828125</ele>
        <time>2026-06-17T10:21:56.000Z</time>
        <extensions>
          <ns3:TrackPointExtension>
            <ns3:atemp>20.0</ns3:atemp>
          </ns3:TrackPointExtension>
        </extensions>
      </trkpt>
      <trkpt lat="42.51271490938961505889892578125" lon="19.93655626662075519561767578125">
        <ele>1870.800048828125</ele>
        <time>2026-06-17T10:21:57.000Z</time>
        <extensions>
          <ns3:TrackPointExtension>
            <ns3:atemp>20.0</ns3:atemp>
          </ns3:TrackPointExtension>
        </extensions>
      </trkpt>
      <trkpt lat="42.51271490938961505889892578125" lon="19.93655626662075519561767578125">
        <ele>1870.800048828125</ele>
        <time>2026-06-17T10:21:58.000Z</time>
        <extensions>
          <ns3:TrackPointExtension>
            <ns3:atemp>20.0</ns3:atemp>
          </ns3:TrackPointExtension>
        </extensions>
      </trkpt>
      <trkpt lat="42.51271490938961505889892578125" lon="19.93655626662075519561767578125">
        <ele>1870.800048828125</ele>
        <time>2026-06-17T10:21:59.000Z</time>
        <extensions>
          <ns3:TrackPointExtension>
            <ns3:atemp>20.0</ns3:atemp>
          </ns3:TrackPointExtension>
        </extensions>
      </trkpt>
      <trkpt lat="42.51271490938961505889892578125" lon="19.93655626662075519561767578125">
        <ele>1870.800048828125</ele>
        <time>2026-06-17T10:22:00.000Z</time>
        <extensions>
          <ns3:TrackPointExtension>
            <ns3:atemp>20.0</ns3:atemp>
          </ns3:TrackPointExtension>
        </extensions>
      </trkpt>
      <trkpt lat="42.51271490938961505889892578125" lon="19.93655626662075519561767578125">
        <ele>1870.800048828125</ele>
        <time>2026-06-17T10:22:01.000Z</time>
        <extensions>
          <ns3:TrackPointExtension>
            <ns3:atemp>20.0</ns3:atemp>
          </ns3:TrackPointExtension>
        </extensions>
      </trkpt>
      <trkpt lat="42.51271490938961505889892578125" lon="19.93655626662075519561767578125">
        <ele>1870.800048828125</ele>
        <time>2026-06-17T10:22:02.000Z</time>
        <extensions>
          <ns3:TrackPointExtension>
            <ns3:atemp>20.0</ns3:atemp>
          </ns3:TrackPointExtension>
        </extensions>
      </trkpt>
      <trkpt lat="42.51271490938961505889892578125" lon="19.93655626662075519561767578125">
        <ele>1870.800048828125</ele>
        <time>2026-06-17T10:22:03.000Z</time>
        <extensions>
          <ns3:TrackPointExtension>
            <ns3:atemp>20.0</ns3:atemp>
          </ns3:TrackPointExtension>
        </extensions>
      </trkpt>
      <trkpt lat="42.51271490938961505889892578125" lon="19.93655626662075519561767578125">
        <ele>1870.800048828125</ele>
        <time>2026-06-17T10:22:04.000Z</time>
        <extensions>
          <ns3:TrackPointExtension>
            <ns3:atemp>20.0</ns3:atemp>
          </ns3:TrackPointExtension>
        </extensions>
      </trkpt>
      <trkpt lat="42.51271490938961505889892578125" lon="19.93655626662075519561767578125">
        <ele>1870.800048828125</ele>
        <time>2026-06-17T10:22:05.000Z</time>
        <extensions>
          <ns3:TrackPointExtension>
            <ns3:atemp>20.0</ns3:atemp>
          </ns3:TrackPointExtension>
        </extensions>
      </trkpt>
      <trkpt lat="42.51271490938961505889892578125" lon="19.93655626662075519561767578125">
        <ele>1870.800048828125</ele>
        <time>2026-06-17T10:22:06.000Z</time>
        <extensions>
          <ns3:TrackPointExtension>
            <ns3:atemp>20.0</ns3:atemp>
          </ns3:TrackPointExtension>
        </extensions>
      </trkpt>
      <trkpt lat="42.51271490938961505889892578125" lon="19.93655626662075519561767578125">
        <ele>1870.800048828125</ele>
        <time>2026-06-17T10:22:07.000Z</time>
        <extensions>
          <ns3:TrackPointExtension>
            <ns3:atemp>20.0</ns3:atemp>
          </ns3:TrackPointExtension>
        </extensions>
      </trkpt>
      <trkpt lat="42.51271490938961505889892578125" lon="19.93655626662075519561767578125">
        <ele>1870.800048828125</ele>
        <time>2026-06-17T10:22:08.000Z</time>
        <extensions>
          <ns3:TrackPointExtension>
            <ns3:atemp>20.0</ns3:atemp>
          </ns3:TrackPointExtension>
        </extensions>
      </trkpt>
      <trkpt lat="42.51271490938961505889892578125" lon="19.93655626662075519561767578125">
        <ele>1870.800048828125</ele>
        <time>2026-06-17T10:22:09.000Z</time>
        <extensions>
          <ns3:TrackPointExtension>
            <ns3:atemp>20.0</ns3:atemp>
          </ns3:TrackPointExtension>
        </extensions>
      </trkpt>
      <trkpt lat="42.51271490938961505889892578125" lon="19.93655626662075519561767578125">
        <ele>1870.800048828125</ele>
        <time>2026-06-17T10:22:10.000Z</time>
        <extensions>
          <ns3:TrackPointExtension>
            <ns3:atemp>20.0</ns3:atemp>
          </ns3:TrackPointExtension>
        </extensions>
      </trkpt>
      <trkpt lat="42.51271490938961505889892578125" lon="19.93655626662075519561767578125">
        <ele>1870.800048828125</ele>
        <time>2026-06-17T10:22:11.000Z</time>
        <extensions>
          <ns3:TrackPointExtension>
            <ns3:atemp>20.0</ns3:atemp>
          </ns3:TrackPointExtension>
        </extensions>
      </trkpt>
      <trkpt lat="42.51271490938961505889892578125" lon="19.93655626662075519561767578125">
        <ele>1870.800048828125</ele>
        <time>2026-06-17T10:22:12.000Z</time>
        <extensions>
          <ns3:TrackPointExtension>
            <ns3:atemp>20.0</ns3:atemp>
          </ns3:TrackPointExtension>
        </extensions>
      </trkpt>
      <trkpt lat="42.51271490938961505889892578125" lon="19.93655626662075519561767578125">
        <ele>1870.800048828125</ele>
        <time>2026-06-17T10:22:13.000Z</time>
        <extensions>
          <ns3:TrackPointExtension>
            <ns3:atemp>20.0</ns3:atemp>
          </ns3:TrackPointExtension>
        </extensions>
      </trkpt>
      <trkpt lat="42.51271490938961505889892578125" lon="19.93655626662075519561767578125">
        <ele>1870.800048828125</ele>
        <time>2026-06-17T10:22:14.000Z</time>
        <extensions>
          <ns3:TrackPointExtension>
            <ns3:atemp>20.0</ns3:atemp>
          </ns3:TrackPointExtension>
        </extensions>
      </trkpt>
      <trkpt lat="42.51271490938961505889892578125" lon="19.93655626662075519561767578125">
        <ele>1870.800048828125</ele>
        <time>2026-06-17T10:22:15.000Z</time>
        <extensions>
          <ns3:TrackPointExtension>
            <ns3:atemp>20.0</ns3:atemp>
          </ns3:TrackPointExtension>
        </extensions>
      </trkpt>
      <trkpt lat="42.51271490938961505889892578125" lon="19.93655626662075519561767578125">
        <ele>1870.800048828125</ele>
        <time>2026-06-17T10:22:16.000Z</time>
        <extensions>
          <ns3:TrackPointExtension>
            <ns3:atemp>20.0</ns3:atemp>
          </ns3:TrackPointExtension>
        </extensions>
      </trkpt>
      <trkpt lat="42.51271490938961505889892578125" lon="19.93655626662075519561767578125">
        <ele>1870.800048828125</ele>
        <time>2026-06-17T10:22:17.000Z</time>
        <extensions>
          <ns3:TrackPointExtension>
            <ns3:atemp>20.0</ns3:atemp>
          </ns3:TrackPointExtension>
        </extensions>
      </trkpt>
      <trkpt lat="42.51271490938961505889892578125" lon="19.93655626662075519561767578125">
        <ele>1870.800048828125</ele>
        <time>2026-06-17T10:22:18.000Z</time>
        <extensions>
          <ns3:TrackPointExtension>
            <ns3:atemp>20.0</ns3:atemp>
          </ns3:TrackPointExtension>
        </extensions>
      </trkpt>
      <trkpt lat="42.51271490938961505889892578125" lon="19.93655626662075519561767578125">
        <ele>1870.800048828125</ele>
        <time>2026-06-17T10:22:19.000Z</time>
        <extensions>
          <ns3:TrackPointExtension>
            <ns3:atemp>20.0</ns3:atemp>
          </ns3:TrackPointExtension>
        </extensions>
      </trkpt>
      <trkpt lat="42.51271490938961505889892578125" lon="19.93655626662075519561767578125">
        <ele>1870.800048828125</ele>
        <time>2026-06-17T10:22:20.000Z</time>
        <extensions>
          <ns3:TrackPointExtension>
            <ns3:atemp>20.0</ns3:atemp>
          </ns3:TrackPointExtension>
        </extensions>
      </trkpt>
      <trkpt lat="42.51271490938961505889892578125" lon="19.93655626662075519561767578125">
        <ele>1870.800048828125</ele>
        <time>2026-06-17T10:22:21.000Z</time>
        <extensions>
          <ns3:TrackPointExtension>
            <ns3:atemp>20.0</ns3:atemp>
          </ns3:TrackPointExtension>
        </extensions>
      </trkpt>
      <trkpt lat="42.51271490938961505889892578125" lon="19.93655626662075519561767578125">
        <ele>1870.800048828125</ele>
        <time>2026-06-17T10:22:22.000Z</time>
        <extensions>
          <ns3:TrackPointExtension>
            <ns3:atemp>20.0</ns3:atemp>
          </ns3:TrackPointExtension>
        </extensions>
      </trkpt>
      <trkpt lat="42.51271490938961505889892578125" lon="19.93655626662075519561767578125">
        <ele>1870.800048828125</ele>
        <time>2026-06-17T10:22:23.000Z</time>
        <extensions>
          <ns3:TrackPointExtension>
            <ns3:atemp>20.0</ns3:atemp>
          </ns3:TrackPointExtension>
        </extensions>
      </trkpt>
      <trkpt lat="42.51271490938961505889892578125" lon="19.93655626662075519561767578125">
        <ele>1870.800048828125</ele>
        <time>2026-06-17T10:22:24.000Z</time>
        <extensions>
          <ns3:TrackPointExtension>
            <ns3:atemp>20.0</ns3:atemp>
          </ns3:TrackPointExtension>
        </extensions>
      </trkpt>
      <trkpt lat="42.51271490938961505889892578125" lon="19.93655626662075519561767578125">
        <ele>1870.800048828125</ele>
        <time>2026-06-17T10:22:25.000Z</time>
        <extensions>
          <ns3:TrackPointExtension>
            <ns3:atemp>20.0</ns3:atemp>
          </ns3:TrackPointExtension>
        </extensions>
      </trkpt>
      <trkpt lat="42.51271490938961505889892578125" lon="19.93655626662075519561767578125">
        <ele>1870.800048828125</ele>
        <time>2026-06-17T10:22:26.000Z</time>
        <extensions>
          <ns3:TrackPointExtension>
            <ns3:atemp>20.0</ns3:atemp>
          </ns3:TrackPointExtension>
        </extensions>
      </trkpt>
      <trkpt lat="42.51271490938961505889892578125" lon="19.93655626662075519561767578125">
        <ele>1870.800048828125</ele>
        <time>2026-06-17T10:22:27.000Z</time>
        <extensions>
          <ns3:TrackPointExtension>
            <ns3:atemp>20.0</ns3:atemp>
          </ns3:TrackPointExtension>
        </extensions>
      </trkpt>
      <trkpt lat="42.51271490938961505889892578125" lon="19.93655626662075519561767578125">
        <ele>1870.800048828125</ele>
        <time>2026-06-17T10:22:28.000Z</time>
        <extensions>
          <ns3:TrackPointExtension>
            <ns3:atemp>20.0</ns3:atemp>
          </ns3:TrackPointExtension>
        </extensions>
      </trkpt>
      <trkpt lat="42.51271490938961505889892578125" lon="19.93655626662075519561767578125">
        <ele>1870.800048828125</ele>
        <time>2026-06-17T10:22:29.000Z</time>
        <extensions>
          <ns3:TrackPointExtension>
            <ns3:atemp>20.0</ns3:atemp>
          </ns3:TrackPointExtension>
        </extensions>
      </trkpt>
      <trkpt lat="42.51271490938961505889892578125" lon="19.93655626662075519561767578125">
        <ele>1870.800048828125</ele>
        <time>2026-06-17T10:22:30.000Z</time>
        <extensions>
          <ns3:TrackPointExtension>
            <ns3:atemp>20.0</ns3:atemp>
          </ns3:TrackPointExtension>
        </extensions>
      </trkpt>
      <trkpt lat="42.51271490938961505889892578125" lon="19.93655626662075519561767578125">
        <ele>1870.800048828125</ele>
        <time>2026-06-17T10:22:31.000Z</time>
        <extensions>
          <ns3:TrackPointExtension>
            <ns3:atemp>20.0</ns3:atemp>
          </ns3:TrackPointExtension>
        </extensions>
      </trkpt>
      <trkpt lat="42.51271490938961505889892578125" lon="19.93655626662075519561767578125">
        <ele>1870.800048828125</ele>
        <time>2026-06-17T10:22:32.000Z</time>
        <extensions>
          <ns3:TrackPointExtension>
            <ns3:atemp>20.0</ns3:atemp>
          </ns3:TrackPointExtension>
        </extensions>
      </trkpt>
      <trkpt lat="42.51271490938961505889892578125" lon="19.93655626662075519561767578125">
        <ele>1870.800048828125</ele>
        <time>2026-06-17T10:22:33.000Z</time>
        <extensions>
          <ns3:TrackPointExtension>
            <ns3:atemp>20.0</ns3:atemp>
          </ns3:TrackPointExtension>
        </extensions>
      </trkpt>
      <trkpt lat="42.51271490938961505889892578125" lon="19.93655626662075519561767578125">
        <ele>1870.800048828125</ele>
        <time>2026-06-17T10:22:34.000Z</time>
        <extensions>
          <ns3:TrackPointExtension>
            <ns3:atemp>20.0</ns3:atemp>
          </ns3:TrackPointExtension>
        </extensions>
      </trkpt>
      <trkpt lat="42.51271490938961505889892578125" lon="19.93655626662075519561767578125">
        <ele>1870.800048828125</ele>
        <time>2026-06-17T10:22:35.000Z</time>
        <extensions>
          <ns3:TrackPointExtension>
            <ns3:atemp>20.0</ns3:atemp>
          </ns3:TrackPointExtension>
        </extensions>
      </trkpt>
      <trkpt lat="42.51271490938961505889892578125" lon="19.93655626662075519561767578125">
        <ele>1870.800048828125</ele>
        <time>2026-06-17T10:22:36.000Z</time>
        <extensions>
          <ns3:TrackPointExtension>
            <ns3:atemp>20.0</ns3:atemp>
          </ns3:TrackPointExtension>
        </extensions>
      </trkpt>
      <trkpt lat="42.51271490938961505889892578125" lon="19.93655626662075519561767578125">
        <ele>1870.800048828125</ele>
        <time>2026-06-17T10:22:37.000Z</time>
        <extensions>
          <ns3:TrackPointExtension>
            <ns3:atemp>20.0</ns3:atemp>
          </ns3:TrackPointExtension>
        </extensions>
      </trkpt>
      <trkpt lat="42.51271490938961505889892578125" lon="19.93655626662075519561767578125">
        <ele>1870.800048828125</ele>
        <time>2026-06-17T10:22:38.000Z</time>
        <extensions>
          <ns3:TrackPointExtension>
            <ns3:atemp>20.0</ns3:atemp>
          </ns3:TrackPointExtension>
        </extensions>
      </trkpt>
      <trkpt lat="42.51271490938961505889892578125" lon="19.93655626662075519561767578125">
        <ele>1870.800048828125</ele>
        <time>2026-06-17T10:22:39.000Z</time>
        <extensions>
          <ns3:TrackPointExtension>
            <ns3:atemp>20.0</ns3:atemp>
          </ns3:TrackPointExtension>
        </extensions>
      </trkpt>
      <trkpt lat="42.51271490938961505889892578125" lon="19.93655626662075519561767578125">
        <ele>1870.800048828125</ele>
        <time>2026-06-17T10:22:40.000Z</time>
        <extensions>
          <ns3:TrackPointExtension>
            <ns3:atemp>20.0</ns3:atemp>
          </ns3:TrackPointExtension>
        </extensions>
      </trkpt>
      <trkpt lat="42.51271490938961505889892578125" lon="19.93655626662075519561767578125">
        <ele>1870.800048828125</ele>
        <time>2026-06-17T10:22:41.000Z</time>
        <extensions>
          <ns3:TrackPointExtension>
            <ns3:atemp>20.0</ns3:atemp>
          </ns3:TrackPointExtension>
        </extensions>
      </trkpt>
      <trkpt lat="42.51271490938961505889892578125" lon="19.93655626662075519561767578125">
        <ele>1870.800048828125</ele>
        <time>2026-06-17T10:22:42.000Z</time>
        <extensions>
          <ns3:TrackPointExtension>
            <ns3:atemp>20.0</ns3:atemp>
          </ns3:TrackPointExtension>
        </extensions>
      </trkpt>
      <trkpt lat="42.51271490938961505889892578125" lon="19.93655626662075519561767578125">
        <ele>1870.800048828125</ele>
        <time>2026-06-17T10:22:43.000Z</time>
        <extensions>
          <ns3:TrackPointExtension>
            <ns3:atemp>20.0</ns3:atemp>
          </ns3:TrackPointExtension>
        </extensions>
      </trkpt>
      <trkpt lat="42.51271490938961505889892578125" lon="19.93655626662075519561767578125">
        <ele>1870.800048828125</ele>
        <time>2026-06-17T10:22:44.000Z</time>
        <extensions>
          <ns3:TrackPointExtension>
            <ns3:atemp>20.0</ns3:atemp>
          </ns3:TrackPointExtension>
        </extensions>
      </trkpt>
      <trkpt lat="42.51271490938961505889892578125" lon="19.93655626662075519561767578125">
        <ele>1870.800048828125</ele>
        <time>2026-06-17T10:22:45.000Z</time>
        <extensions>
          <ns3:TrackPointExtension>
            <ns3:atemp>20.0</ns3:atemp>
          </ns3:TrackPointExtension>
        </extensions>
      </trkpt>
      <trkpt lat="42.51271490938961505889892578125" lon="19.93655626662075519561767578125">
        <ele>1870.800048828125</ele>
        <time>2026-06-17T10:22:46.000Z</time>
        <extensions>
          <ns3:TrackPointExtension>
            <ns3:atemp>20.0</ns3:atemp>
          </ns3:TrackPointExtension>
        </extensions>
      </trkpt>
      <trkpt lat="42.51271490938961505889892578125" lon="19.93655626662075519561767578125">
        <ele>1870.800048828125</ele>
        <time>2026-06-17T10:22:47.000Z</time>
        <extensions>
          <ns3:TrackPointExtension>
            <ns3:atemp>20.0</ns3:atemp>
          </ns3:TrackPointExtension>
        </extensions>
      </trkpt>
      <trkpt lat="42.51271490938961505889892578125" lon="19.93655626662075519561767578125">
        <ele>1870.800048828125</ele>
        <time>2026-06-17T10:22:48.000Z</time>
        <extensions>
          <ns3:TrackPointExtension>
            <ns3:atemp>20.0</ns3:atemp>
          </ns3:TrackPointExtension>
        </extensions>
      </trkpt>
      <trkpt lat="42.51271490938961505889892578125" lon="19.93655626662075519561767578125">
        <ele>1870.800048828125</ele>
        <time>2026-06-17T10:22:49.000Z</time>
        <extensions>
          <ns3:TrackPointExtension>
            <ns3:atemp>20.0</ns3:atemp>
          </ns3:TrackPointExtension>
        </extensions>
      </trkpt>
      <trkpt lat="42.51271490938961505889892578125" lon="19.93655626662075519561767578125">
        <ele>1870.800048828125</ele>
        <time>2026-06-17T10:22:50.000Z</time>
        <extensions>
          <ns3:TrackPointExtension>
            <ns3:atemp>20.0</ns3:atemp>
          </ns3:TrackPointExtension>
        </extensions>
      </trkpt>
      <trkpt lat="42.51271490938961505889892578125" lon="19.93655626662075519561767578125">
        <ele>1870.800048828125</ele>
        <time>2026-06-17T10:22:51.000Z</time>
        <extensions>
          <ns3:TrackPointExtension>
            <ns3:atemp>20.0</ns3:atemp>
          </ns3:TrackPointExtension>
        </extensions>
      </trkpt>
      <trkpt lat="42.51271490938961505889892578125" lon="19.93655626662075519561767578125">
        <ele>1870.800048828125</ele>
        <time>2026-06-17T10:22:52.000Z</time>
        <extensions>
          <ns3:TrackPointExtension>
            <ns3:atemp>20.0</ns3:atemp>
          </ns3:TrackPointExtension>
        </extensions>
      </trkpt>
      <trkpt lat="42.51271490938961505889892578125" lon="19.93655626662075519561767578125">
        <ele>1870.800048828125</ele>
        <time>2026-06-17T10:22:53.000Z</time>
        <extensions>
          <ns3:TrackPointExtension>
            <ns3:atemp>20.0</ns3:atemp>
          </ns3:TrackPointExtension>
        </extensions>
      </trkpt>
      <trkpt lat="42.51271490938961505889892578125" lon="19.93655626662075519561767578125">
        <ele>1870.800048828125</ele>
        <time>2026-06-17T10:22:54.000Z</time>
        <extensions>
          <ns3:TrackPointExtension>
            <ns3:atemp>20.0</ns3:atemp>
          </ns3:TrackPointExtension>
        </extensions>
      </trkpt>
      <trkpt lat="42.51271490938961505889892578125" lon="19.93655626662075519561767578125">
        <ele>1870.800048828125</ele>
        <time>2026-06-17T10:22:55.000Z</time>
        <extensions>
          <ns3:TrackPointExtension>
            <ns3:atemp>20.0</ns3:atemp>
          </ns3:TrackPointExtension>
        </extensions>
      </trkpt>
      <trkpt lat="42.51271490938961505889892578125" lon="19.93655626662075519561767578125">
        <ele>1870.800048828125</ele>
        <time>2026-06-17T10:22:56.000Z</time>
        <extensions>
          <ns3:TrackPointExtension>
            <ns3:atemp>20.0</ns3:atemp>
          </ns3:TrackPointExtension>
        </extensions>
      </trkpt>
      <trkpt lat="42.51271490938961505889892578125" lon="19.93655626662075519561767578125">
        <ele>1870.800048828125</ele>
        <time>2026-06-17T10:22:57.000Z</time>
        <extensions>
          <ns3:TrackPointExtension>
            <ns3:atemp>20.0</ns3:atemp>
          </ns3:TrackPointExtension>
        </extensions>
      </trkpt>
      <trkpt lat="42.51271490938961505889892578125" lon="19.93655626662075519561767578125">
        <ele>1870.800048828125</ele>
        <time>2026-06-17T10:22:58.000Z</time>
        <extensions>
          <ns3:TrackPointExtension>
            <ns3:atemp>20.0</ns3:atemp>
          </ns3:TrackPointExtension>
        </extensions>
      </trkpt>
      <trkpt lat="42.51271490938961505889892578125" lon="19.93655626662075519561767578125">
        <ele>1870.800048828125</ele>
        <time>2026-06-17T10:22:59.000Z</time>
        <extensions>
          <ns3:TrackPointExtension>
            <ns3:atemp>20.0</ns3:atemp>
          </ns3:TrackPointExtension>
        </extensions>
      </trkpt>
      <trkpt lat="42.51271490938961505889892578125" lon="19.93655626662075519561767578125">
        <ele>1870.800048828125</ele>
        <time>2026-06-17T10:23:00.000Z</time>
        <extensions>
          <ns3:TrackPointExtension>
            <ns3:atemp>20.0</ns3:atemp>
          </ns3:TrackPointExtension>
        </extensions>
      </trkpt>
      <trkpt lat="42.51271490938961505889892578125" lon="19.93655626662075519561767578125">
        <ele>1870.800048828125</ele>
        <time>2026-06-17T10:23:01.000Z</time>
        <extensions>
          <ns3:TrackPointExtension>
            <ns3:atemp>20.0</ns3:atemp>
          </ns3:TrackPointExtension>
        </extensions>
      </trkpt>
      <trkpt lat="42.51271490938961505889892578125" lon="19.93655626662075519561767578125">
        <ele>1870.800048828125</ele>
        <time>2026-06-17T10:23:02.000Z</time>
        <extensions>
          <ns3:TrackPointExtension>
            <ns3:atemp>20.0</ns3:atemp>
          </ns3:TrackPointExtension>
        </extensions>
      </trkpt>
      <trkpt lat="42.51271490938961505889892578125" lon="19.93655626662075519561767578125">
        <ele>1870.800048828125</ele>
        <time>2026-06-17T10:23:03.000Z</time>
        <extensions>
          <ns3:TrackPointExtension>
            <ns3:atemp>20.0</ns3:atemp>
          </ns3:TrackPointExtension>
        </extensions>
      </trkpt>
      <trkpt lat="42.51271490938961505889892578125" lon="19.93655626662075519561767578125">
        <ele>1870.800048828125</ele>
        <time>2026-06-17T10:23:04.000Z</time>
        <extensions>
          <ns3:TrackPointExtension>
            <ns3:atemp>20.0</ns3:atemp>
          </ns3:TrackPointExtension>
        </extensions>
      </trkpt>
      <trkpt lat="42.51271490938961505889892578125" lon="19.93655626662075519561767578125">
        <ele>1870.800048828125</ele>
        <time>2026-06-17T10:23:05.000Z</time>
        <extensions>
          <ns3:TrackPointExtension>
            <ns3:atemp>20.0</ns3:atemp>
          </ns3:TrackPointExtension>
        </extensions>
      </trkpt>
      <trkpt lat="42.51271490938961505889892578125" lon="19.93655626662075519561767578125">
        <ele>1870.800048828125</ele>
        <time>2026-06-17T10:23:06.000Z</time>
        <extensions>
          <ns3:TrackPointExtension>
            <ns3:atemp>20.0</ns3:atemp>
          </ns3:TrackPointExtension>
        </extensions>
      </trkpt>
      <trkpt lat="42.51271490938961505889892578125" lon="19.93655626662075519561767578125">
        <ele>1870.800048828125</ele>
        <time>2026-06-17T10:23:07.000Z</time>
        <extensions>
          <ns3:TrackPointExtension>
            <ns3:atemp>20.0</ns3:atemp>
          </ns3:TrackPointExtension>
        </extensions>
      </trkpt>
      <trkpt lat="42.51271490938961505889892578125" lon="19.93655626662075519561767578125">
        <ele>1870.800048828125</ele>
        <time>2026-06-17T10:23:08.000Z</time>
        <extensions>
          <ns3:TrackPointExtension>
            <ns3:atemp>20.0</ns3:atemp>
          </ns3:TrackPointExtension>
        </extensions>
      </trkpt>
      <trkpt lat="42.51271490938961505889892578125" lon="19.93655626662075519561767578125">
        <ele>1870.800048828125</ele>
        <time>2026-06-17T10:23:09.000Z</time>
        <extensions>
          <ns3:TrackPointExtension>
            <ns3:atemp>20.0</ns3:atemp>
          </ns3:TrackPointExtension>
        </extensions>
      </trkpt>
      <trkpt lat="42.51271490938961505889892578125" lon="19.93655626662075519561767578125">
        <ele>1870.800048828125</ele>
        <time>2026-06-17T10:23:10.000Z</time>
        <extensions>
          <ns3:TrackPointExtension>
            <ns3:atemp>20.0</ns3:atemp>
          </ns3:TrackPointExtension>
        </extensions>
      </trkpt>
      <trkpt lat="42.51271490938961505889892578125" lon="19.93655626662075519561767578125">
        <ele>1870.800048828125</ele>
        <time>2026-06-17T10:23:11.000Z</time>
        <extensions>
          <ns3:TrackPointExtension>
            <ns3:atemp>20.0</ns3:atemp>
          </ns3:TrackPointExtension>
        </extensions>
      </trkpt>
      <trkpt lat="42.51271490938961505889892578125" lon="19.93655626662075519561767578125">
        <ele>1870.800048828125</ele>
        <time>2026-06-17T10:23:12.000Z</time>
        <extensions>
          <ns3:TrackPointExtension>
            <ns3:atemp>20.0</ns3:atemp>
          </ns3:TrackPointExtension>
        </extensions>
      </trkpt>
      <trkpt lat="42.51271490938961505889892578125" lon="19.93655626662075519561767578125">
        <ele>1870.800048828125</ele>
        <time>2026-06-17T10:23:13.000Z</time>
        <extensions>
          <ns3:TrackPointExtension>
            <ns3:atemp>20.0</ns3:atemp>
          </ns3:TrackPointExtension>
        </extensions>
      </trkpt>
      <trkpt lat="42.51271490938961505889892578125" lon="19.93655626662075519561767578125">
        <ele>1870.800048828125</ele>
        <time>2026-06-17T10:23:14.000Z</time>
        <extensions>
          <ns3:TrackPointExtension>
            <ns3:atemp>20.0</ns3:atemp>
          </ns3:TrackPointExtension>
        </extensions>
      </trkpt>
      <trkpt lat="42.51271490938961505889892578125" lon="19.93655626662075519561767578125">
        <ele>1870.800048828125</ele>
        <time>2026-06-17T10:23:15.000Z</time>
        <extensions>
          <ns3:TrackPointExtension>
            <ns3:atemp>20.0</ns3:atemp>
          </ns3:TrackPointExtension>
        </extensions>
      </trkpt>
      <trkpt lat="42.51271490938961505889892578125" lon="19.93655626662075519561767578125">
        <ele>1870.800048828125</ele>
        <time>2026-06-17T10:23:16.000Z</time>
        <extensions>
          <ns3:TrackPointExtension>
            <ns3:atemp>20.0</ns3:atemp>
          </ns3:TrackPointExtension>
        </extensions>
      </trkpt>
      <trkpt lat="42.51271490938961505889892578125" lon="19.93655626662075519561767578125">
        <ele>1870.800048828125</ele>
        <time>2026-06-17T10:23:17.000Z</time>
        <extensions>
          <ns3:TrackPointExtension>
            <ns3:atemp>20.0</ns3:atemp>
          </ns3:TrackPointExtension>
        </extensions>
      </trkpt>
      <trkpt lat="42.51271490938961505889892578125" lon="19.93655626662075519561767578125">
        <ele>1870.800048828125</ele>
        <time>2026-06-17T10:23:18.000Z</time>
        <extensions>
          <ns3:TrackPointExtension>
            <ns3:atemp>20.0</ns3:atemp>
          </ns3:TrackPointExtension>
        </extensions>
      </trkpt>
      <trkpt lat="42.51271490938961505889892578125" lon="19.93655626662075519561767578125">
        <ele>1870.800048828125</ele>
        <time>2026-06-17T10:23:19.000Z</time>
        <extensions>
          <ns3:TrackPointExtension>
            <ns3:atemp>20.0</ns3:atemp>
          </ns3:TrackPointExtension>
        </extensions>
      </trkpt>
      <trkpt lat="42.51271490938961505889892578125" lon="19.93655626662075519561767578125">
        <ele>1870.800048828125</ele>
        <time>2026-06-17T10:23:20.000Z</time>
        <extensions>
          <ns3:TrackPointExtension>
            <ns3:atemp>20.0</ns3:atemp>
          </ns3:TrackPointExtension>
        </extensions>
      </trkpt>
      <trkpt lat="42.51271490938961505889892578125" lon="19.93655626662075519561767578125">
        <ele>1870.800048828125</ele>
        <time>2026-06-17T10:23:21.000Z</time>
        <extensions>
          <ns3:TrackPointExtension>
            <ns3:atemp>20.0</ns3:atemp>
          </ns3:TrackPointExtension>
        </extensions>
      </trkpt>
      <trkpt lat="42.51271490938961505889892578125" lon="19.93655626662075519561767578125">
        <ele>1870.800048828125</ele>
        <time>2026-06-17T10:23:22.000Z</time>
        <extensions>
          <ns3:TrackPointExtension>
            <ns3:atemp>20.0</ns3:atemp>
          </ns3:TrackPointExtension>
        </extensions>
      </trkpt>
      <trkpt lat="42.51271490938961505889892578125" lon="19.93655626662075519561767578125">
        <ele>1870.800048828125</ele>
        <time>2026-06-17T10:23:23.000Z</time>
        <extensions>
          <ns3:TrackPointExtension>
            <ns3:atemp>20.0</ns3:atemp>
          </ns3:TrackPointExtension>
        </extensions>
      </trkpt>
      <trkpt lat="42.51271490938961505889892578125" lon="19.93655626662075519561767578125">
        <ele>1870.800048828125</ele>
        <time>2026-06-17T10:23:24.000Z</time>
        <extensions>
          <ns3:TrackPointExtension>
            <ns3:atemp>20.0</ns3:atemp>
          </ns3:TrackPointExtension>
        </extensions>
      </trkpt>
      <trkpt lat="42.51271490938961505889892578125" lon="19.93655626662075519561767578125">
        <ele>1870.800048828125</ele>
        <time>2026-06-17T10:23:25.000Z</time>
        <extensions>
          <ns3:TrackPointExtension>
            <ns3:atemp>20.0</ns3:atemp>
          </ns3:TrackPointExtension>
        </extensions>
      </trkpt>
      <trkpt lat="42.51271490938961505889892578125" lon="19.93655626662075519561767578125">
        <ele>1870.800048828125</ele>
        <time>2026-06-17T10:23:26.000Z</time>
        <extensions>
          <ns3:TrackPointExtension>
            <ns3:atemp>20.0</ns3:atemp>
          </ns3:TrackPointExtension>
        </extensions>
      </trkpt>
      <trkpt lat="42.51271490938961505889892578125" lon="19.93655626662075519561767578125">
        <ele>1870.800048828125</ele>
        <time>2026-06-17T10:23:27.000Z</time>
        <extensions>
          <ns3:TrackPointExtension>
            <ns3:atemp>20.0</ns3:atemp>
          </ns3:TrackPointExtension>
        </extensions>
      </trkpt>
      <trkpt lat="42.51271490938961505889892578125" lon="19.93655626662075519561767578125">
        <ele>1870.800048828125</ele>
        <time>2026-06-17T10:23:28.000Z</time>
        <extensions>
          <ns3:TrackPointExtension>
            <ns3:atemp>20.0</ns3:atemp>
          </ns3:TrackPointExtension>
        </extensions>
      </trkpt>
      <trkpt lat="42.51271490938961505889892578125" lon="19.93655626662075519561767578125">
        <ele>1870.800048828125</ele>
        <time>2026-06-17T10:23:29.000Z</time>
        <extensions>
          <ns3:TrackPointExtension>
            <ns3:atemp>20.0</ns3:atemp>
          </ns3:TrackPointExtension>
        </extensions>
      </trkpt>
      <trkpt lat="42.51271490938961505889892578125" lon="19.93655626662075519561767578125">
        <ele>1870.800048828125</ele>
        <time>2026-06-17T10:23:30.000Z</time>
        <extensions>
          <ns3:TrackPointExtension>
            <ns3:atemp>20.0</ns3:atemp>
          </ns3:TrackPointExtension>
        </extensions>
      </trkpt>
      <trkpt lat="42.51271490938961505889892578125" lon="19.93655626662075519561767578125">
        <ele>1870.800048828125</ele>
        <time>2026-06-17T10:23:31.000Z</time>
        <extensions>
          <ns3:TrackPointExtension>
            <ns3:atemp>20.0</ns3:atemp>
          </ns3:TrackPointExtension>
        </extensions>
      </trkpt>
      <trkpt lat="42.51271490938961505889892578125" lon="19.93655626662075519561767578125">
        <ele>1870.800048828125</ele>
        <time>2026-06-17T10:23:32.000Z</time>
        <extensions>
          <ns3:TrackPointExtension>
            <ns3:atemp>20.0</ns3:atemp>
          </ns3:TrackPointExtension>
        </extensions>
      </trkpt>
      <trkpt lat="42.51271490938961505889892578125" lon="19.93655626662075519561767578125">
        <ele>1870.800048828125</ele>
        <time>2026-06-17T10:23:33.000Z</time>
        <extensions>
          <ns3:TrackPointExtension>
            <ns3:atemp>20.0</ns3:atemp>
          </ns3:TrackPointExtension>
        </extensions>
      </trkpt>
      <trkpt lat="42.51271490938961505889892578125" lon="19.93655626662075519561767578125">
        <ele>1870.800048828125</ele>
        <time>2026-06-17T10:23:34.000Z</time>
        <extensions>
          <ns3:TrackPointExtension>
            <ns3:atemp>20.0</ns3:atemp>
          </ns3:TrackPointExtension>
        </extensions>
      </trkpt>
      <trkpt lat="42.51271490938961505889892578125" lon="19.93655626662075519561767578125">
        <ele>1870.800048828125</ele>
        <time>2026-06-17T10:23:35.000Z</time>
        <extensions>
          <ns3:TrackPointExtension>
            <ns3:atemp>20.0</ns3:atemp>
          </ns3:TrackPointExtension>
        </extensions>
      </trkpt>
      <trkpt lat="42.51271490938961505889892578125" lon="19.93655626662075519561767578125">
        <ele>1870.800048828125</ele>
        <time>2026-06-17T10:23:36.000Z</time>
        <extensions>
          <ns3:TrackPointExtension>
            <ns3:atemp>20.0</ns3:atemp>
          </ns3:TrackPointExtension>
        </extensions>
      </trkpt>
      <trkpt lat="42.51271490938961505889892578125" lon="19.93655626662075519561767578125">
        <ele>1870.800048828125</ele>
        <time>2026-06-17T10:23:37.000Z</time>
        <extensions>
          <ns3:TrackPointExtension>
            <ns3:atemp>20.0</ns3:atemp>
          </ns3:TrackPointExtension>
        </extensions>
      </trkpt>
      <trkpt lat="42.51271490938961505889892578125" lon="19.93655626662075519561767578125">
        <ele>1870.800048828125</ele>
        <time>2026-06-17T10:23:38.000Z</time>
        <extensions>
          <ns3:TrackPointExtension>
            <ns3:atemp>20.0</ns3:atemp>
          </ns3:TrackPointExtension>
        </extensions>
      </trkpt>
      <trkpt lat="42.51271490938961505889892578125" lon="19.93655626662075519561767578125">
        <ele>1870.800048828125</ele>
        <time>2026-06-17T10:23:39.000Z</time>
        <extensions>
          <ns3:TrackPointExtension>
            <ns3:atemp>20.0</ns3:atemp>
          </ns3:TrackPointExtension>
        </extensions>
      </trkpt>
      <trkpt lat="42.51271490938961505889892578125" lon="19.93655626662075519561767578125">
        <ele>1870.800048828125</ele>
        <time>2026-06-17T10:23:40.000Z</time>
        <extensions>
          <ns3:TrackPointExtension>
            <ns3:atemp>20.0</ns3:atemp>
          </ns3:TrackPointExtension>
        </extensions>
      </trkpt>
      <trkpt lat="42.51271490938961505889892578125" lon="19.93655626662075519561767578125">
        <ele>1870.800048828125</ele>
        <time>2026-06-17T10:23:41.000Z</time>
        <extensions>
          <ns3:TrackPointExtension>
            <ns3:atemp>20.0</ns3:atemp>
          </ns3:TrackPointExtension>
        </extensions>
      </trkpt>
      <trkpt lat="42.51271490938961505889892578125" lon="19.93655626662075519561767578125">
        <ele>1870.800048828125</ele>
        <time>2026-06-17T10:23:42.000Z</time>
        <extensions>
          <ns3:TrackPointExtension>
            <ns3:atemp>20.0</ns3:atemp>
          </ns3:TrackPointExtension>
        </extensions>
      </trkpt>
      <trkpt lat="42.51271490938961505889892578125" lon="19.93655626662075519561767578125">
        <ele>1870.800048828125</ele>
        <time>2026-06-17T10:23:43.000Z</time>
        <extensions>
          <ns3:TrackPointExtension>
            <ns3:atemp>20.0</ns3:atemp>
          </ns3:TrackPointExtension>
        </extensions>
      </trkpt>
      <trkpt lat="42.51271490938961505889892578125" lon="19.93655626662075519561767578125">
        <ele>1870.800048828125</ele>
        <time>2026-06-17T10:23:44.000Z</time>
        <extensions>
          <ns3:TrackPointExtension>
            <ns3:atemp>20.0</ns3:atemp>
          </ns3:TrackPointExtension>
        </extensions>
      </trkpt>
      <trkpt lat="42.51271490938961505889892578125" lon="19.93655626662075519561767578125">
        <ele>1870.800048828125</ele>
        <time>2026-06-17T10:23:45.000Z</time>
        <extensions>
          <ns3:TrackPointExtension>
            <ns3:atemp>20.0</ns3:atemp>
          </ns3:TrackPointExtension>
        </extensions>
      </trkpt>
      <trkpt lat="42.51271490938961505889892578125" lon="19.93655626662075519561767578125">
        <ele>1870.800048828125</ele>
        <time>2026-06-17T10:23:46.000Z</time>
        <extensions>
          <ns3:TrackPointExtension>
            <ns3:atemp>20.0</ns3:atemp>
          </ns3:TrackPointExtension>
        </extensions>
      </trkpt>
      <trkpt lat="42.51271490938961505889892578125" lon="19.93655626662075519561767578125">
        <ele>1870.800048828125</ele>
        <time>2026-06-17T10:23:47.000Z</time>
        <extensions>
          <ns3:TrackPointExtension>
            <ns3:atemp>20.0</ns3:atemp>
          </ns3:TrackPointExtension>
        </extensions>
      </trkpt>
      <trkpt lat="42.51271490938961505889892578125" lon="19.93655626662075519561767578125">
        <ele>1870.800048828125</ele>
        <time>2026-06-17T10:23:48.000Z</time>
        <extensions>
          <ns3:TrackPointExtension>
            <ns3:atemp>20.0</ns3:atemp>
          </ns3:TrackPointExtension>
        </extensions>
      </trkpt>
      <trkpt lat="42.51271490938961505889892578125" lon="19.93655626662075519561767578125">
        <ele>1870.800048828125</ele>
        <time>2026-06-17T10:23:49.000Z</time>
        <extensions>
          <ns3:TrackPointExtension>
            <ns3:atemp>20.0</ns3:atemp>
          </ns3:TrackPointExtension>
        </extensions>
      </trkpt>
      <trkpt lat="42.51271490938961505889892578125" lon="19.93655626662075519561767578125">
        <ele>1870.800048828125</ele>
        <time>2026-06-17T10:23:50.000Z</time>
        <extensions>
          <ns3:TrackPointExtension>
            <ns3:atemp>20.0</ns3:atemp>
          </ns3:TrackPointExtension>
        </extensions>
      </trkpt>
      <trkpt lat="42.51271490938961505889892578125" lon="19.93655626662075519561767578125">
        <ele>1870.800048828125</ele>
        <time>2026-06-17T10:23:51.000Z</time>
        <extensions>
          <ns3:TrackPointExtension>
            <ns3:atemp>20.0</ns3:atemp>
          </ns3:TrackPointExtension>
        </extensions>
      </trkpt>
      <trkpt lat="42.51271490938961505889892578125" lon="19.93655626662075519561767578125">
        <ele>1870.800048828125</ele>
        <time>2026-06-17T10:23:52.000Z</time>
        <extensions>
          <ns3:TrackPointExtension>
            <ns3:atemp>20.0</ns3:atemp>
          </ns3:TrackPointExtension>
        </extensions>
      </trkpt>
      <trkpt lat="42.51271490938961505889892578125" lon="19.93655626662075519561767578125">
        <ele>1870.800048828125</ele>
        <time>2026-06-17T10:23:53.000Z</time>
        <extensions>
          <ns3:TrackPointExtension>
            <ns3:atemp>20.0</ns3:atemp>
          </ns3:TrackPointExtension>
        </extensions>
      </trkpt>
      <trkpt lat="42.51271490938961505889892578125" lon="19.93655626662075519561767578125">
        <ele>1870.800048828125</ele>
        <time>2026-06-17T10:23:54.000Z</time>
        <extensions>
          <ns3:TrackPointExtension>
            <ns3:atemp>20.0</ns3:atemp>
          </ns3:TrackPointExtension>
        </extensions>
      </trkpt>
      <trkpt lat="42.51271490938961505889892578125" lon="19.93655626662075519561767578125">
        <ele>1870.800048828125</ele>
        <time>2026-06-17T10:23:55.000Z</time>
        <extensions>
          <ns3:TrackPointExtension>
            <ns3:atemp>20.0</ns3:atemp>
          </ns3:TrackPointExtension>
        </extensions>
      </trkpt>
      <trkpt lat="42.51271490938961505889892578125" lon="19.93655626662075519561767578125">
        <ele>1870.800048828125</ele>
        <time>2026-06-17T10:23:56.000Z</time>
        <extensions>
          <ns3:TrackPointExtension>
            <ns3:atemp>20.0</ns3:atemp>
          </ns3:TrackPointExtension>
        </extensions>
      </trkpt>
      <trkpt lat="42.51271490938961505889892578125" lon="19.93655626662075519561767578125">
        <ele>1870.800048828125</ele>
        <time>2026-06-17T10:23:57.000Z</time>
        <extensions>
          <ns3:TrackPointExtension>
            <ns3:atemp>20.0</ns3:atemp>
          </ns3:TrackPointExtension>
        </extensions>
      </trkpt>
      <trkpt lat="42.51271490938961505889892578125" lon="19.93655626662075519561767578125">
        <ele>1870.800048828125</ele>
        <time>2026-06-17T10:23:58.000Z</time>
        <extensions>
          <ns3:TrackPointExtension>
            <ns3:atemp>20.0</ns3:atemp>
          </ns3:TrackPointExtension>
        </extensions>
      </trkpt>
      <trkpt lat="42.51271490938961505889892578125" lon="19.93655626662075519561767578125">
        <ele>1870.800048828125</ele>
        <time>2026-06-17T10:23:59.000Z</time>
        <extensions>
          <ns3:TrackPointExtension>
            <ns3:atemp>20.0</ns3:atemp>
          </ns3:TrackPointExtension>
        </extensions>
      </trkpt>
      <trkpt lat="42.51271490938961505889892578125" lon="19.93655626662075519561767578125">
        <ele>1870.800048828125</ele>
        <time>2026-06-17T10:24:00.000Z</time>
        <extensions>
          <ns3:TrackPointExtension>
            <ns3:atemp>20.0</ns3:atemp>
          </ns3:TrackPointExtension>
        </extensions>
      </trkpt>
      <trkpt lat="42.51271490938961505889892578125" lon="19.93655626662075519561767578125">
        <ele>1870.800048828125</ele>
        <time>2026-06-17T10:24:01.000Z</time>
        <extensions>
          <ns3:TrackPointExtension>
            <ns3:atemp>20.0</ns3:atemp>
          </ns3:TrackPointExtension>
        </extensions>
      </trkpt>
      <trkpt lat="42.51271490938961505889892578125" lon="19.93655626662075519561767578125">
        <ele>1870.800048828125</ele>
        <time>2026-06-17T10:24:02.000Z</time>
        <extensions>
          <ns3:TrackPointExtension>
            <ns3:atemp>20.0</ns3:atemp>
          </ns3:TrackPointExtension>
        </extensions>
      </trkpt>
      <trkpt lat="42.51271490938961505889892578125" lon="19.93655626662075519561767578125">
        <ele>1870.800048828125</ele>
        <time>2026-06-17T10:24:03.000Z</time>
        <extensions>
          <ns3:TrackPointExtension>
            <ns3:atemp>20.0</ns3:atemp>
          </ns3:TrackPointExtension>
        </extensions>
      </trkpt>
      <trkpt lat="42.51271490938961505889892578125" lon="19.93655626662075519561767578125">
        <ele>1870.800048828125</ele>
        <time>2026-06-17T10:24:04.000Z</time>
        <extensions>
          <ns3:TrackPointExtension>
            <ns3:atemp>20.0</ns3:atemp>
          </ns3:TrackPointExtension>
        </extensions>
      </trkpt>
      <trkpt lat="42.51271490938961505889892578125" lon="19.93655626662075519561767578125">
        <ele>1870.800048828125</ele>
        <time>2026-06-17T10:24:05.000Z</time>
        <extensions>
          <ns3:TrackPointExtension>
            <ns3:atemp>20.0</ns3:atemp>
          </ns3:TrackPointExtension>
        </extensions>
      </trkpt>
      <trkpt lat="42.51271490938961505889892578125" lon="19.93655626662075519561767578125">
        <ele>1870.800048828125</ele>
        <time>2026-06-17T10:24:06.000Z</time>
        <extensions>
          <ns3:TrackPointExtension>
            <ns3:atemp>20.0</ns3:atemp>
          </ns3:TrackPointExtension>
        </extensions>
      </trkpt>
      <trkpt lat="42.51271490938961505889892578125" lon="19.93655626662075519561767578125">
        <ele>1870.800048828125</ele>
        <time>2026-06-17T10:24:07.000Z</time>
        <extensions>
          <ns3:TrackPointExtension>
            <ns3:atemp>20.0</ns3:atemp>
          </ns3:TrackPointExtension>
        </extensions>
      </trkpt>
      <trkpt lat="42.51271490938961505889892578125" lon="19.93655626662075519561767578125">
        <ele>1870.800048828125</ele>
        <time>2026-06-17T10:24:08.000Z</time>
        <extensions>
          <ns3:TrackPointExtension>
            <ns3:atemp>20.0</ns3:atemp>
          </ns3:TrackPointExtension>
        </extensions>
      </trkpt>
      <trkpt lat="42.51271490938961505889892578125" lon="19.93655626662075519561767578125">
        <ele>1870.800048828125</ele>
        <time>2026-06-17T10:24:09.000Z</time>
        <extensions>
          <ns3:TrackPointExtension>
            <ns3:atemp>20.0</ns3:atemp>
          </ns3:TrackPointExtension>
        </extensions>
      </trkpt>
      <trkpt lat="42.51271490938961505889892578125" lon="19.93655626662075519561767578125">
        <ele>1870.800048828125</ele>
        <time>2026-06-17T10:24:10.000Z</time>
        <extensions>
          <ns3:TrackPointExtension>
            <ns3:atemp>20.0</ns3:atemp>
          </ns3:TrackPointExtension>
        </extensions>
      </trkpt>
      <trkpt lat="42.51271490938961505889892578125" lon="19.93655626662075519561767578125">
        <ele>1870.800048828125</ele>
        <time>2026-06-17T10:24:11.000Z</time>
        <extensions>
          <ns3:TrackPointExtension>
            <ns3:atemp>20.0</ns3:atemp>
          </ns3:TrackPointExtension>
        </extensions>
      </trkpt>
      <trkpt lat="42.51271490938961505889892578125" lon="19.93655626662075519561767578125">
        <ele>1870.800048828125</ele>
        <time>2026-06-17T10:24:12.000Z</time>
        <extensions>
          <ns3:TrackPointExtension>
            <ns3:atemp>20.0</ns3:atemp>
          </ns3:TrackPointExtension>
        </extensions>
      </trkpt>
      <trkpt lat="42.51271490938961505889892578125" lon="19.93655626662075519561767578125">
        <ele>1870.800048828125</ele>
        <time>2026-06-17T10:24:13.000Z</time>
        <extensions>
          <ns3:TrackPointExtension>
            <ns3:atemp>20.0</ns3:atemp>
          </ns3:TrackPointExtension>
        </extensions>
      </trkpt>
      <trkpt lat="42.51271490938961505889892578125" lon="19.93655626662075519561767578125">
        <ele>1870.800048828125</ele>
        <time>2026-06-17T10:24:14.000Z</time>
        <extensions>
          <ns3:TrackPointExtension>
            <ns3:atemp>20.0</ns3:atemp>
          </ns3:TrackPointExtension>
        </extensions>
      </trkpt>
      <trkpt lat="42.51271490938961505889892578125" lon="19.93655626662075519561767578125">
        <ele>1870.800048828125</ele>
        <time>2026-06-17T10:24:15.000Z</time>
        <extensions>
          <ns3:TrackPointExtension>
            <ns3:atemp>20.0</ns3:atemp>
          </ns3:TrackPointExtension>
        </extensions>
      </trkpt>
      <trkpt lat="42.51271490938961505889892578125" lon="19.93655626662075519561767578125">
        <ele>1870.800048828125</ele>
        <time>2026-06-17T10:24:16.000Z</time>
        <extensions>
          <ns3:TrackPointExtension>
            <ns3:atemp>20.0</ns3:atemp>
          </ns3:TrackPointExtension>
        </extensions>
      </trkpt>
      <trkpt lat="42.51271490938961505889892578125" lon="19.93655626662075519561767578125">
        <ele>1870.800048828125</ele>
        <time>2026-06-17T10:24:17.000Z</time>
        <extensions>
          <ns3:TrackPointExtension>
            <ns3:atemp>20.0</ns3:atemp>
          </ns3:TrackPointExtension>
        </extensions>
      </trkpt>
      <trkpt lat="42.51271490938961505889892578125" lon="19.93655626662075519561767578125">
        <ele>1870.800048828125</ele>
        <time>2026-06-17T10:24:18.000Z</time>
        <extensions>
          <ns3:TrackPointExtension>
            <ns3:atemp>20.0</ns3:atemp>
          </ns3:TrackPointExtension>
        </extensions>
      </trkpt>
      <trkpt lat="42.51271490938961505889892578125" lon="19.93655626662075519561767578125">
        <ele>1870.800048828125</ele>
        <time>2026-06-17T10:24:19.000Z</time>
        <extensions>
          <ns3:TrackPointExtension>
            <ns3:atemp>20.0</ns3:atemp>
          </ns3:TrackPointExtension>
        </extensions>
      </trkpt>
      <trkpt lat="42.51271490938961505889892578125" lon="19.93655626662075519561767578125">
        <ele>1870.800048828125</ele>
        <time>2026-06-17T10:24:20.000Z</time>
        <extensions>
          <ns3:TrackPointExtension>
            <ns3:atemp>20.0</ns3:atemp>
          </ns3:TrackPointExtension>
        </extensions>
      </trkpt>
      <trkpt lat="42.51271490938961505889892578125" lon="19.93655626662075519561767578125">
        <ele>1870.800048828125</ele>
        <time>2026-06-17T10:24:21.000Z</time>
        <extensions>
          <ns3:TrackPointExtension>
            <ns3:atemp>20.0</ns3:atemp>
          </ns3:TrackPointExtension>
        </extensions>
      </trkpt>
      <trkpt lat="42.51271490938961505889892578125" lon="19.93655626662075519561767578125">
        <ele>1870.800048828125</ele>
        <time>2026-06-17T10:24:22.000Z</time>
        <extensions>
          <ns3:TrackPointExtension>
            <ns3:atemp>20.0</ns3:atemp>
          </ns3:TrackPointExtension>
        </extensions>
      </trkpt>
      <trkpt lat="42.51271490938961505889892578125" lon="19.93655626662075519561767578125">
        <ele>1870.800048828125</ele>
        <time>2026-06-17T10:24:23.000Z</time>
        <extensions>
          <ns3:TrackPointExtension>
            <ns3:atemp>20.0</ns3:atemp>
          </ns3:TrackPointExtension>
        </extensions>
      </trkpt>
      <trkpt lat="42.51271490938961505889892578125" lon="19.93655626662075519561767578125">
        <ele>1870.800048828125</ele>
        <time>2026-06-17T10:24:24.000Z</time>
        <extensions>
          <ns3:TrackPointExtension>
            <ns3:atemp>20.0</ns3:atemp>
          </ns3:TrackPointExtension>
        </extensions>
      </trkpt>
      <trkpt lat="42.51271490938961505889892578125" lon="19.93655626662075519561767578125">
        <ele>1870.800048828125</ele>
        <time>2026-06-17T10:24:25.000Z</time>
        <extensions>
          <ns3:TrackPointExtension>
            <ns3:atemp>20.0</ns3:atemp>
          </ns3:TrackPointExtension>
        </extensions>
      </trkpt>
      <trkpt lat="42.51271490938961505889892578125" lon="19.93655626662075519561767578125">
        <ele>1870.800048828125</ele>
        <time>2026-06-17T10:24:26.000Z</time>
        <extensions>
          <ns3:TrackPointExtension>
            <ns3:atemp>20.0</ns3:atemp>
          </ns3:TrackPointExtension>
        </extensions>
      </trkpt>
      <trkpt lat="42.51271490938961505889892578125" lon="19.93655626662075519561767578125">
        <ele>1870.800048828125</ele>
        <time>2026-06-17T10:24:27.000Z</time>
        <extensions>
          <ns3:TrackPointExtension>
            <ns3:atemp>20.0</ns3:atemp>
          </ns3:TrackPointExtension>
        </extensions>
      </trkpt>
      <trkpt lat="42.51271490938961505889892578125" lon="19.93655626662075519561767578125">
        <ele>1870.800048828125</ele>
        <time>2026-06-17T10:24:28.000Z</time>
        <extensions>
          <ns3:TrackPointExtension>
            <ns3:atemp>20.0</ns3:atemp>
          </ns3:TrackPointExtension>
        </extensions>
      </trkpt>
      <trkpt lat="42.51271490938961505889892578125" lon="19.93655626662075519561767578125">
        <ele>1870.800048828125</ele>
        <time>2026-06-17T10:24:29.000Z</time>
        <extensions>
          <ns3:TrackPointExtension>
            <ns3:atemp>20.0</ns3:atemp>
          </ns3:TrackPointExtension>
        </extensions>
      </trkpt>
      <trkpt lat="42.51271490938961505889892578125" lon="19.93655626662075519561767578125">
        <ele>1870.800048828125</ele>
        <time>2026-06-17T10:24:30.000Z</time>
        <extensions>
          <ns3:TrackPointExtension>
            <ns3:atemp>20.0</ns3:atemp>
          </ns3:TrackPointExtension>
        </extensions>
      </trkpt>
      <trkpt lat="42.51271490938961505889892578125" lon="19.93655626662075519561767578125">
        <ele>1870.800048828125</ele>
        <time>2026-06-17T10:24:31.000Z</time>
        <extensions>
          <ns3:TrackPointExtension>
            <ns3:atemp>20.0</ns3:atemp>
          </ns3:TrackPointExtension>
        </extensions>
      </trkpt>
      <trkpt lat="42.51271490938961505889892578125" lon="19.93655626662075519561767578125">
        <ele>1870.800048828125</ele>
        <time>2026-06-17T10:24:32.000Z</time>
        <extensions>
          <ns3:TrackPointExtension>
            <ns3:atemp>20.0</ns3:atemp>
          </ns3:TrackPointExtension>
        </extensions>
      </trkpt>
      <trkpt lat="42.51271490938961505889892578125" lon="19.93655626662075519561767578125">
        <ele>1870.800048828125</ele>
        <time>2026-06-17T10:24:33.000Z</time>
        <extensions>
          <ns3:TrackPointExtension>
            <ns3:atemp>20.0</ns3:atemp>
          </ns3:TrackPointExtension>
        </extensions>
      </trkpt>
      <trkpt lat="42.51271490938961505889892578125" lon="19.93655626662075519561767578125">
        <ele>1870.800048828125</ele>
        <time>2026-06-17T10:24:34.000Z</time>
        <extensions>
          <ns3:TrackPointExtension>
            <ns3:atemp>20.0</ns3:atemp>
          </ns3:TrackPointExtension>
        </extensions>
      </trkpt>
      <trkpt lat="42.51271490938961505889892578125" lon="19.93655626662075519561767578125">
        <ele>1870.800048828125</ele>
        <time>2026-06-17T10:24:35.000Z</time>
        <extensions>
          <ns3:TrackPointExtension>
            <ns3:atemp>20.0</ns3:atemp>
          </ns3:TrackPointExtension>
        </extensions>
      </trkpt>
      <trkpt lat="42.51271490938961505889892578125" lon="19.93655626662075519561767578125">
        <ele>1870.800048828125</ele>
        <time>2026-06-17T10:24:36.000Z</time>
        <extensions>
          <ns3:TrackPointExtension>
            <ns3:atemp>20.0</ns3:atemp>
          </ns3:TrackPointExtension>
        </extensions>
      </trkpt>
      <trkpt lat="42.51271490938961505889892578125" lon="19.93655626662075519561767578125">
        <ele>1870.800048828125</ele>
        <time>2026-06-17T10:24:37.000Z</time>
        <extensions>
          <ns3:TrackPointExtension>
            <ns3:atemp>20.0</ns3:atemp>
          </ns3:TrackPointExtension>
        </extensions>
      </trkpt>
      <trkpt lat="42.51271490938961505889892578125" lon="19.93655626662075519561767578125">
        <ele>1870.800048828125</ele>
        <time>2026-06-17T10:24:38.000Z</time>
        <extensions>
          <ns3:TrackPointExtension>
            <ns3:atemp>20.0</ns3:atemp>
          </ns3:TrackPointExtension>
        </extensions>
      </trkpt>
      <trkpt lat="42.51271490938961505889892578125" lon="19.93655626662075519561767578125">
        <ele>1870.800048828125</ele>
        <time>2026-06-17T10:24:39.000Z</time>
        <extensions>
          <ns3:TrackPointExtension>
            <ns3:atemp>20.0</ns3:atemp>
          </ns3:TrackPointExtension>
        </extensions>
      </trkpt>
      <trkpt lat="42.51271490938961505889892578125" lon="19.93655626662075519561767578125">
        <ele>1870.800048828125</ele>
        <time>2026-06-17T10:24:40.000Z</time>
        <extensions>
          <ns3:TrackPointExtension>
            <ns3:atemp>20.0</ns3:atemp>
          </ns3:TrackPointExtension>
        </extensions>
      </trkpt>
      <trkpt lat="42.51271490938961505889892578125" lon="19.93655626662075519561767578125">
        <ele>1870.800048828125</ele>
        <time>2026-06-17T10:24:41.000Z</time>
        <extensions>
          <ns3:TrackPointExtension>
            <ns3:atemp>20.0</ns3:atemp>
          </ns3:TrackPointExtension>
        </extensions>
      </trkpt>
      <trkpt lat="42.51271490938961505889892578125" lon="19.93655626662075519561767578125">
        <ele>1870.800048828125</ele>
        <time>2026-06-17T10:24:42.000Z</time>
        <extensions>
          <ns3:TrackPointExtension>
            <ns3:atemp>20.0</ns3:atemp>
          </ns3:TrackPointExtension>
        </extensions>
      </trkpt>
      <trkpt lat="42.51271490938961505889892578125" lon="19.93655626662075519561767578125">
        <ele>1870.800048828125</ele>
        <time>2026-06-17T10:24:43.000Z</time>
        <extensions>
          <ns3:TrackPointExtension>
            <ns3:atemp>20.0</ns3:atemp>
          </ns3:TrackPointExtension>
        </extensions>
      </trkpt>
      <trkpt lat="42.51271490938961505889892578125" lon="19.93655626662075519561767578125">
        <ele>1870.800048828125</ele>
        <time>2026-06-17T10:24:44.000Z</time>
        <extensions>
          <ns3:TrackPointExtension>
            <ns3:atemp>20.0</ns3:atemp>
          </ns3:TrackPointExtension>
        </extensions>
      </trkpt>
      <trkpt lat="42.51271490938961505889892578125" lon="19.93655626662075519561767578125">
        <ele>1870.800048828125</ele>
        <time>2026-06-17T10:24:45.000Z</time>
        <extensions>
          <ns3:TrackPointExtension>
            <ns3:atemp>20.0</ns3:atemp>
          </ns3:TrackPointExtension>
        </extensions>
      </trkpt>
      <trkpt lat="42.51271490938961505889892578125" lon="19.93655626662075519561767578125">
        <ele>1870.800048828125</ele>
        <time>2026-06-17T10:24:46.000Z</time>
        <extensions>
          <ns3:TrackPointExtension>
            <ns3:atemp>20.0</ns3:atemp>
          </ns3:TrackPointExtension>
        </extensions>
      </trkpt>
      <trkpt lat="42.51271490938961505889892578125" lon="19.93655626662075519561767578125">
        <ele>1870.800048828125</ele>
        <time>2026-06-17T10:24:47.000Z</time>
        <extensions>
          <ns3:TrackPointExtension>
            <ns3:atemp>20.0</ns3:atemp>
          </ns3:TrackPointExtension>
        </extensions>
      </trkpt>
      <trkpt lat="42.51271490938961505889892578125" lon="19.93655626662075519561767578125">
        <ele>1870.800048828125</ele>
        <time>2026-06-17T10:24:48.000Z</time>
        <extensions>
          <ns3:TrackPointExtension>
            <ns3:atemp>20.0</ns3:atemp>
          </ns3:TrackPointExtension>
        </extensions>
      </trkpt>
      <trkpt lat="42.51271490938961505889892578125" lon="19.93655626662075519561767578125">
        <ele>1870.800048828125</ele>
        <time>2026-06-17T10:24:49.000Z</time>
        <extensions>
          <ns3:TrackPointExtension>
            <ns3:atemp>20.0</ns3:atemp>
          </ns3:TrackPointExtension>
        </extensions>
      </trkpt>
      <trkpt lat="42.51271490938961505889892578125" lon="19.93655626662075519561767578125">
        <ele>1870.800048828125</ele>
        <time>2026-06-17T10:24:50.000Z</time>
        <extensions>
          <ns3:TrackPointExtension>
            <ns3:atemp>20.0</ns3:atemp>
          </ns3:TrackPointExtension>
        </extensions>
      </trkpt>
      <trkpt lat="42.51271490938961505889892578125" lon="19.93655626662075519561767578125">
        <ele>1870.800048828125</ele>
        <time>2026-06-17T10:24:51.000Z</time>
        <extensions>
          <ns3:TrackPointExtension>
            <ns3:atemp>20.0</ns3:atemp>
          </ns3:TrackPointExtension>
        </extensions>
      </trkpt>
      <trkpt lat="42.51271490938961505889892578125" lon="19.93655626662075519561767578125">
        <ele>1870.800048828125</ele>
        <time>2026-06-17T10:24:52.000Z</time>
        <extensions>
          <ns3:TrackPointExtension>
            <ns3:atemp>20.0</ns3:atemp>
          </ns3:TrackPointExtension>
        </extensions>
      </trkpt>
      <trkpt lat="42.51271490938961505889892578125" lon="19.93655626662075519561767578125">
        <ele>1870.800048828125</ele>
        <time>2026-06-17T10:24:53.000Z</time>
        <extensions>
          <ns3:TrackPointExtension>
            <ns3:atemp>20.0</ns3:atemp>
          </ns3:TrackPointExtension>
        </extensions>
      </trkpt>
      <trkpt lat="42.51271490938961505889892578125" lon="19.93655626662075519561767578125">
        <ele>1870.800048828125</ele>
        <time>2026-06-17T10:24:54.000Z</time>
        <extensions>
          <ns3:TrackPointExtension>
            <ns3:atemp>20.0</ns3:atemp>
          </ns3:TrackPointExtension>
        </extensions>
      </trkpt>
      <trkpt lat="42.51271490938961505889892578125" lon="19.93655626662075519561767578125">
        <ele>1870.800048828125</ele>
        <time>2026-06-17T10:24:55.000Z</time>
        <extensions>
          <ns3:TrackPointExtension>
            <ns3:atemp>20.0</ns3:atemp>
          </ns3:TrackPointExtension>
        </extensions>
      </trkpt>
      <trkpt lat="42.51271490938961505889892578125" lon="19.93655626662075519561767578125">
        <ele>1870.800048828125</ele>
        <time>2026-06-17T10:24:56.000Z</time>
        <extensions>
          <ns3:TrackPointExtension>
            <ns3:atemp>20.0</ns3:atemp>
          </ns3:TrackPointExtension>
        </extensions>
      </trkpt>
      <trkpt lat="42.51271490938961505889892578125" lon="19.93655626662075519561767578125">
        <ele>1870.800048828125</ele>
        <time>2026-06-17T10:24:57.000Z</time>
        <extensions>
          <ns3:TrackPointExtension>
            <ns3:atemp>20.0</ns3:atemp>
          </ns3:TrackPointExtension>
        </extensions>
      </trkpt>
      <trkpt lat="42.51271490938961505889892578125" lon="19.93655626662075519561767578125">
        <ele>1870.800048828125</ele>
        <time>2026-06-17T10:24:58.000Z</time>
        <extensions>
          <ns3:TrackPointExtension>
            <ns3:atemp>20.0</ns3:atemp>
          </ns3:TrackPointExtension>
        </extensions>
      </trkpt>
      <trkpt lat="42.51271490938961505889892578125" lon="19.93655626662075519561767578125">
        <ele>1870.800048828125</ele>
        <time>2026-06-17T10:24:59.000Z</time>
        <extensions>
          <ns3:TrackPointExtension>
            <ns3:atemp>20.0</ns3:atemp>
          </ns3:TrackPointExtension>
        </extensions>
      </trkpt>
      <trkpt lat="42.51271490938961505889892578125" lon="19.93655626662075519561767578125">
        <ele>1870.800048828125</ele>
        <time>2026-06-17T10:25:00.000Z</time>
        <extensions>
          <ns3:TrackPointExtension>
            <ns3:atemp>20.0</ns3:atemp>
          </ns3:TrackPointExtension>
        </extensions>
      </trkpt>
      <trkpt lat="42.51271490938961505889892578125" lon="19.93655626662075519561767578125">
        <ele>1870.800048828125</ele>
        <time>2026-06-17T10:25:01.000Z</time>
        <extensions>
          <ns3:TrackPointExtension>
            <ns3:atemp>20.0</ns3:atemp>
          </ns3:TrackPointExtension>
        </extensions>
      </trkpt>
      <trkpt lat="42.51271490938961505889892578125" lon="19.93655626662075519561767578125">
        <ele>1870.800048828125</ele>
        <time>2026-06-17T10:25:02.000Z</time>
        <extensions>
          <ns3:TrackPointExtension>
            <ns3:atemp>20.0</ns3:atemp>
          </ns3:TrackPointExtension>
        </extensions>
      </trkpt>
      <trkpt lat="42.51271490938961505889892578125" lon="19.93655626662075519561767578125">
        <ele>1870.800048828125</ele>
        <time>2026-06-17T10:25:03.000Z</time>
        <extensions>
          <ns3:TrackPointExtension>
            <ns3:atemp>20.0</ns3:atemp>
          </ns3:TrackPointExtension>
        </extensions>
      </trkpt>
      <trkpt lat="42.51271490938961505889892578125" lon="19.93655626662075519561767578125">
        <ele>1870.800048828125</ele>
        <time>2026-06-17T10:25:04.000Z</time>
        <extensions>
          <ns3:TrackPointExtension>
            <ns3:atemp>20.0</ns3:atemp>
          </ns3:TrackPointExtension>
        </extensions>
      </trkpt>
      <trkpt lat="42.51271490938961505889892578125" lon="19.93655626662075519561767578125">
        <ele>1870.800048828125</ele>
        <time>2026-06-17T10:25:05.000Z</time>
        <extensions>
          <ns3:TrackPointExtension>
            <ns3:atemp>20.0</ns3:atemp>
          </ns3:TrackPointExtension>
        </extensions>
      </trkpt>
      <trkpt lat="42.51271490938961505889892578125" lon="19.93655626662075519561767578125">
        <ele>1870.800048828125</ele>
        <time>2026-06-17T10:25:06.000Z</time>
        <extensions>
          <ns3:TrackPointExtension>
            <ns3:atemp>20.0</ns3:atemp>
          </ns3:TrackPointExtension>
        </extensions>
      </trkpt>
      <trkpt lat="42.51271490938961505889892578125" lon="19.93655626662075519561767578125">
        <ele>1870.800048828125</ele>
        <time>2026-06-17T10:25:07.000Z</time>
        <extensions>
          <ns3:TrackPointExtension>
            <ns3:atemp>20.0</ns3:atemp>
          </ns3:TrackPointExtension>
        </extensions>
      </trkpt>
      <trkpt lat="42.51271490938961505889892578125" lon="19.93655626662075519561767578125">
        <ele>1870.800048828125</ele>
        <time>2026-06-17T10:25:08.000Z</time>
        <extensions>
          <ns3:TrackPointExtension>
            <ns3:atemp>20.0</ns3:atemp>
          </ns3:TrackPointExtension>
        </extensions>
      </trkpt>
      <trkpt lat="42.51271490938961505889892578125" lon="19.93655626662075519561767578125">
        <ele>1870.800048828125</ele>
        <time>2026-06-17T10:25:09.000Z</time>
        <extensions>
          <ns3:TrackPointExtension>
            <ns3:atemp>20.0</ns3:atemp>
          </ns3:TrackPointExtension>
        </extensions>
      </trkpt>
      <trkpt lat="42.51271490938961505889892578125" lon="19.93655626662075519561767578125">
        <ele>1870.800048828125</ele>
        <time>2026-06-17T10:25:10.000Z</time>
        <extensions>
          <ns3:TrackPointExtension>
            <ns3:atemp>20.0</ns3:atemp>
          </ns3:TrackPointExtension>
        </extensions>
      </trkpt>
      <trkpt lat="42.51271490938961505889892578125" lon="19.93655626662075519561767578125">
        <ele>1870.800048828125</ele>
        <time>2026-06-17T10:25:11.000Z</time>
        <extensions>
          <ns3:TrackPointExtension>
            <ns3:atemp>20.0</ns3:atemp>
          </ns3:TrackPointExtension>
        </extensions>
      </trkpt>
      <trkpt lat="42.51271490938961505889892578125" lon="19.93655626662075519561767578125">
        <ele>1870.800048828125</ele>
        <time>2026-06-17T10:25:12.000Z</time>
        <extensions>
          <ns3:TrackPointExtension>
            <ns3:atemp>20.0</ns3:atemp>
          </ns3:TrackPointExtension>
        </extensions>
      </trkpt>
      <trkpt lat="42.51271490938961505889892578125" lon="19.93655626662075519561767578125">
        <ele>1870.800048828125</ele>
        <time>2026-06-17T10:25:13.000Z</time>
        <extensions>
          <ns3:TrackPointExtension>
            <ns3:atemp>20.0</ns3:atemp>
          </ns3:TrackPointExtension>
        </extensions>
      </trkpt>
      <trkpt lat="42.51271490938961505889892578125" lon="19.93655626662075519561767578125">
        <ele>1870.800048828125</ele>
        <time>2026-06-17T10:25:14.000Z</time>
        <extensions>
          <ns3:TrackPointExtension>
            <ns3:atemp>20.0</ns3:atemp>
          </ns3:TrackPointExtension>
        </extensions>
      </trkpt>
      <trkpt lat="42.51271490938961505889892578125" lon="19.93655626662075519561767578125">
        <ele>1870.800048828125</ele>
        <time>2026-06-17T10:25:15.000Z</time>
        <extensions>
          <ns3:TrackPointExtension>
            <ns3:atemp>20.0</ns3:atemp>
          </ns3:TrackPointExtension>
        </extensions>
      </trkpt>
      <trkpt lat="42.51271490938961505889892578125" lon="19.93655626662075519561767578125">
        <ele>1870.800048828125</ele>
        <time>2026-06-17T10:25:16.000Z</time>
        <extensions>
          <ns3:TrackPointExtension>
            <ns3:atemp>20.0</ns3:atemp>
          </ns3:TrackPointExtension>
        </extensions>
      </trkpt>
      <trkpt lat="42.51271490938961505889892578125" lon="19.93655626662075519561767578125">
        <ele>1870.800048828125</ele>
        <time>2026-06-17T10:25:17.000Z</time>
        <extensions>
          <ns3:TrackPointExtension>
            <ns3:atemp>20.0</ns3:atemp>
          </ns3:TrackPointExtension>
        </extensions>
      </trkpt>
      <trkpt lat="42.51271490938961505889892578125" lon="19.93655626662075519561767578125">
        <ele>1870.800048828125</ele>
        <time>2026-06-17T10:25:18.000Z</time>
        <extensions>
          <ns3:TrackPointExtension>
            <ns3:atemp>20.0</ns3:atemp>
          </ns3:TrackPointExtension>
        </extensions>
      </trkpt>
      <trkpt lat="42.51271490938961505889892578125" lon="19.93655626662075519561767578125">
        <ele>1870.800048828125</ele>
        <time>2026-06-17T10:25:19.000Z</time>
        <extensions>
          <ns3:TrackPointExtension>
            <ns3:atemp>20.0</ns3:atemp>
          </ns3:TrackPointExtension>
        </extensions>
      </trkpt>
      <trkpt lat="42.51271490938961505889892578125" lon="19.93655626662075519561767578125">
        <ele>1870.800048828125</ele>
        <time>2026-06-17T10:25:20.000Z</time>
        <extensions>
          <ns3:TrackPointExtension>
            <ns3:atemp>20.0</ns3:atemp>
          </ns3:TrackPointExtension>
        </extensions>
      </trkpt>
      <trkpt lat="42.51271490938961505889892578125" lon="19.93655626662075519561767578125">
        <ele>1870.800048828125</ele>
        <time>2026-06-17T10:25:21.000Z</time>
        <extensions>
          <ns3:TrackPointExtension>
            <ns3:atemp>20.0</ns3:atemp>
          </ns3:TrackPointExtension>
        </extensions>
      </trkpt>
      <trkpt lat="42.51271490938961505889892578125" lon="19.93655626662075519561767578125">
        <ele>1870.800048828125</ele>
        <time>2026-06-17T10:25:22.000Z</time>
        <extensions>
          <ns3:TrackPointExtension>
            <ns3:atemp>20.0</ns3:atemp>
          </ns3:TrackPointExtension>
        </extensions>
      </trkpt>
      <trkpt lat="42.51271490938961505889892578125" lon="19.93655626662075519561767578125">
        <ele>1870.800048828125</ele>
        <time>2026-06-17T10:25:23.000Z</time>
        <extensions>
          <ns3:TrackPointExtension>
            <ns3:atemp>20.0</ns3:atemp>
          </ns3:TrackPointExtension>
        </extensions>
      </trkpt>
      <trkpt lat="42.51271490938961505889892578125" lon="19.93655626662075519561767578125">
        <ele>1870.800048828125</ele>
        <time>2026-06-17T10:25:24.000Z</time>
        <extensions>
          <ns3:TrackPointExtension>
            <ns3:atemp>20.0</ns3:atemp>
          </ns3:TrackPointExtension>
        </extensions>
      </trkpt>
      <trkpt lat="42.51271490938961505889892578125" lon="19.93655626662075519561767578125">
        <ele>1870.800048828125</ele>
        <time>2026-06-17T10:25:25.000Z</time>
        <extensions>
          <ns3:TrackPointExtension>
            <ns3:atemp>20.0</ns3:atemp>
          </ns3:TrackPointExtension>
        </extensions>
      </trkpt>
      <trkpt lat="42.51271490938961505889892578125" lon="19.93655626662075519561767578125">
        <ele>1870.800048828125</ele>
        <time>2026-06-17T10:25:26.000Z</time>
        <extensions>
          <ns3:TrackPointExtension>
            <ns3:atemp>20.0</ns3:atemp>
          </ns3:TrackPointExtension>
        </extensions>
      </trkpt>
      <trkpt lat="42.51271490938961505889892578125" lon="19.93655626662075519561767578125">
        <ele>1870.800048828125</ele>
        <time>2026-06-17T10:25:27.000Z</time>
        <extensions>
          <ns3:TrackPointExtension>
            <ns3:atemp>20.0</ns3:atemp>
          </ns3:TrackPointExtension>
        </extensions>
      </trkpt>
      <trkpt lat="42.51271490938961505889892578125" lon="19.93655626662075519561767578125">
        <ele>1870.800048828125</ele>
        <time>2026-06-17T10:25:28.000Z</time>
        <extensions>
          <ns3:TrackPointExtension>
            <ns3:atemp>20.0</ns3:atemp>
          </ns3:TrackPointExtension>
        </extensions>
      </trkpt>
      <trkpt lat="42.51271490938961505889892578125" lon="19.93655626662075519561767578125">
        <ele>1870.800048828125</ele>
        <time>2026-06-17T10:25:29.000Z</time>
        <extensions>
          <ns3:TrackPointExtension>
            <ns3:atemp>20.0</ns3:atemp>
          </ns3:TrackPointExtension>
        </extensions>
      </trkpt>
      <trkpt lat="42.51271490938961505889892578125" lon="19.93655626662075519561767578125">
        <ele>1870.800048828125</ele>
        <time>2026-06-17T10:25:30.000Z</time>
        <extensions>
          <ns3:TrackPointExtension>
            <ns3:atemp>20.0</ns3:atemp>
          </ns3:TrackPointExtension>
        </extensions>
      </trkpt>
      <trkpt lat="42.51271490938961505889892578125" lon="19.93655626662075519561767578125">
        <ele>1870.800048828125</ele>
        <time>2026-06-17T10:25:31.000Z</time>
        <extensions>
          <ns3:TrackPointExtension>
            <ns3:atemp>20.0</ns3:atemp>
          </ns3:TrackPointExtension>
        </extensions>
      </trkpt>
      <trkpt lat="42.51271490938961505889892578125" lon="19.93655626662075519561767578125">
        <ele>1870.800048828125</ele>
        <time>2026-06-17T10:25:32.000Z</time>
        <extensions>
          <ns3:TrackPointExtension>
            <ns3:atemp>20.0</ns3:atemp>
          </ns3:TrackPointExtension>
        </extensions>
      </trkpt>
      <trkpt lat="42.51271490938961505889892578125" lon="19.93655626662075519561767578125">
        <ele>1870.800048828125</ele>
        <time>2026-06-17T10:25:33.000Z</time>
        <extensions>
          <ns3:TrackPointExtension>
            <ns3:atemp>20.0</ns3:atemp>
          </ns3:TrackPointExtension>
        </extensions>
      </trkpt>
      <trkpt lat="42.51271490938961505889892578125" lon="19.93655626662075519561767578125">
        <ele>1870.800048828125</ele>
        <time>2026-06-17T10:25:34.000Z</time>
        <extensions>
          <ns3:TrackPointExtension>
            <ns3:atemp>20.0</ns3:atemp>
          </ns3:TrackPointExtension>
        </extensions>
      </trkpt>
      <trkpt lat="42.51271490938961505889892578125" lon="19.93655626662075519561767578125">
        <ele>1870.800048828125</ele>
        <time>2026-06-17T10:25:35.000Z</time>
        <extensions>
          <ns3:TrackPointExtension>
            <ns3:atemp>20.0</ns3:atemp>
          </ns3:TrackPointExtension>
        </extensions>
      </trkpt>
      <trkpt lat="42.51271490938961505889892578125" lon="19.93655626662075519561767578125">
        <ele>1870.800048828125</ele>
        <time>2026-06-17T10:25:36.000Z</time>
        <extensions>
          <ns3:TrackPointExtension>
            <ns3:atemp>20.0</ns3:atemp>
          </ns3:TrackPointExtension>
        </extensions>
      </trkpt>
      <trkpt lat="42.51271490938961505889892578125" lon="19.93655626662075519561767578125">
        <ele>1870.800048828125</ele>
        <time>2026-06-17T10:25:37.000Z</time>
        <extensions>
          <ns3:TrackPointExtension>
            <ns3:atemp>20.0</ns3:atemp>
          </ns3:TrackPointExtension>
        </extensions>
      </trkpt>
      <trkpt lat="42.51271490938961505889892578125" lon="19.93655626662075519561767578125">
        <ele>1870.800048828125</ele>
        <time>2026-06-17T10:25:38.000Z</time>
        <extensions>
          <ns3:TrackPointExtension>
            <ns3:atemp>20.0</ns3:atemp>
          </ns3:TrackPointExtension>
        </extensions>
      </trkpt>
      <trkpt lat="42.51271490938961505889892578125" lon="19.93655626662075519561767578125">
        <ele>1870.800048828125</ele>
        <time>2026-06-17T10:25:39.000Z</time>
        <extensions>
          <ns3:TrackPointExtension>
            <ns3:atemp>20.0</ns3:atemp>
          </ns3:TrackPointExtension>
        </extensions>
      </trkpt>
      <trkpt lat="42.51271490938961505889892578125" lon="19.93655626662075519561767578125">
        <ele>1870.800048828125</ele>
        <time>2026-06-17T10:25:40.000Z</time>
        <extensions>
          <ns3:TrackPointExtension>
            <ns3:atemp>20.0</ns3:atemp>
          </ns3:TrackPointExtension>
        </extensions>
      </trkpt>
      <trkpt lat="42.51271490938961505889892578125" lon="19.93655626662075519561767578125">
        <ele>1870.800048828125</ele>
        <time>2026-06-17T10:25:41.000Z</time>
        <extensions>
          <ns3:TrackPointExtension>
            <ns3:atemp>20.0</ns3:atemp>
          </ns3:TrackPointExtension>
        </extensions>
      </trkpt>
      <trkpt lat="42.51271490938961505889892578125" lon="19.93655626662075519561767578125">
        <ele>1870.800048828125</ele>
        <time>2026-06-17T10:25:42.000Z</time>
        <extensions>
          <ns3:TrackPointExtension>
            <ns3:atemp>20.0</ns3:atemp>
          </ns3:TrackPointExtension>
        </extensions>
      </trkpt>
      <trkpt lat="42.51271490938961505889892578125" lon="19.93655626662075519561767578125">
        <ele>1870.800048828125</ele>
        <time>2026-06-17T10:25:43.000Z</time>
        <extensions>
          <ns3:TrackPointExtension>
            <ns3:atemp>20.0</ns3:atemp>
          </ns3:TrackPointExtension>
        </extensions>
      </trkpt>
      <trkpt lat="42.51271490938961505889892578125" lon="19.93655626662075519561767578125">
        <ele>1870.800048828125</ele>
        <time>2026-06-17T10:25:44.000Z</time>
        <extensions>
          <ns3:TrackPointExtension>
            <ns3:atemp>20.0</ns3:atemp>
          </ns3:TrackPointExtension>
        </extensions>
      </trkpt>
      <trkpt lat="42.51271490938961505889892578125" lon="19.93655626662075519561767578125">
        <ele>1870.800048828125</ele>
        <time>2026-06-17T10:25:45.000Z</time>
        <extensions>
          <ns3:TrackPointExtension>
            <ns3:atemp>20.0</ns3:atemp>
          </ns3:TrackPointExtension>
        </extensions>
      </trkpt>
      <trkpt lat="42.51271490938961505889892578125" lon="19.93655626662075519561767578125">
        <ele>1870.800048828125</ele>
        <time>2026-06-17T10:25:46.000Z</time>
        <extensions>
          <ns3:TrackPointExtension>
            <ns3:atemp>20.0</ns3:atemp>
          </ns3:TrackPointExtension>
        </extensions>
      </trkpt>
      <trkpt lat="42.51271490938961505889892578125" lon="19.93655626662075519561767578125">
        <ele>1870.800048828125</ele>
        <time>2026-06-17T10:25:47.000Z</time>
        <extensions>
          <ns3:TrackPointExtension>
            <ns3:atemp>20.0</ns3:atemp>
          </ns3:TrackPointExtension>
        </extensions>
      </trkpt>
      <trkpt lat="42.51271490938961505889892578125" lon="19.93655626662075519561767578125">
        <ele>1870.800048828125</ele>
        <time>2026-06-17T10:25:48.000Z</time>
        <extensions>
          <ns3:TrackPointExtension>
            <ns3:atemp>20.0</ns3:atemp>
          </ns3:TrackPointExtension>
        </extensions>
      </trkpt>
      <trkpt lat="42.51271490938961505889892578125" lon="19.93655626662075519561767578125">
        <ele>1870.800048828125</ele>
        <time>2026-06-17T10:25:49.000Z</time>
        <extensions>
          <ns3:TrackPointExtension>
            <ns3:atemp>20.0</ns3:atemp>
          </ns3:TrackPointExtension>
        </extensions>
      </trkpt>
      <trkpt lat="42.51271490938961505889892578125" lon="19.93655626662075519561767578125">
        <ele>1870.800048828125</ele>
        <time>2026-06-17T10:25:50.000Z</time>
        <extensions>
          <ns3:TrackPointExtension>
            <ns3:atemp>20.0</ns3:atemp>
          </ns3:TrackPointExtension>
        </extensions>
      </trkpt>
      <trkpt lat="42.51271490938961505889892578125" lon="19.93655626662075519561767578125">
        <ele>1870.800048828125</ele>
        <time>2026-06-17T10:25:51.000Z</time>
        <extensions>
          <ns3:TrackPointExtension>
            <ns3:atemp>20.0</ns3:atemp>
          </ns3:TrackPointExtension>
        </extensions>
      </trkpt>
      <trkpt lat="42.51271490938961505889892578125" lon="19.93655626662075519561767578125">
        <ele>1870.800048828125</ele>
        <time>2026-06-17T10:25:52.000Z</time>
        <extensions>
          <ns3:TrackPointExtension>
            <ns3:atemp>20.0</ns3:atemp>
          </ns3:TrackPointExtension>
        </extensions>
      </trkpt>
      <trkpt lat="42.51271490938961505889892578125" lon="19.93655626662075519561767578125">
        <ele>1870.800048828125</ele>
        <time>2026-06-17T10:25:53.000Z</time>
        <extensions>
          <ns3:TrackPointExtension>
            <ns3:atemp>20.0</ns3:atemp>
          </ns3:TrackPointExtension>
        </extensions>
      </trkpt>
      <trkpt lat="42.51271490938961505889892578125" lon="19.93655626662075519561767578125">
        <ele>1870.800048828125</ele>
        <time>2026-06-17T10:25:54.000Z</time>
        <extensions>
          <ns3:TrackPointExtension>
            <ns3:atemp>20.0</ns3:atemp>
          </ns3:TrackPointExtension>
        </extensions>
      </trkpt>
      <trkpt lat="42.51271490938961505889892578125" lon="19.93655626662075519561767578125">
        <ele>1870.800048828125</ele>
        <time>2026-06-17T10:25:55.000Z</time>
        <extensions>
          <ns3:TrackPointExtension>
            <ns3:atemp>20.0</ns3:atemp>
          </ns3:TrackPointExtension>
        </extensions>
      </trkpt>
      <trkpt lat="42.51271490938961505889892578125" lon="19.93655626662075519561767578125">
        <ele>1870.800048828125</ele>
        <time>2026-06-17T10:25:56.000Z</time>
        <extensions>
          <ns3:TrackPointExtension>
            <ns3:atemp>20.0</ns3:atemp>
          </ns3:TrackPointExtension>
        </extensions>
      </trkpt>
      <trkpt lat="42.51271490938961505889892578125" lon="19.93655626662075519561767578125">
        <ele>1870.800048828125</ele>
        <time>2026-06-17T10:25:57.000Z</time>
        <extensions>
          <ns3:TrackPointExtension>
            <ns3:atemp>20.0</ns3:atemp>
          </ns3:TrackPointExtension>
        </extensions>
      </trkpt>
      <trkpt lat="42.51271490938961505889892578125" lon="19.93655626662075519561767578125">
        <ele>1870.800048828125</ele>
        <time>2026-06-17T10:25:58.000Z</time>
        <extensions>
          <ns3:TrackPointExtension>
            <ns3:atemp>20.0</ns3:atemp>
          </ns3:TrackPointExtension>
        </extensions>
      </trkpt>
      <trkpt lat="42.51271490938961505889892578125" lon="19.93655626662075519561767578125">
        <ele>1870.800048828125</ele>
        <time>2026-06-17T10:25:59.000Z</time>
        <extensions>
          <ns3:TrackPointExtension>
            <ns3:atemp>20.0</ns3:atemp>
          </ns3:TrackPointExtension>
        </extensions>
      </trkpt>
      <trkpt lat="42.51271490938961505889892578125" lon="19.93655626662075519561767578125">
        <ele>1870.800048828125</ele>
        <time>2026-06-17T10:26:00.000Z</time>
        <extensions>
          <ns3:TrackPointExtension>
            <ns3:atemp>20.0</ns3:atemp>
          </ns3:TrackPointExtension>
        </extensions>
      </trkpt>
      <trkpt lat="42.51271490938961505889892578125" lon="19.93655626662075519561767578125">
        <ele>1870.800048828125</ele>
        <time>2026-06-17T10:26:01.000Z</time>
        <extensions>
          <ns3:TrackPointExtension>
            <ns3:atemp>20.0</ns3:atemp>
          </ns3:TrackPointExtension>
        </extensions>
      </trkpt>
      <trkpt lat="42.51271490938961505889892578125" lon="19.93655626662075519561767578125">
        <ele>1870.800048828125</ele>
        <time>2026-06-17T10:26:02.000Z</time>
        <extensions>
          <ns3:TrackPointExtension>
            <ns3:atemp>20.0</ns3:atemp>
          </ns3:TrackPointExtension>
        </extensions>
      </trkpt>
      <trkpt lat="42.51271490938961505889892578125" lon="19.93655626662075519561767578125">
        <ele>1870.800048828125</ele>
        <time>2026-06-17T10:26:03.000Z</time>
        <extensions>
          <ns3:TrackPointExtension>
            <ns3:atemp>20.0</ns3:atemp>
          </ns3:TrackPointExtension>
        </extensions>
      </trkpt>
      <trkpt lat="42.51271490938961505889892578125" lon="19.93655626662075519561767578125">
        <ele>1870.800048828125</ele>
        <time>2026-06-17T10:26:04.000Z</time>
        <extensions>
          <ns3:TrackPointExtension>
            <ns3:atemp>20.0</ns3:atemp>
          </ns3:TrackPointExtension>
        </extensions>
      </trkpt>
      <trkpt lat="42.51271490938961505889892578125" lon="19.93655626662075519561767578125">
        <ele>1870.800048828125</ele>
        <time>2026-06-17T10:26:05.000Z</time>
        <extensions>
          <ns3:TrackPointExtension>
            <ns3:atemp>20.0</ns3:atemp>
          </ns3:TrackPointExtension>
        </extensions>
      </trkpt>
      <trkpt lat="42.51271490938961505889892578125" lon="19.93655626662075519561767578125">
        <ele>1870.800048828125</ele>
        <time>2026-06-17T10:26:06.000Z</time>
        <extensions>
          <ns3:TrackPointExtension>
            <ns3:atemp>20.0</ns3:atemp>
          </ns3:TrackPointExtension>
        </extensions>
      </trkpt>
      <trkpt lat="42.51271490938961505889892578125" lon="19.93655626662075519561767578125">
        <ele>1870.800048828125</ele>
        <time>2026-06-17T10:26:07.000Z</time>
        <extensions>
          <ns3:TrackPointExtension>
            <ns3:atemp>20.0</ns3:atemp>
          </ns3:TrackPointExtension>
        </extensions>
      </trkpt>
      <trkpt lat="42.51271490938961505889892578125" lon="19.93655626662075519561767578125">
        <ele>1870.800048828125</ele>
        <time>2026-06-17T10:26:08.000Z</time>
        <extensions>
          <ns3:TrackPointExtension>
            <ns3:atemp>20.0</ns3:atemp>
          </ns3:TrackPointExtension>
        </extensions>
      </trkpt>
      <trkpt lat="42.51271490938961505889892578125" lon="19.93655626662075519561767578125">
        <ele>1870.800048828125</ele>
        <time>2026-06-17T10:26:09.000Z</time>
        <extensions>
          <ns3:TrackPointExtension>
            <ns3:atemp>20.0</ns3:atemp>
          </ns3:TrackPointExtension>
        </extensions>
      </trkpt>
      <trkpt lat="42.51271490938961505889892578125" lon="19.93655626662075519561767578125">
        <ele>1870.800048828125</ele>
        <time>2026-06-17T10:26:10.000Z</time>
        <extensions>
          <ns3:TrackPointExtension>
            <ns3:atemp>20.0</ns3:atemp>
          </ns3:TrackPointExtension>
        </extensions>
      </trkpt>
      <trkpt lat="42.51271490938961505889892578125" lon="19.93655626662075519561767578125">
        <ele>1870.800048828125</ele>
        <time>2026-06-17T10:26:11.000Z</time>
        <extensions>
          <ns3:TrackPointExtension>
            <ns3:atemp>20.0</ns3:atemp>
          </ns3:TrackPointExtension>
        </extensions>
      </trkpt>
      <trkpt lat="42.51271490938961505889892578125" lon="19.93655626662075519561767578125">
        <ele>1870.800048828125</ele>
        <time>2026-06-17T10:26:12.000Z</time>
        <extensions>
          <ns3:TrackPointExtension>
            <ns3:atemp>20.0</ns3:atemp>
          </ns3:TrackPointExtension>
        </extensions>
      </trkpt>
      <trkpt lat="42.51271490938961505889892578125" lon="19.93655626662075519561767578125">
        <ele>1870.800048828125</ele>
        <time>2026-06-17T10:26:13.000Z</time>
        <extensions>
          <ns3:TrackPointExtension>
            <ns3:atemp>20.0</ns3:atemp>
          </ns3:TrackPointExtension>
        </extensions>
      </trkpt>
      <trkpt lat="42.51271490938961505889892578125" lon="19.93655626662075519561767578125">
        <ele>1870.800048828125</ele>
        <time>2026-06-17T10:26:14.000Z</time>
        <extensions>
          <ns3:TrackPointExtension>
            <ns3:atemp>20.0</ns3:atemp>
          </ns3:TrackPointExtension>
        </extensions>
      </trkpt>
      <trkpt lat="42.51271490938961505889892578125" lon="19.93655626662075519561767578125">
        <ele>1870.800048828125</ele>
        <time>2026-06-17T10:26:15.000Z</time>
        <extensions>
          <ns3:TrackPointExtension>
            <ns3:atemp>21.0</ns3:atemp>
          </ns3:TrackPointExtension>
        </extensions>
      </trkpt>
      <trkpt lat="42.51271490938961505889892578125" lon="19.93655626662075519561767578125">
        <ele>1870.800048828125</ele>
        <time>2026-06-17T10:26:16.000Z</time>
        <extensions>
          <ns3:TrackPointExtension>
            <ns3:atemp>20.0</ns3:atemp>
          </ns3:TrackPointExtension>
        </extensions>
      </trkpt>
      <trkpt lat="42.51271490938961505889892578125" lon="19.93655626662075519561767578125">
        <ele>1870.800048828125</ele>
        <time>2026-06-17T10:26:17.000Z</time>
        <extensions>
          <ns3:TrackPointExtension>
            <ns3:atemp>20.0</ns3:atemp>
          </ns3:TrackPointExtension>
        </extensions>
      </trkpt>
      <trkpt lat="42.51271490938961505889892578125" lon="19.93655626662075519561767578125">
        <ele>1870.800048828125</ele>
        <time>2026-06-17T10:26:18.000Z</time>
        <extensions>
          <ns3:TrackPointExtension>
            <ns3:atemp>20.0</ns3:atemp>
          </ns3:TrackPointExtension>
        </extensions>
      </trkpt>
      <trkpt lat="42.51271490938961505889892578125" lon="19.93655626662075519561767578125">
        <ele>1870.800048828125</ele>
        <time>2026-06-17T10:26:19.000Z</time>
        <extensions>
          <ns3:TrackPointExtension>
            <ns3:atemp>20.0</ns3:atemp>
          </ns3:TrackPointExtension>
        </extensions>
      </trkpt>
      <trkpt lat="42.51271490938961505889892578125" lon="19.93655626662075519561767578125">
        <ele>1870.800048828125</ele>
        <time>2026-06-17T10:26:20.000Z</time>
        <extensions>
          <ns3:TrackPointExtension>
            <ns3:atemp>20.0</ns3:atemp>
          </ns3:TrackPointExtension>
        </extensions>
      </trkpt>
      <trkpt lat="42.51271490938961505889892578125" lon="19.93655626662075519561767578125">
        <ele>1870.800048828125</ele>
        <time>2026-06-17T10:26:21.000Z</time>
        <extensions>
          <ns3:TrackPointExtension>
            <ns3:atemp>20.0</ns3:atemp>
          </ns3:TrackPointExtension>
        </extensions>
      </trkpt>
      <trkpt lat="42.51271490938961505889892578125" lon="19.93655626662075519561767578125">
        <ele>1870.800048828125</ele>
        <time>2026-06-17T10:26:22.000Z</time>
        <extensions>
          <ns3:TrackPointExtension>
            <ns3:atemp>20.0</ns3:atemp>
          </ns3:TrackPointExtension>
        </extensions>
      </trkpt>
      <trkpt lat="42.51271490938961505889892578125" lon="19.93655626662075519561767578125">
        <ele>1870.800048828125</ele>
        <time>2026-06-17T10:26:23.000Z</time>
        <extensions>
          <ns3:TrackPointExtension>
            <ns3:atemp>20.0</ns3:atemp>
          </ns3:TrackPointExtension>
        </extensions>
      </trkpt>
      <trkpt lat="42.51271490938961505889892578125" lon="19.93655626662075519561767578125">
        <ele>1870.800048828125</ele>
        <time>2026-06-17T10:26:24.000Z</time>
        <extensions>
          <ns3:TrackPointExtension>
            <ns3:atemp>20.0</ns3:atemp>
          </ns3:TrackPointExtension>
        </extensions>
      </trkpt>
      <trkpt lat="42.51271490938961505889892578125" lon="19.93655626662075519561767578125">
        <ele>1870.800048828125</ele>
        <time>2026-06-17T10:26:25.000Z</time>
        <extensions>
          <ns3:TrackPointExtension>
            <ns3:atemp>20.0</ns3:atemp>
          </ns3:TrackPointExtension>
        </extensions>
      </trkpt>
      <trkpt lat="42.51271490938961505889892578125" lon="19.93655626662075519561767578125">
        <ele>1870.800048828125</ele>
        <time>2026-06-17T10:26:26.000Z</time>
        <extensions>
          <ns3:TrackPointExtension>
            <ns3:atemp>20.0</ns3:atemp>
          </ns3:TrackPointExtension>
        </extensions>
      </trkpt>
      <trkpt lat="42.51271490938961505889892578125" lon="19.93655626662075519561767578125">
        <ele>1870.800048828125</ele>
        <time>2026-06-17T10:26:27.000Z</time>
        <extensions>
          <ns3:TrackPointExtension>
            <ns3:atemp>20.0</ns3:atemp>
          </ns3:TrackPointExtension>
        </extensions>
      </trkpt>
      <trkpt lat="42.51271490938961505889892578125" lon="19.93655626662075519561767578125">
        <ele>1870.800048828125</ele>
        <time>2026-06-17T10:26:28.000Z</time>
        <extensions>
          <ns3:TrackPointExtension>
            <ns3:atemp>20.0</ns3:atemp>
          </ns3:TrackPointExtension>
        </extensions>
      </trkpt>
      <trkpt lat="42.51271490938961505889892578125" lon="19.93655626662075519561767578125">
        <ele>1870.800048828125</ele>
        <time>2026-06-17T10:26:29.000Z</time>
        <extensions>
          <ns3:TrackPointExtension>
            <ns3:atemp>20.0</ns3:atemp>
          </ns3:TrackPointExtension>
        </extensions>
      </trkpt>
      <trkpt lat="42.51271490938961505889892578125" lon="19.93655626662075519561767578125">
        <ele>1870.800048828125</ele>
        <time>2026-06-17T10:26:30.000Z</time>
        <extensions>
          <ns3:TrackPointExtension>
            <ns3:atemp>20.0</ns3:atemp>
          </ns3:TrackPointExtension>
        </extensions>
      </trkpt>
      <trkpt lat="42.51271490938961505889892578125" lon="19.93655626662075519561767578125">
        <ele>1870.800048828125</ele>
        <time>2026-06-17T10:26:31.000Z</time>
        <extensions>
          <ns3:TrackPointExtension>
            <ns3:atemp>20.0</ns3:atemp>
          </ns3:TrackPointExtension>
        </extensions>
      </trkpt>
      <trkpt lat="42.51271490938961505889892578125" lon="19.93655626662075519561767578125">
        <ele>1870.800048828125</ele>
        <time>2026-06-17T10:26:32.000Z</time>
        <extensions>
          <ns3:TrackPointExtension>
            <ns3:atemp>20.0</ns3:atemp>
          </ns3:TrackPointExtension>
        </extensions>
      </trkpt>
      <trkpt lat="42.51271490938961505889892578125" lon="19.93655626662075519561767578125">
        <ele>1870.800048828125</ele>
        <time>2026-06-17T10:26:33.000Z</time>
        <extensions>
          <ns3:TrackPointExtension>
            <ns3:atemp>20.0</ns3:atemp>
          </ns3:TrackPointExtension>
        </extensions>
      </trkpt>
      <trkpt lat="42.51271490938961505889892578125" lon="19.93655626662075519561767578125">
        <ele>1870.800048828125</ele>
        <time>2026-06-17T10:26:34.000Z</time>
        <extensions>
          <ns3:TrackPointExtension>
            <ns3:atemp>20.0</ns3:atemp>
          </ns3:TrackPointExtension>
        </extensions>
      </trkpt>
      <trkpt lat="42.51271490938961505889892578125" lon="19.93655626662075519561767578125">
        <ele>1870.800048828125</ele>
        <time>2026-06-17T10:26:35.000Z</time>
        <extensions>
          <ns3:TrackPointExtension>
            <ns3:atemp>20.0</ns3:atemp>
          </ns3:TrackPointExtension>
        </extensions>
      </trkpt>
      <trkpt lat="42.51271490938961505889892578125" lon="19.93655626662075519561767578125">
        <ele>1870.800048828125</ele>
        <time>2026-06-17T10:26:36.000Z</time>
        <extensions>
          <ns3:TrackPointExtension>
            <ns3:atemp>20.0</ns3:atemp>
          </ns3:TrackPointExtension>
        </extensions>
      </trkpt>
      <trkpt lat="42.51271490938961505889892578125" lon="19.93655626662075519561767578125">
        <ele>1870.800048828125</ele>
        <time>2026-06-17T10:26:37.000Z</time>
        <extensions>
          <ns3:TrackPointExtension>
            <ns3:atemp>20.0</ns3:atemp>
          </ns3:TrackPointExtension>
        </extensions>
      </trkpt>
      <trkpt lat="42.51271490938961505889892578125" lon="19.93655626662075519561767578125">
        <ele>1870.800048828125</ele>
        <time>2026-06-17T10:26:38.000Z</time>
        <extensions>
          <ns3:TrackPointExtension>
            <ns3:atemp>20.0</ns3:atemp>
          </ns3:TrackPointExtension>
        </extensions>
      </trkpt>
      <trkpt lat="42.51271490938961505889892578125" lon="19.93655626662075519561767578125">
        <ele>1870.800048828125</ele>
        <time>2026-06-17T10:26:39.000Z</time>
        <extensions>
          <ns3:TrackPointExtension>
            <ns3:atemp>20.0</ns3:atemp>
          </ns3:TrackPointExtension>
        </extensions>
      </trkpt>
      <trkpt lat="42.51271490938961505889892578125" lon="19.93655626662075519561767578125">
        <ele>1870.800048828125</ele>
        <time>2026-06-17T10:26:40.000Z</time>
        <extensions>
          <ns3:TrackPointExtension>
            <ns3:atemp>20.0</ns3:atemp>
          </ns3:TrackPointExtension>
        </extensions>
      </trkpt>
      <trkpt lat="42.51271490938961505889892578125" lon="19.93655626662075519561767578125">
        <ele>1870.800048828125</ele>
        <time>2026-06-17T10:26:41.000Z</time>
        <extensions>
          <ns3:TrackPointExtension>
            <ns3:atemp>20.0</ns3:atemp>
          </ns3:TrackPointExtension>
        </extensions>
      </trkpt>
      <trkpt lat="42.51271490938961505889892578125" lon="19.93655626662075519561767578125">
        <ele>1870.800048828125</ele>
        <time>2026-06-17T10:26:42.000Z</time>
        <extensions>
          <ns3:TrackPointExtension>
            <ns3:atemp>20.0</ns3:atemp>
          </ns3:TrackPointExtension>
        </extensions>
      </trkpt>
      <trkpt lat="42.51271490938961505889892578125" lon="19.93655626662075519561767578125">
        <ele>1870.800048828125</ele>
        <time>2026-06-17T10:26:43.000Z</time>
        <extensions>
          <ns3:TrackPointExtension>
            <ns3:atemp>20.0</ns3:atemp>
          </ns3:TrackPointExtension>
        </extensions>
      </trkpt>
      <trkpt lat="42.51271490938961505889892578125" lon="19.93655626662075519561767578125">
        <ele>1870.800048828125</ele>
        <time>2026-06-17T10:26:44.000Z</time>
        <extensions>
          <ns3:TrackPointExtension>
            <ns3:atemp>20.0</ns3:atemp>
          </ns3:TrackPointExtension>
        </extensions>
      </trkpt>
      <trkpt lat="42.51271490938961505889892578125" lon="19.93655626662075519561767578125">
        <ele>1870.800048828125</ele>
        <time>2026-06-17T10:26:45.000Z</time>
        <extensions>
          <ns3:TrackPointExtension>
            <ns3:atemp>20.0</ns3:atemp>
          </ns3:TrackPointExtension>
        </extensions>
      </trkpt>
      <trkpt lat="42.51271490938961505889892578125" lon="19.93655626662075519561767578125">
        <ele>1870.800048828125</ele>
        <time>2026-06-17T10:26:46.000Z</time>
        <extensions>
          <ns3:TrackPointExtension>
            <ns3:atemp>20.0</ns3:atemp>
          </ns3:TrackPointExtension>
        </extensions>
      </trkpt>
      <trkpt lat="42.51271490938961505889892578125" lon="19.93655626662075519561767578125">
        <ele>1870.800048828125</ele>
        <time>2026-06-17T10:26:47.000Z</time>
        <extensions>
          <ns3:TrackPointExtension>
            <ns3:atemp>20.0</ns3:atemp>
          </ns3:TrackPointExtension>
        </extensions>
      </trkpt>
      <trkpt lat="42.51271490938961505889892578125" lon="19.93655626662075519561767578125">
        <ele>1870.800048828125</ele>
        <time>2026-06-17T10:26:48.000Z</time>
        <extensions>
          <ns3:TrackPointExtension>
            <ns3:atemp>20.0</ns3:atemp>
          </ns3:TrackPointExtension>
        </extensions>
      </trkpt>
      <trkpt lat="42.51271490938961505889892578125" lon="19.93655626662075519561767578125">
        <ele>1870.800048828125</ele>
        <time>2026-06-17T10:26:49.000Z</time>
        <extensions>
          <ns3:TrackPointExtension>
            <ns3:atemp>20.0</ns3:atemp>
          </ns3:TrackPointExtension>
        </extensions>
      </trkpt>
      <trkpt lat="42.51271490938961505889892578125" lon="19.93655626662075519561767578125">
        <ele>1870.800048828125</ele>
        <time>2026-06-17T10:26:50.000Z</time>
        <extensions>
          <ns3:TrackPointExtension>
            <ns3:atemp>20.0</ns3:atemp>
          </ns3:TrackPointExtension>
        </extensions>
      </trkpt>
      <trkpt lat="42.51271490938961505889892578125" lon="19.93655626662075519561767578125">
        <ele>1870.800048828125</ele>
        <time>2026-06-17T10:26:51.000Z</time>
        <extensions>
          <ns3:TrackPointExtension>
            <ns3:atemp>20.0</ns3:atemp>
          </ns3:TrackPointExtension>
        </extensions>
      </trkpt>
      <trkpt lat="42.51271490938961505889892578125" lon="19.93655626662075519561767578125">
        <ele>1870.800048828125</ele>
        <time>2026-06-17T10:26:52.000Z</time>
        <extensions>
          <ns3:TrackPointExtension>
            <ns3:atemp>21.0</ns3:atemp>
          </ns3:TrackPointExtension>
        </extensions>
      </trkpt>
      <trkpt lat="42.51271490938961505889892578125" lon="19.93655626662075519561767578125">
        <ele>1870.800048828125</ele>
        <time>2026-06-17T10:26:53.000Z</time>
        <extensions>
          <ns3:TrackPointExtension>
            <ns3:atemp>21.0</ns3:atemp>
          </ns3:TrackPointExtension>
        </extensions>
      </trkpt>
      <trkpt lat="42.51271490938961505889892578125" lon="19.93655626662075519561767578125">
        <ele>1870.800048828125</ele>
        <time>2026-06-17T10:26:54.000Z</time>
        <extensions>
          <ns3:TrackPointExtension>
            <ns3:atemp>21.0</ns3:atemp>
          </ns3:TrackPointExtension>
        </extensions>
      </trkpt>
      <trkpt lat="42.51271490938961505889892578125" lon="19.93655626662075519561767578125">
        <ele>1870.800048828125</ele>
        <time>2026-06-17T10:26:55.000Z</time>
        <extensions>
          <ns3:TrackPointExtension>
            <ns3:atemp>21.0</ns3:atemp>
          </ns3:TrackPointExtension>
        </extensions>
      </trkpt>
      <trkpt lat="42.51271490938961505889892578125" lon="19.93655626662075519561767578125">
        <ele>1870.800048828125</ele>
        <time>2026-06-17T10:26:56.000Z</time>
        <extensions>
          <ns3:TrackPointExtension>
            <ns3:atemp>20.0</ns3:atemp>
          </ns3:TrackPointExtension>
        </extensions>
      </trkpt>
      <trkpt lat="42.51271490938961505889892578125" lon="19.93655626662075519561767578125">
        <ele>1870.800048828125</ele>
        <time>2026-06-17T10:26:57.000Z</time>
        <extensions>
          <ns3:TrackPointExtension>
            <ns3:atemp>21.0</ns3:atemp>
          </ns3:TrackPointExtension>
        </extensions>
      </trkpt>
      <trkpt lat="42.51271490938961505889892578125" lon="19.93655626662075519561767578125">
        <ele>1870.800048828125</ele>
        <time>2026-06-17T10:26:58.000Z</time>
        <extensions>
          <ns3:TrackPointExtension>
            <ns3:atemp>21.0</ns3:atemp>
          </ns3:TrackPointExtension>
        </extensions>
      </trkpt>
      <trkpt lat="42.51271490938961505889892578125" lon="19.93655626662075519561767578125">
        <ele>1870.800048828125</ele>
        <time>2026-06-17T10:26:59.000Z</time>
        <extensions>
          <ns3:TrackPointExtension>
            <ns3:atemp>20.0</ns3:atemp>
          </ns3:TrackPointExtension>
        </extensions>
      </trkpt>
      <trkpt lat="42.51271490938961505889892578125" lon="19.93655626662075519561767578125">
        <ele>1870.800048828125</ele>
        <time>2026-06-17T10:27:00.000Z</time>
        <extensions>
          <ns3:TrackPointExtension>
            <ns3:atemp>20.0</ns3:atemp>
          </ns3:TrackPointExtension>
        </extensions>
      </trkpt>
      <trkpt lat="42.51271490938961505889892578125" lon="19.93655626662075519561767578125">
        <ele>1870.800048828125</ele>
        <time>2026-06-17T10:27:01.000Z</time>
        <extensions>
          <ns3:TrackPointExtension>
            <ns3:atemp>21.0</ns3:atemp>
          </ns3:TrackPointExtension>
        </extensions>
      </trkpt>
      <trkpt lat="42.51271490938961505889892578125" lon="19.93655626662075519561767578125">
        <ele>1870.800048828125</ele>
        <time>2026-06-17T10:27:02.000Z</time>
        <extensions>
          <ns3:TrackPointExtension>
            <ns3:atemp>21.0</ns3:atemp>
          </ns3:TrackPointExtension>
        </extensions>
      </trkpt>
      <trkpt lat="42.51271490938961505889892578125" lon="19.93655626662075519561767578125">
        <ele>1870.800048828125</ele>
        <time>2026-06-17T10:27:03.000Z</time>
        <extensions>
          <ns3:TrackPointExtension>
            <ns3:atemp>21.0</ns3:atemp>
          </ns3:TrackPointExtension>
        </extensions>
      </trkpt>
      <trkpt lat="42.51271490938961505889892578125" lon="19.93655626662075519561767578125">
        <ele>1870.800048828125</ele>
        <time>2026-06-17T10:27:04.000Z</time>
        <extensions>
          <ns3:TrackPointExtension>
            <ns3:atemp>21.0</ns3:atemp>
          </ns3:TrackPointExtension>
        </extensions>
      </trkpt>
      <trkpt lat="42.51271490938961505889892578125" lon="19.93655626662075519561767578125">
        <ele>1870.800048828125</ele>
        <time>2026-06-17T10:27:05.000Z</time>
        <extensions>
          <ns3:TrackPointExtension>
            <ns3:atemp>21.0</ns3:atemp>
          </ns3:TrackPointExtension>
        </extensions>
      </trkpt>
      <trkpt lat="42.51271490938961505889892578125" lon="19.93655626662075519561767578125">
        <ele>1870.800048828125</ele>
        <time>2026-06-17T10:27:06.000Z</time>
        <extensions>
          <ns3:TrackPointExtension>
            <ns3:atemp>21.0</ns3:atemp>
          </ns3:TrackPointExtension>
        </extensions>
      </trkpt>
      <trkpt lat="42.51271490938961505889892578125" lon="19.93655626662075519561767578125">
        <ele>1870.800048828125</ele>
        <time>2026-06-17T10:27:07.000Z</time>
        <extensions>
          <ns3:TrackPointExtension>
            <ns3:atemp>21.0</ns3:atemp>
          </ns3:TrackPointExtension>
        </extensions>
      </trkpt>
      <trkpt lat="42.51271490938961505889892578125" lon="19.93655626662075519561767578125">
        <ele>1870.800048828125</ele>
        <time>2026-06-17T10:27:08.000Z</time>
        <extensions>
          <ns3:TrackPointExtension>
            <ns3:atemp>21.0</ns3:atemp>
          </ns3:TrackPointExtension>
        </extensions>
      </trkpt>
      <trkpt lat="42.51271490938961505889892578125" lon="19.93655626662075519561767578125">
        <ele>1870.800048828125</ele>
        <time>2026-06-17T10:27:09.000Z</time>
        <extensions>
          <ns3:TrackPointExtension>
            <ns3:atemp>21.0</ns3:atemp>
          </ns3:TrackPointExtension>
        </extensions>
      </trkpt>
      <trkpt lat="42.51271490938961505889892578125" lon="19.93655626662075519561767578125">
        <ele>1870.800048828125</ele>
        <time>2026-06-17T10:27:10.000Z</time>
        <extensions>
          <ns3:TrackPointExtension>
            <ns3:atemp>21.0</ns3:atemp>
          </ns3:TrackPointExtension>
        </extensions>
      </trkpt>
      <trkpt lat="42.51271490938961505889892578125" lon="19.93655626662075519561767578125">
        <ele>1870.800048828125</ele>
        <time>2026-06-17T10:27:11.000Z</time>
        <extensions>
          <ns3:TrackPointExtension>
            <ns3:atemp>21.0</ns3:atemp>
          </ns3:TrackPointExtension>
        </extensions>
      </trkpt>
      <trkpt lat="42.51271490938961505889892578125" lon="19.93655626662075519561767578125">
        <ele>1870.800048828125</ele>
        <time>2026-06-17T10:27:12.000Z</time>
        <extensions>
          <ns3:TrackPointExtension>
            <ns3:atemp>21.0</ns3:atemp>
          </ns3:TrackPointExtension>
        </extensions>
      </trkpt>
      <trkpt lat="42.51271490938961505889892578125" lon="19.93655626662075519561767578125">
        <ele>1870.800048828125</ele>
        <time>2026-06-17T10:27:13.000Z</time>
        <extensions>
          <ns3:TrackPointExtension>
            <ns3:atemp>21.0</ns3:atemp>
          </ns3:TrackPointExtension>
        </extensions>
      </trkpt>
      <trkpt lat="42.51271490938961505889892578125" lon="19.93655626662075519561767578125">
        <ele>1870.800048828125</ele>
        <time>2026-06-17T10:27:14.000Z</time>
        <extensions>
          <ns3:TrackPointExtension>
            <ns3:atemp>21.0</ns3:atemp>
          </ns3:TrackPointExtension>
        </extensions>
      </trkpt>
      <trkpt lat="42.51271490938961505889892578125" lon="19.93655626662075519561767578125">
        <ele>1870.800048828125</ele>
        <time>2026-06-17T10:27:15.000Z</time>
        <extensions>
          <ns3:TrackPointExtension>
            <ns3:atemp>21.0</ns3:atemp>
          </ns3:TrackPointExtension>
        </extensions>
      </trkpt>
      <trkpt lat="42.51271490938961505889892578125" lon="19.93655626662075519561767578125">
        <ele>1870.800048828125</ele>
        <time>2026-06-17T10:27:16.000Z</time>
        <extensions>
          <ns3:TrackPointExtension>
            <ns3:atemp>21.0</ns3:atemp>
          </ns3:TrackPointExtension>
        </extensions>
      </trkpt>
      <trkpt lat="42.51271490938961505889892578125" lon="19.93655626662075519561767578125">
        <ele>1870.800048828125</ele>
        <time>2026-06-17T10:27:17.000Z</time>
        <extensions>
          <ns3:TrackPointExtension>
            <ns3:atemp>21.0</ns3:atemp>
          </ns3:TrackPointExtension>
        </extensions>
      </trkpt>
      <trkpt lat="42.51271490938961505889892578125" lon="19.93655626662075519561767578125">
        <ele>1870.800048828125</ele>
        <time>2026-06-17T10:27:18.000Z</time>
        <extensions>
          <ns3:TrackPointExtension>
            <ns3:atemp>21.0</ns3:atemp>
          </ns3:TrackPointExtension>
        </extensions>
      </trkpt>
      <trkpt lat="42.51271490938961505889892578125" lon="19.93655626662075519561767578125">
        <ele>1870.800048828125</ele>
        <time>2026-06-17T10:27:19.000Z</time>
        <extensions>
          <ns3:TrackPointExtension>
            <ns3:atemp>21.0</ns3:atemp>
          </ns3:TrackPointExtension>
        </extensions>
      </trkpt>
      <trkpt lat="42.51271490938961505889892578125" lon="19.93655626662075519561767578125">
        <ele>1870.800048828125</ele>
        <time>2026-06-17T10:27:20.000Z</time>
        <extensions>
          <ns3:TrackPointExtension>
            <ns3:atemp>21.0</ns3:atemp>
          </ns3:TrackPointExtension>
        </extensions>
      </trkpt>
      <trkpt lat="42.51271490938961505889892578125" lon="19.93655626662075519561767578125">
        <ele>1870.800048828125</ele>
        <time>2026-06-17T10:27:21.000Z</time>
        <extensions>
          <ns3:TrackPointExtension>
            <ns3:atemp>21.0</ns3:atemp>
          </ns3:TrackPointExtension>
        </extensions>
      </trkpt>
      <trkpt lat="42.51271490938961505889892578125" lon="19.93655626662075519561767578125">
        <ele>1870.800048828125</ele>
        <time>2026-06-17T10:27:22.000Z</time>
        <extensions>
          <ns3:TrackPointExtension>
            <ns3:atemp>21.0</ns3:atemp>
          </ns3:TrackPointExtension>
        </extensions>
      </trkpt>
      <trkpt lat="42.51271490938961505889892578125" lon="19.93655626662075519561767578125">
        <ele>1870.800048828125</ele>
        <time>2026-06-17T10:27:23.000Z</time>
        <extensions>
          <ns3:TrackPointExtension>
            <ns3:atemp>21.0</ns3:atemp>
          </ns3:TrackPointExtension>
        </extensions>
      </trkpt>
      <trkpt lat="42.51271490938961505889892578125" lon="19.93655626662075519561767578125">
        <ele>1870.800048828125</ele>
        <time>2026-06-17T10:27:24.000Z</time>
        <extensions>
          <ns3:TrackPointExtension>
            <ns3:atemp>21.0</ns3:atemp>
          </ns3:TrackPointExtension>
        </extensions>
      </trkpt>
      <trkpt lat="42.51271490938961505889892578125" lon="19.93655626662075519561767578125">
        <ele>1870.800048828125</ele>
        <time>2026-06-17T10:27:25.000Z</time>
        <extensions>
          <ns3:TrackPointExtension>
            <ns3:atemp>21.0</ns3:atemp>
          </ns3:TrackPointExtension>
        </extensions>
      </trkpt>
      <trkpt lat="42.51271490938961505889892578125" lon="19.93655626662075519561767578125">
        <ele>1870.800048828125</ele>
        <time>2026-06-17T10:27:26.000Z</time>
        <extensions>
          <ns3:TrackPointExtension>
            <ns3:atemp>21.0</ns3:atemp>
          </ns3:TrackPointExtension>
        </extensions>
      </trkpt>
      <trkpt lat="42.51271490938961505889892578125" lon="19.93655626662075519561767578125">
        <ele>1870.800048828125</ele>
        <time>2026-06-17T10:27:27.000Z</time>
        <extensions>
          <ns3:TrackPointExtension>
            <ns3:atemp>21.0</ns3:atemp>
          </ns3:TrackPointExtension>
        </extensions>
      </trkpt>
      <trkpt lat="42.51271490938961505889892578125" lon="19.93655626662075519561767578125">
        <ele>1870.800048828125</ele>
        <time>2026-06-17T10:27:28.000Z</time>
        <extensions>
          <ns3:TrackPointExtension>
            <ns3:atemp>21.0</ns3:atemp>
          </ns3:TrackPointExtension>
        </extensions>
      </trkpt>
      <trkpt lat="42.51271490938961505889892578125" lon="19.93655626662075519561767578125">
        <ele>1870.800048828125</ele>
        <time>2026-06-17T10:27:29.000Z</time>
        <extensions>
          <ns3:TrackPointExtension>
            <ns3:atemp>21.0</ns3:atemp>
          </ns3:TrackPointExtension>
        </extensions>
      </trkpt>
      <trkpt lat="42.51271490938961505889892578125" lon="19.93655626662075519561767578125">
        <ele>1870.800048828125</ele>
        <time>2026-06-17T10:27:30.000Z</time>
        <extensions>
          <ns3:TrackPointExtension>
            <ns3:atemp>21.0</ns3:atemp>
          </ns3:TrackPointExtension>
        </extensions>
      </trkpt>
      <trkpt lat="42.51271490938961505889892578125" lon="19.93655626662075519561767578125">
        <ele>1870.800048828125</ele>
        <time>2026-06-17T10:27:31.000Z</time>
        <extensions>
          <ns3:TrackPointExtension>
            <ns3:atemp>21.0</ns3:atemp>
          </ns3:TrackPointExtension>
        </extensions>
      </trkpt>
      <trkpt lat="42.51271490938961505889892578125" lon="19.93655626662075519561767578125">
        <ele>1870.800048828125</ele>
        <time>2026-06-17T10:27:32.000Z</time>
        <extensions>
          <ns3:TrackPointExtension>
            <ns3:atemp>21.0</ns3:atemp>
          </ns3:TrackPointExtension>
        </extensions>
      </trkpt>
      <trkpt lat="42.51271490938961505889892578125" lon="19.93655626662075519561767578125">
        <ele>1870.800048828125</ele>
        <time>2026-06-17T10:27:33.000Z</time>
        <extensions>
          <ns3:TrackPointExtension>
            <ns3:atemp>21.0</ns3:atemp>
          </ns3:TrackPointExtension>
        </extensions>
      </trkpt>
      <trkpt lat="42.51271490938961505889892578125" lon="19.93655626662075519561767578125">
        <ele>1870.800048828125</ele>
        <time>2026-06-17T10:27:34.000Z</time>
        <extensions>
          <ns3:TrackPointExtension>
            <ns3:atemp>21.0</ns3:atemp>
          </ns3:TrackPointExtension>
        </extensions>
      </trkpt>
      <trkpt lat="42.51271490938961505889892578125" lon="19.93655626662075519561767578125">
        <ele>1870.800048828125</ele>
        <time>2026-06-17T10:27:35.000Z</time>
        <extensions>
          <ns3:TrackPointExtension>
            <ns3:atemp>21.0</ns3:atemp>
          </ns3:TrackPointExtension>
        </extensions>
      </trkpt>
      <trkpt lat="42.51271490938961505889892578125" lon="19.93655626662075519561767578125">
        <ele>1870.800048828125</ele>
        <time>2026-06-17T10:27:36.000Z</time>
        <extensions>
          <ns3:TrackPointExtension>
            <ns3:atemp>21.0</ns3:atemp>
          </ns3:TrackPointExtension>
        </extensions>
      </trkpt>
      <trkpt lat="42.51271490938961505889892578125" lon="19.93655626662075519561767578125">
        <ele>1870.800048828125</ele>
        <time>2026-06-17T10:27:37.000Z</time>
        <extensions>
          <ns3:TrackPointExtension>
            <ns3:atemp>21.0</ns3:atemp>
          </ns3:TrackPointExtension>
        </extensions>
      </trkpt>
      <trkpt lat="42.51271490938961505889892578125" lon="19.93655626662075519561767578125">
        <ele>1870.800048828125</ele>
        <time>2026-06-17T10:27:38.000Z</time>
        <extensions>
          <ns3:TrackPointExtension>
            <ns3:atemp>21.0</ns3:atemp>
          </ns3:TrackPointExtension>
        </extensions>
      </trkpt>
      <trkpt lat="42.51271490938961505889892578125" lon="19.93655626662075519561767578125">
        <ele>1870.800048828125</ele>
        <time>2026-06-17T10:27:39.000Z</time>
        <extensions>
          <ns3:TrackPointExtension>
            <ns3:atemp>21.0</ns3:atemp>
          </ns3:TrackPointExtension>
        </extensions>
      </trkpt>
      <trkpt lat="42.51271490938961505889892578125" lon="19.93655626662075519561767578125">
        <ele>1870.800048828125</ele>
        <time>2026-06-17T10:27:40.000Z</time>
        <extensions>
          <ns3:TrackPointExtension>
            <ns3:atemp>21.0</ns3:atemp>
          </ns3:TrackPointExtension>
        </extensions>
      </trkpt>
      <trkpt lat="42.51271490938961505889892578125" lon="19.93655626662075519561767578125">
        <ele>1870.800048828125</ele>
        <time>2026-06-17T10:27:41.000Z</time>
        <extensions>
          <ns3:TrackPointExtension>
            <ns3:atemp>21.0</ns3:atemp>
          </ns3:TrackPointExtension>
        </extensions>
      </trkpt>
      <trkpt lat="42.51271490938961505889892578125" lon="19.93655626662075519561767578125">
        <ele>1870.800048828125</ele>
        <time>2026-06-17T10:27:42.000Z</time>
        <extensions>
          <ns3:TrackPointExtension>
            <ns3:atemp>21.0</ns3:atemp>
          </ns3:TrackPointExtension>
        </extensions>
      </trkpt>
      <trkpt lat="42.51271490938961505889892578125" lon="19.93655626662075519561767578125">
        <ele>1870.800048828125</ele>
        <time>2026-06-17T10:27:43.000Z</time>
        <extensions>
          <ns3:TrackPointExtension>
            <ns3:atemp>21.0</ns3:atemp>
          </ns3:TrackPointExtension>
        </extensions>
      </trkpt>
      <trkpt lat="42.51271490938961505889892578125" lon="19.93655626662075519561767578125">
        <ele>1870.800048828125</ele>
        <time>2026-06-17T10:27:44.000Z</time>
        <extensions>
          <ns3:TrackPointExtension>
            <ns3:atemp>21.0</ns3:atemp>
          </ns3:TrackPointExtension>
        </extensions>
      </trkpt>
      <trkpt lat="42.51271490938961505889892578125" lon="19.93655626662075519561767578125">
        <ele>1870.800048828125</ele>
        <time>2026-06-17T10:27:45.000Z</time>
        <extensions>
          <ns3:TrackPointExtension>
            <ns3:atemp>21.0</ns3:atemp>
          </ns3:TrackPointExtension>
        </extensions>
      </trkpt>
      <trkpt lat="42.51271490938961505889892578125" lon="19.93655626662075519561767578125">
        <ele>1870.800048828125</ele>
        <time>2026-06-17T10:27:46.000Z</time>
        <extensions>
          <ns3:TrackPointExtension>
            <ns3:atemp>21.0</ns3:atemp>
          </ns3:TrackPointExtension>
        </extensions>
      </trkpt>
      <trkpt lat="42.51271490938961505889892578125" lon="19.93655626662075519561767578125">
        <ele>1870.800048828125</ele>
        <time>2026-06-17T10:27:47.000Z</time>
        <extensions>
          <ns3:TrackPointExtension>
            <ns3:atemp>21.0</ns3:atemp>
          </ns3:TrackPointExtension>
        </extensions>
      </trkpt>
      <trkpt lat="42.51271490938961505889892578125" lon="19.93655626662075519561767578125">
        <ele>1870.800048828125</ele>
        <time>2026-06-17T10:27:48.000Z</time>
        <extensions>
          <ns3:TrackPointExtension>
            <ns3:atemp>21.0</ns3:atemp>
          </ns3:TrackPointExtension>
        </extensions>
      </trkpt>
      <trkpt lat="42.51271490938961505889892578125" lon="19.93655626662075519561767578125">
        <ele>1870.800048828125</ele>
        <time>2026-06-17T10:27:49.000Z</time>
        <extensions>
          <ns3:TrackPointExtension>
            <ns3:atemp>21.0</ns3:atemp>
          </ns3:TrackPointExtension>
        </extensions>
      </trkpt>
      <trkpt lat="42.51271490938961505889892578125" lon="19.93655626662075519561767578125">
        <ele>1870.800048828125</ele>
        <time>2026-06-17T10:27:50.000Z</time>
        <extensions>
          <ns3:TrackPointExtension>
            <ns3:atemp>21.0</ns3:atemp>
          </ns3:TrackPointExtension>
        </extensions>
      </trkpt>
      <trkpt lat="42.51271490938961505889892578125" lon="19.93655626662075519561767578125">
        <ele>1870.800048828125</ele>
        <time>2026-06-17T10:27:51.000Z</time>
        <extensions>
          <ns3:TrackPointExtension>
            <ns3:atemp>21.0</ns3:atemp>
          </ns3:TrackPointExtension>
        </extensions>
      </trkpt>
      <trkpt lat="42.51271490938961505889892578125" lon="19.93655626662075519561767578125">
        <ele>1870.800048828125</ele>
        <time>2026-06-17T10:27:52.000Z</time>
        <extensions>
          <ns3:TrackPointExtension>
            <ns3:atemp>21.0</ns3:atemp>
          </ns3:TrackPointExtension>
        </extensions>
      </trkpt>
      <trkpt lat="42.51271490938961505889892578125" lon="19.93655626662075519561767578125">
        <ele>1870.800048828125</ele>
        <time>2026-06-17T10:27:53.000Z</time>
        <extensions>
          <ns3:TrackPointExtension>
            <ns3:atemp>21.0</ns3:atemp>
          </ns3:TrackPointExtension>
        </extensions>
      </trkpt>
      <trkpt lat="42.51271524466574192047119140625" lon="19.9365560151636600494384765625">
        <ele>1870.800048828125</ele>
        <time>2026-06-17T10:27:54.000Z</time>
        <extensions>
          <ns3:TrackPointExtension>
            <ns3:atemp>21.0</ns3:atemp>
          </ns3:TrackPointExtension>
        </extensions>
      </trkpt>
      <trkpt lat="42.51272060908377170562744140625" lon="19.9365472979843616485595703125">
        <ele>1870.800048828125</ele>
        <time>2026-06-17T10:27:55.000Z</time>
        <extensions>
          <ns3:TrackPointExtension>
            <ns3:atemp>21.0</ns3:atemp>
          </ns3:TrackPointExtension>
        </extensions>
      </trkpt>
      <trkpt lat="42.51273192465305328369140625" lon="19.9365238286554813385009765625">
        <ele>1871</ele>
        <time>2026-06-17T10:27:56.000Z</time>
        <extensions>
          <ns3:TrackPointExtension>
            <ns3:atemp>21.0</ns3:atemp>
          </ns3:TrackPointExtension>
        </extensions>
      </trkpt>
      <trkpt lat="42.512742988765239715576171875" lon="19.93648870848119258880615234375">
        <ele>1871</ele>
        <time>2026-06-17T10:27:57.000Z</time>
        <extensions>
          <ns3:TrackPointExtension>
            <ns3:atemp>21.0</ns3:atemp>
          </ns3:TrackPointExtension>
        </extensions>
      </trkpt>
      <trkpt lat="42.512749023735523223876953125" lon="19.93646004237234592437744140625">
        <ele>1870.800048828125</ele>
        <time>2026-06-17T10:27:58.000Z</time>
        <extensions>
          <ns3:TrackPointExtension>
            <ns3:atemp>21.0</ns3:atemp>
          </ns3:TrackPointExtension>
        </extensions>
      </trkpt>
      <trkpt lat="42.51275681890547275543212890625" lon="19.936433471739292144775390625">
        <ele>1870.800048828125</ele>
        <time>2026-06-17T10:27:59.000Z</time>
        <extensions>
          <ns3:TrackPointExtension>
            <ns3:atemp>21.0</ns3:atemp>
          </ns3:TrackPointExtension>
        </extensions>
      </trkpt>
      <trkpt lat="42.51276402734220027923583984375" lon="19.93640908040106296539306640625">
        <ele>1870.5999755859375</ele>
        <time>2026-06-17T10:28:00.000Z</time>
        <extensions>
          <ns3:TrackPointExtension>
            <ns3:atemp>21.0</ns3:atemp>
          </ns3:TrackPointExtension>
        </extensions>
      </trkpt>
      <trkpt lat="42.512772493064403533935546875" lon="19.9363833479583263397216796875">
        <ele>1870.5999755859375</ele>
        <time>2026-06-17T10:28:01.000Z</time>
        <extensions>
          <ns3:TrackPointExtension>
            <ns3:atemp>21.0</ns3:atemp>
          </ns3:TrackPointExtension>
        </extensions>
      </trkpt>
      <trkpt lat="42.51278347335755825042724609375" lon="19.93636130355298519134521484375">
        <ele>1870.4000244140625</ele>
        <time>2026-06-17T10:28:02.000Z</time>
        <extensions>
          <ns3:TrackPointExtension>
            <ns3:atemp>21.0</ns3:atemp>
          </ns3:TrackPointExtension>
        </extensions>
      </trkpt>
      <trkpt lat="42.5127847306430339813232421875" lon="19.93633364327251911163330078125">
        <ele>1870.199951171875</ele>
        <time>2026-06-17T10:28:03.000Z</time>
        <extensions>
          <ns3:TrackPointExtension>
            <ns3:atemp>21.0</ns3:atemp>
          </ns3:TrackPointExtension>
        </extensions>
      </trkpt>
      <trkpt lat="42.51277777366340160369873046875" lon="19.9363062344491481781005859375">
        <ele>1870</ele>
        <time>2026-06-17T10:28:04.000Z</time>
        <extensions>
          <ns3:TrackPointExtension>
            <ns3:atemp>21.0</ns3:atemp>
          </ns3:TrackPointExtension>
        </extensions>
      </trkpt>
      <trkpt lat="42.51276838593184947967529296875" lon="19.936285950243473052978515625">
        <ele>1869.5999755859375</ele>
        <time>2026-06-17T10:28:05.000Z</time>
        <extensions>
          <ns3:TrackPointExtension>
            <ns3:atemp>21.0</ns3:atemp>
          </ns3:TrackPointExtension>
        </extensions>
      </trkpt>
      <trkpt lat="42.51275950111448764801025390625" lon="19.936268515884876251220703125">
        <ele>1869.199951171875</ele>
        <time>2026-06-17T10:28:06.000Z</time>
        <extensions>
          <ns3:TrackPointExtension>
            <ns3:atemp>21.0</ns3:atemp>
          </ns3:TrackPointExtension>
        </extensions>
      </trkpt>
      <trkpt lat="42.51275564543902873992919921875" lon="19.93625736795365810394287109375">
        <ele>1869</ele>
        <time>2026-06-17T10:28:07.000Z</time>
        <extensions>
          <ns3:TrackPointExtension>
            <ns3:atemp>21.0</ns3:atemp>
          </ns3:TrackPointExtension>
        </extensions>
      </trkpt>
      <trkpt lat="42.51275463961064815521240234375" lon="19.93624932132661342620849609375">
        <ele>1868.5999755859375</ele>
        <time>2026-06-17T10:28:08.000Z</time>
        <extensions>
          <ns3:TrackPointExtension>
            <ns3:atemp>21.0</ns3:atemp>
          </ns3:TrackPointExtension>
        </extensions>
      </trkpt>
      <trkpt lat="42.5127569027245044708251953125" lon="19.93624873459339141845703125">
        <ele>1868.4000244140625</ele>
        <time>2026-06-17T10:28:09.000Z</time>
        <extensions>
          <ns3:TrackPointExtension>
            <ns3:atemp>21.0</ns3:atemp>
          </ns3:TrackPointExtension>
        </extensions>
      </trkpt>
      <trkpt lat="42.5127569027245044708251953125" lon="19.93624873459339141845703125">
        <ele>1868.199951171875</ele>
        <time>2026-06-17T10:28:10.000Z</time>
        <extensions>
          <ns3:TrackPointExtension>
            <ns3:atemp>21.0</ns3:atemp>
          </ns3:TrackPointExtension>
        </extensions>
      </trkpt>
      <trkpt lat="42.5127569027245044708251953125" lon="19.93624873459339141845703125">
        <ele>1868</ele>
        <time>2026-06-17T10:28:11.000Z</time>
        <extensions>
          <ns3:TrackPointExtension>
            <ns3:atemp>21.0</ns3:atemp>
          </ns3:TrackPointExtension>
        </extensions>
      </trkpt>
      <trkpt lat="42.5127569027245044708251953125" lon="19.93624873459339141845703125">
        <ele>1868</ele>
        <time>2026-06-17T10:28:12.000Z</time>
        <extensions>
          <ns3:TrackPointExtension>
            <ns3:atemp>21.0</ns3:atemp>
          </ns3:TrackPointExtension>
        </extensions>
      </trkpt>
      <trkpt lat="42.5127569027245044708251953125" lon="19.93624873459339141845703125">
        <ele>1867.800048828125</ele>
        <time>2026-06-17T10:28:13.000Z</time>
        <extensions>
          <ns3:TrackPointExtension>
            <ns3:atemp>21.0</ns3:atemp>
          </ns3:TrackPointExtension>
        </extensions>
      </trkpt>
      <trkpt lat="42.5127569027245044708251953125" lon="19.93624873459339141845703125">
        <ele>1867.800048828125</ele>
        <time>2026-06-17T10:28:14.000Z</time>
        <extensions>
          <ns3:TrackPointExtension>
            <ns3:atemp>21.0</ns3:atemp>
          </ns3:TrackPointExtension>
        </extensions>
      </trkpt>
      <trkpt lat="42.5127569027245044708251953125" lon="19.93624873459339141845703125">
        <ele>1867.800048828125</ele>
        <time>2026-06-17T10:28:15.000Z</time>
        <extensions>
          <ns3:TrackPointExtension>
            <ns3:atemp>21.0</ns3:atemp>
          </ns3:TrackPointExtension>
        </extensions>
      </trkpt>
      <trkpt lat="42.5127569027245044708251953125" lon="19.93624873459339141845703125">
        <ele>1867.800048828125</ele>
        <time>2026-06-17T10:28:16.000Z</time>
        <extensions>
          <ns3:TrackPointExtension>
            <ns3:atemp>21.0</ns3:atemp>
          </ns3:TrackPointExtension>
        </extensions>
      </trkpt>
      <trkpt lat="42.5127569027245044708251953125" lon="19.93624873459339141845703125">
        <ele>1867.800048828125</ele>
        <time>2026-06-17T10:28:17.000Z</time>
        <extensions>
          <ns3:TrackPointExtension>
            <ns3:atemp>21.0</ns3:atemp>
          </ns3:TrackPointExtension>
        </extensions>
      </trkpt>
      <trkpt lat="42.5127569027245044708251953125" lon="19.93624873459339141845703125">
        <ele>1867.800048828125</ele>
        <time>2026-06-17T10:28:18.000Z</time>
        <extensions>
          <ns3:TrackPointExtension>
            <ns3:atemp>21.0</ns3:atemp>
          </ns3:TrackPointExtension>
        </extensions>
      </trkpt>
      <trkpt lat="42.5127569027245044708251953125" lon="19.93624873459339141845703125">
        <ele>1867.800048828125</ele>
        <time>2026-06-17T10:28:19.000Z</time>
        <extensions>
          <ns3:TrackPointExtension>
            <ns3:atemp>21.0</ns3:atemp>
          </ns3:TrackPointExtension>
        </extensions>
      </trkpt>
      <trkpt lat="42.5127569027245044708251953125" lon="19.93624873459339141845703125">
        <ele>1867.800048828125</ele>
        <time>2026-06-17T10:28:20.000Z</time>
        <extensions>
          <ns3:TrackPointExtension>
            <ns3:atemp>21.0</ns3:atemp>
          </ns3:TrackPointExtension>
        </extensions>
      </trkpt>
      <trkpt lat="42.5127569027245044708251953125" lon="19.93624873459339141845703125">
        <ele>1867.800048828125</ele>
        <time>2026-06-17T10:28:21.000Z</time>
        <extensions>
          <ns3:TrackPointExtension>
            <ns3:atemp>21.0</ns3:atemp>
          </ns3:TrackPointExtension>
        </extensions>
      </trkpt>
      <trkpt lat="42.5127569027245044708251953125" lon="19.93624873459339141845703125">
        <ele>1867.800048828125</ele>
        <time>2026-06-17T10:28:22.000Z</time>
        <extensions>
          <ns3:TrackPointExtension>
            <ns3:atemp>21.0</ns3:atemp>
          </ns3:TrackPointExtension>
        </extensions>
      </trkpt>
      <trkpt lat="42.5127569027245044708251953125" lon="19.93624873459339141845703125">
        <ele>1867.800048828125</ele>
        <time>2026-06-17T10:28:23.000Z</time>
        <extensions>
          <ns3:TrackPointExtension>
            <ns3:atemp>21.0</ns3:atemp>
          </ns3:TrackPointExtension>
        </extensions>
      </trkpt>
      <trkpt lat="42.5127569027245044708251953125" lon="19.93624873459339141845703125">
        <ele>1867.800048828125</ele>
        <time>2026-06-17T10:28:24.000Z</time>
        <extensions>
          <ns3:TrackPointExtension>
            <ns3:atemp>21.0</ns3:atemp>
          </ns3:TrackPointExtension>
        </extensions>
      </trkpt>
      <trkpt lat="42.5127569027245044708251953125" lon="19.93624873459339141845703125">
        <ele>1867.800048828125</ele>
        <time>2026-06-17T10:28:25.000Z</time>
        <extensions>
          <ns3:TrackPointExtension>
            <ns3:atemp>21.0</ns3:atemp>
          </ns3:TrackPointExtension>
        </extensions>
      </trkpt>
      <trkpt lat="42.5127569027245044708251953125" lon="19.93624873459339141845703125">
        <ele>1867.800048828125</ele>
        <time>2026-06-17T10:28:26.000Z</time>
        <extensions>
          <ns3:TrackPointExtension>
            <ns3:atemp>21.0</ns3:atemp>
          </ns3:TrackPointExtension>
        </extensions>
      </trkpt>
      <trkpt lat="42.5127569027245044708251953125" lon="19.93624873459339141845703125">
        <ele>1867.800048828125</ele>
        <time>2026-06-17T10:28:27.000Z</time>
        <extensions>
          <ns3:TrackPointExtension>
            <ns3:atemp>21.0</ns3:atemp>
          </ns3:TrackPointExtension>
        </extensions>
      </trkpt>
      <trkpt lat="42.5127569027245044708251953125" lon="19.93624873459339141845703125">
        <ele>1867.800048828125</ele>
        <time>2026-06-17T10:28:28.000Z</time>
        <extensions>
          <ns3:TrackPointExtension>
            <ns3:atemp>21.0</ns3:atemp>
          </ns3:TrackPointExtension>
        </extensions>
      </trkpt>
      <trkpt lat="42.5127569027245044708251953125" lon="19.93624873459339141845703125">
        <ele>1867.800048828125</ele>
        <time>2026-06-17T10:28:29.000Z</time>
        <extensions>
          <ns3:TrackPointExtension>
            <ns3:atemp>21.0</ns3:atemp>
          </ns3:TrackPointExtension>
        </extensions>
      </trkpt>
      <trkpt lat="42.5127569027245044708251953125" lon="19.93624873459339141845703125">
        <ele>1867.800048828125</ele>
        <time>2026-06-17T10:28:30.000Z</time>
        <extensions>
          <ns3:TrackPointExtension>
            <ns3:atemp>21.0</ns3:atemp>
          </ns3:TrackPointExtension>
        </extensions>
      </trkpt>
      <trkpt lat="42.5127569027245044708251953125" lon="19.93624873459339141845703125">
        <ele>1867.800048828125</ele>
        <time>2026-06-17T10:28:31.000Z</time>
        <extensions>
          <ns3:TrackPointExtension>
            <ns3:atemp>21.0</ns3:atemp>
          </ns3:TrackPointExtension>
        </extensions>
      </trkpt>
      <trkpt lat="42.5127569027245044708251953125" lon="19.93624873459339141845703125">
        <ele>1867.800048828125</ele>
        <time>2026-06-17T10:28:32.000Z</time>
        <extensions>
          <ns3:TrackPointExtension>
            <ns3:atemp>21.0</ns3:atemp>
          </ns3:TrackPointExtension>
        </extensions>
      </trkpt>
      <trkpt lat="42.5127569027245044708251953125" lon="19.93624873459339141845703125">
        <ele>1867.5999755859375</ele>
        <time>2026-06-17T10:28:33.000Z</time>
        <extensions>
          <ns3:TrackPointExtension>
            <ns3:atemp>21.0</ns3:atemp>
          </ns3:TrackPointExtension>
        </extensions>
      </trkpt>
      <trkpt lat="42.5127569027245044708251953125" lon="19.93624873459339141845703125">
        <ele>1867.5999755859375</ele>
        <time>2026-06-17T10:28:34.000Z</time>
        <extensions>
          <ns3:TrackPointExtension>
            <ns3:atemp>21.0</ns3:atemp>
          </ns3:TrackPointExtension>
        </extensions>
      </trkpt>
      <trkpt lat="42.5127569027245044708251953125" lon="19.93624873459339141845703125">
        <ele>1867.5999755859375</ele>
        <time>2026-06-17T10:28:35.000Z</time>
        <extensions>
          <ns3:TrackPointExtension>
            <ns3:atemp>21.0</ns3:atemp>
          </ns3:TrackPointExtension>
        </extensions>
      </trkpt>
      <trkpt lat="42.5127569027245044708251953125" lon="19.93624873459339141845703125">
        <ele>1867.5999755859375</ele>
        <time>2026-06-17T10:28:36.000Z</time>
        <extensions>
          <ns3:TrackPointExtension>
            <ns3:atemp>21.0</ns3:atemp>
          </ns3:TrackPointExtension>
        </extensions>
      </trkpt>
      <trkpt lat="42.5127569027245044708251953125" lon="19.93624873459339141845703125">
        <ele>1867.5999755859375</ele>
        <time>2026-06-17T10:28:37.000Z</time>
        <extensions>
          <ns3:TrackPointExtension>
            <ns3:atemp>21.0</ns3:atemp>
          </ns3:TrackPointExtension>
        </extensions>
      </trkpt>
      <trkpt lat="42.5127569027245044708251953125" lon="19.93624873459339141845703125">
        <ele>1867.5999755859375</ele>
        <time>2026-06-17T10:28:38.000Z</time>
        <extensions>
          <ns3:TrackPointExtension>
            <ns3:atemp>21.0</ns3:atemp>
          </ns3:TrackPointExtension>
        </extensions>
      </trkpt>
      <trkpt lat="42.5127569027245044708251953125" lon="19.93624873459339141845703125">
        <ele>1867.5999755859375</ele>
        <time>2026-06-17T10:28:39.000Z</time>
        <extensions>
          <ns3:TrackPointExtension>
            <ns3:atemp>21.0</ns3:atemp>
          </ns3:TrackPointExtension>
        </extensions>
      </trkpt>
      <trkpt lat="42.5127569027245044708251953125" lon="19.93624873459339141845703125">
        <ele>1867.5999755859375</ele>
        <time>2026-06-17T10:28:40.000Z</time>
        <extensions>
          <ns3:TrackPointExtension>
            <ns3:atemp>21.0</ns3:atemp>
          </ns3:TrackPointExtension>
        </extensions>
      </trkpt>
      <trkpt lat="42.5127569027245044708251953125" lon="19.93624873459339141845703125">
        <ele>1867.800048828125</ele>
        <time>2026-06-17T10:28:41.000Z</time>
        <extensions>
          <ns3:TrackPointExtension>
            <ns3:atemp>21.0</ns3:atemp>
          </ns3:TrackPointExtension>
        </extensions>
      </trkpt>
      <trkpt lat="42.5127569027245044708251953125" lon="19.93624873459339141845703125">
        <ele>1867.800048828125</ele>
        <time>2026-06-17T10:28:42.000Z</time>
        <extensions>
          <ns3:TrackPointExtension>
            <ns3:atemp>21.0</ns3:atemp>
          </ns3:TrackPointExtension>
        </extensions>
      </trkpt>
      <trkpt lat="42.5127569027245044708251953125" lon="19.93624873459339141845703125">
        <ele>1867.800048828125</ele>
        <time>2026-06-17T10:28:43.000Z</time>
        <extensions>
          <ns3:TrackPointExtension>
            <ns3:atemp>21.0</ns3:atemp>
          </ns3:TrackPointExtension>
        </extensions>
      </trkpt>
      <trkpt lat="42.5127569027245044708251953125" lon="19.93624873459339141845703125">
        <ele>1867.800048828125</ele>
        <time>2026-06-17T10:28:44.000Z</time>
        <extensions>
          <ns3:TrackPointExtension>
            <ns3:atemp>21.0</ns3:atemp>
          </ns3:TrackPointExtension>
        </extensions>
      </trkpt>
      <trkpt lat="42.5127569027245044708251953125" lon="19.93624873459339141845703125">
        <ele>1867.800048828125</ele>
        <time>2026-06-17T10:28:45.000Z</time>
        <extensions>
          <ns3:TrackPointExtension>
            <ns3:atemp>21.0</ns3:atemp>
          </ns3:TrackPointExtension>
        </extensions>
      </trkpt>
      <trkpt lat="42.5127569027245044708251953125" lon="19.93624873459339141845703125">
        <ele>1867.800048828125</ele>
        <time>2026-06-17T10:28:46.000Z</time>
        <extensions>
          <ns3:TrackPointExtension>
            <ns3:atemp>21.0</ns3:atemp>
          </ns3:TrackPointExtension>
        </extensions>
      </trkpt>
      <trkpt lat="42.5127569027245044708251953125" lon="19.93624873459339141845703125">
        <ele>1867.800048828125</ele>
        <time>2026-06-17T10:28:47.000Z</time>
        <extensions>
          <ns3:TrackPointExtension>
            <ns3:atemp>21.0</ns3:atemp>
          </ns3:TrackPointExtension>
        </extensions>
      </trkpt>
      <trkpt lat="42.5127569027245044708251953125" lon="19.93624873459339141845703125">
        <ele>1867.800048828125</ele>
        <time>2026-06-17T10:28:48.000Z</time>
        <extensions>
          <ns3:TrackPointExtension>
            <ns3:atemp>21.0</ns3:atemp>
          </ns3:TrackPointExtension>
        </extensions>
      </trkpt>
      <trkpt lat="42.5127569027245044708251953125" lon="19.93624873459339141845703125">
        <ele>1867.800048828125</ele>
        <time>2026-06-17T10:28:49.000Z</time>
        <extensions>
          <ns3:TrackPointExtension>
            <ns3:atemp>21.0</ns3:atemp>
          </ns3:TrackPointExtension>
        </extensions>
      </trkpt>
      <trkpt lat="42.5127569027245044708251953125" lon="19.93624873459339141845703125">
        <ele>1867.800048828125</ele>
        <time>2026-06-17T10:28:50.000Z</time>
        <extensions>
          <ns3:TrackPointExtension>
            <ns3:atemp>21.0</ns3:atemp>
          </ns3:TrackPointExtension>
        </extensions>
      </trkpt>
      <trkpt lat="42.5127569027245044708251953125" lon="19.93624873459339141845703125">
        <ele>1868</ele>
        <time>2026-06-17T10:28:51.000Z</time>
        <extensions>
          <ns3:TrackPointExtension>
            <ns3:atemp>21.0</ns3:atemp>
          </ns3:TrackPointExtension>
        </extensions>
      </trkpt>
      <trkpt lat="42.5127569027245044708251953125" lon="19.93624873459339141845703125">
        <ele>1868</ele>
        <time>2026-06-17T10:28:52.000Z</time>
        <extensions>
          <ns3:TrackPointExtension>
            <ns3:atemp>21.0</ns3:atemp>
          </ns3:TrackPointExtension>
        </extensions>
      </trkpt>
      <trkpt lat="42.5127569027245044708251953125" lon="19.93624873459339141845703125">
        <ele>1868</ele>
        <time>2026-06-17T10:28:53.000Z</time>
        <extensions>
          <ns3:TrackPointExtension>
            <ns3:atemp>21.0</ns3:atemp>
          </ns3:TrackPointExtension>
        </extensions>
      </trkpt>
      <trkpt lat="42.5127569027245044708251953125" lon="19.93624873459339141845703125">
        <ele>1868</ele>
        <time>2026-06-17T10:28:54.000Z</time>
        <extensions>
          <ns3:TrackPointExtension>
            <ns3:atemp>21.0</ns3:atemp>
          </ns3:TrackPointExtension>
        </extensions>
      </trkpt>
      <trkpt lat="42.5127569027245044708251953125" lon="19.93624873459339141845703125">
        <ele>1868</ele>
        <time>2026-06-17T10:28:55.000Z</time>
        <extensions>
          <ns3:TrackPointExtension>
            <ns3:atemp>21.0</ns3:atemp>
          </ns3:TrackPointExtension>
        </extensions>
      </trkpt>
      <trkpt lat="42.5127569027245044708251953125" lon="19.93624873459339141845703125">
        <ele>1868</ele>
        <time>2026-06-17T10:28:56.000Z</time>
        <extensions>
          <ns3:TrackPointExtension>
            <ns3:atemp>21.0</ns3:atemp>
          </ns3:TrackPointExtension>
        </extensions>
      </trkpt>
      <trkpt lat="42.5127569027245044708251953125" lon="19.93624873459339141845703125">
        <ele>1867.800048828125</ele>
        <time>2026-06-17T10:28:57.000Z</time>
        <extensions>
          <ns3:TrackPointExtension>
            <ns3:atemp>21.0</ns3:atemp>
          </ns3:TrackPointExtension>
        </extensions>
      </trkpt>
      <trkpt lat="42.512758411467075347900390625" lon="19.93624697439372539520263671875">
        <ele>1867.800048828125</ele>
        <time>2026-06-17T10:28:58.000Z</time>
        <extensions>
          <ns3:TrackPointExtension>
            <ns3:atemp>21.0</ns3:atemp>
          </ns3:TrackPointExtension>
        </extensions>
      </trkpt>
      <trkpt lat="42.51275296323001384735107421875" lon="19.9362318031489849090576171875">
        <ele>1867.800048828125</ele>
        <time>2026-06-17T10:28:59.000Z</time>
        <extensions>
          <ns3:TrackPointExtension>
            <ns3:atemp>21.0</ns3:atemp>
          </ns3:TrackPointExtension>
        </extensions>
      </trkpt>
      <trkpt lat="42.5127404741942882537841796875" lon="19.9362160451710224151611328125">
        <ele>1867.5999755859375</ele>
        <time>2026-06-17T10:29:00.000Z</time>
        <extensions>
          <ns3:TrackPointExtension>
            <ns3:atemp>21.0</ns3:atemp>
          </ns3:TrackPointExtension>
        </extensions>
      </trkpt>
      <trkpt lat="42.5127325952053070068359375" lon="19.9361922405660152435302734375">
        <ele>1867.4000244140625</ele>
        <time>2026-06-17T10:29:01.000Z</time>
        <extensions>
          <ns3:TrackPointExtension>
            <ns3:atemp>21.0</ns3:atemp>
          </ns3:TrackPointExtension>
        </extensions>
      </trkpt>
      <trkpt lat="42.51272521913051605224609375" lon="19.936159215867519378662109375">
        <ele>1867.199951171875</ele>
        <time>2026-06-17T10:29:02.000Z</time>
        <extensions>
          <ns3:TrackPointExtension>
            <ns3:atemp>21.0</ns3:atemp>
          </ns3:TrackPointExtension>
        </extensions>
      </trkpt>
      <trkpt lat="42.5127176754176616668701171875" lon="19.93611973710358142852783203125">
        <ele>1866.5999755859375</ele>
        <time>2026-06-17T10:29:03.000Z</time>
        <extensions>
          <ns3:TrackPointExtension>
            <ns3:atemp>21.0</ns3:atemp>
          </ns3:TrackPointExtension>
        </extensions>
      </trkpt>
      <trkpt lat="42.51271205954253673553466796875" lon="19.93607866577804088592529296875">
        <ele>1866.199951171875</ele>
        <time>2026-06-17T10:29:04.000Z</time>
        <extensions>
          <ns3:TrackPointExtension>
            <ns3:atemp>21.0</ns3:atemp>
          </ns3:TrackPointExtension>
        </extensions>
      </trkpt>
      <trkpt lat="42.51270711421966552734375" lon="19.93603960610926151275634765625">
        <ele>1865.5999755859375</ele>
        <time>2026-06-17T10:29:05.000Z</time>
        <extensions>
          <ns3:TrackPointExtension>
            <ns3:atemp>21.0</ns3:atemp>
          </ns3:TrackPointExtension>
        </extensions>
      </trkpt>
      <trkpt lat="42.5127069465816020965576171875" lon="19.93600155226886272430419921875">
        <ele>1865.199951171875</ele>
        <time>2026-06-17T10:29:06.000Z</time>
        <extensions>
          <ns3:TrackPointExtension>
            <ns3:atemp>21.0</ns3:atemp>
          </ns3:TrackPointExtension>
        </extensions>
      </trkpt>
      <trkpt lat="42.5127149932086467742919921875" lon="19.93596316315233707427978515625">
        <ele>1864.800048828125</ele>
        <time>2026-06-17T10:29:07.000Z</time>
        <extensions>
          <ns3:TrackPointExtension>
            <ns3:atemp>21.0</ns3:atemp>
          </ns3:TrackPointExtension>
        </extensions>
      </trkpt>
      <trkpt lat="42.51272664405405521392822265625" lon="19.935912452638149261474609375">
        <ele>1864.199951171875</ele>
        <time>2026-06-17T10:29:08.000Z</time>
        <extensions>
          <ns3:TrackPointExtension>
            <ns3:atemp>21.0</ns3:atemp>
          </ns3:TrackPointExtension>
        </extensions>
      </trkpt>
      <trkpt lat="42.5127451680600643157958984375" lon="19.93586660362780094146728515625">
        <ele>1863.800048828125</ele>
        <time>2026-06-17T10:29:09.000Z</time>
        <extensions>
          <ns3:TrackPointExtension>
            <ns3:atemp>21.0</ns3:atemp>
          </ns3:TrackPointExtension>
        </extensions>
      </trkpt>
      <trkpt lat="42.51276570372283458709716796875" lon="19.93582150898873805999755859375">
        <ele>1863.4000244140625</ele>
        <time>2026-06-17T10:29:10.000Z</time>
        <extensions>
          <ns3:TrackPointExtension>
            <ns3:atemp>21.0</ns3:atemp>
          </ns3:TrackPointExtension>
        </extensions>
      </trkpt>
      <trkpt lat="42.5127800367772579193115234375" lon="19.93577758781611919403076171875">
        <ele>1863</ele>
        <time>2026-06-17T10:29:11.000Z</time>
        <extensions>
          <ns3:TrackPointExtension>
            <ns3:atemp>21.0</ns3:atemp>
          </ns3:TrackPointExtension>
        </extensions>
      </trkpt>
      <trkpt lat="42.5127927772700786590576171875" lon="19.93571992032229900360107421875">
        <ele>1862.800048828125</ele>
        <time>2026-06-17T10:29:12.000Z</time>
        <extensions>
          <ns3:TrackPointExtension>
            <ns3:atemp>21.0</ns3:atemp>
          </ns3:TrackPointExtension>
        </extensions>
      </trkpt>
      <trkpt lat="42.5127921067178249359130859375" lon="19.93565873242914676666259765625">
        <ele>1862.4000244140625</ele>
        <time>2026-06-17T10:29:13.000Z</time>
        <extensions>
          <ns3:TrackPointExtension>
            <ns3:atemp>21.0</ns3:atemp>
          </ns3:TrackPointExtension>
        </extensions>
      </trkpt>
      <trkpt lat="42.51278179697692394256591796875" lon="19.93560793809592723846435546875">
        <ele>1862</ele>
        <time>2026-06-17T10:29:14.000Z</time>
        <extensions>
          <ns3:TrackPointExtension>
            <ns3:atemp>21.0</ns3:atemp>
          </ns3:TrackPointExtension>
        </extensions>
      </trkpt>
      <trkpt lat="42.512774504721164703369140625" lon="19.935564436018466949462890625">
        <ele>1861.5999755859375</ele>
        <time>2026-06-17T10:29:15.000Z</time>
        <extensions>
          <ns3:TrackPointExtension>
            <ns3:atemp>21.0</ns3:atemp>
          </ns3:TrackPointExtension>
        </extensions>
      </trkpt>
      <trkpt lat="42.51276486553251743316650390625" lon="19.935520179569721221923828125">
        <ele>1861.199951171875</ele>
        <time>2026-06-17T10:29:16.000Z</time>
        <extensions>
          <ns3:TrackPointExtension>
            <ns3:atemp>21.0</ns3:atemp>
          </ns3:TrackPointExtension>
        </extensions>
      </trkpt>
      <trkpt lat="42.5127414800226688385009765625" lon="19.9354982189834117889404296875">
        <ele>1861</ele>
        <time>2026-06-17T10:29:17.000Z</time>
        <extensions>
          <ns3:TrackPointExtension>
            <ns3:atemp>21.0</ns3:atemp>
          </ns3:TrackPointExtension>
        </extensions>
      </trkpt>
      <trkpt lat="42.5127165019512176513671875" lon="19.93547164835035800933837890625">
        <ele>1860.800048828125</ele>
        <time>2026-06-17T10:29:18.000Z</time>
        <extensions>
          <ns3:TrackPointExtension>
            <ns3:atemp>21.0</ns3:atemp>
          </ns3:TrackPointExtension>
        </extensions>
      </trkpt>
      <trkpt lat="42.51269395463168621063232421875" lon="19.93543493561446666717529296875">
        <ele>1860.5999755859375</ele>
        <time>2026-06-17T10:29:19.000Z</time>
        <extensions>
          <ns3:TrackPointExtension>
            <ns3:atemp>21.0</ns3:atemp>
          </ns3:TrackPointExtension>
        </extensions>
      </trkpt>
      <trkpt lat="42.51266310922801494598388671875" lon="19.9354060180485248565673828125">
        <ele>1860.199951171875</ele>
        <time>2026-06-17T10:29:20.000Z</time>
        <extensions>
          <ns3:TrackPointExtension>
            <ns3:atemp>21.0</ns3:atemp>
          </ns3:TrackPointExtension>
        </extensions>
      </trkpt>
      <trkpt lat="42.5126288272440433502197265625" lon="19.93537676520645618438720703125">
        <ele>1860</ele>
        <time>2026-06-17T10:29:21.000Z</time>
        <extensions>
          <ns3:TrackPointExtension>
            <ns3:atemp>21.0</ns3:atemp>
          </ns3:TrackPointExtension>
        </extensions>
      </trkpt>
      <trkpt lat="42.51259957440197467803955078125" lon="19.93533452041447162628173828125">
        <ele>1859.5999755859375</ele>
        <time>2026-06-17T10:29:22.000Z</time>
        <extensions>
          <ns3:TrackPointExtension>
            <ns3:atemp>21.0</ns3:atemp>
          </ns3:TrackPointExtension>
        </extensions>
      </trkpt>
      <trkpt lat="42.5125718303024768829345703125" lon="19.93528992868959903717041015625">
        <ele>1859.4000244140625</ele>
        <time>2026-06-17T10:29:23.000Z</time>
        <extensions>
          <ns3:TrackPointExtension>
            <ns3:atemp>21.0</ns3:atemp>
          </ns3:TrackPointExtension>
        </extensions>
      </trkpt>
      <trkpt lat="42.51253671012818813323974609375" lon="19.93524684570729732513427734375">
        <ele>1859</ele>
        <time>2026-06-17T10:29:24.000Z</time>
        <extensions>
          <ns3:TrackPointExtension>
            <ns3:atemp>21.0</ns3:atemp>
          </ns3:TrackPointExtension>
        </extensions>
      </trkpt>
      <trkpt lat="42.51251424662768840789794921875" lon="19.93521667085587978363037109375">
        <ele>1858.800048828125</ele>
        <time>2026-06-17T10:29:25.000Z</time>
        <extensions>
          <ns3:TrackPointExtension>
            <ns3:atemp>21.0</ns3:atemp>
          </ns3:TrackPointExtension>
        </extensions>
      </trkpt>
      <trkpt lat="42.51250318251550197601318359375" lon="19.935192279517650604248046875">
        <ele>1858.800048828125</ele>
        <time>2026-06-17T10:29:26.000Z</time>
        <extensions>
          <ns3:TrackPointExtension>
            <ns3:atemp>21.0</ns3:atemp>
          </ns3:TrackPointExtension>
        </extensions>
      </trkpt>
      <trkpt lat="42.51250569708645343780517578125" lon="19.9351860769093036651611328125">
        <ele>1858.800048828125</ele>
        <time>2026-06-17T10:29:27.000Z</time>
        <extensions>
          <ns3:TrackPointExtension>
            <ns3:atemp>21.0</ns3:atemp>
          </ns3:TrackPointExtension>
        </extensions>
      </trkpt>
      <trkpt lat="42.51250385306775569915771484375" lon="19.93518121540546417236328125">
        <ele>1858.800048828125</ele>
        <time>2026-06-17T10:29:28.000Z</time>
        <extensions>
          <ns3:TrackPointExtension>
            <ns3:atemp>21.0</ns3:atemp>
          </ns3:TrackPointExtension>
        </extensions>
      </trkpt>
      <trkpt lat="42.51250385306775569915771484375" lon="19.93518121540546417236328125">
        <ele>1859</ele>
        <time>2026-06-17T10:29:29.000Z</time>
        <extensions>
          <ns3:TrackPointExtension>
            <ns3:atemp>21.0</ns3:atemp>
          </ns3:TrackPointExtension>
        </extensions>
      </trkpt>
      <trkpt lat="42.51250385306775569915771484375" lon="19.93518121540546417236328125">
        <ele>1859.199951171875</ele>
        <time>2026-06-17T10:29:30.000Z</time>
        <extensions>
          <ns3:TrackPointExtension>
            <ns3:atemp>21.0</ns3:atemp>
          </ns3:TrackPointExtension>
        </extensions>
      </trkpt>
      <trkpt lat="42.51250385306775569915771484375" lon="19.93518121540546417236328125">
        <ele>1859.199951171875</ele>
        <time>2026-06-17T10:29:31.000Z</time>
        <extensions>
          <ns3:TrackPointExtension>
            <ns3:atemp>21.0</ns3:atemp>
          </ns3:TrackPointExtension>
        </extensions>
      </trkpt>
      <trkpt lat="42.51250385306775569915771484375" lon="19.93518121540546417236328125">
        <ele>1859.199951171875</ele>
        <time>2026-06-17T10:29:32.000Z</time>
        <extensions>
          <ns3:TrackPointExtension>
            <ns3:atemp>21.0</ns3:atemp>
          </ns3:TrackPointExtension>
        </extensions>
      </trkpt>
      <trkpt lat="42.51250385306775569915771484375" lon="19.93518121540546417236328125">
        <ele>1859</ele>
        <time>2026-06-17T10:29:33.000Z</time>
        <extensions>
          <ns3:TrackPointExtension>
            <ns3:atemp>21.0</ns3:atemp>
          </ns3:TrackPointExtension>
        </extensions>
      </trkpt>
      <trkpt lat="42.51250385306775569915771484375" lon="19.93518121540546417236328125">
        <ele>1859</ele>
        <time>2026-06-17T10:29:34.000Z</time>
        <extensions>
          <ns3:TrackPointExtension>
            <ns3:atemp>21.0</ns3:atemp>
          </ns3:TrackPointExtension>
        </extensions>
      </trkpt>
      <trkpt lat="42.51250385306775569915771484375" lon="19.93518121540546417236328125">
        <ele>1858.800048828125</ele>
        <time>2026-06-17T10:29:35.000Z</time>
        <extensions>
          <ns3:TrackPointExtension>
            <ns3:atemp>21.0</ns3:atemp>
          </ns3:TrackPointExtension>
        </extensions>
      </trkpt>
      <trkpt lat="42.51250385306775569915771484375" lon="19.93518121540546417236328125">
        <ele>1858.800048828125</ele>
        <time>2026-06-17T10:29:36.000Z</time>
        <extensions>
          <ns3:TrackPointExtension>
            <ns3:atemp>21.0</ns3:atemp>
          </ns3:TrackPointExtension>
        </extensions>
      </trkpt>
      <trkpt lat="42.51250385306775569915771484375" lon="19.93518121540546417236328125">
        <ele>1858.800048828125</ele>
        <time>2026-06-17T10:29:37.000Z</time>
        <extensions>
          <ns3:TrackPointExtension>
            <ns3:atemp>21.0</ns3:atemp>
          </ns3:TrackPointExtension>
        </extensions>
      </trkpt>
      <trkpt lat="42.51250385306775569915771484375" lon="19.93518121540546417236328125">
        <ele>1858.800048828125</ele>
        <time>2026-06-17T10:29:38.000Z</time>
        <extensions>
          <ns3:TrackPointExtension>
            <ns3:atemp>21.0</ns3:atemp>
          </ns3:TrackPointExtension>
        </extensions>
      </trkpt>
      <trkpt lat="42.51250385306775569915771484375" lon="19.93518121540546417236328125">
        <ele>1858.5999755859375</ele>
        <time>2026-06-17T10:29:39.000Z</time>
        <extensions>
          <ns3:TrackPointExtension>
            <ns3:atemp>21.0</ns3:atemp>
          </ns3:TrackPointExtension>
        </extensions>
      </trkpt>
      <trkpt lat="42.51250385306775569915771484375" lon="19.93518121540546417236328125">
        <ele>1858.5999755859375</ele>
        <time>2026-06-17T10:29:40.000Z</time>
        <extensions>
          <ns3:TrackPointExtension>
            <ns3:atemp>21.0</ns3:atemp>
          </ns3:TrackPointExtension>
        </extensions>
      </trkpt>
      <trkpt lat="42.51250385306775569915771484375" lon="19.93518121540546417236328125">
        <ele>1858.5999755859375</ele>
        <time>2026-06-17T10:29:41.000Z</time>
        <extensions>
          <ns3:TrackPointExtension>
            <ns3:atemp>21.0</ns3:atemp>
          </ns3:TrackPointExtension>
        </extensions>
      </trkpt>
      <trkpt lat="42.51250385306775569915771484375" lon="19.93518121540546417236328125">
        <ele>1858.5999755859375</ele>
        <time>2026-06-17T10:29:42.000Z</time>
        <extensions>
          <ns3:TrackPointExtension>
            <ns3:atemp>21.0</ns3:atemp>
          </ns3:TrackPointExtension>
        </extensions>
      </trkpt>
      <trkpt lat="42.51250234432518482208251953125" lon="19.9351820535957813262939453125">
        <ele>1858.5999755859375</ele>
        <time>2026-06-17T10:29:43.000Z</time>
        <extensions>
          <ns3:TrackPointExtension>
            <ns3:atemp>21.0</ns3:atemp>
          </ns3:TrackPointExtension>
        </extensions>
      </trkpt>
      <trkpt lat="42.51250385306775569915771484375" lon="19.93518121540546417236328125">
        <ele>1858.5999755859375</ele>
        <time>2026-06-17T10:29:44.000Z</time>
        <extensions>
          <ns3:TrackPointExtension>
            <ns3:atemp>21.0</ns3:atemp>
          </ns3:TrackPointExtension>
        </extensions>
      </trkpt>
      <trkpt lat="42.51250385306775569915771484375" lon="19.93518121540546417236328125">
        <ele>1858.4000244140625</ele>
        <time>2026-06-17T10:29:45.000Z</time>
        <extensions>
          <ns3:TrackPointExtension>
            <ns3:atemp>21.0</ns3:atemp>
          </ns3:TrackPointExtension>
        </extensions>
      </trkpt>
      <trkpt lat="42.51250385306775569915771484375" lon="19.93518121540546417236328125">
        <ele>1858.4000244140625</ele>
        <time>2026-06-17T10:29:46.000Z</time>
        <extensions>
          <ns3:TrackPointExtension>
            <ns3:atemp>21.0</ns3:atemp>
          </ns3:TrackPointExtension>
        </extensions>
      </trkpt>
      <trkpt lat="42.51250385306775569915771484375" lon="19.93518121540546417236328125">
        <ele>1858.4000244140625</ele>
        <time>2026-06-17T10:29:47.000Z</time>
        <extensions>
          <ns3:TrackPointExtension>
            <ns3:atemp>21.0</ns3:atemp>
          </ns3:TrackPointExtension>
        </extensions>
      </trkpt>
      <trkpt lat="42.51250385306775569915771484375" lon="19.93518121540546417236328125">
        <ele>1858.4000244140625</ele>
        <time>2026-06-17T10:29:48.000Z</time>
        <extensions>
          <ns3:TrackPointExtension>
            <ns3:atemp>21.0</ns3:atemp>
          </ns3:TrackPointExtension>
        </extensions>
      </trkpt>
      <trkpt lat="42.51250385306775569915771484375" lon="19.93518121540546417236328125">
        <ele>1858.4000244140625</ele>
        <time>2026-06-17T10:29:49.000Z</time>
        <extensions>
          <ns3:TrackPointExtension>
            <ns3:atemp>21.0</ns3:atemp>
          </ns3:TrackPointExtension>
        </extensions>
      </trkpt>
      <trkpt lat="42.51250385306775569915771484375" lon="19.93518121540546417236328125">
        <ele>1858.4000244140625</ele>
        <time>2026-06-17T10:29:50.000Z</time>
        <extensions>
          <ns3:TrackPointExtension>
            <ns3:atemp>21.0</ns3:atemp>
          </ns3:TrackPointExtension>
        </extensions>
      </trkpt>
      <trkpt lat="42.51250385306775569915771484375" lon="19.93518121540546417236328125">
        <ele>1858.4000244140625</ele>
        <time>2026-06-17T10:29:51.000Z</time>
        <extensions>
          <ns3:TrackPointExtension>
            <ns3:atemp>21.0</ns3:atemp>
          </ns3:TrackPointExtension>
        </extensions>
      </trkpt>
      <trkpt lat="42.51250385306775569915771484375" lon="19.93518121540546417236328125">
        <ele>1858.4000244140625</ele>
        <time>2026-06-17T10:29:52.000Z</time>
        <extensions>
          <ns3:TrackPointExtension>
            <ns3:atemp>21.0</ns3:atemp>
          </ns3:TrackPointExtension>
        </extensions>
      </trkpt>
      <trkpt lat="42.51250385306775569915771484375" lon="19.93518121540546417236328125">
        <ele>1858.4000244140625</ele>
        <time>2026-06-17T10:29:53.000Z</time>
        <extensions>
          <ns3:TrackPointExtension>
            <ns3:atemp>21.0</ns3:atemp>
          </ns3:TrackPointExtension>
        </extensions>
      </trkpt>
      <trkpt lat="42.51250385306775569915771484375" lon="19.93518121540546417236328125">
        <ele>1858.4000244140625</ele>
        <time>2026-06-17T10:29:54.000Z</time>
        <extensions>
          <ns3:TrackPointExtension>
            <ns3:atemp>21.0</ns3:atemp>
          </ns3:TrackPointExtension>
        </extensions>
      </trkpt>
      <trkpt lat="42.51250385306775569915771484375" lon="19.93518121540546417236328125">
        <ele>1858.4000244140625</ele>
        <time>2026-06-17T10:29:55.000Z</time>
        <extensions>
          <ns3:TrackPointExtension>
            <ns3:atemp>21.0</ns3:atemp>
          </ns3:TrackPointExtension>
        </extensions>
      </trkpt>
      <trkpt lat="42.51250385306775569915771484375" lon="19.93518121540546417236328125">
        <ele>1858.4000244140625</ele>
        <time>2026-06-17T10:29:56.000Z</time>
        <extensions>
          <ns3:TrackPointExtension>
            <ns3:atemp>21.0</ns3:atemp>
          </ns3:TrackPointExtension>
        </extensions>
      </trkpt>
      <trkpt lat="42.51250385306775569915771484375" lon="19.93518121540546417236328125">
        <ele>1858.199951171875</ele>
        <time>2026-06-17T10:29:57.000Z</time>
        <extensions>
          <ns3:TrackPointExtension>
            <ns3:atemp>21.0</ns3:atemp>
          </ns3:TrackPointExtension>
        </extensions>
      </trkpt>
      <trkpt lat="42.51250385306775569915771484375" lon="19.93518121540546417236328125">
        <ele>1858.199951171875</ele>
        <time>2026-06-17T10:29:58.000Z</time>
        <extensions>
          <ns3:TrackPointExtension>
            <ns3:atemp>21.0</ns3:atemp>
          </ns3:TrackPointExtension>
        </extensions>
      </trkpt>
      <trkpt lat="42.51250385306775569915771484375" lon="19.93518121540546417236328125">
        <ele>1858.199951171875</ele>
        <time>2026-06-17T10:29:59.000Z</time>
        <extensions>
          <ns3:TrackPointExtension>
            <ns3:atemp>21.0</ns3:atemp>
          </ns3:TrackPointExtension>
        </extensions>
      </trkpt>
      <trkpt lat="42.51250385306775569915771484375" lon="19.93518121540546417236328125">
        <ele>1858</ele>
        <time>2026-06-17T10:30:00.000Z</time>
        <extensions>
          <ns3:TrackPointExtension>
            <ns3:atemp>21.0</ns3:atemp>
          </ns3:TrackPointExtension>
        </extensions>
      </trkpt>
      <trkpt lat="42.51250385306775569915771484375" lon="19.93518121540546417236328125">
        <ele>1857.800048828125</ele>
        <time>2026-06-17T10:30:01.000Z</time>
        <extensions>
          <ns3:TrackPointExtension>
            <ns3:atemp>21.0</ns3:atemp>
          </ns3:TrackPointExtension>
        </extensions>
      </trkpt>
      <trkpt lat="42.51250385306775569915771484375" lon="19.93518121540546417236328125">
        <ele>1857.800048828125</ele>
        <time>2026-06-17T10:30:02.000Z</time>
        <extensions>
          <ns3:TrackPointExtension>
            <ns3:atemp>21.0</ns3:atemp>
          </ns3:TrackPointExtension>
        </extensions>
      </trkpt>
      <trkpt lat="42.51250385306775569915771484375" lon="19.93518121540546417236328125">
        <ele>1857.800048828125</ele>
        <time>2026-06-17T10:30:03.000Z</time>
        <extensions>
          <ns3:TrackPointExtension>
            <ns3:atemp>21.0</ns3:atemp>
          </ns3:TrackPointExtension>
        </extensions>
      </trkpt>
      <trkpt lat="42.51250385306775569915771484375" lon="19.93518121540546417236328125">
        <ele>1857.800048828125</ele>
        <time>2026-06-17T10:30:04.000Z</time>
        <extensions>
          <ns3:TrackPointExtension>
            <ns3:atemp>21.0</ns3:atemp>
          </ns3:TrackPointExtension>
        </extensions>
      </trkpt>
      <trkpt lat="42.51250385306775569915771484375" lon="19.93518121540546417236328125">
        <ele>1857.800048828125</ele>
        <time>2026-06-17T10:30:05.000Z</time>
        <extensions>
          <ns3:TrackPointExtension>
            <ns3:atemp>21.0</ns3:atemp>
          </ns3:TrackPointExtension>
        </extensions>
      </trkpt>
      <trkpt lat="42.51250385306775569915771484375" lon="19.93518121540546417236328125">
        <ele>1857.800048828125</ele>
        <time>2026-06-17T10:30:06.000Z</time>
        <extensions>
          <ns3:TrackPointExtension>
            <ns3:atemp>21.0</ns3:atemp>
          </ns3:TrackPointExtension>
        </extensions>
      </trkpt>
      <trkpt lat="42.51250385306775569915771484375" lon="19.93518121540546417236328125">
        <ele>1857.800048828125</ele>
        <time>2026-06-17T10:30:07.000Z</time>
        <extensions>
          <ns3:TrackPointExtension>
            <ns3:atemp>21.0</ns3:atemp>
          </ns3:TrackPointExtension>
        </extensions>
      </trkpt>
      <trkpt lat="42.51250385306775569915771484375" lon="19.93518121540546417236328125">
        <ele>1857.800048828125</ele>
        <time>2026-06-17T10:30:08.000Z</time>
        <extensions>
          <ns3:TrackPointExtension>
            <ns3:atemp>21.0</ns3:atemp>
          </ns3:TrackPointExtension>
        </extensions>
      </trkpt>
      <trkpt lat="42.51250385306775569915771484375" lon="19.93518121540546417236328125">
        <ele>1857.800048828125</ele>
        <time>2026-06-17T10:30:09.000Z</time>
        <extensions>
          <ns3:TrackPointExtension>
            <ns3:atemp>21.0</ns3:atemp>
          </ns3:TrackPointExtension>
        </extensions>
      </trkpt>
      <trkpt lat="42.51250385306775569915771484375" lon="19.93518121540546417236328125">
        <ele>1857.800048828125</ele>
        <time>2026-06-17T10:30:10.000Z</time>
        <extensions>
          <ns3:TrackPointExtension>
            <ns3:atemp>21.0</ns3:atemp>
          </ns3:TrackPointExtension>
        </extensions>
      </trkpt>
      <trkpt lat="42.51250385306775569915771484375" lon="19.93518121540546417236328125">
        <ele>1857.800048828125</ele>
        <time>2026-06-17T10:30:11.000Z</time>
        <extensions>
          <ns3:TrackPointExtension>
            <ns3:atemp>21.0</ns3:atemp>
          </ns3:TrackPointExtension>
        </extensions>
      </trkpt>
      <trkpt lat="42.51250385306775569915771484375" lon="19.93518121540546417236328125">
        <ele>1857.800048828125</ele>
        <time>2026-06-17T10:30:12.000Z</time>
        <extensions>
          <ns3:TrackPointExtension>
            <ns3:atemp>21.0</ns3:atemp>
          </ns3:TrackPointExtension>
        </extensions>
      </trkpt>
      <trkpt lat="42.51250385306775569915771484375" lon="19.93518121540546417236328125">
        <ele>1857.5999755859375</ele>
        <time>2026-06-17T10:30:13.000Z</time>
        <extensions>
          <ns3:TrackPointExtension>
            <ns3:atemp>21.0</ns3:atemp>
          </ns3:TrackPointExtension>
        </extensions>
      </trkpt>
      <trkpt lat="42.51250385306775569915771484375" lon="19.93518121540546417236328125">
        <ele>1857.5999755859375</ele>
        <time>2026-06-17T10:30:14.000Z</time>
        <extensions>
          <ns3:TrackPointExtension>
            <ns3:atemp>21.0</ns3:atemp>
          </ns3:TrackPointExtension>
        </extensions>
      </trkpt>
      <trkpt lat="42.51250385306775569915771484375" lon="19.93518121540546417236328125">
        <ele>1857.5999755859375</ele>
        <time>2026-06-17T10:30:15.000Z</time>
        <extensions>
          <ns3:TrackPointExtension>
            <ns3:atemp>21.0</ns3:atemp>
          </ns3:TrackPointExtension>
        </extensions>
      </trkpt>
      <trkpt lat="42.51250385306775569915771484375" lon="19.93518121540546417236328125">
        <ele>1857.5999755859375</ele>
        <time>2026-06-17T10:30:16.000Z</time>
        <extensions>
          <ns3:TrackPointExtension>
            <ns3:atemp>21.0</ns3:atemp>
          </ns3:TrackPointExtension>
        </extensions>
      </trkpt>
      <trkpt lat="42.51250385306775569915771484375" lon="19.93518121540546417236328125">
        <ele>1857.4000244140625</ele>
        <time>2026-06-17T10:30:17.000Z</time>
        <extensions>
          <ns3:TrackPointExtension>
            <ns3:atemp>21.0</ns3:atemp>
          </ns3:TrackPointExtension>
        </extensions>
      </trkpt>
      <trkpt lat="42.51250385306775569915771484375" lon="19.93518121540546417236328125">
        <ele>1857.199951171875</ele>
        <time>2026-06-17T10:30:18.000Z</time>
        <extensions>
          <ns3:TrackPointExtension>
            <ns3:atemp>21.0</ns3:atemp>
          </ns3:TrackPointExtension>
        </extensions>
      </trkpt>
      <trkpt lat="42.51250385306775569915771484375" lon="19.93518121540546417236328125">
        <ele>1857</ele>
        <time>2026-06-17T10:30:19.000Z</time>
        <extensions>
          <ns3:TrackPointExtension>
            <ns3:atemp>21.0</ns3:atemp>
          </ns3:TrackPointExtension>
        </extensions>
      </trkpt>
      <trkpt lat="42.51250385306775569915771484375" lon="19.93518121540546417236328125">
        <ele>1857</ele>
        <time>2026-06-17T10:30:20.000Z</time>
        <extensions>
          <ns3:TrackPointExtension>
            <ns3:atemp>21.0</ns3:atemp>
          </ns3:TrackPointExtension>
        </extensions>
      </trkpt>
      <trkpt lat="42.51250385306775569915771484375" lon="19.93518121540546417236328125">
        <ele>1856.800048828125</ele>
        <time>2026-06-17T10:30:21.000Z</time>
        <extensions>
          <ns3:TrackPointExtension>
            <ns3:atemp>21.0</ns3:atemp>
          </ns3:TrackPointExtension>
        </extensions>
      </trkpt>
      <trkpt lat="42.51250385306775569915771484375" lon="19.93518121540546417236328125">
        <ele>1856.800048828125</ele>
        <time>2026-06-17T10:30:22.000Z</time>
        <extensions>
          <ns3:TrackPointExtension>
            <ns3:atemp>21.0</ns3:atemp>
          </ns3:TrackPointExtension>
        </extensions>
      </trkpt>
      <trkpt lat="42.51250385306775569915771484375" lon="19.93518121540546417236328125">
        <ele>1856.800048828125</ele>
        <time>2026-06-17T10:30:23.000Z</time>
        <extensions>
          <ns3:TrackPointExtension>
            <ns3:atemp>21.0</ns3:atemp>
          </ns3:TrackPointExtension>
        </extensions>
      </trkpt>
      <trkpt lat="42.51250385306775569915771484375" lon="19.93518121540546417236328125">
        <ele>1856.800048828125</ele>
        <time>2026-06-17T10:30:24.000Z</time>
        <extensions>
          <ns3:TrackPointExtension>
            <ns3:atemp>21.0</ns3:atemp>
          </ns3:TrackPointExtension>
        </extensions>
      </trkpt>
      <trkpt lat="42.51250385306775569915771484375" lon="19.93518121540546417236328125">
        <ele>1856.800048828125</ele>
        <time>2026-06-17T10:30:25.000Z</time>
        <extensions>
          <ns3:TrackPointExtension>
            <ns3:atemp>21.0</ns3:atemp>
          </ns3:TrackPointExtension>
        </extensions>
      </trkpt>
      <trkpt lat="42.51250385306775569915771484375" lon="19.93518121540546417236328125">
        <ele>1856.5999755859375</ele>
        <time>2026-06-17T10:30:26.000Z</time>
        <extensions>
          <ns3:TrackPointExtension>
            <ns3:atemp>21.0</ns3:atemp>
          </ns3:TrackPointExtension>
        </extensions>
      </trkpt>
      <trkpt lat="42.51250385306775569915771484375" lon="19.93518121540546417236328125">
        <ele>1856.5999755859375</ele>
        <time>2026-06-17T10:30:27.000Z</time>
        <extensions>
          <ns3:TrackPointExtension>
            <ns3:atemp>21.0</ns3:atemp>
          </ns3:TrackPointExtension>
        </extensions>
      </trkpt>
      <trkpt lat="42.51250385306775569915771484375" lon="19.93518121540546417236328125">
        <ele>1856.5999755859375</ele>
        <time>2026-06-17T10:30:28.000Z</time>
        <extensions>
          <ns3:TrackPointExtension>
            <ns3:atemp>21.0</ns3:atemp>
          </ns3:TrackPointExtension>
        </extensions>
      </trkpt>
      <trkpt lat="42.51250385306775569915771484375" lon="19.93518121540546417236328125">
        <ele>1856.5999755859375</ele>
        <time>2026-06-17T10:30:29.000Z</time>
        <extensions>
          <ns3:TrackPointExtension>
            <ns3:atemp>21.0</ns3:atemp>
          </ns3:TrackPointExtension>
        </extensions>
      </trkpt>
      <trkpt lat="42.51250385306775569915771484375" lon="19.93518121540546417236328125">
        <ele>1856.5999755859375</ele>
        <time>2026-06-17T10:30:30.000Z</time>
        <extensions>
          <ns3:TrackPointExtension>
            <ns3:atemp>21.0</ns3:atemp>
          </ns3:TrackPointExtension>
        </extensions>
      </trkpt>
      <trkpt lat="42.51250385306775569915771484375" lon="19.93518121540546417236328125">
        <ele>1856.5999755859375</ele>
        <time>2026-06-17T10:30:31.000Z</time>
        <extensions>
          <ns3:TrackPointExtension>
            <ns3:atemp>21.0</ns3:atemp>
          </ns3:TrackPointExtension>
        </extensions>
      </trkpt>
      <trkpt lat="42.51250385306775569915771484375" lon="19.93518121540546417236328125">
        <ele>1856.5999755859375</ele>
        <time>2026-06-17T10:30:32.000Z</time>
        <extensions>
          <ns3:TrackPointExtension>
            <ns3:atemp>21.0</ns3:atemp>
          </ns3:TrackPointExtension>
        </extensions>
      </trkpt>
      <trkpt lat="42.51250385306775569915771484375" lon="19.93518121540546417236328125">
        <ele>1856.5999755859375</ele>
        <time>2026-06-17T10:30:33.000Z</time>
        <extensions>
          <ns3:TrackPointExtension>
            <ns3:atemp>21.0</ns3:atemp>
          </ns3:TrackPointExtension>
        </extensions>
      </trkpt>
      <trkpt lat="42.51250385306775569915771484375" lon="19.93518121540546417236328125">
        <ele>1856.4000244140625</ele>
        <time>2026-06-17T10:30:34.000Z</time>
        <extensions>
          <ns3:TrackPointExtension>
            <ns3:atemp>21.0</ns3:atemp>
          </ns3:TrackPointExtension>
        </extensions>
      </trkpt>
      <trkpt lat="42.51250385306775569915771484375" lon="19.93518121540546417236328125">
        <ele>1856.4000244140625</ele>
        <time>2026-06-17T10:30:35.000Z</time>
        <extensions>
          <ns3:TrackPointExtension>
            <ns3:atemp>21.0</ns3:atemp>
          </ns3:TrackPointExtension>
        </extensions>
      </trkpt>
      <trkpt lat="42.51250385306775569915771484375" lon="19.93518121540546417236328125">
        <ele>1856.4000244140625</ele>
        <time>2026-06-17T10:30:36.000Z</time>
        <extensions>
          <ns3:TrackPointExtension>
            <ns3:atemp>21.0</ns3:atemp>
          </ns3:TrackPointExtension>
        </extensions>
      </trkpt>
      <trkpt lat="42.51250385306775569915771484375" lon="19.93518121540546417236328125">
        <ele>1856.4000244140625</ele>
        <time>2026-06-17T10:30:37.000Z</time>
        <extensions>
          <ns3:TrackPointExtension>
            <ns3:atemp>21.0</ns3:atemp>
          </ns3:TrackPointExtension>
        </extensions>
      </trkpt>
      <trkpt lat="42.51250385306775569915771484375" lon="19.93518121540546417236328125">
        <ele>1856.4000244140625</ele>
        <time>2026-06-17T10:30:38.000Z</time>
        <extensions>
          <ns3:TrackPointExtension>
            <ns3:atemp>21.0</ns3:atemp>
          </ns3:TrackPointExtension>
        </extensions>
      </trkpt>
      <trkpt lat="42.51250385306775569915771484375" lon="19.93518121540546417236328125">
        <ele>1856.4000244140625</ele>
        <time>2026-06-17T10:30:39.000Z</time>
        <extensions>
          <ns3:TrackPointExtension>
            <ns3:atemp>21.0</ns3:atemp>
          </ns3:TrackPointExtension>
        </extensions>
      </trkpt>
      <trkpt lat="42.51250385306775569915771484375" lon="19.93518121540546417236328125">
        <ele>1856.4000244140625</ele>
        <time>2026-06-17T10:30:40.000Z</time>
        <extensions>
          <ns3:TrackPointExtension>
            <ns3:atemp>21.0</ns3:atemp>
          </ns3:TrackPointExtension>
        </extensions>
      </trkpt>
      <trkpt lat="42.51250385306775569915771484375" lon="19.93518121540546417236328125">
        <ele>1856.199951171875</ele>
        <time>2026-06-17T10:30:41.000Z</time>
        <extensions>
          <ns3:TrackPointExtension>
            <ns3:atemp>21.0</ns3:atemp>
          </ns3:TrackPointExtension>
        </extensions>
      </trkpt>
      <trkpt lat="42.51250385306775569915771484375" lon="19.93518121540546417236328125">
        <ele>1856.199951171875</ele>
        <time>2026-06-17T10:30:42.000Z</time>
        <extensions>
          <ns3:TrackPointExtension>
            <ns3:atemp>21.0</ns3:atemp>
          </ns3:TrackPointExtension>
        </extensions>
      </trkpt>
      <trkpt lat="42.51250385306775569915771484375" lon="19.93518121540546417236328125">
        <ele>1856.199951171875</ele>
        <time>2026-06-17T10:30:43.000Z</time>
        <extensions>
          <ns3:TrackPointExtension>
            <ns3:atemp>21.0</ns3:atemp>
          </ns3:TrackPointExtension>
        </extensions>
      </trkpt>
      <trkpt lat="42.51250385306775569915771484375" lon="19.93518121540546417236328125">
        <ele>1856.199951171875</ele>
        <time>2026-06-17T10:30:44.000Z</time>
        <extensions>
          <ns3:TrackPointExtension>
            <ns3:atemp>21.0</ns3:atemp>
          </ns3:TrackPointExtension>
        </extensions>
      </trkpt>
      <trkpt lat="42.51250385306775569915771484375" lon="19.93518121540546417236328125">
        <ele>1856.199951171875</ele>
        <time>2026-06-17T10:30:45.000Z</time>
        <extensions>
          <ns3:TrackPointExtension>
            <ns3:atemp>21.0</ns3:atemp>
          </ns3:TrackPointExtension>
        </extensions>
      </trkpt>
      <trkpt lat="42.51250385306775569915771484375" lon="19.93518121540546417236328125">
        <ele>1856.199951171875</ele>
        <time>2026-06-17T10:30:46.000Z</time>
        <extensions>
          <ns3:TrackPointExtension>
            <ns3:atemp>21.0</ns3:atemp>
          </ns3:TrackPointExtension>
        </extensions>
      </trkpt>
      <trkpt lat="42.51250385306775569915771484375" lon="19.93518121540546417236328125">
        <ele>1856</ele>
        <time>2026-06-17T10:30:47.000Z</time>
        <extensions>
          <ns3:TrackPointExtension>
            <ns3:atemp>21.0</ns3:atemp>
          </ns3:TrackPointExtension>
        </extensions>
      </trkpt>
      <trkpt lat="42.51250385306775569915771484375" lon="19.93518121540546417236328125">
        <ele>1856</ele>
        <time>2026-06-17T10:30:48.000Z</time>
        <extensions>
          <ns3:TrackPointExtension>
            <ns3:atemp>21.0</ns3:atemp>
          </ns3:TrackPointExtension>
        </extensions>
      </trkpt>
      <trkpt lat="42.51250385306775569915771484375" lon="19.93518121540546417236328125">
        <ele>1856</ele>
        <time>2026-06-17T10:30:49.000Z</time>
        <extensions>
          <ns3:TrackPointExtension>
            <ns3:atemp>21.0</ns3:atemp>
          </ns3:TrackPointExtension>
        </extensions>
      </trkpt>
      <trkpt lat="42.51250385306775569915771484375" lon="19.93518121540546417236328125">
        <ele>1856</ele>
        <time>2026-06-17T10:30:50.000Z</time>
        <extensions>
          <ns3:TrackPointExtension>
            <ns3:atemp>21.0</ns3:atemp>
          </ns3:TrackPointExtension>
        </extensions>
      </trkpt>
      <trkpt lat="42.51250385306775569915771484375" lon="19.93518121540546417236328125">
        <ele>1856</ele>
        <time>2026-06-17T10:30:51.000Z</time>
        <extensions>
          <ns3:TrackPointExtension>
            <ns3:atemp>21.0</ns3:atemp>
          </ns3:TrackPointExtension>
        </extensions>
      </trkpt>
      <trkpt lat="42.51250385306775569915771484375" lon="19.93518121540546417236328125">
        <ele>1856</ele>
        <time>2026-06-17T10:30:52.000Z</time>
        <extensions>
          <ns3:TrackPointExtension>
            <ns3:atemp>21.0</ns3:atemp>
          </ns3:TrackPointExtension>
        </extensions>
      </trkpt>
      <trkpt lat="42.51250385306775569915771484375" lon="19.93518121540546417236328125">
        <ele>1856</ele>
        <time>2026-06-17T10:30:53.000Z</time>
        <extensions>
          <ns3:TrackPointExtension>
            <ns3:atemp>21.0</ns3:atemp>
          </ns3:TrackPointExtension>
        </extensions>
      </trkpt>
      <trkpt lat="42.51250385306775569915771484375" lon="19.93518121540546417236328125">
        <ele>1856</ele>
        <time>2026-06-17T10:30:54.000Z</time>
        <extensions>
          <ns3:TrackPointExtension>
            <ns3:atemp>21.0</ns3:atemp>
          </ns3:TrackPointExtension>
        </extensions>
      </trkpt>
      <trkpt lat="42.51250385306775569915771484375" lon="19.93518121540546417236328125">
        <ele>1856</ele>
        <time>2026-06-17T10:30:55.000Z</time>
        <extensions>
          <ns3:TrackPointExtension>
            <ns3:atemp>21.0</ns3:atemp>
          </ns3:TrackPointExtension>
        </extensions>
      </trkpt>
      <trkpt lat="42.51250385306775569915771484375" lon="19.93518121540546417236328125">
        <ele>1856</ele>
        <time>2026-06-17T10:30:56.000Z</time>
        <extensions>
          <ns3:TrackPointExtension>
            <ns3:atemp>21.0</ns3:atemp>
          </ns3:TrackPointExtension>
        </extensions>
      </trkpt>
      <trkpt lat="42.51250385306775569915771484375" lon="19.93518121540546417236328125">
        <ele>1856</ele>
        <time>2026-06-17T10:30:57.000Z</time>
        <extensions>
          <ns3:TrackPointExtension>
            <ns3:atemp>21.0</ns3:atemp>
          </ns3:TrackPointExtension>
        </extensions>
      </trkpt>
      <trkpt lat="42.51250385306775569915771484375" lon="19.93518121540546417236328125">
        <ele>1856</ele>
        <time>2026-06-17T10:30:58.000Z</time>
        <extensions>
          <ns3:TrackPointExtension>
            <ns3:atemp>21.0</ns3:atemp>
          </ns3:TrackPointExtension>
        </extensions>
      </trkpt>
      <trkpt lat="42.51250385306775569915771484375" lon="19.93518121540546417236328125">
        <ele>1856</ele>
        <time>2026-06-17T10:30:59.000Z</time>
        <extensions>
          <ns3:TrackPointExtension>
            <ns3:atemp>21.0</ns3:atemp>
          </ns3:TrackPointExtension>
        </extensions>
      </trkpt>
      <trkpt lat="42.51250385306775569915771484375" lon="19.93518121540546417236328125">
        <ele>1856</ele>
        <time>2026-06-17T10:31:00.000Z</time>
        <extensions>
          <ns3:TrackPointExtension>
            <ns3:atemp>21.0</ns3:atemp>
          </ns3:TrackPointExtension>
        </extensions>
      </trkpt>
      <trkpt lat="42.51250385306775569915771484375" lon="19.93518121540546417236328125">
        <ele>1856</ele>
        <time>2026-06-17T10:31:01.000Z</time>
        <extensions>
          <ns3:TrackPointExtension>
            <ns3:atemp>21.0</ns3:atemp>
          </ns3:TrackPointExtension>
        </extensions>
      </trkpt>
      <trkpt lat="42.51250385306775569915771484375" lon="19.93518121540546417236328125">
        <ele>1856</ele>
        <time>2026-06-17T10:31:02.000Z</time>
        <extensions>
          <ns3:TrackPointExtension>
            <ns3:atemp>21.0</ns3:atemp>
          </ns3:TrackPointExtension>
        </extensions>
      </trkpt>
      <trkpt lat="42.51250385306775569915771484375" lon="19.93518121540546417236328125">
        <ele>1856</ele>
        <time>2026-06-17T10:31:03.000Z</time>
        <extensions>
          <ns3:TrackPointExtension>
            <ns3:atemp>21.0</ns3:atemp>
          </ns3:TrackPointExtension>
        </extensions>
      </trkpt>
      <trkpt lat="42.51250385306775569915771484375" lon="19.93518121540546417236328125">
        <ele>1856</ele>
        <time>2026-06-17T10:31:04.000Z</time>
        <extensions>
          <ns3:TrackPointExtension>
            <ns3:atemp>21.0</ns3:atemp>
          </ns3:TrackPointExtension>
        </extensions>
      </trkpt>
      <trkpt lat="42.51250385306775569915771484375" lon="19.93518121540546417236328125">
        <ele>1856</ele>
        <time>2026-06-17T10:31:05.000Z</time>
        <extensions>
          <ns3:TrackPointExtension>
            <ns3:atemp>21.0</ns3:atemp>
          </ns3:TrackPointExtension>
        </extensions>
      </trkpt>
      <trkpt lat="42.51250385306775569915771484375" lon="19.93518121540546417236328125">
        <ele>1856</ele>
        <time>2026-06-17T10:31:06.000Z</time>
        <extensions>
          <ns3:TrackPointExtension>
            <ns3:atemp>21.0</ns3:atemp>
          </ns3:TrackPointExtension>
        </extensions>
      </trkpt>
      <trkpt lat="42.51250385306775569915771484375" lon="19.93518121540546417236328125">
        <ele>1856</ele>
        <time>2026-06-17T10:31:07.000Z</time>
        <extensions>
          <ns3:TrackPointExtension>
            <ns3:atemp>21.0</ns3:atemp>
          </ns3:TrackPointExtension>
        </extensions>
      </trkpt>
      <trkpt lat="42.51250385306775569915771484375" lon="19.93518121540546417236328125">
        <ele>1856</ele>
        <time>2026-06-17T10:31:08.000Z</time>
        <extensions>
          <ns3:TrackPointExtension>
            <ns3:atemp>21.0</ns3:atemp>
          </ns3:TrackPointExtension>
        </extensions>
      </trkpt>
      <trkpt lat="42.51250385306775569915771484375" lon="19.93518121540546417236328125">
        <ele>1856</ele>
        <time>2026-06-17T10:31:09.000Z</time>
        <extensions>
          <ns3:TrackPointExtension>
            <ns3:atemp>21.0</ns3:atemp>
          </ns3:TrackPointExtension>
        </extensions>
      </trkpt>
      <trkpt lat="42.51250385306775569915771484375" lon="19.93518121540546417236328125">
        <ele>1856</ele>
        <time>2026-06-17T10:31:10.000Z</time>
        <extensions>
          <ns3:TrackPointExtension>
            <ns3:atemp>21.0</ns3:atemp>
          </ns3:TrackPointExtension>
        </extensions>
      </trkpt>
      <trkpt lat="42.51250385306775569915771484375" lon="19.93518121540546417236328125">
        <ele>1856.199951171875</ele>
        <time>2026-06-17T10:31:11.000Z</time>
        <extensions>
          <ns3:TrackPointExtension>
            <ns3:atemp>21.0</ns3:atemp>
          </ns3:TrackPointExtension>
        </extensions>
      </trkpt>
      <trkpt lat="42.51250385306775569915771484375" lon="19.93518121540546417236328125">
        <ele>1856.199951171875</ele>
        <time>2026-06-17T10:31:12.000Z</time>
        <extensions>
          <ns3:TrackPointExtension>
            <ns3:atemp>21.0</ns3:atemp>
          </ns3:TrackPointExtension>
        </extensions>
      </trkpt>
      <trkpt lat="42.51250385306775569915771484375" lon="19.93518121540546417236328125">
        <ele>1856.199951171875</ele>
        <time>2026-06-17T10:31:13.000Z</time>
        <extensions>
          <ns3:TrackPointExtension>
            <ns3:atemp>21.0</ns3:atemp>
          </ns3:TrackPointExtension>
        </extensions>
      </trkpt>
      <trkpt lat="42.51250385306775569915771484375" lon="19.93518121540546417236328125">
        <ele>1856.199951171875</ele>
        <time>2026-06-17T10:31:14.000Z</time>
        <extensions>
          <ns3:TrackPointExtension>
            <ns3:atemp>21.0</ns3:atemp>
          </ns3:TrackPointExtension>
        </extensions>
      </trkpt>
      <trkpt lat="42.51250385306775569915771484375" lon="19.93518121540546417236328125">
        <ele>1856.199951171875</ele>
        <time>2026-06-17T10:31:15.000Z</time>
        <extensions>
          <ns3:TrackPointExtension>
            <ns3:atemp>21.0</ns3:atemp>
          </ns3:TrackPointExtension>
        </extensions>
      </trkpt>
      <trkpt lat="42.51250385306775569915771484375" lon="19.93518121540546417236328125">
        <ele>1856.199951171875</ele>
        <time>2026-06-17T10:31:16.000Z</time>
        <extensions>
          <ns3:TrackPointExtension>
            <ns3:atemp>21.0</ns3:atemp>
          </ns3:TrackPointExtension>
        </extensions>
      </trkpt>
      <trkpt lat="42.51250385306775569915771484375" lon="19.93518121540546417236328125">
        <ele>1856.199951171875</ele>
        <time>2026-06-17T10:31:17.000Z</time>
        <extensions>
          <ns3:TrackPointExtension>
            <ns3:atemp>21.0</ns3:atemp>
          </ns3:TrackPointExtension>
        </extensions>
      </trkpt>
      <trkpt lat="42.51250385306775569915771484375" lon="19.93518121540546417236328125">
        <ele>1856.199951171875</ele>
        <time>2026-06-17T10:31:18.000Z</time>
        <extensions>
          <ns3:TrackPointExtension>
            <ns3:atemp>21.0</ns3:atemp>
          </ns3:TrackPointExtension>
        </extensions>
      </trkpt>
      <trkpt lat="42.51250385306775569915771484375" lon="19.93518121540546417236328125">
        <ele>1856.199951171875</ele>
        <time>2026-06-17T10:31:19.000Z</time>
        <extensions>
          <ns3:TrackPointExtension>
            <ns3:atemp>21.0</ns3:atemp>
          </ns3:TrackPointExtension>
        </extensions>
      </trkpt>
      <trkpt lat="42.51250385306775569915771484375" lon="19.93518121540546417236328125">
        <ele>1856.199951171875</ele>
        <time>2026-06-17T10:31:20.000Z</time>
        <extensions>
          <ns3:TrackPointExtension>
            <ns3:atemp>21.0</ns3:atemp>
          </ns3:TrackPointExtension>
        </extensions>
      </trkpt>
      <trkpt lat="42.51250385306775569915771484375" lon="19.93518121540546417236328125">
        <ele>1856.199951171875</ele>
        <time>2026-06-17T10:31:21.000Z</time>
        <extensions>
          <ns3:TrackPointExtension>
            <ns3:atemp>21.0</ns3:atemp>
          </ns3:TrackPointExtension>
        </extensions>
      </trkpt>
      <trkpt lat="42.51250385306775569915771484375" lon="19.93518121540546417236328125">
        <ele>1856.199951171875</ele>
        <time>2026-06-17T10:31:22.000Z</time>
        <extensions>
          <ns3:TrackPointExtension>
            <ns3:atemp>21.0</ns3:atemp>
          </ns3:TrackPointExtension>
        </extensions>
      </trkpt>
      <trkpt lat="42.51250385306775569915771484375" lon="19.93518121540546417236328125">
        <ele>1856.199951171875</ele>
        <time>2026-06-17T10:31:23.000Z</time>
        <extensions>
          <ns3:TrackPointExtension>
            <ns3:atemp>21.0</ns3:atemp>
          </ns3:TrackPointExtension>
        </extensions>
      </trkpt>
      <trkpt lat="42.51250385306775569915771484375" lon="19.93518121540546417236328125">
        <ele>1856.199951171875</ele>
        <time>2026-06-17T10:31:24.000Z</time>
        <extensions>
          <ns3:TrackPointExtension>
            <ns3:atemp>21.0</ns3:atemp>
          </ns3:TrackPointExtension>
        </extensions>
      </trkpt>
      <trkpt lat="42.51250385306775569915771484375" lon="19.93518121540546417236328125">
        <ele>1856.199951171875</ele>
        <time>2026-06-17T10:31:25.000Z</time>
        <extensions>
          <ns3:TrackPointExtension>
            <ns3:atemp>21.0</ns3:atemp>
          </ns3:TrackPointExtension>
        </extensions>
      </trkpt>
      <trkpt lat="42.51250385306775569915771484375" lon="19.93518121540546417236328125">
        <ele>1856.199951171875</ele>
        <time>2026-06-17T10:31:26.000Z</time>
        <extensions>
          <ns3:TrackPointExtension>
            <ns3:atemp>21.0</ns3:atemp>
          </ns3:TrackPointExtension>
        </extensions>
      </trkpt>
      <trkpt lat="42.51250385306775569915771484375" lon="19.93518121540546417236328125">
        <ele>1856.199951171875</ele>
        <time>2026-06-17T10:31:27.000Z</time>
        <extensions>
          <ns3:TrackPointExtension>
            <ns3:atemp>21.0</ns3:atemp>
          </ns3:TrackPointExtension>
        </extensions>
      </trkpt>
      <trkpt lat="42.51250385306775569915771484375" lon="19.93518121540546417236328125">
        <ele>1856.4000244140625</ele>
        <time>2026-06-17T10:31:28.000Z</time>
        <extensions>
          <ns3:TrackPointExtension>
            <ns3:atemp>21.0</ns3:atemp>
          </ns3:TrackPointExtension>
        </extensions>
      </trkpt>
      <trkpt lat="42.51250385306775569915771484375" lon="19.93518121540546417236328125">
        <ele>1856.4000244140625</ele>
        <time>2026-06-17T10:31:29.000Z</time>
        <extensions>
          <ns3:TrackPointExtension>
            <ns3:atemp>21.0</ns3:atemp>
          </ns3:TrackPointExtension>
        </extensions>
      </trkpt>
      <trkpt lat="42.51250385306775569915771484375" lon="19.93518121540546417236328125">
        <ele>1856.4000244140625</ele>
        <time>2026-06-17T10:31:30.000Z</time>
        <extensions>
          <ns3:TrackPointExtension>
            <ns3:atemp>21.0</ns3:atemp>
          </ns3:TrackPointExtension>
        </extensions>
      </trkpt>
      <trkpt lat="42.51250385306775569915771484375" lon="19.93518121540546417236328125">
        <ele>1856.4000244140625</ele>
        <time>2026-06-17T10:31:31.000Z</time>
        <extensions>
          <ns3:TrackPointExtension>
            <ns3:atemp>21.0</ns3:atemp>
          </ns3:TrackPointExtension>
        </extensions>
      </trkpt>
      <trkpt lat="42.51250385306775569915771484375" lon="19.93518121540546417236328125">
        <ele>1856.4000244140625</ele>
        <time>2026-06-17T10:31:32.000Z</time>
        <extensions>
          <ns3:TrackPointExtension>
            <ns3:atemp>21.0</ns3:atemp>
          </ns3:TrackPointExtension>
        </extensions>
      </trkpt>
      <trkpt lat="42.51250385306775569915771484375" lon="19.93518121540546417236328125">
        <ele>1856.4000244140625</ele>
        <time>2026-06-17T10:31:33.000Z</time>
        <extensions>
          <ns3:TrackPointExtension>
            <ns3:atemp>21.0</ns3:atemp>
          </ns3:TrackPointExtension>
        </extensions>
      </trkpt>
      <trkpt lat="42.51250385306775569915771484375" lon="19.93518121540546417236328125">
        <ele>1856.4000244140625</ele>
        <time>2026-06-17T10:31:34.000Z</time>
        <extensions>
          <ns3:TrackPointExtension>
            <ns3:atemp>21.0</ns3:atemp>
          </ns3:TrackPointExtension>
        </extensions>
      </trkpt>
      <trkpt lat="42.51250385306775569915771484375" lon="19.93518121540546417236328125">
        <ele>1856.4000244140625</ele>
        <time>2026-06-17T10:31:35.000Z</time>
        <extensions>
          <ns3:TrackPointExtension>
            <ns3:atemp>21.0</ns3:atemp>
          </ns3:TrackPointExtension>
        </extensions>
      </trkpt>
      <trkpt lat="42.51250385306775569915771484375" lon="19.93518121540546417236328125">
        <ele>1856.4000244140625</ele>
        <time>2026-06-17T10:31:36.000Z</time>
        <extensions>
          <ns3:TrackPointExtension>
            <ns3:atemp>21.0</ns3:atemp>
          </ns3:TrackPointExtension>
        </extensions>
      </trkpt>
      <trkpt lat="42.51250385306775569915771484375" lon="19.93518121540546417236328125">
        <ele>1856.4000244140625</ele>
        <time>2026-06-17T10:31:37.000Z</time>
        <extensions>
          <ns3:TrackPointExtension>
            <ns3:atemp>21.0</ns3:atemp>
          </ns3:TrackPointExtension>
        </extensions>
      </trkpt>
      <trkpt lat="42.51250385306775569915771484375" lon="19.93518121540546417236328125">
        <ele>1856.4000244140625</ele>
        <time>2026-06-17T10:31:38.000Z</time>
        <extensions>
          <ns3:TrackPointExtension>
            <ns3:atemp>21.0</ns3:atemp>
          </ns3:TrackPointExtension>
        </extensions>
      </trkpt>
      <trkpt lat="42.51250385306775569915771484375" lon="19.93518121540546417236328125">
        <ele>1856.4000244140625</ele>
        <time>2026-06-17T10:31:39.000Z</time>
        <extensions>
          <ns3:TrackPointExtension>
            <ns3:atemp>21.0</ns3:atemp>
          </ns3:TrackPointExtension>
        </extensions>
      </trkpt>
      <trkpt lat="42.51250385306775569915771484375" lon="19.93518121540546417236328125">
        <ele>1856.4000244140625</ele>
        <time>2026-06-17T10:31:40.000Z</time>
        <extensions>
          <ns3:TrackPointExtension>
            <ns3:atemp>21.0</ns3:atemp>
          </ns3:TrackPointExtension>
        </extensions>
      </trkpt>
      <trkpt lat="42.51250385306775569915771484375" lon="19.93518121540546417236328125">
        <ele>1856.4000244140625</ele>
        <time>2026-06-17T10:31:41.000Z</time>
        <extensions>
          <ns3:TrackPointExtension>
            <ns3:atemp>21.0</ns3:atemp>
          </ns3:TrackPointExtension>
        </extensions>
      </trkpt>
      <trkpt lat="42.51250385306775569915771484375" lon="19.93518121540546417236328125">
        <ele>1856.4000244140625</ele>
        <time>2026-06-17T10:31:42.000Z</time>
        <extensions>
          <ns3:TrackPointExtension>
            <ns3:atemp>21.0</ns3:atemp>
          </ns3:TrackPointExtension>
        </extensions>
      </trkpt>
      <trkpt lat="42.51250385306775569915771484375" lon="19.93518121540546417236328125">
        <ele>1856.4000244140625</ele>
        <time>2026-06-17T10:31:43.000Z</time>
        <extensions>
          <ns3:TrackPointExtension>
            <ns3:atemp>21.0</ns3:atemp>
          </ns3:TrackPointExtension>
        </extensions>
      </trkpt>
      <trkpt lat="42.51250385306775569915771484375" lon="19.93518121540546417236328125">
        <ele>1856.4000244140625</ele>
        <time>2026-06-17T10:31:44.000Z</time>
        <extensions>
          <ns3:TrackPointExtension>
            <ns3:atemp>21.0</ns3:atemp>
          </ns3:TrackPointExtension>
        </extensions>
      </trkpt>
      <trkpt lat="42.51250385306775569915771484375" lon="19.93518121540546417236328125">
        <ele>1856.4000244140625</ele>
        <time>2026-06-17T10:31:45.000Z</time>
        <extensions>
          <ns3:TrackPointExtension>
            <ns3:atemp>21.0</ns3:atemp>
          </ns3:TrackPointExtension>
        </extensions>
      </trkpt>
      <trkpt lat="42.51250385306775569915771484375" lon="19.93518121540546417236328125">
        <ele>1856.4000244140625</ele>
        <time>2026-06-17T10:31:46.000Z</time>
        <extensions>
          <ns3:TrackPointExtension>
            <ns3:atemp>21.0</ns3:atemp>
          </ns3:TrackPointExtension>
        </extensions>
      </trkpt>
      <trkpt lat="42.51250385306775569915771484375" lon="19.93518121540546417236328125">
        <ele>1856.4000244140625</ele>
        <time>2026-06-17T10:31:47.000Z</time>
        <extensions>
          <ns3:TrackPointExtension>
            <ns3:atemp>21.0</ns3:atemp>
          </ns3:TrackPointExtension>
        </extensions>
      </trkpt>
      <trkpt lat="42.51250385306775569915771484375" lon="19.93518121540546417236328125">
        <ele>1856.4000244140625</ele>
        <time>2026-06-17T10:31:48.000Z</time>
        <extensions>
          <ns3:TrackPointExtension>
            <ns3:atemp>21.0</ns3:atemp>
          </ns3:TrackPointExtension>
        </extensions>
      </trkpt>
      <trkpt lat="42.51250385306775569915771484375" lon="19.93518121540546417236328125">
        <ele>1856.4000244140625</ele>
        <time>2026-06-17T10:31:49.000Z</time>
        <extensions>
          <ns3:TrackPointExtension>
            <ns3:atemp>21.0</ns3:atemp>
          </ns3:TrackPointExtension>
        </extensions>
      </trkpt>
      <trkpt lat="42.51250385306775569915771484375" lon="19.93518121540546417236328125">
        <ele>1856.4000244140625</ele>
        <time>2026-06-17T10:31:50.000Z</time>
        <extensions>
          <ns3:TrackPointExtension>
            <ns3:atemp>21.0</ns3:atemp>
          </ns3:TrackPointExtension>
        </extensions>
      </trkpt>
      <trkpt lat="42.51250385306775569915771484375" lon="19.93518121540546417236328125">
        <ele>1856.4000244140625</ele>
        <time>2026-06-17T10:31:51.000Z</time>
        <extensions>
          <ns3:TrackPointExtension>
            <ns3:atemp>21.0</ns3:atemp>
          </ns3:TrackPointExtension>
        </extensions>
      </trkpt>
      <trkpt lat="42.51250385306775569915771484375" lon="19.93518121540546417236328125">
        <ele>1856.4000244140625</ele>
        <time>2026-06-17T10:31:52.000Z</time>
        <extensions>
          <ns3:TrackPointExtension>
            <ns3:atemp>21.0</ns3:atemp>
          </ns3:TrackPointExtension>
        </extensions>
      </trkpt>
      <trkpt lat="42.51250385306775569915771484375" lon="19.93518121540546417236328125">
        <ele>1856.4000244140625</ele>
        <time>2026-06-17T10:31:53.000Z</time>
        <extensions>
          <ns3:TrackPointExtension>
            <ns3:atemp>21.0</ns3:atemp>
          </ns3:TrackPointExtension>
        </extensions>
      </trkpt>
      <trkpt lat="42.51250385306775569915771484375" lon="19.93518121540546417236328125">
        <ele>1856.4000244140625</ele>
        <time>2026-06-17T10:31:54.000Z</time>
        <extensions>
          <ns3:TrackPointExtension>
            <ns3:atemp>21.0</ns3:atemp>
          </ns3:TrackPointExtension>
        </extensions>
      </trkpt>
      <trkpt lat="42.51250184141099452972412109375" lon="19.93518532253801822662353515625">
        <ele>1856.4000244140625</ele>
        <time>2026-06-17T10:31:55.000Z</time>
        <extensions>
          <ns3:TrackPointExtension>
            <ns3:atemp>21.0</ns3:atemp>
          </ns3:TrackPointExtension>
        </extensions>
      </trkpt>
      <trkpt lat="42.51249982975423336029052734375" lon="19.935182221233844757080078125">
        <ele>1856.4000244140625</ele>
        <time>2026-06-17T10:31:56.000Z</time>
        <extensions>
          <ns3:TrackPointExtension>
            <ns3:atemp>21.0</ns3:atemp>
          </ns3:TrackPointExtension>
        </extensions>
      </trkpt>
      <trkpt lat="42.512498907744884490966796875" lon="19.93516637943685054779052734375">
        <ele>1856.4000244140625</ele>
        <time>2026-06-17T10:31:57.000Z</time>
        <extensions>
          <ns3:TrackPointExtension>
            <ns3:atemp>21.0</ns3:atemp>
          </ns3:TrackPointExtension>
        </extensions>
      </trkpt>
      <trkpt lat="42.5124933756887912750244140625" lon="19.93514408357441425323486328125">
        <ele>1856.800048828125</ele>
        <time>2026-06-17T10:31:58.000Z</time>
        <extensions>
          <ns3:TrackPointExtension>
            <ns3:atemp>21.0</ns3:atemp>
          </ns3:TrackPointExtension>
        </extensions>
      </trkpt>
      <trkpt lat="42.51248373650014400482177734375" lon="19.935116507112979888916015625">
        <ele>1856.5999755859375</ele>
        <time>2026-06-17T10:31:59.000Z</time>
        <extensions>
          <ns3:TrackPointExtension>
            <ns3:atemp>21.0</ns3:atemp>
          </ns3:TrackPointExtension>
        </extensions>
      </trkpt>
      <trkpt lat="42.51247485168278217315673828125" lon="19.9350891821086406707763671875">
        <ele>1856.5999755859375</ele>
        <time>2026-06-17T10:32:00.000Z</time>
        <extensions>
          <ns3:TrackPointExtension>
            <ns3:atemp>21.0</ns3:atemp>
          </ns3:TrackPointExtension>
        </extensions>
      </trkpt>
      <trkpt lat="42.5124672241508960723876953125" lon="19.93506462313234806060791015625">
        <ele>1856.4000244140625</ele>
        <time>2026-06-17T10:32:01.000Z</time>
        <extensions>
          <ns3:TrackPointExtension>
            <ns3:atemp>21.0</ns3:atemp>
          </ns3:TrackPointExtension>
        </extensions>
      </trkpt>
      <trkpt lat="42.5124643743038177490234375" lon="19.93504299782216548919677734375">
        <ele>1856.4000244140625</ele>
        <time>2026-06-17T10:32:02.000Z</time>
        <extensions>
          <ns3:TrackPointExtension>
            <ns3:atemp>21.0</ns3:atemp>
          </ns3:TrackPointExtension>
        </extensions>
      </trkpt>
      <trkpt lat="42.51246060244739055633544921875" lon="19.935023970901966094970703125">
        <ele>1856.4000244140625</ele>
        <time>2026-06-17T10:32:03.000Z</time>
        <extensions>
          <ns3:TrackPointExtension>
            <ns3:atemp>21.0</ns3:atemp>
          </ns3:TrackPointExtension>
        </extensions>
      </trkpt>
      <trkpt lat="42.51245699822902679443359375" lon="19.935009889304637908935546875">
        <ele>1856.4000244140625</ele>
        <time>2026-06-17T10:32:04.000Z</time>
        <extensions>
          <ns3:TrackPointExtension>
            <ns3:atemp>21.0</ns3:atemp>
          </ns3:TrackPointExtension>
        </extensions>
      </trkpt>
      <trkpt lat="42.5124534778296947479248046875" lon="19.93499555625021457672119140625">
        <ele>1856.4000244140625</ele>
        <time>2026-06-17T10:32:05.000Z</time>
        <extensions>
          <ns3:TrackPointExtension>
            <ns3:atemp>21.0</ns3:atemp>
          </ns3:TrackPointExtension>
        </extensions>
      </trkpt>
      <trkpt lat="42.51244895160198211669921875" lon="19.93497870862483978271484375">
        <ele>1856.4000244140625</ele>
        <time>2026-06-17T10:32:06.000Z</time>
        <extensions>
          <ns3:TrackPointExtension>
            <ns3:atemp>21.0</ns3:atemp>
          </ns3:TrackPointExtension>
        </extensions>
      </trkpt>
      <trkpt lat="42.512449286878108978271484375" lon="19.93497409857809543609619140625">
        <ele>1856.199951171875</ele>
        <time>2026-06-17T10:32:07.000Z</time>
        <extensions>
          <ns3:TrackPointExtension>
            <ns3:atemp>21.0</ns3:atemp>
          </ns3:TrackPointExtension>
        </extensions>
      </trkpt>
      <trkpt lat="42.51244836486876010894775390625" lon="19.93497711606323719024658203125">
        <ele>1856</ele>
        <time>2026-06-17T10:32:08.000Z</time>
        <extensions>
          <ns3:TrackPointExtension>
            <ns3:atemp>21.0</ns3:atemp>
          </ns3:TrackPointExtension>
        </extensions>
      </trkpt>
      <trkpt lat="42.51244836486876010894775390625" lon="19.93497711606323719024658203125">
        <ele>1856</ele>
        <time>2026-06-17T10:32:09.000Z</time>
        <extensions>
          <ns3:TrackPointExtension>
            <ns3:atemp>21.0</ns3:atemp>
          </ns3:TrackPointExtension>
        </extensions>
      </trkpt>
      <trkpt lat="42.51244836486876010894775390625" lon="19.93497711606323719024658203125">
        <ele>1855.800048828125</ele>
        <time>2026-06-17T10:32:10.000Z</time>
        <extensions>
          <ns3:TrackPointExtension>
            <ns3:atemp>21.0</ns3:atemp>
          </ns3:TrackPointExtension>
        </extensions>
      </trkpt>
      <trkpt lat="42.51244836486876010894775390625" lon="19.93497711606323719024658203125">
        <ele>1855.800048828125</ele>
        <time>2026-06-17T10:32:11.000Z</time>
        <extensions>
          <ns3:TrackPointExtension>
            <ns3:atemp>21.0</ns3:atemp>
          </ns3:TrackPointExtension>
        </extensions>
      </trkpt>
      <trkpt lat="42.51244836486876010894775390625" lon="19.93497711606323719024658203125">
        <ele>1855.800048828125</ele>
        <time>2026-06-17T10:32:12.000Z</time>
        <extensions>
          <ns3:TrackPointExtension>
            <ns3:atemp>21.0</ns3:atemp>
          </ns3:TrackPointExtension>
        </extensions>
      </trkpt>
      <trkpt lat="42.51244836486876010894775390625" lon="19.93497711606323719024658203125">
        <ele>1855.800048828125</ele>
        <time>2026-06-17T10:32:13.000Z</time>
        <extensions>
          <ns3:TrackPointExtension>
            <ns3:atemp>21.0</ns3:atemp>
          </ns3:TrackPointExtension>
        </extensions>
      </trkpt>
      <trkpt lat="42.51244836486876010894775390625" lon="19.93497711606323719024658203125">
        <ele>1855.800048828125</ele>
        <time>2026-06-17T10:32:14.000Z</time>
        <extensions>
          <ns3:TrackPointExtension>
            <ns3:atemp>21.0</ns3:atemp>
          </ns3:TrackPointExtension>
        </extensions>
      </trkpt>
      <trkpt lat="42.51244836486876010894775390625" lon="19.93497711606323719024658203125">
        <ele>1855.800048828125</ele>
        <time>2026-06-17T10:32:15.000Z</time>
        <extensions>
          <ns3:TrackPointExtension>
            <ns3:atemp>21.0</ns3:atemp>
          </ns3:TrackPointExtension>
        </extensions>
      </trkpt>
      <trkpt lat="42.51244836486876010894775390625" lon="19.934977032244205474853515625">
        <ele>1855.800048828125</ele>
        <time>2026-06-17T10:32:16.000Z</time>
        <extensions>
          <ns3:TrackPointExtension>
            <ns3:atemp>21.0</ns3:atemp>
          </ns3:TrackPointExtension>
        </extensions>
      </trkpt>
      <trkpt lat="42.5124404020607471466064453125" lon="19.93496286682784557342529296875">
        <ele>1855.800048828125</ele>
        <time>2026-06-17T10:32:17.000Z</time>
        <extensions>
          <ns3:TrackPointExtension>
            <ns3:atemp>21.0</ns3:atemp>
          </ns3:TrackPointExtension>
        </extensions>
      </trkpt>
      <trkpt lat="42.51242405734956264495849609375" lon="19.93494425900280475616455078125">
        <ele>1855.800048828125</ele>
        <time>2026-06-17T10:32:18.000Z</time>
        <extensions>
          <ns3:TrackPointExtension>
            <ns3:atemp>21.0</ns3:atemp>
          </ns3:TrackPointExtension>
        </extensions>
      </trkpt>
      <trkpt lat="42.51241542398929595947265625" lon="19.93493906222283840179443359375">
        <ele>1855.5999755859375</ele>
        <time>2026-06-17T10:32:19.000Z</time>
        <extensions>
          <ns3:TrackPointExtension>
            <ns3:atemp>21.0</ns3:atemp>
          </ns3:TrackPointExtension>
        </extensions>
      </trkpt>
      <trkpt lat="42.51241005957126617431640625" lon="19.93493353016674518585205078125">
        <ele>1855.5999755859375</ele>
        <time>2026-06-17T10:32:20.000Z</time>
        <extensions>
          <ns3:TrackPointExtension>
            <ns3:atemp>21.0</ns3:atemp>
          </ns3:TrackPointExtension>
        </extensions>
      </trkpt>
      <trkpt lat="42.51240997575223445892333984375" lon="19.93493353016674518585205078125">
        <ele>1855.4000244140625</ele>
        <time>2026-06-17T10:32:21.000Z</time>
        <extensions>
          <ns3:TrackPointExtension>
            <ns3:atemp>21.0</ns3:atemp>
          </ns3:TrackPointExtension>
        </extensions>
      </trkpt>
      <trkpt lat="42.51240997575223445892333984375" lon="19.9349336139857769012451171875">
        <ele>1855.4000244140625</ele>
        <time>2026-06-17T10:32:22.000Z</time>
        <extensions>
          <ns3:TrackPointExtension>
            <ns3:atemp>21.0</ns3:atemp>
          </ns3:TrackPointExtension>
        </extensions>
      </trkpt>
      <trkpt lat="42.512403018772602081298828125" lon="19.93493252433836460113525390625">
        <ele>1855.4000244140625</ele>
        <time>2026-06-17T10:32:23.000Z</time>
        <extensions>
          <ns3:TrackPointExtension>
            <ns3:atemp>21.0</ns3:atemp>
          </ns3:TrackPointExtension>
        </extensions>
      </trkpt>
      <trkpt lat="42.5123880989849567413330078125" lon="19.93492799811065196990966796875">
        <ele>1855.4000244140625</ele>
        <time>2026-06-17T10:32:24.000Z</time>
        <extensions>
          <ns3:TrackPointExtension>
            <ns3:atemp>21.0</ns3:atemp>
          </ns3:TrackPointExtension>
        </extensions>
      </trkpt>
      <trkpt lat="42.51236823387444019317626953125" lon="19.9349259026348590850830078125">
        <ele>1855.4000244140625</ele>
        <time>2026-06-17T10:32:25.000Z</time>
        <extensions>
          <ns3:TrackPointExtension>
            <ns3:atemp>21.0</ns3:atemp>
          </ns3:TrackPointExtension>
        </extensions>
      </trkpt>
      <trkpt lat="42.51234392635524272918701171875" lon="19.9349252320826053619384765625">
        <ele>1855.4000244140625</ele>
        <time>2026-06-17T10:32:26.000Z</time>
        <extensions>
          <ns3:TrackPointExtension>
            <ns3:atemp>21.0</ns3:atemp>
          </ns3:TrackPointExtension>
        </extensions>
      </trkpt>
      <trkpt lat="42.51232624053955078125" lon="19.934916682541370391845703125">
        <ele>1855.5999755859375</ele>
        <time>2026-06-17T10:32:27.000Z</time>
        <extensions>
          <ns3:TrackPointExtension>
            <ns3:atemp>21.0</ns3:atemp>
          </ns3:TrackPointExtension>
        </extensions>
      </trkpt>
      <trkpt lat="42.5123088061809539794921875" lon="19.93490360677242279052734375">
        <ele>1855.5999755859375</ele>
        <time>2026-06-17T10:32:28.000Z</time>
        <extensions>
          <ns3:TrackPointExtension>
            <ns3:atemp>21.0</ns3:atemp>
          </ns3:TrackPointExtension>
        </extensions>
      </trkpt>
      <trkpt lat="42.51229279674589633941650390625" lon="19.93488441221415996551513671875">
        <ele>1855.5999755859375</ele>
        <time>2026-06-17T10:32:29.000Z</time>
        <extensions>
          <ns3:TrackPointExtension>
            <ns3:atemp>21.0</ns3:atemp>
          </ns3:TrackPointExtension>
        </extensions>
      </trkpt>
      <trkpt lat="42.5122801400721073150634765625" lon="19.9348632059991359710693359375">
        <ele>1855.800048828125</ele>
        <time>2026-06-17T10:32:30.000Z</time>
        <extensions>
          <ns3:TrackPointExtension>
            <ns3:atemp>21.0</ns3:atemp>
          </ns3:TrackPointExtension>
        </extensions>
      </trkpt>
      <trkpt lat="42.51226597465574741363525390625" lon="19.93483923375606536865234375">
        <ele>1856</ele>
        <time>2026-06-17T10:32:31.000Z</time>
        <extensions>
          <ns3:TrackPointExtension>
            <ns3:atemp>21.0</ns3:atemp>
          </ns3:TrackPointExtension>
        </extensions>
      </trkpt>
      <trkpt lat="42.5122499652206897735595703125" lon="19.93481182493269443511962890625">
        <ele>1856</ele>
        <time>2026-06-17T10:32:32.000Z</time>
        <extensions>
          <ns3:TrackPointExtension>
            <ns3:atemp>21.0</ns3:atemp>
          </ns3:TrackPointExtension>
        </extensions>
      </trkpt>
      <trkpt lat="42.51223814673721790313720703125" lon="19.934779219329357147216796875">
        <ele>1855.800048828125</ele>
        <time>2026-06-17T10:32:33.000Z</time>
        <extensions>
          <ns3:TrackPointExtension>
            <ns3:atemp>21.0</ns3:atemp>
          </ns3:TrackPointExtension>
        </extensions>
      </trkpt>
      <trkpt lat="42.5122278369963169097900390625" lon="19.93474409915506839752197265625">
        <ele>1855.800048828125</ele>
        <time>2026-06-17T10:32:34.000Z</time>
        <extensions>
          <ns3:TrackPointExtension>
            <ns3:atemp>21.0</ns3:atemp>
          </ns3:TrackPointExtension>
        </extensions>
      </trkpt>
      <trkpt lat="42.5122157670557498931884765625" lon="19.93471157737076282501220703125">
        <ele>1855.800048828125</ele>
        <time>2026-06-17T10:32:35.000Z</time>
        <extensions>
          <ns3:TrackPointExtension>
            <ns3:atemp>21.0</ns3:atemp>
          </ns3:TrackPointExtension>
        </extensions>
      </trkpt>
      <trkpt lat="42.51219908706843852996826171875" lon="19.93468458764255046844482421875">
        <ele>1855.5999755859375</ele>
        <time>2026-06-17T10:32:36.000Z</time>
        <extensions>
          <ns3:TrackPointExtension>
            <ns3:atemp>21.0</ns3:atemp>
          </ns3:TrackPointExtension>
        </extensions>
      </trkpt>
      <trkpt lat="42.51218886114656925201416015625" lon="19.9346534907817840576171875">
        <ele>1855.4000244140625</ele>
        <time>2026-06-17T10:32:37.000Z</time>
        <extensions>
          <ns3:TrackPointExtension>
            <ns3:atemp>21.0</ns3:atemp>
          </ns3:TrackPointExtension>
        </extensions>
      </trkpt>
      <trkpt lat="42.51218198798596858978271484375" lon="19.93462809361517429351806640625">
        <ele>1855.199951171875</ele>
        <time>2026-06-17T10:32:38.000Z</time>
        <extensions>
          <ns3:TrackPointExtension>
            <ns3:atemp>21.0</ns3:atemp>
          </ns3:TrackPointExtension>
        </extensions>
      </trkpt>
      <trkpt lat="42.51217913813889026641845703125" lon="19.93460831232368946075439453125">
        <ele>1855</ele>
        <time>2026-06-17T10:32:39.000Z</time>
        <extensions>
          <ns3:TrackPointExtension>
            <ns3:atemp>21.0</ns3:atemp>
          </ns3:TrackPointExtension>
        </extensions>
      </trkpt>
      <trkpt lat="42.5121768750250339508056640625" lon="19.93458735756576061248779296875">
        <ele>1854.5999755859375</ele>
        <time>2026-06-17T10:32:40.000Z</time>
        <extensions>
          <ns3:TrackPointExtension>
            <ns3:atemp>21.0</ns3:atemp>
          </ns3:TrackPointExtension>
        </extensions>
      </trkpt>
      <trkpt lat="42.51217679120600223541259765625" lon="19.9345634691417217254638671875">
        <ele>1854.5999755859375</ele>
        <time>2026-06-17T10:32:41.000Z</time>
        <extensions>
          <ns3:TrackPointExtension>
            <ns3:atemp>21.0</ns3:atemp>
          </ns3:TrackPointExtension>
        </extensions>
      </trkpt>
      <trkpt lat="42.5121731869876384735107421875" lon="19.934541843831539154052734375">
        <ele>1854.4000244140625</ele>
        <time>2026-06-17T10:32:42.000Z</time>
        <extensions>
          <ns3:TrackPointExtension>
            <ns3:atemp>21.0</ns3:atemp>
          </ns3:TrackPointExtension>
        </extensions>
      </trkpt>
      <trkpt lat="42.51216589473187923431396484375" lon="19.93452273309230804443359375">
        <ele>1854.199951171875</ele>
        <time>2026-06-17T10:32:43.000Z</time>
        <extensions>
          <ns3:TrackPointExtension>
            <ns3:atemp>21.0</ns3:atemp>
          </ns3:TrackPointExtension>
        </extensions>
      </trkpt>
      <trkpt lat="42.51215198077261447906494140625" lon="19.9345021136105060577392578125">
        <ele>1854</ele>
        <time>2026-06-17T10:32:44.000Z</time>
        <extensions>
          <ns3:TrackPointExtension>
            <ns3:atemp>21.0</ns3:atemp>
          </ns3:TrackPointExtension>
        </extensions>
      </trkpt>
      <trkpt lat="42.5121460296213626861572265625" lon="19.93447135202586650848388671875">
        <ele>1853.800048828125</ele>
        <time>2026-06-17T10:32:45.000Z</time>
        <extensions>
          <ns3:TrackPointExtension>
            <ns3:atemp>21.0</ns3:atemp>
          </ns3:TrackPointExtension>
        </extensions>
      </trkpt>
      <trkpt lat="42.51214544288814067840576171875" lon="19.93444168008863925933837890625">
        <ele>1853.5999755859375</ele>
        <time>2026-06-17T10:32:46.000Z</time>
        <extensions>
          <ns3:TrackPointExtension>
            <ns3:atemp>21.0</ns3:atemp>
          </ns3:TrackPointExtension>
        </extensions>
      </trkpt>
      <trkpt lat="42.5121507234871387481689453125" lon="19.93441670201718807220458984375">
        <ele>1853.4000244140625</ele>
        <time>2026-06-17T10:32:47.000Z</time>
        <extensions>
          <ns3:TrackPointExtension>
            <ns3:atemp>21.0</ns3:atemp>
          </ns3:TrackPointExtension>
        </extensions>
      </trkpt>
      <trkpt lat="42.5121560879051685333251953125" lon="19.93438954465091228485107421875">
        <ele>1853.4000244140625</ele>
        <time>2026-06-17T10:32:48.000Z</time>
        <extensions>
          <ns3:TrackPointExtension>
            <ns3:atemp>21.0</ns3:atemp>
          </ns3:TrackPointExtension>
        </extensions>
      </trkpt>
      <trkpt lat="42.512153573334217071533203125" lon="19.9343619681894779205322265625">
        <ele>1853.4000244140625</ele>
        <time>2026-06-17T10:32:49.000Z</time>
        <extensions>
          <ns3:TrackPointExtension>
            <ns3:atemp>21.0</ns3:atemp>
          </ns3:TrackPointExtension>
        </extensions>
      </trkpt>
      <trkpt lat="42.5121532380580902099609375" lon="19.93432181887328624725341796875">
        <ele>1853.199951171875</ele>
        <time>2026-06-17T10:32:50.000Z</time>
        <extensions>
          <ns3:TrackPointExtension>
            <ns3:atemp>21.0</ns3:atemp>
          </ns3:TrackPointExtension>
        </extensions>
      </trkpt>
      <trkpt lat="42.5121505558490753173828125" lon="19.934274293482303619384765625">
        <ele>1853.199951171875</ele>
        <time>2026-06-17T10:32:51.000Z</time>
        <extensions>
          <ns3:TrackPointExtension>
            <ns3:atemp>21.0</ns3:atemp>
          </ns3:TrackPointExtension>
        </extensions>
      </trkpt>
      <trkpt lat="42.51215231604874134063720703125" lon="19.93422626517713069915771484375">
        <ele>1853</ele>
        <time>2026-06-17T10:32:52.000Z</time>
        <extensions>
          <ns3:TrackPointExtension>
            <ns3:atemp>21.0</ns3:atemp>
          </ns3:TrackPointExtension>
        </extensions>
      </trkpt>
      <trkpt lat="42.51215365715324878692626953125" lon="19.93417672812938690185546875">
        <ele>1853</ele>
        <time>2026-06-17T10:32:53.000Z</time>
        <extensions>
          <ns3:TrackPointExtension>
            <ns3:atemp>21.0</ns3:atemp>
          </ns3:TrackPointExtension>
        </extensions>
      </trkpt>
      <trkpt lat="42.51215332187712192535400390625" lon="19.93413104675710201263427734375">
        <ele>1852.800048828125</ele>
        <time>2026-06-17T10:32:54.000Z</time>
        <extensions>
          <ns3:TrackPointExtension>
            <ns3:atemp>21.0</ns3:atemp>
          </ns3:TrackPointExtension>
        </extensions>
      </trkpt>
      <trkpt lat="42.5121559202671051025390625" lon="19.9340853653848171234130859375">
        <ele>1852.5999755859375</ele>
        <time>2026-06-17T10:32:55.000Z</time>
        <extensions>
          <ns3:TrackPointExtension>
            <ns3:atemp>21.0</ns3:atemp>
          </ns3:TrackPointExtension>
        </extensions>
      </trkpt>
      <trkpt lat="42.512150220572948455810546875" lon="19.9340558610856533050537109375">
        <ele>1852.800048828125</ele>
        <time>2026-06-17T10:32:56.000Z</time>
        <extensions>
          <ns3:TrackPointExtension>
            <ns3:atemp>21.0</ns3:atemp>
          </ns3:TrackPointExtension>
        </extensions>
      </trkpt>
      <trkpt lat="42.512151896953582763671875" lon="19.934022836387157440185546875">
        <ele>1853</ele>
        <time>2026-06-17T10:32:57.000Z</time>
        <extensions>
          <ns3:TrackPointExtension>
            <ns3:atemp>21.0</ns3:atemp>
          </ns3:TrackPointExtension>
        </extensions>
      </trkpt>
      <trkpt lat="42.5121477060019969940185546875" lon="19.9340005405247211456298828125">
        <ele>1853.199951171875</ele>
        <time>2026-06-17T10:32:58.000Z</time>
        <extensions>
          <ns3:TrackPointExtension>
            <ns3:atemp>21.0</ns3:atemp>
          </ns3:TrackPointExtension>
        </extensions>
      </trkpt>
      <trkpt lat="42.51214854419231414794921875" lon="19.93397698737680912017822265625">
        <ele>1853.5999755859375</ele>
        <time>2026-06-17T10:32:59.000Z</time>
        <extensions>
          <ns3:TrackPointExtension>
            <ns3:atemp>21.0</ns3:atemp>
          </ns3:TrackPointExtension>
        </extensions>
      </trkpt>
      <trkpt lat="42.5121570937335491180419921875" lon="19.933972544968128204345703125">
        <ele>1853.800048828125</ele>
        <time>2026-06-17T10:33:00.000Z</time>
        <extensions>
          <ns3:TrackPointExtension>
            <ns3:atemp>21.0</ns3:atemp>
          </ns3:TrackPointExtension>
        </extensions>
      </trkpt>
      <trkpt lat="42.5121621228754520416259765625" lon="19.93396189995110034942626953125">
        <ele>1854</ele>
        <time>2026-06-17T10:33:01.000Z</time>
        <extensions>
          <ns3:TrackPointExtension>
            <ns3:atemp>21.0</ns3:atemp>
          </ns3:TrackPointExtension>
        </extensions>
      </trkpt>
      <trkpt lat="42.5121612846851348876953125" lon="19.93394798599183559417724609375">
        <ele>1854.199951171875</ele>
        <time>2026-06-17T10:33:02.000Z</time>
        <extensions>
          <ns3:TrackPointExtension>
            <ns3:atemp>21.0</ns3:atemp>
          </ns3:TrackPointExtension>
        </extensions>
      </trkpt>
      <trkpt lat="42.5121577642858028411865234375" lon="19.9339264445006847381591796875">
        <ele>1854.4000244140625</ele>
        <time>2026-06-17T10:33:03.000Z</time>
        <extensions>
          <ns3:TrackPointExtension>
            <ns3:atemp>21.0</ns3:atemp>
          </ns3:TrackPointExtension>
        </extensions>
      </trkpt>
      <trkpt lat="42.512151896953582763671875" lon="19.9339153803884983062744140625">
        <ele>1854.5999755859375</ele>
        <time>2026-06-17T10:33:04.000Z</time>
        <extensions>
          <ns3:TrackPointExtension>
            <ns3:atemp>21.0</ns3:atemp>
          </ns3:TrackPointExtension>
        </extensions>
      </trkpt>
      <trkpt lat="42.5121530704200267791748046875" lon="19.933907501399517059326171875">
        <ele>1854.800048828125</ele>
        <time>2026-06-17T10:33:05.000Z</time>
        <extensions>
          <ns3:TrackPointExtension>
            <ns3:atemp>21.0</ns3:atemp>
          </ns3:TrackPointExtension>
        </extensions>
      </trkpt>
      <trkpt lat="42.5121483765542507171630859375" lon="19.93391093797981739044189453125">
        <ele>1855</ele>
        <time>2026-06-17T10:33:06.000Z</time>
        <extensions>
          <ns3:TrackPointExtension>
            <ns3:atemp>21.0</ns3:atemp>
          </ns3:TrackPointExtension>
        </extensions>
      </trkpt>
      <trkpt lat="42.51214795745909214019775390625" lon="19.93391253054141998291015625">
        <ele>1855.199951171875</ele>
        <time>2026-06-17T10:33:07.000Z</time>
        <extensions>
          <ns3:TrackPointExtension>
            <ns3:atemp>21.0</ns3:atemp>
          </ns3:TrackPointExtension>
        </extensions>
      </trkpt>
      <trkpt lat="42.5121478736400604248046875" lon="19.93391253054141998291015625">
        <ele>1855.5999755859375</ele>
        <time>2026-06-17T10:33:08.000Z</time>
        <extensions>
          <ns3:TrackPointExtension>
            <ns3:atemp>21.0</ns3:atemp>
          </ns3:TrackPointExtension>
        </extensions>
      </trkpt>
      <trkpt lat="42.5121478736400604248046875" lon="19.93391253054141998291015625">
        <ele>1855.5999755859375</ele>
        <time>2026-06-17T10:33:09.000Z</time>
        <extensions>
          <ns3:TrackPointExtension>
            <ns3:atemp>21.0</ns3:atemp>
          </ns3:TrackPointExtension>
        </extensions>
      </trkpt>
      <trkpt lat="42.5121478736400604248046875" lon="19.93391253054141998291015625">
        <ele>1855.5999755859375</ele>
        <time>2026-06-17T10:33:10.000Z</time>
        <extensions>
          <ns3:TrackPointExtension>
            <ns3:atemp>21.0</ns3:atemp>
          </ns3:TrackPointExtension>
        </extensions>
      </trkpt>
      <trkpt lat="42.5121478736400604248046875" lon="19.93391253054141998291015625">
        <ele>1855.5999755859375</ele>
        <time>2026-06-17T10:33:11.000Z</time>
        <extensions>
          <ns3:TrackPointExtension>
            <ns3:atemp>21.0</ns3:atemp>
          </ns3:TrackPointExtension>
        </extensions>
      </trkpt>
      <trkpt lat="42.5121478736400604248046875" lon="19.93391253054141998291015625">
        <ele>1855.5999755859375</ele>
        <time>2026-06-17T10:33:12.000Z</time>
        <extensions>
          <ns3:TrackPointExtension>
            <ns3:atemp>21.0</ns3:atemp>
          </ns3:TrackPointExtension>
        </extensions>
      </trkpt>
      <trkpt lat="42.5121478736400604248046875" lon="19.93391253054141998291015625">
        <ele>1855.5999755859375</ele>
        <time>2026-06-17T10:33:13.000Z</time>
        <extensions>
          <ns3:TrackPointExtension>
            <ns3:atemp>21.0</ns3:atemp>
          </ns3:TrackPointExtension>
        </extensions>
      </trkpt>
      <trkpt lat="42.5121478736400604248046875" lon="19.93391253054141998291015625">
        <ele>1855.5999755859375</ele>
        <time>2026-06-17T10:33:14.000Z</time>
        <extensions>
          <ns3:TrackPointExtension>
            <ns3:atemp>21.0</ns3:atemp>
          </ns3:TrackPointExtension>
        </extensions>
      </trkpt>
      <trkpt lat="42.5121478736400604248046875" lon="19.93391253054141998291015625">
        <ele>1855.5999755859375</ele>
        <time>2026-06-17T10:33:15.000Z</time>
        <extensions>
          <ns3:TrackPointExtension>
            <ns3:atemp>21.0</ns3:atemp>
          </ns3:TrackPointExtension>
        </extensions>
      </trkpt>
      <trkpt lat="42.5121478736400604248046875" lon="19.93391253054141998291015625">
        <ele>1855.5999755859375</ele>
        <time>2026-06-17T10:33:16.000Z</time>
        <extensions>
          <ns3:TrackPointExtension>
            <ns3:atemp>21.0</ns3:atemp>
          </ns3:TrackPointExtension>
        </extensions>
      </trkpt>
      <trkpt lat="42.5121478736400604248046875" lon="19.93391253054141998291015625">
        <ele>1855.5999755859375</ele>
        <time>2026-06-17T10:33:17.000Z</time>
        <extensions>
          <ns3:TrackPointExtension>
            <ns3:atemp>21.0</ns3:atemp>
          </ns3:TrackPointExtension>
        </extensions>
      </trkpt>
      <trkpt lat="42.5121478736400604248046875" lon="19.93391253054141998291015625">
        <ele>1855.5999755859375</ele>
        <time>2026-06-17T10:33:18.000Z</time>
        <extensions>
          <ns3:TrackPointExtension>
            <ns3:atemp>21.0</ns3:atemp>
          </ns3:TrackPointExtension>
        </extensions>
      </trkpt>
      <trkpt lat="42.5121478736400604248046875" lon="19.93391253054141998291015625">
        <ele>1855.5999755859375</ele>
        <time>2026-06-17T10:33:19.000Z</time>
        <extensions>
          <ns3:TrackPointExtension>
            <ns3:atemp>21.0</ns3:atemp>
          </ns3:TrackPointExtension>
        </extensions>
      </trkpt>
      <trkpt lat="42.5121478736400604248046875" lon="19.93391253054141998291015625">
        <ele>1855.5999755859375</ele>
        <time>2026-06-17T10:33:20.000Z</time>
        <extensions>
          <ns3:TrackPointExtension>
            <ns3:atemp>21.0</ns3:atemp>
          </ns3:TrackPointExtension>
        </extensions>
      </trkpt>
      <trkpt lat="42.5121478736400604248046875" lon="19.93391253054141998291015625">
        <ele>1855.5999755859375</ele>
        <time>2026-06-17T10:33:21.000Z</time>
        <extensions>
          <ns3:TrackPointExtension>
            <ns3:atemp>21.0</ns3:atemp>
          </ns3:TrackPointExtension>
        </extensions>
      </trkpt>
      <trkpt lat="42.5121478736400604248046875" lon="19.93391253054141998291015625">
        <ele>1855.5999755859375</ele>
        <time>2026-06-17T10:33:22.000Z</time>
        <extensions>
          <ns3:TrackPointExtension>
            <ns3:atemp>21.0</ns3:atemp>
          </ns3:TrackPointExtension>
        </extensions>
      </trkpt>
      <trkpt lat="42.5121478736400604248046875" lon="19.93391253054141998291015625">
        <ele>1855.5999755859375</ele>
        <time>2026-06-17T10:33:23.000Z</time>
        <extensions>
          <ns3:TrackPointExtension>
            <ns3:atemp>21.0</ns3:atemp>
          </ns3:TrackPointExtension>
        </extensions>
      </trkpt>
      <trkpt lat="42.5121478736400604248046875" lon="19.93391253054141998291015625">
        <ele>1855.5999755859375</ele>
        <time>2026-06-17T10:33:24.000Z</time>
        <extensions>
          <ns3:TrackPointExtension>
            <ns3:atemp>21.0</ns3:atemp>
          </ns3:TrackPointExtension>
        </extensions>
      </trkpt>
      <trkpt lat="42.5121478736400604248046875" lon="19.93391253054141998291015625">
        <ele>1855.5999755859375</ele>
        <time>2026-06-17T10:33:25.000Z</time>
        <extensions>
          <ns3:TrackPointExtension>
            <ns3:atemp>21.0</ns3:atemp>
          </ns3:TrackPointExtension>
        </extensions>
      </trkpt>
      <trkpt lat="42.5121478736400604248046875" lon="19.93391253054141998291015625">
        <ele>1855.5999755859375</ele>
        <time>2026-06-17T10:33:26.000Z</time>
        <extensions>
          <ns3:TrackPointExtension>
            <ns3:atemp>21.0</ns3:atemp>
          </ns3:TrackPointExtension>
        </extensions>
      </trkpt>
      <trkpt lat="42.5121478736400604248046875" lon="19.93391253054141998291015625">
        <ele>1855.5999755859375</ele>
        <time>2026-06-17T10:33:27.000Z</time>
        <extensions>
          <ns3:TrackPointExtension>
            <ns3:atemp>21.0</ns3:atemp>
          </ns3:TrackPointExtension>
        </extensions>
      </trkpt>
      <trkpt lat="42.5121478736400604248046875" lon="19.93391253054141998291015625">
        <ele>1855.5999755859375</ele>
        <time>2026-06-17T10:33:28.000Z</time>
        <extensions>
          <ns3:TrackPointExtension>
            <ns3:atemp>21.0</ns3:atemp>
          </ns3:TrackPointExtension>
        </extensions>
      </trkpt>
      <trkpt lat="42.5121478736400604248046875" lon="19.93391253054141998291015625">
        <ele>1855.5999755859375</ele>
        <time>2026-06-17T10:33:29.000Z</time>
        <extensions>
          <ns3:TrackPointExtension>
            <ns3:atemp>21.0</ns3:atemp>
          </ns3:TrackPointExtension>
        </extensions>
      </trkpt>
      <trkpt lat="42.5121478736400604248046875" lon="19.93391253054141998291015625">
        <ele>1855.5999755859375</ele>
        <time>2026-06-17T10:33:30.000Z</time>
        <extensions>
          <ns3:TrackPointExtension>
            <ns3:atemp>21.0</ns3:atemp>
          </ns3:TrackPointExtension>
        </extensions>
      </trkpt>
      <trkpt lat="42.5121478736400604248046875" lon="19.93391253054141998291015625">
        <ele>1855.5999755859375</ele>
        <time>2026-06-17T10:33:31.000Z</time>
        <extensions>
          <ns3:TrackPointExtension>
            <ns3:atemp>21.0</ns3:atemp>
          </ns3:TrackPointExtension>
        </extensions>
      </trkpt>
      <trkpt lat="42.5121478736400604248046875" lon="19.93391253054141998291015625">
        <ele>1855.5999755859375</ele>
        <time>2026-06-17T10:33:32.000Z</time>
        <extensions>
          <ns3:TrackPointExtension>
            <ns3:atemp>21.0</ns3:atemp>
          </ns3:TrackPointExtension>
        </extensions>
      </trkpt>
      <trkpt lat="42.5121478736400604248046875" lon="19.93391253054141998291015625">
        <ele>1855.5999755859375</ele>
        <time>2026-06-17T10:33:33.000Z</time>
        <extensions>
          <ns3:TrackPointExtension>
            <ns3:atemp>21.0</ns3:atemp>
          </ns3:TrackPointExtension>
        </extensions>
      </trkpt>
      <trkpt lat="42.5121478736400604248046875" lon="19.93391253054141998291015625">
        <ele>1855.5999755859375</ele>
        <time>2026-06-17T10:33:34.000Z</time>
        <extensions>
          <ns3:TrackPointExtension>
            <ns3:atemp>21.0</ns3:atemp>
          </ns3:TrackPointExtension>
        </extensions>
      </trkpt>
      <trkpt lat="42.5121478736400604248046875" lon="19.93391253054141998291015625">
        <ele>1855.5999755859375</ele>
        <time>2026-06-17T10:33:35.000Z</time>
        <extensions>
          <ns3:TrackPointExtension>
            <ns3:atemp>21.0</ns3:atemp>
          </ns3:TrackPointExtension>
        </extensions>
      </trkpt>
      <trkpt lat="42.5121478736400604248046875" lon="19.93391253054141998291015625">
        <ele>1855.5999755859375</ele>
        <time>2026-06-17T10:33:36.000Z</time>
        <extensions>
          <ns3:TrackPointExtension>
            <ns3:atemp>21.0</ns3:atemp>
          </ns3:TrackPointExtension>
        </extensions>
      </trkpt>
      <trkpt lat="42.5121478736400604248046875" lon="19.93391253054141998291015625">
        <ele>1855.5999755859375</ele>
        <time>2026-06-17T10:33:37.000Z</time>
        <extensions>
          <ns3:TrackPointExtension>
            <ns3:atemp>21.0</ns3:atemp>
          </ns3:TrackPointExtension>
        </extensions>
      </trkpt>
      <trkpt lat="42.5121478736400604248046875" lon="19.93391253054141998291015625">
        <ele>1855.5999755859375</ele>
        <time>2026-06-17T10:33:38.000Z</time>
        <extensions>
          <ns3:TrackPointExtension>
            <ns3:atemp>21.0</ns3:atemp>
          </ns3:TrackPointExtension>
        </extensions>
      </trkpt>
      <trkpt lat="42.5121478736400604248046875" lon="19.93391253054141998291015625">
        <ele>1855.5999755859375</ele>
        <time>2026-06-17T10:33:39.000Z</time>
        <extensions>
          <ns3:TrackPointExtension>
            <ns3:atemp>21.0</ns3:atemp>
          </ns3:TrackPointExtension>
        </extensions>
      </trkpt>
      <trkpt lat="42.5121487118303775787353515625" lon="19.93391261436045169830322265625">
        <ele>1855.5999755859375</ele>
        <time>2026-06-17T10:33:40.000Z</time>
        <extensions>
          <ns3:TrackPointExtension>
            <ns3:atemp>21.0</ns3:atemp>
          </ns3:TrackPointExtension>
        </extensions>
      </trkpt>
      <trkpt lat="42.51214359886944293975830078125" lon="19.93389920331537723541259765625">
        <ele>1855.800048828125</ele>
        <time>2026-06-17T10:33:41.000Z</time>
        <extensions>
          <ns3:TrackPointExtension>
            <ns3:atemp>21.0</ns3:atemp>
          </ns3:TrackPointExtension>
        </extensions>
      </trkpt>
      <trkpt lat="42.51212934963405132293701171875" lon="19.93388143368065357208251953125">
        <ele>1855.5999755859375</ele>
        <time>2026-06-17T10:33:42.000Z</time>
        <extensions>
          <ns3:TrackPointExtension>
            <ns3:atemp>21.0</ns3:atemp>
          </ns3:TrackPointExtension>
        </extensions>
      </trkpt>
      <trkpt lat="42.512108646333217620849609375" lon="19.93386366404592990875244140625">
        <ele>1855.4000244140625</ele>
        <time>2026-06-17T10:33:43.000Z</time>
        <extensions>
          <ns3:TrackPointExtension>
            <ns3:atemp>21.0</ns3:atemp>
          </ns3:TrackPointExtension>
        </extensions>
      </trkpt>
      <trkpt lat="42.5120943970978260040283203125" lon="19.93382762186229228973388671875">
        <ele>1855</ele>
        <time>2026-06-17T10:33:44.000Z</time>
        <extensions>
          <ns3:TrackPointExtension>
            <ns3:atemp>21.0</ns3:atemp>
          </ns3:TrackPointExtension>
        </extensions>
      </trkpt>
      <trkpt lat="42.5120674073696136474609375" lon="19.9337930046021938323974609375">
        <ele>1854.800048828125</ele>
        <time>2026-06-17T10:33:45.000Z</time>
        <extensions>
          <ns3:TrackPointExtension>
            <ns3:atemp>21.0</ns3:atemp>
          </ns3:TrackPointExtension>
        </extensions>
      </trkpt>
      <trkpt lat="42.5120457820594310760498046875" lon="19.93377414532005786895751953125">
        <ele>1854.5999755859375</ele>
        <time>2026-06-17T10:33:46.000Z</time>
        <extensions>
          <ns3:TrackPointExtension>
            <ns3:atemp>21.0</ns3:atemp>
          </ns3:TrackPointExtension>
        </extensions>
      </trkpt>
      <trkpt lat="42.5120246596634387969970703125" lon="19.9337544478476047515869140625">
        <ele>1854.4000244140625</ele>
        <time>2026-06-17T10:33:47.000Z</time>
        <extensions>
          <ns3:TrackPointExtension>
            <ns3:atemp>21.0</ns3:atemp>
          </ns3:TrackPointExtension>
        </extensions>
      </trkpt>
      <trkpt lat="42.5120001845061779022216796875" lon="19.93373357690870761871337890625">
        <ele>1854.4000244140625</ele>
        <time>2026-06-17T10:33:48.000Z</time>
        <extensions>
          <ns3:TrackPointExtension>
            <ns3:atemp>21.0</ns3:atemp>
          </ns3:TrackPointExtension>
        </extensions>
      </trkpt>
      <trkpt lat="42.51197151839733123779296875" lon="19.93370524607598781585693359375">
        <ele>1854.4000244140625</ele>
        <time>2026-06-17T10:33:49.000Z</time>
        <extensions>
          <ns3:TrackPointExtension>
            <ns3:atemp>21.0</ns3:atemp>
          </ns3:TrackPointExtension>
        </extensions>
      </trkpt>
      <trkpt lat="42.51194511540234088897705078125" lon="19.9336662702262401580810546875">
        <ele>1854.4000244140625</ele>
        <time>2026-06-17T10:33:50.000Z</time>
        <extensions>
          <ns3:TrackPointExtension>
            <ns3:atemp>21.0</ns3:atemp>
          </ns3:TrackPointExtension>
        </extensions>
      </trkpt>
      <trkpt lat="42.51191921532154083251953125" lon="19.93362285196781158447265625">
        <ele>1854.4000244140625</ele>
        <time>2026-06-17T10:33:51.000Z</time>
        <extensions>
          <ns3:TrackPointExtension>
            <ns3:atemp>21.0</ns3:atemp>
          </ns3:TrackPointExtension>
        </extensions>
      </trkpt>
      <trkpt lat="42.51189582981169223785400390625" lon="19.93358186446130275726318359375">
        <ele>1854.4000244140625</ele>
        <time>2026-06-17T10:33:52.000Z</time>
        <extensions>
          <ns3:TrackPointExtension>
            <ns3:atemp>21.0</ns3:atemp>
          </ns3:TrackPointExtension>
        </extensions>
      </trkpt>
      <trkpt lat="42.51187755726277828216552734375" lon="19.93354297243058681488037109375">
        <ele>1854.4000244140625</ele>
        <time>2026-06-17T10:33:53.000Z</time>
        <extensions>
          <ns3:TrackPointExtension>
            <ns3:atemp>21.0</ns3:atemp>
          </ns3:TrackPointExtension>
        </extensions>
      </trkpt>
      <trkpt lat="42.51186565496027469635009765625" lon="19.93350475095212459564208984375">
        <ele>1854.4000244140625</ele>
        <time>2026-06-17T10:33:54.000Z</time>
        <extensions>
          <ns3:TrackPointExtension>
            <ns3:atemp>21.0</ns3:atemp>
          </ns3:TrackPointExtension>
        </extensions>
      </trkpt>
      <trkpt lat="42.51185928471386432647705078125" lon="19.93345630355179309844970703125">
        <ele>1854.4000244140625</ele>
        <time>2026-06-17T10:33:55.000Z</time>
        <extensions>
          <ns3:TrackPointExtension>
            <ns3:atemp>21.0</ns3:atemp>
          </ns3:TrackPointExtension>
        </extensions>
      </trkpt>
      <trkpt lat="42.51185752451419830322265625" lon="19.9333973787724971771240234375">
        <ele>1854.199951171875</ele>
        <time>2026-06-17T10:33:56.000Z</time>
        <extensions>
          <ns3:TrackPointExtension>
            <ns3:atemp>21.0</ns3:atemp>
          </ns3:TrackPointExtension>
        </extensions>
      </trkpt>
      <trkpt lat="42.511853165924549102783203125" lon="19.9333299882709980010986328125">
        <ele>1854</ele>
        <time>2026-06-17T10:33:57.000Z</time>
        <extensions>
          <ns3:TrackPointExtension>
            <ns3:atemp>21.0</ns3:atemp>
          </ns3:TrackPointExtension>
        </extensions>
      </trkpt>
      <trkpt lat="42.51183916814625263214111328125" lon="19.93326854892075061798095703125">
        <ele>1853.800048828125</ele>
        <time>2026-06-17T10:33:58.000Z</time>
        <extensions>
          <ns3:TrackPointExtension>
            <ns3:atemp>21.0</ns3:atemp>
          </ns3:TrackPointExtension>
        </extensions>
      </trkpt>
      <trkpt lat="42.51183338463306427001953125" lon="19.93320501409471035003662109375">
        <ele>1853.5999755859375</ele>
        <time>2026-06-17T10:33:59.000Z</time>
        <extensions>
          <ns3:TrackPointExtension>
            <ns3:atemp>21.0</ns3:atemp>
          </ns3:TrackPointExtension>
        </extensions>
      </trkpt>
      <trkpt lat="42.51183011569082736968994140625" lon="19.93314013816416263580322265625">
        <ele>1853.4000244140625</ele>
        <time>2026-06-17T10:34:00.000Z</time>
        <extensions>
          <ns3:TrackPointExtension>
            <ns3:atemp>21.0</ns3:atemp>
          </ns3:TrackPointExtension>
        </extensions>
      </trkpt>
      <trkpt lat="42.5118214823305606842041015625" lon="19.93307207711040973663330078125">
        <ele>1853.4000244140625</ele>
        <time>2026-06-17T10:34:01.000Z</time>
        <extensions>
          <ns3:TrackPointExtension>
            <ns3:atemp>21.0</ns3:atemp>
          </ns3:TrackPointExtension>
        </extensions>
      </trkpt>
      <trkpt lat="42.511812932789325714111328125" lon="19.933000244200229644775390625">
        <ele>1853.199951171875</ele>
        <time>2026-06-17T10:34:02.000Z</time>
        <extensions>
          <ns3:TrackPointExtension>
            <ns3:atemp>21.0</ns3:atemp>
          </ns3:TrackPointExtension>
        </extensions>
      </trkpt>
      <trkpt lat="42.511808238923549652099609375" lon="19.93293243460357189178466796875">
        <ele>1853.199951171875</ele>
        <time>2026-06-17T10:34:03.000Z</time>
        <extensions>
          <ns3:TrackPointExtension>
            <ns3:atemp>21.0</ns3:atemp>
          </ns3:TrackPointExtension>
        </extensions>
      </trkpt>
      <trkpt lat="42.51179608516395092010498046875" lon="19.9328644573688507080078125">
        <ele>1852.800048828125</ele>
        <time>2026-06-17T10:34:04.000Z</time>
        <extensions>
          <ns3:TrackPointExtension>
            <ns3:atemp>21.0</ns3:atemp>
          </ns3:TrackPointExtension>
        </extensions>
      </trkpt>
      <trkpt lat="42.51178183592855930328369140625" lon="19.93279396556317806243896484375">
        <ele>1852.4000244140625</ele>
        <time>2026-06-17T10:34:05.000Z</time>
        <extensions>
          <ns3:TrackPointExtension>
            <ns3:atemp>21.0</ns3:atemp>
          </ns3:TrackPointExtension>
        </extensions>
      </trkpt>
      <trkpt lat="42.51176389865577220916748046875" lon="19.93272406049072742462158203125">
        <ele>1852.199951171875</ele>
        <time>2026-06-17T10:34:06.000Z</time>
        <extensions>
          <ns3:TrackPointExtension>
            <ns3:atemp>21.0</ns3:atemp>
          </ns3:TrackPointExtension>
        </extensions>
      </trkpt>
      <trkpt lat="42.5117507390677928924560546875" lon="19.9326517246663570404052734375">
        <ele>1852</ele>
        <time>2026-06-17T10:34:07.000Z</time>
        <extensions>
          <ns3:TrackPointExtension>
            <ns3:atemp>21.0</ns3:atemp>
          </ns3:TrackPointExtension>
        </extensions>
      </trkpt>
      <trkpt lat="42.51173305325210094451904296875" lon="19.932576455175876617431640625">
        <ele>1851.800048828125</ele>
        <time>2026-06-17T10:34:08.000Z</time>
        <extensions>
          <ns3:TrackPointExtension>
            <ns3:atemp>21.0</ns3:atemp>
          </ns3:TrackPointExtension>
        </extensions>
      </trkpt>
      <trkpt lat="42.51171830110251903533935546875" lon="19.93250864557921886444091796875">
        <ele>1851.199951171875</ele>
        <time>2026-06-17T10:34:09.000Z</time>
        <extensions>
          <ns3:TrackPointExtension>
            <ns3:atemp>21.0</ns3:atemp>
          </ns3:TrackPointExtension>
        </extensions>
      </trkpt>
      <trkpt lat="42.5116967596113681793212890625" lon="19.93244469165802001953125">
        <ele>1850.800048828125</ele>
        <time>2026-06-17T10:34:10.000Z</time>
        <extensions>
          <ns3:TrackPointExtension>
            <ns3:atemp>21.0</ns3:atemp>
          </ns3:TrackPointExtension>
        </extensions>
      </trkpt>
      <trkpt lat="42.5116918981075286865234375" lon="19.9323667399585247039794921875">
        <ele>1850.5999755859375</ele>
        <time>2026-06-17T10:34:11.000Z</time>
        <extensions>
          <ns3:TrackPointExtension>
            <ns3:atemp>21.0</ns3:atemp>
          </ns3:TrackPointExtension>
        </extensions>
      </trkpt>
      <trkpt lat="42.51167085953056812286376953125" lon="19.93228132836520671844482421875">
        <ele>1850.5999755859375</ele>
        <time>2026-06-17T10:34:12.000Z</time>
        <extensions>
          <ns3:TrackPointExtension>
            <ns3:atemp>21.0</ns3:atemp>
          </ns3:TrackPointExtension>
        </extensions>
      </trkpt>
      <trkpt lat="42.511641271412372589111328125" lon="19.93221460841596126556396484375">
        <ele>1850.199951171875</ele>
        <time>2026-06-17T10:34:13.000Z</time>
        <extensions>
          <ns3:TrackPointExtension>
            <ns3:atemp>21.0</ns3:atemp>
          </ns3:TrackPointExtension>
        </extensions>
      </trkpt>
      <trkpt lat="42.51161788590252399444580078125" lon="19.93215358816087245941162109375">
        <ele>1849.800048828125</ele>
        <time>2026-06-17T10:34:14.000Z</time>
        <extensions>
          <ns3:TrackPointExtension>
            <ns3:atemp>21.0</ns3:atemp>
          </ns3:TrackPointExtension>
        </extensions>
      </trkpt>
      <trkpt lat="42.5115928240120410919189453125" lon="19.9321048893034458160400390625">
        <ele>1849.4000244140625</ele>
        <time>2026-06-17T10:34:15.000Z</time>
        <extensions>
          <ns3:TrackPointExtension>
            <ns3:atemp>21.0</ns3:atemp>
          </ns3:TrackPointExtension>
        </extensions>
      </trkpt>
      <trkpt lat="42.51158569939434528350830078125" lon="19.93205199949443340301513671875">
        <ele>1849.199951171875</ele>
        <time>2026-06-17T10:34:16.000Z</time>
        <extensions>
          <ns3:TrackPointExtension>
            <ns3:atemp>21.0</ns3:atemp>
          </ns3:TrackPointExtension>
        </extensions>
      </trkpt>
      <trkpt lat="42.5115881301462650299072265625" lon="19.93200070224702358245849609375">
        <ele>1849</ele>
        <time>2026-06-17T10:34:17.000Z</time>
        <extensions>
          <ns3:TrackPointExtension>
            <ns3:atemp>21.0</ns3:atemp>
          </ns3:TrackPointExtension>
        </extensions>
      </trkpt>
      <trkpt lat="42.5115861184895038604736328125" lon="19.9319570325314998626708984375">
        <ele>1849</ele>
        <time>2026-06-17T10:34:18.000Z</time>
        <extensions>
          <ns3:TrackPointExtension>
            <ns3:atemp>21.0</ns3:atemp>
          </ns3:TrackPointExtension>
        </extensions>
      </trkpt>
      <trkpt lat="42.51158033497631549835205078125" lon="19.93190481327474117279052734375">
        <ele>1849</ele>
        <time>2026-06-17T10:34:19.000Z</time>
        <extensions>
          <ns3:TrackPointExtension>
            <ns3:atemp>21.0</ns3:atemp>
          </ns3:TrackPointExtension>
        </extensions>
      </trkpt>
      <trkpt lat="42.511567510664463043212890625" lon="19.93185125291347503662109375">
        <ele>1848.800048828125</ele>
        <time>2026-06-17T10:34:20.000Z</time>
        <extensions>
          <ns3:TrackPointExtension>
            <ns3:atemp>21.0</ns3:atemp>
          </ns3:TrackPointExtension>
        </extensions>
      </trkpt>
      <trkpt lat="42.51155418343842029571533203125" lon="19.9317967705428600311279296875">
        <ele>1848.4000244140625</ele>
        <time>2026-06-17T10:34:21.000Z</time>
        <extensions>
          <ns3:TrackPointExtension>
            <ns3:atemp>21.0</ns3:atemp>
          </ns3:TrackPointExtension>
        </extensions>
      </trkpt>
      <trkpt lat="42.51153641380369663238525390625" lon="19.9317474849522113800048828125">
        <ele>1848</ele>
        <time>2026-06-17T10:34:22.000Z</time>
        <extensions>
          <ns3:TrackPointExtension>
            <ns3:atemp>21.0</ns3:atemp>
          </ns3:TrackPointExtension>
        </extensions>
      </trkpt>
      <trkpt lat="42.511513195931911468505859375" lon="19.93170331232249736785888671875">
        <ele>1847.5999755859375</ele>
        <time>2026-06-17T10:34:23.000Z</time>
        <extensions>
          <ns3:TrackPointExtension>
            <ns3:atemp>21.0</ns3:atemp>
          </ns3:TrackPointExtension>
        </extensions>
      </trkpt>
      <trkpt lat="42.51148913986980915069580078125" lon="19.93166827596724033355712890625">
        <ele>1847.4000244140625</ele>
        <time>2026-06-17T10:34:24.000Z</time>
        <extensions>
          <ns3:TrackPointExtension>
            <ns3:atemp>21.0</ns3:atemp>
          </ns3:TrackPointExtension>
        </extensions>
      </trkpt>
      <trkpt lat="42.5114644132554531097412109375" lon="19.93162921629846096038818359375">
        <ele>1847.199951171875</ele>
        <time>2026-06-17T10:34:25.000Z</time>
        <extensions>
          <ns3:TrackPointExtension>
            <ns3:atemp>21.0</ns3:atemp>
          </ns3:TrackPointExtension>
        </extensions>
      </trkpt>
      <trkpt lat="42.511443458497524261474609375" lon="19.9315831996500492095947265625">
        <ele>1847</ele>
        <time>2026-06-17T10:34:26.000Z</time>
        <extensions>
          <ns3:TrackPointExtension>
            <ns3:atemp>21.0</ns3:atemp>
          </ns3:TrackPointExtension>
        </extensions>
      </trkpt>
      <trkpt lat="42.51143398694694042205810546875" lon="19.9315325729548931121826171875">
        <ele>1847</ele>
        <time>2026-06-17T10:34:27.000Z</time>
        <extensions>
          <ns3:TrackPointExtension>
            <ns3:atemp>21.0</ns3:atemp>
          </ns3:TrackPointExtension>
        </extensions>
      </trkpt>
      <trkpt lat="42.5114251859486103057861328125" lon="19.93147515691816806793212890625">
        <ele>1847</ele>
        <time>2026-06-17T10:34:28.000Z</time>
        <extensions>
          <ns3:TrackPointExtension>
            <ns3:atemp>21.0</ns3:atemp>
          </ns3:TrackPointExtension>
        </extensions>
      </trkpt>
      <trkpt lat="42.511422336101531982421875" lon="19.9314095266163349151611328125">
        <ele>1846.800048828125</ele>
        <time>2026-06-17T10:34:29.000Z</time>
        <extensions>
          <ns3:TrackPointExtension>
            <ns3:atemp>21.0</ns3:atemp>
          </ns3:TrackPointExtension>
        </extensions>
      </trkpt>
      <trkpt lat="42.5114183127880096435546875" lon="19.93133769370615482330322265625">
        <ele>1846.4000244140625</ele>
        <time>2026-06-17T10:34:30.000Z</time>
        <extensions>
          <ns3:TrackPointExtension>
            <ns3:atemp>21.0</ns3:atemp>
          </ns3:TrackPointExtension>
        </extensions>
      </trkpt>
      <trkpt lat="42.51141537912189960479736328125" lon="19.9312723986804485321044921875">
        <ele>1846.199951171875</ele>
        <time>2026-06-17T10:34:31.000Z</time>
        <extensions>
          <ns3:TrackPointExtension>
            <ns3:atemp>21.0</ns3:atemp>
          </ns3:TrackPointExtension>
        </extensions>
      </trkpt>
      <trkpt lat="42.51141219399869441986083984375" lon="19.93120643310248851776123046875">
        <ele>1846</ele>
        <time>2026-06-17T10:34:32.000Z</time>
        <extensions>
          <ns3:TrackPointExtension>
            <ns3:atemp>21.0</ns3:atemp>
          </ns3:TrackPointExtension>
        </extensions>
      </trkpt>
      <trkpt lat="42.51140565611422061920166015625" lon="19.93113853968679904937744140625">
        <ele>1845.5999755859375</ele>
        <time>2026-06-17T10:34:33.000Z</time>
        <extensions>
          <ns3:TrackPointExtension>
            <ns3:atemp>21.0</ns3:atemp>
          </ns3:TrackPointExtension>
        </extensions>
      </trkpt>
      <trkpt lat="42.51140247099101543426513671875" lon="19.9310655333101749420166015625">
        <ele>1845.199951171875</ele>
        <time>2026-06-17T10:34:34.000Z</time>
        <extensions>
          <ns3:TrackPointExtension>
            <ns3:atemp>21.0</ns3:atemp>
          </ns3:TrackPointExtension>
        </extensions>
      </trkpt>
      <trkpt lat="42.5113899819552898406982421875" lon="19.93099135346710681915283203125">
        <ele>1845</ele>
        <time>2026-06-17T10:34:35.000Z</time>
        <extensions>
          <ns3:TrackPointExtension>
            <ns3:atemp>21.0</ns3:atemp>
          </ns3:TrackPointExtension>
        </extensions>
      </trkpt>
      <trkpt lat="42.51137916930019855499267578125" lon="19.93092932738363742828369140625">
        <ele>1844.800048828125</ele>
        <time>2026-06-17T10:34:36.000Z</time>
        <extensions>
          <ns3:TrackPointExtension>
            <ns3:atemp>21.0</ns3:atemp>
          </ns3:TrackPointExtension>
        </extensions>
      </trkpt>
      <trkpt lat="42.51136802136898040771484375" lon="19.93088155053555965423583984375">
        <ele>1844.5999755859375</ele>
        <time>2026-06-17T10:34:37.000Z</time>
        <extensions>
          <ns3:TrackPointExtension>
            <ns3:atemp>21.0</ns3:atemp>
          </ns3:TrackPointExtension>
        </extensions>
      </trkpt>
      <trkpt lat="42.5113581307232379913330078125" lon="19.9308402277529239654541015625">
        <ele>1844.5999755859375</ele>
        <time>2026-06-17T10:34:38.000Z</time>
        <extensions>
          <ns3:TrackPointExtension>
            <ns3:atemp>21.0</ns3:atemp>
          </ns3:TrackPointExtension>
        </extensions>
      </trkpt>
      <trkpt lat="42.51134731806814670562744140625" lon="19.93080695159733295440673828125">
        <ele>1844.800048828125</ele>
        <time>2026-06-17T10:34:39.000Z</time>
        <extensions>
          <ns3:TrackPointExtension>
            <ns3:atemp>21.0</ns3:atemp>
          </ns3:TrackPointExtension>
        </extensions>
      </trkpt>
      <trkpt lat="42.51133558340370655059814453125" lon="19.93076990358531475067138671875">
        <ele>1845.199951171875</ele>
        <time>2026-06-17T10:34:40.000Z</time>
        <extensions>
          <ns3:TrackPointExtension>
            <ns3:atemp>21.0</ns3:atemp>
          </ns3:TrackPointExtension>
        </extensions>
      </trkpt>
      <trkpt lat="42.5113262794911861419677734375" lon="19.93073553778231143951416015625">
        <ele>1845.4000244140625</ele>
        <time>2026-06-17T10:34:41.000Z</time>
        <extensions>
          <ns3:TrackPointExtension>
            <ns3:atemp>21.0</ns3:atemp>
          </ns3:TrackPointExtension>
        </extensions>
      </trkpt>
      <trkpt lat="42.51132066361606121063232421875" lon="19.93070754222571849822998046875">
        <ele>1845.800048828125</ele>
        <time>2026-06-17T10:34:42.000Z</time>
        <extensions>
          <ns3:TrackPointExtension>
            <ns3:atemp>21.0</ns3:atemp>
          </ns3:TrackPointExtension>
        </extensions>
      </trkpt>
      <trkpt lat="42.51131680794060230255126953125" lon="19.93067602626979351043701171875">
        <ele>1846</ele>
        <time>2026-06-17T10:34:43.000Z</time>
        <extensions>
          <ns3:TrackPointExtension>
            <ns3:atemp>21.0</ns3:atemp>
          </ns3:TrackPointExtension>
        </extensions>
      </trkpt>
      <trkpt lat="42.51131731085479259490966796875" lon="19.93064216338098049163818359375">
        <ele>1846</ele>
        <time>2026-06-17T10:34:44.000Z</time>
        <extensions>
          <ns3:TrackPointExtension>
            <ns3:atemp>21.0</ns3:atemp>
          </ns3:TrackPointExtension>
        </extensions>
      </trkpt>
      <trkpt lat="42.51131974160671234130859375" lon="19.93060712702572345733642578125">
        <ele>1846.199951171875</ele>
        <time>2026-06-17T10:34:45.000Z</time>
        <extensions>
          <ns3:TrackPointExtension>
            <ns3:atemp>21.0</ns3:atemp>
          </ns3:TrackPointExtension>
        </extensions>
      </trkpt>
      <trkpt lat="42.51132217235863208770751953125" lon="19.93057594634592533111572265625">
        <ele>1846.199951171875</ele>
        <time>2026-06-17T10:34:46.000Z</time>
        <extensions>
          <ns3:TrackPointExtension>
            <ns3:atemp>21.0</ns3:atemp>
          </ns3:TrackPointExtension>
        </extensions>
      </trkpt>
      <trkpt lat="42.51132778823375701904296875" lon="19.93054141290485858917236328125">
        <ele>1846.4000244140625</ele>
        <time>2026-06-17T10:34:47.000Z</time>
        <extensions>
          <ns3:TrackPointExtension>
            <ns3:atemp>21.0</ns3:atemp>
          </ns3:TrackPointExtension>
        </extensions>
      </trkpt>
      <trkpt lat="42.5113349966704845428466796875" lon="19.93051006458699703216552734375">
        <ele>1846.4000244140625</ele>
        <time>2026-06-17T10:34:48.000Z</time>
        <extensions>
          <ns3:TrackPointExtension>
            <ns3:atemp>21.0</ns3:atemp>
          </ns3:TrackPointExtension>
        </extensions>
      </trkpt>
      <trkpt lat="42.51134111545979976654052734375" lon="19.93047502823173999786376953125">
        <ele>1846.5999755859375</ele>
        <time>2026-06-17T10:34:49.000Z</time>
        <extensions>
          <ns3:TrackPointExtension>
            <ns3:atemp>21.0</ns3:atemp>
          </ns3:TrackPointExtension>
        </extensions>
      </trkpt>
      <trkpt lat="42.511349581182003021240234375" lon="19.93043244816362857818603515625">
        <ele>1846.4000244140625</ele>
        <time>2026-06-17T10:34:50.000Z</time>
        <extensions>
          <ns3:TrackPointExtension>
            <ns3:atemp>21.0</ns3:atemp>
          </ns3:TrackPointExtension>
        </extensions>
      </trkpt>
      <trkpt lat="42.51135620288550853729248046875" lon="19.93038316257297992706298828125">
        <ele>1846.199951171875</ele>
        <time>2026-06-17T10:34:51.000Z</time>
        <extensions>
          <ns3:TrackPointExtension>
            <ns3:atemp>21.0</ns3:atemp>
          </ns3:TrackPointExtension>
        </extensions>
      </trkpt>
      <trkpt lat="42.51135871745645999908447265625" lon="19.9303175322711467742919921875">
        <ele>1846</ele>
        <time>2026-06-17T10:34:52.000Z</time>
        <extensions>
          <ns3:TrackPointExtension>
            <ns3:atemp>21.0</ns3:atemp>
          </ns3:TrackPointExtension>
        </extensions>
      </trkpt>
      <trkpt lat="42.51133742742240428924560546875" lon="19.93026162497699260711669921875">
        <ele>1845.5999755859375</ele>
        <time>2026-06-17T10:34:53.000Z</time>
        <extensions>
          <ns3:TrackPointExtension>
            <ns3:atemp>21.0</ns3:atemp>
          </ns3:TrackPointExtension>
        </extensions>
      </trkpt>
      <trkpt lat="42.51131395809352397918701171875" lon="19.93021736852824687957763671875">
        <ele>1845.4000244140625</ele>
        <time>2026-06-17T10:34:54.000Z</time>
        <extensions>
          <ns3:TrackPointExtension>
            <ns3:atemp>21.0</ns3:atemp>
          </ns3:TrackPointExtension>
        </extensions>
      </trkpt>
      <trkpt lat="42.5113061629235744476318359375" lon="19.93017755448818206787109375">
        <ele>1845.199951171875</ele>
        <time>2026-06-17T10:34:55.000Z</time>
        <extensions>
          <ns3:TrackPointExtension>
            <ns3:atemp>21.0</ns3:atemp>
          </ns3:TrackPointExtension>
        </extensions>
      </trkpt>
      <trkpt lat="42.51129903830587863922119140625" lon="19.93014209903776645660400390625">
        <ele>1845.199951171875</ele>
        <time>2026-06-17T10:34:56.000Z</time>
        <extensions>
          <ns3:TrackPointExtension>
            <ns3:atemp>21.0</ns3:atemp>
          </ns3:TrackPointExtension>
        </extensions>
      </trkpt>
      <trkpt lat="42.51128780655562877655029296875" lon="19.930108487606048583984375">
        <ele>1845.199951171875</ele>
        <time>2026-06-17T10:34:57.000Z</time>
        <extensions>
          <ns3:TrackPointExtension>
            <ns3:atemp>21.0</ns3:atemp>
          </ns3:TrackPointExtension>
        </extensions>
      </trkpt>
      <trkpt lat="42.51128344796597957611083984375" lon="19.93006892502307891845703125">
        <ele>1845.4000244140625</ele>
        <time>2026-06-17T10:34:58.000Z</time>
        <extensions>
          <ns3:TrackPointExtension>
            <ns3:atemp>21.0</ns3:atemp>
          </ns3:TrackPointExtension>
        </extensions>
      </trkpt>
      <trkpt lat="42.511282525956630706787109375" lon="19.93002726696431636810302734375">
        <ele>1845.4000244140625</ele>
        <time>2026-06-17T10:34:59.000Z</time>
        <extensions>
          <ns3:TrackPointExtension>
            <ns3:atemp>21.0</ns3:atemp>
          </ns3:TrackPointExtension>
        </extensions>
      </trkpt>
      <trkpt lat="42.51129048876464366912841796875" lon="19.92999072186648845672607421875">
        <ele>1845.4000244140625</ele>
        <time>2026-06-17T10:35:00.000Z</time>
        <extensions>
          <ns3:TrackPointExtension>
            <ns3:atemp>21.0</ns3:atemp>
          </ns3:TrackPointExtension>
        </extensions>
      </trkpt>
      <trkpt lat="42.51129937358200550079345703125" lon="19.9299609661102294921875">
        <ele>1845.4000244140625</ele>
        <time>2026-06-17T10:35:01.000Z</time>
        <extensions>
          <ns3:TrackPointExtension>
            <ns3:atemp>21.0</ns3:atemp>
          </ns3:TrackPointExtension>
        </extensions>
      </trkpt>
      <trkpt lat="42.51129828393459320068359375" lon="19.92993540130555629730224609375">
        <ele>1845.4000244140625</ele>
        <time>2026-06-17T10:35:02.000Z</time>
        <extensions>
          <ns3:TrackPointExtension>
            <ns3:atemp>21.0</ns3:atemp>
          </ns3:TrackPointExtension>
        </extensions>
      </trkpt>
      <trkpt lat="42.51129568554461002349853515625" lon="19.9299071542918682098388671875">
        <ele>1845.5999755859375</ele>
        <time>2026-06-17T10:35:03.000Z</time>
        <extensions>
          <ns3:TrackPointExtension>
            <ns3:atemp>21.0</ns3:atemp>
          </ns3:TrackPointExtension>
        </extensions>
      </trkpt>
      <trkpt lat="42.51129115931689739227294921875" lon="19.92987756617367267608642578125">
        <ele>1845.5999755859375</ele>
        <time>2026-06-17T10:35:04.000Z</time>
        <extensions>
          <ns3:TrackPointExtension>
            <ns3:atemp>21.0</ns3:atemp>
          </ns3:TrackPointExtension>
        </extensions>
      </trkpt>
      <trkpt lat="42.51127992756664752960205078125" lon="19.92984537966549396514892578125">
        <ele>1845.5999755859375</ele>
        <time>2026-06-17T10:35:05.000Z</time>
        <extensions>
          <ns3:TrackPointExtension>
            <ns3:atemp>21.0</ns3:atemp>
          </ns3:TrackPointExtension>
        </extensions>
      </trkpt>
      <trkpt lat="42.5112642534077167510986328125" lon="19.92981989867985248565673828125">
        <ele>1845.5999755859375</ele>
        <time>2026-06-17T10:35:06.000Z</time>
        <extensions>
          <ns3:TrackPointExtension>
            <ns3:atemp>21.0</ns3:atemp>
          </ns3:TrackPointExtension>
        </extensions>
      </trkpt>
      <trkpt lat="42.51125126145780086517333984375" lon="19.92979944683611392974853515625">
        <ele>1845.5999755859375</ele>
        <time>2026-06-17T10:35:07.000Z</time>
        <extensions>
          <ns3:TrackPointExtension>
            <ns3:atemp>21.0</ns3:atemp>
          </ns3:TrackPointExtension>
        </extensions>
      </trkpt>
      <trkpt lat="42.5112327374517917633056640625" lon="19.9297767318785190582275390625">
        <ele>1845.5999755859375</ele>
        <time>2026-06-17T10:35:08.000Z</time>
        <extensions>
          <ns3:TrackPointExtension>
            <ns3:atemp>21.0</ns3:atemp>
          </ns3:TrackPointExtension>
        </extensions>
      </trkpt>
      <trkpt lat="42.5112179853022098541259765625" lon="19.9297529272735118865966796875">
        <ele>1845.5999755859375</ele>
        <time>2026-06-17T10:35:09.000Z</time>
        <extensions>
          <ns3:TrackPointExtension>
            <ns3:atemp>21.0</ns3:atemp>
          </ns3:TrackPointExtension>
        </extensions>
      </trkpt>
      <trkpt lat="42.5112052448093891143798828125" lon="19.92972434498369693756103515625">
        <ele>1845.5999755859375</ele>
        <time>2026-06-17T10:35:10.000Z</time>
        <extensions>
          <ns3:TrackPointExtension>
            <ns3:atemp>21.0</ns3:atemp>
          </ns3:TrackPointExtension>
        </extensions>
      </trkpt>
      <trkpt lat="42.51119233667850494384765625" lon="19.92969349958002567291259765625">
        <ele>1845.5999755859375</ele>
        <time>2026-06-17T10:35:11.000Z</time>
        <extensions>
          <ns3:TrackPointExtension>
            <ns3:atemp>21.0</ns3:atemp>
          </ns3:TrackPointExtension>
        </extensions>
      </trkpt>
      <trkpt lat="42.51117683015763759613037109375" lon="19.92966567166149616241455078125">
        <ele>1845.5999755859375</ele>
        <time>2026-06-17T10:35:12.000Z</time>
        <extensions>
          <ns3:TrackPointExtension>
            <ns3:atemp>21.0</ns3:atemp>
          </ns3:TrackPointExtension>
        </extensions>
      </trkpt>
      <trkpt lat="42.511161155998706817626953125" lon="19.9296391010284423828125">
        <ele>1845.5999755859375</ele>
        <time>2026-06-17T10:35:13.000Z</time>
        <extensions>
          <ns3:TrackPointExtension>
            <ns3:atemp>21.0</ns3:atemp>
          </ns3:TrackPointExtension>
        </extensions>
      </trkpt>
      <trkpt lat="42.51114405691623687744140625" lon="19.9296104349195957183837890625">
        <ele>1845.800048828125</ele>
        <time>2026-06-17T10:35:14.000Z</time>
        <extensions>
          <ns3:TrackPointExtension>
            <ns3:atemp>21.0</ns3:atemp>
          </ns3:TrackPointExtension>
        </extensions>
      </trkpt>
      <trkpt lat="42.51112888567149639129638671875" lon="19.92957883514463901519775390625">
        <ele>1845.800048828125</ele>
        <time>2026-06-17T10:35:15.000Z</time>
        <extensions>
          <ns3:TrackPointExtension>
            <ns3:atemp>21.0</ns3:atemp>
          </ns3:TrackPointExtension>
        </extensions>
      </trkpt>
      <trkpt lat="42.51111882738769054412841796875" lon="19.92954513989388942718505859375">
        <ele>1846</ele>
        <time>2026-06-17T10:35:16.000Z</time>
        <extensions>
          <ns3:TrackPointExtension>
            <ns3:atemp>21.0</ns3:atemp>
          </ns3:TrackPointExtension>
        </extensions>
      </trkpt>
      <trkpt lat="42.51111924648284912109375" lon="19.92951345629990100860595703125">
        <ele>1846.199951171875</ele>
        <time>2026-06-17T10:35:17.000Z</time>
        <extensions>
          <ns3:TrackPointExtension>
            <ns3:atemp>21.0</ns3:atemp>
          </ns3:TrackPointExtension>
        </extensions>
      </trkpt>
      <trkpt lat="42.511120252311229705810546875" lon="19.92947640828788280487060546875">
        <ele>1846.4000244140625</ele>
        <time>2026-06-17T10:35:18.000Z</time>
        <extensions>
          <ns3:TrackPointExtension>
            <ns3:atemp>21.0</ns3:atemp>
          </ns3:TrackPointExtension>
        </extensions>
      </trkpt>
      <trkpt lat="42.5111227668821811676025390625" lon="19.92944338358938694000244140625">
        <ele>1846.5999755859375</ele>
        <time>2026-06-17T10:35:19.000Z</time>
        <extensions>
          <ns3:TrackPointExtension>
            <ns3:atemp>21.0</ns3:atemp>
          </ns3:TrackPointExtension>
        </extensions>
      </trkpt>
      <trkpt lat="42.51112251542508602142333984375" lon="19.92941522039473056793212890625">
        <ele>1846.800048828125</ele>
        <time>2026-06-17T10:35:20.000Z</time>
        <extensions>
          <ns3:TrackPointExtension>
            <ns3:atemp>21.0</ns3:atemp>
          </ns3:TrackPointExtension>
        </extensions>
      </trkpt>
      <trkpt lat="42.511124946177005767822265625" lon="19.929395355284214019775390625">
        <ele>1847</ele>
        <time>2026-06-17T10:35:21.000Z</time>
        <extensions>
          <ns3:TrackPointExtension>
            <ns3:atemp>21.0</ns3:atemp>
          </ns3:TrackPointExtension>
        </extensions>
      </trkpt>
      <trkpt lat="42.51112536527216434478759765625" lon="19.9293831177055835723876953125">
        <ele>1847</ele>
        <time>2026-06-17T10:35:22.000Z</time>
        <extensions>
          <ns3:TrackPointExtension>
            <ns3:atemp>21.0</ns3:atemp>
          </ns3:TrackPointExtension>
        </extensions>
      </trkpt>
      <trkpt lat="42.5111284665763378143310546875" lon="19.92937381379306316375732421875">
        <ele>1847.199951171875</ele>
        <time>2026-06-17T10:35:23.000Z</time>
        <extensions>
          <ns3:TrackPointExtension>
            <ns3:atemp>21.0</ns3:atemp>
          </ns3:TrackPointExtension>
        </extensions>
      </trkpt>
      <trkpt lat="42.5111286342144012451171875" lon="19.92936358787119388580322265625">
        <ele>1847.199951171875</ele>
        <time>2026-06-17T10:35:24.000Z</time>
        <extensions>
          <ns3:TrackPointExtension>
            <ns3:atemp>21.0</ns3:atemp>
          </ns3:TrackPointExtension>
        </extensions>
      </trkpt>
      <trkpt lat="42.5111291371285915374755859375" lon="19.9293502606451511383056640625">
        <ele>1847.4000244140625</ele>
        <time>2026-06-17T10:35:25.000Z</time>
        <extensions>
          <ns3:TrackPointExtension>
            <ns3:atemp>21.0</ns3:atemp>
          </ns3:TrackPointExtension>
        </extensions>
      </trkpt>
      <trkpt lat="42.51112720929086208343505859375" lon="19.92933006025850772857666015625">
        <ele>1847.4000244140625</ele>
        <time>2026-06-17T10:35:26.000Z</time>
        <extensions>
          <ns3:TrackPointExtension>
            <ns3:atemp>21.0</ns3:atemp>
          </ns3:TrackPointExtension>
        </extensions>
      </trkpt>
      <trkpt lat="42.51112285070121288299560546875" lon="19.92930474691092967987060546875">
        <ele>1847.199951171875</ele>
        <time>2026-06-17T10:35:27.000Z</time>
        <extensions>
          <ns3:TrackPointExtension>
            <ns3:atemp>21.0</ns3:atemp>
          </ns3:TrackPointExtension>
        </extensions>
      </trkpt>
      <trkpt lat="42.51112234778702259063720703125" lon="19.92927205748856067657470703125">
        <ele>1847.199951171875</ele>
        <time>2026-06-17T10:35:28.000Z</time>
        <extensions>
          <ns3:TrackPointExtension>
            <ns3:atemp>21.0</ns3:atemp>
          </ns3:TrackPointExtension>
        </extensions>
      </trkpt>
      <trkpt lat="42.511117570102214813232421875" lon="19.92924372665584087371826171875">
        <ele>1847.199951171875</ele>
        <time>2026-06-17T10:35:29.000Z</time>
        <extensions>
          <ns3:TrackPointExtension>
            <ns3:atemp>21.0</ns3:atemp>
          </ns3:TrackPointExtension>
        </extensions>
      </trkpt>
      <trkpt lat="42.5111130438745021820068359375" lon="19.92921388708055019378662109375">
        <ele>1847.199951171875</ele>
        <time>2026-06-17T10:35:30.000Z</time>
        <extensions>
          <ns3:TrackPointExtension>
            <ns3:atemp>21.0</ns3:atemp>
          </ns3:TrackPointExtension>
        </extensions>
      </trkpt>
      <trkpt lat="42.5111123733222484588623046875" lon="19.929185807704925537109375">
        <ele>1847.199951171875</ele>
        <time>2026-06-17T10:35:31.000Z</time>
        <extensions>
          <ns3:TrackPointExtension>
            <ns3:atemp>21.0</ns3:atemp>
          </ns3:TrackPointExtension>
        </extensions>
      </trkpt>
      <trkpt lat="42.51110927201807498931884765625" lon="19.92915739305317401885986328125">
        <ele>1847.4000244140625</ele>
        <time>2026-06-17T10:35:32.000Z</time>
        <extensions>
          <ns3:TrackPointExtension>
            <ns3:atemp>21.0</ns3:atemp>
          </ns3:TrackPointExtension>
        </extensions>
      </trkpt>
      <trkpt lat="42.5111053325235843658447265625" lon="19.92913442663848400115966796875">
        <ele>1847.5999755859375</ele>
        <time>2026-06-17T10:35:33.000Z</time>
        <extensions>
          <ns3:TrackPointExtension>
            <ns3:atemp>21.0</ns3:atemp>
          </ns3:TrackPointExtension>
        </extensions>
      </trkpt>
      <trkpt lat="42.51110650599002838134765625" lon="19.9291085265576839447021484375">
        <ele>1847.800048828125</ele>
        <time>2026-06-17T10:35:34.000Z</time>
        <extensions>
          <ns3:TrackPointExtension>
            <ns3:atemp>21.0</ns3:atemp>
          </ns3:TrackPointExtension>
        </extensions>
      </trkpt>
      <trkpt lat="42.5111130438745021820068359375" lon="19.929091595113277435302734375">
        <ele>1848</ele>
        <time>2026-06-17T10:35:35.000Z</time>
        <extensions>
          <ns3:TrackPointExtension>
            <ns3:atemp>21.0</ns3:atemp>
          </ns3:TrackPointExtension>
        </extensions>
      </trkpt>
      <trkpt lat="42.51111865974962711334228515625" lon="19.92907156236469745635986328125">
        <ele>1848.4000244140625</ele>
        <time>2026-06-17T10:35:36.000Z</time>
        <extensions>
          <ns3:TrackPointExtension>
            <ns3:atemp>21.0</ns3:atemp>
          </ns3:TrackPointExtension>
        </extensions>
      </trkpt>
      <trkpt lat="42.51112637110054492950439453125" lon="19.92904842831194400787353515625">
        <ele>1848.5999755859375</ele>
        <time>2026-06-17T10:35:37.000Z</time>
        <extensions>
          <ns3:TrackPointExtension>
            <ns3:atemp>21.0</ns3:atemp>
          </ns3:TrackPointExtension>
        </extensions>
      </trkpt>
      <trkpt lat="42.51113894395530223846435546875" lon="19.92902914993464946746826171875">
        <ele>1848.800048828125</ele>
        <time>2026-06-17T10:35:38.000Z</time>
        <extensions>
          <ns3:TrackPointExtension>
            <ns3:atemp>21.0</ns3:atemp>
          </ns3:TrackPointExtension>
        </extensions>
      </trkpt>
      <trkpt lat="42.51115218736231327056884765625" lon="19.92900735698640346527099609375">
        <ele>1849</ele>
        <time>2026-06-17T10:35:39.000Z</time>
        <extensions>
          <ns3:TrackPointExtension>
            <ns3:atemp>21.0</ns3:atemp>
          </ns3:TrackPointExtension>
        </extensions>
      </trkpt>
      <trkpt lat="42.51116576604545116424560546875" lon="19.92898690514266490936279296875">
        <ele>1849</ele>
        <time>2026-06-17T10:35:40.000Z</time>
        <extensions>
          <ns3:TrackPointExtension>
            <ns3:atemp>21.0</ns3:atemp>
          </ns3:TrackPointExtension>
        </extensions>
      </trkpt>
      <trkpt lat="42.51117431558668613433837890625" lon="19.92897114716470241546630859375">
        <ele>1849.199951171875</ele>
        <time>2026-06-17T10:35:41.000Z</time>
        <extensions>
          <ns3:TrackPointExtension>
            <ns3:atemp>21.0</ns3:atemp>
          </ns3:TrackPointExtension>
        </extensions>
      </trkpt>
      <trkpt lat="42.51117163337767124176025390625" lon="19.92896108888089656829833984375">
        <ele>1849.199951171875</ele>
        <time>2026-06-17T10:35:42.000Z</time>
        <extensions>
          <ns3:TrackPointExtension>
            <ns3:atemp>21.0</ns3:atemp>
          </ns3:TrackPointExtension>
        </extensions>
      </trkpt>
      <trkpt lat="42.51116978935897350311279296875" lon="19.92894910275936126708984375">
        <ele>1849.4000244140625</ele>
        <time>2026-06-17T10:35:43.000Z</time>
        <extensions>
          <ns3:TrackPointExtension>
            <ns3:atemp>21.0</ns3:atemp>
          </ns3:TrackPointExtension>
        </extensions>
      </trkpt>
      <trkpt lat="42.51117330975830554962158203125" lon="19.92894499562680721282958984375">
        <ele>1849.4000244140625</ele>
        <time>2026-06-17T10:35:44.000Z</time>
        <extensions>
          <ns3:TrackPointExtension>
            <ns3:atemp>21.0</ns3:atemp>
          </ns3:TrackPointExtension>
        </extensions>
      </trkpt>
      <trkpt lat="42.5111797638237476348876953125" lon="19.92893627844750881195068359375">
        <ele>1849.5999755859375</ele>
        <time>2026-06-17T10:35:45.000Z</time>
        <extensions>
          <ns3:TrackPointExtension>
            <ns3:atemp>21.0</ns3:atemp>
          </ns3:TrackPointExtension>
        </extensions>
      </trkpt>
      <trkpt lat="42.51119342632591724395751953125" lon="19.9289177544414997100830078125">
        <ele>1849.800048828125</ele>
        <time>2026-06-17T10:35:46.000Z</time>
        <extensions>
          <ns3:TrackPointExtension>
            <ns3:atemp>21.0</ns3:atemp>
          </ns3:TrackPointExtension>
        </extensions>
      </trkpt>
      <trkpt lat="42.51120717264711856842041015625" lon="19.92889420129358768463134765625">
        <ele>1849.800048828125</ele>
        <time>2026-06-17T10:35:47.000Z</time>
        <extensions>
          <ns3:TrackPointExtension>
            <ns3:atemp>21.0</ns3:atemp>
          </ns3:TrackPointExtension>
        </extensions>
      </trkpt>
      <trkpt lat="42.51122544519603252410888671875" lon="19.92887056432664394378662109375">
        <ele>1849.800048828125</ele>
        <time>2026-06-17T10:35:48.000Z</time>
        <extensions>
          <ns3:TrackPointExtension>
            <ns3:atemp>21.0</ns3:atemp>
          </ns3:TrackPointExtension>
        </extensions>
      </trkpt>
      <trkpt lat="42.51124204136431217193603515625" lon="19.928841479122638702392578125">
        <ele>1849.800048828125</ele>
        <time>2026-06-17T10:35:49.000Z</time>
        <extensions>
          <ns3:TrackPointExtension>
            <ns3:atemp>21.0</ns3:atemp>
          </ns3:TrackPointExtension>
        </extensions>
      </trkpt>
      <trkpt lat="42.5112521834671497344970703125" lon="19.9288077838718891143798828125">
        <ele>1849.5999755859375</ele>
        <time>2026-06-17T10:35:50.000Z</time>
        <extensions>
          <ns3:TrackPointExtension>
            <ns3:atemp>21.0</ns3:atemp>
          </ns3:TrackPointExtension>
        </extensions>
      </trkpt>
      <trkpt lat="42.51125243492424488067626953125" lon="19.92877014912664890289306640625">
        <ele>1849.5999755859375</ele>
        <time>2026-06-17T10:35:51.000Z</time>
        <extensions>
          <ns3:TrackPointExtension>
            <ns3:atemp>21.0</ns3:atemp>
          </ns3:TrackPointExtension>
        </extensions>
      </trkpt>
      <trkpt lat="42.5112488307058811187744140625" lon="19.92872782051563262939453125">
        <ele>1849.5999755859375</ele>
        <time>2026-06-17T10:35:52.000Z</time>
        <extensions>
          <ns3:TrackPointExtension>
            <ns3:atemp>21.0</ns3:atemp>
          </ns3:TrackPointExtension>
        </extensions>
      </trkpt>
      <trkpt lat="42.51123533584177494049072265625" lon="19.9287008307874202728271484375">
        <ele>1849.800048828125</ele>
        <time>2026-06-17T10:35:53.000Z</time>
        <extensions>
          <ns3:TrackPointExtension>
            <ns3:atemp>21.0</ns3:atemp>
          </ns3:TrackPointExtension>
        </extensions>
      </trkpt>
      <trkpt lat="42.5112206675112247467041015625" lon="19.9286760203540325164794921875">
        <ele>1849.800048828125</ele>
        <time>2026-06-17T10:35:54.000Z</time>
        <extensions>
          <ns3:TrackPointExtension>
            <ns3:atemp>21.0</ns3:atemp>
          </ns3:TrackPointExtension>
        </extensions>
      </trkpt>
      <trkpt lat="42.5112112797796726226806640625" lon="19.9286538921296596527099609375">
        <ele>1850</ele>
        <time>2026-06-17T10:35:55.000Z</time>
        <extensions>
          <ns3:TrackPointExtension>
            <ns3:atemp>21.0</ns3:atemp>
          </ns3:TrackPointExtension>
        </extensions>
      </trkpt>
      <trkpt lat="42.51120549626648426055908203125" lon="19.92863168008625507354736328125">
        <ele>1850.4000244140625</ele>
        <time>2026-06-17T10:35:56.000Z</time>
        <extensions>
          <ns3:TrackPointExtension>
            <ns3:atemp>21.0</ns3:atemp>
          </ns3:TrackPointExtension>
        </extensions>
      </trkpt>
      <trkpt lat="42.5111982040107250213623046875" lon="19.92860712110996246337890625">
        <ele>1850.800048828125</ele>
        <time>2026-06-17T10:35:57.000Z</time>
        <extensions>
          <ns3:TrackPointExtension>
            <ns3:atemp>21.0</ns3:atemp>
          </ns3:TrackPointExtension>
        </extensions>
      </trkpt>
      <trkpt lat="42.51119208522140979766845703125" lon="19.92858432233333587646484375">
        <ele>1851.199951171875</ele>
        <time>2026-06-17T10:35:58.000Z</time>
        <extensions>
          <ns3:TrackPointExtension>
            <ns3:atemp>21.0</ns3:atemp>
          </ns3:TrackPointExtension>
        </extensions>
      </trkpt>
      <trkpt lat="42.5111891515552997589111328125" lon="19.92856412194669246673583984375">
        <ele>1851.4000244140625</ele>
        <time>2026-06-17T10:35:59.000Z</time>
        <extensions>
          <ns3:TrackPointExtension>
            <ns3:atemp>22.0</ns3:atemp>
          </ns3:TrackPointExtension>
        </extensions>
      </trkpt>
      <trkpt lat="42.51118638552725315093994140625" lon="19.9285415746271610260009765625">
        <ele>1851.5999755859375</ele>
        <time>2026-06-17T10:36:00.000Z</time>
        <extensions>
          <ns3:TrackPointExtension>
            <ns3:atemp>22.0</ns3:atemp>
          </ns3:TrackPointExtension>
        </extensions>
      </trkpt>
      <trkpt lat="42.5111844576895236968994140625" lon="19.92851768620312213897705078125">
        <ele>1851.800048828125</ele>
        <time>2026-06-17T10:36:01.000Z</time>
        <extensions>
          <ns3:TrackPointExtension>
            <ns3:atemp>21.0</ns3:atemp>
          </ns3:TrackPointExtension>
        </extensions>
      </trkpt>
      <trkpt lat="42.51118051819503307342529296875" lon="19.928491115570068359375">
        <ele>1852</ele>
        <time>2026-06-17T10:36:02.000Z</time>
        <extensions>
          <ns3:TrackPointExtension>
            <ns3:atemp>21.0</ns3:atemp>
          </ns3:TrackPointExtension>
        </extensions>
      </trkpt>
      <trkpt lat="42.5111769139766693115234375" lon="19.92846454493701457977294921875">
        <ele>1852.199951171875</ele>
        <time>2026-06-17T10:36:03.000Z</time>
        <extensions>
          <ns3:TrackPointExtension>
            <ns3:atemp>22.0</ns3:atemp>
          </ns3:TrackPointExtension>
        </extensions>
      </trkpt>
      <trkpt lat="42.5111750699579715728759765625" lon="19.92844006977975368499755859375">
        <ele>1852.4000244140625</ele>
        <time>2026-06-17T10:36:04.000Z</time>
        <extensions>
          <ns3:TrackPointExtension>
            <ns3:atemp>21.0</ns3:atemp>
          </ns3:TrackPointExtension>
        </extensions>
      </trkpt>
      <trkpt lat="42.511175237596035003662109375" lon="19.9284124933183193206787109375">
        <ele>1852.5999755859375</ele>
        <time>2026-06-17T10:36:05.000Z</time>
        <extensions>
          <ns3:TrackPointExtension>
            <ns3:atemp>21.0</ns3:atemp>
          </ns3:TrackPointExtension>
        </extensions>
      </trkpt>
      <trkpt lat="42.511175908148288726806640625" lon="19.92838391102850437164306640625">
        <ele>1852.800048828125</ele>
        <time>2026-06-17T10:36:06.000Z</time>
        <extensions>
          <ns3:TrackPointExtension>
            <ns3:atemp>21.0</ns3:atemp>
          </ns3:TrackPointExtension>
        </extensions>
      </trkpt>
      <trkpt lat="42.51117666251957416534423828125" lon="19.92835591547191143035888671875">
        <ele>1853</ele>
        <time>2026-06-17T10:36:07.000Z</time>
        <extensions>
          <ns3:TrackPointExtension>
            <ns3:atemp>21.0</ns3:atemp>
          </ns3:TrackPointExtension>
        </extensions>
      </trkpt>
      <trkpt lat="42.51117481850087642669677734375" lon="19.92833219468593597412109375">
        <ele>1853.199951171875</ele>
        <time>2026-06-17T10:36:08.000Z</time>
        <extensions>
          <ns3:TrackPointExtension>
            <ns3:atemp>21.0</ns3:atemp>
          </ns3:TrackPointExtension>
        </extensions>
      </trkpt>
      <trkpt lat="42.5111740641295909881591796875" lon="19.92831132374703884124755859375">
        <ele>1853.5999755859375</ele>
        <time>2026-06-17T10:36:09.000Z</time>
        <extensions>
          <ns3:TrackPointExtension>
            <ns3:atemp>21.0</ns3:atemp>
          </ns3:TrackPointExtension>
        </extensions>
      </trkpt>
      <trkpt lat="42.51116928644478321075439453125" lon="19.92829489521682262420654296875">
        <ele>1853.800048828125</ele>
        <time>2026-06-17T10:36:10.000Z</time>
        <extensions>
          <ns3:TrackPointExtension>
            <ns3:atemp>22.0</ns3:atemp>
          </ns3:TrackPointExtension>
        </extensions>
      </trkpt>
      <trkpt lat="42.51116157509386539459228515625" lon="19.92827595211565494537353515625">
        <ele>1854</ele>
        <time>2026-06-17T10:36:11.000Z</time>
        <extensions>
          <ns3:TrackPointExtension>
            <ns3:atemp>22.0</ns3:atemp>
          </ns3:TrackPointExtension>
        </extensions>
      </trkpt>
      <trkpt lat="42.51115570776164531707763671875" lon="19.9282545782625675201416015625">
        <ele>1854.199951171875</ele>
        <time>2026-06-17T10:36:12.000Z</time>
        <extensions>
          <ns3:TrackPointExtension>
            <ns3:atemp>22.0</ns3:atemp>
          </ns3:TrackPointExtension>
        </extensions>
      </trkpt>
      <trkpt lat="42.51115352846682071685791015625" lon="19.92824024520814418792724609375">
        <ele>1854.800048828125</ele>
        <time>2026-06-17T10:36:13.000Z</time>
        <extensions>
          <ns3:TrackPointExtension>
            <ns3:atemp>22.0</ns3:atemp>
          </ns3:TrackPointExtension>
        </extensions>
      </trkpt>
      <trkpt lat="42.5111482478678226470947265625" lon="19.9282274208962917327880859375">
        <ele>1855</ele>
        <time>2026-06-17T10:36:14.000Z</time>
        <extensions>
          <ns3:TrackPointExtension>
            <ns3:atemp>22.0</ns3:atemp>
          </ns3:TrackPointExtension>
        </extensions>
      </trkpt>
      <trkpt lat="42.51114313490688800811767578125" lon="19.92821509949862957000732421875">
        <ele>1855.4000244140625</ele>
        <time>2026-06-17T10:36:15.000Z</time>
        <extensions>
          <ns3:TrackPointExtension>
            <ns3:atemp>22.0</ns3:atemp>
          </ns3:TrackPointExtension>
        </extensions>
      </trkpt>
      <trkpt lat="42.51114782877266407012939453125" lon="19.92821593768894672393798828125">
        <ele>1855.5999755859375</ele>
        <time>2026-06-17T10:36:16.000Z</time>
        <extensions>
          <ns3:TrackPointExtension>
            <ns3:atemp>22.0</ns3:atemp>
          </ns3:TrackPointExtension>
        </extensions>
      </trkpt>
      <trkpt lat="42.51114782877266407012939453125" lon="19.928215853869915008544921875">
        <ele>1856</ele>
        <time>2026-06-17T10:36:17.000Z</time>
        <extensions>
          <ns3:TrackPointExtension>
            <ns3:atemp>22.0</ns3:atemp>
          </ns3:TrackPointExtension>
        </extensions>
      </trkpt>
      <trkpt lat="42.51114782877266407012939453125" lon="19.928215853869915008544921875">
        <ele>1856.199951171875</ele>
        <time>2026-06-17T10:36:18.000Z</time>
        <extensions>
          <ns3:TrackPointExtension>
            <ns3:atemp>22.0</ns3:atemp>
          </ns3:TrackPointExtension>
        </extensions>
      </trkpt>
      <trkpt lat="42.51114782877266407012939453125" lon="19.928215853869915008544921875">
        <ele>1856.4000244140625</ele>
        <time>2026-06-17T10:36:19.000Z</time>
        <extensions>
          <ns3:TrackPointExtension>
            <ns3:atemp>22.0</ns3:atemp>
          </ns3:TrackPointExtension>
        </extensions>
      </trkpt>
      <trkpt lat="42.51114782877266407012939453125" lon="19.928215853869915008544921875">
        <ele>1856.5999755859375</ele>
        <time>2026-06-17T10:36:20.000Z</time>
        <extensions>
          <ns3:TrackPointExtension>
            <ns3:atemp>22.0</ns3:atemp>
          </ns3:TrackPointExtension>
        </extensions>
      </trkpt>
      <trkpt lat="42.51114749349653720855712890625" lon="19.92821526713669300079345703125">
        <ele>1856.5999755859375</ele>
        <time>2026-06-17T10:36:21.000Z</time>
        <extensions>
          <ns3:TrackPointExtension>
            <ns3:atemp>22.0</ns3:atemp>
          </ns3:TrackPointExtension>
        </extensions>
      </trkpt>
      <trkpt lat="42.5111388601362705230712890625" lon="19.92819833569228649139404296875">
        <ele>1856.5999755859375</ele>
        <time>2026-06-17T10:36:22.000Z</time>
        <extensions>
          <ns3:TrackPointExtension>
            <ns3:atemp>22.0</ns3:atemp>
          </ns3:TrackPointExtension>
        </extensions>
      </trkpt>
      <trkpt lat="42.51113198697566986083984375" lon="19.92818358354270458221435546875">
        <ele>1856.4000244140625</ele>
        <time>2026-06-17T10:36:23.000Z</time>
        <extensions>
          <ns3:TrackPointExtension>
            <ns3:atemp>22.0</ns3:atemp>
          </ns3:TrackPointExtension>
        </extensions>
      </trkpt>
      <trkpt lat="42.5111251138150691986083984375" lon="19.92817419581115245819091796875">
        <ele>1856.4000244140625</ele>
        <time>2026-06-17T10:36:24.000Z</time>
        <extensions>
          <ns3:TrackPointExtension>
            <ns3:atemp>22.0</ns3:atemp>
          </ns3:TrackPointExtension>
        </extensions>
      </trkpt>
      <trkpt lat="42.51112050376832485198974609375" lon="19.9281617067754268646240234375">
        <ele>1856.4000244140625</ele>
        <time>2026-06-17T10:36:25.000Z</time>
        <extensions>
          <ns3:TrackPointExtension>
            <ns3:atemp>22.0</ns3:atemp>
          </ns3:TrackPointExtension>
        </extensions>
      </trkpt>
      <trkpt lat="42.51112050376832485198974609375" lon="19.92814452387392520904541015625">
        <ele>1856.4000244140625</ele>
        <time>2026-06-17T10:36:26.000Z</time>
        <extensions>
          <ns3:TrackPointExtension>
            <ns3:atemp>22.0</ns3:atemp>
          </ns3:TrackPointExtension>
        </extensions>
      </trkpt>
      <trkpt lat="42.51111882738769054412841796875" lon="19.92812692187726497650146484375">
        <ele>1856.5999755859375</ele>
        <time>2026-06-17T10:36:27.000Z</time>
        <extensions>
          <ns3:TrackPointExtension>
            <ns3:atemp>22.0</ns3:atemp>
          </ns3:TrackPointExtension>
        </extensions>
      </trkpt>
      <trkpt lat="42.51111698336899280548095703125" lon="19.92810663767158985137939453125">
        <ele>1856.800048828125</ele>
        <time>2026-06-17T10:36:28.000Z</time>
        <extensions>
          <ns3:TrackPointExtension>
            <ns3:atemp>22.0</ns3:atemp>
          </ns3:TrackPointExtension>
        </extensions>
      </trkpt>
      <trkpt lat="42.5111137144267559051513671875" lon="19.9280909635126590728759765625">
        <ele>1857</ele>
        <time>2026-06-17T10:36:29.000Z</time>
        <extensions>
          <ns3:TrackPointExtension>
            <ns3:atemp>22.0</ns3:atemp>
          </ns3:TrackPointExtension>
        </extensions>
      </trkpt>
      <trkpt lat="42.5111110322177410125732421875" lon="19.928073026239871978759765625">
        <ele>1857.199951171875</ele>
        <time>2026-06-17T10:36:30.000Z</time>
        <extensions>
          <ns3:TrackPointExtension>
            <ns3:atemp>22.0</ns3:atemp>
          </ns3:TrackPointExtension>
        </extensions>
      </trkpt>
      <trkpt lat="42.51111052930355072021484375" lon="19.92805098183453083038330078125">
        <ele>1857.4000244140625</ele>
        <time>2026-06-17T10:36:31.000Z</time>
        <extensions>
          <ns3:TrackPointExtension>
            <ns3:atemp>22.0</ns3:atemp>
          </ns3:TrackPointExtension>
        </extensions>
      </trkpt>
      <trkpt lat="42.51111312769353389739990234375" lon="19.928028769791126251220703125">
        <ele>1857.5999755859375</ele>
        <time>2026-06-17T10:36:32.000Z</time>
        <extensions>
          <ns3:TrackPointExtension>
            <ns3:atemp>22.0</ns3:atemp>
          </ns3:TrackPointExtension>
        </extensions>
      </trkpt>
      <trkpt lat="42.5111157260835170745849609375" lon="19.9279997684061527252197265625">
        <ele>1857.800048828125</ele>
        <time>2026-06-17T10:36:33.000Z</time>
        <extensions>
          <ns3:TrackPointExtension>
            <ns3:atemp>22.0</ns3:atemp>
          </ns3:TrackPointExtension>
        </extensions>
      </trkpt>
      <trkpt lat="42.5111227668821811676025390625" lon="19.927969090640544891357421875">
        <ele>1857.800048828125</ele>
        <time>2026-06-17T10:36:34.000Z</time>
        <extensions>
          <ns3:TrackPointExtension>
            <ns3:atemp>22.0</ns3:atemp>
          </ns3:TrackPointExtension>
        </extensions>
      </trkpt>
      <trkpt lat="42.5111261196434497833251953125" lon="19.927940256893634796142578125">
        <ele>1857.800048828125</ele>
        <time>2026-06-17T10:36:35.000Z</time>
        <extensions>
          <ns3:TrackPointExtension>
            <ns3:atemp>22.0</ns3:atemp>
          </ns3:TrackPointExtension>
        </extensions>
      </trkpt>
      <trkpt lat="42.51112838275730609893798828125" lon="19.9279142729938030242919921875">
        <ele>1858</ele>
        <time>2026-06-17T10:36:36.000Z</time>
        <extensions>
          <ns3:TrackPointExtension>
            <ns3:atemp>22.0</ns3:atemp>
          </ns3:TrackPointExtension>
        </extensions>
      </trkpt>
      <trkpt lat="42.5111301429569721221923828125" lon="19.9278901331126689910888671875">
        <ele>1858</ele>
        <time>2026-06-17T10:36:37.000Z</time>
        <extensions>
          <ns3:TrackPointExtension>
            <ns3:atemp>22.0</ns3:atemp>
          </ns3:TrackPointExtension>
        </extensions>
      </trkpt>
      <trkpt lat="42.51113575883209705352783203125" lon="19.9278549291193485260009765625">
        <ele>1858</ele>
        <time>2026-06-17T10:36:38.000Z</time>
        <extensions>
          <ns3:TrackPointExtension>
            <ns3:atemp>22.0</ns3:atemp>
          </ns3:TrackPointExtension>
        </extensions>
      </trkpt>
      <trkpt lat="42.511140368878841400146484375" lon="19.92782332934439182281494140625">
        <ele>1858</ele>
        <time>2026-06-17T10:36:39.000Z</time>
        <extensions>
          <ns3:TrackPointExtension>
            <ns3:atemp>22.0</ns3:atemp>
          </ns3:TrackPointExtension>
        </extensions>
      </trkpt>
      <trkpt lat="42.511147744953632354736328125" lon="19.92779080756008625030517578125">
        <ele>1858</ele>
        <time>2026-06-17T10:36:40.000Z</time>
        <extensions>
          <ns3:TrackPointExtension>
            <ns3:atemp>22.0</ns3:atemp>
          </ns3:TrackPointExtension>
        </extensions>
      </trkpt>
      <trkpt lat="42.511155121028423309326171875" lon="19.92775979451835155487060546875">
        <ele>1858</ele>
        <time>2026-06-17T10:36:41.000Z</time>
        <extensions>
          <ns3:TrackPointExtension>
            <ns3:atemp>22.0</ns3:atemp>
          </ns3:TrackPointExtension>
        </extensions>
      </trkpt>
      <trkpt lat="42.5111660175025463104248046875" lon="19.9277305416762828826904296875">
        <ele>1857.800048828125</ele>
        <time>2026-06-17T10:36:42.000Z</time>
        <extensions>
          <ns3:TrackPointExtension>
            <ns3:atemp>22.0</ns3:atemp>
          </ns3:TrackPointExtension>
        </extensions>
      </trkpt>
      <trkpt lat="42.51117917709052562713623046875" lon="19.92769910953938961029052734375">
        <ele>1857.800048828125</ele>
        <time>2026-06-17T10:36:43.000Z</time>
        <extensions>
          <ns3:TrackPointExtension>
            <ns3:atemp>22.0</ns3:atemp>
          </ns3:TrackPointExtension>
        </extensions>
      </trkpt>
      <trkpt lat="42.5111888162791728973388671875" lon="19.92767010815441608428955078125">
        <ele>1857.800048828125</ele>
        <time>2026-06-17T10:36:44.000Z</time>
        <extensions>
          <ns3:TrackPointExtension>
            <ns3:atemp>22.0</ns3:atemp>
          </ns3:TrackPointExtension>
        </extensions>
      </trkpt>
      <trkpt lat="42.5111948512494564056396484375" lon="19.9276403523981571197509765625">
        <ele>1858</ele>
        <time>2026-06-17T10:36:45.000Z</time>
        <extensions>
          <ns3:TrackPointExtension>
            <ns3:atemp>22.0</ns3:atemp>
          </ns3:TrackPointExtension>
        </extensions>
      </trkpt>
      <trkpt lat="42.51120449043810367584228515625" lon="19.9276073276996612548828125">
        <ele>1858</ele>
        <time>2026-06-17T10:36:46.000Z</time>
        <extensions>
          <ns3:TrackPointExtension>
            <ns3:atemp>22.0</ns3:atemp>
          </ns3:TrackPointExtension>
        </extensions>
      </trkpt>
      <trkpt lat="42.5112132914364337921142578125" lon="19.92757757194340229034423828125">
        <ele>1858.199951171875</ele>
        <time>2026-06-17T10:36:47.000Z</time>
        <extensions>
          <ns3:TrackPointExtension>
            <ns3:atemp>22.0</ns3:atemp>
          </ns3:TrackPointExtension>
        </extensions>
      </trkpt>
      <trkpt lat="42.5112179853022098541259765625" lon="19.92755058221518993377685546875">
        <ele>1858.4000244140625</ele>
        <time>2026-06-17T10:36:48.000Z</time>
        <extensions>
          <ns3:TrackPointExtension>
            <ns3:atemp>22.0</ns3:atemp>
          </ns3:TrackPointExtension>
        </extensions>
      </trkpt>
      <trkpt lat="42.51121991313993930816650390625" lon="19.92751973681151866912841796875">
        <ele>1858.5999755859375</ele>
        <time>2026-06-17T10:36:49.000Z</time>
        <extensions>
          <ns3:TrackPointExtension>
            <ns3:atemp>22.0</ns3:atemp>
          </ns3:TrackPointExtension>
        </extensions>
      </trkpt>
      <trkpt lat="42.511218152940273284912109375" lon="19.9274898134171962738037109375">
        <ele>1858.800048828125</ele>
        <time>2026-06-17T10:36:50.000Z</time>
        <extensions>
          <ns3:TrackPointExtension>
            <ns3:atemp>22.0</ns3:atemp>
          </ns3:TrackPointExtension>
        </extensions>
      </trkpt>
      <trkpt lat="42.51121471635997295379638671875" lon="19.927458465099334716796875">
        <ele>1859</ele>
        <time>2026-06-17T10:36:51.000Z</time>
        <extensions>
          <ns3:TrackPointExtension>
            <ns3:atemp>22.0</ns3:atemp>
          </ns3:TrackPointExtension>
        </extensions>
      </trkpt>
      <trkpt lat="42.511210776865482330322265625" lon="19.9274287931621074676513671875">
        <ele>1859.199951171875</ele>
        <time>2026-06-17T10:36:52.000Z</time>
        <extensions>
          <ns3:TrackPointExtension>
            <ns3:atemp>22.0</ns3:atemp>
          </ns3:TrackPointExtension>
        </extensions>
      </trkpt>
      <trkpt lat="42.5112062506377696990966796875" lon="19.92739669047296047210693359375">
        <ele>1859.4000244140625</ele>
        <time>2026-06-17T10:36:53.000Z</time>
        <extensions>
          <ns3:TrackPointExtension>
            <ns3:atemp>22.0</ns3:atemp>
          </ns3:TrackPointExtension>
        </extensions>
      </trkpt>
      <trkpt lat="42.5111975334584712982177734375" lon="19.92736282758414745330810546875">
        <ele>1859.4000244140625</ele>
        <time>2026-06-17T10:36:54.000Z</time>
        <extensions>
          <ns3:TrackPointExtension>
            <ns3:atemp>22.0</ns3:atemp>
          </ns3:TrackPointExtension>
        </extensions>
      </trkpt>
      <trkpt lat="42.51119091175496578216552734375" lon="19.9273332394659519195556640625">
        <ele>1859.5999755859375</ele>
        <time>2026-06-17T10:36:55.000Z</time>
        <extensions>
          <ns3:TrackPointExtension>
            <ns3:atemp>22.0</ns3:atemp>
          </ns3:TrackPointExtension>
        </extensions>
      </trkpt>
      <trkpt lat="42.511183284223079681396484375" lon="19.92730147205293178558349609375">
        <ele>1859.800048828125</ele>
        <time>2026-06-17T10:36:56.000Z</time>
        <extensions>
          <ns3:TrackPointExtension>
            <ns3:atemp>22.0</ns3:atemp>
          </ns3:TrackPointExtension>
        </extensions>
      </trkpt>
      <trkpt lat="42.5111784227192401885986328125" lon="19.9272695370018482208251953125">
        <ele>1860</ele>
        <time>2026-06-17T10:36:57.000Z</time>
        <extensions>
          <ns3:TrackPointExtension>
            <ns3:atemp>22.0</ns3:atemp>
          </ns3:TrackPointExtension>
        </extensions>
      </trkpt>
      <trkpt lat="42.5111720524728298187255859375" lon="19.9272390268743038177490234375">
        <ele>1860.199951171875</ele>
        <time>2026-06-17T10:36:58.000Z</time>
        <extensions>
          <ns3:TrackPointExtension>
            <ns3:atemp>22.0</ns3:atemp>
          </ns3:TrackPointExtension>
        </extensions>
      </trkpt>
      <trkpt lat="42.5111693702638149261474609375" lon="19.92720566689968109130859375">
        <ele>1860.4000244140625</ele>
        <time>2026-06-17T10:36:59.000Z</time>
        <extensions>
          <ns3:TrackPointExtension>
            <ns3:atemp>22.0</ns3:atemp>
          </ns3:TrackPointExtension>
        </extensions>
      </trkpt>
      <trkpt lat="42.51116610132157802581787109375" lon="19.9271729774773120880126953125">
        <ele>1860.800048828125</ele>
        <time>2026-06-17T10:37:00.000Z</time>
        <extensions>
          <ns3:TrackPointExtension>
            <ns3:atemp>22.0</ns3:atemp>
          </ns3:TrackPointExtension>
        </extensions>
      </trkpt>
      <trkpt lat="42.5111630000174045562744140625" lon="19.92713903076946735382080078125">
        <ele>1861</ele>
        <time>2026-06-17T10:37:01.000Z</time>
        <extensions>
          <ns3:TrackPointExtension>
            <ns3:atemp>22.0</ns3:atemp>
          </ns3:TrackPointExtension>
        </extensions>
      </trkpt>
      <trkpt lat="42.51116392202675342559814453125" lon="19.927103407680988311767578125">
        <ele>1861.199951171875</ele>
        <time>2026-06-17T10:37:02.000Z</time>
        <extensions>
          <ns3:TrackPointExtension>
            <ns3:atemp>22.0</ns3:atemp>
          </ns3:TrackPointExtension>
        </extensions>
      </trkpt>
      <trkpt lat="42.51116325147449970245361328125" lon="19.92706795223057270050048828125">
        <ele>1861.199951171875</ele>
        <time>2026-06-17T10:37:03.000Z</time>
        <extensions>
          <ns3:TrackPointExtension>
            <ns3:atemp>22.0</ns3:atemp>
          </ns3:TrackPointExtension>
        </extensions>
      </trkpt>
      <trkpt lat="42.51115855760872364044189453125" lon="19.92703626863658428192138671875">
        <ele>1861.4000244140625</ele>
        <time>2026-06-17T10:37:04.000Z</time>
        <extensions>
          <ns3:TrackPointExtension>
            <ns3:atemp>22.0</ns3:atemp>
          </ns3:TrackPointExtension>
        </extensions>
      </trkpt>
      <trkpt lat="42.51114715822041034698486328125" lon="19.9270050041377544403076171875">
        <ele>1861.4000244140625</ele>
        <time>2026-06-17T10:37:05.000Z</time>
        <extensions>
          <ns3:TrackPointExtension>
            <ns3:atemp>22.0</ns3:atemp>
          </ns3:TrackPointExtension>
        </extensions>
      </trkpt>
      <trkpt lat="42.51114045269787311553955078125" lon="19.926978014409542083740234375">
        <ele>1861.5999755859375</ele>
        <time>2026-06-17T10:37:06.000Z</time>
        <extensions>
          <ns3:TrackPointExtension>
            <ns3:atemp>22.0</ns3:atemp>
          </ns3:TrackPointExtension>
        </extensions>
      </trkpt>
      <trkpt lat="42.51114078797399997711181640625" lon="19.9269490130245685577392578125">
        <ele>1861.5999755859375</ele>
        <time>2026-06-17T10:37:07.000Z</time>
        <extensions>
          <ns3:TrackPointExtension>
            <ns3:atemp>22.0</ns3:atemp>
          </ns3:TrackPointExtension>
        </extensions>
      </trkpt>
      <trkpt lat="42.5111455656588077545166015625" lon="19.92692126892507076263427734375">
        <ele>1861.800048828125</ele>
        <time>2026-06-17T10:37:08.000Z</time>
        <extensions>
          <ns3:TrackPointExtension>
            <ns3:atemp>22.0</ns3:atemp>
          </ns3:TrackPointExtension>
        </extensions>
      </trkpt>
      <trkpt lat="42.51114866696298122406005859375" lon="19.92689243517816066741943359375">
        <ele>1862</ele>
        <time>2026-06-17T10:37:09.000Z</time>
        <extensions>
          <ns3:TrackPointExtension>
            <ns3:atemp>22.0</ns3:atemp>
          </ns3:TrackPointExtension>
        </extensions>
      </trkpt>
      <trkpt lat="42.511148750782012939453125" lon="19.926868043839931488037109375">
        <ele>1862.199951171875</ele>
        <time>2026-06-17T10:37:10.000Z</time>
        <extensions>
          <ns3:TrackPointExtension>
            <ns3:atemp>22.0</ns3:atemp>
          </ns3:TrackPointExtension>
        </extensions>
      </trkpt>
      <trkpt lat="42.511153779923915863037109375" lon="19.926841892302036285400390625">
        <ele>1862.4000244140625</ele>
        <time>2026-06-17T10:37:11.000Z</time>
        <extensions>
          <ns3:TrackPointExtension>
            <ns3:atemp>22.0</ns3:atemp>
          </ns3:TrackPointExtension>
        </extensions>
      </trkpt>
      <trkpt lat="42.51115855760872364044189453125" lon="19.92681381292641162872314453125">
        <ele>1862.5999755859375</ele>
        <time>2026-06-17T10:37:12.000Z</time>
        <extensions>
          <ns3:TrackPointExtension>
            <ns3:atemp>22.0</ns3:atemp>
          </ns3:TrackPointExtension>
        </extensions>
      </trkpt>
      <trkpt lat="42.51116140745580196380615234375" lon="19.92677793838083744049072265625">
        <ele>1862.5999755859375</ele>
        <time>2026-06-17T10:37:13.000Z</time>
        <extensions>
          <ns3:TrackPointExtension>
            <ns3:atemp>22.0</ns3:atemp>
          </ns3:TrackPointExtension>
        </extensions>
      </trkpt>
      <trkpt lat="42.5111599825322628021240234375" lon="19.92674860171973705291748046875">
        <ele>1862.800048828125</ele>
        <time>2026-06-17T10:37:14.000Z</time>
        <extensions>
          <ns3:TrackPointExtension>
            <ns3:atemp>22.0</ns3:atemp>
          </ns3:TrackPointExtension>
        </extensions>
      </trkpt>
      <trkpt lat="42.5111603178083896636962890625" lon="19.92670954205095767974853515625">
        <ele>1862.800048828125</ele>
        <time>2026-06-17T10:37:15.000Z</time>
        <extensions>
          <ns3:TrackPointExtension>
            <ns3:atemp>22.0</ns3:atemp>
          </ns3:TrackPointExtension>
        </extensions>
      </trkpt>
      <trkpt lat="42.51115855760872364044189453125" lon="19.92667500860989093780517578125">
        <ele>1862.800048828125</ele>
        <time>2026-06-17T10:37:16.000Z</time>
        <extensions>
          <ns3:TrackPointExtension>
            <ns3:atemp>22.0</ns3:atemp>
          </ns3:TrackPointExtension>
        </extensions>
      </trkpt>
      <trkpt lat="42.51115612685680389404296875" lon="19.92664097808301448822021484375">
        <ele>1862.800048828125</ele>
        <time>2026-06-17T10:37:17.000Z</time>
        <extensions>
          <ns3:TrackPointExtension>
            <ns3:atemp>22.0</ns3:atemp>
          </ns3:TrackPointExtension>
        </extensions>
      </trkpt>
      <trkpt lat="42.51115302555263042449951171875" lon="19.92661214433610439300537109375">
        <ele>1862.800048828125</ele>
        <time>2026-06-17T10:37:18.000Z</time>
        <extensions>
          <ns3:TrackPointExtension>
            <ns3:atemp>22.0</ns3:atemp>
          </ns3:TrackPointExtension>
        </extensions>
      </trkpt>
      <trkpt lat="42.51114866696298122406005859375" lon="19.92658230476081371307373046875">
        <ele>1863</ele>
        <time>2026-06-17T10:37:19.000Z</time>
        <extensions>
          <ns3:TrackPointExtension>
            <ns3:atemp>22.0</ns3:atemp>
          </ns3:TrackPointExtension>
        </extensions>
      </trkpt>
      <trkpt lat="42.51114481128752231597900390625" lon="19.92655062116682529449462890625">
        <ele>1863</ele>
        <time>2026-06-17T10:37:20.000Z</time>
        <extensions>
          <ns3:TrackPointExtension>
            <ns3:atemp>22.0</ns3:atemp>
          </ns3:TrackPointExtension>
        </extensions>
      </trkpt>
      <trkpt lat="42.51113911159336566925048828125" lon="19.92652011103928089141845703125">
        <ele>1863.199951171875</ele>
        <time>2026-06-17T10:37:21.000Z</time>
        <extensions>
          <ns3:TrackPointExtension>
            <ns3:atemp>22.0</ns3:atemp>
          </ns3:TrackPointExtension>
        </extensions>
      </trkpt>
      <trkpt lat="42.5111366808414459228515625" lon="19.92649094201624393463134765625">
        <ele>1863.199951171875</ele>
        <time>2026-06-17T10:37:22.000Z</time>
        <extensions>
          <ns3:TrackPointExtension>
            <ns3:atemp>22.0</ns3:atemp>
          </ns3:TrackPointExtension>
        </extensions>
      </trkpt>
      <trkpt lat="42.5111291371285915374755859375" lon="19.9264625273644924163818359375">
        <ele>1863.4000244140625</ele>
        <time>2026-06-17T10:37:23.000Z</time>
        <extensions>
          <ns3:TrackPointExtension>
            <ns3:atemp>22.0</ns3:atemp>
          </ns3:TrackPointExtension>
        </extensions>
      </trkpt>
      <trkpt lat="42.5111227668821811676025390625" lon="19.926435537636280059814453125">
        <ele>1863.5999755859375</ele>
        <time>2026-06-17T10:37:24.000Z</time>
        <extensions>
          <ns3:TrackPointExtension>
            <ns3:atemp>22.0</ns3:atemp>
          </ns3:TrackPointExtension>
        </extensions>
      </trkpt>
      <trkpt lat="42.5111157260835170745849609375" lon="19.92640192620456218719482421875">
        <ele>1863.800048828125</ele>
        <time>2026-06-17T10:37:25.000Z</time>
        <extensions>
          <ns3:TrackPointExtension>
            <ns3:atemp>22.0</ns3:atemp>
          </ns3:TrackPointExtension>
        </extensions>
      </trkpt>
      <trkpt lat="42.5111019797623157501220703125" lon="19.92636756040155887603759765625">
        <ele>1864</ele>
        <time>2026-06-17T10:37:26.000Z</time>
        <extensions>
          <ns3:TrackPointExtension>
            <ns3:atemp>22.0</ns3:atemp>
          </ns3:TrackPointExtension>
        </extensions>
      </trkpt>
      <trkpt lat="42.51108907163143157958984375" lon="19.926333613693714141845703125">
        <ele>1864</ele>
        <time>2026-06-17T10:37:27.000Z</time>
        <extensions>
          <ns3:TrackPointExtension>
            <ns3:atemp>22.0</ns3:atemp>
          </ns3:TrackPointExtension>
        </extensions>
      </trkpt>
      <trkpt lat="42.51107591204345226287841796875" lon="19.92630385793745517730712890625">
        <ele>1864.199951171875</ele>
        <time>2026-06-17T10:37:28.000Z</time>
        <extensions>
          <ns3:TrackPointExtension>
            <ns3:atemp>22.0</ns3:atemp>
          </ns3:TrackPointExtension>
        </extensions>
      </trkpt>
      <trkpt lat="42.51105864532291889190673828125" lon="19.92627183906733989715576171875">
        <ele>1864.199951171875</ele>
        <time>2026-06-17T10:37:29.000Z</time>
        <extensions>
          <ns3:TrackPointExtension>
            <ns3:atemp>22.0</ns3:atemp>
          </ns3:TrackPointExtension>
        </extensions>
      </trkpt>
      <trkpt lat="42.5110426358878612518310546875" lon="19.9262399040162563323974609375">
        <ele>1864.199951171875</ele>
        <time>2026-06-17T10:37:30.000Z</time>
        <extensions>
          <ns3:TrackPointExtension>
            <ns3:atemp>22.0</ns3:atemp>
          </ns3:TrackPointExtension>
        </extensions>
      </trkpt>
      <trkpt lat="42.51103266142308712005615234375" lon="19.92620729841291904449462890625">
        <ele>1864.4000244140625</ele>
        <time>2026-06-17T10:37:31.000Z</time>
        <extensions>
          <ns3:TrackPointExtension>
            <ns3:atemp>22.0</ns3:atemp>
          </ns3:TrackPointExtension>
        </extensions>
      </trkpt>
      <trkpt lat="42.51102461479604244232177734375" lon="19.92617092095315456390380859375">
        <ele>1864.5999755859375</ele>
        <time>2026-06-17T10:37:32.000Z</time>
        <extensions>
          <ns3:TrackPointExtension>
            <ns3:atemp>22.0</ns3:atemp>
          </ns3:TrackPointExtension>
        </extensions>
      </trkpt>
      <trkpt lat="42.51101455651223659515380859375" lon="19.92613739334046840667724609375">
        <ele>1864.5999755859375</ele>
        <time>2026-06-17T10:37:33.000Z</time>
        <extensions>
          <ns3:TrackPointExtension>
            <ns3:atemp>22.0</ns3:atemp>
          </ns3:TrackPointExtension>
        </extensions>
      </trkpt>
      <trkpt lat="42.51100592315196990966796875" lon="19.92610604502260684967041015625">
        <ele>1864.5999755859375</ele>
        <time>2026-06-17T10:37:34.000Z</time>
        <extensions>
          <ns3:TrackPointExtension>
            <ns3:atemp>22.0</ns3:atemp>
          </ns3:TrackPointExtension>
        </extensions>
      </trkpt>
      <trkpt lat="42.51099963672459125518798828125" lon="19.9260705895721912384033203125">
        <ele>1864.800048828125</ele>
        <time>2026-06-17T10:37:35.000Z</time>
        <extensions>
          <ns3:TrackPointExtension>
            <ns3:atemp>22.0</ns3:atemp>
          </ns3:TrackPointExtension>
        </extensions>
      </trkpt>
      <trkpt lat="42.51099879853427410125732421875" lon="19.92603027261793613433837890625">
        <ele>1864.800048828125</ele>
        <time>2026-06-17T10:37:36.000Z</time>
        <extensions>
          <ns3:TrackPointExtension>
            <ns3:atemp>22.0</ns3:atemp>
          </ns3:TrackPointExtension>
        </extensions>
      </trkpt>
      <trkpt lat="42.51100030727684497833251953125" lon="19.9259850941598415374755859375">
        <ele>1864.800048828125</ele>
        <time>2026-06-17T10:37:37.000Z</time>
        <extensions>
          <ns3:TrackPointExtension>
            <ns3:atemp>22.0</ns3:atemp>
          </ns3:TrackPointExtension>
        </extensions>
      </trkpt>
      <trkpt lat="42.51099779270589351654052734375" lon="19.9259418435394763946533203125">
        <ele>1864.800048828125</ele>
        <time>2026-06-17T10:37:38.000Z</time>
        <extensions>
          <ns3:TrackPointExtension>
            <ns3:atemp>22.0</ns3:atemp>
          </ns3:TrackPointExtension>
        </extensions>
      </trkpt>
      <trkpt lat="42.51099108718335628509521484375" lon="19.92590756155550479888916015625">
        <ele>1864.800048828125</ele>
        <time>2026-06-17T10:37:39.000Z</time>
        <extensions>
          <ns3:TrackPointExtension>
            <ns3:atemp>22.0</ns3:atemp>
          </ns3:TrackPointExtension>
        </extensions>
      </trkpt>
      <trkpt lat="42.5109779275953769683837890625" lon="19.9258848465979099273681640625">
        <ele>1864.800048828125</ele>
        <time>2026-06-17T10:37:40.000Z</time>
        <extensions>
          <ns3:TrackPointExtension>
            <ns3:atemp>22.0</ns3:atemp>
          </ns3:TrackPointExtension>
        </extensions>
      </trkpt>
      <trkpt lat="42.51096024177968502044677734375" lon="19.92586791515350341796875">
        <ele>1865</ele>
        <time>2026-06-17T10:37:41.000Z</time>
        <extensions>
          <ns3:TrackPointExtension>
            <ns3:atemp>22.0</ns3:atemp>
          </ns3:TrackPointExtension>
        </extensions>
      </trkpt>
      <trkpt lat="42.510941885411739349365234375" lon="19.92585123516619205474853515625">
        <ele>1865</ele>
        <time>2026-06-17T10:37:42.000Z</time>
        <extensions>
          <ns3:TrackPointExtension>
            <ns3:atemp>22.0</ns3:atemp>
          </ns3:TrackPointExtension>
        </extensions>
      </trkpt>
      <trkpt lat="42.5109222717583179473876953125" lon="19.92583371698856353759765625">
        <ele>1865</ele>
        <time>2026-06-17T10:37:43.000Z</time>
        <extensions>
          <ns3:TrackPointExtension>
            <ns3:atemp>22.0</ns3:atemp>
          </ns3:TrackPointExtension>
        </extensions>
      </trkpt>
      <trkpt lat="42.51090466976165771484375" lon="19.925817959010601043701171875">
        <ele>1865.199951171875</ele>
        <time>2026-06-17T10:37:44.000Z</time>
        <extensions>
          <ns3:TrackPointExtension>
            <ns3:atemp>22.0</ns3:atemp>
          </ns3:TrackPointExtension>
        </extensions>
      </trkpt>
      <trkpt lat="42.5108920969069004058837890625" lon="19.92580027319490909576416015625">
        <ele>1865.199951171875</ele>
        <time>2026-06-17T10:37:45.000Z</time>
        <extensions>
          <ns3:TrackPointExtension>
            <ns3:atemp>22.0</ns3:atemp>
          </ns3:TrackPointExtension>
        </extensions>
      </trkpt>
      <trkpt lat="42.51087994314730167388916015625" lon="19.92578015662729740142822265625">
        <ele>1865.4000244140625</ele>
        <time>2026-06-17T10:37:46.000Z</time>
        <extensions>
          <ns3:TrackPointExtension>
            <ns3:atemp>22.0</ns3:atemp>
          </ns3:TrackPointExtension>
        </extensions>
      </trkpt>
      <trkpt lat="42.51086854375898838043212890625" lon="19.92575953714549541473388671875">
        <ele>1865.4000244140625</ele>
        <time>2026-06-17T10:37:47.000Z</time>
        <extensions>
          <ns3:TrackPointExtension>
            <ns3:atemp>22.0</ns3:atemp>
          </ns3:TrackPointExtension>
        </extensions>
      </trkpt>
      <trkpt lat="42.5108562223613262176513671875" lon="19.9257460422813892364501953125">
        <ele>1865.4000244140625</ele>
        <time>2026-06-17T10:37:48.000Z</time>
        <extensions>
          <ns3:TrackPointExtension>
            <ns3:atemp>22.0</ns3:atemp>
          </ns3:TrackPointExtension>
        </extensions>
      </trkpt>
      <trkpt lat="42.51084021292626857757568359375" lon="19.92573204450309276580810546875">
        <ele>1865.5999755859375</ele>
        <time>2026-06-17T10:37:49.000Z</time>
        <extensions>
          <ns3:TrackPointExtension>
            <ns3:atemp>22.0</ns3:atemp>
          </ns3:TrackPointExtension>
        </extensions>
      </trkpt>
      <trkpt lat="42.510821856558322906494140625" lon="19.9257188849151134490966796875">
        <ele>1865.800048828125</ele>
        <time>2026-06-17T10:37:50.000Z</time>
        <extensions>
          <ns3:TrackPointExtension>
            <ns3:atemp>22.0</ns3:atemp>
          </ns3:TrackPointExtension>
        </extensions>
      </trkpt>
      <trkpt lat="42.510800398886203765869140625" lon="19.92570840753614902496337890625">
        <ele>1865.800048828125</ele>
        <time>2026-06-17T10:37:51.000Z</time>
        <extensions>
          <ns3:TrackPointExtension>
            <ns3:atemp>22.0</ns3:atemp>
          </ns3:TrackPointExtension>
        </extensions>
      </trkpt>
      <trkpt lat="42.5107797794044017791748046875" lon="19.925700612366199493408203125">
        <ele>1866</ele>
        <time>2026-06-17T10:37:52.000Z</time>
        <extensions>
          <ns3:TrackPointExtension>
            <ns3:atemp>22.0</ns3:atemp>
          </ns3:TrackPointExtension>
        </extensions>
      </trkpt>
      <trkpt lat="42.5107638537883758544921875" lon="19.9256913922727108001708984375">
        <ele>1866.199951171875</ele>
        <time>2026-06-17T10:37:53.000Z</time>
        <extensions>
          <ns3:TrackPointExtension>
            <ns3:atemp>22.0</ns3:atemp>
          </ns3:TrackPointExtension>
        </extensions>
      </trkpt>
      <trkpt lat="42.51074130646884441375732421875" lon="19.92567739449441432952880859375">
        <ele>1866.4000244140625</ele>
        <time>2026-06-17T10:37:54.000Z</time>
        <extensions>
          <ns3:TrackPointExtension>
            <ns3:atemp>22.0</ns3:atemp>
          </ns3:TrackPointExtension>
        </extensions>
      </trkpt>
      <trkpt lat="42.5107197649776935577392578125" lon="19.92566331289708614349365234375">
        <ele>1866.4000244140625</ele>
        <time>2026-06-17T10:37:55.000Z</time>
        <extensions>
          <ns3:TrackPointExtension>
            <ns3:atemp>22.0</ns3:atemp>
          </ns3:TrackPointExtension>
        </extensions>
      </trkpt>
      <trkpt lat="42.51069906167685985565185546875" lon="19.92564822547137737274169921875">
        <ele>1866.5999755859375</ele>
        <time>2026-06-17T10:37:56.000Z</time>
        <extensions>
          <ns3:TrackPointExtension>
            <ns3:atemp>22.0</ns3:atemp>
          </ns3:TrackPointExtension>
        </extensions>
      </trkpt>
      <trkpt lat="42.51068229787051677703857421875" lon="19.92562584578990936279296875">
        <ele>1866.800048828125</ele>
        <time>2026-06-17T10:37:57.000Z</time>
        <extensions>
          <ns3:TrackPointExtension>
            <ns3:atemp>22.0</ns3:atemp>
          </ns3:TrackPointExtension>
        </extensions>
      </trkpt>
      <trkpt lat="42.51066536642611026763916015625" lon="19.9256075732409954071044921875">
        <ele>1867</ele>
        <time>2026-06-17T10:37:58.000Z</time>
        <extensions>
          <ns3:TrackPointExtension>
            <ns3:atemp>22.0</ns3:atemp>
          </ns3:TrackPointExtension>
        </extensions>
      </trkpt>
      <trkpt lat="42.5106513686478137969970703125" lon="19.92559424601495265960693359375">
        <ele>1867.4000244140625</ele>
        <time>2026-06-17T10:37:59.000Z</time>
        <extensions>
          <ns3:TrackPointExtension>
            <ns3:atemp>22.0</ns3:atemp>
          </ns3:TrackPointExtension>
        </extensions>
      </trkpt>
      <trkpt lat="42.5106351077556610107421875" lon="19.92557882331311702728271484375">
        <ele>1867.5999755859375</ele>
        <time>2026-06-17T10:38:00.000Z</time>
        <extensions>
          <ns3:TrackPointExtension>
            <ns3:atemp>22.0</ns3:atemp>
          </ns3:TrackPointExtension>
        </extensions>
      </trkpt>
      <trkpt lat="42.51061658374965190887451171875" lon="19.92556457407772541046142578125">
        <ele>1868</ele>
        <time>2026-06-17T10:38:01.000Z</time>
        <extensions>
          <ns3:TrackPointExtension>
            <ns3:atemp>22.0</ns3:atemp>
          </ns3:TrackPointExtension>
        </extensions>
      </trkpt>
      <trkpt lat="42.51060082577168941497802734375" lon="19.92554395459592342376708984375">
        <ele>1868.199951171875</ele>
        <time>2026-06-17T10:38:02.000Z</time>
        <extensions>
          <ns3:TrackPointExtension>
            <ns3:atemp>22.0</ns3:atemp>
          </ns3:TrackPointExtension>
        </extensions>
      </trkpt>
      <trkpt lat="42.51058481633663177490234375" lon="19.92551864124834537506103515625">
        <ele>1868.4000244140625</ele>
        <time>2026-06-17T10:38:03.000Z</time>
        <extensions>
          <ns3:TrackPointExtension>
            <ns3:atemp>22.0</ns3:atemp>
          </ns3:TrackPointExtension>
        </extensions>
      </trkpt>
      <trkpt lat="42.51057266257703304290771484375" lon="19.92550053633749485015869140625">
        <ele>1868.5999755859375</ele>
        <time>2026-06-17T10:38:04.000Z</time>
        <extensions>
          <ns3:TrackPointExtension>
            <ns3:atemp>22.0</ns3:atemp>
          </ns3:TrackPointExtension>
        </extensions>
      </trkpt>
      <trkpt lat="42.5105591677129268646240234375" lon="19.9254883825778961181640625">
        <ele>1868.800048828125</ele>
        <time>2026-06-17T10:38:05.000Z</time>
        <extensions>
          <ns3:TrackPointExtension>
            <ns3:atemp>22.0</ns3:atemp>
          </ns3:TrackPointExtension>
        </extensions>
      </trkpt>
      <trkpt lat="42.51054433174431324005126953125" lon="19.92547840811312198638916015625">
        <ele>1869</ele>
        <time>2026-06-17T10:38:06.000Z</time>
        <extensions>
          <ns3:TrackPointExtension>
            <ns3:atemp>22.0</ns3:atemp>
          </ns3:TrackPointExtension>
        </extensions>
      </trkpt>
      <trkpt lat="42.51053175888955593109130859375" lon="19.92545929737389087677001953125">
        <ele>1869.199951171875</ele>
        <time>2026-06-17T10:38:07.000Z</time>
        <extensions>
          <ns3:TrackPointExtension>
            <ns3:atemp>22.0</ns3:atemp>
          </ns3:TrackPointExtension>
        </extensions>
      </trkpt>
      <trkpt lat="42.51052044332027435302734375" lon="19.9254355765879154205322265625">
        <ele>1869.199951171875</ele>
        <time>2026-06-17T10:38:08.000Z</time>
        <extensions>
          <ns3:TrackPointExtension>
            <ns3:atemp>22.0</ns3:atemp>
          </ns3:TrackPointExtension>
        </extensions>
      </trkpt>
      <trkpt lat="42.51050795428454875946044921875" lon="19.92541336454451084136962890625">
        <ele>1869.4000244140625</ele>
        <time>2026-06-17T10:38:09.000Z</time>
        <extensions>
          <ns3:TrackPointExtension>
            <ns3:atemp>22.0</ns3:atemp>
          </ns3:TrackPointExtension>
        </extensions>
      </trkpt>
      <trkpt lat="42.51049286685883998870849609375" lon="19.9253918230533599853515625">
        <ele>1869.5999755859375</ele>
        <time>2026-06-17T10:38:10.000Z</time>
        <extensions>
          <ns3:TrackPointExtension>
            <ns3:atemp>22.0</ns3:atemp>
          </ns3:TrackPointExtension>
        </extensions>
      </trkpt>
      <trkpt lat="42.51047777943313121795654296875" lon="19.92537313140928745269775390625">
        <ele>1869.5999755859375</ele>
        <time>2026-06-17T10:38:11.000Z</time>
        <extensions>
          <ns3:TrackPointExtension>
            <ns3:atemp>22.0</ns3:atemp>
          </ns3:TrackPointExtension>
        </extensions>
      </trkpt>
      <trkpt lat="42.510462105274200439453125" lon="19.9253537692129611968994140625">
        <ele>1869.800048828125</ele>
        <time>2026-06-17T10:38:12.000Z</time>
        <extensions>
          <ns3:TrackPointExtension>
            <ns3:atemp>22.0</ns3:atemp>
          </ns3:TrackPointExtension>
        </extensions>
      </trkpt>
      <trkpt lat="42.51044676639139652252197265625" lon="19.925337843596935272216796875">
        <ele>1869.800048828125</ele>
        <time>2026-06-17T10:38:13.000Z</time>
        <extensions>
          <ns3:TrackPointExtension>
            <ns3:atemp>22.0</ns3:atemp>
          </ns3:TrackPointExtension>
        </extensions>
      </trkpt>
      <trkpt lat="42.5104317627847194671630859375" lon="19.9253178946673870086669921875">
        <ele>1870</ele>
        <time>2026-06-17T10:38:14.000Z</time>
        <extensions>
          <ns3:TrackPointExtension>
            <ns3:atemp>22.0</ns3:atemp>
          </ns3:TrackPointExtension>
        </extensions>
      </trkpt>
      <trkpt lat="42.51041977666318416595458984375" lon="19.925295598804950714111328125">
        <ele>1870</ele>
        <time>2026-06-17T10:38:15.000Z</time>
        <extensions>
          <ns3:TrackPointExtension>
            <ns3:atemp>22.0</ns3:atemp>
          </ns3:TrackPointExtension>
        </extensions>
      </trkpt>
      <trkpt lat="42.51040653325617313385009765625" lon="19.925268106162548065185546875">
        <ele>1870</ele>
        <time>2026-06-17T10:38:16.000Z</time>
        <extensions>
          <ns3:TrackPointExtension>
            <ns3:atemp>22.0</ns3:atemp>
          </ns3:TrackPointExtension>
        </extensions>
      </trkpt>
      <trkpt lat="42.5103908590972423553466796875" lon="19.9252448044717311859130859375">
        <ele>1870</ele>
        <time>2026-06-17T10:38:17.000Z</time>
        <extensions>
          <ns3:TrackPointExtension>
            <ns3:atemp>22.0</ns3:atemp>
          </ns3:TrackPointExtension>
        </extensions>
      </trkpt>
      <trkpt lat="42.51037686131894588470458984375" lon="19.92522527463734149932861328125">
        <ele>1870.199951171875</ele>
        <time>2026-06-17T10:38:18.000Z</time>
        <extensions>
          <ns3:TrackPointExtension>
            <ns3:atemp>22.0</ns3:atemp>
          </ns3:TrackPointExtension>
        </extensions>
      </trkpt>
      <trkpt lat="42.5103663839399814605712890625" lon="19.92520733736455440521240234375">
        <ele>1870.199951171875</ele>
        <time>2026-06-17T10:38:19.000Z</time>
        <extensions>
          <ns3:TrackPointExtension>
            <ns3:atemp>22.0</ns3:atemp>
          </ns3:TrackPointExtension>
        </extensions>
      </trkpt>
      <trkpt lat="42.510357834398746490478515625" lon="19.9251878075301647186279296875">
        <ele>1870.4000244140625</ele>
        <time>2026-06-17T10:38:20.000Z</time>
        <extensions>
          <ns3:TrackPointExtension>
            <ns3:atemp>22.0</ns3:atemp>
          </ns3:TrackPointExtension>
        </extensions>
      </trkpt>
      <trkpt lat="42.5103509612381458282470703125" lon="19.92516106925904750823974609375">
        <ele>1870.5999755859375</ele>
        <time>2026-06-17T10:38:21.000Z</time>
        <extensions>
          <ns3:TrackPointExtension>
            <ns3:atemp>22.0</ns3:atemp>
          </ns3:TrackPointExtension>
        </extensions>
      </trkpt>
      <trkpt lat="42.51034987159073352813720703125" lon="19.9251308105885982513427734375">
        <ele>1870.800048828125</ele>
        <time>2026-06-17T10:38:22.000Z</time>
        <extensions>
          <ns3:TrackPointExtension>
            <ns3:atemp>22.0</ns3:atemp>
          </ns3:TrackPointExtension>
        </extensions>
      </trkpt>
      <trkpt lat="42.51034517772495746612548828125" lon="19.92510491050779819488525390625">
        <ele>1871</ele>
        <time>2026-06-17T10:38:23.000Z</time>
        <extensions>
          <ns3:TrackPointExtension>
            <ns3:atemp>22.0</ns3:atemp>
          </ns3:TrackPointExtension>
        </extensions>
      </trkpt>
      <trkpt lat="42.510335706174373626708984375" lon="19.92507599294185638427734375">
        <ele>1871.199951171875</ele>
        <time>2026-06-17T10:38:24.000Z</time>
        <extensions>
          <ns3:TrackPointExtension>
            <ns3:atemp>22.0</ns3:atemp>
          </ns3:TrackPointExtension>
        </extensions>
      </trkpt>
      <trkpt lat="42.5103281624615192413330078125" lon="19.92504321970045566558837890625">
        <ele>1871.199951171875</ele>
        <time>2026-06-17T10:38:25.000Z</time>
        <extensions>
          <ns3:TrackPointExtension>
            <ns3:atemp>22.0</ns3:atemp>
          </ns3:TrackPointExtension>
        </extensions>
      </trkpt>
      <trkpt lat="42.51032187603414058685302734375" lon="19.925009272992610931396484375">
        <ele>1871.4000244140625</ele>
        <time>2026-06-17T10:38:26.000Z</time>
        <extensions>
          <ns3:TrackPointExtension>
            <ns3:atemp>22.0</ns3:atemp>
          </ns3:TrackPointExtension>
        </extensions>
      </trkpt>
      <trkpt lat="42.51031684689223766326904296875" lon="19.92497968487441539764404296875">
        <ele>1871.5999755859375</ele>
        <time>2026-06-17T10:38:27.000Z</time>
        <extensions>
          <ns3:TrackPointExtension>
            <ns3:atemp>22.0</ns3:atemp>
          </ns3:TrackPointExtension>
        </extensions>
      </trkpt>
      <trkpt lat="42.51031248830258846282958984375" lon="19.9249497614800930023193359375">
        <ele>1871.5999755859375</ele>
        <time>2026-06-17T10:38:28.000Z</time>
        <extensions>
          <ns3:TrackPointExtension>
            <ns3:atemp>22.0</ns3:atemp>
          </ns3:TrackPointExtension>
        </extensions>
      </trkpt>
      <trkpt lat="42.51030880026519298553466796875" lon="19.92491883225739002227783203125">
        <ele>1871.800048828125</ele>
        <time>2026-06-17T10:38:29.000Z</time>
        <extensions>
          <ns3:TrackPointExtension>
            <ns3:atemp>22.0</ns3:atemp>
          </ns3:TrackPointExtension>
        </extensions>
      </trkpt>
      <trkpt lat="42.51030712388455867767333984375" lon="19.92488765157759189605712890625">
        <ele>1871.800048828125</ele>
        <time>2026-06-17T10:38:30.000Z</time>
        <extensions>
          <ns3:TrackPointExtension>
            <ns3:atemp>22.0</ns3:atemp>
          </ns3:TrackPointExtension>
        </extensions>
      </trkpt>
      <trkpt lat="42.51030712388455867767333984375" lon="19.92485965602099895477294921875">
        <ele>1872</ele>
        <time>2026-06-17T10:38:31.000Z</time>
        <extensions>
          <ns3:TrackPointExtension>
            <ns3:atemp>22.0</ns3:atemp>
          </ns3:TrackPointExtension>
        </extensions>
      </trkpt>
      <trkpt lat="42.51030762679874897003173828125" lon="19.92483451031148433685302734375">
        <ele>1872.199951171875</ele>
        <time>2026-06-17T10:38:32.000Z</time>
        <extensions>
          <ns3:TrackPointExtension>
            <ns3:atemp>22.0</ns3:atemp>
          </ns3:TrackPointExtension>
        </extensions>
      </trkpt>
      <trkpt lat="42.5103113986551761627197265625" lon="19.92480777204036712646484375">
        <ele>1872.199951171875</ele>
        <time>2026-06-17T10:38:33.000Z</time>
        <extensions>
          <ns3:TrackPointExtension>
            <ns3:atemp>22.0</ns3:atemp>
          </ns3:TrackPointExtension>
        </extensions>
      </trkpt>
      <trkpt lat="42.51031517051160335540771484375" lon="19.92478036321699619293212890625">
        <ele>1872.4000244140625</ele>
        <time>2026-06-17T10:38:34.000Z</time>
        <extensions>
          <ns3:TrackPointExtension>
            <ns3:atemp>22.0</ns3:atemp>
          </ns3:TrackPointExtension>
        </extensions>
      </trkpt>
      <trkpt lat="42.51031802035868167877197265625" lon="19.92475521750748157501220703125">
        <ele>1872.5999755859375</ele>
        <time>2026-06-17T10:38:35.000Z</time>
        <extensions>
          <ns3:TrackPointExtension>
            <ns3:atemp>22.0</ns3:atemp>
          </ns3:TrackPointExtension>
        </extensions>
      </trkpt>
      <trkpt lat="42.510320954024791717529296875" lon="19.9247266352176666259765625">
        <ele>1873</ele>
        <time>2026-06-17T10:38:36.000Z</time>
        <extensions>
          <ns3:TrackPointExtension>
            <ns3:atemp>22.0</ns3:atemp>
          </ns3:TrackPointExtension>
        </extensions>
      </trkpt>
      <trkpt lat="42.51032120548188686370849609375" lon="19.92470257915556430816650390625">
        <ele>1873.4000244140625</ele>
        <time>2026-06-17T10:38:37.000Z</time>
        <extensions>
          <ns3:TrackPointExtension>
            <ns3:atemp>22.0</ns3:atemp>
          </ns3:TrackPointExtension>
        </extensions>
      </trkpt>
      <trkpt lat="42.51032455824315547943115234375" lon="19.92467525415122509002685546875">
        <ele>1873.5999755859375</ele>
        <time>2026-06-17T10:38:38.000Z</time>
        <extensions>
          <ns3:TrackPointExtension>
            <ns3:atemp>22.0</ns3:atemp>
          </ns3:TrackPointExtension>
        </extensions>
      </trkpt>
      <trkpt lat="42.51032506115734577178955078125" lon="19.9246446602046489715576171875">
        <ele>1874</ele>
        <time>2026-06-17T10:38:39.000Z</time>
        <extensions>
          <ns3:TrackPointExtension>
            <ns3:atemp>22.0</ns3:atemp>
          </ns3:TrackPointExtension>
        </extensions>
      </trkpt>
      <trkpt lat="42.510323636233806610107421875" lon="19.9246121384203433990478515625">
        <ele>1874.199951171875</ele>
        <time>2026-06-17T10:38:40.000Z</time>
        <extensions>
          <ns3:TrackPointExtension>
            <ns3:atemp>22.0</ns3:atemp>
          </ns3:TrackPointExtension>
        </extensions>
      </trkpt>
      <trkpt lat="42.5103174336254596710205078125" lon="19.9245846457779407501220703125">
        <ele>1873.800048828125</ele>
        <time>2026-06-17T10:38:41.000Z</time>
        <extensions>
          <ns3:TrackPointExtension>
            <ns3:atemp>22.0</ns3:atemp>
          </ns3:TrackPointExtension>
        </extensions>
      </trkpt>
      <trkpt lat="42.51031500287353992462158203125" lon="19.924550615251064300537109375">
        <ele>1873</ele>
        <time>2026-06-17T10:38:42.000Z</time>
        <extensions>
          <ns3:TrackPointExtension>
            <ns3:atemp>22.0</ns3:atemp>
          </ns3:TrackPointExtension>
        </extensions>
      </trkpt>
      <trkpt lat="42.51031667925417423248291015625" lon="19.9245199374854564666748046875">
        <ele>1872.5999755859375</ele>
        <time>2026-06-17T10:38:43.000Z</time>
        <extensions>
          <ns3:TrackPointExtension>
            <ns3:atemp>22.0</ns3:atemp>
          </ns3:TrackPointExtension>
        </extensions>
      </trkpt>
      <trkpt lat="42.510318942368030548095703125" lon="19.9244957976043224334716796875">
        <ele>1872.4000244140625</ele>
        <time>2026-06-17T10:38:44.000Z</time>
        <extensions>
          <ns3:TrackPointExtension>
            <ns3:atemp>22.0</ns3:atemp>
          </ns3:TrackPointExtension>
        </extensions>
      </trkpt>
      <trkpt lat="42.510322295129299163818359375" lon="19.92447920143604278564453125">
        <ele>1872.4000244140625</ele>
        <time>2026-06-17T10:38:45.000Z</time>
        <extensions>
          <ns3:TrackPointExtension>
            <ns3:atemp>22.0</ns3:atemp>
          </ns3:TrackPointExtension>
        </extensions>
      </trkpt>
      <trkpt lat="42.51031986437737941741943359375" lon="19.92446713149547576904296875">
        <ele>1872.5999755859375</ele>
        <time>2026-06-17T10:38:46.000Z</time>
        <extensions>
          <ns3:TrackPointExtension>
            <ns3:atemp>22.0</ns3:atemp>
          </ns3:TrackPointExtension>
        </extensions>
      </trkpt>
      <trkpt lat="42.5103160925209522247314453125" lon="19.9244508706033229827880859375">
        <ele>1872.5999755859375</ele>
        <time>2026-06-17T10:38:47.000Z</time>
        <extensions>
          <ns3:TrackPointExtension>
            <ns3:atemp>22.0</ns3:atemp>
          </ns3:TrackPointExtension>
        </extensions>
      </trkpt>
      <trkpt lat="42.510313577950000762939453125" lon="19.92443134076893329620361328125">
        <ele>1873.199951171875</ele>
        <time>2026-06-17T10:38:48.000Z</time>
        <extensions>
          <ns3:TrackPointExtension>
            <ns3:atemp>22.0</ns3:atemp>
          </ns3:TrackPointExtension>
        </extensions>
      </trkpt>
      <trkpt lat="42.51031232066452503204345703125" lon="19.92440468631684780120849609375">
        <ele>1873.800048828125</ele>
        <time>2026-06-17T10:38:49.000Z</time>
        <extensions>
          <ns3:TrackPointExtension>
            <ns3:atemp>22.0</ns3:atemp>
          </ns3:TrackPointExtension>
        </extensions>
      </trkpt>
      <trkpt lat="42.51031198538839817047119140625" lon="19.9243717454373836517333984375">
        <ele>1874.199951171875</ele>
        <time>2026-06-17T10:38:50.000Z</time>
        <extensions>
          <ns3:TrackPointExtension>
            <ns3:atemp>22.0</ns3:atemp>
          </ns3:TrackPointExtension>
        </extensions>
      </trkpt>
      <trkpt lat="42.5103103928267955780029296875" lon="19.92434333078563213348388671875">
        <ele>1874.4000244140625</ele>
        <time>2026-06-17T10:38:51.000Z</time>
        <extensions>
          <ns3:TrackPointExtension>
            <ns3:atemp>22.0</ns3:atemp>
          </ns3:TrackPointExtension>
        </extensions>
      </trkpt>
      <trkpt lat="42.5103060342371463775634765625" lon="19.9243197776377201080322265625">
        <ele>1874.5999755859375</ele>
        <time>2026-06-17T10:38:52.000Z</time>
        <extensions>
          <ns3:TrackPointExtension>
            <ns3:atemp>22.0</ns3:atemp>
          </ns3:TrackPointExtension>
        </extensions>
      </trkpt>
      <trkpt lat="42.5103030167520046234130859375" lon="19.924295134842395782470703125">
        <ele>1874.5999755859375</ele>
        <time>2026-06-17T10:38:53.000Z</time>
        <extensions>
          <ns3:TrackPointExtension>
            <ns3:atemp>22.0</ns3:atemp>
          </ns3:TrackPointExtension>
        </extensions>
      </trkpt>
      <trkpt lat="42.51030243001878261566162109375" lon="19.924270994961261749267578125">
        <ele>1874.800048828125</ele>
        <time>2026-06-17T10:38:54.000Z</time>
        <extensions>
          <ns3:TrackPointExtension>
            <ns3:atemp>22.0</ns3:atemp>
          </ns3:TrackPointExtension>
        </extensions>
      </trkpt>
      <trkpt lat="42.51030452549457550048828125" lon="19.92424593307077884674072265625">
        <ele>1874.800048828125</ele>
        <time>2026-06-17T10:38:55.000Z</time>
        <extensions>
          <ns3:TrackPointExtension>
            <ns3:atemp>22.0</ns3:atemp>
          </ns3:TrackPointExtension>
        </extensions>
      </trkpt>
      <trkpt lat="42.51030695624649524688720703125" lon="19.9242215417325496673583984375">
        <ele>1875.199951171875</ele>
        <time>2026-06-17T10:38:56.000Z</time>
        <extensions>
          <ns3:TrackPointExtension>
            <ns3:atemp>22.0</ns3:atemp>
          </ns3:TrackPointExtension>
        </extensions>
      </trkpt>
      <trkpt lat="42.51030720770359039306640625" lon="19.92419949732720851898193359375">
        <ele>1875.4000244140625</ele>
        <time>2026-06-17T10:38:57.000Z</time>
        <extensions>
          <ns3:TrackPointExtension>
            <ns3:atemp>22.0</ns3:atemp>
          </ns3:TrackPointExtension>
        </extensions>
      </trkpt>
      <trkpt lat="42.51030527986586093902587890625" lon="19.9241794645786285400390625">
        <ele>1875.5999755859375</ele>
        <time>2026-06-17T10:38:58.000Z</time>
        <extensions>
          <ns3:TrackPointExtension>
            <ns3:atemp>22.0</ns3:atemp>
          </ns3:TrackPointExtension>
        </extensions>
      </trkpt>
      <trkpt lat="42.5102929584681987762451171875" lon="19.92416001856327056884765625">
        <ele>1875.800048828125</ele>
        <time>2026-06-17T10:38:59.000Z</time>
        <extensions>
          <ns3:TrackPointExtension>
            <ns3:atemp>22.0</ns3:atemp>
          </ns3:TrackPointExtension>
        </extensions>
      </trkpt>
      <trkpt lat="42.51027761958539485931396484375" lon="19.92415130138397216796875">
        <ele>1876</ele>
        <time>2026-06-17T10:39:00.000Z</time>
        <extensions>
          <ns3:TrackPointExtension>
            <ns3:atemp>22.0</ns3:atemp>
          </ns3:TrackPointExtension>
        </extensions>
      </trkpt>
      <trkpt lat="42.5102641247212886810302734375" lon="19.92414685897529125213623046875">
        <ele>1876.199951171875</ele>
        <time>2026-06-17T10:39:01.000Z</time>
        <extensions>
          <ns3:TrackPointExtension>
            <ns3:atemp>22.0</ns3:atemp>
          </ns3:TrackPointExtension>
        </extensions>
      </trkpt>
      <trkpt lat="42.5102470256388187408447265625" lon="19.92414535023272037506103515625">
        <ele>1876.4000244140625</ele>
        <time>2026-06-17T10:39:02.000Z</time>
        <extensions>
          <ns3:TrackPointExtension>
            <ns3:atemp>23.0</ns3:atemp>
          </ns3:TrackPointExtension>
        </extensions>
      </trkpt>
      <trkpt lat="42.51023336313664913177490234375" lon="19.92413428612053394317626953125">
        <ele>1876.5999755859375</ele>
        <time>2026-06-17T10:39:03.000Z</time>
        <extensions>
          <ns3:TrackPointExtension>
            <ns3:atemp>22.0</ns3:atemp>
          </ns3:TrackPointExtension>
        </extensions>
      </trkpt>
      <trkpt lat="42.51022665761411190032958984375" lon="19.92411911487579345703125">
        <ele>1876.800048828125</ele>
        <time>2026-06-17T10:39:04.000Z</time>
        <extensions>
          <ns3:TrackPointExtension>
            <ns3:atemp>22.0</ns3:atemp>
          </ns3:TrackPointExtension>
        </extensions>
      </trkpt>
      <trkpt lat="42.5102208741009235382080078125" lon="19.9241031892597675323486328125">
        <ele>1877</ele>
        <time>2026-06-17T10:39:05.000Z</time>
        <extensions>
          <ns3:TrackPointExtension>
            <ns3:atemp>22.0</ns3:atemp>
          </ns3:TrackPointExtension>
        </extensions>
      </trkpt>
      <trkpt lat="42.5102141685783863067626953125" lon="19.9240847490727901458740234375">
        <ele>1877.199951171875</ele>
        <time>2026-06-17T10:39:06.000Z</time>
        <extensions>
          <ns3:TrackPointExtension>
            <ns3:atemp>22.0</ns3:atemp>
          </ns3:TrackPointExtension>
        </extensions>
      </trkpt>
      <trkpt lat="42.51020838506519794464111328125" lon="19.92407477460801601409912109375">
        <ele>1877.5999755859375</ele>
        <time>2026-06-17T10:39:07.000Z</time>
        <extensions>
          <ns3:TrackPointExtension>
            <ns3:atemp>22.0</ns3:atemp>
          </ns3:TrackPointExtension>
        </extensions>
      </trkpt>
      <trkpt lat="42.51020796597003936767578125" lon="19.92407561279833316802978515625">
        <ele>1878</ele>
        <time>2026-06-17T10:39:08.000Z</time>
        <extensions>
          <ns3:TrackPointExtension>
            <ns3:atemp>22.0</ns3:atemp>
          </ns3:TrackPointExtension>
        </extensions>
      </trkpt>
      <trkpt lat="42.51020804978907108306884765625" lon="19.92407552897930145263671875">
        <ele>1878.4000244140625</ele>
        <time>2026-06-17T10:39:09.000Z</time>
        <extensions>
          <ns3:TrackPointExtension>
            <ns3:atemp>22.0</ns3:atemp>
          </ns3:TrackPointExtension>
        </extensions>
      </trkpt>
      <trkpt lat="42.51020804978907108306884765625" lon="19.92407552897930145263671875">
        <ele>1878.5999755859375</ele>
        <time>2026-06-17T10:39:10.000Z</time>
        <extensions>
          <ns3:TrackPointExtension>
            <ns3:atemp>22.0</ns3:atemp>
          </ns3:TrackPointExtension>
        </extensions>
      </trkpt>
      <trkpt lat="42.51020804978907108306884765625" lon="19.92407552897930145263671875">
        <ele>1878.800048828125</ele>
        <time>2026-06-17T10:39:11.000Z</time>
        <extensions>
          <ns3:TrackPointExtension>
            <ns3:atemp>23.0</ns3:atemp>
          </ns3:TrackPointExtension>
        </extensions>
      </trkpt>
      <trkpt lat="42.51020804978907108306884765625" lon="19.92407552897930145263671875">
        <ele>1878.800048828125</ele>
        <time>2026-06-17T10:39:12.000Z</time>
        <extensions>
          <ns3:TrackPointExtension>
            <ns3:atemp>23.0</ns3:atemp>
          </ns3:TrackPointExtension>
        </extensions>
      </trkpt>
      <trkpt lat="42.51020804978907108306884765625" lon="19.92407552897930145263671875">
        <ele>1878.800048828125</ele>
        <time>2026-06-17T10:39:13.000Z</time>
        <extensions>
          <ns3:TrackPointExtension>
            <ns3:atemp>23.0</ns3:atemp>
          </ns3:TrackPointExtension>
        </extensions>
      </trkpt>
      <trkpt lat="42.51020804978907108306884765625" lon="19.92407552897930145263671875">
        <ele>1878.800048828125</ele>
        <time>2026-06-17T10:39:14.000Z</time>
        <extensions>
          <ns3:TrackPointExtension>
            <ns3:atemp>23.0</ns3:atemp>
          </ns3:TrackPointExtension>
        </extensions>
      </trkpt>
      <trkpt lat="42.51020804978907108306884765625" lon="19.92407552897930145263671875">
        <ele>1878.800048828125</ele>
        <time>2026-06-17T10:39:15.000Z</time>
        <extensions>
          <ns3:TrackPointExtension>
            <ns3:atemp>23.0</ns3:atemp>
          </ns3:TrackPointExtension>
        </extensions>
      </trkpt>
      <trkpt lat="42.51020804978907108306884765625" lon="19.92407552897930145263671875">
        <ele>1878.5999755859375</ele>
        <time>2026-06-17T10:39:16.000Z</time>
        <extensions>
          <ns3:TrackPointExtension>
            <ns3:atemp>23.0</ns3:atemp>
          </ns3:TrackPointExtension>
        </extensions>
      </trkpt>
      <trkpt lat="42.51020804978907108306884765625" lon="19.92407552897930145263671875">
        <ele>1878.4000244140625</ele>
        <time>2026-06-17T10:39:17.000Z</time>
        <extensions>
          <ns3:TrackPointExtension>
            <ns3:atemp>23.0</ns3:atemp>
          </ns3:TrackPointExtension>
        </extensions>
      </trkpt>
      <trkpt lat="42.510208301246166229248046875" lon="19.92407477460801601409912109375">
        <ele>1878.4000244140625</ele>
        <time>2026-06-17T10:39:18.000Z</time>
        <extensions>
          <ns3:TrackPointExtension>
            <ns3:atemp>23.0</ns3:atemp>
          </ns3:TrackPointExtension>
        </extensions>
      </trkpt>
      <trkpt lat="42.510202266275882720947265625" lon="19.92406077682971954345703125">
        <ele>1878.199951171875</ele>
        <time>2026-06-17T10:39:19.000Z</time>
        <extensions>
          <ns3:TrackPointExtension>
            <ns3:atemp>23.0</ns3:atemp>
          </ns3:TrackPointExtension>
        </extensions>
      </trkpt>
      <trkpt lat="42.5101950578391551971435546875" lon="19.9240455217659473419189453125">
        <ele>1878.199951171875</ele>
        <time>2026-06-17T10:39:20.000Z</time>
        <extensions>
          <ns3:TrackPointExtension>
            <ns3:atemp>23.0</ns3:atemp>
          </ns3:TrackPointExtension>
        </extensions>
      </trkpt>
      <trkpt lat="42.5101836584508419036865234375" lon="19.92403286509215831756591796875">
        <ele>1878.4000244140625</ele>
        <time>2026-06-17T10:39:21.000Z</time>
        <extensions>
          <ns3:TrackPointExtension>
            <ns3:atemp>23.0</ns3:atemp>
          </ns3:TrackPointExtension>
        </extensions>
      </trkpt>
      <trkpt lat="42.510171420872211456298828125" lon="19.92401341907680034637451171875">
        <ele>1878.4000244140625</ele>
        <time>2026-06-17T10:39:22.000Z</time>
        <extensions>
          <ns3:TrackPointExtension>
            <ns3:atemp>23.0</ns3:atemp>
          </ns3:TrackPointExtension>
        </extensions>
      </trkpt>
      <trkpt lat="42.510161362588405609130859375" lon="19.9239955656230449676513671875">
        <ele>1878.5999755859375</ele>
        <time>2026-06-17T10:39:23.000Z</time>
        <extensions>
          <ns3:TrackPointExtension>
            <ns3:atemp>23.0</ns3:atemp>
          </ns3:TrackPointExtension>
        </extensions>
      </trkpt>
      <trkpt lat="42.5101523101329803466796875" lon="19.92397720925509929656982421875">
        <ele>1879</ele>
        <time>2026-06-17T10:39:24.000Z</time>
        <extensions>
          <ns3:TrackPointExtension>
            <ns3:atemp>23.0</ns3:atemp>
          </ns3:TrackPointExtension>
        </extensions>
      </trkpt>
      <trkpt lat="42.51014401204884052276611328125" lon="19.92395876906812191009521484375">
        <ele>1879.4000244140625</ele>
        <time>2026-06-17T10:39:25.000Z</time>
        <extensions>
          <ns3:TrackPointExtension>
            <ns3:atemp>23.0</ns3:atemp>
          </ns3:TrackPointExtension>
        </extensions>
      </trkpt>
      <trkpt lat="42.51013009808957576751708984375" lon="19.92394544184207916259765625">
        <ele>1879.800048828125</ele>
        <time>2026-06-17T10:39:26.000Z</time>
        <extensions>
          <ns3:TrackPointExtension>
            <ns3:atemp>23.0</ns3:atemp>
          </ns3:TrackPointExtension>
        </extensions>
      </trkpt>
      <trkpt lat="42.51012003980576992034912109375" lon="19.92393529973924160003662109375">
        <ele>1880.4000244140625</ele>
        <time>2026-06-17T10:39:27.000Z</time>
        <extensions>
          <ns3:TrackPointExtension>
            <ns3:atemp>23.0</ns3:atemp>
          </ns3:TrackPointExtension>
        </extensions>
      </trkpt>
      <trkpt lat="42.5101092271506786346435546875" lon="19.92392289452254772186279296875">
        <ele>1881.199951171875</ele>
        <time>2026-06-17T10:39:28.000Z</time>
        <extensions>
          <ns3:TrackPointExtension>
            <ns3:atemp>23.0</ns3:atemp>
          </ns3:TrackPointExtension>
        </extensions>
      </trkpt>
      <trkpt lat="42.51010361127555370330810546875" lon="19.9239104054868221282958984375">
        <ele>1881.800048828125</ele>
        <time>2026-06-17T10:39:29.000Z</time>
        <extensions>
          <ns3:TrackPointExtension>
            <ns3:atemp>23.0</ns3:atemp>
          </ns3:TrackPointExtension>
        </extensions>
      </trkpt>
      <trkpt lat="42.51009338535368442535400390625" lon="19.92390093393623828887939453125">
        <ele>1882.199951171875</ele>
        <time>2026-06-17T10:39:30.000Z</time>
        <extensions>
          <ns3:TrackPointExtension>
            <ns3:atemp>23.0</ns3:atemp>
          </ns3:TrackPointExtension>
        </extensions>
      </trkpt>
      <trkpt lat="42.5100800581276416778564453125" lon="19.92388232611119747161865234375">
        <ele>1882.5999755859375</ele>
        <time>2026-06-17T10:39:31.000Z</time>
        <extensions>
          <ns3:TrackPointExtension>
            <ns3:atemp>23.0</ns3:atemp>
          </ns3:TrackPointExtension>
        </extensions>
      </trkpt>
      <trkpt lat="42.5100683234632015228271484375" lon="19.9238641373813152313232421875">
        <ele>1883</ele>
        <time>2026-06-17T10:39:32.000Z</time>
        <extensions>
          <ns3:TrackPointExtension>
            <ns3:atemp>23.0</ns3:atemp>
          </ns3:TrackPointExtension>
        </extensions>
      </trkpt>
      <trkpt lat="42.51005969010293483734130859375" lon="19.92383974604308605194091796875">
        <ele>1883.5999755859375</ele>
        <time>2026-06-17T10:39:33.000Z</time>
        <extensions>
          <ns3:TrackPointExtension>
            <ns3:atemp>23.0</ns3:atemp>
          </ns3:TrackPointExtension>
        </extensions>
      </trkpt>
      <trkpt lat="42.510046698153018951416015625" lon="19.9238173663616180419921875">
        <ele>1883.800048828125</ele>
        <time>2026-06-17T10:39:34.000Z</time>
        <extensions>
          <ns3:TrackPointExtension>
            <ns3:atemp>23.0</ns3:atemp>
          </ns3:TrackPointExtension>
        </extensions>
      </trkpt>
      <trkpt lat="42.510037980973720550537109375" lon="19.92379565723240375518798828125">
        <ele>1884.4000244140625</ele>
        <time>2026-06-17T10:39:35.000Z</time>
        <extensions>
          <ns3:TrackPointExtension>
            <ns3:atemp>23.0</ns3:atemp>
          </ns3:TrackPointExtension>
        </extensions>
      </trkpt>
      <trkpt lat="42.5100331194698810577392578125" lon="19.9237789772450923919677734375">
        <ele>1885</ele>
        <time>2026-06-17T10:39:36.000Z</time>
        <extensions>
          <ns3:TrackPointExtension>
            <ns3:atemp>23.0</ns3:atemp>
          </ns3:TrackPointExtension>
        </extensions>
      </trkpt>
      <trkpt lat="42.5100284256041049957275390625" lon="19.923757016658782958984375">
        <ele>1885.5999755859375</ele>
        <time>2026-06-17T10:39:37.000Z</time>
        <extensions>
          <ns3:TrackPointExtension>
            <ns3:atemp>23.0</ns3:atemp>
          </ns3:TrackPointExtension>
        </extensions>
      </trkpt>
      <trkpt lat="42.51001887023448944091796875" lon="19.9237347207963466644287109375">
        <ele>1886.4000244140625</ele>
        <time>2026-06-17T10:39:38.000Z</time>
        <extensions>
          <ns3:TrackPointExtension>
            <ns3:atemp>23.0</ns3:atemp>
          </ns3:TrackPointExtension>
        </extensions>
      </trkpt>
      <trkpt lat="42.51001208089292049407958984375" lon="19.92371351458132266998291015625">
        <ele>1887</ele>
        <time>2026-06-17T10:39:39.000Z</time>
        <extensions>
          <ns3:TrackPointExtension>
            <ns3:atemp>23.0</ns3:atemp>
          </ns3:TrackPointExtension>
        </extensions>
      </trkpt>
      <trkpt lat="42.51001006923615932464599609375" lon="19.92369197309017181396484375">
        <ele>1887.5999755859375</ele>
        <time>2026-06-17T10:39:40.000Z</time>
        <extensions>
          <ns3:TrackPointExtension>
            <ns3:atemp>23.0</ns3:atemp>
          </ns3:TrackPointExtension>
        </extensions>
      </trkpt>
      <trkpt lat="42.5100099854171276092529296875" lon="19.923671185970306396484375">
        <ele>1888</ele>
        <time>2026-06-17T10:39:41.000Z</time>
        <extensions>
          <ns3:TrackPointExtension>
            <ns3:atemp>23.0</ns3:atemp>
          </ns3:TrackPointExtension>
        </extensions>
      </trkpt>
      <trkpt lat="42.5100083090364933013916015625" lon="19.92364897392690181732177734375">
        <ele>1888.4000244140625</ele>
        <time>2026-06-17T10:39:42.000Z</time>
        <extensions>
          <ns3:TrackPointExtension>
            <ns3:atemp>23.0</ns3:atemp>
          </ns3:TrackPointExtension>
        </extensions>
      </trkpt>
      <trkpt lat="42.5100059621036052703857421875" lon="19.92362198419868946075439453125">
        <ele>1889</ele>
        <time>2026-06-17T10:39:43.000Z</time>
        <extensions>
          <ns3:TrackPointExtension>
            <ns3:atemp>23.0</ns3:atemp>
          </ns3:TrackPointExtension>
        </extensions>
      </trkpt>
      <trkpt lat="42.51000755466520786285400390625" lon="19.92359935306012630462646484375">
        <ele>1889.5999755859375</ele>
        <time>2026-06-17T10:39:44.000Z</time>
        <extensions>
          <ns3:TrackPointExtension>
            <ns3:atemp>23.0</ns3:atemp>
          </ns3:TrackPointExtension>
        </extensions>
      </trkpt>
      <trkpt lat="42.51000772230327129364013671875" lon="19.9235811643302440643310546875">
        <ele>1890</ele>
        <time>2026-06-17T10:39:45.000Z</time>
        <extensions>
          <ns3:TrackPointExtension>
            <ns3:atemp>23.0</ns3:atemp>
          </ns3:TrackPointExtension>
        </extensions>
      </trkpt>
      <trkpt lat="42.51000654883682727813720703125" lon="19.92356456816196441650390625">
        <ele>1890.4000244140625</ele>
        <time>2026-06-17T10:39:46.000Z</time>
        <extensions>
          <ns3:TrackPointExtension>
            <ns3:atemp>23.0</ns3:atemp>
          </ns3:TrackPointExtension>
        </extensions>
      </trkpt>
      <trkpt lat="42.5100042857229709625244140625" lon="19.92354034446179866790771484375">
        <ele>1890.800048828125</ele>
        <time>2026-06-17T10:39:47.000Z</time>
        <extensions>
          <ns3:TrackPointExtension>
            <ns3:atemp>23.0</ns3:atemp>
          </ns3:TrackPointExtension>
        </extensions>
      </trkpt>
      <trkpt lat="42.5100012682378292083740234375" lon="19.92351670749485492706298828125">
        <ele>1891.199951171875</ele>
        <time>2026-06-17T10:39:48.000Z</time>
        <extensions>
          <ns3:TrackPointExtension>
            <ns3:atemp>23.0</ns3:atemp>
          </ns3:TrackPointExtension>
        </extensions>
      </trkpt>
      <trkpt lat="42.5099985860288143157958984375" lon="19.92349189706146717071533203125">
        <ele>1891.5999755859375</ele>
        <time>2026-06-17T10:39:49.000Z</time>
        <extensions>
          <ns3:TrackPointExtension>
            <ns3:atemp>23.0</ns3:atemp>
          </ns3:TrackPointExtension>
        </extensions>
      </trkpt>
      <trkpt lat="42.50999833457171916961669921875" lon="19.92347060702741146087646484375">
        <ele>1892</ele>
        <time>2026-06-17T10:39:50.000Z</time>
        <extensions>
          <ns3:TrackPointExtension>
            <ns3:atemp>23.0</ns3:atemp>
          </ns3:TrackPointExtension>
        </extensions>
      </trkpt>
      <trkpt lat="42.5099945627152919769287109375" lon="19.9234494008123874664306640625">
        <ele>1892.199951171875</ele>
        <time>2026-06-17T10:39:51.000Z</time>
        <extensions>
          <ns3:TrackPointExtension>
            <ns3:atemp>23.0</ns3:atemp>
          </ns3:TrackPointExtension>
        </extensions>
      </trkpt>
      <trkpt lat="42.50998810864984989166259765625" lon="19.9234257638454437255859375">
        <ele>1892.4000244140625</ele>
        <time>2026-06-17T10:39:52.000Z</time>
        <extensions>
          <ns3:TrackPointExtension>
            <ns3:atemp>23.0</ns3:atemp>
          </ns3:TrackPointExtension>
        </extensions>
      </trkpt>
      <trkpt lat="42.50998140312731266021728515625" lon="19.92340221069753170013427734375">
        <ele>1892.800048828125</ele>
        <time>2026-06-17T10:39:53.000Z</time>
        <extensions>
          <ns3:TrackPointExtension>
            <ns3:atemp>23.0</ns3:atemp>
          </ns3:TrackPointExtension>
        </extensions>
      </trkpt>
      <trkpt lat="42.5099833309650421142578125" lon="19.92337505333125591278076171875">
        <ele>1893</ele>
        <time>2026-06-17T10:39:54.000Z</time>
        <extensions>
          <ns3:TrackPointExtension>
            <ns3:atemp>23.0</ns3:atemp>
          </ns3:TrackPointExtension>
        </extensions>
      </trkpt>
      <trkpt lat="42.5099798105657100677490234375" lon="19.9233548529446125030517578125">
        <ele>1893.4000244140625</ele>
        <time>2026-06-17T10:39:55.000Z</time>
        <extensions>
          <ns3:TrackPointExtension>
            <ns3:atemp>23.0</ns3:atemp>
          </ns3:TrackPointExtension>
        </extensions>
      </trkpt>
      <trkpt lat="42.509977631270885467529296875" lon="19.92333213798701763153076171875">
        <ele>1893.800048828125</ele>
        <time>2026-06-17T10:39:56.000Z</time>
        <extensions>
          <ns3:TrackPointExtension>
            <ns3:atemp>23.0</ns3:atemp>
          </ns3:TrackPointExtension>
        </extensions>
      </trkpt>
      <trkpt lat="42.5099761225283145904541015625" lon="19.92330439388751983642578125">
        <ele>1894</ele>
        <time>2026-06-17T10:39:57.000Z</time>
        <extensions>
          <ns3:TrackPointExtension>
            <ns3:atemp>23.0</ns3:atemp>
          </ns3:TrackPointExtension>
        </extensions>
      </trkpt>
      <trkpt lat="42.50997352413833141326904296875" lon="19.923278577625751495361328125">
        <ele>1894.4000244140625</ele>
        <time>2026-06-17T10:39:58.000Z</time>
        <extensions>
          <ns3:TrackPointExtension>
            <ns3:atemp>23.0</ns3:atemp>
          </ns3:TrackPointExtension>
        </extensions>
      </trkpt>
      <trkpt lat="42.50996681861579418182373046875" lon="19.9232567846775054931640625">
        <ele>1894.5999755859375</ele>
        <time>2026-06-17T10:39:59.000Z</time>
        <extensions>
          <ns3:TrackPointExtension>
            <ns3:atemp>23.0</ns3:atemp>
          </ns3:TrackPointExtension>
        </extensions>
      </trkpt>
      <trkpt lat="42.50996053218841552734375" lon="19.92323474027216434478759765625">
        <ele>1894.5999755859375</ele>
        <time>2026-06-17T10:40:00.000Z</time>
        <extensions>
          <ns3:TrackPointExtension>
            <ns3:atemp>23.0</ns3:atemp>
          </ns3:TrackPointExtension>
        </extensions>
      </trkpt>
      <trkpt lat="42.50995449721813201904296875" lon="19.92321277968585491180419921875">
        <ele>1894.800048828125</ele>
        <time>2026-06-17T10:40:01.000Z</time>
        <extensions>
          <ns3:TrackPointExtension>
            <ns3:atemp>23.0</ns3:atemp>
          </ns3:TrackPointExtension>
        </extensions>
      </trkpt>
      <trkpt lat="42.5099484622478485107421875" lon="19.9231902323663234710693359375">
        <ele>1894.800048828125</ele>
        <time>2026-06-17T10:40:02.000Z</time>
        <extensions>
          <ns3:TrackPointExtension>
            <ns3:atemp>23.0</ns3:atemp>
          </ns3:TrackPointExtension>
        </extensions>
      </trkpt>
      <trkpt lat="42.50995156355202198028564453125" lon="19.92316550575196743011474609375">
        <ele>1895</ele>
        <time>2026-06-17T10:40:03.000Z</time>
        <extensions>
          <ns3:TrackPointExtension>
            <ns3:atemp>23.0</ns3:atemp>
          </ns3:TrackPointExtension>
        </extensions>
      </trkpt>
      <trkpt lat="42.5099556706845760345458984375" lon="19.92314807139337062835693359375">
        <ele>1895.199951171875</ele>
        <time>2026-06-17T10:40:04.000Z</time>
        <extensions>
          <ns3:TrackPointExtension>
            <ns3:atemp>23.0</ns3:atemp>
          </ns3:TrackPointExtension>
        </extensions>
      </trkpt>
      <trkpt lat="42.50994938425719738006591796875" lon="19.9231416173279285430908203125">
        <ele>1895.4000244140625</ele>
        <time>2026-06-17T10:40:05.000Z</time>
        <extensions>
          <ns3:TrackPointExtension>
            <ns3:atemp>23.0</ns3:atemp>
          </ns3:TrackPointExtension>
        </extensions>
      </trkpt>
      <trkpt lat="42.50994787551462650299072265625" lon="19.9231332354247570037841796875">
        <ele>1895.5999755859375</ele>
        <time>2026-06-17T10:40:06.000Z</time>
        <extensions>
          <ns3:TrackPointExtension>
            <ns3:atemp>23.0</ns3:atemp>
          </ns3:TrackPointExtension>
        </extensions>
      </trkpt>
      <trkpt lat="42.50994770787656307220458984375" lon="19.92312870919704437255859375">
        <ele>1895.800048828125</ele>
        <time>2026-06-17T10:40:07.000Z</time>
        <extensions>
          <ns3:TrackPointExtension>
            <ns3:atemp>23.0</ns3:atemp>
          </ns3:TrackPointExtension>
        </extensions>
      </trkpt>
      <trkpt lat="42.5099476240575313568115234375" lon="19.9231285415589809417724609375">
        <ele>1895.800048828125</ele>
        <time>2026-06-17T10:40:08.000Z</time>
        <extensions>
          <ns3:TrackPointExtension>
            <ns3:atemp>23.0</ns3:atemp>
          </ns3:TrackPointExtension>
        </extensions>
      </trkpt>
      <trkpt lat="42.50994754023849964141845703125" lon="19.92312829010188579559326171875">
        <ele>1896</ele>
        <time>2026-06-17T10:40:09.000Z</time>
        <extensions>
          <ns3:TrackPointExtension>
            <ns3:atemp>23.0</ns3:atemp>
          </ns3:TrackPointExtension>
        </extensions>
      </trkpt>
      <trkpt lat="42.5099476240575313568115234375" lon="19.9231285415589809417724609375">
        <ele>1896</ele>
        <time>2026-06-17T10:40:10.000Z</time>
        <extensions>
          <ns3:TrackPointExtension>
            <ns3:atemp>23.0</ns3:atemp>
          </ns3:TrackPointExtension>
        </extensions>
      </trkpt>
      <trkpt lat="42.5099476240575313568115234375" lon="19.9231285415589809417724609375">
        <ele>1896</ele>
        <time>2026-06-17T10:40:11.000Z</time>
        <extensions>
          <ns3:TrackPointExtension>
            <ns3:atemp>23.0</ns3:atemp>
          </ns3:TrackPointExtension>
        </extensions>
      </trkpt>
      <trkpt lat="42.5099472887814044952392578125" lon="19.92312007583677768707275390625">
        <ele>1896</ele>
        <time>2026-06-17T10:40:12.000Z</time>
        <extensions>
          <ns3:TrackPointExtension>
            <ns3:atemp>23.0</ns3:atemp>
          </ns3:TrackPointExtension>
        </extensions>
      </trkpt>
      <trkpt lat="42.509944103658199310302734375" lon="19.9230839498341083526611328125">
        <ele>1896</ele>
        <time>2026-06-17T10:40:13.000Z</time>
        <extensions>
          <ns3:TrackPointExtension>
            <ns3:atemp>23.0</ns3:atemp>
          </ns3:TrackPointExtension>
        </extensions>
      </trkpt>
      <trkpt lat="42.509934045374393463134765625" lon="19.92307548411190509796142578125">
        <ele>1896</ele>
        <time>2026-06-17T10:40:14.000Z</time>
        <extensions>
          <ns3:TrackPointExtension>
            <ns3:atemp>23.0</ns3:atemp>
          </ns3:TrackPointExtension>
        </extensions>
      </trkpt>
      <trkpt lat="42.509934715926647186279296875" lon="19.92307565174996852874755859375">
        <ele>1896</ele>
        <time>2026-06-17T10:40:15.000Z</time>
        <extensions>
          <ns3:TrackPointExtension>
            <ns3:atemp>23.0</ns3:atemp>
          </ns3:TrackPointExtension>
        </extensions>
      </trkpt>
      <trkpt lat="42.5099348835647106170654296875" lon="19.923068694770336151123046875">
        <ele>1896</ele>
        <time>2026-06-17T10:40:16.000Z</time>
        <extensions>
          <ns3:TrackPointExtension>
            <ns3:atemp>23.0</ns3:atemp>
          </ns3:TrackPointExtension>
        </extensions>
      </trkpt>
      <trkpt lat="42.5099365599453449249267578125" lon="19.9230601452291011810302734375">
        <ele>1896</ele>
        <time>2026-06-17T10:40:17.000Z</time>
        <extensions>
          <ns3:TrackPointExtension>
            <ns3:atemp>23.0</ns3:atemp>
          </ns3:TrackPointExtension>
        </extensions>
      </trkpt>
      <trkpt lat="42.50993815250694751739501953125" lon="19.9230621568858623504638671875">
        <ele>1896</ele>
        <time>2026-06-17T10:40:18.000Z</time>
        <extensions>
          <ns3:TrackPointExtension>
            <ns3:atemp>23.0</ns3:atemp>
          </ns3:TrackPointExtension>
        </extensions>
      </trkpt>
      <trkpt lat="42.5099382363259792327880859375" lon="19.92306190542876720428466796875">
        <ele>1896.199951171875</ele>
        <time>2026-06-17T10:40:19.000Z</time>
        <extensions>
          <ns3:TrackPointExtension>
            <ns3:atemp>23.0</ns3:atemp>
          </ns3:TrackPointExtension>
        </extensions>
      </trkpt>
      <trkpt lat="42.5099382363259792327880859375" lon="19.92306190542876720428466796875">
        <ele>1896.199951171875</ele>
        <time>2026-06-17T10:40:20.000Z</time>
        <extensions>
          <ns3:TrackPointExtension>
            <ns3:atemp>23.0</ns3:atemp>
          </ns3:TrackPointExtension>
        </extensions>
      </trkpt>
      <trkpt lat="42.5099382363259792327880859375" lon="19.92306190542876720428466796875">
        <ele>1896.199951171875</ele>
        <time>2026-06-17T10:40:21.000Z</time>
        <extensions>
          <ns3:TrackPointExtension>
            <ns3:atemp>23.0</ns3:atemp>
          </ns3:TrackPointExtension>
        </extensions>
      </trkpt>
      <trkpt lat="42.50993840396404266357421875" lon="19.92306073196232318878173828125">
        <ele>1896.199951171875</ele>
        <time>2026-06-17T10:40:22.000Z</time>
        <extensions>
          <ns3:TrackPointExtension>
            <ns3:atemp>23.0</ns3:atemp>
          </ns3:TrackPointExtension>
        </extensions>
      </trkpt>
      <trkpt lat="42.5099484622478485107421875" lon="19.92303290404379367828369140625">
        <ele>1896.199951171875</ele>
        <time>2026-06-17T10:40:23.000Z</time>
        <extensions>
          <ns3:TrackPointExtension>
            <ns3:atemp>23.0</ns3:atemp>
          </ns3:TrackPointExtension>
        </extensions>
      </trkpt>
      <trkpt lat="42.509950809180736541748046875" lon="19.9230153858661651611328125">
        <ele>1896</ele>
        <time>2026-06-17T10:40:24.000Z</time>
        <extensions>
          <ns3:TrackPointExtension>
            <ns3:atemp>23.0</ns3:atemp>
          </ns3:TrackPointExtension>
        </extensions>
      </trkpt>
      <trkpt lat="42.50995424576103687286376953125" lon="19.922997616231441497802734375">
        <ele>1896</ele>
        <time>2026-06-17T10:40:25.000Z</time>
        <extensions>
          <ns3:TrackPointExtension>
            <ns3:atemp>23.0</ns3:atemp>
          </ns3:TrackPointExtension>
        </extensions>
      </trkpt>
      <trkpt lat="42.50995852053165435791015625" lon="19.92298043332993984222412109375">
        <ele>1896</ele>
        <time>2026-06-17T10:40:26.000Z</time>
        <extensions>
          <ns3:TrackPointExtension>
            <ns3:atemp>23.0</ns3:atemp>
          </ns3:TrackPointExtension>
        </extensions>
      </trkpt>
      <trkpt lat="42.50995793379843235015869140625" lon="19.922963082790374755859375">
        <ele>1895.800048828125</ele>
        <time>2026-06-17T10:40:27.000Z</time>
        <extensions>
          <ns3:TrackPointExtension>
            <ns3:atemp>23.0</ns3:atemp>
          </ns3:TrackPointExtension>
        </extensions>
      </trkpt>
      <trkpt lat="42.5099618732929229736328125" lon="19.92293567396700382232666015625">
        <ele>1895.800048828125</ele>
        <time>2026-06-17T10:40:28.000Z</time>
        <extensions>
          <ns3:TrackPointExtension>
            <ns3:atemp>23.0</ns3:atemp>
          </ns3:TrackPointExtension>
        </extensions>
      </trkpt>
      <trkpt lat="42.5099660642445087432861328125" lon="19.9229075945913791656494140625">
        <ele>1895.5999755859375</ele>
        <time>2026-06-17T10:40:29.000Z</time>
        <extensions>
          <ns3:TrackPointExtension>
            <ns3:atemp>23.0</ns3:atemp>
          </ns3:TrackPointExtension>
        </extensions>
      </trkpt>
      <trkpt lat="42.5099660642445087432861328125" lon="19.92287532426416873931884765625">
        <ele>1895.5999755859375</ele>
        <time>2026-06-17T10:40:30.000Z</time>
        <extensions>
          <ns3:TrackPointExtension>
            <ns3:atemp>23.0</ns3:atemp>
          </ns3:TrackPointExtension>
        </extensions>
      </trkpt>
      <trkpt lat="42.5099643878638744354248046875" lon="19.92284171283245086669921875">
        <ele>1895.5999755859375</ele>
        <time>2026-06-17T10:40:31.000Z</time>
        <extensions>
          <ns3:TrackPointExtension>
            <ns3:atemp>23.0</ns3:atemp>
          </ns3:TrackPointExtension>
        </extensions>
      </trkpt>
      <trkpt lat="42.50996254384517669677734375" lon="19.92281329818069934844970703125">
        <ele>1895.800048828125</ele>
        <time>2026-06-17T10:40:32.000Z</time>
        <extensions>
          <ns3:TrackPointExtension>
            <ns3:atemp>23.0</ns3:atemp>
          </ns3:TrackPointExtension>
        </extensions>
      </trkpt>
      <trkpt lat="42.50995977781713008880615234375" lon="19.92278764955699443817138671875">
        <ele>1896</ele>
        <time>2026-06-17T10:40:33.000Z</time>
        <extensions>
          <ns3:TrackPointExtension>
            <ns3:atemp>23.0</ns3:atemp>
          </ns3:TrackPointExtension>
        </extensions>
      </trkpt>
      <trkpt lat="42.50996078364551067352294921875" lon="19.92275898344814777374267578125">
        <ele>1896.199951171875</ele>
        <time>2026-06-17T10:40:34.000Z</time>
        <extensions>
          <ns3:TrackPointExtension>
            <ns3:atemp>23.0</ns3:atemp>
          </ns3:TrackPointExtension>
        </extensions>
      </trkpt>
      <trkpt lat="42.5099590234458446502685546875" lon="19.92273232899606227874755859375">
        <ele>1896.4000244140625</ele>
        <time>2026-06-17T10:40:35.000Z</time>
        <extensions>
          <ns3:TrackPointExtension>
            <ns3:atemp>23.0</ns3:atemp>
          </ns3:TrackPointExtension>
        </extensions>
      </trkpt>
      <trkpt lat="42.509958185255527496337890625" lon="19.92271003313362598419189453125">
        <ele>1896.5999755859375</ele>
        <time>2026-06-17T10:40:36.000Z</time>
        <extensions>
          <ns3:TrackPointExtension>
            <ns3:atemp>23.0</ns3:atemp>
          </ns3:TrackPointExtension>
        </extensions>
      </trkpt>
      <trkpt lat="42.50995743088424205780029296875" lon="19.92268471978604793548583984375">
        <ele>1896.800048828125</ele>
        <time>2026-06-17T10:40:37.000Z</time>
        <extensions>
          <ns3:TrackPointExtension>
            <ns3:atemp>23.0</ns3:atemp>
          </ns3:TrackPointExtension>
        </extensions>
      </trkpt>
      <trkpt lat="42.509957849979400634765625" lon="19.92265588603913784027099609375">
        <ele>1897.199951171875</ele>
        <time>2026-06-17T10:40:38.000Z</time>
        <extensions>
          <ns3:TrackPointExtension>
            <ns3:atemp>23.0</ns3:atemp>
          </ns3:TrackPointExtension>
        </extensions>
      </trkpt>
      <trkpt lat="42.50995826907455921173095703125" lon="19.92262713611125946044921875">
        <ele>1897.5999755859375</ele>
        <time>2026-06-17T10:40:39.000Z</time>
        <extensions>
          <ns3:TrackPointExtension>
            <ns3:atemp>23.0</ns3:atemp>
          </ns3:TrackPointExtension>
        </extensions>
      </trkpt>
      <trkpt lat="42.50996128655970096588134765625" lon="19.92260391823947429656982421875">
        <ele>1898</ele>
        <time>2026-06-17T10:40:40.000Z</time>
        <extensions>
          <ns3:TrackPointExtension>
            <ns3:atemp>23.0</ns3:atemp>
          </ns3:TrackPointExtension>
        </extensions>
      </trkpt>
      <trkpt lat="42.50996120274066925048828125" lon="19.9225776828825473785400390625">
        <ele>1898.4000244140625</ele>
        <time>2026-06-17T10:40:41.000Z</time>
        <extensions>
          <ns3:TrackPointExtension>
            <ns3:atemp>23.0</ns3:atemp>
          </ns3:TrackPointExtension>
        </extensions>
      </trkpt>
      <trkpt lat="42.509960196912288665771484375" lon="19.922555051743984222412109375">
        <ele>1899</ele>
        <time>2026-06-17T10:40:42.000Z</time>
        <extensions>
          <ns3:TrackPointExtension>
            <ns3:atemp>23.0</ns3:atemp>
          </ns3:TrackPointExtension>
        </extensions>
      </trkpt>
      <trkpt lat="42.50996145419776439666748046875" lon="19.9225327558815479278564453125">
        <ele>1899.199951171875</ele>
        <time>2026-06-17T10:40:43.000Z</time>
        <extensions>
          <ns3:TrackPointExtension>
            <ns3:atemp>23.0</ns3:atemp>
          </ns3:TrackPointExtension>
        </extensions>
      </trkpt>
      <trkpt lat="42.5099617056548595428466796875" lon="19.92250719107687473297119140625">
        <ele>1899.5999755859375</ele>
        <time>2026-06-17T10:40:44.000Z</time>
        <extensions>
          <ns3:TrackPointExtension>
            <ns3:atemp>23.0</ns3:atemp>
          </ns3:TrackPointExtension>
        </extensions>
      </trkpt>
      <trkpt lat="42.5099606998264789581298828125" lon="19.9224884994328022003173828125">
        <ele>1900</ele>
        <time>2026-06-17T10:40:45.000Z</time>
        <extensions>
          <ns3:TrackPointExtension>
            <ns3:atemp>23.0</ns3:atemp>
          </ns3:TrackPointExtension>
        </extensions>
      </trkpt>
      <trkpt lat="42.50995726324617862701416015625" lon="19.9224708974361419677734375">
        <ele>1900.4000244140625</ele>
        <time>2026-06-17T10:40:46.000Z</time>
        <extensions>
          <ns3:TrackPointExtension>
            <ns3:atemp>23.0</ns3:atemp>
          </ns3:TrackPointExtension>
        </extensions>
      </trkpt>
      <trkpt lat="42.50995357520878314971923828125" lon="19.92244466207921504974365234375">
        <ele>1900.5999755859375</ele>
        <time>2026-06-17T10:40:47.000Z</time>
        <extensions>
          <ns3:TrackPointExtension>
            <ns3:atemp>23.0</ns3:atemp>
          </ns3:TrackPointExtension>
        </extensions>
      </trkpt>
      <trkpt lat="42.50995491631329059600830078125" lon="19.9224185943603515625">
        <ele>1900.800048828125</ele>
        <time>2026-06-17T10:40:48.000Z</time>
        <extensions>
          <ns3:TrackPointExtension>
            <ns3:atemp>23.0</ns3:atemp>
          </ns3:TrackPointExtension>
        </extensions>
      </trkpt>
      <trkpt lat="42.50996128655970096588134765625" lon="19.9223905988037586212158203125">
        <ele>1900.800048828125</ele>
        <time>2026-06-17T10:40:49.000Z</time>
        <extensions>
          <ns3:TrackPointExtension>
            <ns3:atemp>23.0</ns3:atemp>
          </ns3:TrackPointExtension>
        </extensions>
      </trkpt>
      <trkpt lat="42.50996916554868221282958984375" lon="19.92236402817070484161376953125">
        <ele>1901</ele>
        <time>2026-06-17T10:40:50.000Z</time>
        <extensions>
          <ns3:TrackPointExtension>
            <ns3:atemp>23.0</ns3:atemp>
          </ns3:TrackPointExtension>
        </extensions>
      </trkpt>
      <trkpt lat="42.50997201539576053619384765625" lon="19.92234709672629833221435546875">
        <ele>1901</ele>
        <time>2026-06-17T10:40:51.000Z</time>
        <extensions>
          <ns3:TrackPointExtension>
            <ns3:atemp>23.0</ns3:atemp>
          </ns3:TrackPointExtension>
        </extensions>
      </trkpt>
      <trkpt lat="42.50997486524283885955810546875" lon="19.92232647724449634552001953125">
        <ele>1901.199951171875</ele>
        <time>2026-06-17T10:40:52.000Z</time>
        <extensions>
          <ns3:TrackPointExtension>
            <ns3:atemp>23.0</ns3:atemp>
          </ns3:TrackPointExtension>
        </extensions>
      </trkpt>
      <trkpt lat="42.50997972674667835235595703125" lon="19.92230099625885486602783203125">
        <ele>1901.199951171875</ele>
        <time>2026-06-17T10:40:53.000Z</time>
        <extensions>
          <ns3:TrackPointExtension>
            <ns3:atemp>23.0</ns3:atemp>
          </ns3:TrackPointExtension>
        </extensions>
      </trkpt>
      <trkpt lat="42.50998492352664470672607421875" lon="19.9222772754728794097900390625">
        <ele>1901.5999755859375</ele>
        <time>2026-06-17T10:40:54.000Z</time>
        <extensions>
          <ns3:TrackPointExtension>
            <ns3:atemp>23.0</ns3:atemp>
          </ns3:TrackPointExtension>
        </extensions>
      </trkpt>
      <trkpt lat="42.509988360106945037841796875" lon="19.92224902845919132232666015625">
        <ele>1901.800048828125</ele>
        <time>2026-06-17T10:40:55.000Z</time>
        <extensions>
          <ns3:TrackPointExtension>
            <ns3:atemp>23.0</ns3:atemp>
          </ns3:TrackPointExtension>
        </extensions>
      </trkpt>
      <trkpt lat="42.509993053972721099853515625" lon="19.9222147464752197265625">
        <ele>1902.199951171875</ele>
        <time>2026-06-17T10:40:56.000Z</time>
        <extensions>
          <ns3:TrackPointExtension>
            <ns3:atemp>23.0</ns3:atemp>
          </ns3:TrackPointExtension>
        </extensions>
      </trkpt>
      <trkpt lat="42.50999632291495800018310546875" lon="19.9221840687096118927001953125">
        <ele>1902.4000244140625</ele>
        <time>2026-06-17T10:40:57.000Z</time>
        <extensions>
          <ns3:TrackPointExtension>
            <ns3:atemp>23.0</ns3:atemp>
          </ns3:TrackPointExtension>
        </extensions>
      </trkpt>
      <trkpt lat="42.50999950803816318511962890625" lon="19.92215313948690891265869140625">
        <ele>1902.800048828125</ele>
        <time>2026-06-17T10:40:58.000Z</time>
        <extensions>
          <ns3:TrackPointExtension>
            <ns3:atemp>23.0</ns3:atemp>
          </ns3:TrackPointExtension>
        </extensions>
      </trkpt>
      <trkpt lat="42.51000143587589263916015625" lon="19.9221230484545230865478515625">
        <ele>1903</ele>
        <time>2026-06-17T10:40:59.000Z</time>
        <extensions>
          <ns3:TrackPointExtension>
            <ns3:atemp>23.0</ns3:atemp>
          </ns3:TrackPointExtension>
        </extensions>
      </trkpt>
      <trkpt lat="42.51000202260911464691162109375" lon="19.92209379561245441436767578125">
        <ele>1903.4000244140625</ele>
        <time>2026-06-17T10:41:00.000Z</time>
        <extensions>
          <ns3:TrackPointExtension>
            <ns3:atemp>23.0</ns3:atemp>
          </ns3:TrackPointExtension>
        </extensions>
      </trkpt>
      <trkpt lat="42.5099959038197994232177734375" lon="19.92206898517906665802001953125">
        <ele>1903.5999755859375</ele>
        <time>2026-06-17T10:41:01.000Z</time>
        <extensions>
          <ns3:TrackPointExtension>
            <ns3:atemp>23.0</ns3:atemp>
          </ns3:TrackPointExtension>
        </extensions>
      </trkpt>
      <trkpt lat="42.50999271869659423828125" lon="19.9220385588705539703369140625">
        <ele>1903.800048828125</ele>
        <time>2026-06-17T10:41:02.000Z</time>
        <extensions>
          <ns3:TrackPointExtension>
            <ns3:atemp>23.0</ns3:atemp>
          </ns3:TrackPointExtension>
        </extensions>
      </trkpt>
      <trkpt lat="42.50998936593532562255859375" lon="19.922011904418468475341796875">
        <ele>1904</ele>
        <time>2026-06-17T10:41:03.000Z</time>
        <extensions>
          <ns3:TrackPointExtension>
            <ns3:atemp>23.0</ns3:atemp>
          </ns3:TrackPointExtension>
        </extensions>
      </trkpt>
      <trkpt lat="42.5099814869463443756103515625" lon="19.92198935709893703460693359375">
        <ele>1904.199951171875</ele>
        <time>2026-06-17T10:41:04.000Z</time>
        <extensions>
          <ns3:TrackPointExtension>
            <ns3:atemp>23.0</ns3:atemp>
          </ns3:TrackPointExtension>
        </extensions>
      </trkpt>
      <trkpt lat="42.5099734403192996978759765625" lon="19.921967983245849609375">
        <ele>1904.4000244140625</ele>
        <time>2026-06-17T10:41:05.000Z</time>
        <extensions>
          <ns3:TrackPointExtension>
            <ns3:atemp>23.0</ns3:atemp>
          </ns3:TrackPointExtension>
        </extensions>
      </trkpt>
      <trkpt lat="42.5099650584161281585693359375" lon="19.9219487048685550689697265625">
        <ele>1904.5999755859375</ele>
        <time>2026-06-17T10:41:06.000Z</time>
        <extensions>
          <ns3:TrackPointExtension>
            <ns3:atemp>23.0</ns3:atemp>
          </ns3:TrackPointExtension>
        </extensions>
      </trkpt>
      <trkpt lat="42.5099570117890834808349609375" lon="19.921926744282245635986328125">
        <ele>1904.800048828125</ele>
        <time>2026-06-17T10:41:07.000Z</time>
        <extensions>
          <ns3:TrackPointExtension>
            <ns3:atemp>23.0</ns3:atemp>
          </ns3:TrackPointExtension>
        </extensions>
      </trkpt>
      <trkpt lat="42.50994980335235595703125" lon="19.92190562188625335693359375">
        <ele>1905</ele>
        <time>2026-06-17T10:41:08.000Z</time>
        <extensions>
          <ns3:TrackPointExtension>
            <ns3:atemp>23.0</ns3:atemp>
          </ns3:TrackPointExtension>
        </extensions>
      </trkpt>
      <trkpt lat="42.5099422596395015716552734375" lon="19.92188005708158016204833984375">
        <ele>1905.199951171875</ele>
        <time>2026-06-17T10:41:09.000Z</time>
        <extensions>
          <ns3:TrackPointExtension>
            <ns3:atemp>23.0</ns3:atemp>
          </ns3:TrackPointExtension>
        </extensions>
      </trkpt>
      <trkpt lat="42.50993563793599605560302734375" lon="19.92185533046722412109375">
        <ele>1905.199951171875</ele>
        <time>2026-06-17T10:41:10.000Z</time>
        <extensions>
          <ns3:TrackPointExtension>
            <ns3:atemp>23.0</ns3:atemp>
          </ns3:TrackPointExtension>
        </extensions>
      </trkpt>
      <trkpt lat="42.50993329100310802459716796875" lon="19.92182758636772632598876953125">
        <ele>1905.4000244140625</ele>
        <time>2026-06-17T10:41:11.000Z</time>
        <extensions>
          <ns3:TrackPointExtension>
            <ns3:atemp>23.0</ns3:atemp>
          </ns3:TrackPointExtension>
        </extensions>
      </trkpt>
      <trkpt lat="42.5099298544228076934814453125" lon="19.9218021892011165618896484375">
        <ele>1905.5999755859375</ele>
        <time>2026-06-17T10:41:12.000Z</time>
        <extensions>
          <ns3:TrackPointExtension>
            <ns3:atemp>23.0</ns3:atemp>
          </ns3:TrackPointExtension>
        </extensions>
      </trkpt>
      <trkpt lat="42.50992407090961933135986328125" lon="19.92177528329193592071533203125">
        <ele>1905.5999755859375</ele>
        <time>2026-06-17T10:41:13.000Z</time>
        <extensions>
          <ns3:TrackPointExtension>
            <ns3:atemp>23.0</ns3:atemp>
          </ns3:TrackPointExtension>
        </extensions>
      </trkpt>
      <trkpt lat="42.50991602428257465362548828125" lon="19.92174913175404071807861328125">
        <ele>1905.800048828125</ele>
        <time>2026-06-17T10:41:14.000Z</time>
        <extensions>
          <ns3:TrackPointExtension>
            <ns3:atemp>23.0</ns3:atemp>
          </ns3:TrackPointExtension>
        </extensions>
      </trkpt>
      <trkpt lat="42.50991283915936946868896484375" lon="19.9217180348932743072509765625">
        <ele>1906</ele>
        <time>2026-06-17T10:41:15.000Z</time>
        <extensions>
          <ns3:TrackPointExtension>
            <ns3:atemp>23.0</ns3:atemp>
          </ns3:TrackPointExtension>
        </extensions>
      </trkpt>
      <trkpt lat="42.509907223284244537353515625" lon="19.9216876924037933349609375">
        <ele>1906</ele>
        <time>2026-06-17T10:41:16.000Z</time>
        <extensions>
          <ns3:TrackPointExtension>
            <ns3:atemp>23.0</ns3:atemp>
          </ns3:TrackPointExtension>
        </extensions>
      </trkpt>
      <trkpt lat="42.509905211627483367919921875" lon="19.92166497744619846343994140625">
        <ele>1906.199951171875</ele>
        <time>2026-06-17T10:41:17.000Z</time>
        <extensions>
          <ns3:TrackPointExtension>
            <ns3:atemp>23.0</ns3:atemp>
          </ns3:TrackPointExtension>
        </extensions>
      </trkpt>
      <trkpt lat="42.50990211032330989837646484375" lon="19.92164033465087413787841796875">
        <ele>1906.4000244140625</ele>
        <time>2026-06-17T10:41:18.000Z</time>
        <extensions>
          <ns3:TrackPointExtension>
            <ns3:atemp>23.0</ns3:atemp>
          </ns3:TrackPointExtension>
        </extensions>
      </trkpt>
      <trkpt lat="42.5098975002765655517578125" lon="19.92161569185554981231689453125">
        <ele>1906.800048828125</ele>
        <time>2026-06-17T10:41:19.000Z</time>
        <extensions>
          <ns3:TrackPointExtension>
            <ns3:atemp>23.0</ns3:atemp>
          </ns3:TrackPointExtension>
        </extensions>
      </trkpt>
      <trkpt lat="42.50988475978374481201171875" lon="19.9215876124799251556396484375">
        <ele>1907</ele>
        <time>2026-06-17T10:41:20.000Z</time>
        <extensions>
          <ns3:TrackPointExtension>
            <ns3:atemp>23.0</ns3:atemp>
          </ns3:TrackPointExtension>
        </extensions>
      </trkpt>
      <trkpt lat="42.50987109728157520294189453125" lon="19.9215638078749179840087890625">
        <ele>1907.4000244140625</ele>
        <time>2026-06-17T10:41:21.000Z</time>
        <extensions>
          <ns3:TrackPointExtension>
            <ns3:atemp>23.0</ns3:atemp>
          </ns3:TrackPointExtension>
        </extensions>
      </trkpt>
      <trkpt lat="42.50985332764685153961181640625" lon="19.921545870602130889892578125">
        <ele>1907.800048828125</ele>
        <time>2026-06-17T10:41:22.000Z</time>
        <extensions>
          <ns3:TrackPointExtension>
            <ns3:atemp>23.0</ns3:atemp>
          </ns3:TrackPointExtension>
        </extensions>
      </trkpt>
      <trkpt lat="42.50983103178441524505615234375" lon="19.92154059000313282012939453125">
        <ele>1908.199951171875</ele>
        <time>2026-06-17T10:41:23.000Z</time>
        <extensions>
          <ns3:TrackPointExtension>
            <ns3:atemp>23.0</ns3:atemp>
          </ns3:TrackPointExtension>
        </extensions>
      </trkpt>
      <trkpt lat="42.50981426797807216644287109375" lon="19.92154712788760662078857421875">
        <ele>1908.5999755859375</ele>
        <time>2026-06-17T10:41:24.000Z</time>
        <extensions>
          <ns3:TrackPointExtension>
            <ns3:atemp>23.0</ns3:atemp>
          </ns3:TrackPointExtension>
        </extensions>
      </trkpt>
      <trkpt lat="42.5097987614572048187255859375" lon="19.921554587781429290771484375">
        <ele>1909</ele>
        <time>2026-06-17T10:41:25.000Z</time>
        <extensions>
          <ns3:TrackPointExtension>
            <ns3:atemp>23.0</ns3:atemp>
          </ns3:TrackPointExtension>
        </extensions>
      </trkpt>
      <trkpt lat="42.5097848474979400634765625" lon="19.9215614609420299530029296875">
        <ele>1909.5999755859375</ele>
        <time>2026-06-17T10:41:26.000Z</time>
        <extensions>
          <ns3:TrackPointExtension>
            <ns3:atemp>23.0</ns3:atemp>
          </ns3:TrackPointExtension>
        </extensions>
      </trkpt>
      <trkpt lat="42.50977881252765655517578125" lon="19.921565987169742584228515625">
        <ele>1910</ele>
        <time>2026-06-17T10:41:27.000Z</time>
        <extensions>
          <ns3:TrackPointExtension>
            <ns3:atemp>23.0</ns3:atemp>
          </ns3:TrackPointExtension>
        </extensions>
      </trkpt>
      <trkpt lat="42.509772777557373046875" lon="19.92156925611197948455810546875">
        <ele>1910.4000244140625</ele>
        <time>2026-06-17T10:41:28.000Z</time>
        <extensions>
          <ns3:TrackPointExtension>
            <ns3:atemp>23.0</ns3:atemp>
          </ns3:TrackPointExtension>
        </extensions>
      </trkpt>
      <trkpt lat="42.50976682640612125396728515625" lon="19.92157168686389923095703125">
        <ele>1910.5999755859375</ele>
        <time>2026-06-17T10:41:29.000Z</time>
        <extensions>
          <ns3:TrackPointExtension>
            <ns3:atemp>23.0</ns3:atemp>
          </ns3:TrackPointExtension>
        </extensions>
      </trkpt>
      <trkpt lat="42.50977118499577045440673828125" lon="19.9215721897780895233154296875">
        <ele>1910.800048828125</ele>
        <time>2026-06-17T10:41:30.000Z</time>
        <extensions>
          <ns3:TrackPointExtension>
            <ns3:atemp>23.0</ns3:atemp>
          </ns3:TrackPointExtension>
        </extensions>
      </trkpt>
      <trkpt lat="42.5097645632922649383544921875" lon="19.9215671606361865997314453125">
        <ele>1911.199951171875</ele>
        <time>2026-06-17T10:41:31.000Z</time>
        <extensions>
          <ns3:TrackPointExtension>
            <ns3:atemp>23.0</ns3:atemp>
          </ns3:TrackPointExtension>
        </extensions>
      </trkpt>
      <trkpt lat="42.50976028852164745330810546875" lon="19.92156489752233028411865234375">
        <ele>1911.4000244140625</ele>
        <time>2026-06-17T10:41:32.000Z</time>
        <extensions>
          <ns3:TrackPointExtension>
            <ns3:atemp>23.0</ns3:atemp>
          </ns3:TrackPointExtension>
        </extensions>
      </trkpt>
      <trkpt lat="42.5097602047026157379150390625" lon="19.921559952199459075927734375">
        <ele>1911.4000244140625</ele>
        <time>2026-06-17T10:41:33.000Z</time>
        <extensions>
          <ns3:TrackPointExtension>
            <ns3:atemp>23.0</ns3:atemp>
          </ns3:TrackPointExtension>
        </extensions>
      </trkpt>
      <trkpt lat="42.50976012088358402252197265625" lon="19.9215597845613956451416015625">
        <ele>1911.4000244140625</ele>
        <time>2026-06-17T10:41:34.000Z</time>
        <extensions>
          <ns3:TrackPointExtension>
            <ns3:atemp>23.0</ns3:atemp>
          </ns3:TrackPointExtension>
        </extensions>
      </trkpt>
      <trkpt lat="42.50976012088358402252197265625" lon="19.9215597845613956451416015625">
        <ele>1911.4000244140625</ele>
        <time>2026-06-17T10:41:35.000Z</time>
        <extensions>
          <ns3:TrackPointExtension>
            <ns3:atemp>23.0</ns3:atemp>
          </ns3:TrackPointExtension>
        </extensions>
      </trkpt>
      <trkpt lat="42.50976012088358402252197265625" lon="19.9215597845613956451416015625">
        <ele>1911.4000244140625</ele>
        <time>2026-06-17T10:41:36.000Z</time>
        <extensions>
          <ns3:TrackPointExtension>
            <ns3:atemp>23.0</ns3:atemp>
          </ns3:TrackPointExtension>
        </extensions>
      </trkpt>
      <trkpt lat="42.509759701788425445556640625" lon="19.92155903019011020660400390625">
        <ele>1911.4000244140625</ele>
        <time>2026-06-17T10:41:37.000Z</time>
        <extensions>
          <ns3:TrackPointExtension>
            <ns3:atemp>23.0</ns3:atemp>
          </ns3:TrackPointExtension>
        </extensions>
      </trkpt>
      <trkpt lat="42.50975743867456912994384765625" lon="19.9215359799563884735107421875">
        <ele>1911.4000244140625</ele>
        <time>2026-06-17T10:41:38.000Z</time>
        <extensions>
          <ns3:TrackPointExtension>
            <ns3:atemp>23.0</ns3:atemp>
          </ns3:TrackPointExtension>
        </extensions>
      </trkpt>
      <trkpt lat="42.509759031236171722412109375" lon="19.9215218983590602874755859375">
        <ele>1911.5999755859375</ele>
        <time>2026-06-17T10:41:39.000Z</time>
        <extensions>
          <ns3:TrackPointExtension>
            <ns3:atemp>23.0</ns3:atemp>
          </ns3:TrackPointExtension>
        </extensions>
      </trkpt>
      <trkpt lat="42.509755007922649383544921875" lon="19.921502284705638885498046875">
        <ele>1911.5999755859375</ele>
        <time>2026-06-17T10:41:40.000Z</time>
        <extensions>
          <ns3:TrackPointExtension>
            <ns3:atemp>23.0</ns3:atemp>
          </ns3:TrackPointExtension>
        </extensions>
      </trkpt>
      <trkpt lat="42.50975475646555423736572265625" lon="19.92147806100547313690185546875">
        <ele>1911.800048828125</ele>
        <time>2026-06-17T10:41:41.000Z</time>
        <extensions>
          <ns3:TrackPointExtension>
            <ns3:atemp>23.0</ns3:atemp>
          </ns3:TrackPointExtension>
        </extensions>
      </trkpt>
      <trkpt lat="42.509755007922649383544921875" lon="19.9214501492679119110107421875">
        <ele>1912</ele>
        <time>2026-06-17T10:41:42.000Z</time>
        <extensions>
          <ns3:TrackPointExtension>
            <ns3:atemp>23.0</ns3:atemp>
          </ns3:TrackPointExtension>
        </extensions>
      </trkpt>
      <trkpt lat="42.50975509174168109893798828125" lon="19.92142123170197010040283203125">
        <ele>1912.199951171875</ele>
        <time>2026-06-17T10:41:43.000Z</time>
        <extensions>
          <ns3:TrackPointExtension>
            <ns3:atemp>23.0</ns3:atemp>
          </ns3:TrackPointExtension>
        </extensions>
      </trkpt>
      <trkpt lat="42.50974955968558788299560546875" lon="19.9213908053934574127197265625">
        <ele>1912.199951171875</ele>
        <time>2026-06-17T10:41:44.000Z</time>
        <extensions>
          <ns3:TrackPointExtension>
            <ns3:atemp>23.0</ns3:atemp>
          </ns3:TrackPointExtension>
        </extensions>
      </trkpt>
      <trkpt lat="42.5097474642097949981689453125" lon="19.9213577806949615478515625">
        <ele>1912</ele>
        <time>2026-06-17T10:41:45.000Z</time>
        <extensions>
          <ns3:TrackPointExtension>
            <ns3:atemp>23.0</ns3:atemp>
          </ns3:TrackPointExtension>
        </extensions>
      </trkpt>
      <trkpt lat="42.5097431056201457977294921875" lon="19.92131914012134075164794921875">
        <ele>1911.800048828125</ele>
        <time>2026-06-17T10:41:46.000Z</time>
        <extensions>
          <ns3:TrackPointExtension>
            <ns3:atemp>23.0</ns3:atemp>
          </ns3:TrackPointExtension>
        </extensions>
      </trkpt>
      <trkpt lat="42.5097320415079593658447265625" lon="19.92128058336675167083740234375">
        <ele>1911.5999755859375</ele>
        <time>2026-06-17T10:41:47.000Z</time>
        <extensions>
          <ns3:TrackPointExtension>
            <ns3:atemp>23.0</ns3:atemp>
          </ns3:TrackPointExtension>
        </extensions>
      </trkpt>
      <trkpt lat="42.50971904955804347991943359375" lon="19.92123699747025966644287109375">
        <ele>1911.4000244140625</ele>
        <time>2026-06-17T10:41:48.000Z</time>
        <extensions>
          <ns3:TrackPointExtension>
            <ns3:atemp>23.0</ns3:atemp>
          </ns3:TrackPointExtension>
        </extensions>
      </trkpt>
      <trkpt lat="42.50971301458775997161865234375" lon="19.92119374684989452362060546875">
        <ele>1911.4000244140625</ele>
        <time>2026-06-17T10:41:49.000Z</time>
        <extensions>
          <ns3:TrackPointExtension>
            <ns3:atemp>23.0</ns3:atemp>
          </ns3:TrackPointExtension>
        </extensions>
      </trkpt>
      <trkpt lat="42.509704716503620147705078125" lon="19.921158961951732635498046875">
        <ele>1911.199951171875</ele>
        <time>2026-06-17T10:41:50.000Z</time>
        <extensions>
          <ns3:TrackPointExtension>
            <ns3:atemp>23.0</ns3:atemp>
          </ns3:TrackPointExtension>
        </extensions>
      </trkpt>
      <trkpt lat="42.50969172455370426177978515625" lon="19.92113021202385425567626953125">
        <ele>1911.4000244140625</ele>
        <time>2026-06-17T10:41:51.000Z</time>
        <extensions>
          <ns3:TrackPointExtension>
            <ns3:atemp>23.0</ns3:atemp>
          </ns3:TrackPointExtension>
        </extensions>
      </trkpt>
      <trkpt lat="42.50967764295637607574462890625" lon="19.9210991151630878448486328125">
        <ele>1911.199951171875</ele>
        <time>2026-06-17T10:41:52.000Z</time>
        <extensions>
          <ns3:TrackPointExtension>
            <ns3:atemp>23.0</ns3:atemp>
          </ns3:TrackPointExtension>
        </extensions>
      </trkpt>
      <trkpt lat="42.50966389663517475128173828125" lon="19.92106952704489231109619140625">
        <ele>1911.199951171875</ele>
        <time>2026-06-17T10:41:53.000Z</time>
        <extensions>
          <ns3:TrackPointExtension>
            <ns3:atemp>23.0</ns3:atemp>
          </ns3:TrackPointExtension>
        </extensions>
      </trkpt>
      <trkpt lat="42.5096465460956096649169921875" lon="19.92103549651801586151123046875">
        <ele>1911.199951171875</ele>
        <time>2026-06-17T10:41:54.000Z</time>
        <extensions>
          <ns3:TrackPointExtension>
            <ns3:atemp>23.0</ns3:atemp>
          </ns3:TrackPointExtension>
        </extensions>
      </trkpt>
      <trkpt lat="42.50963187776505947113037109375" lon="19.92099878378212451934814453125">
        <ele>1911.4000244140625</ele>
        <time>2026-06-17T10:41:55.000Z</time>
        <extensions>
          <ns3:TrackPointExtension>
            <ns3:atemp>23.0</ns3:atemp>
          </ns3:TrackPointExtension>
        </extensions>
      </trkpt>
      <trkpt lat="42.50961787998676300048828125" lon="19.920960478484630584716796875">
        <ele>1911.4000244140625</ele>
        <time>2026-06-17T10:41:56.000Z</time>
        <extensions>
          <ns3:TrackPointExtension>
            <ns3:atemp>23.0</ns3:atemp>
          </ns3:TrackPointExtension>
        </extensions>
      </trkpt>
      <trkpt lat="42.50961025245487689971923828125" lon="19.92092787288129329681396484375">
        <ele>1911.4000244140625</ele>
        <time>2026-06-17T10:41:57.000Z</time>
        <extensions>
          <ns3:TrackPointExtension>
            <ns3:atemp>23.0</ns3:atemp>
          </ns3:TrackPointExtension>
        </extensions>
      </trkpt>
      <trkpt lat="42.50960539095103740692138671875" lon="19.9208964407444000244140625">
        <ele>1911.5999755859375</ele>
        <time>2026-06-17T10:41:58.000Z</time>
        <extensions>
          <ns3:TrackPointExtension>
            <ns3:atemp>23.0</ns3:atemp>
          </ns3:TrackPointExtension>
        </extensions>
      </trkpt>
      <trkpt lat="42.50959650613367557525634765625" lon="19.9208687804639339447021484375">
        <ele>1911.5999755859375</ele>
        <time>2026-06-17T10:41:59.000Z</time>
        <extensions>
          <ns3:TrackPointExtension>
            <ns3:atemp>23.0</ns3:atemp>
          </ns3:TrackPointExtension>
        </extensions>
      </trkpt>
      <trkpt lat="42.50958812423050403594970703125" lon="19.9208401143550872802734375">
        <ele>1911.5999755859375</ele>
        <time>2026-06-17T10:42:00.000Z</time>
        <extensions>
          <ns3:TrackPointExtension>
            <ns3:atemp>23.0</ns3:atemp>
          </ns3:TrackPointExtension>
        </extensions>
      </trkpt>
      <trkpt lat="42.5095783174037933349609375" lon="19.92080390453338623046875">
        <ele>1911.5999755859375</ele>
        <time>2026-06-17T10:42:01.000Z</time>
        <extensions>
          <ns3:TrackPointExtension>
            <ns3:atemp>23.0</ns3:atemp>
          </ns3:TrackPointExtension>
        </extensions>
      </trkpt>
      <trkpt lat="42.50956448726356029510498046875" lon="19.92076358757913112640380859375">
        <ele>1911.5999755859375</ele>
        <time>2026-06-17T10:42:02.000Z</time>
        <extensions>
          <ns3:TrackPointExtension>
            <ns3:atemp>23.0</ns3:atemp>
          </ns3:TrackPointExtension>
        </extensions>
      </trkpt>
      <trkpt lat="42.50954722054302692413330078125" lon="19.9207266233861446380615234375">
        <ele>1911.5999755859375</ele>
        <time>2026-06-17T10:42:03.000Z</time>
        <extensions>
          <ns3:TrackPointExtension>
            <ns3:atemp>23.0</ns3:atemp>
          </ns3:TrackPointExtension>
        </extensions>
      </trkpt>
      <trkpt lat="42.50952626578509807586669921875" lon="19.9206994660198688507080078125">
        <ele>1911.800048828125</ele>
        <time>2026-06-17T10:42:04.000Z</time>
        <extensions>
          <ns3:TrackPointExtension>
            <ns3:atemp>23.0</ns3:atemp>
          </ns3:TrackPointExtension>
        </extensions>
      </trkpt>
      <trkpt lat="42.50950950197875499725341796875" lon="19.9206820316612720489501953125">
        <ele>1912</ele>
        <time>2026-06-17T10:42:05.000Z</time>
        <extensions>
          <ns3:TrackPointExtension>
            <ns3:atemp>23.0</ns3:atemp>
          </ns3:TrackPointExtension>
        </extensions>
      </trkpt>
      <trkpt lat="42.50949583947658538818359375" lon="19.92065646685659885406494140625">
        <ele>1912.199951171875</ele>
        <time>2026-06-17T10:42:06.000Z</time>
        <extensions>
          <ns3:TrackPointExtension>
            <ns3:atemp>23.0</ns3:atemp>
          </ns3:TrackPointExtension>
        </extensions>
      </trkpt>
      <trkpt lat="42.50948569737374782562255859375" lon="19.92062754929065704345703125">
        <ele>1912.4000244140625</ele>
        <time>2026-06-17T10:42:07.000Z</time>
        <extensions>
          <ns3:TrackPointExtension>
            <ns3:atemp>23.0</ns3:atemp>
          </ns3:TrackPointExtension>
        </extensions>
      </trkpt>
      <trkpt lat="42.5094742141664028167724609375" lon="19.92059343494474887847900390625">
        <ele>1912.5999755859375</ele>
        <time>2026-06-17T10:42:08.000Z</time>
        <extensions>
          <ns3:TrackPointExtension>
            <ns3:atemp>23.0</ns3:atemp>
          </ns3:TrackPointExtension>
        </extensions>
      </trkpt>
      <trkpt lat="42.50946155749261379241943359375" lon="19.9205673672258853912353515625">
        <ele>1912.5999755859375</ele>
        <time>2026-06-17T10:42:09.000Z</time>
        <extensions>
          <ns3:TrackPointExtension>
            <ns3:atemp>23.0</ns3:atemp>
          </ns3:TrackPointExtension>
        </extensions>
      </trkpt>
      <trkpt lat="42.50944563187658786773681640625" lon="19.92054616101086139678955078125">
        <ele>1912.5999755859375</ele>
        <time>2026-06-17T10:42:10.000Z</time>
        <extensions>
          <ns3:TrackPointExtension>
            <ns3:atemp>23.0</ns3:atemp>
          </ns3:TrackPointExtension>
        </extensions>
      </trkpt>
      <trkpt lat="42.50942953862249851226806640625" lon="19.9205204285681247711181640625">
        <ele>1912.5999755859375</ele>
        <time>2026-06-17T10:42:11.000Z</time>
        <extensions>
          <ns3:TrackPointExtension>
            <ns3:atemp>23.0</ns3:atemp>
          </ns3:TrackPointExtension>
        </extensions>
      </trkpt>
      <trkpt lat="42.50941327773034572601318359375" lon="19.920495450496673583984375">
        <ele>1912.5999755859375</ele>
        <time>2026-06-17T10:42:12.000Z</time>
        <extensions>
          <ns3:TrackPointExtension>
            <ns3:atemp>23.0</ns3:atemp>
          </ns3:TrackPointExtension>
        </extensions>
      </trkpt>
      <trkpt lat="42.50940020196139812469482421875" lon="19.92047508247196674346923828125">
        <ele>1912.800048828125</ele>
        <time>2026-06-17T10:42:13.000Z</time>
        <extensions>
          <ns3:TrackPointExtension>
            <ns3:atemp>23.0</ns3:atemp>
          </ns3:TrackPointExtension>
        </extensions>
      </trkpt>
      <trkpt lat="42.50938729383051395416259765625" lon="19.92045865394175052642822265625">
        <ele>1912.800048828125</ele>
        <time>2026-06-17T10:42:14.000Z</time>
        <extensions>
          <ns3:TrackPointExtension>
            <ns3:atemp>23.0</ns3:atemp>
          </ns3:TrackPointExtension>
        </extensions>
      </trkpt>
      <trkpt lat="42.509374134242534637451171875" lon="19.920442812144756317138671875">
        <ele>1913</ele>
        <time>2026-06-17T10:42:15.000Z</time>
        <extensions>
          <ns3:TrackPointExtension>
            <ns3:atemp>23.0</ns3:atemp>
          </ns3:TrackPointExtension>
        </extensions>
      </trkpt>
      <trkpt lat="42.50935862772166728973388671875" lon="19.920434094965457916259765625">
        <ele>1913.199951171875</ele>
        <time>2026-06-17T10:42:16.000Z</time>
        <extensions>
          <ns3:TrackPointExtension>
            <ns3:atemp>23.0</ns3:atemp>
          </ns3:TrackPointExtension>
        </extensions>
      </trkpt>
      <trkpt lat="42.5093447975814342498779296875" lon="19.92042864672839641571044921875">
        <ele>1913.4000244140625</ele>
        <time>2026-06-17T10:42:17.000Z</time>
        <extensions>
          <ns3:TrackPointExtension>
            <ns3:atemp>23.0</ns3:atemp>
          </ns3:TrackPointExtension>
        </extensions>
      </trkpt>
      <trkpt lat="42.5093273632228374481201171875" lon="19.92042093537747859954833984375">
        <ele>1913.5999755859375</ele>
        <time>2026-06-17T10:42:18.000Z</time>
        <extensions>
          <ns3:TrackPointExtension>
            <ns3:atemp>23.0</ns3:atemp>
          </ns3:TrackPointExtension>
        </extensions>
      </trkpt>
      <trkpt lat="42.50931437127292156219482421875" lon="19.92041699588298797607421875">
        <ele>1914</ele>
        <time>2026-06-17T10:42:19.000Z</time>
        <extensions>
          <ns3:TrackPointExtension>
            <ns3:atemp>23.0</ns3:atemp>
          </ns3:TrackPointExtension>
        </extensions>
      </trkpt>
      <trkpt lat="42.50929811038076877593994140625" lon="19.9204124696552753448486328125">
        <ele>1914.199951171875</ele>
        <time>2026-06-17T10:42:20.000Z</time>
        <extensions>
          <ns3:TrackPointExtension>
            <ns3:atemp>23.0</ns3:atemp>
          </ns3:TrackPointExtension>
        </extensions>
      </trkpt>
      <trkpt lat="42.50928553752601146697998046875" lon="19.92040148936212062835693359375">
        <ele>1914.5999755859375</ele>
        <time>2026-06-17T10:42:21.000Z</time>
        <extensions>
          <ns3:TrackPointExtension>
            <ns3:atemp>23.0</ns3:atemp>
          </ns3:TrackPointExtension>
        </extensions>
      </trkpt>
      <trkpt lat="42.50927413813769817352294921875" lon="19.9203868210315704345703125">
        <ele>1915</ele>
        <time>2026-06-17T10:42:22.000Z</time>
        <extensions>
          <ns3:TrackPointExtension>
            <ns3:atemp>23.0</ns3:atemp>
          </ns3:TrackPointExtension>
        </extensions>
      </trkpt>
      <trkpt lat="42.5092616491019725799560546875" lon="19.92037181742489337921142578125">
        <ele>1915.4000244140625</ele>
        <time>2026-06-17T10:42:23.000Z</time>
        <extensions>
          <ns3:TrackPointExtension>
            <ns3:atemp>23.0</ns3:atemp>
          </ns3:TrackPointExtension>
        </extensions>
      </trkpt>
      <trkpt lat="42.509255446493625640869140625" lon="19.92035689763724803924560546875">
        <ele>1915.800048828125</ele>
        <time>2026-06-17T10:42:24.000Z</time>
        <extensions>
          <ns3:TrackPointExtension>
            <ns3:atemp>23.0</ns3:atemp>
          </ns3:TrackPointExtension>
        </extensions>
      </trkpt>
      <trkpt lat="42.50925083644688129425048828125" lon="19.92034348659217357635498046875">
        <ele>1916</ele>
        <time>2026-06-17T10:42:25.000Z</time>
        <extensions>
          <ns3:TrackPointExtension>
            <ns3:atemp>23.0</ns3:atemp>
          </ns3:TrackPointExtension>
        </extensions>
      </trkpt>
      <trkpt lat="42.509245388209819793701171875" lon="19.9203336797654628753662109375">
        <ele>1916.199951171875</ele>
        <time>2026-06-17T10:42:26.000Z</time>
        <extensions>
          <ns3:TrackPointExtension>
            <ns3:atemp>23.0</ns3:atemp>
          </ns3:TrackPointExtension>
        </extensions>
      </trkpt>
      <trkpt lat="42.50923759303987026214599609375" lon="19.9203219451010227203369140625">
        <ele>1916.199951171875</ele>
        <time>2026-06-17T10:42:27.000Z</time>
        <extensions>
          <ns3:TrackPointExtension>
            <ns3:atemp>23.0</ns3:atemp>
          </ns3:TrackPointExtension>
        </extensions>
      </trkpt>
      <trkpt lat="42.509222589433193206787109375" lon="19.92030878551304340362548828125">
        <ele>1916.4000244140625</ele>
        <time>2026-06-17T10:42:28.000Z</time>
        <extensions>
          <ns3:TrackPointExtension>
            <ns3:atemp>23.0</ns3:atemp>
          </ns3:TrackPointExtension>
        </extensions>
      </trkpt>
      <trkpt lat="42.509215883910655975341796875" lon="19.9203008227050304412841796875">
        <ele>1916.800048828125</ele>
        <time>2026-06-17T10:42:29.000Z</time>
        <extensions>
          <ns3:TrackPointExtension>
            <ns3:atemp>23.0</ns3:atemp>
          </ns3:TrackPointExtension>
        </extensions>
      </trkpt>
      <trkpt lat="42.50920641236007213592529296875" lon="19.92028565146028995513916015625">
        <ele>1917.199951171875</ele>
        <time>2026-06-17T10:42:30.000Z</time>
        <extensions>
          <ns3:TrackPointExtension>
            <ns3:atemp>23.0</ns3:atemp>
          </ns3:TrackPointExtension>
        </extensions>
      </trkpt>
      <trkpt lat="42.5091966055333614349365234375" lon="19.92026939056813716888427734375">
        <ele>1917.4000244140625</ele>
        <time>2026-06-17T10:42:31.000Z</time>
        <extensions>
          <ns3:TrackPointExtension>
            <ns3:atemp>23.0</ns3:atemp>
          </ns3:TrackPointExtension>
        </extensions>
      </trkpt>
      <trkpt lat="42.50918830744922161102294921875" lon="19.92025338113307952880859375">
        <ele>1917.5999755859375</ele>
        <time>2026-06-17T10:42:32.000Z</time>
        <extensions>
          <ns3:TrackPointExtension>
            <ns3:atemp>23.0</ns3:atemp>
          </ns3:TrackPointExtension>
        </extensions>
      </trkpt>
      <trkpt lat="42.50918428413569927215576171875" lon="19.92023619823157787322998046875">
        <ele>1917.5999755859375</ele>
        <time>2026-06-17T10:42:33.000Z</time>
        <extensions>
          <ns3:TrackPointExtension>
            <ns3:atemp>23.0</ns3:atemp>
          </ns3:TrackPointExtension>
        </extensions>
      </trkpt>
      <trkpt lat="42.50917799770832061767578125" lon="19.92021792568266391754150390625">
        <ele>1918</ele>
        <time>2026-06-17T10:42:34.000Z</time>
        <extensions>
          <ns3:TrackPointExtension>
            <ns3:atemp>23.0</ns3:atemp>
          </ns3:TrackPointExtension>
        </extensions>
      </trkpt>
      <trkpt lat="42.50917489640414714813232421875" lon="19.9202056042850017547607421875">
        <ele>1918.199951171875</ele>
        <time>2026-06-17T10:42:35.000Z</time>
        <extensions>
          <ns3:TrackPointExtension>
            <ns3:atemp>23.0</ns3:atemp>
          </ns3:TrackPointExtension>
        </extensions>
      </trkpt>
      <trkpt lat="42.509169615805149078369140625" lon="19.9201883375644683837890625">
        <ele>1918.4000244140625</ele>
        <time>2026-06-17T10:42:36.000Z</time>
        <extensions>
          <ns3:TrackPointExtension>
            <ns3:atemp>23.0</ns3:atemp>
          </ns3:TrackPointExtension>
        </extensions>
      </trkpt>
      <trkpt lat="42.50916383229196071624755859375" lon="19.920167885720729827880859375">
        <ele>1918.800048828125</ele>
        <time>2026-06-17T10:42:37.000Z</time>
        <extensions>
          <ns3:TrackPointExtension>
            <ns3:atemp>23.0</ns3:atemp>
          </ns3:TrackPointExtension>
        </extensions>
      </trkpt>
      <trkpt lat="42.50915712676942348480224609375" lon="19.92015355266630649566650390625">
        <ele>1919</ele>
        <time>2026-06-17T10:42:38.000Z</time>
        <extensions>
          <ns3:TrackPointExtension>
            <ns3:atemp>23.0</ns3:atemp>
          </ns3:TrackPointExtension>
        </extensions>
      </trkpt>
      <trkpt lat="42.50914849340915679931640625" lon="19.92013745941221714019775390625">
        <ele>1919.199951171875</ele>
        <time>2026-06-17T10:42:39.000Z</time>
        <extensions>
          <ns3:TrackPointExtension>
            <ns3:atemp>23.0</ns3:atemp>
          </ns3:TrackPointExtension>
        </extensions>
      </trkpt>
      <trkpt lat="42.5091463141143321990966796875" lon="19.9201186001300811767578125">
        <ele>1919.4000244140625</ele>
        <time>2026-06-17T10:42:40.000Z</time>
        <extensions>
          <ns3:TrackPointExtension>
            <ns3:atemp>23.0</ns3:atemp>
          </ns3:TrackPointExtension>
        </extensions>
      </trkpt>
      <trkpt lat="42.50914421863853931427001953125" lon="19.92010242305696010589599609375">
        <ele>1919.5999755859375</ele>
        <time>2026-06-17T10:42:41.000Z</time>
        <extensions>
          <ns3:TrackPointExtension>
            <ns3:atemp>23.0</ns3:atemp>
          </ns3:TrackPointExtension>
        </extensions>
      </trkpt>
      <trkpt lat="42.50913642346858978271484375" lon="19.9200890958309173583984375">
        <ele>1920</ele>
        <time>2026-06-17T10:42:42.000Z</time>
        <extensions>
          <ns3:TrackPointExtension>
            <ns3:atemp>23.0</ns3:atemp>
          </ns3:TrackPointExtension>
        </extensions>
      </trkpt>
      <trkpt lat="42.5091322325170040130615234375" lon="19.9200768582522869110107421875">
        <ele>1920.199951171875</ele>
        <time>2026-06-17T10:42:43.000Z</time>
        <extensions>
          <ns3:TrackPointExtension>
            <ns3:atemp>23.0</ns3:atemp>
          </ns3:TrackPointExtension>
        </extensions>
      </trkpt>
      <trkpt lat="42.509126029908657073974609375" lon="19.92006252519786357879638671875">
        <ele>1920.4000244140625</ele>
        <time>2026-06-17T10:42:44.000Z</time>
        <extensions>
          <ns3:TrackPointExtension>
            <ns3:atemp>23.0</ns3:atemp>
          </ns3:TrackPointExtension>
        </extensions>
      </trkpt>
      <trkpt lat="42.509122006595134735107421875" lon="19.92004374973475933074951171875">
        <ele>1920.5999755859375</ele>
        <time>2026-06-17T10:42:45.000Z</time>
        <extensions>
          <ns3:TrackPointExtension>
            <ns3:atemp>23.0</ns3:atemp>
          </ns3:TrackPointExtension>
        </extensions>
      </trkpt>
      <trkpt lat="42.50911605544388294219970703125" lon="19.92002673447132110595703125">
        <ele>1920.800048828125</ele>
        <time>2026-06-17T10:42:46.000Z</time>
        <extensions>
          <ns3:TrackPointExtension>
            <ns3:atemp>23.0</ns3:atemp>
          </ns3:TrackPointExtension>
        </extensions>
      </trkpt>
      <trkpt lat="42.50911002047359943389892578125" lon="19.92000619880855083465576171875">
        <ele>1921</ele>
        <time>2026-06-17T10:42:47.000Z</time>
        <extensions>
          <ns3:TrackPointExtension>
            <ns3:atemp>23.0</ns3:atemp>
          </ns3:TrackPointExtension>
        </extensions>
      </trkpt>
      <trkpt lat="42.50910096801817417144775390625" lon="19.9199836514890193939208984375">
        <ele>1921</ele>
        <time>2026-06-17T10:42:48.000Z</time>
        <extensions>
          <ns3:TrackPointExtension>
            <ns3:atemp>23.0</ns3:atemp>
          </ns3:TrackPointExtension>
        </extensions>
      </trkpt>
      <trkpt lat="42.509094178676605224609375" lon="19.9199642054736614227294921875">
        <ele>1921.199951171875</ele>
        <time>2026-06-17T10:42:49.000Z</time>
        <extensions>
          <ns3:TrackPointExtension>
            <ns3:atemp>23.0</ns3:atemp>
          </ns3:TrackPointExtension>
        </extensions>
      </trkpt>
      <trkpt lat="42.5090876407921314239501953125" lon="19.91994970478117465972900390625">
        <ele>1921.4000244140625</ele>
        <time>2026-06-17T10:42:50.000Z</time>
        <extensions>
          <ns3:TrackPointExtension>
            <ns3:atemp>23.0</ns3:atemp>
          </ns3:TrackPointExtension>
        </extensions>
      </trkpt>
      <trkpt lat="42.50907749868929386138916015625" lon="19.9199296720325946807861328125">
        <ele>1921.5999755859375</ele>
        <time>2026-06-17T10:42:51.000Z</time>
        <extensions>
          <ns3:TrackPointExtension>
            <ns3:atemp>23.0</ns3:atemp>
          </ns3:TrackPointExtension>
        </extensions>
      </trkpt>
      <trkpt lat="42.5090658478438854217529296875" lon="19.919911064207553863525390625">
        <ele>1921.800048828125</ele>
        <time>2026-06-17T10:42:52.000Z</time>
        <extensions>
          <ns3:TrackPointExtension>
            <ns3:atemp>23.0</ns3:atemp>
          </ns3:TrackPointExtension>
        </extensions>
      </trkpt>
      <trkpt lat="42.50905553810298442840576171875" lon="19.91989606060087680816650390625">
        <ele>1922</ele>
        <time>2026-06-17T10:42:53.000Z</time>
        <extensions>
          <ns3:TrackPointExtension>
            <ns3:atemp>23.0</ns3:atemp>
          </ns3:TrackPointExtension>
        </extensions>
      </trkpt>
      <trkpt lat="42.50904665328562259674072265625" lon="19.919879548251628875732421875">
        <ele>1922.199951171875</ele>
        <time>2026-06-17T10:42:54.000Z</time>
        <extensions>
          <ns3:TrackPointExtension>
            <ns3:atemp>23.0</ns3:atemp>
          </ns3:TrackPointExtension>
        </extensions>
      </trkpt>
      <trkpt lat="42.5090420432388782501220703125" lon="19.91985951550304889678955078125">
        <ele>1922.4000244140625</ele>
        <time>2026-06-17T10:42:55.000Z</time>
        <extensions>
          <ns3:TrackPointExtension>
            <ns3:atemp>23.0</ns3:atemp>
          </ns3:TrackPointExtension>
        </extensions>
      </trkpt>
      <trkpt lat="42.50903408043086528778076171875" lon="19.9198421649634838104248046875">
        <ele>1922.800048828125</ele>
        <time>2026-06-17T10:42:56.000Z</time>
        <extensions>
          <ns3:TrackPointExtension>
            <ns3:atemp>23.0</ns3:atemp>
          </ns3:TrackPointExtension>
        </extensions>
      </trkpt>
      <trkpt lat="42.509025447070598602294921875" lon="19.91982548497617244720458984375">
        <ele>1923</ele>
        <time>2026-06-17T10:42:57.000Z</time>
        <extensions>
          <ns3:TrackPointExtension>
            <ns3:atemp>23.0</ns3:atemp>
          </ns3:TrackPointExtension>
        </extensions>
      </trkpt>
      <trkpt lat="42.509012706577777862548828125" lon="19.91981358267366886138916015625">
        <ele>1923.4000244140625</ele>
        <time>2026-06-17T10:42:58.000Z</time>
        <extensions>
          <ns3:TrackPointExtension>
            <ns3:atemp>23.0</ns3:atemp>
          </ns3:TrackPointExtension>
        </extensions>
      </trkpt>
      <trkpt lat="42.5090008042752742767333984375" lon="19.91980855353176593780517578125">
        <ele>1924</ele>
        <time>2026-06-17T10:42:59.000Z</time>
        <extensions>
          <ns3:TrackPointExtension>
            <ns3:atemp>23.0</ns3:atemp>
          </ns3:TrackPointExtension>
        </extensions>
      </trkpt>
      <trkpt lat="42.50898814760148525238037109375" lon="19.91980738006532192230224609375">
        <ele>1924.5999755859375</ele>
        <time>2026-06-17T10:43:00.000Z</time>
        <extensions>
          <ns3:TrackPointExtension>
            <ns3:atemp>23.0</ns3:atemp>
          </ns3:TrackPointExtension>
        </extensions>
      </trkpt>
      <trkpt lat="42.50897414982318878173828125" lon="19.9198096431791782379150390625">
        <ele>1925</ele>
        <time>2026-06-17T10:43:01.000Z</time>
        <extensions>
          <ns3:TrackPointExtension>
            <ns3:atemp>23.0</ns3:atemp>
          </ns3:TrackPointExtension>
        </extensions>
      </trkpt>
      <trkpt lat="42.50895805656909942626953125" lon="19.91980612277984619140625">
        <ele>1925.199951171875</ele>
        <time>2026-06-17T10:43:02.000Z</time>
        <extensions>
          <ns3:TrackPointExtension>
            <ns3:atemp>23.0</ns3:atemp>
          </ns3:TrackPointExtension>
        </extensions>
      </trkpt>
      <trkpt lat="42.50894187949597835540771484375" lon="19.91979665122926235198974609375">
        <ele>1925.4000244140625</ele>
        <time>2026-06-17T10:43:03.000Z</time>
        <extensions>
          <ns3:TrackPointExtension>
            <ns3:atemp>23.0</ns3:atemp>
          </ns3:TrackPointExtension>
        </extensions>
      </trkpt>
      <trkpt lat="42.50893081538379192352294921875" lon="19.91979262791574001312255859375">
        <ele>1925.5999755859375</ele>
        <time>2026-06-17T10:43:04.000Z</time>
        <extensions>
          <ns3:TrackPointExtension>
            <ns3:atemp>23.0</ns3:atemp>
          </ns3:TrackPointExtension>
        </extensions>
      </trkpt>
      <trkpt lat="42.50891438685357570648193359375" lon="19.91978541947901248931884765625">
        <ele>1925.800048828125</ele>
        <time>2026-06-17T10:43:05.000Z</time>
        <extensions>
          <ns3:TrackPointExtension>
            <ns3:atemp>23.0</ns3:atemp>
          </ns3:TrackPointExtension>
        </extensions>
      </trkpt>
      <trkpt lat="42.50889343209564685821533203125" lon="19.91977402009069919586181640625">
        <ele>1926</ele>
        <time>2026-06-17T10:43:06.000Z</time>
        <extensions>
          <ns3:TrackPointExtension>
            <ns3:atemp>23.0</ns3:atemp>
          </ns3:TrackPointExtension>
        </extensions>
      </trkpt>
      <trkpt lat="42.5088809430599212646484375" lon="19.91976144723594188690185546875">
        <ele>1926.199951171875</ele>
        <time>2026-06-17T10:43:07.000Z</time>
        <extensions>
          <ns3:TrackPointExtension>
            <ns3:atemp>23.0</ns3:atemp>
          </ns3:TrackPointExtension>
        </extensions>
      </trkpt>
      <trkpt lat="42.5088660232722759246826171875" lon="19.91975046694278717041015625">
        <ele>1926.4000244140625</ele>
        <time>2026-06-17T10:43:08.000Z</time>
        <extensions>
          <ns3:TrackPointExtension>
            <ns3:atemp>23.0</ns3:atemp>
          </ns3:TrackPointExtension>
        </extensions>
      </trkpt>
      <trkpt lat="42.50885051675140857696533203125" lon="19.919740073382854461669921875">
        <ele>1926.5999755859375</ele>
        <time>2026-06-17T10:43:09.000Z</time>
        <extensions>
          <ns3:TrackPointExtension>
            <ns3:atemp>23.0</ns3:atemp>
          </ns3:TrackPointExtension>
        </extensions>
      </trkpt>
      <trkpt lat="42.508832998573780059814453125" lon="19.91972825489938259124755859375">
        <ele>1926.800048828125</ele>
        <time>2026-06-17T10:43:10.000Z</time>
        <extensions>
          <ns3:TrackPointExtension>
            <ns3:atemp>23.0</ns3:atemp>
          </ns3:TrackPointExtension>
        </extensions>
      </trkpt>
      <trkpt lat="42.50881682150065898895263671875" lon="19.91971367038786411285400390625">
        <ele>1927</ele>
        <time>2026-06-17T10:43:11.000Z</time>
        <extensions>
          <ns3:TrackPointExtension>
            <ns3:atemp>23.0</ns3:atemp>
          </ns3:TrackPointExtension>
        </extensions>
      </trkpt>
      <trkpt lat="42.5088016502559185028076171875" lon="19.919701516628265380859375">
        <ele>1927.199951171875</ele>
        <time>2026-06-17T10:43:12.000Z</time>
        <extensions>
          <ns3:TrackPointExtension>
            <ns3:atemp>23.0</ns3:atemp>
          </ns3:TrackPointExtension>
        </extensions>
      </trkpt>
      <trkpt lat="42.508790753781795501708984375" lon="19.91968810558319091796875">
        <ele>1927.4000244140625</ele>
        <time>2026-06-17T10:43:13.000Z</time>
        <extensions>
          <ns3:TrackPointExtension>
            <ns3:atemp>23.0</ns3:atemp>
          </ns3:TrackPointExtension>
        </extensions>
      </trkpt>
      <trkpt lat="42.50878128223121166229248046875" lon="19.9196733534336090087890625">
        <ele>1927.800048828125</ele>
        <time>2026-06-17T10:43:14.000Z</time>
        <extensions>
          <ns3:TrackPointExtension>
            <ns3:atemp>23.0</ns3:atemp>
          </ns3:TrackPointExtension>
        </extensions>
      </trkpt>
      <trkpt lat="42.50876669771969318389892578125" lon="19.9196587689220905303955078125">
        <ele>1928</ele>
        <time>2026-06-17T10:43:15.000Z</time>
        <extensions>
          <ns3:TrackPointExtension>
            <ns3:atemp>23.0</ns3:atemp>
          </ns3:TrackPointExtension>
        </extensions>
      </trkpt>
      <trkpt lat="42.508753873407840728759765625" lon="19.919639490544795989990234375">
        <ele>1928.199951171875</ele>
        <time>2026-06-17T10:43:16.000Z</time>
        <extensions>
          <ns3:TrackPointExtension>
            <ns3:atemp>23.0</ns3:atemp>
          </ns3:TrackPointExtension>
        </extensions>
      </trkpt>
      <trkpt lat="42.50874272547662258148193359375" lon="19.91962348110973834991455078125">
        <ele>1928.4000244140625</ele>
        <time>2026-06-17T10:43:17.000Z</time>
        <extensions>
          <ns3:TrackPointExtension>
            <ns3:atemp>23.0</ns3:atemp>
          </ns3:TrackPointExtension>
        </extensions>
      </trkpt>
      <trkpt lat="42.50873032025992870330810546875" lon="19.9196061305701732635498046875">
        <ele>1928.5999755859375</ele>
        <time>2026-06-17T10:43:18.000Z</time>
        <extensions>
          <ns3:TrackPointExtension>
            <ns3:atemp>23.0</ns3:atemp>
          </ns3:TrackPointExtension>
        </extensions>
      </trkpt>
      <trkpt lat="42.50872311182320117950439453125" lon="19.9195860140025615692138671875">
        <ele>1928.800048828125</ele>
        <time>2026-06-17T10:43:19.000Z</time>
        <extensions>
          <ns3:TrackPointExtension>
            <ns3:atemp>23.0</ns3:atemp>
          </ns3:TrackPointExtension>
        </extensions>
      </trkpt>
      <trkpt lat="42.50871540047228336334228515625" lon="19.9195635505020618438720703125">
        <ele>1929</ele>
        <time>2026-06-17T10:43:20.000Z</time>
        <extensions>
          <ns3:TrackPointExtension>
            <ns3:atemp>23.0</ns3:atemp>
          </ns3:TrackPointExtension>
        </extensions>
      </trkpt>
      <trkpt lat="42.5087114609777927398681640625" lon="19.91954150609672069549560546875">
        <ele>1929.4000244140625</ele>
        <time>2026-06-17T10:43:21.000Z</time>
        <extensions>
          <ns3:TrackPointExtension>
            <ns3:atemp>23.0</ns3:atemp>
          </ns3:TrackPointExtension>
        </extensions>
      </trkpt>
      <trkpt lat="42.508709616959095001220703125" lon="19.91952541284263134002685546875">
        <ele>1929.5999755859375</ele>
        <time>2026-06-17T10:43:22.000Z</time>
        <extensions>
          <ns3:TrackPointExtension>
            <ns3:atemp>23.0</ns3:atemp>
          </ns3:TrackPointExtension>
        </extensions>
      </trkpt>
      <trkpt lat="42.508705593645572662353515625" lon="19.919510744512081146240234375">
        <ele>1929.800048828125</ele>
        <time>2026-06-17T10:43:23.000Z</time>
        <extensions>
          <ns3:TrackPointExtension>
            <ns3:atemp>23.0</ns3:atemp>
          </ns3:TrackPointExtension>
        </extensions>
      </trkpt>
      <trkpt lat="42.5086953677237033843994140625" lon="19.9194944836199283599853515625">
        <ele>1930</ele>
        <time>2026-06-17T10:43:24.000Z</time>
        <extensions>
          <ns3:TrackPointExtension>
            <ns3:atemp>23.0</ns3:atemp>
          </ns3:TrackPointExtension>
        </extensions>
      </trkpt>
      <trkpt lat="42.50868380069732666015625" lon="19.91948082111775875091552734375">
        <ele>1930.199951171875</ele>
        <time>2026-06-17T10:43:25.000Z</time>
        <extensions>
          <ns3:TrackPointExtension>
            <ns3:atemp>23.0</ns3:atemp>
          </ns3:TrackPointExtension>
        </extensions>
      </trkpt>
      <trkpt lat="42.5086735747754573822021484375" lon="19.919469840824604034423828125">
        <ele>1930.4000244140625</ele>
        <time>2026-06-17T10:43:26.000Z</time>
        <extensions>
          <ns3:TrackPointExtension>
            <ns3:atemp>23.0</ns3:atemp>
          </ns3:TrackPointExtension>
        </extensions>
      </trkpt>
      <trkpt lat="42.50866167247295379638671875" lon="19.91945919580757617950439453125">
        <ele>1930.5999755859375</ele>
        <time>2026-06-17T10:43:27.000Z</time>
        <extensions>
          <ns3:TrackPointExtension>
            <ns3:atemp>23.0</ns3:atemp>
          </ns3:TrackPointExtension>
        </extensions>
      </trkpt>
      <trkpt lat="42.508653961122035980224609375" lon="19.91944394074380397796630859375">
        <ele>1930.800048828125</ele>
        <time>2026-06-17T10:43:28.000Z</time>
        <extensions>
          <ns3:TrackPointExtension>
            <ns3:atemp>23.0</ns3:atemp>
          </ns3:TrackPointExtension>
        </extensions>
      </trkpt>
      <trkpt lat="42.50864499248564243316650390625" lon="19.91943254135549068450927734375">
        <ele>1931</ele>
        <time>2026-06-17T10:43:29.000Z</time>
        <extensions>
          <ns3:TrackPointExtension>
            <ns3:atemp>23.0</ns3:atemp>
          </ns3:TrackPointExtension>
        </extensions>
      </trkpt>
      <trkpt lat="42.508635185658931732177734375" lon="19.91942483000457286834716796875">
        <ele>1931.199951171875</ele>
        <time>2026-06-17T10:43:30.000Z</time>
        <extensions>
          <ns3:TrackPointExtension>
            <ns3:atemp>23.0</ns3:atemp>
          </ns3:TrackPointExtension>
        </extensions>
      </trkpt>
      <trkpt lat="42.508625797927379608154296875" lon="19.91941058076918125152587890625">
        <ele>1931.4000244140625</ele>
        <time>2026-06-17T10:43:31.000Z</time>
        <extensions>
          <ns3:TrackPointExtension>
            <ns3:atemp>23.0</ns3:atemp>
          </ns3:TrackPointExtension>
        </extensions>
      </trkpt>
      <trkpt lat="42.5086118839681148529052734375" lon="19.91939482279121875762939453125">
        <ele>1931.800048828125</ele>
        <time>2026-06-17T10:43:32.000Z</time>
        <extensions>
          <ns3:TrackPointExtension>
            <ns3:atemp>23.0</ns3:atemp>
          </ns3:TrackPointExtension>
        </extensions>
      </trkpt>
      <trkpt lat="42.5086008198559284210205078125" lon="19.91938174702227115631103515625">
        <ele>1932.199951171875</ele>
        <time>2026-06-17T10:43:33.000Z</time>
        <extensions>
          <ns3:TrackPointExtension>
            <ns3:atemp>23.0</ns3:atemp>
          </ns3:TrackPointExtension>
        </extensions>
      </trkpt>
      <trkpt lat="42.5085894204676151275634765625" lon="19.9193702638149261474609375">
        <ele>1932.5999755859375</ele>
        <time>2026-06-17T10:43:34.000Z</time>
        <extensions>
          <ns3:TrackPointExtension>
            <ns3:atemp>23.0</ns3:atemp>
          </ns3:TrackPointExtension>
        </extensions>
      </trkpt>
      <trkpt lat="42.50858045183122158050537109375" lon="19.9193576909601688385009765625">
        <ele>1932.800048828125</ele>
        <time>2026-06-17T10:43:35.000Z</time>
        <extensions>
          <ns3:TrackPointExtension>
            <ns3:atemp>23.0</ns3:atemp>
          </ns3:TrackPointExtension>
        </extensions>
      </trkpt>
      <trkpt lat="42.5085723213851451873779296875" lon="19.91935106925666332244873046875">
        <ele>1933.199951171875</ele>
        <time>2026-06-17T10:43:36.000Z</time>
        <extensions>
          <ns3:TrackPointExtension>
            <ns3:atemp>23.0</ns3:atemp>
          </ns3:TrackPointExtension>
        </extensions>
      </trkpt>
      <trkpt lat="42.5085589103400707244873046875" lon="19.91934402845799922943115234375">
        <ele>1933.5999755859375</ele>
        <time>2026-06-17T10:43:37.000Z</time>
        <extensions>
          <ns3:TrackPointExtension>
            <ns3:atemp>23.0</ns3:atemp>
          </ns3:TrackPointExtension>
        </extensions>
      </trkpt>
      <trkpt lat="42.50854365527629852294921875" lon="19.919333048164844512939453125">
        <ele>1934</ele>
        <time>2026-06-17T10:43:38.000Z</time>
        <extensions>
          <ns3:TrackPointExtension>
            <ns3:atemp>23.0</ns3:atemp>
          </ns3:TrackPointExtension>
        </extensions>
      </trkpt>
      <trkpt lat="42.50852890312671661376953125" lon="19.91932039149105548858642578125">
        <ele>1934.4000244140625</ele>
        <time>2026-06-17T10:43:39.000Z</time>
        <extensions>
          <ns3:TrackPointExtension>
            <ns3:atemp>23.0</ns3:atemp>
          </ns3:TrackPointExtension>
        </extensions>
      </trkpt>
      <trkpt lat="42.5085190124809741973876953125" lon="19.91930161602795124053955078125">
        <ele>1934.5999755859375</ele>
        <time>2026-06-17T10:43:40.000Z</time>
        <extensions>
          <ns3:TrackPointExtension>
            <ns3:atemp>23.0</ns3:atemp>
          </ns3:TrackPointExtension>
        </extensions>
      </trkpt>
      <trkpt lat="42.5085139833390712738037109375" lon="19.919278062880039215087890625">
        <ele>1935</ele>
        <time>2026-06-17T10:43:41.000Z</time>
        <extensions>
          <ns3:TrackPointExtension>
            <ns3:atemp>23.0</ns3:atemp>
          </ns3:TrackPointExtension>
        </extensions>
      </trkpt>
      <trkpt lat="42.50850937329232692718505859375" lon="19.9192433618009090423583984375">
        <ele>1935.4000244140625</ele>
        <time>2026-06-17T10:43:42.000Z</time>
        <extensions>
          <ns3:TrackPointExtension>
            <ns3:atemp>23.0</ns3:atemp>
          </ns3:TrackPointExtension>
        </extensions>
      </trkpt>
      <trkpt lat="42.50851356424391269683837890625" lon="19.91921662352979183197021484375">
        <ele>1936</ele>
        <time>2026-06-17T10:43:43.000Z</time>
        <extensions>
          <ns3:TrackPointExtension>
            <ns3:atemp>23.0</ns3:atemp>
          </ns3:TrackPointExtension>
        </extensions>
      </trkpt>
      <trkpt lat="42.50851423479616641998291015625" lon="19.9191944114863872528076171875">
        <ele>1936.4000244140625</ele>
        <time>2026-06-17T10:43:44.000Z</time>
        <extensions>
          <ns3:TrackPointExtension>
            <ns3:atemp>23.0</ns3:atemp>
          </ns3:TrackPointExtension>
        </extensions>
      </trkpt>
      <trkpt lat="42.50852043740451335906982421875" lon="19.91917136125266551971435546875">
        <ele>1937</ele>
        <time>2026-06-17T10:43:45.000Z</time>
        <extensions>
          <ns3:TrackPointExtension>
            <ns3:atemp>23.0</ns3:atemp>
          </ns3:TrackPointExtension>
        </extensions>
      </trkpt>
      <trkpt lat="42.50853200443089008331298828125" lon="19.91915074177086353302001953125">
        <ele>1937.4000244140625</ele>
        <time>2026-06-17T10:43:46.000Z</time>
        <extensions>
          <ns3:TrackPointExtension>
            <ns3:atemp>23.0</ns3:atemp>
          </ns3:TrackPointExtension>
        </extensions>
      </trkpt>
      <trkpt lat="42.5085408054292201995849609375" lon="19.91913347505033016204833984375">
        <ele>1937.800048828125</ele>
        <time>2026-06-17T10:43:47.000Z</time>
        <extensions>
          <ns3:TrackPointExtension>
            <ns3:atemp>23.0</ns3:atemp>
          </ns3:TrackPointExtension>
        </extensions>
      </trkpt>
      <trkpt lat="42.5085508637130260467529296875" lon="19.9191181361675262451171875">
        <ele>1938</ele>
        <time>2026-06-17T10:43:48.000Z</time>
        <extensions>
          <ns3:TrackPointExtension>
            <ns3:atemp>23.0</ns3:atemp>
          </ns3:TrackPointExtension>
        </extensions>
      </trkpt>
      <trkpt lat="42.50856033526360988616943359375" lon="19.9191015399992465972900390625">
        <ele>1938.199951171875</ele>
        <time>2026-06-17T10:43:49.000Z</time>
        <extensions>
          <ns3:TrackPointExtension>
            <ns3:atemp>23.0</ns3:atemp>
          </ns3:TrackPointExtension>
        </extensions>
      </trkpt>
      <trkpt lat="42.50857257284224033355712890625" lon="19.9190918169915676116943359375">
        <ele>1938.4000244140625</ele>
        <time>2026-06-17T10:43:50.000Z</time>
        <extensions>
          <ns3:TrackPointExtension>
            <ns3:atemp>23.0</ns3:atemp>
          </ns3:TrackPointExtension>
        </extensions>
      </trkpt>
      <trkpt lat="42.5085807032883167266845703125" lon="19.9190819263458251953125">
        <ele>1938.5999755859375</ele>
        <time>2026-06-17T10:43:51.000Z</time>
        <extensions>
          <ns3:TrackPointExtension>
            <ns3:atemp>23.0</ns3:atemp>
          </ns3:TrackPointExtension>
        </extensions>
      </trkpt>
      <trkpt lat="42.508584223687648773193359375" lon="19.91906692273914813995361328125">
        <ele>1938.800048828125</ele>
        <time>2026-06-17T10:43:52.000Z</time>
        <extensions>
          <ns3:TrackPointExtension>
            <ns3:atemp>23.0</ns3:atemp>
          </ns3:TrackPointExtension>
        </extensions>
      </trkpt>
      <trkpt lat="42.5085870735347270965576171875" lon="19.9190468899905681610107421875">
        <ele>1939.199951171875</ele>
        <time>2026-06-17T10:43:53.000Z</time>
        <extensions>
          <ns3:TrackPointExtension>
            <ns3:atemp>23.0</ns3:atemp>
          </ns3:TrackPointExtension>
        </extensions>
      </trkpt>
      <trkpt lat="42.50858816318213939666748046875" lon="19.9190224148333072662353515625">
        <ele>1939.4000244140625</ele>
        <time>2026-06-17T10:43:54.000Z</time>
        <extensions>
          <ns3:TrackPointExtension>
            <ns3:atemp>23.0</ns3:atemp>
          </ns3:TrackPointExtension>
        </extensions>
      </trkpt>
      <trkpt lat="42.5085900910198688507080078125" lon="19.91900213062763214111328125">
        <ele>1939.800048828125</ele>
        <time>2026-06-17T10:43:55.000Z</time>
        <extensions>
          <ns3:TrackPointExtension>
            <ns3:atemp>23.0</ns3:atemp>
          </ns3:TrackPointExtension>
        </extensions>
      </trkpt>
      <trkpt lat="42.50858967192471027374267578125" lon="19.918983690440654754638671875">
        <ele>1940</ele>
        <time>2026-06-17T10:43:56.000Z</time>
        <extensions>
          <ns3:TrackPointExtension>
            <ns3:atemp>23.0</ns3:atemp>
          </ns3:TrackPointExtension>
        </extensions>
      </trkpt>
      <trkpt lat="42.508590929210186004638671875" lon="19.91896734572947025299072265625">
        <ele>1940.199951171875</ele>
        <time>2026-06-17T10:43:57.000Z</time>
        <extensions>
          <ns3:TrackPointExtension>
            <ns3:atemp>23.0</ns3:atemp>
          </ns3:TrackPointExtension>
        </extensions>
      </trkpt>
      <trkpt lat="42.50859151594340801239013671875" lon="19.91894672624766826629638671875">
        <ele>1940.5999755859375</ele>
        <time>2026-06-17T10:43:58.000Z</time>
        <extensions>
          <ns3:TrackPointExtension>
            <ns3:atemp>23.0</ns3:atemp>
          </ns3:TrackPointExtension>
        </extensions>
      </trkpt>
      <trkpt lat="42.50858967192471027374267578125" lon="19.9189278669655323028564453125">
        <ele>1940.800048828125</ele>
        <time>2026-06-17T10:43:59.000Z</time>
        <extensions>
          <ns3:TrackPointExtension>
            <ns3:atemp>23.0</ns3:atemp>
          </ns3:TrackPointExtension>
        </extensions>
      </trkpt>
      <trkpt lat="42.50857978127896785736083984375" lon="19.91891085170209407806396484375">
        <ele>1941</ele>
        <time>2026-06-17T10:44:00.000Z</time>
        <extensions>
          <ns3:TrackPointExtension>
            <ns3:atemp>23.0</ns3:atemp>
          </ns3:TrackPointExtension>
        </extensions>
      </trkpt>
      <trkpt lat="42.50857223756611347198486328125" lon="19.9188893102109432220458984375">
        <ele>1941.4000244140625</ele>
        <time>2026-06-17T10:44:01.000Z</time>
        <extensions>
          <ns3:TrackPointExtension>
            <ns3:atemp>23.0</ns3:atemp>
          </ns3:TrackPointExtension>
        </extensions>
      </trkpt>
      <trkpt lat="42.50856201164424419403076171875" lon="19.91888201795518398284912109375">
        <ele>1941.800048828125</ele>
        <time>2026-06-17T10:44:02.000Z</time>
        <extensions>
          <ns3:TrackPointExtension>
            <ns3:atemp>23.0</ns3:atemp>
          </ns3:TrackPointExtension>
        </extensions>
      </trkpt>
      <trkpt lat="42.50855178572237491607666015625" lon="19.91887916810810565948486328125">
        <ele>1942.199951171875</ele>
        <time>2026-06-17T10:44:03.000Z</time>
        <extensions>
          <ns3:TrackPointExtension>
            <ns3:atemp>23.0</ns3:atemp>
          </ns3:TrackPointExtension>
        </extensions>
      </trkpt>
      <trkpt lat="42.5085384584963321685791015625" lon="19.918873719871044158935546875">
        <ele>1942.5999755859375</ele>
        <time>2026-06-17T10:44:04.000Z</time>
        <extensions>
          <ns3:TrackPointExtension>
            <ns3:atemp>24.0</ns3:atemp>
          </ns3:TrackPointExtension>
        </extensions>
      </trkpt>
      <trkpt lat="42.5085273943841457366943359375" lon="19.9188655056059360504150390625">
        <ele>1943.199951171875</ele>
        <time>2026-06-17T10:44:05.000Z</time>
        <extensions>
          <ns3:TrackPointExtension>
            <ns3:atemp>23.0</ns3:atemp>
          </ns3:TrackPointExtension>
        </extensions>
      </trkpt>
      <trkpt lat="42.508516497910022735595703125" lon="19.9188581295311450958251953125">
        <ele>1943.5999755859375</ele>
        <time>2026-06-17T10:44:06.000Z</time>
        <extensions>
          <ns3:TrackPointExtension>
            <ns3:atemp>23.0</ns3:atemp>
          </ns3:TrackPointExtension>
        </extensions>
      </trkpt>
      <trkpt lat="42.50850551761686801910400390625" lon="19.91885720752179622650146484375">
        <ele>1943.800048828125</ele>
        <time>2026-06-17T10:44:07.000Z</time>
        <extensions>
          <ns3:TrackPointExtension>
            <ns3:atemp>23.0</ns3:atemp>
          </ns3:TrackPointExtension>
        </extensions>
      </trkpt>
      <trkpt lat="42.5084915198385715484619140625" lon="19.91885167546570301055908203125">
        <ele>1944.199951171875</ele>
        <time>2026-06-17T10:44:08.000Z</time>
        <extensions>
          <ns3:TrackPointExtension>
            <ns3:atemp>23.0</ns3:atemp>
          </ns3:TrackPointExtension>
        </extensions>
      </trkpt>
      <trkpt lat="42.508477270603179931640625" lon="19.91884698159992694854736328125">
        <ele>1944.199951171875</ele>
        <time>2026-06-17T10:44:09.000Z</time>
        <extensions>
          <ns3:TrackPointExtension>
            <ns3:atemp>23.0</ns3:atemp>
          </ns3:TrackPointExtension>
        </extensions>
      </trkpt>
      <trkpt lat="42.50846411101520061492919921875" lon="19.91884044371545314788818359375">
        <ele>1944.4000244140625</ele>
        <time>2026-06-17T10:44:10.000Z</time>
        <extensions>
          <ns3:TrackPointExtension>
            <ns3:atemp>23.0</ns3:atemp>
          </ns3:TrackPointExtension>
        </extensions>
      </trkpt>
      <trkpt lat="42.50845120288431644439697265625" lon="19.91883457638323307037353515625">
        <ele>1944.4000244140625</ele>
        <time>2026-06-17T10:44:11.000Z</time>
        <extensions>
          <ns3:TrackPointExtension>
            <ns3:atemp>23.0</ns3:atemp>
          </ns3:TrackPointExtension>
        </extensions>
      </trkpt>
      <trkpt lat="42.50843795947730541229248046875" lon="19.91882988251745700836181640625">
        <ele>1944.5999755859375</ele>
        <time>2026-06-17T10:44:12.000Z</time>
        <extensions>
          <ns3:TrackPointExtension>
            <ns3:atemp>23.0</ns3:atemp>
          </ns3:TrackPointExtension>
        </extensions>
      </trkpt>
      <trkpt lat="42.5084244646131992340087890625" lon="19.91881839931011199951171875">
        <ele>1944.800048828125</ele>
        <time>2026-06-17T10:44:13.000Z</time>
        <extensions>
          <ns3:TrackPointExtension>
            <ns3:atemp>23.0</ns3:atemp>
          </ns3:TrackPointExtension>
        </extensions>
      </trkpt>
      <trkpt lat="42.50841281376779079437255859375" lon="19.91881060414016246795654296875">
        <ele>1945</ele>
        <time>2026-06-17T10:44:14.000Z</time>
        <extensions>
          <ns3:TrackPointExtension>
            <ns3:atemp>23.0</ns3:atemp>
          </ns3:TrackPointExtension>
        </extensions>
      </trkpt>
      <trkpt lat="42.508398480713367462158203125" lon="19.918806664645671844482421875">
        <ele>1945.199951171875</ele>
        <time>2026-06-17T10:44:15.000Z</time>
        <extensions>
          <ns3:TrackPointExtension>
            <ns3:atemp>23.0</ns3:atemp>
          </ns3:TrackPointExtension>
        </extensions>
      </trkpt>
      <trkpt lat="42.5083849020302295684814453125" lon="19.9188011325895786285400390625">
        <ele>1945.4000244140625</ele>
        <time>2026-06-17T10:44:16.000Z</time>
        <extensions>
          <ns3:TrackPointExtension>
            <ns3:atemp>23.0</ns3:atemp>
          </ns3:TrackPointExtension>
        </extensions>
      </trkpt>
      <trkpt lat="42.50836721621453762054443359375" lon="19.918794929981231689453125">
        <ele>1945.5999755859375</ele>
        <time>2026-06-17T10:44:17.000Z</time>
        <extensions>
          <ns3:TrackPointExtension>
            <ns3:atemp>24.0</ns3:atemp>
          </ns3:TrackPointExtension>
        </extensions>
      </trkpt>
      <trkpt lat="42.5083480216562747955322265625" lon="19.91879182867705821990966796875">
        <ele>1946</ele>
        <time>2026-06-17T10:44:18.000Z</time>
        <extensions>
          <ns3:TrackPointExtension>
            <ns3:atemp>23.0</ns3:atemp>
          </ns3:TrackPointExtension>
        </extensions>
      </trkpt>
      <trkpt lat="42.5083329342305660247802734375" lon="19.9187863804399967193603515625">
        <ele>1946.4000244140625</ele>
        <time>2026-06-17T10:44:19.000Z</time>
        <extensions>
          <ns3:TrackPointExtension>
            <ns3:atemp>24.0</ns3:atemp>
          </ns3:TrackPointExtension>
        </extensions>
      </trkpt>
      <trkpt lat="42.50831709243357181549072265625" lon="19.91878093220293521881103515625">
        <ele>1946.5999755859375</ele>
        <time>2026-06-17T10:44:20.000Z</time>
        <extensions>
          <ns3:TrackPointExtension>
            <ns3:atemp>24.0</ns3:atemp>
          </ns3:TrackPointExtension>
        </extensions>
      </trkpt>
      <trkpt lat="42.5083014182746410369873046875" lon="19.9187763221561908721923828125">
        <ele>1947</ele>
        <time>2026-06-17T10:44:21.000Z</time>
        <extensions>
          <ns3:TrackPointExtension>
            <ns3:atemp>24.0</ns3:atemp>
          </ns3:TrackPointExtension>
        </extensions>
      </trkpt>
      <trkpt lat="42.5082836486399173736572265625" lon="19.91877187974750995635986328125">
        <ele>1947.199951171875</ele>
        <time>2026-06-17T10:44:22.000Z</time>
        <extensions>
          <ns3:TrackPointExtension>
            <ns3:atemp>24.0</ns3:atemp>
          </ns3:TrackPointExtension>
        </extensions>
      </trkpt>
      <trkpt lat="42.5082692317664623260498046875" lon="19.91876869462430477142333984375">
        <ele>1947.4000244140625</ele>
        <time>2026-06-17T10:44:23.000Z</time>
        <extensions>
          <ns3:TrackPointExtension>
            <ns3:atemp>24.0</ns3:atemp>
          </ns3:TrackPointExtension>
        </extensions>
      </trkpt>
      <trkpt lat="42.50825338996946811676025390625" lon="19.91876500658690929412841796875">
        <ele>1947.800048828125</ele>
        <time>2026-06-17T10:44:24.000Z</time>
        <extensions>
          <ns3:TrackPointExtension>
            <ns3:atemp>24.0</ns3:atemp>
          </ns3:TrackPointExtension>
        </extensions>
      </trkpt>
      <trkpt lat="42.50823578797280788421630859375" lon="19.91875729523599147796630859375">
        <ele>1948</ele>
        <time>2026-06-17T10:44:25.000Z</time>
        <extensions>
          <ns3:TrackPointExtension>
            <ns3:atemp>24.0</ns3:atemp>
          </ns3:TrackPointExtension>
        </extensions>
      </trkpt>
      <trkpt lat="42.508217431604862213134765625" lon="19.91874874569475650787353515625">
        <ele>1948.4000244140625</ele>
        <time>2026-06-17T10:44:26.000Z</time>
        <extensions>
          <ns3:TrackPointExtension>
            <ns3:atemp>24.0</ns3:atemp>
          </ns3:TrackPointExtension>
        </extensions>
      </trkpt>
      <trkpt lat="42.50820276327431201934814453125" lon="19.918737597763538360595703125">
        <ele>1948.5999755859375</ele>
        <time>2026-06-17T10:44:27.000Z</time>
        <extensions>
          <ns3:TrackPointExtension>
            <ns3:atemp>24.0</ns3:atemp>
          </ns3:TrackPointExtension>
        </extensions>
      </trkpt>
      <trkpt lat="42.508189938962459564208984375" lon="19.9187230132520198822021484375">
        <ele>1948.800048828125</ele>
        <time>2026-06-17T10:44:28.000Z</time>
        <extensions>
          <ns3:TrackPointExtension>
            <ns3:atemp>24.0</ns3:atemp>
          </ns3:TrackPointExtension>
        </extensions>
      </trkpt>
      <trkpt lat="42.50818633474409580230712890625" lon="19.9187045730650424957275390625">
        <ele>1949.199951171875</ele>
        <time>2026-06-17T10:44:29.000Z</time>
        <extensions>
          <ns3:TrackPointExtension>
            <ns3:atemp>24.0</ns3:atemp>
          </ns3:TrackPointExtension>
        </extensions>
      </trkpt>
      <trkpt lat="42.50817619264125823974609375" lon="19.91868688724935054779052734375">
        <ele>1949.4000244140625</ele>
        <time>2026-06-17T10:44:30.000Z</time>
        <extensions>
          <ns3:TrackPointExtension>
            <ns3:atemp>24.0</ns3:atemp>
          </ns3:TrackPointExtension>
        </extensions>
      </trkpt>
      <trkpt lat="42.508168481290340423583984375" lon="19.91867096163332462310791015625">
        <ele>1949.4000244140625</ele>
        <time>2026-06-17T10:44:31.000Z</time>
        <extensions>
          <ns3:TrackPointExtension>
            <ns3:atemp>24.0</ns3:atemp>
          </ns3:TrackPointExtension>
        </extensions>
      </trkpt>
      <trkpt lat="42.5081622786819934844970703125" lon="19.9186502583324909210205078125">
        <ele>1949.5999755859375</ele>
        <time>2026-06-17T10:44:32.000Z</time>
        <extensions>
          <ns3:TrackPointExtension>
            <ns3:atemp>24.0</ns3:atemp>
          </ns3:TrackPointExtension>
        </extensions>
      </trkpt>
      <trkpt lat="42.50815900973975658416748046875" lon="19.9186257831752300262451171875">
        <ele>1949.800048828125</ele>
        <time>2026-06-17T10:44:33.000Z</time>
        <extensions>
          <ns3:TrackPointExtension>
            <ns3:atemp>24.0</ns3:atemp>
          </ns3:TrackPointExtension>
        </extensions>
      </trkpt>
      <trkpt lat="42.50815196894109249114990234375" lon="19.91860072128474712371826171875">
        <ele>1949.800048828125</ele>
        <time>2026-06-17T10:44:34.000Z</time>
        <extensions>
          <ns3:TrackPointExtension>
            <ns3:atemp>24.0</ns3:atemp>
          </ns3:TrackPointExtension>
        </extensions>
      </trkpt>
      <trkpt lat="42.50814400613307952880859375" lon="19.91857389919459819793701171875">
        <ele>1950</ele>
        <time>2026-06-17T10:44:35.000Z</time>
        <extensions>
          <ns3:TrackPointExtension>
            <ns3:atemp>24.0</ns3:atemp>
          </ns3:TrackPointExtension>
        </extensions>
      </trkpt>
      <trkpt lat="42.5081374682486057281494140625" lon="19.91854858584702014923095703125">
        <ele>1950</ele>
        <time>2026-06-17T10:44:36.000Z</time>
        <extensions>
          <ns3:TrackPointExtension>
            <ns3:atemp>24.0</ns3:atemp>
          </ns3:TrackPointExtension>
        </extensions>
      </trkpt>
      <trkpt lat="42.5081270746886730194091796875" lon="19.9185208417475223541259765625">
        <ele>1950</ele>
        <time>2026-06-17T10:44:37.000Z</time>
        <extensions>
          <ns3:TrackPointExtension>
            <ns3:atemp>24.0</ns3:atemp>
          </ns3:TrackPointExtension>
        </extensions>
      </trkpt>
      <trkpt lat="42.50811693258583545684814453125" lon="19.91848354227840900421142578125">
        <ele>1950.199951171875</ele>
        <time>2026-06-17T10:44:38.000Z</time>
        <extensions>
          <ns3:TrackPointExtension>
            <ns3:atemp>24.0</ns3:atemp>
          </ns3:TrackPointExtension>
        </extensions>
      </trkpt>
      <trkpt lat="42.50810503028333187103271484375" lon="19.9184474162757396697998046875">
        <ele>1950.4000244140625</ele>
        <time>2026-06-17T10:44:39.000Z</time>
        <extensions>
          <ns3:TrackPointExtension>
            <ns3:atemp>24.0</ns3:atemp>
          </ns3:TrackPointExtension>
        </extensions>
      </trkpt>
      <trkpt lat="42.5081002525985240936279296875" lon="19.91841246373951435089111328125">
        <ele>1950.5999755859375</ele>
        <time>2026-06-17T10:44:40.000Z</time>
        <extensions>
          <ns3:TrackPointExtension>
            <ns3:atemp>24.0</ns3:atemp>
          </ns3:TrackPointExtension>
        </extensions>
      </trkpt>
      <trkpt lat="42.5080982409417629241943359375" lon="19.91837692447006702423095703125">
        <ele>1951</ele>
        <time>2026-06-17T10:44:41.000Z</time>
        <extensions>
          <ns3:TrackPointExtension>
            <ns3:atemp>24.0</ns3:atemp>
          </ns3:TrackPointExtension>
        </extensions>
      </trkpt>
      <trkpt lat="42.5080923736095428466796875" lon="19.91834490559995174407958984375">
        <ele>1951.199951171875</ele>
        <time>2026-06-17T10:44:42.000Z</time>
        <extensions>
          <ns3:TrackPointExtension>
            <ns3:atemp>24.0</ns3:atemp>
          </ns3:TrackPointExtension>
        </extensions>
      </trkpt>
      <trkpt lat="42.508086003363132476806640625" lon="19.9183129705488681793212890625">
        <ele>1951.4000244140625</ele>
        <time>2026-06-17T10:44:43.000Z</time>
        <extensions>
          <ns3:TrackPointExtension>
            <ns3:atemp>24.0</ns3:atemp>
          </ns3:TrackPointExtension>
        </extensions>
      </trkpt>
      <trkpt lat="42.50807854346930980682373046875" lon="19.91828321479260921478271484375">
        <ele>1951.5999755859375</ele>
        <time>2026-06-17T10:44:44.000Z</time>
        <extensions>
          <ns3:TrackPointExtension>
            <ns3:atemp>24.0</ns3:atemp>
          </ns3:TrackPointExtension>
        </extensions>
      </trkpt>
      <trkpt lat="42.50807753764092922210693359375" lon="19.91825203411281108856201171875">
        <ele>1951.800048828125</ele>
        <time>2026-06-17T10:44:45.000Z</time>
        <extensions>
          <ns3:TrackPointExtension>
            <ns3:atemp>24.0</ns3:atemp>
          </ns3:TrackPointExtension>
        </extensions>
      </trkpt>
      <trkpt lat="42.50807133503258228302001953125" lon="19.91822294890880584716796875">
        <ele>1952</ele>
        <time>2026-06-17T10:44:46.000Z</time>
        <extensions>
          <ns3:TrackPointExtension>
            <ns3:atemp>24.0</ns3:atemp>
          </ns3:TrackPointExtension>
        </extensions>
      </trkpt>
      <trkpt lat="42.50806647352874279022216796875" lon="19.91819470189511775970458984375">
        <ele>1952.199951171875</ele>
        <time>2026-06-17T10:44:47.000Z</time>
        <extensions>
          <ns3:TrackPointExtension>
            <ns3:atemp>24.0</ns3:atemp>
          </ns3:TrackPointExtension>
        </extensions>
      </trkpt>
      <trkpt lat="42.50806261785328388214111328125" lon="19.91816268302500247955322265625">
        <ele>1952.5999755859375</ele>
        <time>2026-06-17T10:44:48.000Z</time>
        <extensions>
          <ns3:TrackPointExtension>
            <ns3:atemp>24.0</ns3:atemp>
          </ns3:TrackPointExtension>
        </extensions>
      </trkpt>
      <trkpt lat="42.50805675052106380462646484375" lon="19.91812965832650661468505859375">
        <ele>1952.800048828125</ele>
        <time>2026-06-17T10:44:49.000Z</time>
        <extensions>
          <ns3:TrackPointExtension>
            <ns3:atemp>24.0</ns3:atemp>
          </ns3:TrackPointExtension>
        </extensions>
      </trkpt>
      <trkpt lat="42.50805255956947803497314453125" lon="19.91810065694153308868408203125">
        <ele>1953.199951171875</ele>
        <time>2026-06-17T10:44:50.000Z</time>
        <extensions>
          <ns3:TrackPointExtension>
            <ns3:atemp>24.0</ns3:atemp>
          </ns3:TrackPointExtension>
        </extensions>
      </trkpt>
      <trkpt lat="42.50804937444627285003662109375" lon="19.9180678837001323699951171875">
        <ele>1953.4000244140625</ele>
        <time>2026-06-17T10:44:51.000Z</time>
        <extensions>
          <ns3:TrackPointExtension>
            <ns3:atemp>24.0</ns3:atemp>
          </ns3:TrackPointExtension>
        </extensions>
      </trkpt>
      <trkpt lat="42.508053146302700042724609375" lon="19.91803796030580997467041015625">
        <ele>1953.800048828125</ele>
        <time>2026-06-17T10:44:52.000Z</time>
        <extensions>
          <ns3:TrackPointExtension>
            <ns3:atemp>24.0</ns3:atemp>
          </ns3:TrackPointExtension>
        </extensions>
      </trkpt>
      <trkpt lat="42.50805373303592205047607421875" lon="19.9180071987211704254150390625">
        <ele>1954.199951171875</ele>
        <time>2026-06-17T10:44:53.000Z</time>
        <extensions>
          <ns3:TrackPointExtension>
            <ns3:atemp>24.0</ns3:atemp>
          </ns3:TrackPointExtension>
        </extensions>
      </trkpt>
      <trkpt lat="42.5080523081123828887939453125" lon="19.9179755151271820068359375">
        <ele>1954.4000244140625</ele>
        <time>2026-06-17T10:44:54.000Z</time>
        <extensions>
          <ns3:TrackPointExtension>
            <ns3:atemp>24.0</ns3:atemp>
          </ns3:TrackPointExtension>
        </extensions>
      </trkpt>
      <trkpt lat="42.5080496259033679962158203125" lon="19.917941652238368988037109375">
        <ele>1954.800048828125</ele>
        <time>2026-06-17T10:44:55.000Z</time>
        <extensions>
          <ns3:TrackPointExtension>
            <ns3:atemp>24.0</ns3:atemp>
          </ns3:TrackPointExtension>
        </extensions>
      </trkpt>
      <trkpt lat="42.50805574469268321990966796875" lon="19.91791315376758575439453125">
        <ele>1955.199951171875</ele>
        <time>2026-06-17T10:44:56.000Z</time>
        <extensions>
          <ns3:TrackPointExtension>
            <ns3:atemp>24.0</ns3:atemp>
          </ns3:TrackPointExtension>
        </extensions>
      </trkpt>
      <trkpt lat="42.50805658288300037384033203125" lon="19.91788608022034168243408203125">
        <ele>1955.4000244140625</ele>
        <time>2026-06-17T10:44:57.000Z</time>
        <extensions>
          <ns3:TrackPointExtension>
            <ns3:atemp>24.0</ns3:atemp>
          </ns3:TrackPointExtension>
        </extensions>
      </trkpt>
      <trkpt lat="42.50805079936981201171875" lon="19.91786059923470020294189453125">
        <ele>1955.5999755859375</ele>
        <time>2026-06-17T10:44:58.000Z</time>
        <extensions>
          <ns3:TrackPointExtension>
            <ns3:atemp>24.0</ns3:atemp>
          </ns3:TrackPointExtension>
        </extensions>
      </trkpt>
      <trkpt lat="42.5080496259033679962158203125" lon="19.9178305082023143768310546875">
        <ele>1955.800048828125</ele>
        <time>2026-06-17T10:44:59.000Z</time>
        <extensions>
          <ns3:TrackPointExtension>
            <ns3:atemp>24.0</ns3:atemp>
          </ns3:TrackPointExtension>
        </extensions>
      </trkpt>
      <trkpt lat="42.5080486200749874114990234375" lon="19.917798154056072235107421875">
        <ele>1956</ele>
        <time>2026-06-17T10:45:00.000Z</time>
        <extensions>
          <ns3:TrackPointExtension>
            <ns3:atemp>24.0</ns3:atemp>
          </ns3:TrackPointExtension>
        </extensions>
      </trkpt>
      <trkpt lat="42.5080467760562896728515625" lon="19.917763285338878631591796875">
        <ele>1956</ele>
        <time>2026-06-17T10:45:01.000Z</time>
        <extensions>
          <ns3:TrackPointExtension>
            <ns3:atemp>24.0</ns3:atemp>
          </ns3:TrackPointExtension>
        </extensions>
      </trkpt>
      <trkpt lat="42.5080472789704799652099609375" lon="19.917706958949565887451171875">
        <ele>1955.800048828125</ele>
        <time>2026-06-17T10:45:02.000Z</time>
        <extensions>
          <ns3:TrackPointExtension>
            <ns3:atemp>24.0</ns3:atemp>
          </ns3:TrackPointExtension>
        </extensions>
      </trkpt>
      <trkpt lat="42.50804920680820941925048828125" lon="19.91763898171484470367431640625">
        <ele>1955.5999755859375</ele>
        <time>2026-06-17T10:45:03.000Z</time>
        <extensions>
          <ns3:TrackPointExtension>
            <ns3:atemp>24.0</ns3:atemp>
          </ns3:TrackPointExtension>
        </extensions>
      </trkpt>
      <trkpt lat="42.50806462951004505157470703125" lon="19.91757058538496494293212890625">
        <ele>1955.199951171875</ele>
        <time>2026-06-17T10:45:04.000Z</time>
        <extensions>
          <ns3:TrackPointExtension>
            <ns3:atemp>24.0</ns3:atemp>
          </ns3:TrackPointExtension>
        </extensions>
      </trkpt>
      <trkpt lat="42.5080821476876735687255859375" lon="19.91750679910182952880859375">
        <ele>1955</ele>
        <time>2026-06-17T10:45:05.000Z</time>
        <extensions>
          <ns3:TrackPointExtension>
            <ns3:atemp>24.0</ns3:atemp>
          </ns3:TrackPointExtension>
        </extensions>
      </trkpt>
      <trkpt lat="42.50809228979051113128662109375" lon="19.91744644939899444580078125">
        <ele>1954.5999755859375</ele>
        <time>2026-06-17T10:45:06.000Z</time>
        <extensions>
          <ns3:TrackPointExtension>
            <ns3:atemp>24.0</ns3:atemp>
          </ns3:TrackPointExtension>
        </extensions>
      </trkpt>
      <trkpt lat="42.50809329561889171600341796875" lon="19.91739540360867977142333984375">
        <ele>1954.4000244140625</ele>
        <time>2026-06-17T10:45:07.000Z</time>
        <extensions>
          <ns3:TrackPointExtension>
            <ns3:atemp>24.0</ns3:atemp>
          </ns3:TrackPointExtension>
        </extensions>
      </trkpt>
      <trkpt lat="42.50809681601822376251220703125" lon="19.9173648096621036529541015625">
        <ele>1954.4000244140625</ele>
        <time>2026-06-17T10:45:08.000Z</time>
        <extensions>
          <ns3:TrackPointExtension>
            <ns3:atemp>24.0</ns3:atemp>
          </ns3:TrackPointExtension>
        </extensions>
      </trkpt>
      <trkpt lat="42.508106119930744171142578125" lon="19.91734980605542659759521484375">
        <ele>1954.5999755859375</ele>
        <time>2026-06-17T10:45:09.000Z</time>
        <extensions>
          <ns3:TrackPointExtension>
            <ns3:atemp>24.0</ns3:atemp>
          </ns3:TrackPointExtension>
        </extensions>
      </trkpt>
      <trkpt lat="42.5081029348075389862060546875" lon="19.91734494455158710479736328125">
        <ele>1954.4000244140625</ele>
        <time>2026-06-17T10:45:10.000Z</time>
        <extensions>
          <ns3:TrackPointExtension>
            <ns3:atemp>24.0</ns3:atemp>
          </ns3:TrackPointExtension>
        </extensions>
      </trkpt>
      <trkpt lat="42.50810301862657070159912109375" lon="19.917344860732555389404296875">
        <ele>1954.4000244140625</ele>
        <time>2026-06-17T10:45:11.000Z</time>
        <extensions>
          <ns3:TrackPointExtension>
            <ns3:atemp>24.0</ns3:atemp>
          </ns3:TrackPointExtension>
        </extensions>
      </trkpt>
      <trkpt lat="42.50810419209301471710205078125" lon="19.91734075360000133514404296875">
        <ele>1954.5999755859375</ele>
        <time>2026-06-17T10:45:12.000Z</time>
        <extensions>
          <ns3:TrackPointExtension>
            <ns3:atemp>24.0</ns3:atemp>
          </ns3:TrackPointExtension>
        </extensions>
      </trkpt>
      <trkpt lat="42.50810419209301471710205078125" lon="19.91734075360000133514404296875">
        <ele>1954.5999755859375</ele>
        <time>2026-06-17T10:45:13.000Z</time>
        <extensions>
          <ns3:TrackPointExtension>
            <ns3:atemp>24.0</ns3:atemp>
          </ns3:TrackPointExtension>
        </extensions>
      </trkpt>
      <trkpt lat="42.50810419209301471710205078125" lon="19.91734075360000133514404296875">
        <ele>1954.4000244140625</ele>
        <time>2026-06-17T10:45:14.000Z</time>
        <extensions>
          <ns3:TrackPointExtension>
            <ns3:atemp>24.0</ns3:atemp>
          </ns3:TrackPointExtension>
        </extensions>
      </trkpt>
      <trkpt lat="42.50810419209301471710205078125" lon="19.91734075360000133514404296875">
        <ele>1954.4000244140625</ele>
        <time>2026-06-17T10:45:15.000Z</time>
        <extensions>
          <ns3:TrackPointExtension>
            <ns3:atemp>24.0</ns3:atemp>
          </ns3:TrackPointExtension>
        </extensions>
      </trkpt>
      <trkpt lat="42.50810419209301471710205078125" lon="19.91734075360000133514404296875">
        <ele>1954.199951171875</ele>
        <time>2026-06-17T10:45:16.000Z</time>
        <extensions>
          <ns3:TrackPointExtension>
            <ns3:atemp>24.0</ns3:atemp>
          </ns3:TrackPointExtension>
        </extensions>
      </trkpt>
      <trkpt lat="42.50810419209301471710205078125" lon="19.91734075360000133514404296875">
        <ele>1954</ele>
        <time>2026-06-17T10:45:17.000Z</time>
        <extensions>
          <ns3:TrackPointExtension>
            <ns3:atemp>24.0</ns3:atemp>
          </ns3:TrackPointExtension>
        </extensions>
      </trkpt>
      <trkpt lat="42.50810419209301471710205078125" lon="19.91734075360000133514404296875">
        <ele>1953.5999755859375</ele>
        <time>2026-06-17T10:45:18.000Z</time>
        <extensions>
          <ns3:TrackPointExtension>
            <ns3:atemp>24.0</ns3:atemp>
          </ns3:TrackPointExtension>
        </extensions>
      </trkpt>
      <trkpt lat="42.50810419209301471710205078125" lon="19.91734075360000133514404296875">
        <ele>1953.4000244140625</ele>
        <time>2026-06-17T10:45:19.000Z</time>
        <extensions>
          <ns3:TrackPointExtension>
            <ns3:atemp>24.0</ns3:atemp>
          </ns3:TrackPointExtension>
        </extensions>
      </trkpt>
      <trkpt lat="42.50810419209301471710205078125" lon="19.91734075360000133514404296875">
        <ele>1953.199951171875</ele>
        <time>2026-06-17T10:45:20.000Z</time>
        <extensions>
          <ns3:TrackPointExtension>
            <ns3:atemp>24.0</ns3:atemp>
          </ns3:TrackPointExtension>
        </extensions>
      </trkpt>
      <trkpt lat="42.50810419209301471710205078125" lon="19.91734075360000133514404296875">
        <ele>1953.199951171875</ele>
        <time>2026-06-17T10:45:21.000Z</time>
        <extensions>
          <ns3:TrackPointExtension>
            <ns3:atemp>24.0</ns3:atemp>
          </ns3:TrackPointExtension>
        </extensions>
      </trkpt>
      <trkpt lat="42.50810419209301471710205078125" lon="19.91734075360000133514404296875">
        <ele>1953</ele>
        <time>2026-06-17T10:45:22.000Z</time>
        <extensions>
          <ns3:TrackPointExtension>
            <ns3:atemp>24.0</ns3:atemp>
          </ns3:TrackPointExtension>
        </extensions>
      </trkpt>
      <trkpt lat="42.50810419209301471710205078125" lon="19.91734075360000133514404296875">
        <ele>1953</ele>
        <time>2026-06-17T10:45:23.000Z</time>
        <extensions>
          <ns3:TrackPointExtension>
            <ns3:atemp>24.0</ns3:atemp>
          </ns3:TrackPointExtension>
        </extensions>
      </trkpt>
      <trkpt lat="42.50810419209301471710205078125" lon="19.91734075360000133514404296875">
        <ele>1953</ele>
        <time>2026-06-17T10:45:24.000Z</time>
        <extensions>
          <ns3:TrackPointExtension>
            <ns3:atemp>24.0</ns3:atemp>
          </ns3:TrackPointExtension>
        </extensions>
      </trkpt>
      <trkpt lat="42.50810419209301471710205078125" lon="19.91734075360000133514404296875">
        <ele>1953</ele>
        <time>2026-06-17T10:45:25.000Z</time>
        <extensions>
          <ns3:TrackPointExtension>
            <ns3:atemp>24.0</ns3:atemp>
          </ns3:TrackPointExtension>
        </extensions>
      </trkpt>
      <trkpt lat="42.50810419209301471710205078125" lon="19.91734075360000133514404296875">
        <ele>1953</ele>
        <time>2026-06-17T10:45:26.000Z</time>
        <extensions>
          <ns3:TrackPointExtension>
            <ns3:atemp>24.0</ns3:atemp>
          </ns3:TrackPointExtension>
        </extensions>
      </trkpt>
      <trkpt lat="42.50810419209301471710205078125" lon="19.91734075360000133514404296875">
        <ele>1952.800048828125</ele>
        <time>2026-06-17T10:45:27.000Z</time>
        <extensions>
          <ns3:TrackPointExtension>
            <ns3:atemp>24.0</ns3:atemp>
          </ns3:TrackPointExtension>
        </extensions>
      </trkpt>
      <trkpt lat="42.50810419209301471710205078125" lon="19.91734075360000133514404296875">
        <ele>1952.800048828125</ele>
        <time>2026-06-17T10:45:28.000Z</time>
        <extensions>
          <ns3:TrackPointExtension>
            <ns3:atemp>24.0</ns3:atemp>
          </ns3:TrackPointExtension>
        </extensions>
      </trkpt>
      <trkpt lat="42.50810419209301471710205078125" lon="19.91734075360000133514404296875">
        <ele>1952.800048828125</ele>
        <time>2026-06-17T10:45:29.000Z</time>
        <extensions>
          <ns3:TrackPointExtension>
            <ns3:atemp>24.0</ns3:atemp>
          </ns3:TrackPointExtension>
        </extensions>
      </trkpt>
      <trkpt lat="42.50810419209301471710205078125" lon="19.91734075360000133514404296875">
        <ele>1952.800048828125</ele>
        <time>2026-06-17T10:45:30.000Z</time>
        <extensions>
          <ns3:TrackPointExtension>
            <ns3:atemp>24.0</ns3:atemp>
          </ns3:TrackPointExtension>
        </extensions>
      </trkpt>
      <trkpt lat="42.50810419209301471710205078125" lon="19.91734075360000133514404296875">
        <ele>1952.5999755859375</ele>
        <time>2026-06-17T10:45:31.000Z</time>
        <extensions>
          <ns3:TrackPointExtension>
            <ns3:atemp>24.0</ns3:atemp>
          </ns3:TrackPointExtension>
        </extensions>
      </trkpt>
      <trkpt lat="42.50810419209301471710205078125" lon="19.91734075360000133514404296875">
        <ele>1952.5999755859375</ele>
        <time>2026-06-17T10:45:32.000Z</time>
        <extensions>
          <ns3:TrackPointExtension>
            <ns3:atemp>24.0</ns3:atemp>
          </ns3:TrackPointExtension>
        </extensions>
      </trkpt>
      <trkpt lat="42.50810419209301471710205078125" lon="19.91734075360000133514404296875">
        <ele>1952.5999755859375</ele>
        <time>2026-06-17T10:45:33.000Z</time>
        <extensions>
          <ns3:TrackPointExtension>
            <ns3:atemp>24.0</ns3:atemp>
          </ns3:TrackPointExtension>
        </extensions>
      </trkpt>
      <trkpt lat="42.50810419209301471710205078125" lon="19.91734075360000133514404296875">
        <ele>1952.4000244140625</ele>
        <time>2026-06-17T10:45:34.000Z</time>
        <extensions>
          <ns3:TrackPointExtension>
            <ns3:atemp>24.0</ns3:atemp>
          </ns3:TrackPointExtension>
        </extensions>
      </trkpt>
      <trkpt lat="42.50810419209301471710205078125" lon="19.91734075360000133514404296875">
        <ele>1952.4000244140625</ele>
        <time>2026-06-17T10:45:35.000Z</time>
        <extensions>
          <ns3:TrackPointExtension>
            <ns3:atemp>24.0</ns3:atemp>
          </ns3:TrackPointExtension>
        </extensions>
      </trkpt>
      <trkpt lat="42.50810419209301471710205078125" lon="19.91734075360000133514404296875">
        <ele>1952.4000244140625</ele>
        <time>2026-06-17T10:45:36.000Z</time>
        <extensions>
          <ns3:TrackPointExtension>
            <ns3:atemp>24.0</ns3:atemp>
          </ns3:TrackPointExtension>
        </extensions>
      </trkpt>
      <trkpt lat="42.50810419209301471710205078125" lon="19.91734075360000133514404296875">
        <ele>1952.4000244140625</ele>
        <time>2026-06-17T10:45:37.000Z</time>
        <extensions>
          <ns3:TrackPointExtension>
            <ns3:atemp>24.0</ns3:atemp>
          </ns3:TrackPointExtension>
        </extensions>
      </trkpt>
      <trkpt lat="42.50810419209301471710205078125" lon="19.91734075360000133514404296875">
        <ele>1952.4000244140625</ele>
        <time>2026-06-17T10:45:38.000Z</time>
        <extensions>
          <ns3:TrackPointExtension>
            <ns3:atemp>24.0</ns3:atemp>
          </ns3:TrackPointExtension>
        </extensions>
      </trkpt>
      <trkpt lat="42.50810419209301471710205078125" lon="19.91734075360000133514404296875">
        <ele>1952.199951171875</ele>
        <time>2026-06-17T10:45:39.000Z</time>
        <extensions>
          <ns3:TrackPointExtension>
            <ns3:atemp>24.0</ns3:atemp>
          </ns3:TrackPointExtension>
        </extensions>
      </trkpt>
      <trkpt lat="42.50810419209301471710205078125" lon="19.91734075360000133514404296875">
        <ele>1952.199951171875</ele>
        <time>2026-06-17T10:45:40.000Z</time>
        <extensions>
          <ns3:TrackPointExtension>
            <ns3:atemp>24.0</ns3:atemp>
          </ns3:TrackPointExtension>
        </extensions>
      </trkpt>
      <trkpt lat="42.50810419209301471710205078125" lon="19.91734075360000133514404296875">
        <ele>1952.199951171875</ele>
        <time>2026-06-17T10:45:41.000Z</time>
        <extensions>
          <ns3:TrackPointExtension>
            <ns3:atemp>24.0</ns3:atemp>
          </ns3:TrackPointExtension>
        </extensions>
      </trkpt>
      <trkpt lat="42.50810419209301471710205078125" lon="19.91734075360000133514404296875">
        <ele>1952</ele>
        <time>2026-06-17T10:45:42.000Z</time>
        <extensions>
          <ns3:TrackPointExtension>
            <ns3:atemp>24.0</ns3:atemp>
          </ns3:TrackPointExtension>
        </extensions>
      </trkpt>
      <trkpt lat="42.50810419209301471710205078125" lon="19.91734075360000133514404296875">
        <ele>1952</ele>
        <time>2026-06-17T10:45:43.000Z</time>
        <extensions>
          <ns3:TrackPointExtension>
            <ns3:atemp>24.0</ns3:atemp>
          </ns3:TrackPointExtension>
        </extensions>
      </trkpt>
      <trkpt lat="42.50810419209301471710205078125" lon="19.91734075360000133514404296875">
        <ele>1952</ele>
        <time>2026-06-17T10:45:44.000Z</time>
        <extensions>
          <ns3:TrackPointExtension>
            <ns3:atemp>24.0</ns3:atemp>
          </ns3:TrackPointExtension>
        </extensions>
      </trkpt>
      <trkpt lat="42.50810419209301471710205078125" lon="19.91734075360000133514404296875">
        <ele>1952</ele>
        <time>2026-06-17T10:45:45.000Z</time>
        <extensions>
          <ns3:TrackPointExtension>
            <ns3:atemp>24.0</ns3:atemp>
          </ns3:TrackPointExtension>
        </extensions>
      </trkpt>
      <trkpt lat="42.50810419209301471710205078125" lon="19.91734075360000133514404296875">
        <ele>1951.800048828125</ele>
        <time>2026-06-17T10:45:46.000Z</time>
        <extensions>
          <ns3:TrackPointExtension>
            <ns3:atemp>24.0</ns3:atemp>
          </ns3:TrackPointExtension>
        </extensions>
      </trkpt>
      <trkpt lat="42.50810419209301471710205078125" lon="19.91734075360000133514404296875">
        <ele>1951.800048828125</ele>
        <time>2026-06-17T10:45:47.000Z</time>
        <extensions>
          <ns3:TrackPointExtension>
            <ns3:atemp>24.0</ns3:atemp>
          </ns3:TrackPointExtension>
        </extensions>
      </trkpt>
      <trkpt lat="42.50810419209301471710205078125" lon="19.91734075360000133514404296875">
        <ele>1951.800048828125</ele>
        <time>2026-06-17T10:45:48.000Z</time>
        <extensions>
          <ns3:TrackPointExtension>
            <ns3:atemp>24.0</ns3:atemp>
          </ns3:TrackPointExtension>
        </extensions>
      </trkpt>
      <trkpt lat="42.50810419209301471710205078125" lon="19.91734075360000133514404296875">
        <ele>1951.800048828125</ele>
        <time>2026-06-17T10:45:49.000Z</time>
        <extensions>
          <ns3:TrackPointExtension>
            <ns3:atemp>24.0</ns3:atemp>
          </ns3:TrackPointExtension>
        </extensions>
      </trkpt>
      <trkpt lat="42.50810419209301471710205078125" lon="19.91734075360000133514404296875">
        <ele>1951.800048828125</ele>
        <time>2026-06-17T10:45:50.000Z</time>
        <extensions>
          <ns3:TrackPointExtension>
            <ns3:atemp>24.0</ns3:atemp>
          </ns3:TrackPointExtension>
        </extensions>
      </trkpt>
      <trkpt lat="42.50810419209301471710205078125" lon="19.91734075360000133514404296875">
        <ele>1951.5999755859375</ele>
        <time>2026-06-17T10:45:51.000Z</time>
        <extensions>
          <ns3:TrackPointExtension>
            <ns3:atemp>24.0</ns3:atemp>
          </ns3:TrackPointExtension>
        </extensions>
      </trkpt>
      <trkpt lat="42.50810419209301471710205078125" lon="19.91734075360000133514404296875">
        <ele>1951.5999755859375</ele>
        <time>2026-06-17T10:45:52.000Z</time>
        <extensions>
          <ns3:TrackPointExtension>
            <ns3:atemp>24.0</ns3:atemp>
          </ns3:TrackPointExtension>
        </extensions>
      </trkpt>
      <trkpt lat="42.50810419209301471710205078125" lon="19.91734075360000133514404296875">
        <ele>1951.5999755859375</ele>
        <time>2026-06-17T10:45:53.000Z</time>
        <extensions>
          <ns3:TrackPointExtension>
            <ns3:atemp>24.0</ns3:atemp>
          </ns3:TrackPointExtension>
        </extensions>
      </trkpt>
      <trkpt lat="42.50810419209301471710205078125" lon="19.91734075360000133514404296875">
        <ele>1951.5999755859375</ele>
        <time>2026-06-17T10:45:54.000Z</time>
        <extensions>
          <ns3:TrackPointExtension>
            <ns3:atemp>24.0</ns3:atemp>
          </ns3:TrackPointExtension>
        </extensions>
      </trkpt>
      <trkpt lat="42.50810419209301471710205078125" lon="19.91734075360000133514404296875">
        <ele>1951.4000244140625</ele>
        <time>2026-06-17T10:45:55.000Z</time>
        <extensions>
          <ns3:TrackPointExtension>
            <ns3:atemp>24.0</ns3:atemp>
          </ns3:TrackPointExtension>
        </extensions>
      </trkpt>
      <trkpt lat="42.50810419209301471710205078125" lon="19.91734075360000133514404296875">
        <ele>1951.4000244140625</ele>
        <time>2026-06-17T10:45:56.000Z</time>
        <extensions>
          <ns3:TrackPointExtension>
            <ns3:atemp>24.0</ns3:atemp>
          </ns3:TrackPointExtension>
        </extensions>
      </trkpt>
      <trkpt lat="42.50810419209301471710205078125" lon="19.91734075360000133514404296875">
        <ele>1951.4000244140625</ele>
        <time>2026-06-17T10:45:57.000Z</time>
        <extensions>
          <ns3:TrackPointExtension>
            <ns3:atemp>24.0</ns3:atemp>
          </ns3:TrackPointExtension>
        </extensions>
      </trkpt>
      <trkpt lat="42.50810419209301471710205078125" lon="19.91734075360000133514404296875">
        <ele>1951.4000244140625</ele>
        <time>2026-06-17T10:45:58.000Z</time>
        <extensions>
          <ns3:TrackPointExtension>
            <ns3:atemp>24.0</ns3:atemp>
          </ns3:TrackPointExtension>
        </extensions>
      </trkpt>
      <trkpt lat="42.50810419209301471710205078125" lon="19.91734075360000133514404296875">
        <ele>1951.4000244140625</ele>
        <time>2026-06-17T10:45:59.000Z</time>
        <extensions>
          <ns3:TrackPointExtension>
            <ns3:atemp>24.0</ns3:atemp>
          </ns3:TrackPointExtension>
        </extensions>
      </trkpt>
      <trkpt lat="42.50810419209301471710205078125" lon="19.91734075360000133514404296875">
        <ele>1951.4000244140625</ele>
        <time>2026-06-17T10:46:00.000Z</time>
        <extensions>
          <ns3:TrackPointExtension>
            <ns3:atemp>24.0</ns3:atemp>
          </ns3:TrackPointExtension>
        </extensions>
      </trkpt>
      <trkpt lat="42.50810419209301471710205078125" lon="19.91734075360000133514404296875">
        <ele>1951.4000244140625</ele>
        <time>2026-06-17T10:46:01.000Z</time>
        <extensions>
          <ns3:TrackPointExtension>
            <ns3:atemp>24.0</ns3:atemp>
          </ns3:TrackPointExtension>
        </extensions>
      </trkpt>
      <trkpt lat="42.50810419209301471710205078125" lon="19.91734075360000133514404296875">
        <ele>1951.4000244140625</ele>
        <time>2026-06-17T10:46:02.000Z</time>
        <extensions>
          <ns3:TrackPointExtension>
            <ns3:atemp>24.0</ns3:atemp>
          </ns3:TrackPointExtension>
        </extensions>
      </trkpt>
      <trkpt lat="42.50810419209301471710205078125" lon="19.91734075360000133514404296875">
        <ele>1951.4000244140625</ele>
        <time>2026-06-17T10:46:03.000Z</time>
        <extensions>
          <ns3:TrackPointExtension>
            <ns3:atemp>24.0</ns3:atemp>
          </ns3:TrackPointExtension>
        </extensions>
      </trkpt>
      <trkpt lat="42.50810419209301471710205078125" lon="19.91734075360000133514404296875">
        <ele>1951.4000244140625</ele>
        <time>2026-06-17T10:46:04.000Z</time>
        <extensions>
          <ns3:TrackPointExtension>
            <ns3:atemp>24.0</ns3:atemp>
          </ns3:TrackPointExtension>
        </extensions>
      </trkpt>
      <trkpt lat="42.50810419209301471710205078125" lon="19.91734075360000133514404296875">
        <ele>1951.4000244140625</ele>
        <time>2026-06-17T10:46:05.000Z</time>
        <extensions>
          <ns3:TrackPointExtension>
            <ns3:atemp>24.0</ns3:atemp>
          </ns3:TrackPointExtension>
        </extensions>
      </trkpt>
      <trkpt lat="42.50810419209301471710205078125" lon="19.91734075360000133514404296875">
        <ele>1951.4000244140625</ele>
        <time>2026-06-17T10:46:06.000Z</time>
        <extensions>
          <ns3:TrackPointExtension>
            <ns3:atemp>24.0</ns3:atemp>
          </ns3:TrackPointExtension>
        </extensions>
      </trkpt>
      <trkpt lat="42.50810419209301471710205078125" lon="19.91734075360000133514404296875">
        <ele>1951.4000244140625</ele>
        <time>2026-06-17T10:46:07.000Z</time>
        <extensions>
          <ns3:TrackPointExtension>
            <ns3:atemp>24.0</ns3:atemp>
          </ns3:TrackPointExtension>
        </extensions>
      </trkpt>
      <trkpt lat="42.50810419209301471710205078125" lon="19.91734075360000133514404296875">
        <ele>1951.4000244140625</ele>
        <time>2026-06-17T10:46:08.000Z</time>
        <extensions>
          <ns3:TrackPointExtension>
            <ns3:atemp>24.0</ns3:atemp>
          </ns3:TrackPointExtension>
        </extensions>
      </trkpt>
      <trkpt lat="42.50810419209301471710205078125" lon="19.91734075360000133514404296875">
        <ele>1951.199951171875</ele>
        <time>2026-06-17T10:46:09.000Z</time>
        <extensions>
          <ns3:TrackPointExtension>
            <ns3:atemp>24.0</ns3:atemp>
          </ns3:TrackPointExtension>
        </extensions>
      </trkpt>
      <trkpt lat="42.50810419209301471710205078125" lon="19.91734075360000133514404296875">
        <ele>1951.199951171875</ele>
        <time>2026-06-17T10:46:10.000Z</time>
        <extensions>
          <ns3:TrackPointExtension>
            <ns3:atemp>24.0</ns3:atemp>
          </ns3:TrackPointExtension>
        </extensions>
      </trkpt>
      <trkpt lat="42.50810419209301471710205078125" lon="19.91734075360000133514404296875">
        <ele>1951.199951171875</ele>
        <time>2026-06-17T10:46:11.000Z</time>
        <extensions>
          <ns3:TrackPointExtension>
            <ns3:atemp>24.0</ns3:atemp>
          </ns3:TrackPointExtension>
        </extensions>
      </trkpt>
      <trkpt lat="42.50810419209301471710205078125" lon="19.91734075360000133514404296875">
        <ele>1951.199951171875</ele>
        <time>2026-06-17T10:46:12.000Z</time>
        <extensions>
          <ns3:TrackPointExtension>
            <ns3:atemp>24.0</ns3:atemp>
          </ns3:TrackPointExtension>
        </extensions>
      </trkpt>
      <trkpt lat="42.50810419209301471710205078125" lon="19.91734075360000133514404296875">
        <ele>1951.199951171875</ele>
        <time>2026-06-17T10:46:13.000Z</time>
        <extensions>
          <ns3:TrackPointExtension>
            <ns3:atemp>24.0</ns3:atemp>
          </ns3:TrackPointExtension>
        </extensions>
      </trkpt>
      <trkpt lat="42.50810419209301471710205078125" lon="19.91734075360000133514404296875">
        <ele>1951.199951171875</ele>
        <time>2026-06-17T10:46:14.000Z</time>
        <extensions>
          <ns3:TrackPointExtension>
            <ns3:atemp>24.0</ns3:atemp>
          </ns3:TrackPointExtension>
        </extensions>
      </trkpt>
      <trkpt lat="42.50810419209301471710205078125" lon="19.91734075360000133514404296875">
        <ele>1951.199951171875</ele>
        <time>2026-06-17T10:46:15.000Z</time>
        <extensions>
          <ns3:TrackPointExtension>
            <ns3:atemp>24.0</ns3:atemp>
          </ns3:TrackPointExtension>
        </extensions>
      </trkpt>
      <trkpt lat="42.50810419209301471710205078125" lon="19.91734075360000133514404296875">
        <ele>1951.199951171875</ele>
        <time>2026-06-17T10:46:16.000Z</time>
        <extensions>
          <ns3:TrackPointExtension>
            <ns3:atemp>24.0</ns3:atemp>
          </ns3:TrackPointExtension>
        </extensions>
      </trkpt>
      <trkpt lat="42.50810419209301471710205078125" lon="19.91734075360000133514404296875">
        <ele>1951.199951171875</ele>
        <time>2026-06-17T10:46:17.000Z</time>
        <extensions>
          <ns3:TrackPointExtension>
            <ns3:atemp>24.0</ns3:atemp>
          </ns3:TrackPointExtension>
        </extensions>
      </trkpt>
      <trkpt lat="42.50810419209301471710205078125" lon="19.91734075360000133514404296875">
        <ele>1951.199951171875</ele>
        <time>2026-06-17T10:46:18.000Z</time>
        <extensions>
          <ns3:TrackPointExtension>
            <ns3:atemp>24.0</ns3:atemp>
          </ns3:TrackPointExtension>
        </extensions>
      </trkpt>
      <trkpt lat="42.50810419209301471710205078125" lon="19.91734075360000133514404296875">
        <ele>1951.199951171875</ele>
        <time>2026-06-17T10:46:19.000Z</time>
        <extensions>
          <ns3:TrackPointExtension>
            <ns3:atemp>24.0</ns3:atemp>
          </ns3:TrackPointExtension>
        </extensions>
      </trkpt>
      <trkpt lat="42.50810419209301471710205078125" lon="19.91734075360000133514404296875">
        <ele>1951.199951171875</ele>
        <time>2026-06-17T10:46:20.000Z</time>
        <extensions>
          <ns3:TrackPointExtension>
            <ns3:atemp>24.0</ns3:atemp>
          </ns3:TrackPointExtension>
        </extensions>
      </trkpt>
      <trkpt lat="42.50810419209301471710205078125" lon="19.91734075360000133514404296875">
        <ele>1951.199951171875</ele>
        <time>2026-06-17T10:46:21.000Z</time>
        <extensions>
          <ns3:TrackPointExtension>
            <ns3:atemp>24.0</ns3:atemp>
          </ns3:TrackPointExtension>
        </extensions>
      </trkpt>
      <trkpt lat="42.50810419209301471710205078125" lon="19.91734075360000133514404296875">
        <ele>1951.199951171875</ele>
        <time>2026-06-17T10:46:22.000Z</time>
        <extensions>
          <ns3:TrackPointExtension>
            <ns3:atemp>24.0</ns3:atemp>
          </ns3:TrackPointExtension>
        </extensions>
      </trkpt>
      <trkpt lat="42.50810419209301471710205078125" lon="19.91734075360000133514404296875">
        <ele>1951.199951171875</ele>
        <time>2026-06-17T10:46:23.000Z</time>
        <extensions>
          <ns3:TrackPointExtension>
            <ns3:atemp>24.0</ns3:atemp>
          </ns3:TrackPointExtension>
        </extensions>
      </trkpt>
      <trkpt lat="42.50810419209301471710205078125" lon="19.91734075360000133514404296875">
        <ele>1951.199951171875</ele>
        <time>2026-06-17T10:46:24.000Z</time>
        <extensions>
          <ns3:TrackPointExtension>
            <ns3:atemp>24.0</ns3:atemp>
          </ns3:TrackPointExtension>
        </extensions>
      </trkpt>
      <trkpt lat="42.50810268335044384002685546875" lon="19.9173363111913204193115234375">
        <ele>1951</ele>
        <time>2026-06-17T10:46:25.000Z</time>
        <extensions>
          <ns3:TrackPointExtension>
            <ns3:atemp>24.0</ns3:atemp>
          </ns3:TrackPointExtension>
        </extensions>
      </trkpt>
      <trkpt lat="42.50809581018984317779541015625" lon="19.91732315160334110260009765625">
        <ele>1950.800048828125</ele>
        <time>2026-06-17T10:46:26.000Z</time>
        <extensions>
          <ns3:TrackPointExtension>
            <ns3:atemp>24.0</ns3:atemp>
          </ns3:TrackPointExtension>
        </extensions>
      </trkpt>
      <trkpt lat="42.508094720542430877685546875" lon="19.91731795482337474822998046875">
        <ele>1950.5999755859375</ele>
        <time>2026-06-17T10:46:27.000Z</time>
        <extensions>
          <ns3:TrackPointExtension>
            <ns3:atemp>24.0</ns3:atemp>
          </ns3:TrackPointExtension>
        </extensions>
      </trkpt>
      <trkpt lat="42.508094720542430877685546875" lon="19.9173178710043430328369140625">
        <ele>1950.199951171875</ele>
        <time>2026-06-17T10:46:28.000Z</time>
        <extensions>
          <ns3:TrackPointExtension>
            <ns3:atemp>24.0</ns3:atemp>
          </ns3:TrackPointExtension>
        </extensions>
      </trkpt>
      <trkpt lat="42.508094720542430877685546875" lon="19.9173178710043430328369140625">
        <ele>1950</ele>
        <time>2026-06-17T10:46:29.000Z</time>
        <extensions>
          <ns3:TrackPointExtension>
            <ns3:atemp>24.0</ns3:atemp>
          </ns3:TrackPointExtension>
        </extensions>
      </trkpt>
      <trkpt lat="42.508094720542430877685546875" lon="19.9173178710043430328369140625">
        <ele>1949.800048828125</ele>
        <time>2026-06-17T10:46:30.000Z</time>
        <extensions>
          <ns3:TrackPointExtension>
            <ns3:atemp>24.0</ns3:atemp>
          </ns3:TrackPointExtension>
        </extensions>
      </trkpt>
      <trkpt lat="42.508094720542430877685546875" lon="19.9173178710043430328369140625">
        <ele>1949.800048828125</ele>
        <time>2026-06-17T10:46:31.000Z</time>
        <extensions>
          <ns3:TrackPointExtension>
            <ns3:atemp>24.0</ns3:atemp>
          </ns3:TrackPointExtension>
        </extensions>
      </trkpt>
      <trkpt lat="42.508094720542430877685546875" lon="19.9173178710043430328369140625">
        <ele>1949.800048828125</ele>
        <time>2026-06-17T10:46:32.000Z</time>
        <extensions>
          <ns3:TrackPointExtension>
            <ns3:atemp>24.0</ns3:atemp>
          </ns3:TrackPointExtension>
        </extensions>
      </trkpt>
      <trkpt lat="42.508094720542430877685546875" lon="19.9173178710043430328369140625">
        <ele>1949.800048828125</ele>
        <time>2026-06-17T10:46:33.000Z</time>
        <extensions>
          <ns3:TrackPointExtension>
            <ns3:atemp>24.0</ns3:atemp>
          </ns3:TrackPointExtension>
        </extensions>
      </trkpt>
      <trkpt lat="42.508094720542430877685546875" lon="19.9173178710043430328369140625">
        <ele>1949.800048828125</ele>
        <time>2026-06-17T10:46:34.000Z</time>
        <extensions>
          <ns3:TrackPointExtension>
            <ns3:atemp>24.0</ns3:atemp>
          </ns3:TrackPointExtension>
        </extensions>
      </trkpt>
      <trkpt lat="42.508094720542430877685546875" lon="19.9173178710043430328369140625">
        <ele>1949.800048828125</ele>
        <time>2026-06-17T10:46:35.000Z</time>
        <extensions>
          <ns3:TrackPointExtension>
            <ns3:atemp>24.0</ns3:atemp>
          </ns3:TrackPointExtension>
        </extensions>
      </trkpt>
      <trkpt lat="42.508094720542430877685546875" lon="19.9173178710043430328369140625">
        <ele>1949.800048828125</ele>
        <time>2026-06-17T10:46:36.000Z</time>
        <extensions>
          <ns3:TrackPointExtension>
            <ns3:atemp>24.0</ns3:atemp>
          </ns3:TrackPointExtension>
        </extensions>
      </trkpt>
      <trkpt lat="42.508094720542430877685546875" lon="19.9173178710043430328369140625">
        <ele>1949.800048828125</ele>
        <time>2026-06-17T10:46:37.000Z</time>
        <extensions>
          <ns3:TrackPointExtension>
            <ns3:atemp>24.0</ns3:atemp>
          </ns3:TrackPointExtension>
        </extensions>
      </trkpt>
      <trkpt lat="42.508094720542430877685546875" lon="19.9173178710043430328369140625">
        <ele>1949.800048828125</ele>
        <time>2026-06-17T10:46:38.000Z</time>
        <extensions>
          <ns3:TrackPointExtension>
            <ns3:atemp>24.0</ns3:atemp>
          </ns3:TrackPointExtension>
        </extensions>
      </trkpt>
      <trkpt lat="42.508094720542430877685546875" lon="19.9173178710043430328369140625">
        <ele>1949.800048828125</ele>
        <time>2026-06-17T10:46:39.000Z</time>
        <extensions>
          <ns3:TrackPointExtension>
            <ns3:atemp>24.0</ns3:atemp>
          </ns3:TrackPointExtension>
        </extensions>
      </trkpt>
      <trkpt lat="42.508094720542430877685546875" lon="19.9173178710043430328369140625">
        <ele>1949.800048828125</ele>
        <time>2026-06-17T10:46:40.000Z</time>
        <extensions>
          <ns3:TrackPointExtension>
            <ns3:atemp>24.0</ns3:atemp>
          </ns3:TrackPointExtension>
        </extensions>
      </trkpt>
      <trkpt lat="42.508094720542430877685546875" lon="19.9173178710043430328369140625">
        <ele>1949.800048828125</ele>
        <time>2026-06-17T10:46:41.000Z</time>
        <extensions>
          <ns3:TrackPointExtension>
            <ns3:atemp>24.0</ns3:atemp>
          </ns3:TrackPointExtension>
        </extensions>
      </trkpt>
      <trkpt lat="42.508094720542430877685546875" lon="19.9173178710043430328369140625">
        <ele>1949.800048828125</ele>
        <time>2026-06-17T10:46:42.000Z</time>
        <extensions>
          <ns3:TrackPointExtension>
            <ns3:atemp>24.0</ns3:atemp>
          </ns3:TrackPointExtension>
        </extensions>
      </trkpt>
      <trkpt lat="42.508094720542430877685546875" lon="19.9173178710043430328369140625">
        <ele>1949.800048828125</ele>
        <time>2026-06-17T10:46:43.000Z</time>
        <extensions>
          <ns3:TrackPointExtension>
            <ns3:atemp>24.0</ns3:atemp>
          </ns3:TrackPointExtension>
        </extensions>
      </trkpt>
      <trkpt lat="42.508094720542430877685546875" lon="19.9173178710043430328369140625">
        <ele>1949.5999755859375</ele>
        <time>2026-06-17T10:46:44.000Z</time>
        <extensions>
          <ns3:TrackPointExtension>
            <ns3:atemp>24.0</ns3:atemp>
          </ns3:TrackPointExtension>
        </extensions>
      </trkpt>
      <trkpt lat="42.508094720542430877685546875" lon="19.9173178710043430328369140625">
        <ele>1949.5999755859375</ele>
        <time>2026-06-17T10:46:45.000Z</time>
        <extensions>
          <ns3:TrackPointExtension>
            <ns3:atemp>24.0</ns3:atemp>
          </ns3:TrackPointExtension>
        </extensions>
      </trkpt>
      <trkpt lat="42.508094720542430877685546875" lon="19.9173178710043430328369140625">
        <ele>1949.5999755859375</ele>
        <time>2026-06-17T10:46:46.000Z</time>
        <extensions>
          <ns3:TrackPointExtension>
            <ns3:atemp>24.0</ns3:atemp>
          </ns3:TrackPointExtension>
        </extensions>
      </trkpt>
      <trkpt lat="42.508094720542430877685546875" lon="19.9173178710043430328369140625">
        <ele>1949.5999755859375</ele>
        <time>2026-06-17T10:46:47.000Z</time>
        <extensions>
          <ns3:TrackPointExtension>
            <ns3:atemp>24.0</ns3:atemp>
          </ns3:TrackPointExtension>
        </extensions>
      </trkpt>
      <trkpt lat="42.508094720542430877685546875" lon="19.9173178710043430328369140625">
        <ele>1949.5999755859375</ele>
        <time>2026-06-17T10:46:48.000Z</time>
        <extensions>
          <ns3:TrackPointExtension>
            <ns3:atemp>24.0</ns3:atemp>
          </ns3:TrackPointExtension>
        </extensions>
      </trkpt>
      <trkpt lat="42.508094720542430877685546875" lon="19.9173178710043430328369140625">
        <ele>1949.5999755859375</ele>
        <time>2026-06-17T10:46:49.000Z</time>
        <extensions>
          <ns3:TrackPointExtension>
            <ns3:atemp>24.0</ns3:atemp>
          </ns3:TrackPointExtension>
        </extensions>
      </trkpt>
      <trkpt lat="42.508094720542430877685546875" lon="19.9173178710043430328369140625">
        <ele>1949.5999755859375</ele>
        <time>2026-06-17T10:46:50.000Z</time>
        <extensions>
          <ns3:TrackPointExtension>
            <ns3:atemp>24.0</ns3:atemp>
          </ns3:TrackPointExtension>
        </extensions>
      </trkpt>
      <trkpt lat="42.508094720542430877685546875" lon="19.9173178710043430328369140625">
        <ele>1949.5999755859375</ele>
        <time>2026-06-17T10:46:51.000Z</time>
        <extensions>
          <ns3:TrackPointExtension>
            <ns3:atemp>24.0</ns3:atemp>
          </ns3:TrackPointExtension>
        </extensions>
      </trkpt>
      <trkpt lat="42.508094720542430877685546875" lon="19.9173178710043430328369140625">
        <ele>1949.4000244140625</ele>
        <time>2026-06-17T10:46:52.000Z</time>
        <extensions>
          <ns3:TrackPointExtension>
            <ns3:atemp>24.0</ns3:atemp>
          </ns3:TrackPointExtension>
        </extensions>
      </trkpt>
      <trkpt lat="42.508094720542430877685546875" lon="19.9173178710043430328369140625">
        <ele>1949.4000244140625</ele>
        <time>2026-06-17T10:46:53.000Z</time>
        <extensions>
          <ns3:TrackPointExtension>
            <ns3:atemp>24.0</ns3:atemp>
          </ns3:TrackPointExtension>
        </extensions>
      </trkpt>
      <trkpt lat="42.508094720542430877685546875" lon="19.9173178710043430328369140625">
        <ele>1949.5999755859375</ele>
        <time>2026-06-17T10:46:54.000Z</time>
        <extensions>
          <ns3:TrackPointExtension>
            <ns3:atemp>24.0</ns3:atemp>
          </ns3:TrackPointExtension>
        </extensions>
      </trkpt>
      <trkpt lat="42.508094720542430877685546875" lon="19.9173178710043430328369140625">
        <ele>1949.5999755859375</ele>
        <time>2026-06-17T10:46:55.000Z</time>
        <extensions>
          <ns3:TrackPointExtension>
            <ns3:atemp>24.0</ns3:atemp>
          </ns3:TrackPointExtension>
        </extensions>
      </trkpt>
      <trkpt lat="42.508094720542430877685546875" lon="19.9173178710043430328369140625">
        <ele>1949.5999755859375</ele>
        <time>2026-06-17T10:46:56.000Z</time>
        <extensions>
          <ns3:TrackPointExtension>
            <ns3:atemp>24.0</ns3:atemp>
          </ns3:TrackPointExtension>
        </extensions>
      </trkpt>
      <trkpt lat="42.508094720542430877685546875" lon="19.9173178710043430328369140625">
        <ele>1949.5999755859375</ele>
        <time>2026-06-17T10:46:57.000Z</time>
        <extensions>
          <ns3:TrackPointExtension>
            <ns3:atemp>24.0</ns3:atemp>
          </ns3:TrackPointExtension>
        </extensions>
      </trkpt>
      <trkpt lat="42.508094720542430877685546875" lon="19.9173178710043430328369140625">
        <ele>1949.4000244140625</ele>
        <time>2026-06-17T10:46:58.000Z</time>
        <extensions>
          <ns3:TrackPointExtension>
            <ns3:atemp>24.0</ns3:atemp>
          </ns3:TrackPointExtension>
        </extensions>
      </trkpt>
      <trkpt lat="42.508094720542430877685546875" lon="19.9173178710043430328369140625">
        <ele>1949.4000244140625</ele>
        <time>2026-06-17T10:46:59.000Z</time>
        <extensions>
          <ns3:TrackPointExtension>
            <ns3:atemp>24.0</ns3:atemp>
          </ns3:TrackPointExtension>
        </extensions>
      </trkpt>
      <trkpt lat="42.508094720542430877685546875" lon="19.9173178710043430328369140625">
        <ele>1949.5999755859375</ele>
        <time>2026-06-17T10:47:00.000Z</time>
        <extensions>
          <ns3:TrackPointExtension>
            <ns3:atemp>24.0</ns3:atemp>
          </ns3:TrackPointExtension>
        </extensions>
      </trkpt>
      <trkpt lat="42.508094720542430877685546875" lon="19.9173178710043430328369140625">
        <ele>1949.5999755859375</ele>
        <time>2026-06-17T10:47:01.000Z</time>
        <extensions>
          <ns3:TrackPointExtension>
            <ns3:atemp>24.0</ns3:atemp>
          </ns3:TrackPointExtension>
        </extensions>
      </trkpt>
      <trkpt lat="42.508094720542430877685546875" lon="19.9173178710043430328369140625">
        <ele>1949.5999755859375</ele>
        <time>2026-06-17T10:47:02.000Z</time>
        <extensions>
          <ns3:TrackPointExtension>
            <ns3:atemp>24.0</ns3:atemp>
          </ns3:TrackPointExtension>
        </extensions>
      </trkpt>
      <trkpt lat="42.508094720542430877685546875" lon="19.9173178710043430328369140625">
        <ele>1949.5999755859375</ele>
        <time>2026-06-17T10:47:03.000Z</time>
        <extensions>
          <ns3:TrackPointExtension>
            <ns3:atemp>24.0</ns3:atemp>
          </ns3:TrackPointExtension>
        </extensions>
      </trkpt>
      <trkpt lat="42.508094720542430877685546875" lon="19.9173178710043430328369140625">
        <ele>1949.5999755859375</ele>
        <time>2026-06-17T10:47:04.000Z</time>
        <extensions>
          <ns3:TrackPointExtension>
            <ns3:atemp>24.0</ns3:atemp>
          </ns3:TrackPointExtension>
        </extensions>
      </trkpt>
      <trkpt lat="42.508094720542430877685546875" lon="19.9173178710043430328369140625">
        <ele>1949.4000244140625</ele>
        <time>2026-06-17T10:47:05.000Z</time>
        <extensions>
          <ns3:TrackPointExtension>
            <ns3:atemp>24.0</ns3:atemp>
          </ns3:TrackPointExtension>
        </extensions>
      </trkpt>
      <trkpt lat="42.508094720542430877685546875" lon="19.9173178710043430328369140625">
        <ele>1949.4000244140625</ele>
        <time>2026-06-17T10:47:06.000Z</time>
        <extensions>
          <ns3:TrackPointExtension>
            <ns3:atemp>24.0</ns3:atemp>
          </ns3:TrackPointExtension>
        </extensions>
      </trkpt>
      <trkpt lat="42.508094720542430877685546875" lon="19.9173178710043430328369140625">
        <ele>1949.4000244140625</ele>
        <time>2026-06-17T10:47:07.000Z</time>
        <extensions>
          <ns3:TrackPointExtension>
            <ns3:atemp>24.0</ns3:atemp>
          </ns3:TrackPointExtension>
        </extensions>
      </trkpt>
      <trkpt lat="42.508094720542430877685546875" lon="19.9173178710043430328369140625">
        <ele>1949.4000244140625</ele>
        <time>2026-06-17T10:47:08.000Z</time>
        <extensions>
          <ns3:TrackPointExtension>
            <ns3:atemp>24.0</ns3:atemp>
          </ns3:TrackPointExtension>
        </extensions>
      </trkpt>
      <trkpt lat="42.508094720542430877685546875" lon="19.9173178710043430328369140625">
        <ele>1949.5999755859375</ele>
        <time>2026-06-17T10:47:09.000Z</time>
        <extensions>
          <ns3:TrackPointExtension>
            <ns3:atemp>24.0</ns3:atemp>
          </ns3:TrackPointExtension>
        </extensions>
      </trkpt>
      <trkpt lat="42.508094720542430877685546875" lon="19.9173178710043430328369140625">
        <ele>1949.5999755859375</ele>
        <time>2026-06-17T10:47:10.000Z</time>
        <extensions>
          <ns3:TrackPointExtension>
            <ns3:atemp>24.0</ns3:atemp>
          </ns3:TrackPointExtension>
        </extensions>
      </trkpt>
      <trkpt lat="42.5080950558185577392578125" lon="19.91732181049883365631103515625">
        <ele>1949.4000244140625</ele>
        <time>2026-06-17T10:47:11.000Z</time>
        <extensions>
          <ns3:TrackPointExtension>
            <ns3:atemp>24.0</ns3:atemp>
          </ns3:TrackPointExtension>
        </extensions>
      </trkpt>
      <trkpt lat="42.508082650601863861083984375" lon="19.91730974055826663970947265625">
        <ele>1949.4000244140625</ele>
        <time>2026-06-17T10:47:12.000Z</time>
        <extensions>
          <ns3:TrackPointExtension>
            <ns3:atemp>24.0</ns3:atemp>
          </ns3:TrackPointExtension>
        </extensions>
      </trkpt>
      <trkpt lat="42.50806697644293308258056640625" lon="19.917283169925212860107421875">
        <ele>1949</ele>
        <time>2026-06-17T10:47:13.000Z</time>
        <extensions>
          <ns3:TrackPointExtension>
            <ns3:atemp>24.0</ns3:atemp>
          </ns3:TrackPointExtension>
        </extensions>
      </trkpt>
      <trkpt lat="42.50805188901722431182861328125" lon="19.91724821738898754119873046875">
        <ele>1948.800048828125</ele>
        <time>2026-06-17T10:47:14.000Z</time>
        <extensions>
          <ns3:TrackPointExtension>
            <ns3:atemp>24.0</ns3:atemp>
          </ns3:TrackPointExtension>
        </extensions>
      </trkpt>
      <trkpt lat="42.5080399028956890106201171875" lon="19.917208068072795867919921875">
        <ele>1948.4000244140625</ele>
        <time>2026-06-17T10:47:15.000Z</time>
        <extensions>
          <ns3:TrackPointExtension>
            <ns3:atemp>24.0</ns3:atemp>
          </ns3:TrackPointExtension>
        </extensions>
      </trkpt>
      <trkpt lat="42.5080221332609653472900390625" lon="19.91715953685343265533447265625">
        <ele>1948.199951171875</ele>
        <time>2026-06-17T10:47:16.000Z</time>
        <extensions>
          <ns3:TrackPointExtension>
            <ns3:atemp>24.0</ns3:atemp>
          </ns3:TrackPointExtension>
        </extensions>
      </trkpt>
      <trkpt lat="42.50799522735178470611572265625" lon="19.91712366230785846710205078125">
        <ele>1948</ele>
        <time>2026-06-17T10:47:17.000Z</time>
        <extensions>
          <ns3:TrackPointExtension>
            <ns3:atemp>24.0</ns3:atemp>
          </ns3:TrackPointExtension>
        </extensions>
      </trkpt>
      <trkpt lat="42.50796371139585971832275390625" lon="19.91708762012422084808349609375">
        <ele>1947.800048828125</ele>
        <time>2026-06-17T10:47:18.000Z</time>
        <extensions>
          <ns3:TrackPointExtension>
            <ns3:atemp>24.0</ns3:atemp>
          </ns3:TrackPointExtension>
        </extensions>
      </trkpt>
      <trkpt lat="42.50793152488768100738525390625" lon="19.91705710999667644500732421875">
        <ele>1947.5999755859375</ele>
        <time>2026-06-17T10:47:19.000Z</time>
        <extensions>
          <ns3:TrackPointExtension>
            <ns3:atemp>24.0</ns3:atemp>
          </ns3:TrackPointExtension>
        </extensions>
      </trkpt>
      <trkpt lat="42.507903277873992919921875" lon="19.91701486520469188690185546875">
        <ele>1947.199951171875</ele>
        <time>2026-06-17T10:47:20.000Z</time>
        <extensions>
          <ns3:TrackPointExtension>
            <ns3:atemp>24.0</ns3:atemp>
          </ns3:TrackPointExtension>
        </extensions>
      </trkpt>
      <trkpt lat="42.5078896991908550262451171875" lon="19.916963316500186920166015625">
        <ele>1947.199951171875</ele>
        <time>2026-06-17T10:47:21.000Z</time>
        <extensions>
          <ns3:TrackPointExtension>
            <ns3:atemp>24.0</ns3:atemp>
          </ns3:TrackPointExtension>
        </extensions>
      </trkpt>
      <trkpt lat="42.50788123346865177154541015625" lon="19.91692501120269298553466796875">
        <ele>1947</ele>
        <time>2026-06-17T10:47:22.000Z</time>
        <extensions>
          <ns3:TrackPointExtension>
            <ns3:atemp>24.0</ns3:atemp>
          </ns3:TrackPointExtension>
        </extensions>
      </trkpt>
      <trkpt lat="42.50787469558417797088623046875" lon="19.9168991111218929290771484375">
        <ele>1947.199951171875</ele>
        <time>2026-06-17T10:47:23.000Z</time>
        <extensions>
          <ns3:TrackPointExtension>
            <ns3:atemp>24.0</ns3:atemp>
          </ns3:TrackPointExtension>
        </extensions>
      </trkpt>
      <trkpt lat="42.50786681659519672393798828125" lon="19.91688050329685211181640625">
        <ele>1947.4000244140625</ele>
        <time>2026-06-17T10:47:24.000Z</time>
        <extensions>
          <ns3:TrackPointExtension>
            <ns3:atemp>24.0</ns3:atemp>
          </ns3:TrackPointExtension>
        </extensions>
      </trkpt>
      <trkpt lat="42.50786631368100643157958984375" lon="19.916862733662128448486328125">
        <ele>1947.800048828125</ele>
        <time>2026-06-17T10:47:25.000Z</time>
        <extensions>
          <ns3:TrackPointExtension>
            <ns3:atemp>24.0</ns3:atemp>
          </ns3:TrackPointExtension>
        </extensions>
      </trkpt>
      <trkpt lat="42.50786715187132358551025390625" lon="19.9168451316654682159423828125">
        <ele>1948.4000244140625</ele>
        <time>2026-06-17T10:47:26.000Z</time>
        <extensions>
          <ns3:TrackPointExtension>
            <ns3:atemp>24.0</ns3:atemp>
          </ns3:TrackPointExtension>
        </extensions>
      </trkpt>
      <trkpt lat="42.50786731950938701629638671875" lon="19.9168206565082073211669921875">
        <ele>1948.800048828125</ele>
        <time>2026-06-17T10:47:27.000Z</time>
        <extensions>
          <ns3:TrackPointExtension>
            <ns3:atemp>24.0</ns3:atemp>
          </ns3:TrackPointExtension>
        </extensions>
      </trkpt>
      <trkpt lat="42.50786614604294300079345703125" lon="19.91679609753191471099853515625">
        <ele>1949</ele>
        <time>2026-06-17T10:47:28.000Z</time>
        <extensions>
          <ns3:TrackPointExtension>
            <ns3:atemp>24.0</ns3:atemp>
          </ns3:TrackPointExtension>
        </extensions>
      </trkpt>
      <trkpt lat="42.50786262564361095428466796875" lon="19.91677145473659038543701171875">
        <ele>1949.199951171875</ele>
        <time>2026-06-17T10:47:29.000Z</time>
        <extensions>
          <ns3:TrackPointExtension>
            <ns3:atemp>24.0</ns3:atemp>
          </ns3:TrackPointExtension>
        </extensions>
      </trkpt>
      <trkpt lat="42.5078605301678180694580078125" lon="19.91674748249351978302001953125">
        <ele>1949.4000244140625</ele>
        <time>2026-06-17T10:47:30.000Z</time>
        <extensions>
          <ns3:TrackPointExtension>
            <ns3:atemp>24.0</ns3:atemp>
          </ns3:TrackPointExtension>
        </extensions>
      </trkpt>
      <trkpt lat="42.50785977579653263092041015625" lon="19.91672627627849578857421875">
        <ele>1949.5999755859375</ele>
        <time>2026-06-17T10:47:31.000Z</time>
        <extensions>
          <ns3:TrackPointExtension>
            <ns3:atemp>24.0</ns3:atemp>
          </ns3:TrackPointExtension>
        </extensions>
      </trkpt>
      <trkpt lat="42.507860697805881500244140625" lon="19.916713871061801910400390625">
        <ele>1949.800048828125</ele>
        <time>2026-06-17T10:47:32.000Z</time>
        <extensions>
          <ns3:TrackPointExtension>
            <ns3:atemp>24.0</ns3:atemp>
          </ns3:TrackPointExtension>
        </extensions>
      </trkpt>
      <trkpt lat="42.50785893760621547698974609375" lon="19.9167170561850070953369140625">
        <ele>1950.800048828125</ele>
        <time>2026-06-17T10:47:33.000Z</time>
        <extensions>
          <ns3:TrackPointExtension>
            <ns3:atemp>24.0</ns3:atemp>
          </ns3:TrackPointExtension>
        </extensions>
      </trkpt>
      <trkpt lat="42.50785893760621547698974609375" lon="19.9167170561850070953369140625">
        <ele>1950.800048828125</ele>
        <time>2026-06-17T10:47:34.000Z</time>
        <extensions>
          <ns3:TrackPointExtension>
            <ns3:atemp>24.0</ns3:atemp>
          </ns3:TrackPointExtension>
        </extensions>
      </trkpt>
      <trkpt lat="42.50785893760621547698974609375" lon="19.9167170561850070953369140625">
        <ele>1950.800048828125</ele>
        <time>2026-06-17T10:47:35.000Z</time>
        <extensions>
          <ns3:TrackPointExtension>
            <ns3:atemp>24.0</ns3:atemp>
          </ns3:TrackPointExtension>
        </extensions>
      </trkpt>
      <trkpt lat="42.50785893760621547698974609375" lon="19.9167170561850070953369140625">
        <ele>1950.800048828125</ele>
        <time>2026-06-17T10:47:36.000Z</time>
        <extensions>
          <ns3:TrackPointExtension>
            <ns3:atemp>24.0</ns3:atemp>
          </ns3:TrackPointExtension>
        </extensions>
      </trkpt>
      <trkpt lat="42.50785893760621547698974609375" lon="19.9167170561850070953369140625">
        <ele>1950.800048828125</ele>
        <time>2026-06-17T10:47:37.000Z</time>
        <extensions>
          <ns3:TrackPointExtension>
            <ns3:atemp>24.0</ns3:atemp>
          </ns3:TrackPointExtension>
        </extensions>
      </trkpt>
      <trkpt lat="42.50785893760621547698974609375" lon="19.9167170561850070953369140625">
        <ele>1950.800048828125</ele>
        <time>2026-06-17T10:47:38.000Z</time>
        <extensions>
          <ns3:TrackPointExtension>
            <ns3:atemp>24.0</ns3:atemp>
          </ns3:TrackPointExtension>
        </extensions>
      </trkpt>
      <trkpt lat="42.50785893760621547698974609375" lon="19.9167170561850070953369140625">
        <ele>1950.800048828125</ele>
        <time>2026-06-17T10:47:39.000Z</time>
        <extensions>
          <ns3:TrackPointExtension>
            <ns3:atemp>24.0</ns3:atemp>
          </ns3:TrackPointExtension>
        </extensions>
      </trkpt>
      <trkpt lat="42.50785893760621547698974609375" lon="19.9167170561850070953369140625">
        <ele>1950.800048828125</ele>
        <time>2026-06-17T10:47:40.000Z</time>
        <extensions>
          <ns3:TrackPointExtension>
            <ns3:atemp>24.0</ns3:atemp>
          </ns3:TrackPointExtension>
        </extensions>
      </trkpt>
      <trkpt lat="42.50785893760621547698974609375" lon="19.9167170561850070953369140625">
        <ele>1950.800048828125</ele>
        <time>2026-06-17T10:47:41.000Z</time>
        <extensions>
          <ns3:TrackPointExtension>
            <ns3:atemp>24.0</ns3:atemp>
          </ns3:TrackPointExtension>
        </extensions>
      </trkpt>
      <trkpt lat="42.50785893760621547698974609375" lon="19.9167170561850070953369140625">
        <ele>1950.800048828125</ele>
        <time>2026-06-17T10:47:42.000Z</time>
        <extensions>
          <ns3:TrackPointExtension>
            <ns3:atemp>24.0</ns3:atemp>
          </ns3:TrackPointExtension>
        </extensions>
      </trkpt>
      <trkpt lat="42.50785893760621547698974609375" lon="19.9167170561850070953369140625">
        <ele>1950.800048828125</ele>
        <time>2026-06-17T10:47:43.000Z</time>
        <extensions>
          <ns3:TrackPointExtension>
            <ns3:atemp>24.0</ns3:atemp>
          </ns3:TrackPointExtension>
        </extensions>
      </trkpt>
      <trkpt lat="42.50785893760621547698974609375" lon="19.9167170561850070953369140625">
        <ele>1950.800048828125</ele>
        <time>2026-06-17T10:47:44.000Z</time>
        <extensions>
          <ns3:TrackPointExtension>
            <ns3:atemp>24.0</ns3:atemp>
          </ns3:TrackPointExtension>
        </extensions>
      </trkpt>
      <trkpt lat="42.50785893760621547698974609375" lon="19.9167170561850070953369140625">
        <ele>1950.800048828125</ele>
        <time>2026-06-17T10:47:45.000Z</time>
        <extensions>
          <ns3:TrackPointExtension>
            <ns3:atemp>24.0</ns3:atemp>
          </ns3:TrackPointExtension>
        </extensions>
      </trkpt>
      <trkpt lat="42.50785893760621547698974609375" lon="19.9167170561850070953369140625">
        <ele>1950.800048828125</ele>
        <time>2026-06-17T10:47:46.000Z</time>
        <extensions>
          <ns3:TrackPointExtension>
            <ns3:atemp>24.0</ns3:atemp>
          </ns3:TrackPointExtension>
        </extensions>
      </trkpt>
      <trkpt lat="42.50785893760621547698974609375" lon="19.9167170561850070953369140625">
        <ele>1950.800048828125</ele>
        <time>2026-06-17T10:47:47.000Z</time>
        <extensions>
          <ns3:TrackPointExtension>
            <ns3:atemp>24.0</ns3:atemp>
          </ns3:TrackPointExtension>
        </extensions>
      </trkpt>
      <trkpt lat="42.50785893760621547698974609375" lon="19.9167170561850070953369140625">
        <ele>1950.800048828125</ele>
        <time>2026-06-17T10:47:48.000Z</time>
        <extensions>
          <ns3:TrackPointExtension>
            <ns3:atemp>24.0</ns3:atemp>
          </ns3:TrackPointExtension>
        </extensions>
      </trkpt>
      <trkpt lat="42.50785893760621547698974609375" lon="19.9167170561850070953369140625">
        <ele>1950.800048828125</ele>
        <time>2026-06-17T10:47:49.000Z</time>
        <extensions>
          <ns3:TrackPointExtension>
            <ns3:atemp>24.0</ns3:atemp>
          </ns3:TrackPointExtension>
        </extensions>
      </trkpt>
      <trkpt lat="42.50785893760621547698974609375" lon="19.9167170561850070953369140625">
        <ele>1950.800048828125</ele>
        <time>2026-06-17T10:47:50.000Z</time>
        <extensions>
          <ns3:TrackPointExtension>
            <ns3:atemp>24.0</ns3:atemp>
          </ns3:TrackPointExtension>
        </extensions>
      </trkpt>
      <trkpt lat="42.50785893760621547698974609375" lon="19.9167170561850070953369140625">
        <ele>1950.800048828125</ele>
        <time>2026-06-17T10:47:51.000Z</time>
        <extensions>
          <ns3:TrackPointExtension>
            <ns3:atemp>24.0</ns3:atemp>
          </ns3:TrackPointExtension>
        </extensions>
      </trkpt>
      <trkpt lat="42.50785893760621547698974609375" lon="19.9167170561850070953369140625">
        <ele>1950.800048828125</ele>
        <time>2026-06-17T10:47:52.000Z</time>
        <extensions>
          <ns3:TrackPointExtension>
            <ns3:atemp>24.0</ns3:atemp>
          </ns3:TrackPointExtension>
        </extensions>
      </trkpt>
      <trkpt lat="42.50785893760621547698974609375" lon="19.9167170561850070953369140625">
        <ele>1950.800048828125</ele>
        <time>2026-06-17T10:47:53.000Z</time>
        <extensions>
          <ns3:TrackPointExtension>
            <ns3:atemp>24.0</ns3:atemp>
          </ns3:TrackPointExtension>
        </extensions>
      </trkpt>
      <trkpt lat="42.50785893760621547698974609375" lon="19.9167170561850070953369140625">
        <ele>1950.800048828125</ele>
        <time>2026-06-17T10:47:54.000Z</time>
        <extensions>
          <ns3:TrackPointExtension>
            <ns3:atemp>24.0</ns3:atemp>
          </ns3:TrackPointExtension>
        </extensions>
      </trkpt>
      <trkpt lat="42.50785893760621547698974609375" lon="19.9167170561850070953369140625">
        <ele>1950.800048828125</ele>
        <time>2026-06-17T10:47:55.000Z</time>
        <extensions>
          <ns3:TrackPointExtension>
            <ns3:atemp>24.0</ns3:atemp>
          </ns3:TrackPointExtension>
        </extensions>
      </trkpt>
      <trkpt lat="42.50785893760621547698974609375" lon="19.9167170561850070953369140625">
        <ele>1950.800048828125</ele>
        <time>2026-06-17T10:47:56.000Z</time>
        <extensions>
          <ns3:TrackPointExtension>
            <ns3:atemp>24.0</ns3:atemp>
          </ns3:TrackPointExtension>
        </extensions>
      </trkpt>
      <trkpt lat="42.50785893760621547698974609375" lon="19.9167170561850070953369140625">
        <ele>1950.800048828125</ele>
        <time>2026-06-17T10:47:57.000Z</time>
        <extensions>
          <ns3:TrackPointExtension>
            <ns3:atemp>24.0</ns3:atemp>
          </ns3:TrackPointExtension>
        </extensions>
      </trkpt>
      <trkpt lat="42.50785893760621547698974609375" lon="19.9167170561850070953369140625">
        <ele>1950.800048828125</ele>
        <time>2026-06-17T10:47:58.000Z</time>
        <extensions>
          <ns3:TrackPointExtension>
            <ns3:atemp>24.0</ns3:atemp>
          </ns3:TrackPointExtension>
        </extensions>
      </trkpt>
      <trkpt lat="42.50785893760621547698974609375" lon="19.9167170561850070953369140625">
        <ele>1950.800048828125</ele>
        <time>2026-06-17T10:47:59.000Z</time>
        <extensions>
          <ns3:TrackPointExtension>
            <ns3:atemp>24.0</ns3:atemp>
          </ns3:TrackPointExtension>
        </extensions>
      </trkpt>
      <trkpt lat="42.50785893760621547698974609375" lon="19.9167170561850070953369140625">
        <ele>1950.800048828125</ele>
        <time>2026-06-17T10:48:00.000Z</time>
        <extensions>
          <ns3:TrackPointExtension>
            <ns3:atemp>24.0</ns3:atemp>
          </ns3:TrackPointExtension>
        </extensions>
      </trkpt>
      <trkpt lat="42.50785893760621547698974609375" lon="19.9167170561850070953369140625">
        <ele>1950.800048828125</ele>
        <time>2026-06-17T10:48:01.000Z</time>
        <extensions>
          <ns3:TrackPointExtension>
            <ns3:atemp>24.0</ns3:atemp>
          </ns3:TrackPointExtension>
        </extensions>
      </trkpt>
      <trkpt lat="42.50785893760621547698974609375" lon="19.9167170561850070953369140625">
        <ele>1950.800048828125</ele>
        <time>2026-06-17T10:48:02.000Z</time>
        <extensions>
          <ns3:TrackPointExtension>
            <ns3:atemp>24.0</ns3:atemp>
          </ns3:TrackPointExtension>
        </extensions>
      </trkpt>
      <trkpt lat="42.50785893760621547698974609375" lon="19.9167170561850070953369140625">
        <ele>1950.800048828125</ele>
        <time>2026-06-17T10:48:03.000Z</time>
        <extensions>
          <ns3:TrackPointExtension>
            <ns3:atemp>24.0</ns3:atemp>
          </ns3:TrackPointExtension>
        </extensions>
      </trkpt>
      <trkpt lat="42.50785893760621547698974609375" lon="19.9167170561850070953369140625">
        <ele>1950.800048828125</ele>
        <time>2026-06-17T10:48:04.000Z</time>
        <extensions>
          <ns3:TrackPointExtension>
            <ns3:atemp>24.0</ns3:atemp>
          </ns3:TrackPointExtension>
        </extensions>
      </trkpt>
      <trkpt lat="42.5078615359961986541748046875" lon="19.91671563126146793365478515625">
        <ele>1950.800048828125</ele>
        <time>2026-06-17T10:48:05.000Z</time>
        <extensions>
          <ns3:TrackPointExtension>
            <ns3:atemp>24.0</ns3:atemp>
          </ns3:TrackPointExtension>
        </extensions>
      </trkpt>
      <trkpt lat="42.50786849297583103179931640625" lon="19.916689060628414154052734375">
        <ele>1950.5999755859375</ele>
        <time>2026-06-17T10:48:06.000Z</time>
        <extensions>
          <ns3:TrackPointExtension>
            <ns3:atemp>24.0</ns3:atemp>
          </ns3:TrackPointExtension>
        </extensions>
      </trkpt>
      <trkpt lat="42.50787176191806793212890625" lon="19.91665947251021862030029296875">
        <ele>1950.5999755859375</ele>
        <time>2026-06-17T10:48:07.000Z</time>
        <extensions>
          <ns3:TrackPointExtension>
            <ns3:atemp>24.0</ns3:atemp>
          </ns3:TrackPointExtension>
        </extensions>
      </trkpt>
      <trkpt lat="42.50787436030805110931396484375" lon="19.91662410087883472442626953125">
        <ele>1950.5999755859375</ele>
        <time>2026-06-17T10:48:08.000Z</time>
        <extensions>
          <ns3:TrackPointExtension>
            <ns3:atemp>24.0</ns3:atemp>
          </ns3:TrackPointExtension>
        </extensions>
      </trkpt>
      <trkpt lat="42.50787436030805110931396484375" lon="19.916580431163311004638671875">
        <ele>1950.199951171875</ele>
        <time>2026-06-17T10:48:09.000Z</time>
        <extensions>
          <ns3:TrackPointExtension>
            <ns3:atemp>24.0</ns3:atemp>
          </ns3:TrackPointExtension>
        </extensions>
      </trkpt>
      <trkpt lat="42.50785809941589832305908203125" lon="19.91653357632458209991455078125">
        <ele>1950</ele>
        <time>2026-06-17T10:48:10.000Z</time>
        <extensions>
          <ns3:TrackPointExtension>
            <ns3:atemp>24.0</ns3:atemp>
          </ns3:TrackPointExtension>
        </extensions>
      </trkpt>
      <trkpt lat="42.50785407610237598419189453125" lon="19.91647540591657161712646484375">
        <ele>1949.199951171875</ele>
        <time>2026-06-17T10:48:11.000Z</time>
        <extensions>
          <ns3:TrackPointExtension>
            <ns3:atemp>24.0</ns3:atemp>
          </ns3:TrackPointExtension>
        </extensions>
      </trkpt>
      <trkpt lat="42.50786480493843555450439453125" lon="19.9164072610437870025634765625">
        <ele>1948.5999755859375</ele>
        <time>2026-06-17T10:48:12.000Z</time>
        <extensions>
          <ns3:TrackPointExtension>
            <ns3:atemp>24.0</ns3:atemp>
          </ns3:TrackPointExtension>
        </extensions>
      </trkpt>
      <trkpt lat="42.5078705884516239166259765625" lon="19.91633308120071887969970703125">
        <ele>1948.199951171875</ele>
        <time>2026-06-17T10:48:13.000Z</time>
        <extensions>
          <ns3:TrackPointExtension>
            <ns3:atemp>24.0</ns3:atemp>
          </ns3:TrackPointExtension>
        </extensions>
      </trkpt>
      <trkpt lat="42.50785307027399539947509765625" lon="19.91625932045280933380126953125">
        <ele>1947.800048828125</ele>
        <time>2026-06-17T10:48:14.000Z</time>
        <extensions>
          <ns3:TrackPointExtension>
            <ns3:atemp>24.0</ns3:atemp>
          </ns3:TrackPointExtension>
        </extensions>
      </trkpt>
      <trkpt lat="42.50784602947533130645751953125" lon="19.9161839671432971954345703125">
        <ele>1947.4000244140625</ele>
        <time>2026-06-17T10:48:15.000Z</time>
        <extensions>
          <ns3:TrackPointExtension>
            <ns3:atemp>24.0</ns3:atemp>
          </ns3:TrackPointExtension>
        </extensions>
      </trkpt>
      <trkpt lat="42.5078280083835124969482421875" lon="19.91612537764012813568115234375">
        <ele>1947</ele>
        <time>2026-06-17T10:48:16.000Z</time>
        <extensions>
          <ns3:TrackPointExtension>
            <ns3:atemp>24.0</ns3:atemp>
          </ns3:TrackPointExtension>
        </extensions>
      </trkpt>
      <trkpt lat="42.507816441357135772705078125" lon="19.91606268100440502166748046875">
        <ele>1946.800048828125</ele>
        <time>2026-06-17T10:48:17.000Z</time>
        <extensions>
          <ns3:TrackPointExtension>
            <ns3:atemp>24.0</ns3:atemp>
          </ns3:TrackPointExtension>
        </extensions>
      </trkpt>
      <trkpt lat="42.5078045390546321868896484375" lon="19.91599244065582752227783203125">
        <ele>1946.5999755859375</ele>
        <time>2026-06-17T10:48:18.000Z</time>
        <extensions>
          <ns3:TrackPointExtension>
            <ns3:atemp>24.0</ns3:atemp>
          </ns3:TrackPointExtension>
        </extensions>
      </trkpt>
      <trkpt lat="42.507790289819240570068359375" lon="19.91591867990791797637939453125">
        <ele>1946.4000244140625</ele>
        <time>2026-06-17T10:48:19.000Z</time>
        <extensions>
          <ns3:TrackPointExtension>
            <ns3:atemp>24.0</ns3:atemp>
          </ns3:TrackPointExtension>
        </extensions>
      </trkpt>
      <trkpt lat="42.50776573084294795989990234375" lon="19.9158485233783721923828125">
        <ele>1946</ele>
        <time>2026-06-17T10:48:20.000Z</time>
        <extensions>
          <ns3:TrackPointExtension>
            <ns3:atemp>24.0</ns3:atemp>
          </ns3:TrackPointExtension>
        </extensions>
      </trkpt>
      <trkpt lat="42.507753074169158935546875" lon="19.91577518172562122344970703125">
        <ele>1945.5999755859375</ele>
        <time>2026-06-17T10:48:21.000Z</time>
        <extensions>
          <ns3:TrackPointExtension>
            <ns3:atemp>24.0</ns3:atemp>
          </ns3:TrackPointExtension>
        </extensions>
      </trkpt>
      <trkpt lat="42.507745362818241119384765625" lon="19.91570209152996540069580078125">
        <ele>1945.199951171875</ele>
        <time>2026-06-17T10:48:22.000Z</time>
        <extensions>
          <ns3:TrackPointExtension>
            <ns3:atemp>24.0</ns3:atemp>
          </ns3:TrackPointExtension>
        </extensions>
      </trkpt>
      <trkpt lat="42.50773890875279903411865234375" lon="19.91563688032329082489013671875">
        <ele>1944.800048828125</ele>
        <time>2026-06-17T10:48:23.000Z</time>
        <extensions>
          <ns3:TrackPointExtension>
            <ns3:atemp>24.0</ns3:atemp>
          </ns3:TrackPointExtension>
        </extensions>
      </trkpt>
      <trkpt lat="42.5077374838292598724365234375" lon="19.9155821464955806732177734375">
        <ele>1944.5999755859375</ele>
        <time>2026-06-17T10:48:24.000Z</time>
        <extensions>
          <ns3:TrackPointExtension>
            <ns3:atemp>24.0</ns3:atemp>
          </ns3:TrackPointExtension>
        </extensions>
      </trkpt>
      <trkpt lat="42.50773706473410129547119140625" lon="19.9155325256288051605224609375">
        <ele>1944.5999755859375</ele>
        <time>2026-06-17T10:48:25.000Z</time>
        <extensions>
          <ns3:TrackPointExtension>
            <ns3:atemp>24.0</ns3:atemp>
          </ns3:TrackPointExtension>
        </extensions>
      </trkpt>
      <trkpt lat="42.5077394954860210418701171875" lon="19.91548701189458370208740234375">
        <ele>1944.4000244140625</ele>
        <time>2026-06-17T10:48:26.000Z</time>
        <extensions>
          <ns3:TrackPointExtension>
            <ns3:atemp>24.0</ns3:atemp>
          </ns3:TrackPointExtension>
        </extensions>
      </trkpt>
      <trkpt lat="42.50774033367633819580078125" lon="19.9154470302164554595947265625">
        <ele>1944.5999755859375</ele>
        <time>2026-06-17T10:48:27.000Z</time>
        <extensions>
          <ns3:TrackPointExtension>
            <ns3:atemp>24.0</ns3:atemp>
          </ns3:TrackPointExtension>
        </extensions>
      </trkpt>
      <trkpt lat="42.50774125568568706512451171875" lon="19.91541509516537189483642578125">
        <ele>1944.5999755859375</ele>
        <time>2026-06-17T10:48:28.000Z</time>
        <extensions>
          <ns3:TrackPointExtension>
            <ns3:atemp>24.0</ns3:atemp>
          </ns3:TrackPointExtension>
        </extensions>
      </trkpt>
      <trkpt lat="42.5077356398105621337890625" lon="19.91539648734033107757568359375">
        <ele>1944.5999755859375</ele>
        <time>2026-06-17T10:48:29.000Z</time>
        <extensions>
          <ns3:TrackPointExtension>
            <ns3:atemp>24.0</ns3:atemp>
          </ns3:TrackPointExtension>
        </extensions>
      </trkpt>
      <trkpt lat="42.50773605890572071075439453125" lon="19.91536932997405529022216796875">
        <ele>1944.5999755859375</ele>
        <time>2026-06-17T10:48:30.000Z</time>
        <extensions>
          <ns3:TrackPointExtension>
            <ns3:atemp>24.0</ns3:atemp>
          </ns3:TrackPointExtension>
        </extensions>
      </trkpt>
      <trkpt lat="42.50773790292441844940185546875" lon="19.9153469502925872802734375">
        <ele>1944.5999755859375</ele>
        <time>2026-06-17T10:48:31.000Z</time>
        <extensions>
          <ns3:TrackPointExtension>
            <ns3:atemp>24.0</ns3:atemp>
          </ns3:TrackPointExtension>
        </extensions>
      </trkpt>
      <trkpt lat="42.50774125568568706512451171875" lon="19.91532440297305583953857421875">
        <ele>1944.800048828125</ele>
        <time>2026-06-17T10:48:32.000Z</time>
        <extensions>
          <ns3:TrackPointExtension>
            <ns3:atemp>24.0</ns3:atemp>
          </ns3:TrackPointExtension>
        </extensions>
      </trkpt>
      <trkpt lat="42.507740668952465057373046875" lon="19.9153018556535243988037109375">
        <ele>1944.800048828125</ele>
        <time>2026-06-17T10:48:33.000Z</time>
        <extensions>
          <ns3:TrackPointExtension>
            <ns3:atemp>24.0</ns3:atemp>
          </ns3:TrackPointExtension>
        </extensions>
      </trkpt>
      <trkpt lat="42.50774041749536991119384765625" lon="19.91527562029659748077392578125">
        <ele>1945</ele>
        <time>2026-06-17T10:48:34.000Z</time>
        <extensions>
          <ns3:TrackPointExtension>
            <ns3:atemp>24.0</ns3:atemp>
          </ns3:TrackPointExtension>
        </extensions>
      </trkpt>
      <trkpt lat="42.5077371485531330108642578125" lon="19.91525131277740001678466796875">
        <ele>1945</ele>
        <time>2026-06-17T10:48:35.000Z</time>
        <extensions>
          <ns3:TrackPointExtension>
            <ns3:atemp>24.0</ns3:atemp>
          </ns3:TrackPointExtension>
        </extensions>
      </trkpt>
      <trkpt lat="42.5077351368963718414306640625" lon="19.91522348485887050628662109375">
        <ele>1945.4000244140625</ele>
        <time>2026-06-17T10:48:36.000Z</time>
        <extensions>
          <ns3:TrackPointExtension>
            <ns3:atemp>24.0</ns3:atemp>
          </ns3:TrackPointExtension>
        </extensions>
      </trkpt>
      <trkpt lat="42.5077307783067226409912109375" lon="19.9151972495019435882568359375">
        <ele>1945.5999755859375</ele>
        <time>2026-06-17T10:48:37.000Z</time>
        <extensions>
          <ns3:TrackPointExtension>
            <ns3:atemp>24.0</ns3:atemp>
          </ns3:TrackPointExtension>
        </extensions>
      </trkpt>
      <trkpt lat="42.507723234593868255615234375" lon="19.91517017595469951629638671875">
        <ele>1945.800048828125</ele>
        <time>2026-06-17T10:48:38.000Z</time>
        <extensions>
          <ns3:TrackPointExtension>
            <ns3:atemp>24.0</ns3:atemp>
          </ns3:TrackPointExtension>
        </extensions>
      </trkpt>
      <trkpt lat="42.50771485269069671630859375" lon="19.9151436053216457366943359375">
        <ele>1945.800048828125</ele>
        <time>2026-06-17T10:48:39.000Z</time>
        <extensions>
          <ns3:TrackPointExtension>
            <ns3:atemp>24.0</ns3:atemp>
          </ns3:TrackPointExtension>
        </extensions>
      </trkpt>
      <trkpt lat="42.50771376304328441619873046875" lon="19.91511334665119647979736328125">
        <ele>1946</ele>
        <time>2026-06-17T10:48:40.000Z</time>
        <extensions>
          <ns3:TrackPointExtension>
            <ns3:atemp>24.0</ns3:atemp>
          </ns3:TrackPointExtension>
        </extensions>
      </trkpt>
      <trkpt lat="42.50770906917750835418701171875" lon="19.91508283652365207672119140625">
        <ele>1946</ele>
        <time>2026-06-17T10:48:41.000Z</time>
        <extensions>
          <ns3:TrackPointExtension>
            <ns3:atemp>24.0</ns3:atemp>
          </ns3:TrackPointExtension>
        </extensions>
      </trkpt>
      <trkpt lat="42.50770638696849346160888671875" lon="19.91505567915737628936767578125">
        <ele>1946.199951171875</ele>
        <time>2026-06-17T10:48:42.000Z</time>
        <extensions>
          <ns3:TrackPointExtension>
            <ns3:atemp>24.0</ns3:atemp>
          </ns3:TrackPointExtension>
        </extensions>
      </trkpt>
      <trkpt lat="42.5077056325972080230712890625" lon="19.9150239117443561553955078125">
        <ele>1946.199951171875</ele>
        <time>2026-06-17T10:48:43.000Z</time>
        <extensions>
          <ns3:TrackPointExtension>
            <ns3:atemp>24.0</ns3:atemp>
          </ns3:TrackPointExtension>
        </extensions>
      </trkpt>
      <trkpt lat="42.5077012740075588226318359375" lon="19.9149937368929386138916015625">
        <ele>1946.4000244140625</ele>
        <time>2026-06-17T10:48:44.000Z</time>
        <extensions>
          <ns3:TrackPointExtension>
            <ns3:atemp>24.0</ns3:atemp>
          </ns3:TrackPointExtension>
        </extensions>
      </trkpt>
      <trkpt lat="42.5076995976269245147705078125" lon="19.9149622209370136260986328125">
        <ele>1946.4000244140625</ele>
        <time>2026-06-17T10:48:45.000Z</time>
        <extensions>
          <ns3:TrackPointExtension>
            <ns3:atemp>24.0</ns3:atemp>
          </ns3:TrackPointExtension>
        </extensions>
      </trkpt>
      <trkpt lat="42.50769339501857757568359375" lon="19.9149353988468647003173828125">
        <ele>1946.5999755859375</ele>
        <time>2026-06-17T10:48:46.000Z</time>
        <extensions>
          <ns3:TrackPointExtension>
            <ns3:atemp>24.0</ns3:atemp>
          </ns3:TrackPointExtension>
        </extensions>
      </trkpt>
      <trkpt lat="42.50768668949604034423828125" lon="19.91490849293768405914306640625">
        <ele>1946.5999755859375</ele>
        <time>2026-06-17T10:48:47.000Z</time>
        <extensions>
          <ns3:TrackPointExtension>
            <ns3:atemp>24.0</ns3:atemp>
          </ns3:TrackPointExtension>
        </extensions>
      </trkpt>
      <trkpt lat="42.5076808221638202667236328125" lon="19.9148827604949474334716796875">
        <ele>1946.800048828125</ele>
        <time>2026-06-17T10:48:48.000Z</time>
        <extensions>
          <ns3:TrackPointExtension>
            <ns3:atemp>24.0</ns3:atemp>
          </ns3:TrackPointExtension>
        </extensions>
      </trkpt>
      <trkpt lat="42.5076739490032196044921875" lon="19.91485769860446453094482421875">
        <ele>1947</ele>
        <time>2026-06-17T10:48:49.000Z</time>
        <extensions>
          <ns3:TrackPointExtension>
            <ns3:atemp>24.0</ns3:atemp>
          </ns3:TrackPointExtension>
        </extensions>
      </trkpt>
      <trkpt lat="42.50766657292842864990234375" lon="19.91482618264853954315185546875">
        <ele>1947</ele>
        <time>2026-06-17T10:48:50.000Z</time>
        <extensions>
          <ns3:TrackPointExtension>
            <ns3:atemp>24.0</ns3:atemp>
          </ns3:TrackPointExtension>
        </extensions>
      </trkpt>
      <trkpt lat="42.507659532129764556884765625" lon="19.91479483433067798614501953125">
        <ele>1947.199951171875</ele>
        <time>2026-06-17T10:48:51.000Z</time>
        <extensions>
          <ns3:TrackPointExtension>
            <ns3:atemp>24.0</ns3:atemp>
          </ns3:TrackPointExtension>
        </extensions>
      </trkpt>
      <trkpt lat="42.50765207223594188690185546875" lon="19.91476516239345073699951171875">
        <ele>1947.199951171875</ele>
        <time>2026-06-17T10:48:52.000Z</time>
        <extensions>
          <ns3:TrackPointExtension>
            <ns3:atemp>24.0</ns3:atemp>
          </ns3:TrackPointExtension>
        </extensions>
      </trkpt>
      <trkpt lat="42.50764067284762859344482421875" lon="19.91473331116139888763427734375">
        <ele>1947.4000244140625</ele>
        <time>2026-06-17T10:48:53.000Z</time>
        <extensions>
          <ns3:TrackPointExtension>
            <ns3:atemp>24.0</ns3:atemp>
          </ns3:TrackPointExtension>
        </extensions>
      </trkpt>
      <trkpt lat="42.50762944109737873077392578125" lon="19.91470523178577423095703125">
        <ele>1947.4000244140625</ele>
        <time>2026-06-17T10:48:54.000Z</time>
        <extensions>
          <ns3:TrackPointExtension>
            <ns3:atemp>24.0</ns3:atemp>
          </ns3:TrackPointExtension>
        </extensions>
      </trkpt>
      <trkpt lat="42.50762089155614376068115234375" lon="19.9146769009530544281005859375">
        <ele>1947.5999755859375</ele>
        <time>2026-06-17T10:48:55.000Z</time>
        <extensions>
          <ns3:TrackPointExtension>
            <ns3:atemp>24.0</ns3:atemp>
          </ns3:TrackPointExtension>
        </extensions>
      </trkpt>
      <trkpt lat="42.50761468894779682159423828125" lon="19.9146443791687488555908203125">
        <ele>1947.5999755859375</ele>
        <time>2026-06-17T10:48:56.000Z</time>
        <extensions>
          <ns3:TrackPointExtension>
            <ns3:atemp>24.0</ns3:atemp>
          </ns3:TrackPointExtension>
        </extensions>
      </trkpt>
      <trkpt lat="42.50760731287300586700439453125" lon="19.91461713798344135284423828125">
        <ele>1947.800048828125</ele>
        <time>2026-06-17T10:48:57.000Z</time>
        <extensions>
          <ns3:TrackPointExtension>
            <ns3:atemp>24.0</ns3:atemp>
          </ns3:TrackPointExtension>
        </extensions>
      </trkpt>
      <trkpt lat="42.5076006911695003509521484375" lon="19.91459333337843418121337890625">
        <ele>1948</ele>
        <time>2026-06-17T10:48:58.000Z</time>
        <extensions>
          <ns3:TrackPointExtension>
            <ns3:atemp>24.0</ns3:atemp>
          </ns3:TrackPointExtension>
        </extensions>
      </trkpt>
      <trkpt lat="42.50759281218051910400390625" lon="19.9145642481744289398193359375">
        <ele>1948</ele>
        <time>2026-06-17T10:48:59.000Z</time>
        <extensions>
          <ns3:TrackPointExtension>
            <ns3:atemp>24.0</ns3:atemp>
          </ns3:TrackPointExtension>
        </extensions>
      </trkpt>
      <trkpt lat="42.50758342444896697998046875" lon="19.91453432478010654449462890625">
        <ele>1948.199951171875</ele>
        <time>2026-06-17T10:49:00.000Z</time>
        <extensions>
          <ns3:TrackPointExtension>
            <ns3:atemp>24.0</ns3:atemp>
          </ns3:TrackPointExtension>
        </extensions>
      </trkpt>
      <trkpt lat="42.5075758807361125946044921875" lon="19.91450138390064239501953125">
        <ele>1948.4000244140625</ele>
        <time>2026-06-17T10:49:01.000Z</time>
        <extensions>
          <ns3:TrackPointExtension>
            <ns3:atemp>24.0</ns3:atemp>
          </ns3:TrackPointExtension>
        </extensions>
      </trkpt>
      <trkpt lat="42.50756800174713134765625" lon="19.9144685268402099609375">
        <ele>1948.5999755859375</ele>
        <time>2026-06-17T10:49:02.000Z</time>
        <extensions>
          <ns3:TrackPointExtension>
            <ns3:atemp>24.0</ns3:atemp>
          </ns3:TrackPointExtension>
        </extensions>
      </trkpt>
      <trkpt lat="42.507558949291706085205078125" lon="19.9144418723881244659423828125">
        <ele>1948.800048828125</ele>
        <time>2026-06-17T10:49:03.000Z</time>
        <extensions>
          <ns3:TrackPointExtension>
            <ns3:atemp>24.0</ns3:atemp>
          </ns3:TrackPointExtension>
        </extensions>
      </trkpt>
      <trkpt lat="42.507549561560153961181640625" lon="19.91441781632602214813232421875">
        <ele>1949</ele>
        <time>2026-06-17T10:49:04.000Z</time>
        <extensions>
          <ns3:TrackPointExtension>
            <ns3:atemp>24.0</ns3:atemp>
          </ns3:TrackPointExtension>
        </extensions>
      </trkpt>
      <trkpt lat="42.5075416825711727142333984375" lon="19.91439543664455413818359375">
        <ele>1949</ele>
        <time>2026-06-17T10:49:05.000Z</time>
        <extensions>
          <ns3:TrackPointExtension>
            <ns3:atemp>24.0</ns3:atemp>
          </ns3:TrackPointExtension>
        </extensions>
      </trkpt>
      <trkpt lat="42.507533133029937744140625" lon="19.91437372751533985137939453125">
        <ele>1949.199951171875</ele>
        <time>2026-06-17T10:49:06.000Z</time>
        <extensions>
          <ns3:TrackPointExtension>
            <ns3:atemp>24.0</ns3:atemp>
          </ns3:TrackPointExtension>
        </extensions>
      </trkpt>
      <trkpt lat="42.50752181746065616607666015625" lon="19.91435076110064983367919921875">
        <ele>1949.4000244140625</ele>
        <time>2026-06-17T10:49:07.000Z</time>
        <extensions>
          <ns3:TrackPointExtension>
            <ns3:atemp>24.0</ns3:atemp>
          </ns3:TrackPointExtension>
        </extensions>
      </trkpt>
      <trkpt lat="42.507510669529438018798828125" lon="19.91432628594338893890380859375">
        <ele>1949.5999755859375</ele>
        <time>2026-06-17T10:49:08.000Z</time>
        <extensions>
          <ns3:TrackPointExtension>
            <ns3:atemp>24.0</ns3:atemp>
          </ns3:TrackPointExtension>
        </extensions>
      </trkpt>
      <trkpt lat="42.50750069506466388702392578125" lon="19.9143040738999843597412109375">
        <ele>1949.5999755859375</ele>
        <time>2026-06-17T10:49:09.000Z</time>
        <extensions>
          <ns3:TrackPointExtension>
            <ns3:atemp>24.0</ns3:atemp>
          </ns3:TrackPointExtension>
        </extensions>
      </trkpt>
      <trkpt lat="42.50748510472476482391357421875" lon="19.91428052075207233428955078125">
        <ele>1949.5999755859375</ele>
        <time>2026-06-17T10:49:10.000Z</time>
        <extensions>
          <ns3:TrackPointExtension>
            <ns3:atemp>24.0</ns3:atemp>
          </ns3:TrackPointExtension>
        </extensions>
      </trkpt>
      <trkpt lat="42.507469765841960906982421875" lon="19.91426325403153896331787109375">
        <ele>1949.800048828125</ele>
        <time>2026-06-17T10:49:11.000Z</time>
        <extensions>
          <ns3:TrackPointExtension>
            <ns3:atemp>24.0</ns3:atemp>
          </ns3:TrackPointExtension>
        </extensions>
      </trkpt>
      <trkpt lat="42.5074581988155841827392578125" lon="19.91424581967294216156005859375">
        <ele>1950</ele>
        <time>2026-06-17T10:49:12.000Z</time>
        <extensions>
          <ns3:TrackPointExtension>
            <ns3:atemp>24.0</ns3:atemp>
          </ns3:TrackPointExtension>
        </extensions>
      </trkpt>
      <trkpt lat="42.50744537450373172760009765625" lon="19.91423182189464569091796875">
        <ele>1950.199951171875</ele>
        <time>2026-06-17T10:49:13.000Z</time>
        <extensions>
          <ns3:TrackPointExtension>
            <ns3:atemp>24.0</ns3:atemp>
          </ns3:TrackPointExtension>
        </extensions>
      </trkpt>
      <trkpt lat="42.50743162818253040313720703125" lon="19.914216734468936920166015625">
        <ele>1950.4000244140625</ele>
        <time>2026-06-17T10:49:14.000Z</time>
        <extensions>
          <ns3:TrackPointExtension>
            <ns3:atemp>24.0</ns3:atemp>
          </ns3:TrackPointExtension>
        </extensions>
      </trkpt>
      <trkpt lat="42.50742408446967601776123046875" lon="19.91419703699648380279541015625">
        <ele>1950.800048828125</ele>
        <time>2026-06-17T10:49:15.000Z</time>
        <extensions>
          <ns3:TrackPointExtension>
            <ns3:atemp>24.0</ns3:atemp>
          </ns3:TrackPointExtension>
        </extensions>
      </trkpt>
      <trkpt lat="42.5074219889938831329345703125" lon="19.91418412886559963226318359375">
        <ele>1951</ele>
        <time>2026-06-17T10:49:16.000Z</time>
        <extensions>
          <ns3:TrackPointExtension>
            <ns3:atemp>24.0</ns3:atemp>
          </ns3:TrackPointExtension>
        </extensions>
      </trkpt>
      <trkpt lat="42.507420815527439117431640625" lon="19.91418597288429737091064453125">
        <ele>1951.199951171875</ele>
        <time>2026-06-17T10:49:17.000Z</time>
        <extensions>
          <ns3:TrackPointExtension>
            <ns3:atemp>24.0</ns3:atemp>
          </ns3:TrackPointExtension>
        </extensions>
      </trkpt>
      <trkpt lat="42.50742073170840740203857421875" lon="19.9141860567033290863037109375">
        <ele>1951.800048828125</ele>
        <time>2026-06-17T10:49:18.000Z</time>
        <extensions>
          <ns3:TrackPointExtension>
            <ns3:atemp>24.0</ns3:atemp>
          </ns3:TrackPointExtension>
        </extensions>
      </trkpt>
      <trkpt lat="42.50742073170840740203857421875" lon="19.9141860567033290863037109375">
        <ele>1952.199951171875</ele>
        <time>2026-06-17T10:49:19.000Z</time>
        <extensions>
          <ns3:TrackPointExtension>
            <ns3:atemp>24.0</ns3:atemp>
          </ns3:TrackPointExtension>
        </extensions>
      </trkpt>
      <trkpt lat="42.50742073170840740203857421875" lon="19.9141860567033290863037109375">
        <ele>1952.4000244140625</ele>
        <time>2026-06-17T10:49:20.000Z</time>
        <extensions>
          <ns3:TrackPointExtension>
            <ns3:atemp>24.0</ns3:atemp>
          </ns3:TrackPointExtension>
        </extensions>
      </trkpt>
      <trkpt lat="42.50742073170840740203857421875" lon="19.9141860567033290863037109375">
        <ele>1952.5999755859375</ele>
        <time>2026-06-17T10:49:21.000Z</time>
        <extensions>
          <ns3:TrackPointExtension>
            <ns3:atemp>24.0</ns3:atemp>
          </ns3:TrackPointExtension>
        </extensions>
      </trkpt>
      <trkpt lat="42.50742073170840740203857421875" lon="19.9141860567033290863037109375">
        <ele>1952.800048828125</ele>
        <time>2026-06-17T10:49:22.000Z</time>
        <extensions>
          <ns3:TrackPointExtension>
            <ns3:atemp>24.0</ns3:atemp>
          </ns3:TrackPointExtension>
        </extensions>
      </trkpt>
      <trkpt lat="42.50742073170840740203857421875" lon="19.9141860567033290863037109375">
        <ele>1952.5999755859375</ele>
        <time>2026-06-17T10:49:23.000Z</time>
        <extensions>
          <ns3:TrackPointExtension>
            <ns3:atemp>24.0</ns3:atemp>
          </ns3:TrackPointExtension>
        </extensions>
      </trkpt>
      <trkpt lat="42.50742073170840740203857421875" lon="19.9141860567033290863037109375">
        <ele>1952.5999755859375</ele>
        <time>2026-06-17T10:49:24.000Z</time>
        <extensions>
          <ns3:TrackPointExtension>
            <ns3:atemp>24.0</ns3:atemp>
          </ns3:TrackPointExtension>
        </extensions>
      </trkpt>
      <trkpt lat="42.50742073170840740203857421875" lon="19.9141860567033290863037109375">
        <ele>1952.5999755859375</ele>
        <time>2026-06-17T10:49:25.000Z</time>
        <extensions>
          <ns3:TrackPointExtension>
            <ns3:atemp>24.0</ns3:atemp>
          </ns3:TrackPointExtension>
        </extensions>
      </trkpt>
      <trkpt lat="42.50742073170840740203857421875" lon="19.9141860567033290863037109375">
        <ele>1952.5999755859375</ele>
        <time>2026-06-17T10:49:26.000Z</time>
        <extensions>
          <ns3:TrackPointExtension>
            <ns3:atemp>24.0</ns3:atemp>
          </ns3:TrackPointExtension>
        </extensions>
      </trkpt>
      <trkpt lat="42.50742073170840740203857421875" lon="19.9141860567033290863037109375">
        <ele>1952.5999755859375</ele>
        <time>2026-06-17T10:49:27.000Z</time>
        <extensions>
          <ns3:TrackPointExtension>
            <ns3:atemp>24.0</ns3:atemp>
          </ns3:TrackPointExtension>
        </extensions>
      </trkpt>
      <trkpt lat="42.50742073170840740203857421875" lon="19.9141860567033290863037109375">
        <ele>1952.5999755859375</ele>
        <time>2026-06-17T10:49:28.000Z</time>
        <extensions>
          <ns3:TrackPointExtension>
            <ns3:atemp>24.0</ns3:atemp>
          </ns3:TrackPointExtension>
        </extensions>
      </trkpt>
      <trkpt lat="42.50742073170840740203857421875" lon="19.9141860567033290863037109375">
        <ele>1952.5999755859375</ele>
        <time>2026-06-17T10:49:29.000Z</time>
        <extensions>
          <ns3:TrackPointExtension>
            <ns3:atemp>24.0</ns3:atemp>
          </ns3:TrackPointExtension>
        </extensions>
      </trkpt>
      <trkpt lat="42.50742073170840740203857421875" lon="19.9141860567033290863037109375">
        <ele>1952.5999755859375</ele>
        <time>2026-06-17T10:49:30.000Z</time>
        <extensions>
          <ns3:TrackPointExtension>
            <ns3:atemp>24.0</ns3:atemp>
          </ns3:TrackPointExtension>
        </extensions>
      </trkpt>
      <trkpt lat="42.50742073170840740203857421875" lon="19.9141860567033290863037109375">
        <ele>1952.800048828125</ele>
        <time>2026-06-17T10:49:31.000Z</time>
        <extensions>
          <ns3:TrackPointExtension>
            <ns3:atemp>24.0</ns3:atemp>
          </ns3:TrackPointExtension>
        </extensions>
      </trkpt>
      <trkpt lat="42.50742073170840740203857421875" lon="19.9141860567033290863037109375">
        <ele>1952.800048828125</ele>
        <time>2026-06-17T10:49:32.000Z</time>
        <extensions>
          <ns3:TrackPointExtension>
            <ns3:atemp>24.0</ns3:atemp>
          </ns3:TrackPointExtension>
        </extensions>
      </trkpt>
      <trkpt lat="42.50742073170840740203857421875" lon="19.9141860567033290863037109375">
        <ele>1952.800048828125</ele>
        <time>2026-06-17T10:49:33.000Z</time>
        <extensions>
          <ns3:TrackPointExtension>
            <ns3:atemp>24.0</ns3:atemp>
          </ns3:TrackPointExtension>
        </extensions>
      </trkpt>
      <trkpt lat="42.50742073170840740203857421875" lon="19.9141860567033290863037109375">
        <ele>1952.800048828125</ele>
        <time>2026-06-17T10:49:34.000Z</time>
        <extensions>
          <ns3:TrackPointExtension>
            <ns3:atemp>24.0</ns3:atemp>
          </ns3:TrackPointExtension>
        </extensions>
      </trkpt>
      <trkpt lat="42.50742073170840740203857421875" lon="19.9141860567033290863037109375">
        <ele>1952.800048828125</ele>
        <time>2026-06-17T10:49:35.000Z</time>
        <extensions>
          <ns3:TrackPointExtension>
            <ns3:atemp>24.0</ns3:atemp>
          </ns3:TrackPointExtension>
        </extensions>
      </trkpt>
      <trkpt lat="42.50742073170840740203857421875" lon="19.9141860567033290863037109375">
        <ele>1952.800048828125</ele>
        <time>2026-06-17T10:49:36.000Z</time>
        <extensions>
          <ns3:TrackPointExtension>
            <ns3:atemp>24.0</ns3:atemp>
          </ns3:TrackPointExtension>
        </extensions>
      </trkpt>
      <trkpt lat="42.50742073170840740203857421875" lon="19.9141860567033290863037109375">
        <ele>1952.800048828125</ele>
        <time>2026-06-17T10:49:37.000Z</time>
        <extensions>
          <ns3:TrackPointExtension>
            <ns3:atemp>24.0</ns3:atemp>
          </ns3:TrackPointExtension>
        </extensions>
      </trkpt>
      <trkpt lat="42.50742073170840740203857421875" lon="19.9141860567033290863037109375">
        <ele>1952.800048828125</ele>
        <time>2026-06-17T10:49:38.000Z</time>
        <extensions>
          <ns3:TrackPointExtension>
            <ns3:atemp>24.0</ns3:atemp>
          </ns3:TrackPointExtension>
        </extensions>
      </trkpt>
      <trkpt lat="42.50742073170840740203857421875" lon="19.9141860567033290863037109375">
        <ele>1952.800048828125</ele>
        <time>2026-06-17T10:49:39.000Z</time>
        <extensions>
          <ns3:TrackPointExtension>
            <ns3:atemp>24.0</ns3:atemp>
          </ns3:TrackPointExtension>
        </extensions>
      </trkpt>
      <trkpt lat="42.50742073170840740203857421875" lon="19.9141860567033290863037109375">
        <ele>1952.800048828125</ele>
        <time>2026-06-17T10:49:40.000Z</time>
        <extensions>
          <ns3:TrackPointExtension>
            <ns3:atemp>24.0</ns3:atemp>
          </ns3:TrackPointExtension>
        </extensions>
      </trkpt>
      <trkpt lat="42.50742073170840740203857421875" lon="19.9141860567033290863037109375">
        <ele>1952.800048828125</ele>
        <time>2026-06-17T10:49:41.000Z</time>
        <extensions>
          <ns3:TrackPointExtension>
            <ns3:atemp>24.0</ns3:atemp>
          </ns3:TrackPointExtension>
        </extensions>
      </trkpt>
      <trkpt lat="42.50742073170840740203857421875" lon="19.9141860567033290863037109375">
        <ele>1952.800048828125</ele>
        <time>2026-06-17T10:49:42.000Z</time>
        <extensions>
          <ns3:TrackPointExtension>
            <ns3:atemp>24.0</ns3:atemp>
          </ns3:TrackPointExtension>
        </extensions>
      </trkpt>
      <trkpt lat="42.50742073170840740203857421875" lon="19.9141860567033290863037109375">
        <ele>1952.800048828125</ele>
        <time>2026-06-17T10:49:43.000Z</time>
        <extensions>
          <ns3:TrackPointExtension>
            <ns3:atemp>24.0</ns3:atemp>
          </ns3:TrackPointExtension>
        </extensions>
      </trkpt>
      <trkpt lat="42.50742073170840740203857421875" lon="19.9141860567033290863037109375">
        <ele>1952.800048828125</ele>
        <time>2026-06-17T10:49:44.000Z</time>
        <extensions>
          <ns3:TrackPointExtension>
            <ns3:atemp>24.0</ns3:atemp>
          </ns3:TrackPointExtension>
        </extensions>
      </trkpt>
      <trkpt lat="42.50742073170840740203857421875" lon="19.9141860567033290863037109375">
        <ele>1952.800048828125</ele>
        <time>2026-06-17T10:49:45.000Z</time>
        <extensions>
          <ns3:TrackPointExtension>
            <ns3:atemp>24.0</ns3:atemp>
          </ns3:TrackPointExtension>
        </extensions>
      </trkpt>
      <trkpt lat="42.50742073170840740203857421875" lon="19.9141860567033290863037109375">
        <ele>1952.800048828125</ele>
        <time>2026-06-17T10:49:46.000Z</time>
        <extensions>
          <ns3:TrackPointExtension>
            <ns3:atemp>24.0</ns3:atemp>
          </ns3:TrackPointExtension>
        </extensions>
      </trkpt>
      <trkpt lat="42.50742073170840740203857421875" lon="19.9141860567033290863037109375">
        <ele>1952.800048828125</ele>
        <time>2026-06-17T10:49:47.000Z</time>
        <extensions>
          <ns3:TrackPointExtension>
            <ns3:atemp>24.0</ns3:atemp>
          </ns3:TrackPointExtension>
        </extensions>
      </trkpt>
      <trkpt lat="42.50742073170840740203857421875" lon="19.9141860567033290863037109375">
        <ele>1952.800048828125</ele>
        <time>2026-06-17T10:49:48.000Z</time>
        <extensions>
          <ns3:TrackPointExtension>
            <ns3:atemp>24.0</ns3:atemp>
          </ns3:TrackPointExtension>
        </extensions>
      </trkpt>
      <trkpt lat="42.50742073170840740203857421875" lon="19.9141860567033290863037109375">
        <ele>1952.800048828125</ele>
        <time>2026-06-17T10:49:49.000Z</time>
        <extensions>
          <ns3:TrackPointExtension>
            <ns3:atemp>24.0</ns3:atemp>
          </ns3:TrackPointExtension>
        </extensions>
      </trkpt>
      <trkpt lat="42.50742073170840740203857421875" lon="19.9141860567033290863037109375">
        <ele>1952.800048828125</ele>
        <time>2026-06-17T10:49:50.000Z</time>
        <extensions>
          <ns3:TrackPointExtension>
            <ns3:atemp>24.0</ns3:atemp>
          </ns3:TrackPointExtension>
        </extensions>
      </trkpt>
      <trkpt lat="42.50742073170840740203857421875" lon="19.9141860567033290863037109375">
        <ele>1952.800048828125</ele>
        <time>2026-06-17T10:49:51.000Z</time>
        <extensions>
          <ns3:TrackPointExtension>
            <ns3:atemp>24.0</ns3:atemp>
          </ns3:TrackPointExtension>
        </extensions>
      </trkpt>
      <trkpt lat="42.50742073170840740203857421875" lon="19.9141860567033290863037109375">
        <ele>1952.800048828125</ele>
        <time>2026-06-17T10:49:52.000Z</time>
        <extensions>
          <ns3:TrackPointExtension>
            <ns3:atemp>24.0</ns3:atemp>
          </ns3:TrackPointExtension>
        </extensions>
      </trkpt>
      <trkpt lat="42.50742073170840740203857421875" lon="19.9141860567033290863037109375">
        <ele>1952.800048828125</ele>
        <time>2026-06-17T10:49:53.000Z</time>
        <extensions>
          <ns3:TrackPointExtension>
            <ns3:atemp>24.0</ns3:atemp>
          </ns3:TrackPointExtension>
        </extensions>
      </trkpt>
      <trkpt lat="42.50742073170840740203857421875" lon="19.9141860567033290863037109375">
        <ele>1952.800048828125</ele>
        <time>2026-06-17T10:49:54.000Z</time>
        <extensions>
          <ns3:TrackPointExtension>
            <ns3:atemp>24.0</ns3:atemp>
          </ns3:TrackPointExtension>
        </extensions>
      </trkpt>
      <trkpt lat="42.50741905532777309417724609375" lon="19.91418077610433101654052734375">
        <ele>1952.800048828125</ele>
        <time>2026-06-17T10:49:55.000Z</time>
        <extensions>
          <ns3:TrackPointExtension>
            <ns3:atemp>24.0</ns3:atemp>
          </ns3:TrackPointExtension>
        </extensions>
      </trkpt>
      <trkpt lat="42.50740514136850833892822265625" lon="19.91415713913738727569580078125">
        <ele>1952.800048828125</ele>
        <time>2026-06-17T10:49:56.000Z</time>
        <extensions>
          <ns3:TrackPointExtension>
            <ns3:atemp>24.0</ns3:atemp>
          </ns3:TrackPointExtension>
        </extensions>
      </trkpt>
      <trkpt lat="42.50739223323762416839599609375" lon="19.9141471646726131439208984375">
        <ele>1952.5999755859375</ele>
        <time>2026-06-17T10:49:57.000Z</time>
        <extensions>
          <ns3:TrackPointExtension>
            <ns3:atemp>24.0</ns3:atemp>
          </ns3:TrackPointExtension>
        </extensions>
      </trkpt>
      <trkpt lat="42.507382929325103759765625" lon="19.9141304008662700653076171875">
        <ele>1952.4000244140625</ele>
        <time>2026-06-17T10:49:58.000Z</time>
        <extensions>
          <ns3:TrackPointExtension>
            <ns3:atemp>24.0</ns3:atemp>
          </ns3:TrackPointExtension>
        </extensions>
      </trkpt>
      <trkpt lat="42.50737287104129791259765625" lon="19.9141129665076732635498046875">
        <ele>1952.199951171875</ele>
        <time>2026-06-17T10:49:59.000Z</time>
        <extensions>
          <ns3:TrackPointExtension>
            <ns3:atemp>24.0</ns3:atemp>
          </ns3:TrackPointExtension>
        </extensions>
      </trkpt>
      <trkpt lat="42.50735652633011341094970703125" lon="19.9140916764736175537109375">
        <ele>1952</ele>
        <time>2026-06-17T10:50:00.000Z</time>
        <extensions>
          <ns3:TrackPointExtension>
            <ns3:atemp>24.0</ns3:atemp>
          </ns3:TrackPointExtension>
        </extensions>
      </trkpt>
      <trkpt lat="42.50733800232410430908203125" lon="19.9140648543834686279296875">
        <ele>1951.800048828125</ele>
        <time>2026-06-17T10:50:01.000Z</time>
        <extensions>
          <ns3:TrackPointExtension>
            <ns3:atemp>24.0</ns3:atemp>
          </ns3:TrackPointExtension>
        </extensions>
      </trkpt>
      <trkpt lat="42.50732325017452239990234375" lon="19.91403593681752681732177734375">
        <ele>1951.800048828125</ele>
        <time>2026-06-17T10:50:02.000Z</time>
        <extensions>
          <ns3:TrackPointExtension>
            <ns3:atemp>24.0</ns3:atemp>
          </ns3:TrackPointExtension>
        </extensions>
      </trkpt>
      <trkpt lat="42.50730908475816249847412109375" lon="19.91400073282420635223388671875">
        <ele>1952</ele>
        <time>2026-06-17T10:50:03.000Z</time>
        <extensions>
          <ns3:TrackPointExtension>
            <ns3:atemp>24.0</ns3:atemp>
          </ns3:TrackPointExtension>
        </extensions>
      </trkpt>
      <trkpt lat="42.507291734218597412109375" lon="19.91397173143923282623291015625">
        <ele>1952</ele>
        <time>2026-06-17T10:50:04.000Z</time>
        <extensions>
          <ns3:TrackPointExtension>
            <ns3:atemp>24.0</ns3:atemp>
          </ns3:TrackPointExtension>
        </extensions>
      </trkpt>
      <trkpt lat="42.507275305688381195068359375" lon="19.913941137492656707763671875">
        <ele>1952.199951171875</ele>
        <time>2026-06-17T10:50:05.000Z</time>
        <extensions>
          <ns3:TrackPointExtension>
            <ns3:atemp>24.0</ns3:atemp>
          </ns3:TrackPointExtension>
        </extensions>
      </trkpt>
      <trkpt lat="42.5072582066059112548828125" lon="19.9139084480702877044677734375">
        <ele>1952.4000244140625</ele>
        <time>2026-06-17T10:50:06.000Z</time>
        <extensions>
          <ns3:TrackPointExtension>
            <ns3:atemp>24.0</ns3:atemp>
          </ns3:TrackPointExtension>
        </extensions>
      </trkpt>
      <trkpt lat="42.50724990852177143096923828125" lon="19.91387047804892063140869140625">
        <ele>1952.5999755859375</ele>
        <time>2026-06-17T10:50:07.000Z</time>
        <extensions>
          <ns3:TrackPointExtension>
            <ns3:atemp>24.0</ns3:atemp>
          </ns3:TrackPointExtension>
        </extensions>
      </trkpt>
      <trkpt lat="42.507237084209918975830078125" lon="19.9138355255126953125">
        <ele>1952.800048828125</ele>
        <time>2026-06-17T10:50:08.000Z</time>
        <extensions>
          <ns3:TrackPointExtension>
            <ns3:atemp>24.0</ns3:atemp>
          </ns3:TrackPointExtension>
        </extensions>
      </trkpt>
      <trkpt lat="42.50722090713679790496826171875" lon="19.91380744613707065582275390625">
        <ele>1953.199951171875</ele>
        <time>2026-06-17T10:50:09.000Z</time>
        <extensions>
          <ns3:TrackPointExtension>
            <ns3:atemp>24.0</ns3:atemp>
          </ns3:TrackPointExtension>
        </extensions>
      </trkpt>
      <trkpt lat="42.507203556597232818603515625" lon="19.9137776903808116912841796875">
        <ele>1953.4000244140625</ele>
        <time>2026-06-17T10:50:10.000Z</time>
        <extensions>
          <ns3:TrackPointExtension>
            <ns3:atemp>24.0</ns3:atemp>
          </ns3:TrackPointExtension>
        </extensions>
      </trkpt>
      <trkpt lat="42.5071799196302890777587890625" lon="19.91374894045293331146240234375">
        <ele>1953.5999755859375</ele>
        <time>2026-06-17T10:50:11.000Z</time>
        <extensions>
          <ns3:TrackPointExtension>
            <ns3:atemp>24.0</ns3:atemp>
          </ns3:TrackPointExtension>
        </extensions>
      </trkpt>
      <trkpt lat="42.50715435482561588287353515625" lon="19.91372161544859409332275390625">
        <ele>1953.800048828125</ele>
        <time>2026-06-17T10:50:12.000Z</time>
        <extensions>
          <ns3:TrackPointExtension>
            <ns3:atemp>24.0</ns3:atemp>
          </ns3:TrackPointExtension>
        </extensions>
      </trkpt>
      <trkpt lat="42.5071309693157672882080078125" lon="19.91368976421654224395751953125">
        <ele>1954</ele>
        <time>2026-06-17T10:50:13.000Z</time>
        <extensions>
          <ns3:TrackPointExtension>
            <ns3:atemp>24.0</ns3:atemp>
          </ns3:TrackPointExtension>
        </extensions>
      </trkpt>
      <trkpt lat="42.507112026214599609375" lon="19.91365321911871433258056640625">
        <ele>1954</ele>
        <time>2026-06-17T10:50:14.000Z</time>
        <extensions>
          <ns3:TrackPointExtension>
            <ns3:atemp>24.0</ns3:atemp>
          </ns3:TrackPointExtension>
        </extensions>
      </trkpt>
      <trkpt lat="42.50709953717887401580810546875" lon="19.91361566819250583648681640625">
        <ele>1954.199951171875</ele>
        <time>2026-06-17T10:50:15.000Z</time>
        <extensions>
          <ns3:TrackPointExtension>
            <ns3:atemp>24.0</ns3:atemp>
          </ns3:TrackPointExtension>
        </extensions>
      </trkpt>
      <trkpt lat="42.507088892161846160888671875" lon="19.9135792069137096405029296875">
        <ele>1954.4000244140625</ele>
        <time>2026-06-17T10:50:16.000Z</time>
        <extensions>
          <ns3:TrackPointExtension>
            <ns3:atemp>24.0</ns3:atemp>
          </ns3:TrackPointExtension>
        </extensions>
      </trkpt>
      <trkpt lat="42.507070787250995635986328125" lon="19.9135527200996875762939453125">
        <ele>1954.5999755859375</ele>
        <time>2026-06-17T10:50:17.000Z</time>
        <extensions>
          <ns3:TrackPointExtension>
            <ns3:atemp>24.0</ns3:atemp>
          </ns3:TrackPointExtension>
        </extensions>
      </trkpt>
      <trkpt lat="42.50705771148204803466796875" lon="19.91352682001888751983642578125">
        <ele>1954.800048828125</ele>
        <time>2026-06-17T10:50:18.000Z</time>
        <extensions>
          <ns3:TrackPointExtension>
            <ns3:atemp>24.0</ns3:atemp>
          </ns3:TrackPointExtension>
        </extensions>
      </trkpt>
      <trkpt lat="42.50704924575984477996826171875" lon="19.91350268013775348663330078125">
        <ele>1955</ele>
        <time>2026-06-17T10:50:19.000Z</time>
        <extensions>
          <ns3:TrackPointExtension>
            <ns3:atemp>24.0</ns3:atemp>
          </ns3:TrackPointExtension>
        </extensions>
      </trkpt>
      <trkpt lat="42.507043294608592987060546875" lon="19.91348356939852237701416015625">
        <ele>1955</ele>
        <time>2026-06-17T10:50:20.000Z</time>
        <extensions>
          <ns3:TrackPointExtension>
            <ns3:atemp>24.0</ns3:atemp>
          </ns3:TrackPointExtension>
        </extensions>
      </trkpt>
      <trkpt lat="42.50703533180058002471923828125" lon="19.91347082890570163726806640625">
        <ele>1955</ele>
        <time>2026-06-17T10:50:21.000Z</time>
        <extensions>
          <ns3:TrackPointExtension>
            <ns3:atemp>24.0</ns3:atemp>
          </ns3:TrackPointExtension>
        </extensions>
      </trkpt>
      <trkpt lat="42.50702711753547191619873046875" lon="19.9134551547467708587646484375">
        <ele>1954.800048828125</ele>
        <time>2026-06-17T10:50:22.000Z</time>
        <extensions>
          <ns3:TrackPointExtension>
            <ns3:atemp>24.0</ns3:atemp>
          </ns3:TrackPointExtension>
        </extensions>
      </trkpt>
      <trkpt lat="42.5070230104029178619384765625" lon="19.91344199515879154205322265625">
        <ele>1954.800048828125</ele>
        <time>2026-06-17T10:50:23.000Z</time>
        <extensions>
          <ns3:TrackPointExtension>
            <ns3:atemp>24.0</ns3:atemp>
          </ns3:TrackPointExtension>
        </extensions>
      </trkpt>
      <trkpt lat="42.50702410005033016204833984375" lon="19.9134246446192264556884765625">
        <ele>1954.800048828125</ele>
        <time>2026-06-17T10:50:24.000Z</time>
        <extensions>
          <ns3:TrackPointExtension>
            <ns3:atemp>24.0</ns3:atemp>
          </ns3:TrackPointExtension>
        </extensions>
      </trkpt>
      <trkpt lat="42.50702493824064731597900390625" lon="19.913416095077991485595703125">
        <ele>1954.800048828125</ele>
        <time>2026-06-17T10:50:25.000Z</time>
        <extensions>
          <ns3:TrackPointExtension>
            <ns3:atemp>24.0</ns3:atemp>
          </ns3:TrackPointExtension>
        </extensions>
      </trkpt>
      <trkpt lat="42.5070226751267910003662109375" lon="19.9134145863354206085205078125">
        <ele>1954.800048828125</ele>
        <time>2026-06-17T10:50:26.000Z</time>
        <extensions>
          <ns3:TrackPointExtension>
            <ns3:atemp>24.0</ns3:atemp>
          </ns3:TrackPointExtension>
        </extensions>
      </trkpt>
      <trkpt lat="42.507025860249996185302734375" lon="19.91340972483158111572265625">
        <ele>1955</ele>
        <time>2026-06-17T10:50:27.000Z</time>
        <extensions>
          <ns3:TrackPointExtension>
            <ns3:atemp>24.0</ns3:atemp>
          </ns3:TrackPointExtension>
        </extensions>
      </trkpt>
      <trkpt lat="42.50702594406902790069580078125" lon="19.91340964101254940032958984375">
        <ele>1955.199951171875</ele>
        <time>2026-06-17T10:50:28.000Z</time>
        <extensions>
          <ns3:TrackPointExtension>
            <ns3:atemp>24.0</ns3:atemp>
          </ns3:TrackPointExtension>
        </extensions>
      </trkpt>
      <trkpt lat="42.507026195526123046875" lon="19.91340972483158111572265625">
        <ele>1955.4000244140625</ele>
        <time>2026-06-17T10:50:29.000Z</time>
        <extensions>
          <ns3:TrackPointExtension>
            <ns3:atemp>24.0</ns3:atemp>
          </ns3:TrackPointExtension>
        </extensions>
      </trkpt>
      <trkpt lat="42.507035247981548309326171875" lon="19.9134095571935176849365234375">
        <ele>1955.199951171875</ele>
        <time>2026-06-17T10:50:30.000Z</time>
        <extensions>
          <ns3:TrackPointExtension>
            <ns3:atemp>24.0</ns3:atemp>
          </ns3:TrackPointExtension>
        </extensions>
      </trkpt>
      <trkpt lat="42.50702594406902790069580078125" lon="19.91340964101254940032958984375">
        <ele>1955</ele>
        <time>2026-06-17T10:50:31.000Z</time>
        <extensions>
          <ns3:TrackPointExtension>
            <ns3:atemp>24.0</ns3:atemp>
          </ns3:TrackPointExtension>
        </extensions>
      </trkpt>
      <trkpt lat="42.50702594406902790069580078125" lon="19.91340964101254940032958984375">
        <ele>1954.800048828125</ele>
        <time>2026-06-17T10:50:32.000Z</time>
        <extensions>
          <ns3:TrackPointExtension>
            <ns3:atemp>24.0</ns3:atemp>
          </ns3:TrackPointExtension>
        </extensions>
      </trkpt>
      <trkpt lat="42.50702594406902790069580078125" lon="19.91340964101254940032958984375">
        <ele>1954.5999755859375</ele>
        <time>2026-06-17T10:50:33.000Z</time>
        <extensions>
          <ns3:TrackPointExtension>
            <ns3:atemp>24.0</ns3:atemp>
          </ns3:TrackPointExtension>
        </extensions>
      </trkpt>
      <trkpt lat="42.50702594406902790069580078125" lon="19.91340964101254940032958984375">
        <ele>1954.4000244140625</ele>
        <time>2026-06-17T10:50:34.000Z</time>
        <extensions>
          <ns3:TrackPointExtension>
            <ns3:atemp>24.0</ns3:atemp>
          </ns3:TrackPointExtension>
        </extensions>
      </trkpt>
      <trkpt lat="42.50702594406902790069580078125" lon="19.91340964101254940032958984375">
        <ele>1954.199951171875</ele>
        <time>2026-06-17T10:50:35.000Z</time>
        <extensions>
          <ns3:TrackPointExtension>
            <ns3:atemp>24.0</ns3:atemp>
          </ns3:TrackPointExtension>
        </extensions>
      </trkpt>
      <trkpt lat="42.50702594406902790069580078125" lon="19.91340964101254940032958984375">
        <ele>1954.199951171875</ele>
        <time>2026-06-17T10:50:36.000Z</time>
        <extensions>
          <ns3:TrackPointExtension>
            <ns3:atemp>24.0</ns3:atemp>
          </ns3:TrackPointExtension>
        </extensions>
      </trkpt>
      <trkpt lat="42.50702594406902790069580078125" lon="19.91340964101254940032958984375">
        <ele>1954.199951171875</ele>
        <time>2026-06-17T10:50:37.000Z</time>
        <extensions>
          <ns3:TrackPointExtension>
            <ns3:atemp>24.0</ns3:atemp>
          </ns3:TrackPointExtension>
        </extensions>
      </trkpt>
      <trkpt lat="42.50702594406902790069580078125" lon="19.91340964101254940032958984375">
        <ele>1954.199951171875</ele>
        <time>2026-06-17T10:50:38.000Z</time>
        <extensions>
          <ns3:TrackPointExtension>
            <ns3:atemp>24.0</ns3:atemp>
          </ns3:TrackPointExtension>
        </extensions>
      </trkpt>
      <trkpt lat="42.50702594406902790069580078125" lon="19.91340964101254940032958984375">
        <ele>1954</ele>
        <time>2026-06-17T10:50:39.000Z</time>
        <extensions>
          <ns3:TrackPointExtension>
            <ns3:atemp>25.0</ns3:atemp>
          </ns3:TrackPointExtension>
        </extensions>
      </trkpt>
      <trkpt lat="42.50703667290508747100830078125" lon="19.91341148503124713897705078125">
        <ele>1954</ele>
        <time>2026-06-17T10:50:40.000Z</time>
        <extensions>
          <ns3:TrackPointExtension>
            <ns3:atemp>25.0</ns3:atemp>
          </ns3:TrackPointExtension>
        </extensions>
      </trkpt>
      <trkpt lat="42.5070380978286266326904296875" lon="19.91341131739318370819091796875">
        <ele>1954</ele>
        <time>2026-06-17T10:50:41.000Z</time>
        <extensions>
          <ns3:TrackPointExtension>
            <ns3:atemp>25.0</ns3:atemp>
          </ns3:TrackPointExtension>
        </extensions>
      </trkpt>
      <trkpt lat="42.50702594406902790069580078125" lon="19.91340964101254940032958984375">
        <ele>1954</ele>
        <time>2026-06-17T10:50:42.000Z</time>
        <extensions>
          <ns3:TrackPointExtension>
            <ns3:atemp>25.0</ns3:atemp>
          </ns3:TrackPointExtension>
        </extensions>
      </trkpt>
      <trkpt lat="42.50702594406902790069580078125" lon="19.91340964101254940032958984375">
        <ele>1954</ele>
        <time>2026-06-17T10:50:43.000Z</time>
        <extensions>
          <ns3:TrackPointExtension>
            <ns3:atemp>25.0</ns3:atemp>
          </ns3:TrackPointExtension>
        </extensions>
      </trkpt>
      <trkpt lat="42.50702594406902790069580078125" lon="19.91340964101254940032958984375">
        <ele>1954.199951171875</ele>
        <time>2026-06-17T10:50:44.000Z</time>
        <extensions>
          <ns3:TrackPointExtension>
            <ns3:atemp>24.0</ns3:atemp>
          </ns3:TrackPointExtension>
        </extensions>
      </trkpt>
      <trkpt lat="42.50702594406902790069580078125" lon="19.91340964101254940032958984375">
        <ele>1954.199951171875</ele>
        <time>2026-06-17T10:50:45.000Z</time>
        <extensions>
          <ns3:TrackPointExtension>
            <ns3:atemp>24.0</ns3:atemp>
          </ns3:TrackPointExtension>
        </extensions>
      </trkpt>
      <trkpt lat="42.50702594406902790069580078125" lon="19.91340964101254940032958984375">
        <ele>1954.199951171875</ele>
        <time>2026-06-17T10:50:46.000Z</time>
        <extensions>
          <ns3:TrackPointExtension>
            <ns3:atemp>24.0</ns3:atemp>
          </ns3:TrackPointExtension>
        </extensions>
      </trkpt>
      <trkpt lat="42.50702594406902790069580078125" lon="19.91340964101254940032958984375">
        <ele>1954.199951171875</ele>
        <time>2026-06-17T10:50:47.000Z</time>
        <extensions>
          <ns3:TrackPointExtension>
            <ns3:atemp>24.0</ns3:atemp>
          </ns3:TrackPointExtension>
        </extensions>
      </trkpt>
      <trkpt lat="42.50702594406902790069580078125" lon="19.91340964101254940032958984375">
        <ele>1954.4000244140625</ele>
        <time>2026-06-17T10:50:48.000Z</time>
        <extensions>
          <ns3:TrackPointExtension>
            <ns3:atemp>24.0</ns3:atemp>
          </ns3:TrackPointExtension>
        </extensions>
      </trkpt>
      <trkpt lat="42.50702594406902790069580078125" lon="19.91340964101254940032958984375">
        <ele>1954.4000244140625</ele>
        <time>2026-06-17T10:50:49.000Z</time>
        <extensions>
          <ns3:TrackPointExtension>
            <ns3:atemp>24.0</ns3:atemp>
          </ns3:TrackPointExtension>
        </extensions>
      </trkpt>
      <trkpt lat="42.50703533180058002471923828125" lon="19.91340712644159793853759765625">
        <ele>1954.5999755859375</ele>
        <time>2026-06-17T10:50:50.000Z</time>
        <extensions>
          <ns3:TrackPointExtension>
            <ns3:atemp>24.0</ns3:atemp>
          </ns3:TrackPointExtension>
        </extensions>
      </trkpt>
      <trkpt lat="42.5070382654666900634765625" lon="19.91340209729969501495361328125">
        <ele>1954.800048828125</ele>
        <time>2026-06-17T10:50:51.000Z</time>
        <extensions>
          <ns3:TrackPointExtension>
            <ns3:atemp>24.0</ns3:atemp>
          </ns3:TrackPointExtension>
        </extensions>
      </trkpt>
      <trkpt lat="42.50704186968505382537841796875" lon="19.91340176202356815338134765625">
        <ele>1955.199951171875</ele>
        <time>2026-06-17T10:50:52.000Z</time>
        <extensions>
          <ns3:TrackPointExtension>
            <ns3:atemp>24.0</ns3:atemp>
          </ns3:TrackPointExtension>
        </extensions>
      </trkpt>
      <trkpt lat="42.50704220496118068695068359375" lon="19.9134018458425998687744140625">
        <ele>1955.4000244140625</ele>
        <time>2026-06-17T10:50:53.000Z</time>
        <extensions>
          <ns3:TrackPointExtension>
            <ns3:atemp>24.0</ns3:atemp>
          </ns3:TrackPointExtension>
        </extensions>
      </trkpt>
      <trkpt lat="42.50705712474882602691650390625" lon="19.91342003457248210906982421875">
        <ele>1955.5999755859375</ele>
        <time>2026-06-17T10:50:54.000Z</time>
        <extensions>
          <ns3:TrackPointExtension>
            <ns3:atemp>24.0</ns3:atemp>
          </ns3:TrackPointExtension>
        </extensions>
      </trkpt>
      <trkpt lat="42.50706617720425128936767578125" lon="19.91343059577047824859619140625">
        <ele>1955.800048828125</ele>
        <time>2026-06-17T10:50:55.000Z</time>
        <extensions>
          <ns3:TrackPointExtension>
            <ns3:atemp>24.0</ns3:atemp>
          </ns3:TrackPointExtension>
        </extensions>
      </trkpt>
      <trkpt lat="42.50706936232745647430419921875" lon="19.913438223302364349365234375">
        <ele>1955.800048828125</ele>
        <time>2026-06-17T10:50:56.000Z</time>
        <extensions>
          <ns3:TrackPointExtension>
            <ns3:atemp>24.0</ns3:atemp>
          </ns3:TrackPointExtension>
        </extensions>
      </trkpt>
      <trkpt lat="42.50706869177520275115966796875" lon="19.9134397320449352264404296875">
        <ele>1956</ele>
        <time>2026-06-17T10:50:57.000Z</time>
        <extensions>
          <ns3:TrackPointExtension>
            <ns3:atemp>24.0</ns3:atemp>
          </ns3:TrackPointExtension>
        </extensions>
      </trkpt>
      <trkpt lat="42.50706869177520275115966796875" lon="19.9134397320449352264404296875">
        <ele>1956.199951171875</ele>
        <time>2026-06-17T10:50:58.000Z</time>
        <extensions>
          <ns3:TrackPointExtension>
            <ns3:atemp>25.0</ns3:atemp>
          </ns3:TrackPointExtension>
        </extensions>
      </trkpt>
      <trkpt lat="42.50706869177520275115966796875" lon="19.9134397320449352264404296875">
        <ele>1956.199951171875</ele>
        <time>2026-06-17T10:50:59.000Z</time>
        <extensions>
          <ns3:TrackPointExtension>
            <ns3:atemp>25.0</ns3:atemp>
          </ns3:TrackPointExtension>
        </extensions>
      </trkpt>
      <trkpt lat="42.50706869177520275115966796875" lon="19.9134397320449352264404296875">
        <ele>1956.4000244140625</ele>
        <time>2026-06-17T10:51:00.000Z</time>
        <extensions>
          <ns3:TrackPointExtension>
            <ns3:atemp>24.0</ns3:atemp>
          </ns3:TrackPointExtension>
        </extensions>
      </trkpt>
      <trkpt lat="42.50706869177520275115966796875" lon="19.9134397320449352264404296875">
        <ele>1956.5999755859375</ele>
        <time>2026-06-17T10:51:01.000Z</time>
        <extensions>
          <ns3:TrackPointExtension>
            <ns3:atemp>25.0</ns3:atemp>
          </ns3:TrackPointExtension>
        </extensions>
      </trkpt>
      <trkpt lat="42.50706869177520275115966796875" lon="19.9134397320449352264404296875">
        <ele>1956.800048828125</ele>
        <time>2026-06-17T10:51:02.000Z</time>
        <extensions>
          <ns3:TrackPointExtension>
            <ns3:atemp>24.0</ns3:atemp>
          </ns3:TrackPointExtension>
        </extensions>
      </trkpt>
      <trkpt lat="42.50706869177520275115966796875" lon="19.9134397320449352264404296875">
        <ele>1956.800048828125</ele>
        <time>2026-06-17T10:51:03.000Z</time>
        <extensions>
          <ns3:TrackPointExtension>
            <ns3:atemp>24.0</ns3:atemp>
          </ns3:TrackPointExtension>
        </extensions>
      </trkpt>
      <trkpt lat="42.50706869177520275115966796875" lon="19.9134397320449352264404296875">
        <ele>1956.800048828125</ele>
        <time>2026-06-17T10:51:04.000Z</time>
        <extensions>
          <ns3:TrackPointExtension>
            <ns3:atemp>24.0</ns3:atemp>
          </ns3:TrackPointExtension>
        </extensions>
      </trkpt>
      <trkpt lat="42.50706869177520275115966796875" lon="19.9134397320449352264404296875">
        <ele>1956.800048828125</ele>
        <time>2026-06-17T10:51:05.000Z</time>
        <extensions>
          <ns3:TrackPointExtension>
            <ns3:atemp>24.0</ns3:atemp>
          </ns3:TrackPointExtension>
        </extensions>
      </trkpt>
      <trkpt lat="42.5070704519748687744140625" lon="19.91344165988266468048095703125">
        <ele>1957</ele>
        <time>2026-06-17T10:51:06.000Z</time>
        <extensions>
          <ns3:TrackPointExtension>
            <ns3:atemp>24.0</ns3:atemp>
          </ns3:TrackPointExtension>
        </extensions>
      </trkpt>
      <trkpt lat="42.5070847012102603912353515625" lon="19.9134695716202259063720703125">
        <ele>1957.199951171875</ele>
        <time>2026-06-17T10:51:07.000Z</time>
        <extensions>
          <ns3:TrackPointExtension>
            <ns3:atemp>24.0</ns3:atemp>
          </ns3:TrackPointExtension>
        </extensions>
      </trkpt>
      <trkpt lat="42.50709794461727142333984375" lon="19.9134873412549495697021484375">
        <ele>1957.199951171875</ele>
        <time>2026-06-17T10:51:08.000Z</time>
        <extensions>
          <ns3:TrackPointExtension>
            <ns3:atemp>24.0</ns3:atemp>
          </ns3:TrackPointExtension>
        </extensions>
      </trkpt>
      <trkpt lat="42.5071098469197750091552734375" lon="19.913506619632244110107421875">
        <ele>1957.4000244140625</ele>
        <time>2026-06-17T10:51:09.000Z</time>
        <extensions>
          <ns3:TrackPointExtension>
            <ns3:atemp>24.0</ns3:atemp>
          </ns3:TrackPointExtension>
        </extensions>
      </trkpt>
      <trkpt lat="42.50712208449840545654296875" lon="19.913532100617885589599609375">
        <ele>1957.4000244140625</ele>
        <time>2026-06-17T10:51:10.000Z</time>
        <extensions>
          <ns3:TrackPointExtension>
            <ns3:atemp>24.0</ns3:atemp>
          </ns3:TrackPointExtension>
        </extensions>
      </trkpt>
      <trkpt lat="42.50713256187736988067626953125" lon="19.91355498321354389190673828125">
        <ele>1957.4000244140625</ele>
        <time>2026-06-17T10:51:11.000Z</time>
        <extensions>
          <ns3:TrackPointExtension>
            <ns3:atemp>24.0</ns3:atemp>
          </ns3:TrackPointExtension>
        </extensions>
      </trkpt>
      <trkpt lat="42.5071447156369686126708984375" lon="19.9135822243988513946533203125">
        <ele>1957.4000244140625</ele>
        <time>2026-06-17T10:51:12.000Z</time>
        <extensions>
          <ns3:TrackPointExtension>
            <ns3:atemp>24.0</ns3:atemp>
          </ns3:TrackPointExtension>
        </extensions>
      </trkpt>
      <trkpt lat="42.50716072507202625274658203125" lon="19.91360644809901714324951171875">
        <ele>1957.5999755859375</ele>
        <time>2026-06-17T10:51:13.000Z</time>
        <extensions>
          <ns3:TrackPointExtension>
            <ns3:atemp>25.0</ns3:atemp>
          </ns3:TrackPointExtension>
        </extensions>
      </trkpt>
      <trkpt lat="42.507177405059337615966796875" lon="19.9136328510940074920654296875">
        <ele>1957.5999755859375</ele>
        <time>2026-06-17T10:51:14.000Z</time>
        <extensions>
          <ns3:TrackPointExtension>
            <ns3:atemp>25.0</ns3:atemp>
          </ns3:TrackPointExtension>
        </extensions>
      </trkpt>
      <trkpt lat="42.50719718635082244873046875" lon="19.91365690715610980987548828125">
        <ele>1957.5999755859375</ele>
        <time>2026-06-17T10:51:15.000Z</time>
        <extensions>
          <ns3:TrackPointExtension>
            <ns3:atemp>25.0</ns3:atemp>
          </ns3:TrackPointExtension>
        </extensions>
      </trkpt>
      <trkpt lat="42.50721730291843414306640625" lon="19.9136660434305667877197265625">
        <ele>1957.800048828125</ele>
        <time>2026-06-17T10:51:16.000Z</time>
        <extensions>
          <ns3:TrackPointExtension>
            <ns3:atemp>25.0</ns3:atemp>
          </ns3:TrackPointExtension>
        </extensions>
      </trkpt>
      <trkpt lat="42.50723473727703094482421875" lon="19.9136747606098651885986328125">
        <ele>1958</ele>
        <time>2026-06-17T10:51:17.000Z</time>
        <extensions>
          <ns3:TrackPointExtension>
            <ns3:atemp>25.0</ns3:atemp>
          </ns3:TrackPointExtension>
        </extensions>
      </trkpt>
      <trkpt lat="42.5072409398853778839111328125" lon="19.91368825547397136688232421875">
        <ele>1958.199951171875</ele>
        <time>2026-06-17T10:51:18.000Z</time>
        <extensions>
          <ns3:TrackPointExtension>
            <ns3:atemp>25.0</ns3:atemp>
          </ns3:TrackPointExtension>
        </extensions>
      </trkpt>
      <trkpt lat="42.50725091435015201568603515625" lon="19.91370585747063159942626953125">
        <ele>1958.4000244140625</ele>
        <time>2026-06-17T10:51:19.000Z</time>
        <extensions>
          <ns3:TrackPointExtension>
            <ns3:atemp>25.0</ns3:atemp>
          </ns3:TrackPointExtension>
        </extensions>
      </trkpt>
      <trkpt lat="42.50726566649973392486572265625" lon="19.91373100318014621734619140625">
        <ele>1958.5999755859375</ele>
        <time>2026-06-17T10:51:20.000Z</time>
        <extensions>
          <ns3:TrackPointExtension>
            <ns3:atemp>25.0</ns3:atemp>
          </ns3:TrackPointExtension>
        </extensions>
      </trkpt>
      <trkpt lat="42.50728058628737926483154296875" lon="19.9137515388429164886474609375">
        <ele>1958.5999755859375</ele>
        <time>2026-06-17T10:51:21.000Z</time>
        <extensions>
          <ns3:TrackPointExtension>
            <ns3:atemp>25.0</ns3:atemp>
          </ns3:TrackPointExtension>
        </extensions>
      </trkpt>
      <trkpt lat="42.50729911029338836669921875" lon="19.91376838646829128265380859375">
        <ele>1958.800048828125</ele>
        <time>2026-06-17T10:51:22.000Z</time>
        <extensions>
          <ns3:TrackPointExtension>
            <ns3:atemp>25.0</ns3:atemp>
          </ns3:TrackPointExtension>
        </extensions>
      </trkpt>
      <trkpt lat="42.5073193944990634918212890625" lon="19.91378179751336574554443359375">
        <ele>1958.800048828125</ele>
        <time>2026-06-17T10:51:23.000Z</time>
        <extensions>
          <ns3:TrackPointExtension>
            <ns3:atemp>25.0</ns3:atemp>
          </ns3:TrackPointExtension>
        </extensions>
      </trkpt>
      <trkpt lat="42.5073435343801975250244140625" lon="19.91379336453974246978759765625">
        <ele>1958.800048828125</ele>
        <time>2026-06-17T10:51:24.000Z</time>
        <extensions>
          <ns3:TrackPointExtension>
            <ns3:atemp>25.0</ns3:atemp>
          </ns3:TrackPointExtension>
        </extensions>
      </trkpt>
      <trkpt lat="42.50736339949071407318115234375" lon="19.91380074061453342437744140625">
        <ele>1959</ele>
        <time>2026-06-17T10:51:25.000Z</time>
        <extensions>
          <ns3:TrackPointExtension>
            <ns3:atemp>25.0</ns3:atemp>
          </ns3:TrackPointExtension>
        </extensions>
      </trkpt>
      <trkpt lat="42.5073817558586597442626953125" lon="19.9138108827173709869384765625">
        <ele>1959.199951171875</ele>
        <time>2026-06-17T10:51:26.000Z</time>
        <extensions>
          <ns3:TrackPointExtension>
            <ns3:atemp>25.0</ns3:atemp>
          </ns3:TrackPointExtension>
        </extensions>
      </trkpt>
      <trkpt lat="42.5073975138366222381591796875" lon="19.91382136009633541107177734375">
        <ele>1959.4000244140625</ele>
        <time>2026-06-17T10:51:27.000Z</time>
        <extensions>
          <ns3:TrackPointExtension>
            <ns3:atemp>25.0</ns3:atemp>
          </ns3:TrackPointExtension>
        </extensions>
      </trkpt>
      <trkpt lat="42.50741302035748958587646484375" lon="19.91381901316344738006591796875">
        <ele>1959.5999755859375</ele>
        <time>2026-06-17T10:51:28.000Z</time>
        <extensions>
          <ns3:TrackPointExtension>
            <ns3:atemp>25.0</ns3:atemp>
          </ns3:TrackPointExtension>
        </extensions>
      </trkpt>
      <trkpt lat="42.507436573505401611328125" lon="19.91382102482020854949951171875">
        <ele>1959.800048828125</ele>
        <time>2026-06-17T10:51:29.000Z</time>
        <extensions>
          <ns3:TrackPointExtension>
            <ns3:atemp>25.0</ns3:atemp>
          </ns3:TrackPointExtension>
        </extensions>
      </trkpt>
      <trkpt lat="42.50745777972042560577392578125" lon="19.91381566040217876434326171875">
        <ele>1960</ele>
        <time>2026-06-17T10:51:30.000Z</time>
        <extensions>
          <ns3:TrackPointExtension>
            <ns3:atemp>25.0</ns3:atemp>
          </ns3:TrackPointExtension>
        </extensions>
      </trkpt>
      <trkpt lat="42.5074763037264347076416015625" lon="19.91381130181252956390380859375">
        <ele>1960.4000244140625</ele>
        <time>2026-06-17T10:51:31.000Z</time>
        <extensions>
          <ns3:TrackPointExtension>
            <ns3:atemp>25.0</ns3:atemp>
          </ns3:TrackPointExtension>
        </extensions>
      </trkpt>
      <trkpt lat="42.5074969232082366943359375" lon="19.9138154089450836181640625">
        <ele>1960.4000244140625</ele>
        <time>2026-06-17T10:51:32.000Z</time>
        <extensions>
          <ns3:TrackPointExtension>
            <ns3:atemp>25.0</ns3:atemp>
          </ns3:TrackPointExtension>
        </extensions>
      </trkpt>
      <trkpt lat="42.50751712359488010406494140625" lon="19.91381205618381500244140625">
        <ele>1960.5999755859375</ele>
        <time>2026-06-17T10:51:33.000Z</time>
        <extensions>
          <ns3:TrackPointExtension>
            <ns3:atemp>25.0</ns3:atemp>
          </ns3:TrackPointExtension>
        </extensions>
      </trkpt>
      <trkpt lat="42.50753506086766719818115234375" lon="19.91380258463323116302490234375">
        <ele>1960.5999755859375</ele>
        <time>2026-06-17T10:51:34.000Z</time>
        <extensions>
          <ns3:TrackPointExtension>
            <ns3:atemp>25.0</ns3:atemp>
          </ns3:TrackPointExtension>
        </extensions>
      </trkpt>
      <trkpt lat="42.507547549903392791748046875" lon="19.91379688493907451629638671875">
        <ele>1960.5999755859375</ele>
        <time>2026-06-17T10:51:35.000Z</time>
        <extensions>
          <ns3:TrackPointExtension>
            <ns3:atemp>25.0</ns3:atemp>
          </ns3:TrackPointExtension>
        </extensions>
      </trkpt>
      <trkpt lat="42.50755534507334232330322265625" lon="19.91379001177847385406494140625">
        <ele>1960.5999755859375</ele>
        <time>2026-06-17T10:51:36.000Z</time>
        <extensions>
          <ns3:TrackPointExtension>
            <ns3:atemp>25.0</ns3:atemp>
          </ns3:TrackPointExtension>
        </extensions>
      </trkpt>
      <trkpt lat="42.5075574405491352081298828125" lon="19.913792274892330169677734375">
        <ele>1960.5999755859375</ele>
        <time>2026-06-17T10:51:37.000Z</time>
        <extensions>
          <ns3:TrackPointExtension>
            <ns3:atemp>25.0</ns3:atemp>
          </ns3:TrackPointExtension>
        </extensions>
      </trkpt>
      <trkpt lat="42.5075574405491352081298828125" lon="19.91379235871136188507080078125">
        <ele>1960.5999755859375</ele>
        <time>2026-06-17T10:51:38.000Z</time>
        <extensions>
          <ns3:TrackPointExtension>
            <ns3:atemp>25.0</ns3:atemp>
          </ns3:TrackPointExtension>
        </extensions>
      </trkpt>
      <trkpt lat="42.5075574405491352081298828125" lon="19.91379235871136188507080078125">
        <ele>1960.800048828125</ele>
        <time>2026-06-17T10:51:39.000Z</time>
        <extensions>
          <ns3:TrackPointExtension>
            <ns3:atemp>25.0</ns3:atemp>
          </ns3:TrackPointExtension>
        </extensions>
      </trkpt>
      <trkpt lat="42.5075574405491352081298828125" lon="19.91379235871136188507080078125">
        <ele>1960.800048828125</ele>
        <time>2026-06-17T10:51:40.000Z</time>
        <extensions>
          <ns3:TrackPointExtension>
            <ns3:atemp>25.0</ns3:atemp>
          </ns3:TrackPointExtension>
        </extensions>
      </trkpt>
      <trkpt lat="42.5075574405491352081298828125" lon="19.91379235871136188507080078125">
        <ele>1960.800048828125</ele>
        <time>2026-06-17T10:51:41.000Z</time>
        <extensions>
          <ns3:TrackPointExtension>
            <ns3:atemp>25.0</ns3:atemp>
          </ns3:TrackPointExtension>
        </extensions>
      </trkpt>
      <trkpt lat="42.5075574405491352081298828125" lon="19.91379235871136188507080078125">
        <ele>1960.800048828125</ele>
        <time>2026-06-17T10:51:42.000Z</time>
        <extensions>
          <ns3:TrackPointExtension>
            <ns3:atemp>25.0</ns3:atemp>
          </ns3:TrackPointExtension>
        </extensions>
      </trkpt>
      <trkpt lat="42.5075574405491352081298828125" lon="19.91379235871136188507080078125">
        <ele>1960.5999755859375</ele>
        <time>2026-06-17T10:51:43.000Z</time>
        <extensions>
          <ns3:TrackPointExtension>
            <ns3:atemp>25.0</ns3:atemp>
          </ns3:TrackPointExtension>
        </extensions>
      </trkpt>
      <trkpt lat="42.5075574405491352081298828125" lon="19.91379235871136188507080078125">
        <ele>1960.5999755859375</ele>
        <time>2026-06-17T10:51:44.000Z</time>
        <extensions>
          <ns3:TrackPointExtension>
            <ns3:atemp>25.0</ns3:atemp>
          </ns3:TrackPointExtension>
        </extensions>
      </trkpt>
      <trkpt lat="42.5075574405491352081298828125" lon="19.91379235871136188507080078125">
        <ele>1960.5999755859375</ele>
        <time>2026-06-17T10:51:45.000Z</time>
        <extensions>
          <ns3:TrackPointExtension>
            <ns3:atemp>25.0</ns3:atemp>
          </ns3:TrackPointExtension>
        </extensions>
      </trkpt>
      <trkpt lat="42.5075574405491352081298828125" lon="19.91379235871136188507080078125">
        <ele>1960.4000244140625</ele>
        <time>2026-06-17T10:51:46.000Z</time>
        <extensions>
          <ns3:TrackPointExtension>
            <ns3:atemp>25.0</ns3:atemp>
          </ns3:TrackPointExtension>
        </extensions>
      </trkpt>
      <trkpt lat="42.5075574405491352081298828125" lon="19.91379235871136188507080078125">
        <ele>1960.5999755859375</ele>
        <time>2026-06-17T10:51:47.000Z</time>
        <extensions>
          <ns3:TrackPointExtension>
            <ns3:atemp>25.0</ns3:atemp>
          </ns3:TrackPointExtension>
        </extensions>
      </trkpt>
      <trkpt lat="42.5075574405491352081298828125" lon="19.91379235871136188507080078125">
        <ele>1960.5999755859375</ele>
        <time>2026-06-17T10:51:48.000Z</time>
        <extensions>
          <ns3:TrackPointExtension>
            <ns3:atemp>25.0</ns3:atemp>
          </ns3:TrackPointExtension>
        </extensions>
      </trkpt>
      <trkpt lat="42.5075574405491352081298828125" lon="19.91379235871136188507080078125">
        <ele>1960.5999755859375</ele>
        <time>2026-06-17T10:51:49.000Z</time>
        <extensions>
          <ns3:TrackPointExtension>
            <ns3:atemp>25.0</ns3:atemp>
          </ns3:TrackPointExtension>
        </extensions>
      </trkpt>
      <trkpt lat="42.5075574405491352081298828125" lon="19.91379235871136188507080078125">
        <ele>1960.5999755859375</ele>
        <time>2026-06-17T10:51:50.000Z</time>
        <extensions>
          <ns3:TrackPointExtension>
            <ns3:atemp>25.0</ns3:atemp>
          </ns3:TrackPointExtension>
        </extensions>
      </trkpt>
      <trkpt lat="42.5075574405491352081298828125" lon="19.91379235871136188507080078125">
        <ele>1960.5999755859375</ele>
        <time>2026-06-17T10:51:51.000Z</time>
        <extensions>
          <ns3:TrackPointExtension>
            <ns3:atemp>25.0</ns3:atemp>
          </ns3:TrackPointExtension>
        </extensions>
      </trkpt>
      <trkpt lat="42.5075574405491352081298828125" lon="19.91379235871136188507080078125">
        <ele>1960.800048828125</ele>
        <time>2026-06-17T10:51:52.000Z</time>
        <extensions>
          <ns3:TrackPointExtension>
            <ns3:atemp>25.0</ns3:atemp>
          </ns3:TrackPointExtension>
        </extensions>
      </trkpt>
      <trkpt lat="42.5075574405491352081298828125" lon="19.91379235871136188507080078125">
        <ele>1960.800048828125</ele>
        <time>2026-06-17T10:51:53.000Z</time>
        <extensions>
          <ns3:TrackPointExtension>
            <ns3:atemp>25.0</ns3:atemp>
          </ns3:TrackPointExtension>
        </extensions>
      </trkpt>
      <trkpt lat="42.5075574405491352081298828125" lon="19.91379235871136188507080078125">
        <ele>1960.800048828125</ele>
        <time>2026-06-17T10:51:54.000Z</time>
        <extensions>
          <ns3:TrackPointExtension>
            <ns3:atemp>25.0</ns3:atemp>
          </ns3:TrackPointExtension>
        </extensions>
      </trkpt>
      <trkpt lat="42.5075574405491352081298828125" lon="19.91379235871136188507080078125">
        <ele>1960.5999755859375</ele>
        <time>2026-06-17T10:51:55.000Z</time>
        <extensions>
          <ns3:TrackPointExtension>
            <ns3:atemp>25.0</ns3:atemp>
          </ns3:TrackPointExtension>
        </extensions>
      </trkpt>
      <trkpt lat="42.5075574405491352081298828125" lon="19.91379235871136188507080078125">
        <ele>1960.5999755859375</ele>
        <time>2026-06-17T10:51:56.000Z</time>
        <extensions>
          <ns3:TrackPointExtension>
            <ns3:atemp>25.0</ns3:atemp>
          </ns3:TrackPointExtension>
        </extensions>
      </trkpt>
      <trkpt lat="42.5075574405491352081298828125" lon="19.91379235871136188507080078125">
        <ele>1960.5999755859375</ele>
        <time>2026-06-17T10:51:57.000Z</time>
        <extensions>
          <ns3:TrackPointExtension>
            <ns3:atemp>25.0</ns3:atemp>
          </ns3:TrackPointExtension>
        </extensions>
      </trkpt>
      <trkpt lat="42.5075574405491352081298828125" lon="19.91379235871136188507080078125">
        <ele>1960.5999755859375</ele>
        <time>2026-06-17T10:51:58.000Z</time>
        <extensions>
          <ns3:TrackPointExtension>
            <ns3:atemp>25.0</ns3:atemp>
          </ns3:TrackPointExtension>
        </extensions>
      </trkpt>
      <trkpt lat="42.5075574405491352081298828125" lon="19.91379235871136188507080078125">
        <ele>1960.5999755859375</ele>
        <time>2026-06-17T10:51:59.000Z</time>
        <extensions>
          <ns3:TrackPointExtension>
            <ns3:atemp>25.0</ns3:atemp>
          </ns3:TrackPointExtension>
        </extensions>
      </trkpt>
      <trkpt lat="42.5075574405491352081298828125" lon="19.91379235871136188507080078125">
        <ele>1960.4000244140625</ele>
        <time>2026-06-17T10:52:00.000Z</time>
        <extensions>
          <ns3:TrackPointExtension>
            <ns3:atemp>25.0</ns3:atemp>
          </ns3:TrackPointExtension>
        </extensions>
      </trkpt>
      <trkpt lat="42.5075574405491352081298828125" lon="19.91379235871136188507080078125">
        <ele>1960.4000244140625</ele>
        <time>2026-06-17T10:52:01.000Z</time>
        <extensions>
          <ns3:TrackPointExtension>
            <ns3:atemp>25.0</ns3:atemp>
          </ns3:TrackPointExtension>
        </extensions>
      </trkpt>
      <trkpt lat="42.5075574405491352081298828125" lon="19.91379235871136188507080078125">
        <ele>1960.4000244140625</ele>
        <time>2026-06-17T10:52:02.000Z</time>
        <extensions>
          <ns3:TrackPointExtension>
            <ns3:atemp>25.0</ns3:atemp>
          </ns3:TrackPointExtension>
        </extensions>
      </trkpt>
      <trkpt lat="42.5075574405491352081298828125" lon="19.91379235871136188507080078125">
        <ele>1960.4000244140625</ele>
        <time>2026-06-17T10:52:03.000Z</time>
        <extensions>
          <ns3:TrackPointExtension>
            <ns3:atemp>25.0</ns3:atemp>
          </ns3:TrackPointExtension>
        </extensions>
      </trkpt>
      <trkpt lat="42.5075574405491352081298828125" lon="19.91379235871136188507080078125">
        <ele>1960.199951171875</ele>
        <time>2026-06-17T10:52:04.000Z</time>
        <extensions>
          <ns3:TrackPointExtension>
            <ns3:atemp>25.0</ns3:atemp>
          </ns3:TrackPointExtension>
        </extensions>
      </trkpt>
      <trkpt lat="42.5075574405491352081298828125" lon="19.91379235871136188507080078125">
        <ele>1960.199951171875</ele>
        <time>2026-06-17T10:52:05.000Z</time>
        <extensions>
          <ns3:TrackPointExtension>
            <ns3:atemp>25.0</ns3:atemp>
          </ns3:TrackPointExtension>
        </extensions>
      </trkpt>
      <trkpt lat="42.5075574405491352081298828125" lon="19.91379235871136188507080078125">
        <ele>1960.199951171875</ele>
        <time>2026-06-17T10:52:06.000Z</time>
        <extensions>
          <ns3:TrackPointExtension>
            <ns3:atemp>25.0</ns3:atemp>
          </ns3:TrackPointExtension>
        </extensions>
      </trkpt>
      <trkpt lat="42.5075574405491352081298828125" lon="19.91379235871136188507080078125">
        <ele>1960.199951171875</ele>
        <time>2026-06-17T10:52:07.000Z</time>
        <extensions>
          <ns3:TrackPointExtension>
            <ns3:atemp>25.0</ns3:atemp>
          </ns3:TrackPointExtension>
        </extensions>
      </trkpt>
      <trkpt lat="42.5075574405491352081298828125" lon="19.91379235871136188507080078125">
        <ele>1960</ele>
        <time>2026-06-17T10:52:08.000Z</time>
        <extensions>
          <ns3:TrackPointExtension>
            <ns3:atemp>25.0</ns3:atemp>
          </ns3:TrackPointExtension>
        </extensions>
      </trkpt>
      <trkpt lat="42.5075574405491352081298828125" lon="19.91379235871136188507080078125">
        <ele>1960</ele>
        <time>2026-06-17T10:52:09.000Z</time>
        <extensions>
          <ns3:TrackPointExtension>
            <ns3:atemp>25.0</ns3:atemp>
          </ns3:TrackPointExtension>
        </extensions>
      </trkpt>
      <trkpt lat="42.5075574405491352081298828125" lon="19.91379235871136188507080078125">
        <ele>1960</ele>
        <time>2026-06-17T10:52:10.000Z</time>
        <extensions>
          <ns3:TrackPointExtension>
            <ns3:atemp>25.0</ns3:atemp>
          </ns3:TrackPointExtension>
        </extensions>
      </trkpt>
      <trkpt lat="42.5075574405491352081298828125" lon="19.91379235871136188507080078125">
        <ele>1960</ele>
        <time>2026-06-17T10:52:11.000Z</time>
        <extensions>
          <ns3:TrackPointExtension>
            <ns3:atemp>25.0</ns3:atemp>
          </ns3:TrackPointExtension>
        </extensions>
      </trkpt>
      <trkpt lat="42.5075574405491352081298828125" lon="19.91379235871136188507080078125">
        <ele>1960</ele>
        <time>2026-06-17T10:52:12.000Z</time>
        <extensions>
          <ns3:TrackPointExtension>
            <ns3:atemp>25.0</ns3:atemp>
          </ns3:TrackPointExtension>
        </extensions>
      </trkpt>
      <trkpt lat="42.5075574405491352081298828125" lon="19.91379235871136188507080078125">
        <ele>1960</ele>
        <time>2026-06-17T10:52:13.000Z</time>
        <extensions>
          <ns3:TrackPointExtension>
            <ns3:atemp>25.0</ns3:atemp>
          </ns3:TrackPointExtension>
        </extensions>
      </trkpt>
      <trkpt lat="42.5075574405491352081298828125" lon="19.91379235871136188507080078125">
        <ele>1960</ele>
        <time>2026-06-17T10:52:14.000Z</time>
        <extensions>
          <ns3:TrackPointExtension>
            <ns3:atemp>25.0</ns3:atemp>
          </ns3:TrackPointExtension>
        </extensions>
      </trkpt>
      <trkpt lat="42.5075574405491352081298828125" lon="19.91379235871136188507080078125">
        <ele>1960</ele>
        <time>2026-06-17T10:52:15.000Z</time>
        <extensions>
          <ns3:TrackPointExtension>
            <ns3:atemp>25.0</ns3:atemp>
          </ns3:TrackPointExtension>
        </extensions>
      </trkpt>
      <trkpt lat="42.5075574405491352081298828125" lon="19.91379235871136188507080078125">
        <ele>1960</ele>
        <time>2026-06-17T10:52:16.000Z</time>
        <extensions>
          <ns3:TrackPointExtension>
            <ns3:atemp>25.0</ns3:atemp>
          </ns3:TrackPointExtension>
        </extensions>
      </trkpt>
      <trkpt lat="42.5075574405491352081298828125" lon="19.91379235871136188507080078125">
        <ele>1960</ele>
        <time>2026-06-17T10:52:17.000Z</time>
        <extensions>
          <ns3:TrackPointExtension>
            <ns3:atemp>25.0</ns3:atemp>
          </ns3:TrackPointExtension>
        </extensions>
      </trkpt>
      <trkpt lat="42.5075574405491352081298828125" lon="19.91379235871136188507080078125">
        <ele>1960</ele>
        <time>2026-06-17T10:52:18.000Z</time>
        <extensions>
          <ns3:TrackPointExtension>
            <ns3:atemp>25.0</ns3:atemp>
          </ns3:TrackPointExtension>
        </extensions>
      </trkpt>
      <trkpt lat="42.5075574405491352081298828125" lon="19.91379235871136188507080078125">
        <ele>1960</ele>
        <time>2026-06-17T10:52:19.000Z</time>
        <extensions>
          <ns3:TrackPointExtension>
            <ns3:atemp>25.0</ns3:atemp>
          </ns3:TrackPointExtension>
        </extensions>
      </trkpt>
      <trkpt lat="42.5075574405491352081298828125" lon="19.91379235871136188507080078125">
        <ele>1960</ele>
        <time>2026-06-17T10:52:20.000Z</time>
        <extensions>
          <ns3:TrackPointExtension>
            <ns3:atemp>25.0</ns3:atemp>
          </ns3:TrackPointExtension>
        </extensions>
      </trkpt>
      <trkpt lat="42.5075574405491352081298828125" lon="19.91379235871136188507080078125">
        <ele>1960</ele>
        <time>2026-06-17T10:52:21.000Z</time>
        <extensions>
          <ns3:TrackPointExtension>
            <ns3:atemp>25.0</ns3:atemp>
          </ns3:TrackPointExtension>
        </extensions>
      </trkpt>
      <trkpt lat="42.5075574405491352081298828125" lon="19.91379235871136188507080078125">
        <ele>1960</ele>
        <time>2026-06-17T10:52:22.000Z</time>
        <extensions>
          <ns3:TrackPointExtension>
            <ns3:atemp>25.0</ns3:atemp>
          </ns3:TrackPointExtension>
        </extensions>
      </trkpt>
      <trkpt lat="42.5075574405491352081298828125" lon="19.91379235871136188507080078125">
        <ele>1960</ele>
        <time>2026-06-17T10:52:23.000Z</time>
        <extensions>
          <ns3:TrackPointExtension>
            <ns3:atemp>25.0</ns3:atemp>
          </ns3:TrackPointExtension>
        </extensions>
      </trkpt>
      <trkpt lat="42.5075574405491352081298828125" lon="19.91379235871136188507080078125">
        <ele>1959.800048828125</ele>
        <time>2026-06-17T10:52:24.000Z</time>
        <extensions>
          <ns3:TrackPointExtension>
            <ns3:atemp>25.0</ns3:atemp>
          </ns3:TrackPointExtension>
        </extensions>
      </trkpt>
      <trkpt lat="42.5075574405491352081298828125" lon="19.91379235871136188507080078125">
        <ele>1959.800048828125</ele>
        <time>2026-06-17T10:52:25.000Z</time>
        <extensions>
          <ns3:TrackPointExtension>
            <ns3:atemp>25.0</ns3:atemp>
          </ns3:TrackPointExtension>
        </extensions>
      </trkpt>
      <trkpt lat="42.5075574405491352081298828125" lon="19.91379235871136188507080078125">
        <ele>1959.800048828125</ele>
        <time>2026-06-17T10:52:26.000Z</time>
        <extensions>
          <ns3:TrackPointExtension>
            <ns3:atemp>25.0</ns3:atemp>
          </ns3:TrackPointExtension>
        </extensions>
      </trkpt>
      <trkpt lat="42.5075574405491352081298828125" lon="19.91379235871136188507080078125">
        <ele>1959.800048828125</ele>
        <time>2026-06-17T10:52:27.000Z</time>
        <extensions>
          <ns3:TrackPointExtension>
            <ns3:atemp>25.0</ns3:atemp>
          </ns3:TrackPointExtension>
        </extensions>
      </trkpt>
      <trkpt lat="42.5075574405491352081298828125" lon="19.91379235871136188507080078125">
        <ele>1959.800048828125</ele>
        <time>2026-06-17T10:52:28.000Z</time>
        <extensions>
          <ns3:TrackPointExtension>
            <ns3:atemp>25.0</ns3:atemp>
          </ns3:TrackPointExtension>
        </extensions>
      </trkpt>
      <trkpt lat="42.5075574405491352081298828125" lon="19.91379235871136188507080078125">
        <ele>1959.800048828125</ele>
        <time>2026-06-17T10:52:29.000Z</time>
        <extensions>
          <ns3:TrackPointExtension>
            <ns3:atemp>25.0</ns3:atemp>
          </ns3:TrackPointExtension>
        </extensions>
      </trkpt>
      <trkpt lat="42.5075574405491352081298828125" lon="19.91379235871136188507080078125">
        <ele>1959.800048828125</ele>
        <time>2026-06-17T10:52:30.000Z</time>
        <extensions>
          <ns3:TrackPointExtension>
            <ns3:atemp>25.0</ns3:atemp>
          </ns3:TrackPointExtension>
        </extensions>
      </trkpt>
      <trkpt lat="42.5075574405491352081298828125" lon="19.91379235871136188507080078125">
        <ele>1959.800048828125</ele>
        <time>2026-06-17T10:52:31.000Z</time>
        <extensions>
          <ns3:TrackPointExtension>
            <ns3:atemp>25.0</ns3:atemp>
          </ns3:TrackPointExtension>
        </extensions>
      </trkpt>
      <trkpt lat="42.5075574405491352081298828125" lon="19.91379235871136188507080078125">
        <ele>1959.5999755859375</ele>
        <time>2026-06-17T10:52:32.000Z</time>
        <extensions>
          <ns3:TrackPointExtension>
            <ns3:atemp>25.0</ns3:atemp>
          </ns3:TrackPointExtension>
        </extensions>
      </trkpt>
      <trkpt lat="42.5075574405491352081298828125" lon="19.91379235871136188507080078125">
        <ele>1959.5999755859375</ele>
        <time>2026-06-17T10:52:33.000Z</time>
        <extensions>
          <ns3:TrackPointExtension>
            <ns3:atemp>25.0</ns3:atemp>
          </ns3:TrackPointExtension>
        </extensions>
      </trkpt>
      <trkpt lat="42.5075574405491352081298828125" lon="19.91379235871136188507080078125">
        <ele>1959.5999755859375</ele>
        <time>2026-06-17T10:52:34.000Z</time>
        <extensions>
          <ns3:TrackPointExtension>
            <ns3:atemp>25.0</ns3:atemp>
          </ns3:TrackPointExtension>
        </extensions>
      </trkpt>
      <trkpt lat="42.5075574405491352081298828125" lon="19.91379235871136188507080078125">
        <ele>1959.5999755859375</ele>
        <time>2026-06-17T10:52:35.000Z</time>
        <extensions>
          <ns3:TrackPointExtension>
            <ns3:atemp>25.0</ns3:atemp>
          </ns3:TrackPointExtension>
        </extensions>
      </trkpt>
      <trkpt lat="42.5075574405491352081298828125" lon="19.91379235871136188507080078125">
        <ele>1959.5999755859375</ele>
        <time>2026-06-17T10:52:36.000Z</time>
        <extensions>
          <ns3:TrackPointExtension>
            <ns3:atemp>25.0</ns3:atemp>
          </ns3:TrackPointExtension>
        </extensions>
      </trkpt>
      <trkpt lat="42.5075574405491352081298828125" lon="19.91379235871136188507080078125">
        <ele>1959.5999755859375</ele>
        <time>2026-06-17T10:52:37.000Z</time>
        <extensions>
          <ns3:TrackPointExtension>
            <ns3:atemp>25.0</ns3:atemp>
          </ns3:TrackPointExtension>
        </extensions>
      </trkpt>
      <trkpt lat="42.5075574405491352081298828125" lon="19.91379235871136188507080078125">
        <ele>1959.5999755859375</ele>
        <time>2026-06-17T10:52:38.000Z</time>
        <extensions>
          <ns3:TrackPointExtension>
            <ns3:atemp>25.0</ns3:atemp>
          </ns3:TrackPointExtension>
        </extensions>
      </trkpt>
      <trkpt lat="42.5075574405491352081298828125" lon="19.91379235871136188507080078125">
        <ele>1959.5999755859375</ele>
        <time>2026-06-17T10:52:39.000Z</time>
        <extensions>
          <ns3:TrackPointExtension>
            <ns3:atemp>25.0</ns3:atemp>
          </ns3:TrackPointExtension>
        </extensions>
      </trkpt>
      <trkpt lat="42.5075574405491352081298828125" lon="19.91379235871136188507080078125">
        <ele>1959.5999755859375</ele>
        <time>2026-06-17T10:52:40.000Z</time>
        <extensions>
          <ns3:TrackPointExtension>
            <ns3:atemp>25.0</ns3:atemp>
          </ns3:TrackPointExtension>
        </extensions>
      </trkpt>
      <trkpt lat="42.5075574405491352081298828125" lon="19.91379235871136188507080078125">
        <ele>1959.5999755859375</ele>
        <time>2026-06-17T10:52:41.000Z</time>
        <extensions>
          <ns3:TrackPointExtension>
            <ns3:atemp>25.0</ns3:atemp>
          </ns3:TrackPointExtension>
        </extensions>
      </trkpt>
      <trkpt lat="42.5075574405491352081298828125" lon="19.91379235871136188507080078125">
        <ele>1959.5999755859375</ele>
        <time>2026-06-17T10:52:42.000Z</time>
        <extensions>
          <ns3:TrackPointExtension>
            <ns3:atemp>25.0</ns3:atemp>
          </ns3:TrackPointExtension>
        </extensions>
      </trkpt>
      <trkpt lat="42.5075574405491352081298828125" lon="19.91379235871136188507080078125">
        <ele>1959.5999755859375</ele>
        <time>2026-06-17T10:52:43.000Z</time>
        <extensions>
          <ns3:TrackPointExtension>
            <ns3:atemp>25.0</ns3:atemp>
          </ns3:TrackPointExtension>
        </extensions>
      </trkpt>
      <trkpt lat="42.5075574405491352081298828125" lon="19.91379235871136188507080078125">
        <ele>1959.5999755859375</ele>
        <time>2026-06-17T10:52:44.000Z</time>
        <extensions>
          <ns3:TrackPointExtension>
            <ns3:atemp>25.0</ns3:atemp>
          </ns3:TrackPointExtension>
        </extensions>
      </trkpt>
      <trkpt lat="42.5075574405491352081298828125" lon="19.91379235871136188507080078125">
        <ele>1959.5999755859375</ele>
        <time>2026-06-17T10:52:45.000Z</time>
        <extensions>
          <ns3:TrackPointExtension>
            <ns3:atemp>25.0</ns3:atemp>
          </ns3:TrackPointExtension>
        </extensions>
      </trkpt>
      <trkpt lat="42.5075574405491352081298828125" lon="19.91379235871136188507080078125">
        <ele>1959.5999755859375</ele>
        <time>2026-06-17T10:52:46.000Z</time>
        <extensions>
          <ns3:TrackPointExtension>
            <ns3:atemp>25.0</ns3:atemp>
          </ns3:TrackPointExtension>
        </extensions>
      </trkpt>
      <trkpt lat="42.5075574405491352081298828125" lon="19.91379235871136188507080078125">
        <ele>1959.4000244140625</ele>
        <time>2026-06-17T10:52:47.000Z</time>
        <extensions>
          <ns3:TrackPointExtension>
            <ns3:atemp>25.0</ns3:atemp>
          </ns3:TrackPointExtension>
        </extensions>
      </trkpt>
      <trkpt lat="42.50755618326365947723388671875" lon="19.913792274892330169677734375">
        <ele>1959.4000244140625</ele>
        <time>2026-06-17T10:52:48.000Z</time>
        <extensions>
          <ns3:TrackPointExtension>
            <ns3:atemp>25.0</ns3:atemp>
          </ns3:TrackPointExtension>
        </extensions>
      </trkpt>
      <trkpt lat="42.5075604580342769622802734375" lon="19.91377048194408416748046875">
        <ele>1959.4000244140625</ele>
        <time>2026-06-17T10:52:49.000Z</time>
        <extensions>
          <ns3:TrackPointExtension>
            <ns3:atemp>25.0</ns3:atemp>
          </ns3:TrackPointExtension>
        </extensions>
      </trkpt>
      <trkpt lat="42.5075651519000530242919921875" lon="19.91374072618782520294189453125">
        <ele>1959.199951171875</ele>
        <time>2026-06-17T10:52:50.000Z</time>
        <extensions>
          <ns3:TrackPointExtension>
            <ns3:atemp>25.0</ns3:atemp>
          </ns3:TrackPointExtension>
        </extensions>
      </trkpt>
      <trkpt lat="42.5075638107955455780029296875" lon="19.9136962182819843292236328125">
        <ele>1959</ele>
        <time>2026-06-17T10:52:51.000Z</time>
        <extensions>
          <ns3:TrackPointExtension>
            <ns3:atemp>25.0</ns3:atemp>
          </ns3:TrackPointExtension>
        </extensions>
      </trkpt>
      <trkpt lat="42.50756221823394298553466796875" lon="19.91363880224525928497314453125">
        <ele>1958.5999755859375</ele>
        <time>2026-06-17T10:52:52.000Z</time>
        <extensions>
          <ns3:TrackPointExtension>
            <ns3:atemp>25.0</ns3:atemp>
          </ns3:TrackPointExtension>
        </extensions>
      </trkpt>
      <trkpt lat="42.50756707973778247833251953125" lon="19.9135820567607879638671875">
        <ele>1958.199951171875</ele>
        <time>2026-06-17T10:52:53.000Z</time>
        <extensions>
          <ns3:TrackPointExtension>
            <ns3:atemp>25.0</ns3:atemp>
          </ns3:TrackPointExtension>
        </extensions>
      </trkpt>
      <trkpt lat="42.50756707973778247833251953125" lon="19.91352363489568233489990234375">
        <ele>1957.800048828125</ele>
        <time>2026-06-17T10:52:54.000Z</time>
        <extensions>
          <ns3:TrackPointExtension>
            <ns3:atemp>25.0</ns3:atemp>
          </ns3:TrackPointExtension>
        </extensions>
      </trkpt>
      <trkpt lat="42.50757948495447635650634765625" lon="19.91348423995077610015869140625">
        <ele>1957.5999755859375</ele>
        <time>2026-06-17T10:52:55.000Z</time>
        <extensions>
          <ns3:TrackPointExtension>
            <ns3:atemp>25.0</ns3:atemp>
          </ns3:TrackPointExtension>
        </extensions>
      </trkpt>
      <trkpt lat="42.50760328955948352813720703125" lon="19.91344786249101161956787109375">
        <ele>1957.4000244140625</ele>
        <time>2026-06-17T10:52:56.000Z</time>
        <extensions>
          <ns3:TrackPointExtension>
            <ns3:atemp>25.0</ns3:atemp>
          </ns3:TrackPointExtension>
        </extensions>
      </trkpt>
      <trkpt lat="42.50762457959353923797607421875" lon="19.91341098211705684661865234375">
        <ele>1957.199951171875</ele>
        <time>2026-06-17T10:52:57.000Z</time>
        <extensions>
          <ns3:TrackPointExtension>
            <ns3:atemp>25.0</ns3:atemp>
          </ns3:TrackPointExtension>
        </extensions>
      </trkpt>
      <trkpt lat="42.507634721696376800537109375" lon="19.91337058134377002716064453125">
        <ele>1957.199951171875</ele>
        <time>2026-06-17T10:52:58.000Z</time>
        <extensions>
          <ns3:TrackPointExtension>
            <ns3:atemp>25.0</ns3:atemp>
          </ns3:TrackPointExtension>
        </extensions>
      </trkpt>
      <trkpt lat="42.50763614661991596221923828125" lon="19.9133428372442722320556640625">
        <ele>1957.199951171875</ele>
        <time>2026-06-17T10:52:59.000Z</time>
        <extensions>
          <ns3:TrackPointExtension>
            <ns3:atemp>25.0</ns3:atemp>
          </ns3:TrackPointExtension>
        </extensions>
      </trkpt>
      <trkpt lat="42.50762793235480785369873046875" lon="19.9133156798779964447021484375">
        <ele>1957.199951171875</ele>
        <time>2026-06-17T10:53:00.000Z</time>
        <extensions>
          <ns3:TrackPointExtension>
            <ns3:atemp>25.0</ns3:atemp>
          </ns3:TrackPointExtension>
        </extensions>
      </trkpt>
      <trkpt lat="42.5076161138713359832763671875" lon="19.91328676231205463409423828125">
        <ele>1957.199951171875</ele>
        <time>2026-06-17T10:53:01.000Z</time>
        <extensions>
          <ns3:TrackPointExtension>
            <ns3:atemp>25.0</ns3:atemp>
          </ns3:TrackPointExtension>
        </extensions>
      </trkpt>
      <trkpt lat="42.5076023675501346588134765625" lon="19.91323672235012054443359375">
        <ele>1957</ele>
        <time>2026-06-17T10:53:02.000Z</time>
        <extensions>
          <ns3:TrackPointExtension>
            <ns3:atemp>25.0</ns3:atemp>
          </ns3:TrackPointExtension>
        </extensions>
      </trkpt>
      <trkpt lat="42.50758401118218898773193359375" lon="19.91318685002624988555908203125">
        <ele>1956.800048828125</ele>
        <time>2026-06-17T10:53:03.000Z</time>
        <extensions>
          <ns3:TrackPointExtension>
            <ns3:atemp>25.0</ns3:atemp>
          </ns3:TrackPointExtension>
        </extensions>
      </trkpt>
      <trkpt lat="42.50756959430873394012451171875" lon="19.91314058192074298858642578125">
        <ele>1956.4000244140625</ele>
        <time>2026-06-17T10:53:04.000Z</time>
        <extensions>
          <ns3:TrackPointExtension>
            <ns3:atemp>25.0</ns3:atemp>
          </ns3:TrackPointExtension>
        </extensions>
      </trkpt>
      <trkpt lat="42.50757328234612941741943359375" lon="19.91311199963092803955078125">
        <ele>1956.4000244140625</ele>
        <time>2026-06-17T10:53:05.000Z</time>
        <extensions>
          <ns3:TrackPointExtension>
            <ns3:atemp>25.0</ns3:atemp>
          </ns3:TrackPointExtension>
        </extensions>
      </trkpt>
      <trkpt lat="42.50759021379053592681884765625" lon="19.91308609955012798309326171875">
        <ele>1956.199951171875</ele>
        <time>2026-06-17T10:53:06.000Z</time>
        <extensions>
          <ns3:TrackPointExtension>
            <ns3:atemp>25.0</ns3:atemp>
          </ns3:TrackPointExtension>
        </extensions>
      </trkpt>
      <trkpt lat="42.50760194845497608184814453125" lon="19.91306506097316741943359375">
        <ele>1956.199951171875</ele>
        <time>2026-06-17T10:53:07.000Z</time>
        <extensions>
          <ns3:TrackPointExtension>
            <ns3:atemp>25.0</ns3:atemp>
          </ns3:TrackPointExtension>
        </extensions>
      </trkpt>
      <trkpt lat="42.50760630704462528228759765625" lon="19.91304720751941204071044921875">
        <ele>1956.4000244140625</ele>
        <time>2026-06-17T10:53:08.000Z</time>
        <extensions>
          <ns3:TrackPointExtension>
            <ns3:atemp>25.0</ns3:atemp>
          </ns3:TrackPointExtension>
        </extensions>
      </trkpt>
      <trkpt lat="42.5076037086546421051025390625" lon="19.9130273424088954925537109375">
        <ele>1956.5999755859375</ele>
        <time>2026-06-17T10:53:09.000Z</time>
        <extensions>
          <ns3:TrackPointExtension>
            <ns3:atemp>25.0</ns3:atemp>
          </ns3:TrackPointExtension>
        </extensions>
      </trkpt>
      <trkpt lat="42.5075961649417877197265625" lon="19.913009069859981536865234375">
        <ele>1956.800048828125</ele>
        <time>2026-06-17T10:53:10.000Z</time>
        <extensions>
          <ns3:TrackPointExtension>
            <ns3:atemp>25.0</ns3:atemp>
          </ns3:TrackPointExtension>
        </extensions>
      </trkpt>
      <trkpt lat="42.5075881183147430419921875" lon="19.91300228051841259002685546875">
        <ele>1957</ele>
        <time>2026-06-17T10:53:11.000Z</time>
        <extensions>
          <ns3:TrackPointExtension>
            <ns3:atemp>25.0</ns3:atemp>
          </ns3:TrackPointExtension>
        </extensions>
      </trkpt>
      <trkpt lat="42.5075745396316051483154296875" lon="19.91298652254045009613037109375">
        <ele>1957</ele>
        <time>2026-06-17T10:53:12.000Z</time>
        <extensions>
          <ns3:TrackPointExtension>
            <ns3:atemp>25.0</ns3:atemp>
          </ns3:TrackPointExtension>
        </extensions>
      </trkpt>
      <trkpt lat="42.50755735673010349273681640625" lon="19.9129552580416202545166015625">
        <ele>1957.199951171875</ele>
        <time>2026-06-17T10:53:13.000Z</time>
        <extensions>
          <ns3:TrackPointExtension>
            <ns3:atemp>25.0</ns3:atemp>
          </ns3:TrackPointExtension>
        </extensions>
      </trkpt>
      <trkpt lat="42.50755500979721546173095703125" lon="19.91291812621057033538818359375">
        <ele>1957</ele>
        <time>2026-06-17T10:53:14.000Z</time>
        <extensions>
          <ns3:TrackPointExtension>
            <ns3:atemp>25.0</ns3:atemp>
          </ns3:TrackPointExtension>
        </extensions>
      </trkpt>
      <trkpt lat="42.507559955120086669921875" lon="19.912878312170505523681640625">
        <ele>1956.800048828125</ele>
        <time>2026-06-17T10:53:15.000Z</time>
        <extensions>
          <ns3:TrackPointExtension>
            <ns3:atemp>25.0</ns3:atemp>
          </ns3:TrackPointExtension>
        </extensions>
      </trkpt>
      <trkpt lat="42.50757093541324138641357421875" lon="19.91284503601491451263427734375">
        <ele>1956.800048828125</ele>
        <time>2026-06-17T10:53:16.000Z</time>
        <extensions>
          <ns3:TrackPointExtension>
            <ns3:atemp>25.0</ns3:atemp>
          </ns3:TrackPointExtension>
        </extensions>
      </trkpt>
      <trkpt lat="42.50757127068936824798583984375" lon="19.91281771101057529449462890625">
        <ele>1956.5999755859375</ele>
        <time>2026-06-17T10:53:17.000Z</time>
        <extensions>
          <ns3:TrackPointExtension>
            <ns3:atemp>25.0</ns3:atemp>
          </ns3:TrackPointExtension>
        </extensions>
      </trkpt>
      <trkpt lat="42.50756456516683101654052734375" lon="19.91279306821525096893310546875">
        <ele>1956.5999755859375</ele>
        <time>2026-06-17T10:53:18.000Z</time>
        <extensions>
          <ns3:TrackPointExtension>
            <ns3:atemp>25.0</ns3:atemp>
          </ns3:TrackPointExtension>
        </extensions>
      </trkpt>
      <trkpt lat="42.50756875611841678619384765625" lon="19.91276809014379978179931640625">
        <ele>1956.5999755859375</ele>
        <time>2026-06-17T10:53:19.000Z</time>
        <extensions>
          <ns3:TrackPointExtension>
            <ns3:atemp>25.0</ns3:atemp>
          </ns3:TrackPointExtension>
        </extensions>
      </trkpt>
      <trkpt lat="42.5075773894786834716796875" lon="19.91274646483361721038818359375">
        <ele>1956.4000244140625</ele>
        <time>2026-06-17T10:53:20.000Z</time>
        <extensions>
          <ns3:TrackPointExtension>
            <ns3:atemp>25.0</ns3:atemp>
          </ns3:TrackPointExtension>
        </extensions>
      </trkpt>
      <trkpt lat="42.50758401118218898773193359375" lon="19.9127222411334514617919921875">
        <ele>1956.4000244140625</ele>
        <time>2026-06-17T10:53:21.000Z</time>
        <extensions>
          <ns3:TrackPointExtension>
            <ns3:atemp>25.0</ns3:atemp>
          </ns3:TrackPointExtension>
        </extensions>
      </trkpt>
      <trkpt lat="42.50758954323828220367431640625" lon="19.91270455531775951385498046875">
        <ele>1956.4000244140625</ele>
        <time>2026-06-17T10:53:22.000Z</time>
        <extensions>
          <ns3:TrackPointExtension>
            <ns3:atemp>25.0</ns3:atemp>
          </ns3:TrackPointExtension>
        </extensions>
      </trkpt>
      <trkpt lat="42.5075961649417877197265625" lon="19.91268779151141643524169921875">
        <ele>1956.4000244140625</ele>
        <time>2026-06-17T10:53:23.000Z</time>
        <extensions>
          <ns3:TrackPointExtension>
            <ns3:atemp>25.0</ns3:atemp>
          </ns3:TrackPointExtension>
        </extensions>
      </trkpt>
      <trkpt lat="42.50760194845497608184814453125" lon="19.912661723792552947998046875">
        <ele>1956.4000244140625</ele>
        <time>2026-06-17T10:53:24.000Z</time>
        <extensions>
          <ns3:TrackPointExtension>
            <ns3:atemp>25.0</ns3:atemp>
          </ns3:TrackPointExtension>
        </extensions>
      </trkpt>
      <trkpt lat="42.5076130963861942291259765625" lon="19.91263724863529205322265625">
        <ele>1956.5999755859375</ele>
        <time>2026-06-17T10:53:25.000Z</time>
        <extensions>
          <ns3:TrackPointExtension>
            <ns3:atemp>25.0</ns3:atemp>
          </ns3:TrackPointExtension>
        </extensions>
      </trkpt>
      <trkpt lat="42.507617957890033721923828125" lon="19.912609420716762542724609375">
        <ele>1956.5999755859375</ele>
        <time>2026-06-17T10:53:26.000Z</time>
        <extensions>
          <ns3:TrackPointExtension>
            <ns3:atemp>25.0</ns3:atemp>
          </ns3:TrackPointExtension>
        </extensions>
      </trkpt>
      <trkpt lat="42.50762675888836383819580078125" lon="19.91257580928504467010498046875">
        <ele>1956.4000244140625</ele>
        <time>2026-06-17T10:53:27.000Z</time>
        <extensions>
          <ns3:TrackPointExtension>
            <ns3:atemp>25.0</ns3:atemp>
          </ns3:TrackPointExtension>
        </extensions>
      </trkpt>
      <trkpt lat="42.50763597898185253143310546875" lon="19.91255166940391063690185546875">
        <ele>1956.4000244140625</ele>
        <time>2026-06-17T10:53:28.000Z</time>
        <extensions>
          <ns3:TrackPointExtension>
            <ns3:atemp>25.0</ns3:atemp>
          </ns3:TrackPointExtension>
        </extensions>
      </trkpt>
      <trkpt lat="42.50764184631407260894775390625" lon="19.91253138519823551177978515625">
        <ele>1956.4000244140625</ele>
        <time>2026-06-17T10:53:29.000Z</time>
        <extensions>
          <ns3:TrackPointExtension>
            <ns3:atemp>25.0</ns3:atemp>
          </ns3:TrackPointExtension>
        </extensions>
      </trkpt>
      <trkpt lat="42.50764645636081695556640625" lon="19.91250338964164257049560546875">
        <ele>1956.4000244140625</ele>
        <time>2026-06-17T10:53:30.000Z</time>
        <extensions>
          <ns3:TrackPointExtension>
            <ns3:atemp>25.0</ns3:atemp>
          </ns3:TrackPointExtension>
        </extensions>
      </trkpt>
      <trkpt lat="42.50765626318752765655517578125" lon="19.91247137077152729034423828125">
        <ele>1956.4000244140625</ele>
        <time>2026-06-17T10:53:31.000Z</time>
        <extensions>
          <ns3:TrackPointExtension>
            <ns3:atemp>25.0</ns3:atemp>
          </ns3:TrackPointExtension>
        </extensions>
      </trkpt>
      <trkpt lat="42.5076627172529697418212890625" lon="19.9124473147094249725341796875">
        <ele>1956.4000244140625</ele>
        <time>2026-06-17T10:53:32.000Z</time>
        <extensions>
          <ns3:TrackPointExtension>
            <ns3:atemp>25.0</ns3:atemp>
          </ns3:TrackPointExtension>
        </extensions>
      </trkpt>
      <trkpt lat="42.50767570920288562774658203125" lon="19.9124251864850521087646484375">
        <ele>1956.199951171875</ele>
        <time>2026-06-17T10:53:33.000Z</time>
        <extensions>
          <ns3:TrackPointExtension>
            <ns3:atemp>25.0</ns3:atemp>
          </ns3:TrackPointExtension>
        </extensions>
      </trkpt>
      <trkpt lat="42.507691048085689544677734375" lon="19.91240465082228183746337890625">
        <ele>1956.199951171875</ele>
        <time>2026-06-17T10:53:34.000Z</time>
        <extensions>
          <ns3:TrackPointExtension>
            <ns3:atemp>25.0</ns3:atemp>
          </ns3:TrackPointExtension>
        </extensions>
      </trkpt>
      <trkpt lat="42.50770471058785915374755859375" lon="19.91238101385533809661865234375">
        <ele>1956.199951171875</ele>
        <time>2026-06-17T10:53:35.000Z</time>
        <extensions>
          <ns3:TrackPointExtension>
            <ns3:atemp>25.0</ns3:atemp>
          </ns3:TrackPointExtension>
        </extensions>
      </trkpt>
      <trkpt lat="42.50771778635680675506591796875" lon="19.91236374713480472564697265625">
        <ele>1956.199951171875</ele>
        <time>2026-06-17T10:53:36.000Z</time>
        <extensions>
          <ns3:TrackPointExtension>
            <ns3:atemp>25.0</ns3:atemp>
          </ns3:TrackPointExtension>
        </extensions>
      </trkpt>
      <trkpt lat="42.50773572362959384918212890625" lon="19.91234798915684223175048828125">
        <ele>1956.4000244140625</ele>
        <time>2026-06-17T10:53:37.000Z</time>
        <extensions>
          <ns3:TrackPointExtension>
            <ns3:atemp>25.0</ns3:atemp>
          </ns3:TrackPointExtension>
        </extensions>
      </trkpt>
      <trkpt lat="42.50774703919887542724609375" lon="19.91233306936919689178466796875">
        <ele>1956.5999755859375</ele>
        <time>2026-06-17T10:53:38.000Z</time>
        <extensions>
          <ns3:TrackPointExtension>
            <ns3:atemp>25.0</ns3:atemp>
          </ns3:TrackPointExtension>
        </extensions>
      </trkpt>
      <trkpt lat="42.50775466673076152801513671875" lon="19.912315718829631805419921875">
        <ele>1956.800048828125</ele>
        <time>2026-06-17T10:53:39.000Z</time>
        <extensions>
          <ns3:TrackPointExtension>
            <ns3:atemp>25.0</ns3:atemp>
          </ns3:TrackPointExtension>
        </extensions>
      </trkpt>
      <trkpt lat="42.50775785185396671295166015625" lon="19.91229786537587642669677734375">
        <ele>1957</ele>
        <time>2026-06-17T10:53:40.000Z</time>
        <extensions>
          <ns3:TrackPointExtension>
            <ns3:atemp>25.0</ns3:atemp>
          </ns3:TrackPointExtension>
        </extensions>
      </trkpt>
      <trkpt lat="42.50776288099586963653564453125" lon="19.91227925755083560943603515625">
        <ele>1957.199951171875</ele>
        <time>2026-06-17T10:53:41.000Z</time>
        <extensions>
          <ns3:TrackPointExtension>
            <ns3:atemp>25.0</ns3:atemp>
          </ns3:TrackPointExtension>
        </extensions>
      </trkpt>
      <trkpt lat="42.50776975415647029876708984375" lon="19.91224807687103748321533203125">
        <ele>1957.4000244140625</ele>
        <time>2026-06-17T10:53:42.000Z</time>
        <extensions>
          <ns3:TrackPointExtension>
            <ns3:atemp>25.0</ns3:atemp>
          </ns3:TrackPointExtension>
        </extensions>
      </trkpt>
      <trkpt lat="42.5077760405838489532470703125" lon="19.91222687065601348876953125">
        <ele>1957.5999755859375</ele>
        <time>2026-06-17T10:53:43.000Z</time>
        <extensions>
          <ns3:TrackPointExtension>
            <ns3:atemp>25.0</ns3:atemp>
          </ns3:TrackPointExtension>
        </extensions>
      </trkpt>
      <trkpt lat="42.50778014771640300750732421875" lon="19.9122119508683681488037109375">
        <ele>1957.5999755859375</ele>
        <time>2026-06-17T10:53:44.000Z</time>
        <extensions>
          <ns3:TrackPointExtension>
            <ns3:atemp>25.0</ns3:atemp>
          </ns3:TrackPointExtension>
        </extensions>
      </trkpt>
      <trkpt lat="42.507785595953464508056640625" lon="19.91219325922429561614990234375">
        <ele>1957.800048828125</ele>
        <time>2026-06-17T10:53:45.000Z</time>
        <extensions>
          <ns3:TrackPointExtension>
            <ns3:atemp>25.0</ns3:atemp>
          </ns3:TrackPointExtension>
        </extensions>
      </trkpt>
      <trkpt lat="42.5077901221811771392822265625" lon="19.912175238132476806640625">
        <ele>1958</ele>
        <time>2026-06-17T10:53:46.000Z</time>
        <extensions>
          <ns3:TrackPointExtension>
            <ns3:atemp>25.0</ns3:atemp>
          </ns3:TrackPointExtension>
        </extensions>
      </trkpt>
      <trkpt lat="42.5077919661998748779296875" lon="19.9121578037738800048828125">
        <ele>1958.199951171875</ele>
        <time>2026-06-17T10:53:47.000Z</time>
        <extensions>
          <ns3:TrackPointExtension>
            <ns3:atemp>25.0</ns3:atemp>
          </ns3:TrackPointExtension>
        </extensions>
      </trkpt>
      <trkpt lat="42.507793642580509185791015625" lon="19.912137351930141448974609375">
        <ele>1958.4000244140625</ele>
        <time>2026-06-17T10:53:48.000Z</time>
        <extensions>
          <ns3:TrackPointExtension>
            <ns3:atemp>25.0</ns3:atemp>
          </ns3:TrackPointExtension>
        </extensions>
      </trkpt>
      <trkpt lat="42.507795654237270355224609375" lon="19.91209720261394977569580078125">
        <ele>1958.4000244140625</ele>
        <time>2026-06-17T10:53:49.000Z</time>
        <extensions>
          <ns3:TrackPointExtension>
            <ns3:atemp>25.0</ns3:atemp>
          </ns3:TrackPointExtension>
        </extensions>
      </trkpt>
      <trkpt lat="42.50780512578785419464111328125" lon="19.9120775051414966583251953125">
        <ele>1958.800048828125</ele>
        <time>2026-06-17T10:53:50.000Z</time>
        <extensions>
          <ns3:TrackPointExtension>
            <ns3:atemp>25.0</ns3:atemp>
          </ns3:TrackPointExtension>
        </extensions>
      </trkpt>
      <trkpt lat="42.50781786628067493438720703125" lon="19.91205696947872638702392578125">
        <ele>1959</ele>
        <time>2026-06-17T10:53:51.000Z</time>
        <extensions>
          <ns3:TrackPointExtension>
            <ns3:atemp>25.0</ns3:atemp>
          </ns3:TrackPointExtension>
        </extensions>
      </trkpt>
      <trkpt lat="42.5078337080776691436767578125" lon="19.91203534416854381561279296875">
        <ele>1959.199951171875</ele>
        <time>2026-06-17T10:53:52.000Z</time>
        <extensions>
          <ns3:TrackPointExtension>
            <ns3:atemp>25.0</ns3:atemp>
          </ns3:TrackPointExtension>
        </extensions>
      </trkpt>
      <trkpt lat="42.50783982686698436737060546875" lon="19.91200785152614116668701171875">
        <ele>1959.5999755859375</ele>
        <time>2026-06-17T10:53:53.000Z</time>
        <extensions>
          <ns3:TrackPointExtension>
            <ns3:atemp>25.0</ns3:atemp>
          </ns3:TrackPointExtension>
        </extensions>
      </trkpt>
      <trkpt lat="42.50784418545663356781005859375" lon="19.91198480129241943359375">
        <ele>1960</ele>
        <time>2026-06-17T10:53:54.000Z</time>
        <extensions>
          <ns3:TrackPointExtension>
            <ns3:atemp>25.0</ns3:atemp>
          </ns3:TrackPointExtension>
        </extensions>
      </trkpt>
      <trkpt lat="42.5078424252569675445556640625" lon="19.91196258924901485443115234375">
        <ele>1960.199951171875</ele>
        <time>2026-06-17T10:53:55.000Z</time>
        <extensions>
          <ns3:TrackPointExtension>
            <ns3:atemp>25.0</ns3:atemp>
          </ns3:TrackPointExtension>
        </extensions>
      </trkpt>
      <trkpt lat="42.50784267671406269073486328125" lon="19.91195118986070156097412109375">
        <ele>1960.5999755859375</ele>
        <time>2026-06-17T10:53:56.000Z</time>
        <extensions>
          <ns3:TrackPointExtension>
            <ns3:atemp>25.0</ns3:atemp>
          </ns3:TrackPointExtension>
        </extensions>
      </trkpt>
      <trkpt lat="42.50784100033342838287353515625" lon="19.91194280795753002166748046875">
        <ele>1961</ele>
        <time>2026-06-17T10:53:57.000Z</time>
        <extensions>
          <ns3:TrackPointExtension>
            <ns3:atemp>25.0</ns3:atemp>
          </ns3:TrackPointExtension>
        </extensions>
      </trkpt>
      <trkpt lat="42.50784435309469699859619140625" lon="19.91192772053182125091552734375">
        <ele>1961.199951171875</ele>
        <time>2026-06-17T10:53:58.000Z</time>
        <extensions>
          <ns3:TrackPointExtension>
            <ns3:atemp>25.0</ns3:atemp>
          </ns3:TrackPointExtension>
        </extensions>
      </trkpt>
      <trkpt lat="42.50784770585596561431884765625" lon="19.9119034968316555023193359375">
        <ele>1961.5999755859375</ele>
        <time>2026-06-17T10:53:59.000Z</time>
        <extensions>
          <ns3:TrackPointExtension>
            <ns3:atemp>25.0</ns3:atemp>
          </ns3:TrackPointExtension>
        </extensions>
      </trkpt>
      <trkpt lat="42.50785164535045623779296875" lon="19.91187416017055511474609375">
        <ele>1961.800048828125</ele>
        <time>2026-06-17T10:54:00.000Z</time>
        <extensions>
          <ns3:TrackPointExtension>
            <ns3:atemp>25.0</ns3:atemp>
          </ns3:TrackPointExtension>
        </extensions>
      </trkpt>
      <trkpt lat="42.5078531540930271148681640625" lon="19.91184239275753498077392578125">
        <ele>1962</ele>
        <time>2026-06-17T10:54:01.000Z</time>
        <extensions>
          <ns3:TrackPointExtension>
            <ns3:atemp>25.0</ns3:atemp>
          </ns3:TrackPointExtension>
        </extensions>
      </trkpt>
      <trkpt lat="42.50785809941589832305908203125" lon="19.91180685348808765411376953125">
        <ele>1962.199951171875</ele>
        <time>2026-06-17T10:54:02.000Z</time>
        <extensions>
          <ns3:TrackPointExtension>
            <ns3:atemp>25.0</ns3:atemp>
          </ns3:TrackPointExtension>
        </extensions>
      </trkpt>
      <trkpt lat="42.50785776413977146148681640625" lon="19.91177634336054325103759765625">
        <ele>1962.199951171875</ele>
        <time>2026-06-17T10:54:03.000Z</time>
        <extensions>
          <ns3:TrackPointExtension>
            <ns3:atemp>25.0</ns3:atemp>
          </ns3:TrackPointExtension>
        </extensions>
      </trkpt>
      <trkpt lat="42.50785826705396175384521484375" lon="19.91173896007239818572998046875">
        <ele>1962.199951171875</ele>
        <time>2026-06-17T10:54:04.000Z</time>
        <extensions>
          <ns3:TrackPointExtension>
            <ns3:atemp>25.0</ns3:atemp>
          </ns3:TrackPointExtension>
        </extensions>
      </trkpt>
      <trkpt lat="42.5078511424362659454345703125" lon="19.91170291788876056671142578125">
        <ele>1962</ele>
        <time>2026-06-17T10:54:05.000Z</time>
        <extensions>
          <ns3:TrackPointExtension>
            <ns3:atemp>25.0</ns3:atemp>
          </ns3:TrackPointExtension>
        </extensions>
      </trkpt>
      <trkpt lat="42.50784670002758502960205078125" lon="19.9116647802293300628662109375">
        <ele>1962</ele>
        <time>2026-06-17T10:54:06.000Z</time>
        <extensions>
          <ns3:TrackPointExtension>
            <ns3:atemp>25.0</ns3:atemp>
          </ns3:TrackPointExtension>
        </extensions>
      </trkpt>
      <trkpt lat="42.50785374082624912261962890625" lon="19.91163452155888080596923828125">
        <ele>1961.800048828125</ele>
        <time>2026-06-17T10:54:07.000Z</time>
        <extensions>
          <ns3:TrackPointExtension>
            <ns3:atemp>25.0</ns3:atemp>
          </ns3:TrackPointExtension>
        </extensions>
      </trkpt>
      <trkpt lat="42.50785474665462970733642578125" lon="19.911599569022655487060546875">
        <ele>1961.800048828125</ele>
        <time>2026-06-17T10:54:08.000Z</time>
        <extensions>
          <ns3:TrackPointExtension>
            <ns3:atemp>25.0</ns3:atemp>
          </ns3:TrackPointExtension>
        </extensions>
      </trkpt>
      <trkpt lat="42.50785072334110736846923828125" lon="19.9115641973912715911865234375">
        <ele>1961.800048828125</ele>
        <time>2026-06-17T10:54:09.000Z</time>
        <extensions>
          <ns3:TrackPointExtension>
            <ns3:atemp>25.0</ns3:atemp>
          </ns3:TrackPointExtension>
        </extensions>
      </trkpt>
      <trkpt lat="42.50785491429269313812255859375" lon="19.91152639500796794891357421875">
        <ele>1961.800048828125</ele>
        <time>2026-06-17T10:54:10.000Z</time>
        <extensions>
          <ns3:TrackPointExtension>
            <ns3:atemp>25.0</ns3:atemp>
          </ns3:TrackPointExtension>
        </extensions>
      </trkpt>
      <trkpt lat="42.50785927288234233856201171875" lon="19.9114926159381866455078125">
        <ele>1961.800048828125</ele>
        <time>2026-06-17T10:54:11.000Z</time>
        <extensions>
          <ns3:TrackPointExtension>
            <ns3:atemp>25.0</ns3:atemp>
          </ns3:TrackPointExtension>
        </extensions>
      </trkpt>
      <trkpt lat="42.50786011107265949249267578125" lon="19.91146378219127655029296875">
        <ele>1962</ele>
        <time>2026-06-17T10:54:12.000Z</time>
        <extensions>
          <ns3:TrackPointExtension>
            <ns3:atemp>25.0</ns3:atemp>
          </ns3:TrackPointExtension>
        </extensions>
      </trkpt>
      <trkpt lat="42.50785960815846920013427734375" lon="19.91143587045371532440185546875">
        <ele>1962</ele>
        <time>2026-06-17T10:54:13.000Z</time>
        <extensions>
          <ns3:TrackPointExtension>
            <ns3:atemp>25.0</ns3:atemp>
          </ns3:TrackPointExtension>
        </extensions>
      </trkpt>
      <trkpt lat="42.50786480493843555450439453125" lon="19.9114019237458705902099609375">
        <ele>1962</ele>
        <time>2026-06-17T10:54:14.000Z</time>
        <extensions>
          <ns3:TrackPointExtension>
            <ns3:atemp>25.0</ns3:atemp>
          </ns3:TrackPointExtension>
        </extensions>
      </trkpt>
      <trkpt lat="42.50787452794611454010009765625" lon="19.911374263465404510498046875">
        <ele>1962.199951171875</ele>
        <time>2026-06-17T10:54:15.000Z</time>
        <extensions>
          <ns3:TrackPointExtension>
            <ns3:atemp>25.0</ns3:atemp>
          </ns3:TrackPointExtension>
        </extensions>
      </trkpt>
      <trkpt lat="42.50788676552474498748779296875" lon="19.91134299896657466888427734375">
        <ele>1962.199951171875</ele>
        <time>2026-06-17T10:54:16.000Z</time>
        <extensions>
          <ns3:TrackPointExtension>
            <ns3:atemp>25.0</ns3:atemp>
          </ns3:TrackPointExtension>
        </extensions>
      </trkpt>
      <trkpt lat="42.507887184619903564453125" lon="19.91130955517292022705078125">
        <ele>1962.4000244140625</ele>
        <time>2026-06-17T10:54:17.000Z</time>
        <extensions>
          <ns3:TrackPointExtension>
            <ns3:atemp>25.0</ns3:atemp>
          </ns3:TrackPointExtension>
        </extensions>
      </trkpt>
      <trkpt lat="42.50788995064795017242431640625" lon="19.91127007640898227691650390625">
        <ele>1962.4000244140625</ele>
        <time>2026-06-17T10:54:18.000Z</time>
        <extensions>
          <ns3:TrackPointExtension>
            <ns3:atemp>25.0</ns3:atemp>
          </ns3:TrackPointExtension>
        </extensions>
      </trkpt>
      <trkpt lat="42.50788860954344272613525390625" lon="19.91122640669345855712890625">
        <ele>1962.5999755859375</ele>
        <time>2026-06-17T10:54:19.000Z</time>
        <extensions>
          <ns3:TrackPointExtension>
            <ns3:atemp>25.0</ns3:atemp>
          </ns3:TrackPointExtension>
        </extensions>
      </trkpt>
      <trkpt lat="42.50788559205830097198486328125" lon="19.91118458099663257598876953125">
        <ele>1962.5999755859375</ele>
        <time>2026-06-17T10:54:20.000Z</time>
        <extensions>
          <ns3:TrackPointExtension>
            <ns3:atemp>24.0</ns3:atemp>
          </ns3:TrackPointExtension>
        </extensions>
      </trkpt>
      <trkpt lat="42.50788341276347637176513671875" lon="19.91115122102200984954833984375">
        <ele>1962.5999755859375</ele>
        <time>2026-06-17T10:54:21.000Z</time>
        <extensions>
          <ns3:TrackPointExtension>
            <ns3:atemp>25.0</ns3:atemp>
          </ns3:TrackPointExtension>
        </extensions>
      </trkpt>
      <trkpt lat="42.50787737779319286346435546875" lon="19.91112590767443180084228515625">
        <ele>1962.800048828125</ele>
        <time>2026-06-17T10:54:22.000Z</time>
        <extensions>
          <ns3:TrackPointExtension>
            <ns3:atemp>24.0</ns3:atemp>
          </ns3:TrackPointExtension>
        </extensions>
      </trkpt>
      <trkpt lat="42.50787251628935337066650390625" lon="19.91110445000231266021728515625">
        <ele>1962.800048828125</ele>
        <time>2026-06-17T10:54:23.000Z</time>
        <extensions>
          <ns3:TrackPointExtension>
            <ns3:atemp>24.0</ns3:atemp>
          </ns3:TrackPointExtension>
        </extensions>
      </trkpt>
      <trkpt lat="42.5078726001083850860595703125" lon="19.911075867712497711181640625">
        <ele>1963</ele>
        <time>2026-06-17T10:54:24.000Z</time>
        <extensions>
          <ns3:TrackPointExtension>
            <ns3:atemp>24.0</ns3:atemp>
          </ns3:TrackPointExtension>
        </extensions>
      </trkpt>
      <trkpt lat="42.5078715942800045013427734375" lon="19.91105013526976108551025390625">
        <ele>1963</ele>
        <time>2026-06-17T10:54:25.000Z</time>
        <extensions>
          <ns3:TrackPointExtension>
            <ns3:atemp>24.0</ns3:atemp>
          </ns3:TrackPointExtension>
        </extensions>
      </trkpt>
      <trkpt lat="42.50786765478551387786865234375" lon="19.911018870770931243896484375">
        <ele>1963</ele>
        <time>2026-06-17T10:54:26.000Z</time>
        <extensions>
          <ns3:TrackPointExtension>
            <ns3:atemp>24.0</ns3:atemp>
          </ns3:TrackPointExtension>
        </extensions>
      </trkpt>
      <trkpt lat="42.50786966644227504730224609375" lon="19.9109868519008159637451171875">
        <ele>1963</ele>
        <time>2026-06-17T10:54:27.000Z</time>
        <extensions>
          <ns3:TrackPointExtension>
            <ns3:atemp>24.0</ns3:atemp>
          </ns3:TrackPointExtension>
        </extensions>
      </trkpt>
      <trkpt lat="42.5078739412128925323486328125" lon="19.910953156650066375732421875">
        <ele>1963</ele>
        <time>2026-06-17T10:54:28.000Z</time>
        <extensions>
          <ns3:TrackPointExtension>
            <ns3:atemp>24.0</ns3:atemp>
          </ns3:TrackPointExtension>
        </extensions>
      </trkpt>
      <trkpt lat="42.50787704251706600189208984375" lon="19.91091736592352390289306640625">
        <ele>1963</ele>
        <time>2026-06-17T10:54:29.000Z</time>
        <extensions>
          <ns3:TrackPointExtension>
            <ns3:atemp>24.0</ns3:atemp>
          </ns3:TrackPointExtension>
        </extensions>
      </trkpt>
      <trkpt lat="42.5078804790973663330078125" lon="19.91088199429214000701904296875">
        <ele>1963.199951171875</ele>
        <time>2026-06-17T10:54:30.000Z</time>
        <extensions>
          <ns3:TrackPointExtension>
            <ns3:atemp>24.0</ns3:atemp>
          </ns3:TrackPointExtension>
        </extensions>
      </trkpt>
      <trkpt lat="42.50788592733442783355712890625" lon="19.91084645502269268035888671875">
        <ele>1963.4000244140625</ele>
        <time>2026-06-17T10:54:31.000Z</time>
        <extensions>
          <ns3:TrackPointExtension>
            <ns3:atemp>24.0</ns3:atemp>
          </ns3:TrackPointExtension>
        </extensions>
      </trkpt>
      <trkpt lat="42.50788944773375988006591796875" lon="19.9108182080090045928955078125">
        <ele>1963.5999755859375</ele>
        <time>2026-06-17T10:54:32.000Z</time>
        <extensions>
          <ns3:TrackPointExtension>
            <ns3:atemp>24.0</ns3:atemp>
          </ns3:TrackPointExtension>
        </extensions>
      </trkpt>
      <trkpt lat="42.50789062120020389556884765625" lon="19.9107870273292064666748046875">
        <ele>1964</ele>
        <time>2026-06-17T10:54:33.000Z</time>
        <extensions>
          <ns3:TrackPointExtension>
            <ns3:atemp>24.0</ns3:atemp>
          </ns3:TrackPointExtension>
        </extensions>
      </trkpt>
      <trkpt lat="42.50788944773375988006591796875" lon="19.9107603728771209716796875">
        <ele>1964.199951171875</ele>
        <time>2026-06-17T10:54:34.000Z</time>
        <extensions>
          <ns3:TrackPointExtension>
            <ns3:atemp>24.0</ns3:atemp>
          </ns3:TrackPointExtension>
        </extensions>
      </trkpt>
      <trkpt lat="42.507888861000537872314453125" lon="19.91073732264339923858642578125">
        <ele>1964.4000244140625</ele>
        <time>2026-06-17T10:54:35.000Z</time>
        <extensions>
          <ns3:TrackPointExtension>
            <ns3:atemp>24.0</ns3:atemp>
          </ns3:TrackPointExtension>
        </extensions>
      </trkpt>
      <trkpt lat="42.5078870169818401336669921875" lon="19.9107109196484088897705078125">
        <ele>1964.800048828125</ele>
        <time>2026-06-17T10:54:36.000Z</time>
        <extensions>
          <ns3:TrackPointExtension>
            <ns3:atemp>24.0</ns3:atemp>
          </ns3:TrackPointExtension>
        </extensions>
      </trkpt>
      <trkpt lat="42.50788860954344272613525390625" lon="19.91067999042570590972900390625">
        <ele>1965</ele>
        <time>2026-06-17T10:54:37.000Z</time>
        <extensions>
          <ns3:TrackPointExtension>
            <ns3:atemp>24.0</ns3:atemp>
          </ns3:TrackPointExtension>
        </extensions>
      </trkpt>
      <trkpt lat="42.5079037807881832122802734375" lon="19.910655431449413299560546875">
        <ele>1965.4000244140625</ele>
        <time>2026-06-17T10:54:38.000Z</time>
        <extensions>
          <ns3:TrackPointExtension>
            <ns3:atemp>24.0</ns3:atemp>
          </ns3:TrackPointExtension>
        </extensions>
      </trkpt>
      <trkpt lat="42.507913000881671905517578125" lon="19.91062156856060028076171875">
        <ele>1965.5999755859375</ele>
        <time>2026-06-17T10:54:39.000Z</time>
        <extensions>
          <ns3:TrackPointExtension>
            <ns3:atemp>24.0</ns3:atemp>
          </ns3:TrackPointExtension>
        </extensions>
      </trkpt>
      <trkpt lat="42.507919706404209136962890625" lon="19.9105885438621044158935546875">
        <ele>1965.800048828125</ele>
        <time>2026-06-17T10:54:40.000Z</time>
        <extensions>
          <ns3:TrackPointExtension>
            <ns3:atemp>24.0</ns3:atemp>
          </ns3:TrackPointExtension>
        </extensions>
      </trkpt>
      <trkpt lat="42.50792347826063632965087890625" lon="19.91055442951619625091552734375">
        <ele>1966</ele>
        <time>2026-06-17T10:54:41.000Z</time>
        <extensions>
          <ns3:TrackPointExtension>
            <ns3:atemp>24.0</ns3:atemp>
          </ns3:TrackPointExtension>
        </extensions>
      </trkpt>
      <trkpt lat="42.5079342909157276153564453125" lon="19.91053146310150623321533203125">
        <ele>1966.4000244140625</ele>
        <time>2026-06-17T10:54:42.000Z</time>
        <extensions>
          <ns3:TrackPointExtension>
            <ns3:atemp>24.0</ns3:atemp>
          </ns3:TrackPointExtension>
        </extensions>
      </trkpt>
      <trkpt lat="42.5079373084008693695068359375" lon="19.910504557192325592041015625">
        <ele>1966.5999755859375</ele>
        <time>2026-06-17T10:54:43.000Z</time>
        <extensions>
          <ns3:TrackPointExtension>
            <ns3:atemp>24.0</ns3:atemp>
          </ns3:TrackPointExtension>
        </extensions>
      </trkpt>
      <trkpt lat="42.5079342909157276153564453125" lon="19.91048217751085758209228515625">
        <ele>1967</ele>
        <time>2026-06-17T10:54:44.000Z</time>
        <extensions>
          <ns3:TrackPointExtension>
            <ns3:atemp>24.0</ns3:atemp>
          </ns3:TrackPointExtension>
        </extensions>
      </trkpt>
      <trkpt lat="42.50792901031672954559326171875" lon="19.9104572832584381103515625">
        <ele>1967.4000244140625</ele>
        <time>2026-06-17T10:54:45.000Z</time>
        <extensions>
          <ns3:TrackPointExtension>
            <ns3:atemp>24.0</ns3:atemp>
          </ns3:TrackPointExtension>
        </extensions>
      </trkpt>
      <trkpt lat="42.50791861675679683685302734375" lon="19.91044227965176105499267578125">
        <ele>1967.800048828125</ele>
        <time>2026-06-17T10:54:46.000Z</time>
        <extensions>
          <ns3:TrackPointExtension>
            <ns3:atemp>24.0</ns3:atemp>
          </ns3:TrackPointExtension>
        </extensions>
      </trkpt>
      <trkpt lat="42.50790604390203952789306640625" lon="19.910427443683147430419921875">
        <ele>1968.199951171875</ele>
        <time>2026-06-17T10:54:47.000Z</time>
        <extensions>
          <ns3:TrackPointExtension>
            <ns3:atemp>24.0</ns3:atemp>
          </ns3:TrackPointExtension>
        </extensions>
      </trkpt>
      <trkpt lat="42.50790663063526153564453125" lon="19.91041378118097782135009765625">
        <ele>1968.5999755859375</ele>
        <time>2026-06-17T10:54:48.000Z</time>
        <extensions>
          <ns3:TrackPointExtension>
            <ns3:atemp>24.0</ns3:atemp>
          </ns3:TrackPointExtension>
        </extensions>
      </trkpt>
      <trkpt lat="42.50791341997683048248291015625" lon="19.91039760410785675048828125">
        <ele>1969</ele>
        <time>2026-06-17T10:54:49.000Z</time>
        <extensions>
          <ns3:TrackPointExtension>
            <ns3:atemp>24.0</ns3:atemp>
          </ns3:TrackPointExtension>
        </extensions>
      </trkpt>
      <trkpt lat="42.50791677273809909820556640625" lon="19.91037790663540363311767578125">
        <ele>1969.199951171875</ele>
        <time>2026-06-17T10:54:50.000Z</time>
        <extensions>
          <ns3:TrackPointExtension>
            <ns3:atemp>24.0</ns3:atemp>
          </ns3:TrackPointExtension>
        </extensions>
      </trkpt>
      <trkpt lat="42.50791761092841625213623046875" lon="19.9103595502674579620361328125">
        <ele>1969.4000244140625</ele>
        <time>2026-06-17T10:54:51.000Z</time>
        <extensions>
          <ns3:TrackPointExtension>
            <ns3:atemp>24.0</ns3:atemp>
          </ns3:TrackPointExtension>
        </extensions>
      </trkpt>
      <trkpt lat="42.50791224651038646697998046875" lon="19.91034236736595630645751953125">
        <ele>1969.4000244140625</ele>
        <time>2026-06-17T10:54:52.000Z</time>
        <extensions>
          <ns3:TrackPointExtension>
            <ns3:atemp>24.0</ns3:atemp>
          </ns3:TrackPointExtension>
        </extensions>
      </trkpt>
      <trkpt lat="42.507905624806880950927734375" lon="19.91031554527580738067626953125">
        <ele>1969.4000244140625</ele>
        <time>2026-06-17T10:54:53.000Z</time>
        <extensions>
          <ns3:TrackPointExtension>
            <ns3:atemp>24.0</ns3:atemp>
          </ns3:TrackPointExtension>
        </extensions>
      </trkpt>
      <trkpt lat="42.50790436752140522003173828125" lon="19.91028687916696071624755859375">
        <ele>1969.199951171875</ele>
        <time>2026-06-17T10:54:54.000Z</time>
        <extensions>
          <ns3:TrackPointExtension>
            <ns3:atemp>24.0</ns3:atemp>
          </ns3:TrackPointExtension>
        </extensions>
      </trkpt>
      <trkpt lat="42.50790151767432689666748046875" lon="19.91025234572589397430419921875">
        <ele>1969</ele>
        <time>2026-06-17T10:54:55.000Z</time>
        <extensions>
          <ns3:TrackPointExtension>
            <ns3:atemp>24.0</ns3:atemp>
          </ns3:TrackPointExtension>
        </extensions>
      </trkpt>
      <trkpt lat="42.5079047866165637969970703125" lon="19.910208843648433685302734375">
        <ele>1968.800048828125</ele>
        <time>2026-06-17T10:54:56.000Z</time>
        <extensions>
          <ns3:TrackPointExtension>
            <ns3:atemp>24.0</ns3:atemp>
          </ns3:TrackPointExtension>
        </extensions>
      </trkpt>
      <trkpt lat="42.5079067982733249664306640625" lon="19.91016148589551448822021484375">
        <ele>1968.4000244140625</ele>
        <time>2026-06-17T10:54:57.000Z</time>
        <extensions>
          <ns3:TrackPointExtension>
            <ns3:atemp>24.0</ns3:atemp>
          </ns3:TrackPointExtension>
        </extensions>
      </trkpt>
      <trkpt lat="42.50790235586464405059814453125" lon="19.9101166427135467529296875">
        <ele>1968</ele>
        <time>2026-06-17T10:54:58.000Z</time>
        <extensions>
          <ns3:TrackPointExtension>
            <ns3:atemp>24.0</ns3:atemp>
          </ns3:TrackPointExtension>
        </extensions>
      </trkpt>
      <trkpt lat="42.50790151767432689666748046875" lon="19.91008604876697063446044921875">
        <ele>1967.800048828125</ele>
        <time>2026-06-17T10:54:59.000Z</time>
        <extensions>
          <ns3:TrackPointExtension>
            <ns3:atemp>24.0</ns3:atemp>
          </ns3:TrackPointExtension>
        </extensions>
      </trkpt>
      <trkpt lat="42.50789967365562915802001953125" lon="19.9100635014474391937255859375">
        <ele>1967.800048828125</ele>
        <time>2026-06-17T10:55:00.000Z</time>
        <extensions>
          <ns3:TrackPointExtension>
            <ns3:atemp>24.0</ns3:atemp>
          </ns3:TrackPointExtension>
        </extensions>
      </trkpt>
      <trkpt lat="42.50789699144661426544189453125" lon="19.9100396968424320220947265625">
        <ele>1968</ele>
        <time>2026-06-17T10:55:01.000Z</time>
        <extensions>
          <ns3:TrackPointExtension>
            <ns3:atemp>24.0</ns3:atemp>
          </ns3:TrackPointExtension>
        </extensions>
      </trkpt>
      <trkpt lat="42.5078938901424407958984375" lon="19.91001597605645656585693359375">
        <ele>1968.199951171875</ele>
        <time>2026-06-17T10:55:02.000Z</time>
        <extensions>
          <ns3:TrackPointExtension>
            <ns3:atemp>24.0</ns3:atemp>
          </ns3:TrackPointExtension>
        </extensions>
      </trkpt>
      <trkpt lat="42.5078937225043773651123046875" lon="19.90999485366046428680419921875">
        <ele>1968.4000244140625</ele>
        <time>2026-06-17T10:55:03.000Z</time>
        <extensions>
          <ns3:TrackPointExtension>
            <ns3:atemp>24.0</ns3:atemp>
          </ns3:TrackPointExtension>
        </extensions>
      </trkpt>
      <trkpt lat="42.5078885257244110107421875" lon="19.9099780060350894927978515625">
        <ele>1968.5999755859375</ele>
        <time>2026-06-17T10:55:04.000Z</time>
        <extensions>
          <ns3:TrackPointExtension>
            <ns3:atemp>24.0</ns3:atemp>
          </ns3:TrackPointExtension>
        </extensions>
      </trkpt>
      <trkpt lat="42.50788609497249126434326171875" lon="19.90995512343943119049072265625">
        <ele>1969</ele>
        <time>2026-06-17T10:55:05.000Z</time>
        <extensions>
          <ns3:TrackPointExtension>
            <ns3:atemp>24.0</ns3:atemp>
          </ns3:TrackPointExtension>
        </extensions>
      </trkpt>
      <trkpt lat="42.50788307748734951019287109375" lon="19.909932576119899749755859375">
        <ele>1969.199951171875</ele>
        <time>2026-06-17T10:55:06.000Z</time>
        <extensions>
          <ns3:TrackPointExtension>
            <ns3:atemp>24.0</ns3:atemp>
          </ns3:TrackPointExtension>
        </extensions>
      </trkpt>
      <trkpt lat="42.5078796409070491790771484375" lon="19.90990701131522655487060546875">
        <ele>1969.5999755859375</ele>
        <time>2026-06-17T10:55:07.000Z</time>
        <extensions>
          <ns3:TrackPointExtension>
            <ns3:atemp>24.0</ns3:atemp>
          </ns3:TrackPointExtension>
        </extensions>
      </trkpt>
      <trkpt lat="42.50788408331573009490966796875" lon="19.9098841287195682525634765625">
        <ele>1969.800048828125</ele>
        <time>2026-06-17T10:55:08.000Z</time>
        <extensions>
          <ns3:TrackPointExtension>
            <ns3:atemp>24.0</ns3:atemp>
          </ns3:TrackPointExtension>
        </extensions>
      </trkpt>
      <trkpt lat="42.50788986682891845703125" lon="19.90986518561840057373046875">
        <ele>1970.199951171875</ele>
        <time>2026-06-17T10:55:09.000Z</time>
        <extensions>
          <ns3:TrackPointExtension>
            <ns3:atemp>24.0</ns3:atemp>
          </ns3:TrackPointExtension>
        </extensions>
      </trkpt>
      <trkpt lat="42.50788986682891845703125" lon="19.909842722117900848388671875">
        <ele>1970.4000244140625</ele>
        <time>2026-06-17T10:55:10.000Z</time>
        <extensions>
          <ns3:TrackPointExtension>
            <ns3:atemp>24.0</ns3:atemp>
          </ns3:TrackPointExtension>
        </extensions>
      </trkpt>
      <trkpt lat="42.5078927166759967803955078125" lon="19.909819923341274261474609375">
        <ele>1970.800048828125</ele>
        <time>2026-06-17T10:55:11.000Z</time>
        <extensions>
          <ns3:TrackPointExtension>
            <ns3:atemp>24.0</ns3:atemp>
          </ns3:TrackPointExtension>
        </extensions>
      </trkpt>
      <trkpt lat="42.5078957341611385345458984375" lon="19.9098026566207408905029296875">
        <ele>1971</ele>
        <time>2026-06-17T10:55:12.000Z</time>
        <extensions>
          <ns3:TrackPointExtension>
            <ns3:atemp>24.0</ns3:atemp>
          </ns3:TrackPointExtension>
        </extensions>
      </trkpt>
      <trkpt lat="42.507898919284343719482421875" lon="19.90978245623409748077392578125">
        <ele>1971.4000244140625</ele>
        <time>2026-06-17T10:55:13.000Z</time>
        <extensions>
          <ns3:TrackPointExtension>
            <ns3:atemp>24.0</ns3:atemp>
          </ns3:TrackPointExtension>
        </extensions>
      </trkpt>
      <trkpt lat="42.5079027749598026275634765625" lon="19.90975948981940746307373046875">
        <ele>1971.5999755859375</ele>
        <time>2026-06-17T10:55:14.000Z</time>
        <extensions>
          <ns3:TrackPointExtension>
            <ns3:atemp>24.0</ns3:atemp>
          </ns3:TrackPointExtension>
        </extensions>
      </trkpt>
      <trkpt lat="42.50790671445429325103759765625" lon="19.909738786518573760986328125">
        <ele>1972</ele>
        <time>2026-06-17T10:55:15.000Z</time>
        <extensions>
          <ns3:TrackPointExtension>
            <ns3:atemp>24.0</ns3:atemp>
          </ns3:TrackPointExtension>
        </extensions>
      </trkpt>
      <trkpt lat="42.507912330329418182373046875" lon="19.90972227416932582855224609375">
        <ele>1972.199951171875</ele>
        <time>2026-06-17T10:55:16.000Z</time>
        <extensions>
          <ns3:TrackPointExtension>
            <ns3:atemp>24.0</ns3:atemp>
          </ns3:TrackPointExtension>
        </extensions>
      </trkpt>
      <trkpt lat="42.50792129896581172943115234375" lon="19.90970827639102935791015625">
        <ele>1972.5999755859375</ele>
        <time>2026-06-17T10:55:17.000Z</time>
        <extensions>
          <ns3:TrackPointExtension>
            <ns3:atemp>24.0</ns3:atemp>
          </ns3:TrackPointExtension>
        </extensions>
      </trkpt>
      <trkpt lat="42.5079269148409366607666015625" lon="19.90968883037567138671875">
        <ele>1972.800048828125</ele>
        <time>2026-06-17T10:55:18.000Z</time>
        <extensions>
          <ns3:TrackPointExtension>
            <ns3:atemp>24.0</ns3:atemp>
          </ns3:TrackPointExtension>
        </extensions>
      </trkpt>
      <trkpt lat="42.5079306028783321380615234375" lon="19.909667037427425384521484375">
        <ele>1973.199951171875</ele>
        <time>2026-06-17T10:55:19.000Z</time>
        <extensions>
          <ns3:TrackPointExtension>
            <ns3:atemp>24.0</ns3:atemp>
          </ns3:TrackPointExtension>
        </extensions>
      </trkpt>
      <trkpt lat="42.507935799658298492431640625" lon="19.90964532829821109771728515625">
        <ele>1973.5999755859375</ele>
        <time>2026-06-17T10:55:20.000Z</time>
        <extensions>
          <ns3:TrackPointExtension>
            <ns3:atemp>24.0</ns3:atemp>
          </ns3:TrackPointExtension>
        </extensions>
      </trkpt>
      <trkpt lat="42.5079346261918544769287109375" lon="19.90962244570255279541015625">
        <ele>1973.800048828125</ele>
        <time>2026-06-17T10:55:21.000Z</time>
        <extensions>
          <ns3:TrackPointExtension>
            <ns3:atemp>24.0</ns3:atemp>
          </ns3:TrackPointExtension>
        </extensions>
      </trkpt>
      <trkpt lat="42.50793571583926677703857421875" lon="19.9095991440117359161376953125">
        <ele>1974.199951171875</ele>
        <time>2026-06-17T10:55:22.000Z</time>
        <extensions>
          <ns3:TrackPointExtension>
            <ns3:atemp>24.0</ns3:atemp>
          </ns3:TrackPointExtension>
        </extensions>
      </trkpt>
      <trkpt lat="42.50794141553342342376708984375" lon="19.90958162583410739898681640625">
        <ele>1974.4000244140625</ele>
        <time>2026-06-17T10:55:23.000Z</time>
        <extensions>
          <ns3:TrackPointExtension>
            <ns3:atemp>24.0</ns3:atemp>
          </ns3:TrackPointExtension>
        </extensions>
      </trkpt>
      <trkpt lat="42.507941834628582000732421875" lon="19.9095641076564788818359375">
        <ele>1974.5999755859375</ele>
        <time>2026-06-17T10:55:24.000Z</time>
        <extensions>
          <ns3:TrackPointExtension>
            <ns3:atemp>24.0</ns3:atemp>
          </ns3:TrackPointExtension>
        </extensions>
      </trkpt>
      <trkpt lat="42.5079399906098842620849609375" lon="19.90954843349754810333251953125">
        <ele>1974.800048828125</ele>
        <time>2026-06-17T10:55:25.000Z</time>
        <extensions>
          <ns3:TrackPointExtension>
            <ns3:atemp>24.0</ns3:atemp>
          </ns3:TrackPointExtension>
        </extensions>
      </trkpt>
      <trkpt lat="42.507938481867313385009765625" lon="19.90953150205314159393310546875">
        <ele>1975.199951171875</ele>
        <time>2026-06-17T10:55:26.000Z</time>
        <extensions>
          <ns3:TrackPointExtension>
            <ns3:atemp>24.0</ns3:atemp>
          </ns3:TrackPointExtension>
        </extensions>
      </trkpt>
      <trkpt lat="42.50794015824794769287109375" lon="19.9095143191516399383544921875">
        <ele>1975.4000244140625</ele>
        <time>2026-06-17T10:55:27.000Z</time>
        <extensions>
          <ns3:TrackPointExtension>
            <ns3:atemp>24.0</ns3:atemp>
          </ns3:TrackPointExtension>
        </extensions>
      </trkpt>
      <trkpt lat="42.5079436786472797393798828125" lon="19.90948942489922046661376953125">
        <ele>1975.800048828125</ele>
        <time>2026-06-17T10:55:28.000Z</time>
        <extensions>
          <ns3:TrackPointExtension>
            <ns3:atemp>24.0</ns3:atemp>
          </ns3:TrackPointExtension>
        </extensions>
      </trkpt>
      <trkpt lat="42.50794325955212116241455078125" lon="19.90946687757968902587890625">
        <ele>1976</ele>
        <time>2026-06-17T10:55:29.000Z</time>
        <extensions>
          <ns3:TrackPointExtension>
            <ns3:atemp>24.0</ns3:atemp>
          </ns3:TrackPointExtension>
        </extensions>
      </trkpt>
      <trkpt lat="42.50794527120888233184814453125" lon="19.90944810211658477783203125">
        <ele>1976.199951171875</ele>
        <time>2026-06-17T10:55:30.000Z</time>
        <extensions>
          <ns3:TrackPointExtension>
            <ns3:atemp>24.0</ns3:atemp>
          </ns3:TrackPointExtension>
        </extensions>
      </trkpt>
      <trkpt lat="42.5079450197517871856689453125" lon="19.90943410433828830718994140625">
        <ele>1976.5999755859375</ele>
        <time>2026-06-17T10:55:31.000Z</time>
        <extensions>
          <ns3:TrackPointExtension>
            <ns3:atemp>24.0</ns3:atemp>
          </ns3:TrackPointExtension>
        </extensions>
      </trkpt>
      <trkpt lat="42.50795088708400726318359375" lon="19.9094187654554843902587890625">
        <ele>1976.800048828125</ele>
        <time>2026-06-17T10:55:32.000Z</time>
        <extensions>
          <ns3:TrackPointExtension>
            <ns3:atemp>24.0</ns3:atemp>
          </ns3:TrackPointExtension>
        </extensions>
      </trkpt>
      <trkpt lat="42.50795901753008365631103515625" lon="19.909399487078189849853515625">
        <ele>1977.199951171875</ele>
        <time>2026-06-17T10:55:33.000Z</time>
        <extensions>
          <ns3:TrackPointExtension>
            <ns3:atemp>24.0</ns3:atemp>
          </ns3:TrackPointExtension>
        </extensions>
      </trkpt>
      <trkpt lat="42.50797100365161895751953125" lon="19.9093758501112461090087890625">
        <ele>1977.4000244140625</ele>
        <time>2026-06-17T10:55:34.000Z</time>
        <extensions>
          <ns3:TrackPointExtension>
            <ns3:atemp>24.0</ns3:atemp>
          </ns3:TrackPointExtension>
        </extensions>
      </trkpt>
      <trkpt lat="42.507984749972820281982421875" lon="19.909350872039794921875">
        <ele>1977.800048828125</ele>
        <time>2026-06-17T10:55:35.000Z</time>
        <extensions>
          <ns3:TrackPointExtension>
            <ns3:atemp>24.0</ns3:atemp>
          </ns3:TrackPointExtension>
        </extensions>
      </trkpt>
      <trkpt lat="42.507997490465641021728515625" lon="19.909325055778026580810546875">
        <ele>1978</ele>
        <time>2026-06-17T10:55:36.000Z</time>
        <extensions>
          <ns3:TrackPointExtension>
            <ns3:atemp>24.0</ns3:atemp>
          </ns3:TrackPointExtension>
        </extensions>
      </trkpt>
      <trkpt lat="42.50800461508333683013916015625" lon="19.9092985689640045166015625">
        <ele>1978.4000244140625</ele>
        <time>2026-06-17T10:55:37.000Z</time>
        <extensions>
          <ns3:TrackPointExtension>
            <ns3:atemp>24.0</ns3:atemp>
          </ns3:TrackPointExtension>
        </extensions>
      </trkpt>
      <trkpt lat="42.5080147571861743927001953125" lon="19.9092712439596652984619140625">
        <ele>1978.5999755859375</ele>
        <time>2026-06-17T10:55:38.000Z</time>
        <extensions>
          <ns3:TrackPointExtension>
            <ns3:atemp>24.0</ns3:atemp>
          </ns3:TrackPointExtension>
        </extensions>
      </trkpt>
      <trkpt lat="42.508023642003536224365234375" lon="19.90923897363245487213134765625">
        <ele>1978.5999755859375</ele>
        <time>2026-06-17T10:55:39.000Z</time>
        <extensions>
          <ns3:TrackPointExtension>
            <ns3:atemp>24.0</ns3:atemp>
          </ns3:TrackPointExtension>
        </extensions>
      </trkpt>
      <trkpt lat="42.50803009606897830963134765625" lon="19.9092088826000690460205078125">
        <ele>1978.800048828125</ele>
        <time>2026-06-17T10:55:40.000Z</time>
        <extensions>
          <ns3:TrackPointExtension>
            <ns3:atemp>24.0</ns3:atemp>
          </ns3:TrackPointExtension>
        </extensions>
      </trkpt>
      <trkpt lat="42.50803227536380290985107421875" lon="19.9091827310621738433837890625">
        <ele>1978.800048828125</ele>
        <time>2026-06-17T10:55:41.000Z</time>
        <extensions>
          <ns3:TrackPointExtension>
            <ns3:atemp>24.0</ns3:atemp>
          </ns3:TrackPointExtension>
        </extensions>
      </trkpt>
      <trkpt lat="42.5080368854105472564697265625" lon="19.9091562442481517791748046875">
        <ele>1979</ele>
        <time>2026-06-17T10:55:42.000Z</time>
        <extensions>
          <ns3:TrackPointExtension>
            <ns3:atemp>24.0</ns3:atemp>
          </ns3:TrackPointExtension>
        </extensions>
      </trkpt>
      <trkpt lat="42.50804920680820941925048828125" lon="19.90912900306284427642822265625">
        <ele>1979.199951171875</ele>
        <time>2026-06-17T10:55:43.000Z</time>
        <extensions>
          <ns3:TrackPointExtension>
            <ns3:atemp>24.0</ns3:atemp>
          </ns3:TrackPointExtension>
        </extensions>
      </trkpt>
      <trkpt lat="42.50806697644293308258056640625" lon="19.90910117514431476593017578125">
        <ele>1979.4000244140625</ele>
        <time>2026-06-17T10:55:44.000Z</time>
        <extensions>
          <ns3:TrackPointExtension>
            <ns3:atemp>24.0</ns3:atemp>
          </ns3:TrackPointExtension>
        </extensions>
      </trkpt>
      <trkpt lat="42.5080824829638004302978515625" lon="19.9090771190822124481201171875">
        <ele>1979.800048828125</ele>
        <time>2026-06-17T10:55:45.000Z</time>
        <extensions>
          <ns3:TrackPointExtension>
            <ns3:atemp>24.0</ns3:atemp>
          </ns3:TrackPointExtension>
        </extensions>
      </trkpt>
      <trkpt lat="42.50809840857982635498046875" lon="19.90905708633363246917724609375">
        <ele>1979.800048828125</ele>
        <time>2026-06-17T10:55:46.000Z</time>
        <extensions>
          <ns3:TrackPointExtension>
            <ns3:atemp>24.0</ns3:atemp>
          </ns3:TrackPointExtension>
        </extensions>
      </trkpt>
      <trkpt lat="42.50811609439551830291748046875" lon="19.90903914906084537506103515625">
        <ele>1980</ele>
        <time>2026-06-17T10:55:47.000Z</time>
        <extensions>
          <ns3:TrackPointExtension>
            <ns3:atemp>24.0</ns3:atemp>
          </ns3:TrackPointExtension>
        </extensions>
      </trkpt>
      <trkpt lat="42.50813193619251251220703125" lon="19.90902439691126346588134765625">
        <ele>1980.4000244140625</ele>
        <time>2026-06-17T10:55:48.000Z</time>
        <extensions>
          <ns3:TrackPointExtension>
            <ns3:atemp>24.0</ns3:atemp>
          </ns3:TrackPointExtension>
        </extensions>
      </trkpt>
      <trkpt lat="42.508144676685333251953125" lon="19.9090077169239521026611328125">
        <ele>1980.800048828125</ele>
        <time>2026-06-17T10:55:49.000Z</time>
        <extensions>
          <ns3:TrackPointExtension>
            <ns3:atemp>24.0</ns3:atemp>
          </ns3:TrackPointExtension>
        </extensions>
      </trkpt>
      <trkpt lat="42.50815817154943943023681640625" lon="19.90899623371660709381103515625">
        <ele>1981</ele>
        <time>2026-06-17T10:55:50.000Z</time>
        <extensions>
          <ns3:TrackPointExtension>
            <ns3:atemp>24.0</ns3:atemp>
          </ns3:TrackPointExtension>
        </extensions>
      </trkpt>
      <trkpt lat="42.50816973857581615447998046875" lon="19.90898600779473781585693359375">
        <ele>1981.199951171875</ele>
        <time>2026-06-17T10:55:51.000Z</time>
        <extensions>
          <ns3:TrackPointExtension>
            <ns3:atemp>24.0</ns3:atemp>
          </ns3:TrackPointExtension>
        </extensions>
      </trkpt>
      <trkpt lat="42.5081790424883365631103515625" lon="19.90897377021610736846923828125">
        <ele>1981.5999755859375</ele>
        <time>2026-06-17T10:55:52.000Z</time>
        <extensions>
          <ns3:TrackPointExtension>
            <ns3:atemp>24.0</ns3:atemp>
          </ns3:TrackPointExtension>
        </extensions>
      </trkpt>
      <trkpt lat="42.508188597857952117919921875" lon="19.908966310322284698486328125">
        <ele>1981.800048828125</ele>
        <time>2026-06-17T10:55:53.000Z</time>
        <extensions>
          <ns3:TrackPointExtension>
            <ns3:atemp>24.0</ns3:atemp>
          </ns3:TrackPointExtension>
        </extensions>
      </trkpt>
      <trkpt lat="42.5081996619701385498046875" lon="19.908954240381717681884765625">
        <ele>1982</ele>
        <time>2026-06-17T10:55:54.000Z</time>
        <extensions>
          <ns3:TrackPointExtension>
            <ns3:atemp>24.0</ns3:atemp>
          </ns3:TrackPointExtension>
        </extensions>
      </trkpt>
      <trkpt lat="42.50821416266262531280517578125" lon="19.90894208662211894989013671875">
        <ele>1982.199951171875</ele>
        <time>2026-06-17T10:55:55.000Z</time>
        <extensions>
          <ns3:TrackPointExtension>
            <ns3:atemp>24.0</ns3:atemp>
          </ns3:TrackPointExtension>
        </extensions>
      </trkpt>
      <trkpt lat="42.50822690315544605255126953125" lon="19.9089262448251247406005859375">
        <ele>1982.4000244140625</ele>
        <time>2026-06-17T10:55:56.000Z</time>
        <extensions>
          <ns3:TrackPointExtension>
            <ns3:atemp>24.0</ns3:atemp>
          </ns3:TrackPointExtension>
        </extensions>
      </trkpt>
      <trkpt lat="42.508241571485996246337890625" lon="19.9089118279516696929931640625">
        <ele>1982.5999755859375</ele>
        <time>2026-06-17T10:55:57.000Z</time>
        <extensions>
          <ns3:TrackPointExtension>
            <ns3:atemp>24.0</ns3:atemp>
          </ns3:TrackPointExtension>
        </extensions>
      </trkpt>
      <trkpt lat="42.5082544796168804168701171875" lon="19.90889280103147029876708984375">
        <ele>1982.800048828125</ele>
        <time>2026-06-17T10:55:58.000Z</time>
        <extensions>
          <ns3:TrackPointExtension>
            <ns3:atemp>24.0</ns3:atemp>
          </ns3:TrackPointExtension>
        </extensions>
      </trkpt>
      <trkpt lat="42.508269064128398895263671875" lon="19.9088712595403194427490234375">
        <ele>1983</ele>
        <time>2026-06-17T10:55:59.000Z</time>
        <extensions>
          <ns3:TrackPointExtension>
            <ns3:atemp>24.0</ns3:atemp>
          </ns3:TrackPointExtension>
        </extensions>
      </trkpt>
      <trkpt lat="42.50828390009701251983642578125" lon="19.90886178798973560333251953125">
        <ele>1983.199951171875</ele>
        <time>2026-06-17T10:56:00.000Z</time>
        <extensions>
          <ns3:TrackPointExtension>
            <ns3:atemp>24.0</ns3:atemp>
          </ns3:TrackPointExtension>
        </extensions>
      </trkpt>
      <trkpt lat="42.508298568427562713623046875" lon="19.9088511429727077484130859375">
        <ele>1983.4000244140625</ele>
        <time>2026-06-17T10:56:01.000Z</time>
        <extensions>
          <ns3:TrackPointExtension>
            <ns3:atemp>24.0</ns3:atemp>
          </ns3:TrackPointExtension>
        </extensions>
      </trkpt>
      <trkpt lat="42.5083144940435886383056640625" lon="19.90884066559374332427978515625">
        <ele>1983.5999755859375</ele>
        <time>2026-06-17T10:56:02.000Z</time>
        <extensions>
          <ns3:TrackPointExtension>
            <ns3:atemp>24.0</ns3:atemp>
          </ns3:TrackPointExtension>
        </extensions>
      </trkpt>
      <trkpt lat="42.50832966528832912445068359375" lon="19.90882448852062225341796875">
        <ele>1983.800048828125</ele>
        <time>2026-06-17T10:56:03.000Z</time>
        <extensions>
          <ns3:TrackPointExtension>
            <ns3:atemp>24.0</ns3:atemp>
          </ns3:TrackPointExtension>
        </extensions>
      </trkpt>
      <trkpt lat="42.5083458423614501953125" lon="19.908812753856182098388671875">
        <ele>1984</ele>
        <time>2026-06-17T10:56:04.000Z</time>
        <extensions>
          <ns3:TrackPointExtension>
            <ns3:atemp>24.0</ns3:atemp>
          </ns3:TrackPointExtension>
        </extensions>
      </trkpt>
      <trkpt lat="42.50836084596812725067138671875" lon="19.90880143828690052032470703125">
        <ele>1984.199951171875</ele>
        <time>2026-06-17T10:56:05.000Z</time>
        <extensions>
          <ns3:TrackPointExtension>
            <ns3:atemp>24.0</ns3:atemp>
          </ns3:TrackPointExtension>
        </extensions>
      </trkpt>
      <trkpt lat="42.50837056897580623626708984375" lon="19.908783920109272003173828125">
        <ele>1984.4000244140625</ele>
        <time>2026-06-17T10:56:06.000Z</time>
        <extensions>
          <ns3:TrackPointExtension>
            <ns3:atemp>24.0</ns3:atemp>
          </ns3:TrackPointExtension>
        </extensions>
      </trkpt>
      <trkpt lat="42.50838481821119785308837890625" lon="19.90876640193164348602294921875">
        <ele>1984.5999755859375</ele>
        <time>2026-06-17T10:56:07.000Z</time>
        <extensions>
          <ns3:TrackPointExtension>
            <ns3:atemp>24.0</ns3:atemp>
          </ns3:TrackPointExtension>
        </extensions>
      </trkpt>
      <trkpt lat="42.5084030069410800933837890625" lon="19.90875634364783763885498046875">
        <ele>1984.800048828125</ele>
        <time>2026-06-17T10:56:08.000Z</time>
        <extensions>
          <ns3:TrackPointExtension>
            <ns3:atemp>24.0</ns3:atemp>
          </ns3:TrackPointExtension>
        </extensions>
      </trkpt>
      <trkpt lat="42.5084187649190425872802734375" lon="19.908743686974048614501953125">
        <ele>1985</ele>
        <time>2026-06-17T10:56:09.000Z</time>
        <extensions>
          <ns3:TrackPointExtension>
            <ns3:atemp>24.0</ns3:atemp>
          </ns3:TrackPointExtension>
        </extensions>
      </trkpt>
      <trkpt lat="42.50842672772705554962158203125" lon="19.90872382186353206634521484375">
        <ele>1985.199951171875</ele>
        <time>2026-06-17T10:56:10.000Z</time>
        <extensions>
          <ns3:TrackPointExtension>
            <ns3:atemp>24.0</ns3:atemp>
          </ns3:TrackPointExtension>
        </extensions>
      </trkpt>
      <trkpt lat="42.50843393616378307342529296875" lon="19.90870638750493526458740234375">
        <ele>1985.5999755859375</ele>
        <time>2026-06-17T10:56:11.000Z</time>
        <extensions>
          <ns3:TrackPointExtension>
            <ns3:atemp>24.0</ns3:atemp>
          </ns3:TrackPointExtension>
        </extensions>
      </trkpt>
      <trkpt lat="42.50844164751470088958740234375" lon="19.9086861871182918548583984375">
        <ele>1985.800048828125</ele>
        <time>2026-06-17T10:56:12.000Z</time>
        <extensions>
          <ns3:TrackPointExtension>
            <ns3:atemp>24.0</ns3:atemp>
          </ns3:TrackPointExtension>
        </extensions>
      </trkpt>
      <trkpt lat="42.50845723785459995269775390625" lon="19.9086741171777248382568359375">
        <ele>1986</ele>
        <time>2026-06-17T10:56:13.000Z</time>
        <extensions>
          <ns3:TrackPointExtension>
            <ns3:atemp>24.0</ns3:atemp>
          </ns3:TrackPointExtension>
        </extensions>
      </trkpt>
      <trkpt lat="42.5084717385470867156982421875" lon="19.90865894593298435211181640625">
        <ele>1986.199951171875</ele>
        <time>2026-06-17T10:56:14.000Z</time>
        <extensions>
          <ns3:TrackPointExtension>
            <ns3:atemp>24.0</ns3:atemp>
          </ns3:TrackPointExtension>
        </extensions>
      </trkpt>
      <trkpt lat="42.5084848143160343170166015625" lon="19.90864000283181667327880859375">
        <ele>1986.4000244140625</ele>
        <time>2026-06-17T10:56:15.000Z</time>
        <extensions>
          <ns3:TrackPointExtension>
            <ns3:atemp>24.0</ns3:atemp>
          </ns3:TrackPointExtension>
        </extensions>
      </trkpt>
      <trkpt lat="42.50849562697112560272216796875" lon="19.90861787460744380950927734375">
        <ele>1986.5999755859375</ele>
        <time>2026-06-17T10:56:16.000Z</time>
        <extensions>
          <ns3:TrackPointExtension>
            <ns3:atemp>24.0</ns3:atemp>
          </ns3:TrackPointExtension>
        </extensions>
      </trkpt>
      <trkpt lat="42.50850920565426349639892578125" lon="19.9086050502955913543701171875">
        <ele>1987</ele>
        <time>2026-06-17T10:56:17.000Z</time>
        <extensions>
          <ns3:TrackPointExtension>
            <ns3:atemp>24.0</ns3:atemp>
          </ns3:TrackPointExtension>
        </extensions>
      </trkpt>
      <trkpt lat="42.50852295197546482086181640625" lon="19.908595494925975799560546875">
        <ele>1987.4000244140625</ele>
        <time>2026-06-17T10:56:18.000Z</time>
        <extensions>
          <ns3:TrackPointExtension>
            <ns3:atemp>24.0</ns3:atemp>
          </ns3:TrackPointExtension>
        </extensions>
      </trkpt>
      <trkpt lat="42.5085351057350635528564453125" lon="19.9085805751383304595947265625">
        <ele>1987.800048828125</ele>
        <time>2026-06-17T10:56:19.000Z</time>
        <extensions>
          <ns3:TrackPointExtension>
            <ns3:atemp>24.0</ns3:atemp>
          </ns3:TrackPointExtension>
        </extensions>
      </trkpt>
      <trkpt lat="42.5085491873323917388916015625" lon="19.90856925956904888153076171875">
        <ele>1988.199951171875</ele>
        <time>2026-06-17T10:56:20.000Z</time>
        <extensions>
          <ns3:TrackPointExtension>
            <ns3:atemp>24.0</ns3:atemp>
          </ns3:TrackPointExtension>
        </extensions>
      </trkpt>
      <trkpt lat="42.50856653787195682525634765625" lon="19.90856104530394077301025390625">
        <ele>1988.5999755859375</ele>
        <time>2026-06-17T10:56:21.000Z</time>
        <extensions>
          <ns3:TrackPointExtension>
            <ns3:atemp>24.0</ns3:atemp>
          </ns3:TrackPointExtension>
        </extensions>
      </trkpt>
      <trkpt lat="42.508584894239902496337890625" lon="19.90855534560978412628173828125">
        <ele>1989</ele>
        <time>2026-06-17T10:56:22.000Z</time>
        <extensions>
          <ns3:TrackPointExtension>
            <ns3:atemp>24.0</ns3:atemp>
          </ns3:TrackPointExtension>
        </extensions>
      </trkpt>
      <trkpt lat="42.50860375352203845977783203125" lon="19.9085447005927562713623046875">
        <ele>1989.4000244140625</ele>
        <time>2026-06-17T10:56:23.000Z</time>
        <extensions>
          <ns3:TrackPointExtension>
            <ns3:atemp>24.0</ns3:atemp>
          </ns3:TrackPointExtension>
        </extensions>
      </trkpt>
      <trkpt lat="42.50862169079482555389404296875" lon="19.90852818824350833892822265625">
        <ele>1989.5999755859375</ele>
        <time>2026-06-17T10:56:24.000Z</time>
        <extensions>
          <ns3:TrackPointExtension>
            <ns3:atemp>24.0</ns3:atemp>
          </ns3:TrackPointExtension>
        </extensions>
      </trkpt>
      <trkpt lat="42.5086377002298831939697265625" lon="19.90851871669292449951171875">
        <ele>1990</ele>
        <time>2026-06-17T10:56:25.000Z</time>
        <extensions>
          <ns3:TrackPointExtension>
            <ns3:atemp>24.0</ns3:atemp>
          </ns3:TrackPointExtension>
        </extensions>
      </trkpt>
      <trkpt lat="42.50865454785525798797607421875" lon="19.90851092152297496795654296875">
        <ele>1990.199951171875</ele>
        <time>2026-06-17T10:56:26.000Z</time>
        <extensions>
          <ns3:TrackPointExtension>
            <ns3:atemp>24.0</ns3:atemp>
          </ns3:TrackPointExtension>
        </extensions>
      </trkpt>
      <trkpt lat="42.5086705572903156280517578125" lon="19.9085019528865814208984375">
        <ele>1990.4000244140625</ele>
        <time>2026-06-17T10:56:27.000Z</time>
        <extensions>
          <ns3:TrackPointExtension>
            <ns3:atemp>24.0</ns3:atemp>
          </ns3:TrackPointExtension>
        </extensions>
      </trkpt>
      <trkpt lat="42.50868556089699268341064453125" lon="19.90849214605987071990966796875">
        <ele>1990.5999755859375</ele>
        <time>2026-06-17T10:56:28.000Z</time>
        <extensions>
          <ns3:TrackPointExtension>
            <ns3:atemp>24.0</ns3:atemp>
          </ns3:TrackPointExtension>
        </extensions>
      </trkpt>
      <trkpt lat="42.50869947485625743865966796875" lon="19.90848384797573089599609375">
        <ele>1991</ele>
        <time>2026-06-17T10:56:29.000Z</time>
        <extensions>
          <ns3:TrackPointExtension>
            <ns3:atemp>24.0</ns3:atemp>
          </ns3:TrackPointExtension>
        </extensions>
      </trkpt>
      <trkpt lat="42.50871405936777591705322265625" lon="19.90847454406321048736572265625">
        <ele>1991.4000244140625</ele>
        <time>2026-06-17T10:56:30.000Z</time>
        <extensions>
          <ns3:TrackPointExtension>
            <ns3:atemp>24.0</ns3:atemp>
          </ns3:TrackPointExtension>
        </extensions>
      </trkpt>
      <trkpt lat="42.508730404078960418701171875" lon="19.9084697663784027099609375">
        <ele>1991.800048828125</ele>
        <time>2026-06-17T10:56:31.000Z</time>
        <extensions>
          <ns3:TrackPointExtension>
            <ns3:atemp>24.0</ns3:atemp>
          </ns3:TrackPointExtension>
        </extensions>
      </trkpt>
      <trkpt lat="42.50874775461852550506591796875" lon="19.90846599452197551727294921875">
        <ele>1992.199951171875</ele>
        <time>2026-06-17T10:56:32.000Z</time>
        <extensions>
          <ns3:TrackPointExtension>
            <ns3:atemp>24.0</ns3:atemp>
          </ns3:TrackPointExtension>
        </extensions>
      </trkpt>
      <trkpt lat="42.5087664462625980377197265625" lon="19.908456690609455108642578125">
        <ele>1992.4000244140625</ele>
        <time>2026-06-17T10:56:33.000Z</time>
        <extensions>
          <ns3:TrackPointExtension>
            <ns3:atemp>24.0</ns3:atemp>
          </ns3:TrackPointExtension>
        </extensions>
      </trkpt>
      <trkpt lat="42.50878144986927509307861328125" lon="19.90844654850661754608154296875">
        <ele>1992.800048828125</ele>
        <time>2026-06-17T10:56:34.000Z</time>
        <extensions>
          <ns3:TrackPointExtension>
            <ns3:atemp>24.0</ns3:atemp>
          </ns3:TrackPointExtension>
        </extensions>
      </trkpt>
      <trkpt lat="42.50879989005625247955322265625" lon="19.9084310419857501983642578125">
        <ele>1993.199951171875</ele>
        <time>2026-06-17T10:56:35.000Z</time>
        <extensions>
          <ns3:TrackPointExtension>
            <ns3:atemp>24.0</ns3:atemp>
          </ns3:TrackPointExtension>
        </extensions>
      </trkpt>
      <trkpt lat="42.50881916843354701995849609375" lon="19.9084226600825786590576171875">
        <ele>1993.5999755859375</ele>
        <time>2026-06-17T10:56:36.000Z</time>
        <extensions>
          <ns3:TrackPointExtension>
            <ns3:atemp>24.0</ns3:atemp>
          </ns3:TrackPointExtension>
        </extensions>
      </trkpt>
      <trkpt lat="42.5088371895253658294677734375" lon="19.908409081399440765380859375">
        <ele>1994</ele>
        <time>2026-06-17T10:56:37.000Z</time>
        <extensions>
          <ns3:TrackPointExtension>
            <ns3:atemp>24.0</ns3:atemp>
          </ns3:TrackPointExtension>
        </extensions>
      </trkpt>
      <trkpt lat="42.50885353423655033111572265625" lon="19.9083973467350006103515625">
        <ele>1994.4000244140625</ele>
        <time>2026-06-17T10:56:38.000Z</time>
        <extensions>
          <ns3:TrackPointExtension>
            <ns3:atemp>24.0</ns3:atemp>
          </ns3:TrackPointExtension>
        </extensions>
      </trkpt>
      <trkpt lat="42.5088690407574176788330078125" lon="19.90838586352765560150146484375">
        <ele>1995</ele>
        <time>2026-06-17T10:56:39.000Z</time>
        <extensions>
          <ns3:TrackPointExtension>
            <ns3:atemp>24.0</ns3:atemp>
          </ns3:TrackPointExtension>
        </extensions>
      </trkpt>
      <trkpt lat="42.50888429582118988037109375" lon="19.90837655961513519287109375">
        <ele>1995.4000244140625</ele>
        <time>2026-06-17T10:56:40.000Z</time>
        <extensions>
          <ns3:TrackPointExtension>
            <ns3:atemp>24.0</ns3:atemp>
          </ns3:TrackPointExtension>
        </extensions>
      </trkpt>
      <trkpt lat="42.50890164636075496673583984375" lon="19.9083653278648853302001953125">
        <ele>1995.800048828125</ele>
        <time>2026-06-17T10:56:41.000Z</time>
        <extensions>
          <ns3:TrackPointExtension>
            <ns3:atemp>24.0</ns3:atemp>
          </ns3:TrackPointExtension>
        </extensions>
      </trkpt>
      <trkpt lat="42.50891388393938541412353515625" lon="19.90835116244852542877197265625">
        <ele>1996</ele>
        <time>2026-06-17T10:56:42.000Z</time>
        <extensions>
          <ns3:TrackPointExtension>
            <ns3:atemp>24.0</ns3:atemp>
          </ns3:TrackPointExtension>
        </extensions>
      </trkpt>
      <trkpt lat="42.50892796553671360015869140625" lon="19.908346720039844512939453125">
        <ele>1996.4000244140625</ele>
        <time>2026-06-17T10:56:43.000Z</time>
        <extensions>
          <ns3:TrackPointExtension>
            <ns3:atemp>24.0</ns3:atemp>
          </ns3:TrackPointExtension>
        </extensions>
      </trkpt>
      <trkpt lat="42.50894657336175441741943359375" lon="19.9083368293941020965576171875">
        <ele>1996.800048828125</ele>
        <time>2026-06-17T10:56:44.000Z</time>
        <extensions>
          <ns3:TrackPointExtension>
            <ns3:atemp>24.0</ns3:atemp>
          </ns3:TrackPointExtension>
        </extensions>
      </trkpt>
      <trkpt lat="42.50896216370165348052978515625" lon="19.90832618437707424163818359375">
        <ele>1997.199951171875</ele>
        <time>2026-06-17T10:56:45.000Z</time>
        <extensions>
          <ns3:TrackPointExtension>
            <ns3:atemp>24.0</ns3:atemp>
          </ns3:TrackPointExtension>
        </extensions>
      </trkpt>
      <trkpt lat="42.50897607766091823577880859375" lon="19.90831847302615642547607421875">
        <ele>1997.4000244140625</ele>
        <time>2026-06-17T10:56:46.000Z</time>
        <extensions>
          <ns3:TrackPointExtension>
            <ns3:atemp>24.0</ns3:atemp>
          </ns3:TrackPointExtension>
        </extensions>
      </trkpt>
      <trkpt lat="42.50898915342986583709716796875" lon="19.90830254741013050079345703125">
        <ele>1997.5999755859375</ele>
        <time>2026-06-17T10:56:47.000Z</time>
        <extensions>
          <ns3:TrackPointExtension>
            <ns3:atemp>24.0</ns3:atemp>
          </ns3:TrackPointExtension>
        </extensions>
      </trkpt>
      <trkpt lat="42.50899502076208591461181640625" lon="19.90828796289861202239990234375">
        <ele>1998</ele>
        <time>2026-06-17T10:56:48.000Z</time>
        <extensions>
          <ns3:TrackPointExtension>
            <ns3:atemp>24.0</ns3:atemp>
          </ns3:TrackPointExtension>
        </extensions>
      </trkpt>
      <trkpt lat="42.50900792889297008514404296875" lon="19.90827991627156734466552734375">
        <ele>1998.199951171875</ele>
        <time>2026-06-17T10:56:49.000Z</time>
        <extensions>
          <ns3:TrackPointExtension>
            <ns3:atemp>24.0</ns3:atemp>
          </ns3:TrackPointExtension>
        </extensions>
      </trkpt>
      <trkpt lat="42.50902167521417140960693359375" lon="19.90827438421547412872314453125">
        <ele>1998.4000244140625</ele>
        <time>2026-06-17T10:56:50.000Z</time>
        <extensions>
          <ns3:TrackPointExtension>
            <ns3:atemp>24.0</ns3:atemp>
          </ns3:TrackPointExtension>
        </extensions>
      </trkpt>
      <trkpt lat="42.50903257168829441070556640625" lon="19.90827891044318675994873046875">
        <ele>1998.5999755859375</ele>
        <time>2026-06-17T10:56:51.000Z</time>
        <extensions>
          <ns3:TrackPointExtension>
            <ns3:atemp>24.0</ns3:atemp>
          </ns3:TrackPointExtension>
        </extensions>
      </trkpt>
      <trkpt lat="42.5090326555073261260986328125" lon="19.9082754738628864288330078125">
        <ele>1998.800048828125</ele>
        <time>2026-06-17T10:56:52.000Z</time>
        <extensions>
          <ns3:TrackPointExtension>
            <ns3:atemp>24.0</ns3:atemp>
          </ns3:TrackPointExtension>
        </extensions>
      </trkpt>
      <trkpt lat="42.5090346671640872955322265625" lon="19.90827689878642559051513671875">
        <ele>1999</ele>
        <time>2026-06-17T10:56:53.000Z</time>
        <extensions>
          <ns3:TrackPointExtension>
            <ns3:atemp>24.0</ns3:atemp>
          </ns3:TrackPointExtension>
        </extensions>
      </trkpt>
      <trkpt lat="42.50903475098311901092529296875" lon="19.908276982605457305908203125">
        <ele>1999.199951171875</ele>
        <time>2026-06-17T10:56:54.000Z</time>
        <extensions>
          <ns3:TrackPointExtension>
            <ns3:atemp>24.0</ns3:atemp>
          </ns3:TrackPointExtension>
        </extensions>
      </trkpt>
      <trkpt lat="42.50903475098311901092529296875" lon="19.908276982605457305908203125">
        <ele>1999.4000244140625</ele>
        <time>2026-06-17T10:56:55.000Z</time>
        <extensions>
          <ns3:TrackPointExtension>
            <ns3:atemp>24.0</ns3:atemp>
          </ns3:TrackPointExtension>
        </extensions>
      </trkpt>
      <trkpt lat="42.50903475098311901092529296875" lon="19.908276982605457305908203125">
        <ele>1999.5999755859375</ele>
        <time>2026-06-17T10:56:56.000Z</time>
        <extensions>
          <ns3:TrackPointExtension>
            <ns3:atemp>24.0</ns3:atemp>
          </ns3:TrackPointExtension>
        </extensions>
      </trkpt>
      <trkpt lat="42.50903475098311901092529296875" lon="19.908276982605457305908203125">
        <ele>1999.5999755859375</ele>
        <time>2026-06-17T10:56:57.000Z</time>
        <extensions>
          <ns3:TrackPointExtension>
            <ns3:atemp>24.0</ns3:atemp>
          </ns3:TrackPointExtension>
        </extensions>
      </trkpt>
      <trkpt lat="42.50903475098311901092529296875" lon="19.908276982605457305908203125">
        <ele>1999.5999755859375</ele>
        <time>2026-06-17T10:56:58.000Z</time>
        <extensions>
          <ns3:TrackPointExtension>
            <ns3:atemp>24.0</ns3:atemp>
          </ns3:TrackPointExtension>
        </extensions>
      </trkpt>
      <trkpt lat="42.50903592444956302642822265625" lon="19.9082778207957744598388671875">
        <ele>1999.5999755859375</ele>
        <time>2026-06-17T10:56:59.000Z</time>
        <extensions>
          <ns3:TrackPointExtension>
            <ns3:atemp>24.0</ns3:atemp>
          </ns3:TrackPointExtension>
        </extensions>
      </trkpt>
      <trkpt lat="42.50906107015907764434814453125" lon="19.90829701535403728485107421875">
        <ele>1999.4000244140625</ele>
        <time>2026-06-17T10:57:00.000Z</time>
        <extensions>
          <ns3:TrackPointExtension>
            <ns3:atemp>24.0</ns3:atemp>
          </ns3:TrackPointExtension>
        </extensions>
      </trkpt>
      <trkpt lat="42.509079761803150177001953125" lon="19.908301122486591339111328125">
        <ele>1999.4000244140625</ele>
        <time>2026-06-17T10:57:01.000Z</time>
        <extensions>
          <ns3:TrackPointExtension>
            <ns3:atemp>24.0</ns3:atemp>
          </ns3:TrackPointExtension>
        </extensions>
      </trkpt>
      <trkpt lat="42.509093843400478363037109375" lon="19.9083096720278263092041015625">
        <ele>1999.199951171875</ele>
        <time>2026-06-17T10:57:02.000Z</time>
        <extensions>
          <ns3:TrackPointExtension>
            <ns3:atemp>24.0</ns3:atemp>
          </ns3:TrackPointExtension>
        </extensions>
      </trkpt>
      <trkpt lat="42.50911270268261432647705078125" lon="19.90831914357841014862060546875">
        <ele>1999</ele>
        <time>2026-06-17T10:57:03.000Z</time>
        <extensions>
          <ns3:TrackPointExtension>
            <ns3:atemp>24.0</ns3:atemp>
          </ns3:TrackPointExtension>
        </extensions>
      </trkpt>
      <trkpt lat="42.50913885422050952911376953125" lon="19.908324591815471649169921875">
        <ele>1998.800048828125</ele>
        <time>2026-06-17T10:57:04.000Z</time>
        <extensions>
          <ns3:TrackPointExtension>
            <ns3:atemp>24.0</ns3:atemp>
          </ns3:TrackPointExtension>
        </extensions>
      </trkpt>
      <trkpt lat="42.50916324555873870849609375" lon="19.90831478498876094818115234375">
        <ele>1998.800048828125</ele>
        <time>2026-06-17T10:57:05.000Z</time>
        <extensions>
          <ns3:TrackPointExtension>
            <ns3:atemp>24.0</ns3:atemp>
          </ns3:TrackPointExtension>
        </extensions>
      </trkpt>
      <trkpt lat="42.509181685745716094970703125" lon="19.90830187685787677764892578125">
        <ele>1998.800048828125</ele>
        <time>2026-06-17T10:57:06.000Z</time>
        <extensions>
          <ns3:TrackPointExtension>
            <ns3:atemp>24.0</ns3:atemp>
          </ns3:TrackPointExtension>
        </extensions>
      </trkpt>
      <trkpt lat="42.50919819809496402740478515625" lon="19.9082955904304981231689453125">
        <ele>1998.800048828125</ele>
        <time>2026-06-17T10:57:07.000Z</time>
        <extensions>
          <ns3:TrackPointExtension>
            <ns3:atemp>24.0</ns3:atemp>
          </ns3:TrackPointExtension>
        </extensions>
      </trkpt>
      <trkpt lat="42.50922024250030517578125" lon="19.90828712470829486846923828125">
        <ele>1998.800048828125</ele>
        <time>2026-06-17T10:57:08.000Z</time>
        <extensions>
          <ns3:TrackPointExtension>
            <ns3:atemp>23.0</ns3:atemp>
          </ns3:TrackPointExtension>
        </extensions>
      </trkpt>
      <trkpt lat="42.50925016589462757110595703125" lon="19.90827857516705989837646484375">
        <ele>1998.800048828125</ele>
        <time>2026-06-17T10:57:09.000Z</time>
        <extensions>
          <ns3:TrackPointExtension>
            <ns3:atemp>23.0</ns3:atemp>
          </ns3:TrackPointExtension>
        </extensions>
      </trkpt>
      <trkpt lat="42.50927665270864963531494140625" lon="19.9082637391984462738037109375">
        <ele>1998.800048828125</ele>
        <time>2026-06-17T10:57:10.000Z</time>
        <extensions>
          <ns3:TrackPointExtension>
            <ns3:atemp>23.0</ns3:atemp>
          </ns3:TrackPointExtension>
        </extensions>
      </trkpt>
      <trkpt lat="42.50930179841816425323486328125" lon="19.9082466401159763336181640625">
        <ele>1998.800048828125</ele>
        <time>2026-06-17T10:57:11.000Z</time>
        <extensions>
          <ns3:TrackPointExtension>
            <ns3:atemp>23.0</ns3:atemp>
          </ns3:TrackPointExtension>
        </extensions>
      </trkpt>
      <trkpt lat="42.5093206577003002166748046875" lon="19.90822928957641124725341796875">
        <ele>1999</ele>
        <time>2026-06-17T10:57:12.000Z</time>
        <extensions>
          <ns3:TrackPointExtension>
            <ns3:atemp>23.0</ns3:atemp>
          </ns3:TrackPointExtension>
        </extensions>
      </trkpt>
      <trkpt lat="42.50933968462049961090087890625" lon="19.90821956656873226165771484375">
        <ele>1999.199951171875</ele>
        <time>2026-06-17T10:57:13.000Z</time>
        <extensions>
          <ns3:TrackPointExtension>
            <ns3:atemp>24.0</ns3:atemp>
          </ns3:TrackPointExtension>
        </extensions>
      </trkpt>
      <trkpt lat="42.50935477204620838165283203125" lon="19.90821219049394130706787109375">
        <ele>1999.4000244140625</ele>
        <time>2026-06-17T10:57:14.000Z</time>
        <extensions>
          <ns3:TrackPointExtension>
            <ns3:atemp>23.0</ns3:atemp>
          </ns3:TrackPointExtension>
        </extensions>
      </trkpt>
      <trkpt lat="42.5093696080148220062255859375" lon="19.908211268484592437744140625">
        <ele>1999.5999755859375</ele>
        <time>2026-06-17T10:57:15.000Z</time>
        <extensions>
          <ns3:TrackPointExtension>
            <ns3:atemp>23.0</ns3:atemp>
          </ns3:TrackPointExtension>
        </extensions>
      </trkpt>
      <trkpt lat="42.5093907304108142852783203125" lon="19.90821294486522674560546875">
        <ele>1999.800048828125</ele>
        <time>2026-06-17T10:57:16.000Z</time>
        <extensions>
          <ns3:TrackPointExtension>
            <ns3:atemp>23.0</ns3:atemp>
          </ns3:TrackPointExtension>
        </extensions>
      </trkpt>
      <trkpt lat="42.5094178877770900726318359375" lon="19.90820799954235553741455078125">
        <ele>2000.199951171875</ele>
        <time>2026-06-17T10:57:17.000Z</time>
        <extensions>
          <ns3:TrackPointExtension>
            <ns3:atemp>23.0</ns3:atemp>
          </ns3:TrackPointExtension>
        </extensions>
      </trkpt>
      <trkpt lat="42.50943942926824092864990234375" lon="19.90820481441915035247802734375">
        <ele>2000.4000244140625</ele>
        <time>2026-06-17T10:57:18.000Z</time>
        <extensions>
          <ns3:TrackPointExtension>
            <ns3:atemp>23.0</ns3:atemp>
          </ns3:TrackPointExtension>
        </extensions>
      </trkpt>
      <trkpt lat="42.5094628147780895233154296875" lon="19.908201880753040313720703125">
        <ele>2000.5999755859375</ele>
        <time>2026-06-17T10:57:19.000Z</time>
        <extensions>
          <ns3:TrackPointExtension>
            <ns3:atemp>23.0</ns3:atemp>
          </ns3:TrackPointExtension>
        </extensions>
      </trkpt>
      <trkpt lat="42.50948083586990833282470703125" lon="19.90819551050662994384765625">
        <ele>2000.5999755859375</ele>
        <time>2026-06-17T10:57:20.000Z</time>
        <extensions>
          <ns3:TrackPointExtension>
            <ns3:atemp>23.0</ns3:atemp>
          </ns3:TrackPointExtension>
        </extensions>
      </trkpt>
      <trkpt lat="42.50949919223785400390625" lon="19.9081827700138092041015625">
        <ele>2000.800048828125</ele>
        <time>2026-06-17T10:57:21.000Z</time>
        <extensions>
          <ns3:TrackPointExtension>
            <ns3:atemp>23.0</ns3:atemp>
          </ns3:TrackPointExtension>
        </extensions>
      </trkpt>
      <trkpt lat="42.509516291320323944091796875" lon="19.9081735499203205108642578125">
        <ele>2001</ele>
        <time>2026-06-17T10:57:22.000Z</time>
        <extensions>
          <ns3:TrackPointExtension>
            <ns3:atemp>23.0</ns3:atemp>
          </ns3:TrackPointExtension>
        </extensions>
      </trkpt>
      <trkpt lat="42.50953062437474727630615234375" lon="19.908171035349369049072265625">
        <ele>2001</ele>
        <time>2026-06-17T10:57:23.000Z</time>
        <extensions>
          <ns3:TrackPointExtension>
            <ns3:atemp>23.0</ns3:atemp>
          </ns3:TrackPointExtension>
        </extensions>
      </trkpt>
      <trkpt lat="42.5095514953136444091796875" lon="19.90815536119043827056884765625">
        <ele>2001.199951171875</ele>
        <time>2026-06-17T10:57:24.000Z</time>
        <extensions>
          <ns3:TrackPointExtension>
            <ns3:atemp>23.0</ns3:atemp>
          </ns3:TrackPointExtension>
        </extensions>
      </trkpt>
      <trkpt lat="42.50957706011831760406494140625" lon="19.90813205949962139129638671875">
        <ele>2001</ele>
        <time>2026-06-17T10:57:25.000Z</time>
        <extensions>
          <ns3:TrackPointExtension>
            <ns3:atemp>23.0</ns3:atemp>
          </ns3:TrackPointExtension>
        </extensions>
      </trkpt>
      <trkpt lat="42.50960354693233966827392578125" lon="19.90808696486055850982666015625">
        <ele>2000.800048828125</ele>
        <time>2026-06-17T10:57:26.000Z</time>
        <extensions>
          <ns3:TrackPointExtension>
            <ns3:atemp>23.0</ns3:atemp>
          </ns3:TrackPointExtension>
        </extensions>
      </trkpt>
      <trkpt lat="42.509634308516979217529296875" lon="19.9080272018909454345703125">
        <ele>2000.4000244140625</ele>
        <time>2026-06-17T10:57:27.000Z</time>
        <extensions>
          <ns3:TrackPointExtension>
            <ns3:atemp>23.0</ns3:atemp>
          </ns3:TrackPointExtension>
        </extensions>
      </trkpt>
      <trkpt lat="42.50966213643550872802734375" lon="19.907950423657894134521484375">
        <ele>1999.800048828125</ele>
        <time>2026-06-17T10:57:28.000Z</time>
        <extensions>
          <ns3:TrackPointExtension>
            <ns3:atemp>23.0</ns3:atemp>
          </ns3:TrackPointExtension>
        </extensions>
      </trkpt>
      <trkpt lat="42.50969566404819488525390625" lon="19.90787624381482601165771484375">
        <ele>1999.199951171875</ele>
        <time>2026-06-17T10:57:29.000Z</time>
        <extensions>
          <ns3:TrackPointExtension>
            <ns3:atemp>23.0</ns3:atemp>
          </ns3:TrackPointExtension>
        </extensions>
      </trkpt>
      <trkpt lat="42.5097434408962726593017578125" lon="19.90783383138477802276611328125">
        <ele>1998.4000244140625</ele>
        <time>2026-06-17T10:57:30.000Z</time>
        <extensions>
          <ns3:TrackPointExtension>
            <ns3:atemp>23.0</ns3:atemp>
          </ns3:TrackPointExtension>
        </extensions>
      </trkpt>
      <trkpt lat="42.50978861935436725616455078125" lon="19.9078087694942951202392578125">
        <ele>1998</ele>
        <time>2026-06-17T10:57:31.000Z</time>
        <extensions>
          <ns3:TrackPointExtension>
            <ns3:atemp>23.0</ns3:atemp>
          </ns3:TrackPointExtension>
        </extensions>
      </trkpt>
      <trkpt lat="42.50982030294835567474365234375" lon="19.90777616389095783233642578125">
        <ele>1997.4000244140625</ele>
        <time>2026-06-17T10:57:32.000Z</time>
        <extensions>
          <ns3:TrackPointExtension>
            <ns3:atemp>23.0</ns3:atemp>
          </ns3:TrackPointExtension>
        </extensions>
      </trkpt>
      <trkpt lat="42.5098497234284877777099609375" lon="19.9077249504625797271728515625">
        <ele>1997</ele>
        <time>2026-06-17T10:57:33.000Z</time>
        <extensions>
          <ns3:TrackPointExtension>
            <ns3:atemp>23.0</ns3:atemp>
          </ns3:TrackPointExtension>
        </extensions>
      </trkpt>
      <trkpt lat="42.50988065265119075775146484375" lon="19.90767591632902622222900390625">
        <ele>1996.800048828125</ele>
        <time>2026-06-17T10:57:34.000Z</time>
        <extensions>
          <ns3:TrackPointExtension>
            <ns3:atemp>23.0</ns3:atemp>
          </ns3:TrackPointExtension>
        </extensions>
      </trkpt>
      <trkpt lat="42.5099174492061138153076171875" lon="19.90765328519046306610107421875">
        <ele>1996.4000244140625</ele>
        <time>2026-06-17T10:57:35.000Z</time>
        <extensions>
          <ns3:TrackPointExtension>
            <ns3:atemp>23.0</ns3:atemp>
          </ns3:TrackPointExtension>
        </extensions>
      </trkpt>
      <trkpt lat="42.50994980335235595703125" lon="19.90763970650732517242431640625">
        <ele>1996.199951171875</ele>
        <time>2026-06-17T10:57:36.000Z</time>
        <extensions>
          <ns3:TrackPointExtension>
            <ns3:atemp>23.0</ns3:atemp>
          </ns3:TrackPointExtension>
        </extensions>
      </trkpt>
      <trkpt lat="42.509970925748348236083984375" lon="19.907615818083286285400390625">
        <ele>1996.199951171875</ele>
        <time>2026-06-17T10:57:37.000Z</time>
        <extensions>
          <ns3:TrackPointExtension>
            <ns3:atemp>23.0</ns3:atemp>
          </ns3:TrackPointExtension>
        </extensions>
      </trkpt>
      <trkpt lat="42.50999012030661106109619140625" lon="19.9075995571911334991455078125">
        <ele>1996.4000244140625</ele>
        <time>2026-06-17T10:57:38.000Z</time>
        <extensions>
          <ns3:TrackPointExtension>
            <ns3:atemp>23.0</ns3:atemp>
          </ns3:TrackPointExtension>
        </extensions>
      </trkpt>
      <trkpt lat="42.51001082360744476318359375" lon="19.90757885389029979705810546875">
        <ele>1996.5999755859375</ele>
        <time>2026-06-17T10:57:39.000Z</time>
        <extensions>
          <ns3:TrackPointExtension>
            <ns3:atemp>23.0</ns3:atemp>
          </ns3:TrackPointExtension>
        </extensions>
      </trkpt>
      <trkpt lat="42.51003001816570758819580078125" lon="19.90755421109497547149658203125">
        <ele>1996.800048828125</ele>
        <time>2026-06-17T10:57:40.000Z</time>
        <extensions>
          <ns3:TrackPointExtension>
            <ns3:atemp>23.0</ns3:atemp>
          </ns3:TrackPointExtension>
        </extensions>
      </trkpt>
      <trkpt lat="42.5100495480000972747802734375" lon="19.90752319805324077606201171875">
        <ele>1996.800048828125</ele>
        <time>2026-06-17T10:57:41.000Z</time>
        <extensions>
          <ns3:TrackPointExtension>
            <ns3:atemp>23.0</ns3:atemp>
          </ns3:TrackPointExtension>
        </extensions>
      </trkpt>
      <trkpt lat="42.5100664794445037841796875" lon="19.9074929393827915191650390625">
        <ele>1997</ele>
        <time>2026-06-17T10:57:42.000Z</time>
        <extensions>
          <ns3:TrackPointExtension>
            <ns3:atemp>23.0</ns3:atemp>
          </ns3:TrackPointExtension>
        </extensions>
      </trkpt>
      <trkpt lat="42.51007477752864360809326171875" lon="19.9074520356953144073486328125">
        <ele>1997</ele>
        <time>2026-06-17T10:57:43.000Z</time>
        <extensions>
          <ns3:TrackPointExtension>
            <ns3:atemp>23.0</ns3:atemp>
          </ns3:TrackPointExtension>
        </extensions>
      </trkpt>
      <trkpt lat="42.51008735038340091705322265625" lon="19.9074124731123447418212890625">
        <ele>1996.800048828125</ele>
        <time>2026-06-17T10:57:44.000Z</time>
        <extensions>
          <ns3:TrackPointExtension>
            <ns3:atemp>23.0</ns3:atemp>
          </ns3:TrackPointExtension>
        </extensions>
      </trkpt>
      <trkpt lat="42.51009531319141387939453125" lon="19.90737265907227993011474609375">
        <ele>1996.800048828125</ele>
        <time>2026-06-17T10:57:45.000Z</time>
        <extensions>
          <ns3:TrackPointExtension>
            <ns3:atemp>23.0</ns3:atemp>
          </ns3:TrackPointExtension>
        </extensions>
      </trkpt>
      <trkpt lat="42.510100342333316802978515625" lon="19.9073299951851367950439453125">
        <ele>1996.5999755859375</ele>
        <time>2026-06-17T10:57:46.000Z</time>
        <extensions>
          <ns3:TrackPointExtension>
            <ns3:atemp>23.0</ns3:atemp>
          </ns3:TrackPointExtension>
        </extensions>
      </trkpt>
      <trkpt lat="42.510107718408107757568359375" lon="19.90727459080517292022705078125">
        <ele>1996.4000244140625</ele>
        <time>2026-06-17T10:57:47.000Z</time>
        <extensions>
          <ns3:TrackPointExtension>
            <ns3:atemp>23.0</ns3:atemp>
          </ns3:TrackPointExtension>
        </extensions>
      </trkpt>
      <trkpt lat="42.51011484302580356597900390625" lon="19.90720887668430805206298828125">
        <ele>1996.199951171875</ele>
        <time>2026-06-17T10:57:48.000Z</time>
        <extensions>
          <ns3:TrackPointExtension>
            <ns3:atemp>23.0</ns3:atemp>
          </ns3:TrackPointExtension>
        </extensions>
      </trkpt>
      <trkpt lat="42.51012993045151233673095703125" lon="19.90714165382087230682373046875">
        <ele>1995.800048828125</ele>
        <time>2026-06-17T10:57:49.000Z</time>
        <extensions>
          <ns3:TrackPointExtension>
            <ns3:atemp>23.0</ns3:atemp>
          </ns3:TrackPointExtension>
        </extensions>
      </trkpt>
      <trkpt lat="42.5101464428007602691650390625" lon="19.907072000205516815185546875">
        <ele>1995.5999755859375</ele>
        <time>2026-06-17T10:57:50.000Z</time>
        <extensions>
          <ns3:TrackPointExtension>
            <ns3:atemp>23.0</ns3:atemp>
          </ns3:TrackPointExtension>
        </extensions>
      </trkpt>
      <trkpt lat="42.51016781665384769439697265625" lon="19.9070101417601108551025390625">
        <ele>1995.199951171875</ele>
        <time>2026-06-17T10:57:51.000Z</time>
        <extensions>
          <ns3:TrackPointExtension>
            <ns3:atemp>23.0</ns3:atemp>
          </ns3:TrackPointExtension>
        </extensions>
      </trkpt>
      <trkpt lat="42.51018960960209369659423828125" lon="19.9069521389901638031005859375">
        <ele>1994.800048828125</ele>
        <time>2026-06-17T10:57:52.000Z</time>
        <extensions>
          <ns3:TrackPointExtension>
            <ns3:atemp>23.0</ns3:atemp>
          </ns3:TrackPointExtension>
        </extensions>
      </trkpt>
      <trkpt lat="42.510209977626800537109375" lon="19.90689975209534168243408203125">
        <ele>1994.800048828125</ele>
        <time>2026-06-17T10:57:53.000Z</time>
        <extensions>
          <ns3:TrackPointExtension>
            <ns3:atemp>23.0</ns3:atemp>
          </ns3:TrackPointExtension>
        </extensions>
      </trkpt>
      <trkpt lat="42.510228417813777923583984375" lon="19.90684828720986843109130859375">
        <ele>1994.5999755859375</ele>
        <time>2026-06-17T10:57:54.000Z</time>
        <extensions>
          <ns3:TrackPointExtension>
            <ns3:atemp>23.0</ns3:atemp>
          </ns3:TrackPointExtension>
        </extensions>
      </trkpt>
      <trkpt lat="42.51023185439407825469970703125" lon="19.90679196082055568695068359375">
        <ele>1994.4000244140625</ele>
        <time>2026-06-17T10:57:55.000Z</time>
        <extensions>
          <ns3:TrackPointExtension>
            <ns3:atemp>23.0</ns3:atemp>
          </ns3:TrackPointExtension>
        </extensions>
      </trkpt>
      <trkpt lat="42.51023453660309314727783203125" lon="19.90673630498349666595458984375">
        <ele>1994.4000244140625</ele>
        <time>2026-06-17T10:57:56.000Z</time>
        <extensions>
          <ns3:TrackPointExtension>
            <ns3:atemp>23.0</ns3:atemp>
          </ns3:TrackPointExtension>
        </extensions>
      </trkpt>
      <trkpt lat="42.5102342851459980010986328125" lon="19.90668408572673797607421875">
        <ele>1994.4000244140625</ele>
        <time>2026-06-17T10:57:57.000Z</time>
        <extensions>
          <ns3:TrackPointExtension>
            <ns3:atemp>23.0</ns3:atemp>
          </ns3:TrackPointExtension>
        </extensions>
      </trkpt>
      <trkpt lat="42.51023738645017147064208984375" lon="19.9066436849534511566162109375">
        <ele>1994.199951171875</ele>
        <time>2026-06-17T10:57:58.000Z</time>
        <extensions>
          <ns3:TrackPointExtension>
            <ns3:atemp>23.0</ns3:atemp>
          </ns3:TrackPointExtension>
        </extensions>
      </trkpt>
      <trkpt lat="42.51024057157337665557861328125" lon="19.9066125042736530303955078125">
        <ele>1994.4000244140625</ele>
        <time>2026-06-17T10:57:59.000Z</time>
        <extensions>
          <ns3:TrackPointExtension>
            <ns3:atemp>23.0</ns3:atemp>
          </ns3:TrackPointExtension>
        </extensions>
      </trkpt>
      <trkpt lat="42.5102446787059307098388671875" lon="19.90659020841121673583984375">
        <ele>1994.5999755859375</ele>
        <time>2026-06-17T10:58:00.000Z</time>
        <extensions>
          <ns3:TrackPointExtension>
            <ns3:atemp>23.0</ns3:atemp>
          </ns3:TrackPointExtension>
        </extensions>
      </trkpt>
      <trkpt lat="42.510246522724628448486328125" lon="19.9065571837127208709716796875">
        <ele>1994.5999755859375</ele>
        <time>2026-06-17T10:58:01.000Z</time>
        <extensions>
          <ns3:TrackPointExtension>
            <ns3:atemp>23.0</ns3:atemp>
          </ns3:TrackPointExtension>
        </extensions>
      </trkpt>
      <trkpt lat="42.5102500431239604949951171875" lon="19.90653396584093570709228515625">
        <ele>1994.800048828125</ele>
        <time>2026-06-17T10:58:02.000Z</time>
        <extensions>
          <ns3:TrackPointExtension>
            <ns3:atemp>23.0</ns3:atemp>
          </ns3:TrackPointExtension>
        </extensions>
      </trkpt>
      <trkpt lat="42.5102544017136096954345703125" lon="19.906510077416896820068359375">
        <ele>1995.199951171875</ele>
        <time>2026-06-17T10:58:03.000Z</time>
        <extensions>
          <ns3:TrackPointExtension>
            <ns3:atemp>23.0</ns3:atemp>
          </ns3:TrackPointExtension>
        </extensions>
      </trkpt>
      <trkpt lat="42.5102649629116058349609375" lon="19.90648065693676471710205078125">
        <ele>1995.4000244140625</ele>
        <time>2026-06-17T10:58:04.000Z</time>
        <extensions>
          <ns3:TrackPointExtension>
            <ns3:atemp>23.0</ns3:atemp>
          </ns3:TrackPointExtension>
        </extensions>
      </trkpt>
      <trkpt lat="42.51027694903314113616943359375" lon="19.9064576067030429840087890625">
        <ele>1995.5999755859375</ele>
        <time>2026-06-17T10:58:05.000Z</time>
        <extensions>
          <ns3:TrackPointExtension>
            <ns3:atemp>23.0</ns3:atemp>
          </ns3:TrackPointExtension>
        </extensions>
      </trkpt>
      <trkpt lat="42.510290443897247314453125" lon="19.90642986260354518890380859375">
        <ele>1995.800048828125</ele>
        <time>2026-06-17T10:58:06.000Z</time>
        <extensions>
          <ns3:TrackPointExtension>
            <ns3:atemp>23.0</ns3:atemp>
          </ns3:TrackPointExtension>
        </extensions>
      </trkpt>
      <trkpt lat="42.5103023461997509002685546875" lon="19.9064026214182376861572265625">
        <ele>1995.800048828125</ele>
        <time>2026-06-17T10:58:07.000Z</time>
        <extensions>
          <ns3:TrackPointExtension>
            <ns3:atemp>23.0</ns3:atemp>
          </ns3:TrackPointExtension>
        </extensions>
      </trkpt>
      <trkpt lat="42.5103132426738739013671875" lon="19.9063695967197418212890625">
        <ele>1995.800048828125</ele>
        <time>2026-06-17T10:58:08.000Z</time>
        <extensions>
          <ns3:TrackPointExtension>
            <ns3:atemp>23.0</ns3:atemp>
          </ns3:TrackPointExtension>
        </extensions>
      </trkpt>
      <trkpt lat="42.510318942368030548095703125" lon="19.9063188023865222930908203125">
        <ele>1995.800048828125</ele>
        <time>2026-06-17T10:58:09.000Z</time>
        <extensions>
          <ns3:TrackPointExtension>
            <ns3:atemp>23.0</ns3:atemp>
          </ns3:TrackPointExtension>
        </extensions>
      </trkpt>
      <trkpt lat="42.5103204511106014251708984375" lon="19.90626356564462184906005859375">
        <ele>1995.5999755859375</ele>
        <time>2026-06-17T10:58:10.000Z</time>
        <extensions>
          <ns3:TrackPointExtension>
            <ns3:atemp>23.0</ns3:atemp>
          </ns3:TrackPointExtension>
        </extensions>
      </trkpt>
      <trkpt lat="42.51033629290759563446044921875" lon="19.906204640865325927734375">
        <ele>1995.199951171875</ele>
        <time>2026-06-17T10:58:11.000Z</time>
        <extensions>
          <ns3:TrackPointExtension>
            <ns3:atemp>23.0</ns3:atemp>
          </ns3:TrackPointExtension>
        </extensions>
      </trkpt>
      <trkpt lat="42.51034886576235294342041015625" lon="19.90613750182092189788818359375">
        <ele>1994.800048828125</ele>
        <time>2026-06-17T10:58:12.000Z</time>
        <extensions>
          <ns3:TrackPointExtension>
            <ns3:atemp>23.0</ns3:atemp>
          </ns3:TrackPointExtension>
        </extensions>
      </trkpt>
      <trkpt lat="42.51035816967487335205078125" lon="19.90607631392776966094970703125">
        <ele>1994.4000244140625</ele>
        <time>2026-06-17T10:58:13.000Z</time>
        <extensions>
          <ns3:TrackPointExtension>
            <ns3:atemp>23.0</ns3:atemp>
          </ns3:TrackPointExtension>
        </extensions>
      </trkpt>
      <trkpt lat="42.51038239337503910064697265625" lon="19.9060224182903766632080078125">
        <ele>1994</ele>
        <time>2026-06-17T10:58:14.000Z</time>
        <extensions>
          <ns3:TrackPointExtension>
            <ns3:atemp>23.0</ns3:atemp>
          </ns3:TrackPointExtension>
        </extensions>
      </trkpt>
      <trkpt lat="42.5104039348661899566650390625" lon="19.9059660919010639190673828125">
        <ele>1993.5999755859375</ele>
        <time>2026-06-17T10:58:15.000Z</time>
        <extensions>
          <ns3:TrackPointExtension>
            <ns3:atemp>23.0</ns3:atemp>
          </ns3:TrackPointExtension>
        </extensions>
      </trkpt>
      <trkpt lat="42.51043553464114665985107421875" lon="19.905924014747142791748046875">
        <ele>1993.199951171875</ele>
        <time>2026-06-17T10:58:16.000Z</time>
        <extensions>
          <ns3:TrackPointExtension>
            <ns3:atemp>23.0</ns3:atemp>
          </ns3:TrackPointExtension>
        </extensions>
      </trkpt>
      <trkpt lat="42.5104622729122638702392578125" lon="19.90588688291609287261962890625">
        <ele>1993</ele>
        <time>2026-06-17T10:58:17.000Z</time>
        <extensions>
          <ns3:TrackPointExtension>
            <ns3:atemp>23.0</ns3:atemp>
          </ns3:TrackPointExtension>
        </extensions>
      </trkpt>
      <trkpt lat="42.51048733480274677276611328125" lon="19.90585302002727985382080078125">
        <ele>1992.800048828125</ele>
        <time>2026-06-17T10:58:18.000Z</time>
        <extensions>
          <ns3:TrackPointExtension>
            <ns3:atemp>23.0</ns3:atemp>
          </ns3:TrackPointExtension>
        </extensions>
      </trkpt>
      <trkpt lat="42.51050661318004131317138671875" lon="19.90583005361258983612060546875">
        <ele>1992.800048828125</ele>
        <time>2026-06-17T10:58:19.000Z</time>
        <extensions>
          <ns3:TrackPointExtension>
            <ns3:atemp>23.0</ns3:atemp>
          </ns3:TrackPointExtension>
        </extensions>
      </trkpt>
      <trkpt lat="42.510525472462177276611328125" lon="19.905813373625278472900390625">
        <ele>1992.800048828125</ele>
        <time>2026-06-17T10:58:20.000Z</time>
        <extensions>
          <ns3:TrackPointExtension>
            <ns3:atemp>23.0</ns3:atemp>
          </ns3:TrackPointExtension>
        </extensions>
      </trkpt>
      <trkpt lat="42.51054584048688411712646484375" lon="19.9057961069047451019287109375">
        <ele>1993</ele>
        <time>2026-06-17T10:58:21.000Z</time>
        <extensions>
          <ns3:TrackPointExtension>
            <ns3:atemp>23.0</ns3:atemp>
          </ns3:TrackPointExtension>
        </extensions>
      </trkpt>
      <trkpt lat="42.51056738197803497314453125" lon="19.9057736434042453765869140625">
        <ele>1993</ele>
        <time>2026-06-17T10:58:22.000Z</time>
        <extensions>
          <ns3:TrackPointExtension>
            <ns3:atemp>23.0</ns3:atemp>
          </ns3:TrackPointExtension>
        </extensions>
      </trkpt>
      <trkpt lat="42.51058674417436122894287109375" lon="19.90574874915182590484619140625">
        <ele>1993</ele>
        <time>2026-06-17T10:58:23.000Z</time>
        <extensions>
          <ns3:TrackPointExtension>
            <ns3:atemp>23.0</ns3:atemp>
          </ns3:TrackPointExtension>
        </extensions>
      </trkpt>
      <trkpt lat="42.51060535199940204620361328125" lon="19.90572745911777019500732421875">
        <ele>1993.199951171875</ele>
        <time>2026-06-17T10:58:24.000Z</time>
        <extensions>
          <ns3:TrackPointExtension>
            <ns3:atemp>23.0</ns3:atemp>
          </ns3:TrackPointExtension>
        </extensions>
      </trkpt>
      <trkpt lat="42.510623373091220855712890625" lon="19.90571002475917339324951171875">
        <ele>1993.199951171875</ele>
        <time>2026-06-17T10:58:25.000Z</time>
        <extensions>
          <ns3:TrackPointExtension>
            <ns3:atemp>23.0</ns3:atemp>
          </ns3:TrackPointExtension>
        </extensions>
      </trkpt>
      <trkpt lat="42.51063887961208820343017578125" lon="19.9056923389434814453125">
        <ele>1993.199951171875</ele>
        <time>2026-06-17T10:58:26.000Z</time>
        <extensions>
          <ns3:TrackPointExtension>
            <ns3:atemp>23.0</ns3:atemp>
          </ns3:TrackPointExtension>
        </extensions>
      </trkpt>
      <trkpt lat="42.51064843498170375823974609375" lon="19.90567297674715518951416015625">
        <ele>1993.4000244140625</ele>
        <time>2026-06-17T10:58:27.000Z</time>
        <extensions>
          <ns3:TrackPointExtension>
            <ns3:atemp>23.0</ns3:atemp>
          </ns3:TrackPointExtension>
        </extensions>
      </trkpt>
      <trkpt lat="42.5106604211032390594482421875" lon="19.9056562967598438262939453125">
        <ele>1993.4000244140625</ele>
        <time>2026-06-17T10:58:28.000Z</time>
        <extensions>
          <ns3:TrackPointExtension>
            <ns3:atemp>23.0</ns3:atemp>
          </ns3:TrackPointExtension>
        </extensions>
      </trkpt>
      <trkpt lat="42.51067525707185268402099609375" lon="19.90564330480992794036865234375">
        <ele>1993.4000244140625</ele>
        <time>2026-06-17T10:58:29.000Z</time>
        <extensions>
          <ns3:TrackPointExtension>
            <ns3:atemp>23.0</ns3:atemp>
          </ns3:TrackPointExtension>
        </extensions>
      </trkpt>
      <trkpt lat="42.510692775249481201171875" lon="19.90562905557453632354736328125">
        <ele>1993.4000244140625</ele>
        <time>2026-06-17T10:58:30.000Z</time>
        <extensions>
          <ns3:TrackPointExtension>
            <ns3:atemp>23.0</ns3:atemp>
          </ns3:TrackPointExtension>
        </extensions>
      </trkpt>
      <trkpt lat="42.510704509913921356201171875" lon="19.9056070111691951751708984375">
        <ele>1993.199951171875</ele>
        <time>2026-06-17T10:58:31.000Z</time>
        <extensions>
          <ns3:TrackPointExtension>
            <ns3:atemp>23.0</ns3:atemp>
          </ns3:TrackPointExtension>
        </extensions>
      </trkpt>
      <trkpt lat="42.51071155071258544921875" lon="19.90558706223964691162109375">
        <ele>1993.199951171875</ele>
        <time>2026-06-17T10:58:32.000Z</time>
        <extensions>
          <ns3:TrackPointExtension>
            <ns3:atemp>23.0</ns3:atemp>
          </ns3:TrackPointExtension>
        </extensions>
      </trkpt>
      <trkpt lat="42.51071649603545665740966796875" lon="19.90556987933814525604248046875">
        <ele>1993.199951171875</ele>
        <time>2026-06-17T10:58:33.000Z</time>
        <extensions>
          <ns3:TrackPointExtension>
            <ns3:atemp>23.0</ns3:atemp>
          </ns3:TrackPointExtension>
        </extensions>
      </trkpt>
      <trkpt lat="42.510727308690547943115234375" lon="19.90556417964398860931396484375">
        <ele>1993.199951171875</ele>
        <time>2026-06-17T10:58:34.000Z</time>
        <extensions>
          <ns3:TrackPointExtension>
            <ns3:atemp>23.0</ns3:atemp>
          </ns3:TrackPointExtension>
        </extensions>
      </trkpt>
      <trkpt lat="42.51074180938303470611572265625" lon="19.9055661074817180633544921875">
        <ele>1993.199951171875</ele>
        <time>2026-06-17T10:58:35.000Z</time>
        <extensions>
          <ns3:TrackPointExtension>
            <ns3:atemp>23.0</ns3:atemp>
          </ns3:TrackPointExtension>
        </extensions>
      </trkpt>
      <trkpt lat="42.51075513660907745361328125" lon="19.90556837059557437896728515625">
        <ele>1993.199951171875</ele>
        <time>2026-06-17T10:58:36.000Z</time>
        <extensions>
          <ns3:TrackPointExtension>
            <ns3:atemp>23.0</ns3:atemp>
          </ns3:TrackPointExtension>
        </extensions>
      </trkpt>
      <trkpt lat="42.510768882930278778076171875" lon="19.9055622518062591552734375">
        <ele>1993</ele>
        <time>2026-06-17T10:58:37.000Z</time>
        <extensions>
          <ns3:TrackPointExtension>
            <ns3:atemp>23.0</ns3:atemp>
          </ns3:TrackPointExtension>
        </extensions>
      </trkpt>
      <trkpt lat="42.51078757457435131072998046875" lon="19.90555353462696075439453125">
        <ele>1993</ele>
        <time>2026-06-17T10:58:38.000Z</time>
        <extensions>
          <ns3:TrackPointExtension>
            <ns3:atemp>23.0</ns3:atemp>
          </ns3:TrackPointExtension>
        </extensions>
      </trkpt>
      <trkpt lat="42.51080936752259731292724609375" lon="19.9055473320186138153076171875">
        <ele>1992.800048828125</ele>
        <time>2026-06-17T10:58:39.000Z</time>
        <extensions>
          <ns3:TrackPointExtension>
            <ns3:atemp>23.0</ns3:atemp>
          </ns3:TrackPointExtension>
        </extensions>
      </trkpt>
      <trkpt lat="42.5108294002711772918701171875" lon="19.9055557139217853546142578125">
        <ele>1992.5999755859375</ele>
        <time>2026-06-17T10:58:40.000Z</time>
        <extensions>
          <ns3:TrackPointExtension>
            <ns3:atemp>23.0</ns3:atemp>
          </ns3:TrackPointExtension>
        </extensions>
      </trkpt>
      <trkpt lat="42.51084591262042522430419921875" lon="19.9055664427578449249267578125">
        <ele>1992.4000244140625</ele>
        <time>2026-06-17T10:58:41.000Z</time>
        <extensions>
          <ns3:TrackPointExtension>
            <ns3:atemp>23.0</ns3:atemp>
          </ns3:TrackPointExtension>
        </extensions>
      </trkpt>
      <trkpt lat="42.51086401753127574920654296875" lon="19.90558303892612457275390625">
        <ele>1992</ele>
        <time>2026-06-17T10:58:42.000Z</time>
        <extensions>
          <ns3:TrackPointExtension>
            <ns3:atemp>23.0</ns3:atemp>
          </ns3:TrackPointExtension>
        </extensions>
      </trkpt>
      <trkpt lat="42.51087994314730167388916015625" lon="19.90558840334415435791015625">
        <ele>1992</ele>
        <time>2026-06-17T10:58:43.000Z</time>
        <extensions>
          <ns3:TrackPointExtension>
            <ns3:atemp>23.0</ns3:atemp>
          </ns3:TrackPointExtension>
        </extensions>
      </trkpt>
      <trkpt lat="42.5108979642391204833984375" lon="19.9055959470570087432861328125">
        <ele>1991.800048828125</ele>
        <time>2026-06-17T10:58:44.000Z</time>
        <extensions>
          <ns3:TrackPointExtension>
            <ns3:atemp>23.0</ns3:atemp>
          </ns3:TrackPointExtension>
        </extensions>
      </trkpt>
      <trkpt lat="42.51092034392058849334716796875" lon="19.9055957794189453125">
        <ele>1991.800048828125</ele>
        <time>2026-06-17T10:58:45.000Z</time>
        <extensions>
          <ns3:TrackPointExtension>
            <ns3:atemp>23.0</ns3:atemp>
          </ns3:TrackPointExtension>
        </extensions>
      </trkpt>
      <trkpt lat="42.51094331033527851104736328125" lon="19.90560038946568965911865234375">
        <ele>1991.800048828125</ele>
        <time>2026-06-17T10:58:46.000Z</time>
        <extensions>
          <ns3:TrackPointExtension>
            <ns3:atemp>23.0</ns3:atemp>
          </ns3:TrackPointExtension>
        </extensions>
      </trkpt>
      <trkpt lat="42.51096300780773162841796875" lon="19.90560625679790973663330078125">
        <ele>1991.800048828125</ele>
        <time>2026-06-17T10:58:47.000Z</time>
        <extensions>
          <ns3:TrackPointExtension>
            <ns3:atemp>23.0</ns3:atemp>
          </ns3:TrackPointExtension>
        </extensions>
      </trkpt>
      <trkpt lat="42.510978095233440399169921875" lon="19.9056103639304637908935546875">
        <ele>1991.800048828125</ele>
        <time>2026-06-17T10:58:48.000Z</time>
        <extensions>
          <ns3:TrackPointExtension>
            <ns3:atemp>23.0</ns3:atemp>
          </ns3:TrackPointExtension>
        </extensions>
      </trkpt>
      <trkpt lat="42.5109960325062274932861328125" lon="19.905615560710430145263671875">
        <ele>1991.800048828125</ele>
        <time>2026-06-17T10:58:49.000Z</time>
        <extensions>
          <ns3:TrackPointExtension>
            <ns3:atemp>23.0</ns3:atemp>
          </ns3:TrackPointExtension>
        </extensions>
      </trkpt>
      <trkpt lat="42.51101623289287090301513671875" lon="19.90563056431710720062255859375">
        <ele>1991.800048828125</ele>
        <time>2026-06-17T10:58:50.000Z</time>
        <extensions>
          <ns3:TrackPointExtension>
            <ns3:atemp>23.0</ns3:atemp>
          </ns3:TrackPointExtension>
        </extensions>
      </trkpt>
      <trkpt lat="42.51103919930756092071533203125" lon="19.90563794039189815521240234375">
        <ele>1991.800048828125</ele>
        <time>2026-06-17T10:58:51.000Z</time>
        <extensions>
          <ns3:TrackPointExtension>
            <ns3:atemp>23.0</ns3:atemp>
          </ns3:TrackPointExtension>
        </extensions>
      </trkpt>
      <trkpt lat="42.51106736250221729278564453125" lon="19.90564070641994476318359375">
        <ele>1991.800048828125</ele>
        <time>2026-06-17T10:58:52.000Z</time>
        <extensions>
          <ns3:TrackPointExtension>
            <ns3:atemp>23.0</ns3:atemp>
          </ns3:TrackPointExtension>
        </extensions>
      </trkpt>
      <trkpt lat="42.51109770499169826507568359375" lon="19.90565386600792407989501953125">
        <ele>1991.800048828125</ele>
        <time>2026-06-17T10:58:53.000Z</time>
        <extensions>
          <ns3:TrackPointExtension>
            <ns3:atemp>23.0</ns3:atemp>
          </ns3:TrackPointExtension>
        </extensions>
      </trkpt>
      <trkpt lat="42.51112469471991062164306640625" lon="19.905665852129459381103515625">
        <ele>1991.800048828125</ele>
        <time>2026-06-17T10:58:54.000Z</time>
        <extensions>
          <ns3:TrackPointExtension>
            <ns3:atemp>23.0</ns3:atemp>
          </ns3:TrackPointExtension>
        </extensions>
      </trkpt>
      <trkpt lat="42.51114397309720516204833984375" lon="19.90567180328071117401123046875">
        <ele>1991.800048828125</ele>
        <time>2026-06-17T10:58:55.000Z</time>
        <extensions>
          <ns3:TrackPointExtension>
            <ns3:atemp>23.0</ns3:atemp>
          </ns3:TrackPointExtension>
        </extensions>
      </trkpt>
      <trkpt lat="42.51115704886615276336669921875" lon="19.90567163564264774322509765625">
        <ele>1991.800048828125</ele>
        <time>2026-06-17T10:58:56.000Z</time>
        <extensions>
          <ns3:TrackPointExtension>
            <ns3:atemp>23.0</ns3:atemp>
          </ns3:TrackPointExtension>
        </extensions>
      </trkpt>
      <trkpt lat="42.5111713819205760955810546875" lon="19.905673563480377197265625">
        <ele>1992</ele>
        <time>2026-06-17T10:58:57.000Z</time>
        <extensions>
          <ns3:TrackPointExtension>
            <ns3:atemp>23.0</ns3:atemp>
          </ns3:TrackPointExtension>
        </extensions>
      </trkpt>
      <trkpt lat="42.51118688844144344329833984375" lon="19.90567532368004322052001953125">
        <ele>1992.199951171875</ele>
        <time>2026-06-17T10:58:58.000Z</time>
        <extensions>
          <ns3:TrackPointExtension>
            <ns3:atemp>23.0</ns3:atemp>
          </ns3:TrackPointExtension>
        </extensions>
      </trkpt>
      <trkpt lat="42.5112092681229114532470703125" lon="19.905684292316436767578125">
        <ele>1992.199951171875</ele>
        <time>2026-06-17T10:58:59.000Z</time>
        <extensions>
          <ns3:TrackPointExtension>
            <ns3:atemp>23.0</ns3:atemp>
          </ns3:TrackPointExtension>
        </extensions>
      </trkpt>
      <trkpt lat="42.51123533584177494049072265625" lon="19.90570063702762126922607421875">
        <ele>1992.4000244140625</ele>
        <time>2026-06-17T10:59:00.000Z</time>
        <extensions>
          <ns3:TrackPointExtension>
            <ns3:atemp>23.0</ns3:atemp>
          </ns3:TrackPointExtension>
        </extensions>
      </trkpt>
      <trkpt lat="42.51125897280871868133544921875" lon="19.90571849048137664794921875">
        <ele>1992.199951171875</ele>
        <time>2026-06-17T10:59:01.000Z</time>
        <extensions>
          <ns3:TrackPointExtension>
            <ns3:atemp>23.0</ns3:atemp>
          </ns3:TrackPointExtension>
        </extensions>
      </trkpt>
      <trkpt lat="42.51128294505178928375244140625" lon="19.9057384394109249114990234375">
        <ele>1992.199951171875</ele>
        <time>2026-06-17T10:59:02.000Z</time>
        <extensions>
          <ns3:TrackPointExtension>
            <ns3:atemp>22.0</ns3:atemp>
          </ns3:TrackPointExtension>
        </extensions>
      </trkpt>
      <trkpt lat="42.51130792312324047088623046875" lon="19.905767105519771575927734375">
        <ele>1992.199951171875</ele>
        <time>2026-06-17T10:59:03.000Z</time>
        <extensions>
          <ns3:TrackPointExtension>
            <ns3:atemp>22.0</ns3:atemp>
          </ns3:TrackPointExtension>
        </extensions>
      </trkpt>
      <trkpt lat="42.51132636331021785736083984375" lon="19.90580054931342601776123046875">
        <ele>1992</ele>
        <time>2026-06-17T10:59:04.000Z</time>
        <extensions>
          <ns3:TrackPointExtension>
            <ns3:atemp>22.0</ns3:atemp>
          </ns3:TrackPointExtension>
        </extensions>
      </trkpt>
      <trkpt lat="42.51134363003075122833251953125" lon="19.90583206526935100555419921875">
        <ele>1992.199951171875</ele>
        <time>2026-06-17T10:59:05.000Z</time>
        <extensions>
          <ns3:TrackPointExtension>
            <ns3:atemp>23.0</ns3:atemp>
          </ns3:TrackPointExtension>
        </extensions>
      </trkpt>
      <trkpt lat="42.51136106438934803009033203125" lon="19.90586123429238796234130859375">
        <ele>1992.199951171875</ele>
        <time>2026-06-17T10:59:06.000Z</time>
        <extensions>
          <ns3:TrackPointExtension>
            <ns3:atemp>23.0</ns3:atemp>
          </ns3:TrackPointExtension>
        </extensions>
      </trkpt>
      <trkpt lat="42.51138805411756038665771484375" lon="19.90589425899088382720947265625">
        <ele>1992.199951171875</ele>
        <time>2026-06-17T10:59:07.000Z</time>
        <extensions>
          <ns3:TrackPointExtension>
            <ns3:atemp>22.0</ns3:atemp>
          </ns3:TrackPointExtension>
        </extensions>
      </trkpt>
      <trkpt lat="42.51141571439802646636962890625" lon="19.90592460148036479949951171875">
        <ele>1992.4000244140625</ele>
        <time>2026-06-17T10:59:08.000Z</time>
        <extensions>
          <ns3:TrackPointExtension>
            <ns3:atemp>23.0</ns3:atemp>
          </ns3:TrackPointExtension>
        </extensions>
      </trkpt>
      <trkpt lat="42.51144002191722393035888671875" lon="19.9059456400573253631591796875">
        <ele>1992.5999755859375</ele>
        <time>2026-06-17T10:59:09.000Z</time>
        <extensions>
          <ns3:TrackPointExtension>
            <ns3:atemp>22.0</ns3:atemp>
          </ns3:TrackPointExtension>
        </extensions>
      </trkpt>
      <trkpt lat="42.51145293004810810089111328125" lon="19.9059697799384593963623046875">
        <ele>1993</ele>
        <time>2026-06-17T10:59:10.000Z</time>
        <extensions>
          <ns3:TrackPointExtension>
            <ns3:atemp>22.0</ns3:atemp>
          </ns3:TrackPointExtension>
        </extensions>
      </trkpt>
      <trkpt lat="42.51146734692156314849853515625" lon="19.90599366836249828338623046875">
        <ele>1993.199951171875</ele>
        <time>2026-06-17T10:59:11.000Z</time>
        <extensions>
          <ns3:TrackPointExtension>
            <ns3:atemp>22.0</ns3:atemp>
          </ns3:TrackPointExtension>
        </extensions>
      </trkpt>
      <trkpt lat="42.511480338871479034423828125" lon="19.9060049839317798614501953125">
        <ele>1993.4000244140625</ele>
        <time>2026-06-17T10:59:12.000Z</time>
        <extensions>
          <ns3:TrackPointExtension>
            <ns3:atemp>22.0</ns3:atemp>
          </ns3:TrackPointExtension>
        </extensions>
      </trkpt>
      <trkpt lat="42.51149810850620269775390625" lon="19.90601143799722194671630859375">
        <ele>1993.800048828125</ele>
        <time>2026-06-17T10:59:13.000Z</time>
        <extensions>
          <ns3:TrackPointExtension>
            <ns3:atemp>22.0</ns3:atemp>
          </ns3:TrackPointExtension>
        </extensions>
      </trkpt>
      <trkpt lat="42.5115167163312435150146484375" lon="19.906027950346469879150390625">
        <ele>1993.800048828125</ele>
        <time>2026-06-17T10:59:14.000Z</time>
        <extensions>
          <ns3:TrackPointExtension>
            <ns3:atemp>22.0</ns3:atemp>
          </ns3:TrackPointExtension>
        </extensions>
      </trkpt>
      <trkpt lat="42.51152551732957363128662109375" lon="19.9060458876192569732666015625">
        <ele>1994</ele>
        <time>2026-06-17T10:59:15.000Z</time>
        <extensions>
          <ns3:TrackPointExtension>
            <ns3:atemp>22.0</ns3:atemp>
          </ns3:TrackPointExtension>
        </extensions>
      </trkpt>
      <trkpt lat="42.51153926365077495574951171875" lon="19.90606223233044147491455078125">
        <ele>1994</ele>
        <time>2026-06-17T10:59:16.000Z</time>
        <extensions>
          <ns3:TrackPointExtension>
            <ns3:atemp>22.0</ns3:atemp>
          </ns3:TrackPointExtension>
        </extensions>
      </trkpt>
      <trkpt lat="42.511558793485164642333984375" lon="19.9060753919184207916259765625">
        <ele>1994</ele>
        <time>2026-06-17T10:59:17.000Z</time>
        <extensions>
          <ns3:TrackPointExtension>
            <ns3:atemp>22.0</ns3:atemp>
          </ns3:TrackPointExtension>
        </extensions>
      </trkpt>
      <trkpt lat="42.5115827657282352447509765625" lon="19.90608486346900463104248046875">
        <ele>1994</ele>
        <time>2026-06-17T10:59:18.000Z</time>
        <extensions>
          <ns3:TrackPointExtension>
            <ns3:atemp>22.0</ns3:atemp>
          </ns3:TrackPointExtension>
        </extensions>
      </trkpt>
      <trkpt lat="42.51160397194325923919677734375" lon="19.90607866086065769195556640625">
        <ele>1994</ele>
        <time>2026-06-17T10:59:19.000Z</time>
        <extensions>
          <ns3:TrackPointExtension>
            <ns3:atemp>22.0</ns3:atemp>
          </ns3:TrackPointExtension>
        </extensions>
      </trkpt>
      <trkpt lat="42.51162350177764892578125" lon="19.90607195533812046051025390625">
        <ele>1994</ele>
        <time>2026-06-17T10:59:20.000Z</time>
        <extensions>
          <ns3:TrackPointExtension>
            <ns3:atemp>22.0</ns3:atemp>
          </ns3:TrackPointExtension>
        </extensions>
      </trkpt>
      <trkpt lat="42.51164437271654605865478515625" lon="19.90607564337551593780517578125">
        <ele>1994</ele>
        <time>2026-06-17T10:59:21.000Z</time>
        <extensions>
          <ns3:TrackPointExtension>
            <ns3:atemp>22.0</ns3:atemp>
          </ns3:TrackPointExtension>
        </extensions>
      </trkpt>
      <trkpt lat="42.51166365109384059906005859375" lon="19.90607262589037418365478515625">
        <ele>1994.199951171875</ele>
        <time>2026-06-17T10:59:22.000Z</time>
        <extensions>
          <ns3:TrackPointExtension>
            <ns3:atemp>22.0</ns3:atemp>
          </ns3:TrackPointExtension>
        </extensions>
      </trkpt>
      <trkpt lat="42.51168510876595973968505859375" lon="19.90607312880456447601318359375">
        <ele>1994.199951171875</ele>
        <time>2026-06-17T10:59:23.000Z</time>
        <extensions>
          <ns3:TrackPointExtension>
            <ns3:atemp>22.0</ns3:atemp>
          </ns3:TrackPointExtension>
        </extensions>
      </trkpt>
      <trkpt lat="42.51170463860034942626953125" lon="19.9060690216720104217529296875">
        <ele>1994.4000244140625</ele>
        <time>2026-06-17T10:59:24.000Z</time>
        <extensions>
          <ns3:TrackPointExtension>
            <ns3:atemp>22.0</ns3:atemp>
          </ns3:TrackPointExtension>
        </extensions>
      </trkpt>
      <trkpt lat="42.51172115094959735870361328125" lon="19.90606575272977352142333984375">
        <ele>1994.4000244140625</ele>
        <time>2026-06-17T10:59:25.000Z</time>
        <extensions>
          <ns3:TrackPointExtension>
            <ns3:atemp>22.0</ns3:atemp>
          </ns3:TrackPointExtension>
        </extensions>
      </trkpt>
      <trkpt lat="42.51173456199467182159423828125" lon="19.90606960840523242950439453125">
        <ele>1994.5999755859375</ele>
        <time>2026-06-17T10:59:26.000Z</time>
        <extensions>
          <ns3:TrackPointExtension>
            <ns3:atemp>22.0</ns3:atemp>
          </ns3:TrackPointExtension>
        </extensions>
      </trkpt>
      <trkpt lat="42.5117482244968414306640625" lon="19.9060750566422939300537109375">
        <ele>1994.5999755859375</ele>
        <time>2026-06-17T10:59:27.000Z</time>
        <extensions>
          <ns3:TrackPointExtension>
            <ns3:atemp>22.0</ns3:atemp>
          </ns3:TrackPointExtension>
        </extensions>
      </trkpt>
      <trkpt lat="42.511760629713535308837890625" lon="19.9060817621648311614990234375">
        <ele>1994.800048828125</ele>
        <time>2026-06-17T10:59:28.000Z</time>
        <extensions>
          <ns3:TrackPointExtension>
            <ns3:atemp>22.0</ns3:atemp>
          </ns3:TrackPointExtension>
        </extensions>
      </trkpt>
      <trkpt lat="42.5117701850831508636474609375" lon="19.9060877971351146697998046875">
        <ele>1995</ele>
        <time>2026-06-17T10:59:29.000Z</time>
        <extensions>
          <ns3:TrackPointExtension>
            <ns3:atemp>22.0</ns3:atemp>
          </ns3:TrackPointExtension>
        </extensions>
      </trkpt>
      <trkpt lat="42.51177647151052951812744140625" lon="19.90609374828636646270751953125">
        <ele>1995.199951171875</ele>
        <time>2026-06-17T10:59:30.000Z</time>
        <extensions>
          <ns3:TrackPointExtension>
            <ns3:atemp>22.0</ns3:atemp>
          </ns3:TrackPointExtension>
        </extensions>
      </trkpt>
      <trkpt lat="42.51177814789116382598876953125" lon="19.90609978325664997100830078125">
        <ele>1995.4000244140625</ele>
        <time>2026-06-17T10:59:31.000Z</time>
        <extensions>
          <ns3:TrackPointExtension>
            <ns3:atemp>22.0</ns3:atemp>
          </ns3:TrackPointExtension>
        </extensions>
      </trkpt>
      <trkpt lat="42.51178367994725704193115234375" lon="19.90610900335013866424560546875">
        <ele>1995.5999755859375</ele>
        <time>2026-06-17T10:59:32.000Z</time>
        <extensions>
          <ns3:TrackPointExtension>
            <ns3:atemp>22.0</ns3:atemp>
          </ns3:TrackPointExtension>
        </extensions>
      </trkpt>
      <trkpt lat="42.51179449260234832763671875" lon="19.906115122139453887939453125">
        <ele>1995.800048828125</ele>
        <time>2026-06-17T10:59:33.000Z</time>
        <extensions>
          <ns3:TrackPointExtension>
            <ns3:atemp>22.0</ns3:atemp>
          </ns3:TrackPointExtension>
        </extensions>
      </trkpt>
      <trkpt lat="42.51181251369416713714599609375" lon="19.90611135028302669525146484375">
        <ele>1995.800048828125</ele>
        <time>2026-06-17T10:59:34.000Z</time>
        <extensions>
          <ns3:TrackPointExtension>
            <ns3:atemp>22.0</ns3:atemp>
          </ns3:TrackPointExtension>
        </extensions>
      </trkpt>
      <trkpt lat="42.5118248350918292999267578125" lon="19.906111769378185272216796875">
        <ele>1995.800048828125</ele>
        <time>2026-06-17T10:59:35.000Z</time>
        <extensions>
          <ns3:TrackPointExtension>
            <ns3:atemp>22.0</ns3:atemp>
          </ns3:TrackPointExtension>
        </extensions>
      </trkpt>
      <trkpt lat="42.51184017397463321685791015625" lon="19.906107075512409210205078125">
        <ele>1995.5999755859375</ele>
        <time>2026-06-17T10:59:36.000Z</time>
        <extensions>
          <ns3:TrackPointExtension>
            <ns3:atemp>22.0</ns3:atemp>
          </ns3:TrackPointExtension>
        </extensions>
      </trkpt>
      <trkpt lat="42.5118528306484222412109375" lon="19.90609894506633281707763671875">
        <ele>1995.5999755859375</ele>
        <time>2026-06-17T10:59:37.000Z</time>
        <extensions>
          <ns3:TrackPointExtension>
            <ns3:atemp>22.0</ns3:atemp>
          </ns3:TrackPointExtension>
        </extensions>
      </trkpt>
      <trkpt lat="42.51186783425509929656982421875" lon="19.9060914851725101470947265625">
        <ele>1995.4000244140625</ele>
        <time>2026-06-17T10:59:38.000Z</time>
        <extensions>
          <ns3:TrackPointExtension>
            <ns3:atemp>22.0</ns3:atemp>
          </ns3:TrackPointExtension>
        </extensions>
      </trkpt>
      <trkpt lat="42.51188895665109157562255859375" lon="19.9060871265828609466552734375">
        <ele>1995.4000244140625</ele>
        <time>2026-06-17T10:59:39.000Z</time>
        <extensions>
          <ns3:TrackPointExtension>
            <ns3:atemp>22.0</ns3:atemp>
          </ns3:TrackPointExtension>
        </extensions>
      </trkpt>
      <trkpt lat="42.51191007904708385467529296875" lon="19.90608553402125835418701171875">
        <ele>1995.4000244140625</ele>
        <time>2026-06-17T10:59:40.000Z</time>
        <extensions>
          <ns3:TrackPointExtension>
            <ns3:atemp>22.0</ns3:atemp>
          </ns3:TrackPointExtension>
        </extensions>
      </trkpt>
      <trkpt lat="42.5119267590343952178955078125" lon="19.90607924759387969970703125">
        <ele>1995.4000244140625</ele>
        <time>2026-06-17T10:59:41.000Z</time>
        <extensions>
          <ns3:TrackPointExtension>
            <ns3:atemp>22.0</ns3:atemp>
          </ns3:TrackPointExtension>
        </extensions>
      </trkpt>
      <trkpt lat="42.51194243319332599639892578125" lon="19.906071536242961883544921875">
        <ele>1995.4000244140625</ele>
        <time>2026-06-17T10:59:42.000Z</time>
        <extensions>
          <ns3:TrackPointExtension>
            <ns3:atemp>22.0</ns3:atemp>
          </ns3:TrackPointExtension>
        </extensions>
      </trkpt>
      <trkpt lat="42.5119619630277156829833984375" lon="19.9060636572539806365966796875">
        <ele>1995.4000244140625</ele>
        <time>2026-06-17T10:59:43.000Z</time>
        <extensions>
          <ns3:TrackPointExtension>
            <ns3:atemp>22.0</ns3:atemp>
          </ns3:TrackPointExtension>
        </extensions>
      </trkpt>
      <trkpt lat="42.5119757093489170074462890625" lon="19.9060542695224285125732421875">
        <ele>1995.5999755859375</ele>
        <time>2026-06-17T10:59:44.000Z</time>
        <extensions>
          <ns3:TrackPointExtension>
            <ns3:atemp>22.0</ns3:atemp>
          </ns3:TrackPointExtension>
        </extensions>
      </trkpt>
      <trkpt lat="42.51198618672788143157958984375" lon="19.906040690839290618896484375">
        <ele>1995.5999755859375</ele>
        <time>2026-06-17T10:59:45.000Z</time>
        <extensions>
          <ns3:TrackPointExtension>
            <ns3:atemp>22.0</ns3:atemp>
          </ns3:TrackPointExtension>
        </extensions>
      </trkpt>
      <trkpt lat="42.51200010068714618682861328125" lon="19.9060344882309436798095703125">
        <ele>1995.800048828125</ele>
        <time>2026-06-17T10:59:46.000Z</time>
        <extensions>
          <ns3:TrackPointExtension>
            <ns3:atemp>22.0</ns3:atemp>
          </ns3:TrackPointExtension>
        </extensions>
      </trkpt>
      <trkpt lat="42.512016780674457550048828125" lon="19.90602484904229640960693359375">
        <ele>1995.800048828125</ele>
        <time>2026-06-17T10:59:47.000Z</time>
        <extensions>
          <ns3:TrackPointExtension>
            <ns3:atemp>22.0</ns3:atemp>
          </ns3:TrackPointExtension>
        </extensions>
      </trkpt>
      <trkpt lat="42.5120343826711177825927734375" lon="19.90601948462426662445068359375">
        <ele>1996</ele>
        <time>2026-06-17T10:59:48.000Z</time>
        <extensions>
          <ns3:TrackPointExtension>
            <ns3:atemp>22.0</ns3:atemp>
          </ns3:TrackPointExtension>
        </extensions>
      </trkpt>
      <trkpt lat="42.512049973011016845703125" lon="19.9060170538723468780517578125">
        <ele>1996</ele>
        <time>2026-06-17T10:59:49.000Z</time>
        <extensions>
          <ns3:TrackPointExtension>
            <ns3:atemp>22.0</ns3:atemp>
          </ns3:TrackPointExtension>
        </extensions>
      </trkpt>
      <trkpt lat="42.51206665299832820892333984375" lon="19.90601462312042713165283203125">
        <ele>1996</ele>
        <time>2026-06-17T10:59:50.000Z</time>
        <extensions>
          <ns3:TrackPointExtension>
            <ns3:atemp>22.0</ns3:atemp>
          </ns3:TrackPointExtension>
        </extensions>
      </trkpt>
      <trkpt lat="42.512089200317859649658203125" lon="19.906011186540126800537109375">
        <ele>1996</ele>
        <time>2026-06-17T10:59:51.000Z</time>
        <extensions>
          <ns3:TrackPointExtension>
            <ns3:atemp>22.0</ns3:atemp>
          </ns3:TrackPointExtension>
        </extensions>
      </trkpt>
      <trkpt lat="42.51211367547512054443359375" lon="19.906006492674350738525390625">
        <ele>1996</ele>
        <time>2026-06-17T10:59:52.000Z</time>
        <extensions>
          <ns3:TrackPointExtension>
            <ns3:atemp>22.0</ns3:atemp>
          </ns3:TrackPointExtension>
        </extensions>
      </trkpt>
      <trkpt lat="42.51213555224239826202392578125" lon="19.9060006253421306610107421875">
        <ele>1996</ele>
        <time>2026-06-17T10:59:53.000Z</time>
        <extensions>
          <ns3:TrackPointExtension>
            <ns3:atemp>22.0</ns3:atemp>
          </ns3:TrackPointExtension>
        </extensions>
      </trkpt>
      <trkpt lat="42.512150891125202178955078125" lon="19.9059966020286083221435546875">
        <ele>1996.199951171875</ele>
        <time>2026-06-17T10:59:54.000Z</time>
        <extensions>
          <ns3:TrackPointExtension>
            <ns3:atemp>22.0</ns3:atemp>
          </ns3:TrackPointExtension>
        </extensions>
      </trkpt>
      <trkpt lat="42.51216941513121128082275390625" lon="19.9059912376105785369873046875">
        <ele>1996.4000244140625</ele>
        <time>2026-06-17T10:59:55.000Z</time>
        <extensions>
          <ns3:TrackPointExtension>
            <ns3:atemp>22.0</ns3:atemp>
          </ns3:TrackPointExtension>
        </extensions>
      </trkpt>
      <trkpt lat="42.5121852569282054901123046875" lon="19.9059895612299442291259765625">
        <ele>1996.4000244140625</ele>
        <time>2026-06-17T10:59:56.000Z</time>
        <extensions>
          <ns3:TrackPointExtension>
            <ns3:atemp>22.0</ns3:atemp>
          </ns3:TrackPointExtension>
        </extensions>
      </trkpt>
      <trkpt lat="42.5122020207345485687255859375" lon="19.905985035002231597900390625">
        <ele>1996.5999755859375</ele>
        <time>2026-06-17T10:59:57.000Z</time>
        <extensions>
          <ns3:TrackPointExtension>
            <ns3:atemp>22.0</ns3:atemp>
          </ns3:TrackPointExtension>
        </extensions>
      </trkpt>
      <trkpt lat="42.51221962273120880126953125" lon="19.90597598254680633544921875">
        <ele>1996.800048828125</ele>
        <time>2026-06-17T10:59:58.000Z</time>
        <extensions>
          <ns3:TrackPointExtension>
            <ns3:atemp>22.0</ns3:atemp>
          </ns3:TrackPointExtension>
        </extensions>
      </trkpt>
      <trkpt lat="42.5122378952801227569580078125" lon="19.9059674330055713653564453125">
        <ele>1997</ele>
        <time>2026-06-17T10:59:59.000Z</time>
        <extensions>
          <ns3:TrackPointExtension>
            <ns3:atemp>22.0</ns3:atemp>
          </ns3:TrackPointExtension>
        </extensions>
      </trkpt>
      <trkpt lat="42.51225474290549755096435546875" lon="19.90596449933946132659912109375">
        <ele>1997.199951171875</ele>
        <time>2026-06-17T11:00:00.000Z</time>
        <extensions>
          <ns3:TrackPointExtension>
            <ns3:atemp>22.0</ns3:atemp>
          </ns3:TrackPointExtension>
        </extensions>
      </trkpt>
      <trkpt lat="42.5122717581689357757568359375" lon="19.905967600643634796142578125">
        <ele>1997.4000244140625</ele>
        <time>2026-06-17T11:00:01.000Z</time>
        <extensions>
          <ns3:TrackPointExtension>
            <ns3:atemp>22.0</ns3:atemp>
          </ns3:TrackPointExtension>
        </extensions>
      </trkpt>
      <trkpt lat="42.51228977926075458526611328125" lon="19.905967600643634796142578125">
        <ele>1997.5999755859375</ele>
        <time>2026-06-17T11:00:02.000Z</time>
        <extensions>
          <ns3:TrackPointExtension>
            <ns3:atemp>22.0</ns3:atemp>
          </ns3:TrackPointExtension>
        </extensions>
      </trkpt>
      <trkpt lat="42.51230687834322452545166015625" lon="19.9059645831584930419921875">
        <ele>1997.800048828125</ele>
        <time>2026-06-17T11:00:03.000Z</time>
        <extensions>
          <ns3:TrackPointExtension>
            <ns3:atemp>22.0</ns3:atemp>
          </ns3:TrackPointExtension>
        </extensions>
      </trkpt>
      <trkpt lat="42.5123243965208530426025390625" lon="19.90596215240657329559326171875">
        <ele>1998</ele>
        <time>2026-06-17T11:00:04.000Z</time>
        <extensions>
          <ns3:TrackPointExtension>
            <ns3:atemp>22.0</ns3:atemp>
          </ns3:TrackPointExtension>
        </extensions>
      </trkpt>
      <trkpt lat="42.51234375871717929840087890625" lon="19.90595511160790920257568359375">
        <ele>1998</ele>
        <time>2026-06-17T11:00:05.000Z</time>
        <extensions>
          <ns3:TrackPointExtension>
            <ns3:atemp>22.0</ns3:atemp>
          </ns3:TrackPointExtension>
        </extensions>
      </trkpt>
      <trkpt lat="42.51236203126609325408935546875" lon="19.90594907663762569427490234375">
        <ele>1998.199951171875</ele>
        <time>2026-06-17T11:00:06.000Z</time>
        <extensions>
          <ns3:TrackPointExtension>
            <ns3:atemp>22.0</ns3:atemp>
          </ns3:TrackPointExtension>
        </extensions>
      </trkpt>
      <trkpt lat="42.512378878891468048095703125" lon="19.905948154628276824951171875">
        <ele>1998.199951171875</ele>
        <time>2026-06-17T11:00:07.000Z</time>
        <extensions>
          <ns3:TrackPointExtension>
            <ns3:atemp>22.0</ns3:atemp>
          </ns3:TrackPointExtension>
        </extensions>
      </trkpt>
      <trkpt lat="42.51239597797393798828125" lon="19.9059449695050716400146484375">
        <ele>1998.4000244140625</ele>
        <time>2026-06-17T11:00:08.000Z</time>
        <extensions>
          <ns3:TrackPointExtension>
            <ns3:atemp>22.0</ns3:atemp>
          </ns3:TrackPointExtension>
        </extensions>
      </trkpt>
      <trkpt lat="42.512413077056407928466796875" lon="19.90594387985765933990478515625">
        <ele>1998.5999755859375</ele>
        <time>2026-06-17T11:00:09.000Z</time>
        <extensions>
          <ns3:TrackPointExtension>
            <ns3:atemp>22.0</ns3:atemp>
          </ns3:TrackPointExtension>
        </extensions>
      </trkpt>
      <trkpt lat="42.51243151724338531494140625" lon="19.90594555623829364776611328125">
        <ele>1998.5999755859375</ele>
        <time>2026-06-17T11:00:10.000Z</time>
        <extensions>
          <ns3:TrackPointExtension>
            <ns3:atemp>22.0</ns3:atemp>
          </ns3:TrackPointExtension>
        </extensions>
      </trkpt>
      <trkpt lat="42.51244702376425266265869140625" lon="19.90594689734280109405517578125">
        <ele>1998.800048828125</ele>
        <time>2026-06-17T11:00:11.000Z</time>
        <extensions>
          <ns3:TrackPointExtension>
            <ns3:atemp>22.0</ns3:atemp>
          </ns3:TrackPointExtension>
        </extensions>
      </trkpt>
      <trkpt lat="42.512453980743885040283203125" lon="19.9059439636766910552978515625">
        <ele>1999</ele>
        <time>2026-06-17T11:00:12.000Z</time>
        <extensions>
          <ns3:TrackPointExtension>
            <ns3:atemp>22.0</ns3:atemp>
          </ns3:TrackPointExtension>
        </extensions>
      </trkpt>
      <trkpt lat="42.5124611891806125640869140625" lon="19.90594823844730854034423828125">
        <ele>1999.199951171875</ele>
        <time>2026-06-17T11:00:13.000Z</time>
        <extensions>
          <ns3:TrackPointExtension>
            <ns3:atemp>22.0</ns3:atemp>
          </ns3:TrackPointExtension>
        </extensions>
      </trkpt>
      <trkpt lat="42.51246931962668895721435546875" lon="19.90595712326467037200927734375">
        <ele>1999.4000244140625</ele>
        <time>2026-06-17T11:00:14.000Z</time>
        <extensions>
          <ns3:TrackPointExtension>
            <ns3:atemp>22.0</ns3:atemp>
          </ns3:TrackPointExtension>
        </extensions>
      </trkpt>
      <trkpt lat="42.51247418113052845001220703125" lon="19.9059647507965564727783203125">
        <ele>1999.5999755859375</ele>
        <time>2026-06-17T11:00:15.000Z</time>
        <extensions>
          <ns3:TrackPointExtension>
            <ns3:atemp>22.0</ns3:atemp>
          </ns3:TrackPointExtension>
        </extensions>
      </trkpt>
      <trkpt lat="42.51247669570147991180419921875" lon="19.9059667624533176422119140625">
        <ele>1999.5999755859375</ele>
        <time>2026-06-17T11:00:16.000Z</time>
        <extensions>
          <ns3:TrackPointExtension>
            <ns3:atemp>22.0</ns3:atemp>
          </ns3:TrackPointExtension>
        </extensions>
      </trkpt>
      <trkpt lat="42.51248155720531940460205078125" lon="19.9059681035578250885009765625">
        <ele>1999.800048828125</ele>
        <time>2026-06-17T11:00:17.000Z</time>
        <extensions>
          <ns3:TrackPointExtension>
            <ns3:atemp>22.0</ns3:atemp>
          </ns3:TrackPointExtension>
        </extensions>
      </trkpt>
      <trkpt lat="42.5124866701662540435791015625" lon="19.90597221069037914276123046875">
        <ele>2000</ele>
        <time>2026-06-17T11:00:18.000Z</time>
        <extensions>
          <ns3:TrackPointExtension>
            <ns3:atemp>22.0</ns3:atemp>
          </ns3:TrackPointExtension>
        </extensions>
      </trkpt>
      <trkpt lat="42.51249262131750583648681640625" lon="19.90597606636583805084228515625">
        <ele>2000</ele>
        <time>2026-06-17T11:00:19.000Z</time>
        <extensions>
          <ns3:TrackPointExtension>
            <ns3:atemp>22.0</ns3:atemp>
          </ns3:TrackPointExtension>
        </extensions>
      </trkpt>
      <trkpt lat="42.51249547116458415985107421875" lon="19.90597573108971118927001953125">
        <ele>2000.199951171875</ele>
        <time>2026-06-17T11:00:20.000Z</time>
        <extensions>
          <ns3:TrackPointExtension>
            <ns3:atemp>22.0</ns3:atemp>
          </ns3:TrackPointExtension>
        </extensions>
      </trkpt>
      <trkpt lat="42.5124987401068210601806640625" lon="19.9059828557074069976806640625">
        <ele>2000.199951171875</ele>
        <time>2026-06-17T11:00:21.000Z</time>
        <extensions>
          <ns3:TrackPointExtension>
            <ns3:atemp>22.0</ns3:atemp>
          </ns3:TrackPointExtension>
        </extensions>
      </trkpt>
      <trkpt lat="42.51250385306775569915771484375" lon="19.905985035002231597900390625">
        <ele>2000.199951171875</ele>
        <time>2026-06-17T11:00:22.000Z</time>
        <extensions>
          <ns3:TrackPointExtension>
            <ns3:atemp>22.0</ns3:atemp>
          </ns3:TrackPointExtension>
        </extensions>
      </trkpt>
      <trkpt lat="42.51250653527677059173583984375" lon="19.90598461590707302093505859375">
        <ele>2000.4000244140625</ele>
        <time>2026-06-17T11:00:23.000Z</time>
        <extensions>
          <ns3:TrackPointExtension>
            <ns3:atemp>22.0</ns3:atemp>
          </ns3:TrackPointExtension>
        </extensions>
      </trkpt>
      <trkpt lat="42.5125072896480560302734375" lon="19.90598126314580440521240234375">
        <ele>2000.5999755859375</ele>
        <time>2026-06-17T11:00:24.000Z</time>
        <extensions>
          <ns3:TrackPointExtension>
            <ns3:atemp>22.0</ns3:atemp>
          </ns3:TrackPointExtension>
        </extensions>
      </trkpt>
      <trkpt lat="42.5125074572861194610595703125" lon="19.90598126314580440521240234375">
        <ele>2000.5999755859375</ele>
        <time>2026-06-17T11:00:25.000Z</time>
        <extensions>
          <ns3:TrackPointExtension>
            <ns3:atemp>22.0</ns3:atemp>
          </ns3:TrackPointExtension>
        </extensions>
      </trkpt>
      <trkpt lat="42.5125074572861194610595703125" lon="19.90598126314580440521240234375">
        <ele>2000.5999755859375</ele>
        <time>2026-06-17T11:00:26.000Z</time>
        <extensions>
          <ns3:TrackPointExtension>
            <ns3:atemp>22.0</ns3:atemp>
          </ns3:TrackPointExtension>
        </extensions>
      </trkpt>
      <trkpt lat="42.5125077925622463226318359375" lon="19.90598143078386783599853515625">
        <ele>2000.5999755859375</ele>
        <time>2026-06-17T11:00:27.000Z</time>
        <extensions>
          <ns3:TrackPointExtension>
            <ns3:atemp>22.0</ns3:atemp>
          </ns3:TrackPointExtension>
        </extensions>
      </trkpt>
      <trkpt lat="42.512516677379608154296875" lon="19.90598461590707302093505859375">
        <ele>2000.5999755859375</ele>
        <time>2026-06-17T11:00:28.000Z</time>
        <extensions>
          <ns3:TrackPointExtension>
            <ns3:atemp>22.0</ns3:atemp>
          </ns3:TrackPointExtension>
        </extensions>
      </trkpt>
      <trkpt lat="42.5125074572861194610595703125" lon="19.90598126314580440521240234375">
        <ele>2000.5999755859375</ele>
        <time>2026-06-17T11:00:29.000Z</time>
        <extensions>
          <ns3:TrackPointExtension>
            <ns3:atemp>22.0</ns3:atemp>
          </ns3:TrackPointExtension>
        </extensions>
      </trkpt>
      <trkpt lat="42.5125171802937984466552734375" lon="19.90598612464964389801025390625">
        <ele>2000.5999755859375</ele>
        <time>2026-06-17T11:00:30.000Z</time>
        <extensions>
          <ns3:TrackPointExtension>
            <ns3:atemp>22.0</ns3:atemp>
          </ns3:TrackPointExtension>
        </extensions>
      </trkpt>
      <trkpt lat="42.51252480782568454742431640625" lon="19.90599551238119602203369140625">
        <ele>2000.5999755859375</ele>
        <time>2026-06-17T11:00:31.000Z</time>
        <extensions>
          <ns3:TrackPointExtension>
            <ns3:atemp>22.0</ns3:atemp>
          </ns3:TrackPointExtension>
        </extensions>
      </trkpt>
      <trkpt lat="42.51253436319530010223388671875" lon="19.9060016311705112457275390625">
        <ele>2000.5999755859375</ele>
        <time>2026-06-17T11:00:32.000Z</time>
        <extensions>
          <ns3:TrackPointExtension>
            <ns3:atemp>22.0</ns3:atemp>
          </ns3:TrackPointExtension>
        </extensions>
      </trkpt>
      <trkpt lat="42.51254861243069171905517578125" lon="19.90600406192243099212646484375">
        <ele>2000.5999755859375</ele>
        <time>2026-06-17T11:00:33.000Z</time>
        <extensions>
          <ns3:TrackPointExtension>
            <ns3:atemp>22.0</ns3:atemp>
          </ns3:TrackPointExtension>
        </extensions>
      </trkpt>
      <trkpt lat="42.512560598552227020263671875" lon="19.90600842051208019256591796875">
        <ele>2000.4000244140625</ele>
        <time>2026-06-17T11:00:34.000Z</time>
        <extensions>
          <ns3:TrackPointExtension>
            <ns3:atemp>22.0</ns3:atemp>
          </ns3:TrackPointExtension>
        </extensions>
      </trkpt>
      <trkpt lat="42.5125771947205066680908203125" lon="19.90601059980690479278564453125">
        <ele>2000.5999755859375</ele>
        <time>2026-06-17T11:00:35.000Z</time>
        <extensions>
          <ns3:TrackPointExtension>
            <ns3:atemp>22.0</ns3:atemp>
          </ns3:TrackPointExtension>
        </extensions>
      </trkpt>
      <trkpt lat="42.51259085722267627716064453125" lon="19.9060143716633319854736328125">
        <ele>2000.800048828125</ele>
        <time>2026-06-17T11:00:36.000Z</time>
        <extensions>
          <ns3:TrackPointExtension>
            <ns3:atemp>22.0</ns3:atemp>
          </ns3:TrackPointExtension>
        </extensions>
      </trkpt>
      <trkpt lat="42.51260410062968730926513671875" lon="19.90602032281458377838134765625">
        <ele>2001</ele>
        <time>2026-06-17T11:00:37.000Z</time>
        <extensions>
          <ns3:TrackPointExtension>
            <ns3:atemp>22.0</ns3:atemp>
          </ns3:TrackPointExtension>
        </extensions>
      </trkpt>
      <trkpt lat="42.5126167573034763336181640625" lon="19.9060230888426303863525390625">
        <ele>2001.199951171875</ele>
        <time>2026-06-17T11:00:38.000Z</time>
        <extensions>
          <ns3:TrackPointExtension>
            <ns3:atemp>22.0</ns3:atemp>
          </ns3:TrackPointExtension>
        </extensions>
      </trkpt>
      <trkpt lat="42.512633688747882843017578125" lon="19.906021915376186370849609375">
        <ele>2001.4000244140625</ele>
        <time>2026-06-17T11:00:39.000Z</time>
        <extensions>
          <ns3:TrackPointExtension>
            <ns3:atemp>22.0</ns3:atemp>
          </ns3:TrackPointExtension>
        </extensions>
      </trkpt>
      <trkpt lat="42.51265011727809906005859375" lon="19.90601697005331516265869140625">
        <ele>2001.5999755859375</ele>
        <time>2026-06-17T11:00:40.000Z</time>
        <extensions>
          <ns3:TrackPointExtension>
            <ns3:atemp>22.0</ns3:atemp>
          </ns3:TrackPointExtension>
        </extensions>
      </trkpt>
      <trkpt lat="42.51266260631382465362548828125" lon="19.90601613186299800872802734375">
        <ele>2002</ele>
        <time>2026-06-17T11:00:41.000Z</time>
        <extensions>
          <ns3:TrackPointExtension>
            <ns3:atemp>22.0</ns3:atemp>
          </ns3:TrackPointExtension>
        </extensions>
      </trkpt>
      <trkpt lat="42.51267584972083568572998046875" lon="19.906015209853649139404296875">
        <ele>2002.199951171875</ele>
        <time>2026-06-17T11:00:42.000Z</time>
        <extensions>
          <ns3:TrackPointExtension>
            <ns3:atemp>22.0</ns3:atemp>
          </ns3:TrackPointExtension>
        </extensions>
      </trkpt>
      <trkpt lat="42.51269378699362277984619140625" lon="19.906011186540126800537109375">
        <ele>2002.5999755859375</ele>
        <time>2026-06-17T11:00:43.000Z</time>
        <extensions>
          <ns3:TrackPointExtension>
            <ns3:atemp>22.0</ns3:atemp>
          </ns3:TrackPointExtension>
        </extensions>
      </trkpt>
      <trkpt lat="42.51271055079996585845947265625" lon="19.90600590594112873077392578125">
        <ele>2002.800048828125</ele>
        <time>2026-06-17T11:00:44.000Z</time>
        <extensions>
          <ns3:TrackPointExtension>
            <ns3:atemp>22.0</ns3:atemp>
          </ns3:TrackPointExtension>
        </extensions>
      </trkpt>
      <trkpt lat="42.5127250514924526214599609375" lon="19.90599920041859149932861328125">
        <ele>2003.199951171875</ele>
        <time>2026-06-17T11:00:45.000Z</time>
        <extensions>
          <ns3:TrackPointExtension>
            <ns3:atemp>22.0</ns3:atemp>
          </ns3:TrackPointExtension>
        </extensions>
      </trkpt>
      <trkpt lat="42.51273871399462223052978515625" lon="19.90599199198186397552490234375">
        <ele>2003.5999755859375</ele>
        <time>2026-06-17T11:00:46.000Z</time>
        <extensions>
          <ns3:TrackPointExtension>
            <ns3:atemp>22.0</ns3:atemp>
          </ns3:TrackPointExtension>
        </extensions>
      </trkpt>
      <trkpt lat="42.5127518735826015472412109375" lon="19.9059858731925487518310546875">
        <ele>2003.800048828125</ele>
        <time>2026-06-17T11:00:47.000Z</time>
        <extensions>
          <ns3:TrackPointExtension>
            <ns3:atemp>22.0</ns3:atemp>
          </ns3:TrackPointExtension>
        </extensions>
      </trkpt>
      <trkpt lat="42.51277190633118152618408203125" lon="19.905979670584201812744140625">
        <ele>2004</ele>
        <time>2026-06-17T11:00:48.000Z</time>
        <extensions>
          <ns3:TrackPointExtension>
            <ns3:atemp>22.0</ns3:atemp>
          </ns3:TrackPointExtension>
        </extensions>
      </trkpt>
      <trkpt lat="42.51278179697692394256591796875" lon="19.9059741385281085968017578125">
        <ele>2004.199951171875</ele>
        <time>2026-06-17T11:00:49.000Z</time>
        <extensions>
          <ns3:TrackPointExtension>
            <ns3:atemp>22.0</ns3:atemp>
          </ns3:TrackPointExtension>
        </extensions>
      </trkpt>
      <trkpt lat="42.51278422772884368896484375" lon="19.90596718154847621917724609375">
        <ele>2004.4000244140625</ele>
        <time>2026-06-17T11:00:50.000Z</time>
        <extensions>
          <ns3:TrackPointExtension>
            <ns3:atemp>22.0</ns3:atemp>
          </ns3:TrackPointExtension>
        </extensions>
      </trkpt>
      <trkpt lat="42.5127843953669071197509765625" lon="19.9059672653675079345703125">
        <ele>2004.4000244140625</ele>
        <time>2026-06-17T11:00:51.000Z</time>
        <extensions>
          <ns3:TrackPointExtension>
            <ns3:atemp>22.0</ns3:atemp>
          </ns3:TrackPointExtension>
        </extensions>
      </trkpt>
      <trkpt lat="42.5127843953669071197509765625" lon="19.9059672653675079345703125">
        <ele>2004.4000244140625</ele>
        <time>2026-06-17T11:00:52.000Z</time>
        <extensions>
          <ns3:TrackPointExtension>
            <ns3:atemp>22.0</ns3:atemp>
          </ns3:TrackPointExtension>
        </extensions>
      </trkpt>
      <trkpt lat="42.5127843953669071197509765625" lon="19.9059672653675079345703125">
        <ele>2004.5999755859375</ele>
        <time>2026-06-17T11:00:53.000Z</time>
        <extensions>
          <ns3:TrackPointExtension>
            <ns3:atemp>22.0</ns3:atemp>
          </ns3:TrackPointExtension>
        </extensions>
      </trkpt>
      <trkpt lat="42.5127843953669071197509765625" lon="19.9059672653675079345703125">
        <ele>2004.4000244140625</ele>
        <time>2026-06-17T11:00:54.000Z</time>
        <extensions>
          <ns3:TrackPointExtension>
            <ns3:atemp>22.0</ns3:atemp>
          </ns3:TrackPointExtension>
        </extensions>
      </trkpt>
      <trkpt lat="42.5127843953669071197509765625" lon="19.9059672653675079345703125">
        <ele>2004.4000244140625</ele>
        <time>2026-06-17T11:00:55.000Z</time>
        <extensions>
          <ns3:TrackPointExtension>
            <ns3:atemp>22.0</ns3:atemp>
          </ns3:TrackPointExtension>
        </extensions>
      </trkpt>
      <trkpt lat="42.5127843953669071197509765625" lon="19.9059672653675079345703125">
        <ele>2004.199951171875</ele>
        <time>2026-06-17T11:00:56.000Z</time>
        <extensions>
          <ns3:TrackPointExtension>
            <ns3:atemp>22.0</ns3:atemp>
          </ns3:TrackPointExtension>
        </extensions>
      </trkpt>
      <trkpt lat="42.5127843953669071197509765625" lon="19.9059672653675079345703125">
        <ele>2004.199951171875</ele>
        <time>2026-06-17T11:00:57.000Z</time>
        <extensions>
          <ns3:TrackPointExtension>
            <ns3:atemp>22.0</ns3:atemp>
          </ns3:TrackPointExtension>
        </extensions>
      </trkpt>
      <trkpt lat="42.5127843953669071197509765625" lon="19.9059672653675079345703125">
        <ele>2004</ele>
        <time>2026-06-17T11:00:58.000Z</time>
        <extensions>
          <ns3:TrackPointExtension>
            <ns3:atemp>22.0</ns3:atemp>
          </ns3:TrackPointExtension>
        </extensions>
      </trkpt>
      <trkpt lat="42.5127843953669071197509765625" lon="19.9059672653675079345703125">
        <ele>2003.800048828125</ele>
        <time>2026-06-17T11:00:59.000Z</time>
        <extensions>
          <ns3:TrackPointExtension>
            <ns3:atemp>22.0</ns3:atemp>
          </ns3:TrackPointExtension>
        </extensions>
      </trkpt>
      <trkpt lat="42.5127843953669071197509765625" lon="19.9059672653675079345703125">
        <ele>2003.800048828125</ele>
        <time>2026-06-17T11:01:00.000Z</time>
        <extensions>
          <ns3:TrackPointExtension>
            <ns3:atemp>22.0</ns3:atemp>
          </ns3:TrackPointExtension>
        </extensions>
      </trkpt>
      <trkpt lat="42.5127843953669071197509765625" lon="19.9059672653675079345703125">
        <ele>2003.800048828125</ele>
        <time>2026-06-17T11:01:01.000Z</time>
        <extensions>
          <ns3:TrackPointExtension>
            <ns3:atemp>22.0</ns3:atemp>
          </ns3:TrackPointExtension>
        </extensions>
      </trkpt>
      <trkpt lat="42.5127843953669071197509765625" lon="19.9059672653675079345703125">
        <ele>2003.800048828125</ele>
        <time>2026-06-17T11:01:02.000Z</time>
        <extensions>
          <ns3:TrackPointExtension>
            <ns3:atemp>22.0</ns3:atemp>
          </ns3:TrackPointExtension>
        </extensions>
      </trkpt>
      <trkpt lat="42.5127843953669071197509765625" lon="19.9059672653675079345703125">
        <ele>2003.800048828125</ele>
        <time>2026-06-17T11:01:03.000Z</time>
        <extensions>
          <ns3:TrackPointExtension>
            <ns3:atemp>22.0</ns3:atemp>
          </ns3:TrackPointExtension>
        </extensions>
      </trkpt>
      <trkpt lat="42.5127843953669071197509765625" lon="19.9059672653675079345703125">
        <ele>2003.800048828125</ele>
        <time>2026-06-17T11:01:04.000Z</time>
        <extensions>
          <ns3:TrackPointExtension>
            <ns3:atemp>22.0</ns3:atemp>
          </ns3:TrackPointExtension>
        </extensions>
      </trkpt>
      <trkpt lat="42.5127843953669071197509765625" lon="19.9059672653675079345703125">
        <ele>2003.800048828125</ele>
        <time>2026-06-17T11:01:05.000Z</time>
        <extensions>
          <ns3:TrackPointExtension>
            <ns3:atemp>22.0</ns3:atemp>
          </ns3:TrackPointExtension>
        </extensions>
      </trkpt>
      <trkpt lat="42.5127843953669071197509765625" lon="19.9059672653675079345703125">
        <ele>2003.800048828125</ele>
        <time>2026-06-17T11:01:06.000Z</time>
        <extensions>
          <ns3:TrackPointExtension>
            <ns3:atemp>22.0</ns3:atemp>
          </ns3:TrackPointExtension>
        </extensions>
      </trkpt>
      <trkpt lat="42.5127843953669071197509765625" lon="19.9059672653675079345703125">
        <ele>2003.800048828125</ele>
        <time>2026-06-17T11:01:07.000Z</time>
        <extensions>
          <ns3:TrackPointExtension>
            <ns3:atemp>22.0</ns3:atemp>
          </ns3:TrackPointExtension>
        </extensions>
      </trkpt>
      <trkpt lat="42.5127843953669071197509765625" lon="19.9059672653675079345703125">
        <ele>2003.5999755859375</ele>
        <time>2026-06-17T11:01:08.000Z</time>
        <extensions>
          <ns3:TrackPointExtension>
            <ns3:atemp>22.0</ns3:atemp>
          </ns3:TrackPointExtension>
        </extensions>
      </trkpt>
      <trkpt lat="42.5127843953669071197509765625" lon="19.9059672653675079345703125">
        <ele>2003.5999755859375</ele>
        <time>2026-06-17T11:01:09.000Z</time>
        <extensions>
          <ns3:TrackPointExtension>
            <ns3:atemp>22.0</ns3:atemp>
          </ns3:TrackPointExtension>
        </extensions>
      </trkpt>
      <trkpt lat="42.5127843953669071197509765625" lon="19.9059672653675079345703125">
        <ele>2003.5999755859375</ele>
        <time>2026-06-17T11:01:10.000Z</time>
        <extensions>
          <ns3:TrackPointExtension>
            <ns3:atemp>22.0</ns3:atemp>
          </ns3:TrackPointExtension>
        </extensions>
      </trkpt>
      <trkpt lat="42.5127843953669071197509765625" lon="19.9059672653675079345703125">
        <ele>2003.5999755859375</ele>
        <time>2026-06-17T11:01:11.000Z</time>
        <extensions>
          <ns3:TrackPointExtension>
            <ns3:atemp>22.0</ns3:atemp>
          </ns3:TrackPointExtension>
        </extensions>
      </trkpt>
      <trkpt lat="42.5127843953669071197509765625" lon="19.9059672653675079345703125">
        <ele>2003.5999755859375</ele>
        <time>2026-06-17T11:01:12.000Z</time>
        <extensions>
          <ns3:TrackPointExtension>
            <ns3:atemp>22.0</ns3:atemp>
          </ns3:TrackPointExtension>
        </extensions>
      </trkpt>
      <trkpt lat="42.5127843953669071197509765625" lon="19.9059672653675079345703125">
        <ele>2003.4000244140625</ele>
        <time>2026-06-17T11:01:13.000Z</time>
        <extensions>
          <ns3:TrackPointExtension>
            <ns3:atemp>22.0</ns3:atemp>
          </ns3:TrackPointExtension>
        </extensions>
      </trkpt>
      <trkpt lat="42.5127843953669071197509765625" lon="19.9059672653675079345703125">
        <ele>2003.4000244140625</ele>
        <time>2026-06-17T11:01:14.000Z</time>
        <extensions>
          <ns3:TrackPointExtension>
            <ns3:atemp>22.0</ns3:atemp>
          </ns3:TrackPointExtension>
        </extensions>
      </trkpt>
      <trkpt lat="42.5127843953669071197509765625" lon="19.9059672653675079345703125">
        <ele>2003.4000244140625</ele>
        <time>2026-06-17T11:01:15.000Z</time>
        <extensions>
          <ns3:TrackPointExtension>
            <ns3:atemp>22.0</ns3:atemp>
          </ns3:TrackPointExtension>
        </extensions>
      </trkpt>
      <trkpt lat="42.5127843953669071197509765625" lon="19.9059672653675079345703125">
        <ele>2003.199951171875</ele>
        <time>2026-06-17T11:01:16.000Z</time>
        <extensions>
          <ns3:TrackPointExtension>
            <ns3:atemp>22.0</ns3:atemp>
          </ns3:TrackPointExtension>
        </extensions>
      </trkpt>
      <trkpt lat="42.5127843953669071197509765625" lon="19.9059672653675079345703125">
        <ele>2003.199951171875</ele>
        <time>2026-06-17T11:01:17.000Z</time>
        <extensions>
          <ns3:TrackPointExtension>
            <ns3:atemp>22.0</ns3:atemp>
          </ns3:TrackPointExtension>
        </extensions>
      </trkpt>
      <trkpt lat="42.5127843953669071197509765625" lon="19.9059672653675079345703125">
        <ele>2003.199951171875</ele>
        <time>2026-06-17T11:01:18.000Z</time>
        <extensions>
          <ns3:TrackPointExtension>
            <ns3:atemp>22.0</ns3:atemp>
          </ns3:TrackPointExtension>
        </extensions>
      </trkpt>
      <trkpt lat="42.5127843953669071197509765625" lon="19.9059672653675079345703125">
        <ele>2003.199951171875</ele>
        <time>2026-06-17T11:01:19.000Z</time>
        <extensions>
          <ns3:TrackPointExtension>
            <ns3:atemp>22.0</ns3:atemp>
          </ns3:TrackPointExtension>
        </extensions>
      </trkpt>
      <trkpt lat="42.5127843953669071197509765625" lon="19.9059672653675079345703125">
        <ele>2003.199951171875</ele>
        <time>2026-06-17T11:01:20.000Z</time>
        <extensions>
          <ns3:TrackPointExtension>
            <ns3:atemp>22.0</ns3:atemp>
          </ns3:TrackPointExtension>
        </extensions>
      </trkpt>
      <trkpt lat="42.5127843953669071197509765625" lon="19.9059672653675079345703125">
        <ele>2003.199951171875</ele>
        <time>2026-06-17T11:01:21.000Z</time>
        <extensions>
          <ns3:TrackPointExtension>
            <ns3:atemp>22.0</ns3:atemp>
          </ns3:TrackPointExtension>
        </extensions>
      </trkpt>
      <trkpt lat="42.5127843953669071197509765625" lon="19.9059672653675079345703125">
        <ele>2003.199951171875</ele>
        <time>2026-06-17T11:01:22.000Z</time>
        <extensions>
          <ns3:TrackPointExtension>
            <ns3:atemp>22.0</ns3:atemp>
          </ns3:TrackPointExtension>
        </extensions>
      </trkpt>
      <trkpt lat="42.5127843953669071197509765625" lon="19.9059672653675079345703125">
        <ele>2003.199951171875</ele>
        <time>2026-06-17T11:01:23.000Z</time>
        <extensions>
          <ns3:TrackPointExtension>
            <ns3:atemp>22.0</ns3:atemp>
          </ns3:TrackPointExtension>
        </extensions>
      </trkpt>
      <trkpt lat="42.5127843953669071197509765625" lon="19.9059672653675079345703125">
        <ele>2003.199951171875</ele>
        <time>2026-06-17T11:01:24.000Z</time>
        <extensions>
          <ns3:TrackPointExtension>
            <ns3:atemp>22.0</ns3:atemp>
          </ns3:TrackPointExtension>
        </extensions>
      </trkpt>
      <trkpt lat="42.5127843953669071197509765625" lon="19.9059672653675079345703125">
        <ele>2003.199951171875</ele>
        <time>2026-06-17T11:01:25.000Z</time>
        <extensions>
          <ns3:TrackPointExtension>
            <ns3:atemp>22.0</ns3:atemp>
          </ns3:TrackPointExtension>
        </extensions>
      </trkpt>
      <trkpt lat="42.5127843953669071197509765625" lon="19.9059672653675079345703125">
        <ele>2003</ele>
        <time>2026-06-17T11:01:26.000Z</time>
        <extensions>
          <ns3:TrackPointExtension>
            <ns3:atemp>22.0</ns3:atemp>
          </ns3:TrackPointExtension>
        </extensions>
      </trkpt>
      <trkpt lat="42.5127843953669071197509765625" lon="19.9059672653675079345703125">
        <ele>2003</ele>
        <time>2026-06-17T11:01:27.000Z</time>
        <extensions>
          <ns3:TrackPointExtension>
            <ns3:atemp>22.0</ns3:atemp>
          </ns3:TrackPointExtension>
        </extensions>
      </trkpt>
      <trkpt lat="42.5127843953669071197509765625" lon="19.9059672653675079345703125">
        <ele>2003</ele>
        <time>2026-06-17T11:01:28.000Z</time>
        <extensions>
          <ns3:TrackPointExtension>
            <ns3:atemp>22.0</ns3:atemp>
          </ns3:TrackPointExtension>
        </extensions>
      </trkpt>
      <trkpt lat="42.5127843953669071197509765625" lon="19.9059672653675079345703125">
        <ele>2003</ele>
        <time>2026-06-17T11:01:29.000Z</time>
        <extensions>
          <ns3:TrackPointExtension>
            <ns3:atemp>22.0</ns3:atemp>
          </ns3:TrackPointExtension>
        </extensions>
      </trkpt>
      <trkpt lat="42.5127843953669071197509765625" lon="19.9059672653675079345703125">
        <ele>2003</ele>
        <time>2026-06-17T11:01:30.000Z</time>
        <extensions>
          <ns3:TrackPointExtension>
            <ns3:atemp>22.0</ns3:atemp>
          </ns3:TrackPointExtension>
        </extensions>
      </trkpt>
      <trkpt lat="42.5127843953669071197509765625" lon="19.9059672653675079345703125">
        <ele>2003</ele>
        <time>2026-06-17T11:01:31.000Z</time>
        <extensions>
          <ns3:TrackPointExtension>
            <ns3:atemp>22.0</ns3:atemp>
          </ns3:TrackPointExtension>
        </extensions>
      </trkpt>
      <trkpt lat="42.5127843953669071197509765625" lon="19.9059672653675079345703125">
        <ele>2003</ele>
        <time>2026-06-17T11:01:32.000Z</time>
        <extensions>
          <ns3:TrackPointExtension>
            <ns3:atemp>22.0</ns3:atemp>
          </ns3:TrackPointExtension>
        </extensions>
      </trkpt>
      <trkpt lat="42.5127843953669071197509765625" lon="19.9059672653675079345703125">
        <ele>2003</ele>
        <time>2026-06-17T11:01:33.000Z</time>
        <extensions>
          <ns3:TrackPointExtension>
            <ns3:atemp>22.0</ns3:atemp>
          </ns3:TrackPointExtension>
        </extensions>
      </trkpt>
      <trkpt lat="42.5127843953669071197509765625" lon="19.9059672653675079345703125">
        <ele>2003</ele>
        <time>2026-06-17T11:01:34.000Z</time>
        <extensions>
          <ns3:TrackPointExtension>
            <ns3:atemp>22.0</ns3:atemp>
          </ns3:TrackPointExtension>
        </extensions>
      </trkpt>
      <trkpt lat="42.5127843953669071197509765625" lon="19.9059672653675079345703125">
        <ele>2003</ele>
        <time>2026-06-17T11:01:35.000Z</time>
        <extensions>
          <ns3:TrackPointExtension>
            <ns3:atemp>22.0</ns3:atemp>
          </ns3:TrackPointExtension>
        </extensions>
      </trkpt>
      <trkpt lat="42.5127843953669071197509765625" lon="19.9059672653675079345703125">
        <ele>2002.800048828125</ele>
        <time>2026-06-17T11:01:36.000Z</time>
        <extensions>
          <ns3:TrackPointExtension>
            <ns3:atemp>22.0</ns3:atemp>
          </ns3:TrackPointExtension>
        </extensions>
      </trkpt>
      <trkpt lat="42.5127843953669071197509765625" lon="19.9059672653675079345703125">
        <ele>2002.800048828125</ele>
        <time>2026-06-17T11:01:37.000Z</time>
        <extensions>
          <ns3:TrackPointExtension>
            <ns3:atemp>22.0</ns3:atemp>
          </ns3:TrackPointExtension>
        </extensions>
      </trkpt>
      <trkpt lat="42.5127843953669071197509765625" lon="19.9059672653675079345703125">
        <ele>2002.800048828125</ele>
        <time>2026-06-17T11:01:38.000Z</time>
        <extensions>
          <ns3:TrackPointExtension>
            <ns3:atemp>22.0</ns3:atemp>
          </ns3:TrackPointExtension>
        </extensions>
      </trkpt>
      <trkpt lat="42.5127843953669071197509765625" lon="19.9059672653675079345703125">
        <ele>2002.800048828125</ele>
        <time>2026-06-17T11:01:39.000Z</time>
        <extensions>
          <ns3:TrackPointExtension>
            <ns3:atemp>22.0</ns3:atemp>
          </ns3:TrackPointExtension>
        </extensions>
      </trkpt>
      <trkpt lat="42.5127843953669071197509765625" lon="19.9059672653675079345703125">
        <ele>2002.800048828125</ele>
        <time>2026-06-17T11:01:40.000Z</time>
        <extensions>
          <ns3:TrackPointExtension>
            <ns3:atemp>22.0</ns3:atemp>
          </ns3:TrackPointExtension>
        </extensions>
      </trkpt>
      <trkpt lat="42.5127843953669071197509765625" lon="19.9059672653675079345703125">
        <ele>2002.800048828125</ele>
        <time>2026-06-17T11:01:41.000Z</time>
        <extensions>
          <ns3:TrackPointExtension>
            <ns3:atemp>22.0</ns3:atemp>
          </ns3:TrackPointExtension>
        </extensions>
      </trkpt>
      <trkpt lat="42.5127843953669071197509765625" lon="19.9059672653675079345703125">
        <ele>2002.800048828125</ele>
        <time>2026-06-17T11:01:42.000Z</time>
        <extensions>
          <ns3:TrackPointExtension>
            <ns3:atemp>22.0</ns3:atemp>
          </ns3:TrackPointExtension>
        </extensions>
      </trkpt>
      <trkpt lat="42.5127843953669071197509765625" lon="19.9059672653675079345703125">
        <ele>2002.800048828125</ele>
        <time>2026-06-17T11:01:43.000Z</time>
        <extensions>
          <ns3:TrackPointExtension>
            <ns3:atemp>22.0</ns3:atemp>
          </ns3:TrackPointExtension>
        </extensions>
      </trkpt>
      <trkpt lat="42.5127843953669071197509765625" lon="19.9059672653675079345703125">
        <ele>2002.800048828125</ele>
        <time>2026-06-17T11:01:44.000Z</time>
        <extensions>
          <ns3:TrackPointExtension>
            <ns3:atemp>22.0</ns3:atemp>
          </ns3:TrackPointExtension>
        </extensions>
      </trkpt>
      <trkpt lat="42.5127843953669071197509765625" lon="19.9059672653675079345703125">
        <ele>2002.800048828125</ele>
        <time>2026-06-17T11:01:45.000Z</time>
        <extensions>
          <ns3:TrackPointExtension>
            <ns3:atemp>22.0</ns3:atemp>
          </ns3:TrackPointExtension>
        </extensions>
      </trkpt>
      <trkpt lat="42.5127843953669071197509765625" lon="19.9059672653675079345703125">
        <ele>2002.800048828125</ele>
        <time>2026-06-17T11:01:46.000Z</time>
        <extensions>
          <ns3:TrackPointExtension>
            <ns3:atemp>22.0</ns3:atemp>
          </ns3:TrackPointExtension>
        </extensions>
      </trkpt>
      <trkpt lat="42.5127843953669071197509765625" lon="19.9059672653675079345703125">
        <ele>2002.800048828125</ele>
        <time>2026-06-17T11:01:47.000Z</time>
        <extensions>
          <ns3:TrackPointExtension>
            <ns3:atemp>22.0</ns3:atemp>
          </ns3:TrackPointExtension>
        </extensions>
      </trkpt>
      <trkpt lat="42.5127843953669071197509765625" lon="19.9059672653675079345703125">
        <ele>2002.800048828125</ele>
        <time>2026-06-17T11:01:48.000Z</time>
        <extensions>
          <ns3:TrackPointExtension>
            <ns3:atemp>22.0</ns3:atemp>
          </ns3:TrackPointExtension>
        </extensions>
      </trkpt>
      <trkpt lat="42.5127843953669071197509765625" lon="19.9059672653675079345703125">
        <ele>2002.800048828125</ele>
        <time>2026-06-17T11:01:49.000Z</time>
        <extensions>
          <ns3:TrackPointExtension>
            <ns3:atemp>22.0</ns3:atemp>
          </ns3:TrackPointExtension>
        </extensions>
      </trkpt>
      <trkpt lat="42.5127843953669071197509765625" lon="19.9059672653675079345703125">
        <ele>2002.800048828125</ele>
        <time>2026-06-17T11:01:50.000Z</time>
        <extensions>
          <ns3:TrackPointExtension>
            <ns3:atemp>22.0</ns3:atemp>
          </ns3:TrackPointExtension>
        </extensions>
      </trkpt>
      <trkpt lat="42.5127843953669071197509765625" lon="19.9059672653675079345703125">
        <ele>2002.800048828125</ele>
        <time>2026-06-17T11:01:51.000Z</time>
        <extensions>
          <ns3:TrackPointExtension>
            <ns3:atemp>22.0</ns3:atemp>
          </ns3:TrackPointExtension>
        </extensions>
      </trkpt>
      <trkpt lat="42.5127843953669071197509765625" lon="19.9059672653675079345703125">
        <ele>2002.800048828125</ele>
        <time>2026-06-17T11:01:52.000Z</time>
        <extensions>
          <ns3:TrackPointExtension>
            <ns3:atemp>22.0</ns3:atemp>
          </ns3:TrackPointExtension>
        </extensions>
      </trkpt>
      <trkpt lat="42.5127843953669071197509765625" lon="19.9059672653675079345703125">
        <ele>2002.800048828125</ele>
        <time>2026-06-17T11:01:53.000Z</time>
        <extensions>
          <ns3:TrackPointExtension>
            <ns3:atemp>22.0</ns3:atemp>
          </ns3:TrackPointExtension>
        </extensions>
      </trkpt>
      <trkpt lat="42.5127843953669071197509765625" lon="19.9059672653675079345703125">
        <ele>2002.800048828125</ele>
        <time>2026-06-17T11:01:54.000Z</time>
        <extensions>
          <ns3:TrackPointExtension>
            <ns3:atemp>22.0</ns3:atemp>
          </ns3:TrackPointExtension>
        </extensions>
      </trkpt>
      <trkpt lat="42.5127843953669071197509765625" lon="19.9059672653675079345703125">
        <ele>2002.800048828125</ele>
        <time>2026-06-17T11:01:55.000Z</time>
        <extensions>
          <ns3:TrackPointExtension>
            <ns3:atemp>22.0</ns3:atemp>
          </ns3:TrackPointExtension>
        </extensions>
      </trkpt>
      <trkpt lat="42.5127843953669071197509765625" lon="19.9059672653675079345703125">
        <ele>2002.5999755859375</ele>
        <time>2026-06-17T11:01:56.000Z</time>
        <extensions>
          <ns3:TrackPointExtension>
            <ns3:atemp>22.0</ns3:atemp>
          </ns3:TrackPointExtension>
        </extensions>
      </trkpt>
      <trkpt lat="42.5127843953669071197509765625" lon="19.9059672653675079345703125">
        <ele>2002.5999755859375</ele>
        <time>2026-06-17T11:01:57.000Z</time>
        <extensions>
          <ns3:TrackPointExtension>
            <ns3:atemp>22.0</ns3:atemp>
          </ns3:TrackPointExtension>
        </extensions>
      </trkpt>
      <trkpt lat="42.5127843953669071197509765625" lon="19.9059672653675079345703125">
        <ele>2002.5999755859375</ele>
        <time>2026-06-17T11:01:58.000Z</time>
        <extensions>
          <ns3:TrackPointExtension>
            <ns3:atemp>22.0</ns3:atemp>
          </ns3:TrackPointExtension>
        </extensions>
      </trkpt>
      <trkpt lat="42.5127843953669071197509765625" lon="19.9059672653675079345703125">
        <ele>2002.5999755859375</ele>
        <time>2026-06-17T11:01:59.000Z</time>
        <extensions>
          <ns3:TrackPointExtension>
            <ns3:atemp>22.0</ns3:atemp>
          </ns3:TrackPointExtension>
        </extensions>
      </trkpt>
      <trkpt lat="42.5127843953669071197509765625" lon="19.9059672653675079345703125">
        <ele>2002.5999755859375</ele>
        <time>2026-06-17T11:02:00.000Z</time>
        <extensions>
          <ns3:TrackPointExtension>
            <ns3:atemp>22.0</ns3:atemp>
          </ns3:TrackPointExtension>
        </extensions>
      </trkpt>
      <trkpt lat="42.5127843953669071197509765625" lon="19.9059672653675079345703125">
        <ele>2002.4000244140625</ele>
        <time>2026-06-17T11:02:01.000Z</time>
        <extensions>
          <ns3:TrackPointExtension>
            <ns3:atemp>22.0</ns3:atemp>
          </ns3:TrackPointExtension>
        </extensions>
      </trkpt>
      <trkpt lat="42.5127843953669071197509765625" lon="19.9059672653675079345703125">
        <ele>2002.4000244140625</ele>
        <time>2026-06-17T11:02:02.000Z</time>
        <extensions>
          <ns3:TrackPointExtension>
            <ns3:atemp>22.0</ns3:atemp>
          </ns3:TrackPointExtension>
        </extensions>
      </trkpt>
      <trkpt lat="42.5127843953669071197509765625" lon="19.9059672653675079345703125">
        <ele>2002.4000244140625</ele>
        <time>2026-06-17T11:02:03.000Z</time>
        <extensions>
          <ns3:TrackPointExtension>
            <ns3:atemp>22.0</ns3:atemp>
          </ns3:TrackPointExtension>
        </extensions>
      </trkpt>
      <trkpt lat="42.5127843953669071197509765625" lon="19.9059672653675079345703125">
        <ele>2002.4000244140625</ele>
        <time>2026-06-17T11:02:04.000Z</time>
        <extensions>
          <ns3:TrackPointExtension>
            <ns3:atemp>21.0</ns3:atemp>
          </ns3:TrackPointExtension>
        </extensions>
      </trkpt>
      <trkpt lat="42.5127843953669071197509765625" lon="19.9059672653675079345703125">
        <ele>2002.4000244140625</ele>
        <time>2026-06-17T11:02:05.000Z</time>
        <extensions>
          <ns3:TrackPointExtension>
            <ns3:atemp>21.0</ns3:atemp>
          </ns3:TrackPointExtension>
        </extensions>
      </trkpt>
      <trkpt lat="42.5127843953669071197509765625" lon="19.9059672653675079345703125">
        <ele>2002.4000244140625</ele>
        <time>2026-06-17T11:02:06.000Z</time>
        <extensions>
          <ns3:TrackPointExtension>
            <ns3:atemp>21.0</ns3:atemp>
          </ns3:TrackPointExtension>
        </extensions>
      </trkpt>
      <trkpt lat="42.5127843953669071197509765625" lon="19.9059672653675079345703125">
        <ele>2002.4000244140625</ele>
        <time>2026-06-17T11:02:07.000Z</time>
        <extensions>
          <ns3:TrackPointExtension>
            <ns3:atemp>21.0</ns3:atemp>
          </ns3:TrackPointExtension>
        </extensions>
      </trkpt>
      <trkpt lat="42.5127843953669071197509765625" lon="19.9059672653675079345703125">
        <ele>2002.4000244140625</ele>
        <time>2026-06-17T11:02:08.000Z</time>
        <extensions>
          <ns3:TrackPointExtension>
            <ns3:atemp>21.0</ns3:atemp>
          </ns3:TrackPointExtension>
        </extensions>
      </trkpt>
      <trkpt lat="42.5127843953669071197509765625" lon="19.9059672653675079345703125">
        <ele>2002.4000244140625</ele>
        <time>2026-06-17T11:02:09.000Z</time>
        <extensions>
          <ns3:TrackPointExtension>
            <ns3:atemp>21.0</ns3:atemp>
          </ns3:TrackPointExtension>
        </extensions>
      </trkpt>
      <trkpt lat="42.5127843953669071197509765625" lon="19.9059672653675079345703125">
        <ele>2002.4000244140625</ele>
        <time>2026-06-17T11:02:10.000Z</time>
        <extensions>
          <ns3:TrackPointExtension>
            <ns3:atemp>21.0</ns3:atemp>
          </ns3:TrackPointExtension>
        </extensions>
      </trkpt>
      <trkpt lat="42.5127843953669071197509765625" lon="19.9059672653675079345703125">
        <ele>2002.4000244140625</ele>
        <time>2026-06-17T11:02:11.000Z</time>
        <extensions>
          <ns3:TrackPointExtension>
            <ns3:atemp>21.0</ns3:atemp>
          </ns3:TrackPointExtension>
        </extensions>
      </trkpt>
      <trkpt lat="42.5127843953669071197509765625" lon="19.9059672653675079345703125">
        <ele>2002.4000244140625</ele>
        <time>2026-06-17T11:02:12.000Z</time>
        <extensions>
          <ns3:TrackPointExtension>
            <ns3:atemp>21.0</ns3:atemp>
          </ns3:TrackPointExtension>
        </extensions>
      </trkpt>
      <trkpt lat="42.5127843953669071197509765625" lon="19.9059672653675079345703125">
        <ele>2002.4000244140625</ele>
        <time>2026-06-17T11:02:13.000Z</time>
        <extensions>
          <ns3:TrackPointExtension>
            <ns3:atemp>21.0</ns3:atemp>
          </ns3:TrackPointExtension>
        </extensions>
      </trkpt>
      <trkpt lat="42.5127843953669071197509765625" lon="19.9059672653675079345703125">
        <ele>2002.4000244140625</ele>
        <time>2026-06-17T11:02:14.000Z</time>
        <extensions>
          <ns3:TrackPointExtension>
            <ns3:atemp>21.0</ns3:atemp>
          </ns3:TrackPointExtension>
        </extensions>
      </trkpt>
      <trkpt lat="42.5127843953669071197509765625" lon="19.9059672653675079345703125">
        <ele>2002.4000244140625</ele>
        <time>2026-06-17T11:02:15.000Z</time>
        <extensions>
          <ns3:TrackPointExtension>
            <ns3:atemp>21.0</ns3:atemp>
          </ns3:TrackPointExtension>
        </extensions>
      </trkpt>
      <trkpt lat="42.5127843953669071197509765625" lon="19.9059672653675079345703125">
        <ele>2002.4000244140625</ele>
        <time>2026-06-17T11:02:16.000Z</time>
        <extensions>
          <ns3:TrackPointExtension>
            <ns3:atemp>21.0</ns3:atemp>
          </ns3:TrackPointExtension>
        </extensions>
      </trkpt>
      <trkpt lat="42.5127843953669071197509765625" lon="19.9059672653675079345703125">
        <ele>2002.4000244140625</ele>
        <time>2026-06-17T11:02:17.000Z</time>
        <extensions>
          <ns3:TrackPointExtension>
            <ns3:atemp>21.0</ns3:atemp>
          </ns3:TrackPointExtension>
        </extensions>
      </trkpt>
      <trkpt lat="42.5127843953669071197509765625" lon="19.9059672653675079345703125">
        <ele>2002.4000244140625</ele>
        <time>2026-06-17T11:02:18.000Z</time>
        <extensions>
          <ns3:TrackPointExtension>
            <ns3:atemp>21.0</ns3:atemp>
          </ns3:TrackPointExtension>
        </extensions>
      </trkpt>
      <trkpt lat="42.5127843953669071197509765625" lon="19.9059672653675079345703125">
        <ele>2002.4000244140625</ele>
        <time>2026-06-17T11:02:19.000Z</time>
        <extensions>
          <ns3:TrackPointExtension>
            <ns3:atemp>21.0</ns3:atemp>
          </ns3:TrackPointExtension>
        </extensions>
      </trkpt>
      <trkpt lat="42.5127843953669071197509765625" lon="19.9059672653675079345703125">
        <ele>2002.4000244140625</ele>
        <time>2026-06-17T11:02:20.000Z</time>
        <extensions>
          <ns3:TrackPointExtension>
            <ns3:atemp>21.0</ns3:atemp>
          </ns3:TrackPointExtension>
        </extensions>
      </trkpt>
      <trkpt lat="42.5127843953669071197509765625" lon="19.9059672653675079345703125">
        <ele>2002.4000244140625</ele>
        <time>2026-06-17T11:02:21.000Z</time>
        <extensions>
          <ns3:TrackPointExtension>
            <ns3:atemp>21.0</ns3:atemp>
          </ns3:TrackPointExtension>
        </extensions>
      </trkpt>
      <trkpt lat="42.5127843953669071197509765625" lon="19.9059672653675079345703125">
        <ele>2002.4000244140625</ele>
        <time>2026-06-17T11:02:22.000Z</time>
        <extensions>
          <ns3:TrackPointExtension>
            <ns3:atemp>21.0</ns3:atemp>
          </ns3:TrackPointExtension>
        </extensions>
      </trkpt>
      <trkpt lat="42.5127843953669071197509765625" lon="19.9059672653675079345703125">
        <ele>2002.4000244140625</ele>
        <time>2026-06-17T11:02:23.000Z</time>
        <extensions>
          <ns3:TrackPointExtension>
            <ns3:atemp>21.0</ns3:atemp>
          </ns3:TrackPointExtension>
        </extensions>
      </trkpt>
      <trkpt lat="42.5127843953669071197509765625" lon="19.9059672653675079345703125">
        <ele>2002.4000244140625</ele>
        <time>2026-06-17T11:02:24.000Z</time>
        <extensions>
          <ns3:TrackPointExtension>
            <ns3:atemp>21.0</ns3:atemp>
          </ns3:TrackPointExtension>
        </extensions>
      </trkpt>
      <trkpt lat="42.5127843953669071197509765625" lon="19.9059672653675079345703125">
        <ele>2002.199951171875</ele>
        <time>2026-06-17T11:02:25.000Z</time>
        <extensions>
          <ns3:TrackPointExtension>
            <ns3:atemp>21.0</ns3:atemp>
          </ns3:TrackPointExtension>
        </extensions>
      </trkpt>
      <trkpt lat="42.5127843953669071197509765625" lon="19.9059672653675079345703125">
        <ele>2002.199951171875</ele>
        <time>2026-06-17T11:02:26.000Z</time>
        <extensions>
          <ns3:TrackPointExtension>
            <ns3:atemp>21.0</ns3:atemp>
          </ns3:TrackPointExtension>
        </extensions>
      </trkpt>
      <trkpt lat="42.5127843953669071197509765625" lon="19.9059672653675079345703125">
        <ele>2002.199951171875</ele>
        <time>2026-06-17T11:02:27.000Z</time>
        <extensions>
          <ns3:TrackPointExtension>
            <ns3:atemp>21.0</ns3:atemp>
          </ns3:TrackPointExtension>
        </extensions>
      </trkpt>
      <trkpt lat="42.5127843953669071197509765625" lon="19.9059672653675079345703125">
        <ele>2002.4000244140625</ele>
        <time>2026-06-17T11:02:28.000Z</time>
        <extensions>
          <ns3:TrackPointExtension>
            <ns3:atemp>21.0</ns3:atemp>
          </ns3:TrackPointExtension>
        </extensions>
      </trkpt>
      <trkpt lat="42.5127843953669071197509765625" lon="19.9059672653675079345703125">
        <ele>2002.4000244140625</ele>
        <time>2026-06-17T11:02:29.000Z</time>
        <extensions>
          <ns3:TrackPointExtension>
            <ns3:atemp>21.0</ns3:atemp>
          </ns3:TrackPointExtension>
        </extensions>
      </trkpt>
      <trkpt lat="42.5127843953669071197509765625" lon="19.9059672653675079345703125">
        <ele>2002.4000244140625</ele>
        <time>2026-06-17T11:02:30.000Z</time>
        <extensions>
          <ns3:TrackPointExtension>
            <ns3:atemp>21.0</ns3:atemp>
          </ns3:TrackPointExtension>
        </extensions>
      </trkpt>
      <trkpt lat="42.5127843953669071197509765625" lon="19.9059672653675079345703125">
        <ele>2002.4000244140625</ele>
        <time>2026-06-17T11:02:31.000Z</time>
        <extensions>
          <ns3:TrackPointExtension>
            <ns3:atemp>21.0</ns3:atemp>
          </ns3:TrackPointExtension>
        </extensions>
      </trkpt>
      <trkpt lat="42.5127843953669071197509765625" lon="19.9059672653675079345703125">
        <ele>2002.4000244140625</ele>
        <time>2026-06-17T11:02:32.000Z</time>
        <extensions>
          <ns3:TrackPointExtension>
            <ns3:atemp>21.0</ns3:atemp>
          </ns3:TrackPointExtension>
        </extensions>
      </trkpt>
      <trkpt lat="42.5127843953669071197509765625" lon="19.9059672653675079345703125">
        <ele>2002.4000244140625</ele>
        <time>2026-06-17T11:02:33.000Z</time>
        <extensions>
          <ns3:TrackPointExtension>
            <ns3:atemp>21.0</ns3:atemp>
          </ns3:TrackPointExtension>
        </extensions>
      </trkpt>
      <trkpt lat="42.5127843953669071197509765625" lon="19.9059672653675079345703125">
        <ele>2002.4000244140625</ele>
        <time>2026-06-17T11:02:34.000Z</time>
        <extensions>
          <ns3:TrackPointExtension>
            <ns3:atemp>21.0</ns3:atemp>
          </ns3:TrackPointExtension>
        </extensions>
      </trkpt>
      <trkpt lat="42.5127843953669071197509765625" lon="19.9059672653675079345703125">
        <ele>2002.4000244140625</ele>
        <time>2026-06-17T11:02:35.000Z</time>
        <extensions>
          <ns3:TrackPointExtension>
            <ns3:atemp>21.0</ns3:atemp>
          </ns3:TrackPointExtension>
        </extensions>
      </trkpt>
      <trkpt lat="42.5127843953669071197509765625" lon="19.9059672653675079345703125">
        <ele>2002.4000244140625</ele>
        <time>2026-06-17T11:02:36.000Z</time>
        <extensions>
          <ns3:TrackPointExtension>
            <ns3:atemp>21.0</ns3:atemp>
          </ns3:TrackPointExtension>
        </extensions>
      </trkpt>
      <trkpt lat="42.5127843953669071197509765625" lon="19.9059672653675079345703125">
        <ele>2002.4000244140625</ele>
        <time>2026-06-17T11:02:37.000Z</time>
        <extensions>
          <ns3:TrackPointExtension>
            <ns3:atemp>21.0</ns3:atemp>
          </ns3:TrackPointExtension>
        </extensions>
      </trkpt>
      <trkpt lat="42.5127843953669071197509765625" lon="19.9059672653675079345703125">
        <ele>2002.4000244140625</ele>
        <time>2026-06-17T11:02:38.000Z</time>
        <extensions>
          <ns3:TrackPointExtension>
            <ns3:atemp>21.0</ns3:atemp>
          </ns3:TrackPointExtension>
        </extensions>
      </trkpt>
      <trkpt lat="42.5127843953669071197509765625" lon="19.9059672653675079345703125">
        <ele>2002.4000244140625</ele>
        <time>2026-06-17T11:02:39.000Z</time>
        <extensions>
          <ns3:TrackPointExtension>
            <ns3:atemp>21.0</ns3:atemp>
          </ns3:TrackPointExtension>
        </extensions>
      </trkpt>
      <trkpt lat="42.5127843953669071197509765625" lon="19.9059672653675079345703125">
        <ele>2002.4000244140625</ele>
        <time>2026-06-17T11:02:40.000Z</time>
        <extensions>
          <ns3:TrackPointExtension>
            <ns3:atemp>21.0</ns3:atemp>
          </ns3:TrackPointExtension>
        </extensions>
      </trkpt>
      <trkpt lat="42.5127843953669071197509765625" lon="19.9059672653675079345703125">
        <ele>2002.4000244140625</ele>
        <time>2026-06-17T11:02:41.000Z</time>
        <extensions>
          <ns3:TrackPointExtension>
            <ns3:atemp>21.0</ns3:atemp>
          </ns3:TrackPointExtension>
        </extensions>
      </trkpt>
      <trkpt lat="42.5127843953669071197509765625" lon="19.9059672653675079345703125">
        <ele>2002.4000244140625</ele>
        <time>2026-06-17T11:02:42.000Z</time>
        <extensions>
          <ns3:TrackPointExtension>
            <ns3:atemp>21.0</ns3:atemp>
          </ns3:TrackPointExtension>
        </extensions>
      </trkpt>
      <trkpt lat="42.5127843953669071197509765625" lon="19.9059672653675079345703125">
        <ele>2002.4000244140625</ele>
        <time>2026-06-17T11:02:43.000Z</time>
        <extensions>
          <ns3:TrackPointExtension>
            <ns3:atemp>21.0</ns3:atemp>
          </ns3:TrackPointExtension>
        </extensions>
      </trkpt>
      <trkpt lat="42.5127843953669071197509765625" lon="19.9059672653675079345703125">
        <ele>2002.4000244140625</ele>
        <time>2026-06-17T11:02:44.000Z</time>
        <extensions>
          <ns3:TrackPointExtension>
            <ns3:atemp>21.0</ns3:atemp>
          </ns3:TrackPointExtension>
        </extensions>
      </trkpt>
      <trkpt lat="42.5127843953669071197509765625" lon="19.9059672653675079345703125">
        <ele>2002.4000244140625</ele>
        <time>2026-06-17T11:02:45.000Z</time>
        <extensions>
          <ns3:TrackPointExtension>
            <ns3:atemp>21.0</ns3:atemp>
          </ns3:TrackPointExtension>
        </extensions>
      </trkpt>
      <trkpt lat="42.5127843953669071197509765625" lon="19.9059672653675079345703125">
        <ele>2002.4000244140625</ele>
        <time>2026-06-17T11:02:46.000Z</time>
        <extensions>
          <ns3:TrackPointExtension>
            <ns3:atemp>21.0</ns3:atemp>
          </ns3:TrackPointExtension>
        </extensions>
      </trkpt>
      <trkpt lat="42.5127843953669071197509765625" lon="19.9059672653675079345703125">
        <ele>2002.4000244140625</ele>
        <time>2026-06-17T11:02:47.000Z</time>
        <extensions>
          <ns3:TrackPointExtension>
            <ns3:atemp>21.0</ns3:atemp>
          </ns3:TrackPointExtension>
        </extensions>
      </trkpt>
      <trkpt lat="42.5127843953669071197509765625" lon="19.9059672653675079345703125">
        <ele>2002.4000244140625</ele>
        <time>2026-06-17T11:02:48.000Z</time>
        <extensions>
          <ns3:TrackPointExtension>
            <ns3:atemp>21.0</ns3:atemp>
          </ns3:TrackPointExtension>
        </extensions>
      </trkpt>
      <trkpt lat="42.5127843953669071197509765625" lon="19.9059672653675079345703125">
        <ele>2002.4000244140625</ele>
        <time>2026-06-17T11:02:49.000Z</time>
        <extensions>
          <ns3:TrackPointExtension>
            <ns3:atemp>21.0</ns3:atemp>
          </ns3:TrackPointExtension>
        </extensions>
      </trkpt>
      <trkpt lat="42.5127843953669071197509765625" lon="19.9059672653675079345703125">
        <ele>2002.4000244140625</ele>
        <time>2026-06-17T11:02:50.000Z</time>
        <extensions>
          <ns3:TrackPointExtension>
            <ns3:atemp>21.0</ns3:atemp>
          </ns3:TrackPointExtension>
        </extensions>
      </trkpt>
      <trkpt lat="42.5127843953669071197509765625" lon="19.9059672653675079345703125">
        <ele>2002.4000244140625</ele>
        <time>2026-06-17T11:02:51.000Z</time>
        <extensions>
          <ns3:TrackPointExtension>
            <ns3:atemp>21.0</ns3:atemp>
          </ns3:TrackPointExtension>
        </extensions>
      </trkpt>
      <trkpt lat="42.5127843953669071197509765625" lon="19.9059672653675079345703125">
        <ele>2002.4000244140625</ele>
        <time>2026-06-17T11:02:52.000Z</time>
        <extensions>
          <ns3:TrackPointExtension>
            <ns3:atemp>21.0</ns3:atemp>
          </ns3:TrackPointExtension>
        </extensions>
      </trkpt>
      <trkpt lat="42.5127843953669071197509765625" lon="19.9059672653675079345703125">
        <ele>2002.4000244140625</ele>
        <time>2026-06-17T11:02:53.000Z</time>
        <extensions>
          <ns3:TrackPointExtension>
            <ns3:atemp>21.0</ns3:atemp>
          </ns3:TrackPointExtension>
        </extensions>
      </trkpt>
      <trkpt lat="42.5127843953669071197509765625" lon="19.9059672653675079345703125">
        <ele>2002.4000244140625</ele>
        <time>2026-06-17T11:02:54.000Z</time>
        <extensions>
          <ns3:TrackPointExtension>
            <ns3:atemp>21.0</ns3:atemp>
          </ns3:TrackPointExtension>
        </extensions>
      </trkpt>
      <trkpt lat="42.5127843953669071197509765625" lon="19.9059672653675079345703125">
        <ele>2002.4000244140625</ele>
        <time>2026-06-17T11:02:55.000Z</time>
        <extensions>
          <ns3:TrackPointExtension>
            <ns3:atemp>21.0</ns3:atemp>
          </ns3:TrackPointExtension>
        </extensions>
      </trkpt>
      <trkpt lat="42.5127843953669071197509765625" lon="19.9059672653675079345703125">
        <ele>2002.4000244140625</ele>
        <time>2026-06-17T11:02:56.000Z</time>
        <extensions>
          <ns3:TrackPointExtension>
            <ns3:atemp>21.0</ns3:atemp>
          </ns3:TrackPointExtension>
        </extensions>
      </trkpt>
      <trkpt lat="42.5127843953669071197509765625" lon="19.9059672653675079345703125">
        <ele>2002.4000244140625</ele>
        <time>2026-06-17T11:02:57.000Z</time>
        <extensions>
          <ns3:TrackPointExtension>
            <ns3:atemp>21.0</ns3:atemp>
          </ns3:TrackPointExtension>
        </extensions>
      </trkpt>
      <trkpt lat="42.5127843953669071197509765625" lon="19.9059672653675079345703125">
        <ele>2002.4000244140625</ele>
        <time>2026-06-17T11:02:58.000Z</time>
        <extensions>
          <ns3:TrackPointExtension>
            <ns3:atemp>21.0</ns3:atemp>
          </ns3:TrackPointExtension>
        </extensions>
      </trkpt>
      <trkpt lat="42.5127843953669071197509765625" lon="19.9059672653675079345703125">
        <ele>2002.4000244140625</ele>
        <time>2026-06-17T11:02:59.000Z</time>
        <extensions>
          <ns3:TrackPointExtension>
            <ns3:atemp>21.0</ns3:atemp>
          </ns3:TrackPointExtension>
        </extensions>
      </trkpt>
      <trkpt lat="42.5127843953669071197509765625" lon="19.9059672653675079345703125">
        <ele>2002.4000244140625</ele>
        <time>2026-06-17T11:03:00.000Z</time>
        <extensions>
          <ns3:TrackPointExtension>
            <ns3:atemp>21.0</ns3:atemp>
          </ns3:TrackPointExtension>
        </extensions>
      </trkpt>
      <trkpt lat="42.5127843953669071197509765625" lon="19.9059672653675079345703125">
        <ele>2002.4000244140625</ele>
        <time>2026-06-17T11:03:01.000Z</time>
        <extensions>
          <ns3:TrackPointExtension>
            <ns3:atemp>21.0</ns3:atemp>
          </ns3:TrackPointExtension>
        </extensions>
      </trkpt>
      <trkpt lat="42.5127843953669071197509765625" lon="19.9059672653675079345703125">
        <ele>2002.4000244140625</ele>
        <time>2026-06-17T11:03:02.000Z</time>
        <extensions>
          <ns3:TrackPointExtension>
            <ns3:atemp>21.0</ns3:atemp>
          </ns3:TrackPointExtension>
        </extensions>
      </trkpt>
      <trkpt lat="42.5127843953669071197509765625" lon="19.9059672653675079345703125">
        <ele>2002.4000244140625</ele>
        <time>2026-06-17T11:03:03.000Z</time>
        <extensions>
          <ns3:TrackPointExtension>
            <ns3:atemp>21.0</ns3:atemp>
          </ns3:TrackPointExtension>
        </extensions>
      </trkpt>
      <trkpt lat="42.5127843953669071197509765625" lon="19.9059672653675079345703125">
        <ele>2002.4000244140625</ele>
        <time>2026-06-17T11:03:04.000Z</time>
        <extensions>
          <ns3:TrackPointExtension>
            <ns3:atemp>21.0</ns3:atemp>
          </ns3:TrackPointExtension>
        </extensions>
      </trkpt>
      <trkpt lat="42.5127843953669071197509765625" lon="19.9059672653675079345703125">
        <ele>2002.4000244140625</ele>
        <time>2026-06-17T11:03:05.000Z</time>
        <extensions>
          <ns3:TrackPointExtension>
            <ns3:atemp>21.0</ns3:atemp>
          </ns3:TrackPointExtension>
        </extensions>
      </trkpt>
      <trkpt lat="42.5127843953669071197509765625" lon="19.9059672653675079345703125">
        <ele>2002.4000244140625</ele>
        <time>2026-06-17T11:03:06.000Z</time>
        <extensions>
          <ns3:TrackPointExtension>
            <ns3:atemp>21.0</ns3:atemp>
          </ns3:TrackPointExtension>
        </extensions>
      </trkpt>
      <trkpt lat="42.5127843953669071197509765625" lon="19.9059672653675079345703125">
        <ele>2002.4000244140625</ele>
        <time>2026-06-17T11:03:07.000Z</time>
        <extensions>
          <ns3:TrackPointExtension>
            <ns3:atemp>21.0</ns3:atemp>
          </ns3:TrackPointExtension>
        </extensions>
      </trkpt>
      <trkpt lat="42.5127843953669071197509765625" lon="19.9059672653675079345703125">
        <ele>2002.4000244140625</ele>
        <time>2026-06-17T11:03:08.000Z</time>
        <extensions>
          <ns3:TrackPointExtension>
            <ns3:atemp>21.0</ns3:atemp>
          </ns3:TrackPointExtension>
        </extensions>
      </trkpt>
      <trkpt lat="42.5127843953669071197509765625" lon="19.9059672653675079345703125">
        <ele>2002.4000244140625</ele>
        <time>2026-06-17T11:03:09.000Z</time>
        <extensions>
          <ns3:TrackPointExtension>
            <ns3:atemp>21.0</ns3:atemp>
          </ns3:TrackPointExtension>
        </extensions>
      </trkpt>
      <trkpt lat="42.5127843953669071197509765625" lon="19.9059672653675079345703125">
        <ele>2002.4000244140625</ele>
        <time>2026-06-17T11:03:10.000Z</time>
        <extensions>
          <ns3:TrackPointExtension>
            <ns3:atemp>21.0</ns3:atemp>
          </ns3:TrackPointExtension>
        </extensions>
      </trkpt>
      <trkpt lat="42.5127843953669071197509765625" lon="19.9059672653675079345703125">
        <ele>2002.4000244140625</ele>
        <time>2026-06-17T11:03:11.000Z</time>
        <extensions>
          <ns3:TrackPointExtension>
            <ns3:atemp>21.0</ns3:atemp>
          </ns3:TrackPointExtension>
        </extensions>
      </trkpt>
      <trkpt lat="42.5127843953669071197509765625" lon="19.9059672653675079345703125">
        <ele>2002.4000244140625</ele>
        <time>2026-06-17T11:03:12.000Z</time>
        <extensions>
          <ns3:TrackPointExtension>
            <ns3:atemp>21.0</ns3:atemp>
          </ns3:TrackPointExtension>
        </extensions>
      </trkpt>
      <trkpt lat="42.5127843953669071197509765625" lon="19.9059672653675079345703125">
        <ele>2002.4000244140625</ele>
        <time>2026-06-17T11:03:13.000Z</time>
        <extensions>
          <ns3:TrackPointExtension>
            <ns3:atemp>21.0</ns3:atemp>
          </ns3:TrackPointExtension>
        </extensions>
      </trkpt>
      <trkpt lat="42.5127843953669071197509765625" lon="19.9059672653675079345703125">
        <ele>2002.4000244140625</ele>
        <time>2026-06-17T11:03:14.000Z</time>
        <extensions>
          <ns3:TrackPointExtension>
            <ns3:atemp>21.0</ns3:atemp>
          </ns3:TrackPointExtension>
        </extensions>
      </trkpt>
      <trkpt lat="42.5127843953669071197509765625" lon="19.9059672653675079345703125">
        <ele>2002.4000244140625</ele>
        <time>2026-06-17T11:03:15.000Z</time>
        <extensions>
          <ns3:TrackPointExtension>
            <ns3:atemp>21.0</ns3:atemp>
          </ns3:TrackPointExtension>
        </extensions>
      </trkpt>
      <trkpt lat="42.5127843953669071197509765625" lon="19.9059672653675079345703125">
        <ele>2002.4000244140625</ele>
        <time>2026-06-17T11:03:16.000Z</time>
        <extensions>
          <ns3:TrackPointExtension>
            <ns3:atemp>21.0</ns3:atemp>
          </ns3:TrackPointExtension>
        </extensions>
      </trkpt>
      <trkpt lat="42.5127843953669071197509765625" lon="19.9059672653675079345703125">
        <ele>2002.4000244140625</ele>
        <time>2026-06-17T11:03:17.000Z</time>
        <extensions>
          <ns3:TrackPointExtension>
            <ns3:atemp>21.0</ns3:atemp>
          </ns3:TrackPointExtension>
        </extensions>
      </trkpt>
      <trkpt lat="42.5127843953669071197509765625" lon="19.9059672653675079345703125">
        <ele>2002.4000244140625</ele>
        <time>2026-06-17T11:03:18.000Z</time>
        <extensions>
          <ns3:TrackPointExtension>
            <ns3:atemp>21.0</ns3:atemp>
          </ns3:TrackPointExtension>
        </extensions>
      </trkpt>
      <trkpt lat="42.5127843953669071197509765625" lon="19.9059672653675079345703125">
        <ele>2002.4000244140625</ele>
        <time>2026-06-17T11:03:19.000Z</time>
        <extensions>
          <ns3:TrackPointExtension>
            <ns3:atemp>21.0</ns3:atemp>
          </ns3:TrackPointExtension>
        </extensions>
      </trkpt>
      <trkpt lat="42.5127843953669071197509765625" lon="19.9059672653675079345703125">
        <ele>2002.4000244140625</ele>
        <time>2026-06-17T11:03:20.000Z</time>
        <extensions>
          <ns3:TrackPointExtension>
            <ns3:atemp>21.0</ns3:atemp>
          </ns3:TrackPointExtension>
        </extensions>
      </trkpt>
      <trkpt lat="42.5127843953669071197509765625" lon="19.9059672653675079345703125">
        <ele>2002.4000244140625</ele>
        <time>2026-06-17T11:03:21.000Z</time>
        <extensions>
          <ns3:TrackPointExtension>
            <ns3:atemp>21.0</ns3:atemp>
          </ns3:TrackPointExtension>
        </extensions>
      </trkpt>
      <trkpt lat="42.5127843953669071197509765625" lon="19.9059672653675079345703125">
        <ele>2002.4000244140625</ele>
        <time>2026-06-17T11:03:22.000Z</time>
        <extensions>
          <ns3:TrackPointExtension>
            <ns3:atemp>21.0</ns3:atemp>
          </ns3:TrackPointExtension>
        </extensions>
      </trkpt>
      <trkpt lat="42.5127843953669071197509765625" lon="19.9059672653675079345703125">
        <ele>2002.4000244140625</ele>
        <time>2026-06-17T11:03:23.000Z</time>
        <extensions>
          <ns3:TrackPointExtension>
            <ns3:atemp>21.0</ns3:atemp>
          </ns3:TrackPointExtension>
        </extensions>
      </trkpt>
      <trkpt lat="42.5127843953669071197509765625" lon="19.9059672653675079345703125">
        <ele>2002.4000244140625</ele>
        <time>2026-06-17T11:03:24.000Z</time>
        <extensions>
          <ns3:TrackPointExtension>
            <ns3:atemp>21.0</ns3:atemp>
          </ns3:TrackPointExtension>
        </extensions>
      </trkpt>
      <trkpt lat="42.5127843953669071197509765625" lon="19.9059672653675079345703125">
        <ele>2002.4000244140625</ele>
        <time>2026-06-17T11:03:25.000Z</time>
        <extensions>
          <ns3:TrackPointExtension>
            <ns3:atemp>21.0</ns3:atemp>
          </ns3:TrackPointExtension>
        </extensions>
      </trkpt>
      <trkpt lat="42.5127843953669071197509765625" lon="19.9059672653675079345703125">
        <ele>2002.4000244140625</ele>
        <time>2026-06-17T11:03:26.000Z</time>
        <extensions>
          <ns3:TrackPointExtension>
            <ns3:atemp>21.0</ns3:atemp>
          </ns3:TrackPointExtension>
        </extensions>
      </trkpt>
      <trkpt lat="42.5127843953669071197509765625" lon="19.9059672653675079345703125">
        <ele>2002.4000244140625</ele>
        <time>2026-06-17T11:03:27.000Z</time>
        <extensions>
          <ns3:TrackPointExtension>
            <ns3:atemp>21.0</ns3:atemp>
          </ns3:TrackPointExtension>
        </extensions>
      </trkpt>
      <trkpt lat="42.5127843953669071197509765625" lon="19.9059672653675079345703125">
        <ele>2002.4000244140625</ele>
        <time>2026-06-17T11:03:28.000Z</time>
        <extensions>
          <ns3:TrackPointExtension>
            <ns3:atemp>21.0</ns3:atemp>
          </ns3:TrackPointExtension>
        </extensions>
      </trkpt>
      <trkpt lat="42.5127843953669071197509765625" lon="19.9059672653675079345703125">
        <ele>2002.4000244140625</ele>
        <time>2026-06-17T11:03:29.000Z</time>
        <extensions>
          <ns3:TrackPointExtension>
            <ns3:atemp>21.0</ns3:atemp>
          </ns3:TrackPointExtension>
        </extensions>
      </trkpt>
      <trkpt lat="42.5127843953669071197509765625" lon="19.9059672653675079345703125">
        <ele>2002.4000244140625</ele>
        <time>2026-06-17T11:03:30.000Z</time>
        <extensions>
          <ns3:TrackPointExtension>
            <ns3:atemp>21.0</ns3:atemp>
          </ns3:TrackPointExtension>
        </extensions>
      </trkpt>
      <trkpt lat="42.5127843953669071197509765625" lon="19.9059672653675079345703125">
        <ele>2002.4000244140625</ele>
        <time>2026-06-17T11:03:31.000Z</time>
        <extensions>
          <ns3:TrackPointExtension>
            <ns3:atemp>21.0</ns3:atemp>
          </ns3:TrackPointExtension>
        </extensions>
      </trkpt>
      <trkpt lat="42.5127843953669071197509765625" lon="19.9059672653675079345703125">
        <ele>2002.4000244140625</ele>
        <time>2026-06-17T11:03:32.000Z</time>
        <extensions>
          <ns3:TrackPointExtension>
            <ns3:atemp>21.0</ns3:atemp>
          </ns3:TrackPointExtension>
        </extensions>
      </trkpt>
      <trkpt lat="42.5127843953669071197509765625" lon="19.9059672653675079345703125">
        <ele>2002.4000244140625</ele>
        <time>2026-06-17T11:03:33.000Z</time>
        <extensions>
          <ns3:TrackPointExtension>
            <ns3:atemp>21.0</ns3:atemp>
          </ns3:TrackPointExtension>
        </extensions>
      </trkpt>
      <trkpt lat="42.5127843953669071197509765625" lon="19.9059672653675079345703125">
        <ele>2002.4000244140625</ele>
        <time>2026-06-17T11:03:34.000Z</time>
        <extensions>
          <ns3:TrackPointExtension>
            <ns3:atemp>21.0</ns3:atemp>
          </ns3:TrackPointExtension>
        </extensions>
      </trkpt>
      <trkpt lat="42.5127843953669071197509765625" lon="19.9059672653675079345703125">
        <ele>2002.4000244140625</ele>
        <time>2026-06-17T11:03:35.000Z</time>
        <extensions>
          <ns3:TrackPointExtension>
            <ns3:atemp>21.0</ns3:atemp>
          </ns3:TrackPointExtension>
        </extensions>
      </trkpt>
      <trkpt lat="42.5127843953669071197509765625" lon="19.9059672653675079345703125">
        <ele>2002.4000244140625</ele>
        <time>2026-06-17T11:03:36.000Z</time>
        <extensions>
          <ns3:TrackPointExtension>
            <ns3:atemp>21.0</ns3:atemp>
          </ns3:TrackPointExtension>
        </extensions>
      </trkpt>
      <trkpt lat="42.5127843953669071197509765625" lon="19.9059672653675079345703125">
        <ele>2002.4000244140625</ele>
        <time>2026-06-17T11:03:37.000Z</time>
        <extensions>
          <ns3:TrackPointExtension>
            <ns3:atemp>21.0</ns3:atemp>
          </ns3:TrackPointExtension>
        </extensions>
      </trkpt>
      <trkpt lat="42.5127843953669071197509765625" lon="19.9059672653675079345703125">
        <ele>2002.4000244140625</ele>
        <time>2026-06-17T11:03:38.000Z</time>
        <extensions>
          <ns3:TrackPointExtension>
            <ns3:atemp>21.0</ns3:atemp>
          </ns3:TrackPointExtension>
        </extensions>
      </trkpt>
      <trkpt lat="42.5127843953669071197509765625" lon="19.9059672653675079345703125">
        <ele>2002.4000244140625</ele>
        <time>2026-06-17T11:03:39.000Z</time>
        <extensions>
          <ns3:TrackPointExtension>
            <ns3:atemp>21.0</ns3:atemp>
          </ns3:TrackPointExtension>
        </extensions>
      </trkpt>
      <trkpt lat="42.5127843953669071197509765625" lon="19.9059672653675079345703125">
        <ele>2002.4000244140625</ele>
        <time>2026-06-17T11:03:40.000Z</time>
        <extensions>
          <ns3:TrackPointExtension>
            <ns3:atemp>21.0</ns3:atemp>
          </ns3:TrackPointExtension>
        </extensions>
      </trkpt>
      <trkpt lat="42.5127843953669071197509765625" lon="19.9059672653675079345703125">
        <ele>2002.4000244140625</ele>
        <time>2026-06-17T11:03:41.000Z</time>
        <extensions>
          <ns3:TrackPointExtension>
            <ns3:atemp>21.0</ns3:atemp>
          </ns3:TrackPointExtension>
        </extensions>
      </trkpt>
      <trkpt lat="42.5127843953669071197509765625" lon="19.9059672653675079345703125">
        <ele>2002.4000244140625</ele>
        <time>2026-06-17T11:03:42.000Z</time>
        <extensions>
          <ns3:TrackPointExtension>
            <ns3:atemp>21.0</ns3:atemp>
          </ns3:TrackPointExtension>
        </extensions>
      </trkpt>
      <trkpt lat="42.5127843953669071197509765625" lon="19.9059672653675079345703125">
        <ele>2002.4000244140625</ele>
        <time>2026-06-17T11:03:43.000Z</time>
        <extensions>
          <ns3:TrackPointExtension>
            <ns3:atemp>21.0</ns3:atemp>
          </ns3:TrackPointExtension>
        </extensions>
      </trkpt>
      <trkpt lat="42.5127843953669071197509765625" lon="19.9059672653675079345703125">
        <ele>2002.4000244140625</ele>
        <time>2026-06-17T11:03:44.000Z</time>
        <extensions>
          <ns3:TrackPointExtension>
            <ns3:atemp>21.0</ns3:atemp>
          </ns3:TrackPointExtension>
        </extensions>
      </trkpt>
      <trkpt lat="42.5127843953669071197509765625" lon="19.9059672653675079345703125">
        <ele>2002.4000244140625</ele>
        <time>2026-06-17T11:03:45.000Z</time>
        <extensions>
          <ns3:TrackPointExtension>
            <ns3:atemp>21.0</ns3:atemp>
          </ns3:TrackPointExtension>
        </extensions>
      </trkpt>
      <trkpt lat="42.5127843953669071197509765625" lon="19.9059672653675079345703125">
        <ele>2002.4000244140625</ele>
        <time>2026-06-17T11:03:46.000Z</time>
        <extensions>
          <ns3:TrackPointExtension>
            <ns3:atemp>21.0</ns3:atemp>
          </ns3:TrackPointExtension>
        </extensions>
      </trkpt>
      <trkpt lat="42.5127843953669071197509765625" lon="19.9059672653675079345703125">
        <ele>2002.4000244140625</ele>
        <time>2026-06-17T11:03:47.000Z</time>
        <extensions>
          <ns3:TrackPointExtension>
            <ns3:atemp>21.0</ns3:atemp>
          </ns3:TrackPointExtension>
        </extensions>
      </trkpt>
      <trkpt lat="42.5127843953669071197509765625" lon="19.9059672653675079345703125">
        <ele>2002.4000244140625</ele>
        <time>2026-06-17T11:03:48.000Z</time>
        <extensions>
          <ns3:TrackPointExtension>
            <ns3:atemp>21.0</ns3:atemp>
          </ns3:TrackPointExtension>
        </extensions>
      </trkpt>
      <trkpt lat="42.5127843953669071197509765625" lon="19.9059672653675079345703125">
        <ele>2002.4000244140625</ele>
        <time>2026-06-17T11:03:49.000Z</time>
        <extensions>
          <ns3:TrackPointExtension>
            <ns3:atemp>21.0</ns3:atemp>
          </ns3:TrackPointExtension>
        </extensions>
      </trkpt>
      <trkpt lat="42.5127843953669071197509765625" lon="19.9059672653675079345703125">
        <ele>2002.4000244140625</ele>
        <time>2026-06-17T11:03:50.000Z</time>
        <extensions>
          <ns3:TrackPointExtension>
            <ns3:atemp>21.0</ns3:atemp>
          </ns3:TrackPointExtension>
        </extensions>
      </trkpt>
      <trkpt lat="42.5127843953669071197509765625" lon="19.9059672653675079345703125">
        <ele>2002.4000244140625</ele>
        <time>2026-06-17T11:03:51.000Z</time>
        <extensions>
          <ns3:TrackPointExtension>
            <ns3:atemp>21.0</ns3:atemp>
          </ns3:TrackPointExtension>
        </extensions>
      </trkpt>
      <trkpt lat="42.5127843953669071197509765625" lon="19.9059672653675079345703125">
        <ele>2002.4000244140625</ele>
        <time>2026-06-17T11:03:52.000Z</time>
        <extensions>
          <ns3:TrackPointExtension>
            <ns3:atemp>21.0</ns3:atemp>
          </ns3:TrackPointExtension>
        </extensions>
      </trkpt>
      <trkpt lat="42.5127843953669071197509765625" lon="19.9059672653675079345703125">
        <ele>2002.4000244140625</ele>
        <time>2026-06-17T11:03:53.000Z</time>
        <extensions>
          <ns3:TrackPointExtension>
            <ns3:atemp>21.0</ns3:atemp>
          </ns3:TrackPointExtension>
        </extensions>
      </trkpt>
      <trkpt lat="42.5127843953669071197509765625" lon="19.9059672653675079345703125">
        <ele>2002.4000244140625</ele>
        <time>2026-06-17T11:03:54.000Z</time>
        <extensions>
          <ns3:TrackPointExtension>
            <ns3:atemp>21.0</ns3:atemp>
          </ns3:TrackPointExtension>
        </extensions>
      </trkpt>
      <trkpt lat="42.5127843953669071197509765625" lon="19.9059672653675079345703125">
        <ele>2002.4000244140625</ele>
        <time>2026-06-17T11:03:55.000Z</time>
        <extensions>
          <ns3:TrackPointExtension>
            <ns3:atemp>21.0</ns3:atemp>
          </ns3:TrackPointExtension>
        </extensions>
      </trkpt>
      <trkpt lat="42.5127843953669071197509765625" lon="19.9059672653675079345703125">
        <ele>2002.4000244140625</ele>
        <time>2026-06-17T11:03:56.000Z</time>
        <extensions>
          <ns3:TrackPointExtension>
            <ns3:atemp>21.0</ns3:atemp>
          </ns3:TrackPointExtension>
        </extensions>
      </trkpt>
      <trkpt lat="42.5127843953669071197509765625" lon="19.9059672653675079345703125">
        <ele>2002.4000244140625</ele>
        <time>2026-06-17T11:03:57.000Z</time>
        <extensions>
          <ns3:TrackPointExtension>
            <ns3:atemp>21.0</ns3:atemp>
          </ns3:TrackPointExtension>
        </extensions>
      </trkpt>
      <trkpt lat="42.5127843953669071197509765625" lon="19.9059672653675079345703125">
        <ele>2002.4000244140625</ele>
        <time>2026-06-17T11:03:58.000Z</time>
        <extensions>
          <ns3:TrackPointExtension>
            <ns3:atemp>21.0</ns3:atemp>
          </ns3:TrackPointExtension>
        </extensions>
      </trkpt>
      <trkpt lat="42.5127843953669071197509765625" lon="19.9059672653675079345703125">
        <ele>2002.4000244140625</ele>
        <time>2026-06-17T11:03:59.000Z</time>
        <extensions>
          <ns3:TrackPointExtension>
            <ns3:atemp>21.0</ns3:atemp>
          </ns3:TrackPointExtension>
        </extensions>
      </trkpt>
      <trkpt lat="42.5127843953669071197509765625" lon="19.9059672653675079345703125">
        <ele>2002.4000244140625</ele>
        <time>2026-06-17T11:04:00.000Z</time>
        <extensions>
          <ns3:TrackPointExtension>
            <ns3:atemp>21.0</ns3:atemp>
          </ns3:TrackPointExtension>
        </extensions>
      </trkpt>
      <trkpt lat="42.5127843953669071197509765625" lon="19.9059672653675079345703125">
        <ele>2002.4000244140625</ele>
        <time>2026-06-17T11:04:01.000Z</time>
        <extensions>
          <ns3:TrackPointExtension>
            <ns3:atemp>21.0</ns3:atemp>
          </ns3:TrackPointExtension>
        </extensions>
      </trkpt>
      <trkpt lat="42.5127843953669071197509765625" lon="19.9059672653675079345703125">
        <ele>2002.4000244140625</ele>
        <time>2026-06-17T11:04:02.000Z</time>
        <extensions>
          <ns3:TrackPointExtension>
            <ns3:atemp>21.0</ns3:atemp>
          </ns3:TrackPointExtension>
        </extensions>
      </trkpt>
      <trkpt lat="42.5127843953669071197509765625" lon="19.9059672653675079345703125">
        <ele>2002.4000244140625</ele>
        <time>2026-06-17T11:04:03.000Z</time>
        <extensions>
          <ns3:TrackPointExtension>
            <ns3:atemp>21.0</ns3:atemp>
          </ns3:TrackPointExtension>
        </extensions>
      </trkpt>
      <trkpt lat="42.5127843953669071197509765625" lon="19.9059672653675079345703125">
        <ele>2002.4000244140625</ele>
        <time>2026-06-17T11:04:04.000Z</time>
        <extensions>
          <ns3:TrackPointExtension>
            <ns3:atemp>21.0</ns3:atemp>
          </ns3:TrackPointExtension>
        </extensions>
      </trkpt>
      <trkpt lat="42.5127843953669071197509765625" lon="19.9059672653675079345703125">
        <ele>2002.4000244140625</ele>
        <time>2026-06-17T11:04:05.000Z</time>
        <extensions>
          <ns3:TrackPointExtension>
            <ns3:atemp>21.0</ns3:atemp>
          </ns3:TrackPointExtension>
        </extensions>
      </trkpt>
      <trkpt lat="42.5127843953669071197509765625" lon="19.9059672653675079345703125">
        <ele>2002.4000244140625</ele>
        <time>2026-06-17T11:04:06.000Z</time>
        <extensions>
          <ns3:TrackPointExtension>
            <ns3:atemp>21.0</ns3:atemp>
          </ns3:TrackPointExtension>
        </extensions>
      </trkpt>
      <trkpt lat="42.5127843953669071197509765625" lon="19.9059672653675079345703125">
        <ele>2002.4000244140625</ele>
        <time>2026-06-17T11:04:07.000Z</time>
        <extensions>
          <ns3:TrackPointExtension>
            <ns3:atemp>21.0</ns3:atemp>
          </ns3:TrackPointExtension>
        </extensions>
      </trkpt>
      <trkpt lat="42.5127843953669071197509765625" lon="19.9059672653675079345703125">
        <ele>2002.4000244140625</ele>
        <time>2026-06-17T11:04:08.000Z</time>
        <extensions>
          <ns3:TrackPointExtension>
            <ns3:atemp>21.0</ns3:atemp>
          </ns3:TrackPointExtension>
        </extensions>
      </trkpt>
      <trkpt lat="42.5127843953669071197509765625" lon="19.9059672653675079345703125">
        <ele>2002.4000244140625</ele>
        <time>2026-06-17T11:04:09.000Z</time>
        <extensions>
          <ns3:TrackPointExtension>
            <ns3:atemp>21.0</ns3:atemp>
          </ns3:TrackPointExtension>
        </extensions>
      </trkpt>
      <trkpt lat="42.5127843953669071197509765625" lon="19.9059672653675079345703125">
        <ele>2002.4000244140625</ele>
        <time>2026-06-17T11:04:10.000Z</time>
        <extensions>
          <ns3:TrackPointExtension>
            <ns3:atemp>21.0</ns3:atemp>
          </ns3:TrackPointExtension>
        </extensions>
      </trkpt>
      <trkpt lat="42.5127843953669071197509765625" lon="19.9059672653675079345703125">
        <ele>2002.4000244140625</ele>
        <time>2026-06-17T11:04:11.000Z</time>
        <extensions>
          <ns3:TrackPointExtension>
            <ns3:atemp>21.0</ns3:atemp>
          </ns3:TrackPointExtension>
        </extensions>
      </trkpt>
      <trkpt lat="42.5127843953669071197509765625" lon="19.9059672653675079345703125">
        <ele>2002.4000244140625</ele>
        <time>2026-06-17T11:04:12.000Z</time>
        <extensions>
          <ns3:TrackPointExtension>
            <ns3:atemp>21.0</ns3:atemp>
          </ns3:TrackPointExtension>
        </extensions>
      </trkpt>
      <trkpt lat="42.5127843953669071197509765625" lon="19.9059672653675079345703125">
        <ele>2002.4000244140625</ele>
        <time>2026-06-17T11:04:13.000Z</time>
        <extensions>
          <ns3:TrackPointExtension>
            <ns3:atemp>21.0</ns3:atemp>
          </ns3:TrackPointExtension>
        </extensions>
      </trkpt>
      <trkpt lat="42.5127843953669071197509765625" lon="19.9059672653675079345703125">
        <ele>2002.4000244140625</ele>
        <time>2026-06-17T11:04:14.000Z</time>
        <extensions>
          <ns3:TrackPointExtension>
            <ns3:atemp>21.0</ns3:atemp>
          </ns3:TrackPointExtension>
        </extensions>
      </trkpt>
      <trkpt lat="42.5127843953669071197509765625" lon="19.9059672653675079345703125">
        <ele>2002.4000244140625</ele>
        <time>2026-06-17T11:04:15.000Z</time>
        <extensions>
          <ns3:TrackPointExtension>
            <ns3:atemp>21.0</ns3:atemp>
          </ns3:TrackPointExtension>
        </extensions>
      </trkpt>
      <trkpt lat="42.5127843953669071197509765625" lon="19.9059672653675079345703125">
        <ele>2002.4000244140625</ele>
        <time>2026-06-17T11:04:16.000Z</time>
        <extensions>
          <ns3:TrackPointExtension>
            <ns3:atemp>21.0</ns3:atemp>
          </ns3:TrackPointExtension>
        </extensions>
      </trkpt>
      <trkpt lat="42.5127843953669071197509765625" lon="19.9059672653675079345703125">
        <ele>2002.4000244140625</ele>
        <time>2026-06-17T11:04:17.000Z</time>
        <extensions>
          <ns3:TrackPointExtension>
            <ns3:atemp>21.0</ns3:atemp>
          </ns3:TrackPointExtension>
        </extensions>
      </trkpt>
      <trkpt lat="42.5127843953669071197509765625" lon="19.9059672653675079345703125">
        <ele>2002.4000244140625</ele>
        <time>2026-06-17T11:04:18.000Z</time>
        <extensions>
          <ns3:TrackPointExtension>
            <ns3:atemp>21.0</ns3:atemp>
          </ns3:TrackPointExtension>
        </extensions>
      </trkpt>
      <trkpt lat="42.5127843953669071197509765625" lon="19.9059672653675079345703125">
        <ele>2002.4000244140625</ele>
        <time>2026-06-17T11:04:19.000Z</time>
        <extensions>
          <ns3:TrackPointExtension>
            <ns3:atemp>21.0</ns3:atemp>
          </ns3:TrackPointExtension>
        </extensions>
      </trkpt>
      <trkpt lat="42.5127843953669071197509765625" lon="19.9059672653675079345703125">
        <ele>2002.4000244140625</ele>
        <time>2026-06-17T11:04:20.000Z</time>
        <extensions>
          <ns3:TrackPointExtension>
            <ns3:atemp>21.0</ns3:atemp>
          </ns3:TrackPointExtension>
        </extensions>
      </trkpt>
      <trkpt lat="42.5127843953669071197509765625" lon="19.9059672653675079345703125">
        <ele>2002.4000244140625</ele>
        <time>2026-06-17T11:04:21.000Z</time>
        <extensions>
          <ns3:TrackPointExtension>
            <ns3:atemp>21.0</ns3:atemp>
          </ns3:TrackPointExtension>
        </extensions>
      </trkpt>
      <trkpt lat="42.5127843953669071197509765625" lon="19.9059672653675079345703125">
        <ele>2002.4000244140625</ele>
        <time>2026-06-17T11:04:22.000Z</time>
        <extensions>
          <ns3:TrackPointExtension>
            <ns3:atemp>21.0</ns3:atemp>
          </ns3:TrackPointExtension>
        </extensions>
      </trkpt>
      <trkpt lat="42.5127843953669071197509765625" lon="19.9059672653675079345703125">
        <ele>2002.4000244140625</ele>
        <time>2026-06-17T11:04:23.000Z</time>
        <extensions>
          <ns3:TrackPointExtension>
            <ns3:atemp>21.0</ns3:atemp>
          </ns3:TrackPointExtension>
        </extensions>
      </trkpt>
      <trkpt lat="42.5127843953669071197509765625" lon="19.9059672653675079345703125">
        <ele>2002.4000244140625</ele>
        <time>2026-06-17T11:04:24.000Z</time>
        <extensions>
          <ns3:TrackPointExtension>
            <ns3:atemp>21.0</ns3:atemp>
          </ns3:TrackPointExtension>
        </extensions>
      </trkpt>
      <trkpt lat="42.5127843953669071197509765625" lon="19.9059672653675079345703125">
        <ele>2002.4000244140625</ele>
        <time>2026-06-17T11:04:25.000Z</time>
        <extensions>
          <ns3:TrackPointExtension>
            <ns3:atemp>21.0</ns3:atemp>
          </ns3:TrackPointExtension>
        </extensions>
      </trkpt>
      <trkpt lat="42.5127843953669071197509765625" lon="19.9059672653675079345703125">
        <ele>2002.4000244140625</ele>
        <time>2026-06-17T11:04:26.000Z</time>
        <extensions>
          <ns3:TrackPointExtension>
            <ns3:atemp>21.0</ns3:atemp>
          </ns3:TrackPointExtension>
        </extensions>
      </trkpt>
      <trkpt lat="42.5127843953669071197509765625" lon="19.9059672653675079345703125">
        <ele>2002.4000244140625</ele>
        <time>2026-06-17T11:04:27.000Z</time>
        <extensions>
          <ns3:TrackPointExtension>
            <ns3:atemp>21.0</ns3:atemp>
          </ns3:TrackPointExtension>
        </extensions>
      </trkpt>
      <trkpt lat="42.5127843953669071197509765625" lon="19.9059672653675079345703125">
        <ele>2002.4000244140625</ele>
        <time>2026-06-17T11:04:28.000Z</time>
        <extensions>
          <ns3:TrackPointExtension>
            <ns3:atemp>21.0</ns3:atemp>
          </ns3:TrackPointExtension>
        </extensions>
      </trkpt>
      <trkpt lat="42.5127843953669071197509765625" lon="19.9059672653675079345703125">
        <ele>2002.4000244140625</ele>
        <time>2026-06-17T11:04:29.000Z</time>
        <extensions>
          <ns3:TrackPointExtension>
            <ns3:atemp>21.0</ns3:atemp>
          </ns3:TrackPointExtension>
        </extensions>
      </trkpt>
      <trkpt lat="42.5127843953669071197509765625" lon="19.9059672653675079345703125">
        <ele>2002.4000244140625</ele>
        <time>2026-06-17T11:04:30.000Z</time>
        <extensions>
          <ns3:TrackPointExtension>
            <ns3:atemp>21.0</ns3:atemp>
          </ns3:TrackPointExtension>
        </extensions>
      </trkpt>
      <trkpt lat="42.5127843953669071197509765625" lon="19.9059672653675079345703125">
        <ele>2002.4000244140625</ele>
        <time>2026-06-17T11:04:31.000Z</time>
        <extensions>
          <ns3:TrackPointExtension>
            <ns3:atemp>21.0</ns3:atemp>
          </ns3:TrackPointExtension>
        </extensions>
      </trkpt>
      <trkpt lat="42.5127843953669071197509765625" lon="19.9059672653675079345703125">
        <ele>2002.4000244140625</ele>
        <time>2026-06-17T11:04:32.000Z</time>
        <extensions>
          <ns3:TrackPointExtension>
            <ns3:atemp>21.0</ns3:atemp>
          </ns3:TrackPointExtension>
        </extensions>
      </trkpt>
      <trkpt lat="42.5127843953669071197509765625" lon="19.9059672653675079345703125">
        <ele>2002.4000244140625</ele>
        <time>2026-06-17T11:04:33.000Z</time>
        <extensions>
          <ns3:TrackPointExtension>
            <ns3:atemp>21.0</ns3:atemp>
          </ns3:TrackPointExtension>
        </extensions>
      </trkpt>
      <trkpt lat="42.5127843953669071197509765625" lon="19.9059672653675079345703125">
        <ele>2002.4000244140625</ele>
        <time>2026-06-17T11:04:34.000Z</time>
        <extensions>
          <ns3:TrackPointExtension>
            <ns3:atemp>21.0</ns3:atemp>
          </ns3:TrackPointExtension>
        </extensions>
      </trkpt>
      <trkpt lat="42.5127843953669071197509765625" lon="19.9059672653675079345703125">
        <ele>2002.4000244140625</ele>
        <time>2026-06-17T11:04:35.000Z</time>
        <extensions>
          <ns3:TrackPointExtension>
            <ns3:atemp>21.0</ns3:atemp>
          </ns3:TrackPointExtension>
        </extensions>
      </trkpt>
      <trkpt lat="42.5127843953669071197509765625" lon="19.9059672653675079345703125">
        <ele>2002.4000244140625</ele>
        <time>2026-06-17T11:04:36.000Z</time>
        <extensions>
          <ns3:TrackPointExtension>
            <ns3:atemp>21.0</ns3:atemp>
          </ns3:TrackPointExtension>
        </extensions>
      </trkpt>
      <trkpt lat="42.5127843953669071197509765625" lon="19.9059672653675079345703125">
        <ele>2002.4000244140625</ele>
        <time>2026-06-17T11:04:37.000Z</time>
        <extensions>
          <ns3:TrackPointExtension>
            <ns3:atemp>21.0</ns3:atemp>
          </ns3:TrackPointExtension>
        </extensions>
      </trkpt>
      <trkpt lat="42.5127843953669071197509765625" lon="19.9059672653675079345703125">
        <ele>2002.4000244140625</ele>
        <time>2026-06-17T11:04:38.000Z</time>
        <extensions>
          <ns3:TrackPointExtension>
            <ns3:atemp>21.0</ns3:atemp>
          </ns3:TrackPointExtension>
        </extensions>
      </trkpt>
      <trkpt lat="42.5127843953669071197509765625" lon="19.9059672653675079345703125">
        <ele>2002.4000244140625</ele>
        <time>2026-06-17T11:04:39.000Z</time>
        <extensions>
          <ns3:TrackPointExtension>
            <ns3:atemp>21.0</ns3:atemp>
          </ns3:TrackPointExtension>
        </extensions>
      </trkpt>
      <trkpt lat="42.5127843953669071197509765625" lon="19.9059672653675079345703125">
        <ele>2002.4000244140625</ele>
        <time>2026-06-17T11:04:40.000Z</time>
        <extensions>
          <ns3:TrackPointExtension>
            <ns3:atemp>21.0</ns3:atemp>
          </ns3:TrackPointExtension>
        </extensions>
      </trkpt>
      <trkpt lat="42.5127843953669071197509765625" lon="19.9059672653675079345703125">
        <ele>2002.4000244140625</ele>
        <time>2026-06-17T11:04:41.000Z</time>
        <extensions>
          <ns3:TrackPointExtension>
            <ns3:atemp>21.0</ns3:atemp>
          </ns3:TrackPointExtension>
        </extensions>
      </trkpt>
      <trkpt lat="42.5127843953669071197509765625" lon="19.9059672653675079345703125">
        <ele>2002.4000244140625</ele>
        <time>2026-06-17T11:04:42.000Z</time>
        <extensions>
          <ns3:TrackPointExtension>
            <ns3:atemp>21.0</ns3:atemp>
          </ns3:TrackPointExtension>
        </extensions>
      </trkpt>
      <trkpt lat="42.5127843953669071197509765625" lon="19.9059672653675079345703125">
        <ele>2002.4000244140625</ele>
        <time>2026-06-17T11:04:43.000Z</time>
        <extensions>
          <ns3:TrackPointExtension>
            <ns3:atemp>21.0</ns3:atemp>
          </ns3:TrackPointExtension>
        </extensions>
      </trkpt>
      <trkpt lat="42.5127843953669071197509765625" lon="19.9059672653675079345703125">
        <ele>2002.4000244140625</ele>
        <time>2026-06-17T11:04:44.000Z</time>
        <extensions>
          <ns3:TrackPointExtension>
            <ns3:atemp>21.0</ns3:atemp>
          </ns3:TrackPointExtension>
        </extensions>
      </trkpt>
      <trkpt lat="42.5127843953669071197509765625" lon="19.9059672653675079345703125">
        <ele>2002.4000244140625</ele>
        <time>2026-06-17T11:04:45.000Z</time>
        <extensions>
          <ns3:TrackPointExtension>
            <ns3:atemp>21.0</ns3:atemp>
          </ns3:TrackPointExtension>
        </extensions>
      </trkpt>
      <trkpt lat="42.5127843953669071197509765625" lon="19.9059672653675079345703125">
        <ele>2002.4000244140625</ele>
        <time>2026-06-17T11:04:46.000Z</time>
        <extensions>
          <ns3:TrackPointExtension>
            <ns3:atemp>21.0</ns3:atemp>
          </ns3:TrackPointExtension>
        </extensions>
      </trkpt>
      <trkpt lat="42.5127843953669071197509765625" lon="19.9059672653675079345703125">
        <ele>2002.4000244140625</ele>
        <time>2026-06-17T11:04:47.000Z</time>
        <extensions>
          <ns3:TrackPointExtension>
            <ns3:atemp>21.0</ns3:atemp>
          </ns3:TrackPointExtension>
        </extensions>
      </trkpt>
      <trkpt lat="42.5127843953669071197509765625" lon="19.9059672653675079345703125">
        <ele>2002.4000244140625</ele>
        <time>2026-06-17T11:04:48.000Z</time>
        <extensions>
          <ns3:TrackPointExtension>
            <ns3:atemp>21.0</ns3:atemp>
          </ns3:TrackPointExtension>
        </extensions>
      </trkpt>
      <trkpt lat="42.5127843953669071197509765625" lon="19.9059672653675079345703125">
        <ele>2002.4000244140625</ele>
        <time>2026-06-17T11:04:49.000Z</time>
        <extensions>
          <ns3:TrackPointExtension>
            <ns3:atemp>21.0</ns3:atemp>
          </ns3:TrackPointExtension>
        </extensions>
      </trkpt>
      <trkpt lat="42.5127843953669071197509765625" lon="19.9059672653675079345703125">
        <ele>2002.4000244140625</ele>
        <time>2026-06-17T11:04:50.000Z</time>
        <extensions>
          <ns3:TrackPointExtension>
            <ns3:atemp>21.0</ns3:atemp>
          </ns3:TrackPointExtension>
        </extensions>
      </trkpt>
      <trkpt lat="42.5127843953669071197509765625" lon="19.9059672653675079345703125">
        <ele>2002.4000244140625</ele>
        <time>2026-06-17T11:04:51.000Z</time>
        <extensions>
          <ns3:TrackPointExtension>
            <ns3:atemp>21.0</ns3:atemp>
          </ns3:TrackPointExtension>
        </extensions>
      </trkpt>
      <trkpt lat="42.5127843953669071197509765625" lon="19.9059672653675079345703125">
        <ele>2002.4000244140625</ele>
        <time>2026-06-17T11:04:52.000Z</time>
        <extensions>
          <ns3:TrackPointExtension>
            <ns3:atemp>21.0</ns3:atemp>
          </ns3:TrackPointExtension>
        </extensions>
      </trkpt>
      <trkpt lat="42.5127843953669071197509765625" lon="19.9059672653675079345703125">
        <ele>2002.4000244140625</ele>
        <time>2026-06-17T11:04:53.000Z</time>
        <extensions>
          <ns3:TrackPointExtension>
            <ns3:atemp>21.0</ns3:atemp>
          </ns3:TrackPointExtension>
        </extensions>
      </trkpt>
      <trkpt lat="42.5127843953669071197509765625" lon="19.9059672653675079345703125">
        <ele>2002.4000244140625</ele>
        <time>2026-06-17T11:04:54.000Z</time>
        <extensions>
          <ns3:TrackPointExtension>
            <ns3:atemp>21.0</ns3:atemp>
          </ns3:TrackPointExtension>
        </extensions>
      </trkpt>
      <trkpt lat="42.5127843953669071197509765625" lon="19.9059672653675079345703125">
        <ele>2002.4000244140625</ele>
        <time>2026-06-17T11:04:55.000Z</time>
        <extensions>
          <ns3:TrackPointExtension>
            <ns3:atemp>21.0</ns3:atemp>
          </ns3:TrackPointExtension>
        </extensions>
      </trkpt>
      <trkpt lat="42.5127843953669071197509765625" lon="19.9059672653675079345703125">
        <ele>2002.4000244140625</ele>
        <time>2026-06-17T11:04:56.000Z</time>
        <extensions>
          <ns3:TrackPointExtension>
            <ns3:atemp>21.0</ns3:atemp>
          </ns3:TrackPointExtension>
        </extensions>
      </trkpt>
      <trkpt lat="42.5127843953669071197509765625" lon="19.9059672653675079345703125">
        <ele>2002.4000244140625</ele>
        <time>2026-06-17T11:04:57.000Z</time>
        <extensions>
          <ns3:TrackPointExtension>
            <ns3:atemp>21.0</ns3:atemp>
          </ns3:TrackPointExtension>
        </extensions>
      </trkpt>
      <trkpt lat="42.5127843953669071197509765625" lon="19.9059672653675079345703125">
        <ele>2002.4000244140625</ele>
        <time>2026-06-17T11:04:58.000Z</time>
        <extensions>
          <ns3:TrackPointExtension>
            <ns3:atemp>21.0</ns3:atemp>
          </ns3:TrackPointExtension>
        </extensions>
      </trkpt>
      <trkpt lat="42.5127843953669071197509765625" lon="19.9059672653675079345703125">
        <ele>2002.4000244140625</ele>
        <time>2026-06-17T11:04:59.000Z</time>
        <extensions>
          <ns3:TrackPointExtension>
            <ns3:atemp>21.0</ns3:atemp>
          </ns3:TrackPointExtension>
        </extensions>
      </trkpt>
      <trkpt lat="42.5127843953669071197509765625" lon="19.9059672653675079345703125">
        <ele>2002.4000244140625</ele>
        <time>2026-06-17T11:05:00.000Z</time>
        <extensions>
          <ns3:TrackPointExtension>
            <ns3:atemp>21.0</ns3:atemp>
          </ns3:TrackPointExtension>
        </extensions>
      </trkpt>
      <trkpt lat="42.5127843953669071197509765625" lon="19.9059672653675079345703125">
        <ele>2002.4000244140625</ele>
        <time>2026-06-17T11:05:01.000Z</time>
        <extensions>
          <ns3:TrackPointExtension>
            <ns3:atemp>21.0</ns3:atemp>
          </ns3:TrackPointExtension>
        </extensions>
      </trkpt>
      <trkpt lat="42.5127843953669071197509765625" lon="19.9059672653675079345703125">
        <ele>2002.4000244140625</ele>
        <time>2026-06-17T11:05:02.000Z</time>
        <extensions>
          <ns3:TrackPointExtension>
            <ns3:atemp>21.0</ns3:atemp>
          </ns3:TrackPointExtension>
        </extensions>
      </trkpt>
      <trkpt lat="42.5127843953669071197509765625" lon="19.9059672653675079345703125">
        <ele>2002.4000244140625</ele>
        <time>2026-06-17T11:05:03.000Z</time>
        <extensions>
          <ns3:TrackPointExtension>
            <ns3:atemp>21.0</ns3:atemp>
          </ns3:TrackPointExtension>
        </extensions>
      </trkpt>
      <trkpt lat="42.5127843953669071197509765625" lon="19.9059672653675079345703125">
        <ele>2002.4000244140625</ele>
        <time>2026-06-17T11:05:04.000Z</time>
        <extensions>
          <ns3:TrackPointExtension>
            <ns3:atemp>21.0</ns3:atemp>
          </ns3:TrackPointExtension>
        </extensions>
      </trkpt>
      <trkpt lat="42.5127843953669071197509765625" lon="19.9059672653675079345703125">
        <ele>2002.4000244140625</ele>
        <time>2026-06-17T11:05:05.000Z</time>
        <extensions>
          <ns3:TrackPointExtension>
            <ns3:atemp>21.0</ns3:atemp>
          </ns3:TrackPointExtension>
        </extensions>
      </trkpt>
      <trkpt lat="42.5127843953669071197509765625" lon="19.9059672653675079345703125">
        <ele>2002.4000244140625</ele>
        <time>2026-06-17T11:05:06.000Z</time>
        <extensions>
          <ns3:TrackPointExtension>
            <ns3:atemp>21.0</ns3:atemp>
          </ns3:TrackPointExtension>
        </extensions>
      </trkpt>
      <trkpt lat="42.5127843953669071197509765625" lon="19.9059672653675079345703125">
        <ele>2002.4000244140625</ele>
        <time>2026-06-17T11:05:07.000Z</time>
        <extensions>
          <ns3:TrackPointExtension>
            <ns3:atemp>21.0</ns3:atemp>
          </ns3:TrackPointExtension>
        </extensions>
      </trkpt>
      <trkpt lat="42.5127843953669071197509765625" lon="19.9059672653675079345703125">
        <ele>2002.4000244140625</ele>
        <time>2026-06-17T11:05:08.000Z</time>
        <extensions>
          <ns3:TrackPointExtension>
            <ns3:atemp>21.0</ns3:atemp>
          </ns3:TrackPointExtension>
        </extensions>
      </trkpt>
      <trkpt lat="42.5127843953669071197509765625" lon="19.9059672653675079345703125">
        <ele>2002.4000244140625</ele>
        <time>2026-06-17T11:05:09.000Z</time>
        <extensions>
          <ns3:TrackPointExtension>
            <ns3:atemp>21.0</ns3:atemp>
          </ns3:TrackPointExtension>
        </extensions>
      </trkpt>
      <trkpt lat="42.5127843953669071197509765625" lon="19.9059672653675079345703125">
        <ele>2002.4000244140625</ele>
        <time>2026-06-17T11:05:10.000Z</time>
        <extensions>
          <ns3:TrackPointExtension>
            <ns3:atemp>21.0</ns3:atemp>
          </ns3:TrackPointExtension>
        </extensions>
      </trkpt>
      <trkpt lat="42.5127843953669071197509765625" lon="19.9059672653675079345703125">
        <ele>2002.4000244140625</ele>
        <time>2026-06-17T11:05:11.000Z</time>
        <extensions>
          <ns3:TrackPointExtension>
            <ns3:atemp>21.0</ns3:atemp>
          </ns3:TrackPointExtension>
        </extensions>
      </trkpt>
      <trkpt lat="42.5127843953669071197509765625" lon="19.9059672653675079345703125">
        <ele>2002.4000244140625</ele>
        <time>2026-06-17T11:05:12.000Z</time>
        <extensions>
          <ns3:TrackPointExtension>
            <ns3:atemp>21.0</ns3:atemp>
          </ns3:TrackPointExtension>
        </extensions>
      </trkpt>
      <trkpt lat="42.5127843953669071197509765625" lon="19.9059672653675079345703125">
        <ele>2002.4000244140625</ele>
        <time>2026-06-17T11:05:13.000Z</time>
        <extensions>
          <ns3:TrackPointExtension>
            <ns3:atemp>21.0</ns3:atemp>
          </ns3:TrackPointExtension>
        </extensions>
      </trkpt>
      <trkpt lat="42.5127843953669071197509765625" lon="19.9059672653675079345703125">
        <ele>2002.4000244140625</ele>
        <time>2026-06-17T11:05:14.000Z</time>
        <extensions>
          <ns3:TrackPointExtension>
            <ns3:atemp>21.0</ns3:atemp>
          </ns3:TrackPointExtension>
        </extensions>
      </trkpt>
      <trkpt lat="42.5127843953669071197509765625" lon="19.9059672653675079345703125">
        <ele>2002.4000244140625</ele>
        <time>2026-06-17T11:05:15.000Z</time>
        <extensions>
          <ns3:TrackPointExtension>
            <ns3:atemp>21.0</ns3:atemp>
          </ns3:TrackPointExtension>
        </extensions>
      </trkpt>
      <trkpt lat="42.5127843953669071197509765625" lon="19.9059672653675079345703125">
        <ele>2002.4000244140625</ele>
        <time>2026-06-17T11:05:16.000Z</time>
        <extensions>
          <ns3:TrackPointExtension>
            <ns3:atemp>21.0</ns3:atemp>
          </ns3:TrackPointExtension>
        </extensions>
      </trkpt>
      <trkpt lat="42.5127843953669071197509765625" lon="19.9059672653675079345703125">
        <ele>2002.4000244140625</ele>
        <time>2026-06-17T11:05:17.000Z</time>
        <extensions>
          <ns3:TrackPointExtension>
            <ns3:atemp>21.0</ns3:atemp>
          </ns3:TrackPointExtension>
        </extensions>
      </trkpt>
      <trkpt lat="42.5127843953669071197509765625" lon="19.9059672653675079345703125">
        <ele>2002.4000244140625</ele>
        <time>2026-06-17T11:05:18.000Z</time>
        <extensions>
          <ns3:TrackPointExtension>
            <ns3:atemp>21.0</ns3:atemp>
          </ns3:TrackPointExtension>
        </extensions>
      </trkpt>
      <trkpt lat="42.5127843953669071197509765625" lon="19.9059672653675079345703125">
        <ele>2002.4000244140625</ele>
        <time>2026-06-17T11:05:19.000Z</time>
        <extensions>
          <ns3:TrackPointExtension>
            <ns3:atemp>21.0</ns3:atemp>
          </ns3:TrackPointExtension>
        </extensions>
      </trkpt>
      <trkpt lat="42.5127843953669071197509765625" lon="19.9059672653675079345703125">
        <ele>2002.4000244140625</ele>
        <time>2026-06-17T11:05:20.000Z</time>
        <extensions>
          <ns3:TrackPointExtension>
            <ns3:atemp>21.0</ns3:atemp>
          </ns3:TrackPointExtension>
        </extensions>
      </trkpt>
      <trkpt lat="42.5127843953669071197509765625" lon="19.9059672653675079345703125">
        <ele>2002.4000244140625</ele>
        <time>2026-06-17T11:05:21.000Z</time>
        <extensions>
          <ns3:TrackPointExtension>
            <ns3:atemp>21.0</ns3:atemp>
          </ns3:TrackPointExtension>
        </extensions>
      </trkpt>
      <trkpt lat="42.5127843953669071197509765625" lon="19.9059672653675079345703125">
        <ele>2002.4000244140625</ele>
        <time>2026-06-17T11:05:22.000Z</time>
        <extensions>
          <ns3:TrackPointExtension>
            <ns3:atemp>21.0</ns3:atemp>
          </ns3:TrackPointExtension>
        </extensions>
      </trkpt>
      <trkpt lat="42.5127843953669071197509765625" lon="19.9059672653675079345703125">
        <ele>2002.4000244140625</ele>
        <time>2026-06-17T11:05:23.000Z</time>
        <extensions>
          <ns3:TrackPointExtension>
            <ns3:atemp>21.0</ns3:atemp>
          </ns3:TrackPointExtension>
        </extensions>
      </trkpt>
      <trkpt lat="42.5127843953669071197509765625" lon="19.9059672653675079345703125">
        <ele>2002.4000244140625</ele>
        <time>2026-06-17T11:05:24.000Z</time>
        <extensions>
          <ns3:TrackPointExtension>
            <ns3:atemp>21.0</ns3:atemp>
          </ns3:TrackPointExtension>
        </extensions>
      </trkpt>
      <trkpt lat="42.5127843953669071197509765625" lon="19.9059672653675079345703125">
        <ele>2002.4000244140625</ele>
        <time>2026-06-17T11:05:25.000Z</time>
        <extensions>
          <ns3:TrackPointExtension>
            <ns3:atemp>21.0</ns3:atemp>
          </ns3:TrackPointExtension>
        </extensions>
      </trkpt>
      <trkpt lat="42.5127843953669071197509765625" lon="19.9059672653675079345703125">
        <ele>2002.4000244140625</ele>
        <time>2026-06-17T11:05:26.000Z</time>
        <extensions>
          <ns3:TrackPointExtension>
            <ns3:atemp>21.0</ns3:atemp>
          </ns3:TrackPointExtension>
        </extensions>
      </trkpt>
      <trkpt lat="42.5127843953669071197509765625" lon="19.9059672653675079345703125">
        <ele>2002.4000244140625</ele>
        <time>2026-06-17T11:05:27.000Z</time>
        <extensions>
          <ns3:TrackPointExtension>
            <ns3:atemp>21.0</ns3:atemp>
          </ns3:TrackPointExtension>
        </extensions>
      </trkpt>
      <trkpt lat="42.5127843953669071197509765625" lon="19.9059672653675079345703125">
        <ele>2002.4000244140625</ele>
        <time>2026-06-17T11:05:28.000Z</time>
        <extensions>
          <ns3:TrackPointExtension>
            <ns3:atemp>21.0</ns3:atemp>
          </ns3:TrackPointExtension>
        </extensions>
      </trkpt>
      <trkpt lat="42.5127843953669071197509765625" lon="19.9059672653675079345703125">
        <ele>2002.4000244140625</ele>
        <time>2026-06-17T11:05:29.000Z</time>
        <extensions>
          <ns3:TrackPointExtension>
            <ns3:atemp>21.0</ns3:atemp>
          </ns3:TrackPointExtension>
        </extensions>
      </trkpt>
      <trkpt lat="42.5127843953669071197509765625" lon="19.9059672653675079345703125">
        <ele>2002.4000244140625</ele>
        <time>2026-06-17T11:05:30.000Z</time>
        <extensions>
          <ns3:TrackPointExtension>
            <ns3:atemp>21.0</ns3:atemp>
          </ns3:TrackPointExtension>
        </extensions>
      </trkpt>
      <trkpt lat="42.5127843953669071197509765625" lon="19.9059672653675079345703125">
        <ele>2002.4000244140625</ele>
        <time>2026-06-17T11:05:31.000Z</time>
        <extensions>
          <ns3:TrackPointExtension>
            <ns3:atemp>21.0</ns3:atemp>
          </ns3:TrackPointExtension>
        </extensions>
      </trkpt>
      <trkpt lat="42.5127843953669071197509765625" lon="19.9059672653675079345703125">
        <ele>2002.4000244140625</ele>
        <time>2026-06-17T11:05:32.000Z</time>
        <extensions>
          <ns3:TrackPointExtension>
            <ns3:atemp>21.0</ns3:atemp>
          </ns3:TrackPointExtension>
        </extensions>
      </trkpt>
      <trkpt lat="42.5127843953669071197509765625" lon="19.9059672653675079345703125">
        <ele>2002.4000244140625</ele>
        <time>2026-06-17T11:05:33.000Z</time>
        <extensions>
          <ns3:TrackPointExtension>
            <ns3:atemp>21.0</ns3:atemp>
          </ns3:TrackPointExtension>
        </extensions>
      </trkpt>
      <trkpt lat="42.5127843953669071197509765625" lon="19.9059672653675079345703125">
        <ele>2002.4000244140625</ele>
        <time>2026-06-17T11:05:34.000Z</time>
        <extensions>
          <ns3:TrackPointExtension>
            <ns3:atemp>21.0</ns3:atemp>
          </ns3:TrackPointExtension>
        </extensions>
      </trkpt>
      <trkpt lat="42.5127843953669071197509765625" lon="19.9059672653675079345703125">
        <ele>2002.4000244140625</ele>
        <time>2026-06-17T11:05:35.000Z</time>
        <extensions>
          <ns3:TrackPointExtension>
            <ns3:atemp>21.0</ns3:atemp>
          </ns3:TrackPointExtension>
        </extensions>
      </trkpt>
      <trkpt lat="42.5127843953669071197509765625" lon="19.9059672653675079345703125">
        <ele>2002.4000244140625</ele>
        <time>2026-06-17T11:05:36.000Z</time>
        <extensions>
          <ns3:TrackPointExtension>
            <ns3:atemp>21.0</ns3:atemp>
          </ns3:TrackPointExtension>
        </extensions>
      </trkpt>
      <trkpt lat="42.5127843953669071197509765625" lon="19.9059672653675079345703125">
        <ele>2002.4000244140625</ele>
        <time>2026-06-17T11:05:37.000Z</time>
        <extensions>
          <ns3:TrackPointExtension>
            <ns3:atemp>21.0</ns3:atemp>
          </ns3:TrackPointExtension>
        </extensions>
      </trkpt>
      <trkpt lat="42.5127843953669071197509765625" lon="19.9059672653675079345703125">
        <ele>2002.4000244140625</ele>
        <time>2026-06-17T11:05:38.000Z</time>
        <extensions>
          <ns3:TrackPointExtension>
            <ns3:atemp>21.0</ns3:atemp>
          </ns3:TrackPointExtension>
        </extensions>
      </trkpt>
      <trkpt lat="42.5127843953669071197509765625" lon="19.9059672653675079345703125">
        <ele>2002.4000244140625</ele>
        <time>2026-06-17T11:05:39.000Z</time>
        <extensions>
          <ns3:TrackPointExtension>
            <ns3:atemp>21.0</ns3:atemp>
          </ns3:TrackPointExtension>
        </extensions>
      </trkpt>
      <trkpt lat="42.5127843953669071197509765625" lon="19.9059672653675079345703125">
        <ele>2002.4000244140625</ele>
        <time>2026-06-17T11:05:40.000Z</time>
        <extensions>
          <ns3:TrackPointExtension>
            <ns3:atemp>21.0</ns3:atemp>
          </ns3:TrackPointExtension>
        </extensions>
      </trkpt>
      <trkpt lat="42.5127843953669071197509765625" lon="19.9059672653675079345703125">
        <ele>2002.4000244140625</ele>
        <time>2026-06-17T11:05:41.000Z</time>
        <extensions>
          <ns3:TrackPointExtension>
            <ns3:atemp>21.0</ns3:atemp>
          </ns3:TrackPointExtension>
        </extensions>
      </trkpt>
      <trkpt lat="42.5127843953669071197509765625" lon="19.9059672653675079345703125">
        <ele>2002.4000244140625</ele>
        <time>2026-06-17T11:05:42.000Z</time>
        <extensions>
          <ns3:TrackPointExtension>
            <ns3:atemp>21.0</ns3:atemp>
          </ns3:TrackPointExtension>
        </extensions>
      </trkpt>
      <trkpt lat="42.5127843953669071197509765625" lon="19.9059672653675079345703125">
        <ele>2002.4000244140625</ele>
        <time>2026-06-17T11:05:43.000Z</time>
        <extensions>
          <ns3:TrackPointExtension>
            <ns3:atemp>21.0</ns3:atemp>
          </ns3:TrackPointExtension>
        </extensions>
      </trkpt>
      <trkpt lat="42.5127843953669071197509765625" lon="19.9059672653675079345703125">
        <ele>2002.4000244140625</ele>
        <time>2026-06-17T11:05:44.000Z</time>
        <extensions>
          <ns3:TrackPointExtension>
            <ns3:atemp>21.0</ns3:atemp>
          </ns3:TrackPointExtension>
        </extensions>
      </trkpt>
      <trkpt lat="42.5127843953669071197509765625" lon="19.9059672653675079345703125">
        <ele>2002.4000244140625</ele>
        <time>2026-06-17T11:05:45.000Z</time>
        <extensions>
          <ns3:TrackPointExtension>
            <ns3:atemp>21.0</ns3:atemp>
          </ns3:TrackPointExtension>
        </extensions>
      </trkpt>
      <trkpt lat="42.5127843953669071197509765625" lon="19.9059672653675079345703125">
        <ele>2002.4000244140625</ele>
        <time>2026-06-17T11:05:46.000Z</time>
        <extensions>
          <ns3:TrackPointExtension>
            <ns3:atemp>21.0</ns3:atemp>
          </ns3:TrackPointExtension>
        </extensions>
      </trkpt>
      <trkpt lat="42.5127843953669071197509765625" lon="19.9059672653675079345703125">
        <ele>2002.4000244140625</ele>
        <time>2026-06-17T11:05:47.000Z</time>
        <extensions>
          <ns3:TrackPointExtension>
            <ns3:atemp>21.0</ns3:atemp>
          </ns3:TrackPointExtension>
        </extensions>
      </trkpt>
      <trkpt lat="42.5127843953669071197509765625" lon="19.9059672653675079345703125">
        <ele>2002.4000244140625</ele>
        <time>2026-06-17T11:05:48.000Z</time>
        <extensions>
          <ns3:TrackPointExtension>
            <ns3:atemp>21.0</ns3:atemp>
          </ns3:TrackPointExtension>
        </extensions>
      </trkpt>
      <trkpt lat="42.5127843953669071197509765625" lon="19.9059672653675079345703125">
        <ele>2002.4000244140625</ele>
        <time>2026-06-17T11:05:49.000Z</time>
        <extensions>
          <ns3:TrackPointExtension>
            <ns3:atemp>21.0</ns3:atemp>
          </ns3:TrackPointExtension>
        </extensions>
      </trkpt>
      <trkpt lat="42.5127843953669071197509765625" lon="19.9059672653675079345703125">
        <ele>2002.4000244140625</ele>
        <time>2026-06-17T11:05:50.000Z</time>
        <extensions>
          <ns3:TrackPointExtension>
            <ns3:atemp>21.0</ns3:atemp>
          </ns3:TrackPointExtension>
        </extensions>
      </trkpt>
      <trkpt lat="42.5127843953669071197509765625" lon="19.9059672653675079345703125">
        <ele>2002.4000244140625</ele>
        <time>2026-06-17T11:05:51.000Z</time>
        <extensions>
          <ns3:TrackPointExtension>
            <ns3:atemp>21.0</ns3:atemp>
          </ns3:TrackPointExtension>
        </extensions>
      </trkpt>
      <trkpt lat="42.5127843953669071197509765625" lon="19.9059672653675079345703125">
        <ele>2002.4000244140625</ele>
        <time>2026-06-17T11:05:52.000Z</time>
        <extensions>
          <ns3:TrackPointExtension>
            <ns3:atemp>21.0</ns3:atemp>
          </ns3:TrackPointExtension>
        </extensions>
      </trkpt>
      <trkpt lat="42.5127843953669071197509765625" lon="19.9059672653675079345703125">
        <ele>2002.4000244140625</ele>
        <time>2026-06-17T11:05:53.000Z</time>
        <extensions>
          <ns3:TrackPointExtension>
            <ns3:atemp>21.0</ns3:atemp>
          </ns3:TrackPointExtension>
        </extensions>
      </trkpt>
      <trkpt lat="42.5127843953669071197509765625" lon="19.9059672653675079345703125">
        <ele>2002.4000244140625</ele>
        <time>2026-06-17T11:05:54.000Z</time>
        <extensions>
          <ns3:TrackPointExtension>
            <ns3:atemp>21.0</ns3:atemp>
          </ns3:TrackPointExtension>
        </extensions>
      </trkpt>
      <trkpt lat="42.5127843953669071197509765625" lon="19.9059672653675079345703125">
        <ele>2002.4000244140625</ele>
        <time>2026-06-17T11:05:55.000Z</time>
        <extensions>
          <ns3:TrackPointExtension>
            <ns3:atemp>21.0</ns3:atemp>
          </ns3:TrackPointExtension>
        </extensions>
      </trkpt>
      <trkpt lat="42.5127843953669071197509765625" lon="19.9059672653675079345703125">
        <ele>2002.4000244140625</ele>
        <time>2026-06-17T11:05:56.000Z</time>
        <extensions>
          <ns3:TrackPointExtension>
            <ns3:atemp>21.0</ns3:atemp>
          </ns3:TrackPointExtension>
        </extensions>
      </trkpt>
      <trkpt lat="42.5127843953669071197509765625" lon="19.9059672653675079345703125">
        <ele>2002.4000244140625</ele>
        <time>2026-06-17T11:05:57.000Z</time>
        <extensions>
          <ns3:TrackPointExtension>
            <ns3:atemp>21.0</ns3:atemp>
          </ns3:TrackPointExtension>
        </extensions>
      </trkpt>
      <trkpt lat="42.5127843953669071197509765625" lon="19.9059672653675079345703125">
        <ele>2002.4000244140625</ele>
        <time>2026-06-17T11:05:58.000Z</time>
        <extensions>
          <ns3:TrackPointExtension>
            <ns3:atemp>21.0</ns3:atemp>
          </ns3:TrackPointExtension>
        </extensions>
      </trkpt>
      <trkpt lat="42.5127843953669071197509765625" lon="19.9059672653675079345703125">
        <ele>2002.4000244140625</ele>
        <time>2026-06-17T11:05:59.000Z</time>
        <extensions>
          <ns3:TrackPointExtension>
            <ns3:atemp>21.0</ns3:atemp>
          </ns3:TrackPointExtension>
        </extensions>
      </trkpt>
      <trkpt lat="42.5127843953669071197509765625" lon="19.9059672653675079345703125">
        <ele>2002.4000244140625</ele>
        <time>2026-06-17T11:06:00.000Z</time>
        <extensions>
          <ns3:TrackPointExtension>
            <ns3:atemp>21.0</ns3:atemp>
          </ns3:TrackPointExtension>
        </extensions>
      </trkpt>
      <trkpt lat="42.5127843953669071197509765625" lon="19.9059672653675079345703125">
        <ele>2002.4000244140625</ele>
        <time>2026-06-17T11:06:01.000Z</time>
        <extensions>
          <ns3:TrackPointExtension>
            <ns3:atemp>21.0</ns3:atemp>
          </ns3:TrackPointExtension>
        </extensions>
      </trkpt>
      <trkpt lat="42.5127843953669071197509765625" lon="19.9059672653675079345703125">
        <ele>2002.4000244140625</ele>
        <time>2026-06-17T11:06:02.000Z</time>
        <extensions>
          <ns3:TrackPointExtension>
            <ns3:atemp>21.0</ns3:atemp>
          </ns3:TrackPointExtension>
        </extensions>
      </trkpt>
      <trkpt lat="42.5127843953669071197509765625" lon="19.9059672653675079345703125">
        <ele>2002.4000244140625</ele>
        <time>2026-06-17T11:06:03.000Z</time>
        <extensions>
          <ns3:TrackPointExtension>
            <ns3:atemp>21.0</ns3:atemp>
          </ns3:TrackPointExtension>
        </extensions>
      </trkpt>
      <trkpt lat="42.5127843953669071197509765625" lon="19.9059672653675079345703125">
        <ele>2002.4000244140625</ele>
        <time>2026-06-17T11:06:04.000Z</time>
        <extensions>
          <ns3:TrackPointExtension>
            <ns3:atemp>21.0</ns3:atemp>
          </ns3:TrackPointExtension>
        </extensions>
      </trkpt>
      <trkpt lat="42.5127843953669071197509765625" lon="19.9059672653675079345703125">
        <ele>2002.4000244140625</ele>
        <time>2026-06-17T11:06:05.000Z</time>
        <extensions>
          <ns3:TrackPointExtension>
            <ns3:atemp>21.0</ns3:atemp>
          </ns3:TrackPointExtension>
        </extensions>
      </trkpt>
      <trkpt lat="42.5127843953669071197509765625" lon="19.9059672653675079345703125">
        <ele>2002.4000244140625</ele>
        <time>2026-06-17T11:06:06.000Z</time>
        <extensions>
          <ns3:TrackPointExtension>
            <ns3:atemp>21.0</ns3:atemp>
          </ns3:TrackPointExtension>
        </extensions>
      </trkpt>
      <trkpt lat="42.5127843953669071197509765625" lon="19.9059672653675079345703125">
        <ele>2002.4000244140625</ele>
        <time>2026-06-17T11:06:07.000Z</time>
        <extensions>
          <ns3:TrackPointExtension>
            <ns3:atemp>21.0</ns3:atemp>
          </ns3:TrackPointExtension>
        </extensions>
      </trkpt>
      <trkpt lat="42.5127843953669071197509765625" lon="19.9059672653675079345703125">
        <ele>2002.4000244140625</ele>
        <time>2026-06-17T11:06:08.000Z</time>
        <extensions>
          <ns3:TrackPointExtension>
            <ns3:atemp>21.0</ns3:atemp>
          </ns3:TrackPointExtension>
        </extensions>
      </trkpt>
      <trkpt lat="42.5127843953669071197509765625" lon="19.9059672653675079345703125">
        <ele>2002.4000244140625</ele>
        <time>2026-06-17T11:06:09.000Z</time>
        <extensions>
          <ns3:TrackPointExtension>
            <ns3:atemp>21.0</ns3:atemp>
          </ns3:TrackPointExtension>
        </extensions>
      </trkpt>
      <trkpt lat="42.5127843953669071197509765625" lon="19.9059672653675079345703125">
        <ele>2002.4000244140625</ele>
        <time>2026-06-17T11:06:10.000Z</time>
        <extensions>
          <ns3:TrackPointExtension>
            <ns3:atemp>21.0</ns3:atemp>
          </ns3:TrackPointExtension>
        </extensions>
      </trkpt>
      <trkpt lat="42.5127843953669071197509765625" lon="19.9059672653675079345703125">
        <ele>2002.4000244140625</ele>
        <time>2026-06-17T11:06:11.000Z</time>
        <extensions>
          <ns3:TrackPointExtension>
            <ns3:atemp>21.0</ns3:atemp>
          </ns3:TrackPointExtension>
        </extensions>
      </trkpt>
      <trkpt lat="42.5127843953669071197509765625" lon="19.9059672653675079345703125">
        <ele>2002.4000244140625</ele>
        <time>2026-06-17T11:06:12.000Z</time>
        <extensions>
          <ns3:TrackPointExtension>
            <ns3:atemp>21.0</ns3:atemp>
          </ns3:TrackPointExtension>
        </extensions>
      </trkpt>
      <trkpt lat="42.5127843953669071197509765625" lon="19.9059672653675079345703125">
        <ele>2002.4000244140625</ele>
        <time>2026-06-17T11:06:13.000Z</time>
        <extensions>
          <ns3:TrackPointExtension>
            <ns3:atemp>21.0</ns3:atemp>
          </ns3:TrackPointExtension>
        </extensions>
      </trkpt>
      <trkpt lat="42.5127843953669071197509765625" lon="19.9059672653675079345703125">
        <ele>2002.4000244140625</ele>
        <time>2026-06-17T11:06:14.000Z</time>
        <extensions>
          <ns3:TrackPointExtension>
            <ns3:atemp>21.0</ns3:atemp>
          </ns3:TrackPointExtension>
        </extensions>
      </trkpt>
      <trkpt lat="42.5127843953669071197509765625" lon="19.9059672653675079345703125">
        <ele>2002.4000244140625</ele>
        <time>2026-06-17T11:06:15.000Z</time>
        <extensions>
          <ns3:TrackPointExtension>
            <ns3:atemp>21.0</ns3:atemp>
          </ns3:TrackPointExtension>
        </extensions>
      </trkpt>
      <trkpt lat="42.5127843953669071197509765625" lon="19.9059672653675079345703125">
        <ele>2002.4000244140625</ele>
        <time>2026-06-17T11:06:16.000Z</time>
        <extensions>
          <ns3:TrackPointExtension>
            <ns3:atemp>21.0</ns3:atemp>
          </ns3:TrackPointExtension>
        </extensions>
      </trkpt>
      <trkpt lat="42.5127843953669071197509765625" lon="19.9059672653675079345703125">
        <ele>2002.4000244140625</ele>
        <time>2026-06-17T11:06:17.000Z</time>
        <extensions>
          <ns3:TrackPointExtension>
            <ns3:atemp>21.0</ns3:atemp>
          </ns3:TrackPointExtension>
        </extensions>
      </trkpt>
      <trkpt lat="42.5127843953669071197509765625" lon="19.9059672653675079345703125">
        <ele>2002.4000244140625</ele>
        <time>2026-06-17T11:06:18.000Z</time>
        <extensions>
          <ns3:TrackPointExtension>
            <ns3:atemp>21.0</ns3:atemp>
          </ns3:TrackPointExtension>
        </extensions>
      </trkpt>
      <trkpt lat="42.5127843953669071197509765625" lon="19.9059672653675079345703125">
        <ele>2002.4000244140625</ele>
        <time>2026-06-17T11:06:19.000Z</time>
        <extensions>
          <ns3:TrackPointExtension>
            <ns3:atemp>21.0</ns3:atemp>
          </ns3:TrackPointExtension>
        </extensions>
      </trkpt>
      <trkpt lat="42.5127843953669071197509765625" lon="19.9059672653675079345703125">
        <ele>2002.4000244140625</ele>
        <time>2026-06-17T11:06:20.000Z</time>
        <extensions>
          <ns3:TrackPointExtension>
            <ns3:atemp>21.0</ns3:atemp>
          </ns3:TrackPointExtension>
        </extensions>
      </trkpt>
      <trkpt lat="42.5127843953669071197509765625" lon="19.9059672653675079345703125">
        <ele>2002.4000244140625</ele>
        <time>2026-06-17T11:06:21.000Z</time>
        <extensions>
          <ns3:TrackPointExtension>
            <ns3:atemp>21.0</ns3:atemp>
          </ns3:TrackPointExtension>
        </extensions>
      </trkpt>
      <trkpt lat="42.5127843953669071197509765625" lon="19.9059672653675079345703125">
        <ele>2002.4000244140625</ele>
        <time>2026-06-17T11:06:22.000Z</time>
        <extensions>
          <ns3:TrackPointExtension>
            <ns3:atemp>21.0</ns3:atemp>
          </ns3:TrackPointExtension>
        </extensions>
      </trkpt>
      <trkpt lat="42.5127843953669071197509765625" lon="19.9059672653675079345703125">
        <ele>2002.4000244140625</ele>
        <time>2026-06-17T11:06:23.000Z</time>
        <extensions>
          <ns3:TrackPointExtension>
            <ns3:atemp>21.0</ns3:atemp>
          </ns3:TrackPointExtension>
        </extensions>
      </trkpt>
      <trkpt lat="42.5127843953669071197509765625" lon="19.9059672653675079345703125">
        <ele>2002.4000244140625</ele>
        <time>2026-06-17T11:06:24.000Z</time>
        <extensions>
          <ns3:TrackPointExtension>
            <ns3:atemp>21.0</ns3:atemp>
          </ns3:TrackPointExtension>
        </extensions>
      </trkpt>
      <trkpt lat="42.5127843953669071197509765625" lon="19.9059672653675079345703125">
        <ele>2002.4000244140625</ele>
        <time>2026-06-17T11:06:25.000Z</time>
        <extensions>
          <ns3:TrackPointExtension>
            <ns3:atemp>21.0</ns3:atemp>
          </ns3:TrackPointExtension>
        </extensions>
      </trkpt>
      <trkpt lat="42.5127843953669071197509765625" lon="19.9059672653675079345703125">
        <ele>2002.4000244140625</ele>
        <time>2026-06-17T11:06:26.000Z</time>
        <extensions>
          <ns3:TrackPointExtension>
            <ns3:atemp>21.0</ns3:atemp>
          </ns3:TrackPointExtension>
        </extensions>
      </trkpt>
      <trkpt lat="42.5127843953669071197509765625" lon="19.9059672653675079345703125">
        <ele>2002.4000244140625</ele>
        <time>2026-06-17T11:06:27.000Z</time>
        <extensions>
          <ns3:TrackPointExtension>
            <ns3:atemp>21.0</ns3:atemp>
          </ns3:TrackPointExtension>
        </extensions>
      </trkpt>
      <trkpt lat="42.5127843953669071197509765625" lon="19.9059672653675079345703125">
        <ele>2002.4000244140625</ele>
        <time>2026-06-17T11:06:28.000Z</time>
        <extensions>
          <ns3:TrackPointExtension>
            <ns3:atemp>21.0</ns3:atemp>
          </ns3:TrackPointExtension>
        </extensions>
      </trkpt>
      <trkpt lat="42.5127843953669071197509765625" lon="19.9059672653675079345703125">
        <ele>2002.4000244140625</ele>
        <time>2026-06-17T11:06:29.000Z</time>
        <extensions>
          <ns3:TrackPointExtension>
            <ns3:atemp>21.0</ns3:atemp>
          </ns3:TrackPointExtension>
        </extensions>
      </trkpt>
      <trkpt lat="42.5127843953669071197509765625" lon="19.9059672653675079345703125">
        <ele>2002.4000244140625</ele>
        <time>2026-06-17T11:06:30.000Z</time>
        <extensions>
          <ns3:TrackPointExtension>
            <ns3:atemp>21.0</ns3:atemp>
          </ns3:TrackPointExtension>
        </extensions>
      </trkpt>
      <trkpt lat="42.5127843953669071197509765625" lon="19.9059672653675079345703125">
        <ele>2002.4000244140625</ele>
        <time>2026-06-17T11:06:31.000Z</time>
        <extensions>
          <ns3:TrackPointExtension>
            <ns3:atemp>21.0</ns3:atemp>
          </ns3:TrackPointExtension>
        </extensions>
      </trkpt>
      <trkpt lat="42.5127843953669071197509765625" lon="19.9059672653675079345703125">
        <ele>2002.4000244140625</ele>
        <time>2026-06-17T11:06:32.000Z</time>
        <extensions>
          <ns3:TrackPointExtension>
            <ns3:atemp>21.0</ns3:atemp>
          </ns3:TrackPointExtension>
        </extensions>
      </trkpt>
      <trkpt lat="42.5127843953669071197509765625" lon="19.9059672653675079345703125">
        <ele>2002.4000244140625</ele>
        <time>2026-06-17T11:06:33.000Z</time>
        <extensions>
          <ns3:TrackPointExtension>
            <ns3:atemp>21.0</ns3:atemp>
          </ns3:TrackPointExtension>
        </extensions>
      </trkpt>
      <trkpt lat="42.5127843953669071197509765625" lon="19.9059672653675079345703125">
        <ele>2002.4000244140625</ele>
        <time>2026-06-17T11:06:34.000Z</time>
        <extensions>
          <ns3:TrackPointExtension>
            <ns3:atemp>21.0</ns3:atemp>
          </ns3:TrackPointExtension>
        </extensions>
      </trkpt>
      <trkpt lat="42.5127843953669071197509765625" lon="19.9059672653675079345703125">
        <ele>2002.4000244140625</ele>
        <time>2026-06-17T11:06:35.000Z</time>
        <extensions>
          <ns3:TrackPointExtension>
            <ns3:atemp>21.0</ns3:atemp>
          </ns3:TrackPointExtension>
        </extensions>
      </trkpt>
      <trkpt lat="42.5127843953669071197509765625" lon="19.9059672653675079345703125">
        <ele>2002.4000244140625</ele>
        <time>2026-06-17T11:06:36.000Z</time>
        <extensions>
          <ns3:TrackPointExtension>
            <ns3:atemp>21.0</ns3:atemp>
          </ns3:TrackPointExtension>
        </extensions>
      </trkpt>
      <trkpt lat="42.5127843953669071197509765625" lon="19.9059672653675079345703125">
        <ele>2002.4000244140625</ele>
        <time>2026-06-17T11:06:37.000Z</time>
        <extensions>
          <ns3:TrackPointExtension>
            <ns3:atemp>21.0</ns3:atemp>
          </ns3:TrackPointExtension>
        </extensions>
      </trkpt>
      <trkpt lat="42.5127843953669071197509765625" lon="19.9059672653675079345703125">
        <ele>2002.4000244140625</ele>
        <time>2026-06-17T11:06:38.000Z</time>
        <extensions>
          <ns3:TrackPointExtension>
            <ns3:atemp>21.0</ns3:atemp>
          </ns3:TrackPointExtension>
        </extensions>
      </trkpt>
      <trkpt lat="42.5127843953669071197509765625" lon="19.9059672653675079345703125">
        <ele>2002.4000244140625</ele>
        <time>2026-06-17T11:06:39.000Z</time>
        <extensions>
          <ns3:TrackPointExtension>
            <ns3:atemp>21.0</ns3:atemp>
          </ns3:TrackPointExtension>
        </extensions>
      </trkpt>
      <trkpt lat="42.5127843953669071197509765625" lon="19.9059672653675079345703125">
        <ele>2002.4000244140625</ele>
        <time>2026-06-17T11:06:40.000Z</time>
        <extensions>
          <ns3:TrackPointExtension>
            <ns3:atemp>21.0</ns3:atemp>
          </ns3:TrackPointExtension>
        </extensions>
      </trkpt>
      <trkpt lat="42.5127843953669071197509765625" lon="19.9059672653675079345703125">
        <ele>2002.4000244140625</ele>
        <time>2026-06-17T11:06:41.000Z</time>
        <extensions>
          <ns3:TrackPointExtension>
            <ns3:atemp>21.0</ns3:atemp>
          </ns3:TrackPointExtension>
        </extensions>
      </trkpt>
      <trkpt lat="42.5127843953669071197509765625" lon="19.9059672653675079345703125">
        <ele>2002.4000244140625</ele>
        <time>2026-06-17T11:06:42.000Z</time>
        <extensions>
          <ns3:TrackPointExtension>
            <ns3:atemp>21.0</ns3:atemp>
          </ns3:TrackPointExtension>
        </extensions>
      </trkpt>
      <trkpt lat="42.5127843953669071197509765625" lon="19.9059672653675079345703125">
        <ele>2002.4000244140625</ele>
        <time>2026-06-17T11:06:43.000Z</time>
        <extensions>
          <ns3:TrackPointExtension>
            <ns3:atemp>21.0</ns3:atemp>
          </ns3:TrackPointExtension>
        </extensions>
      </trkpt>
      <trkpt lat="42.5127843953669071197509765625" lon="19.9059672653675079345703125">
        <ele>2002.4000244140625</ele>
        <time>2026-06-17T11:06:44.000Z</time>
        <extensions>
          <ns3:TrackPointExtension>
            <ns3:atemp>21.0</ns3:atemp>
          </ns3:TrackPointExtension>
        </extensions>
      </trkpt>
      <trkpt lat="42.5127843953669071197509765625" lon="19.9059672653675079345703125">
        <ele>2002.4000244140625</ele>
        <time>2026-06-17T11:06:45.000Z</time>
        <extensions>
          <ns3:TrackPointExtension>
            <ns3:atemp>21.0</ns3:atemp>
          </ns3:TrackPointExtension>
        </extensions>
      </trkpt>
      <trkpt lat="42.5127843953669071197509765625" lon="19.9059672653675079345703125">
        <ele>2002.4000244140625</ele>
        <time>2026-06-17T11:06:46.000Z</time>
        <extensions>
          <ns3:TrackPointExtension>
            <ns3:atemp>21.0</ns3:atemp>
          </ns3:TrackPointExtension>
        </extensions>
      </trkpt>
      <trkpt lat="42.5127843953669071197509765625" lon="19.9059672653675079345703125">
        <ele>2002.4000244140625</ele>
        <time>2026-06-17T11:06:47.000Z</time>
        <extensions>
          <ns3:TrackPointExtension>
            <ns3:atemp>21.0</ns3:atemp>
          </ns3:TrackPointExtension>
        </extensions>
      </trkpt>
      <trkpt lat="42.5127843953669071197509765625" lon="19.9059672653675079345703125">
        <ele>2002.4000244140625</ele>
        <time>2026-06-17T11:06:48.000Z</time>
        <extensions>
          <ns3:TrackPointExtension>
            <ns3:atemp>21.0</ns3:atemp>
          </ns3:TrackPointExtension>
        </extensions>
      </trkpt>
      <trkpt lat="42.5127843953669071197509765625" lon="19.9059672653675079345703125">
        <ele>2002.4000244140625</ele>
        <time>2026-06-17T11:06:49.000Z</time>
        <extensions>
          <ns3:TrackPointExtension>
            <ns3:atemp>21.0</ns3:atemp>
          </ns3:TrackPointExtension>
        </extensions>
      </trkpt>
      <trkpt lat="42.5127843953669071197509765625" lon="19.9059672653675079345703125">
        <ele>2002.4000244140625</ele>
        <time>2026-06-17T11:06:50.000Z</time>
        <extensions>
          <ns3:TrackPointExtension>
            <ns3:atemp>21.0</ns3:atemp>
          </ns3:TrackPointExtension>
        </extensions>
      </trkpt>
      <trkpt lat="42.5127843953669071197509765625" lon="19.9059672653675079345703125">
        <ele>2002.4000244140625</ele>
        <time>2026-06-17T11:06:51.000Z</time>
        <extensions>
          <ns3:TrackPointExtension>
            <ns3:atemp>21.0</ns3:atemp>
          </ns3:TrackPointExtension>
        </extensions>
      </trkpt>
      <trkpt lat="42.5127843953669071197509765625" lon="19.9059672653675079345703125">
        <ele>2002.4000244140625</ele>
        <time>2026-06-17T11:06:52.000Z</time>
        <extensions>
          <ns3:TrackPointExtension>
            <ns3:atemp>21.0</ns3:atemp>
          </ns3:TrackPointExtension>
        </extensions>
      </trkpt>
      <trkpt lat="42.5127843953669071197509765625" lon="19.9059672653675079345703125">
        <ele>2002.4000244140625</ele>
        <time>2026-06-17T11:06:53.000Z</time>
        <extensions>
          <ns3:TrackPointExtension>
            <ns3:atemp>21.0</ns3:atemp>
          </ns3:TrackPointExtension>
        </extensions>
      </trkpt>
      <trkpt lat="42.5127843953669071197509765625" lon="19.9059672653675079345703125">
        <ele>2002.4000244140625</ele>
        <time>2026-06-17T11:06:54.000Z</time>
        <extensions>
          <ns3:TrackPointExtension>
            <ns3:atemp>21.0</ns3:atemp>
          </ns3:TrackPointExtension>
        </extensions>
      </trkpt>
      <trkpt lat="42.5127843953669071197509765625" lon="19.9059672653675079345703125">
        <ele>2002.4000244140625</ele>
        <time>2026-06-17T11:06:55.000Z</time>
        <extensions>
          <ns3:TrackPointExtension>
            <ns3:atemp>21.0</ns3:atemp>
          </ns3:TrackPointExtension>
        </extensions>
      </trkpt>
      <trkpt lat="42.5127843953669071197509765625" lon="19.9059672653675079345703125">
        <ele>2002.4000244140625</ele>
        <time>2026-06-17T11:06:56.000Z</time>
        <extensions>
          <ns3:TrackPointExtension>
            <ns3:atemp>21.0</ns3:atemp>
          </ns3:TrackPointExtension>
        </extensions>
      </trkpt>
      <trkpt lat="42.5127843953669071197509765625" lon="19.9059672653675079345703125">
        <ele>2002.4000244140625</ele>
        <time>2026-06-17T11:06:57.000Z</time>
        <extensions>
          <ns3:TrackPointExtension>
            <ns3:atemp>21.0</ns3:atemp>
          </ns3:TrackPointExtension>
        </extensions>
      </trkpt>
      <trkpt lat="42.5127843953669071197509765625" lon="19.9059672653675079345703125">
        <ele>2002.4000244140625</ele>
        <time>2026-06-17T11:06:58.000Z</time>
        <extensions>
          <ns3:TrackPointExtension>
            <ns3:atemp>21.0</ns3:atemp>
          </ns3:TrackPointExtension>
        </extensions>
      </trkpt>
      <trkpt lat="42.5127843953669071197509765625" lon="19.9059672653675079345703125">
        <ele>2002.4000244140625</ele>
        <time>2026-06-17T11:06:59.000Z</time>
        <extensions>
          <ns3:TrackPointExtension>
            <ns3:atemp>21.0</ns3:atemp>
          </ns3:TrackPointExtension>
        </extensions>
      </trkpt>
      <trkpt lat="42.5127843953669071197509765625" lon="19.9059672653675079345703125">
        <ele>2002.4000244140625</ele>
        <time>2026-06-17T11:07:00.000Z</time>
        <extensions>
          <ns3:TrackPointExtension>
            <ns3:atemp>21.0</ns3:atemp>
          </ns3:TrackPointExtension>
        </extensions>
      </trkpt>
      <trkpt lat="42.5127843953669071197509765625" lon="19.9059672653675079345703125">
        <ele>2002.4000244140625</ele>
        <time>2026-06-17T11:07:01.000Z</time>
        <extensions>
          <ns3:TrackPointExtension>
            <ns3:atemp>21.0</ns3:atemp>
          </ns3:TrackPointExtension>
        </extensions>
      </trkpt>
      <trkpt lat="42.5127843953669071197509765625" lon="19.9059672653675079345703125">
        <ele>2002.4000244140625</ele>
        <time>2026-06-17T11:07:02.000Z</time>
        <extensions>
          <ns3:TrackPointExtension>
            <ns3:atemp>21.0</ns3:atemp>
          </ns3:TrackPointExtension>
        </extensions>
      </trkpt>
      <trkpt lat="42.5127843953669071197509765625" lon="19.9059672653675079345703125">
        <ele>2002.4000244140625</ele>
        <time>2026-06-17T11:07:03.000Z</time>
        <extensions>
          <ns3:TrackPointExtension>
            <ns3:atemp>21.0</ns3:atemp>
          </ns3:TrackPointExtension>
        </extensions>
      </trkpt>
      <trkpt lat="42.5127843953669071197509765625" lon="19.9059672653675079345703125">
        <ele>2002.4000244140625</ele>
        <time>2026-06-17T11:07:04.000Z</time>
        <extensions>
          <ns3:TrackPointExtension>
            <ns3:atemp>21.0</ns3:atemp>
          </ns3:TrackPointExtension>
        </extensions>
      </trkpt>
      <trkpt lat="42.5127843953669071197509765625" lon="19.9059672653675079345703125">
        <ele>2002.4000244140625</ele>
        <time>2026-06-17T11:07:05.000Z</time>
        <extensions>
          <ns3:TrackPointExtension>
            <ns3:atemp>21.0</ns3:atemp>
          </ns3:TrackPointExtension>
        </extensions>
      </trkpt>
      <trkpt lat="42.5127843953669071197509765625" lon="19.9059672653675079345703125">
        <ele>2002.4000244140625</ele>
        <time>2026-06-17T11:07:06.000Z</time>
        <extensions>
          <ns3:TrackPointExtension>
            <ns3:atemp>21.0</ns3:atemp>
          </ns3:TrackPointExtension>
        </extensions>
      </trkpt>
      <trkpt lat="42.5127843953669071197509765625" lon="19.9059672653675079345703125">
        <ele>2002.4000244140625</ele>
        <time>2026-06-17T11:07:07.000Z</time>
        <extensions>
          <ns3:TrackPointExtension>
            <ns3:atemp>21.0</ns3:atemp>
          </ns3:TrackPointExtension>
        </extensions>
      </trkpt>
      <trkpt lat="42.5127843953669071197509765625" lon="19.9059672653675079345703125">
        <ele>2002.4000244140625</ele>
        <time>2026-06-17T11:07:08.000Z</time>
        <extensions>
          <ns3:TrackPointExtension>
            <ns3:atemp>21.0</ns3:atemp>
          </ns3:TrackPointExtension>
        </extensions>
      </trkpt>
      <trkpt lat="42.5127843953669071197509765625" lon="19.9059672653675079345703125">
        <ele>2002.4000244140625</ele>
        <time>2026-06-17T11:07:09.000Z</time>
        <extensions>
          <ns3:TrackPointExtension>
            <ns3:atemp>21.0</ns3:atemp>
          </ns3:TrackPointExtension>
        </extensions>
      </trkpt>
      <trkpt lat="42.5127843953669071197509765625" lon="19.9059672653675079345703125">
        <ele>2002.4000244140625</ele>
        <time>2026-06-17T11:07:10.000Z</time>
        <extensions>
          <ns3:TrackPointExtension>
            <ns3:atemp>21.0</ns3:atemp>
          </ns3:TrackPointExtension>
        </extensions>
      </trkpt>
      <trkpt lat="42.5127843953669071197509765625" lon="19.9059672653675079345703125">
        <ele>2002.4000244140625</ele>
        <time>2026-06-17T11:07:11.000Z</time>
        <extensions>
          <ns3:TrackPointExtension>
            <ns3:atemp>21.0</ns3:atemp>
          </ns3:TrackPointExtension>
        </extensions>
      </trkpt>
      <trkpt lat="42.5127843953669071197509765625" lon="19.9059672653675079345703125">
        <ele>2002.4000244140625</ele>
        <time>2026-06-17T11:07:12.000Z</time>
        <extensions>
          <ns3:TrackPointExtension>
            <ns3:atemp>21.0</ns3:atemp>
          </ns3:TrackPointExtension>
        </extensions>
      </trkpt>
      <trkpt lat="42.5127843953669071197509765625" lon="19.9059672653675079345703125">
        <ele>2002.4000244140625</ele>
        <time>2026-06-17T11:07:13.000Z</time>
        <extensions>
          <ns3:TrackPointExtension>
            <ns3:atemp>21.0</ns3:atemp>
          </ns3:TrackPointExtension>
        </extensions>
      </trkpt>
      <trkpt lat="42.5127843953669071197509765625" lon="19.9059672653675079345703125">
        <ele>2002.4000244140625</ele>
        <time>2026-06-17T11:07:14.000Z</time>
        <extensions>
          <ns3:TrackPointExtension>
            <ns3:atemp>21.0</ns3:atemp>
          </ns3:TrackPointExtension>
        </extensions>
      </trkpt>
      <trkpt lat="42.5127843953669071197509765625" lon="19.9059672653675079345703125">
        <ele>2002.4000244140625</ele>
        <time>2026-06-17T11:07:15.000Z</time>
        <extensions>
          <ns3:TrackPointExtension>
            <ns3:atemp>21.0</ns3:atemp>
          </ns3:TrackPointExtension>
        </extensions>
      </trkpt>
      <trkpt lat="42.5127843953669071197509765625" lon="19.9059672653675079345703125">
        <ele>2002.4000244140625</ele>
        <time>2026-06-17T11:07:16.000Z</time>
        <extensions>
          <ns3:TrackPointExtension>
            <ns3:atemp>21.0</ns3:atemp>
          </ns3:TrackPointExtension>
        </extensions>
      </trkpt>
      <trkpt lat="42.5127843953669071197509765625" lon="19.9059672653675079345703125">
        <ele>2002.4000244140625</ele>
        <time>2026-06-17T11:07:17.000Z</time>
        <extensions>
          <ns3:TrackPointExtension>
            <ns3:atemp>21.0</ns3:atemp>
          </ns3:TrackPointExtension>
        </extensions>
      </trkpt>
      <trkpt lat="42.5127843953669071197509765625" lon="19.9059672653675079345703125">
        <ele>2002.4000244140625</ele>
        <time>2026-06-17T11:07:18.000Z</time>
        <extensions>
          <ns3:TrackPointExtension>
            <ns3:atemp>21.0</ns3:atemp>
          </ns3:TrackPointExtension>
        </extensions>
      </trkpt>
      <trkpt lat="42.5127843953669071197509765625" lon="19.9059672653675079345703125">
        <ele>2002.4000244140625</ele>
        <time>2026-06-17T11:07:19.000Z</time>
        <extensions>
          <ns3:TrackPointExtension>
            <ns3:atemp>21.0</ns3:atemp>
          </ns3:TrackPointExtension>
        </extensions>
      </trkpt>
      <trkpt lat="42.5127843953669071197509765625" lon="19.9059672653675079345703125">
        <ele>2002.4000244140625</ele>
        <time>2026-06-17T11:07:20.000Z</time>
        <extensions>
          <ns3:TrackPointExtension>
            <ns3:atemp>21.0</ns3:atemp>
          </ns3:TrackPointExtension>
        </extensions>
      </trkpt>
      <trkpt lat="42.5127843953669071197509765625" lon="19.9059672653675079345703125">
        <ele>2002.4000244140625</ele>
        <time>2026-06-17T11:07:21.000Z</time>
        <extensions>
          <ns3:TrackPointExtension>
            <ns3:atemp>21.0</ns3:atemp>
          </ns3:TrackPointExtension>
        </extensions>
      </trkpt>
      <trkpt lat="42.5127843953669071197509765625" lon="19.9059672653675079345703125">
        <ele>2002.4000244140625</ele>
        <time>2026-06-17T11:07:22.000Z</time>
        <extensions>
          <ns3:TrackPointExtension>
            <ns3:atemp>21.0</ns3:atemp>
          </ns3:TrackPointExtension>
        </extensions>
      </trkpt>
      <trkpt lat="42.5127843953669071197509765625" lon="19.9059672653675079345703125">
        <ele>2002.4000244140625</ele>
        <time>2026-06-17T11:07:23.000Z</time>
        <extensions>
          <ns3:TrackPointExtension>
            <ns3:atemp>21.0</ns3:atemp>
          </ns3:TrackPointExtension>
        </extensions>
      </trkpt>
      <trkpt lat="42.5127843953669071197509765625" lon="19.9059672653675079345703125">
        <ele>2002.4000244140625</ele>
        <time>2026-06-17T11:07:24.000Z</time>
        <extensions>
          <ns3:TrackPointExtension>
            <ns3:atemp>21.0</ns3:atemp>
          </ns3:TrackPointExtension>
        </extensions>
      </trkpt>
      <trkpt lat="42.5127843953669071197509765625" lon="19.9059672653675079345703125">
        <ele>2002.4000244140625</ele>
        <time>2026-06-17T11:07:25.000Z</time>
        <extensions>
          <ns3:TrackPointExtension>
            <ns3:atemp>21.0</ns3:atemp>
          </ns3:TrackPointExtension>
        </extensions>
      </trkpt>
      <trkpt lat="42.5127843953669071197509765625" lon="19.9059672653675079345703125">
        <ele>2002.4000244140625</ele>
        <time>2026-06-17T11:07:26.000Z</time>
        <extensions>
          <ns3:TrackPointExtension>
            <ns3:atemp>21.0</ns3:atemp>
          </ns3:TrackPointExtension>
        </extensions>
      </trkpt>
      <trkpt lat="42.5127843953669071197509765625" lon="19.9059672653675079345703125">
        <ele>2002.4000244140625</ele>
        <time>2026-06-17T11:07:27.000Z</time>
        <extensions>
          <ns3:TrackPointExtension>
            <ns3:atemp>21.0</ns3:atemp>
          </ns3:TrackPointExtension>
        </extensions>
      </trkpt>
      <trkpt lat="42.5127843953669071197509765625" lon="19.9059672653675079345703125">
        <ele>2002.4000244140625</ele>
        <time>2026-06-17T11:07:28.000Z</time>
        <extensions>
          <ns3:TrackPointExtension>
            <ns3:atemp>21.0</ns3:atemp>
          </ns3:TrackPointExtension>
        </extensions>
      </trkpt>
      <trkpt lat="42.5127830542623996734619140625" lon="19.90596399642527103424072265625">
        <ele>2002.4000244140625</ele>
        <time>2026-06-17T11:07:29.000Z</time>
        <extensions>
          <ns3:TrackPointExtension>
            <ns3:atemp>21.0</ns3:atemp>
          </ns3:TrackPointExtension>
        </extensions>
      </trkpt>
      <trkpt lat="42.51278012059628963470458984375" lon="19.90596148185431957244873046875">
        <ele>2002.4000244140625</ele>
        <time>2026-06-17T11:07:30.000Z</time>
        <extensions>
          <ns3:TrackPointExtension>
            <ns3:atemp>21.0</ns3:atemp>
          </ns3:TrackPointExtension>
        </extensions>
      </trkpt>
      <trkpt lat="42.5127843953669071197509765625" lon="19.9059672653675079345703125">
        <ele>2002.4000244140625</ele>
        <time>2026-06-17T11:07:31.000Z</time>
        <extensions>
          <ns3:TrackPointExtension>
            <ns3:atemp>21.0</ns3:atemp>
          </ns3:TrackPointExtension>
        </extensions>
      </trkpt>
      <trkpt lat="42.5127843953669071197509765625" lon="19.9059672653675079345703125">
        <ele>2002.4000244140625</ele>
        <time>2026-06-17T11:07:32.000Z</time>
        <extensions>
          <ns3:TrackPointExtension>
            <ns3:atemp>21.0</ns3:atemp>
          </ns3:TrackPointExtension>
        </extensions>
      </trkpt>
      <trkpt lat="42.5127843953669071197509765625" lon="19.9059672653675079345703125">
        <ele>2002.4000244140625</ele>
        <time>2026-06-17T11:07:33.000Z</time>
        <extensions>
          <ns3:TrackPointExtension>
            <ns3:atemp>21.0</ns3:atemp>
          </ns3:TrackPointExtension>
        </extensions>
      </trkpt>
      <trkpt lat="42.51277810893952846527099609375" lon="19.9059630744159221649169921875">
        <ele>2002.4000244140625</ele>
        <time>2026-06-17T11:07:34.000Z</time>
        <extensions>
          <ns3:TrackPointExtension>
            <ns3:atemp>21.0</ns3:atemp>
          </ns3:TrackPointExtension>
        </extensions>
      </trkpt>
      <trkpt lat="42.512775845825672149658203125" lon="19.90597271360456943511962890625">
        <ele>2002.800048828125</ele>
        <time>2026-06-17T11:07:35.000Z</time>
        <extensions>
          <ns3:TrackPointExtension>
            <ns3:atemp>21.0</ns3:atemp>
          </ns3:TrackPointExtension>
        </extensions>
      </trkpt>
      <trkpt lat="42.51276503317058086395263671875" lon="19.90597757510840892791748046875">
        <ele>2002.5999755859375</ele>
        <time>2026-06-17T11:07:36.000Z</time>
        <extensions>
          <ns3:TrackPointExtension>
            <ns3:atemp>21.0</ns3:atemp>
          </ns3:TrackPointExtension>
        </extensions>
      </trkpt>
      <trkpt lat="42.5127552263438701629638671875" lon="19.90598478354513645172119140625">
        <ele>2002.5999755859375</ele>
        <time>2026-06-17T11:07:37.000Z</time>
        <extensions>
          <ns3:TrackPointExtension>
            <ns3:atemp>21.0</ns3:atemp>
          </ns3:TrackPointExtension>
        </extensions>
      </trkpt>
      <trkpt lat="42.512736618518829345703125" lon="19.90600070916116237640380859375">
        <ele>2002.4000244140625</ele>
        <time>2026-06-17T11:07:38.000Z</time>
        <extensions>
          <ns3:TrackPointExtension>
            <ns3:atemp>21.0</ns3:atemp>
          </ns3:TrackPointExtension>
        </extensions>
      </trkpt>
      <trkpt lat="42.51270619221031665802001953125" lon="19.9060120247304439544677734375">
        <ele>2002.199951171875</ele>
        <time>2026-06-17T11:07:39.000Z</time>
        <extensions>
          <ns3:TrackPointExtension>
            <ns3:atemp>21.0</ns3:atemp>
          </ns3:TrackPointExtension>
        </extensions>
      </trkpt>
      <trkpt lat="42.51267467625439167022705078125" lon="19.90602300502359867095947265625">
        <ele>2002</ele>
        <time>2026-06-17T11:07:40.000Z</time>
        <extensions>
          <ns3:TrackPointExtension>
            <ns3:atemp>21.0</ns3:atemp>
          </ns3:TrackPointExtension>
        </extensions>
      </trkpt>
      <trkpt lat="42.512639723718166351318359375" lon="19.9060271121561527252197265625">
        <ele>2001.5999755859375</ele>
        <time>2026-06-17T11:07:41.000Z</time>
        <extensions>
          <ns3:TrackPointExtension>
            <ns3:atemp>21.0</ns3:atemp>
          </ns3:TrackPointExtension>
        </extensions>
      </trkpt>
      <trkpt lat="42.51261415891349315643310546875" lon="19.906018562614917755126953125">
        <ele>2001.199951171875</ele>
        <time>2026-06-17T11:07:42.000Z</time>
        <extensions>
          <ns3:TrackPointExtension>
            <ns3:atemp>21.0</ns3:atemp>
          </ns3:TrackPointExtension>
        </extensions>
      </trkpt>
      <trkpt lat="42.51258498989045619964599609375" lon="19.9060128629207611083984375">
        <ele>2000.800048828125</ele>
        <time>2026-06-17T11:07:43.000Z</time>
        <extensions>
          <ns3:TrackPointExtension>
            <ns3:atemp>21.0</ns3:atemp>
          </ns3:TrackPointExtension>
        </extensions>
      </trkpt>
      <trkpt lat="42.51255967654287815093994140625" lon="19.90599534474313259124755859375">
        <ele>2000.4000244140625</ele>
        <time>2026-06-17T11:07:44.000Z</time>
        <extensions>
          <ns3:TrackPointExtension>
            <ns3:atemp>20.0</ns3:atemp>
          </ns3:TrackPointExtension>
        </extensions>
      </trkpt>
      <trkpt lat="42.5125383026897907257080078125" lon="19.905979335308074951171875">
        <ele>2000</ele>
        <time>2026-06-17T11:07:45.000Z</time>
        <extensions>
          <ns3:TrackPointExtension>
            <ns3:atemp>20.0</ns3:atemp>
          </ns3:TrackPointExtension>
        </extensions>
      </trkpt>
      <trkpt lat="42.51253000460565090179443359375" lon="19.9059734679758548736572265625">
        <ele>1999.800048828125</ele>
        <time>2026-06-17T11:07:46.000Z</time>
        <extensions>
          <ns3:TrackPointExtension>
            <ns3:atemp>20.0</ns3:atemp>
          </ns3:TrackPointExtension>
        </extensions>
      </trkpt>
      <trkpt lat="42.51251868903636932373046875" lon="19.90597388707101345062255859375">
        <ele>1999.4000244140625</ele>
        <time>2026-06-17T11:07:47.000Z</time>
        <extensions>
          <ns3:TrackPointExtension>
            <ns3:atemp>21.0</ns3:atemp>
          </ns3:TrackPointExtension>
        </extensions>
      </trkpt>
      <trkpt lat="42.51250904984772205352783203125" lon="19.905969612300395965576171875">
        <ele>1999.199951171875</ele>
        <time>2026-06-17T11:07:48.000Z</time>
        <extensions>
          <ns3:TrackPointExtension>
            <ns3:atemp>21.0</ns3:atemp>
          </ns3:TrackPointExtension>
        </extensions>
      </trkpt>
      <trkpt lat="42.512501589953899383544921875" lon="19.9059603922069072723388671875">
        <ele>1999.199951171875</ele>
        <time>2026-06-17T11:07:49.000Z</time>
        <extensions>
          <ns3:TrackPointExtension>
            <ns3:atemp>21.0</ns3:atemp>
          </ns3:TrackPointExtension>
        </extensions>
      </trkpt>
      <trkpt lat="42.51249614171683788299560546875" lon="19.90595427341759204864501953125">
        <ele>1999.199951171875</ele>
        <time>2026-06-17T11:07:50.000Z</time>
        <extensions>
          <ns3:TrackPointExtension>
            <ns3:atemp>21.0</ns3:atemp>
          </ns3:TrackPointExtension>
        </extensions>
      </trkpt>
      <trkpt lat="42.5124943815171718597412109375" lon="19.9059486575424671173095703125">
        <ele>1999</ele>
        <time>2026-06-17T11:07:51.000Z</time>
        <extensions>
          <ns3:TrackPointExtension>
            <ns3:atemp>21.0</ns3:atemp>
          </ns3:TrackPointExtension>
        </extensions>
      </trkpt>
      <trkpt lat="42.51249128021299839019775390625" lon="19.90594907663762569427490234375">
        <ele>1999</ele>
        <time>2026-06-17T11:07:52.000Z</time>
        <extensions>
          <ns3:TrackPointExtension>
            <ns3:atemp>21.0</ns3:atemp>
          </ns3:TrackPointExtension>
        </extensions>
      </trkpt>
      <trkpt lat="42.51248918473720550537109375" lon="19.90595276467502117156982421875">
        <ele>1999</ele>
        <time>2026-06-17T11:07:53.000Z</time>
        <extensions>
          <ns3:TrackPointExtension>
            <ns3:atemp>21.0</ns3:atemp>
          </ns3:TrackPointExtension>
        </extensions>
      </trkpt>
      <trkpt lat="42.5124870054423809051513671875" lon="19.9059550277888774871826171875">
        <ele>1999</ele>
        <time>2026-06-17T11:07:54.000Z</time>
        <extensions>
          <ns3:TrackPointExtension>
            <ns3:atemp>21.0</ns3:atemp>
          </ns3:TrackPointExtension>
        </extensions>
      </trkpt>
      <trkpt lat="42.5124709121882915496826171875" lon="19.9059597216546535491943359375">
        <ele>1998.800048828125</ele>
        <time>2026-06-17T11:07:55.000Z</time>
        <extensions>
          <ns3:TrackPointExtension>
            <ns3:atemp>20.0</ns3:atemp>
          </ns3:TrackPointExtension>
        </extensions>
      </trkpt>
      <trkpt lat="42.512441910803318023681640625" lon="19.9059577099978923797607421875">
        <ele>1998.5999755859375</ele>
        <time>2026-06-17T11:07:56.000Z</time>
        <extensions>
          <ns3:TrackPointExtension>
            <ns3:atemp>20.0</ns3:atemp>
          </ns3:TrackPointExtension>
        </extensions>
      </trkpt>
      <trkpt lat="42.51241047866642475128173828125" lon="19.905964918434619903564453125">
        <ele>1998.199951171875</ele>
        <time>2026-06-17T11:07:57.000Z</time>
        <extensions>
          <ns3:TrackPointExtension>
            <ns3:atemp>21.0</ns3:atemp>
          </ns3:TrackPointExtension>
        </extensions>
      </trkpt>
      <trkpt lat="42.51237393356859683990478515625" lon="19.90596315823495388031005859375">
        <ele>1998</ele>
        <time>2026-06-17T11:07:58.000Z</time>
        <extensions>
          <ns3:TrackPointExtension>
            <ns3:atemp>21.0</ns3:atemp>
          </ns3:TrackPointExtension>
        </extensions>
      </trkpt>
      <trkpt lat="42.5123361311852931976318359375" lon="19.90597061812877655029296875">
        <ele>1997.5999755859375</ele>
        <time>2026-06-17T11:07:59.000Z</time>
        <extensions>
          <ns3:TrackPointExtension>
            <ns3:atemp>21.0</ns3:atemp>
          </ns3:TrackPointExtension>
        </extensions>
      </trkpt>
      <trkpt lat="42.51229581423103809356689453125" lon="19.90597204305231571197509765625">
        <ele>1997.199951171875</ele>
        <time>2026-06-17T11:08:00.000Z</time>
        <extensions>
          <ns3:TrackPointExtension>
            <ns3:atemp>20.0</ns3:atemp>
          </ns3:TrackPointExtension>
        </extensions>
      </trkpt>
      <trkpt lat="42.5122556649148464202880859375" lon="19.90597975440323352813720703125">
        <ele>1997</ele>
        <time>2026-06-17T11:08:01.000Z</time>
        <extensions>
          <ns3:TrackPointExtension>
            <ns3:atemp>20.0</ns3:atemp>
          </ns3:TrackPointExtension>
        </extensions>
      </trkpt>
      <trkpt lat="42.5122134201228618621826171875" lon="19.905989058315753936767578125">
        <ele>1996.800048828125</ele>
        <time>2026-06-17T11:08:02.000Z</time>
        <extensions>
          <ns3:TrackPointExtension>
            <ns3:atemp>20.0</ns3:atemp>
          </ns3:TrackPointExtension>
        </extensions>
      </trkpt>
      <trkpt lat="42.51216840930283069610595703125" lon="19.90599811077117919921875">
        <ele>1996.4000244140625</ele>
        <time>2026-06-17T11:08:03.000Z</time>
        <extensions>
          <ns3:TrackPointExtension>
            <ns3:atemp>21.0</ns3:atemp>
          </ns3:TrackPointExtension>
        </extensions>
      </trkpt>
      <trkpt lat="42.5121148489415645599365234375" lon="19.9060069955885410308837890625">
        <ele>1996</ele>
        <time>2026-06-17T11:08:04.000Z</time>
        <extensions>
          <ns3:TrackPointExtension>
            <ns3:atemp>20.0</ns3:atemp>
          </ns3:TrackPointExtension>
        </extensions>
      </trkpt>
      <trkpt lat="42.512061037123203277587890625" lon="19.9060076661407947540283203125">
        <ele>1995.800048828125</ele>
        <time>2026-06-17T11:08:05.000Z</time>
        <extensions>
          <ns3:TrackPointExtension>
            <ns3:atemp>20.0</ns3:atemp>
          </ns3:TrackPointExtension>
        </extensions>
      </trkpt>
      <trkpt lat="42.512016110122203826904296875" lon="19.90601194091141223907470703125">
        <ele>1995.4000244140625</ele>
        <time>2026-06-17T11:08:06.000Z</time>
        <extensions>
          <ns3:TrackPointExtension>
            <ns3:atemp>20.0</ns3:atemp>
          </ns3:TrackPointExtension>
        </extensions>
      </trkpt>
      <trkpt lat="42.5119743682444095611572265625" lon="19.90603356622159481048583984375">
        <ele>1995.199951171875</ele>
        <time>2026-06-17T11:08:07.000Z</time>
        <extensions>
          <ns3:TrackPointExtension>
            <ns3:atemp>20.0</ns3:atemp>
          </ns3:TrackPointExtension>
        </extensions>
      </trkpt>
      <trkpt lat="42.511937655508518218994140625" lon="19.906065165996551513671875">
        <ele>1995</ele>
        <time>2026-06-17T11:08:08.000Z</time>
        <extensions>
          <ns3:TrackPointExtension>
            <ns3:atemp>20.0</ns3:atemp>
          </ns3:TrackPointExtension>
        </extensions>
      </trkpt>
      <trkpt lat="42.51190270297229290008544921875" lon="19.9060871265828609466552734375">
        <ele>1994.800048828125</ele>
        <time>2026-06-17T11:08:09.000Z</time>
        <extensions>
          <ns3:TrackPointExtension>
            <ns3:atemp>20.0</ns3:atemp>
          </ns3:TrackPointExtension>
        </extensions>
      </trkpt>
      <trkpt lat="42.51187118701636791229248046875" lon="19.90609877742826938629150390625">
        <ele>1994.5999755859375</ele>
        <time>2026-06-17T11:08:10.000Z</time>
        <extensions>
          <ns3:TrackPointExtension>
            <ns3:atemp>20.0</ns3:atemp>
          </ns3:TrackPointExtension>
        </extensions>
      </trkpt>
      <trkpt lat="42.5118472985923290252685546875" lon="19.90610581822693347930908203125">
        <ele>1994.4000244140625</ele>
        <time>2026-06-17T11:08:11.000Z</time>
        <extensions>
          <ns3:TrackPointExtension>
            <ns3:atemp>20.0</ns3:atemp>
          </ns3:TrackPointExtension>
        </extensions>
      </trkpt>
      <trkpt lat="42.5118325464427471160888671875" lon="19.906105734407901763916015625">
        <ele>1994.4000244140625</ele>
        <time>2026-06-17T11:08:12.000Z</time>
        <extensions>
          <ns3:TrackPointExtension>
            <ns3:atemp>20.0</ns3:atemp>
          </ns3:TrackPointExtension>
        </extensions>
      </trkpt>
      <trkpt lat="42.5118261761963367462158203125" lon="19.90610715933144092559814453125">
        <ele>1994.4000244140625</ele>
        <time>2026-06-17T11:08:13.000Z</time>
        <extensions>
          <ns3:TrackPointExtension>
            <ns3:atemp>20.0</ns3:atemp>
          </ns3:TrackPointExtension>
        </extensions>
      </trkpt>
      <trkpt lat="42.5118147768080234527587890625" lon="19.906110428273677825927734375">
        <ele>1994.4000244140625</ele>
        <time>2026-06-17T11:08:14.000Z</time>
        <extensions>
          <ns3:TrackPointExtension>
            <ns3:atemp>20.0</ns3:atemp>
          </ns3:TrackPointExtension>
        </extensions>
      </trkpt>
      <trkpt lat="42.511804886162281036376953125" lon="19.9061092548072338104248046875">
        <ele>1994.4000244140625</ele>
        <time>2026-06-17T11:08:15.000Z</time>
        <extensions>
          <ns3:TrackPointExtension>
            <ns3:atemp>20.0</ns3:atemp>
          </ns3:TrackPointExtension>
        </extensions>
      </trkpt>
      <trkpt lat="42.511800192296504974365234375" lon="19.90610338747501373291015625">
        <ele>1994.5999755859375</ele>
        <time>2026-06-17T11:08:16.000Z</time>
        <extensions>
          <ns3:TrackPointExtension>
            <ns3:atemp>20.0</ns3:atemp>
          </ns3:TrackPointExtension>
        </extensions>
      </trkpt>
      <trkpt lat="42.51180010847747325897216796875" lon="19.90610347129404544830322265625">
        <ele>1994.5999755859375</ele>
        <time>2026-06-17T11:08:17.000Z</time>
        <extensions>
          <ns3:TrackPointExtension>
            <ns3:atemp>20.0</ns3:atemp>
          </ns3:TrackPointExtension>
        </extensions>
      </trkpt>
      <trkpt lat="42.51180010847747325897216796875" lon="19.90610347129404544830322265625">
        <ele>1994.5999755859375</ele>
        <time>2026-06-17T11:08:18.000Z</time>
        <extensions>
          <ns3:TrackPointExtension>
            <ns3:atemp>20.0</ns3:atemp>
          </ns3:TrackPointExtension>
        </extensions>
      </trkpt>
      <trkpt lat="42.51180010847747325897216796875" lon="19.90610347129404544830322265625">
        <ele>1994.800048828125</ele>
        <time>2026-06-17T11:08:19.000Z</time>
        <extensions>
          <ns3:TrackPointExtension>
            <ns3:atemp>20.0</ns3:atemp>
          </ns3:TrackPointExtension>
        </extensions>
      </trkpt>
      <trkpt lat="42.51180010847747325897216796875" lon="19.90610347129404544830322265625">
        <ele>1994.800048828125</ele>
        <time>2026-06-17T11:08:20.000Z</time>
        <extensions>
          <ns3:TrackPointExtension>
            <ns3:atemp>20.0</ns3:atemp>
          </ns3:TrackPointExtension>
        </extensions>
      </trkpt>
      <trkpt lat="42.51180010847747325897216796875" lon="19.90610347129404544830322265625">
        <ele>1994.800048828125</ele>
        <time>2026-06-17T11:08:21.000Z</time>
        <extensions>
          <ns3:TrackPointExtension>
            <ns3:atemp>20.0</ns3:atemp>
          </ns3:TrackPointExtension>
        </extensions>
      </trkpt>
      <trkpt lat="42.51180010847747325897216796875" lon="19.90610347129404544830322265625">
        <ele>1994.800048828125</ele>
        <time>2026-06-17T11:08:22.000Z</time>
        <extensions>
          <ns3:TrackPointExtension>
            <ns3:atemp>20.0</ns3:atemp>
          </ns3:TrackPointExtension>
        </extensions>
      </trkpt>
      <trkpt lat="42.51179910264909267425537109375" lon="19.90610347129404544830322265625">
        <ele>1994.5999755859375</ele>
        <time>2026-06-17T11:08:23.000Z</time>
        <extensions>
          <ns3:TrackPointExtension>
            <ns3:atemp>20.0</ns3:atemp>
          </ns3:TrackPointExtension>
        </extensions>
      </trkpt>
      <trkpt lat="42.51177948899567127227783203125" lon="19.90610313601791858673095703125">
        <ele>1994.5999755859375</ele>
        <time>2026-06-17T11:08:24.000Z</time>
        <extensions>
          <ns3:TrackPointExtension>
            <ns3:atemp>20.0</ns3:atemp>
          </ns3:TrackPointExtension>
        </extensions>
      </trkpt>
      <trkpt lat="42.5117594562470912933349609375" lon="19.9060924910008907318115234375">
        <ele>1994.4000244140625</ele>
        <time>2026-06-17T11:08:25.000Z</time>
        <extensions>
          <ns3:TrackPointExtension>
            <ns3:atemp>20.0</ns3:atemp>
          </ns3:TrackPointExtension>
        </extensions>
      </trkpt>
      <trkpt lat="42.51173623837530612945556640625" lon="19.90608033724129199981689453125">
        <ele>1994.4000244140625</ele>
        <time>2026-06-17T11:08:26.000Z</time>
        <extensions>
          <ns3:TrackPointExtension>
            <ns3:atemp>20.0</ns3:atemp>
          </ns3:TrackPointExtension>
        </extensions>
      </trkpt>
      <trkpt lat="42.5117081589996814727783203125" lon="19.906073547899723052978515625">
        <ele>1994.199951171875</ele>
        <time>2026-06-17T11:08:27.000Z</time>
        <extensions>
          <ns3:TrackPointExtension>
            <ns3:atemp>20.0</ns3:atemp>
          </ns3:TrackPointExtension>
        </extensions>
      </trkpt>
      <trkpt lat="42.51167505048215389251708984375" lon="19.90607530809938907623291015625">
        <ele>1994</ele>
        <time>2026-06-17T11:08:28.000Z</time>
        <extensions>
          <ns3:TrackPointExtension>
            <ns3:atemp>20.0</ns3:atemp>
          </ns3:TrackPointExtension>
        </extensions>
      </trkpt>
      <trkpt lat="42.51163833774626255035400390625" lon="19.9060727097094058990478515625">
        <ele>1993.800048828125</ele>
        <time>2026-06-17T11:08:29.000Z</time>
        <extensions>
          <ns3:TrackPointExtension>
            <ns3:atemp>20.0</ns3:atemp>
          </ns3:TrackPointExtension>
        </extensions>
      </trkpt>
      <trkpt lat="42.51161319203674793243408203125" lon="19.906065165996551513671875">
        <ele>1993.5999755859375</ele>
        <time>2026-06-17T11:08:30.000Z</time>
        <extensions>
          <ns3:TrackPointExtension>
            <ns3:atemp>20.0</ns3:atemp>
          </ns3:TrackPointExtension>
        </extensions>
      </trkpt>
      <trkpt lat="42.511592991650104522705078125" lon="19.90606960840523242950439453125">
        <ele>1993.4000244140625</ele>
        <time>2026-06-17T11:08:31.000Z</time>
        <extensions>
          <ns3:TrackPointExtension>
            <ns3:atemp>20.0</ns3:atemp>
          </ns3:TrackPointExtension>
        </extensions>
      </trkpt>
      <trkpt lat="42.5115703605115413665771484375" lon="19.90606843493878841400146484375">
        <ele>1993.4000244140625</ele>
        <time>2026-06-17T11:08:32.000Z</time>
        <extensions>
          <ns3:TrackPointExtension>
            <ns3:atemp>20.0</ns3:atemp>
          </ns3:TrackPointExtension>
        </extensions>
      </trkpt>
      <trkpt lat="42.5115519203245639801025390625" lon="19.906060136854648590087890625">
        <ele>1993.199951171875</ele>
        <time>2026-06-17T11:08:33.000Z</time>
        <extensions>
          <ns3:TrackPointExtension>
            <ns3:atemp>20.0</ns3:atemp>
          </ns3:TrackPointExtension>
        </extensions>
      </trkpt>
      <trkpt lat="42.5115348212420940399169921875" lon="19.9060438759624958038330078125">
        <ele>1993.199951171875</ele>
        <time>2026-06-17T11:08:34.000Z</time>
        <extensions>
          <ns3:TrackPointExtension>
            <ns3:atemp>20.0</ns3:atemp>
          </ns3:TrackPointExtension>
        </extensions>
      </trkpt>
      <trkpt lat="42.51151998527348041534423828125" lon="19.90602317266166210174560546875">
        <ele>1993.199951171875</ele>
        <time>2026-06-17T11:08:35.000Z</time>
        <extensions>
          <ns3:TrackPointExtension>
            <ns3:atemp>20.0</ns3:atemp>
          </ns3:TrackPointExtension>
        </extensions>
      </trkpt>
      <trkpt lat="42.51150615513324737548828125" lon="19.9060076661407947540283203125">
        <ele>1993</ele>
        <time>2026-06-17T11:08:36.000Z</time>
        <extensions>
          <ns3:TrackPointExtension>
            <ns3:atemp>20.0</ns3:atemp>
          </ns3:TrackPointExtension>
        </extensions>
      </trkpt>
      <trkpt lat="42.51149232499301433563232421875" lon="19.906001798808574676513671875">
        <ele>1993</ele>
        <time>2026-06-17T11:08:37.000Z</time>
        <extensions>
          <ns3:TrackPointExtension>
            <ns3:atemp>20.0</ns3:atemp>
          </ns3:TrackPointExtension>
        </extensions>
      </trkpt>
      <trkpt lat="42.511482350528240203857421875" lon="19.90599341690540313720703125">
        <ele>1993</ele>
        <time>2026-06-17T11:08:38.000Z</time>
        <extensions>
          <ns3:TrackPointExtension>
            <ns3:atemp>20.0</ns3:atemp>
          </ns3:TrackPointExtension>
        </extensions>
      </trkpt>
      <trkpt lat="42.51146852038800716400146484375" lon="19.9059779942035675048828125">
        <ele>1993</ele>
        <time>2026-06-17T11:08:39.000Z</time>
        <extensions>
          <ns3:TrackPointExtension>
            <ns3:atemp>20.0</ns3:atemp>
          </ns3:TrackPointExtension>
        </extensions>
      </trkpt>
      <trkpt lat="42.51144907437264919281005859375" lon="19.90596123039722442626953125">
        <ele>1993</ele>
        <time>2026-06-17T11:08:40.000Z</time>
        <extensions>
          <ns3:TrackPointExtension>
            <ns3:atemp>20.0</ns3:atemp>
          </ns3:TrackPointExtension>
        </extensions>
      </trkpt>
      <trkpt lat="42.5114317238330841064453125" lon="19.905938096344470977783203125">
        <ele>1992.800048828125</ele>
        <time>2026-06-17T11:08:41.000Z</time>
        <extensions>
          <ns3:TrackPointExtension>
            <ns3:atemp>20.0</ns3:atemp>
          </ns3:TrackPointExtension>
        </extensions>
      </trkpt>
      <trkpt lat="42.5114147923886775970458984375" lon="19.90590733475983142852783203125">
        <ele>1992.800048828125</ele>
        <time>2026-06-17T11:08:42.000Z</time>
        <extensions>
          <ns3:TrackPointExtension>
            <ns3:atemp>20.0</ns3:atemp>
          </ns3:TrackPointExtension>
        </extensions>
      </trkpt>
      <trkpt lat="42.51139123924076557159423828125" lon="19.90588009357452392578125">
        <ele>1992.5999755859375</ele>
        <time>2026-06-17T11:08:43.000Z</time>
        <extensions>
          <ns3:TrackPointExtension>
            <ns3:atemp>20.0</ns3:atemp>
          </ns3:TrackPointExtension>
        </extensions>
      </trkpt>
      <trkpt lat="42.51136559061706066131591796875" lon="19.90584983490407466888427734375">
        <ele>1992.199951171875</ele>
        <time>2026-06-17T11:08:44.000Z</time>
        <extensions>
          <ns3:TrackPointExtension>
            <ns3:atemp>20.0</ns3:atemp>
          </ns3:TrackPointExtension>
        </extensions>
      </trkpt>
      <trkpt lat="42.51134379766881465911865234375" lon="19.9058175645768642425537109375">
        <ele>1992</ele>
        <time>2026-06-17T11:08:45.000Z</time>
        <extensions>
          <ns3:TrackPointExtension>
            <ns3:atemp>20.0</ns3:atemp>
          </ns3:TrackPointExtension>
        </extensions>
      </trkpt>
      <trkpt lat="42.51132309436798095703125" lon="19.90579065866768360137939453125">
        <ele>1992</ele>
        <time>2026-06-17T11:08:46.000Z</time>
        <extensions>
          <ns3:TrackPointExtension>
            <ns3:atemp>20.0</ns3:atemp>
          </ns3:TrackPointExtension>
        </extensions>
      </trkpt>
      <trkpt lat="42.51130230724811553955078125" lon="19.9057639203965663909912109375">
        <ele>1991.800048828125</ele>
        <time>2026-06-17T11:08:47.000Z</time>
        <extensions>
          <ns3:TrackPointExtension>
            <ns3:atemp>20.0</ns3:atemp>
          </ns3:TrackPointExtension>
        </extensions>
      </trkpt>
      <trkpt lat="42.51127975992858409881591796875" lon="19.905738942325115203857421875">
        <ele>1991.5999755859375</ele>
        <time>2026-06-17T11:08:48.000Z</time>
        <extensions>
          <ns3:TrackPointExtension>
            <ns3:atemp>20.0</ns3:atemp>
          </ns3:TrackPointExtension>
        </extensions>
      </trkpt>
      <trkpt lat="42.5112598948180675506591796875" lon="19.90571857430040836334228515625">
        <ele>1991.5999755859375</ele>
        <time>2026-06-17T11:08:49.000Z</time>
        <extensions>
          <ns3:TrackPointExtension>
            <ns3:atemp>20.0</ns3:atemp>
          </ns3:TrackPointExtension>
        </extensions>
      </trkpt>
      <trkpt lat="42.51123818568885326385498046875" lon="19.90570030175149440765380859375">
        <ele>1991.5999755859375</ele>
        <time>2026-06-17T11:08:50.000Z</time>
        <extensions>
          <ns3:TrackPointExtension>
            <ns3:atemp>20.0</ns3:atemp>
          </ns3:TrackPointExtension>
        </extensions>
      </trkpt>
      <trkpt lat="42.51121588982641696929931640625" lon="19.9056847952306270599365234375">
        <ele>1991.4000244140625</ele>
        <time>2026-06-17T11:08:51.000Z</time>
        <extensions>
          <ns3:TrackPointExtension>
            <ns3:atemp>20.0</ns3:atemp>
          </ns3:TrackPointExtension>
        </extensions>
      </trkpt>
      <trkpt lat="42.51119828782975673675537109375" lon="19.9056757427752017974853515625">
        <ele>1991.4000244140625</ele>
        <time>2026-06-17T11:08:52.000Z</time>
        <extensions>
          <ns3:TrackPointExtension>
            <ns3:atemp>20.0</ns3:atemp>
          </ns3:TrackPointExtension>
        </extensions>
      </trkpt>
      <trkpt lat="42.5111888162791728973388671875" lon="19.9056720547378063201904296875">
        <ele>1991.4000244140625</ele>
        <time>2026-06-17T11:08:53.000Z</time>
        <extensions>
          <ns3:TrackPointExtension>
            <ns3:atemp>20.0</ns3:atemp>
          </ns3:TrackPointExtension>
        </extensions>
      </trkpt>
      <trkpt lat="42.51118051819503307342529296875" lon="19.9056680314242839813232421875">
        <ele>1991.4000244140625</ele>
        <time>2026-06-17T11:08:54.000Z</time>
        <extensions>
          <ns3:TrackPointExtension>
            <ns3:atemp>20.0</ns3:atemp>
          </ns3:TrackPointExtension>
        </extensions>
      </trkpt>
      <trkpt lat="42.51118370331823825836181640625" lon="19.90567213855683803558349609375">
        <ele>1991.5999755859375</ele>
        <time>2026-06-17T11:08:55.000Z</time>
        <extensions>
          <ns3:TrackPointExtension>
            <ns3:atemp>20.0</ns3:atemp>
          </ns3:TrackPointExtension>
        </extensions>
      </trkpt>
      <trkpt lat="42.5111837871372699737548828125" lon="19.9056720547378063201904296875">
        <ele>1991.5999755859375</ele>
        <time>2026-06-17T11:08:56.000Z</time>
        <extensions>
          <ns3:TrackPointExtension>
            <ns3:atemp>20.0</ns3:atemp>
          </ns3:TrackPointExtension>
        </extensions>
      </trkpt>
      <trkpt lat="42.5111837871372699737548828125" lon="19.9056720547378063201904296875">
        <ele>1991.5999755859375</ele>
        <time>2026-06-17T11:08:57.000Z</time>
        <extensions>
          <ns3:TrackPointExtension>
            <ns3:atemp>20.0</ns3:atemp>
          </ns3:TrackPointExtension>
        </extensions>
      </trkpt>
      <trkpt lat="42.5111837871372699737548828125" lon="19.9056720547378063201904296875">
        <ele>1991.5999755859375</ele>
        <time>2026-06-17T11:08:58.000Z</time>
        <extensions>
          <ns3:TrackPointExtension>
            <ns3:atemp>20.0</ns3:atemp>
          </ns3:TrackPointExtension>
        </extensions>
      </trkpt>
      <trkpt lat="42.5111837871372699737548828125" lon="19.9056720547378063201904296875">
        <ele>1991.5999755859375</ele>
        <time>2026-06-17T11:08:59.000Z</time>
        <extensions>
          <ns3:TrackPointExtension>
            <ns3:atemp>20.0</ns3:atemp>
          </ns3:TrackPointExtension>
        </extensions>
      </trkpt>
      <trkpt lat="42.5111837871372699737548828125" lon="19.9056720547378063201904296875">
        <ele>1991.5999755859375</ele>
        <time>2026-06-17T11:09:00.000Z</time>
        <extensions>
          <ns3:TrackPointExtension>
            <ns3:atemp>20.0</ns3:atemp>
          </ns3:TrackPointExtension>
        </extensions>
      </trkpt>
      <trkpt lat="42.5111837871372699737548828125" lon="19.9056720547378063201904296875">
        <ele>1991.5999755859375</ele>
        <time>2026-06-17T11:09:01.000Z</time>
        <extensions>
          <ns3:TrackPointExtension>
            <ns3:atemp>20.0</ns3:atemp>
          </ns3:TrackPointExtension>
        </extensions>
      </trkpt>
      <trkpt lat="42.5111837871372699737548828125" lon="19.9056720547378063201904296875">
        <ele>1991.5999755859375</ele>
        <time>2026-06-17T11:09:02.000Z</time>
        <extensions>
          <ns3:TrackPointExtension>
            <ns3:atemp>20.0</ns3:atemp>
          </ns3:TrackPointExtension>
        </extensions>
      </trkpt>
      <trkpt lat="42.5111837871372699737548828125" lon="19.9056720547378063201904296875">
        <ele>1991.5999755859375</ele>
        <time>2026-06-17T11:09:03.000Z</time>
        <extensions>
          <ns3:TrackPointExtension>
            <ns3:atemp>20.0</ns3:atemp>
          </ns3:TrackPointExtension>
        </extensions>
      </trkpt>
      <trkpt lat="42.5111837871372699737548828125" lon="19.9056720547378063201904296875">
        <ele>1991.5999755859375</ele>
        <time>2026-06-17T11:09:04.000Z</time>
        <extensions>
          <ns3:TrackPointExtension>
            <ns3:atemp>20.0</ns3:atemp>
          </ns3:TrackPointExtension>
        </extensions>
      </trkpt>
      <trkpt lat="42.5111837871372699737548828125" lon="19.9056720547378063201904296875">
        <ele>1991.4000244140625</ele>
        <time>2026-06-17T11:09:05.000Z</time>
        <extensions>
          <ns3:TrackPointExtension>
            <ns3:atemp>20.0</ns3:atemp>
          </ns3:TrackPointExtension>
        </extensions>
      </trkpt>
      <trkpt lat="42.5111847929656505584716796875" lon="19.905670545995235443115234375">
        <ele>1991.4000244140625</ele>
        <time>2026-06-17T11:09:06.000Z</time>
        <extensions>
          <ns3:TrackPointExtension>
            <ns3:atemp>20.0</ns3:atemp>
          </ns3:TrackPointExtension>
        </extensions>
      </trkpt>
      <trkpt lat="42.511169873178005218505859375" lon="19.90564875304698944091796875">
        <ele>1991.4000244140625</ele>
        <time>2026-06-17T11:09:07.000Z</time>
        <extensions>
          <ns3:TrackPointExtension>
            <ns3:atemp>20.0</ns3:atemp>
          </ns3:TrackPointExtension>
        </extensions>
      </trkpt>
      <trkpt lat="42.5111505948007106781005859375" lon="19.9056308157742023468017578125">
        <ele>1991.199951171875</ele>
        <time>2026-06-17T11:09:08.000Z</time>
        <extensions>
          <ns3:TrackPointExtension>
            <ns3:atemp>20.0</ns3:atemp>
          </ns3:TrackPointExtension>
        </extensions>
      </trkpt>
      <trkpt lat="42.511125616729259490966796875" lon="19.90562620572745800018310546875">
        <ele>1991</ele>
        <time>2026-06-17T11:09:09.000Z</time>
        <extensions>
          <ns3:TrackPointExtension>
            <ns3:atemp>20.0</ns3:atemp>
          </ns3:TrackPointExtension>
        </extensions>
      </trkpt>
      <trkpt lat="42.51109921373426914215087890625" lon="19.90562595427036285400390625">
        <ele>1990.800048828125</ele>
        <time>2026-06-17T11:09:10.000Z</time>
        <extensions>
          <ns3:TrackPointExtension>
            <ns3:atemp>20.0</ns3:atemp>
          </ns3:TrackPointExtension>
        </extensions>
      </trkpt>
      <trkpt lat="42.51107624731957912445068359375" lon="19.90563374944031238555908203125">
        <ele>1990.800048828125</ele>
        <time>2026-06-17T11:09:11.000Z</time>
        <extensions>
          <ns3:TrackPointExtension>
            <ns3:atemp>20.0</ns3:atemp>
          </ns3:TrackPointExtension>
        </extensions>
      </trkpt>
      <trkpt lat="42.51105328090488910675048828125" lon="19.9056321568787097930908203125">
        <ele>1990.800048828125</ele>
        <time>2026-06-17T11:09:12.000Z</time>
        <extensions>
          <ns3:TrackPointExtension>
            <ns3:atemp>20.0</ns3:atemp>
          </ns3:TrackPointExtension>
        </extensions>
      </trkpt>
      <trkpt lat="42.511027045547962188720703125" lon="19.9056231044232845306396484375">
        <ele>1990.5999755859375</ele>
        <time>2026-06-17T11:09:13.000Z</time>
        <extensions>
          <ns3:TrackPointExtension>
            <ns3:atemp>20.0</ns3:atemp>
          </ns3:TrackPointExtension>
        </extensions>
      </trkpt>
      <trkpt lat="42.5110024027526378631591796875" lon="19.9056158959865570068359375">
        <ele>1990.5999755859375</ele>
        <time>2026-06-17T11:09:14.000Z</time>
        <extensions>
          <ns3:TrackPointExtension>
            <ns3:atemp>20.0</ns3:atemp>
          </ns3:TrackPointExtension>
        </extensions>
      </trkpt>
      <trkpt lat="42.510978095233440399169921875" lon="19.90561128593981266021728515625">
        <ele>1990.5999755859375</ele>
        <time>2026-06-17T11:09:15.000Z</time>
        <extensions>
          <ns3:TrackPointExtension>
            <ns3:atemp>20.0</ns3:atemp>
          </ns3:TrackPointExtension>
        </extensions>
      </trkpt>
      <trkpt lat="42.51095320098102092742919921875" lon="19.90560441277921199798583984375">
        <ele>1990.5999755859375</ele>
        <time>2026-06-17T11:09:16.000Z</time>
        <extensions>
          <ns3:TrackPointExtension>
            <ns3:atemp>20.0</ns3:atemp>
          </ns3:TrackPointExtension>
        </extensions>
      </trkpt>
      <trkpt lat="42.51093006692826747894287109375" lon="19.90559670142829418182373046875">
        <ele>1990.5999755859375</ele>
        <time>2026-06-17T11:09:17.000Z</time>
        <extensions>
          <ns3:TrackPointExtension>
            <ns3:atemp>20.0</ns3:atemp>
          </ns3:TrackPointExtension>
        </extensions>
      </trkpt>
      <trkpt lat="42.5109065137803554534912109375" lon="19.90559368394315242767333984375">
        <ele>1990.5999755859375</ele>
        <time>2026-06-17T11:09:18.000Z</time>
        <extensions>
          <ns3:TrackPointExtension>
            <ns3:atemp>20.0</ns3:atemp>
          </ns3:TrackPointExtension>
        </extensions>
      </trkpt>
      <trkpt lat="42.51088924705982208251953125" lon="19.90558974444866180419921875">
        <ele>1990.5999755859375</ele>
        <time>2026-06-17T11:09:19.000Z</time>
        <extensions>
          <ns3:TrackPointExtension>
            <ns3:atemp>20.0</ns3:atemp>
          </ns3:TrackPointExtension>
        </extensions>
      </trkpt>
      <trkpt lat="42.510893605649471282958984375" lon="19.90558840334415435791015625">
        <ele>1990.5999755859375</ele>
        <time>2026-06-17T11:09:20.000Z</time>
        <extensions>
          <ns3:TrackPointExtension>
            <ns3:atemp>20.0</ns3:atemp>
          </ns3:TrackPointExtension>
        </extensions>
      </trkpt>
      <trkpt lat="42.510893605649471282958984375" lon="19.90558664314448833465576171875">
        <ele>1990.800048828125</ele>
        <time>2026-06-17T11:09:21.000Z</time>
        <extensions>
          <ns3:TrackPointExtension>
            <ns3:atemp>20.0</ns3:atemp>
          </ns3:TrackPointExtension>
        </extensions>
      </trkpt>
      <trkpt lat="42.51089352183043956756591796875" lon="19.90558664314448833465576171875">
        <ele>1990.800048828125</ele>
        <time>2026-06-17T11:09:22.000Z</time>
        <extensions>
          <ns3:TrackPointExtension>
            <ns3:atemp>20.0</ns3:atemp>
          </ns3:TrackPointExtension>
        </extensions>
      </trkpt>
      <trkpt lat="42.51089352183043956756591796875" lon="19.90558664314448833465576171875">
        <ele>1991</ele>
        <time>2026-06-17T11:09:23.000Z</time>
        <extensions>
          <ns3:TrackPointExtension>
            <ns3:atemp>20.0</ns3:atemp>
          </ns3:TrackPointExtension>
        </extensions>
      </trkpt>
      <trkpt lat="42.51089352183043956756591796875" lon="19.90558664314448833465576171875">
        <ele>1991</ele>
        <time>2026-06-17T11:09:24.000Z</time>
        <extensions>
          <ns3:TrackPointExtension>
            <ns3:atemp>20.0</ns3:atemp>
          </ns3:TrackPointExtension>
        </extensions>
      </trkpt>
      <trkpt lat="42.51089352183043956756591796875" lon="19.90558664314448833465576171875">
        <ele>1990.800048828125</ele>
        <time>2026-06-17T11:09:25.000Z</time>
        <extensions>
          <ns3:TrackPointExtension>
            <ns3:atemp>20.0</ns3:atemp>
          </ns3:TrackPointExtension>
        </extensions>
      </trkpt>
      <trkpt lat="42.51089352183043956756591796875" lon="19.90558664314448833465576171875">
        <ele>1990.800048828125</ele>
        <time>2026-06-17T11:09:26.000Z</time>
        <extensions>
          <ns3:TrackPointExtension>
            <ns3:atemp>20.0</ns3:atemp>
          </ns3:TrackPointExtension>
        </extensions>
      </trkpt>
      <trkpt lat="42.51089352183043956756591796875" lon="19.90558664314448833465576171875">
        <ele>1990.5999755859375</ele>
        <time>2026-06-17T11:09:27.000Z</time>
        <extensions>
          <ns3:TrackPointExtension>
            <ns3:atemp>20.0</ns3:atemp>
          </ns3:TrackPointExtension>
        </extensions>
      </trkpt>
      <trkpt lat="42.51089352183043956756591796875" lon="19.90558664314448833465576171875">
        <ele>1990.4000244140625</ele>
        <time>2026-06-17T11:09:28.000Z</time>
        <extensions>
          <ns3:TrackPointExtension>
            <ns3:atemp>20.0</ns3:atemp>
          </ns3:TrackPointExtension>
        </extensions>
      </trkpt>
      <trkpt lat="42.51089352183043956756591796875" lon="19.90558664314448833465576171875">
        <ele>1990.4000244140625</ele>
        <time>2026-06-17T11:09:29.000Z</time>
        <extensions>
          <ns3:TrackPointExtension>
            <ns3:atemp>20.0</ns3:atemp>
          </ns3:TrackPointExtension>
        </extensions>
      </trkpt>
      <trkpt lat="42.51089352183043956756591796875" lon="19.90558664314448833465576171875">
        <ele>1990.4000244140625</ele>
        <time>2026-06-17T11:09:30.000Z</time>
        <extensions>
          <ns3:TrackPointExtension>
            <ns3:atemp>20.0</ns3:atemp>
          </ns3:TrackPointExtension>
        </extensions>
      </trkpt>
      <trkpt lat="42.51089352183043956756591796875" lon="19.90558664314448833465576171875">
        <ele>1990.4000244140625</ele>
        <time>2026-06-17T11:09:31.000Z</time>
        <extensions>
          <ns3:TrackPointExtension>
            <ns3:atemp>20.0</ns3:atemp>
          </ns3:TrackPointExtension>
        </extensions>
      </trkpt>
      <trkpt lat="42.51089352183043956756591796875" lon="19.90558664314448833465576171875">
        <ele>1990.4000244140625</ele>
        <time>2026-06-17T11:09:32.000Z</time>
        <extensions>
          <ns3:TrackPointExtension>
            <ns3:atemp>20.0</ns3:atemp>
          </ns3:TrackPointExtension>
        </extensions>
      </trkpt>
      <trkpt lat="42.51089352183043956756591796875" lon="19.90558664314448833465576171875">
        <ele>1990.4000244140625</ele>
        <time>2026-06-17T11:09:33.000Z</time>
        <extensions>
          <ns3:TrackPointExtension>
            <ns3:atemp>20.0</ns3:atemp>
          </ns3:TrackPointExtension>
        </extensions>
      </trkpt>
      <trkpt lat="42.51089352183043956756591796875" lon="19.90558664314448833465576171875">
        <ele>1990.4000244140625</ele>
        <time>2026-06-17T11:09:34.000Z</time>
        <extensions>
          <ns3:TrackPointExtension>
            <ns3:atemp>20.0</ns3:atemp>
          </ns3:TrackPointExtension>
        </extensions>
      </trkpt>
      <trkpt lat="42.51089352183043956756591796875" lon="19.90558664314448833465576171875">
        <ele>1990.4000244140625</ele>
        <time>2026-06-17T11:09:35.000Z</time>
        <extensions>
          <ns3:TrackPointExtension>
            <ns3:atemp>20.0</ns3:atemp>
          </ns3:TrackPointExtension>
        </extensions>
      </trkpt>
      <trkpt lat="42.51089352183043956756591796875" lon="19.90558664314448833465576171875">
        <ele>1990.4000244140625</ele>
        <time>2026-06-17T11:09:36.000Z</time>
        <extensions>
          <ns3:TrackPointExtension>
            <ns3:atemp>20.0</ns3:atemp>
          </ns3:TrackPointExtension>
        </extensions>
      </trkpt>
      <trkpt lat="42.51089352183043956756591796875" lon="19.90558664314448833465576171875">
        <ele>1990.4000244140625</ele>
        <time>2026-06-17T11:09:37.000Z</time>
        <extensions>
          <ns3:TrackPointExtension>
            <ns3:atemp>20.0</ns3:atemp>
          </ns3:TrackPointExtension>
        </extensions>
      </trkpt>
      <trkpt lat="42.51089352183043956756591796875" lon="19.90558664314448833465576171875">
        <ele>1990.4000244140625</ele>
        <time>2026-06-17T11:09:38.000Z</time>
        <extensions>
          <ns3:TrackPointExtension>
            <ns3:atemp>20.0</ns3:atemp>
          </ns3:TrackPointExtension>
        </extensions>
      </trkpt>
      <trkpt lat="42.51089352183043956756591796875" lon="19.90558664314448833465576171875">
        <ele>1990.4000244140625</ele>
        <time>2026-06-17T11:09:39.000Z</time>
        <extensions>
          <ns3:TrackPointExtension>
            <ns3:atemp>20.0</ns3:atemp>
          </ns3:TrackPointExtension>
        </extensions>
      </trkpt>
      <trkpt lat="42.51089352183043956756591796875" lon="19.90558664314448833465576171875">
        <ele>1990.4000244140625</ele>
        <time>2026-06-17T11:09:40.000Z</time>
        <extensions>
          <ns3:TrackPointExtension>
            <ns3:atemp>20.0</ns3:atemp>
          </ns3:TrackPointExtension>
        </extensions>
      </trkpt>
      <trkpt lat="42.51089352183043956756591796875" lon="19.90558664314448833465576171875">
        <ele>1990.4000244140625</ele>
        <time>2026-06-17T11:09:41.000Z</time>
        <extensions>
          <ns3:TrackPointExtension>
            <ns3:atemp>20.0</ns3:atemp>
          </ns3:TrackPointExtension>
        </extensions>
      </trkpt>
      <trkpt lat="42.51089352183043956756591796875" lon="19.90558664314448833465576171875">
        <ele>1990.4000244140625</ele>
        <time>2026-06-17T11:09:42.000Z</time>
        <extensions>
          <ns3:TrackPointExtension>
            <ns3:atemp>20.0</ns3:atemp>
          </ns3:TrackPointExtension>
        </extensions>
      </trkpt>
      <trkpt lat="42.51089352183043956756591796875" lon="19.90558664314448833465576171875">
        <ele>1990.4000244140625</ele>
        <time>2026-06-17T11:09:43.000Z</time>
        <extensions>
          <ns3:TrackPointExtension>
            <ns3:atemp>20.0</ns3:atemp>
          </ns3:TrackPointExtension>
        </extensions>
      </trkpt>
      <trkpt lat="42.51089352183043956756591796875" lon="19.90558664314448833465576171875">
        <ele>1990.4000244140625</ele>
        <time>2026-06-17T11:09:44.000Z</time>
        <extensions>
          <ns3:TrackPointExtension>
            <ns3:atemp>20.0</ns3:atemp>
          </ns3:TrackPointExtension>
        </extensions>
      </trkpt>
      <trkpt lat="42.51089352183043956756591796875" lon="19.90558664314448833465576171875">
        <ele>1990.4000244140625</ele>
        <time>2026-06-17T11:09:45.000Z</time>
        <extensions>
          <ns3:TrackPointExtension>
            <ns3:atemp>20.0</ns3:atemp>
          </ns3:TrackPointExtension>
        </extensions>
      </trkpt>
      <trkpt lat="42.51089352183043956756591796875" lon="19.90558664314448833465576171875">
        <ele>1990.4000244140625</ele>
        <time>2026-06-17T11:09:46.000Z</time>
        <extensions>
          <ns3:TrackPointExtension>
            <ns3:atemp>20.0</ns3:atemp>
          </ns3:TrackPointExtension>
        </extensions>
      </trkpt>
      <trkpt lat="42.51089352183043956756591796875" lon="19.90558664314448833465576171875">
        <ele>1990.4000244140625</ele>
        <time>2026-06-17T11:09:47.000Z</time>
        <extensions>
          <ns3:TrackPointExtension>
            <ns3:atemp>20.0</ns3:atemp>
          </ns3:TrackPointExtension>
        </extensions>
      </trkpt>
      <trkpt lat="42.51089352183043956756591796875" lon="19.90558664314448833465576171875">
        <ele>1990.4000244140625</ele>
        <time>2026-06-17T11:09:48.000Z</time>
        <extensions>
          <ns3:TrackPointExtension>
            <ns3:atemp>20.0</ns3:atemp>
          </ns3:TrackPointExtension>
        </extensions>
      </trkpt>
      <trkpt lat="42.51089352183043956756591796875" lon="19.90558664314448833465576171875">
        <ele>1990.4000244140625</ele>
        <time>2026-06-17T11:09:49.000Z</time>
        <extensions>
          <ns3:TrackPointExtension>
            <ns3:atemp>20.0</ns3:atemp>
          </ns3:TrackPointExtension>
        </extensions>
      </trkpt>
      <trkpt lat="42.51089352183043956756591796875" lon="19.90558664314448833465576171875">
        <ele>1990.4000244140625</ele>
        <time>2026-06-17T11:09:50.000Z</time>
        <extensions>
          <ns3:TrackPointExtension>
            <ns3:atemp>20.0</ns3:atemp>
          </ns3:TrackPointExtension>
        </extensions>
      </trkpt>
      <trkpt lat="42.51089352183043956756591796875" lon="19.90558664314448833465576171875">
        <ele>1990.4000244140625</ele>
        <time>2026-06-17T11:09:51.000Z</time>
        <extensions>
          <ns3:TrackPointExtension>
            <ns3:atemp>20.0</ns3:atemp>
          </ns3:TrackPointExtension>
        </extensions>
      </trkpt>
      <trkpt lat="42.51089352183043956756591796875" lon="19.90558664314448833465576171875">
        <ele>1990.4000244140625</ele>
        <time>2026-06-17T11:09:52.000Z</time>
        <extensions>
          <ns3:TrackPointExtension>
            <ns3:atemp>20.0</ns3:atemp>
          </ns3:TrackPointExtension>
        </extensions>
      </trkpt>
      <trkpt lat="42.51089352183043956756591796875" lon="19.90558664314448833465576171875">
        <ele>1990.4000244140625</ele>
        <time>2026-06-17T11:09:53.000Z</time>
        <extensions>
          <ns3:TrackPointExtension>
            <ns3:atemp>20.0</ns3:atemp>
          </ns3:TrackPointExtension>
        </extensions>
      </trkpt>
      <trkpt lat="42.51089352183043956756591796875" lon="19.90558664314448833465576171875">
        <ele>1990.4000244140625</ele>
        <time>2026-06-17T11:09:54.000Z</time>
        <extensions>
          <ns3:TrackPointExtension>
            <ns3:atemp>20.0</ns3:atemp>
          </ns3:TrackPointExtension>
        </extensions>
      </trkpt>
      <trkpt lat="42.51089352183043956756591796875" lon="19.90558664314448833465576171875">
        <ele>1990.4000244140625</ele>
        <time>2026-06-17T11:09:55.000Z</time>
        <extensions>
          <ns3:TrackPointExtension>
            <ns3:atemp>20.0</ns3:atemp>
          </ns3:TrackPointExtension>
        </extensions>
      </trkpt>
      <trkpt lat="42.51089352183043956756591796875" lon="19.90558664314448833465576171875">
        <ele>1990.4000244140625</ele>
        <time>2026-06-17T11:09:56.000Z</time>
        <extensions>
          <ns3:TrackPointExtension>
            <ns3:atemp>20.0</ns3:atemp>
          </ns3:TrackPointExtension>
        </extensions>
      </trkpt>
      <trkpt lat="42.51089352183043956756591796875" lon="19.90558664314448833465576171875">
        <ele>1990.4000244140625</ele>
        <time>2026-06-17T11:09:57.000Z</time>
        <extensions>
          <ns3:TrackPointExtension>
            <ns3:atemp>20.0</ns3:atemp>
          </ns3:TrackPointExtension>
        </extensions>
      </trkpt>
      <trkpt lat="42.51089352183043956756591796875" lon="19.90558664314448833465576171875">
        <ele>1990.4000244140625</ele>
        <time>2026-06-17T11:09:58.000Z</time>
        <extensions>
          <ns3:TrackPointExtension>
            <ns3:atemp>20.0</ns3:atemp>
          </ns3:TrackPointExtension>
        </extensions>
      </trkpt>
      <trkpt lat="42.51089352183043956756591796875" lon="19.90558664314448833465576171875">
        <ele>1990.4000244140625</ele>
        <time>2026-06-17T11:09:59.000Z</time>
        <extensions>
          <ns3:TrackPointExtension>
            <ns3:atemp>20.0</ns3:atemp>
          </ns3:TrackPointExtension>
        </extensions>
      </trkpt>
      <trkpt lat="42.51089352183043956756591796875" lon="19.90558664314448833465576171875">
        <ele>1990.4000244140625</ele>
        <time>2026-06-17T11:10:00.000Z</time>
        <extensions>
          <ns3:TrackPointExtension>
            <ns3:atemp>20.0</ns3:atemp>
          </ns3:TrackPointExtension>
        </extensions>
      </trkpt>
      <trkpt lat="42.51089352183043956756591796875" lon="19.90558664314448833465576171875">
        <ele>1990.4000244140625</ele>
        <time>2026-06-17T11:10:01.000Z</time>
        <extensions>
          <ns3:TrackPointExtension>
            <ns3:atemp>20.0</ns3:atemp>
          </ns3:TrackPointExtension>
        </extensions>
      </trkpt>
      <trkpt lat="42.51089352183043956756591796875" lon="19.90558664314448833465576171875">
        <ele>1990.4000244140625</ele>
        <time>2026-06-17T11:10:02.000Z</time>
        <extensions>
          <ns3:TrackPointExtension>
            <ns3:atemp>20.0</ns3:atemp>
          </ns3:TrackPointExtension>
        </extensions>
      </trkpt>
      <trkpt lat="42.51089352183043956756591796875" lon="19.90558664314448833465576171875">
        <ele>1990.4000244140625</ele>
        <time>2026-06-17T11:10:03.000Z</time>
        <extensions>
          <ns3:TrackPointExtension>
            <ns3:atemp>20.0</ns3:atemp>
          </ns3:TrackPointExtension>
        </extensions>
      </trkpt>
      <trkpt lat="42.51089352183043956756591796875" lon="19.90558664314448833465576171875">
        <ele>1990.4000244140625</ele>
        <time>2026-06-17T11:10:04.000Z</time>
        <extensions>
          <ns3:TrackPointExtension>
            <ns3:atemp>20.0</ns3:atemp>
          </ns3:TrackPointExtension>
        </extensions>
      </trkpt>
      <trkpt lat="42.51089352183043956756591796875" lon="19.90558664314448833465576171875">
        <ele>1990.4000244140625</ele>
        <time>2026-06-17T11:10:05.000Z</time>
        <extensions>
          <ns3:TrackPointExtension>
            <ns3:atemp>20.0</ns3:atemp>
          </ns3:TrackPointExtension>
        </extensions>
      </trkpt>
      <trkpt lat="42.51089352183043956756591796875" lon="19.90558664314448833465576171875">
        <ele>1990.4000244140625</ele>
        <time>2026-06-17T11:10:06.000Z</time>
        <extensions>
          <ns3:TrackPointExtension>
            <ns3:atemp>20.0</ns3:atemp>
          </ns3:TrackPointExtension>
        </extensions>
      </trkpt>
      <trkpt lat="42.51089352183043956756591796875" lon="19.90558664314448833465576171875">
        <ele>1990.4000244140625</ele>
        <time>2026-06-17T11:10:07.000Z</time>
        <extensions>
          <ns3:TrackPointExtension>
            <ns3:atemp>20.0</ns3:atemp>
          </ns3:TrackPointExtension>
        </extensions>
      </trkpt>
      <trkpt lat="42.51089352183043956756591796875" lon="19.90558664314448833465576171875">
        <ele>1990.4000244140625</ele>
        <time>2026-06-17T11:10:08.000Z</time>
        <extensions>
          <ns3:TrackPointExtension>
            <ns3:atemp>20.0</ns3:atemp>
          </ns3:TrackPointExtension>
        </extensions>
      </trkpt>
      <trkpt lat="42.51089352183043956756591796875" lon="19.90558664314448833465576171875">
        <ele>1990.4000244140625</ele>
        <time>2026-06-17T11:10:09.000Z</time>
        <extensions>
          <ns3:TrackPointExtension>
            <ns3:atemp>20.0</ns3:atemp>
          </ns3:TrackPointExtension>
        </extensions>
      </trkpt>
      <trkpt lat="42.51089352183043956756591796875" lon="19.90558664314448833465576171875">
        <ele>1990.4000244140625</ele>
        <time>2026-06-17T11:10:10.000Z</time>
        <extensions>
          <ns3:TrackPointExtension>
            <ns3:atemp>20.0</ns3:atemp>
          </ns3:TrackPointExtension>
        </extensions>
      </trkpt>
      <trkpt lat="42.51089352183043956756591796875" lon="19.90558664314448833465576171875">
        <ele>1990.4000244140625</ele>
        <time>2026-06-17T11:10:11.000Z</time>
        <extensions>
          <ns3:TrackPointExtension>
            <ns3:atemp>20.0</ns3:atemp>
          </ns3:TrackPointExtension>
        </extensions>
      </trkpt>
      <trkpt lat="42.51089352183043956756591796875" lon="19.90558664314448833465576171875">
        <ele>1990.4000244140625</ele>
        <time>2026-06-17T11:10:12.000Z</time>
        <extensions>
          <ns3:TrackPointExtension>
            <ns3:atemp>20.0</ns3:atemp>
          </ns3:TrackPointExtension>
        </extensions>
      </trkpt>
      <trkpt lat="42.51089352183043956756591796875" lon="19.90558664314448833465576171875">
        <ele>1990.4000244140625</ele>
        <time>2026-06-17T11:10:13.000Z</time>
        <extensions>
          <ns3:TrackPointExtension>
            <ns3:atemp>20.0</ns3:atemp>
          </ns3:TrackPointExtension>
        </extensions>
      </trkpt>
      <trkpt lat="42.51089352183043956756591796875" lon="19.90558664314448833465576171875">
        <ele>1990.4000244140625</ele>
        <time>2026-06-17T11:10:14.000Z</time>
        <extensions>
          <ns3:TrackPointExtension>
            <ns3:atemp>20.0</ns3:atemp>
          </ns3:TrackPointExtension>
        </extensions>
      </trkpt>
      <trkpt lat="42.51089352183043956756591796875" lon="19.90558664314448833465576171875">
        <ele>1990.4000244140625</ele>
        <time>2026-06-17T11:10:15.000Z</time>
        <extensions>
          <ns3:TrackPointExtension>
            <ns3:atemp>20.0</ns3:atemp>
          </ns3:TrackPointExtension>
        </extensions>
      </trkpt>
      <trkpt lat="42.51089352183043956756591796875" lon="19.90558664314448833465576171875">
        <ele>1990.4000244140625</ele>
        <time>2026-06-17T11:10:16.000Z</time>
        <extensions>
          <ns3:TrackPointExtension>
            <ns3:atemp>20.0</ns3:atemp>
          </ns3:TrackPointExtension>
        </extensions>
      </trkpt>
      <trkpt lat="42.51089352183043956756591796875" lon="19.90558664314448833465576171875">
        <ele>1990.4000244140625</ele>
        <time>2026-06-17T11:10:17.000Z</time>
        <extensions>
          <ns3:TrackPointExtension>
            <ns3:atemp>20.0</ns3:atemp>
          </ns3:TrackPointExtension>
        </extensions>
      </trkpt>
      <trkpt lat="42.51089352183043956756591796875" lon="19.90558664314448833465576171875">
        <ele>1990.4000244140625</ele>
        <time>2026-06-17T11:10:18.000Z</time>
        <extensions>
          <ns3:TrackPointExtension>
            <ns3:atemp>20.0</ns3:atemp>
          </ns3:TrackPointExtension>
        </extensions>
      </trkpt>
      <trkpt lat="42.51089352183043956756591796875" lon="19.90558664314448833465576171875">
        <ele>1990.4000244140625</ele>
        <time>2026-06-17T11:10:19.000Z</time>
        <extensions>
          <ns3:TrackPointExtension>
            <ns3:atemp>20.0</ns3:atemp>
          </ns3:TrackPointExtension>
        </extensions>
      </trkpt>
      <trkpt lat="42.51089352183043956756591796875" lon="19.90558664314448833465576171875">
        <ele>1990.4000244140625</ele>
        <time>2026-06-17T11:10:20.000Z</time>
        <extensions>
          <ns3:TrackPointExtension>
            <ns3:atemp>20.0</ns3:atemp>
          </ns3:TrackPointExtension>
        </extensions>
      </trkpt>
      <trkpt lat="42.51089352183043956756591796875" lon="19.90558664314448833465576171875">
        <ele>1990.4000244140625</ele>
        <time>2026-06-17T11:10:21.000Z</time>
        <extensions>
          <ns3:TrackPointExtension>
            <ns3:atemp>20.0</ns3:atemp>
          </ns3:TrackPointExtension>
        </extensions>
      </trkpt>
      <trkpt lat="42.51089352183043956756591796875" lon="19.90558664314448833465576171875">
        <ele>1990.4000244140625</ele>
        <time>2026-06-17T11:10:22.000Z</time>
        <extensions>
          <ns3:TrackPointExtension>
            <ns3:atemp>20.0</ns3:atemp>
          </ns3:TrackPointExtension>
        </extensions>
      </trkpt>
      <trkpt lat="42.51089352183043956756591796875" lon="19.90558664314448833465576171875">
        <ele>1990.4000244140625</ele>
        <time>2026-06-17T11:10:23.000Z</time>
        <extensions>
          <ns3:TrackPointExtension>
            <ns3:atemp>20.0</ns3:atemp>
          </ns3:TrackPointExtension>
        </extensions>
      </trkpt>
      <trkpt lat="42.51089352183043956756591796875" lon="19.90558664314448833465576171875">
        <ele>1990.4000244140625</ele>
        <time>2026-06-17T11:10:24.000Z</time>
        <extensions>
          <ns3:TrackPointExtension>
            <ns3:atemp>20.0</ns3:atemp>
          </ns3:TrackPointExtension>
        </extensions>
      </trkpt>
      <trkpt lat="42.51089352183043956756591796875" lon="19.90558664314448833465576171875">
        <ele>1990.4000244140625</ele>
        <time>2026-06-17T11:10:25.000Z</time>
        <extensions>
          <ns3:TrackPointExtension>
            <ns3:atemp>20.0</ns3:atemp>
          </ns3:TrackPointExtension>
        </extensions>
      </trkpt>
      <trkpt lat="42.51089352183043956756591796875" lon="19.90558664314448833465576171875">
        <ele>1990.5999755859375</ele>
        <time>2026-06-17T11:10:26.000Z</time>
        <extensions>
          <ns3:TrackPointExtension>
            <ns3:atemp>20.0</ns3:atemp>
          </ns3:TrackPointExtension>
        </extensions>
      </trkpt>
      <trkpt lat="42.51089352183043956756591796875" lon="19.90558664314448833465576171875">
        <ele>1990.5999755859375</ele>
        <time>2026-06-17T11:10:27.000Z</time>
        <extensions>
          <ns3:TrackPointExtension>
            <ns3:atemp>20.0</ns3:atemp>
          </ns3:TrackPointExtension>
        </extensions>
      </trkpt>
      <trkpt lat="42.51089352183043956756591796875" lon="19.90558664314448833465576171875">
        <ele>1990.4000244140625</ele>
        <time>2026-06-17T11:10:28.000Z</time>
        <extensions>
          <ns3:TrackPointExtension>
            <ns3:atemp>20.0</ns3:atemp>
          </ns3:TrackPointExtension>
        </extensions>
      </trkpt>
      <trkpt lat="42.51089352183043956756591796875" lon="19.90558664314448833465576171875">
        <ele>1990.4000244140625</ele>
        <time>2026-06-17T11:10:29.000Z</time>
        <extensions>
          <ns3:TrackPointExtension>
            <ns3:atemp>20.0</ns3:atemp>
          </ns3:TrackPointExtension>
        </extensions>
      </trkpt>
      <trkpt lat="42.51089352183043956756591796875" lon="19.90558664314448833465576171875">
        <ele>1990.4000244140625</ele>
        <time>2026-06-17T11:10:30.000Z</time>
        <extensions>
          <ns3:TrackPointExtension>
            <ns3:atemp>20.0</ns3:atemp>
          </ns3:TrackPointExtension>
        </extensions>
      </trkpt>
      <trkpt lat="42.51089352183043956756591796875" lon="19.90558664314448833465576171875">
        <ele>1990.4000244140625</ele>
        <time>2026-06-17T11:10:31.000Z</time>
        <extensions>
          <ns3:TrackPointExtension>
            <ns3:atemp>20.0</ns3:atemp>
          </ns3:TrackPointExtension>
        </extensions>
      </trkpt>
      <trkpt lat="42.51089352183043956756591796875" lon="19.90558664314448833465576171875">
        <ele>1990.5999755859375</ele>
        <time>2026-06-17T11:10:32.000Z</time>
        <extensions>
          <ns3:TrackPointExtension>
            <ns3:atemp>20.0</ns3:atemp>
          </ns3:TrackPointExtension>
        </extensions>
      </trkpt>
      <trkpt lat="42.51089352183043956756591796875" lon="19.90558664314448833465576171875">
        <ele>1990.5999755859375</ele>
        <time>2026-06-17T11:10:33.000Z</time>
        <extensions>
          <ns3:TrackPointExtension>
            <ns3:atemp>20.0</ns3:atemp>
          </ns3:TrackPointExtension>
        </extensions>
      </trkpt>
      <trkpt lat="42.51089352183043956756591796875" lon="19.90558664314448833465576171875">
        <ele>1990.5999755859375</ele>
        <time>2026-06-17T11:10:34.000Z</time>
        <extensions>
          <ns3:TrackPointExtension>
            <ns3:atemp>20.0</ns3:atemp>
          </ns3:TrackPointExtension>
        </extensions>
      </trkpt>
      <trkpt lat="42.51089352183043956756591796875" lon="19.90558664314448833465576171875">
        <ele>1990.5999755859375</ele>
        <time>2026-06-17T11:10:35.000Z</time>
        <extensions>
          <ns3:TrackPointExtension>
            <ns3:atemp>20.0</ns3:atemp>
          </ns3:TrackPointExtension>
        </extensions>
      </trkpt>
      <trkpt lat="42.51089352183043956756591796875" lon="19.90558664314448833465576171875">
        <ele>1990.5999755859375</ele>
        <time>2026-06-17T11:10:36.000Z</time>
        <extensions>
          <ns3:TrackPointExtension>
            <ns3:atemp>20.0</ns3:atemp>
          </ns3:TrackPointExtension>
        </extensions>
      </trkpt>
      <trkpt lat="42.51089352183043956756591796875" lon="19.90558664314448833465576171875">
        <ele>1990.5999755859375</ele>
        <time>2026-06-17T11:10:37.000Z</time>
        <extensions>
          <ns3:TrackPointExtension>
            <ns3:atemp>20.0</ns3:atemp>
          </ns3:TrackPointExtension>
        </extensions>
      </trkpt>
      <trkpt lat="42.51089352183043956756591796875" lon="19.90558664314448833465576171875">
        <ele>1990.5999755859375</ele>
        <time>2026-06-17T11:10:38.000Z</time>
        <extensions>
          <ns3:TrackPointExtension>
            <ns3:atemp>20.0</ns3:atemp>
          </ns3:TrackPointExtension>
        </extensions>
      </trkpt>
      <trkpt lat="42.51089352183043956756591796875" lon="19.90558664314448833465576171875">
        <ele>1990.5999755859375</ele>
        <time>2026-06-17T11:10:39.000Z</time>
        <extensions>
          <ns3:TrackPointExtension>
            <ns3:atemp>20.0</ns3:atemp>
          </ns3:TrackPointExtension>
        </extensions>
      </trkpt>
      <trkpt lat="42.51089352183043956756591796875" lon="19.90558664314448833465576171875">
        <ele>1990.5999755859375</ele>
        <time>2026-06-17T11:10:40.000Z</time>
        <extensions>
          <ns3:TrackPointExtension>
            <ns3:atemp>20.0</ns3:atemp>
          </ns3:TrackPointExtension>
        </extensions>
      </trkpt>
      <trkpt lat="42.51089352183043956756591796875" lon="19.90558664314448833465576171875">
        <ele>1990.5999755859375</ele>
        <time>2026-06-17T11:10:41.000Z</time>
        <extensions>
          <ns3:TrackPointExtension>
            <ns3:atemp>20.0</ns3:atemp>
          </ns3:TrackPointExtension>
        </extensions>
      </trkpt>
      <trkpt lat="42.51089352183043956756591796875" lon="19.90558664314448833465576171875">
        <ele>1990.5999755859375</ele>
        <time>2026-06-17T11:10:42.000Z</time>
        <extensions>
          <ns3:TrackPointExtension>
            <ns3:atemp>20.0</ns3:atemp>
          </ns3:TrackPointExtension>
        </extensions>
      </trkpt>
      <trkpt lat="42.51089352183043956756591796875" lon="19.90558664314448833465576171875">
        <ele>1990.5999755859375</ele>
        <time>2026-06-17T11:10:43.000Z</time>
        <extensions>
          <ns3:TrackPointExtension>
            <ns3:atemp>20.0</ns3:atemp>
          </ns3:TrackPointExtension>
        </extensions>
      </trkpt>
      <trkpt lat="42.51089352183043956756591796875" lon="19.90558664314448833465576171875">
        <ele>1990.5999755859375</ele>
        <time>2026-06-17T11:10:44.000Z</time>
        <extensions>
          <ns3:TrackPointExtension>
            <ns3:atemp>20.0</ns3:atemp>
          </ns3:TrackPointExtension>
        </extensions>
      </trkpt>
      <trkpt lat="42.51089352183043956756591796875" lon="19.90558664314448833465576171875">
        <ele>1990.5999755859375</ele>
        <time>2026-06-17T11:10:45.000Z</time>
        <extensions>
          <ns3:TrackPointExtension>
            <ns3:atemp>20.0</ns3:atemp>
          </ns3:TrackPointExtension>
        </extensions>
      </trkpt>
      <trkpt lat="42.51089352183043956756591796875" lon="19.90558664314448833465576171875">
        <ele>1990.5999755859375</ele>
        <time>2026-06-17T11:10:46.000Z</time>
        <extensions>
          <ns3:TrackPointExtension>
            <ns3:atemp>20.0</ns3:atemp>
          </ns3:TrackPointExtension>
        </extensions>
      </trkpt>
      <trkpt lat="42.51089352183043956756591796875" lon="19.90558664314448833465576171875">
        <ele>1990.5999755859375</ele>
        <time>2026-06-17T11:10:47.000Z</time>
        <extensions>
          <ns3:TrackPointExtension>
            <ns3:atemp>20.0</ns3:atemp>
          </ns3:TrackPointExtension>
        </extensions>
      </trkpt>
      <trkpt lat="42.51089352183043956756591796875" lon="19.90558664314448833465576171875">
        <ele>1990.5999755859375</ele>
        <time>2026-06-17T11:10:48.000Z</time>
        <extensions>
          <ns3:TrackPointExtension>
            <ns3:atemp>20.0</ns3:atemp>
          </ns3:TrackPointExtension>
        </extensions>
      </trkpt>
      <trkpt lat="42.51089352183043956756591796875" lon="19.90558664314448833465576171875">
        <ele>1990.5999755859375</ele>
        <time>2026-06-17T11:10:49.000Z</time>
        <extensions>
          <ns3:TrackPointExtension>
            <ns3:atemp>20.0</ns3:atemp>
          </ns3:TrackPointExtension>
        </extensions>
      </trkpt>
      <trkpt lat="42.51089352183043956756591796875" lon="19.90558664314448833465576171875">
        <ele>1990.5999755859375</ele>
        <time>2026-06-17T11:10:50.000Z</time>
        <extensions>
          <ns3:TrackPointExtension>
            <ns3:atemp>20.0</ns3:atemp>
          </ns3:TrackPointExtension>
        </extensions>
      </trkpt>
      <trkpt lat="42.51089352183043956756591796875" lon="19.90558664314448833465576171875">
        <ele>1990.5999755859375</ele>
        <time>2026-06-17T11:10:51.000Z</time>
        <extensions>
          <ns3:TrackPointExtension>
            <ns3:atemp>20.0</ns3:atemp>
          </ns3:TrackPointExtension>
        </extensions>
      </trkpt>
      <trkpt lat="42.51089352183043956756591796875" lon="19.90558664314448833465576171875">
        <ele>1990.800048828125</ele>
        <time>2026-06-17T11:10:52.000Z</time>
        <extensions>
          <ns3:TrackPointExtension>
            <ns3:atemp>20.0</ns3:atemp>
          </ns3:TrackPointExtension>
        </extensions>
      </trkpt>
      <trkpt lat="42.51089352183043956756591796875" lon="19.90558664314448833465576171875">
        <ele>1990.800048828125</ele>
        <time>2026-06-17T11:10:53.000Z</time>
        <extensions>
          <ns3:TrackPointExtension>
            <ns3:atemp>20.0</ns3:atemp>
          </ns3:TrackPointExtension>
        </extensions>
      </trkpt>
      <trkpt lat="42.51089352183043956756591796875" lon="19.90558664314448833465576171875">
        <ele>1990.800048828125</ele>
        <time>2026-06-17T11:10:54.000Z</time>
        <extensions>
          <ns3:TrackPointExtension>
            <ns3:atemp>20.0</ns3:atemp>
          </ns3:TrackPointExtension>
        </extensions>
      </trkpt>
      <trkpt lat="42.51089352183043956756591796875" lon="19.90558664314448833465576171875">
        <ele>1990.800048828125</ele>
        <time>2026-06-17T11:10:55.000Z</time>
        <extensions>
          <ns3:TrackPointExtension>
            <ns3:atemp>20.0</ns3:atemp>
          </ns3:TrackPointExtension>
        </extensions>
      </trkpt>
      <trkpt lat="42.51089352183043956756591796875" lon="19.90558664314448833465576171875">
        <ele>1990.800048828125</ele>
        <time>2026-06-17T11:10:56.000Z</time>
        <extensions>
          <ns3:TrackPointExtension>
            <ns3:atemp>20.0</ns3:atemp>
          </ns3:TrackPointExtension>
        </extensions>
      </trkpt>
      <trkpt lat="42.51089352183043956756591796875" lon="19.90558664314448833465576171875">
        <ele>1990.800048828125</ele>
        <time>2026-06-17T11:10:57.000Z</time>
        <extensions>
          <ns3:TrackPointExtension>
            <ns3:atemp>20.0</ns3:atemp>
          </ns3:TrackPointExtension>
        </extensions>
      </trkpt>
      <trkpt lat="42.51089352183043956756591796875" lon="19.90558664314448833465576171875">
        <ele>1990.800048828125</ele>
        <time>2026-06-17T11:10:58.000Z</time>
        <extensions>
          <ns3:TrackPointExtension>
            <ns3:atemp>20.0</ns3:atemp>
          </ns3:TrackPointExtension>
        </extensions>
      </trkpt>
      <trkpt lat="42.51089352183043956756591796875" lon="19.90558664314448833465576171875">
        <ele>1990.800048828125</ele>
        <time>2026-06-17T11:10:59.000Z</time>
        <extensions>
          <ns3:TrackPointExtension>
            <ns3:atemp>20.0</ns3:atemp>
          </ns3:TrackPointExtension>
        </extensions>
      </trkpt>
      <trkpt lat="42.51089352183043956756591796875" lon="19.90558664314448833465576171875">
        <ele>1990.800048828125</ele>
        <time>2026-06-17T11:11:00.000Z</time>
        <extensions>
          <ns3:TrackPointExtension>
            <ns3:atemp>20.0</ns3:atemp>
          </ns3:TrackPointExtension>
        </extensions>
      </trkpt>
      <trkpt lat="42.51089352183043956756591796875" lon="19.90558664314448833465576171875">
        <ele>1990.800048828125</ele>
        <time>2026-06-17T11:11:01.000Z</time>
        <extensions>
          <ns3:TrackPointExtension>
            <ns3:atemp>20.0</ns3:atemp>
          </ns3:TrackPointExtension>
        </extensions>
      </trkpt>
      <trkpt lat="42.51089352183043956756591796875" lon="19.90558664314448833465576171875">
        <ele>1990.800048828125</ele>
        <time>2026-06-17T11:11:02.000Z</time>
        <extensions>
          <ns3:TrackPointExtension>
            <ns3:atemp>20.0</ns3:atemp>
          </ns3:TrackPointExtension>
        </extensions>
      </trkpt>
      <trkpt lat="42.51089352183043956756591796875" lon="19.90558664314448833465576171875">
        <ele>1990.800048828125</ele>
        <time>2026-06-17T11:11:03.000Z</time>
        <extensions>
          <ns3:TrackPointExtension>
            <ns3:atemp>20.0</ns3:atemp>
          </ns3:TrackPointExtension>
        </extensions>
      </trkpt>
      <trkpt lat="42.51089352183043956756591796875" lon="19.90558664314448833465576171875">
        <ele>1990.800048828125</ele>
        <time>2026-06-17T11:11:04.000Z</time>
        <extensions>
          <ns3:TrackPointExtension>
            <ns3:atemp>20.0</ns3:atemp>
          </ns3:TrackPointExtension>
        </extensions>
      </trkpt>
      <trkpt lat="42.51089352183043956756591796875" lon="19.90558664314448833465576171875">
        <ele>1990.800048828125</ele>
        <time>2026-06-17T11:11:05.000Z</time>
        <extensions>
          <ns3:TrackPointExtension>
            <ns3:atemp>20.0</ns3:atemp>
          </ns3:TrackPointExtension>
        </extensions>
      </trkpt>
      <trkpt lat="42.51089352183043956756591796875" lon="19.90558664314448833465576171875">
        <ele>1990.800048828125</ele>
        <time>2026-06-17T11:11:06.000Z</time>
        <extensions>
          <ns3:TrackPointExtension>
            <ns3:atemp>20.0</ns3:atemp>
          </ns3:TrackPointExtension>
        </extensions>
      </trkpt>
      <trkpt lat="42.51089352183043956756591796875" lon="19.90558664314448833465576171875">
        <ele>1990.800048828125</ele>
        <time>2026-06-17T11:11:07.000Z</time>
        <extensions>
          <ns3:TrackPointExtension>
            <ns3:atemp>20.0</ns3:atemp>
          </ns3:TrackPointExtension>
        </extensions>
      </trkpt>
      <trkpt lat="42.51089352183043956756591796875" lon="19.90558664314448833465576171875">
        <ele>1990.800048828125</ele>
        <time>2026-06-17T11:11:08.000Z</time>
        <extensions>
          <ns3:TrackPointExtension>
            <ns3:atemp>20.0</ns3:atemp>
          </ns3:TrackPointExtension>
        </extensions>
      </trkpt>
      <trkpt lat="42.51089352183043956756591796875" lon="19.90558664314448833465576171875">
        <ele>1990.800048828125</ele>
        <time>2026-06-17T11:11:09.000Z</time>
        <extensions>
          <ns3:TrackPointExtension>
            <ns3:atemp>20.0</ns3:atemp>
          </ns3:TrackPointExtension>
        </extensions>
      </trkpt>
      <trkpt lat="42.51089352183043956756591796875" lon="19.90558664314448833465576171875">
        <ele>1990.800048828125</ele>
        <time>2026-06-17T11:11:10.000Z</time>
        <extensions>
          <ns3:TrackPointExtension>
            <ns3:atemp>20.0</ns3:atemp>
          </ns3:TrackPointExtension>
        </extensions>
      </trkpt>
      <trkpt lat="42.51089352183043956756591796875" lon="19.90558664314448833465576171875">
        <ele>1990.800048828125</ele>
        <time>2026-06-17T11:11:11.000Z</time>
        <extensions>
          <ns3:TrackPointExtension>
            <ns3:atemp>20.0</ns3:atemp>
          </ns3:TrackPointExtension>
        </extensions>
      </trkpt>
      <trkpt lat="42.51089352183043956756591796875" lon="19.90558664314448833465576171875">
        <ele>1990.800048828125</ele>
        <time>2026-06-17T11:11:12.000Z</time>
        <extensions>
          <ns3:TrackPointExtension>
            <ns3:atemp>20.0</ns3:atemp>
          </ns3:TrackPointExtension>
        </extensions>
      </trkpt>
      <trkpt lat="42.51089352183043956756591796875" lon="19.90558664314448833465576171875">
        <ele>1990.800048828125</ele>
        <time>2026-06-17T11:11:13.000Z</time>
        <extensions>
          <ns3:TrackPointExtension>
            <ns3:atemp>20.0</ns3:atemp>
          </ns3:TrackPointExtension>
        </extensions>
      </trkpt>
      <trkpt lat="42.51089352183043956756591796875" lon="19.90558664314448833465576171875">
        <ele>1990.800048828125</ele>
        <time>2026-06-17T11:11:14.000Z</time>
        <extensions>
          <ns3:TrackPointExtension>
            <ns3:atemp>20.0</ns3:atemp>
          </ns3:TrackPointExtension>
        </extensions>
      </trkpt>
      <trkpt lat="42.51089352183043956756591796875" lon="19.90558664314448833465576171875">
        <ele>1990.800048828125</ele>
        <time>2026-06-17T11:11:15.000Z</time>
        <extensions>
          <ns3:TrackPointExtension>
            <ns3:atemp>20.0</ns3:atemp>
          </ns3:TrackPointExtension>
        </extensions>
      </trkpt>
      <trkpt lat="42.51089352183043956756591796875" lon="19.90558664314448833465576171875">
        <ele>1990.800048828125</ele>
        <time>2026-06-17T11:11:16.000Z</time>
        <extensions>
          <ns3:TrackPointExtension>
            <ns3:atemp>20.0</ns3:atemp>
          </ns3:TrackPointExtension>
        </extensions>
      </trkpt>
      <trkpt lat="42.51089352183043956756591796875" lon="19.90558664314448833465576171875">
        <ele>1990.800048828125</ele>
        <time>2026-06-17T11:11:17.000Z</time>
        <extensions>
          <ns3:TrackPointExtension>
            <ns3:atemp>20.0</ns3:atemp>
          </ns3:TrackPointExtension>
        </extensions>
      </trkpt>
      <trkpt lat="42.51089352183043956756591796875" lon="19.90558664314448833465576171875">
        <ele>1990.800048828125</ele>
        <time>2026-06-17T11:11:18.000Z</time>
        <extensions>
          <ns3:TrackPointExtension>
            <ns3:atemp>20.0</ns3:atemp>
          </ns3:TrackPointExtension>
        </extensions>
      </trkpt>
      <trkpt lat="42.51089352183043956756591796875" lon="19.90558664314448833465576171875">
        <ele>1990.800048828125</ele>
        <time>2026-06-17T11:11:19.000Z</time>
        <extensions>
          <ns3:TrackPointExtension>
            <ns3:atemp>20.0</ns3:atemp>
          </ns3:TrackPointExtension>
        </extensions>
      </trkpt>
      <trkpt lat="42.51089352183043956756591796875" lon="19.90558664314448833465576171875">
        <ele>1990.800048828125</ele>
        <time>2026-06-17T11:11:20.000Z</time>
        <extensions>
          <ns3:TrackPointExtension>
            <ns3:atemp>20.0</ns3:atemp>
          </ns3:TrackPointExtension>
        </extensions>
      </trkpt>
      <trkpt lat="42.51089352183043956756591796875" lon="19.90558664314448833465576171875">
        <ele>1990.800048828125</ele>
        <time>2026-06-17T11:11:21.000Z</time>
        <extensions>
          <ns3:TrackPointExtension>
            <ns3:atemp>20.0</ns3:atemp>
          </ns3:TrackPointExtension>
        </extensions>
      </trkpt>
      <trkpt lat="42.51089352183043956756591796875" lon="19.90558664314448833465576171875">
        <ele>1990.800048828125</ele>
        <time>2026-06-17T11:11:22.000Z</time>
        <extensions>
          <ns3:TrackPointExtension>
            <ns3:atemp>20.0</ns3:atemp>
          </ns3:TrackPointExtension>
        </extensions>
      </trkpt>
      <trkpt lat="42.51089352183043956756591796875" lon="19.90558664314448833465576171875">
        <ele>1990.800048828125</ele>
        <time>2026-06-17T11:11:23.000Z</time>
        <extensions>
          <ns3:TrackPointExtension>
            <ns3:atemp>20.0</ns3:atemp>
          </ns3:TrackPointExtension>
        </extensions>
      </trkpt>
      <trkpt lat="42.51089352183043956756591796875" lon="19.90558664314448833465576171875">
        <ele>1990.800048828125</ele>
        <time>2026-06-17T11:11:24.000Z</time>
        <extensions>
          <ns3:TrackPointExtension>
            <ns3:atemp>20.0</ns3:atemp>
          </ns3:TrackPointExtension>
        </extensions>
      </trkpt>
      <trkpt lat="42.51089352183043956756591796875" lon="19.90558664314448833465576171875">
        <ele>1990.800048828125</ele>
        <time>2026-06-17T11:11:25.000Z</time>
        <extensions>
          <ns3:TrackPointExtension>
            <ns3:atemp>20.0</ns3:atemp>
          </ns3:TrackPointExtension>
        </extensions>
      </trkpt>
      <trkpt lat="42.51089352183043956756591796875" lon="19.90558664314448833465576171875">
        <ele>1990.800048828125</ele>
        <time>2026-06-17T11:11:26.000Z</time>
        <extensions>
          <ns3:TrackPointExtension>
            <ns3:atemp>20.0</ns3:atemp>
          </ns3:TrackPointExtension>
        </extensions>
      </trkpt>
      <trkpt lat="42.51089352183043956756591796875" lon="19.90558664314448833465576171875">
        <ele>1990.800048828125</ele>
        <time>2026-06-17T11:11:27.000Z</time>
        <extensions>
          <ns3:TrackPointExtension>
            <ns3:atemp>20.0</ns3:atemp>
          </ns3:TrackPointExtension>
        </extensions>
      </trkpt>
      <trkpt lat="42.51089352183043956756591796875" lon="19.90558664314448833465576171875">
        <ele>1990.800048828125</ele>
        <time>2026-06-17T11:11:28.000Z</time>
        <extensions>
          <ns3:TrackPointExtension>
            <ns3:atemp>20.0</ns3:atemp>
          </ns3:TrackPointExtension>
        </extensions>
      </trkpt>
      <trkpt lat="42.51089352183043956756591796875" lon="19.90558664314448833465576171875">
        <ele>1990.800048828125</ele>
        <time>2026-06-17T11:11:29.000Z</time>
        <extensions>
          <ns3:TrackPointExtension>
            <ns3:atemp>20.0</ns3:atemp>
          </ns3:TrackPointExtension>
        </extensions>
      </trkpt>
      <trkpt lat="42.51089352183043956756591796875" lon="19.90558664314448833465576171875">
        <ele>1990.800048828125</ele>
        <time>2026-06-17T11:11:30.000Z</time>
        <extensions>
          <ns3:TrackPointExtension>
            <ns3:atemp>20.0</ns3:atemp>
          </ns3:TrackPointExtension>
        </extensions>
      </trkpt>
      <trkpt lat="42.51089352183043956756591796875" lon="19.90558664314448833465576171875">
        <ele>1990.800048828125</ele>
        <time>2026-06-17T11:11:31.000Z</time>
        <extensions>
          <ns3:TrackPointExtension>
            <ns3:atemp>20.0</ns3:atemp>
          </ns3:TrackPointExtension>
        </extensions>
      </trkpt>
      <trkpt lat="42.51089352183043956756591796875" lon="19.90558664314448833465576171875">
        <ele>1990.800048828125</ele>
        <time>2026-06-17T11:11:32.000Z</time>
        <extensions>
          <ns3:TrackPointExtension>
            <ns3:atemp>20.0</ns3:atemp>
          </ns3:TrackPointExtension>
        </extensions>
      </trkpt>
      <trkpt lat="42.51089352183043956756591796875" lon="19.90558664314448833465576171875">
        <ele>1990.800048828125</ele>
        <time>2026-06-17T11:11:33.000Z</time>
        <extensions>
          <ns3:TrackPointExtension>
            <ns3:atemp>20.0</ns3:atemp>
          </ns3:TrackPointExtension>
        </extensions>
      </trkpt>
      <trkpt lat="42.51089352183043956756591796875" lon="19.90558664314448833465576171875">
        <ele>1990.800048828125</ele>
        <time>2026-06-17T11:11:34.000Z</time>
        <extensions>
          <ns3:TrackPointExtension>
            <ns3:atemp>20.0</ns3:atemp>
          </ns3:TrackPointExtension>
        </extensions>
      </trkpt>
      <trkpt lat="42.51089352183043956756591796875" lon="19.90558664314448833465576171875">
        <ele>1990.800048828125</ele>
        <time>2026-06-17T11:11:35.000Z</time>
        <extensions>
          <ns3:TrackPointExtension>
            <ns3:atemp>20.0</ns3:atemp>
          </ns3:TrackPointExtension>
        </extensions>
      </trkpt>
      <trkpt lat="42.51089352183043956756591796875" lon="19.90558664314448833465576171875">
        <ele>1990.800048828125</ele>
        <time>2026-06-17T11:11:36.000Z</time>
        <extensions>
          <ns3:TrackPointExtension>
            <ns3:atemp>20.0</ns3:atemp>
          </ns3:TrackPointExtension>
        </extensions>
      </trkpt>
      <trkpt lat="42.51089352183043956756591796875" lon="19.90558664314448833465576171875">
        <ele>1990.800048828125</ele>
        <time>2026-06-17T11:11:37.000Z</time>
        <extensions>
          <ns3:TrackPointExtension>
            <ns3:atemp>20.0</ns3:atemp>
          </ns3:TrackPointExtension>
        </extensions>
      </trkpt>
      <trkpt lat="42.51089352183043956756591796875" lon="19.90558664314448833465576171875">
        <ele>1990.800048828125</ele>
        <time>2026-06-17T11:11:38.000Z</time>
        <extensions>
          <ns3:TrackPointExtension>
            <ns3:atemp>20.0</ns3:atemp>
          </ns3:TrackPointExtension>
        </extensions>
      </trkpt>
      <trkpt lat="42.51089352183043956756591796875" lon="19.90558664314448833465576171875">
        <ele>1990.800048828125</ele>
        <time>2026-06-17T11:11:39.000Z</time>
        <extensions>
          <ns3:TrackPointExtension>
            <ns3:atemp>20.0</ns3:atemp>
          </ns3:TrackPointExtension>
        </extensions>
      </trkpt>
      <trkpt lat="42.51089352183043956756591796875" lon="19.90558664314448833465576171875">
        <ele>1990.800048828125</ele>
        <time>2026-06-17T11:11:40.000Z</time>
        <extensions>
          <ns3:TrackPointExtension>
            <ns3:atemp>20.0</ns3:atemp>
          </ns3:TrackPointExtension>
        </extensions>
      </trkpt>
      <trkpt lat="42.51089352183043956756591796875" lon="19.90558664314448833465576171875">
        <ele>1990.800048828125</ele>
        <time>2026-06-17T11:11:41.000Z</time>
        <extensions>
          <ns3:TrackPointExtension>
            <ns3:atemp>20.0</ns3:atemp>
          </ns3:TrackPointExtension>
        </extensions>
      </trkpt>
      <trkpt lat="42.51089352183043956756591796875" lon="19.90558664314448833465576171875">
        <ele>1990.800048828125</ele>
        <time>2026-06-17T11:11:42.000Z</time>
        <extensions>
          <ns3:TrackPointExtension>
            <ns3:atemp>20.0</ns3:atemp>
          </ns3:TrackPointExtension>
        </extensions>
      </trkpt>
      <trkpt lat="42.51089352183043956756591796875" lon="19.90558664314448833465576171875">
        <ele>1990.800048828125</ele>
        <time>2026-06-17T11:11:43.000Z</time>
        <extensions>
          <ns3:TrackPointExtension>
            <ns3:atemp>20.0</ns3:atemp>
          </ns3:TrackPointExtension>
        </extensions>
      </trkpt>
      <trkpt lat="42.51089352183043956756591796875" lon="19.90558664314448833465576171875">
        <ele>1990.800048828125</ele>
        <time>2026-06-17T11:11:44.000Z</time>
        <extensions>
          <ns3:TrackPointExtension>
            <ns3:atemp>20.0</ns3:atemp>
          </ns3:TrackPointExtension>
        </extensions>
      </trkpt>
      <trkpt lat="42.51089352183043956756591796875" lon="19.90558664314448833465576171875">
        <ele>1990.800048828125</ele>
        <time>2026-06-17T11:11:45.000Z</time>
        <extensions>
          <ns3:TrackPointExtension>
            <ns3:atemp>20.0</ns3:atemp>
          </ns3:TrackPointExtension>
        </extensions>
      </trkpt>
      <trkpt lat="42.51089352183043956756591796875" lon="19.90558664314448833465576171875">
        <ele>1990.800048828125</ele>
        <time>2026-06-17T11:11:46.000Z</time>
        <extensions>
          <ns3:TrackPointExtension>
            <ns3:atemp>20.0</ns3:atemp>
          </ns3:TrackPointExtension>
        </extensions>
      </trkpt>
      <trkpt lat="42.51089352183043956756591796875" lon="19.90558664314448833465576171875">
        <ele>1990.800048828125</ele>
        <time>2026-06-17T11:11:47.000Z</time>
        <extensions>
          <ns3:TrackPointExtension>
            <ns3:atemp>20.0</ns3:atemp>
          </ns3:TrackPointExtension>
        </extensions>
      </trkpt>
      <trkpt lat="42.51089352183043956756591796875" lon="19.90558664314448833465576171875">
        <ele>1990.800048828125</ele>
        <time>2026-06-17T11:11:48.000Z</time>
        <extensions>
          <ns3:TrackPointExtension>
            <ns3:atemp>20.0</ns3:atemp>
          </ns3:TrackPointExtension>
        </extensions>
      </trkpt>
      <trkpt lat="42.51089352183043956756591796875" lon="19.90558664314448833465576171875">
        <ele>1990.800048828125</ele>
        <time>2026-06-17T11:11:49.000Z</time>
        <extensions>
          <ns3:TrackPointExtension>
            <ns3:atemp>20.0</ns3:atemp>
          </ns3:TrackPointExtension>
        </extensions>
      </trkpt>
      <trkpt lat="42.51089352183043956756591796875" lon="19.90558664314448833465576171875">
        <ele>1990.800048828125</ele>
        <time>2026-06-17T11:11:50.000Z</time>
        <extensions>
          <ns3:TrackPointExtension>
            <ns3:atemp>20.0</ns3:atemp>
          </ns3:TrackPointExtension>
        </extensions>
      </trkpt>
      <trkpt lat="42.51089352183043956756591796875" lon="19.90558664314448833465576171875">
        <ele>1990.800048828125</ele>
        <time>2026-06-17T11:11:51.000Z</time>
        <extensions>
          <ns3:TrackPointExtension>
            <ns3:atemp>20.0</ns3:atemp>
          </ns3:TrackPointExtension>
        </extensions>
      </trkpt>
      <trkpt lat="42.51089352183043956756591796875" lon="19.90558664314448833465576171875">
        <ele>1990.800048828125</ele>
        <time>2026-06-17T11:11:52.000Z</time>
        <extensions>
          <ns3:TrackPointExtension>
            <ns3:atemp>20.0</ns3:atemp>
          </ns3:TrackPointExtension>
        </extensions>
      </trkpt>
      <trkpt lat="42.51089352183043956756591796875" lon="19.90558664314448833465576171875">
        <ele>1990.800048828125</ele>
        <time>2026-06-17T11:11:53.000Z</time>
        <extensions>
          <ns3:TrackPointExtension>
            <ns3:atemp>20.0</ns3:atemp>
          </ns3:TrackPointExtension>
        </extensions>
      </trkpt>
      <trkpt lat="42.51089352183043956756591796875" lon="19.90558664314448833465576171875">
        <ele>1990.800048828125</ele>
        <time>2026-06-17T11:11:54.000Z</time>
        <extensions>
          <ns3:TrackPointExtension>
            <ns3:atemp>20.0</ns3:atemp>
          </ns3:TrackPointExtension>
        </extensions>
      </trkpt>
      <trkpt lat="42.51089352183043956756591796875" lon="19.90558664314448833465576171875">
        <ele>1990.800048828125</ele>
        <time>2026-06-17T11:11:55.000Z</time>
        <extensions>
          <ns3:TrackPointExtension>
            <ns3:atemp>20.0</ns3:atemp>
          </ns3:TrackPointExtension>
        </extensions>
      </trkpt>
      <trkpt lat="42.51089352183043956756591796875" lon="19.90558664314448833465576171875">
        <ele>1990.800048828125</ele>
        <time>2026-06-17T11:11:56.000Z</time>
        <extensions>
          <ns3:TrackPointExtension>
            <ns3:atemp>20.0</ns3:atemp>
          </ns3:TrackPointExtension>
        </extensions>
      </trkpt>
      <trkpt lat="42.51089352183043956756591796875" lon="19.90558664314448833465576171875">
        <ele>1990.800048828125</ele>
        <time>2026-06-17T11:11:57.000Z</time>
        <extensions>
          <ns3:TrackPointExtension>
            <ns3:atemp>20.0</ns3:atemp>
          </ns3:TrackPointExtension>
        </extensions>
      </trkpt>
      <trkpt lat="42.51089352183043956756591796875" lon="19.90558664314448833465576171875">
        <ele>1990.800048828125</ele>
        <time>2026-06-17T11:11:58.000Z</time>
        <extensions>
          <ns3:TrackPointExtension>
            <ns3:atemp>20.0</ns3:atemp>
          </ns3:TrackPointExtension>
        </extensions>
      </trkpt>
      <trkpt lat="42.51089352183043956756591796875" lon="19.90558664314448833465576171875">
        <ele>1990.800048828125</ele>
        <time>2026-06-17T11:11:59.000Z</time>
        <extensions>
          <ns3:TrackPointExtension>
            <ns3:atemp>20.0</ns3:atemp>
          </ns3:TrackPointExtension>
        </extensions>
      </trkpt>
      <trkpt lat="42.51089352183043956756591796875" lon="19.90558664314448833465576171875">
        <ele>1990.800048828125</ele>
        <time>2026-06-17T11:12:00.000Z</time>
        <extensions>
          <ns3:TrackPointExtension>
            <ns3:atemp>20.0</ns3:atemp>
          </ns3:TrackPointExtension>
        </extensions>
      </trkpt>
      <trkpt lat="42.51089352183043956756591796875" lon="19.90558664314448833465576171875">
        <ele>1990.800048828125</ele>
        <time>2026-06-17T11:12:01.000Z</time>
        <extensions>
          <ns3:TrackPointExtension>
            <ns3:atemp>19.0</ns3:atemp>
          </ns3:TrackPointExtension>
        </extensions>
      </trkpt>
      <trkpt lat="42.51089352183043956756591796875" lon="19.90558664314448833465576171875">
        <ele>1990.800048828125</ele>
        <time>2026-06-17T11:12:02.000Z</time>
        <extensions>
          <ns3:TrackPointExtension>
            <ns3:atemp>19.0</ns3:atemp>
          </ns3:TrackPointExtension>
        </extensions>
      </trkpt>
      <trkpt lat="42.51089352183043956756591796875" lon="19.90558664314448833465576171875">
        <ele>1990.800048828125</ele>
        <time>2026-06-17T11:12:03.000Z</time>
        <extensions>
          <ns3:TrackPointExtension>
            <ns3:atemp>20.0</ns3:atemp>
          </ns3:TrackPointExtension>
        </extensions>
      </trkpt>
      <trkpt lat="42.51089352183043956756591796875" lon="19.90558664314448833465576171875">
        <ele>1990.800048828125</ele>
        <time>2026-06-17T11:12:04.000Z</time>
        <extensions>
          <ns3:TrackPointExtension>
            <ns3:atemp>20.0</ns3:atemp>
          </ns3:TrackPointExtension>
        </extensions>
      </trkpt>
      <trkpt lat="42.51089058816432952880859375" lon="19.90558496676385402679443359375">
        <ele>1990.800048828125</ele>
        <time>2026-06-17T11:12:05.000Z</time>
        <extensions>
          <ns3:TrackPointExtension>
            <ns3:atemp>19.0</ns3:atemp>
          </ns3:TrackPointExtension>
        </extensions>
      </trkpt>
      <trkpt lat="42.5108820386230945587158203125" lon="19.90558312274515628814697265625">
        <ele>1990.800048828125</ele>
        <time>2026-06-17T11:12:06.000Z</time>
        <extensions>
          <ns3:TrackPointExtension>
            <ns3:atemp>19.0</ns3:atemp>
          </ns3:TrackPointExtension>
        </extensions>
      </trkpt>
      <trkpt lat="42.51088296063244342803955078125" lon="19.905574321746826171875">
        <ele>1990.800048828125</ele>
        <time>2026-06-17T11:12:07.000Z</time>
        <extensions>
          <ns3:TrackPointExtension>
            <ns3:atemp>20.0</ns3:atemp>
          </ns3:TrackPointExtension>
        </extensions>
      </trkpt>
      <trkpt lat="42.51088530756533145904541015625" lon="19.9055721424520015716552734375">
        <ele>1990.800048828125</ele>
        <time>2026-06-17T11:12:08.000Z</time>
        <extensions>
          <ns3:TrackPointExtension>
            <ns3:atemp>20.0</ns3:atemp>
          </ns3:TrackPointExtension>
        </extensions>
      </trkpt>
      <trkpt lat="42.51089352183043956756591796875" lon="19.90558664314448833465576171875">
        <ele>1990.800048828125</ele>
        <time>2026-06-17T11:12:09.000Z</time>
        <extensions>
          <ns3:TrackPointExtension>
            <ns3:atemp>20.0</ns3:atemp>
          </ns3:TrackPointExtension>
        </extensions>
      </trkpt>
      <trkpt lat="42.51089352183043956756591796875" lon="19.90558664314448833465576171875">
        <ele>1990.800048828125</ele>
        <time>2026-06-17T11:12:10.000Z</time>
        <extensions>
          <ns3:TrackPointExtension>
            <ns3:atemp>20.0</ns3:atemp>
          </ns3:TrackPointExtension>
        </extensions>
      </trkpt>
      <trkpt lat="42.51089352183043956756591796875" lon="19.90558664314448833465576171875">
        <ele>1990.800048828125</ele>
        <time>2026-06-17T11:12:11.000Z</time>
        <extensions>
          <ns3:TrackPointExtension>
            <ns3:atemp>19.0</ns3:atemp>
          </ns3:TrackPointExtension>
        </extensions>
      </trkpt>
      <trkpt lat="42.51089352183043956756591796875" lon="19.90558664314448833465576171875">
        <ele>1990.800048828125</ele>
        <time>2026-06-17T11:12:12.000Z</time>
        <extensions>
          <ns3:TrackPointExtension>
            <ns3:atemp>20.0</ns3:atemp>
          </ns3:TrackPointExtension>
        </extensions>
      </trkpt>
      <trkpt lat="42.51089352183043956756591796875" lon="19.90558664314448833465576171875">
        <ele>1990.800048828125</ele>
        <time>2026-06-17T11:12:13.000Z</time>
        <extensions>
          <ns3:TrackPointExtension>
            <ns3:atemp>19.0</ns3:atemp>
          </ns3:TrackPointExtension>
        </extensions>
      </trkpt>
      <trkpt lat="42.51089352183043956756591796875" lon="19.90558664314448833465576171875">
        <ele>1990.800048828125</ele>
        <time>2026-06-17T11:12:14.000Z</time>
        <extensions>
          <ns3:TrackPointExtension>
            <ns3:atemp>19.0</ns3:atemp>
          </ns3:TrackPointExtension>
        </extensions>
      </trkpt>
      <trkpt lat="42.51089352183043956756591796875" lon="19.90558664314448833465576171875">
        <ele>1990.800048828125</ele>
        <time>2026-06-17T11:12:15.000Z</time>
        <extensions>
          <ns3:TrackPointExtension>
            <ns3:atemp>19.0</ns3:atemp>
          </ns3:TrackPointExtension>
        </extensions>
      </trkpt>
      <trkpt lat="42.51089352183043956756591796875" lon="19.90558664314448833465576171875">
        <ele>1990.800048828125</ele>
        <time>2026-06-17T11:12:16.000Z</time>
        <extensions>
          <ns3:TrackPointExtension>
            <ns3:atemp>19.0</ns3:atemp>
          </ns3:TrackPointExtension>
        </extensions>
      </trkpt>
      <trkpt lat="42.51089352183043956756591796875" lon="19.90558664314448833465576171875">
        <ele>1990.800048828125</ele>
        <time>2026-06-17T11:12:17.000Z</time>
        <extensions>
          <ns3:TrackPointExtension>
            <ns3:atemp>19.0</ns3:atemp>
          </ns3:TrackPointExtension>
        </extensions>
      </trkpt>
      <trkpt lat="42.51089352183043956756591796875" lon="19.90558664314448833465576171875">
        <ele>1990.800048828125</ele>
        <time>2026-06-17T11:12:18.000Z</time>
        <extensions>
          <ns3:TrackPointExtension>
            <ns3:atemp>19.0</ns3:atemp>
          </ns3:TrackPointExtension>
        </extensions>
      </trkpt>
      <trkpt lat="42.51089352183043956756591796875" lon="19.90558664314448833465576171875">
        <ele>1990.800048828125</ele>
        <time>2026-06-17T11:12:19.000Z</time>
        <extensions>
          <ns3:TrackPointExtension>
            <ns3:atemp>19.0</ns3:atemp>
          </ns3:TrackPointExtension>
        </extensions>
      </trkpt>
      <trkpt lat="42.51089352183043956756591796875" lon="19.90558664314448833465576171875">
        <ele>1990.800048828125</ele>
        <time>2026-06-17T11:12:20.000Z</time>
        <extensions>
          <ns3:TrackPointExtension>
            <ns3:atemp>19.0</ns3:atemp>
          </ns3:TrackPointExtension>
        </extensions>
      </trkpt>
      <trkpt lat="42.51089352183043956756591796875" lon="19.90558664314448833465576171875">
        <ele>1990.800048828125</ele>
        <time>2026-06-17T11:12:21.000Z</time>
        <extensions>
          <ns3:TrackPointExtension>
            <ns3:atemp>19.0</ns3:atemp>
          </ns3:TrackPointExtension>
        </extensions>
      </trkpt>
      <trkpt lat="42.51089352183043956756591796875" lon="19.90558664314448833465576171875">
        <ele>1990.800048828125</ele>
        <time>2026-06-17T11:12:22.000Z</time>
        <extensions>
          <ns3:TrackPointExtension>
            <ns3:atemp>19.0</ns3:atemp>
          </ns3:TrackPointExtension>
        </extensions>
      </trkpt>
      <trkpt lat="42.51089352183043956756591796875" lon="19.90558664314448833465576171875">
        <ele>1990.800048828125</ele>
        <time>2026-06-17T11:12:23.000Z</time>
        <extensions>
          <ns3:TrackPointExtension>
            <ns3:atemp>19.0</ns3:atemp>
          </ns3:TrackPointExtension>
        </extensions>
      </trkpt>
      <trkpt lat="42.51089352183043956756591796875" lon="19.90558664314448833465576171875">
        <ele>1990.800048828125</ele>
        <time>2026-06-17T11:12:24.000Z</time>
        <extensions>
          <ns3:TrackPointExtension>
            <ns3:atemp>19.0</ns3:atemp>
          </ns3:TrackPointExtension>
        </extensions>
      </trkpt>
      <trkpt lat="42.51089352183043956756591796875" lon="19.90558664314448833465576171875">
        <ele>1990.800048828125</ele>
        <time>2026-06-17T11:12:25.000Z</time>
        <extensions>
          <ns3:TrackPointExtension>
            <ns3:atemp>19.0</ns3:atemp>
          </ns3:TrackPointExtension>
        </extensions>
      </trkpt>
      <trkpt lat="42.51089352183043956756591796875" lon="19.90558664314448833465576171875">
        <ele>1990.800048828125</ele>
        <time>2026-06-17T11:12:26.000Z</time>
        <extensions>
          <ns3:TrackPointExtension>
            <ns3:atemp>19.0</ns3:atemp>
          </ns3:TrackPointExtension>
        </extensions>
      </trkpt>
      <trkpt lat="42.51089352183043956756591796875" lon="19.90558664314448833465576171875">
        <ele>1990.800048828125</ele>
        <time>2026-06-17T11:12:27.000Z</time>
        <extensions>
          <ns3:TrackPointExtension>
            <ns3:atemp>19.0</ns3:atemp>
          </ns3:TrackPointExtension>
        </extensions>
      </trkpt>
      <trkpt lat="42.51089352183043956756591796875" lon="19.90558664314448833465576171875">
        <ele>1990.800048828125</ele>
        <time>2026-06-17T11:12:28.000Z</time>
        <extensions>
          <ns3:TrackPointExtension>
            <ns3:atemp>19.0</ns3:atemp>
          </ns3:TrackPointExtension>
        </extensions>
      </trkpt>
      <trkpt lat="42.51089352183043956756591796875" lon="19.90558664314448833465576171875">
        <ele>1990.800048828125</ele>
        <time>2026-06-17T11:12:29.000Z</time>
        <extensions>
          <ns3:TrackPointExtension>
            <ns3:atemp>19.0</ns3:atemp>
          </ns3:TrackPointExtension>
        </extensions>
      </trkpt>
      <trkpt lat="42.5108863972127437591552734375" lon="19.90557633340358734130859375">
        <ele>1990.800048828125</ele>
        <time>2026-06-17T11:12:30.000Z</time>
        <extensions>
          <ns3:TrackPointExtension>
            <ns3:atemp>19.0</ns3:atemp>
          </ns3:TrackPointExtension>
        </extensions>
      </trkpt>
      <trkpt lat="42.51088983379304409027099609375" lon="19.90557624958455562591552734375">
        <ele>1990.800048828125</ele>
        <time>2026-06-17T11:12:31.000Z</time>
        <extensions>
          <ns3:TrackPointExtension>
            <ns3:atemp>19.0</ns3:atemp>
          </ns3:TrackPointExtension>
        </extensions>
      </trkpt>
      <trkpt lat="42.51088279299437999725341796875" lon="19.90557239390909671783447265625">
        <ele>1990.800048828125</ele>
        <time>2026-06-17T11:12:32.000Z</time>
        <extensions>
          <ns3:TrackPointExtension>
            <ns3:atemp>19.0</ns3:atemp>
          </ns3:TrackPointExtension>
        </extensions>
      </trkpt>
      <trkpt lat="42.510878853499889373779296875" lon="19.90556803531944751739501953125">
        <ele>1990.800048828125</ele>
        <time>2026-06-17T11:12:33.000Z</time>
        <extensions>
          <ns3:TrackPointExtension>
            <ns3:atemp>19.0</ns3:atemp>
          </ns3:TrackPointExtension>
        </extensions>
      </trkpt>
      <trkpt lat="42.510878853499889373779296875" lon="19.90556803531944751739501953125">
        <ele>1990.800048828125</ele>
        <time>2026-06-17T11:12:34.000Z</time>
        <extensions>
          <ns3:TrackPointExtension>
            <ns3:atemp>19.0</ns3:atemp>
          </ns3:TrackPointExtension>
        </extensions>
      </trkpt>
      <trkpt lat="42.510878853499889373779296875" lon="19.90556803531944751739501953125">
        <ele>1990.800048828125</ele>
        <time>2026-06-17T11:12:35.000Z</time>
        <extensions>
          <ns3:TrackPointExtension>
            <ns3:atemp>19.0</ns3:atemp>
          </ns3:TrackPointExtension>
        </extensions>
      </trkpt>
      <trkpt lat="42.510878853499889373779296875" lon="19.90556803531944751739501953125">
        <ele>1990.800048828125</ele>
        <time>2026-06-17T11:12:36.000Z</time>
        <extensions>
          <ns3:TrackPointExtension>
            <ns3:atemp>19.0</ns3:atemp>
          </ns3:TrackPointExtension>
        </extensions>
      </trkpt>
      <trkpt lat="42.510878853499889373779296875" lon="19.90556803531944751739501953125">
        <ele>1990.800048828125</ele>
        <time>2026-06-17T11:12:37.000Z</time>
        <extensions>
          <ns3:TrackPointExtension>
            <ns3:atemp>19.0</ns3:atemp>
          </ns3:TrackPointExtension>
        </extensions>
      </trkpt>
      <trkpt lat="42.510878853499889373779296875" lon="19.90556803531944751739501953125">
        <ele>1990.800048828125</ele>
        <time>2026-06-17T11:12:38.000Z</time>
        <extensions>
          <ns3:TrackPointExtension>
            <ns3:atemp>19.0</ns3:atemp>
          </ns3:TrackPointExtension>
        </extensions>
      </trkpt>
      <trkpt lat="42.510878853499889373779296875" lon="19.90556803531944751739501953125">
        <ele>1990.800048828125</ele>
        <time>2026-06-17T11:12:39.000Z</time>
        <extensions>
          <ns3:TrackPointExtension>
            <ns3:atemp>19.0</ns3:atemp>
          </ns3:TrackPointExtension>
        </extensions>
      </trkpt>
      <trkpt lat="42.510878853499889373779296875" lon="19.90556803531944751739501953125">
        <ele>1990.800048828125</ele>
        <time>2026-06-17T11:12:40.000Z</time>
        <extensions>
          <ns3:TrackPointExtension>
            <ns3:atemp>19.0</ns3:atemp>
          </ns3:TrackPointExtension>
        </extensions>
      </trkpt>
      <trkpt lat="42.510878853499889373779296875" lon="19.90556803531944751739501953125">
        <ele>1990.800048828125</ele>
        <time>2026-06-17T11:12:41.000Z</time>
        <extensions>
          <ns3:TrackPointExtension>
            <ns3:atemp>19.0</ns3:atemp>
          </ns3:TrackPointExtension>
        </extensions>
      </trkpt>
      <trkpt lat="42.510878853499889373779296875" lon="19.90556803531944751739501953125">
        <ele>1990.800048828125</ele>
        <time>2026-06-17T11:12:42.000Z</time>
        <extensions>
          <ns3:TrackPointExtension>
            <ns3:atemp>19.0</ns3:atemp>
          </ns3:TrackPointExtension>
        </extensions>
      </trkpt>
      <trkpt lat="42.510878853499889373779296875" lon="19.90556803531944751739501953125">
        <ele>1990.800048828125</ele>
        <time>2026-06-17T11:12:43.000Z</time>
        <extensions>
          <ns3:TrackPointExtension>
            <ns3:atemp>19.0</ns3:atemp>
          </ns3:TrackPointExtension>
        </extensions>
      </trkpt>
      <trkpt lat="42.510878853499889373779296875" lon="19.90556803531944751739501953125">
        <ele>1990.800048828125</ele>
        <time>2026-06-17T11:12:44.000Z</time>
        <extensions>
          <ns3:TrackPointExtension>
            <ns3:atemp>19.0</ns3:atemp>
          </ns3:TrackPointExtension>
        </extensions>
      </trkpt>
      <trkpt lat="42.510878853499889373779296875" lon="19.90556803531944751739501953125">
        <ele>1990.800048828125</ele>
        <time>2026-06-17T11:12:45.000Z</time>
        <extensions>
          <ns3:TrackPointExtension>
            <ns3:atemp>19.0</ns3:atemp>
          </ns3:TrackPointExtension>
        </extensions>
      </trkpt>
      <trkpt lat="42.510878853499889373779296875" lon="19.90556803531944751739501953125">
        <ele>1990.800048828125</ele>
        <time>2026-06-17T11:12:46.000Z</time>
        <extensions>
          <ns3:TrackPointExtension>
            <ns3:atemp>19.0</ns3:atemp>
          </ns3:TrackPointExtension>
        </extensions>
      </trkpt>
      <trkpt lat="42.510878853499889373779296875" lon="19.90556803531944751739501953125">
        <ele>1990.800048828125</ele>
        <time>2026-06-17T11:12:47.000Z</time>
        <extensions>
          <ns3:TrackPointExtension>
            <ns3:atemp>19.0</ns3:atemp>
          </ns3:TrackPointExtension>
        </extensions>
      </trkpt>
      <trkpt lat="42.510878853499889373779296875" lon="19.90556803531944751739501953125">
        <ele>1990.800048828125</ele>
        <time>2026-06-17T11:12:48.000Z</time>
        <extensions>
          <ns3:TrackPointExtension>
            <ns3:atemp>19.0</ns3:atemp>
          </ns3:TrackPointExtension>
        </extensions>
      </trkpt>
      <trkpt lat="42.510878853499889373779296875" lon="19.90556803531944751739501953125">
        <ele>1990.800048828125</ele>
        <time>2026-06-17T11:12:49.000Z</time>
        <extensions>
          <ns3:TrackPointExtension>
            <ns3:atemp>19.0</ns3:atemp>
          </ns3:TrackPointExtension>
        </extensions>
      </trkpt>
      <trkpt lat="42.510878853499889373779296875" lon="19.90556803531944751739501953125">
        <ele>1990.800048828125</ele>
        <time>2026-06-17T11:12:50.000Z</time>
        <extensions>
          <ns3:TrackPointExtension>
            <ns3:atemp>19.0</ns3:atemp>
          </ns3:TrackPointExtension>
        </extensions>
      </trkpt>
      <trkpt lat="42.510878853499889373779296875" lon="19.90556803531944751739501953125">
        <ele>1990.800048828125</ele>
        <time>2026-06-17T11:12:51.000Z</time>
        <extensions>
          <ns3:TrackPointExtension>
            <ns3:atemp>19.0</ns3:atemp>
          </ns3:TrackPointExtension>
        </extensions>
      </trkpt>
      <trkpt lat="42.510878853499889373779296875" lon="19.90556803531944751739501953125">
        <ele>1990.800048828125</ele>
        <time>2026-06-17T11:12:52.000Z</time>
        <extensions>
          <ns3:TrackPointExtension>
            <ns3:atemp>19.0</ns3:atemp>
          </ns3:TrackPointExtension>
        </extensions>
      </trkpt>
      <trkpt lat="42.510878853499889373779296875" lon="19.90556803531944751739501953125">
        <ele>1990.800048828125</ele>
        <time>2026-06-17T11:12:53.000Z</time>
        <extensions>
          <ns3:TrackPointExtension>
            <ns3:atemp>19.0</ns3:atemp>
          </ns3:TrackPointExtension>
        </extensions>
      </trkpt>
      <trkpt lat="42.510878853499889373779296875" lon="19.90556803531944751739501953125">
        <ele>1990.800048828125</ele>
        <time>2026-06-17T11:12:54.000Z</time>
        <extensions>
          <ns3:TrackPointExtension>
            <ns3:atemp>19.0</ns3:atemp>
          </ns3:TrackPointExtension>
        </extensions>
      </trkpt>
      <trkpt lat="42.510878853499889373779296875" lon="19.90556803531944751739501953125">
        <ele>1990.800048828125</ele>
        <time>2026-06-17T11:12:55.000Z</time>
        <extensions>
          <ns3:TrackPointExtension>
            <ns3:atemp>19.0</ns3:atemp>
          </ns3:TrackPointExtension>
        </extensions>
      </trkpt>
      <trkpt lat="42.510878853499889373779296875" lon="19.90556803531944751739501953125">
        <ele>1990.800048828125</ele>
        <time>2026-06-17T11:12:56.000Z</time>
        <extensions>
          <ns3:TrackPointExtension>
            <ns3:atemp>19.0</ns3:atemp>
          </ns3:TrackPointExtension>
        </extensions>
      </trkpt>
      <trkpt lat="42.510878853499889373779296875" lon="19.90556803531944751739501953125">
        <ele>1990.800048828125</ele>
        <time>2026-06-17T11:12:57.000Z</time>
        <extensions>
          <ns3:TrackPointExtension>
            <ns3:atemp>19.0</ns3:atemp>
          </ns3:TrackPointExtension>
        </extensions>
      </trkpt>
      <trkpt lat="42.510878853499889373779296875" lon="19.90556803531944751739501953125">
        <ele>1990.800048828125</ele>
        <time>2026-06-17T11:12:58.000Z</time>
        <extensions>
          <ns3:TrackPointExtension>
            <ns3:atemp>19.0</ns3:atemp>
          </ns3:TrackPointExtension>
        </extensions>
      </trkpt>
      <trkpt lat="42.510878853499889373779296875" lon="19.90556803531944751739501953125">
        <ele>1990.800048828125</ele>
        <time>2026-06-17T11:12:59.000Z</time>
        <extensions>
          <ns3:TrackPointExtension>
            <ns3:atemp>19.0</ns3:atemp>
          </ns3:TrackPointExtension>
        </extensions>
      </trkpt>
      <trkpt lat="42.510878853499889373779296875" lon="19.90556803531944751739501953125">
        <ele>1990.800048828125</ele>
        <time>2026-06-17T11:13:00.000Z</time>
        <extensions>
          <ns3:TrackPointExtension>
            <ns3:atemp>19.0</ns3:atemp>
          </ns3:TrackPointExtension>
        </extensions>
      </trkpt>
      <trkpt lat="42.510878853499889373779296875" lon="19.90556803531944751739501953125">
        <ele>1990.800048828125</ele>
        <time>2026-06-17T11:13:01.000Z</time>
        <extensions>
          <ns3:TrackPointExtension>
            <ns3:atemp>19.0</ns3:atemp>
          </ns3:TrackPointExtension>
        </extensions>
      </trkpt>
      <trkpt lat="42.510878853499889373779296875" lon="19.90556803531944751739501953125">
        <ele>1990.800048828125</ele>
        <time>2026-06-17T11:13:02.000Z</time>
        <extensions>
          <ns3:TrackPointExtension>
            <ns3:atemp>19.0</ns3:atemp>
          </ns3:TrackPointExtension>
        </extensions>
      </trkpt>
      <trkpt lat="42.510878853499889373779296875" lon="19.90556803531944751739501953125">
        <ele>1990.800048828125</ele>
        <time>2026-06-17T11:13:03.000Z</time>
        <extensions>
          <ns3:TrackPointExtension>
            <ns3:atemp>19.0</ns3:atemp>
          </ns3:TrackPointExtension>
        </extensions>
      </trkpt>
      <trkpt lat="42.510878853499889373779296875" lon="19.90556803531944751739501953125">
        <ele>1990.800048828125</ele>
        <time>2026-06-17T11:13:04.000Z</time>
        <extensions>
          <ns3:TrackPointExtension>
            <ns3:atemp>19.0</ns3:atemp>
          </ns3:TrackPointExtension>
        </extensions>
      </trkpt>
      <trkpt lat="42.510878853499889373779296875" lon="19.90556803531944751739501953125">
        <ele>1990.800048828125</ele>
        <time>2026-06-17T11:13:05.000Z</time>
        <extensions>
          <ns3:TrackPointExtension>
            <ns3:atemp>19.0</ns3:atemp>
          </ns3:TrackPointExtension>
        </extensions>
      </trkpt>
      <trkpt lat="42.510878853499889373779296875" lon="19.90556803531944751739501953125">
        <ele>1990.800048828125</ele>
        <time>2026-06-17T11:13:06.000Z</time>
        <extensions>
          <ns3:TrackPointExtension>
            <ns3:atemp>19.0</ns3:atemp>
          </ns3:TrackPointExtension>
        </extensions>
      </trkpt>
      <trkpt lat="42.510878853499889373779296875" lon="19.90556803531944751739501953125">
        <ele>1990.800048828125</ele>
        <time>2026-06-17T11:13:07.000Z</time>
        <extensions>
          <ns3:TrackPointExtension>
            <ns3:atemp>19.0</ns3:atemp>
          </ns3:TrackPointExtension>
        </extensions>
      </trkpt>
      <trkpt lat="42.510878853499889373779296875" lon="19.90556803531944751739501953125">
        <ele>1990.800048828125</ele>
        <time>2026-06-17T11:13:08.000Z</time>
        <extensions>
          <ns3:TrackPointExtension>
            <ns3:atemp>19.0</ns3:atemp>
          </ns3:TrackPointExtension>
        </extensions>
      </trkpt>
      <trkpt lat="42.510878853499889373779296875" lon="19.90556803531944751739501953125">
        <ele>1990.800048828125</ele>
        <time>2026-06-17T11:13:09.000Z</time>
        <extensions>
          <ns3:TrackPointExtension>
            <ns3:atemp>19.0</ns3:atemp>
          </ns3:TrackPointExtension>
        </extensions>
      </trkpt>
      <trkpt lat="42.510878853499889373779296875" lon="19.90556803531944751739501953125">
        <ele>1990.800048828125</ele>
        <time>2026-06-17T11:13:10.000Z</time>
        <extensions>
          <ns3:TrackPointExtension>
            <ns3:atemp>19.0</ns3:atemp>
          </ns3:TrackPointExtension>
        </extensions>
      </trkpt>
      <trkpt lat="42.510878853499889373779296875" lon="19.90556803531944751739501953125">
        <ele>1990.800048828125</ele>
        <time>2026-06-17T11:13:11.000Z</time>
        <extensions>
          <ns3:TrackPointExtension>
            <ns3:atemp>19.0</ns3:atemp>
          </ns3:TrackPointExtension>
        </extensions>
      </trkpt>
      <trkpt lat="42.510878853499889373779296875" lon="19.90556803531944751739501953125">
        <ele>1990.800048828125</ele>
        <time>2026-06-17T11:13:12.000Z</time>
        <extensions>
          <ns3:TrackPointExtension>
            <ns3:atemp>19.0</ns3:atemp>
          </ns3:TrackPointExtension>
        </extensions>
      </trkpt>
      <trkpt lat="42.510878853499889373779296875" lon="19.90556803531944751739501953125">
        <ele>1990.800048828125</ele>
        <time>2026-06-17T11:13:13.000Z</time>
        <extensions>
          <ns3:TrackPointExtension>
            <ns3:atemp>19.0</ns3:atemp>
          </ns3:TrackPointExtension>
        </extensions>
      </trkpt>
      <trkpt lat="42.510878853499889373779296875" lon="19.90556803531944751739501953125">
        <ele>1990.800048828125</ele>
        <time>2026-06-17T11:13:14.000Z</time>
        <extensions>
          <ns3:TrackPointExtension>
            <ns3:atemp>19.0</ns3:atemp>
          </ns3:TrackPointExtension>
        </extensions>
      </trkpt>
      <trkpt lat="42.510878853499889373779296875" lon="19.90556803531944751739501953125">
        <ele>1990.800048828125</ele>
        <time>2026-06-17T11:13:15.000Z</time>
        <extensions>
          <ns3:TrackPointExtension>
            <ns3:atemp>19.0</ns3:atemp>
          </ns3:TrackPointExtension>
        </extensions>
      </trkpt>
      <trkpt lat="42.510878853499889373779296875" lon="19.90556803531944751739501953125">
        <ele>1990.800048828125</ele>
        <time>2026-06-17T11:13:16.000Z</time>
        <extensions>
          <ns3:TrackPointExtension>
            <ns3:atemp>19.0</ns3:atemp>
          </ns3:TrackPointExtension>
        </extensions>
      </trkpt>
      <trkpt lat="42.510878853499889373779296875" lon="19.90556803531944751739501953125">
        <ele>1990.800048828125</ele>
        <time>2026-06-17T11:13:17.000Z</time>
        <extensions>
          <ns3:TrackPointExtension>
            <ns3:atemp>19.0</ns3:atemp>
          </ns3:TrackPointExtension>
        </extensions>
      </trkpt>
      <trkpt lat="42.510878853499889373779296875" lon="19.90556803531944751739501953125">
        <ele>1990.800048828125</ele>
        <time>2026-06-17T11:13:18.000Z</time>
        <extensions>
          <ns3:TrackPointExtension>
            <ns3:atemp>19.0</ns3:atemp>
          </ns3:TrackPointExtension>
        </extensions>
      </trkpt>
      <trkpt lat="42.510878853499889373779296875" lon="19.90556803531944751739501953125">
        <ele>1990.800048828125</ele>
        <time>2026-06-17T11:13:19.000Z</time>
        <extensions>
          <ns3:TrackPointExtension>
            <ns3:atemp>19.0</ns3:atemp>
          </ns3:TrackPointExtension>
        </extensions>
      </trkpt>
      <trkpt lat="42.510878853499889373779296875" lon="19.90556803531944751739501953125">
        <ele>1990.800048828125</ele>
        <time>2026-06-17T11:13:20.000Z</time>
        <extensions>
          <ns3:TrackPointExtension>
            <ns3:atemp>19.0</ns3:atemp>
          </ns3:TrackPointExtension>
        </extensions>
      </trkpt>
      <trkpt lat="42.510878853499889373779296875" lon="19.90556803531944751739501953125">
        <ele>1990.800048828125</ele>
        <time>2026-06-17T11:13:21.000Z</time>
        <extensions>
          <ns3:TrackPointExtension>
            <ns3:atemp>19.0</ns3:atemp>
          </ns3:TrackPointExtension>
        </extensions>
      </trkpt>
      <trkpt lat="42.51088430173695087432861328125" lon="19.90557272918522357940673828125">
        <ele>1990.800048828125</ele>
        <time>2026-06-17T11:13:22.000Z</time>
        <extensions>
          <ns3:TrackPointExtension>
            <ns3:atemp>19.0</ns3:atemp>
          </ns3:TrackPointExtension>
        </extensions>
      </trkpt>
      <trkpt lat="42.5109081901609897613525390625" lon="19.905587732791900634765625">
        <ele>1990.800048828125</ele>
        <time>2026-06-17T11:13:23.000Z</time>
        <extensions>
          <ns3:TrackPointExtension>
            <ns3:atemp>19.0</ns3:atemp>
          </ns3:TrackPointExtension>
        </extensions>
      </trkpt>
      <trkpt lat="42.51091682352125644683837890625" lon="19.90559066645801067352294921875">
        <ele>1990.800048828125</ele>
        <time>2026-06-17T11:13:24.000Z</time>
        <extensions>
          <ns3:TrackPointExtension>
            <ns3:atemp>19.0</ns3:atemp>
          </ns3:TrackPointExtension>
        </extensions>
      </trkpt>
      <trkpt lat="42.51092453487217426300048828125" lon="19.90559318102896213531494140625">
        <ele>1990.800048828125</ele>
        <time>2026-06-17T11:13:25.000Z</time>
        <extensions>
          <ns3:TrackPointExtension>
            <ns3:atemp>19.0</ns3:atemp>
          </ns3:TrackPointExtension>
        </extensions>
      </trkpt>
      <trkpt lat="42.510932497680187225341796875" lon="19.90559921599924564361572265625">
        <ele>1990.800048828125</ele>
        <time>2026-06-17T11:13:26.000Z</time>
        <extensions>
          <ns3:TrackPointExtension>
            <ns3:atemp>19.0</ns3:atemp>
          </ns3:TrackPointExtension>
        </extensions>
      </trkpt>
      <trkpt lat="42.510941885411739349365234375" lon="19.90559644997119903564453125">
        <ele>1990.800048828125</ele>
        <time>2026-06-17T11:13:27.000Z</time>
        <extensions>
          <ns3:TrackPointExtension>
            <ns3:atemp>19.0</ns3:atemp>
          </ns3:TrackPointExtension>
        </extensions>
      </trkpt>
      <trkpt lat="42.51095286570489406585693359375" lon="19.9056029878556728363037109375">
        <ele>1990.800048828125</ele>
        <time>2026-06-17T11:13:28.000Z</time>
        <extensions>
          <ns3:TrackPointExtension>
            <ns3:atemp>19.0</ns3:atemp>
          </ns3:TrackPointExtension>
        </extensions>
      </trkpt>
      <trkpt lat="42.51096426509320735931396484375" lon="19.9056080169975757598876953125">
        <ele>1990.800048828125</ele>
        <time>2026-06-17T11:13:29.000Z</time>
        <extensions>
          <ns3:TrackPointExtension>
            <ns3:atemp>19.0</ns3:atemp>
          </ns3:TrackPointExtension>
        </extensions>
      </trkpt>
      <trkpt lat="42.510972060263156890869140625" lon="19.90561245940625667572021484375">
        <ele>1990.800048828125</ele>
        <time>2026-06-17T11:13:30.000Z</time>
        <extensions>
          <ns3:TrackPointExtension>
            <ns3:atemp>19.0</ns3:atemp>
          </ns3:TrackPointExtension>
        </extensions>
      </trkpt>
      <trkpt lat="42.510982118546962738037109375" lon="19.905610866844654083251953125">
        <ele>1990.800048828125</ele>
        <time>2026-06-17T11:13:31.000Z</time>
        <extensions>
          <ns3:TrackPointExtension>
            <ns3:atemp>19.0</ns3:atemp>
          </ns3:TrackPointExtension>
        </extensions>
      </trkpt>
      <trkpt lat="42.51099645160138607025146484375" lon="19.9056150577962398529052734375">
        <ele>1990.800048828125</ele>
        <time>2026-06-17T11:13:32.000Z</time>
        <extensions>
          <ns3:TrackPointExtension>
            <ns3:atemp>19.0</ns3:atemp>
          </ns3:TrackPointExtension>
        </extensions>
      </trkpt>
      <trkpt lat="42.51101396977901458740234375" lon="19.90562754683196544647216796875">
        <ele>1990.800048828125</ele>
        <time>2026-06-17T11:13:33.000Z</time>
        <extensions>
          <ns3:TrackPointExtension>
            <ns3:atemp>19.0</ns3:atemp>
          </ns3:TrackPointExtension>
        </extensions>
      </trkpt>
      <trkpt lat="42.5110320746898651123046875" lon="19.90563341416418552398681640625">
        <ele>1990.800048828125</ele>
        <time>2026-06-17T11:13:34.000Z</time>
        <extensions>
          <ns3:TrackPointExtension>
            <ns3:atemp>19.0</ns3:atemp>
          </ns3:TrackPointExtension>
        </extensions>
      </trkpt>
      <trkpt lat="42.511051855981349945068359375" lon="19.9056375212967395782470703125">
        <ele>1990.800048828125</ele>
        <time>2026-06-17T11:13:35.000Z</time>
        <extensions>
          <ns3:TrackPointExtension>
            <ns3:atemp>19.0</ns3:atemp>
          </ns3:TrackPointExtension>
        </extensions>
      </trkpt>
      <trkpt lat="42.51107205636799335479736328125" lon="19.9056438915431499481201171875">
        <ele>1990.800048828125</ele>
        <time>2026-06-17T11:13:36.000Z</time>
        <extensions>
          <ns3:TrackPointExtension>
            <ns3:atemp>19.0</ns3:atemp>
          </ns3:TrackPointExtension>
        </extensions>
      </trkpt>
      <trkpt lat="42.5110925920307636260986328125" lon="19.9056494235992431640625">
        <ele>1991</ele>
        <time>2026-06-17T11:13:37.000Z</time>
        <extensions>
          <ns3:TrackPointExtension>
            <ns3:atemp>19.0</ns3:atemp>
          </ns3:TrackPointExtension>
        </extensions>
      </trkpt>
      <trkpt lat="42.5111071765422821044921875" lon="19.9056494235992431640625">
        <ele>1991</ele>
        <time>2026-06-17T11:13:38.000Z</time>
        <extensions>
          <ns3:TrackPointExtension>
            <ns3:atemp>19.0</ns3:atemp>
          </ns3:TrackPointExtension>
        </extensions>
      </trkpt>
      <trkpt lat="42.51113022677600383758544921875" lon="19.90565202198922634124755859375">
        <ele>1991.199951171875</ele>
        <time>2026-06-17T11:13:39.000Z</time>
        <extensions>
          <ns3:TrackPointExtension>
            <ns3:atemp>19.0</ns3:atemp>
          </ns3:TrackPointExtension>
        </extensions>
      </trkpt>
      <trkpt lat="42.51115738414227962493896484375" lon="19.90566040389239788055419921875">
        <ele>1991.199951171875</ele>
        <time>2026-06-17T11:13:40.000Z</time>
        <extensions>
          <ns3:TrackPointExtension>
            <ns3:atemp>19.0</ns3:atemp>
          </ns3:TrackPointExtension>
        </extensions>
      </trkpt>
      <trkpt lat="42.51117850653827190399169921875" lon="19.90567264147102832794189453125">
        <ele>1991.4000244140625</ele>
        <time>2026-06-17T11:13:41.000Z</time>
        <extensions>
          <ns3:TrackPointExtension>
            <ns3:atemp>19.0</ns3:atemp>
          </ns3:TrackPointExtension>
        </extensions>
      </trkpt>
      <trkpt lat="42.511198706924915313720703125" lon="19.90568387322127819061279296875">
        <ele>1991.4000244140625</ele>
        <time>2026-06-17T11:13:42.000Z</time>
        <extensions>
          <ns3:TrackPointExtension>
            <ns3:atemp>19.0</ns3:atemp>
          </ns3:TrackPointExtension>
        </extensions>
      </trkpt>
      <trkpt lat="42.511222176253795623779296875" lon="19.9056958593428134918212890625">
        <ele>1991.4000244140625</ele>
        <time>2026-06-17T11:13:43.000Z</time>
        <extensions>
          <ns3:TrackPointExtension>
            <ns3:atemp>19.0</ns3:atemp>
          </ns3:TrackPointExtension>
        </extensions>
      </trkpt>
      <trkpt lat="42.511242292821407318115234375" lon="19.90570818074047565460205078125">
        <ele>1991.5999755859375</ele>
        <time>2026-06-17T11:13:44.000Z</time>
        <extensions>
          <ns3:TrackPointExtension>
            <ns3:atemp>19.0</ns3:atemp>
          </ns3:TrackPointExtension>
        </extensions>
      </trkpt>
      <trkpt lat="42.51126282848417758941650390625" lon="19.90572159178555011749267578125">
        <ele>1991.800048828125</ele>
        <time>2026-06-17T11:13:45.000Z</time>
        <extensions>
          <ns3:TrackPointExtension>
            <ns3:atemp>19.0</ns3:atemp>
          </ns3:TrackPointExtension>
        </extensions>
      </trkpt>
      <trkpt lat="42.51128428615629673004150390625" lon="19.905740283429622650146484375">
        <ele>1991.800048828125</ele>
        <time>2026-06-17T11:13:46.000Z</time>
        <extensions>
          <ns3:TrackPointExtension>
            <ns3:atemp>19.0</ns3:atemp>
          </ns3:TrackPointExtension>
        </extensions>
      </trkpt>
      <trkpt lat="42.51130457036197185516357421875" lon="19.90576182492077350616455078125">
        <ele>1992</ele>
        <time>2026-06-17T11:13:47.000Z</time>
        <extensions>
          <ns3:TrackPointExtension>
            <ns3:atemp>19.0</ns3:atemp>
          </ns3:TrackPointExtension>
        </extensions>
      </trkpt>
      <trkpt lat="42.51132049597799777984619140625" lon="19.90578688681125640869140625">
        <ele>1992</ele>
        <time>2026-06-17T11:13:48.000Z</time>
        <extensions>
          <ns3:TrackPointExtension>
            <ns3:atemp>19.0</ns3:atemp>
          </ns3:TrackPointExtension>
        </extensions>
      </trkpt>
      <trkpt lat="42.51133323647081851959228515625" lon="19.90581463091075420379638671875">
        <ele>1992.199951171875</ele>
        <time>2026-06-17T11:13:49.000Z</time>
        <extensions>
          <ns3:TrackPointExtension>
            <ns3:atemp>19.0</ns3:atemp>
          </ns3:TrackPointExtension>
        </extensions>
      </trkpt>
      <trkpt lat="42.51134580932557582855224609375" lon="19.9058417044579982757568359375">
        <ele>1992.199951171875</ele>
        <time>2026-06-17T11:13:50.000Z</time>
        <extensions>
          <ns3:TrackPointExtension>
            <ns3:atemp>19.0</ns3:atemp>
          </ns3:TrackPointExtension>
        </extensions>
      </trkpt>
      <trkpt lat="42.51135754399001598358154296875" lon="19.90586726926267147064208984375">
        <ele>1992.199951171875</ele>
        <time>2026-06-17T11:13:51.000Z</time>
        <extensions>
          <ns3:TrackPointExtension>
            <ns3:atemp>19.0</ns3:atemp>
          </ns3:TrackPointExtension>
        </extensions>
      </trkpt>
      <trkpt lat="42.5113728828728199005126953125" lon="19.905887134373188018798828125">
        <ele>1992.4000244140625</ele>
        <time>2026-06-17T11:13:52.000Z</time>
        <extensions>
          <ns3:TrackPointExtension>
            <ns3:atemp>19.0</ns3:atemp>
          </ns3:TrackPointExtension>
        </extensions>
      </trkpt>
      <trkpt lat="42.5113899819552898406982421875" lon="19.90591152571141719818115234375">
        <ele>1992.5999755859375</ele>
        <time>2026-06-17T11:13:53.000Z</time>
        <extensions>
          <ns3:TrackPointExtension>
            <ns3:atemp>19.0</ns3:atemp>
          </ns3:TrackPointExtension>
        </extensions>
      </trkpt>
      <trkpt lat="42.51140900887548923492431640625" lon="19.9059318937361240386962890625">
        <ele>1992.5999755859375</ele>
        <time>2026-06-17T11:13:54.000Z</time>
        <extensions>
          <ns3:TrackPointExtension>
            <ns3:atemp>19.0</ns3:atemp>
          </ns3:TrackPointExtension>
        </extensions>
      </trkpt>
      <trkpt lat="42.51142728142440319061279296875" lon="19.90594455040991306304931640625">
        <ele>1992.800048828125</ele>
        <time>2026-06-17T11:13:55.000Z</time>
        <extensions>
          <ns3:TrackPointExtension>
            <ns3:atemp>19.0</ns3:atemp>
          </ns3:TrackPointExtension>
        </extensions>
      </trkpt>
      <trkpt lat="42.5114406086504459381103515625" lon="19.90596282295882701873779296875">
        <ele>1992.800048828125</ele>
        <time>2026-06-17T11:13:56.000Z</time>
        <extensions>
          <ns3:TrackPointExtension>
            <ns3:atemp>19.0</ns3:atemp>
          </ns3:TrackPointExtension>
        </extensions>
      </trkpt>
      <trkpt lat="42.5114510022103786468505859375" lon="19.90597204305231571197509765625">
        <ele>1993</ele>
        <time>2026-06-17T11:13:57.000Z</time>
        <extensions>
          <ns3:TrackPointExtension>
            <ns3:atemp>19.0</ns3:atemp>
          </ns3:TrackPointExtension>
        </extensions>
      </trkpt>
      <trkpt lat="42.5114654190838336944580078125" lon="19.905989728868007659912109375">
        <ele>1993.199951171875</ele>
        <time>2026-06-17T11:13:58.000Z</time>
        <extensions>
          <ns3:TrackPointExtension>
            <ns3:atemp>19.0</ns3:atemp>
          </ns3:TrackPointExtension>
        </extensions>
      </trkpt>
      <trkpt lat="42.5114781595766544342041015625" lon="19.90600456483662128448486328125">
        <ele>1993.4000244140625</ele>
        <time>2026-06-17T11:13:59.000Z</time>
        <extensions>
          <ns3:TrackPointExtension>
            <ns3:atemp>19.0</ns3:atemp>
          </ns3:TrackPointExtension>
        </extensions>
      </trkpt>
      <trkpt lat="42.5114942528307437896728515625" lon="19.9060083366930484771728515625">
        <ele>1993.4000244140625</ele>
        <time>2026-06-17T11:14:00.000Z</time>
        <extensions>
          <ns3:TrackPointExtension>
            <ns3:atemp>19.0</ns3:atemp>
          </ns3:TrackPointExtension>
        </extensions>
      </trkpt>
      <trkpt lat="42.51151411794126033782958984375" lon="19.9060240946710109710693359375">
        <ele>1993.5999755859375</ele>
        <time>2026-06-17T11:14:01.000Z</time>
        <extensions>
          <ns3:TrackPointExtension>
            <ns3:atemp>19.0</ns3:atemp>
          </ns3:TrackPointExtension>
        </extensions>
      </trkpt>
      <trkpt lat="42.51152627170085906982421875" lon="19.9060428701341152191162109375">
        <ele>1993.5999755859375</ele>
        <time>2026-06-17T11:14:02.000Z</time>
        <extensions>
          <ns3:TrackPointExtension>
            <ns3:atemp>19.0</ns3:atemp>
          </ns3:TrackPointExtension>
        </extensions>
      </trkpt>
      <trkpt lat="42.5115398503839969635009765625" lon="19.906061477959156036376953125">
        <ele>1993.5999755859375</ele>
        <time>2026-06-17T11:14:03.000Z</time>
        <extensions>
          <ns3:TrackPointExtension>
            <ns3:atemp>19.0</ns3:atemp>
          </ns3:TrackPointExtension>
        </extensions>
      </trkpt>
      <trkpt lat="42.51155636273324489593505859375" lon="19.9060730449855327606201171875">
        <ele>1993.5999755859375</ele>
        <time>2026-06-17T11:14:04.000Z</time>
        <extensions>
          <ns3:TrackPointExtension>
            <ns3:atemp>19.0</ns3:atemp>
          </ns3:TrackPointExtension>
        </extensions>
      </trkpt>
      <trkpt lat="42.51157480292022228240966796875" lon="19.90608000196516513824462890625">
        <ele>1993.5999755859375</ele>
        <time>2026-06-17T11:14:05.000Z</time>
        <extensions>
          <ns3:TrackPointExtension>
            <ns3:atemp>19.0</ns3:atemp>
          </ns3:TrackPointExtension>
        </extensions>
      </trkpt>
      <trkpt lat="42.511592991650104522705078125" lon="19.9060826003551483154296875">
        <ele>1993.5999755859375</ele>
        <time>2026-06-17T11:14:06.000Z</time>
        <extensions>
          <ns3:TrackPointExtension>
            <ns3:atemp>19.0</ns3:atemp>
          </ns3:TrackPointExtension>
        </extensions>
      </trkpt>
      <trkpt lat="42.5116122700273990631103515625" lon="19.9060800857841968536376953125">
        <ele>1993.5999755859375</ele>
        <time>2026-06-17T11:14:07.000Z</time>
        <extensions>
          <ns3:TrackPointExtension>
            <ns3:atemp>19.0</ns3:atemp>
          </ns3:TrackPointExtension>
        </extensions>
      </trkpt>
      <trkpt lat="42.51162895001471042633056640625" lon="19.90607480518519878387451171875">
        <ele>1993.800048828125</ele>
        <time>2026-06-17T11:14:08.000Z</time>
        <extensions>
          <ns3:TrackPointExtension>
            <ns3:atemp>19.0</ns3:atemp>
          </ns3:TrackPointExtension>
        </extensions>
      </trkpt>
      <trkpt lat="42.5116481445729732513427734375" lon="19.906068854033946990966796875">
        <ele>1993.800048828125</ele>
        <time>2026-06-17T11:14:09.000Z</time>
        <extensions>
          <ns3:TrackPointExtension>
            <ns3:atemp>19.0</ns3:atemp>
          </ns3:TrackPointExtension>
        </extensions>
      </trkpt>
      <trkpt lat="42.5116699375212192535400390625" lon="19.90606784820556640625">
        <ele>1993.800048828125</ele>
        <time>2026-06-17T11:14:10.000Z</time>
        <extensions>
          <ns3:TrackPointExtension>
            <ns3:atemp>19.0</ns3:atemp>
          </ns3:TrackPointExtension>
        </extensions>
      </trkpt>
      <trkpt lat="42.51169416122138500213623046875" lon="19.90606541745364665985107421875">
        <ele>1993.800048828125</ele>
        <time>2026-06-17T11:14:11.000Z</time>
        <extensions>
          <ns3:TrackPointExtension>
            <ns3:atemp>19.0</ns3:atemp>
          </ns3:TrackPointExtension>
        </extensions>
      </trkpt>
      <trkpt lat="42.5117155350744724273681640625" lon="19.9060592986643314361572265625">
        <ele>1994</ele>
        <time>2026-06-17T11:14:12.000Z</time>
        <extensions>
          <ns3:TrackPointExtension>
            <ns3:atemp>19.0</ns3:atemp>
          </ns3:TrackPointExtension>
        </extensions>
      </trkpt>
      <trkpt lat="42.51173925586044788360595703125" lon="19.90606474690139293670654296875">
        <ele>1994.199951171875</ele>
        <time>2026-06-17T11:14:13.000Z</time>
        <extensions>
          <ns3:TrackPointExtension>
            <ns3:atemp>19.0</ns3:atemp>
          </ns3:TrackPointExtension>
        </extensions>
      </trkpt>
      <trkpt lat="42.51175769604742527008056640625" lon="19.9060745537281036376953125">
        <ele>1994.199951171875</ele>
        <time>2026-06-17T11:14:14.000Z</time>
        <extensions>
          <ns3:TrackPointExtension>
            <ns3:atemp>19.0</ns3:atemp>
          </ns3:TrackPointExtension>
        </extensions>
      </trkpt>
      <trkpt lat="42.5117695145308971405029296875" lon="19.90608402527868747711181640625">
        <ele>1994.4000244140625</ele>
        <time>2026-06-17T11:14:15.000Z</time>
        <extensions>
          <ns3:TrackPointExtension>
            <ns3:atemp>19.0</ns3:atemp>
          </ns3:TrackPointExtension>
        </extensions>
      </trkpt>
      <trkpt lat="42.51177261583507061004638671875" lon="19.9060851149260997772216796875">
        <ele>1994.5999755859375</ele>
        <time>2026-06-17T11:14:16.000Z</time>
        <extensions>
          <ns3:TrackPointExtension>
            <ns3:atemp>19.0</ns3:atemp>
          </ns3:TrackPointExtension>
        </extensions>
      </trkpt>
      <trkpt lat="42.51178032718598842620849609375" lon="19.9060901440680027008056640625">
        <ele>1995</ele>
        <time>2026-06-17T11:14:17.000Z</time>
        <extensions>
          <ns3:TrackPointExtension>
            <ns3:atemp>19.0</ns3:atemp>
          </ns3:TrackPointExtension>
        </extensions>
      </trkpt>
      <trkpt lat="42.5117778964340686798095703125" lon="19.9060928262770175933837890625">
        <ele>1995.199951171875</ele>
        <time>2026-06-17T11:14:18.000Z</time>
        <extensions>
          <ns3:TrackPointExtension>
            <ns3:atemp>19.0</ns3:atemp>
          </ns3:TrackPointExtension>
        </extensions>
      </trkpt>
      <trkpt lat="42.511781416833400726318359375" lon="19.90609391592442989349365234375">
        <ele>1995.4000244140625</ele>
        <time>2026-06-17T11:14:19.000Z</time>
        <extensions>
          <ns3:TrackPointExtension>
            <ns3:atemp>19.0</ns3:atemp>
          </ns3:TrackPointExtension>
        </extensions>
      </trkpt>
      <trkpt lat="42.5117815844714641571044921875" lon="19.9060941673815250396728515625">
        <ele>1995.5999755859375</ele>
        <time>2026-06-17T11:14:20.000Z</time>
        <extensions>
          <ns3:TrackPointExtension>
            <ns3:atemp>19.0</ns3:atemp>
          </ns3:TrackPointExtension>
        </extensions>
      </trkpt>
      <trkpt lat="42.511781752109527587890625" lon="19.90609425120055675506591796875">
        <ele>1995.800048828125</ele>
        <time>2026-06-17T11:14:21.000Z</time>
        <extensions>
          <ns3:TrackPointExtension>
            <ns3:atemp>19.0</ns3:atemp>
          </ns3:TrackPointExtension>
        </extensions>
      </trkpt>
      <trkpt lat="42.51178720034658908843994140625" lon="19.9060898087918758392333984375">
        <ele>1995.800048828125</ele>
        <time>2026-06-17T11:14:22.000Z</time>
        <extensions>
          <ns3:TrackPointExtension>
            <ns3:atemp>19.0</ns3:atemp>
          </ns3:TrackPointExtension>
        </extensions>
      </trkpt>
      <trkpt lat="42.5117815844714641571044921875" lon="19.9060941673815250396728515625">
        <ele>1995.800048828125</ele>
        <time>2026-06-17T11:14:23.000Z</time>
        <extensions>
          <ns3:TrackPointExtension>
            <ns3:atemp>19.0</ns3:atemp>
          </ns3:TrackPointExtension>
        </extensions>
      </trkpt>
      <trkpt lat="42.5117815844714641571044921875" lon="19.9060941673815250396728515625">
        <ele>1995.800048828125</ele>
        <time>2026-06-17T11:14:24.000Z</time>
        <extensions>
          <ns3:TrackPointExtension>
            <ns3:atemp>19.0</ns3:atemp>
          </ns3:TrackPointExtension>
        </extensions>
      </trkpt>
      <trkpt lat="42.5117815844714641571044921875" lon="19.9060941673815250396728515625">
        <ele>1995.800048828125</ele>
        <time>2026-06-17T11:14:25.000Z</time>
        <extensions>
          <ns3:TrackPointExtension>
            <ns3:atemp>19.0</ns3:atemp>
          </ns3:TrackPointExtension>
        </extensions>
      </trkpt>
      <trkpt lat="42.5117815844714641571044921875" lon="19.9060941673815250396728515625">
        <ele>1995.800048828125</ele>
        <time>2026-06-17T11:14:26.000Z</time>
        <extensions>
          <ns3:TrackPointExtension>
            <ns3:atemp>19.0</ns3:atemp>
          </ns3:TrackPointExtension>
        </extensions>
      </trkpt>
      <trkpt lat="42.5117815844714641571044921875" lon="19.9060941673815250396728515625">
        <ele>1995.800048828125</ele>
        <time>2026-06-17T11:14:27.000Z</time>
        <extensions>
          <ns3:TrackPointExtension>
            <ns3:atemp>19.0</ns3:atemp>
          </ns3:TrackPointExtension>
        </extensions>
      </trkpt>
      <trkpt lat="42.5117815844714641571044921875" lon="19.9060941673815250396728515625">
        <ele>1995.800048828125</ele>
        <time>2026-06-17T11:14:28.000Z</time>
        <extensions>
          <ns3:TrackPointExtension>
            <ns3:atemp>19.0</ns3:atemp>
          </ns3:TrackPointExtension>
        </extensions>
      </trkpt>
      <trkpt lat="42.5117815844714641571044921875" lon="19.9060941673815250396728515625">
        <ele>1995.800048828125</ele>
        <time>2026-06-17T11:14:29.000Z</time>
        <extensions>
          <ns3:TrackPointExtension>
            <ns3:atemp>19.0</ns3:atemp>
          </ns3:TrackPointExtension>
        </extensions>
      </trkpt>
      <trkpt lat="42.5117815844714641571044921875" lon="19.9060941673815250396728515625">
        <ele>1996</ele>
        <time>2026-06-17T11:14:30.000Z</time>
        <extensions>
          <ns3:TrackPointExtension>
            <ns3:atemp>19.0</ns3:atemp>
          </ns3:TrackPointExtension>
        </extensions>
      </trkpt>
      <trkpt lat="42.5117815844714641571044921875" lon="19.9060941673815250396728515625">
        <ele>1995.800048828125</ele>
        <time>2026-06-17T11:14:31.000Z</time>
        <extensions>
          <ns3:TrackPointExtension>
            <ns3:atemp>19.0</ns3:atemp>
          </ns3:TrackPointExtension>
        </extensions>
      </trkpt>
      <trkpt lat="42.5117815844714641571044921875" lon="19.9060941673815250396728515625">
        <ele>1995.800048828125</ele>
        <time>2026-06-17T11:14:32.000Z</time>
        <extensions>
          <ns3:TrackPointExtension>
            <ns3:atemp>19.0</ns3:atemp>
          </ns3:TrackPointExtension>
        </extensions>
      </trkpt>
      <trkpt lat="42.5117815844714641571044921875" lon="19.9060941673815250396728515625">
        <ele>1995.800048828125</ele>
        <time>2026-06-17T11:14:33.000Z</time>
        <extensions>
          <ns3:TrackPointExtension>
            <ns3:atemp>19.0</ns3:atemp>
          </ns3:TrackPointExtension>
        </extensions>
      </trkpt>
      <trkpt lat="42.5117815844714641571044921875" lon="19.9060941673815250396728515625">
        <ele>1995.800048828125</ele>
        <time>2026-06-17T11:14:34.000Z</time>
        <extensions>
          <ns3:TrackPointExtension>
            <ns3:atemp>19.0</ns3:atemp>
          </ns3:TrackPointExtension>
        </extensions>
      </trkpt>
      <trkpt lat="42.5117815844714641571044921875" lon="19.9060941673815250396728515625">
        <ele>1995.800048828125</ele>
        <time>2026-06-17T11:14:35.000Z</time>
        <extensions>
          <ns3:TrackPointExtension>
            <ns3:atemp>19.0</ns3:atemp>
          </ns3:TrackPointExtension>
        </extensions>
      </trkpt>
      <trkpt lat="42.5117815844714641571044921875" lon="19.9060941673815250396728515625">
        <ele>1995.800048828125</ele>
        <time>2026-06-17T11:14:36.000Z</time>
        <extensions>
          <ns3:TrackPointExtension>
            <ns3:atemp>19.0</ns3:atemp>
          </ns3:TrackPointExtension>
        </extensions>
      </trkpt>
      <trkpt lat="42.5117815844714641571044921875" lon="19.9060941673815250396728515625">
        <ele>1995.800048828125</ele>
        <time>2026-06-17T11:14:37.000Z</time>
        <extensions>
          <ns3:TrackPointExtension>
            <ns3:atemp>19.0</ns3:atemp>
          </ns3:TrackPointExtension>
        </extensions>
      </trkpt>
      <trkpt lat="42.5117815844714641571044921875" lon="19.9060941673815250396728515625">
        <ele>1995.800048828125</ele>
        <time>2026-06-17T11:14:38.000Z</time>
        <extensions>
          <ns3:TrackPointExtension>
            <ns3:atemp>19.0</ns3:atemp>
          </ns3:TrackPointExtension>
        </extensions>
      </trkpt>
      <trkpt lat="42.5117815844714641571044921875" lon="19.9060941673815250396728515625">
        <ele>1995.800048828125</ele>
        <time>2026-06-17T11:14:39.000Z</time>
        <extensions>
          <ns3:TrackPointExtension>
            <ns3:atemp>19.0</ns3:atemp>
          </ns3:TrackPointExtension>
        </extensions>
      </trkpt>
      <trkpt lat="42.5117815844714641571044921875" lon="19.9060941673815250396728515625">
        <ele>1995.800048828125</ele>
        <time>2026-06-17T11:14:40.000Z</time>
        <extensions>
          <ns3:TrackPointExtension>
            <ns3:atemp>19.0</ns3:atemp>
          </ns3:TrackPointExtension>
        </extensions>
      </trkpt>
      <trkpt lat="42.5117815844714641571044921875" lon="19.9060941673815250396728515625">
        <ele>1995.800048828125</ele>
        <time>2026-06-17T11:14:41.000Z</time>
        <extensions>
          <ns3:TrackPointExtension>
            <ns3:atemp>19.0</ns3:atemp>
          </ns3:TrackPointExtension>
        </extensions>
      </trkpt>
      <trkpt lat="42.51179172657430171966552734375" lon="19.9060904793441295623779296875">
        <ele>1995.800048828125</ele>
        <time>2026-06-17T11:14:42.000Z</time>
        <extensions>
          <ns3:TrackPointExtension>
            <ns3:atemp>19.0</ns3:atemp>
          </ns3:TrackPointExtension>
        </extensions>
      </trkpt>
      <trkpt lat="42.51180932857096195220947265625" lon="19.9061018787324428558349609375">
        <ele>1995.5999755859375</ele>
        <time>2026-06-17T11:14:43.000Z</time>
        <extensions>
          <ns3:TrackPointExtension>
            <ns3:atemp>19.0</ns3:atemp>
          </ns3:TrackPointExtension>
        </extensions>
      </trkpt>
      <trkpt lat="42.51182458363473415374755859375" lon="19.9061040580272674560546875">
        <ele>1995.5999755859375</ele>
        <time>2026-06-17T11:14:44.000Z</time>
        <extensions>
          <ns3:TrackPointExtension>
            <ns3:atemp>19.0</ns3:atemp>
          </ns3:TrackPointExtension>
        </extensions>
      </trkpt>
      <trkpt lat="42.511848472058773040771484375" lon="19.90610095672309398651123046875">
        <ele>1995.5999755859375</ele>
        <time>2026-06-17T11:14:45.000Z</time>
        <extensions>
          <ns3:TrackPointExtension>
            <ns3:atemp>19.0</ns3:atemp>
          </ns3:TrackPointExtension>
        </extensions>
      </trkpt>
      <trkpt lat="42.5118704326450824737548828125" lon="19.90609508939087390899658203125">
        <ele>1995.4000244140625</ele>
        <time>2026-06-17T11:14:46.000Z</time>
        <extensions>
          <ns3:TrackPointExtension>
            <ns3:atemp>19.0</ns3:atemp>
          </ns3:TrackPointExtension>
        </extensions>
      </trkpt>
      <trkpt lat="42.51188979484140872955322265625" lon="19.906087629497051239013671875">
        <ele>1995.199951171875</ele>
        <time>2026-06-17T11:14:47.000Z</time>
        <extensions>
          <ns3:TrackPointExtension>
            <ns3:atemp>19.0</ns3:atemp>
          </ns3:TrackPointExtension>
        </extensions>
      </trkpt>
      <trkpt lat="42.51190940849483013153076171875" lon="19.90608117543160915374755859375">
        <ele>1995.199951171875</ele>
        <time>2026-06-17T11:14:48.000Z</time>
        <extensions>
          <ns3:TrackPointExtension>
            <ns3:atemp>19.0</ns3:atemp>
          </ns3:TrackPointExtension>
        </extensions>
      </trkpt>
      <trkpt lat="42.51193053089082241058349609375" lon="19.90606985986232757568359375">
        <ele>1995</ele>
        <time>2026-06-17T11:14:49.000Z</time>
        <extensions>
          <ns3:TrackPointExtension>
            <ns3:atemp>19.0</ns3:atemp>
          </ns3:TrackPointExtension>
        </extensions>
      </trkpt>
      <trkpt lat="42.51195483841001987457275390625" lon="19.90605720318853855133056640625">
        <ele>1995</ele>
        <time>2026-06-17T11:14:50.000Z</time>
        <extensions>
          <ns3:TrackPointExtension>
            <ns3:atemp>19.0</ns3:atemp>
          </ns3:TrackPointExtension>
        </extensions>
      </trkpt>
      <trkpt lat="42.51197897829115390777587890625" lon="19.906042702496051788330078125">
        <ele>1995</ele>
        <time>2026-06-17T11:14:51.000Z</time>
        <extensions>
          <ns3:TrackPointExtension>
            <ns3:atemp>19.0</ns3:atemp>
          </ns3:TrackPointExtension>
        </extensions>
      </trkpt>
      <trkpt lat="42.51199993304908275604248046875" lon="19.9060311354696750640869140625">
        <ele>1995.199951171875</ele>
        <time>2026-06-17T11:14:52.000Z</time>
        <extensions>
          <ns3:TrackPointExtension>
            <ns3:atemp>19.0</ns3:atemp>
          </ns3:TrackPointExtension>
        </extensions>
      </trkpt>
      <trkpt lat="42.51202608458697795867919921875" lon="19.90602233447134494781494140625">
        <ele>1995.199951171875</ele>
        <time>2026-06-17T11:14:53.000Z</time>
        <extensions>
          <ns3:TrackPointExtension>
            <ns3:atemp>19.0</ns3:atemp>
          </ns3:TrackPointExtension>
        </extensions>
      </trkpt>
      <trkpt lat="42.51204821281135082244873046875" lon="19.906016550958156585693359375">
        <ele>1995.4000244140625</ele>
        <time>2026-06-17T11:14:54.000Z</time>
        <extensions>
          <ns3:TrackPointExtension>
            <ns3:atemp>19.0</ns3:atemp>
          </ns3:TrackPointExtension>
        </extensions>
      </trkpt>
      <trkpt lat="42.512073777616024017333984375" lon="19.90601227618753910064697265625">
        <ele>1995.4000244140625</ele>
        <time>2026-06-17T11:14:55.000Z</time>
        <extensions>
          <ns3:TrackPointExtension>
            <ns3:atemp>19.0</ns3:atemp>
          </ns3:TrackPointExtension>
        </extensions>
      </trkpt>
      <trkpt lat="42.51210235990583896636962890625" lon="19.90600490011274814605712890625">
        <ele>1995.5999755859375</ele>
        <time>2026-06-17T11:14:56.000Z</time>
        <extensions>
          <ns3:TrackPointExtension>
            <ns3:atemp>19.0</ns3:atemp>
          </ns3:TrackPointExtension>
        </extensions>
      </trkpt>
      <trkpt lat="42.5121290981769561767578125" lon="19.90599744021892547607421875">
        <ele>1995.800048828125</ele>
        <time>2026-06-17T11:14:57.000Z</time>
        <extensions>
          <ns3:TrackPointExtension>
            <ns3:atemp>19.0</ns3:atemp>
          </ns3:TrackPointExtension>
        </extensions>
      </trkpt>
      <trkpt lat="42.51215332187712192535400390625" lon="19.905993752181529998779296875">
        <ele>1995.800048828125</ele>
        <time>2026-06-17T11:14:58.000Z</time>
        <extensions>
          <ns3:TrackPointExtension>
            <ns3:atemp>19.0</ns3:atemp>
          </ns3:TrackPointExtension>
        </extensions>
      </trkpt>
      <trkpt lat="42.5121782161295413970947265625" lon="19.9059902317821979522705078125">
        <ele>1996</ele>
        <time>2026-06-17T11:14:59.000Z</time>
        <extensions>
          <ns3:TrackPointExtension>
            <ns3:atemp>19.0</ns3:atemp>
          </ns3:TrackPointExtension>
        </extensions>
      </trkpt>
      <trkpt lat="42.51220126636326313018798828125" lon="19.905985035002231597900390625">
        <ele>1996.199951171875</ele>
        <time>2026-06-17T11:15:00.000Z</time>
        <extensions>
          <ns3:TrackPointExtension>
            <ns3:atemp>19.0</ns3:atemp>
          </ns3:TrackPointExtension>
        </extensions>
      </trkpt>
      <trkpt lat="42.51222272403538227081298828125" lon="19.90597589872777462005615234375">
        <ele>1996.4000244140625</ele>
        <time>2026-06-17T11:15:01.000Z</time>
        <extensions>
          <ns3:TrackPointExtension>
            <ns3:atemp>19.0</ns3:atemp>
          </ns3:TrackPointExtension>
        </extensions>
      </trkpt>
      <trkpt lat="42.51224501989781856536865234375" lon="19.9059654213488101959228515625">
        <ele>1996.5999755859375</ele>
        <time>2026-06-17T11:15:02.000Z</time>
        <extensions>
          <ns3:TrackPointExtension>
            <ns3:atemp>19.0</ns3:atemp>
          </ns3:TrackPointExtension>
        </extensions>
      </trkpt>
      <trkpt lat="42.51226924359798431396484375" lon="19.9059674330055713653564453125">
        <ele>1997</ele>
        <time>2026-06-17T11:15:03.000Z</time>
        <extensions>
          <ns3:TrackPointExtension>
            <ns3:atemp>19.0</ns3:atemp>
          </ns3:TrackPointExtension>
        </extensions>
      </trkpt>
      <trkpt lat="42.51229279674589633941650390625" lon="19.90596148185431957244873046875">
        <ele>1997.199951171875</ele>
        <time>2026-06-17T11:15:04.000Z</time>
        <extensions>
          <ns3:TrackPointExtension>
            <ns3:atemp>19.0</ns3:atemp>
          </ns3:TrackPointExtension>
        </extensions>
      </trkpt>
      <trkpt lat="42.51231375150382518768310546875" lon="19.9059540219604969024658203125">
        <ele>1997.4000244140625</ele>
        <time>2026-06-17T11:15:05.000Z</time>
        <extensions>
          <ns3:TrackPointExtension>
            <ns3:atemp>19.0</ns3:atemp>
          </ns3:TrackPointExtension>
        </extensions>
      </trkpt>
      <trkpt lat="42.51233805902302265167236328125" lon="19.90594756789505481719970703125">
        <ele>1997.5999755859375</ele>
        <time>2026-06-17T11:15:06.000Z</time>
        <extensions>
          <ns3:TrackPointExtension>
            <ns3:atemp>19.0</ns3:atemp>
          </ns3:TrackPointExtension>
        </extensions>
      </trkpt>
      <trkpt lat="42.512365467846393585205078125" lon="19.9059506691992282867431640625">
        <ele>1997.800048828125</ele>
        <time>2026-06-17T11:15:07.000Z</time>
        <extensions>
          <ns3:TrackPointExtension>
            <ns3:atemp>19.0</ns3:atemp>
          </ns3:TrackPointExtension>
        </extensions>
      </trkpt>
      <trkpt lat="42.51239136792719364166259765625" lon="19.9059536866843700408935546875">
        <ele>1998</ele>
        <time>2026-06-17T11:15:08.000Z</time>
        <extensions>
          <ns3:TrackPointExtension>
            <ns3:atemp>19.0</ns3:atemp>
          </ns3:TrackPointExtension>
        </extensions>
      </trkpt>
      <trkpt lat="42.51241567544639110565185546875" lon="19.90595192648470401763916015625">
        <ele>1998.199951171875</ele>
        <time>2026-06-17T11:15:09.000Z</time>
        <extensions>
          <ns3:TrackPointExtension>
            <ns3:atemp>19.0</ns3:atemp>
          </ns3:TrackPointExtension>
        </extensions>
      </trkpt>
      <trkpt lat="42.5124454312026500701904296875" lon="19.90594488568603992462158203125">
        <ele>1998.4000244140625</ele>
        <time>2026-06-17T11:15:10.000Z</time>
        <extensions>
          <ns3:TrackPointExtension>
            <ns3:atemp>19.0</ns3:atemp>
          </ns3:TrackPointExtension>
        </extensions>
      </trkpt>
      <trkpt lat="42.5124739296734333038330078125" lon="19.90593516267836093902587890625">
        <ele>1998.5999755859375</ele>
        <time>2026-06-17T11:15:11.000Z</time>
        <extensions>
          <ns3:TrackPointExtension>
            <ns3:atemp>19.0</ns3:atemp>
          </ns3:TrackPointExtension>
        </extensions>
      </trkpt>
      <trkpt lat="42.51249010674655437469482421875" lon="19.9059369228780269622802734375">
        <ele>1999</ele>
        <time>2026-06-17T11:15:12.000Z</time>
        <extensions>
          <ns3:TrackPointExtension>
            <ns3:atemp>19.0</ns3:atemp>
          </ns3:TrackPointExtension>
        </extensions>
      </trkpt>
      <trkpt lat="42.51249832101166248321533203125" lon="19.90593717433512210845947265625">
        <ele>1999.199951171875</ele>
        <time>2026-06-17T11:15:13.000Z</time>
        <extensions>
          <ns3:TrackPointExtension>
            <ns3:atemp>19.0</ns3:atemp>
          </ns3:TrackPointExtension>
        </extensions>
      </trkpt>
      <trkpt lat="42.51250066794455051422119140625" lon="19.90594639442861080169677734375">
        <ele>1999.5999755859375</ele>
        <time>2026-06-17T11:15:14.000Z</time>
        <extensions>
          <ns3:TrackPointExtension>
            <ns3:atemp>19.0</ns3:atemp>
          </ns3:TrackPointExtension>
        </extensions>
      </trkpt>
      <trkpt lat="42.51250586472451686859130859375" lon="19.9059593863785266876220703125">
        <ele>2000</ele>
        <time>2026-06-17T11:15:15.000Z</time>
        <extensions>
          <ns3:TrackPointExtension>
            <ns3:atemp>19.0</ns3:atemp>
          </ns3:TrackPointExtension>
        </extensions>
      </trkpt>
      <trkpt lat="42.51251206733286380767822265625" lon="19.90597304888069629669189453125">
        <ele>2000.199951171875</ele>
        <time>2026-06-17T11:15:16.000Z</time>
        <extensions>
          <ns3:TrackPointExtension>
            <ns3:atemp>19.0</ns3:atemp>
          </ns3:TrackPointExtension>
        </extensions>
      </trkpt>
      <trkpt lat="42.51252313144505023956298828125" lon="19.90598578937351703643798828125">
        <ele>2000.199951171875</ele>
        <time>2026-06-17T11:15:17.000Z</time>
        <extensions>
          <ns3:TrackPointExtension>
            <ns3:atemp>19.0</ns3:atemp>
          </ns3:TrackPointExtension>
        </extensions>
      </trkpt>
      <trkpt lat="42.5125383026897907257080078125" lon="19.9059959314763545989990234375">
        <ele>2000.4000244140625</ele>
        <time>2026-06-17T11:15:18.000Z</time>
        <extensions>
          <ns3:TrackPointExtension>
            <ns3:atemp>19.0</ns3:atemp>
          </ns3:TrackPointExtension>
        </extensions>
      </trkpt>
      <trkpt lat="42.51255649141967296600341796875" lon="19.90600280463695526123046875">
        <ele>2000.4000244140625</ele>
        <time>2026-06-17T11:15:19.000Z</time>
        <extensions>
          <ns3:TrackPointExtension>
            <ns3:atemp>19.0</ns3:atemp>
          </ns3:TrackPointExtension>
        </extensions>
      </trkpt>
      <trkpt lat="42.5125701539218425750732421875" lon="19.9060133658349514007568359375">
        <ele>2000.5999755859375</ele>
        <time>2026-06-17T11:15:20.000Z</time>
        <extensions>
          <ns3:TrackPointExtension>
            <ns3:atemp>19.0</ns3:atemp>
          </ns3:TrackPointExtension>
        </extensions>
      </trkpt>
      <trkpt lat="42.51258482225239276885986328125" lon="19.90601546131074428558349609375">
        <ele>2000.800048828125</ele>
        <time>2026-06-17T11:15:21.000Z</time>
        <extensions>
          <ns3:TrackPointExtension>
            <ns3:atemp>19.0</ns3:atemp>
          </ns3:TrackPointExtension>
        </extensions>
      </trkpt>
      <trkpt lat="42.51260125078260898590087890625" lon="19.9060103483498096466064453125">
        <ele>2001.199951171875</ele>
        <time>2026-06-17T11:15:22.000Z</time>
        <extensions>
          <ns3:TrackPointExtension>
            <ns3:atemp>19.0</ns3:atemp>
          </ns3:TrackPointExtension>
        </extensions>
      </trkpt>
      <trkpt lat="42.51262270845472812652587890625" lon="19.9060130305588245391845703125">
        <ele>2001.4000244140625</ele>
        <time>2026-06-17T11:15:23.000Z</time>
        <extensions>
          <ns3:TrackPointExtension>
            <ns3:atemp>19.0</ns3:atemp>
          </ns3:TrackPointExtension>
        </extensions>
      </trkpt>
      <trkpt lat="42.5126425735652446746826171875" lon="19.9060116894543170928955078125">
        <ele>2001.800048828125</ele>
        <time>2026-06-17T11:15:24.000Z</time>
        <extensions>
          <ns3:TrackPointExtension>
            <ns3:atemp>19.0</ns3:atemp>
          </ns3:TrackPointExtension>
        </extensions>
      </trkpt>
      <trkpt lat="42.512659840285778045654296875" lon="19.9060103483498096466064453125">
        <ele>2002</ele>
        <time>2026-06-17T11:15:25.000Z</time>
        <extensions>
          <ns3:TrackPointExtension>
            <ns3:atemp>19.0</ns3:atemp>
          </ns3:TrackPointExtension>
        </extensions>
      </trkpt>
      <trkpt lat="42.51267299987375736236572265625" lon="19.90600674413144588470458984375">
        <ele>2002.199951171875</ele>
        <time>2026-06-17T11:15:26.000Z</time>
        <extensions>
          <ns3:TrackPointExtension>
            <ns3:atemp>19.0</ns3:atemp>
          </ns3:TrackPointExtension>
        </extensions>
      </trkpt>
      <trkpt lat="42.51268892548978328704833984375" lon="19.90600414574146270751953125">
        <ele>2002.5999755859375</ele>
        <time>2026-06-17T11:15:27.000Z</time>
        <extensions>
          <ns3:TrackPointExtension>
            <ns3:atemp>19.0</ns3:atemp>
          </ns3:TrackPointExtension>
        </extensions>
      </trkpt>
      <trkpt lat="42.51270401291549205780029296875" lon="19.90600406192243099212646484375">
        <ele>2002.800048828125</ele>
        <time>2026-06-17T11:15:28.000Z</time>
        <extensions>
          <ns3:TrackPointExtension>
            <ns3:atemp>19.0</ns3:atemp>
          </ns3:TrackPointExtension>
        </extensions>
      </trkpt>
      <trkpt lat="42.51271842978894710540771484375" lon="19.90599819459021091461181640625">
        <ele>2003.199951171875</ele>
        <time>2026-06-17T11:15:29.000Z</time>
        <extensions>
          <ns3:TrackPointExtension>
            <ns3:atemp>19.0</ns3:atemp>
          </ns3:TrackPointExtension>
        </extensions>
      </trkpt>
      <trkpt lat="42.51273192465305328369140625" lon="19.90598947741091251373291015625">
        <ele>2003.4000244140625</ele>
        <time>2026-06-17T11:15:30.000Z</time>
        <extensions>
          <ns3:TrackPointExtension>
            <ns3:atemp>19.0</ns3:atemp>
          </ns3:TrackPointExtension>
        </extensions>
      </trkpt>
      <trkpt lat="42.5127418152987957000732421875" lon="19.90598268806934356689453125">
        <ele>2003.800048828125</ele>
        <time>2026-06-17T11:15:31.000Z</time>
        <extensions>
          <ns3:TrackPointExtension>
            <ns3:atemp>19.0</ns3:atemp>
          </ns3:TrackPointExtension>
        </extensions>
      </trkpt>
      <trkpt lat="42.51275011338293552398681640625" lon="19.905974306166172027587890625">
        <ele>2004</ele>
        <time>2026-06-17T11:15:32.000Z</time>
        <extensions>
          <ns3:TrackPointExtension>
            <ns3:atemp>19.0</ns3:atemp>
          </ns3:TrackPointExtension>
        </extensions>
      </trkpt>
      <trkpt lat="42.51275883056223392486572265625" lon="19.9059674330055713653564453125">
        <ele>2004.199951171875</ele>
        <time>2026-06-17T11:15:33.000Z</time>
        <extensions>
          <ns3:TrackPointExtension>
            <ns3:atemp>19.0</ns3:atemp>
          </ns3:TrackPointExtension>
        </extensions>
      </trkpt>
      <trkpt lat="42.51275539398193359375" lon="19.90596793591976165771484375">
        <ele>2004.4000244140625</ele>
        <time>2026-06-17T11:15:34.000Z</time>
        <extensions>
          <ns3:TrackPointExtension>
            <ns3:atemp>19.0</ns3:atemp>
          </ns3:TrackPointExtension>
        </extensions>
      </trkpt>
      <trkpt lat="42.51275497488677501678466796875" lon="19.90597003139555454254150390625">
        <ele>2004.5999755859375</ele>
        <time>2026-06-17T11:15:35.000Z</time>
        <extensions>
          <ns3:TrackPointExtension>
            <ns3:atemp>19.0</ns3:atemp>
          </ns3:TrackPointExtension>
        </extensions>
      </trkpt>
      <trkpt lat="42.51275497488677501678466796875" lon="19.90597003139555454254150390625">
        <ele>2004.5999755859375</ele>
        <time>2026-06-17T11:15:36.000Z</time>
        <extensions>
          <ns3:TrackPointExtension>
            <ns3:atemp>19.0</ns3:atemp>
          </ns3:TrackPointExtension>
        </extensions>
      </trkpt>
      <trkpt lat="42.51275497488677501678466796875" lon="19.90597003139555454254150390625">
        <ele>2004.800048828125</ele>
        <time>2026-06-17T11:15:37.000Z</time>
        <extensions>
          <ns3:TrackPointExtension>
            <ns3:atemp>19.0</ns3:atemp>
          </ns3:TrackPointExtension>
        </extensions>
      </trkpt>
      <trkpt lat="42.51275497488677501678466796875" lon="19.90597003139555454254150390625">
        <ele>2004.800048828125</ele>
        <time>2026-06-17T11:15:38.000Z</time>
        <extensions>
          <ns3:TrackPointExtension>
            <ns3:atemp>19.0</ns3:atemp>
          </ns3:TrackPointExtension>
        </extensions>
      </trkpt>
      <trkpt lat="42.51275497488677501678466796875" lon="19.90597003139555454254150390625">
        <ele>2004.800048828125</ele>
        <time>2026-06-17T11:15:39.000Z</time>
        <extensions>
          <ns3:TrackPointExtension>
            <ns3:atemp>19.0</ns3:atemp>
          </ns3:TrackPointExtension>
        </extensions>
      </trkpt>
      <trkpt lat="42.51275497488677501678466796875" lon="19.90597003139555454254150390625">
        <ele>2004.800048828125</ele>
        <time>2026-06-17T11:15:40.000Z</time>
        <extensions>
          <ns3:TrackPointExtension>
            <ns3:atemp>19.0</ns3:atemp>
          </ns3:TrackPointExtension>
        </extensions>
      </trkpt>
      <trkpt lat="42.51275497488677501678466796875" lon="19.90597003139555454254150390625">
        <ele>2004.800048828125</ele>
        <time>2026-06-17T11:15:41.000Z</time>
        <extensions>
          <ns3:TrackPointExtension>
            <ns3:atemp>19.0</ns3:atemp>
          </ns3:TrackPointExtension>
        </extensions>
      </trkpt>
      <trkpt lat="42.51275497488677501678466796875" lon="19.90597003139555454254150390625">
        <ele>2004.5999755859375</ele>
        <time>2026-06-17T11:15:42.000Z</time>
        <extensions>
          <ns3:TrackPointExtension>
            <ns3:atemp>19.0</ns3:atemp>
          </ns3:TrackPointExtension>
        </extensions>
      </trkpt>
      <trkpt lat="42.51275497488677501678466796875" lon="19.90597003139555454254150390625">
        <ele>2004.4000244140625</ele>
        <time>2026-06-17T11:15:43.000Z</time>
        <extensions>
          <ns3:TrackPointExtension>
            <ns3:atemp>19.0</ns3:atemp>
          </ns3:TrackPointExtension>
        </extensions>
      </trkpt>
      <trkpt lat="42.51275497488677501678466796875" lon="19.90597003139555454254150390625">
        <ele>2004.199951171875</ele>
        <time>2026-06-17T11:15:44.000Z</time>
        <extensions>
          <ns3:TrackPointExtension>
            <ns3:atemp>19.0</ns3:atemp>
          </ns3:TrackPointExtension>
        </extensions>
      </trkpt>
      <trkpt lat="42.51275497488677501678466796875" lon="19.90597003139555454254150390625">
        <ele>2004.199951171875</ele>
        <time>2026-06-17T11:15:45.000Z</time>
        <extensions>
          <ns3:TrackPointExtension>
            <ns3:atemp>19.0</ns3:atemp>
          </ns3:TrackPointExtension>
        </extensions>
      </trkpt>
      <trkpt lat="42.51275497488677501678466796875" lon="19.90597003139555454254150390625">
        <ele>2004</ele>
        <time>2026-06-17T11:15:46.000Z</time>
        <extensions>
          <ns3:TrackPointExtension>
            <ns3:atemp>19.0</ns3:atemp>
          </ns3:TrackPointExtension>
        </extensions>
      </trkpt>
      <trkpt lat="42.51275497488677501678466796875" lon="19.90597003139555454254150390625">
        <ele>2004</ele>
        <time>2026-06-17T11:15:47.000Z</time>
        <extensions>
          <ns3:TrackPointExtension>
            <ns3:atemp>19.0</ns3:atemp>
          </ns3:TrackPointExtension>
        </extensions>
      </trkpt>
      <trkpt lat="42.51275497488677501678466796875" lon="19.90597003139555454254150390625">
        <ele>2004</ele>
        <time>2026-06-17T11:15:48.000Z</time>
        <extensions>
          <ns3:TrackPointExtension>
            <ns3:atemp>19.0</ns3:atemp>
          </ns3:TrackPointExtension>
        </extensions>
      </trkpt>
      <trkpt lat="42.51275497488677501678466796875" lon="19.90597003139555454254150390625">
        <ele>2004</ele>
        <time>2026-06-17T11:15:49.000Z</time>
        <extensions>
          <ns3:TrackPointExtension>
            <ns3:atemp>19.0</ns3:atemp>
          </ns3:TrackPointExtension>
        </extensions>
      </trkpt>
      <trkpt lat="42.51275497488677501678466796875" lon="19.90597003139555454254150390625">
        <ele>2004</ele>
        <time>2026-06-17T11:15:50.000Z</time>
        <extensions>
          <ns3:TrackPointExtension>
            <ns3:atemp>19.0</ns3:atemp>
          </ns3:TrackPointExtension>
        </extensions>
      </trkpt>
      <trkpt lat="42.51275497488677501678466796875" lon="19.90597003139555454254150390625">
        <ele>2004</ele>
        <time>2026-06-17T11:15:51.000Z</time>
        <extensions>
          <ns3:TrackPointExtension>
            <ns3:atemp>19.0</ns3:atemp>
          </ns3:TrackPointExtension>
        </extensions>
      </trkpt>
      <trkpt lat="42.51275497488677501678466796875" lon="19.90597003139555454254150390625">
        <ele>2004</ele>
        <time>2026-06-17T11:15:52.000Z</time>
        <extensions>
          <ns3:TrackPointExtension>
            <ns3:atemp>19.0</ns3:atemp>
          </ns3:TrackPointExtension>
        </extensions>
      </trkpt>
      <trkpt lat="42.51275497488677501678466796875" lon="19.90597003139555454254150390625">
        <ele>2004</ele>
        <time>2026-06-17T11:15:53.000Z</time>
        <extensions>
          <ns3:TrackPointExtension>
            <ns3:atemp>19.0</ns3:atemp>
          </ns3:TrackPointExtension>
        </extensions>
      </trkpt>
      <trkpt lat="42.51275497488677501678466796875" lon="19.90597003139555454254150390625">
        <ele>2004</ele>
        <time>2026-06-17T11:15:54.000Z</time>
        <extensions>
          <ns3:TrackPointExtension>
            <ns3:atemp>19.0</ns3:atemp>
          </ns3:TrackPointExtension>
        </extensions>
      </trkpt>
      <trkpt lat="42.51275497488677501678466796875" lon="19.90597003139555454254150390625">
        <ele>2003.800048828125</ele>
        <time>2026-06-17T11:15:55.000Z</time>
        <extensions>
          <ns3:TrackPointExtension>
            <ns3:atemp>19.0</ns3:atemp>
          </ns3:TrackPointExtension>
        </extensions>
      </trkpt>
      <trkpt lat="42.51275497488677501678466796875" lon="19.90597003139555454254150390625">
        <ele>2003.800048828125</ele>
        <time>2026-06-17T11:15:56.000Z</time>
        <extensions>
          <ns3:TrackPointExtension>
            <ns3:atemp>19.0</ns3:atemp>
          </ns3:TrackPointExtension>
        </extensions>
      </trkpt>
      <trkpt lat="42.51275497488677501678466796875" lon="19.90597003139555454254150390625">
        <ele>2003.800048828125</ele>
        <time>2026-06-17T11:15:57.000Z</time>
        <extensions>
          <ns3:TrackPointExtension>
            <ns3:atemp>19.0</ns3:atemp>
          </ns3:TrackPointExtension>
        </extensions>
      </trkpt>
      <trkpt lat="42.51275497488677501678466796875" lon="19.90597003139555454254150390625">
        <ele>2003.800048828125</ele>
        <time>2026-06-17T11:15:58.000Z</time>
        <extensions>
          <ns3:TrackPointExtension>
            <ns3:atemp>19.0</ns3:atemp>
          </ns3:TrackPointExtension>
        </extensions>
      </trkpt>
      <trkpt lat="42.51275497488677501678466796875" lon="19.90597003139555454254150390625">
        <ele>2003.800048828125</ele>
        <time>2026-06-17T11:15:59.000Z</time>
        <extensions>
          <ns3:TrackPointExtension>
            <ns3:atemp>19.0</ns3:atemp>
          </ns3:TrackPointExtension>
        </extensions>
      </trkpt>
      <trkpt lat="42.51275497488677501678466796875" lon="19.90597003139555454254150390625">
        <ele>2003.800048828125</ele>
        <time>2026-06-17T11:16:00.000Z</time>
        <extensions>
          <ns3:TrackPointExtension>
            <ns3:atemp>19.0</ns3:atemp>
          </ns3:TrackPointExtension>
        </extensions>
      </trkpt>
      <trkpt lat="42.51275497488677501678466796875" lon="19.90597003139555454254150390625">
        <ele>2003.800048828125</ele>
        <time>2026-06-17T11:16:01.000Z</time>
        <extensions>
          <ns3:TrackPointExtension>
            <ns3:atemp>19.0</ns3:atemp>
          </ns3:TrackPointExtension>
        </extensions>
      </trkpt>
      <trkpt lat="42.51275497488677501678466796875" lon="19.90597003139555454254150390625">
        <ele>2003.800048828125</ele>
        <time>2026-06-17T11:16:02.000Z</time>
        <extensions>
          <ns3:TrackPointExtension>
            <ns3:atemp>19.0</ns3:atemp>
          </ns3:TrackPointExtension>
        </extensions>
      </trkpt>
      <trkpt lat="42.51275497488677501678466796875" lon="19.90597003139555454254150390625">
        <ele>2003.800048828125</ele>
        <time>2026-06-17T11:16:03.000Z</time>
        <extensions>
          <ns3:TrackPointExtension>
            <ns3:atemp>19.0</ns3:atemp>
          </ns3:TrackPointExtension>
        </extensions>
      </trkpt>
      <trkpt lat="42.51275497488677501678466796875" lon="19.90597003139555454254150390625">
        <ele>2003.800048828125</ele>
        <time>2026-06-17T11:16:04.000Z</time>
        <extensions>
          <ns3:TrackPointExtension>
            <ns3:atemp>19.0</ns3:atemp>
          </ns3:TrackPointExtension>
        </extensions>
      </trkpt>
      <trkpt lat="42.51275497488677501678466796875" lon="19.90597003139555454254150390625">
        <ele>2003.800048828125</ele>
        <time>2026-06-17T11:16:05.000Z</time>
        <extensions>
          <ns3:TrackPointExtension>
            <ns3:atemp>19.0</ns3:atemp>
          </ns3:TrackPointExtension>
        </extensions>
      </trkpt>
      <trkpt lat="42.51275497488677501678466796875" lon="19.90597003139555454254150390625">
        <ele>2003.800048828125</ele>
        <time>2026-06-17T11:16:06.000Z</time>
        <extensions>
          <ns3:TrackPointExtension>
            <ns3:atemp>19.0</ns3:atemp>
          </ns3:TrackPointExtension>
        </extensions>
      </trkpt>
      <trkpt lat="42.51275497488677501678466796875" lon="19.90597003139555454254150390625">
        <ele>2003.5999755859375</ele>
        <time>2026-06-17T11:16:07.000Z</time>
        <extensions>
          <ns3:TrackPointExtension>
            <ns3:atemp>19.0</ns3:atemp>
          </ns3:TrackPointExtension>
        </extensions>
      </trkpt>
      <trkpt lat="42.51275497488677501678466796875" lon="19.90597003139555454254150390625">
        <ele>2003.5999755859375</ele>
        <time>2026-06-17T11:16:08.000Z</time>
        <extensions>
          <ns3:TrackPointExtension>
            <ns3:atemp>19.0</ns3:atemp>
          </ns3:TrackPointExtension>
        </extensions>
      </trkpt>
      <trkpt lat="42.51275497488677501678466796875" lon="19.90597003139555454254150390625">
        <ele>2003.5999755859375</ele>
        <time>2026-06-17T11:16:09.000Z</time>
        <extensions>
          <ns3:TrackPointExtension>
            <ns3:atemp>19.0</ns3:atemp>
          </ns3:TrackPointExtension>
        </extensions>
      </trkpt>
      <trkpt lat="42.51275497488677501678466796875" lon="19.90597003139555454254150390625">
        <ele>2003.5999755859375</ele>
        <time>2026-06-17T11:16:10.000Z</time>
        <extensions>
          <ns3:TrackPointExtension>
            <ns3:atemp>19.0</ns3:atemp>
          </ns3:TrackPointExtension>
        </extensions>
      </trkpt>
      <trkpt lat="42.51275497488677501678466796875" lon="19.90597003139555454254150390625">
        <ele>2003.5999755859375</ele>
        <time>2026-06-17T11:16:11.000Z</time>
        <extensions>
          <ns3:TrackPointExtension>
            <ns3:atemp>19.0</ns3:atemp>
          </ns3:TrackPointExtension>
        </extensions>
      </trkpt>
      <trkpt lat="42.51275497488677501678466796875" lon="19.90597003139555454254150390625">
        <ele>2003.5999755859375</ele>
        <time>2026-06-17T11:16:12.000Z</time>
        <extensions>
          <ns3:TrackPointExtension>
            <ns3:atemp>19.0</ns3:atemp>
          </ns3:TrackPointExtension>
        </extensions>
      </trkpt>
      <trkpt lat="42.51275497488677501678466796875" lon="19.90597003139555454254150390625">
        <ele>2003.5999755859375</ele>
        <time>2026-06-17T11:16:13.000Z</time>
        <extensions>
          <ns3:TrackPointExtension>
            <ns3:atemp>19.0</ns3:atemp>
          </ns3:TrackPointExtension>
        </extensions>
      </trkpt>
      <trkpt lat="42.51275497488677501678466796875" lon="19.90597003139555454254150390625">
        <ele>2003.5999755859375</ele>
        <time>2026-06-17T11:16:14.000Z</time>
        <extensions>
          <ns3:TrackPointExtension>
            <ns3:atemp>19.0</ns3:atemp>
          </ns3:TrackPointExtension>
        </extensions>
      </trkpt>
      <trkpt lat="42.51275497488677501678466796875" lon="19.90597003139555454254150390625">
        <ele>2003.5999755859375</ele>
        <time>2026-06-17T11:16:15.000Z</time>
        <extensions>
          <ns3:TrackPointExtension>
            <ns3:atemp>19.0</ns3:atemp>
          </ns3:TrackPointExtension>
        </extensions>
      </trkpt>
      <trkpt lat="42.51275497488677501678466796875" lon="19.90597003139555454254150390625">
        <ele>2003.5999755859375</ele>
        <time>2026-06-17T11:16:16.000Z</time>
        <extensions>
          <ns3:TrackPointExtension>
            <ns3:atemp>19.0</ns3:atemp>
          </ns3:TrackPointExtension>
        </extensions>
      </trkpt>
      <trkpt lat="42.51275497488677501678466796875" lon="19.90597003139555454254150390625">
        <ele>2003.4000244140625</ele>
        <time>2026-06-17T11:16:17.000Z</time>
        <extensions>
          <ns3:TrackPointExtension>
            <ns3:atemp>19.0</ns3:atemp>
          </ns3:TrackPointExtension>
        </extensions>
      </trkpt>
      <trkpt lat="42.51275497488677501678466796875" lon="19.90597003139555454254150390625">
        <ele>2003.4000244140625</ele>
        <time>2026-06-17T11:16:18.000Z</time>
        <extensions>
          <ns3:TrackPointExtension>
            <ns3:atemp>19.0</ns3:atemp>
          </ns3:TrackPointExtension>
        </extensions>
      </trkpt>
      <trkpt lat="42.51275497488677501678466796875" lon="19.90597003139555454254150390625">
        <ele>2003.4000244140625</ele>
        <time>2026-06-17T11:16:19.000Z</time>
        <extensions>
          <ns3:TrackPointExtension>
            <ns3:atemp>19.0</ns3:atemp>
          </ns3:TrackPointExtension>
        </extensions>
      </trkpt>
      <trkpt lat="42.51275497488677501678466796875" lon="19.90597003139555454254150390625">
        <ele>2003.4000244140625</ele>
        <time>2026-06-17T11:16:20.000Z</time>
        <extensions>
          <ns3:TrackPointExtension>
            <ns3:atemp>19.0</ns3:atemp>
          </ns3:TrackPointExtension>
        </extensions>
      </trkpt>
      <trkpt lat="42.51275497488677501678466796875" lon="19.90597003139555454254150390625">
        <ele>2003.4000244140625</ele>
        <time>2026-06-17T11:16:21.000Z</time>
        <extensions>
          <ns3:TrackPointExtension>
            <ns3:atemp>19.0</ns3:atemp>
          </ns3:TrackPointExtension>
        </extensions>
      </trkpt>
      <trkpt lat="42.51275497488677501678466796875" lon="19.90597003139555454254150390625">
        <ele>2003.4000244140625</ele>
        <time>2026-06-17T11:16:22.000Z</time>
        <extensions>
          <ns3:TrackPointExtension>
            <ns3:atemp>19.0</ns3:atemp>
          </ns3:TrackPointExtension>
        </extensions>
      </trkpt>
      <trkpt lat="42.51275497488677501678466796875" lon="19.90597003139555454254150390625">
        <ele>2003.4000244140625</ele>
        <time>2026-06-17T11:16:23.000Z</time>
        <extensions>
          <ns3:TrackPointExtension>
            <ns3:atemp>19.0</ns3:atemp>
          </ns3:TrackPointExtension>
        </extensions>
      </trkpt>
      <trkpt lat="42.51275497488677501678466796875" lon="19.90597003139555454254150390625">
        <ele>2003.4000244140625</ele>
        <time>2026-06-17T11:16:24.000Z</time>
        <extensions>
          <ns3:TrackPointExtension>
            <ns3:atemp>19.0</ns3:atemp>
          </ns3:TrackPointExtension>
        </extensions>
      </trkpt>
      <trkpt lat="42.51275497488677501678466796875" lon="19.90597003139555454254150390625">
        <ele>2003.4000244140625</ele>
        <time>2026-06-17T11:16:25.000Z</time>
        <extensions>
          <ns3:TrackPointExtension>
            <ns3:atemp>19.0</ns3:atemp>
          </ns3:TrackPointExtension>
        </extensions>
      </trkpt>
      <trkpt lat="42.51275497488677501678466796875" lon="19.90597003139555454254150390625">
        <ele>2003.4000244140625</ele>
        <time>2026-06-17T11:16:26.000Z</time>
        <extensions>
          <ns3:TrackPointExtension>
            <ns3:atemp>19.0</ns3:atemp>
          </ns3:TrackPointExtension>
        </extensions>
      </trkpt>
      <trkpt lat="42.51275497488677501678466796875" lon="19.90597003139555454254150390625">
        <ele>2003.4000244140625</ele>
        <time>2026-06-17T11:16:27.000Z</time>
        <extensions>
          <ns3:TrackPointExtension>
            <ns3:atemp>19.0</ns3:atemp>
          </ns3:TrackPointExtension>
        </extensions>
      </trkpt>
      <trkpt lat="42.51275497488677501678466796875" lon="19.90597003139555454254150390625">
        <ele>2003.4000244140625</ele>
        <time>2026-06-17T11:16:28.000Z</time>
        <extensions>
          <ns3:TrackPointExtension>
            <ns3:atemp>19.0</ns3:atemp>
          </ns3:TrackPointExtension>
        </extensions>
      </trkpt>
      <trkpt lat="42.51275497488677501678466796875" lon="19.90597003139555454254150390625">
        <ele>2003.4000244140625</ele>
        <time>2026-06-17T11:16:29.000Z</time>
        <extensions>
          <ns3:TrackPointExtension>
            <ns3:atemp>19.0</ns3:atemp>
          </ns3:TrackPointExtension>
        </extensions>
      </trkpt>
      <trkpt lat="42.51275497488677501678466796875" lon="19.90597003139555454254150390625">
        <ele>2003.4000244140625</ele>
        <time>2026-06-17T11:16:30.000Z</time>
        <extensions>
          <ns3:TrackPointExtension>
            <ns3:atemp>19.0</ns3:atemp>
          </ns3:TrackPointExtension>
        </extensions>
      </trkpt>
      <trkpt lat="42.51275497488677501678466796875" lon="19.90597003139555454254150390625">
        <ele>2003.4000244140625</ele>
        <time>2026-06-17T11:16:31.000Z</time>
        <extensions>
          <ns3:TrackPointExtension>
            <ns3:atemp>19.0</ns3:atemp>
          </ns3:TrackPointExtension>
        </extensions>
      </trkpt>
      <trkpt lat="42.51275497488677501678466796875" lon="19.90597003139555454254150390625">
        <ele>2003.4000244140625</ele>
        <time>2026-06-17T11:16:32.000Z</time>
        <extensions>
          <ns3:TrackPointExtension>
            <ns3:atemp>19.0</ns3:atemp>
          </ns3:TrackPointExtension>
        </extensions>
      </trkpt>
      <trkpt lat="42.51275497488677501678466796875" lon="19.90597003139555454254150390625">
        <ele>2003.4000244140625</ele>
        <time>2026-06-17T11:16:33.000Z</time>
        <extensions>
          <ns3:TrackPointExtension>
            <ns3:atemp>19.0</ns3:atemp>
          </ns3:TrackPointExtension>
        </extensions>
      </trkpt>
      <trkpt lat="42.51275497488677501678466796875" lon="19.90597003139555454254150390625">
        <ele>2003.4000244140625</ele>
        <time>2026-06-17T11:16:34.000Z</time>
        <extensions>
          <ns3:TrackPointExtension>
            <ns3:atemp>19.0</ns3:atemp>
          </ns3:TrackPointExtension>
        </extensions>
      </trkpt>
      <trkpt lat="42.51275497488677501678466796875" lon="19.90597003139555454254150390625">
        <ele>2003.4000244140625</ele>
        <time>2026-06-17T11:16:35.000Z</time>
        <extensions>
          <ns3:TrackPointExtension>
            <ns3:atemp>19.0</ns3:atemp>
          </ns3:TrackPointExtension>
        </extensions>
      </trkpt>
      <trkpt lat="42.51275497488677501678466796875" lon="19.90597003139555454254150390625">
        <ele>2003.199951171875</ele>
        <time>2026-06-17T11:16:36.000Z</time>
        <extensions>
          <ns3:TrackPointExtension>
            <ns3:atemp>19.0</ns3:atemp>
          </ns3:TrackPointExtension>
        </extensions>
      </trkpt>
      <trkpt lat="42.51275497488677501678466796875" lon="19.90597003139555454254150390625">
        <ele>2003.199951171875</ele>
        <time>2026-06-17T11:16:37.000Z</time>
        <extensions>
          <ns3:TrackPointExtension>
            <ns3:atemp>19.0</ns3:atemp>
          </ns3:TrackPointExtension>
        </extensions>
      </trkpt>
      <trkpt lat="42.51275497488677501678466796875" lon="19.90597003139555454254150390625">
        <ele>2003.199951171875</ele>
        <time>2026-06-17T11:16:38.000Z</time>
        <extensions>
          <ns3:TrackPointExtension>
            <ns3:atemp>19.0</ns3:atemp>
          </ns3:TrackPointExtension>
        </extensions>
      </trkpt>
      <trkpt lat="42.51275497488677501678466796875" lon="19.90597003139555454254150390625">
        <ele>2003.199951171875</ele>
        <time>2026-06-17T11:16:39.000Z</time>
        <extensions>
          <ns3:TrackPointExtension>
            <ns3:atemp>19.0</ns3:atemp>
          </ns3:TrackPointExtension>
        </extensions>
      </trkpt>
      <trkpt lat="42.51275497488677501678466796875" lon="19.90597003139555454254150390625">
        <ele>2003.199951171875</ele>
        <time>2026-06-17T11:16:40.000Z</time>
        <extensions>
          <ns3:TrackPointExtension>
            <ns3:atemp>19.0</ns3:atemp>
          </ns3:TrackPointExtension>
        </extensions>
      </trkpt>
      <trkpt lat="42.51275547780096530914306640625" lon="19.9059664271771907806396484375">
        <ele>2003.199951171875</ele>
        <time>2026-06-17T11:16:41.000Z</time>
        <extensions>
          <ns3:TrackPointExtension>
            <ns3:atemp>19.0</ns3:atemp>
          </ns3:TrackPointExtension>
        </extensions>
      </trkpt>
      <trkpt lat="42.51276017166674137115478515625" lon="19.905952848494052886962890625">
        <ele>2003.199951171875</ele>
        <time>2026-06-17T11:16:42.000Z</time>
        <extensions>
          <ns3:TrackPointExtension>
            <ns3:atemp>19.0</ns3:atemp>
          </ns3:TrackPointExtension>
        </extensions>
      </trkpt>
      <trkpt lat="42.5127647817134857177734375" lon="19.90594656206667423248291015625">
        <ele>2003.4000244140625</ele>
        <time>2026-06-17T11:16:43.000Z</time>
        <extensions>
          <ns3:TrackPointExtension>
            <ns3:atemp>19.0</ns3:atemp>
          </ns3:TrackPointExtension>
        </extensions>
      </trkpt>
      <trkpt lat="42.5127674639225006103515625" lon="19.90594253875315189361572265625">
        <ele>2003.5999755859375</ele>
        <time>2026-06-17T11:16:44.000Z</time>
        <extensions>
          <ns3:TrackPointExtension>
            <ns3:atemp>19.0</ns3:atemp>
          </ns3:TrackPointExtension>
        </extensions>
      </trkpt>
      <trkpt lat="42.51276805065572261810302734375" lon="19.90594237111508846282958984375">
        <ele>2003.5999755859375</ele>
        <time>2026-06-17T11:16:45.000Z</time>
        <extensions>
          <ns3:TrackPointExtension>
            <ns3:atemp>19.0</ns3:atemp>
          </ns3:TrackPointExtension>
        </extensions>
      </trkpt>
      <trkpt lat="42.5127679668366909027099609375" lon="19.90594220347702503204345703125">
        <ele>2003.5999755859375</ele>
        <time>2026-06-17T11:16:46.000Z</time>
        <extensions>
          <ns3:TrackPointExtension>
            <ns3:atemp>19.0</ns3:atemp>
          </ns3:TrackPointExtension>
        </extensions>
      </trkpt>
      <trkpt lat="42.5127679668366909027099609375" lon="19.90594220347702503204345703125">
        <ele>2003.5999755859375</ele>
        <time>2026-06-17T11:16:47.000Z</time>
        <extensions>
          <ns3:TrackPointExtension>
            <ns3:atemp>19.0</ns3:atemp>
          </ns3:TrackPointExtension>
        </extensions>
      </trkpt>
      <trkpt lat="42.5127679668366909027099609375" lon="19.90594220347702503204345703125">
        <ele>2003.5999755859375</ele>
        <time>2026-06-17T11:16:48.000Z</time>
        <extensions>
          <ns3:TrackPointExtension>
            <ns3:atemp>19.0</ns3:atemp>
          </ns3:TrackPointExtension>
        </extensions>
      </trkpt>
      <trkpt lat="42.5127679668366909027099609375" lon="19.90594220347702503204345703125">
        <ele>2003.5999755859375</ele>
        <time>2026-06-17T11:16:49.000Z</time>
        <extensions>
          <ns3:TrackPointExtension>
            <ns3:atemp>19.0</ns3:atemp>
          </ns3:TrackPointExtension>
        </extensions>
      </trkpt>
      <trkpt lat="42.5127679668366909027099609375" lon="19.90594220347702503204345703125">
        <ele>2003.5999755859375</ele>
        <time>2026-06-17T11:16:50.000Z</time>
        <extensions>
          <ns3:TrackPointExtension>
            <ns3:atemp>19.0</ns3:atemp>
          </ns3:TrackPointExtension>
        </extensions>
      </trkpt>
      <trkpt lat="42.5127679668366909027099609375" lon="19.90594220347702503204345703125">
        <ele>2003.5999755859375</ele>
        <time>2026-06-17T11:16:51.000Z</time>
        <extensions>
          <ns3:TrackPointExtension>
            <ns3:atemp>19.0</ns3:atemp>
          </ns3:TrackPointExtension>
        </extensions>
      </trkpt>
      <trkpt lat="42.5127679668366909027099609375" lon="19.90594119764864444732666015625">
        <ele>2003.5999755859375</ele>
        <time>2026-06-17T11:16:52.000Z</time>
        <extensions>
          <ns3:TrackPointExtension>
            <ns3:atemp>19.0</ns3:atemp>
          </ns3:TrackPointExtension>
        </extensions>
      </trkpt>
      <trkpt lat="42.5127723254263401031494140625" lon="19.90591940470039844512939453125">
        <ele>2003.4000244140625</ele>
        <time>2026-06-17T11:16:53.000Z</time>
        <extensions>
          <ns3:TrackPointExtension>
            <ns3:atemp>19.0</ns3:atemp>
          </ns3:TrackPointExtension>
        </extensions>
      </trkpt>
      <trkpt lat="42.51277391798794269561767578125" lon="19.90590012632310390472412109375">
        <ele>2003.4000244140625</ele>
        <time>2026-06-17T11:16:54.000Z</time>
        <extensions>
          <ns3:TrackPointExtension>
            <ns3:atemp>19.0</ns3:atemp>
          </ns3:TrackPointExtension>
        </extensions>
      </trkpt>
      <trkpt lat="42.512779869139194488525390625" lon="19.90586827509105205535888671875">
        <ele>2003.199951171875</ele>
        <time>2026-06-17T11:16:55.000Z</time>
        <extensions>
          <ns3:TrackPointExtension>
            <ns3:atemp>19.0</ns3:atemp>
          </ns3:TrackPointExtension>
        </extensions>
      </trkpt>
      <trkpt lat="42.51278347335755825042724609375" lon="19.905836172401905059814453125">
        <ele>2003</ele>
        <time>2026-06-17T11:16:56.000Z</time>
        <extensions>
          <ns3:TrackPointExtension>
            <ns3:atemp>19.0</ns3:atemp>
          </ns3:TrackPointExtension>
        </extensions>
      </trkpt>
      <trkpt lat="42.51278548501431941986083984375" lon="19.90581647492945194244384765625">
        <ele>2003</ele>
        <time>2026-06-17T11:16:57.000Z</time>
        <extensions>
          <ns3:TrackPointExtension>
            <ns3:atemp>19.0</ns3:atemp>
          </ns3:TrackPointExtension>
        </extensions>
      </trkpt>
      <trkpt lat="42.51278598792850971221923828125" lon="19.9057982861995697021484375">
        <ele>2002.800048828125</ele>
        <time>2026-06-17T11:16:58.000Z</time>
        <extensions>
          <ns3:TrackPointExtension>
            <ns3:atemp>19.0</ns3:atemp>
          </ns3:TrackPointExtension>
        </extensions>
      </trkpt>
      <trkpt lat="42.51278531737625598907470703125" lon="19.90578378550708293914794921875">
        <ele>2002.5999755859375</ele>
        <time>2026-06-17T11:16:59.000Z</time>
        <extensions>
          <ns3:TrackPointExtension>
            <ns3:atemp>19.0</ns3:atemp>
          </ns3:TrackPointExtension>
        </extensions>
      </trkpt>
      <trkpt lat="42.5127894245088100433349609375" lon="19.90578009746968746185302734375">
        <ele>2002.5999755859375</ele>
        <time>2026-06-17T11:17:00.000Z</time>
        <extensions>
          <ns3:TrackPointExtension>
            <ns3:atemp>19.0</ns3:atemp>
          </ns3:TrackPointExtension>
        </extensions>
      </trkpt>
      <trkpt lat="42.51279537566006183624267578125" lon="19.90577355958521366119384765625">
        <ele>2002.4000244140625</ele>
        <time>2026-06-17T11:17:01.000Z</time>
        <extensions>
          <ns3:TrackPointExtension>
            <ns3:atemp>19.0</ns3:atemp>
          </ns3:TrackPointExtension>
        </extensions>
      </trkpt>
      <trkpt lat="42.51279839314520359039306640625" lon="19.9057662673294544219970703125">
        <ele>2002.4000244140625</ele>
        <time>2026-06-17T11:17:02.000Z</time>
        <extensions>
          <ns3:TrackPointExtension>
            <ns3:atemp>19.0</ns3:atemp>
          </ns3:TrackPointExtension>
        </extensions>
      </trkpt>
      <trkpt lat="42.5127957947552204132080078125" lon="19.90576266311109066009521484375">
        <ele>2002.199951171875</ele>
        <time>2026-06-17T11:17:03.000Z</time>
        <extensions>
          <ns3:TrackPointExtension>
            <ns3:atemp>19.0</ns3:atemp>
          </ns3:TrackPointExtension>
        </extensions>
      </trkpt>
      <trkpt lat="42.51279571093618869781494140625" lon="19.90576266311109066009521484375">
        <ele>2002.199951171875</ele>
        <time>2026-06-17T11:17:04.000Z</time>
        <extensions>
          <ns3:TrackPointExtension>
            <ns3:atemp>19.0</ns3:atemp>
          </ns3:TrackPointExtension>
        </extensions>
      </trkpt>
      <trkpt lat="42.51280208118259906768798828125" lon="19.90576115436851978302001953125">
        <ele>2002</ele>
        <time>2026-06-17T11:17:05.000Z</time>
        <extensions>
          <ns3:TrackPointExtension>
            <ns3:atemp>19.0</ns3:atemp>
          </ns3:TrackPointExtension>
        </extensions>
      </trkpt>
      <trkpt lat="42.512811720371246337890625" lon="19.90576048381626605987548828125">
        <ele>2002</ele>
        <time>2026-06-17T11:17:06.000Z</time>
        <extensions>
          <ns3:TrackPointExtension>
            <ns3:atemp>19.0</ns3:atemp>
          </ns3:TrackPointExtension>
        </extensions>
      </trkpt>
      <trkpt lat="42.512828148901462554931640625" lon="19.9057531915605068206787109375">
        <ele>2001.800048828125</ele>
        <time>2026-06-17T11:17:07.000Z</time>
        <extensions>
          <ns3:TrackPointExtension>
            <ns3:atemp>19.0</ns3:atemp>
          </ns3:TrackPointExtension>
        </extensions>
      </trkpt>
      <trkpt lat="42.5128366984426975250244140625" lon="19.9057424627244472503662109375">
        <ele>2001.4000244140625</ele>
        <time>2026-06-17T11:17:08.000Z</time>
        <extensions>
          <ns3:TrackPointExtension>
            <ns3:atemp>19.0</ns3:atemp>
          </ns3:TrackPointExtension>
        </extensions>
      </trkpt>
      <trkpt lat="42.51283787190914154052734375" lon="19.905734919011592864990234375">
        <ele>2001.199951171875</ele>
        <time>2026-06-17T11:17:09.000Z</time>
        <extensions>
          <ns3:TrackPointExtension>
            <ns3:atemp>19.0</ns3:atemp>
          </ns3:TrackPointExtension>
        </extensions>
      </trkpt>
      <trkpt lat="42.51283812336623668670654296875" lon="19.90573215298354625701904296875">
        <ele>2000.800048828125</ele>
        <time>2026-06-17T11:17:10.000Z</time>
        <extensions>
          <ns3:TrackPointExtension>
            <ns3:atemp>18.0</ns3:atemp>
          </ns3:TrackPointExtension>
        </extensions>
      </trkpt>
      <trkpt lat="42.51284214667975902557373046875" lon="19.90571455098688602447509765625">
        <ele>2000.4000244140625</ele>
        <time>2026-06-17T11:17:11.000Z</time>
        <extensions>
          <ns3:TrackPointExtension>
            <ns3:atemp>18.0</ns3:atemp>
          </ns3:TrackPointExtension>
        </extensions>
      </trkpt>
      <trkpt lat="42.51284466125071048736572265625" lon="19.90567968226969242095947265625">
        <ele>2000</ele>
        <time>2026-06-17T11:17:12.000Z</time>
        <extensions>
          <ns3:TrackPointExtension>
            <ns3:atemp>18.0</ns3:atemp>
          </ns3:TrackPointExtension>
        </extensions>
      </trkpt>
      <trkpt lat="42.512850947678089141845703125" lon="19.90562863647937774658203125">
        <ele>1999.5999755859375</ele>
        <time>2026-06-17T11:17:13.000Z</time>
        <extensions>
          <ns3:TrackPointExtension>
            <ns3:atemp>18.0</ns3:atemp>
          </ns3:TrackPointExtension>
        </extensions>
      </trkpt>
      <trkpt lat="42.51286896876990795135498046875" lon="19.905558563768863677978515625">
        <ele>1999.199951171875</ele>
        <time>2026-06-17T11:17:14.000Z</time>
        <extensions>
          <ns3:TrackPointExtension>
            <ns3:atemp>18.0</ns3:atemp>
          </ns3:TrackPointExtension>
        </extensions>
      </trkpt>
      <trkpt lat="42.512899897992610931396484375" lon="19.90549662150442600250244140625">
        <ele>1998.5999755859375</ele>
        <time>2026-06-17T11:17:15.000Z</time>
        <extensions>
          <ns3:TrackPointExtension>
            <ns3:atemp>18.0</ns3:atemp>
          </ns3:TrackPointExtension>
        </extensions>
      </trkpt>
      <trkpt lat="42.51295320689678192138671875" lon="19.9054537899792194366455078125">
        <ele>1997.800048828125</ele>
        <time>2026-06-17T11:17:16.000Z</time>
        <extensions>
          <ns3:TrackPointExtension>
            <ns3:atemp>18.0</ns3:atemp>
          </ns3:TrackPointExtension>
        </extensions>
      </trkpt>
      <trkpt lat="42.51300525851547718048095703125" lon="19.90540944971144199371337890625">
        <ele>1997.199951171875</ele>
        <time>2026-06-17T11:17:17.000Z</time>
        <extensions>
          <ns3:TrackPointExtension>
            <ns3:atemp>18.0</ns3:atemp>
          </ns3:TrackPointExtension>
        </extensions>
      </trkpt>
      <trkpt lat="42.5130422227084636688232421875" lon="19.9053771793842315673828125">
        <ele>1996.800048828125</ele>
        <time>2026-06-17T11:17:18.000Z</time>
        <extensions>
          <ns3:TrackPointExtension>
            <ns3:atemp>18.0</ns3:atemp>
          </ns3:TrackPointExtension>
        </extensions>
      </trkpt>
      <trkpt lat="42.51307189464569091796875" lon="19.905364774167537689208984375">
        <ele>1996.4000244140625</ele>
        <time>2026-06-17T11:17:19.000Z</time>
        <extensions>
          <ns3:TrackPointExtension>
            <ns3:atemp>18.0</ns3:atemp>
          </ns3:TrackPointExtension>
        </extensions>
      </trkpt>
      <trkpt lat="42.5131052546203136444091796875" lon="19.9053610861301422119140625">
        <ele>1996.199951171875</ele>
        <time>2026-06-17T11:17:20.000Z</time>
        <extensions>
          <ns3:TrackPointExtension>
            <ns3:atemp>18.0</ns3:atemp>
          </ns3:TrackPointExtension>
        </extensions>
      </trkpt>
      <trkpt lat="42.51313786022365093231201171875" lon="19.905362762510776519775390625">
        <ele>1996</ele>
        <time>2026-06-17T11:17:21.000Z</time>
        <extensions>
          <ns3:TrackPointExtension>
            <ns3:atemp>18.0</ns3:atemp>
          </ns3:TrackPointExtension>
        </extensions>
      </trkpt>
      <trkpt lat="42.51316568814218044281005859375" lon="19.9053733237087726593017578125">
        <ele>1996</ele>
        <time>2026-06-17T11:17:22.000Z</time>
        <extensions>
          <ns3:TrackPointExtension>
            <ns3:atemp>18.0</ns3:atemp>
          </ns3:TrackPointExtension>
        </extensions>
      </trkpt>
      <trkpt lat="42.51318697817623615264892578125" lon="19.905380196869373321533203125">
        <ele>1996</ele>
        <time>2026-06-17T11:17:23.000Z</time>
        <extensions>
          <ns3:TrackPointExtension>
            <ns3:atemp>18.0</ns3:atemp>
          </ns3:TrackPointExtension>
        </extensions>
      </trkpt>
      <trkpt lat="42.51320608891546726226806640625" lon="19.90538187325000762939453125">
        <ele>1995.800048828125</ele>
        <time>2026-06-17T11:17:24.000Z</time>
        <extensions>
          <ns3:TrackPointExtension>
            <ns3:atemp>18.0</ns3:atemp>
          </ns3:TrackPointExtension>
        </extensions>
      </trkpt>
      <trkpt lat="42.51323358155786991119384765625" lon="19.90537424571812152862548828125">
        <ele>1995.5999755859375</ele>
        <time>2026-06-17T11:17:25.000Z</time>
        <extensions>
          <ns3:TrackPointExtension>
            <ns3:atemp>18.0</ns3:atemp>
          </ns3:TrackPointExtension>
        </extensions>
      </trkpt>
      <trkpt lat="42.5132609903812408447265625" lon="19.90537516772747039794921875">
        <ele>1995.4000244140625</ele>
        <time>2026-06-17T11:17:26.000Z</time>
        <extensions>
          <ns3:TrackPointExtension>
            <ns3:atemp>18.0</ns3:atemp>
          </ns3:TrackPointExtension>
        </extensions>
      </trkpt>
      <trkpt lat="42.5132953561842441558837890625" lon="19.9053615890443325042724609375">
        <ele>1994.800048828125</ele>
        <time>2026-06-17T11:17:27.000Z</time>
        <extensions>
          <ns3:TrackPointExtension>
            <ns3:atemp>18.0</ns3:atemp>
          </ns3:TrackPointExtension>
        </extensions>
      </trkpt>
      <trkpt lat="42.51333064399659633636474609375" lon="19.9053542129695415496826171875">
        <ele>1994.4000244140625</ele>
        <time>2026-06-17T11:17:28.000Z</time>
        <extensions>
          <ns3:TrackPointExtension>
            <ns3:atemp>18.0</ns3:atemp>
          </ns3:TrackPointExtension>
        </extensions>
      </trkpt>
      <trkpt lat="42.51335662789642810821533203125" lon="19.9053508602082729339599609375">
        <ele>1993.800048828125</ele>
        <time>2026-06-17T11:17:29.000Z</time>
        <extensions>
          <ns3:TrackPointExtension>
            <ns3:atemp>18.0</ns3:atemp>
          </ns3:TrackPointExtension>
        </extensions>
      </trkpt>
      <trkpt lat="42.513386048376560211181640625" lon="19.9053434841334819793701171875">
        <ele>1993.4000244140625</ele>
        <time>2026-06-17T11:17:30.000Z</time>
        <extensions>
          <ns3:TrackPointExtension>
            <ns3:atemp>18.0</ns3:atemp>
          </ns3:TrackPointExtension>
        </extensions>
      </trkpt>
      <trkpt lat="42.51341186463832855224609375" lon="19.90533116273581981658935546875">
        <ele>1992.800048828125</ele>
        <time>2026-06-17T11:17:31.000Z</time>
        <extensions>
          <ns3:TrackPointExtension>
            <ns3:atemp>18.0</ns3:atemp>
          </ns3:TrackPointExtension>
        </extensions>
      </trkpt>
      <trkpt lat="42.51344128511846065521240234375" lon="19.9053176678717136383056640625">
        <ele>1992.4000244140625</ele>
        <time>2026-06-17T11:17:32.000Z</time>
        <extensions>
          <ns3:TrackPointExtension>
            <ns3:atemp>18.0</ns3:atemp>
          </ns3:TrackPointExtension>
        </extensions>
      </trkpt>
      <trkpt lat="42.51347581855952739715576171875" lon="19.90531121380627155303955078125">
        <ele>1991.800048828125</ele>
        <time>2026-06-17T11:17:33.000Z</time>
        <extensions>
          <ns3:TrackPointExtension>
            <ns3:atemp>18.0</ns3:atemp>
          </ns3:TrackPointExtension>
        </extensions>
      </trkpt>
      <trkpt lat="42.51351001672446727752685546875" lon="19.90529729984700679779052734375">
        <ele>1991</ele>
        <time>2026-06-17T11:17:34.000Z</time>
        <extensions>
          <ns3:TrackPointExtension>
            <ns3:atemp>18.0</ns3:atemp>
          </ns3:TrackPointExtension>
        </extensions>
      </trkpt>
      <trkpt lat="42.51353122293949127197265625" lon="19.9052948690950870513916015625">
        <ele>1990.4000244140625</ele>
        <time>2026-06-17T11:17:35.000Z</time>
        <extensions>
          <ns3:TrackPointExtension>
            <ns3:atemp>18.0</ns3:atemp>
          </ns3:TrackPointExtension>
        </extensions>
      </trkpt>
      <trkpt lat="42.51354907639324665069580078125" lon="19.90528942085802555084228515625">
        <ele>1989.800048828125</ele>
        <time>2026-06-17T11:17:36.000Z</time>
        <extensions>
          <ns3:TrackPointExtension>
            <ns3:atemp>18.0</ns3:atemp>
          </ns3:TrackPointExtension>
        </extensions>
      </trkpt>
      <trkpt lat="42.51357682049274444580078125" lon="19.90529377944767475128173828125">
        <ele>1989.199951171875</ele>
        <time>2026-06-17T11:17:37.000Z</time>
        <extensions>
          <ns3:TrackPointExtension>
            <ns3:atemp>18.0</ns3:atemp>
          </ns3:TrackPointExtension>
        </extensions>
      </trkpt>
      <trkpt lat="42.5135997869074344635009765625" lon="19.9052978865802288055419921875">
        <ele>1989</ele>
        <time>2026-06-17T11:17:38.000Z</time>
        <extensions>
          <ns3:TrackPointExtension>
            <ns3:atemp>18.0</ns3:atemp>
          </ns3:TrackPointExtension>
        </extensions>
      </trkpt>
      <trkpt lat="42.51361730508506298065185546875" lon="19.90531624294817447662353515625">
        <ele>1988.5999755859375</ele>
        <time>2026-06-17T11:17:39.000Z</time>
        <extensions>
          <ns3:TrackPointExtension>
            <ns3:atemp>18.0</ns3:atemp>
          </ns3:TrackPointExtension>
        </extensions>
      </trkpt>
      <trkpt lat="42.51363222487270832061767578125" lon="19.90533753298223018646240234375">
        <ele>1988.199951171875</ele>
        <time>2026-06-17T11:17:40.000Z</time>
        <extensions>
          <ns3:TrackPointExtension>
            <ns3:atemp>18.0</ns3:atemp>
          </ns3:TrackPointExtension>
        </extensions>
      </trkpt>
      <trkpt lat="42.51363943330943584442138671875" lon="19.905361421406269073486328125">
        <ele>1987.800048828125</ele>
        <time>2026-06-17T11:17:41.000Z</time>
        <extensions>
          <ns3:TrackPointExtension>
            <ns3:atemp>18.0</ns3:atemp>
          </ns3:TrackPointExtension>
        </extensions>
      </trkpt>
      <trkpt lat="42.5136453844606876373291015625" lon="19.90537961013615131378173828125">
        <ele>1987.4000244140625</ele>
        <time>2026-06-17T11:17:42.000Z</time>
        <extensions>
          <ns3:TrackPointExtension>
            <ns3:atemp>18.0</ns3:atemp>
          </ns3:TrackPointExtension>
        </extensions>
      </trkpt>
      <trkpt lat="42.5136552751064300537109375" lon="19.90540710277855396270751953125">
        <ele>1987.199951171875</ele>
        <time>2026-06-17T11:17:43.000Z</time>
        <extensions>
          <ns3:TrackPointExtension>
            <ns3:atemp>18.0</ns3:atemp>
          </ns3:TrackPointExtension>
        </extensions>
      </trkpt>
      <trkpt lat="42.51367061398923397064208984375" lon="19.905418418347835540771484375">
        <ele>1986.800048828125</ele>
        <time>2026-06-17T11:17:44.000Z</time>
        <extensions>
          <ns3:TrackPointExtension>
            <ns3:atemp>18.0</ns3:atemp>
          </ns3:TrackPointExtension>
        </extensions>
      </trkpt>
      <trkpt lat="42.513686120510101318359375" lon="19.905421100556850433349609375">
        <ele>1986.4000244140625</ele>
        <time>2026-06-17T11:17:45.000Z</time>
        <extensions>
          <ns3:TrackPointExtension>
            <ns3:atemp>18.0</ns3:atemp>
          </ns3:TrackPointExtension>
        </extensions>
      </trkpt>
      <trkpt lat="42.51369827426970005035400390625" lon="19.905426464974880218505859375">
        <ele>1986</ele>
        <time>2026-06-17T11:17:46.000Z</time>
        <extensions>
          <ns3:TrackPointExtension>
            <ns3:atemp>18.0</ns3:atemp>
          </ns3:TrackPointExtension>
        </extensions>
      </trkpt>
      <trkpt lat="42.513711266219615936279296875" lon="19.9054306559264659881591796875">
        <ele>1985.5999755859375</ele>
        <time>2026-06-17T11:17:47.000Z</time>
        <extensions>
          <ns3:TrackPointExtension>
            <ns3:atemp>18.0</ns3:atemp>
          </ns3:TrackPointExtension>
        </extensions>
      </trkpt>
      <trkpt lat="42.51372291706502437591552734375" lon="19.90543107502162456512451171875">
        <ele>1985.199951171875</ele>
        <time>2026-06-17T11:17:48.000Z</time>
        <extensions>
          <ns3:TrackPointExtension>
            <ns3:atemp>18.0</ns3:atemp>
          </ns3:TrackPointExtension>
        </extensions>
      </trkpt>
      <trkpt lat="42.51373699866235256195068359375" lon="19.90542872808873653411865234375">
        <ele>1985</ele>
        <time>2026-06-17T11:17:49.000Z</time>
        <extensions>
          <ns3:TrackPointExtension>
            <ns3:atemp>18.0</ns3:atemp>
          </ns3:TrackPointExtension>
        </extensions>
      </trkpt>
      <trkpt lat="42.51374772749841213226318359375" lon="19.905413724482059478759765625">
        <ele>1984.5999755859375</ele>
        <time>2026-06-17T11:17:50.000Z</time>
        <extensions>
          <ns3:TrackPointExtension>
            <ns3:atemp>18.0</ns3:atemp>
          </ns3:TrackPointExtension>
        </extensions>
      </trkpt>
      <trkpt lat="42.51375175081193447113037109375" lon="19.9053900875151157379150390625">
        <ele>1984.199951171875</ele>
        <time>2026-06-17T11:17:51.000Z</time>
        <extensions>
          <ns3:TrackPointExtension>
            <ns3:atemp>18.0</ns3:atemp>
          </ns3:TrackPointExtension>
        </extensions>
      </trkpt>
      <trkpt lat="42.51376247964799404144287109375" lon="19.90537173114717006683349609375">
        <ele>1984</ele>
        <time>2026-06-17T11:17:52.000Z</time>
        <extensions>
          <ns3:TrackPointExtension>
            <ns3:atemp>18.0</ns3:atemp>
          </ns3:TrackPointExtension>
        </extensions>
      </trkpt>
      <trkpt lat="42.51377253793179988861083984375" lon="19.90535597316920757293701171875">
        <ele>1983.5999755859375</ele>
        <time>2026-06-17T11:17:53.000Z</time>
        <extensions>
          <ns3:TrackPointExtension>
            <ns3:atemp>18.0</ns3:atemp>
          </ns3:TrackPointExtension>
        </extensions>
      </trkpt>
      <trkpt lat="42.51377941109240055084228515625" lon="19.9053431488573551177978515625">
        <ele>1983.199951171875</ele>
        <time>2026-06-17T11:17:54.000Z</time>
        <extensions>
          <ns3:TrackPointExtension>
            <ns3:atemp>18.0</ns3:atemp>
          </ns3:TrackPointExtension>
        </extensions>
      </trkpt>
      <trkpt lat="42.513796426355838775634765625" lon="19.905327893793582916259765625">
        <ele>1982.800048828125</ele>
        <time>2026-06-17T11:17:55.000Z</time>
        <extensions>
          <ns3:TrackPointExtension>
            <ns3:atemp>18.0</ns3:atemp>
          </ns3:TrackPointExtension>
        </extensions>
      </trkpt>
      <trkpt lat="42.51381218433380126953125" lon="19.90532998926937580108642578125">
        <ele>1982.4000244140625</ele>
        <time>2026-06-17T11:17:56.000Z</time>
        <extensions>
          <ns3:TrackPointExtension>
            <ns3:atemp>18.0</ns3:atemp>
          </ns3:TrackPointExtension>
        </extensions>
      </trkpt>
      <trkpt lat="42.51382517628371715545654296875" lon="19.90534700453281402587890625">
        <ele>1982</ele>
        <time>2026-06-17T11:17:57.000Z</time>
        <extensions>
          <ns3:TrackPointExtension>
            <ns3:atemp>18.0</ns3:atemp>
          </ns3:TrackPointExtension>
        </extensions>
      </trkpt>
      <trkpt lat="42.513839341700077056884765625" lon="19.9053490161895751953125">
        <ele>1981.4000244140625</ele>
        <time>2026-06-17T11:17:58.000Z</time>
        <extensions>
          <ns3:TrackPointExtension>
            <ns3:atemp>18.0</ns3:atemp>
          </ns3:TrackPointExtension>
        </extensions>
      </trkpt>
      <trkpt lat="42.5138644874095916748046875" lon="19.90533703006803989410400390625">
        <ele>1980.800048828125</ele>
        <time>2026-06-17T11:17:59.000Z</time>
        <extensions>
          <ns3:TrackPointExtension>
            <ns3:atemp>18.0</ns3:atemp>
          </ns3:TrackPointExtension>
        </extensions>
      </trkpt>
      <trkpt lat="42.51389860175549983978271484375" lon="19.90532646887004375457763671875">
        <ele>1980</ele>
        <time>2026-06-17T11:18:00.000Z</time>
        <extensions>
          <ns3:TrackPointExtension>
            <ns3:atemp>18.0</ns3:atemp>
          </ns3:TrackPointExtension>
        </extensions>
      </trkpt>
      <trkpt lat="42.51393891870975494384765625" lon="19.90533183328807353973388671875">
        <ele>1979.199951171875</ele>
        <time>2026-06-17T11:18:01.000Z</time>
        <extensions>
          <ns3:TrackPointExtension>
            <ns3:atemp>18.0</ns3:atemp>
          </ns3:TrackPointExtension>
        </extensions>
      </trkpt>
      <trkpt lat="42.5139739550650119781494140625" lon="19.90534205920994281768798828125">
        <ele>1978.5999755859375</ele>
        <time>2026-06-17T11:18:02.000Z</time>
        <extensions>
          <ns3:TrackPointExtension>
            <ns3:atemp>18.0</ns3:atemp>
          </ns3:TrackPointExtension>
        </extensions>
      </trkpt>
      <trkpt lat="42.51400555483996868133544921875" lon="19.9053438194096088409423828125">
        <ele>1978</ele>
        <time>2026-06-17T11:18:03.000Z</time>
        <extensions>
          <ns3:TrackPointExtension>
            <ns3:atemp>18.0</ns3:atemp>
          </ns3:TrackPointExtension>
        </extensions>
      </trkpt>
      <trkpt lat="42.514034472405910491943359375" lon="19.90534071810543537139892578125">
        <ele>1977.4000244140625</ele>
        <time>2026-06-17T11:18:04.000Z</time>
        <extensions>
          <ns3:TrackPointExtension>
            <ns3:atemp>18.0</ns3:atemp>
          </ns3:TrackPointExtension>
        </extensions>
      </trkpt>
      <trkpt lat="42.51406054012477397918701171875" lon="19.90532822906970977783203125">
        <ele>1977</ele>
        <time>2026-06-17T11:18:05.000Z</time>
        <extensions>
          <ns3:TrackPointExtension>
            <ns3:atemp>18.0</ns3:atemp>
          </ns3:TrackPointExtension>
        </extensions>
      </trkpt>
      <trkpt lat="42.5140802375972270965576171875" lon="19.9053190089762210845947265625">
        <ele>1976.5999755859375</ele>
        <time>2026-06-17T11:18:06.000Z</time>
        <extensions>
          <ns3:TrackPointExtension>
            <ns3:atemp>18.0</ns3:atemp>
          </ns3:TrackPointExtension>
        </extensions>
      </trkpt>
      <trkpt lat="42.51409272663295269012451171875" lon="19.90530752576887607574462890625">
        <ele>1976.199951171875</ele>
        <time>2026-06-17T11:18:07.000Z</time>
        <extensions>
          <ns3:TrackPointExtension>
            <ns3:atemp>18.0</ns3:atemp>
          </ns3:TrackPointExtension>
        </extensions>
      </trkpt>
      <trkpt lat="42.51410831697285175323486328125" lon="19.9052978865802288055419921875">
        <ele>1976</ele>
        <time>2026-06-17T11:18:08.000Z</time>
        <extensions>
          <ns3:TrackPointExtension>
            <ns3:atemp>18.0</ns3:atemp>
          </ns3:TrackPointExtension>
        </extensions>
      </trkpt>
      <trkpt lat="42.5141194649040699005126953125" lon="19.905289672315120697021484375">
        <ele>1975.800048828125</ele>
        <time>2026-06-17T11:18:09.000Z</time>
        <extensions>
          <ns3:TrackPointExtension>
            <ns3:atemp>18.0</ns3:atemp>
          </ns3:TrackPointExtension>
        </extensions>
      </trkpt>
      <trkpt lat="42.51412893645465373992919921875" lon="19.90527450107038021087646484375">
        <ele>1975.800048828125</ele>
        <time>2026-06-17T11:18:10.000Z</time>
        <extensions>
          <ns3:TrackPointExtension>
            <ns3:atemp>18.0</ns3:atemp>
          </ns3:TrackPointExtension>
        </extensions>
      </trkpt>
      <trkpt lat="42.51414134167134761810302734375" lon="19.9052502773702144622802734375">
        <ele>1975.800048828125</ele>
        <time>2026-06-17T11:18:11.000Z</time>
        <extensions>
          <ns3:TrackPointExtension>
            <ns3:atemp>18.0</ns3:atemp>
          </ns3:TrackPointExtension>
        </extensions>
      </trkpt>
      <trkpt lat="42.514150477945804595947265625" lon="19.90523292683064937591552734375">
        <ele>1975.800048828125</ele>
        <time>2026-06-17T11:18:12.000Z</time>
        <extensions>
          <ns3:TrackPointExtension>
            <ns3:atemp>18.0</ns3:atemp>
          </ns3:TrackPointExtension>
        </extensions>
      </trkpt>
      <trkpt lat="42.51416129060089588165283203125" lon="19.90521884523332118988037109375">
        <ele>1975.800048828125</ele>
        <time>2026-06-17T11:18:13.000Z</time>
        <extensions>
          <ns3:TrackPointExtension>
            <ns3:atemp>18.0</ns3:atemp>
          </ns3:TrackPointExtension>
        </extensions>
      </trkpt>
      <trkpt lat="42.51417755149304866790771484375" lon="19.90521825850009918212890625">
        <ele>1976</ele>
        <time>2026-06-17T11:18:14.000Z</time>
        <extensions>
          <ns3:TrackPointExtension>
            <ns3:atemp>18.0</ns3:atemp>
          </ns3:TrackPointExtension>
        </extensions>
      </trkpt>
      <trkpt lat="42.51418475992977619171142578125" lon="19.90522286854684352874755859375">
        <ele>1976.199951171875</ele>
        <time>2026-06-17T11:18:15.000Z</time>
        <extensions>
          <ns3:TrackPointExtension>
            <ns3:atemp>18.0</ns3:atemp>
          </ns3:TrackPointExtension>
        </extensions>
      </trkpt>
      <trkpt lat="42.514194063842296600341796875" lon="19.90523560903966426849365234375">
        <ele>1976.199951171875</ele>
        <time>2026-06-17T11:18:16.000Z</time>
        <extensions>
          <ns3:TrackPointExtension>
            <ns3:atemp>18.0</ns3:atemp>
          </ns3:TrackPointExtension>
        </extensions>
      </trkpt>
      <trkpt lat="42.51421250402927398681640625" lon="19.90524432621896266937255859375">
        <ele>1976.199951171875</ele>
        <time>2026-06-17T11:18:17.000Z</time>
        <extensions>
          <ns3:TrackPointExtension>
            <ns3:atemp>18.0</ns3:atemp>
          </ns3:TrackPointExtension>
        </extensions>
      </trkpt>
      <trkpt lat="42.51423991285264492034912109375" lon="19.905256815254688262939453125">
        <ele>1975.800048828125</ele>
        <time>2026-06-17T11:18:18.000Z</time>
        <extensions>
          <ns3:TrackPointExtension>
            <ns3:atemp>18.0</ns3:atemp>
          </ns3:TrackPointExtension>
        </extensions>
      </trkpt>
      <trkpt lat="42.51427863724529743194580078125" lon="19.90527114830911159515380859375">
        <ele>1975.4000244140625</ele>
        <time>2026-06-17T11:18:19.000Z</time>
        <extensions>
          <ns3:TrackPointExtension>
            <ns3:atemp>18.0</ns3:atemp>
          </ns3:TrackPointExtension>
        </extensions>
      </trkpt>
      <trkpt lat="42.51433177851140499114990234375" lon="19.905272237956523895263671875">
        <ele>1974.5999755859375</ele>
        <time>2026-06-17T11:18:20.000Z</time>
        <extensions>
          <ns3:TrackPointExtension>
            <ns3:atemp>18.0</ns3:atemp>
          </ns3:TrackPointExtension>
        </extensions>
      </trkpt>
      <trkpt lat="42.5143856741487979888916015625" lon="19.90526544861495494842529296875">
        <ele>1974</ele>
        <time>2026-06-17T11:18:21.000Z</time>
        <extensions>
          <ns3:TrackPointExtension>
            <ns3:atemp>18.0</ns3:atemp>
          </ns3:TrackPointExtension>
        </extensions>
      </trkpt>
      <trkpt lat="42.5144386477768421173095703125" lon="19.9052537977695465087890625">
        <ele>1973.199951171875</ele>
        <time>2026-06-17T11:18:22.000Z</time>
        <extensions>
          <ns3:TrackPointExtension>
            <ns3:atemp>18.0</ns3:atemp>
          </ns3:TrackPointExtension>
        </extensions>
      </trkpt>
      <trkpt lat="42.514491118490695953369140625" lon="19.9052304960787296295166015625">
        <ele>1972.5999755859375</ele>
        <time>2026-06-17T11:18:23.000Z</time>
        <extensions>
          <ns3:TrackPointExtension>
            <ns3:atemp>18.0</ns3:atemp>
          </ns3:TrackPointExtension>
        </extensions>
      </trkpt>
      <trkpt lat="42.51454417593777179718017578125" lon="19.9052160792052745819091796875">
        <ele>1972.4000244140625</ele>
        <time>2026-06-17T11:18:24.000Z</time>
        <extensions>
          <ns3:TrackPointExtension>
            <ns3:atemp>18.0</ns3:atemp>
          </ns3:TrackPointExtension>
        </extensions>
      </trkpt>
      <trkpt lat="42.5145985744893550872802734375" lon="19.90522454492747783660888671875">
        <ele>1971.800048828125</ele>
        <time>2026-06-17T11:18:25.000Z</time>
        <extensions>
          <ns3:TrackPointExtension>
            <ns3:atemp>18.0</ns3:atemp>
          </ns3:TrackPointExtension>
        </extensions>
      </trkpt>
      <trkpt lat="42.5146543979644775390625" lon="19.905225299298763275146484375">
        <ele>1971.4000244140625</ele>
        <time>2026-06-17T11:18:26.000Z</time>
        <extensions>
          <ns3:TrackPointExtension>
            <ns3:atemp>18.0</ns3:atemp>
          </ns3:TrackPointExtension>
        </extensions>
      </trkpt>
      <trkpt lat="42.51470192335546016693115234375" lon="19.90522035397589206695556640625">
        <ele>1971.199951171875</ele>
        <time>2026-06-17T11:18:27.000Z</time>
        <extensions>
          <ns3:TrackPointExtension>
            <ns3:atemp>18.0</ns3:atemp>
          </ns3:TrackPointExtension>
        </extensions>
      </trkpt>
      <trkpt lat="42.514737546443939208984375" lon="19.90521012805402278900146484375">
        <ele>1971</ele>
        <time>2026-06-17T11:18:28.000Z</time>
        <extensions>
          <ns3:TrackPointExtension>
            <ns3:atemp>18.0</ns3:atemp>
          </ns3:TrackPointExtension>
        </extensions>
      </trkpt>
      <trkpt lat="42.51476093195378780364990234375" lon="19.90519453771412372589111328125">
        <ele>1971</ele>
        <time>2026-06-17T11:18:29.000Z</time>
        <extensions>
          <ns3:TrackPointExtension>
            <ns3:atemp>18.0</ns3:atemp>
          </ns3:TrackPointExtension>
        </extensions>
      </trkpt>
      <trkpt lat="42.51477769576013088226318359375" lon="19.90519202314317226409912109375">
        <ele>1971.4000244140625</ele>
        <time>2026-06-17T11:18:30.000Z</time>
        <extensions>
          <ns3:TrackPointExtension>
            <ns3:atemp>18.0</ns3:atemp>
          </ns3:TrackPointExtension>
        </extensions>
      </trkpt>
      <trkpt lat="42.51479529775679111480712890625" lon="19.9051942862570285797119140625">
        <ele>1971.5999755859375</ele>
        <time>2026-06-17T11:18:31.000Z</time>
        <extensions>
          <ns3:TrackPointExtension>
            <ns3:atemp>18.0</ns3:atemp>
          </ns3:TrackPointExtension>
        </extensions>
      </trkpt>
      <trkpt lat="42.51481524668633937835693359375" lon="19.9051916040480136871337890625">
        <ele>1972</ele>
        <time>2026-06-17T11:18:32.000Z</time>
        <extensions>
          <ns3:TrackPointExtension>
            <ns3:atemp>18.0</ns3:atemp>
          </ns3:TrackPointExtension>
        </extensions>
      </trkpt>
      <trkpt lat="42.51483502797782421112060546875" lon="19.9051921069622039794921875">
        <ele>1972.199951171875</ele>
        <time>2026-06-17T11:18:33.000Z</time>
        <extensions>
          <ns3:TrackPointExtension>
            <ns3:atemp>18.0</ns3:atemp>
          </ns3:TrackPointExtension>
        </extensions>
      </trkpt>
      <trkpt lat="42.514853216707706451416015625" lon="19.90519336424767971038818359375">
        <ele>1972.5999755859375</ele>
        <time>2026-06-17T11:18:34.000Z</time>
        <extensions>
          <ns3:TrackPointExtension>
            <ns3:atemp>18.0</ns3:atemp>
          </ns3:TrackPointExtension>
        </extensions>
      </trkpt>
      <trkpt lat="42.514876015484333038330078125" lon="19.905188083648681640625">
        <ele>1972.800048828125</ele>
        <time>2026-06-17T11:18:35.000Z</time>
        <extensions>
          <ns3:TrackPointExtension>
            <ns3:atemp>18.0</ns3:atemp>
          </ns3:TrackPointExtension>
        </extensions>
      </trkpt>
      <trkpt lat="42.514896802604198455810546875" lon="19.90519319660961627960205078125">
        <ele>1973</ele>
        <time>2026-06-17T11:18:36.000Z</time>
        <extensions>
          <ns3:TrackPointExtension>
            <ns3:atemp>18.0</ns3:atemp>
          </ns3:TrackPointExtension>
        </extensions>
      </trkpt>
      <trkpt lat="42.5149180926382541656494140625" lon="19.90520124323666095733642578125">
        <ele>1973.199951171875</ele>
        <time>2026-06-17T11:18:37.000Z</time>
        <extensions>
          <ns3:TrackPointExtension>
            <ns3:atemp>18.0</ns3:atemp>
          </ns3:TrackPointExtension>
        </extensions>
      </trkpt>
      <trkpt lat="42.5149435736238956451416015625" lon="19.90520543418824672698974609375">
        <ele>1973.4000244140625</ele>
        <time>2026-06-17T11:18:38.000Z</time>
        <extensions>
          <ns3:TrackPointExtension>
            <ns3:atemp>18.0</ns3:atemp>
          </ns3:TrackPointExtension>
        </extensions>
      </trkpt>
      <trkpt lat="42.51496762968599796295166015625" lon="19.905204512178897857666015625">
        <ele>1973.5999755859375</ele>
        <time>2026-06-17T11:18:39.000Z</time>
        <extensions>
          <ns3:TrackPointExtension>
            <ns3:atemp>18.0</ns3:atemp>
          </ns3:TrackPointExtension>
        </extensions>
      </trkpt>
      <trkpt lat="42.51498891972005367279052734375" lon="19.9051974713802337646484375">
        <ele>1973.800048828125</ele>
        <time>2026-06-17T11:18:40.000Z</time>
        <extensions>
          <ns3:TrackPointExtension>
            <ns3:atemp>18.0</ns3:atemp>
          </ns3:TrackPointExtension>
        </extensions>
      </trkpt>
      <trkpt lat="42.51500786282122135162353515625" lon="19.90518607199192047119140625">
        <ele>1973.800048828125</ele>
        <time>2026-06-17T11:18:41.000Z</time>
        <extensions>
          <ns3:TrackPointExtension>
            <ns3:atemp>18.0</ns3:atemp>
          </ns3:TrackPointExtension>
        </extensions>
      </trkpt>
      <trkpt lat="42.51503066159784793853759765625" lon="19.90517743863165378570556640625">
        <ele>1974</ele>
        <time>2026-06-17T11:18:42.000Z</time>
        <extensions>
          <ns3:TrackPointExtension>
            <ns3:atemp>18.0</ns3:atemp>
          </ns3:TrackPointExtension>
        </extensions>
      </trkpt>
      <trkpt lat="42.51505312509834766387939453125" lon="19.90516721270978450775146484375">
        <ele>1974</ele>
        <time>2026-06-17T11:18:43.000Z</time>
        <extensions>
          <ns3:TrackPointExtension>
            <ns3:atemp>18.0</ns3:atemp>
          </ns3:TrackPointExtension>
        </extensions>
      </trkpt>
      <trkpt lat="42.51507257111370563507080078125" lon="19.90516126155853271484375">
        <ele>1974</ele>
        <time>2026-06-17T11:18:44.000Z</time>
        <extensions>
          <ns3:TrackPointExtension>
            <ns3:atemp>18.0</ns3:atemp>
          </ns3:TrackPointExtension>
        </extensions>
      </trkpt>
      <trkpt lat="42.51509000547230243682861328125" lon="19.9051577411592006683349609375">
        <ele>1974</ele>
        <time>2026-06-17T11:18:45.000Z</time>
        <extensions>
          <ns3:TrackPointExtension>
            <ns3:atemp>18.0</ns3:atemp>
          </ns3:TrackPointExtension>
        </extensions>
      </trkpt>
      <trkpt lat="42.5151117146015167236328125" lon="19.90515581332147121429443359375">
        <ele>1974.199951171875</ele>
        <time>2026-06-17T11:18:46.000Z</time>
        <extensions>
          <ns3:TrackPointExtension>
            <ns3:atemp>18.0</ns3:atemp>
          </ns3:TrackPointExtension>
        </extensions>
      </trkpt>
      <trkpt lat="42.51513996161520481109619140625" lon="19.9051520414650440216064453125">
        <ele>1974.199951171875</ele>
        <time>2026-06-17T11:18:47.000Z</time>
        <extensions>
          <ns3:TrackPointExtension>
            <ns3:atemp>18.0</ns3:atemp>
          </ns3:TrackPointExtension>
        </extensions>
      </trkpt>
      <trkpt lat="42.515167035162448883056640625" lon="19.90515028126537799835205078125">
        <ele>1974.4000244140625</ele>
        <time>2026-06-17T11:18:48.000Z</time>
        <extensions>
          <ns3:TrackPointExtension>
            <ns3:atemp>18.0</ns3:atemp>
          </ns3:TrackPointExtension>
        </extensions>
      </trkpt>
      <trkpt lat="42.51519394107162952423095703125" lon="19.9051490239799022674560546875">
        <ele>1974.4000244140625</ele>
        <time>2026-06-17T11:18:49.000Z</time>
        <extensions>
          <ns3:TrackPointExtension>
            <ns3:atemp>18.0</ns3:atemp>
          </ns3:TrackPointExtension>
        </extensions>
      </trkpt>
      <trkpt lat="42.5152174942195415496826171875" lon="19.905146174132823944091796875">
        <ele>1974.5999755859375</ele>
        <time>2026-06-17T11:18:50.000Z</time>
        <extensions>
          <ns3:TrackPointExtension>
            <ns3:atemp>18.0</ns3:atemp>
          </ns3:TrackPointExtension>
        </extensions>
      </trkpt>
      <trkpt lat="42.51523752696812152862548828125" lon="19.90514575503766536712646484375">
        <ele>1974.5999755859375</ele>
        <time>2026-06-17T11:18:51.000Z</time>
        <extensions>
          <ns3:TrackPointExtension>
            <ns3:atemp>18.0</ns3:atemp>
          </ns3:TrackPointExtension>
        </extensions>
      </trkpt>
      <trkpt lat="42.51525563187897205352783203125" lon="19.90514508448541164398193359375">
        <ele>1974.800048828125</ele>
        <time>2026-06-17T11:18:52.000Z</time>
        <extensions>
          <ns3:TrackPointExtension>
            <ns3:atemp>18.0</ns3:atemp>
          </ns3:TrackPointExtension>
        </extensions>
      </trkpt>
      <trkpt lat="42.5152714736759662628173828125" lon="19.9051446653902530670166015625">
        <ele>1975.199951171875</ele>
        <time>2026-06-17T11:18:53.000Z</time>
        <extensions>
          <ns3:TrackPointExtension>
            <ns3:atemp>18.0</ns3:atemp>
          </ns3:TrackPointExtension>
        </extensions>
      </trkpt>
      <trkpt lat="42.5152905844151973724365234375" lon="19.9051413126289844512939453125">
        <ele>1975.4000244140625</ele>
        <time>2026-06-17T11:18:54.000Z</time>
        <extensions>
          <ns3:TrackPointExtension>
            <ns3:atemp>18.0</ns3:atemp>
          </ns3:TrackPointExtension>
        </extensions>
      </trkpt>
      <trkpt lat="42.515305839478969573974609375" lon="19.90514525212347507476806640625">
        <ele>1975.800048828125</ele>
        <time>2026-06-17T11:18:55.000Z</time>
        <extensions>
          <ns3:TrackPointExtension>
            <ns3:atemp>18.0</ns3:atemp>
          </ns3:TrackPointExtension>
        </extensions>
      </trkpt>
      <trkpt lat="42.515322603285312652587890625" lon="19.905140809714794158935546875">
        <ele>1976.199951171875</ele>
        <time>2026-06-17T11:18:56.000Z</time>
        <extensions>
          <ns3:TrackPointExtension>
            <ns3:atemp>18.0</ns3:atemp>
          </ns3:TrackPointExtension>
        </extensions>
      </trkpt>
      <trkpt lat="42.515342049300670623779296875" lon="19.90513720549643039703369140625">
        <ele>1976.4000244140625</ele>
        <time>2026-06-17T11:18:57.000Z</time>
        <extensions>
          <ns3:TrackPointExtension>
            <ns3:atemp>18.0</ns3:atemp>
          </ns3:TrackPointExtension>
        </extensions>
      </trkpt>
      <trkpt lat="42.51535453833639621734619140625" lon="19.90513737313449382781982421875">
        <ele>1976.800048828125</ele>
        <time>2026-06-17T11:18:58.000Z</time>
        <extensions>
          <ns3:TrackPointExtension>
            <ns3:atemp>18.0</ns3:atemp>
          </ns3:TrackPointExtension>
        </extensions>
      </trkpt>
      <trkpt lat="42.51537063159048557281494140625" lon="19.90514173172414302825927734375">
        <ele>1977.199951171875</ele>
        <time>2026-06-17T11:18:59.000Z</time>
        <extensions>
          <ns3:TrackPointExtension>
            <ns3:atemp>18.0</ns3:atemp>
          </ns3:TrackPointExtension>
        </extensions>
      </trkpt>
      <trkpt lat="42.51538773067295551300048828125" lon="19.9051500298082828521728515625">
        <ele>1977.5999755859375</ele>
        <time>2026-06-17T11:19:00.000Z</time>
        <extensions>
          <ns3:TrackPointExtension>
            <ns3:atemp>18.0</ns3:atemp>
          </ns3:TrackPointExtension>
        </extensions>
      </trkpt>
      <trkpt lat="42.51540466211736202239990234375" lon="19.905152209103107452392578125">
        <ele>1978</ele>
        <time>2026-06-17T11:19:01.000Z</time>
        <extensions>
          <ns3:TrackPointExtension>
            <ns3:atemp>18.0</ns3:atemp>
          </ns3:TrackPointExtension>
        </extensions>
      </trkpt>
      <trkpt lat="42.51542863436043262481689453125" lon="19.905162937939167022705078125">
        <ele>1978.4000244140625</ele>
        <time>2026-06-17T11:19:02.000Z</time>
        <extensions>
          <ns3:TrackPointExtension>
            <ns3:atemp>18.0</ns3:atemp>
          </ns3:TrackPointExtension>
        </extensions>
      </trkpt>
      <trkpt lat="42.5154491700232028961181640625" lon="19.90517308004200458526611328125">
        <ele>1978.800048828125</ele>
        <time>2026-06-17T11:19:03.000Z</time>
        <extensions>
          <ns3:TrackPointExtension>
            <ns3:atemp>18.0</ns3:atemp>
          </ns3:TrackPointExtension>
        </extensions>
      </trkpt>
      <trkpt lat="42.5154706276953220367431640625" lon="19.9051812104880809783935546875">
        <ele>1979.199951171875</ele>
        <time>2026-06-17T11:19:04.000Z</time>
        <extensions>
          <ns3:TrackPointExtension>
            <ns3:atemp>18.0</ns3:atemp>
          </ns3:TrackPointExtension>
        </extensions>
      </trkpt>
      <trkpt lat="42.51549552194774150848388671875" lon="19.9051902629435062408447265625">
        <ele>1979.4000244140625</ele>
        <time>2026-06-17T11:19:05.000Z</time>
        <extensions>
          <ns3:TrackPointExtension>
            <ns3:atemp>18.0</ns3:atemp>
          </ns3:TrackPointExtension>
        </extensions>
      </trkpt>
      <trkpt lat="42.51551815308630466461181640625" lon="19.9051929451525211334228515625">
        <ele>1979.5999755859375</ele>
        <time>2026-06-17T11:19:06.000Z</time>
        <extensions>
          <ns3:TrackPointExtension>
            <ns3:atemp>18.0</ns3:atemp>
          </ns3:TrackPointExtension>
        </extensions>
      </trkpt>
      <trkpt lat="42.5155356712639331817626953125" lon="19.905190430581569671630859375">
        <ele>1979.800048828125</ele>
        <time>2026-06-17T11:19:07.000Z</time>
        <extensions>
          <ns3:TrackPointExtension>
            <ns3:atemp>18.0</ns3:atemp>
          </ns3:TrackPointExtension>
        </extensions>
      </trkpt>
      <trkpt lat="42.5155524350702762603759765625" lon="19.905182383954524993896484375">
        <ele>1980</ele>
        <time>2026-06-17T11:19:08.000Z</time>
        <extensions>
          <ns3:TrackPointExtension>
            <ns3:atemp>18.0</ns3:atemp>
          </ns3:TrackPointExtension>
        </extensions>
      </trkpt>
      <trkpt lat="42.51555989496409893035888671875" lon="19.90517291240394115447998046875">
        <ele>1980.199951171875</ele>
        <time>2026-06-17T11:19:09.000Z</time>
        <extensions>
          <ns3:TrackPointExtension>
            <ns3:atemp>18.0</ns3:atemp>
          </ns3:TrackPointExtension>
        </extensions>
      </trkpt>
      <trkpt lat="42.51556257717311382293701171875" lon="19.9051644466817378997802734375">
        <ele>1980.199951171875</ele>
        <time>2026-06-17T11:19:10.000Z</time>
        <extensions>
          <ns3:TrackPointExtension>
            <ns3:atemp>18.0</ns3:atemp>
          </ns3:TrackPointExtension>
        </extensions>
      </trkpt>
      <trkpt lat="42.51556576229631900787353515625" lon="19.90516587160527706146240234375">
        <ele>1980.4000244140625</ele>
        <time>2026-06-17T11:19:11.000Z</time>
        <extensions>
          <ns3:TrackPointExtension>
            <ns3:atemp>18.0</ns3:atemp>
          </ns3:TrackPointExtension>
        </extensions>
      </trkpt>
      <trkpt lat="42.5155655108392238616943359375" lon="19.90516352467238903045654296875">
        <ele>1980.4000244140625</ele>
        <time>2026-06-17T11:19:12.000Z</time>
        <extensions>
          <ns3:TrackPointExtension>
            <ns3:atemp>18.0</ns3:atemp>
          </ns3:TrackPointExtension>
        </extensions>
      </trkpt>
      <trkpt lat="42.5155655108392238616943359375" lon="19.90516352467238903045654296875">
        <ele>1980.5999755859375</ele>
        <time>2026-06-17T11:19:13.000Z</time>
        <extensions>
          <ns3:TrackPointExtension>
            <ns3:atemp>18.0</ns3:atemp>
          </ns3:TrackPointExtension>
        </extensions>
      </trkpt>
      <trkpt lat="42.5155655108392238616943359375" lon="19.90516352467238903045654296875">
        <ele>1980.5999755859375</ele>
        <time>2026-06-17T11:19:14.000Z</time>
        <extensions>
          <ns3:TrackPointExtension>
            <ns3:atemp>18.0</ns3:atemp>
          </ns3:TrackPointExtension>
        </extensions>
      </trkpt>
      <trkpt lat="42.5155655108392238616943359375" lon="19.90516352467238903045654296875">
        <ele>1980.800048828125</ele>
        <time>2026-06-17T11:19:15.000Z</time>
        <extensions>
          <ns3:TrackPointExtension>
            <ns3:atemp>18.0</ns3:atemp>
          </ns3:TrackPointExtension>
        </extensions>
      </trkpt>
      <trkpt lat="42.5155655108392238616943359375" lon="19.90516352467238903045654296875">
        <ele>1980.800048828125</ele>
        <time>2026-06-17T11:19:16.000Z</time>
        <extensions>
          <ns3:TrackPointExtension>
            <ns3:atemp>18.0</ns3:atemp>
          </ns3:TrackPointExtension>
        </extensions>
      </trkpt>
      <trkpt lat="42.5155655108392238616943359375" lon="19.90516352467238903045654296875">
        <ele>1980.5999755859375</ele>
        <time>2026-06-17T11:19:17.000Z</time>
        <extensions>
          <ns3:TrackPointExtension>
            <ns3:atemp>18.0</ns3:atemp>
          </ns3:TrackPointExtension>
        </extensions>
      </trkpt>
      <trkpt lat="42.5155655108392238616943359375" lon="19.90516352467238903045654296875">
        <ele>1980.5999755859375</ele>
        <time>2026-06-17T11:19:18.000Z</time>
        <extensions>
          <ns3:TrackPointExtension>
            <ns3:atemp>18.0</ns3:atemp>
          </ns3:TrackPointExtension>
        </extensions>
      </trkpt>
      <trkpt lat="42.5155655108392238616943359375" lon="19.90516352467238903045654296875">
        <ele>1980.5999755859375</ele>
        <time>2026-06-17T11:19:19.000Z</time>
        <extensions>
          <ns3:TrackPointExtension>
            <ns3:atemp>18.0</ns3:atemp>
          </ns3:TrackPointExtension>
        </extensions>
      </trkpt>
      <trkpt lat="42.51556542702019214630126953125" lon="19.90516318939626216888427734375">
        <ele>1980.800048828125</ele>
        <time>2026-06-17T11:19:20.000Z</time>
        <extensions>
          <ns3:TrackPointExtension>
            <ns3:atemp>18.0</ns3:atemp>
          </ns3:TrackPointExtension>
        </extensions>
      </trkpt>
      <trkpt lat="42.51556224189698696136474609375" lon="19.90515924990177154541015625">
        <ele>1980.800048828125</ele>
        <time>2026-06-17T11:19:21.000Z</time>
        <extensions>
          <ns3:TrackPointExtension>
            <ns3:atemp>18.0</ns3:atemp>
          </ns3:TrackPointExtension>
        </extensions>
      </trkpt>
      <trkpt lat="42.5155655108392238616943359375" lon="19.90516352467238903045654296875">
        <ele>1980.800048828125</ele>
        <time>2026-06-17T11:19:22.000Z</time>
        <extensions>
          <ns3:TrackPointExtension>
            <ns3:atemp>18.0</ns3:atemp>
          </ns3:TrackPointExtension>
        </extensions>
      </trkpt>
      <trkpt lat="42.5155655108392238616943359375" lon="19.90516352467238903045654296875">
        <ele>1980.800048828125</ele>
        <time>2026-06-17T11:19:23.000Z</time>
        <extensions>
          <ns3:TrackPointExtension>
            <ns3:atemp>18.0</ns3:atemp>
          </ns3:TrackPointExtension>
        </extensions>
      </trkpt>
      <trkpt lat="42.51556106843054294586181640625" lon="19.90515832789242267608642578125">
        <ele>1980.800048828125</ele>
        <time>2026-06-17T11:19:24.000Z</time>
        <extensions>
          <ns3:TrackPointExtension>
            <ns3:atemp>18.0</ns3:atemp>
          </ns3:TrackPointExtension>
        </extensions>
      </trkpt>
      <trkpt lat="42.5155655108392238616943359375" lon="19.90516352467238903045654296875">
        <ele>1980.5999755859375</ele>
        <time>2026-06-17T11:19:25.000Z</time>
        <extensions>
          <ns3:TrackPointExtension>
            <ns3:atemp>18.0</ns3:atemp>
          </ns3:TrackPointExtension>
        </extensions>
      </trkpt>
      <trkpt lat="42.5155655108392238616943359375" lon="19.90516352467238903045654296875">
        <ele>1980.5999755859375</ele>
        <time>2026-06-17T11:19:26.000Z</time>
        <extensions>
          <ns3:TrackPointExtension>
            <ns3:atemp>18.0</ns3:atemp>
          </ns3:TrackPointExtension>
        </extensions>
      </trkpt>
      <trkpt lat="42.5155655108392238616943359375" lon="19.90516352467238903045654296875">
        <ele>1980.5999755859375</ele>
        <time>2026-06-17T11:19:27.000Z</time>
        <extensions>
          <ns3:TrackPointExtension>
            <ns3:atemp>18.0</ns3:atemp>
          </ns3:TrackPointExtension>
        </extensions>
      </trkpt>
      <trkpt lat="42.5155655108392238616943359375" lon="19.90516352467238903045654296875">
        <ele>1980.4000244140625</ele>
        <time>2026-06-17T11:19:28.000Z</time>
        <extensions>
          <ns3:TrackPointExtension>
            <ns3:atemp>18.0</ns3:atemp>
          </ns3:TrackPointExtension>
        </extensions>
      </trkpt>
      <trkpt lat="42.5155655108392238616943359375" lon="19.90516352467238903045654296875">
        <ele>1980.4000244140625</ele>
        <time>2026-06-17T11:19:29.000Z</time>
        <extensions>
          <ns3:TrackPointExtension>
            <ns3:atemp>18.0</ns3:atemp>
          </ns3:TrackPointExtension>
        </extensions>
      </trkpt>
      <trkpt lat="42.5155655108392238616943359375" lon="19.90516352467238903045654296875">
        <ele>1980.199951171875</ele>
        <time>2026-06-17T11:19:30.000Z</time>
        <extensions>
          <ns3:TrackPointExtension>
            <ns3:atemp>18.0</ns3:atemp>
          </ns3:TrackPointExtension>
        </extensions>
      </trkpt>
      <trkpt lat="42.5155655108392238616943359375" lon="19.90516352467238903045654296875">
        <ele>1980.199951171875</ele>
        <time>2026-06-17T11:19:31.000Z</time>
        <extensions>
          <ns3:TrackPointExtension>
            <ns3:atemp>18.0</ns3:atemp>
          </ns3:TrackPointExtension>
        </extensions>
      </trkpt>
      <trkpt lat="42.5155655108392238616943359375" lon="19.90516352467238903045654296875">
        <ele>1980.199951171875</ele>
        <time>2026-06-17T11:19:32.000Z</time>
        <extensions>
          <ns3:TrackPointExtension>
            <ns3:atemp>18.0</ns3:atemp>
          </ns3:TrackPointExtension>
        </extensions>
      </trkpt>
      <trkpt lat="42.5155655108392238616943359375" lon="19.90516352467238903045654296875">
        <ele>1980</ele>
        <time>2026-06-17T11:19:33.000Z</time>
        <extensions>
          <ns3:TrackPointExtension>
            <ns3:atemp>18.0</ns3:atemp>
          </ns3:TrackPointExtension>
        </extensions>
      </trkpt>
      <trkpt lat="42.5155655108392238616943359375" lon="19.90516352467238903045654296875">
        <ele>1980</ele>
        <time>2026-06-17T11:19:34.000Z</time>
        <extensions>
          <ns3:TrackPointExtension>
            <ns3:atemp>18.0</ns3:atemp>
          </ns3:TrackPointExtension>
        </extensions>
      </trkpt>
      <trkpt lat="42.5155655108392238616943359375" lon="19.90516352467238903045654296875">
        <ele>1980</ele>
        <time>2026-06-17T11:19:35.000Z</time>
        <extensions>
          <ns3:TrackPointExtension>
            <ns3:atemp>18.0</ns3:atemp>
          </ns3:TrackPointExtension>
        </extensions>
      </trkpt>
      <trkpt lat="42.5155655108392238616943359375" lon="19.90516352467238903045654296875">
        <ele>1980</ele>
        <time>2026-06-17T11:19:36.000Z</time>
        <extensions>
          <ns3:TrackPointExtension>
            <ns3:atemp>18.0</ns3:atemp>
          </ns3:TrackPointExtension>
        </extensions>
      </trkpt>
      <trkpt lat="42.5155655108392238616943359375" lon="19.90516352467238903045654296875">
        <ele>1980</ele>
        <time>2026-06-17T11:19:37.000Z</time>
        <extensions>
          <ns3:TrackPointExtension>
            <ns3:atemp>18.0</ns3:atemp>
          </ns3:TrackPointExtension>
        </extensions>
      </trkpt>
      <trkpt lat="42.5155655108392238616943359375" lon="19.90516352467238903045654296875">
        <ele>1980</ele>
        <time>2026-06-17T11:19:38.000Z</time>
        <extensions>
          <ns3:TrackPointExtension>
            <ns3:atemp>18.0</ns3:atemp>
          </ns3:TrackPointExtension>
        </extensions>
      </trkpt>
      <trkpt lat="42.5155655108392238616943359375" lon="19.90516352467238903045654296875">
        <ele>1980</ele>
        <time>2026-06-17T11:19:39.000Z</time>
        <extensions>
          <ns3:TrackPointExtension>
            <ns3:atemp>18.0</ns3:atemp>
          </ns3:TrackPointExtension>
        </extensions>
      </trkpt>
      <trkpt lat="42.5155655108392238616943359375" lon="19.90516352467238903045654296875">
        <ele>1980</ele>
        <time>2026-06-17T11:19:40.000Z</time>
        <extensions>
          <ns3:TrackPointExtension>
            <ns3:atemp>18.0</ns3:atemp>
          </ns3:TrackPointExtension>
        </extensions>
      </trkpt>
      <trkpt lat="42.5155655108392238616943359375" lon="19.90516352467238903045654296875">
        <ele>1980</ele>
        <time>2026-06-17T11:19:41.000Z</time>
        <extensions>
          <ns3:TrackPointExtension>
            <ns3:atemp>18.0</ns3:atemp>
          </ns3:TrackPointExtension>
        </extensions>
      </trkpt>
      <trkpt lat="42.5155655108392238616943359375" lon="19.90516352467238903045654296875">
        <ele>1980</ele>
        <time>2026-06-17T11:19:42.000Z</time>
        <extensions>
          <ns3:TrackPointExtension>
            <ns3:atemp>18.0</ns3:atemp>
          </ns3:TrackPointExtension>
        </extensions>
      </trkpt>
      <trkpt lat="42.5155655108392238616943359375" lon="19.90516352467238903045654296875">
        <ele>1980</ele>
        <time>2026-06-17T11:19:43.000Z</time>
        <extensions>
          <ns3:TrackPointExtension>
            <ns3:atemp>18.0</ns3:atemp>
          </ns3:TrackPointExtension>
        </extensions>
      </trkpt>
      <trkpt lat="42.5155655108392238616943359375" lon="19.90516352467238903045654296875">
        <ele>1980</ele>
        <time>2026-06-17T11:19:44.000Z</time>
        <extensions>
          <ns3:TrackPointExtension>
            <ns3:atemp>18.0</ns3:atemp>
          </ns3:TrackPointExtension>
        </extensions>
      </trkpt>
      <trkpt lat="42.5155655108392238616943359375" lon="19.90516352467238903045654296875">
        <ele>1980</ele>
        <time>2026-06-17T11:19:45.000Z</time>
        <extensions>
          <ns3:TrackPointExtension>
            <ns3:atemp>18.0</ns3:atemp>
          </ns3:TrackPointExtension>
        </extensions>
      </trkpt>
      <trkpt lat="42.5155655108392238616943359375" lon="19.90516352467238903045654296875">
        <ele>1980</ele>
        <time>2026-06-17T11:19:46.000Z</time>
        <extensions>
          <ns3:TrackPointExtension>
            <ns3:atemp>18.0</ns3:atemp>
          </ns3:TrackPointExtension>
        </extensions>
      </trkpt>
      <trkpt lat="42.5155655108392238616943359375" lon="19.90516352467238903045654296875">
        <ele>1980.199951171875</ele>
        <time>2026-06-17T11:19:47.000Z</time>
        <extensions>
          <ns3:TrackPointExtension>
            <ns3:atemp>18.0</ns3:atemp>
          </ns3:TrackPointExtension>
        </extensions>
      </trkpt>
      <trkpt lat="42.5155655108392238616943359375" lon="19.90516352467238903045654296875">
        <ele>1980.199951171875</ele>
        <time>2026-06-17T11:19:48.000Z</time>
        <extensions>
          <ns3:TrackPointExtension>
            <ns3:atemp>18.0</ns3:atemp>
          </ns3:TrackPointExtension>
        </extensions>
      </trkpt>
      <trkpt lat="42.5155655108392238616943359375" lon="19.90516352467238903045654296875">
        <ele>1980.199951171875</ele>
        <time>2026-06-17T11:19:49.000Z</time>
        <extensions>
          <ns3:TrackPointExtension>
            <ns3:atemp>18.0</ns3:atemp>
          </ns3:TrackPointExtension>
        </extensions>
      </trkpt>
      <trkpt lat="42.5155655108392238616943359375" lon="19.90516352467238903045654296875">
        <ele>1980.199951171875</ele>
        <time>2026-06-17T11:19:50.000Z</time>
        <extensions>
          <ns3:TrackPointExtension>
            <ns3:atemp>18.0</ns3:atemp>
          </ns3:TrackPointExtension>
        </extensions>
      </trkpt>
      <trkpt lat="42.5155655108392238616943359375" lon="19.90516352467238903045654296875">
        <ele>1980.199951171875</ele>
        <time>2026-06-17T11:19:51.000Z</time>
        <extensions>
          <ns3:TrackPointExtension>
            <ns3:atemp>18.0</ns3:atemp>
          </ns3:TrackPointExtension>
        </extensions>
      </trkpt>
      <trkpt lat="42.5155655108392238616943359375" lon="19.90516352467238903045654296875">
        <ele>1980.199951171875</ele>
        <time>2026-06-17T11:19:52.000Z</time>
        <extensions>
          <ns3:TrackPointExtension>
            <ns3:atemp>18.0</ns3:atemp>
          </ns3:TrackPointExtension>
        </extensions>
      </trkpt>
      <trkpt lat="42.5155655108392238616943359375" lon="19.90516352467238903045654296875">
        <ele>1980.199951171875</ele>
        <time>2026-06-17T11:19:53.000Z</time>
        <extensions>
          <ns3:TrackPointExtension>
            <ns3:atemp>18.0</ns3:atemp>
          </ns3:TrackPointExtension>
        </extensions>
      </trkpt>
      <trkpt lat="42.5155655108392238616943359375" lon="19.90516352467238903045654296875">
        <ele>1980.199951171875</ele>
        <time>2026-06-17T11:19:54.000Z</time>
        <extensions>
          <ns3:TrackPointExtension>
            <ns3:atemp>18.0</ns3:atemp>
          </ns3:TrackPointExtension>
        </extensions>
      </trkpt>
      <trkpt lat="42.5155655108392238616943359375" lon="19.90516352467238903045654296875">
        <ele>1980.199951171875</ele>
        <time>2026-06-17T11:19:55.000Z</time>
        <extensions>
          <ns3:TrackPointExtension>
            <ns3:atemp>18.0</ns3:atemp>
          </ns3:TrackPointExtension>
        </extensions>
      </trkpt>
      <trkpt lat="42.5155655108392238616943359375" lon="19.90516352467238903045654296875">
        <ele>1980</ele>
        <time>2026-06-17T11:19:56.000Z</time>
        <extensions>
          <ns3:TrackPointExtension>
            <ns3:atemp>18.0</ns3:atemp>
          </ns3:TrackPointExtension>
        </extensions>
      </trkpt>
      <trkpt lat="42.5155655108392238616943359375" lon="19.90516352467238903045654296875">
        <ele>1980</ele>
        <time>2026-06-17T11:19:57.000Z</time>
        <extensions>
          <ns3:TrackPointExtension>
            <ns3:atemp>18.0</ns3:atemp>
          </ns3:TrackPointExtension>
        </extensions>
      </trkpt>
      <trkpt lat="42.5155655108392238616943359375" lon="19.90516352467238903045654296875">
        <ele>1980</ele>
        <time>2026-06-17T11:19:58.000Z</time>
        <extensions>
          <ns3:TrackPointExtension>
            <ns3:atemp>18.0</ns3:atemp>
          </ns3:TrackPointExtension>
        </extensions>
      </trkpt>
      <trkpt lat="42.5155655108392238616943359375" lon="19.90516352467238903045654296875">
        <ele>1980</ele>
        <time>2026-06-17T11:19:59.000Z</time>
        <extensions>
          <ns3:TrackPointExtension>
            <ns3:atemp>18.0</ns3:atemp>
          </ns3:TrackPointExtension>
        </extensions>
      </trkpt>
      <trkpt lat="42.5155655108392238616943359375" lon="19.90516352467238903045654296875">
        <ele>1980</ele>
        <time>2026-06-17T11:20:00.000Z</time>
        <extensions>
          <ns3:TrackPointExtension>
            <ns3:atemp>18.0</ns3:atemp>
          </ns3:TrackPointExtension>
        </extensions>
      </trkpt>
      <trkpt lat="42.5155655108392238616943359375" lon="19.90516352467238903045654296875">
        <ele>1980.199951171875</ele>
        <time>2026-06-17T11:20:01.000Z</time>
        <extensions>
          <ns3:TrackPointExtension>
            <ns3:atemp>18.0</ns3:atemp>
          </ns3:TrackPointExtension>
        </extensions>
      </trkpt>
      <trkpt lat="42.5155655108392238616943359375" lon="19.90516352467238903045654296875">
        <ele>1980.199951171875</ele>
        <time>2026-06-17T11:20:02.000Z</time>
        <extensions>
          <ns3:TrackPointExtension>
            <ns3:atemp>18.0</ns3:atemp>
          </ns3:TrackPointExtension>
        </extensions>
      </trkpt>
      <trkpt lat="42.5155655108392238616943359375" lon="19.90516352467238903045654296875">
        <ele>1980.199951171875</ele>
        <time>2026-06-17T11:20:03.000Z</time>
        <extensions>
          <ns3:TrackPointExtension>
            <ns3:atemp>18.0</ns3:atemp>
          </ns3:TrackPointExtension>
        </extensions>
      </trkpt>
      <trkpt lat="42.5155655108392238616943359375" lon="19.90516352467238903045654296875">
        <ele>1980.199951171875</ele>
        <time>2026-06-17T11:20:04.000Z</time>
        <extensions>
          <ns3:TrackPointExtension>
            <ns3:atemp>18.0</ns3:atemp>
          </ns3:TrackPointExtension>
        </extensions>
      </trkpt>
      <trkpt lat="42.5155655108392238616943359375" lon="19.90516352467238903045654296875">
        <ele>1980.199951171875</ele>
        <time>2026-06-17T11:20:05.000Z</time>
        <extensions>
          <ns3:TrackPointExtension>
            <ns3:atemp>18.0</ns3:atemp>
          </ns3:TrackPointExtension>
        </extensions>
      </trkpt>
      <trkpt lat="42.5155655108392238616943359375" lon="19.90516352467238903045654296875">
        <ele>1980.199951171875</ele>
        <time>2026-06-17T11:20:06.000Z</time>
        <extensions>
          <ns3:TrackPointExtension>
            <ns3:atemp>18.0</ns3:atemp>
          </ns3:TrackPointExtension>
        </extensions>
      </trkpt>
      <trkpt lat="42.5155655108392238616943359375" lon="19.90516352467238903045654296875">
        <ele>1980.199951171875</ele>
        <time>2026-06-17T11:20:07.000Z</time>
        <extensions>
          <ns3:TrackPointExtension>
            <ns3:atemp>18.0</ns3:atemp>
          </ns3:TrackPointExtension>
        </extensions>
      </trkpt>
      <trkpt lat="42.5155655108392238616943359375" lon="19.90516352467238903045654296875">
        <ele>1980.199951171875</ele>
        <time>2026-06-17T11:20:08.000Z</time>
        <extensions>
          <ns3:TrackPointExtension>
            <ns3:atemp>18.0</ns3:atemp>
          </ns3:TrackPointExtension>
        </extensions>
      </trkpt>
      <trkpt lat="42.5155655108392238616943359375" lon="19.90516352467238903045654296875">
        <ele>1980.199951171875</ele>
        <time>2026-06-17T11:20:09.000Z</time>
        <extensions>
          <ns3:TrackPointExtension>
            <ns3:atemp>18.0</ns3:atemp>
          </ns3:TrackPointExtension>
        </extensions>
      </trkpt>
      <trkpt lat="42.5155655108392238616943359375" lon="19.90516352467238903045654296875">
        <ele>1980.199951171875</ele>
        <time>2026-06-17T11:20:10.000Z</time>
        <extensions>
          <ns3:TrackPointExtension>
            <ns3:atemp>18.0</ns3:atemp>
          </ns3:TrackPointExtension>
        </extensions>
      </trkpt>
      <trkpt lat="42.5155655108392238616943359375" lon="19.90516352467238903045654296875">
        <ele>1980.199951171875</ele>
        <time>2026-06-17T11:20:11.000Z</time>
        <extensions>
          <ns3:TrackPointExtension>
            <ns3:atemp>18.0</ns3:atemp>
          </ns3:TrackPointExtension>
        </extensions>
      </trkpt>
      <trkpt lat="42.5155655108392238616943359375" lon="19.90516352467238903045654296875">
        <ele>1980.199951171875</ele>
        <time>2026-06-17T11:20:12.000Z</time>
        <extensions>
          <ns3:TrackPointExtension>
            <ns3:atemp>18.0</ns3:atemp>
          </ns3:TrackPointExtension>
        </extensions>
      </trkpt>
      <trkpt lat="42.5155655108392238616943359375" lon="19.90516352467238903045654296875">
        <ele>1980.199951171875</ele>
        <time>2026-06-17T11:20:13.000Z</time>
        <extensions>
          <ns3:TrackPointExtension>
            <ns3:atemp>18.0</ns3:atemp>
          </ns3:TrackPointExtension>
        </extensions>
      </trkpt>
      <trkpt lat="42.5155655108392238616943359375" lon="19.90516352467238903045654296875">
        <ele>1980.199951171875</ele>
        <time>2026-06-17T11:20:14.000Z</time>
        <extensions>
          <ns3:TrackPointExtension>
            <ns3:atemp>18.0</ns3:atemp>
          </ns3:TrackPointExtension>
        </extensions>
      </trkpt>
      <trkpt lat="42.5155655108392238616943359375" lon="19.90516352467238903045654296875">
        <ele>1980.199951171875</ele>
        <time>2026-06-17T11:20:15.000Z</time>
        <extensions>
          <ns3:TrackPointExtension>
            <ns3:atemp>18.0</ns3:atemp>
          </ns3:TrackPointExtension>
        </extensions>
      </trkpt>
      <trkpt lat="42.5155655108392238616943359375" lon="19.90516352467238903045654296875">
        <ele>1980.199951171875</ele>
        <time>2026-06-17T11:20:16.000Z</time>
        <extensions>
          <ns3:TrackPointExtension>
            <ns3:atemp>18.0</ns3:atemp>
          </ns3:TrackPointExtension>
        </extensions>
      </trkpt>
      <trkpt lat="42.5155655108392238616943359375" lon="19.90516352467238903045654296875">
        <ele>1980.199951171875</ele>
        <time>2026-06-17T11:20:17.000Z</time>
        <extensions>
          <ns3:TrackPointExtension>
            <ns3:atemp>18.0</ns3:atemp>
          </ns3:TrackPointExtension>
        </extensions>
      </trkpt>
      <trkpt lat="42.5155655108392238616943359375" lon="19.90516352467238903045654296875">
        <ele>1980.199951171875</ele>
        <time>2026-06-17T11:20:18.000Z</time>
        <extensions>
          <ns3:TrackPointExtension>
            <ns3:atemp>18.0</ns3:atemp>
          </ns3:TrackPointExtension>
        </extensions>
      </trkpt>
      <trkpt lat="42.5155655108392238616943359375" lon="19.90516352467238903045654296875">
        <ele>1980.199951171875</ele>
        <time>2026-06-17T11:20:19.000Z</time>
        <extensions>
          <ns3:TrackPointExtension>
            <ns3:atemp>18.0</ns3:atemp>
          </ns3:TrackPointExtension>
        </extensions>
      </trkpt>
      <trkpt lat="42.5155655108392238616943359375" lon="19.90516352467238903045654296875">
        <ele>1980.199951171875</ele>
        <time>2026-06-17T11:20:20.000Z</time>
        <extensions>
          <ns3:TrackPointExtension>
            <ns3:atemp>18.0</ns3:atemp>
          </ns3:TrackPointExtension>
        </extensions>
      </trkpt>
      <trkpt lat="42.5155655108392238616943359375" lon="19.90516352467238903045654296875">
        <ele>1980.199951171875</ele>
        <time>2026-06-17T11:20:21.000Z</time>
        <extensions>
          <ns3:TrackPointExtension>
            <ns3:atemp>18.0</ns3:atemp>
          </ns3:TrackPointExtension>
        </extensions>
      </trkpt>
      <trkpt lat="42.5155655108392238616943359375" lon="19.90516352467238903045654296875">
        <ele>1980.199951171875</ele>
        <time>2026-06-17T11:20:22.000Z</time>
        <extensions>
          <ns3:TrackPointExtension>
            <ns3:atemp>18.0</ns3:atemp>
          </ns3:TrackPointExtension>
        </extensions>
      </trkpt>
      <trkpt lat="42.5155655108392238616943359375" lon="19.90516352467238903045654296875">
        <ele>1980.199951171875</ele>
        <time>2026-06-17T11:20:23.000Z</time>
        <extensions>
          <ns3:TrackPointExtension>
            <ns3:atemp>18.0</ns3:atemp>
          </ns3:TrackPointExtension>
        </extensions>
      </trkpt>
      <trkpt lat="42.5155655108392238616943359375" lon="19.90516352467238903045654296875">
        <ele>1980.199951171875</ele>
        <time>2026-06-17T11:20:24.000Z</time>
        <extensions>
          <ns3:TrackPointExtension>
            <ns3:atemp>18.0</ns3:atemp>
          </ns3:TrackPointExtension>
        </extensions>
      </trkpt>
      <trkpt lat="42.5155655108392238616943359375" lon="19.90516352467238903045654296875">
        <ele>1980.199951171875</ele>
        <time>2026-06-17T11:20:25.000Z</time>
        <extensions>
          <ns3:TrackPointExtension>
            <ns3:atemp>18.0</ns3:atemp>
          </ns3:TrackPointExtension>
        </extensions>
      </trkpt>
      <trkpt lat="42.5155655108392238616943359375" lon="19.90516352467238903045654296875">
        <ele>1980.199951171875</ele>
        <time>2026-06-17T11:20:26.000Z</time>
        <extensions>
          <ns3:TrackPointExtension>
            <ns3:atemp>18.0</ns3:atemp>
          </ns3:TrackPointExtension>
        </extensions>
      </trkpt>
      <trkpt lat="42.5155655108392238616943359375" lon="19.90516352467238903045654296875">
        <ele>1980.199951171875</ele>
        <time>2026-06-17T11:20:27.000Z</time>
        <extensions>
          <ns3:TrackPointExtension>
            <ns3:atemp>18.0</ns3:atemp>
          </ns3:TrackPointExtension>
        </extensions>
      </trkpt>
      <trkpt lat="42.5155655108392238616943359375" lon="19.90516352467238903045654296875">
        <ele>1980.199951171875</ele>
        <time>2026-06-17T11:20:28.000Z</time>
        <extensions>
          <ns3:TrackPointExtension>
            <ns3:atemp>18.0</ns3:atemp>
          </ns3:TrackPointExtension>
        </extensions>
      </trkpt>
      <trkpt lat="42.5155655108392238616943359375" lon="19.90516352467238903045654296875">
        <ele>1980.199951171875</ele>
        <time>2026-06-17T11:20:29.000Z</time>
        <extensions>
          <ns3:TrackPointExtension>
            <ns3:atemp>18.0</ns3:atemp>
          </ns3:TrackPointExtension>
        </extensions>
      </trkpt>
      <trkpt lat="42.5155655108392238616943359375" lon="19.90516352467238903045654296875">
        <ele>1980.4000244140625</ele>
        <time>2026-06-17T11:20:30.000Z</time>
        <extensions>
          <ns3:TrackPointExtension>
            <ns3:atemp>18.0</ns3:atemp>
          </ns3:TrackPointExtension>
        </extensions>
      </trkpt>
      <trkpt lat="42.5155655108392238616943359375" lon="19.90516352467238903045654296875">
        <ele>1980.4000244140625</ele>
        <time>2026-06-17T11:20:31.000Z</time>
        <extensions>
          <ns3:TrackPointExtension>
            <ns3:atemp>18.0</ns3:atemp>
          </ns3:TrackPointExtension>
        </extensions>
      </trkpt>
      <trkpt lat="42.5155655108392238616943359375" lon="19.90516352467238903045654296875">
        <ele>1980.4000244140625</ele>
        <time>2026-06-17T11:20:32.000Z</time>
        <extensions>
          <ns3:TrackPointExtension>
            <ns3:atemp>18.0</ns3:atemp>
          </ns3:TrackPointExtension>
        </extensions>
      </trkpt>
      <trkpt lat="42.5155655108392238616943359375" lon="19.90516352467238903045654296875">
        <ele>1980.4000244140625</ele>
        <time>2026-06-17T11:20:33.000Z</time>
        <extensions>
          <ns3:TrackPointExtension>
            <ns3:atemp>18.0</ns3:atemp>
          </ns3:TrackPointExtension>
        </extensions>
      </trkpt>
      <trkpt lat="42.5155655108392238616943359375" lon="19.90516352467238903045654296875">
        <ele>1980.4000244140625</ele>
        <time>2026-06-17T11:20:34.000Z</time>
        <extensions>
          <ns3:TrackPointExtension>
            <ns3:atemp>18.0</ns3:atemp>
          </ns3:TrackPointExtension>
        </extensions>
      </trkpt>
      <trkpt lat="42.5155655108392238616943359375" lon="19.90516352467238903045654296875">
        <ele>1980.4000244140625</ele>
        <time>2026-06-17T11:20:35.000Z</time>
        <extensions>
          <ns3:TrackPointExtension>
            <ns3:atemp>18.0</ns3:atemp>
          </ns3:TrackPointExtension>
        </extensions>
      </trkpt>
      <trkpt lat="42.5155655108392238616943359375" lon="19.90516352467238903045654296875">
        <ele>1980.199951171875</ele>
        <time>2026-06-17T11:20:36.000Z</time>
        <extensions>
          <ns3:TrackPointExtension>
            <ns3:atemp>18.0</ns3:atemp>
          </ns3:TrackPointExtension>
        </extensions>
      </trkpt>
      <trkpt lat="42.5155655108392238616943359375" lon="19.90516352467238903045654296875">
        <ele>1980.199951171875</ele>
        <time>2026-06-17T11:20:37.000Z</time>
        <extensions>
          <ns3:TrackPointExtension>
            <ns3:atemp>18.0</ns3:atemp>
          </ns3:TrackPointExtension>
        </extensions>
      </trkpt>
      <trkpt lat="42.5155655108392238616943359375" lon="19.90516352467238903045654296875">
        <ele>1980.4000244140625</ele>
        <time>2026-06-17T11:20:38.000Z</time>
        <extensions>
          <ns3:TrackPointExtension>
            <ns3:atemp>18.0</ns3:atemp>
          </ns3:TrackPointExtension>
        </extensions>
      </trkpt>
      <trkpt lat="42.5155655108392238616943359375" lon="19.90516352467238903045654296875">
        <ele>1980.199951171875</ele>
        <time>2026-06-17T11:20:39.000Z</time>
        <extensions>
          <ns3:TrackPointExtension>
            <ns3:atemp>18.0</ns3:atemp>
          </ns3:TrackPointExtension>
        </extensions>
      </trkpt>
      <trkpt lat="42.5155655108392238616943359375" lon="19.90516352467238903045654296875">
        <ele>1980.199951171875</ele>
        <time>2026-06-17T11:20:40.000Z</time>
        <extensions>
          <ns3:TrackPointExtension>
            <ns3:atemp>18.0</ns3:atemp>
          </ns3:TrackPointExtension>
        </extensions>
      </trkpt>
      <trkpt lat="42.5155655108392238616943359375" lon="19.90516352467238903045654296875">
        <ele>1980.199951171875</ele>
        <time>2026-06-17T11:20:41.000Z</time>
        <extensions>
          <ns3:TrackPointExtension>
            <ns3:atemp>18.0</ns3:atemp>
          </ns3:TrackPointExtension>
        </extensions>
      </trkpt>
      <trkpt lat="42.5155655108392238616943359375" lon="19.90516352467238903045654296875">
        <ele>1980.199951171875</ele>
        <time>2026-06-17T11:20:42.000Z</time>
        <extensions>
          <ns3:TrackPointExtension>
            <ns3:atemp>18.0</ns3:atemp>
          </ns3:TrackPointExtension>
        </extensions>
      </trkpt>
      <trkpt lat="42.5155655108392238616943359375" lon="19.90516352467238903045654296875">
        <ele>1980.199951171875</ele>
        <time>2026-06-17T11:20:43.000Z</time>
        <extensions>
          <ns3:TrackPointExtension>
            <ns3:atemp>18.0</ns3:atemp>
          </ns3:TrackPointExtension>
        </extensions>
      </trkpt>
      <trkpt lat="42.5155655108392238616943359375" lon="19.90516352467238903045654296875">
        <ele>1980.199951171875</ele>
        <time>2026-06-17T11:20:44.000Z</time>
        <extensions>
          <ns3:TrackPointExtension>
            <ns3:atemp>18.0</ns3:atemp>
          </ns3:TrackPointExtension>
        </extensions>
      </trkpt>
      <trkpt lat="42.5155655108392238616943359375" lon="19.90516352467238903045654296875">
        <ele>1980.199951171875</ele>
        <time>2026-06-17T11:20:45.000Z</time>
        <extensions>
          <ns3:TrackPointExtension>
            <ns3:atemp>18.0</ns3:atemp>
          </ns3:TrackPointExtension>
        </extensions>
      </trkpt>
      <trkpt lat="42.5155655108392238616943359375" lon="19.90516352467238903045654296875">
        <ele>1980.199951171875</ele>
        <time>2026-06-17T11:20:46.000Z</time>
        <extensions>
          <ns3:TrackPointExtension>
            <ns3:atemp>18.0</ns3:atemp>
          </ns3:TrackPointExtension>
        </extensions>
      </trkpt>
      <trkpt lat="42.5155655108392238616943359375" lon="19.90516352467238903045654296875">
        <ele>1980.199951171875</ele>
        <time>2026-06-17T11:20:47.000Z</time>
        <extensions>
          <ns3:TrackPointExtension>
            <ns3:atemp>18.0</ns3:atemp>
          </ns3:TrackPointExtension>
        </extensions>
      </trkpt>
      <trkpt lat="42.5155655108392238616943359375" lon="19.90516352467238903045654296875">
        <ele>1980.199951171875</ele>
        <time>2026-06-17T11:20:48.000Z</time>
        <extensions>
          <ns3:TrackPointExtension>
            <ns3:atemp>18.0</ns3:atemp>
          </ns3:TrackPointExtension>
        </extensions>
      </trkpt>
      <trkpt lat="42.5155655108392238616943359375" lon="19.90516352467238903045654296875">
        <ele>1980.199951171875</ele>
        <time>2026-06-17T11:20:49.000Z</time>
        <extensions>
          <ns3:TrackPointExtension>
            <ns3:atemp>18.0</ns3:atemp>
          </ns3:TrackPointExtension>
        </extensions>
      </trkpt>
      <trkpt lat="42.5155655108392238616943359375" lon="19.90516352467238903045654296875">
        <ele>1980.199951171875</ele>
        <time>2026-06-17T11:20:50.000Z</time>
        <extensions>
          <ns3:TrackPointExtension>
            <ns3:atemp>17.0</ns3:atemp>
          </ns3:TrackPointExtension>
        </extensions>
      </trkpt>
      <trkpt lat="42.5155655108392238616943359375" lon="19.90516352467238903045654296875">
        <ele>1980.199951171875</ele>
        <time>2026-06-17T11:20:51.000Z</time>
        <extensions>
          <ns3:TrackPointExtension>
            <ns3:atemp>18.0</ns3:atemp>
          </ns3:TrackPointExtension>
        </extensions>
      </trkpt>
      <trkpt lat="42.5155655108392238616943359375" lon="19.90516352467238903045654296875">
        <ele>1980.199951171875</ele>
        <time>2026-06-17T11:20:52.000Z</time>
        <extensions>
          <ns3:TrackPointExtension>
            <ns3:atemp>17.0</ns3:atemp>
          </ns3:TrackPointExtension>
        </extensions>
      </trkpt>
      <trkpt lat="42.5155655108392238616943359375" lon="19.90516352467238903045654296875">
        <ele>1980.199951171875</ele>
        <time>2026-06-17T11:20:53.000Z</time>
        <extensions>
          <ns3:TrackPointExtension>
            <ns3:atemp>18.0</ns3:atemp>
          </ns3:TrackPointExtension>
        </extensions>
      </trkpt>
      <trkpt lat="42.5155655108392238616943359375" lon="19.90516352467238903045654296875">
        <ele>1980.199951171875</ele>
        <time>2026-06-17T11:20:54.000Z</time>
        <extensions>
          <ns3:TrackPointExtension>
            <ns3:atemp>18.0</ns3:atemp>
          </ns3:TrackPointExtension>
        </extensions>
      </trkpt>
      <trkpt lat="42.5155655108392238616943359375" lon="19.90516352467238903045654296875">
        <ele>1980.199951171875</ele>
        <time>2026-06-17T11:20:55.000Z</time>
        <extensions>
          <ns3:TrackPointExtension>
            <ns3:atemp>18.0</ns3:atemp>
          </ns3:TrackPointExtension>
        </extensions>
      </trkpt>
      <trkpt lat="42.5155655108392238616943359375" lon="19.90516352467238903045654296875">
        <ele>1980.199951171875</ele>
        <time>2026-06-17T11:20:56.000Z</time>
        <extensions>
          <ns3:TrackPointExtension>
            <ns3:atemp>18.0</ns3:atemp>
          </ns3:TrackPointExtension>
        </extensions>
      </trkpt>
      <trkpt lat="42.5155655108392238616943359375" lon="19.90516352467238903045654296875">
        <ele>1980.199951171875</ele>
        <time>2026-06-17T11:20:57.000Z</time>
        <extensions>
          <ns3:TrackPointExtension>
            <ns3:atemp>18.0</ns3:atemp>
          </ns3:TrackPointExtension>
        </extensions>
      </trkpt>
      <trkpt lat="42.5155655108392238616943359375" lon="19.90516352467238903045654296875">
        <ele>1980.199951171875</ele>
        <time>2026-06-17T11:20:58.000Z</time>
        <extensions>
          <ns3:TrackPointExtension>
            <ns3:atemp>18.0</ns3:atemp>
          </ns3:TrackPointExtension>
        </extensions>
      </trkpt>
      <trkpt lat="42.5155655108392238616943359375" lon="19.90516352467238903045654296875">
        <ele>1980.199951171875</ele>
        <time>2026-06-17T11:20:59.000Z</time>
        <extensions>
          <ns3:TrackPointExtension>
            <ns3:atemp>18.0</ns3:atemp>
          </ns3:TrackPointExtension>
        </extensions>
      </trkpt>
      <trkpt lat="42.5155655108392238616943359375" lon="19.90516352467238903045654296875">
        <ele>1980.199951171875</ele>
        <time>2026-06-17T11:21:00.000Z</time>
        <extensions>
          <ns3:TrackPointExtension>
            <ns3:atemp>18.0</ns3:atemp>
          </ns3:TrackPointExtension>
        </extensions>
      </trkpt>
      <trkpt lat="42.5155655108392238616943359375" lon="19.90516352467238903045654296875">
        <ele>1980.199951171875</ele>
        <time>2026-06-17T11:21:01.000Z</time>
        <extensions>
          <ns3:TrackPointExtension>
            <ns3:atemp>18.0</ns3:atemp>
          </ns3:TrackPointExtension>
        </extensions>
      </trkpt>
      <trkpt lat="42.5155655108392238616943359375" lon="19.90516352467238903045654296875">
        <ele>1980.4000244140625</ele>
        <time>2026-06-17T11:21:02.000Z</time>
        <extensions>
          <ns3:TrackPointExtension>
            <ns3:atemp>18.0</ns3:atemp>
          </ns3:TrackPointExtension>
        </extensions>
      </trkpt>
      <trkpt lat="42.5155655108392238616943359375" lon="19.90516352467238903045654296875">
        <ele>1980.4000244140625</ele>
        <time>2026-06-17T11:21:03.000Z</time>
        <extensions>
          <ns3:TrackPointExtension>
            <ns3:atemp>18.0</ns3:atemp>
          </ns3:TrackPointExtension>
        </extensions>
      </trkpt>
      <trkpt lat="42.5155655108392238616943359375" lon="19.90516352467238903045654296875">
        <ele>1980.4000244140625</ele>
        <time>2026-06-17T11:21:04.000Z</time>
        <extensions>
          <ns3:TrackPointExtension>
            <ns3:atemp>18.0</ns3:atemp>
          </ns3:TrackPointExtension>
        </extensions>
      </trkpt>
      <trkpt lat="42.5155655108392238616943359375" lon="19.90516352467238903045654296875">
        <ele>1980.4000244140625</ele>
        <time>2026-06-17T11:21:05.000Z</time>
        <extensions>
          <ns3:TrackPointExtension>
            <ns3:atemp>18.0</ns3:atemp>
          </ns3:TrackPointExtension>
        </extensions>
      </trkpt>
      <trkpt lat="42.5155655108392238616943359375" lon="19.90516352467238903045654296875">
        <ele>1980.4000244140625</ele>
        <time>2026-06-17T11:21:06.000Z</time>
        <extensions>
          <ns3:TrackPointExtension>
            <ns3:atemp>18.0</ns3:atemp>
          </ns3:TrackPointExtension>
        </extensions>
      </trkpt>
      <trkpt lat="42.5155655108392238616943359375" lon="19.90516352467238903045654296875">
        <ele>1980.4000244140625</ele>
        <time>2026-06-17T11:21:07.000Z</time>
        <extensions>
          <ns3:TrackPointExtension>
            <ns3:atemp>17.0</ns3:atemp>
          </ns3:TrackPointExtension>
        </extensions>
      </trkpt>
      <trkpt lat="42.5155655108392238616943359375" lon="19.90516352467238903045654296875">
        <ele>1980.4000244140625</ele>
        <time>2026-06-17T11:21:08.000Z</time>
        <extensions>
          <ns3:TrackPointExtension>
            <ns3:atemp>18.0</ns3:atemp>
          </ns3:TrackPointExtension>
        </extensions>
      </trkpt>
      <trkpt lat="42.5155655108392238616943359375" lon="19.90516352467238903045654296875">
        <ele>1980.4000244140625</ele>
        <time>2026-06-17T11:21:09.000Z</time>
        <extensions>
          <ns3:TrackPointExtension>
            <ns3:atemp>18.0</ns3:atemp>
          </ns3:TrackPointExtension>
        </extensions>
      </trkpt>
      <trkpt lat="42.5155655108392238616943359375" lon="19.90516352467238903045654296875">
        <ele>1980.4000244140625</ele>
        <time>2026-06-17T11:21:10.000Z</time>
        <extensions>
          <ns3:TrackPointExtension>
            <ns3:atemp>18.0</ns3:atemp>
          </ns3:TrackPointExtension>
        </extensions>
      </trkpt>
      <trkpt lat="42.5155655108392238616943359375" lon="19.90516352467238903045654296875">
        <ele>1980.4000244140625</ele>
        <time>2026-06-17T11:21:11.000Z</time>
        <extensions>
          <ns3:TrackPointExtension>
            <ns3:atemp>17.0</ns3:atemp>
          </ns3:TrackPointExtension>
        </extensions>
      </trkpt>
      <trkpt lat="42.5155655108392238616943359375" lon="19.90516352467238903045654296875">
        <ele>1980.4000244140625</ele>
        <time>2026-06-17T11:21:12.000Z</time>
        <extensions>
          <ns3:TrackPointExtension>
            <ns3:atemp>17.0</ns3:atemp>
          </ns3:TrackPointExtension>
        </extensions>
      </trkpt>
      <trkpt lat="42.5155655108392238616943359375" lon="19.90516352467238903045654296875">
        <ele>1980.4000244140625</ele>
        <time>2026-06-17T11:21:13.000Z</time>
        <extensions>
          <ns3:TrackPointExtension>
            <ns3:atemp>17.0</ns3:atemp>
          </ns3:TrackPointExtension>
        </extensions>
      </trkpt>
      <trkpt lat="42.5155655108392238616943359375" lon="19.90516352467238903045654296875">
        <ele>1980.4000244140625</ele>
        <time>2026-06-17T11:21:14.000Z</time>
        <extensions>
          <ns3:TrackPointExtension>
            <ns3:atemp>17.0</ns3:atemp>
          </ns3:TrackPointExtension>
        </extensions>
      </trkpt>
      <trkpt lat="42.5155655108392238616943359375" lon="19.90516352467238903045654296875">
        <ele>1980.4000244140625</ele>
        <time>2026-06-17T11:21:15.000Z</time>
        <extensions>
          <ns3:TrackPointExtension>
            <ns3:atemp>17.0</ns3:atemp>
          </ns3:TrackPointExtension>
        </extensions>
      </trkpt>
      <trkpt lat="42.5155655108392238616943359375" lon="19.90516352467238903045654296875">
        <ele>1980.4000244140625</ele>
        <time>2026-06-17T11:21:16.000Z</time>
        <extensions>
          <ns3:TrackPointExtension>
            <ns3:atemp>18.0</ns3:atemp>
          </ns3:TrackPointExtension>
        </extensions>
      </trkpt>
      <trkpt lat="42.5155655108392238616943359375" lon="19.90516352467238903045654296875">
        <ele>1980.4000244140625</ele>
        <time>2026-06-17T11:21:17.000Z</time>
        <extensions>
          <ns3:TrackPointExtension>
            <ns3:atemp>18.0</ns3:atemp>
          </ns3:TrackPointExtension>
        </extensions>
      </trkpt>
      <trkpt lat="42.5155655108392238616943359375" lon="19.90516352467238903045654296875">
        <ele>1980.4000244140625</ele>
        <time>2026-06-17T11:21:18.000Z</time>
        <extensions>
          <ns3:TrackPointExtension>
            <ns3:atemp>18.0</ns3:atemp>
          </ns3:TrackPointExtension>
        </extensions>
      </trkpt>
      <trkpt lat="42.5155655108392238616943359375" lon="19.90516352467238903045654296875">
        <ele>1980.4000244140625</ele>
        <time>2026-06-17T11:21:19.000Z</time>
        <extensions>
          <ns3:TrackPointExtension>
            <ns3:atemp>18.0</ns3:atemp>
          </ns3:TrackPointExtension>
        </extensions>
      </trkpt>
      <trkpt lat="42.5155655108392238616943359375" lon="19.90516352467238903045654296875">
        <ele>1980.4000244140625</ele>
        <time>2026-06-17T11:21:20.000Z</time>
        <extensions>
          <ns3:TrackPointExtension>
            <ns3:atemp>18.0</ns3:atemp>
          </ns3:TrackPointExtension>
        </extensions>
      </trkpt>
      <trkpt lat="42.5155655108392238616943359375" lon="19.90516352467238903045654296875">
        <ele>1980.4000244140625</ele>
        <time>2026-06-17T11:21:21.000Z</time>
        <extensions>
          <ns3:TrackPointExtension>
            <ns3:atemp>17.0</ns3:atemp>
          </ns3:TrackPointExtension>
        </extensions>
      </trkpt>
      <trkpt lat="42.5155655108392238616943359375" lon="19.90516352467238903045654296875">
        <ele>1980.4000244140625</ele>
        <time>2026-06-17T11:21:22.000Z</time>
        <extensions>
          <ns3:TrackPointExtension>
            <ns3:atemp>17.0</ns3:atemp>
          </ns3:TrackPointExtension>
        </extensions>
      </trkpt>
      <trkpt lat="42.5155655108392238616943359375" lon="19.90516352467238903045654296875">
        <ele>1980.4000244140625</ele>
        <time>2026-06-17T11:21:23.000Z</time>
        <extensions>
          <ns3:TrackPointExtension>
            <ns3:atemp>17.0</ns3:atemp>
          </ns3:TrackPointExtension>
        </extensions>
      </trkpt>
      <trkpt lat="42.5155655108392238616943359375" lon="19.90516352467238903045654296875">
        <ele>1980.4000244140625</ele>
        <time>2026-06-17T11:21:24.000Z</time>
        <extensions>
          <ns3:TrackPointExtension>
            <ns3:atemp>17.0</ns3:atemp>
          </ns3:TrackPointExtension>
        </extensions>
      </trkpt>
      <trkpt lat="42.5155655108392238616943359375" lon="19.90516352467238903045654296875">
        <ele>1980.4000244140625</ele>
        <time>2026-06-17T11:21:25.000Z</time>
        <extensions>
          <ns3:TrackPointExtension>
            <ns3:atemp>17.0</ns3:atemp>
          </ns3:TrackPointExtension>
        </extensions>
      </trkpt>
      <trkpt lat="42.5155655108392238616943359375" lon="19.90516352467238903045654296875">
        <ele>1980.4000244140625</ele>
        <time>2026-06-17T11:21:26.000Z</time>
        <extensions>
          <ns3:TrackPointExtension>
            <ns3:atemp>17.0</ns3:atemp>
          </ns3:TrackPointExtension>
        </extensions>
      </trkpt>
      <trkpt lat="42.5155655108392238616943359375" lon="19.90516352467238903045654296875">
        <ele>1980.4000244140625</ele>
        <time>2026-06-17T11:21:27.000Z</time>
        <extensions>
          <ns3:TrackPointExtension>
            <ns3:atemp>17.0</ns3:atemp>
          </ns3:TrackPointExtension>
        </extensions>
      </trkpt>
      <trkpt lat="42.5155655108392238616943359375" lon="19.90516352467238903045654296875">
        <ele>1980.4000244140625</ele>
        <time>2026-06-17T11:21:28.000Z</time>
        <extensions>
          <ns3:TrackPointExtension>
            <ns3:atemp>17.0</ns3:atemp>
          </ns3:TrackPointExtension>
        </extensions>
      </trkpt>
      <trkpt lat="42.5155655108392238616943359375" lon="19.90516352467238903045654296875">
        <ele>1980.4000244140625</ele>
        <time>2026-06-17T11:21:29.000Z</time>
        <extensions>
          <ns3:TrackPointExtension>
            <ns3:atemp>17.0</ns3:atemp>
          </ns3:TrackPointExtension>
        </extensions>
      </trkpt>
      <trkpt lat="42.5155655108392238616943359375" lon="19.90516352467238903045654296875">
        <ele>1980.4000244140625</ele>
        <time>2026-06-17T11:21:30.000Z</time>
        <extensions>
          <ns3:TrackPointExtension>
            <ns3:atemp>17.0</ns3:atemp>
          </ns3:TrackPointExtension>
        </extensions>
      </trkpt>
      <trkpt lat="42.5155655108392238616943359375" lon="19.90516352467238903045654296875">
        <ele>1980.4000244140625</ele>
        <time>2026-06-17T11:21:31.000Z</time>
        <extensions>
          <ns3:TrackPointExtension>
            <ns3:atemp>17.0</ns3:atemp>
          </ns3:TrackPointExtension>
        </extensions>
      </trkpt>
      <trkpt lat="42.5155655108392238616943359375" lon="19.90516352467238903045654296875">
        <ele>1980.4000244140625</ele>
        <time>2026-06-17T11:21:32.000Z</time>
        <extensions>
          <ns3:TrackPointExtension>
            <ns3:atemp>17.0</ns3:atemp>
          </ns3:TrackPointExtension>
        </extensions>
      </trkpt>
      <trkpt lat="42.5155655108392238616943359375" lon="19.90516352467238903045654296875">
        <ele>1980.4000244140625</ele>
        <time>2026-06-17T11:21:33.000Z</time>
        <extensions>
          <ns3:TrackPointExtension>
            <ns3:atemp>17.0</ns3:atemp>
          </ns3:TrackPointExtension>
        </extensions>
      </trkpt>
      <trkpt lat="42.5155655108392238616943359375" lon="19.90516352467238903045654296875">
        <ele>1980.4000244140625</ele>
        <time>2026-06-17T11:21:34.000Z</time>
        <extensions>
          <ns3:TrackPointExtension>
            <ns3:atemp>18.0</ns3:atemp>
          </ns3:TrackPointExtension>
        </extensions>
      </trkpt>
      <trkpt lat="42.5155655108392238616943359375" lon="19.90516352467238903045654296875">
        <ele>1980.4000244140625</ele>
        <time>2026-06-17T11:21:35.000Z</time>
        <extensions>
          <ns3:TrackPointExtension>
            <ns3:atemp>17.0</ns3:atemp>
          </ns3:TrackPointExtension>
        </extensions>
      </trkpt>
      <trkpt lat="42.5155655108392238616943359375" lon="19.90516352467238903045654296875">
        <ele>1980.4000244140625</ele>
        <time>2026-06-17T11:21:36.000Z</time>
        <extensions>
          <ns3:TrackPointExtension>
            <ns3:atemp>18.0</ns3:atemp>
          </ns3:TrackPointExtension>
        </extensions>
      </trkpt>
      <trkpt lat="42.5155655108392238616943359375" lon="19.90516352467238903045654296875">
        <ele>1980.4000244140625</ele>
        <time>2026-06-17T11:21:37.000Z</time>
        <extensions>
          <ns3:TrackPointExtension>
            <ns3:atemp>17.0</ns3:atemp>
          </ns3:TrackPointExtension>
        </extensions>
      </trkpt>
      <trkpt lat="42.5155655108392238616943359375" lon="19.90516352467238903045654296875">
        <ele>1980.4000244140625</ele>
        <time>2026-06-17T11:21:38.000Z</time>
        <extensions>
          <ns3:TrackPointExtension>
            <ns3:atemp>17.0</ns3:atemp>
          </ns3:TrackPointExtension>
        </extensions>
      </trkpt>
      <trkpt lat="42.5155655108392238616943359375" lon="19.90516352467238903045654296875">
        <ele>1980.4000244140625</ele>
        <time>2026-06-17T11:21:39.000Z</time>
        <extensions>
          <ns3:TrackPointExtension>
            <ns3:atemp>18.0</ns3:atemp>
          </ns3:TrackPointExtension>
        </extensions>
      </trkpt>
      <trkpt lat="42.5155655108392238616943359375" lon="19.90516352467238903045654296875">
        <ele>1980.4000244140625</ele>
        <time>2026-06-17T11:21:40.000Z</time>
        <extensions>
          <ns3:TrackPointExtension>
            <ns3:atemp>17.0</ns3:atemp>
          </ns3:TrackPointExtension>
        </extensions>
      </trkpt>
      <trkpt lat="42.5155655108392238616943359375" lon="19.90516352467238903045654296875">
        <ele>1980.4000244140625</ele>
        <time>2026-06-17T11:21:41.000Z</time>
        <extensions>
          <ns3:TrackPointExtension>
            <ns3:atemp>17.0</ns3:atemp>
          </ns3:TrackPointExtension>
        </extensions>
      </trkpt>
      <trkpt lat="42.5155655108392238616943359375" lon="19.90516352467238903045654296875">
        <ele>1980.4000244140625</ele>
        <time>2026-06-17T11:21:42.000Z</time>
        <extensions>
          <ns3:TrackPointExtension>
            <ns3:atemp>17.0</ns3:atemp>
          </ns3:TrackPointExtension>
        </extensions>
      </trkpt>
      <trkpt lat="42.5155655108392238616943359375" lon="19.90516352467238903045654296875">
        <ele>1980.4000244140625</ele>
        <time>2026-06-17T11:21:43.000Z</time>
        <extensions>
          <ns3:TrackPointExtension>
            <ns3:atemp>17.0</ns3:atemp>
          </ns3:TrackPointExtension>
        </extensions>
      </trkpt>
      <trkpt lat="42.5155655108392238616943359375" lon="19.90516352467238903045654296875">
        <ele>1980.4000244140625</ele>
        <time>2026-06-17T11:21:44.000Z</time>
        <extensions>
          <ns3:TrackPointExtension>
            <ns3:atemp>17.0</ns3:atemp>
          </ns3:TrackPointExtension>
        </extensions>
      </trkpt>
      <trkpt lat="42.5155655108392238616943359375" lon="19.90516352467238903045654296875">
        <ele>1980.4000244140625</ele>
        <time>2026-06-17T11:21:45.000Z</time>
        <extensions>
          <ns3:TrackPointExtension>
            <ns3:atemp>17.0</ns3:atemp>
          </ns3:TrackPointExtension>
        </extensions>
      </trkpt>
      <trkpt lat="42.5155655108392238616943359375" lon="19.90516352467238903045654296875">
        <ele>1980.4000244140625</ele>
        <time>2026-06-17T11:21:46.000Z</time>
        <extensions>
          <ns3:TrackPointExtension>
            <ns3:atemp>17.0</ns3:atemp>
          </ns3:TrackPointExtension>
        </extensions>
      </trkpt>
      <trkpt lat="42.5155655108392238616943359375" lon="19.90516352467238903045654296875">
        <ele>1980.4000244140625</ele>
        <time>2026-06-17T11:21:47.000Z</time>
        <extensions>
          <ns3:TrackPointExtension>
            <ns3:atemp>17.0</ns3:atemp>
          </ns3:TrackPointExtension>
        </extensions>
      </trkpt>
      <trkpt lat="42.5155655108392238616943359375" lon="19.90516352467238903045654296875">
        <ele>1980.4000244140625</ele>
        <time>2026-06-17T11:21:48.000Z</time>
        <extensions>
          <ns3:TrackPointExtension>
            <ns3:atemp>17.0</ns3:atemp>
          </ns3:TrackPointExtension>
        </extensions>
      </trkpt>
      <trkpt lat="42.5155655108392238616943359375" lon="19.90516352467238903045654296875">
        <ele>1980.4000244140625</ele>
        <time>2026-06-17T11:21:49.000Z</time>
        <extensions>
          <ns3:TrackPointExtension>
            <ns3:atemp>17.0</ns3:atemp>
          </ns3:TrackPointExtension>
        </extensions>
      </trkpt>
      <trkpt lat="42.5155655108392238616943359375" lon="19.90516352467238903045654296875">
        <ele>1980.4000244140625</ele>
        <time>2026-06-17T11:21:50.000Z</time>
        <extensions>
          <ns3:TrackPointExtension>
            <ns3:atemp>17.0</ns3:atemp>
          </ns3:TrackPointExtension>
        </extensions>
      </trkpt>
      <trkpt lat="42.5155655108392238616943359375" lon="19.90516352467238903045654296875">
        <ele>1980.4000244140625</ele>
        <time>2026-06-17T11:21:51.000Z</time>
        <extensions>
          <ns3:TrackPointExtension>
            <ns3:atemp>17.0</ns3:atemp>
          </ns3:TrackPointExtension>
        </extensions>
      </trkpt>
      <trkpt lat="42.5155655108392238616943359375" lon="19.90516352467238903045654296875">
        <ele>1980.4000244140625</ele>
        <time>2026-06-17T11:21:52.000Z</time>
        <extensions>
          <ns3:TrackPointExtension>
            <ns3:atemp>17.0</ns3:atemp>
          </ns3:TrackPointExtension>
        </extensions>
      </trkpt>
      <trkpt lat="42.5155655108392238616943359375" lon="19.90516352467238903045654296875">
        <ele>1980.4000244140625</ele>
        <time>2026-06-17T11:21:53.000Z</time>
        <extensions>
          <ns3:TrackPointExtension>
            <ns3:atemp>17.0</ns3:atemp>
          </ns3:TrackPointExtension>
        </extensions>
      </trkpt>
      <trkpt lat="42.5155655108392238616943359375" lon="19.90516352467238903045654296875">
        <ele>1980.4000244140625</ele>
        <time>2026-06-17T11:21:54.000Z</time>
        <extensions>
          <ns3:TrackPointExtension>
            <ns3:atemp>17.0</ns3:atemp>
          </ns3:TrackPointExtension>
        </extensions>
      </trkpt>
      <trkpt lat="42.5155655108392238616943359375" lon="19.90516352467238903045654296875">
        <ele>1980.4000244140625</ele>
        <time>2026-06-17T11:21:55.000Z</time>
        <extensions>
          <ns3:TrackPointExtension>
            <ns3:atemp>17.0</ns3:atemp>
          </ns3:TrackPointExtension>
        </extensions>
      </trkpt>
      <trkpt lat="42.5155655108392238616943359375" lon="19.90516352467238903045654296875">
        <ele>1980.4000244140625</ele>
        <time>2026-06-17T11:21:56.000Z</time>
        <extensions>
          <ns3:TrackPointExtension>
            <ns3:atemp>17.0</ns3:atemp>
          </ns3:TrackPointExtension>
        </extensions>
      </trkpt>
      <trkpt lat="42.5155655108392238616943359375" lon="19.90516352467238903045654296875">
        <ele>1980.4000244140625</ele>
        <time>2026-06-17T11:21:57.000Z</time>
        <extensions>
          <ns3:TrackPointExtension>
            <ns3:atemp>17.0</ns3:atemp>
          </ns3:TrackPointExtension>
        </extensions>
      </trkpt>
      <trkpt lat="42.5155655108392238616943359375" lon="19.90516352467238903045654296875">
        <ele>1980.4000244140625</ele>
        <time>2026-06-17T11:21:58.000Z</time>
        <extensions>
          <ns3:TrackPointExtension>
            <ns3:atemp>17.0</ns3:atemp>
          </ns3:TrackPointExtension>
        </extensions>
      </trkpt>
      <trkpt lat="42.5155655108392238616943359375" lon="19.90516352467238903045654296875">
        <ele>1980.4000244140625</ele>
        <time>2026-06-17T11:21:59.000Z</time>
        <extensions>
          <ns3:TrackPointExtension>
            <ns3:atemp>17.0</ns3:atemp>
          </ns3:TrackPointExtension>
        </extensions>
      </trkpt>
      <trkpt lat="42.5155655108392238616943359375" lon="19.90516352467238903045654296875">
        <ele>1980.4000244140625</ele>
        <time>2026-06-17T11:22:00.000Z</time>
        <extensions>
          <ns3:TrackPointExtension>
            <ns3:atemp>17.0</ns3:atemp>
          </ns3:TrackPointExtension>
        </extensions>
      </trkpt>
      <trkpt lat="42.5155655108392238616943359375" lon="19.90516352467238903045654296875">
        <ele>1980.4000244140625</ele>
        <time>2026-06-17T11:22:01.000Z</time>
        <extensions>
          <ns3:TrackPointExtension>
            <ns3:atemp>17.0</ns3:atemp>
          </ns3:TrackPointExtension>
        </extensions>
      </trkpt>
      <trkpt lat="42.5155655108392238616943359375" lon="19.90516352467238903045654296875">
        <ele>1980.4000244140625</ele>
        <time>2026-06-17T11:22:02.000Z</time>
        <extensions>
          <ns3:TrackPointExtension>
            <ns3:atemp>17.0</ns3:atemp>
          </ns3:TrackPointExtension>
        </extensions>
      </trkpt>
      <trkpt lat="42.5155655108392238616943359375" lon="19.90516352467238903045654296875">
        <ele>1980.4000244140625</ele>
        <time>2026-06-17T11:22:03.000Z</time>
        <extensions>
          <ns3:TrackPointExtension>
            <ns3:atemp>17.0</ns3:atemp>
          </ns3:TrackPointExtension>
        </extensions>
      </trkpt>
      <trkpt lat="42.5155655108392238616943359375" lon="19.90516352467238903045654296875">
        <ele>1980.4000244140625</ele>
        <time>2026-06-17T11:22:04.000Z</time>
        <extensions>
          <ns3:TrackPointExtension>
            <ns3:atemp>17.0</ns3:atemp>
          </ns3:TrackPointExtension>
        </extensions>
      </trkpt>
      <trkpt lat="42.5155655108392238616943359375" lon="19.90516352467238903045654296875">
        <ele>1980.4000244140625</ele>
        <time>2026-06-17T11:22:05.000Z</time>
        <extensions>
          <ns3:TrackPointExtension>
            <ns3:atemp>17.0</ns3:atemp>
          </ns3:TrackPointExtension>
        </extensions>
      </trkpt>
      <trkpt lat="42.5155655108392238616943359375" lon="19.90516352467238903045654296875">
        <ele>1980.4000244140625</ele>
        <time>2026-06-17T11:22:06.000Z</time>
        <extensions>
          <ns3:TrackPointExtension>
            <ns3:atemp>17.0</ns3:atemp>
          </ns3:TrackPointExtension>
        </extensions>
      </trkpt>
      <trkpt lat="42.5155655108392238616943359375" lon="19.90516352467238903045654296875">
        <ele>1980.4000244140625</ele>
        <time>2026-06-17T11:22:07.000Z</time>
        <extensions>
          <ns3:TrackPointExtension>
            <ns3:atemp>17.0</ns3:atemp>
          </ns3:TrackPointExtension>
        </extensions>
      </trkpt>
      <trkpt lat="42.5155655108392238616943359375" lon="19.90516352467238903045654296875">
        <ele>1980.4000244140625</ele>
        <time>2026-06-17T11:22:08.000Z</time>
        <extensions>
          <ns3:TrackPointExtension>
            <ns3:atemp>17.0</ns3:atemp>
          </ns3:TrackPointExtension>
        </extensions>
      </trkpt>
      <trkpt lat="42.5155655108392238616943359375" lon="19.90516352467238903045654296875">
        <ele>1980.4000244140625</ele>
        <time>2026-06-17T11:22:09.000Z</time>
        <extensions>
          <ns3:TrackPointExtension>
            <ns3:atemp>17.0</ns3:atemp>
          </ns3:TrackPointExtension>
        </extensions>
      </trkpt>
      <trkpt lat="42.5155655108392238616943359375" lon="19.90516352467238903045654296875">
        <ele>1980.4000244140625</ele>
        <time>2026-06-17T11:22:10.000Z</time>
        <extensions>
          <ns3:TrackPointExtension>
            <ns3:atemp>17.0</ns3:atemp>
          </ns3:TrackPointExtension>
        </extensions>
      </trkpt>
      <trkpt lat="42.5155655108392238616943359375" lon="19.90516352467238903045654296875">
        <ele>1980.4000244140625</ele>
        <time>2026-06-17T11:22:11.000Z</time>
        <extensions>
          <ns3:TrackPointExtension>
            <ns3:atemp>17.0</ns3:atemp>
          </ns3:TrackPointExtension>
        </extensions>
      </trkpt>
      <trkpt lat="42.5155655108392238616943359375" lon="19.90516352467238903045654296875">
        <ele>1980.4000244140625</ele>
        <time>2026-06-17T11:22:12.000Z</time>
        <extensions>
          <ns3:TrackPointExtension>
            <ns3:atemp>17.0</ns3:atemp>
          </ns3:TrackPointExtension>
        </extensions>
      </trkpt>
      <trkpt lat="42.5155655108392238616943359375" lon="19.90516352467238903045654296875">
        <ele>1980.4000244140625</ele>
        <time>2026-06-17T11:22:13.000Z</time>
        <extensions>
          <ns3:TrackPointExtension>
            <ns3:atemp>17.0</ns3:atemp>
          </ns3:TrackPointExtension>
        </extensions>
      </trkpt>
      <trkpt lat="42.5155655108392238616943359375" lon="19.90516352467238903045654296875">
        <ele>1980.4000244140625</ele>
        <time>2026-06-17T11:22:14.000Z</time>
        <extensions>
          <ns3:TrackPointExtension>
            <ns3:atemp>17.0</ns3:atemp>
          </ns3:TrackPointExtension>
        </extensions>
      </trkpt>
      <trkpt lat="42.5155655108392238616943359375" lon="19.90516352467238903045654296875">
        <ele>1980.4000244140625</ele>
        <time>2026-06-17T11:22:15.000Z</time>
        <extensions>
          <ns3:TrackPointExtension>
            <ns3:atemp>17.0</ns3:atemp>
          </ns3:TrackPointExtension>
        </extensions>
      </trkpt>
      <trkpt lat="42.5155655108392238616943359375" lon="19.90516352467238903045654296875">
        <ele>1980.4000244140625</ele>
        <time>2026-06-17T11:22:16.000Z</time>
        <extensions>
          <ns3:TrackPointExtension>
            <ns3:atemp>17.0</ns3:atemp>
          </ns3:TrackPointExtension>
        </extensions>
      </trkpt>
      <trkpt lat="42.5155655108392238616943359375" lon="19.90516352467238903045654296875">
        <ele>1980.4000244140625</ele>
        <time>2026-06-17T11:22:17.000Z</time>
        <extensions>
          <ns3:TrackPointExtension>
            <ns3:atemp>17.0</ns3:atemp>
          </ns3:TrackPointExtension>
        </extensions>
      </trkpt>
      <trkpt lat="42.5155655108392238616943359375" lon="19.90516352467238903045654296875">
        <ele>1980.4000244140625</ele>
        <time>2026-06-17T11:22:18.000Z</time>
        <extensions>
          <ns3:TrackPointExtension>
            <ns3:atemp>17.0</ns3:atemp>
          </ns3:TrackPointExtension>
        </extensions>
      </trkpt>
      <trkpt lat="42.5155655108392238616943359375" lon="19.90516352467238903045654296875">
        <ele>1980.4000244140625</ele>
        <time>2026-06-17T11:22:19.000Z</time>
        <extensions>
          <ns3:TrackPointExtension>
            <ns3:atemp>17.0</ns3:atemp>
          </ns3:TrackPointExtension>
        </extensions>
      </trkpt>
      <trkpt lat="42.5155655108392238616943359375" lon="19.90516352467238903045654296875">
        <ele>1980.4000244140625</ele>
        <time>2026-06-17T11:22:20.000Z</time>
        <extensions>
          <ns3:TrackPointExtension>
            <ns3:atemp>17.0</ns3:atemp>
          </ns3:TrackPointExtension>
        </extensions>
      </trkpt>
      <trkpt lat="42.5155655108392238616943359375" lon="19.90516352467238903045654296875">
        <ele>1980.4000244140625</ele>
        <time>2026-06-17T11:22:21.000Z</time>
        <extensions>
          <ns3:TrackPointExtension>
            <ns3:atemp>17.0</ns3:atemp>
          </ns3:TrackPointExtension>
        </extensions>
      </trkpt>
      <trkpt lat="42.5155655108392238616943359375" lon="19.90516352467238903045654296875">
        <ele>1980.4000244140625</ele>
        <time>2026-06-17T11:22:22.000Z</time>
        <extensions>
          <ns3:TrackPointExtension>
            <ns3:atemp>17.0</ns3:atemp>
          </ns3:TrackPointExtension>
        </extensions>
      </trkpt>
      <trkpt lat="42.5155655108392238616943359375" lon="19.90516352467238903045654296875">
        <ele>1980.4000244140625</ele>
        <time>2026-06-17T11:22:23.000Z</time>
        <extensions>
          <ns3:TrackPointExtension>
            <ns3:atemp>17.0</ns3:atemp>
          </ns3:TrackPointExtension>
        </extensions>
      </trkpt>
      <trkpt lat="42.5155655108392238616943359375" lon="19.90516352467238903045654296875">
        <ele>1980.4000244140625</ele>
        <time>2026-06-17T11:22:24.000Z</time>
        <extensions>
          <ns3:TrackPointExtension>
            <ns3:atemp>17.0</ns3:atemp>
          </ns3:TrackPointExtension>
        </extensions>
      </trkpt>
      <trkpt lat="42.5155655108392238616943359375" lon="19.90516352467238903045654296875">
        <ele>1980.4000244140625</ele>
        <time>2026-06-17T11:22:25.000Z</time>
        <extensions>
          <ns3:TrackPointExtension>
            <ns3:atemp>17.0</ns3:atemp>
          </ns3:TrackPointExtension>
        </extensions>
      </trkpt>
      <trkpt lat="42.5155655108392238616943359375" lon="19.90516352467238903045654296875">
        <ele>1980.4000244140625</ele>
        <time>2026-06-17T11:22:26.000Z</time>
        <extensions>
          <ns3:TrackPointExtension>
            <ns3:atemp>17.0</ns3:atemp>
          </ns3:TrackPointExtension>
        </extensions>
      </trkpt>
      <trkpt lat="42.5155655108392238616943359375" lon="19.90516352467238903045654296875">
        <ele>1980.4000244140625</ele>
        <time>2026-06-17T11:22:27.000Z</time>
        <extensions>
          <ns3:TrackPointExtension>
            <ns3:atemp>17.0</ns3:atemp>
          </ns3:TrackPointExtension>
        </extensions>
      </trkpt>
      <trkpt lat="42.5155655108392238616943359375" lon="19.90516352467238903045654296875">
        <ele>1980.4000244140625</ele>
        <time>2026-06-17T11:22:28.000Z</time>
        <extensions>
          <ns3:TrackPointExtension>
            <ns3:atemp>17.0</ns3:atemp>
          </ns3:TrackPointExtension>
        </extensions>
      </trkpt>
      <trkpt lat="42.5155655108392238616943359375" lon="19.90516352467238903045654296875">
        <ele>1980.4000244140625</ele>
        <time>2026-06-17T11:22:29.000Z</time>
        <extensions>
          <ns3:TrackPointExtension>
            <ns3:atemp>17.0</ns3:atemp>
          </ns3:TrackPointExtension>
        </extensions>
      </trkpt>
      <trkpt lat="42.5155655108392238616943359375" lon="19.90516352467238903045654296875">
        <ele>1980.4000244140625</ele>
        <time>2026-06-17T11:22:30.000Z</time>
        <extensions>
          <ns3:TrackPointExtension>
            <ns3:atemp>17.0</ns3:atemp>
          </ns3:TrackPointExtension>
        </extensions>
      </trkpt>
      <trkpt lat="42.5155655108392238616943359375" lon="19.90516352467238903045654296875">
        <ele>1980.4000244140625</ele>
        <time>2026-06-17T11:22:31.000Z</time>
        <extensions>
          <ns3:TrackPointExtension>
            <ns3:atemp>17.0</ns3:atemp>
          </ns3:TrackPointExtension>
        </extensions>
      </trkpt>
      <trkpt lat="42.5155655108392238616943359375" lon="19.90516352467238903045654296875">
        <ele>1980.4000244140625</ele>
        <time>2026-06-17T11:22:32.000Z</time>
        <extensions>
          <ns3:TrackPointExtension>
            <ns3:atemp>17.0</ns3:atemp>
          </ns3:TrackPointExtension>
        </extensions>
      </trkpt>
      <trkpt lat="42.5155655108392238616943359375" lon="19.90516352467238903045654296875">
        <ele>1980.4000244140625</ele>
        <time>2026-06-17T11:22:33.000Z</time>
        <extensions>
          <ns3:TrackPointExtension>
            <ns3:atemp>17.0</ns3:atemp>
          </ns3:TrackPointExtension>
        </extensions>
      </trkpt>
      <trkpt lat="42.5155655108392238616943359375" lon="19.90516352467238903045654296875">
        <ele>1980.4000244140625</ele>
        <time>2026-06-17T11:22:34.000Z</time>
        <extensions>
          <ns3:TrackPointExtension>
            <ns3:atemp>17.0</ns3:atemp>
          </ns3:TrackPointExtension>
        </extensions>
      </trkpt>
      <trkpt lat="42.5155655108392238616943359375" lon="19.90516352467238903045654296875">
        <ele>1980.4000244140625</ele>
        <time>2026-06-17T11:22:35.000Z</time>
        <extensions>
          <ns3:TrackPointExtension>
            <ns3:atemp>17.0</ns3:atemp>
          </ns3:TrackPointExtension>
        </extensions>
      </trkpt>
      <trkpt lat="42.5155655108392238616943359375" lon="19.90516352467238903045654296875">
        <ele>1980.4000244140625</ele>
        <time>2026-06-17T11:22:36.000Z</time>
        <extensions>
          <ns3:TrackPointExtension>
            <ns3:atemp>17.0</ns3:atemp>
          </ns3:TrackPointExtension>
        </extensions>
      </trkpt>
      <trkpt lat="42.5155655108392238616943359375" lon="19.90516352467238903045654296875">
        <ele>1980.4000244140625</ele>
        <time>2026-06-17T11:22:37.000Z</time>
        <extensions>
          <ns3:TrackPointExtension>
            <ns3:atemp>17.0</ns3:atemp>
          </ns3:TrackPointExtension>
        </extensions>
      </trkpt>
      <trkpt lat="42.5155655108392238616943359375" lon="19.90516352467238903045654296875">
        <ele>1980.4000244140625</ele>
        <time>2026-06-17T11:22:38.000Z</time>
        <extensions>
          <ns3:TrackPointExtension>
            <ns3:atemp>17.0</ns3:atemp>
          </ns3:TrackPointExtension>
        </extensions>
      </trkpt>
      <trkpt lat="42.5155655108392238616943359375" lon="19.90516352467238903045654296875">
        <ele>1980.4000244140625</ele>
        <time>2026-06-17T11:22:39.000Z</time>
        <extensions>
          <ns3:TrackPointExtension>
            <ns3:atemp>17.0</ns3:atemp>
          </ns3:TrackPointExtension>
        </extensions>
      </trkpt>
      <trkpt lat="42.5155655108392238616943359375" lon="19.90516352467238903045654296875">
        <ele>1980.4000244140625</ele>
        <time>2026-06-17T11:22:40.000Z</time>
        <extensions>
          <ns3:TrackPointExtension>
            <ns3:atemp>17.0</ns3:atemp>
          </ns3:TrackPointExtension>
        </extensions>
      </trkpt>
      <trkpt lat="42.5155655108392238616943359375" lon="19.90516352467238903045654296875">
        <ele>1980.4000244140625</ele>
        <time>2026-06-17T11:22:41.000Z</time>
        <extensions>
          <ns3:TrackPointExtension>
            <ns3:atemp>17.0</ns3:atemp>
          </ns3:TrackPointExtension>
        </extensions>
      </trkpt>
      <trkpt lat="42.5155655108392238616943359375" lon="19.90516352467238903045654296875">
        <ele>1980.4000244140625</ele>
        <time>2026-06-17T11:22:42.000Z</time>
        <extensions>
          <ns3:TrackPointExtension>
            <ns3:atemp>17.0</ns3:atemp>
          </ns3:TrackPointExtension>
        </extensions>
      </trkpt>
      <trkpt lat="42.5155655108392238616943359375" lon="19.90516352467238903045654296875">
        <ele>1980.4000244140625</ele>
        <time>2026-06-17T11:22:43.000Z</time>
        <extensions>
          <ns3:TrackPointExtension>
            <ns3:atemp>17.0</ns3:atemp>
          </ns3:TrackPointExtension>
        </extensions>
      </trkpt>
      <trkpt lat="42.5155655108392238616943359375" lon="19.90516352467238903045654296875">
        <ele>1980.4000244140625</ele>
        <time>2026-06-17T11:22:44.000Z</time>
        <extensions>
          <ns3:TrackPointExtension>
            <ns3:atemp>17.0</ns3:atemp>
          </ns3:TrackPointExtension>
        </extensions>
      </trkpt>
      <trkpt lat="42.5155655108392238616943359375" lon="19.90516352467238903045654296875">
        <ele>1980.4000244140625</ele>
        <time>2026-06-17T11:22:45.000Z</time>
        <extensions>
          <ns3:TrackPointExtension>
            <ns3:atemp>17.0</ns3:atemp>
          </ns3:TrackPointExtension>
        </extensions>
      </trkpt>
      <trkpt lat="42.5155655108392238616943359375" lon="19.90516352467238903045654296875">
        <ele>1980.4000244140625</ele>
        <time>2026-06-17T11:22:46.000Z</time>
        <extensions>
          <ns3:TrackPointExtension>
            <ns3:atemp>17.0</ns3:atemp>
          </ns3:TrackPointExtension>
        </extensions>
      </trkpt>
      <trkpt lat="42.5155655108392238616943359375" lon="19.90516352467238903045654296875">
        <ele>1980.4000244140625</ele>
        <time>2026-06-17T11:22:47.000Z</time>
        <extensions>
          <ns3:TrackPointExtension>
            <ns3:atemp>17.0</ns3:atemp>
          </ns3:TrackPointExtension>
        </extensions>
      </trkpt>
      <trkpt lat="42.5155655108392238616943359375" lon="19.90516352467238903045654296875">
        <ele>1980.4000244140625</ele>
        <time>2026-06-17T11:22:48.000Z</time>
        <extensions>
          <ns3:TrackPointExtension>
            <ns3:atemp>17.0</ns3:atemp>
          </ns3:TrackPointExtension>
        </extensions>
      </trkpt>
      <trkpt lat="42.5155655108392238616943359375" lon="19.90516352467238903045654296875">
        <ele>1980.4000244140625</ele>
        <time>2026-06-17T11:22:49.000Z</time>
        <extensions>
          <ns3:TrackPointExtension>
            <ns3:atemp>17.0</ns3:atemp>
          </ns3:TrackPointExtension>
        </extensions>
      </trkpt>
      <trkpt lat="42.5155655108392238616943359375" lon="19.90516352467238903045654296875">
        <ele>1980.4000244140625</ele>
        <time>2026-06-17T11:22:50.000Z</time>
        <extensions>
          <ns3:TrackPointExtension>
            <ns3:atemp>17.0</ns3:atemp>
          </ns3:TrackPointExtension>
        </extensions>
      </trkpt>
      <trkpt lat="42.5155655108392238616943359375" lon="19.90516352467238903045654296875">
        <ele>1980.4000244140625</ele>
        <time>2026-06-17T11:22:51.000Z</time>
        <extensions>
          <ns3:TrackPointExtension>
            <ns3:atemp>17.0</ns3:atemp>
          </ns3:TrackPointExtension>
        </extensions>
      </trkpt>
      <trkpt lat="42.5155655108392238616943359375" lon="19.90516352467238903045654296875">
        <ele>1980.4000244140625</ele>
        <time>2026-06-17T11:22:52.000Z</time>
        <extensions>
          <ns3:TrackPointExtension>
            <ns3:atemp>17.0</ns3:atemp>
          </ns3:TrackPointExtension>
        </extensions>
      </trkpt>
      <trkpt lat="42.5155655108392238616943359375" lon="19.90516352467238903045654296875">
        <ele>1980.4000244140625</ele>
        <time>2026-06-17T11:22:53.000Z</time>
        <extensions>
          <ns3:TrackPointExtension>
            <ns3:atemp>17.0</ns3:atemp>
          </ns3:TrackPointExtension>
        </extensions>
      </trkpt>
      <trkpt lat="42.5155655108392238616943359375" lon="19.90516352467238903045654296875">
        <ele>1980.4000244140625</ele>
        <time>2026-06-17T11:22:54.000Z</time>
        <extensions>
          <ns3:TrackPointExtension>
            <ns3:atemp>17.0</ns3:atemp>
          </ns3:TrackPointExtension>
        </extensions>
      </trkpt>
      <trkpt lat="42.5155655108392238616943359375" lon="19.90516352467238903045654296875">
        <ele>1980.4000244140625</ele>
        <time>2026-06-17T11:22:55.000Z</time>
        <extensions>
          <ns3:TrackPointExtension>
            <ns3:atemp>17.0</ns3:atemp>
          </ns3:TrackPointExtension>
        </extensions>
      </trkpt>
      <trkpt lat="42.5155655108392238616943359375" lon="19.90516352467238903045654296875">
        <ele>1980.4000244140625</ele>
        <time>2026-06-17T11:22:56.000Z</time>
        <extensions>
          <ns3:TrackPointExtension>
            <ns3:atemp>17.0</ns3:atemp>
          </ns3:TrackPointExtension>
        </extensions>
      </trkpt>
      <trkpt lat="42.5155655108392238616943359375" lon="19.90516352467238903045654296875">
        <ele>1980.4000244140625</ele>
        <time>2026-06-17T11:22:57.000Z</time>
        <extensions>
          <ns3:TrackPointExtension>
            <ns3:atemp>17.0</ns3:atemp>
          </ns3:TrackPointExtension>
        </extensions>
      </trkpt>
      <trkpt lat="42.5155655108392238616943359375" lon="19.90516352467238903045654296875">
        <ele>1980.4000244140625</ele>
        <time>2026-06-17T11:22:58.000Z</time>
        <extensions>
          <ns3:TrackPointExtension>
            <ns3:atemp>17.0</ns3:atemp>
          </ns3:TrackPointExtension>
        </extensions>
      </trkpt>
      <trkpt lat="42.5155655108392238616943359375" lon="19.90516352467238903045654296875">
        <ele>1980.4000244140625</ele>
        <time>2026-06-17T11:22:59.000Z</time>
        <extensions>
          <ns3:TrackPointExtension>
            <ns3:atemp>17.0</ns3:atemp>
          </ns3:TrackPointExtension>
        </extensions>
      </trkpt>
      <trkpt lat="42.5155655108392238616943359375" lon="19.90516352467238903045654296875">
        <ele>1980.4000244140625</ele>
        <time>2026-06-17T11:23:00.000Z</time>
        <extensions>
          <ns3:TrackPointExtension>
            <ns3:atemp>17.0</ns3:atemp>
          </ns3:TrackPointExtension>
        </extensions>
      </trkpt>
      <trkpt lat="42.5155655108392238616943359375" lon="19.90516352467238903045654296875">
        <ele>1980.4000244140625</ele>
        <time>2026-06-17T11:23:01.000Z</time>
        <extensions>
          <ns3:TrackPointExtension>
            <ns3:atemp>17.0</ns3:atemp>
          </ns3:TrackPointExtension>
        </extensions>
      </trkpt>
      <trkpt lat="42.5155655108392238616943359375" lon="19.90516352467238903045654296875">
        <ele>1980.4000244140625</ele>
        <time>2026-06-17T11:23:02.000Z</time>
        <extensions>
          <ns3:TrackPointExtension>
            <ns3:atemp>17.0</ns3:atemp>
          </ns3:TrackPointExtension>
        </extensions>
      </trkpt>
      <trkpt lat="42.5155655108392238616943359375" lon="19.90516352467238903045654296875">
        <ele>1980.4000244140625</ele>
        <time>2026-06-17T11:23:03.000Z</time>
        <extensions>
          <ns3:TrackPointExtension>
            <ns3:atemp>17.0</ns3:atemp>
          </ns3:TrackPointExtension>
        </extensions>
      </trkpt>
      <trkpt lat="42.5155655108392238616943359375" lon="19.90516352467238903045654296875">
        <ele>1980.4000244140625</ele>
        <time>2026-06-17T11:23:04.000Z</time>
        <extensions>
          <ns3:TrackPointExtension>
            <ns3:atemp>17.0</ns3:atemp>
          </ns3:TrackPointExtension>
        </extensions>
      </trkpt>
      <trkpt lat="42.5155655108392238616943359375" lon="19.90516352467238903045654296875">
        <ele>1980.4000244140625</ele>
        <time>2026-06-17T11:23:05.000Z</time>
        <extensions>
          <ns3:TrackPointExtension>
            <ns3:atemp>17.0</ns3:atemp>
          </ns3:TrackPointExtension>
        </extensions>
      </trkpt>
      <trkpt lat="42.5155655108392238616943359375" lon="19.90516352467238903045654296875">
        <ele>1980.4000244140625</ele>
        <time>2026-06-17T11:23:06.000Z</time>
        <extensions>
          <ns3:TrackPointExtension>
            <ns3:atemp>17.0</ns3:atemp>
          </ns3:TrackPointExtension>
        </extensions>
      </trkpt>
      <trkpt lat="42.5155655108392238616943359375" lon="19.90516352467238903045654296875">
        <ele>1980.4000244140625</ele>
        <time>2026-06-17T11:23:07.000Z</time>
        <extensions>
          <ns3:TrackPointExtension>
            <ns3:atemp>17.0</ns3:atemp>
          </ns3:TrackPointExtension>
        </extensions>
      </trkpt>
      <trkpt lat="42.5155655108392238616943359375" lon="19.90516352467238903045654296875">
        <ele>1980.4000244140625</ele>
        <time>2026-06-17T11:23:08.000Z</time>
        <extensions>
          <ns3:TrackPointExtension>
            <ns3:atemp>17.0</ns3:atemp>
          </ns3:TrackPointExtension>
        </extensions>
      </trkpt>
      <trkpt lat="42.5155655108392238616943359375" lon="19.90516352467238903045654296875">
        <ele>1980.4000244140625</ele>
        <time>2026-06-17T11:23:09.000Z</time>
        <extensions>
          <ns3:TrackPointExtension>
            <ns3:atemp>17.0</ns3:atemp>
          </ns3:TrackPointExtension>
        </extensions>
      </trkpt>
      <trkpt lat="42.5155655108392238616943359375" lon="19.90516352467238903045654296875">
        <ele>1980.4000244140625</ele>
        <time>2026-06-17T11:23:10.000Z</time>
        <extensions>
          <ns3:TrackPointExtension>
            <ns3:atemp>17.0</ns3:atemp>
          </ns3:TrackPointExtension>
        </extensions>
      </trkpt>
      <trkpt lat="42.5155655108392238616943359375" lon="19.90516352467238903045654296875">
        <ele>1980.4000244140625</ele>
        <time>2026-06-17T11:23:11.000Z</time>
        <extensions>
          <ns3:TrackPointExtension>
            <ns3:atemp>17.0</ns3:atemp>
          </ns3:TrackPointExtension>
        </extensions>
      </trkpt>
      <trkpt lat="42.5155655108392238616943359375" lon="19.90516352467238903045654296875">
        <ele>1980.4000244140625</ele>
        <time>2026-06-17T11:23:12.000Z</time>
        <extensions>
          <ns3:TrackPointExtension>
            <ns3:atemp>17.0</ns3:atemp>
          </ns3:TrackPointExtension>
        </extensions>
      </trkpt>
      <trkpt lat="42.5155655108392238616943359375" lon="19.90516352467238903045654296875">
        <ele>1980.4000244140625</ele>
        <time>2026-06-17T11:23:13.000Z</time>
        <extensions>
          <ns3:TrackPointExtension>
            <ns3:atemp>17.0</ns3:atemp>
          </ns3:TrackPointExtension>
        </extensions>
      </trkpt>
      <trkpt lat="42.5155655108392238616943359375" lon="19.90516352467238903045654296875">
        <ele>1980.4000244140625</ele>
        <time>2026-06-17T11:23:14.000Z</time>
        <extensions>
          <ns3:TrackPointExtension>
            <ns3:atemp>17.0</ns3:atemp>
          </ns3:TrackPointExtension>
        </extensions>
      </trkpt>
      <trkpt lat="42.5155655108392238616943359375" lon="19.90516352467238903045654296875">
        <ele>1980.4000244140625</ele>
        <time>2026-06-17T11:23:15.000Z</time>
        <extensions>
          <ns3:TrackPointExtension>
            <ns3:atemp>17.0</ns3:atemp>
          </ns3:TrackPointExtension>
        </extensions>
      </trkpt>
      <trkpt lat="42.5155655108392238616943359375" lon="19.90516352467238903045654296875">
        <ele>1980.4000244140625</ele>
        <time>2026-06-17T11:23:16.000Z</time>
        <extensions>
          <ns3:TrackPointExtension>
            <ns3:atemp>17.0</ns3:atemp>
          </ns3:TrackPointExtension>
        </extensions>
      </trkpt>
      <trkpt lat="42.5155655108392238616943359375" lon="19.90516352467238903045654296875">
        <ele>1980.4000244140625</ele>
        <time>2026-06-17T11:23:17.000Z</time>
        <extensions>
          <ns3:TrackPointExtension>
            <ns3:atemp>17.0</ns3:atemp>
          </ns3:TrackPointExtension>
        </extensions>
      </trkpt>
      <trkpt lat="42.5155655108392238616943359375" lon="19.90516352467238903045654296875">
        <ele>1980.4000244140625</ele>
        <time>2026-06-17T11:23:18.000Z</time>
        <extensions>
          <ns3:TrackPointExtension>
            <ns3:atemp>17.0</ns3:atemp>
          </ns3:TrackPointExtension>
        </extensions>
      </trkpt>
      <trkpt lat="42.5155655108392238616943359375" lon="19.90516352467238903045654296875">
        <ele>1980.4000244140625</ele>
        <time>2026-06-17T11:23:19.000Z</time>
        <extensions>
          <ns3:TrackPointExtension>
            <ns3:atemp>17.0</ns3:atemp>
          </ns3:TrackPointExtension>
        </extensions>
      </trkpt>
      <trkpt lat="42.5155655108392238616943359375" lon="19.90516352467238903045654296875">
        <ele>1980.4000244140625</ele>
        <time>2026-06-17T11:23:20.000Z</time>
        <extensions>
          <ns3:TrackPointExtension>
            <ns3:atemp>17.0</ns3:atemp>
          </ns3:TrackPointExtension>
        </extensions>
      </trkpt>
      <trkpt lat="42.5155655108392238616943359375" lon="19.90516352467238903045654296875">
        <ele>1980.4000244140625</ele>
        <time>2026-06-17T11:23:21.000Z</time>
        <extensions>
          <ns3:TrackPointExtension>
            <ns3:atemp>17.0</ns3:atemp>
          </ns3:TrackPointExtension>
        </extensions>
      </trkpt>
      <trkpt lat="42.5155655108392238616943359375" lon="19.90516352467238903045654296875">
        <ele>1980.4000244140625</ele>
        <time>2026-06-17T11:23:22.000Z</time>
        <extensions>
          <ns3:TrackPointExtension>
            <ns3:atemp>17.0</ns3:atemp>
          </ns3:TrackPointExtension>
        </extensions>
      </trkpt>
      <trkpt lat="42.5155655108392238616943359375" lon="19.90516352467238903045654296875">
        <ele>1980.4000244140625</ele>
        <time>2026-06-17T11:23:23.000Z</time>
        <extensions>
          <ns3:TrackPointExtension>
            <ns3:atemp>17.0</ns3:atemp>
          </ns3:TrackPointExtension>
        </extensions>
      </trkpt>
      <trkpt lat="42.5155655108392238616943359375" lon="19.90516352467238903045654296875">
        <ele>1980.4000244140625</ele>
        <time>2026-06-17T11:23:24.000Z</time>
        <extensions>
          <ns3:TrackPointExtension>
            <ns3:atemp>17.0</ns3:atemp>
          </ns3:TrackPointExtension>
        </extensions>
      </trkpt>
      <trkpt lat="42.5155655108392238616943359375" lon="19.90516352467238903045654296875">
        <ele>1980.4000244140625</ele>
        <time>2026-06-17T11:23:25.000Z</time>
        <extensions>
          <ns3:TrackPointExtension>
            <ns3:atemp>17.0</ns3:atemp>
          </ns3:TrackPointExtension>
        </extensions>
      </trkpt>
      <trkpt lat="42.5155655108392238616943359375" lon="19.90516352467238903045654296875">
        <ele>1980.4000244140625</ele>
        <time>2026-06-17T11:23:26.000Z</time>
        <extensions>
          <ns3:TrackPointExtension>
            <ns3:atemp>17.0</ns3:atemp>
          </ns3:TrackPointExtension>
        </extensions>
      </trkpt>
      <trkpt lat="42.5155655108392238616943359375" lon="19.90516352467238903045654296875">
        <ele>1980.4000244140625</ele>
        <time>2026-06-17T11:23:27.000Z</time>
        <extensions>
          <ns3:TrackPointExtension>
            <ns3:atemp>17.0</ns3:atemp>
          </ns3:TrackPointExtension>
        </extensions>
      </trkpt>
      <trkpt lat="42.5155655108392238616943359375" lon="19.90516352467238903045654296875">
        <ele>1980.4000244140625</ele>
        <time>2026-06-17T11:23:28.000Z</time>
        <extensions>
          <ns3:TrackPointExtension>
            <ns3:atemp>17.0</ns3:atemp>
          </ns3:TrackPointExtension>
        </extensions>
      </trkpt>
      <trkpt lat="42.5155655108392238616943359375" lon="19.90516352467238903045654296875">
        <ele>1980.4000244140625</ele>
        <time>2026-06-17T11:23:29.000Z</time>
        <extensions>
          <ns3:TrackPointExtension>
            <ns3:atemp>17.0</ns3:atemp>
          </ns3:TrackPointExtension>
        </extensions>
      </trkpt>
      <trkpt lat="42.5155655108392238616943359375" lon="19.90516352467238903045654296875">
        <ele>1980.4000244140625</ele>
        <time>2026-06-17T11:23:30.000Z</time>
        <extensions>
          <ns3:TrackPointExtension>
            <ns3:atemp>17.0</ns3:atemp>
          </ns3:TrackPointExtension>
        </extensions>
      </trkpt>
      <trkpt lat="42.5155655108392238616943359375" lon="19.90516352467238903045654296875">
        <ele>1980.4000244140625</ele>
        <time>2026-06-17T11:23:31.000Z</time>
        <extensions>
          <ns3:TrackPointExtension>
            <ns3:atemp>17.0</ns3:atemp>
          </ns3:TrackPointExtension>
        </extensions>
      </trkpt>
      <trkpt lat="42.5155655108392238616943359375" lon="19.90516352467238903045654296875">
        <ele>1980.4000244140625</ele>
        <time>2026-06-17T11:23:32.000Z</time>
        <extensions>
          <ns3:TrackPointExtension>
            <ns3:atemp>17.0</ns3:atemp>
          </ns3:TrackPointExtension>
        </extensions>
      </trkpt>
      <trkpt lat="42.5155655108392238616943359375" lon="19.90516352467238903045654296875">
        <ele>1980.4000244140625</ele>
        <time>2026-06-17T11:23:33.000Z</time>
        <extensions>
          <ns3:TrackPointExtension>
            <ns3:atemp>17.0</ns3:atemp>
          </ns3:TrackPointExtension>
        </extensions>
      </trkpt>
      <trkpt lat="42.5155655108392238616943359375" lon="19.90516352467238903045654296875">
        <ele>1980.4000244140625</ele>
        <time>2026-06-17T11:23:34.000Z</time>
        <extensions>
          <ns3:TrackPointExtension>
            <ns3:atemp>17.0</ns3:atemp>
          </ns3:TrackPointExtension>
        </extensions>
      </trkpt>
      <trkpt lat="42.5155655108392238616943359375" lon="19.90516352467238903045654296875">
        <ele>1980.4000244140625</ele>
        <time>2026-06-17T11:23:35.000Z</time>
        <extensions>
          <ns3:TrackPointExtension>
            <ns3:atemp>17.0</ns3:atemp>
          </ns3:TrackPointExtension>
        </extensions>
      </trkpt>
      <trkpt lat="42.5155655108392238616943359375" lon="19.90516352467238903045654296875">
        <ele>1980.4000244140625</ele>
        <time>2026-06-17T11:23:36.000Z</time>
        <extensions>
          <ns3:TrackPointExtension>
            <ns3:atemp>17.0</ns3:atemp>
          </ns3:TrackPointExtension>
        </extensions>
      </trkpt>
      <trkpt lat="42.5155655108392238616943359375" lon="19.90516352467238903045654296875">
        <ele>1980.4000244140625</ele>
        <time>2026-06-17T11:23:37.000Z</time>
        <extensions>
          <ns3:TrackPointExtension>
            <ns3:atemp>17.0</ns3:atemp>
          </ns3:TrackPointExtension>
        </extensions>
      </trkpt>
      <trkpt lat="42.5155655108392238616943359375" lon="19.90516352467238903045654296875">
        <ele>1980.4000244140625</ele>
        <time>2026-06-17T11:23:38.000Z</time>
        <extensions>
          <ns3:TrackPointExtension>
            <ns3:atemp>17.0</ns3:atemp>
          </ns3:TrackPointExtension>
        </extensions>
      </trkpt>
      <trkpt lat="42.5155655108392238616943359375" lon="19.90516352467238903045654296875">
        <ele>1980.4000244140625</ele>
        <time>2026-06-17T11:23:39.000Z</time>
        <extensions>
          <ns3:TrackPointExtension>
            <ns3:atemp>17.0</ns3:atemp>
          </ns3:TrackPointExtension>
        </extensions>
      </trkpt>
      <trkpt lat="42.5155655108392238616943359375" lon="19.90516352467238903045654296875">
        <ele>1980.4000244140625</ele>
        <time>2026-06-17T11:23:40.000Z</time>
        <extensions>
          <ns3:TrackPointExtension>
            <ns3:atemp>17.0</ns3:atemp>
          </ns3:TrackPointExtension>
        </extensions>
      </trkpt>
      <trkpt lat="42.5155655108392238616943359375" lon="19.90516352467238903045654296875">
        <ele>1980.4000244140625</ele>
        <time>2026-06-17T11:23:41.000Z</time>
        <extensions>
          <ns3:TrackPointExtension>
            <ns3:atemp>17.0</ns3:atemp>
          </ns3:TrackPointExtension>
        </extensions>
      </trkpt>
      <trkpt lat="42.5155655108392238616943359375" lon="19.90516352467238903045654296875">
        <ele>1980.4000244140625</ele>
        <time>2026-06-17T11:23:42.000Z</time>
        <extensions>
          <ns3:TrackPointExtension>
            <ns3:atemp>17.0</ns3:atemp>
          </ns3:TrackPointExtension>
        </extensions>
      </trkpt>
      <trkpt lat="42.5155655108392238616943359375" lon="19.90516352467238903045654296875">
        <ele>1980.4000244140625</ele>
        <time>2026-06-17T11:23:43.000Z</time>
        <extensions>
          <ns3:TrackPointExtension>
            <ns3:atemp>17.0</ns3:atemp>
          </ns3:TrackPointExtension>
        </extensions>
      </trkpt>
      <trkpt lat="42.5155655108392238616943359375" lon="19.90516352467238903045654296875">
        <ele>1980.4000244140625</ele>
        <time>2026-06-17T11:23:44.000Z</time>
        <extensions>
          <ns3:TrackPointExtension>
            <ns3:atemp>17.0</ns3:atemp>
          </ns3:TrackPointExtension>
        </extensions>
      </trkpt>
      <trkpt lat="42.5155655108392238616943359375" lon="19.90516352467238903045654296875">
        <ele>1980.4000244140625</ele>
        <time>2026-06-17T11:23:45.000Z</time>
        <extensions>
          <ns3:TrackPointExtension>
            <ns3:atemp>17.0</ns3:atemp>
          </ns3:TrackPointExtension>
        </extensions>
      </trkpt>
      <trkpt lat="42.5155655108392238616943359375" lon="19.90516352467238903045654296875">
        <ele>1980.4000244140625</ele>
        <time>2026-06-17T11:23:46.000Z</time>
        <extensions>
          <ns3:TrackPointExtension>
            <ns3:atemp>17.0</ns3:atemp>
          </ns3:TrackPointExtension>
        </extensions>
      </trkpt>
      <trkpt lat="42.5155655108392238616943359375" lon="19.90516352467238903045654296875">
        <ele>1980.4000244140625</ele>
        <time>2026-06-17T11:23:47.000Z</time>
        <extensions>
          <ns3:TrackPointExtension>
            <ns3:atemp>17.0</ns3:atemp>
          </ns3:TrackPointExtension>
        </extensions>
      </trkpt>
      <trkpt lat="42.5155655108392238616943359375" lon="19.90516352467238903045654296875">
        <ele>1980.4000244140625</ele>
        <time>2026-06-17T11:23:48.000Z</time>
        <extensions>
          <ns3:TrackPointExtension>
            <ns3:atemp>17.0</ns3:atemp>
          </ns3:TrackPointExtension>
        </extensions>
      </trkpt>
      <trkpt lat="42.5155655108392238616943359375" lon="19.90516352467238903045654296875">
        <ele>1980.4000244140625</ele>
        <time>2026-06-17T11:23:49.000Z</time>
        <extensions>
          <ns3:TrackPointExtension>
            <ns3:atemp>17.0</ns3:atemp>
          </ns3:TrackPointExtension>
        </extensions>
      </trkpt>
      <trkpt lat="42.5155655108392238616943359375" lon="19.90516352467238903045654296875">
        <ele>1980.4000244140625</ele>
        <time>2026-06-17T11:23:50.000Z</time>
        <extensions>
          <ns3:TrackPointExtension>
            <ns3:atemp>17.0</ns3:atemp>
          </ns3:TrackPointExtension>
        </extensions>
      </trkpt>
      <trkpt lat="42.5155655108392238616943359375" lon="19.90516352467238903045654296875">
        <ele>1980.4000244140625</ele>
        <time>2026-06-17T11:23:51.000Z</time>
        <extensions>
          <ns3:TrackPointExtension>
            <ns3:atemp>17.0</ns3:atemp>
          </ns3:TrackPointExtension>
        </extensions>
      </trkpt>
      <trkpt lat="42.5155655108392238616943359375" lon="19.90516352467238903045654296875">
        <ele>1980.4000244140625</ele>
        <time>2026-06-17T11:23:52.000Z</time>
        <extensions>
          <ns3:TrackPointExtension>
            <ns3:atemp>17.0</ns3:atemp>
          </ns3:TrackPointExtension>
        </extensions>
      </trkpt>
      <trkpt lat="42.5155655108392238616943359375" lon="19.90516352467238903045654296875">
        <ele>1980.4000244140625</ele>
        <time>2026-06-17T11:23:53.000Z</time>
        <extensions>
          <ns3:TrackPointExtension>
            <ns3:atemp>17.0</ns3:atemp>
          </ns3:TrackPointExtension>
        </extensions>
      </trkpt>
      <trkpt lat="42.5155655108392238616943359375" lon="19.90516352467238903045654296875">
        <ele>1980.4000244140625</ele>
        <time>2026-06-17T11:23:54.000Z</time>
        <extensions>
          <ns3:TrackPointExtension>
            <ns3:atemp>17.0</ns3:atemp>
          </ns3:TrackPointExtension>
        </extensions>
      </trkpt>
      <trkpt lat="42.5155655108392238616943359375" lon="19.90516352467238903045654296875">
        <ele>1980.4000244140625</ele>
        <time>2026-06-17T11:23:55.000Z</time>
        <extensions>
          <ns3:TrackPointExtension>
            <ns3:atemp>17.0</ns3:atemp>
          </ns3:TrackPointExtension>
        </extensions>
      </trkpt>
      <trkpt lat="42.5155655108392238616943359375" lon="19.90516352467238903045654296875">
        <ele>1980.4000244140625</ele>
        <time>2026-06-17T11:23:56.000Z</time>
        <extensions>
          <ns3:TrackPointExtension>
            <ns3:atemp>17.0</ns3:atemp>
          </ns3:TrackPointExtension>
        </extensions>
      </trkpt>
      <trkpt lat="42.5155655108392238616943359375" lon="19.90516352467238903045654296875">
        <ele>1980.4000244140625</ele>
        <time>2026-06-17T11:23:57.000Z</time>
        <extensions>
          <ns3:TrackPointExtension>
            <ns3:atemp>17.0</ns3:atemp>
          </ns3:TrackPointExtension>
        </extensions>
      </trkpt>
      <trkpt lat="42.5155655108392238616943359375" lon="19.90516352467238903045654296875">
        <ele>1980.4000244140625</ele>
        <time>2026-06-17T11:23:58.000Z</time>
        <extensions>
          <ns3:TrackPointExtension>
            <ns3:atemp>17.0</ns3:atemp>
          </ns3:TrackPointExtension>
        </extensions>
      </trkpt>
      <trkpt lat="42.5155655108392238616943359375" lon="19.90516352467238903045654296875">
        <ele>1980.4000244140625</ele>
        <time>2026-06-17T11:23:59.000Z</time>
        <extensions>
          <ns3:TrackPointExtension>
            <ns3:atemp>17.0</ns3:atemp>
          </ns3:TrackPointExtension>
        </extensions>
      </trkpt>
      <trkpt lat="42.5155655108392238616943359375" lon="19.90516352467238903045654296875">
        <ele>1980.4000244140625</ele>
        <time>2026-06-17T11:24:00.000Z</time>
        <extensions>
          <ns3:TrackPointExtension>
            <ns3:atemp>17.0</ns3:atemp>
          </ns3:TrackPointExtension>
        </extensions>
      </trkpt>
      <trkpt lat="42.5155655108392238616943359375" lon="19.90516352467238903045654296875">
        <ele>1980.4000244140625</ele>
        <time>2026-06-17T11:24:01.000Z</time>
        <extensions>
          <ns3:TrackPointExtension>
            <ns3:atemp>17.0</ns3:atemp>
          </ns3:TrackPointExtension>
        </extensions>
      </trkpt>
      <trkpt lat="42.5155655108392238616943359375" lon="19.90516352467238903045654296875">
        <ele>1980.4000244140625</ele>
        <time>2026-06-17T11:24:02.000Z</time>
        <extensions>
          <ns3:TrackPointExtension>
            <ns3:atemp>17.0</ns3:atemp>
          </ns3:TrackPointExtension>
        </extensions>
      </trkpt>
      <trkpt lat="42.5155655108392238616943359375" lon="19.90516352467238903045654296875">
        <ele>1980.4000244140625</ele>
        <time>2026-06-17T11:24:03.000Z</time>
        <extensions>
          <ns3:TrackPointExtension>
            <ns3:atemp>17.0</ns3:atemp>
          </ns3:TrackPointExtension>
        </extensions>
      </trkpt>
      <trkpt lat="42.5155655108392238616943359375" lon="19.90516352467238903045654296875">
        <ele>1980.4000244140625</ele>
        <time>2026-06-17T11:24:04.000Z</time>
        <extensions>
          <ns3:TrackPointExtension>
            <ns3:atemp>17.0</ns3:atemp>
          </ns3:TrackPointExtension>
        </extensions>
      </trkpt>
      <trkpt lat="42.5155655108392238616943359375" lon="19.90516352467238903045654296875">
        <ele>1980.4000244140625</ele>
        <time>2026-06-17T11:24:05.000Z</time>
        <extensions>
          <ns3:TrackPointExtension>
            <ns3:atemp>17.0</ns3:atemp>
          </ns3:TrackPointExtension>
        </extensions>
      </trkpt>
      <trkpt lat="42.5155655108392238616943359375" lon="19.90516352467238903045654296875">
        <ele>1980.4000244140625</ele>
        <time>2026-06-17T11:24:06.000Z</time>
        <extensions>
          <ns3:TrackPointExtension>
            <ns3:atemp>17.0</ns3:atemp>
          </ns3:TrackPointExtension>
        </extensions>
      </trkpt>
      <trkpt lat="42.5155655108392238616943359375" lon="19.90516352467238903045654296875">
        <ele>1980.4000244140625</ele>
        <time>2026-06-17T11:24:07.000Z</time>
        <extensions>
          <ns3:TrackPointExtension>
            <ns3:atemp>17.0</ns3:atemp>
          </ns3:TrackPointExtension>
        </extensions>
      </trkpt>
      <trkpt lat="42.5155655108392238616943359375" lon="19.90516352467238903045654296875">
        <ele>1980.4000244140625</ele>
        <time>2026-06-17T11:24:08.000Z</time>
        <extensions>
          <ns3:TrackPointExtension>
            <ns3:atemp>17.0</ns3:atemp>
          </ns3:TrackPointExtension>
        </extensions>
      </trkpt>
      <trkpt lat="42.5155655108392238616943359375" lon="19.90516352467238903045654296875">
        <ele>1980.4000244140625</ele>
        <time>2026-06-17T11:24:09.000Z</time>
        <extensions>
          <ns3:TrackPointExtension>
            <ns3:atemp>17.0</ns3:atemp>
          </ns3:TrackPointExtension>
        </extensions>
      </trkpt>
      <trkpt lat="42.5155655108392238616943359375" lon="19.90516352467238903045654296875">
        <ele>1980.4000244140625</ele>
        <time>2026-06-17T11:24:10.000Z</time>
        <extensions>
          <ns3:TrackPointExtension>
            <ns3:atemp>17.0</ns3:atemp>
          </ns3:TrackPointExtension>
        </extensions>
      </trkpt>
      <trkpt lat="42.5155655108392238616943359375" lon="19.90516352467238903045654296875">
        <ele>1980.4000244140625</ele>
        <time>2026-06-17T11:24:11.000Z</time>
        <extensions>
          <ns3:TrackPointExtension>
            <ns3:atemp>17.0</ns3:atemp>
          </ns3:TrackPointExtension>
        </extensions>
      </trkpt>
      <trkpt lat="42.5155655108392238616943359375" lon="19.90516352467238903045654296875">
        <ele>1980.4000244140625</ele>
        <time>2026-06-17T11:24:12.000Z</time>
        <extensions>
          <ns3:TrackPointExtension>
            <ns3:atemp>17.0</ns3:atemp>
          </ns3:TrackPointExtension>
        </extensions>
      </trkpt>
      <trkpt lat="42.5155655108392238616943359375" lon="19.90516352467238903045654296875">
        <ele>1980.4000244140625</ele>
        <time>2026-06-17T11:24:13.000Z</time>
        <extensions>
          <ns3:TrackPointExtension>
            <ns3:atemp>17.0</ns3:atemp>
          </ns3:TrackPointExtension>
        </extensions>
      </trkpt>
      <trkpt lat="42.5155655108392238616943359375" lon="19.90516352467238903045654296875">
        <ele>1980.4000244140625</ele>
        <time>2026-06-17T11:24:14.000Z</time>
        <extensions>
          <ns3:TrackPointExtension>
            <ns3:atemp>17.0</ns3:atemp>
          </ns3:TrackPointExtension>
        </extensions>
      </trkpt>
      <trkpt lat="42.5155655108392238616943359375" lon="19.90516352467238903045654296875">
        <ele>1980.4000244140625</ele>
        <time>2026-06-17T11:24:15.000Z</time>
        <extensions>
          <ns3:TrackPointExtension>
            <ns3:atemp>17.0</ns3:atemp>
          </ns3:TrackPointExtension>
        </extensions>
      </trkpt>
      <trkpt lat="42.5155655108392238616943359375" lon="19.90516352467238903045654296875">
        <ele>1980.4000244140625</ele>
        <time>2026-06-17T11:24:16.000Z</time>
        <extensions>
          <ns3:TrackPointExtension>
            <ns3:atemp>17.0</ns3:atemp>
          </ns3:TrackPointExtension>
        </extensions>
      </trkpt>
      <trkpt lat="42.5155655108392238616943359375" lon="19.90516352467238903045654296875">
        <ele>1980.4000244140625</ele>
        <time>2026-06-17T11:24:17.000Z</time>
        <extensions>
          <ns3:TrackPointExtension>
            <ns3:atemp>17.0</ns3:atemp>
          </ns3:TrackPointExtension>
        </extensions>
      </trkpt>
      <trkpt lat="42.5155655108392238616943359375" lon="19.90516352467238903045654296875">
        <ele>1980.4000244140625</ele>
        <time>2026-06-17T11:24:18.000Z</time>
        <extensions>
          <ns3:TrackPointExtension>
            <ns3:atemp>17.0</ns3:atemp>
          </ns3:TrackPointExtension>
        </extensions>
      </trkpt>
      <trkpt lat="42.5155655108392238616943359375" lon="19.90516352467238903045654296875">
        <ele>1980.4000244140625</ele>
        <time>2026-06-17T11:24:19.000Z</time>
        <extensions>
          <ns3:TrackPointExtension>
            <ns3:atemp>17.0</ns3:atemp>
          </ns3:TrackPointExtension>
        </extensions>
      </trkpt>
      <trkpt lat="42.5155655108392238616943359375" lon="19.90516352467238903045654296875">
        <ele>1980.4000244140625</ele>
        <time>2026-06-17T11:24:20.000Z</time>
        <extensions>
          <ns3:TrackPointExtension>
            <ns3:atemp>17.0</ns3:atemp>
          </ns3:TrackPointExtension>
        </extensions>
      </trkpt>
      <trkpt lat="42.5155655108392238616943359375" lon="19.90516352467238903045654296875">
        <ele>1980.4000244140625</ele>
        <time>2026-06-17T11:24:21.000Z</time>
        <extensions>
          <ns3:TrackPointExtension>
            <ns3:atemp>17.0</ns3:atemp>
          </ns3:TrackPointExtension>
        </extensions>
      </trkpt>
      <trkpt lat="42.5155655108392238616943359375" lon="19.90516352467238903045654296875">
        <ele>1980.4000244140625</ele>
        <time>2026-06-17T11:24:22.000Z</time>
        <extensions>
          <ns3:TrackPointExtension>
            <ns3:atemp>17.0</ns3:atemp>
          </ns3:TrackPointExtension>
        </extensions>
      </trkpt>
      <trkpt lat="42.5155655108392238616943359375" lon="19.90516352467238903045654296875">
        <ele>1980.4000244140625</ele>
        <time>2026-06-17T11:24:23.000Z</time>
        <extensions>
          <ns3:TrackPointExtension>
            <ns3:atemp>17.0</ns3:atemp>
          </ns3:TrackPointExtension>
        </extensions>
      </trkpt>
      <trkpt lat="42.5155655108392238616943359375" lon="19.90516352467238903045654296875">
        <ele>1980.4000244140625</ele>
        <time>2026-06-17T11:24:24.000Z</time>
        <extensions>
          <ns3:TrackPointExtension>
            <ns3:atemp>17.0</ns3:atemp>
          </ns3:TrackPointExtension>
        </extensions>
      </trkpt>
      <trkpt lat="42.5155655108392238616943359375" lon="19.90516352467238903045654296875">
        <ele>1980.4000244140625</ele>
        <time>2026-06-17T11:24:25.000Z</time>
        <extensions>
          <ns3:TrackPointExtension>
            <ns3:atemp>17.0</ns3:atemp>
          </ns3:TrackPointExtension>
        </extensions>
      </trkpt>
      <trkpt lat="42.5155655108392238616943359375" lon="19.90516352467238903045654296875">
        <ele>1980.4000244140625</ele>
        <time>2026-06-17T11:24:26.000Z</time>
        <extensions>
          <ns3:TrackPointExtension>
            <ns3:atemp>17.0</ns3:atemp>
          </ns3:TrackPointExtension>
        </extensions>
      </trkpt>
      <trkpt lat="42.5155655108392238616943359375" lon="19.90516352467238903045654296875">
        <ele>1980.4000244140625</ele>
        <time>2026-06-17T11:24:27.000Z</time>
        <extensions>
          <ns3:TrackPointExtension>
            <ns3:atemp>17.0</ns3:atemp>
          </ns3:TrackPointExtension>
        </extensions>
      </trkpt>
      <trkpt lat="42.5155655108392238616943359375" lon="19.90516352467238903045654296875">
        <ele>1980.4000244140625</ele>
        <time>2026-06-17T11:24:28.000Z</time>
        <extensions>
          <ns3:TrackPointExtension>
            <ns3:atemp>17.0</ns3:atemp>
          </ns3:TrackPointExtension>
        </extensions>
      </trkpt>
      <trkpt lat="42.5155655108392238616943359375" lon="19.90516352467238903045654296875">
        <ele>1980.4000244140625</ele>
        <time>2026-06-17T11:24:29.000Z</time>
        <extensions>
          <ns3:TrackPointExtension>
            <ns3:atemp>17.0</ns3:atemp>
          </ns3:TrackPointExtension>
        </extensions>
      </trkpt>
      <trkpt lat="42.5155655108392238616943359375" lon="19.90516352467238903045654296875">
        <ele>1980.4000244140625</ele>
        <time>2026-06-17T11:24:30.000Z</time>
        <extensions>
          <ns3:TrackPointExtension>
            <ns3:atemp>17.0</ns3:atemp>
          </ns3:TrackPointExtension>
        </extensions>
      </trkpt>
      <trkpt lat="42.5155655108392238616943359375" lon="19.90516352467238903045654296875">
        <ele>1980.4000244140625</ele>
        <time>2026-06-17T11:24:31.000Z</time>
        <extensions>
          <ns3:TrackPointExtension>
            <ns3:atemp>17.0</ns3:atemp>
          </ns3:TrackPointExtension>
        </extensions>
      </trkpt>
      <trkpt lat="42.5155655108392238616943359375" lon="19.90516352467238903045654296875">
        <ele>1980.4000244140625</ele>
        <time>2026-06-17T11:24:32.000Z</time>
        <extensions>
          <ns3:TrackPointExtension>
            <ns3:atemp>17.0</ns3:atemp>
          </ns3:TrackPointExtension>
        </extensions>
      </trkpt>
      <trkpt lat="42.5155655108392238616943359375" lon="19.90516352467238903045654296875">
        <ele>1980.4000244140625</ele>
        <time>2026-06-17T11:24:33.000Z</time>
        <extensions>
          <ns3:TrackPointExtension>
            <ns3:atemp>17.0</ns3:atemp>
          </ns3:TrackPointExtension>
        </extensions>
      </trkpt>
      <trkpt lat="42.5155655108392238616943359375" lon="19.90516352467238903045654296875">
        <ele>1980.4000244140625</ele>
        <time>2026-06-17T11:24:34.000Z</time>
        <extensions>
          <ns3:TrackPointExtension>
            <ns3:atemp>17.0</ns3:atemp>
          </ns3:TrackPointExtension>
        </extensions>
      </trkpt>
      <trkpt lat="42.5155594758689403533935546875" lon="19.90514692850410938262939453125">
        <ele>1980.4000244140625</ele>
        <time>2026-06-17T11:24:35.000Z</time>
        <extensions>
          <ns3:TrackPointExtension>
            <ns3:atemp>17.0</ns3:atemp>
          </ns3:TrackPointExtension>
        </extensions>
      </trkpt>
      <trkpt lat="42.51556224189698696136474609375" lon="19.9051215313374996185302734375">
        <ele>1980.4000244140625</ele>
        <time>2026-06-17T11:24:36.000Z</time>
        <extensions>
          <ns3:TrackPointExtension>
            <ns3:atemp>17.0</ns3:atemp>
          </ns3:TrackPointExtension>
        </extensions>
      </trkpt>
      <trkpt lat="42.51556433737277984619140625" lon="19.90509982220828533172607421875">
        <ele>1980.5999755859375</ele>
        <time>2026-06-17T11:24:37.000Z</time>
        <extensions>
          <ns3:TrackPointExtension>
            <ns3:atemp>17.0</ns3:atemp>
          </ns3:TrackPointExtension>
        </extensions>
      </trkpt>
      <trkpt lat="42.51555536873638629913330078125" lon="19.90507601760327816009521484375">
        <ele>1980.4000244140625</ele>
        <time>2026-06-17T11:24:38.000Z</time>
        <extensions>
          <ns3:TrackPointExtension>
            <ns3:atemp>17.0</ns3:atemp>
          </ns3:TrackPointExtension>
        </extensions>
      </trkpt>
      <trkpt lat="42.51556056551635265350341796875" lon="19.9050481058657169342041015625">
        <ele>1980.199951171875</ele>
        <time>2026-06-17T11:24:39.000Z</time>
        <extensions>
          <ns3:TrackPointExtension>
            <ns3:atemp>17.0</ns3:atemp>
          </ns3:TrackPointExtension>
        </extensions>
      </trkpt>
      <trkpt lat="42.51555520109832286834716796875" lon="19.90501147694885730743408203125">
        <ele>1980</ele>
        <time>2026-06-17T11:24:40.000Z</time>
        <extensions>
          <ns3:TrackPointExtension>
            <ns3:atemp>17.0</ns3:atemp>
          </ns3:TrackPointExtension>
        </extensions>
      </trkpt>
      <trkpt lat="42.51555369235575199127197265625" lon="19.904973506927490234375">
        <ele>1979.800048828125</ele>
        <time>2026-06-17T11:24:41.000Z</time>
        <extensions>
          <ns3:TrackPointExtension>
            <ns3:atemp>17.0</ns3:atemp>
          </ns3:TrackPointExtension>
        </extensions>
      </trkpt>
      <trkpt lat="42.51555553637444972991943359375" lon="19.90493218414485454559326171875">
        <ele>1979.5999755859375</ele>
        <time>2026-06-17T11:24:42.000Z</time>
        <extensions>
          <ns3:TrackPointExtension>
            <ns3:atemp>17.0</ns3:atemp>
          </ns3:TrackPointExtension>
        </extensions>
      </trkpt>
      <trkpt lat="42.5155556201934814453125" lon="19.90488432347774505615234375">
        <ele>1979.4000244140625</ele>
        <time>2026-06-17T11:24:43.000Z</time>
        <extensions>
          <ns3:TrackPointExtension>
            <ns3:atemp>17.0</ns3:atemp>
          </ns3:TrackPointExtension>
        </extensions>
      </trkpt>
      <trkpt lat="42.51555939204990863800048828125" lon="19.90484543144702911376953125">
        <ele>1979.199951171875</ele>
        <time>2026-06-17T11:24:44.000Z</time>
        <extensions>
          <ns3:TrackPointExtension>
            <ns3:atemp>17.0</ns3:atemp>
          </ns3:TrackPointExtension>
        </extensions>
      </trkpt>
      <trkpt lat="42.5155651755630970001220703125" lon="19.90481651388108730316162109375">
        <ele>1979</ele>
        <time>2026-06-17T11:24:45.000Z</time>
        <extensions>
          <ns3:TrackPointExtension>
            <ns3:atemp>17.0</ns3:atemp>
          </ns3:TrackPointExtension>
        </extensions>
      </trkpt>
      <trkpt lat="42.51556877978146076202392578125" lon="19.9047943018376827239990234375">
        <ele>1978.800048828125</ele>
        <time>2026-06-17T11:24:46.000Z</time>
        <extensions>
          <ns3:TrackPointExtension>
            <ns3:atemp>17.0</ns3:atemp>
          </ns3:TrackPointExtension>
        </extensions>
      </trkpt>
      <trkpt lat="42.51556165516376495361328125" lon="19.9047701619565486907958984375">
        <ele>1978.5999755859375</ele>
        <time>2026-06-17T11:24:47.000Z</time>
        <extensions>
          <ns3:TrackPointExtension>
            <ns3:atemp>17.0</ns3:atemp>
          </ns3:TrackPointExtension>
        </extensions>
      </trkpt>
      <trkpt lat="42.5155490823090076446533203125" lon="19.90474660880863666534423828125">
        <ele>1978.4000244140625</ele>
        <time>2026-06-17T11:24:48.000Z</time>
        <extensions>
          <ns3:TrackPointExtension>
            <ns3:atemp>17.0</ns3:atemp>
          </ns3:TrackPointExtension>
        </extensions>
      </trkpt>
      <trkpt lat="42.5155435502529144287109375" lon="19.90472246892750263214111328125">
        <ele>1978</ele>
        <time>2026-06-17T11:24:49.000Z</time>
        <extensions>
          <ns3:TrackPointExtension>
            <ns3:atemp>17.0</ns3:atemp>
          </ns3:TrackPointExtension>
        </extensions>
      </trkpt>
      <trkpt lat="42.51554028131067752838134765625" lon="19.90470251999795436859130859375">
        <ele>1977.800048828125</ele>
        <time>2026-06-17T11:24:50.000Z</time>
        <extensions>
          <ns3:TrackPointExtension>
            <ns3:atemp>17.0</ns3:atemp>
          </ns3:TrackPointExtension>
        </extensions>
      </trkpt>
      <trkpt lat="42.51553676091134548187255859375" lon="19.90468181669712066650390625">
        <ele>1977.4000244140625</ele>
        <time>2026-06-17T11:24:51.000Z</time>
        <extensions>
          <ns3:TrackPointExtension>
            <ns3:atemp>17.0</ns3:atemp>
          </ns3:TrackPointExtension>
        </extensions>
      </trkpt>
      <trkpt lat="42.515541873872280120849609375" lon="19.90465189330279827117919921875">
        <ele>1977</ele>
        <time>2026-06-17T11:24:52.000Z</time>
        <extensions>
          <ns3:TrackPointExtension>
            <ns3:atemp>17.0</ns3:atemp>
          </ns3:TrackPointExtension>
        </extensions>
      </trkpt>
      <trkpt lat="42.51554832793772220611572265625" lon="19.904625155031681060791015625">
        <ele>1976.4000244140625</ele>
        <time>2026-06-17T11:24:53.000Z</time>
        <extensions>
          <ns3:TrackPointExtension>
            <ns3:atemp>17.0</ns3:atemp>
          </ns3:TrackPointExtension>
        </extensions>
      </trkpt>
      <trkpt lat="42.51556425355374813079833984375" lon="19.90459120832383632659912109375">
        <ele>1976</ele>
        <time>2026-06-17T11:24:54.000Z</time>
        <extensions>
          <ns3:TrackPointExtension>
            <ns3:atemp>17.0</ns3:atemp>
          </ns3:TrackPointExtension>
        </extensions>
      </trkpt>
      <trkpt lat="42.5155695341527462005615234375" lon="19.9045518971979618072509765625">
        <ele>1975.4000244140625</ele>
        <time>2026-06-17T11:24:55.000Z</time>
        <extensions>
          <ns3:TrackPointExtension>
            <ns3:atemp>17.0</ns3:atemp>
          </ns3:TrackPointExtension>
        </extensions>
      </trkpt>
      <trkpt lat="42.5155722163617610931396484375" lon="19.9044942297041416168212890625">
        <ele>1974.5999755859375</ele>
        <time>2026-06-17T11:24:56.000Z</time>
        <extensions>
          <ns3:TrackPointExtension>
            <ns3:atemp>17.0</ns3:atemp>
          </ns3:TrackPointExtension>
        </extensions>
      </trkpt>
      <trkpt lat="42.51556945033371448516845703125" lon="19.90442742593586444854736328125">
        <ele>1973.800048828125</ele>
        <time>2026-06-17T11:24:57.000Z</time>
        <extensions>
          <ns3:TrackPointExtension>
            <ns3:atemp>17.0</ns3:atemp>
          </ns3:TrackPointExtension>
        </extensions>
      </trkpt>
      <trkpt lat="42.5155638344585895538330078125" lon="19.904348887503147125244140625">
        <ele>1973</ele>
        <time>2026-06-17T11:24:58.000Z</time>
        <extensions>
          <ns3:TrackPointExtension>
            <ns3:atemp>17.0</ns3:atemp>
          </ns3:TrackPointExtension>
        </extensions>
      </trkpt>
      <trkpt lat="42.515570707619190216064453125" lon="19.90426179952919483184814453125">
        <ele>1971.800048828125</ele>
        <time>2026-06-17T11:24:59.000Z</time>
        <extensions>
          <ns3:TrackPointExtension>
            <ns3:atemp>17.0</ns3:atemp>
          </ns3:TrackPointExtension>
        </extensions>
      </trkpt>
      <trkpt lat="42.5155705399811267852783203125" lon="19.90416725166141986846923828125">
        <ele>1971</ele>
        <time>2026-06-17T11:25:00.000Z</time>
        <extensions>
          <ns3:TrackPointExtension>
            <ns3:atemp>17.0</ns3:atemp>
          </ns3:TrackPointExtension>
        </extensions>
      </trkpt>
      <trkpt lat="42.51556023024022579193115234375" lon="19.90408360026776790618896484375">
        <ele>1970.4000244140625</ele>
        <time>2026-06-17T11:25:01.000Z</time>
        <extensions>
          <ns3:TrackPointExtension>
            <ns3:atemp>17.0</ns3:atemp>
          </ns3:TrackPointExtension>
        </extensions>
      </trkpt>
      <trkpt lat="42.51556056551635265350341796875" lon="19.9040268547832965850830078125">
        <ele>1970</ele>
        <time>2026-06-17T11:25:02.000Z</time>
        <extensions>
          <ns3:TrackPointExtension>
            <ns3:atemp>17.0</ns3:atemp>
          </ns3:TrackPointExtension>
        </extensions>
      </trkpt>
      <trkpt lat="42.5155681930482387542724609375" lon="19.90400749258697032928466796875">
        <ele>1969.800048828125</ele>
        <time>2026-06-17T11:25:03.000Z</time>
        <extensions>
          <ns3:TrackPointExtension>
            <ns3:atemp>17.0</ns3:atemp>
          </ns3:TrackPointExtension>
        </extensions>
      </trkpt>
      <trkpt lat="42.51557464711368083953857421875" lon="19.9040080793201923370361328125">
        <ele>1970</ele>
        <time>2026-06-17T11:25:04.000Z</time>
        <extensions>
          <ns3:TrackPointExtension>
            <ns3:atemp>17.0</ns3:atemp>
          </ns3:TrackPointExtension>
        </extensions>
      </trkpt>
      <trkpt lat="42.5155748985707759857177734375" lon="19.90400782786309719085693359375">
        <ele>1970.199951171875</ele>
        <time>2026-06-17T11:25:05.000Z</time>
        <extensions>
          <ns3:TrackPointExtension>
            <ns3:atemp>17.0</ns3:atemp>
          </ns3:TrackPointExtension>
        </extensions>
      </trkpt>
      <trkpt lat="42.5155748985707759857177734375" lon="19.90400782786309719085693359375">
        <ele>1970.5999755859375</ele>
        <time>2026-06-17T11:25:06.000Z</time>
        <extensions>
          <ns3:TrackPointExtension>
            <ns3:atemp>17.0</ns3:atemp>
          </ns3:TrackPointExtension>
        </extensions>
      </trkpt>
      <trkpt lat="42.5155748985707759857177734375" lon="19.90400782786309719085693359375">
        <ele>1970.800048828125</ele>
        <time>2026-06-17T11:25:07.000Z</time>
        <extensions>
          <ns3:TrackPointExtension>
            <ns3:atemp>17.0</ns3:atemp>
          </ns3:TrackPointExtension>
        </extensions>
      </trkpt>
      <trkpt lat="42.5155748985707759857177734375" lon="19.90400782786309719085693359375">
        <ele>1971</ele>
        <time>2026-06-17T11:25:08.000Z</time>
        <extensions>
          <ns3:TrackPointExtension>
            <ns3:atemp>17.0</ns3:atemp>
          </ns3:TrackPointExtension>
        </extensions>
      </trkpt>
      <trkpt lat="42.51557531766593456268310546875" lon="19.90400590002536773681640625">
        <ele>1971</ele>
        <time>2026-06-17T11:25:09.000Z</time>
        <extensions>
          <ns3:TrackPointExtension>
            <ns3:atemp>17.0</ns3:atemp>
          </ns3:TrackPointExtension>
        </extensions>
      </trkpt>
      <trkpt lat="42.5155772455036640167236328125" lon="19.9039929918944835662841796875">
        <ele>1971</ele>
        <time>2026-06-17T11:25:10.000Z</time>
        <extensions>
          <ns3:TrackPointExtension>
            <ns3:atemp>17.0</ns3:atemp>
          </ns3:TrackPointExtension>
        </extensions>
      </trkpt>
      <trkpt lat="42.51558017916977405548095703125" lon="19.90399072878062725067138671875">
        <ele>1971</ele>
        <time>2026-06-17T11:25:11.000Z</time>
        <extensions>
          <ns3:TrackPointExtension>
            <ns3:atemp>17.0</ns3:atemp>
          </ns3:TrackPointExtension>
        </extensions>
      </trkpt>
      <trkpt lat="42.51558017916977405548095703125" lon="19.90399072878062725067138671875">
        <ele>1970.800048828125</ele>
        <time>2026-06-17T11:25:12.000Z</time>
        <extensions>
          <ns3:TrackPointExtension>
            <ns3:atemp>17.0</ns3:atemp>
          </ns3:TrackPointExtension>
        </extensions>
      </trkpt>
      <trkpt lat="42.51558017916977405548095703125" lon="19.90399072878062725067138671875">
        <ele>1970.5999755859375</ele>
        <time>2026-06-17T11:25:13.000Z</time>
        <extensions>
          <ns3:TrackPointExtension>
            <ns3:atemp>17.0</ns3:atemp>
          </ns3:TrackPointExtension>
        </extensions>
      </trkpt>
      <trkpt lat="42.51558017916977405548095703125" lon="19.90399072878062725067138671875">
        <ele>1970.5999755859375</ele>
        <time>2026-06-17T11:25:14.000Z</time>
        <extensions>
          <ns3:TrackPointExtension>
            <ns3:atemp>17.0</ns3:atemp>
          </ns3:TrackPointExtension>
        </extensions>
      </trkpt>
      <trkpt lat="42.51558017916977405548095703125" lon="19.90399072878062725067138671875">
        <ele>1970.5999755859375</ele>
        <time>2026-06-17T11:25:15.000Z</time>
        <extensions>
          <ns3:TrackPointExtension>
            <ns3:atemp>17.0</ns3:atemp>
          </ns3:TrackPointExtension>
        </extensions>
      </trkpt>
      <trkpt lat="42.51558017916977405548095703125" lon="19.90399072878062725067138671875">
        <ele>1970.5999755859375</ele>
        <time>2026-06-17T11:25:16.000Z</time>
        <extensions>
          <ns3:TrackPointExtension>
            <ns3:atemp>17.0</ns3:atemp>
          </ns3:TrackPointExtension>
        </extensions>
      </trkpt>
      <trkpt lat="42.51558017916977405548095703125" lon="19.90399072878062725067138671875">
        <ele>1970.5999755859375</ele>
        <time>2026-06-17T11:25:17.000Z</time>
        <extensions>
          <ns3:TrackPointExtension>
            <ns3:atemp>17.0</ns3:atemp>
          </ns3:TrackPointExtension>
        </extensions>
      </trkpt>
      <trkpt lat="42.51558017916977405548095703125" lon="19.90399072878062725067138671875">
        <ele>1970.5999755859375</ele>
        <time>2026-06-17T11:25:18.000Z</time>
        <extensions>
          <ns3:TrackPointExtension>
            <ns3:atemp>17.0</ns3:atemp>
          </ns3:TrackPointExtension>
        </extensions>
      </trkpt>
      <trkpt lat="42.51558017916977405548095703125" lon="19.90399072878062725067138671875">
        <ele>1970.5999755859375</ele>
        <time>2026-06-17T11:25:19.000Z</time>
        <extensions>
          <ns3:TrackPointExtension>
            <ns3:atemp>17.0</ns3:atemp>
          </ns3:TrackPointExtension>
        </extensions>
      </trkpt>
      <trkpt lat="42.51558017916977405548095703125" lon="19.90399072878062725067138671875">
        <ele>1970.5999755859375</ele>
        <time>2026-06-17T11:25:20.000Z</time>
        <extensions>
          <ns3:TrackPointExtension>
            <ns3:atemp>17.0</ns3:atemp>
          </ns3:TrackPointExtension>
        </extensions>
      </trkpt>
      <trkpt lat="42.51558017916977405548095703125" lon="19.90399072878062725067138671875">
        <ele>1970.5999755859375</ele>
        <time>2026-06-17T11:25:21.000Z</time>
        <extensions>
          <ns3:TrackPointExtension>
            <ns3:atemp>17.0</ns3:atemp>
          </ns3:TrackPointExtension>
        </extensions>
      </trkpt>
      <trkpt lat="42.51558017916977405548095703125" lon="19.90399072878062725067138671875">
        <ele>1970.5999755859375</ele>
        <time>2026-06-17T11:25:22.000Z</time>
        <extensions>
          <ns3:TrackPointExtension>
            <ns3:atemp>17.0</ns3:atemp>
          </ns3:TrackPointExtension>
        </extensions>
      </trkpt>
      <trkpt lat="42.51558017916977405548095703125" lon="19.90399072878062725067138671875">
        <ele>1970.5999755859375</ele>
        <time>2026-06-17T11:25:23.000Z</time>
        <extensions>
          <ns3:TrackPointExtension>
            <ns3:atemp>17.0</ns3:atemp>
          </ns3:TrackPointExtension>
        </extensions>
      </trkpt>
      <trkpt lat="42.51558017916977405548095703125" lon="19.90399072878062725067138671875">
        <ele>1970.5999755859375</ele>
        <time>2026-06-17T11:25:24.000Z</time>
        <extensions>
          <ns3:TrackPointExtension>
            <ns3:atemp>17.0</ns3:atemp>
          </ns3:TrackPointExtension>
        </extensions>
      </trkpt>
      <trkpt lat="42.51558017916977405548095703125" lon="19.90399072878062725067138671875">
        <ele>1970.5999755859375</ele>
        <time>2026-06-17T11:25:25.000Z</time>
        <extensions>
          <ns3:TrackPointExtension>
            <ns3:atemp>17.0</ns3:atemp>
          </ns3:TrackPointExtension>
        </extensions>
      </trkpt>
      <trkpt lat="42.51558017916977405548095703125" lon="19.90399072878062725067138671875">
        <ele>1970.5999755859375</ele>
        <time>2026-06-17T11:25:26.000Z</time>
        <extensions>
          <ns3:TrackPointExtension>
            <ns3:atemp>17.0</ns3:atemp>
          </ns3:TrackPointExtension>
        </extensions>
      </trkpt>
      <trkpt lat="42.51558017916977405548095703125" lon="19.90399072878062725067138671875">
        <ele>1970.5999755859375</ele>
        <time>2026-06-17T11:25:27.000Z</time>
        <extensions>
          <ns3:TrackPointExtension>
            <ns3:atemp>17.0</ns3:atemp>
          </ns3:TrackPointExtension>
        </extensions>
      </trkpt>
      <trkpt lat="42.51558017916977405548095703125" lon="19.90399072878062725067138671875">
        <ele>1970.5999755859375</ele>
        <time>2026-06-17T11:25:28.000Z</time>
        <extensions>
          <ns3:TrackPointExtension>
            <ns3:atemp>17.0</ns3:atemp>
          </ns3:TrackPointExtension>
        </extensions>
      </trkpt>
      <trkpt lat="42.51558017916977405548095703125" lon="19.90399072878062725067138671875">
        <ele>1970.5999755859375</ele>
        <time>2026-06-17T11:25:29.000Z</time>
        <extensions>
          <ns3:TrackPointExtension>
            <ns3:atemp>17.0</ns3:atemp>
          </ns3:TrackPointExtension>
        </extensions>
      </trkpt>
      <trkpt lat="42.51558017916977405548095703125" lon="19.90399072878062725067138671875">
        <ele>1970.5999755859375</ele>
        <time>2026-06-17T11:25:30.000Z</time>
        <extensions>
          <ns3:TrackPointExtension>
            <ns3:atemp>17.0</ns3:atemp>
          </ns3:TrackPointExtension>
        </extensions>
      </trkpt>
      <trkpt lat="42.51558017916977405548095703125" lon="19.90399072878062725067138671875">
        <ele>1970.5999755859375</ele>
        <time>2026-06-17T11:25:31.000Z</time>
        <extensions>
          <ns3:TrackPointExtension>
            <ns3:atemp>17.0</ns3:atemp>
          </ns3:TrackPointExtension>
        </extensions>
      </trkpt>
      <trkpt lat="42.51558017916977405548095703125" lon="19.90399072878062725067138671875">
        <ele>1970.5999755859375</ele>
        <time>2026-06-17T11:25:32.000Z</time>
        <extensions>
          <ns3:TrackPointExtension>
            <ns3:atemp>17.0</ns3:atemp>
          </ns3:TrackPointExtension>
        </extensions>
      </trkpt>
      <trkpt lat="42.51558017916977405548095703125" lon="19.90399072878062725067138671875">
        <ele>1970.5999755859375</ele>
        <time>2026-06-17T11:25:33.000Z</time>
        <extensions>
          <ns3:TrackPointExtension>
            <ns3:atemp>17.0</ns3:atemp>
          </ns3:TrackPointExtension>
        </extensions>
      </trkpt>
      <trkpt lat="42.51558017916977405548095703125" lon="19.90399072878062725067138671875">
        <ele>1970.5999755859375</ele>
        <time>2026-06-17T11:25:34.000Z</time>
        <extensions>
          <ns3:TrackPointExtension>
            <ns3:atemp>17.0</ns3:atemp>
          </ns3:TrackPointExtension>
        </extensions>
      </trkpt>
      <trkpt lat="42.51558017916977405548095703125" lon="19.90399072878062725067138671875">
        <ele>1970.5999755859375</ele>
        <time>2026-06-17T11:25:35.000Z</time>
        <extensions>
          <ns3:TrackPointExtension>
            <ns3:atemp>17.0</ns3:atemp>
          </ns3:TrackPointExtension>
        </extensions>
      </trkpt>
      <trkpt lat="42.51558017916977405548095703125" lon="19.90399072878062725067138671875">
        <ele>1970.5999755859375</ele>
        <time>2026-06-17T11:25:36.000Z</time>
        <extensions>
          <ns3:TrackPointExtension>
            <ns3:atemp>17.0</ns3:atemp>
          </ns3:TrackPointExtension>
        </extensions>
      </trkpt>
      <trkpt lat="42.51558017916977405548095703125" lon="19.90399072878062725067138671875">
        <ele>1970.800048828125</ele>
        <time>2026-06-17T11:25:37.000Z</time>
        <extensions>
          <ns3:TrackPointExtension>
            <ns3:atemp>17.0</ns3:atemp>
          </ns3:TrackPointExtension>
        </extensions>
      </trkpt>
      <trkpt lat="42.51558017916977405548095703125" lon="19.90399072878062725067138671875">
        <ele>1970.800048828125</ele>
        <time>2026-06-17T11:25:38.000Z</time>
        <extensions>
          <ns3:TrackPointExtension>
            <ns3:atemp>17.0</ns3:atemp>
          </ns3:TrackPointExtension>
        </extensions>
      </trkpt>
      <trkpt lat="42.51558017916977405548095703125" lon="19.90399072878062725067138671875">
        <ele>1970.800048828125</ele>
        <time>2026-06-17T11:25:39.000Z</time>
        <extensions>
          <ns3:TrackPointExtension>
            <ns3:atemp>17.0</ns3:atemp>
          </ns3:TrackPointExtension>
        </extensions>
      </trkpt>
      <trkpt lat="42.51558017916977405548095703125" lon="19.90399072878062725067138671875">
        <ele>1970.800048828125</ele>
        <time>2026-06-17T11:25:40.000Z</time>
        <extensions>
          <ns3:TrackPointExtension>
            <ns3:atemp>17.0</ns3:atemp>
          </ns3:TrackPointExtension>
        </extensions>
      </trkpt>
      <trkpt lat="42.51558017916977405548095703125" lon="19.90399072878062725067138671875">
        <ele>1970.5999755859375</ele>
        <time>2026-06-17T11:25:41.000Z</time>
        <extensions>
          <ns3:TrackPointExtension>
            <ns3:atemp>17.0</ns3:atemp>
          </ns3:TrackPointExtension>
        </extensions>
      </trkpt>
      <trkpt lat="42.51558017916977405548095703125" lon="19.90399072878062725067138671875">
        <ele>1970.5999755859375</ele>
        <time>2026-06-17T11:25:42.000Z</time>
        <extensions>
          <ns3:TrackPointExtension>
            <ns3:atemp>17.0</ns3:atemp>
          </ns3:TrackPointExtension>
        </extensions>
      </trkpt>
      <trkpt lat="42.51558017916977405548095703125" lon="19.90399072878062725067138671875">
        <ele>1970.5999755859375</ele>
        <time>2026-06-17T11:25:43.000Z</time>
        <extensions>
          <ns3:TrackPointExtension>
            <ns3:atemp>17.0</ns3:atemp>
          </ns3:TrackPointExtension>
        </extensions>
      </trkpt>
      <trkpt lat="42.51558017916977405548095703125" lon="19.90399072878062725067138671875">
        <ele>1970.5999755859375</ele>
        <time>2026-06-17T11:25:44.000Z</time>
        <extensions>
          <ns3:TrackPointExtension>
            <ns3:atemp>17.0</ns3:atemp>
          </ns3:TrackPointExtension>
        </extensions>
      </trkpt>
      <trkpt lat="42.51558017916977405548095703125" lon="19.90399072878062725067138671875">
        <ele>1970.5999755859375</ele>
        <time>2026-06-17T11:25:45.000Z</time>
        <extensions>
          <ns3:TrackPointExtension>
            <ns3:atemp>17.0</ns3:atemp>
          </ns3:TrackPointExtension>
        </extensions>
      </trkpt>
      <trkpt lat="42.51558017916977405548095703125" lon="19.90399072878062725067138671875">
        <ele>1970.5999755859375</ele>
        <time>2026-06-17T11:25:46.000Z</time>
        <extensions>
          <ns3:TrackPointExtension>
            <ns3:atemp>17.0</ns3:atemp>
          </ns3:TrackPointExtension>
        </extensions>
      </trkpt>
      <trkpt lat="42.51558017916977405548095703125" lon="19.90399072878062725067138671875">
        <ele>1970.5999755859375</ele>
        <time>2026-06-17T11:25:47.000Z</time>
        <extensions>
          <ns3:TrackPointExtension>
            <ns3:atemp>17.0</ns3:atemp>
          </ns3:TrackPointExtension>
        </extensions>
      </trkpt>
      <trkpt lat="42.51558017916977405548095703125" lon="19.90399072878062725067138671875">
        <ele>1970.5999755859375</ele>
        <time>2026-06-17T11:25:48.000Z</time>
        <extensions>
          <ns3:TrackPointExtension>
            <ns3:atemp>17.0</ns3:atemp>
          </ns3:TrackPointExtension>
        </extensions>
      </trkpt>
      <trkpt lat="42.51558017916977405548095703125" lon="19.90399072878062725067138671875">
        <ele>1970.5999755859375</ele>
        <time>2026-06-17T11:25:49.000Z</time>
        <extensions>
          <ns3:TrackPointExtension>
            <ns3:atemp>17.0</ns3:atemp>
          </ns3:TrackPointExtension>
        </extensions>
      </trkpt>
      <trkpt lat="42.51558017916977405548095703125" lon="19.90399072878062725067138671875">
        <ele>1970.5999755859375</ele>
        <time>2026-06-17T11:25:50.000Z</time>
        <extensions>
          <ns3:TrackPointExtension>
            <ns3:atemp>17.0</ns3:atemp>
          </ns3:TrackPointExtension>
        </extensions>
      </trkpt>
      <trkpt lat="42.51558017916977405548095703125" lon="19.90399072878062725067138671875">
        <ele>1970.5999755859375</ele>
        <time>2026-06-17T11:25:51.000Z</time>
        <extensions>
          <ns3:TrackPointExtension>
            <ns3:atemp>17.0</ns3:atemp>
          </ns3:TrackPointExtension>
        </extensions>
      </trkpt>
      <trkpt lat="42.51558017916977405548095703125" lon="19.90399072878062725067138671875">
        <ele>1970.5999755859375</ele>
        <time>2026-06-17T11:25:52.000Z</time>
        <extensions>
          <ns3:TrackPointExtension>
            <ns3:atemp>17.0</ns3:atemp>
          </ns3:TrackPointExtension>
        </extensions>
      </trkpt>
      <trkpt lat="42.51558017916977405548095703125" lon="19.90399072878062725067138671875">
        <ele>1970.5999755859375</ele>
        <time>2026-06-17T11:25:53.000Z</time>
        <extensions>
          <ns3:TrackPointExtension>
            <ns3:atemp>17.0</ns3:atemp>
          </ns3:TrackPointExtension>
        </extensions>
      </trkpt>
      <trkpt lat="42.51558017916977405548095703125" lon="19.90399072878062725067138671875">
        <ele>1970.5999755859375</ele>
        <time>2026-06-17T11:25:54.000Z</time>
        <extensions>
          <ns3:TrackPointExtension>
            <ns3:atemp>17.0</ns3:atemp>
          </ns3:TrackPointExtension>
        </extensions>
      </trkpt>
      <trkpt lat="42.51558017916977405548095703125" lon="19.90399072878062725067138671875">
        <ele>1970.5999755859375</ele>
        <time>2026-06-17T11:25:55.000Z</time>
        <extensions>
          <ns3:TrackPointExtension>
            <ns3:atemp>17.0</ns3:atemp>
          </ns3:TrackPointExtension>
        </extensions>
      </trkpt>
      <trkpt lat="42.51558017916977405548095703125" lon="19.90399072878062725067138671875">
        <ele>1970.5999755859375</ele>
        <time>2026-06-17T11:25:56.000Z</time>
        <extensions>
          <ns3:TrackPointExtension>
            <ns3:atemp>17.0</ns3:atemp>
          </ns3:TrackPointExtension>
        </extensions>
      </trkpt>
      <trkpt lat="42.51558017916977405548095703125" lon="19.90399072878062725067138671875">
        <ele>1970.5999755859375</ele>
        <time>2026-06-17T11:25:57.000Z</time>
        <extensions>
          <ns3:TrackPointExtension>
            <ns3:atemp>17.0</ns3:atemp>
          </ns3:TrackPointExtension>
        </extensions>
      </trkpt>
      <trkpt lat="42.51558017916977405548095703125" lon="19.90399072878062725067138671875">
        <ele>1970.5999755859375</ele>
        <time>2026-06-17T11:25:58.000Z</time>
        <extensions>
          <ns3:TrackPointExtension>
            <ns3:atemp>17.0</ns3:atemp>
          </ns3:TrackPointExtension>
        </extensions>
      </trkpt>
      <trkpt lat="42.51558017916977405548095703125" lon="19.90399072878062725067138671875">
        <ele>1970.5999755859375</ele>
        <time>2026-06-17T11:25:59.000Z</time>
        <extensions>
          <ns3:TrackPointExtension>
            <ns3:atemp>17.0</ns3:atemp>
          </ns3:TrackPointExtension>
        </extensions>
      </trkpt>
      <trkpt lat="42.51558017916977405548095703125" lon="19.90399072878062725067138671875">
        <ele>1970.5999755859375</ele>
        <time>2026-06-17T11:26:00.000Z</time>
        <extensions>
          <ns3:TrackPointExtension>
            <ns3:atemp>17.0</ns3:atemp>
          </ns3:TrackPointExtension>
        </extensions>
      </trkpt>
      <trkpt lat="42.51558017916977405548095703125" lon="19.90399072878062725067138671875">
        <ele>1970.800048828125</ele>
        <time>2026-06-17T11:26:01.000Z</time>
        <extensions>
          <ns3:TrackPointExtension>
            <ns3:atemp>17.0</ns3:atemp>
          </ns3:TrackPointExtension>
        </extensions>
      </trkpt>
      <trkpt lat="42.51558017916977405548095703125" lon="19.90399072878062725067138671875">
        <ele>1970.800048828125</ele>
        <time>2026-06-17T11:26:02.000Z</time>
        <extensions>
          <ns3:TrackPointExtension>
            <ns3:atemp>17.0</ns3:atemp>
          </ns3:TrackPointExtension>
        </extensions>
      </trkpt>
      <trkpt lat="42.51558017916977405548095703125" lon="19.90399072878062725067138671875">
        <ele>1970.800048828125</ele>
        <time>2026-06-17T11:26:03.000Z</time>
        <extensions>
          <ns3:TrackPointExtension>
            <ns3:atemp>17.0</ns3:atemp>
          </ns3:TrackPointExtension>
        </extensions>
      </trkpt>
      <trkpt lat="42.515579760074615478515625" lon="19.90398670546710491180419921875">
        <ele>1970.800048828125</ele>
        <time>2026-06-17T11:26:04.000Z</time>
        <extensions>
          <ns3:TrackPointExtension>
            <ns3:atemp>17.0</ns3:atemp>
          </ns3:TrackPointExtension>
        </extensions>
      </trkpt>
      <trkpt lat="42.51558805815875530242919921875" lon="19.90395468659698963165283203125">
        <ele>1970.5999755859375</ele>
        <time>2026-06-17T11:26:05.000Z</time>
        <extensions>
          <ns3:TrackPointExtension>
            <ns3:atemp>17.0</ns3:atemp>
          </ns3:TrackPointExtension>
        </extensions>
      </trkpt>
      <trkpt lat="42.51558981835842132568359375" lon="19.90393155254423618316650390625">
        <ele>1970.5999755859375</ele>
        <time>2026-06-17T11:26:06.000Z</time>
        <extensions>
          <ns3:TrackPointExtension>
            <ns3:atemp>17.0</ns3:atemp>
          </ns3:TrackPointExtension>
        </extensions>
      </trkpt>
      <trkpt lat="42.51558981835842132568359375" lon="19.90390037186443805694580078125">
        <ele>1970.4000244140625</ele>
        <time>2026-06-17T11:26:07.000Z</time>
        <extensions>
          <ns3:TrackPointExtension>
            <ns3:atemp>17.0</ns3:atemp>
          </ns3:TrackPointExtension>
        </extensions>
      </trkpt>
      <trkpt lat="42.51558839343488216400146484375" lon="19.90386265330016613006591796875">
        <ele>1970.199951171875</ele>
        <time>2026-06-17T11:26:08.000Z</time>
        <extensions>
          <ns3:TrackPointExtension>
            <ns3:atemp>17.0</ns3:atemp>
          </ns3:TrackPointExtension>
        </extensions>
      </trkpt>
      <trkpt lat="42.51558470539748668670654296875" lon="19.90382577292621135711669921875">
        <ele>1970</ele>
        <time>2026-06-17T11:26:09.000Z</time>
        <extensions>
          <ns3:TrackPointExtension>
            <ns3:atemp>17.0</ns3:atemp>
          </ns3:TrackPointExtension>
        </extensions>
      </trkpt>
      <trkpt lat="42.51558135263621807098388671875" lon="19.90379107184708118438720703125">
        <ele>1970</ele>
        <time>2026-06-17T11:26:10.000Z</time>
        <extensions>
          <ns3:TrackPointExtension>
            <ns3:atemp>17.0</ns3:atemp>
          </ns3:TrackPointExtension>
        </extensions>
      </trkpt>
      <trkpt lat="42.51558043062686920166015625" lon="19.90377179346978664398193359375">
        <ele>1970</ele>
        <time>2026-06-17T11:26:11.000Z</time>
        <extensions>
          <ns3:TrackPointExtension>
            <ns3:atemp>17.0</ns3:atemp>
          </ns3:TrackPointExtension>
        </extensions>
      </trkpt>
      <trkpt lat="42.5155839510262012481689453125" lon="19.90375150926411151885986328125">
        <ele>1970</ele>
        <time>2026-06-17T11:26:12.000Z</time>
        <extensions>
          <ns3:TrackPointExtension>
            <ns3:atemp>17.0</ns3:atemp>
          </ns3:TrackPointExtension>
        </extensions>
      </trkpt>
      <trkpt lat="42.51558738760650157928466796875" lon="19.903726615011692047119140625">
        <ele>1970</ele>
        <time>2026-06-17T11:26:13.000Z</time>
        <extensions>
          <ns3:TrackPointExtension>
            <ns3:atemp>17.0</ns3:atemp>
          </ns3:TrackPointExtension>
        </extensions>
      </trkpt>
      <trkpt lat="42.5155891478061676025390625" lon="19.90370926447212696075439453125">
        <ele>1970</ele>
        <time>2026-06-17T11:26:14.000Z</time>
        <extensions>
          <ns3:TrackPointExtension>
            <ns3:atemp>17.0</ns3:atemp>
          </ns3:TrackPointExtension>
        </extensions>
      </trkpt>
      <trkpt lat="42.51558520831167697906494140625" lon="19.90370281040668487548828125">
        <ele>1970.199951171875</ele>
        <time>2026-06-17T11:26:15.000Z</time>
        <extensions>
          <ns3:TrackPointExtension>
            <ns3:atemp>17.0</ns3:atemp>
          </ns3:TrackPointExtension>
        </extensions>
      </trkpt>
      <trkpt lat="42.5155852921307086944580078125" lon="19.9037026427686214447021484375">
        <ele>1970.199951171875</ele>
        <time>2026-06-17T11:26:16.000Z</time>
        <extensions>
          <ns3:TrackPointExtension>
            <ns3:atemp>17.0</ns3:atemp>
          </ns3:TrackPointExtension>
        </extensions>
      </trkpt>
      <trkpt lat="42.51558939926326274871826171875" lon="19.90368244238197803497314453125">
        <ele>1970.199951171875</ele>
        <time>2026-06-17T11:26:17.000Z</time>
        <extensions>
          <ns3:TrackPointExtension>
            <ns3:atemp>17.0</ns3:atemp>
          </ns3:TrackPointExtension>
        </extensions>
      </trkpt>
      <trkpt lat="42.515590488910675048828125" lon="19.90365712903439998626708984375">
        <ele>1970.199951171875</ele>
        <time>2026-06-17T11:26:18.000Z</time>
        <extensions>
          <ns3:TrackPointExtension>
            <ns3:atemp>17.0</ns3:atemp>
          </ns3:TrackPointExtension>
        </extensions>
      </trkpt>
      <trkpt lat="42.5155879743397235870361328125" lon="19.9036339111626148223876953125">
        <ele>1970.199951171875</ele>
        <time>2026-06-17T11:26:19.000Z</time>
        <extensions>
          <ns3:TrackPointExtension>
            <ns3:atemp>17.0</ns3:atemp>
          </ns3:TrackPointExtension>
        </extensions>
      </trkpt>
      <trkpt lat="42.5155826099216938018798828125" lon="19.90361756645143032073974609375">
        <ele>1970.199951171875</ele>
        <time>2026-06-17T11:26:20.000Z</time>
        <extensions>
          <ns3:TrackPointExtension>
            <ns3:atemp>17.0</ns3:atemp>
          </ns3:TrackPointExtension>
        </extensions>
      </trkpt>
      <trkpt lat="42.51558101736009120941162109375" lon="19.90360583178699016571044921875">
        <ele>1970.199951171875</ele>
        <time>2026-06-17T11:26:21.000Z</time>
        <extensions>
          <ns3:TrackPointExtension>
            <ns3:atemp>17.0</ns3:atemp>
          </ns3:TrackPointExtension>
        </extensions>
      </trkpt>
      <trkpt lat="42.515575401484966278076171875" lon="19.90358571521937847137451171875">
        <ele>1970.199951171875</ele>
        <time>2026-06-17T11:26:22.000Z</time>
        <extensions>
          <ns3:TrackPointExtension>
            <ns3:atemp>17.0</ns3:atemp>
          </ns3:TrackPointExtension>
        </extensions>
      </trkpt>
      <trkpt lat="42.5155702047049999237060546875" lon="19.90356928668916225433349609375">
        <ele>1970.199951171875</ele>
        <time>2026-06-17T11:26:23.000Z</time>
        <extensions>
          <ns3:TrackPointExtension>
            <ns3:atemp>17.0</ns3:atemp>
          </ns3:TrackPointExtension>
        </extensions>
      </trkpt>
      <trkpt lat="42.51556861214339733123779296875" lon="19.90355855785310268402099609375">
        <ele>1970.199951171875</ele>
        <time>2026-06-17T11:26:24.000Z</time>
        <extensions>
          <ns3:TrackPointExtension>
            <ns3:atemp>17.0</ns3:atemp>
          </ns3:TrackPointExtension>
        </extensions>
      </trkpt>
      <trkpt lat="42.515569031238555908203125" lon="19.903548918664455413818359375">
        <ele>1970.4000244140625</ele>
        <time>2026-06-17T11:26:25.000Z</time>
        <extensions>
          <ns3:TrackPointExtension>
            <ns3:atemp>17.0</ns3:atemp>
          </ns3:TrackPointExtension>
        </extensions>
      </trkpt>
      <trkpt lat="42.51557146199047565460205078125" lon="19.9035403691232204437255859375">
        <ele>1970.4000244140625</ele>
        <time>2026-06-17T11:26:26.000Z</time>
        <extensions>
          <ns3:TrackPointExtension>
            <ns3:atemp>17.0</ns3:atemp>
          </ns3:TrackPointExtension>
        </extensions>
      </trkpt>
      <trkpt lat="42.51556978560984134674072265625" lon="19.90353894419968128204345703125">
        <ele>1970.4000244140625</ele>
        <time>2026-06-17T11:26:27.000Z</time>
        <extensions>
          <ns3:TrackPointExtension>
            <ns3:atemp>17.0</ns3:atemp>
          </ns3:TrackPointExtension>
        </extensions>
      </trkpt>
      <trkpt lat="42.51556978560984134674072265625" lon="19.90353894419968128204345703125">
        <ele>1970.4000244140625</ele>
        <time>2026-06-17T11:26:28.000Z</time>
        <extensions>
          <ns3:TrackPointExtension>
            <ns3:atemp>17.0</ns3:atemp>
          </ns3:TrackPointExtension>
        </extensions>
      </trkpt>
      <trkpt lat="42.51556978560984134674072265625" lon="19.90353894419968128204345703125">
        <ele>1970.4000244140625</ele>
        <time>2026-06-17T11:26:29.000Z</time>
        <extensions>
          <ns3:TrackPointExtension>
            <ns3:atemp>17.0</ns3:atemp>
          </ns3:TrackPointExtension>
        </extensions>
      </trkpt>
      <trkpt lat="42.51556978560984134674072265625" lon="19.90353894419968128204345703125">
        <ele>1970.4000244140625</ele>
        <time>2026-06-17T11:26:30.000Z</time>
        <extensions>
          <ns3:TrackPointExtension>
            <ns3:atemp>17.0</ns3:atemp>
          </ns3:TrackPointExtension>
        </extensions>
      </trkpt>
      <trkpt lat="42.51556978560984134674072265625" lon="19.90353894419968128204345703125">
        <ele>1970.4000244140625</ele>
        <time>2026-06-17T11:26:31.000Z</time>
        <extensions>
          <ns3:TrackPointExtension>
            <ns3:atemp>17.0</ns3:atemp>
          </ns3:TrackPointExtension>
        </extensions>
      </trkpt>
      <trkpt lat="42.51557045616209506988525390625" lon="19.903537519276142120361328125">
        <ele>1970.4000244140625</ele>
        <time>2026-06-17T11:26:32.000Z</time>
        <extensions>
          <ns3:TrackPointExtension>
            <ns3:atemp>17.0</ns3:atemp>
          </ns3:TrackPointExtension>
        </extensions>
      </trkpt>
      <trkpt lat="42.51557531766593456268310546875" lon="19.903520084917545318603515625">
        <ele>1970.4000244140625</ele>
        <time>2026-06-17T11:26:33.000Z</time>
        <extensions>
          <ns3:TrackPointExtension>
            <ns3:atemp>17.0</ns3:atemp>
          </ns3:TrackPointExtension>
        </extensions>
      </trkpt>
      <trkpt lat="42.51557531766593456268310546875" lon="19.9035199172794818878173828125">
        <ele>1970.4000244140625</ele>
        <time>2026-06-17T11:26:34.000Z</time>
        <extensions>
          <ns3:TrackPointExtension>
            <ns3:atemp>17.0</ns3:atemp>
          </ns3:TrackPointExtension>
        </extensions>
      </trkpt>
      <trkpt lat="42.51557531766593456268310546875" lon="19.9035199172794818878173828125">
        <ele>1970.4000244140625</ele>
        <time>2026-06-17T11:26:35.000Z</time>
        <extensions>
          <ns3:TrackPointExtension>
            <ns3:atemp>17.0</ns3:atemp>
          </ns3:TrackPointExtension>
        </extensions>
      </trkpt>
      <trkpt lat="42.51557531766593456268310546875" lon="19.9035199172794818878173828125">
        <ele>1970.4000244140625</ele>
        <time>2026-06-17T11:26:36.000Z</time>
        <extensions>
          <ns3:TrackPointExtension>
            <ns3:atemp>17.0</ns3:atemp>
          </ns3:TrackPointExtension>
        </extensions>
      </trkpt>
      <trkpt lat="42.51557531766593456268310546875" lon="19.9035199172794818878173828125">
        <ele>1970.4000244140625</ele>
        <time>2026-06-17T11:26:37.000Z</time>
        <extensions>
          <ns3:TrackPointExtension>
            <ns3:atemp>17.0</ns3:atemp>
          </ns3:TrackPointExtension>
        </extensions>
      </trkpt>
      <trkpt lat="42.51557565294206142425537109375" lon="19.90351916290819644927978515625">
        <ele>1970.4000244140625</ele>
        <time>2026-06-17T11:26:38.000Z</time>
        <extensions>
          <ns3:TrackPointExtension>
            <ns3:atemp>17.0</ns3:atemp>
          </ns3:TrackPointExtension>
        </extensions>
      </trkpt>
      <trkpt lat="42.515572719275951385498046875" lon="19.90348177962005138397216796875">
        <ele>1970.800048828125</ele>
        <time>2026-06-17T11:26:39.000Z</time>
        <extensions>
          <ns3:TrackPointExtension>
            <ns3:atemp>17.0</ns3:atemp>
          </ns3:TrackPointExtension>
        </extensions>
      </trkpt>
      <trkpt lat="42.51557263545691967010498046875" lon="19.90345194004476070404052734375">
        <ele>1970.5999755859375</ele>
        <time>2026-06-17T11:26:40.000Z</time>
        <extensions>
          <ns3:TrackPointExtension>
            <ns3:atemp>17.0</ns3:atemp>
          </ns3:TrackPointExtension>
        </extensions>
      </trkpt>
      <trkpt lat="42.51557481475174427032470703125" lon="19.90341388620436191558837890625">
        <ele>1970.5999755859375</ele>
        <time>2026-06-17T11:26:41.000Z</time>
        <extensions>
          <ns3:TrackPointExtension>
            <ns3:atemp>17.0</ns3:atemp>
          </ns3:TrackPointExtension>
        </extensions>
      </trkpt>
      <trkpt lat="42.51557640731334686279296875" lon="19.903380610048770904541015625">
        <ele>1970.4000244140625</ele>
        <time>2026-06-17T11:26:42.000Z</time>
        <extensions>
          <ns3:TrackPointExtension>
            <ns3:atemp>17.0</ns3:atemp>
          </ns3:TrackPointExtension>
        </extensions>
      </trkpt>
      <trkpt lat="42.51557632349431514739990234375" lon="19.9033469147980213165283203125">
        <ele>1970.199951171875</ele>
        <time>2026-06-17T11:26:43.000Z</time>
        <extensions>
          <ns3:TrackPointExtension>
            <ns3:atemp>17.0</ns3:atemp>
          </ns3:TrackPointExtension>
        </extensions>
      </trkpt>
      <trkpt lat="42.51557213254272937774658203125" lon="19.90330425091087818145751953125">
        <ele>1970</ele>
        <time>2026-06-17T11:26:44.000Z</time>
        <extensions>
          <ns3:TrackPointExtension>
            <ns3:atemp>17.0</ns3:atemp>
          </ns3:TrackPointExtension>
        </extensions>
      </trkpt>
      <trkpt lat="42.51557280309498310089111328125" lon="19.9032617546617984771728515625">
        <ele>1969.800048828125</ele>
        <time>2026-06-17T11:26:45.000Z</time>
        <extensions>
          <ns3:TrackPointExtension>
            <ns3:atemp>17.0</ns3:atemp>
          </ns3:TrackPointExtension>
        </extensions>
      </trkpt>
      <trkpt lat="42.51558177173137664794921875" lon="19.90322512574493885040283203125">
        <ele>1969.5999755859375</ele>
        <time>2026-06-17T11:26:46.000Z</time>
        <extensions>
          <ns3:TrackPointExtension>
            <ns3:atemp>17.0</ns3:atemp>
          </ns3:TrackPointExtension>
        </extensions>
      </trkpt>
      <trkpt lat="42.51559610478579998016357421875" lon="19.90318153984844684600830078125">
        <ele>1969.4000244140625</ele>
        <time>2026-06-17T11:26:47.000Z</time>
        <extensions>
          <ns3:TrackPointExtension>
            <ns3:atemp>17.0</ns3:atemp>
          </ns3:TrackPointExtension>
        </extensions>
      </trkpt>
      <trkpt lat="42.515610940754413604736328125" lon="19.90312722511589527130126953125">
        <ele>1969</ele>
        <time>2026-06-17T11:26:48.000Z</time>
        <extensions>
          <ns3:TrackPointExtension>
            <ns3:atemp>17.0</ns3:atemp>
          </ns3:TrackPointExtension>
        </extensions>
      </trkpt>
      <trkpt lat="42.51561907120048999786376953125" lon="19.90307249128818511962890625">
        <ele>1968.5999755859375</ele>
        <time>2026-06-17T11:26:49.000Z</time>
        <extensions>
          <ns3:TrackPointExtension>
            <ns3:atemp>17.0</ns3:atemp>
          </ns3:TrackPointExtension>
        </extensions>
      </trkpt>
      <trkpt lat="42.5156255252659320831298828125" lon="19.90303217433393001556396484375">
        <ele>1968.4000244140625</ele>
        <time>2026-06-17T11:26:50.000Z</time>
        <extensions>
          <ns3:TrackPointExtension>
            <ns3:atemp>17.0</ns3:atemp>
          </ns3:TrackPointExtension>
        </extensions>
      </trkpt>
      <trkpt lat="42.51562778837978839874267578125" lon="19.90300267003476619720458984375">
        <ele>1968.199951171875</ele>
        <time>2026-06-17T11:26:51.000Z</time>
        <extensions>
          <ns3:TrackPointExtension>
            <ns3:atemp>17.0</ns3:atemp>
          </ns3:TrackPointExtension>
        </extensions>
      </trkpt>
      <trkpt lat="42.5156228430569171905517578125" lon="19.902980290353298187255859375">
        <ele>1968.199951171875</ele>
        <time>2026-06-17T11:26:52.000Z</time>
        <extensions>
          <ns3:TrackPointExtension>
            <ns3:atemp>17.0</ns3:atemp>
          </ns3:TrackPointExtension>
        </extensions>
      </trkpt>
      <trkpt lat="42.515617311000823974609375" lon="19.90295472554862499237060546875">
        <ele>1968.199951171875</ele>
        <time>2026-06-17T11:26:53.000Z</time>
        <extensions>
          <ns3:TrackPointExtension>
            <ns3:atemp>17.0</ns3:atemp>
          </ns3:TrackPointExtension>
        </extensions>
      </trkpt>
      <trkpt lat="42.51562074758112430572509765625" lon="19.9029392190277576446533203125">
        <ele>1968.199951171875</ele>
        <time>2026-06-17T11:26:54.000Z</time>
        <extensions>
          <ns3:TrackPointExtension>
            <ns3:atemp>17.0</ns3:atemp>
          </ns3:TrackPointExtension>
        </extensions>
      </trkpt>
      <trkpt lat="42.5156238488852977752685546875" lon="19.90292505361139774322509765625">
        <ele>1968.4000244140625</ele>
        <time>2026-06-17T11:26:55.000Z</time>
        <extensions>
          <ns3:TrackPointExtension>
            <ns3:atemp>17.0</ns3:atemp>
          </ns3:TrackPointExtension>
        </extensions>
      </trkpt>
      <trkpt lat="42.515628039836883544921875" lon="19.90291046909987926483154296875">
        <ele>1968.4000244140625</ele>
        <time>2026-06-17T11:26:56.000Z</time>
        <extensions>
          <ns3:TrackPointExtension>
            <ns3:atemp>17.0</ns3:atemp>
          </ns3:TrackPointExtension>
        </extensions>
      </trkpt>
      <trkpt lat="42.51563399098813533782958984375" lon="19.90288834087550640106201171875">
        <ele>1968.4000244140625</ele>
        <time>2026-06-17T11:26:57.000Z</time>
        <extensions>
          <ns3:TrackPointExtension>
            <ns3:atemp>17.0</ns3:atemp>
          </ns3:TrackPointExtension>
        </extensions>
      </trkpt>
      <trkpt lat="42.51564212143421173095703125" lon="19.90286772139370441436767578125">
        <ele>1968.5999755859375</ele>
        <time>2026-06-17T11:26:58.000Z</time>
        <extensions>
          <ns3:TrackPointExtension>
            <ns3:atemp>17.0</ns3:atemp>
          </ns3:TrackPointExtension>
        </extensions>
      </trkpt>
      <trkpt lat="42.51564941368997097015380859375" lon="19.9028513766825199127197265625">
        <ele>1968.5999755859375</ele>
        <time>2026-06-17T11:26:59.000Z</time>
        <extensions>
          <ns3:TrackPointExtension>
            <ns3:atemp>17.0</ns3:atemp>
          </ns3:TrackPointExtension>
        </extensions>
      </trkpt>
      <trkpt lat="42.5156523473560810089111328125" lon="19.902842827141284942626953125">
        <ele>1968.5999755859375</ele>
        <time>2026-06-17T11:27:00.000Z</time>
        <extensions>
          <ns3:TrackPointExtension>
            <ns3:atemp>17.0</ns3:atemp>
          </ns3:TrackPointExtension>
        </extensions>
      </trkpt>
      <trkpt lat="42.5156590528786182403564453125" lon="19.902834109961986541748046875">
        <ele>1968.4000244140625</ele>
        <time>2026-06-17T11:27:01.000Z</time>
        <extensions>
          <ns3:TrackPointExtension>
            <ns3:atemp>17.0</ns3:atemp>
          </ns3:TrackPointExtension>
        </extensions>
      </trkpt>
      <trkpt lat="42.5156629085540771484375" lon="19.90280871279537677764892578125">
        <ele>1968.4000244140625</ele>
        <time>2026-06-17T11:27:02.000Z</time>
        <extensions>
          <ns3:TrackPointExtension>
            <ns3:atemp>17.0</ns3:atemp>
          </ns3:TrackPointExtension>
        </extensions>
      </trkpt>
      <trkpt lat="42.5156669318675994873046875" lon="19.90277786739170551300048828125">
        <ele>1968.4000244140625</ele>
        <time>2026-06-17T11:27:03.000Z</time>
        <extensions>
          <ns3:TrackPointExtension>
            <ns3:atemp>17.0</ns3:atemp>
          </ns3:TrackPointExtension>
        </extensions>
      </trkpt>
      <trkpt lat="42.5156660936772823333740234375" lon="19.90275272168219089508056640625">
        <ele>1968.199951171875</ele>
        <time>2026-06-17T11:27:04.000Z</time>
        <extensions>
          <ns3:TrackPointExtension>
            <ns3:atemp>17.0</ns3:atemp>
          </ns3:TrackPointExtension>
        </extensions>
      </trkpt>
      <trkpt lat="42.515668608248233795166015625" lon="19.9027269892394542694091796875">
        <ele>1968.199951171875</ele>
        <time>2026-06-17T11:27:05.000Z</time>
        <extensions>
          <ns3:TrackPointExtension>
            <ns3:atemp>17.0</ns3:atemp>
          </ns3:TrackPointExtension>
        </extensions>
      </trkpt>
      <trkpt lat="42.51566567458212375640869140625" lon="19.9027055315673351287841796875">
        <ele>1968.199951171875</ele>
        <time>2026-06-17T11:27:06.000Z</time>
        <extensions>
          <ns3:TrackPointExtension>
            <ns3:atemp>17.0</ns3:atemp>
          </ns3:TrackPointExtension>
        </extensions>
      </trkpt>
      <trkpt lat="42.51566014252603054046630859375" lon="19.9026788771152496337890625">
        <ele>1968.199951171875</ele>
        <time>2026-06-17T11:27:07.000Z</time>
        <extensions>
          <ns3:TrackPointExtension>
            <ns3:atemp>17.0</ns3:atemp>
          </ns3:TrackPointExtension>
        </extensions>
      </trkpt>
      <trkpt lat="42.5156560353934764862060546875" lon="19.902653396129608154296875">
        <ele>1968.4000244140625</ele>
        <time>2026-06-17T11:27:08.000Z</time>
        <extensions>
          <ns3:TrackPointExtension>
            <ns3:atemp>17.0</ns3:atemp>
          </ns3:TrackPointExtension>
        </extensions>
      </trkpt>
      <trkpt lat="42.51565293408930301666259765625" lon="19.90263772197067737579345703125">
        <ele>1968.5999755859375</ele>
        <time>2026-06-17T11:27:09.000Z</time>
        <extensions>
          <ns3:TrackPointExtension>
            <ns3:atemp>17.0</ns3:atemp>
          </ns3:TrackPointExtension>
        </extensions>
      </trkpt>
      <trkpt lat="42.5156607292592525482177734375" lon="19.90262850187718868255615234375">
        <ele>1968.800048828125</ele>
        <time>2026-06-17T11:27:10.000Z</time>
        <extensions>
          <ns3:TrackPointExtension>
            <ns3:atemp>17.0</ns3:atemp>
          </ns3:TrackPointExtension>
        </extensions>
      </trkpt>
      <trkpt lat="42.51566894352436065673828125" lon="19.9026223830878734588623046875">
        <ele>1969</ele>
        <time>2026-06-17T11:27:11.000Z</time>
        <extensions>
          <ns3:TrackPointExtension>
            <ns3:atemp>17.0</ns3:atemp>
          </ns3:TrackPointExtension>
        </extensions>
      </trkpt>
      <trkpt lat="42.515671961009502410888671875" lon="19.90262179635465145111083984375">
        <ele>1969.199951171875</ele>
        <time>2026-06-17T11:27:12.000Z</time>
        <extensions>
          <ns3:TrackPointExtension>
            <ns3:atemp>17.0</ns3:atemp>
          </ns3:TrackPointExtension>
        </extensions>
      </trkpt>
      <trkpt lat="42.51567204482853412628173828125" lon="19.902621544897556304931640625">
        <ele>1969.199951171875</ele>
        <time>2026-06-17T11:27:13.000Z</time>
        <extensions>
          <ns3:TrackPointExtension>
            <ns3:atemp>17.0</ns3:atemp>
          </ns3:TrackPointExtension>
        </extensions>
      </trkpt>
      <trkpt lat="42.5156721286475658416748046875" lon="19.90262129344046115875244140625">
        <ele>1969.4000244140625</ele>
        <time>2026-06-17T11:27:14.000Z</time>
        <extensions>
          <ns3:TrackPointExtension>
            <ns3:atemp>17.0</ns3:atemp>
          </ns3:TrackPointExtension>
        </extensions>
      </trkpt>
      <trkpt lat="42.51567204482853412628173828125" lon="19.902621544897556304931640625">
        <ele>1969.4000244140625</ele>
        <time>2026-06-17T11:27:15.000Z</time>
        <extensions>
          <ns3:TrackPointExtension>
            <ns3:atemp>17.0</ns3:atemp>
          </ns3:TrackPointExtension>
        </extensions>
      </trkpt>
      <trkpt lat="42.51567204482853412628173828125" lon="19.902621544897556304931640625">
        <ele>1969.199951171875</ele>
        <time>2026-06-17T11:27:16.000Z</time>
        <extensions>
          <ns3:TrackPointExtension>
            <ns3:atemp>17.0</ns3:atemp>
          </ns3:TrackPointExtension>
        </extensions>
      </trkpt>
      <trkpt lat="42.51567204482853412628173828125" lon="19.902621544897556304931640625">
        <ele>1969.199951171875</ele>
        <time>2026-06-17T11:27:17.000Z</time>
        <extensions>
          <ns3:TrackPointExtension>
            <ns3:atemp>17.0</ns3:atemp>
          </ns3:TrackPointExtension>
        </extensions>
      </trkpt>
      <trkpt lat="42.51567204482853412628173828125" lon="19.902621544897556304931640625">
        <ele>1969.199951171875</ele>
        <time>2026-06-17T11:27:18.000Z</time>
        <extensions>
          <ns3:TrackPointExtension>
            <ns3:atemp>17.0</ns3:atemp>
          </ns3:TrackPointExtension>
        </extensions>
      </trkpt>
      <trkpt lat="42.51567204482853412628173828125" lon="19.902621544897556304931640625">
        <ele>1969.199951171875</ele>
        <time>2026-06-17T11:27:19.000Z</time>
        <extensions>
          <ns3:TrackPointExtension>
            <ns3:atemp>17.0</ns3:atemp>
          </ns3:TrackPointExtension>
        </extensions>
      </trkpt>
      <trkpt lat="42.51567204482853412628173828125" lon="19.902621544897556304931640625">
        <ele>1969.199951171875</ele>
        <time>2026-06-17T11:27:20.000Z</time>
        <extensions>
          <ns3:TrackPointExtension>
            <ns3:atemp>17.0</ns3:atemp>
          </ns3:TrackPointExtension>
        </extensions>
      </trkpt>
      <trkpt lat="42.51567204482853412628173828125" lon="19.902621544897556304931640625">
        <ele>1969.199951171875</ele>
        <time>2026-06-17T11:27:21.000Z</time>
        <extensions>
          <ns3:TrackPointExtension>
            <ns3:atemp>17.0</ns3:atemp>
          </ns3:TrackPointExtension>
        </extensions>
      </trkpt>
      <trkpt lat="42.51567204482853412628173828125" lon="19.902621544897556304931640625">
        <ele>1969.199951171875</ele>
        <time>2026-06-17T11:27:22.000Z</time>
        <extensions>
          <ns3:TrackPointExtension>
            <ns3:atemp>17.0</ns3:atemp>
          </ns3:TrackPointExtension>
        </extensions>
      </trkpt>
      <trkpt lat="42.51567204482853412628173828125" lon="19.902621544897556304931640625">
        <ele>1969.199951171875</ele>
        <time>2026-06-17T11:27:23.000Z</time>
        <extensions>
          <ns3:TrackPointExtension>
            <ns3:atemp>17.0</ns3:atemp>
          </ns3:TrackPointExtension>
        </extensions>
      </trkpt>
      <trkpt lat="42.51567204482853412628173828125" lon="19.902621544897556304931640625">
        <ele>1969.199951171875</ele>
        <time>2026-06-17T11:27:24.000Z</time>
        <extensions>
          <ns3:TrackPointExtension>
            <ns3:atemp>17.0</ns3:atemp>
          </ns3:TrackPointExtension>
        </extensions>
      </trkpt>
      <trkpt lat="42.51567204482853412628173828125" lon="19.902621544897556304931640625">
        <ele>1969.199951171875</ele>
        <time>2026-06-17T11:27:25.000Z</time>
        <extensions>
          <ns3:TrackPointExtension>
            <ns3:atemp>17.0</ns3:atemp>
          </ns3:TrackPointExtension>
        </extensions>
      </trkpt>
      <trkpt lat="42.51567204482853412628173828125" lon="19.902621544897556304931640625">
        <ele>1969.199951171875</ele>
        <time>2026-06-17T11:27:26.000Z</time>
        <extensions>
          <ns3:TrackPointExtension>
            <ns3:atemp>17.0</ns3:atemp>
          </ns3:TrackPointExtension>
        </extensions>
      </trkpt>
      <trkpt lat="42.51567204482853412628173828125" lon="19.902621544897556304931640625">
        <ele>1969.199951171875</ele>
        <time>2026-06-17T11:27:27.000Z</time>
        <extensions>
          <ns3:TrackPointExtension>
            <ns3:atemp>17.0</ns3:atemp>
          </ns3:TrackPointExtension>
        </extensions>
      </trkpt>
      <trkpt lat="42.51567204482853412628173828125" lon="19.902621544897556304931640625">
        <ele>1969.199951171875</ele>
        <time>2026-06-17T11:27:28.000Z</time>
        <extensions>
          <ns3:TrackPointExtension>
            <ns3:atemp>17.0</ns3:atemp>
          </ns3:TrackPointExtension>
        </extensions>
      </trkpt>
      <trkpt lat="42.51567204482853412628173828125" lon="19.902621544897556304931640625">
        <ele>1969</ele>
        <time>2026-06-17T11:27:29.000Z</time>
        <extensions>
          <ns3:TrackPointExtension>
            <ns3:atemp>17.0</ns3:atemp>
          </ns3:TrackPointExtension>
        </extensions>
      </trkpt>
      <trkpt lat="42.51567204482853412628173828125" lon="19.902621544897556304931640625">
        <ele>1969</ele>
        <time>2026-06-17T11:27:30.000Z</time>
        <extensions>
          <ns3:TrackPointExtension>
            <ns3:atemp>17.0</ns3:atemp>
          </ns3:TrackPointExtension>
        </extensions>
      </trkpt>
      <trkpt lat="42.51567204482853412628173828125" lon="19.902621544897556304931640625">
        <ele>1969</ele>
        <time>2026-06-17T11:27:31.000Z</time>
        <extensions>
          <ns3:TrackPointExtension>
            <ns3:atemp>17.0</ns3:atemp>
          </ns3:TrackPointExtension>
        </extensions>
      </trkpt>
      <trkpt lat="42.51567204482853412628173828125" lon="19.902621544897556304931640625">
        <ele>1969</ele>
        <time>2026-06-17T11:27:32.000Z</time>
        <extensions>
          <ns3:TrackPointExtension>
            <ns3:atemp>17.0</ns3:atemp>
          </ns3:TrackPointExtension>
        </extensions>
      </trkpt>
      <trkpt lat="42.51567204482853412628173828125" lon="19.902621544897556304931640625">
        <ele>1969</ele>
        <time>2026-06-17T11:27:33.000Z</time>
        <extensions>
          <ns3:TrackPointExtension>
            <ns3:atemp>17.0</ns3:atemp>
          </ns3:TrackPointExtension>
        </extensions>
      </trkpt>
      <trkpt lat="42.51567204482853412628173828125" lon="19.902621544897556304931640625">
        <ele>1969</ele>
        <time>2026-06-17T11:27:34.000Z</time>
        <extensions>
          <ns3:TrackPointExtension>
            <ns3:atemp>17.0</ns3:atemp>
          </ns3:TrackPointExtension>
        </extensions>
      </trkpt>
      <trkpt lat="42.51567204482853412628173828125" lon="19.902621544897556304931640625">
        <ele>1969</ele>
        <time>2026-06-17T11:27:35.000Z</time>
        <extensions>
          <ns3:TrackPointExtension>
            <ns3:atemp>17.0</ns3:atemp>
          </ns3:TrackPointExtension>
        </extensions>
      </trkpt>
      <trkpt lat="42.51567204482853412628173828125" lon="19.902621544897556304931640625">
        <ele>1969</ele>
        <time>2026-06-17T11:27:36.000Z</time>
        <extensions>
          <ns3:TrackPointExtension>
            <ns3:atemp>17.0</ns3:atemp>
          </ns3:TrackPointExtension>
        </extensions>
      </trkpt>
      <trkpt lat="42.51567204482853412628173828125" lon="19.902621544897556304931640625">
        <ele>1969</ele>
        <time>2026-06-17T11:27:37.000Z</time>
        <extensions>
          <ns3:TrackPointExtension>
            <ns3:atemp>17.0</ns3:atemp>
          </ns3:TrackPointExtension>
        </extensions>
      </trkpt>
      <trkpt lat="42.515676654875278472900390625" lon="19.90261056460440158843994140625">
        <ele>1969</ele>
        <time>2026-06-17T11:27:38.000Z</time>
        <extensions>
          <ns3:TrackPointExtension>
            <ns3:atemp>17.0</ns3:atemp>
          </ns3:TrackPointExtension>
        </extensions>
      </trkpt>
      <trkpt lat="42.51568428240716457366943359375" lon="19.90259363315999507904052734375">
        <ele>1969</ele>
        <time>2026-06-17T11:27:39.000Z</time>
        <extensions>
          <ns3:TrackPointExtension>
            <ns3:atemp>17.0</ns3:atemp>
          </ns3:TrackPointExtension>
        </extensions>
      </trkpt>
      <trkpt lat="42.5156852044165134429931640625" lon="19.90257619880139827728271484375">
        <ele>1968.800048828125</ele>
        <time>2026-06-17T11:27:40.000Z</time>
        <extensions>
          <ns3:TrackPointExtension>
            <ns3:atemp>17.0</ns3:atemp>
          </ns3:TrackPointExtension>
        </extensions>
      </trkpt>
      <trkpt lat="42.5156862102448940277099609375" lon="19.90255759097635746002197265625">
        <ele>1968.800048828125</ele>
        <time>2026-06-17T11:27:41.000Z</time>
        <extensions>
          <ns3:TrackPointExtension>
            <ns3:atemp>17.0</ns3:atemp>
          </ns3:TrackPointExtension>
        </extensions>
      </trkpt>
      <trkpt lat="42.51569316722452640533447265625" lon="19.9025355465710163116455078125">
        <ele>1968.5999755859375</ele>
        <time>2026-06-17T11:27:42.000Z</time>
        <extensions>
          <ns3:TrackPointExtension>
            <ns3:atemp>17.0</ns3:atemp>
          </ns3:TrackPointExtension>
        </extensions>
      </trkpt>
      <trkpt lat="42.5157002918422222137451171875" lon="19.90250579081475734710693359375">
        <ele>1968.4000244140625</ele>
        <time>2026-06-17T11:27:43.000Z</time>
        <extensions>
          <ns3:TrackPointExtension>
            <ns3:atemp>17.0</ns3:atemp>
          </ns3:TrackPointExtension>
        </extensions>
      </trkpt>
      <trkpt lat="42.5157059915363788604736328125" lon="19.90246706642210483551025390625">
        <ele>1968.4000244140625</ele>
        <time>2026-06-17T11:27:44.000Z</time>
        <extensions>
          <ns3:TrackPointExtension>
            <ns3:atemp>17.0</ns3:atemp>
          </ns3:TrackPointExtension>
        </extensions>
      </trkpt>
      <trkpt lat="42.5157056562602519989013671875" lon="19.902425073087215423583984375">
        <ele>1968.199951171875</ele>
        <time>2026-06-17T11:27:45.000Z</time>
        <extensions>
          <ns3:TrackPointExtension>
            <ns3:atemp>17.0</ns3:atemp>
          </ns3:TrackPointExtension>
        </extensions>
      </trkpt>
      <trkpt lat="42.51570783555507659912109375" lon="19.9023856781423091888427734375">
        <ele>1968</ele>
        <time>2026-06-17T11:27:46.000Z</time>
        <extensions>
          <ns3:TrackPointExtension>
            <ns3:atemp>17.0</ns3:atemp>
          </ns3:TrackPointExtension>
        </extensions>
      </trkpt>
      <trkpt lat="42.51570783555507659912109375" lon="19.902347624301910400390625">
        <ele>1967.800048828125</ele>
        <time>2026-06-17T11:27:47.000Z</time>
        <extensions>
          <ns3:TrackPointExtension>
            <ns3:atemp>17.0</ns3:atemp>
          </ns3:TrackPointExtension>
        </extensions>
      </trkpt>
      <trkpt lat="42.51571026630699634552001953125" lon="19.90231476724147796630859375">
        <ele>1967.800048828125</ele>
        <time>2026-06-17T11:27:48.000Z</time>
        <extensions>
          <ns3:TrackPointExtension>
            <ns3:atemp>17.0</ns3:atemp>
          </ns3:TrackPointExtension>
        </extensions>
      </trkpt>
      <trkpt lat="42.51571563072502613067626953125" lon="19.90228484384715557098388671875">
        <ele>1967.5999755859375</ele>
        <time>2026-06-17T11:27:49.000Z</time>
        <extensions>
          <ns3:TrackPointExtension>
            <ns3:atemp>17.0</ns3:atemp>
          </ns3:TrackPointExtension>
        </extensions>
      </trkpt>
      <trkpt lat="42.515720240771770477294921875" lon="19.90225047804415225982666015625">
        <ele>1967.5999755859375</ele>
        <time>2026-06-17T11:27:50.000Z</time>
        <extensions>
          <ns3:TrackPointExtension>
            <ns3:atemp>17.0</ns3:atemp>
          </ns3:TrackPointExtension>
        </extensions>
      </trkpt>
      <trkpt lat="42.51572418026626110076904296875" lon="19.90221083164215087890625">
        <ele>1967.4000244140625</ele>
        <time>2026-06-17T11:27:51.000Z</time>
        <extensions>
          <ns3:TrackPointExtension>
            <ns3:atemp>17.0</ns3:atemp>
          </ns3:TrackPointExtension>
        </extensions>
      </trkpt>
      <trkpt lat="42.51572820357978343963623046875" lon="19.90216582082211971282958984375">
        <ele>1967.199951171875</ele>
        <time>2026-06-17T11:27:52.000Z</time>
        <extensions>
          <ns3:TrackPointExtension>
            <ns3:atemp>17.0</ns3:atemp>
          </ns3:TrackPointExtension>
        </extensions>
      </trkpt>
      <trkpt lat="42.51573038287460803985595703125" lon="19.90211552940309047698974609375">
        <ele>1967</ele>
        <time>2026-06-17T11:27:53.000Z</time>
        <extensions>
          <ns3:TrackPointExtension>
            <ns3:atemp>17.0</ns3:atemp>
          </ns3:TrackPointExtension>
        </extensions>
      </trkpt>
      <trkpt lat="42.515727616846561431884765625" lon="19.90207445807754993438720703125">
        <ele>1967</ele>
        <time>2026-06-17T11:27:54.000Z</time>
        <extensions>
          <ns3:TrackPointExtension>
            <ns3:atemp>17.0</ns3:atemp>
          </ns3:TrackPointExtension>
        </extensions>
      </trkpt>
      <trkpt lat="42.51572736538946628570556640625" lon="19.90203849971294403076171875">
        <ele>1966.800048828125</ele>
        <time>2026-06-17T11:27:55.000Z</time>
        <extensions>
          <ns3:TrackPointExtension>
            <ns3:atemp>17.0</ns3:atemp>
          </ns3:TrackPointExtension>
        </extensions>
      </trkpt>
      <trkpt lat="42.5157277844846248626708984375" lon="19.902012012898921966552734375">
        <ele>1966.800048828125</ele>
        <time>2026-06-17T11:27:56.000Z</time>
        <extensions>
          <ns3:TrackPointExtension>
            <ns3:atemp>17.0</ns3:atemp>
          </ns3:TrackPointExtension>
        </extensions>
      </trkpt>
      <trkpt lat="42.51572853885591030120849609375" lon="19.9019880406558513641357421875">
        <ele>1966.800048828125</ele>
        <time>2026-06-17T11:27:57.000Z</time>
        <extensions>
          <ns3:TrackPointExtension>
            <ns3:atemp>17.0</ns3:atemp>
          </ns3:TrackPointExtension>
        </extensions>
      </trkpt>
      <trkpt lat="42.5157361663877964019775390625" lon="19.90196683444082736968994140625">
        <ele>1967</ele>
        <time>2026-06-17T11:27:58.000Z</time>
        <extensions>
          <ns3:TrackPointExtension>
            <ns3:atemp>17.0</ns3:atemp>
          </ns3:TrackPointExtension>
        </extensions>
      </trkpt>
      <trkpt lat="42.51574463210999965667724609375" lon="19.9019444547593593597412109375">
        <ele>1967</ele>
        <time>2026-06-17T11:27:59.000Z</time>
        <extensions>
          <ns3:TrackPointExtension>
            <ns3:atemp>17.0</ns3:atemp>
          </ns3:TrackPointExtension>
        </extensions>
      </trkpt>
      <trkpt lat="42.51575401984155178070068359375" lon="19.90190975368022918701171875">
        <ele>1967</ele>
        <time>2026-06-17T11:28:00.000Z</time>
        <extensions>
          <ns3:TrackPointExtension>
            <ns3:atemp>17.0</ns3:atemp>
          </ns3:TrackPointExtension>
        </extensions>
      </trkpt>
      <trkpt lat="42.5157650001347064971923828125" lon="19.90187346003949642181396484375">
        <ele>1967</ele>
        <time>2026-06-17T11:28:01.000Z</time>
        <extensions>
          <ns3:TrackPointExtension>
            <ns3:atemp>17.0</ns3:atemp>
          </ns3:TrackPointExtension>
        </extensions>
      </trkpt>
      <trkpt lat="42.5157723762094974517822265625" lon="19.901853092014789581298828125">
        <ele>1967.199951171875</ele>
        <time>2026-06-17T11:28:02.000Z</time>
        <extensions>
          <ns3:TrackPointExtension>
            <ns3:atemp>17.0</ns3:atemp>
          </ns3:TrackPointExtension>
        </extensions>
      </trkpt>
      <trkpt lat="42.5157787464559078216552734375" lon="19.9018375016748905181884765625">
        <ele>1967.199951171875</ele>
        <time>2026-06-17T11:28:03.000Z</time>
        <extensions>
          <ns3:TrackPointExtension>
            <ns3:atemp>17.0</ns3:atemp>
          </ns3:TrackPointExtension>
        </extensions>
      </trkpt>
      <trkpt lat="42.515788972377777099609375" lon="19.90181964822113513946533203125">
        <ele>1967.199951171875</ele>
        <time>2026-06-17T11:28:04.000Z</time>
        <extensions>
          <ns3:TrackPointExtension>
            <ns3:atemp>17.0</ns3:atemp>
          </ns3:TrackPointExtension>
        </extensions>
      </trkpt>
      <trkpt lat="42.5157916545867919921875" lon="19.9017976038157939910888671875">
        <ele>1967.4000244140625</ele>
        <time>2026-06-17T11:28:05.000Z</time>
        <extensions>
          <ns3:TrackPointExtension>
            <ns3:atemp>17.0</ns3:atemp>
          </ns3:TrackPointExtension>
        </extensions>
      </trkpt>
      <trkpt lat="42.51578939147293567657470703125" lon="19.90177673287689685821533203125">
        <ele>1967.5999755859375</ele>
        <time>2026-06-17T11:28:06.000Z</time>
        <extensions>
          <ns3:TrackPointExtension>
            <ns3:atemp>17.0</ns3:atemp>
          </ns3:TrackPointExtension>
        </extensions>
      </trkpt>
      <trkpt lat="42.51579224132001399993896484375" lon="19.901753850281238555908203125">
        <ele>1967.5999755859375</ele>
        <time>2026-06-17T11:28:07.000Z</time>
        <extensions>
          <ns3:TrackPointExtension>
            <ns3:atemp>17.0</ns3:atemp>
          </ns3:TrackPointExtension>
        </extensions>
      </trkpt>
      <trkpt lat="42.5157965160906314849853515625" lon="19.9017369188368320465087890625">
        <ele>1967.800048828125</ele>
        <time>2026-06-17T11:28:08.000Z</time>
        <extensions>
          <ns3:TrackPointExtension>
            <ns3:atemp>17.0</ns3:atemp>
          </ns3:TrackPointExtension>
        </extensions>
      </trkpt>
      <trkpt lat="42.5158015452325344085693359375" lon="19.90173683501780033111572265625">
        <ele>1968</ele>
        <time>2026-06-17T11:28:09.000Z</time>
        <extensions>
          <ns3:TrackPointExtension>
            <ns3:atemp>17.0</ns3:atemp>
          </ns3:TrackPointExtension>
        </extensions>
      </trkpt>
      <trkpt lat="42.51580364070832729339599609375" lon="19.901736415922641754150390625">
        <ele>1968.199951171875</ele>
        <time>2026-06-17T11:28:10.000Z</time>
        <extensions>
          <ns3:TrackPointExtension>
            <ns3:atemp>17.0</ns3:atemp>
          </ns3:TrackPointExtension>
        </extensions>
      </trkpt>
      <trkpt lat="42.5158035568892955780029296875" lon="19.901736415922641754150390625">
        <ele>1968.199951171875</ele>
        <time>2026-06-17T11:28:11.000Z</time>
        <extensions>
          <ns3:TrackPointExtension>
            <ns3:atemp>17.0</ns3:atemp>
          </ns3:TrackPointExtension>
        </extensions>
      </trkpt>
      <trkpt lat="42.5158035568892955780029296875" lon="19.901736415922641754150390625">
        <ele>1968.4000244140625</ele>
        <time>2026-06-17T11:28:12.000Z</time>
        <extensions>
          <ns3:TrackPointExtension>
            <ns3:atemp>17.0</ns3:atemp>
          </ns3:TrackPointExtension>
        </extensions>
      </trkpt>
      <trkpt lat="42.5158035568892955780029296875" lon="19.901736415922641754150390625">
        <ele>1968.4000244140625</ele>
        <time>2026-06-17T11:28:13.000Z</time>
        <extensions>
          <ns3:TrackPointExtension>
            <ns3:atemp>17.0</ns3:atemp>
          </ns3:TrackPointExtension>
        </extensions>
      </trkpt>
      <trkpt lat="42.5158035568892955780029296875" lon="19.901736415922641754150390625">
        <ele>1968.4000244140625</ele>
        <time>2026-06-17T11:28:14.000Z</time>
        <extensions>
          <ns3:TrackPointExtension>
            <ns3:atemp>17.0</ns3:atemp>
          </ns3:TrackPointExtension>
        </extensions>
      </trkpt>
      <trkpt lat="42.5158035568892955780029296875" lon="19.901736415922641754150390625">
        <ele>1968.4000244140625</ele>
        <time>2026-06-17T11:28:15.000Z</time>
        <extensions>
          <ns3:TrackPointExtension>
            <ns3:atemp>17.0</ns3:atemp>
          </ns3:TrackPointExtension>
        </extensions>
      </trkpt>
      <trkpt lat="42.5158035568892955780029296875" lon="19.901736415922641754150390625">
        <ele>1968.5999755859375</ele>
        <time>2026-06-17T11:28:16.000Z</time>
        <extensions>
          <ns3:TrackPointExtension>
            <ns3:atemp>17.0</ns3:atemp>
          </ns3:TrackPointExtension>
        </extensions>
      </trkpt>
      <trkpt lat="42.5158035568892955780029296875" lon="19.901736415922641754150390625">
        <ele>1968.5999755859375</ele>
        <time>2026-06-17T11:28:17.000Z</time>
        <extensions>
          <ns3:TrackPointExtension>
            <ns3:atemp>17.0</ns3:atemp>
          </ns3:TrackPointExtension>
        </extensions>
      </trkpt>
      <trkpt lat="42.5158035568892955780029296875" lon="19.901736415922641754150390625">
        <ele>1968.4000244140625</ele>
        <time>2026-06-17T11:28:18.000Z</time>
        <extensions>
          <ns3:TrackPointExtension>
            <ns3:atemp>17.0</ns3:atemp>
          </ns3:TrackPointExtension>
        </extensions>
      </trkpt>
      <trkpt lat="42.5158035568892955780029296875" lon="19.901736415922641754150390625">
        <ele>1968.4000244140625</ele>
        <time>2026-06-17T11:28:19.000Z</time>
        <extensions>
          <ns3:TrackPointExtension>
            <ns3:atemp>17.0</ns3:atemp>
          </ns3:TrackPointExtension>
        </extensions>
      </trkpt>
      <trkpt lat="42.5158035568892955780029296875" lon="19.901736415922641754150390625">
        <ele>1968.4000244140625</ele>
        <time>2026-06-17T11:28:20.000Z</time>
        <extensions>
          <ns3:TrackPointExtension>
            <ns3:atemp>17.0</ns3:atemp>
          </ns3:TrackPointExtension>
        </extensions>
      </trkpt>
      <trkpt lat="42.5158035568892955780029296875" lon="19.901736415922641754150390625">
        <ele>1968.4000244140625</ele>
        <time>2026-06-17T11:28:21.000Z</time>
        <extensions>
          <ns3:TrackPointExtension>
            <ns3:atemp>17.0</ns3:atemp>
          </ns3:TrackPointExtension>
        </extensions>
      </trkpt>
      <trkpt lat="42.5158035568892955780029296875" lon="19.901736415922641754150390625">
        <ele>1968.4000244140625</ele>
        <time>2026-06-17T11:28:22.000Z</time>
        <extensions>
          <ns3:TrackPointExtension>
            <ns3:atemp>17.0</ns3:atemp>
          </ns3:TrackPointExtension>
        </extensions>
      </trkpt>
      <trkpt lat="42.5158035568892955780029296875" lon="19.901736415922641754150390625">
        <ele>1968.4000244140625</ele>
        <time>2026-06-17T11:28:23.000Z</time>
        <extensions>
          <ns3:TrackPointExtension>
            <ns3:atemp>17.0</ns3:atemp>
          </ns3:TrackPointExtension>
        </extensions>
      </trkpt>
      <trkpt lat="42.5158035568892955780029296875" lon="19.901736415922641754150390625">
        <ele>1968.4000244140625</ele>
        <time>2026-06-17T11:28:24.000Z</time>
        <extensions>
          <ns3:TrackPointExtension>
            <ns3:atemp>17.0</ns3:atemp>
          </ns3:TrackPointExtension>
        </extensions>
      </trkpt>
      <trkpt lat="42.5158035568892955780029296875" lon="19.901736415922641754150390625">
        <ele>1968.4000244140625</ele>
        <time>2026-06-17T11:28:25.000Z</time>
        <extensions>
          <ns3:TrackPointExtension>
            <ns3:atemp>17.0</ns3:atemp>
          </ns3:TrackPointExtension>
        </extensions>
      </trkpt>
      <trkpt lat="42.5158035568892955780029296875" lon="19.901736415922641754150390625">
        <ele>1968.4000244140625</ele>
        <time>2026-06-17T11:28:26.000Z</time>
        <extensions>
          <ns3:TrackPointExtension>
            <ns3:atemp>17.0</ns3:atemp>
          </ns3:TrackPointExtension>
        </extensions>
      </trkpt>
      <trkpt lat="42.5158035568892955780029296875" lon="19.901736415922641754150390625">
        <ele>1968.4000244140625</ele>
        <time>2026-06-17T11:28:27.000Z</time>
        <extensions>
          <ns3:TrackPointExtension>
            <ns3:atemp>17.0</ns3:atemp>
          </ns3:TrackPointExtension>
        </extensions>
      </trkpt>
      <trkpt lat="42.5158035568892955780029296875" lon="19.901736415922641754150390625">
        <ele>1968.4000244140625</ele>
        <time>2026-06-17T11:28:28.000Z</time>
        <extensions>
          <ns3:TrackPointExtension>
            <ns3:atemp>17.0</ns3:atemp>
          </ns3:TrackPointExtension>
        </extensions>
      </trkpt>
      <trkpt lat="42.5158035568892955780029296875" lon="19.901736415922641754150390625">
        <ele>1968.4000244140625</ele>
        <time>2026-06-17T11:28:29.000Z</time>
        <extensions>
          <ns3:TrackPointExtension>
            <ns3:atemp>17.0</ns3:atemp>
          </ns3:TrackPointExtension>
        </extensions>
      </trkpt>
      <trkpt lat="42.5158035568892955780029296875" lon="19.901736415922641754150390625">
        <ele>1968.4000244140625</ele>
        <time>2026-06-17T11:28:30.000Z</time>
        <extensions>
          <ns3:TrackPointExtension>
            <ns3:atemp>17.0</ns3:atemp>
          </ns3:TrackPointExtension>
        </extensions>
      </trkpt>
      <trkpt lat="42.5158035568892955780029296875" lon="19.901736415922641754150390625">
        <ele>1968.199951171875</ele>
        <time>2026-06-17T11:28:31.000Z</time>
        <extensions>
          <ns3:TrackPointExtension>
            <ns3:atemp>17.0</ns3:atemp>
          </ns3:TrackPointExtension>
        </extensions>
      </trkpt>
      <trkpt lat="42.5158035568892955780029296875" lon="19.901736415922641754150390625">
        <ele>1968.199951171875</ele>
        <time>2026-06-17T11:28:32.000Z</time>
        <extensions>
          <ns3:TrackPointExtension>
            <ns3:atemp>17.0</ns3:atemp>
          </ns3:TrackPointExtension>
        </extensions>
      </trkpt>
      <trkpt lat="42.5158035568892955780029296875" lon="19.901736415922641754150390625">
        <ele>1968.199951171875</ele>
        <time>2026-06-17T11:28:33.000Z</time>
        <extensions>
          <ns3:TrackPointExtension>
            <ns3:atemp>17.0</ns3:atemp>
          </ns3:TrackPointExtension>
        </extensions>
      </trkpt>
      <trkpt lat="42.51580196432769298553466796875" lon="19.9017325602471828460693359375">
        <ele>1968.199951171875</ele>
        <time>2026-06-17T11:28:34.000Z</time>
        <extensions>
          <ns3:TrackPointExtension>
            <ns3:atemp>17.0</ns3:atemp>
          </ns3:TrackPointExtension>
        </extensions>
      </trkpt>
      <trkpt lat="42.51580179668962955474853515625" lon="19.90171453915536403656005859375">
        <ele>1968.199951171875</ele>
        <time>2026-06-17T11:28:35.000Z</time>
        <extensions>
          <ns3:TrackPointExtension>
            <ns3:atemp>17.0</ns3:atemp>
          </ns3:TrackPointExtension>
        </extensions>
      </trkpt>
      <trkpt lat="42.51580565236508846282958984375" lon="19.90170498378574848175048828125">
        <ele>1968.199951171875</ele>
        <time>2026-06-17T11:28:36.000Z</time>
        <extensions>
          <ns3:TrackPointExtension>
            <ns3:atemp>17.0</ns3:atemp>
          </ns3:TrackPointExtension>
        </extensions>
      </trkpt>
      <trkpt lat="42.515808753669261932373046875" lon="19.90168956108391284942626953125">
        <ele>1968.199951171875</ele>
        <time>2026-06-17T11:28:37.000Z</time>
        <extensions>
          <ns3:TrackPointExtension>
            <ns3:atemp>17.0</ns3:atemp>
          </ns3:TrackPointExtension>
        </extensions>
      </trkpt>
      <trkpt lat="42.51581436954438686370849609375" lon="19.90166030824184417724609375">
        <ele>1968.199951171875</ele>
        <time>2026-06-17T11:28:38.000Z</time>
        <extensions>
          <ns3:TrackPointExtension>
            <ns3:atemp>17.0</ns3:atemp>
          </ns3:TrackPointExtension>
        </extensions>
      </trkpt>
      <trkpt lat="42.51582090742886066436767578125" lon="19.9016286246478557586669921875">
        <ele>1968.199951171875</ele>
        <time>2026-06-17T11:28:39.000Z</time>
        <extensions>
          <ns3:TrackPointExtension>
            <ns3:atemp>17.0</ns3:atemp>
          </ns3:TrackPointExtension>
        </extensions>
      </trkpt>
      <trkpt lat="42.515828199684619903564453125" lon="19.9016054905951023101806640625">
        <ele>1968.199951171875</ele>
        <time>2026-06-17T11:28:40.000Z</time>
        <extensions>
          <ns3:TrackPointExtension>
            <ns3:atemp>17.0</ns3:atemp>
          </ns3:TrackPointExtension>
        </extensions>
      </trkpt>
      <trkpt lat="42.5158377550542354583740234375" lon="19.9015786685049533843994140625">
        <ele>1968.199951171875</ele>
        <time>2026-06-17T11:28:41.000Z</time>
        <extensions>
          <ns3:TrackPointExtension>
            <ns3:atemp>17.0</ns3:atemp>
          </ns3:TrackPointExtension>
        </extensions>
      </trkpt>
      <trkpt lat="42.515847645699977874755859375" lon="19.90155570209026336669921875">
        <ele>1968.199951171875</ele>
        <time>2026-06-17T11:28:42.000Z</time>
        <extensions>
          <ns3:TrackPointExtension>
            <ns3:atemp>17.0</ns3:atemp>
          </ns3:TrackPointExtension>
        </extensions>
      </trkpt>
      <trkpt lat="42.51585694961249828338623046875" lon="19.9015283770859241485595703125">
        <ele>1968.4000244140625</ele>
        <time>2026-06-17T11:28:43.000Z</time>
        <extensions>
          <ns3:TrackPointExtension>
            <ns3:atemp>17.0</ns3:atemp>
          </ns3:TrackPointExtension>
        </extensions>
      </trkpt>
      <trkpt lat="42.51586608588695526123046875" lon="19.9014935083687305450439453125">
        <ele>1968.4000244140625</ele>
        <time>2026-06-17T11:28:44.000Z</time>
        <extensions>
          <ns3:TrackPointExtension>
            <ns3:atemp>17.0</ns3:atemp>
          </ns3:TrackPointExtension>
        </extensions>
      </trkpt>
      <trkpt lat="42.51587606035172939300537109375" lon="19.90145687945187091827392578125">
        <ele>1968.4000244140625</ele>
        <time>2026-06-17T11:28:45.000Z</time>
        <extensions>
          <ns3:TrackPointExtension>
            <ns3:atemp>17.0</ns3:atemp>
          </ns3:TrackPointExtension>
        </extensions>
      </trkpt>
      <trkpt lat="42.51588611863553524017333984375" lon="19.90142351947724819183349609375">
        <ele>1968.4000244140625</ele>
        <time>2026-06-17T11:28:46.000Z</time>
        <extensions>
          <ns3:TrackPointExtension>
            <ns3:atemp>17.0</ns3:atemp>
          </ns3:TrackPointExtension>
        </extensions>
      </trkpt>
      <trkpt lat="42.5158910639584064483642578125" lon="19.90138948895037174224853515625">
        <ele>1968.5999755859375</ele>
        <time>2026-06-17T11:28:47.000Z</time>
        <extensions>
          <ns3:TrackPointExtension>
            <ns3:atemp>17.0</ns3:atemp>
          </ns3:TrackPointExtension>
        </extensions>
      </trkpt>
      <trkpt lat="42.51590003259479999542236328125" lon="19.90135814063251018524169921875">
        <ele>1968.800048828125</ele>
        <time>2026-06-17T11:28:48.000Z</time>
        <extensions>
          <ns3:TrackPointExtension>
            <ns3:atemp>17.0</ns3:atemp>
          </ns3:TrackPointExtension>
        </extensions>
      </trkpt>
      <trkpt lat="42.515907995402812957763671875" lon="19.9013278819620609283447265625">
        <ele>1969</ele>
        <time>2026-06-17T11:28:49.000Z</time>
        <extensions>
          <ns3:TrackPointExtension>
            <ns3:atemp>17.0</ns3:atemp>
          </ns3:TrackPointExtension>
        </extensions>
      </trkpt>
      <trkpt lat="42.51592098735272884368896484375" lon="19.90129896439611911773681640625">
        <ele>1969.199951171875</ele>
        <time>2026-06-17T11:28:50.000Z</time>
        <extensions>
          <ns3:TrackPointExtension>
            <ns3:atemp>17.0</ns3:atemp>
          </ns3:TrackPointExtension>
        </extensions>
      </trkpt>
      <trkpt lat="42.51593448221683502197265625" lon="19.9012680351734161376953125">
        <ele>1969.4000244140625</ele>
        <time>2026-06-17T11:28:51.000Z</time>
        <extensions>
          <ns3:TrackPointExtension>
            <ns3:atemp>17.0</ns3:atemp>
          </ns3:TrackPointExtension>
        </extensions>
      </trkpt>
      <trkpt lat="42.5159470550715923309326171875" lon="19.9012299813330173492431640625">
        <ele>1969.4000244140625</ele>
        <time>2026-06-17T11:28:52.000Z</time>
        <extensions>
          <ns3:TrackPointExtension>
            <ns3:atemp>17.0</ns3:atemp>
          </ns3:TrackPointExtension>
        </extensions>
      </trkpt>
      <trkpt lat="42.51595082692801952362060546875" lon="19.90119083784520626068115234375">
        <ele>1969.4000244140625</ele>
        <time>2026-06-17T11:28:53.000Z</time>
        <extensions>
          <ns3:TrackPointExtension>
            <ns3:atemp>17.0</ns3:atemp>
          </ns3:TrackPointExtension>
        </extensions>
      </trkpt>
      <trkpt lat="42.5159490667283535003662109375" lon="19.90116334520280361175537109375">
        <ele>1969.5999755859375</ele>
        <time>2026-06-17T11:28:54.000Z</time>
        <extensions>
          <ns3:TrackPointExtension>
            <ns3:atemp>17.0</ns3:atemp>
          </ns3:TrackPointExtension>
        </extensions>
      </trkpt>
      <trkpt lat="42.51595568843185901641845703125" lon="19.9011433124542236328125">
        <ele>1969.800048828125</ele>
        <time>2026-06-17T11:28:55.000Z</time>
        <extensions>
          <ns3:TrackPointExtension>
            <ns3:atemp>17.0</ns3:atemp>
          </ns3:TrackPointExtension>
        </extensions>
      </trkpt>
      <trkpt lat="42.51595468260347843170166015625" lon="19.90113903768360614776611328125">
        <ele>1970</ele>
        <time>2026-06-17T11:28:56.000Z</time>
        <extensions>
          <ns3:TrackPointExtension>
            <ns3:atemp>17.0</ns3:atemp>
          </ns3:TrackPointExtension>
        </extensions>
      </trkpt>
      <trkpt lat="42.51595468260347843170166015625" lon="19.901138953864574432373046875">
        <ele>1970.199951171875</ele>
        <time>2026-06-17T11:28:57.000Z</time>
        <extensions>
          <ns3:TrackPointExtension>
            <ns3:atemp>17.0</ns3:atemp>
          </ns3:TrackPointExtension>
        </extensions>
      </trkpt>
      <trkpt lat="42.5159634836018085479736328125" lon="19.90112562663853168487548828125">
        <ele>1970.4000244140625</ele>
        <time>2026-06-17T11:28:58.000Z</time>
        <extensions>
          <ns3:TrackPointExtension>
            <ns3:atemp>17.0</ns3:atemp>
          </ns3:TrackPointExtension>
        </extensions>
      </trkpt>
      <trkpt lat="42.51596960239112377166748046875" lon="19.90111447870731353759765625">
        <ele>1970.5999755859375</ele>
        <time>2026-06-17T11:28:59.000Z</time>
        <extensions>
          <ns3:TrackPointExtension>
            <ns3:atemp>17.0</ns3:atemp>
          </ns3:TrackPointExtension>
        </extensions>
      </trkpt>
      <trkpt lat="42.5159725360572338104248046875" lon="19.901100061833858489990234375">
        <ele>1970.5999755859375</ele>
        <time>2026-06-17T11:29:00.000Z</time>
        <extensions>
          <ns3:TrackPointExtension>
            <ns3:atemp>17.0</ns3:atemp>
          </ns3:TrackPointExtension>
        </extensions>
      </trkpt>
      <trkpt lat="42.51597605645656585693359375" lon="19.9010915122926235198974609375">
        <ele>1970.5999755859375</ele>
        <time>2026-06-17T11:29:01.000Z</time>
        <extensions>
          <ns3:TrackPointExtension>
            <ns3:atemp>17.0</ns3:atemp>
          </ns3:TrackPointExtension>
        </extensions>
      </trkpt>
      <trkpt lat="42.51597714610397815704345703125" lon="19.90107365883886814117431640625">
        <ele>1970.5999755859375</ele>
        <time>2026-06-17T11:29:02.000Z</time>
        <extensions>
          <ns3:TrackPointExtension>
            <ns3:atemp>17.0</ns3:atemp>
          </ns3:TrackPointExtension>
        </extensions>
      </trkpt>
      <trkpt lat="42.5159772299230098724365234375" lon="19.901051782071590423583984375">
        <ele>1970.800048828125</ele>
        <time>2026-06-17T11:29:03.000Z</time>
        <extensions>
          <ns3:TrackPointExtension>
            <ns3:atemp>17.0</ns3:atemp>
          </ns3:TrackPointExtension>
        </extensions>
      </trkpt>
      <trkpt lat="42.5159869529306888580322265625" lon="19.90102387033402919769287109375">
        <ele>1970.800048828125</ele>
        <time>2026-06-17T11:29:04.000Z</time>
        <extensions>
          <ns3:TrackPointExtension>
            <ns3:atemp>17.0</ns3:atemp>
          </ns3:TrackPointExtension>
        </extensions>
      </trkpt>
      <trkpt lat="42.5159973464906215667724609375" lon="19.90099118091166019439697265625">
        <ele>1970.800048828125</ele>
        <time>2026-06-17T11:29:05.000Z</time>
        <extensions>
          <ns3:TrackPointExtension>
            <ns3:atemp>17.0</ns3:atemp>
          </ns3:TrackPointExtension>
        </extensions>
      </trkpt>
      <trkpt lat="42.516001202166080474853515625" lon="19.90096653811633586883544921875">
        <ele>1971</ele>
        <time>2026-06-17T11:29:06.000Z</time>
        <extensions>
          <ns3:TrackPointExtension>
            <ns3:atemp>17.0</ns3:atemp>
          </ns3:TrackPointExtension>
        </extensions>
      </trkpt>
      <trkpt lat="42.51600648276507854461669921875" lon="19.900945164263248443603515625">
        <ele>1971.199951171875</ele>
        <time>2026-06-17T11:29:07.000Z</time>
        <extensions>
          <ns3:TrackPointExtension>
            <ns3:atemp>17.0</ns3:atemp>
          </ns3:TrackPointExtension>
        </extensions>
      </trkpt>
      <trkpt lat="42.51601369120180606842041015625" lon="19.90092563442885875701904296875">
        <ele>1971.4000244140625</ele>
        <time>2026-06-17T11:29:08.000Z</time>
        <extensions>
          <ns3:TrackPointExtension>
            <ns3:atemp>17.0</ns3:atemp>
          </ns3:TrackPointExtension>
        </extensions>
      </trkpt>
      <trkpt lat="42.5160161219537258148193359375" lon="19.90090535022318363189697265625">
        <ele>1971.800048828125</ele>
        <time>2026-06-17T11:29:09.000Z</time>
        <extensions>
          <ns3:TrackPointExtension>
            <ns3:atemp>17.0</ns3:atemp>
          </ns3:TrackPointExtension>
        </extensions>
      </trkpt>
      <trkpt lat="42.5160177983343601226806640625" lon="19.90087232552468776702880859375">
        <ele>1972</ele>
        <time>2026-06-17T11:29:10.000Z</time>
        <extensions>
          <ns3:TrackPointExtension>
            <ns3:atemp>17.0</ns3:atemp>
          </ns3:TrackPointExtension>
        </extensions>
      </trkpt>
      <trkpt lat="42.51602542586624622344970703125" lon="19.9008474312722682952880859375">
        <ele>1972.4000244140625</ele>
        <time>2026-06-17T11:29:11.000Z</time>
        <extensions>
          <ns3:TrackPointExtension>
            <ns3:atemp>17.0</ns3:atemp>
          </ns3:TrackPointExtension>
        </extensions>
      </trkpt>
      <trkpt lat="42.5160352326929569244384765625" lon="19.90081901662051677703857421875">
        <ele>1972.800048828125</ele>
        <time>2026-06-17T11:29:12.000Z</time>
        <extensions>
          <ns3:TrackPointExtension>
            <ns3:atemp>17.0</ns3:atemp>
          </ns3:TrackPointExtension>
        </extensions>
      </trkpt>
      <trkpt lat="42.5160385854542255401611328125" lon="19.9007959663867950439453125">
        <ele>1973</ele>
        <time>2026-06-17T11:29:13.000Z</time>
        <extensions>
          <ns3:TrackPointExtension>
            <ns3:atemp>17.0</ns3:atemp>
          </ns3:TrackPointExtension>
        </extensions>
      </trkpt>
      <trkpt lat="42.51604269258677959442138671875" lon="19.90076755173504352569580078125">
        <ele>1973.4000244140625</ele>
        <time>2026-06-17T11:29:14.000Z</time>
        <extensions>
          <ns3:TrackPointExtension>
            <ns3:atemp>17.0</ns3:atemp>
          </ns3:TrackPointExtension>
        </extensions>
      </trkpt>
      <trkpt lat="42.51604579389095306396484375" lon="19.900738634169101715087890625">
        <ele>1973.800048828125</ele>
        <time>2026-06-17T11:29:15.000Z</time>
        <extensions>
          <ns3:TrackPointExtension>
            <ns3:atemp>17.0</ns3:atemp>
          </ns3:TrackPointExtension>
        </extensions>
      </trkpt>
      <trkpt lat="42.5160466320812702178955078125" lon="19.90071122534573078155517578125">
        <ele>1974.199951171875</ele>
        <time>2026-06-17T11:29:16.000Z</time>
        <extensions>
          <ns3:TrackPointExtension>
            <ns3:atemp>17.0</ns3:atemp>
          </ns3:TrackPointExtension>
        </extensions>
      </trkpt>
      <trkpt lat="42.5160466320812702178955078125" lon="19.900682307779788970947265625">
        <ele>1974.5999755859375</ele>
        <time>2026-06-17T11:29:17.000Z</time>
        <extensions>
          <ns3:TrackPointExtension>
            <ns3:atemp>17.0</ns3:atemp>
          </ns3:TrackPointExtension>
        </extensions>
      </trkpt>
      <trkpt lat="42.5160429440438747406005859375" lon="19.9006564915180206298828125">
        <ele>1975</ele>
        <time>2026-06-17T11:29:18.000Z</time>
        <extensions>
          <ns3:TrackPointExtension>
            <ns3:atemp>17.0</ns3:atemp>
          </ns3:TrackPointExtension>
        </extensions>
      </trkpt>
      <trkpt lat="42.51604068093001842498779296875" lon="19.90063193254172801971435546875">
        <ele>1975.4000244140625</ele>
        <time>2026-06-17T11:29:19.000Z</time>
        <extensions>
          <ns3:TrackPointExtension>
            <ns3:atemp>17.0</ns3:atemp>
          </ns3:TrackPointExtension>
        </extensions>
      </trkpt>
      <trkpt lat="42.51604269258677959442138671875" lon="19.90060125477612018585205078125">
        <ele>1975.800048828125</ele>
        <time>2026-06-17T11:29:20.000Z</time>
        <extensions>
          <ns3:TrackPointExtension>
            <ns3:atemp>17.0</ns3:atemp>
          </ns3:TrackPointExtension>
        </extensions>
      </trkpt>
      <trkpt lat="42.5160476379096508026123046875" lon="19.9005741812288761138916015625">
        <ele>1976</ele>
        <time>2026-06-17T11:29:21.000Z</time>
        <extensions>
          <ns3:TrackPointExtension>
            <ns3:atemp>17.0</ns3:atemp>
          </ns3:TrackPointExtension>
        </extensions>
      </trkpt>
      <trkpt lat="42.51605249941349029541015625" lon="19.900547526776790618896484375">
        <ele>1976.4000244140625</ele>
        <time>2026-06-17T11:29:22.000Z</time>
        <extensions>
          <ns3:TrackPointExtension>
            <ns3:atemp>17.0</ns3:atemp>
          </ns3:TrackPointExtension>
        </extensions>
      </trkpt>
      <trkpt lat="42.51605727709829807281494140625" lon="19.90052699111402034759521484375">
        <ele>1976.5999755859375</ele>
        <time>2026-06-17T11:29:23.000Z</time>
        <extensions>
          <ns3:TrackPointExtension>
            <ns3:atemp>17.0</ns3:atemp>
          </ns3:TrackPointExtension>
        </extensions>
      </trkpt>
      <trkpt lat="42.51606322824954986572265625" lon="19.9005037732422351837158203125">
        <ele>1976.800048828125</ele>
        <time>2026-06-17T11:29:24.000Z</time>
        <extensions>
          <ns3:TrackPointExtension>
            <ns3:atemp>17.0</ns3:atemp>
          </ns3:TrackPointExtension>
        </extensions>
      </trkpt>
      <trkpt lat="42.5160692632198333740234375" lon="19.900480471551418304443359375">
        <ele>1977</ele>
        <time>2026-06-17T11:29:25.000Z</time>
        <extensions>
          <ns3:TrackPointExtension>
            <ns3:atemp>17.0</ns3:atemp>
          </ns3:TrackPointExtension>
        </extensions>
      </trkpt>
      <trkpt lat="42.51607588492333889007568359375" lon="19.90045742131769657135009765625">
        <ele>1977</ele>
        <time>2026-06-17T11:29:26.000Z</time>
        <extensions>
          <ns3:TrackPointExtension>
            <ns3:atemp>17.0</ns3:atemp>
          </ns3:TrackPointExtension>
        </extensions>
      </trkpt>
      <trkpt lat="42.5160865299403667449951171875" lon="19.90042858757078647613525390625">
        <ele>1977.199951171875</ele>
        <time>2026-06-17T11:29:27.000Z</time>
        <extensions>
          <ns3:TrackPointExtension>
            <ns3:atemp>17.0</ns3:atemp>
          </ns3:TrackPointExtension>
        </extensions>
      </trkpt>
      <trkpt lat="42.51609533093869686126708984375" lon="19.90040243603289127349853515625">
        <ele>1977.4000244140625</ele>
        <time>2026-06-17T11:29:28.000Z</time>
        <extensions>
          <ns3:TrackPointExtension>
            <ns3:atemp>17.0</ns3:atemp>
          </ns3:TrackPointExtension>
        </extensions>
      </trkpt>
      <trkpt lat="42.516100443899631500244140625" lon="19.90039103664457798004150390625">
        <ele>1977.5999755859375</ele>
        <time>2026-06-17T11:29:29.000Z</time>
        <extensions>
          <ns3:TrackPointExtension>
            <ns3:atemp>17.0</ns3:atemp>
          </ns3:TrackPointExtension>
        </extensions>
      </trkpt>
      <trkpt lat="42.51609943807125091552734375" lon="19.90038215182721614837646484375">
        <ele>1977.800048828125</ele>
        <time>2026-06-17T11:29:30.000Z</time>
        <extensions>
          <ns3:TrackPointExtension>
            <ns3:atemp>17.0</ns3:atemp>
          </ns3:TrackPointExtension>
        </extensions>
      </trkpt>
      <trkpt lat="42.51609943807125091552734375" lon="19.90038215182721614837646484375">
        <ele>1978</ele>
        <time>2026-06-17T11:29:31.000Z</time>
        <extensions>
          <ns3:TrackPointExtension>
            <ns3:atemp>17.0</ns3:atemp>
          </ns3:TrackPointExtension>
        </extensions>
      </trkpt>
      <trkpt lat="42.51609943807125091552734375" lon="19.90038215182721614837646484375">
        <ele>1978.199951171875</ele>
        <time>2026-06-17T11:29:32.000Z</time>
        <extensions>
          <ns3:TrackPointExtension>
            <ns3:atemp>17.0</ns3:atemp>
          </ns3:TrackPointExtension>
        </extensions>
      </trkpt>
      <trkpt lat="42.51609943807125091552734375" lon="19.90038215182721614837646484375">
        <ele>1978.4000244140625</ele>
        <time>2026-06-17T11:29:33.000Z</time>
        <extensions>
          <ns3:TrackPointExtension>
            <ns3:atemp>17.0</ns3:atemp>
          </ns3:TrackPointExtension>
        </extensions>
      </trkpt>
      <trkpt lat="42.51609943807125091552734375" lon="19.90038215182721614837646484375">
        <ele>1978.4000244140625</ele>
        <time>2026-06-17T11:29:34.000Z</time>
        <extensions>
          <ns3:TrackPointExtension>
            <ns3:atemp>17.0</ns3:atemp>
          </ns3:TrackPointExtension>
        </extensions>
      </trkpt>
      <trkpt lat="42.51609943807125091552734375" lon="19.90038215182721614837646484375">
        <ele>1978.4000244140625</ele>
        <time>2026-06-17T11:29:35.000Z</time>
        <extensions>
          <ns3:TrackPointExtension>
            <ns3:atemp>17.0</ns3:atemp>
          </ns3:TrackPointExtension>
        </extensions>
      </trkpt>
      <trkpt lat="42.51609943807125091552734375" lon="19.90038215182721614837646484375">
        <ele>1978.4000244140625</ele>
        <time>2026-06-17T11:29:36.000Z</time>
        <extensions>
          <ns3:TrackPointExtension>
            <ns3:atemp>17.0</ns3:atemp>
          </ns3:TrackPointExtension>
        </extensions>
      </trkpt>
      <trkpt lat="42.51609943807125091552734375" lon="19.90038215182721614837646484375">
        <ele>1978.4000244140625</ele>
        <time>2026-06-17T11:29:37.000Z</time>
        <extensions>
          <ns3:TrackPointExtension>
            <ns3:atemp>17.0</ns3:atemp>
          </ns3:TrackPointExtension>
        </extensions>
      </trkpt>
      <trkpt lat="42.51609943807125091552734375" lon="19.90038215182721614837646484375">
        <ele>1978.4000244140625</ele>
        <time>2026-06-17T11:29:38.000Z</time>
        <extensions>
          <ns3:TrackPointExtension>
            <ns3:atemp>17.0</ns3:atemp>
          </ns3:TrackPointExtension>
        </extensions>
      </trkpt>
      <trkpt lat="42.51609943807125091552734375" lon="19.90038215182721614837646484375">
        <ele>1978.4000244140625</ele>
        <time>2026-06-17T11:29:39.000Z</time>
        <extensions>
          <ns3:TrackPointExtension>
            <ns3:atemp>17.0</ns3:atemp>
          </ns3:TrackPointExtension>
        </extensions>
      </trkpt>
      <trkpt lat="42.51609943807125091552734375" lon="19.90038215182721614837646484375">
        <ele>1978.4000244140625</ele>
        <time>2026-06-17T11:29:40.000Z</time>
        <extensions>
          <ns3:TrackPointExtension>
            <ns3:atemp>17.0</ns3:atemp>
          </ns3:TrackPointExtension>
        </extensions>
      </trkpt>
      <trkpt lat="42.51609943807125091552734375" lon="19.90038215182721614837646484375">
        <ele>1978.4000244140625</ele>
        <time>2026-06-17T11:29:41.000Z</time>
        <extensions>
          <ns3:TrackPointExtension>
            <ns3:atemp>17.0</ns3:atemp>
          </ns3:TrackPointExtension>
        </extensions>
      </trkpt>
      <trkpt lat="42.51609943807125091552734375" lon="19.90038215182721614837646484375">
        <ele>1978.4000244140625</ele>
        <time>2026-06-17T11:29:42.000Z</time>
        <extensions>
          <ns3:TrackPointExtension>
            <ns3:atemp>17.0</ns3:atemp>
          </ns3:TrackPointExtension>
        </extensions>
      </trkpt>
      <trkpt lat="42.51609943807125091552734375" lon="19.90038215182721614837646484375">
        <ele>1978.4000244140625</ele>
        <time>2026-06-17T11:29:43.000Z</time>
        <extensions>
          <ns3:TrackPointExtension>
            <ns3:atemp>17.0</ns3:atemp>
          </ns3:TrackPointExtension>
        </extensions>
      </trkpt>
      <trkpt lat="42.51609943807125091552734375" lon="19.90038215182721614837646484375">
        <ele>1978.4000244140625</ele>
        <time>2026-06-17T11:29:44.000Z</time>
        <extensions>
          <ns3:TrackPointExtension>
            <ns3:atemp>17.0</ns3:atemp>
          </ns3:TrackPointExtension>
        </extensions>
      </trkpt>
      <trkpt lat="42.51609943807125091552734375" lon="19.90038215182721614837646484375">
        <ele>1978.4000244140625</ele>
        <time>2026-06-17T11:29:45.000Z</time>
        <extensions>
          <ns3:TrackPointExtension>
            <ns3:atemp>17.0</ns3:atemp>
          </ns3:TrackPointExtension>
        </extensions>
      </trkpt>
      <trkpt lat="42.51609943807125091552734375" lon="19.90038215182721614837646484375">
        <ele>1978.4000244140625</ele>
        <time>2026-06-17T11:29:46.000Z</time>
        <extensions>
          <ns3:TrackPointExtension>
            <ns3:atemp>17.0</ns3:atemp>
          </ns3:TrackPointExtension>
        </extensions>
      </trkpt>
      <trkpt lat="42.51609943807125091552734375" lon="19.90038215182721614837646484375">
        <ele>1978.4000244140625</ele>
        <time>2026-06-17T11:29:47.000Z</time>
        <extensions>
          <ns3:TrackPointExtension>
            <ns3:atemp>17.0</ns3:atemp>
          </ns3:TrackPointExtension>
        </extensions>
      </trkpt>
      <trkpt lat="42.51609943807125091552734375" lon="19.90038215182721614837646484375">
        <ele>1978.4000244140625</ele>
        <time>2026-06-17T11:29:48.000Z</time>
        <extensions>
          <ns3:TrackPointExtension>
            <ns3:atemp>17.0</ns3:atemp>
          </ns3:TrackPointExtension>
        </extensions>
      </trkpt>
      <trkpt lat="42.51609943807125091552734375" lon="19.90038215182721614837646484375">
        <ele>1978.4000244140625</ele>
        <time>2026-06-17T11:29:49.000Z</time>
        <extensions>
          <ns3:TrackPointExtension>
            <ns3:atemp>17.0</ns3:atemp>
          </ns3:TrackPointExtension>
        </extensions>
      </trkpt>
      <trkpt lat="42.51609943807125091552734375" lon="19.90038215182721614837646484375">
        <ele>1978.4000244140625</ele>
        <time>2026-06-17T11:29:50.000Z</time>
        <extensions>
          <ns3:TrackPointExtension>
            <ns3:atemp>17.0</ns3:atemp>
          </ns3:TrackPointExtension>
        </extensions>
      </trkpt>
      <trkpt lat="42.51609943807125091552734375" lon="19.90038215182721614837646484375">
        <ele>1978.4000244140625</ele>
        <time>2026-06-17T11:29:51.000Z</time>
        <extensions>
          <ns3:TrackPointExtension>
            <ns3:atemp>17.0</ns3:atemp>
          </ns3:TrackPointExtension>
        </extensions>
      </trkpt>
      <trkpt lat="42.51609943807125091552734375" lon="19.90038215182721614837646484375">
        <ele>1978.4000244140625</ele>
        <time>2026-06-17T11:29:52.000Z</time>
        <extensions>
          <ns3:TrackPointExtension>
            <ns3:atemp>17.0</ns3:atemp>
          </ns3:TrackPointExtension>
        </extensions>
      </trkpt>
      <trkpt lat="42.51610220409929752349853515625" lon="19.9003773741424083709716796875">
        <ele>1978.4000244140625</ele>
        <time>2026-06-17T11:29:53.000Z</time>
        <extensions>
          <ns3:TrackPointExtension>
            <ns3:atemp>17.0</ns3:atemp>
          </ns3:TrackPointExtension>
        </extensions>
      </trkpt>
      <trkpt lat="42.5161177106201648712158203125" lon="19.90034711547195911407470703125">
        <ele>1978.199951171875</ele>
        <time>2026-06-17T11:29:54.000Z</time>
        <extensions>
          <ns3:TrackPointExtension>
            <ns3:atemp>17.0</ns3:atemp>
          </ns3:TrackPointExtension>
        </extensions>
      </trkpt>
      <trkpt lat="42.51612533815205097198486328125" lon="19.90032364614307880401611328125">
        <ele>1978.199951171875</ele>
        <time>2026-06-17T11:29:55.000Z</time>
        <extensions>
          <ns3:TrackPointExtension>
            <ns3:atemp>17.0</ns3:atemp>
          </ns3:TrackPointExtension>
        </extensions>
      </trkpt>
      <trkpt lat="42.51613187603652477264404296875" lon="19.900304116308689117431640625">
        <ele>1978.199951171875</ele>
        <time>2026-06-17T11:29:56.000Z</time>
        <extensions>
          <ns3:TrackPointExtension>
            <ns3:atemp>17.0</ns3:atemp>
          </ns3:TrackPointExtension>
        </extensions>
      </trkpt>
      <trkpt lat="42.51614226959645748138427734375" lon="19.9002831615507602691650390625">
        <ele>1978</ele>
        <time>2026-06-17T11:29:57.000Z</time>
        <extensions>
          <ns3:TrackPointExtension>
            <ns3:atemp>17.0</ns3:atemp>
          </ns3:TrackPointExtension>
        </extensions>
      </trkpt>
      <trkpt lat="42.51614377833902835845947265625" lon="19.90025558508932590484619140625">
        <ele>1978</ele>
        <time>2026-06-17T11:29:58.000Z</time>
        <extensions>
          <ns3:TrackPointExtension>
            <ns3:atemp>17.0</ns3:atemp>
          </ns3:TrackPointExtension>
        </extensions>
      </trkpt>
      <trkpt lat="42.5161435268819332122802734375" lon="19.900232367217540740966796875">
        <ele>1978</ele>
        <time>2026-06-17T11:29:59.000Z</time>
        <extensions>
          <ns3:TrackPointExtension>
            <ns3:atemp>17.0</ns3:atemp>
          </ns3:TrackPointExtension>
        </extensions>
      </trkpt>
      <trkpt lat="42.5161441974341869354248046875" lon="19.90021149627864360809326171875">
        <ele>1978.199951171875</ele>
        <time>2026-06-17T11:30:00.000Z</time>
        <extensions>
          <ns3:TrackPointExtension>
            <ns3:atemp>17.0</ns3:atemp>
          </ns3:TrackPointExtension>
        </extensions>
      </trkpt>
      <trkpt lat="42.5161441974341869354248046875" lon="19.90019909106194972991943359375">
        <ele>1978.4000244140625</ele>
        <time>2026-06-17T11:30:01.000Z</time>
        <extensions>
          <ns3:TrackPointExtension>
            <ns3:atemp>17.0</ns3:atemp>
          </ns3:TrackPointExtension>
        </extensions>
      </trkpt>
      <trkpt lat="42.516151405870914459228515625" lon="19.90018182434141635894775390625">
        <ele>1978.4000244140625</ele>
        <time>2026-06-17T11:30:02.000Z</time>
        <extensions>
          <ns3:TrackPointExtension>
            <ns3:atemp>17.0</ns3:atemp>
          </ns3:TrackPointExtension>
        </extensions>
      </trkpt>
      <trkpt lat="42.5161562673747539520263671875" lon="19.900157935917377471923828125">
        <ele>1978.5999755859375</ele>
        <time>2026-06-17T11:30:03.000Z</time>
        <extensions>
          <ns3:TrackPointExtension>
            <ns3:atemp>17.0</ns3:atemp>
          </ns3:TrackPointExtension>
        </extensions>
      </trkpt>
      <trkpt lat="42.51616104505956172943115234375" lon="19.90013253875076770782470703125">
        <ele>1978.800048828125</ele>
        <time>2026-06-17T11:30:04.000Z</time>
        <extensions>
          <ns3:TrackPointExtension>
            <ns3:atemp>17.0</ns3:atemp>
          </ns3:TrackPointExtension>
        </extensions>
      </trkpt>
      <trkpt lat="42.51616775058209896087646484375" lon="19.900117702782154083251953125">
        <ele>1979</ele>
        <time>2026-06-17T11:30:05.000Z</time>
        <extensions>
          <ns3:TrackPointExtension>
            <ns3:atemp>17.0</ns3:atemp>
          </ns3:TrackPointExtension>
        </extensions>
      </trkpt>
      <trkpt lat="42.51616917550563812255859375" lon="19.90011870861053466796875">
        <ele>1979</ele>
        <time>2026-06-17T11:30:06.000Z</time>
        <extensions>
          <ns3:TrackPointExtension>
            <ns3:atemp>17.0</ns3:atemp>
          </ns3:TrackPointExtension>
        </extensions>
      </trkpt>
      <trkpt lat="42.5161693431437015533447265625" lon="19.9001185409724712371826171875">
        <ele>1979.199951171875</ele>
        <time>2026-06-17T11:30:07.000Z</time>
        <extensions>
          <ns3:TrackPointExtension>
            <ns3:atemp>17.0</ns3:atemp>
          </ns3:TrackPointExtension>
        </extensions>
      </trkpt>
      <trkpt lat="42.51616942696273326873779296875" lon="19.900118373334407806396484375">
        <ele>1979.4000244140625</ele>
        <time>2026-06-17T11:30:08.000Z</time>
        <extensions>
          <ns3:TrackPointExtension>
            <ns3:atemp>17.0</ns3:atemp>
          </ns3:TrackPointExtension>
        </extensions>
      </trkpt>
      <trkpt lat="42.516175545752048492431640625" lon="19.90010035224258899688720703125">
        <ele>1979.5999755859375</ele>
        <time>2026-06-17T11:30:09.000Z</time>
        <extensions>
          <ns3:TrackPointExtension>
            <ns3:atemp>17.0</ns3:atemp>
          </ns3:TrackPointExtension>
        </extensions>
      </trkpt>
      <trkpt lat="42.51617730595171451568603515625" lon="19.9000866897404193878173828125">
        <ele>1979.5999755859375</ele>
        <time>2026-06-17T11:30:10.000Z</time>
        <extensions>
          <ns3:TrackPointExtension>
            <ns3:atemp>17.0</ns3:atemp>
          </ns3:TrackPointExtension>
        </extensions>
      </trkpt>
      <trkpt lat="42.516179569065570831298828125" lon="19.90007470361888408660888671875">
        <ele>1979.5999755859375</ele>
        <time>2026-06-17T11:30:11.000Z</time>
        <extensions>
          <ns3:TrackPointExtension>
            <ns3:atemp>17.0</ns3:atemp>
          </ns3:TrackPointExtension>
        </extensions>
      </trkpt>
      <trkpt lat="42.516178898513317108154296875" lon="19.9000712670385837554931640625">
        <ele>1979.800048828125</ele>
        <time>2026-06-17T11:30:12.000Z</time>
        <extensions>
          <ns3:TrackPointExtension>
            <ns3:atemp>17.0</ns3:atemp>
          </ns3:TrackPointExtension>
        </extensions>
      </trkpt>
      <trkpt lat="42.51617881469428539276123046875" lon="19.90007135085761547088623046875">
        <ele>1979.800048828125</ele>
        <time>2026-06-17T11:30:13.000Z</time>
        <extensions>
          <ns3:TrackPointExtension>
            <ns3:atemp>17.0</ns3:atemp>
          </ns3:TrackPointExtension>
        </extensions>
      </trkpt>
      <trkpt lat="42.51617881469428539276123046875" lon="19.90007135085761547088623046875">
        <ele>1979.800048828125</ele>
        <time>2026-06-17T11:30:14.000Z</time>
        <extensions>
          <ns3:TrackPointExtension>
            <ns3:atemp>17.0</ns3:atemp>
          </ns3:TrackPointExtension>
        </extensions>
      </trkpt>
      <trkpt lat="42.51617856323719024658203125" lon="19.900071434676647186279296875">
        <ele>1979.800048828125</ele>
        <time>2026-06-17T11:30:15.000Z</time>
        <extensions>
          <ns3:TrackPointExtension>
            <ns3:atemp>17.0</ns3:atemp>
          </ns3:TrackPointExtension>
        </extensions>
      </trkpt>
      <trkpt lat="42.51617613248527050018310546875" lon="19.90005861036479473114013671875">
        <ele>1979.800048828125</ele>
        <time>2026-06-17T11:30:16.000Z</time>
        <extensions>
          <ns3:TrackPointExtension>
            <ns3:atemp>17.0</ns3:atemp>
          </ns3:TrackPointExtension>
        </extensions>
      </trkpt>
      <trkpt lat="42.5161773897707462310791015625" lon="19.90003715269267559051513671875">
        <ele>1980</ele>
        <time>2026-06-17T11:30:17.000Z</time>
        <extensions>
          <ns3:TrackPointExtension>
            <ns3:atemp>17.0</ns3:atemp>
          </ns3:TrackPointExtension>
        </extensions>
      </trkpt>
      <trkpt lat="42.51617864705622196197509765625" lon="19.90001636557281017303466796875">
        <ele>1980</ele>
        <time>2026-06-17T11:30:18.000Z</time>
        <extensions>
          <ns3:TrackPointExtension>
            <ns3:atemp>17.0</ns3:atemp>
          </ns3:TrackPointExtension>
        </extensions>
      </trkpt>
      <trkpt lat="42.51618116162717342376708984375" lon="19.8999901302158832550048828125">
        <ele>1980</ele>
        <time>2026-06-17T11:30:19.000Z</time>
        <extensions>
          <ns3:TrackPointExtension>
            <ns3:atemp>17.0</ns3:atemp>
          </ns3:TrackPointExtension>
        </extensions>
      </trkpt>
      <trkpt lat="42.5161867775022983551025390625" lon="19.89996381103992462158203125">
        <ele>1980.199951171875</ele>
        <time>2026-06-17T11:30:20.000Z</time>
        <extensions>
          <ns3:TrackPointExtension>
            <ns3:atemp>17.0</ns3:atemp>
          </ns3:TrackPointExtension>
        </extensions>
      </trkpt>
      <trkpt lat="42.51619155518710613250732421875" lon="19.89993372000753879547119140625">
        <ele>1980.199951171875</ele>
        <time>2026-06-17T11:30:21.000Z</time>
        <extensions>
          <ns3:TrackPointExtension>
            <ns3:atemp>17.0</ns3:atemp>
          </ns3:TrackPointExtension>
        </extensions>
      </trkpt>
      <trkpt lat="42.516194321215152740478515625" lon="19.89991108886897563934326171875">
        <ele>1980.4000244140625</ele>
        <time>2026-06-17T11:30:22.000Z</time>
        <extensions>
          <ns3:TrackPointExtension>
            <ns3:atemp>17.0</ns3:atemp>
          </ns3:TrackPointExtension>
        </extensions>
      </trkpt>
      <trkpt lat="42.516196332871913909912109375" lon="19.89988896064460277557373046875">
        <ele>1980.5999755859375</ele>
        <time>2026-06-17T11:30:23.000Z</time>
        <extensions>
          <ns3:TrackPointExtension>
            <ns3:atemp>17.0</ns3:atemp>
          </ns3:TrackPointExtension>
        </extensions>
      </trkpt>
      <trkpt lat="42.51619658432900905609130859375" lon="19.89986381493508815765380859375">
        <ele>1980.800048828125</ele>
        <time>2026-06-17T11:30:24.000Z</time>
        <extensions>
          <ns3:TrackPointExtension>
            <ns3:atemp>17.0</ns3:atemp>
          </ns3:TrackPointExtension>
        </extensions>
      </trkpt>
      <trkpt lat="42.51619792543351650238037109375" lon="19.89983364008367061614990234375">
        <ele>1981</ele>
        <time>2026-06-17T11:30:25.000Z</time>
        <extensions>
          <ns3:TrackPointExtension>
            <ns3:atemp>17.0</ns3:atemp>
          </ns3:TrackPointExtension>
        </extensions>
      </trkpt>
      <trkpt lat="42.5161998532712459564208984375" lon="19.8998080752789974212646484375">
        <ele>1981.199951171875</ele>
        <time>2026-06-17T11:30:26.000Z</time>
        <extensions>
          <ns3:TrackPointExtension>
            <ns3:atemp>17.0</ns3:atemp>
          </ns3:TrackPointExtension>
        </extensions>
      </trkpt>
      <trkpt lat="42.5162048824131488800048828125" lon="19.89978552795946598052978515625">
        <ele>1981.4000244140625</ele>
        <time>2026-06-17T11:30:27.000Z</time>
        <extensions>
          <ns3:TrackPointExtension>
            <ns3:atemp>17.0</ns3:atemp>
          </ns3:TrackPointExtension>
        </extensions>
      </trkpt>
      <trkpt lat="42.51621485687792301177978515625" lon="19.89976021461188793182373046875">
        <ele>1981.5999755859375</ele>
        <time>2026-06-17T11:30:28.000Z</time>
        <extensions>
          <ns3:TrackPointExtension>
            <ns3:atemp>17.0</ns3:atemp>
          </ns3:TrackPointExtension>
        </extensions>
      </trkpt>
      <trkpt lat="42.516223154962062835693359375" lon="19.8997276090085506439208984375">
        <ele>1981.800048828125</ele>
        <time>2026-06-17T11:30:29.000Z</time>
        <extensions>
          <ns3:TrackPointExtension>
            <ns3:atemp>17.0</ns3:atemp>
          </ns3:TrackPointExtension>
        </extensions>
      </trkpt>
      <trkpt lat="42.51622659154236316680908203125" lon="19.89969818852841854095458984375">
        <ele>1982</ele>
        <time>2026-06-17T11:30:30.000Z</time>
        <extensions>
          <ns3:TrackPointExtension>
            <ns3:atemp>17.0</ns3:atemp>
          </ns3:TrackPointExtension>
        </extensions>
      </trkpt>
      <trkpt lat="42.51623145304620265960693359375" lon="19.8996763117611408233642578125">
        <ele>1982</ele>
        <time>2026-06-17T11:30:31.000Z</time>
        <extensions>
          <ns3:TrackPointExtension>
            <ns3:atemp>17.0</ns3:atemp>
          </ns3:TrackPointExtension>
        </extensions>
      </trkpt>
      <trkpt lat="42.516229860484600067138671875" lon="19.899653680622577667236328125">
        <ele>1982.199951171875</ele>
        <time>2026-06-17T11:30:32.000Z</time>
        <extensions>
          <ns3:TrackPointExtension>
            <ns3:atemp>17.0</ns3:atemp>
          </ns3:TrackPointExtension>
        </extensions>
      </trkpt>
      <trkpt lat="42.516231536865234375" lon="19.89963063038885593414306640625">
        <ele>1982.4000244140625</ele>
        <time>2026-06-17T11:30:33.000Z</time>
        <extensions>
          <ns3:TrackPointExtension>
            <ns3:atemp>17.0</ns3:atemp>
          </ns3:TrackPointExtension>
        </extensions>
      </trkpt>
      <trkpt lat="42.516234554350376129150390625" lon="19.89960975944995880126953125">
        <ele>1982.5999755859375</ele>
        <time>2026-06-17T11:30:34.000Z</time>
        <extensions>
          <ns3:TrackPointExtension>
            <ns3:atemp>17.0</ns3:atemp>
          </ns3:TrackPointExtension>
        </extensions>
      </trkpt>
      <trkpt lat="42.5162370689213275909423828125" lon="19.8995841108262538909912109375">
        <ele>1982.800048828125</ele>
        <time>2026-06-17T11:30:35.000Z</time>
        <extensions>
          <ns3:TrackPointExtension>
            <ns3:atemp>17.0</ns3:atemp>
          </ns3:TrackPointExtension>
        </extensions>
      </trkpt>
      <trkpt lat="42.516241259872913360595703125" lon="19.89955209195613861083984375">
        <ele>1983</ele>
        <time>2026-06-17T11:30:36.000Z</time>
        <extensions>
          <ns3:TrackPointExtension>
            <ns3:atemp>17.0</ns3:atemp>
          </ns3:TrackPointExtension>
        </extensions>
      </trkpt>
      <trkpt lat="42.51624017022550106048583984375" lon="19.89952166564762592315673828125">
        <ele>1983.4000244140625</ele>
        <time>2026-06-17T11:30:37.000Z</time>
        <extensions>
          <ns3:TrackPointExtension>
            <ns3:atemp>17.0</ns3:atemp>
          </ns3:TrackPointExtension>
        </extensions>
      </trkpt>
      <trkpt lat="42.5162447802722454071044921875" lon="19.8994929157197475433349609375">
        <ele>1983.5999755859375</ele>
        <time>2026-06-17T11:30:38.000Z</time>
        <extensions>
          <ns3:TrackPointExtension>
            <ns3:atemp>17.0</ns3:atemp>
          </ns3:TrackPointExtension>
        </extensions>
      </trkpt>
      <trkpt lat="42.5162481330335140228271484375" lon="19.89946416579186916351318359375">
        <ele>1983.800048828125</ele>
        <time>2026-06-17T11:30:39.000Z</time>
        <extensions>
          <ns3:TrackPointExtension>
            <ns3:atemp>17.0</ns3:atemp>
          </ns3:TrackPointExtension>
        </extensions>
      </trkpt>
      <trkpt lat="42.51625240780413150787353515625" lon="19.89943047054111957550048828125">
        <ele>1984</ele>
        <time>2026-06-17T11:30:40.000Z</time>
        <extensions>
          <ns3:TrackPointExtension>
            <ns3:atemp>17.0</ns3:atemp>
          </ns3:TrackPointExtension>
        </extensions>
      </trkpt>
      <trkpt lat="42.51625634729862213134765625" lon="19.89939794875681400299072265625">
        <ele>1984</ele>
        <time>2026-06-17T11:30:41.000Z</time>
        <extensions>
          <ns3:TrackPointExtension>
            <ns3:atemp>17.0</ns3:atemp>
          </ns3:TrackPointExtension>
        </extensions>
      </trkpt>
      <trkpt lat="42.51626305282115936279296875" lon="19.899368025362491607666015625">
        <ele>1984.199951171875</ele>
        <time>2026-06-17T11:30:42.000Z</time>
        <extensions>
          <ns3:TrackPointExtension>
            <ns3:atemp>17.0</ns3:atemp>
          </ns3:TrackPointExtension>
        </extensions>
      </trkpt>
      <trkpt lat="42.5162709318101406097412109375" lon="19.89933860488235950469970703125">
        <ele>1984.199951171875</ele>
        <time>2026-06-17T11:30:43.000Z</time>
        <extensions>
          <ns3:TrackPointExtension>
            <ns3:atemp>17.0</ns3:atemp>
          </ns3:TrackPointExtension>
        </extensions>
      </trkpt>
      <trkpt lat="42.51627755351364612579345703125" lon="19.89931044168770313262939453125">
        <ele>1984.4000244140625</ele>
        <time>2026-06-17T11:30:44.000Z</time>
        <extensions>
          <ns3:TrackPointExtension>
            <ns3:atemp>17.0</ns3:atemp>
          </ns3:TrackPointExtension>
        </extensions>
      </trkpt>
      <trkpt lat="42.5162826664745807647705078125" lon="19.89928529597818851470947265625">
        <ele>1984.5999755859375</ele>
        <time>2026-06-17T11:30:45.000Z</time>
        <extensions>
          <ns3:TrackPointExtension>
            <ns3:atemp>17.0</ns3:atemp>
          </ns3:TrackPointExtension>
        </extensions>
      </trkpt>
      <trkpt lat="42.516286857426166534423828125" lon="19.89926165901124477386474609375">
        <ele>1984.800048828125</ele>
        <time>2026-06-17T11:30:46.000Z</time>
        <extensions>
          <ns3:TrackPointExtension>
            <ns3:atemp>17.0</ns3:atemp>
          </ns3:TrackPointExtension>
        </extensions>
      </trkpt>
      <trkpt lat="42.51629314385354518890380859375" lon="19.89923701621592044830322265625">
        <ele>1985.199951171875</ele>
        <time>2026-06-17T11:30:47.000Z</time>
        <extensions>
          <ns3:TrackPointExtension>
            <ns3:atemp>17.0</ns3:atemp>
          </ns3:TrackPointExtension>
        </extensions>
      </trkpt>
      <trkpt lat="42.51630060374736785888671875" lon="19.89921438507735729217529296875">
        <ele>1985.4000244140625</ele>
        <time>2026-06-17T11:30:48.000Z</time>
        <extensions>
          <ns3:TrackPointExtension>
            <ns3:atemp>17.0</ns3:atemp>
          </ns3:TrackPointExtension>
        </extensions>
      </trkpt>
      <trkpt lat="42.51630756072700023651123046875" lon="19.89919242449104785919189453125">
        <ele>1985.800048828125</ele>
        <time>2026-06-17T11:30:49.000Z</time>
        <extensions>
          <ns3:TrackPointExtension>
            <ns3:atemp>17.0</ns3:atemp>
          </ns3:TrackPointExtension>
        </extensions>
      </trkpt>
      <trkpt lat="42.5163138471543788909912109375" lon="19.89916878752410411834716796875">
        <ele>1986</ele>
        <time>2026-06-17T11:30:50.000Z</time>
        <extensions>
          <ns3:TrackPointExtension>
            <ns3:atemp>17.0</ns3:atemp>
          </ns3:TrackPointExtension>
        </extensions>
      </trkpt>
      <trkpt lat="42.51632264815270900726318359375" lon="19.8991459049284458160400390625">
        <ele>1986.199951171875</ele>
        <time>2026-06-17T11:30:51.000Z</time>
        <extensions>
          <ns3:TrackPointExtension>
            <ns3:atemp>17.0</ns3:atemp>
          </ns3:TrackPointExtension>
        </extensions>
      </trkpt>
      <trkpt lat="42.51632801257073879241943359375" lon="19.899123609066009521484375">
        <ele>1986.5999755859375</ele>
        <time>2026-06-17T11:30:52.000Z</time>
        <extensions>
          <ns3:TrackPointExtension>
            <ns3:atemp>17.0</ns3:atemp>
          </ns3:TrackPointExtension>
        </extensions>
      </trkpt>
      <trkpt lat="42.516331784427165985107421875" lon="19.8991039954125881195068359375">
        <ele>1986.800048828125</ele>
        <time>2026-06-17T11:30:53.000Z</time>
        <extensions>
          <ns3:TrackPointExtension>
            <ns3:atemp>17.0</ns3:atemp>
          </ns3:TrackPointExtension>
        </extensions>
      </trkpt>
      <trkpt lat="42.51633639447391033172607421875" lon="19.8990872316062450408935546875">
        <ele>1987.199951171875</ele>
        <time>2026-06-17T11:30:54.000Z</time>
        <extensions>
          <ns3:TrackPointExtension>
            <ns3:atemp>17.0</ns3:atemp>
          </ns3:TrackPointExtension>
        </extensions>
      </trkpt>
      <trkpt lat="42.5163321197032928466796875" lon="19.89908077754080295562744140625">
        <ele>1987.4000244140625</ele>
        <time>2026-06-17T11:30:55.000Z</time>
        <extensions>
          <ns3:TrackPointExtension>
            <ns3:atemp>17.0</ns3:atemp>
          </ns3:TrackPointExtension>
        </extensions>
      </trkpt>
      <trkpt lat="42.51633010804653167724609375" lon="19.899078346788883209228515625">
        <ele>1987.800048828125</ele>
        <time>2026-06-17T11:30:56.000Z</time>
        <extensions>
          <ns3:TrackPointExtension>
            <ns3:atemp>17.0</ns3:atemp>
          </ns3:TrackPointExtension>
        </extensions>
      </trkpt>
      <trkpt lat="42.5163302756845951080322265625" lon="19.899078346788883209228515625">
        <ele>1988</ele>
        <time>2026-06-17T11:30:57.000Z</time>
        <extensions>
          <ns3:TrackPointExtension>
            <ns3:atemp>17.0</ns3:atemp>
          </ns3:TrackPointExtension>
        </extensions>
      </trkpt>
      <trkpt lat="42.5163403339684009552001953125" lon="19.8990681208670139312744140625">
        <ele>1988.199951171875</ele>
        <time>2026-06-17T11:30:58.000Z</time>
        <extensions>
          <ns3:TrackPointExtension>
            <ns3:atemp>17.0</ns3:atemp>
          </ns3:TrackPointExtension>
        </extensions>
      </trkpt>
      <trkpt lat="42.51634393818676471710205078125" lon="19.899061582982540130615234375">
        <ele>1988.4000244140625</ele>
        <time>2026-06-17T11:30:59.000Z</time>
        <extensions>
          <ns3:TrackPointExtension>
            <ns3:atemp>17.0</ns3:atemp>
          </ns3:TrackPointExtension>
        </extensions>
      </trkpt>
      <trkpt lat="42.51634896732866764068603515625" lon="19.89905043505132198333740234375">
        <ele>1988.5999755859375</ele>
        <time>2026-06-17T11:31:00.000Z</time>
        <extensions>
          <ns3:TrackPointExtension>
            <ns3:atemp>17.0</ns3:atemp>
          </ns3:TrackPointExtension>
        </extensions>
      </trkpt>
      <trkpt lat="42.5163540802896022796630859375" lon="19.89904582500457763671875">
        <ele>1988.5999755859375</ele>
        <time>2026-06-17T11:31:01.000Z</time>
        <extensions>
          <ns3:TrackPointExtension>
            <ns3:atemp>17.0</ns3:atemp>
          </ns3:TrackPointExtension>
        </extensions>
      </trkpt>
      <trkpt lat="42.51635751686990261077880859375" lon="19.8990376107394695281982421875">
        <ele>1988.800048828125</ele>
        <time>2026-06-17T11:31:02.000Z</time>
        <extensions>
          <ns3:TrackPointExtension>
            <ns3:atemp>17.0</ns3:atemp>
          </ns3:TrackPointExtension>
        </extensions>
      </trkpt>
      <trkpt lat="42.51636095345020294189453125" lon="19.89902897737920284271240234375">
        <ele>1989</ele>
        <time>2026-06-17T11:31:03.000Z</time>
        <extensions>
          <ns3:TrackPointExtension>
            <ns3:atemp>17.0</ns3:atemp>
          </ns3:TrackPointExtension>
        </extensions>
      </trkpt>
      <trkpt lat="42.5163658149540424346923828125" lon="19.899021349847316741943359375">
        <ele>1989</ele>
        <time>2026-06-17T11:31:04.000Z</time>
        <extensions>
          <ns3:TrackPointExtension>
            <ns3:atemp>17.0</ns3:atemp>
          </ns3:TrackPointExtension>
        </extensions>
      </trkpt>
      <trkpt lat="42.51636941917240619659423828125" lon="19.89901003427803516387939453125">
        <ele>1989.199951171875</ele>
        <time>2026-06-17T11:31:05.000Z</time>
        <extensions>
          <ns3:TrackPointExtension>
            <ns3:atemp>17.0</ns3:atemp>
          </ns3:TrackPointExtension>
        </extensions>
      </trkpt>
      <trkpt lat="42.5163718499243259429931640625" lon="19.89899595268070697784423828125">
        <ele>1989.199951171875</ele>
        <time>2026-06-17T11:31:06.000Z</time>
        <extensions>
          <ns3:TrackPointExtension>
            <ns3:atemp>17.0</ns3:atemp>
          </ns3:TrackPointExtension>
        </extensions>
      </trkpt>
      <trkpt lat="42.5163750350475311279296875" lon="19.89898614585399627685546875">
        <ele>1989.199951171875</ele>
        <time>2026-06-17T11:31:07.000Z</time>
        <extensions>
          <ns3:TrackPointExtension>
            <ns3:atemp>17.0</ns3:atemp>
          </ns3:TrackPointExtension>
        </extensions>
      </trkpt>
      <trkpt lat="42.516373358666896820068359375" lon="19.8989843018352985382080078125">
        <ele>1989.199951171875</ele>
        <time>2026-06-17T11:31:08.000Z</time>
        <extensions>
          <ns3:TrackPointExtension>
            <ns3:atemp>17.0</ns3:atemp>
          </ns3:TrackPointExtension>
        </extensions>
      </trkpt>
      <trkpt lat="42.51637495122849941253662109375" lon="19.89898555912077426910400390625">
        <ele>1989.4000244140625</ele>
        <time>2026-06-17T11:31:09.000Z</time>
        <extensions>
          <ns3:TrackPointExtension>
            <ns3:atemp>17.0</ns3:atemp>
          </ns3:TrackPointExtension>
        </extensions>
      </trkpt>
      <trkpt lat="42.51637495122849941253662109375" lon="19.89898555912077426910400390625">
        <ele>1989.4000244140625</ele>
        <time>2026-06-17T11:31:10.000Z</time>
        <extensions>
          <ns3:TrackPointExtension>
            <ns3:atemp>17.0</ns3:atemp>
          </ns3:TrackPointExtension>
        </extensions>
      </trkpt>
      <trkpt lat="42.51637495122849941253662109375" lon="19.89898555912077426910400390625">
        <ele>1989.4000244140625</ele>
        <time>2026-06-17T11:31:11.000Z</time>
        <extensions>
          <ns3:TrackPointExtension>
            <ns3:atemp>17.0</ns3:atemp>
          </ns3:TrackPointExtension>
        </extensions>
      </trkpt>
      <trkpt lat="42.51637495122849941253662109375" lon="19.89898555912077426910400390625">
        <ele>1989.4000244140625</ele>
        <time>2026-06-17T11:31:12.000Z</time>
        <extensions>
          <ns3:TrackPointExtension>
            <ns3:atemp>17.0</ns3:atemp>
          </ns3:TrackPointExtension>
        </extensions>
      </trkpt>
      <trkpt lat="42.51637495122849941253662109375" lon="19.89898555912077426910400390625">
        <ele>1989.4000244140625</ele>
        <time>2026-06-17T11:31:13.000Z</time>
        <extensions>
          <ns3:TrackPointExtension>
            <ns3:atemp>17.0</ns3:atemp>
          </ns3:TrackPointExtension>
        </extensions>
      </trkpt>
      <trkpt lat="42.516374699771404266357421875" lon="19.89898555912077426910400390625">
        <ele>1989.4000244140625</ele>
        <time>2026-06-17T11:31:14.000Z</time>
        <extensions>
          <ns3:TrackPointExtension>
            <ns3:atemp>17.0</ns3:atemp>
          </ns3:TrackPointExtension>
        </extensions>
      </trkpt>
      <trkpt lat="42.51637495122849941253662109375" lon="19.89898555912077426910400390625">
        <ele>1989.4000244140625</ele>
        <time>2026-06-17T11:31:15.000Z</time>
        <extensions>
          <ns3:TrackPointExtension>
            <ns3:atemp>17.0</ns3:atemp>
          </ns3:TrackPointExtension>
        </extensions>
      </trkpt>
      <trkpt lat="42.51637495122849941253662109375" lon="19.89898555912077426910400390625">
        <ele>1989.4000244140625</ele>
        <time>2026-06-17T11:31:16.000Z</time>
        <extensions>
          <ns3:TrackPointExtension>
            <ns3:atemp>17.0</ns3:atemp>
          </ns3:TrackPointExtension>
        </extensions>
      </trkpt>
      <trkpt lat="42.51637495122849941253662109375" lon="19.89898555912077426910400390625">
        <ele>1989.4000244140625</ele>
        <time>2026-06-17T11:31:17.000Z</time>
        <extensions>
          <ns3:TrackPointExtension>
            <ns3:atemp>17.0</ns3:atemp>
          </ns3:TrackPointExtension>
        </extensions>
      </trkpt>
      <trkpt lat="42.51637495122849941253662109375" lon="19.89898555912077426910400390625">
        <ele>1989.199951171875</ele>
        <time>2026-06-17T11:31:18.000Z</time>
        <extensions>
          <ns3:TrackPointExtension>
            <ns3:atemp>17.0</ns3:atemp>
          </ns3:TrackPointExtension>
        </extensions>
      </trkpt>
      <trkpt lat="42.51637495122849941253662109375" lon="19.89898555912077426910400390625">
        <ele>1989.199951171875</ele>
        <time>2026-06-17T11:31:19.000Z</time>
        <extensions>
          <ns3:TrackPointExtension>
            <ns3:atemp>17.0</ns3:atemp>
          </ns3:TrackPointExtension>
        </extensions>
      </trkpt>
      <trkpt lat="42.51637495122849941253662109375" lon="19.89898555912077426910400390625">
        <ele>1989</ele>
        <time>2026-06-17T11:31:20.000Z</time>
        <extensions>
          <ns3:TrackPointExtension>
            <ns3:atemp>17.0</ns3:atemp>
          </ns3:TrackPointExtension>
        </extensions>
      </trkpt>
      <trkpt lat="42.51637495122849941253662109375" lon="19.89898555912077426910400390625">
        <ele>1988.800048828125</ele>
        <time>2026-06-17T11:31:21.000Z</time>
        <extensions>
          <ns3:TrackPointExtension>
            <ns3:atemp>17.0</ns3:atemp>
          </ns3:TrackPointExtension>
        </extensions>
      </trkpt>
      <trkpt lat="42.51637495122849941253662109375" lon="19.89898555912077426910400390625">
        <ele>1988.800048828125</ele>
        <time>2026-06-17T11:31:22.000Z</time>
        <extensions>
          <ns3:TrackPointExtension>
            <ns3:atemp>17.0</ns3:atemp>
          </ns3:TrackPointExtension>
        </extensions>
      </trkpt>
      <trkpt lat="42.51637495122849941253662109375" lon="19.89898555912077426910400390625">
        <ele>1988.800048828125</ele>
        <time>2026-06-17T11:31:23.000Z</time>
        <extensions>
          <ns3:TrackPointExtension>
            <ns3:atemp>17.0</ns3:atemp>
          </ns3:TrackPointExtension>
        </extensions>
      </trkpt>
      <trkpt lat="42.51637495122849941253662109375" lon="19.89898555912077426910400390625">
        <ele>1988.800048828125</ele>
        <time>2026-06-17T11:31:24.000Z</time>
        <extensions>
          <ns3:TrackPointExtension>
            <ns3:atemp>17.0</ns3:atemp>
          </ns3:TrackPointExtension>
        </extensions>
      </trkpt>
      <trkpt lat="42.51637495122849941253662109375" lon="19.89898555912077426910400390625">
        <ele>1988.800048828125</ele>
        <time>2026-06-17T11:31:25.000Z</time>
        <extensions>
          <ns3:TrackPointExtension>
            <ns3:atemp>17.0</ns3:atemp>
          </ns3:TrackPointExtension>
        </extensions>
      </trkpt>
      <trkpt lat="42.51637495122849941253662109375" lon="19.89898555912077426910400390625">
        <ele>1988.800048828125</ele>
        <time>2026-06-17T11:31:26.000Z</time>
        <extensions>
          <ns3:TrackPointExtension>
            <ns3:atemp>17.0</ns3:atemp>
          </ns3:TrackPointExtension>
        </extensions>
      </trkpt>
      <trkpt lat="42.51637495122849941253662109375" lon="19.89898555912077426910400390625">
        <ele>1988.800048828125</ele>
        <time>2026-06-17T11:31:27.000Z</time>
        <extensions>
          <ns3:TrackPointExtension>
            <ns3:atemp>17.0</ns3:atemp>
          </ns3:TrackPointExtension>
        </extensions>
      </trkpt>
      <trkpt lat="42.51637495122849941253662109375" lon="19.89898555912077426910400390625">
        <ele>1988.800048828125</ele>
        <time>2026-06-17T11:31:28.000Z</time>
        <extensions>
          <ns3:TrackPointExtension>
            <ns3:atemp>17.0</ns3:atemp>
          </ns3:TrackPointExtension>
        </extensions>
      </trkpt>
      <trkpt lat="42.51637495122849941253662109375" lon="19.89898555912077426910400390625">
        <ele>1988.5999755859375</ele>
        <time>2026-06-17T11:31:29.000Z</time>
        <extensions>
          <ns3:TrackPointExtension>
            <ns3:atemp>17.0</ns3:atemp>
          </ns3:TrackPointExtension>
        </extensions>
      </trkpt>
      <trkpt lat="42.51637495122849941253662109375" lon="19.89898555912077426910400390625">
        <ele>1988.800048828125</ele>
        <time>2026-06-17T11:31:30.000Z</time>
        <extensions>
          <ns3:TrackPointExtension>
            <ns3:atemp>17.0</ns3:atemp>
          </ns3:TrackPointExtension>
        </extensions>
      </trkpt>
      <trkpt lat="42.51637495122849941253662109375" lon="19.89898555912077426910400390625">
        <ele>1988.800048828125</ele>
        <time>2026-06-17T11:31:31.000Z</time>
        <extensions>
          <ns3:TrackPointExtension>
            <ns3:atemp>17.0</ns3:atemp>
          </ns3:TrackPointExtension>
        </extensions>
      </trkpt>
      <trkpt lat="42.51637495122849941253662109375" lon="19.89898555912077426910400390625">
        <ele>1988.800048828125</ele>
        <time>2026-06-17T11:31:32.000Z</time>
        <extensions>
          <ns3:TrackPointExtension>
            <ns3:atemp>17.0</ns3:atemp>
          </ns3:TrackPointExtension>
        </extensions>
      </trkpt>
      <trkpt lat="42.51637495122849941253662109375" lon="19.89898555912077426910400390625">
        <ele>1988.800048828125</ele>
        <time>2026-06-17T11:31:33.000Z</time>
        <extensions>
          <ns3:TrackPointExtension>
            <ns3:atemp>17.0</ns3:atemp>
          </ns3:TrackPointExtension>
        </extensions>
      </trkpt>
      <trkpt lat="42.51637495122849941253662109375" lon="19.89898555912077426910400390625">
        <ele>1988.800048828125</ele>
        <time>2026-06-17T11:31:34.000Z</time>
        <extensions>
          <ns3:TrackPointExtension>
            <ns3:atemp>17.0</ns3:atemp>
          </ns3:TrackPointExtension>
        </extensions>
      </trkpt>
      <trkpt lat="42.51637495122849941253662109375" lon="19.89898555912077426910400390625">
        <ele>1988.800048828125</ele>
        <time>2026-06-17T11:31:35.000Z</time>
        <extensions>
          <ns3:TrackPointExtension>
            <ns3:atemp>17.0</ns3:atemp>
          </ns3:TrackPointExtension>
        </extensions>
      </trkpt>
      <trkpt lat="42.51637495122849941253662109375" lon="19.89898555912077426910400390625">
        <ele>1988.800048828125</ele>
        <time>2026-06-17T11:31:36.000Z</time>
        <extensions>
          <ns3:TrackPointExtension>
            <ns3:atemp>17.0</ns3:atemp>
          </ns3:TrackPointExtension>
        </extensions>
      </trkpt>
      <trkpt lat="42.51637495122849941253662109375" lon="19.89898555912077426910400390625">
        <ele>1988.800048828125</ele>
        <time>2026-06-17T11:31:37.000Z</time>
        <extensions>
          <ns3:TrackPointExtension>
            <ns3:atemp>17.0</ns3:atemp>
          </ns3:TrackPointExtension>
        </extensions>
      </trkpt>
      <trkpt lat="42.51637495122849941253662109375" lon="19.89898555912077426910400390625">
        <ele>1988.800048828125</ele>
        <time>2026-06-17T11:31:38.000Z</time>
        <extensions>
          <ns3:TrackPointExtension>
            <ns3:atemp>17.0</ns3:atemp>
          </ns3:TrackPointExtension>
        </extensions>
      </trkpt>
      <trkpt lat="42.51637495122849941253662109375" lon="19.89898555912077426910400390625">
        <ele>1988.800048828125</ele>
        <time>2026-06-17T11:31:39.000Z</time>
        <extensions>
          <ns3:TrackPointExtension>
            <ns3:atemp>17.0</ns3:atemp>
          </ns3:TrackPointExtension>
        </extensions>
      </trkpt>
      <trkpt lat="42.51637495122849941253662109375" lon="19.89898555912077426910400390625">
        <ele>1988.800048828125</ele>
        <time>2026-06-17T11:31:40.000Z</time>
        <extensions>
          <ns3:TrackPointExtension>
            <ns3:atemp>17.0</ns3:atemp>
          </ns3:TrackPointExtension>
        </extensions>
      </trkpt>
      <trkpt lat="42.51637495122849941253662109375" lon="19.89898555912077426910400390625">
        <ele>1988.800048828125</ele>
        <time>2026-06-17T11:31:41.000Z</time>
        <extensions>
          <ns3:TrackPointExtension>
            <ns3:atemp>17.0</ns3:atemp>
          </ns3:TrackPointExtension>
        </extensions>
      </trkpt>
      <trkpt lat="42.51637495122849941253662109375" lon="19.89898555912077426910400390625">
        <ele>1988.800048828125</ele>
        <time>2026-06-17T11:31:42.000Z</time>
        <extensions>
          <ns3:TrackPointExtension>
            <ns3:atemp>17.0</ns3:atemp>
          </ns3:TrackPointExtension>
        </extensions>
      </trkpt>
      <trkpt lat="42.51637495122849941253662109375" lon="19.89898555912077426910400390625">
        <ele>1988.5999755859375</ele>
        <time>2026-06-17T11:31:43.000Z</time>
        <extensions>
          <ns3:TrackPointExtension>
            <ns3:atemp>17.0</ns3:atemp>
          </ns3:TrackPointExtension>
        </extensions>
      </trkpt>
      <trkpt lat="42.51637495122849941253662109375" lon="19.89898555912077426910400390625">
        <ele>1988.5999755859375</ele>
        <time>2026-06-17T11:31:44.000Z</time>
        <extensions>
          <ns3:TrackPointExtension>
            <ns3:atemp>17.0</ns3:atemp>
          </ns3:TrackPointExtension>
        </extensions>
      </trkpt>
      <trkpt lat="42.51637495122849941253662109375" lon="19.89898555912077426910400390625">
        <ele>1988.5999755859375</ele>
        <time>2026-06-17T11:31:45.000Z</time>
        <extensions>
          <ns3:TrackPointExtension>
            <ns3:atemp>17.0</ns3:atemp>
          </ns3:TrackPointExtension>
        </extensions>
      </trkpt>
      <trkpt lat="42.51637495122849941253662109375" lon="19.89898555912077426910400390625">
        <ele>1988.5999755859375</ele>
        <time>2026-06-17T11:31:46.000Z</time>
        <extensions>
          <ns3:TrackPointExtension>
            <ns3:atemp>17.0</ns3:atemp>
          </ns3:TrackPointExtension>
        </extensions>
      </trkpt>
      <trkpt lat="42.51637495122849941253662109375" lon="19.89898555912077426910400390625">
        <ele>1988.800048828125</ele>
        <time>2026-06-17T11:31:47.000Z</time>
        <extensions>
          <ns3:TrackPointExtension>
            <ns3:atemp>17.0</ns3:atemp>
          </ns3:TrackPointExtension>
        </extensions>
      </trkpt>
      <trkpt lat="42.51637495122849941253662109375" lon="19.89898555912077426910400390625">
        <ele>1988.800048828125</ele>
        <time>2026-06-17T11:31:48.000Z</time>
        <extensions>
          <ns3:TrackPointExtension>
            <ns3:atemp>17.0</ns3:atemp>
          </ns3:TrackPointExtension>
        </extensions>
      </trkpt>
      <trkpt lat="42.51637495122849941253662109375" lon="19.89898555912077426910400390625">
        <ele>1988.800048828125</ele>
        <time>2026-06-17T11:31:49.000Z</time>
        <extensions>
          <ns3:TrackPointExtension>
            <ns3:atemp>17.0</ns3:atemp>
          </ns3:TrackPointExtension>
        </extensions>
      </trkpt>
      <trkpt lat="42.51637495122849941253662109375" lon="19.89898555912077426910400390625">
        <ele>1988.800048828125</ele>
        <time>2026-06-17T11:31:50.000Z</time>
        <extensions>
          <ns3:TrackPointExtension>
            <ns3:atemp>17.0</ns3:atemp>
          </ns3:TrackPointExtension>
        </extensions>
      </trkpt>
      <trkpt lat="42.51637495122849941253662109375" lon="19.89898555912077426910400390625">
        <ele>1988.800048828125</ele>
        <time>2026-06-17T11:31:51.000Z</time>
        <extensions>
          <ns3:TrackPointExtension>
            <ns3:atemp>17.0</ns3:atemp>
          </ns3:TrackPointExtension>
        </extensions>
      </trkpt>
      <trkpt lat="42.51637495122849941253662109375" lon="19.89898555912077426910400390625">
        <ele>1988.800048828125</ele>
        <time>2026-06-17T11:31:52.000Z</time>
        <extensions>
          <ns3:TrackPointExtension>
            <ns3:atemp>17.0</ns3:atemp>
          </ns3:TrackPointExtension>
        </extensions>
      </trkpt>
      <trkpt lat="42.51637495122849941253662109375" lon="19.89898555912077426910400390625">
        <ele>1988.800048828125</ele>
        <time>2026-06-17T11:31:53.000Z</time>
        <extensions>
          <ns3:TrackPointExtension>
            <ns3:atemp>17.0</ns3:atemp>
          </ns3:TrackPointExtension>
        </extensions>
      </trkpt>
      <trkpt lat="42.51637495122849941253662109375" lon="19.89898555912077426910400390625">
        <ele>1988.800048828125</ele>
        <time>2026-06-17T11:31:54.000Z</time>
        <extensions>
          <ns3:TrackPointExtension>
            <ns3:atemp>17.0</ns3:atemp>
          </ns3:TrackPointExtension>
        </extensions>
      </trkpt>
      <trkpt lat="42.51637495122849941253662109375" lon="19.89898555912077426910400390625">
        <ele>1988.800048828125</ele>
        <time>2026-06-17T11:31:55.000Z</time>
        <extensions>
          <ns3:TrackPointExtension>
            <ns3:atemp>17.0</ns3:atemp>
          </ns3:TrackPointExtension>
        </extensions>
      </trkpt>
      <trkpt lat="42.51637495122849941253662109375" lon="19.89898555912077426910400390625">
        <ele>1988.5999755859375</ele>
        <time>2026-06-17T11:31:56.000Z</time>
        <extensions>
          <ns3:TrackPointExtension>
            <ns3:atemp>17.0</ns3:atemp>
          </ns3:TrackPointExtension>
        </extensions>
      </trkpt>
      <trkpt lat="42.51637495122849941253662109375" lon="19.89898555912077426910400390625">
        <ele>1988.5999755859375</ele>
        <time>2026-06-17T11:31:57.000Z</time>
        <extensions>
          <ns3:TrackPointExtension>
            <ns3:atemp>17.0</ns3:atemp>
          </ns3:TrackPointExtension>
        </extensions>
      </trkpt>
      <trkpt lat="42.51637495122849941253662109375" lon="19.89898555912077426910400390625">
        <ele>1988.5999755859375</ele>
        <time>2026-06-17T11:31:58.000Z</time>
        <extensions>
          <ns3:TrackPointExtension>
            <ns3:atemp>17.0</ns3:atemp>
          </ns3:TrackPointExtension>
        </extensions>
      </trkpt>
      <trkpt lat="42.51637495122849941253662109375" lon="19.89898555912077426910400390625">
        <ele>1988.5999755859375</ele>
        <time>2026-06-17T11:31:59.000Z</time>
        <extensions>
          <ns3:TrackPointExtension>
            <ns3:atemp>17.0</ns3:atemp>
          </ns3:TrackPointExtension>
        </extensions>
      </trkpt>
      <trkpt lat="42.51637495122849941253662109375" lon="19.89898555912077426910400390625">
        <ele>1988.5999755859375</ele>
        <time>2026-06-17T11:32:00.000Z</time>
        <extensions>
          <ns3:TrackPointExtension>
            <ns3:atemp>17.0</ns3:atemp>
          </ns3:TrackPointExtension>
        </extensions>
      </trkpt>
      <trkpt lat="42.51637495122849941253662109375" lon="19.89898555912077426910400390625">
        <ele>1988.5999755859375</ele>
        <time>2026-06-17T11:32:01.000Z</time>
        <extensions>
          <ns3:TrackPointExtension>
            <ns3:atemp>17.0</ns3:atemp>
          </ns3:TrackPointExtension>
        </extensions>
      </trkpt>
      <trkpt lat="42.51637495122849941253662109375" lon="19.89898555912077426910400390625">
        <ele>1988.5999755859375</ele>
        <time>2026-06-17T11:32:02.000Z</time>
        <extensions>
          <ns3:TrackPointExtension>
            <ns3:atemp>17.0</ns3:atemp>
          </ns3:TrackPointExtension>
        </extensions>
      </trkpt>
      <trkpt lat="42.51637495122849941253662109375" lon="19.89898555912077426910400390625">
        <ele>1988.5999755859375</ele>
        <time>2026-06-17T11:32:03.000Z</time>
        <extensions>
          <ns3:TrackPointExtension>
            <ns3:atemp>17.0</ns3:atemp>
          </ns3:TrackPointExtension>
        </extensions>
      </trkpt>
      <trkpt lat="42.51637495122849941253662109375" lon="19.89898555912077426910400390625">
        <ele>1988.5999755859375</ele>
        <time>2026-06-17T11:32:04.000Z</time>
        <extensions>
          <ns3:TrackPointExtension>
            <ns3:atemp>17.0</ns3:atemp>
          </ns3:TrackPointExtension>
        </extensions>
      </trkpt>
      <trkpt lat="42.51637495122849941253662109375" lon="19.89898555912077426910400390625">
        <ele>1988.5999755859375</ele>
        <time>2026-06-17T11:32:05.000Z</time>
        <extensions>
          <ns3:TrackPointExtension>
            <ns3:atemp>17.0</ns3:atemp>
          </ns3:TrackPointExtension>
        </extensions>
      </trkpt>
      <trkpt lat="42.51637495122849941253662109375" lon="19.89898555912077426910400390625">
        <ele>1988.5999755859375</ele>
        <time>2026-06-17T11:32:06.000Z</time>
        <extensions>
          <ns3:TrackPointExtension>
            <ns3:atemp>17.0</ns3:atemp>
          </ns3:TrackPointExtension>
        </extensions>
      </trkpt>
      <trkpt lat="42.51637495122849941253662109375" lon="19.89898555912077426910400390625">
        <ele>1988.5999755859375</ele>
        <time>2026-06-17T11:32:07.000Z</time>
        <extensions>
          <ns3:TrackPointExtension>
            <ns3:atemp>17.0</ns3:atemp>
          </ns3:TrackPointExtension>
        </extensions>
      </trkpt>
      <trkpt lat="42.51637495122849941253662109375" lon="19.89898555912077426910400390625">
        <ele>1988.5999755859375</ele>
        <time>2026-06-17T11:32:08.000Z</time>
        <extensions>
          <ns3:TrackPointExtension>
            <ns3:atemp>17.0</ns3:atemp>
          </ns3:TrackPointExtension>
        </extensions>
      </trkpt>
      <trkpt lat="42.51637495122849941253662109375" lon="19.89898555912077426910400390625">
        <ele>1988.5999755859375</ele>
        <time>2026-06-17T11:32:09.000Z</time>
        <extensions>
          <ns3:TrackPointExtension>
            <ns3:atemp>17.0</ns3:atemp>
          </ns3:TrackPointExtension>
        </extensions>
      </trkpt>
      <trkpt lat="42.51637495122849941253662109375" lon="19.89898555912077426910400390625">
        <ele>1988.5999755859375</ele>
        <time>2026-06-17T11:32:10.000Z</time>
        <extensions>
          <ns3:TrackPointExtension>
            <ns3:atemp>17.0</ns3:atemp>
          </ns3:TrackPointExtension>
        </extensions>
      </trkpt>
      <trkpt lat="42.51637495122849941253662109375" lon="19.89898555912077426910400390625">
        <ele>1988.5999755859375</ele>
        <time>2026-06-17T11:32:11.000Z</time>
        <extensions>
          <ns3:TrackPointExtension>
            <ns3:atemp>17.0</ns3:atemp>
          </ns3:TrackPointExtension>
        </extensions>
      </trkpt>
      <trkpt lat="42.51637495122849941253662109375" lon="19.89898555912077426910400390625">
        <ele>1988.5999755859375</ele>
        <time>2026-06-17T11:32:12.000Z</time>
        <extensions>
          <ns3:TrackPointExtension>
            <ns3:atemp>17.0</ns3:atemp>
          </ns3:TrackPointExtension>
        </extensions>
      </trkpt>
      <trkpt lat="42.51637495122849941253662109375" lon="19.89898555912077426910400390625">
        <ele>1988.5999755859375</ele>
        <time>2026-06-17T11:32:13.000Z</time>
        <extensions>
          <ns3:TrackPointExtension>
            <ns3:atemp>17.0</ns3:atemp>
          </ns3:TrackPointExtension>
        </extensions>
      </trkpt>
      <trkpt lat="42.51637495122849941253662109375" lon="19.89898555912077426910400390625">
        <ele>1988.5999755859375</ele>
        <time>2026-06-17T11:32:14.000Z</time>
        <extensions>
          <ns3:TrackPointExtension>
            <ns3:atemp>17.0</ns3:atemp>
          </ns3:TrackPointExtension>
        </extensions>
      </trkpt>
      <trkpt lat="42.51637495122849941253662109375" lon="19.89898555912077426910400390625">
        <ele>1988.5999755859375</ele>
        <time>2026-06-17T11:32:15.000Z</time>
        <extensions>
          <ns3:TrackPointExtension>
            <ns3:atemp>17.0</ns3:atemp>
          </ns3:TrackPointExtension>
        </extensions>
      </trkpt>
      <trkpt lat="42.51637495122849941253662109375" lon="19.89898555912077426910400390625">
        <ele>1988.5999755859375</ele>
        <time>2026-06-17T11:32:16.000Z</time>
        <extensions>
          <ns3:TrackPointExtension>
            <ns3:atemp>17.0</ns3:atemp>
          </ns3:TrackPointExtension>
        </extensions>
      </trkpt>
      <trkpt lat="42.51637495122849941253662109375" lon="19.89898555912077426910400390625">
        <ele>1988.5999755859375</ele>
        <time>2026-06-17T11:32:17.000Z</time>
        <extensions>
          <ns3:TrackPointExtension>
            <ns3:atemp>17.0</ns3:atemp>
          </ns3:TrackPointExtension>
        </extensions>
      </trkpt>
      <trkpt lat="42.51637495122849941253662109375" lon="19.89898555912077426910400390625">
        <ele>1988.5999755859375</ele>
        <time>2026-06-17T11:32:18.000Z</time>
        <extensions>
          <ns3:TrackPointExtension>
            <ns3:atemp>17.0</ns3:atemp>
          </ns3:TrackPointExtension>
        </extensions>
      </trkpt>
      <trkpt lat="42.51637495122849941253662109375" lon="19.89898555912077426910400390625">
        <ele>1988.5999755859375</ele>
        <time>2026-06-17T11:32:19.000Z</time>
        <extensions>
          <ns3:TrackPointExtension>
            <ns3:atemp>17.0</ns3:atemp>
          </ns3:TrackPointExtension>
        </extensions>
      </trkpt>
      <trkpt lat="42.51637495122849941253662109375" lon="19.89898555912077426910400390625">
        <ele>1988.5999755859375</ele>
        <time>2026-06-17T11:32:20.000Z</time>
        <extensions>
          <ns3:TrackPointExtension>
            <ns3:atemp>17.0</ns3:atemp>
          </ns3:TrackPointExtension>
        </extensions>
      </trkpt>
      <trkpt lat="42.51637495122849941253662109375" lon="19.89898555912077426910400390625">
        <ele>1988.5999755859375</ele>
        <time>2026-06-17T11:32:21.000Z</time>
        <extensions>
          <ns3:TrackPointExtension>
            <ns3:atemp>17.0</ns3:atemp>
          </ns3:TrackPointExtension>
        </extensions>
      </trkpt>
      <trkpt lat="42.51637495122849941253662109375" lon="19.89898555912077426910400390625">
        <ele>1988.5999755859375</ele>
        <time>2026-06-17T11:32:22.000Z</time>
        <extensions>
          <ns3:TrackPointExtension>
            <ns3:atemp>17.0</ns3:atemp>
          </ns3:TrackPointExtension>
        </extensions>
      </trkpt>
      <trkpt lat="42.51637495122849941253662109375" lon="19.89898555912077426910400390625">
        <ele>1988.5999755859375</ele>
        <time>2026-06-17T11:32:23.000Z</time>
        <extensions>
          <ns3:TrackPointExtension>
            <ns3:atemp>17.0</ns3:atemp>
          </ns3:TrackPointExtension>
        </extensions>
      </trkpt>
      <trkpt lat="42.51637495122849941253662109375" lon="19.89898555912077426910400390625">
        <ele>1988.5999755859375</ele>
        <time>2026-06-17T11:32:24.000Z</time>
        <extensions>
          <ns3:TrackPointExtension>
            <ns3:atemp>17.0</ns3:atemp>
          </ns3:TrackPointExtension>
        </extensions>
      </trkpt>
      <trkpt lat="42.51637495122849941253662109375" lon="19.89898555912077426910400390625">
        <ele>1988.5999755859375</ele>
        <time>2026-06-17T11:32:25.000Z</time>
        <extensions>
          <ns3:TrackPointExtension>
            <ns3:atemp>17.0</ns3:atemp>
          </ns3:TrackPointExtension>
        </extensions>
      </trkpt>
      <trkpt lat="42.51637495122849941253662109375" lon="19.89898555912077426910400390625">
        <ele>1988.5999755859375</ele>
        <time>2026-06-17T11:32:26.000Z</time>
        <extensions>
          <ns3:TrackPointExtension>
            <ns3:atemp>17.0</ns3:atemp>
          </ns3:TrackPointExtension>
        </extensions>
      </trkpt>
      <trkpt lat="42.51637495122849941253662109375" lon="19.89898555912077426910400390625">
        <ele>1988.5999755859375</ele>
        <time>2026-06-17T11:32:27.000Z</time>
        <extensions>
          <ns3:TrackPointExtension>
            <ns3:atemp>17.0</ns3:atemp>
          </ns3:TrackPointExtension>
        </extensions>
      </trkpt>
      <trkpt lat="42.51637495122849941253662109375" lon="19.89898555912077426910400390625">
        <ele>1988.5999755859375</ele>
        <time>2026-06-17T11:32:28.000Z</time>
        <extensions>
          <ns3:TrackPointExtension>
            <ns3:atemp>17.0</ns3:atemp>
          </ns3:TrackPointExtension>
        </extensions>
      </trkpt>
      <trkpt lat="42.51637495122849941253662109375" lon="19.89898555912077426910400390625">
        <ele>1988.5999755859375</ele>
        <time>2026-06-17T11:32:29.000Z</time>
        <extensions>
          <ns3:TrackPointExtension>
            <ns3:atemp>17.0</ns3:atemp>
          </ns3:TrackPointExtension>
        </extensions>
      </trkpt>
      <trkpt lat="42.51637495122849941253662109375" lon="19.89898555912077426910400390625">
        <ele>1988.5999755859375</ele>
        <time>2026-06-17T11:32:30.000Z</time>
        <extensions>
          <ns3:TrackPointExtension>
            <ns3:atemp>17.0</ns3:atemp>
          </ns3:TrackPointExtension>
        </extensions>
      </trkpt>
      <trkpt lat="42.51637495122849941253662109375" lon="19.89898555912077426910400390625">
        <ele>1988.5999755859375</ele>
        <time>2026-06-17T11:32:31.000Z</time>
        <extensions>
          <ns3:TrackPointExtension>
            <ns3:atemp>17.0</ns3:atemp>
          </ns3:TrackPointExtension>
        </extensions>
      </trkpt>
      <trkpt lat="42.51637495122849941253662109375" lon="19.89898555912077426910400390625">
        <ele>1988.5999755859375</ele>
        <time>2026-06-17T11:32:32.000Z</time>
        <extensions>
          <ns3:TrackPointExtension>
            <ns3:atemp>17.0</ns3:atemp>
          </ns3:TrackPointExtension>
        </extensions>
      </trkpt>
      <trkpt lat="42.51637495122849941253662109375" lon="19.89898555912077426910400390625">
        <ele>1988.5999755859375</ele>
        <time>2026-06-17T11:32:33.000Z</time>
        <extensions>
          <ns3:TrackPointExtension>
            <ns3:atemp>17.0</ns3:atemp>
          </ns3:TrackPointExtension>
        </extensions>
      </trkpt>
      <trkpt lat="42.51637495122849941253662109375" lon="19.89898555912077426910400390625">
        <ele>1988.5999755859375</ele>
        <time>2026-06-17T11:32:34.000Z</time>
        <extensions>
          <ns3:TrackPointExtension>
            <ns3:atemp>17.0</ns3:atemp>
          </ns3:TrackPointExtension>
        </extensions>
      </trkpt>
      <trkpt lat="42.51637495122849941253662109375" lon="19.89898555912077426910400390625">
        <ele>1988.5999755859375</ele>
        <time>2026-06-17T11:32:35.000Z</time>
        <extensions>
          <ns3:TrackPointExtension>
            <ns3:atemp>17.0</ns3:atemp>
          </ns3:TrackPointExtension>
        </extensions>
      </trkpt>
      <trkpt lat="42.51637495122849941253662109375" lon="19.89898555912077426910400390625">
        <ele>1988.5999755859375</ele>
        <time>2026-06-17T11:32:36.000Z</time>
        <extensions>
          <ns3:TrackPointExtension>
            <ns3:atemp>17.0</ns3:atemp>
          </ns3:TrackPointExtension>
        </extensions>
      </trkpt>
      <trkpt lat="42.51637495122849941253662109375" lon="19.89898555912077426910400390625">
        <ele>1988.5999755859375</ele>
        <time>2026-06-17T11:32:37.000Z</time>
        <extensions>
          <ns3:TrackPointExtension>
            <ns3:atemp>17.0</ns3:atemp>
          </ns3:TrackPointExtension>
        </extensions>
      </trkpt>
      <trkpt lat="42.51637495122849941253662109375" lon="19.89898555912077426910400390625">
        <ele>1988.5999755859375</ele>
        <time>2026-06-17T11:32:38.000Z</time>
        <extensions>
          <ns3:TrackPointExtension>
            <ns3:atemp>17.0</ns3:atemp>
          </ns3:TrackPointExtension>
        </extensions>
      </trkpt>
      <trkpt lat="42.51637495122849941253662109375" lon="19.89898555912077426910400390625">
        <ele>1988.5999755859375</ele>
        <time>2026-06-17T11:32:39.000Z</time>
        <extensions>
          <ns3:TrackPointExtension>
            <ns3:atemp>17.0</ns3:atemp>
          </ns3:TrackPointExtension>
        </extensions>
      </trkpt>
      <trkpt lat="42.51637495122849941253662109375" lon="19.89898555912077426910400390625">
        <ele>1988.5999755859375</ele>
        <time>2026-06-17T11:32:40.000Z</time>
        <extensions>
          <ns3:TrackPointExtension>
            <ns3:atemp>17.0</ns3:atemp>
          </ns3:TrackPointExtension>
        </extensions>
      </trkpt>
      <trkpt lat="42.51637495122849941253662109375" lon="19.89898555912077426910400390625">
        <ele>1988.4000244140625</ele>
        <time>2026-06-17T11:32:41.000Z</time>
        <extensions>
          <ns3:TrackPointExtension>
            <ns3:atemp>17.0</ns3:atemp>
          </ns3:TrackPointExtension>
        </extensions>
      </trkpt>
      <trkpt lat="42.51637495122849941253662109375" lon="19.89898555912077426910400390625">
        <ele>1988.4000244140625</ele>
        <time>2026-06-17T11:32:42.000Z</time>
        <extensions>
          <ns3:TrackPointExtension>
            <ns3:atemp>17.0</ns3:atemp>
          </ns3:TrackPointExtension>
        </extensions>
      </trkpt>
      <trkpt lat="42.51637495122849941253662109375" lon="19.89898555912077426910400390625">
        <ele>1988.5999755859375</ele>
        <time>2026-06-17T11:32:43.000Z</time>
        <extensions>
          <ns3:TrackPointExtension>
            <ns3:atemp>17.0</ns3:atemp>
          </ns3:TrackPointExtension>
        </extensions>
      </trkpt>
      <trkpt lat="42.51637495122849941253662109375" lon="19.89898555912077426910400390625">
        <ele>1988.5999755859375</ele>
        <time>2026-06-17T11:32:44.000Z</time>
        <extensions>
          <ns3:TrackPointExtension>
            <ns3:atemp>17.0</ns3:atemp>
          </ns3:TrackPointExtension>
        </extensions>
      </trkpt>
      <trkpt lat="42.51637495122849941253662109375" lon="19.89898555912077426910400390625">
        <ele>1988.5999755859375</ele>
        <time>2026-06-17T11:32:45.000Z</time>
        <extensions>
          <ns3:TrackPointExtension>
            <ns3:atemp>17.0</ns3:atemp>
          </ns3:TrackPointExtension>
        </extensions>
      </trkpt>
      <trkpt lat="42.51637495122849941253662109375" lon="19.89898555912077426910400390625">
        <ele>1988.5999755859375</ele>
        <time>2026-06-17T11:32:46.000Z</time>
        <extensions>
          <ns3:TrackPointExtension>
            <ns3:atemp>17.0</ns3:atemp>
          </ns3:TrackPointExtension>
        </extensions>
      </trkpt>
      <trkpt lat="42.51637495122849941253662109375" lon="19.89898555912077426910400390625">
        <ele>1988.5999755859375</ele>
        <time>2026-06-17T11:32:47.000Z</time>
        <extensions>
          <ns3:TrackPointExtension>
            <ns3:atemp>17.0</ns3:atemp>
          </ns3:TrackPointExtension>
        </extensions>
      </trkpt>
      <trkpt lat="42.51637495122849941253662109375" lon="19.89898555912077426910400390625">
        <ele>1988.5999755859375</ele>
        <time>2026-06-17T11:32:48.000Z</time>
        <extensions>
          <ns3:TrackPointExtension>
            <ns3:atemp>17.0</ns3:atemp>
          </ns3:TrackPointExtension>
        </extensions>
      </trkpt>
      <trkpt lat="42.51637495122849941253662109375" lon="19.89898555912077426910400390625">
        <ele>1988.5999755859375</ele>
        <time>2026-06-17T11:32:49.000Z</time>
        <extensions>
          <ns3:TrackPointExtension>
            <ns3:atemp>17.0</ns3:atemp>
          </ns3:TrackPointExtension>
        </extensions>
      </trkpt>
      <trkpt lat="42.51637495122849941253662109375" lon="19.89898555912077426910400390625">
        <ele>1988.5999755859375</ele>
        <time>2026-06-17T11:32:50.000Z</time>
        <extensions>
          <ns3:TrackPointExtension>
            <ns3:atemp>17.0</ns3:atemp>
          </ns3:TrackPointExtension>
        </extensions>
      </trkpt>
      <trkpt lat="42.51637495122849941253662109375" lon="19.89898555912077426910400390625">
        <ele>1988.4000244140625</ele>
        <time>2026-06-17T11:32:51.000Z</time>
        <extensions>
          <ns3:TrackPointExtension>
            <ns3:atemp>17.0</ns3:atemp>
          </ns3:TrackPointExtension>
        </extensions>
      </trkpt>
      <trkpt lat="42.51637495122849941253662109375" lon="19.89898555912077426910400390625">
        <ele>1988.4000244140625</ele>
        <time>2026-06-17T11:32:52.000Z</time>
        <extensions>
          <ns3:TrackPointExtension>
            <ns3:atemp>17.0</ns3:atemp>
          </ns3:TrackPointExtension>
        </extensions>
      </trkpt>
      <trkpt lat="42.51637495122849941253662109375" lon="19.89898555912077426910400390625">
        <ele>1988.4000244140625</ele>
        <time>2026-06-17T11:32:53.000Z</time>
        <extensions>
          <ns3:TrackPointExtension>
            <ns3:atemp>17.0</ns3:atemp>
          </ns3:TrackPointExtension>
        </extensions>
      </trkpt>
      <trkpt lat="42.51637495122849941253662109375" lon="19.89898555912077426910400390625">
        <ele>1988.4000244140625</ele>
        <time>2026-06-17T11:32:54.000Z</time>
        <extensions>
          <ns3:TrackPointExtension>
            <ns3:atemp>17.0</ns3:atemp>
          </ns3:TrackPointExtension>
        </extensions>
      </trkpt>
      <trkpt lat="42.51637495122849941253662109375" lon="19.89898555912077426910400390625">
        <ele>1988.4000244140625</ele>
        <time>2026-06-17T11:32:55.000Z</time>
        <extensions>
          <ns3:TrackPointExtension>
            <ns3:atemp>17.0</ns3:atemp>
          </ns3:TrackPointExtension>
        </extensions>
      </trkpt>
      <trkpt lat="42.51637495122849941253662109375" lon="19.89898555912077426910400390625">
        <ele>1988.4000244140625</ele>
        <time>2026-06-17T11:32:56.000Z</time>
        <extensions>
          <ns3:TrackPointExtension>
            <ns3:atemp>17.0</ns3:atemp>
          </ns3:TrackPointExtension>
        </extensions>
      </trkpt>
      <trkpt lat="42.51637495122849941253662109375" lon="19.89898555912077426910400390625">
        <ele>1988.4000244140625</ele>
        <time>2026-06-17T11:32:57.000Z</time>
        <extensions>
          <ns3:TrackPointExtension>
            <ns3:atemp>17.0</ns3:atemp>
          </ns3:TrackPointExtension>
        </extensions>
      </trkpt>
      <trkpt lat="42.51637495122849941253662109375" lon="19.89898555912077426910400390625">
        <ele>1988.4000244140625</ele>
        <time>2026-06-17T11:32:58.000Z</time>
        <extensions>
          <ns3:TrackPointExtension>
            <ns3:atemp>17.0</ns3:atemp>
          </ns3:TrackPointExtension>
        </extensions>
      </trkpt>
      <trkpt lat="42.51637495122849941253662109375" lon="19.89898555912077426910400390625">
        <ele>1988.4000244140625</ele>
        <time>2026-06-17T11:32:59.000Z</time>
        <extensions>
          <ns3:TrackPointExtension>
            <ns3:atemp>17.0</ns3:atemp>
          </ns3:TrackPointExtension>
        </extensions>
      </trkpt>
      <trkpt lat="42.51637495122849941253662109375" lon="19.89898555912077426910400390625">
        <ele>1988.4000244140625</ele>
        <time>2026-06-17T11:33:00.000Z</time>
        <extensions>
          <ns3:TrackPointExtension>
            <ns3:atemp>17.0</ns3:atemp>
          </ns3:TrackPointExtension>
        </extensions>
      </trkpt>
      <trkpt lat="42.51637495122849941253662109375" lon="19.89898555912077426910400390625">
        <ele>1988.4000244140625</ele>
        <time>2026-06-17T11:33:01.000Z</time>
        <extensions>
          <ns3:TrackPointExtension>
            <ns3:atemp>17.0</ns3:atemp>
          </ns3:TrackPointExtension>
        </extensions>
      </trkpt>
      <trkpt lat="42.51637495122849941253662109375" lon="19.89898555912077426910400390625">
        <ele>1988.4000244140625</ele>
        <time>2026-06-17T11:33:02.000Z</time>
        <extensions>
          <ns3:TrackPointExtension>
            <ns3:atemp>17.0</ns3:atemp>
          </ns3:TrackPointExtension>
        </extensions>
      </trkpt>
      <trkpt lat="42.51637495122849941253662109375" lon="19.89898555912077426910400390625">
        <ele>1988.4000244140625</ele>
        <time>2026-06-17T11:33:03.000Z</time>
        <extensions>
          <ns3:TrackPointExtension>
            <ns3:atemp>17.0</ns3:atemp>
          </ns3:TrackPointExtension>
        </extensions>
      </trkpt>
      <trkpt lat="42.51637495122849941253662109375" lon="19.89898555912077426910400390625">
        <ele>1988.4000244140625</ele>
        <time>2026-06-17T11:33:04.000Z</time>
        <extensions>
          <ns3:TrackPointExtension>
            <ns3:atemp>17.0</ns3:atemp>
          </ns3:TrackPointExtension>
        </extensions>
      </trkpt>
      <trkpt lat="42.51637495122849941253662109375" lon="19.89898555912077426910400390625">
        <ele>1988.4000244140625</ele>
        <time>2026-06-17T11:33:05.000Z</time>
        <extensions>
          <ns3:TrackPointExtension>
            <ns3:atemp>17.0</ns3:atemp>
          </ns3:TrackPointExtension>
        </extensions>
      </trkpt>
      <trkpt lat="42.51637495122849941253662109375" lon="19.89898555912077426910400390625">
        <ele>1988.4000244140625</ele>
        <time>2026-06-17T11:33:06.000Z</time>
        <extensions>
          <ns3:TrackPointExtension>
            <ns3:atemp>17.0</ns3:atemp>
          </ns3:TrackPointExtension>
        </extensions>
      </trkpt>
      <trkpt lat="42.51637495122849941253662109375" lon="19.89898555912077426910400390625">
        <ele>1988.4000244140625</ele>
        <time>2026-06-17T11:33:07.000Z</time>
        <extensions>
          <ns3:TrackPointExtension>
            <ns3:atemp>17.0</ns3:atemp>
          </ns3:TrackPointExtension>
        </extensions>
      </trkpt>
      <trkpt lat="42.51637495122849941253662109375" lon="19.89898555912077426910400390625">
        <ele>1988.4000244140625</ele>
        <time>2026-06-17T11:33:08.000Z</time>
        <extensions>
          <ns3:TrackPointExtension>
            <ns3:atemp>17.0</ns3:atemp>
          </ns3:TrackPointExtension>
        </extensions>
      </trkpt>
      <trkpt lat="42.51637495122849941253662109375" lon="19.89898555912077426910400390625">
        <ele>1988.4000244140625</ele>
        <time>2026-06-17T11:33:09.000Z</time>
        <extensions>
          <ns3:TrackPointExtension>
            <ns3:atemp>17.0</ns3:atemp>
          </ns3:TrackPointExtension>
        </extensions>
      </trkpt>
      <trkpt lat="42.51637495122849941253662109375" lon="19.89898555912077426910400390625">
        <ele>1988.4000244140625</ele>
        <time>2026-06-17T11:33:10.000Z</time>
        <extensions>
          <ns3:TrackPointExtension>
            <ns3:atemp>17.0</ns3:atemp>
          </ns3:TrackPointExtension>
        </extensions>
      </trkpt>
      <trkpt lat="42.51637495122849941253662109375" lon="19.89898555912077426910400390625">
        <ele>1988.4000244140625</ele>
        <time>2026-06-17T11:33:11.000Z</time>
        <extensions>
          <ns3:TrackPointExtension>
            <ns3:atemp>17.0</ns3:atemp>
          </ns3:TrackPointExtension>
        </extensions>
      </trkpt>
      <trkpt lat="42.51637495122849941253662109375" lon="19.89898555912077426910400390625">
        <ele>1988.4000244140625</ele>
        <time>2026-06-17T11:33:12.000Z</time>
        <extensions>
          <ns3:TrackPointExtension>
            <ns3:atemp>17.0</ns3:atemp>
          </ns3:TrackPointExtension>
        </extensions>
      </trkpt>
      <trkpt lat="42.51637495122849941253662109375" lon="19.89898555912077426910400390625">
        <ele>1988.4000244140625</ele>
        <time>2026-06-17T11:33:13.000Z</time>
        <extensions>
          <ns3:TrackPointExtension>
            <ns3:atemp>17.0</ns3:atemp>
          </ns3:TrackPointExtension>
        </extensions>
      </trkpt>
      <trkpt lat="42.51637495122849941253662109375" lon="19.89898555912077426910400390625">
        <ele>1988.4000244140625</ele>
        <time>2026-06-17T11:33:14.000Z</time>
        <extensions>
          <ns3:TrackPointExtension>
            <ns3:atemp>17.0</ns3:atemp>
          </ns3:TrackPointExtension>
        </extensions>
      </trkpt>
      <trkpt lat="42.51637570559978485107421875" lon="19.8989869840443134307861328125">
        <ele>1988.4000244140625</ele>
        <time>2026-06-17T11:33:15.000Z</time>
        <extensions>
          <ns3:TrackPointExtension>
            <ns3:atemp>17.0</ns3:atemp>
          </ns3:TrackPointExtension>
        </extensions>
      </trkpt>
      <trkpt lat="42.51637998037040233612060546875" lon="19.89898656494915485382080078125">
        <ele>1988.4000244140625</ele>
        <time>2026-06-17T11:33:16.000Z</time>
        <extensions>
          <ns3:TrackPointExtension>
            <ns3:atemp>17.0</ns3:atemp>
          </ns3:TrackPointExtension>
        </extensions>
      </trkpt>
      <trkpt lat="42.51637495122849941253662109375" lon="19.89898555912077426910400390625">
        <ele>1988.4000244140625</ele>
        <time>2026-06-17T11:33:17.000Z</time>
        <extensions>
          <ns3:TrackPointExtension>
            <ns3:atemp>17.0</ns3:atemp>
          </ns3:TrackPointExtension>
        </extensions>
      </trkpt>
      <trkpt lat="42.51637495122849941253662109375" lon="19.89898555912077426910400390625">
        <ele>1988.4000244140625</ele>
        <time>2026-06-17T11:33:18.000Z</time>
        <extensions>
          <ns3:TrackPointExtension>
            <ns3:atemp>17.0</ns3:atemp>
          </ns3:TrackPointExtension>
        </extensions>
      </trkpt>
      <trkpt lat="42.51637495122849941253662109375" lon="19.89898555912077426910400390625">
        <ele>1988.4000244140625</ele>
        <time>2026-06-17T11:33:19.000Z</time>
        <extensions>
          <ns3:TrackPointExtension>
            <ns3:atemp>17.0</ns3:atemp>
          </ns3:TrackPointExtension>
        </extensions>
      </trkpt>
      <trkpt lat="42.51637495122849941253662109375" lon="19.89898555912077426910400390625">
        <ele>1988.4000244140625</ele>
        <time>2026-06-17T11:33:20.000Z</time>
        <extensions>
          <ns3:TrackPointExtension>
            <ns3:atemp>17.0</ns3:atemp>
          </ns3:TrackPointExtension>
        </extensions>
      </trkpt>
      <trkpt lat="42.51637495122849941253662109375" lon="19.89898555912077426910400390625">
        <ele>1988.4000244140625</ele>
        <time>2026-06-17T11:33:21.000Z</time>
        <extensions>
          <ns3:TrackPointExtension>
            <ns3:atemp>17.0</ns3:atemp>
          </ns3:TrackPointExtension>
        </extensions>
      </trkpt>
      <trkpt lat="42.51637495122849941253662109375" lon="19.89898555912077426910400390625">
        <ele>1988.4000244140625</ele>
        <time>2026-06-17T11:33:22.000Z</time>
        <extensions>
          <ns3:TrackPointExtension>
            <ns3:atemp>17.0</ns3:atemp>
          </ns3:TrackPointExtension>
        </extensions>
      </trkpt>
      <trkpt lat="42.51637495122849941253662109375" lon="19.89898555912077426910400390625">
        <ele>1988.4000244140625</ele>
        <time>2026-06-17T11:33:23.000Z</time>
        <extensions>
          <ns3:TrackPointExtension>
            <ns3:atemp>17.0</ns3:atemp>
          </ns3:TrackPointExtension>
        </extensions>
      </trkpt>
      <trkpt lat="42.51637495122849941253662109375" lon="19.89898555912077426910400390625">
        <ele>1988.4000244140625</ele>
        <time>2026-06-17T11:33:24.000Z</time>
        <extensions>
          <ns3:TrackPointExtension>
            <ns3:atemp>17.0</ns3:atemp>
          </ns3:TrackPointExtension>
        </extensions>
      </trkpt>
      <trkpt lat="42.51637495122849941253662109375" lon="19.89898555912077426910400390625">
        <ele>1988.4000244140625</ele>
        <time>2026-06-17T11:33:25.000Z</time>
        <extensions>
          <ns3:TrackPointExtension>
            <ns3:atemp>17.0</ns3:atemp>
          </ns3:TrackPointExtension>
        </extensions>
      </trkpt>
      <trkpt lat="42.51637495122849941253662109375" lon="19.89898555912077426910400390625">
        <ele>1988.4000244140625</ele>
        <time>2026-06-17T11:33:26.000Z</time>
        <extensions>
          <ns3:TrackPointExtension>
            <ns3:atemp>17.0</ns3:atemp>
          </ns3:TrackPointExtension>
        </extensions>
      </trkpt>
      <trkpt lat="42.51637495122849941253662109375" lon="19.89898555912077426910400390625">
        <ele>1988.4000244140625</ele>
        <time>2026-06-17T11:33:27.000Z</time>
        <extensions>
          <ns3:TrackPointExtension>
            <ns3:atemp>17.0</ns3:atemp>
          </ns3:TrackPointExtension>
        </extensions>
      </trkpt>
      <trkpt lat="42.51637495122849941253662109375" lon="19.89898555912077426910400390625">
        <ele>1988.4000244140625</ele>
        <time>2026-06-17T11:33:28.000Z</time>
        <extensions>
          <ns3:TrackPointExtension>
            <ns3:atemp>17.0</ns3:atemp>
          </ns3:TrackPointExtension>
        </extensions>
      </trkpt>
      <trkpt lat="42.51637495122849941253662109375" lon="19.89898555912077426910400390625">
        <ele>1988.4000244140625</ele>
        <time>2026-06-17T11:33:29.000Z</time>
        <extensions>
          <ns3:TrackPointExtension>
            <ns3:atemp>17.0</ns3:atemp>
          </ns3:TrackPointExtension>
        </extensions>
      </trkpt>
      <trkpt lat="42.51637495122849941253662109375" lon="19.89898555912077426910400390625">
        <ele>1988.4000244140625</ele>
        <time>2026-06-17T11:33:30.000Z</time>
        <extensions>
          <ns3:TrackPointExtension>
            <ns3:atemp>17.0</ns3:atemp>
          </ns3:TrackPointExtension>
        </extensions>
      </trkpt>
      <trkpt lat="42.51637495122849941253662109375" lon="19.89898555912077426910400390625">
        <ele>1988.4000244140625</ele>
        <time>2026-06-17T11:33:31.000Z</time>
        <extensions>
          <ns3:TrackPointExtension>
            <ns3:atemp>17.0</ns3:atemp>
          </ns3:TrackPointExtension>
        </extensions>
      </trkpt>
      <trkpt lat="42.51637495122849941253662109375" lon="19.89898555912077426910400390625">
        <ele>1988.4000244140625</ele>
        <time>2026-06-17T11:33:32.000Z</time>
        <extensions>
          <ns3:TrackPointExtension>
            <ns3:atemp>17.0</ns3:atemp>
          </ns3:TrackPointExtension>
        </extensions>
      </trkpt>
      <trkpt lat="42.51637495122849941253662109375" lon="19.89898555912077426910400390625">
        <ele>1988.4000244140625</ele>
        <time>2026-06-17T11:33:33.000Z</time>
        <extensions>
          <ns3:TrackPointExtension>
            <ns3:atemp>17.0</ns3:atemp>
          </ns3:TrackPointExtension>
        </extensions>
      </trkpt>
      <trkpt lat="42.51637495122849941253662109375" lon="19.89898555912077426910400390625">
        <ele>1988.4000244140625</ele>
        <time>2026-06-17T11:33:34.000Z</time>
        <extensions>
          <ns3:TrackPointExtension>
            <ns3:atemp>17.0</ns3:atemp>
          </ns3:TrackPointExtension>
        </extensions>
      </trkpt>
      <trkpt lat="42.51637495122849941253662109375" lon="19.89898555912077426910400390625">
        <ele>1988.4000244140625</ele>
        <time>2026-06-17T11:33:35.000Z</time>
        <extensions>
          <ns3:TrackPointExtension>
            <ns3:atemp>17.0</ns3:atemp>
          </ns3:TrackPointExtension>
        </extensions>
      </trkpt>
      <trkpt lat="42.51637495122849941253662109375" lon="19.89898555912077426910400390625">
        <ele>1988.4000244140625</ele>
        <time>2026-06-17T11:33:36.000Z</time>
        <extensions>
          <ns3:TrackPointExtension>
            <ns3:atemp>17.0</ns3:atemp>
          </ns3:TrackPointExtension>
        </extensions>
      </trkpt>
      <trkpt lat="42.51637495122849941253662109375" lon="19.89898555912077426910400390625">
        <ele>1988.4000244140625</ele>
        <time>2026-06-17T11:33:37.000Z</time>
        <extensions>
          <ns3:TrackPointExtension>
            <ns3:atemp>17.0</ns3:atemp>
          </ns3:TrackPointExtension>
        </extensions>
      </trkpt>
      <trkpt lat="42.51637495122849941253662109375" lon="19.89898555912077426910400390625">
        <ele>1988.4000244140625</ele>
        <time>2026-06-17T11:33:38.000Z</time>
        <extensions>
          <ns3:TrackPointExtension>
            <ns3:atemp>17.0</ns3:atemp>
          </ns3:TrackPointExtension>
        </extensions>
      </trkpt>
      <trkpt lat="42.51637495122849941253662109375" lon="19.89898555912077426910400390625">
        <ele>1988.4000244140625</ele>
        <time>2026-06-17T11:33:39.000Z</time>
        <extensions>
          <ns3:TrackPointExtension>
            <ns3:atemp>17.0</ns3:atemp>
          </ns3:TrackPointExtension>
        </extensions>
      </trkpt>
      <trkpt lat="42.51637495122849941253662109375" lon="19.89898555912077426910400390625">
        <ele>1988.4000244140625</ele>
        <time>2026-06-17T11:33:40.000Z</time>
        <extensions>
          <ns3:TrackPointExtension>
            <ns3:atemp>17.0</ns3:atemp>
          </ns3:TrackPointExtension>
        </extensions>
      </trkpt>
      <trkpt lat="42.51637495122849941253662109375" lon="19.89898555912077426910400390625">
        <ele>1988.4000244140625</ele>
        <time>2026-06-17T11:33:41.000Z</time>
        <extensions>
          <ns3:TrackPointExtension>
            <ns3:atemp>17.0</ns3:atemp>
          </ns3:TrackPointExtension>
        </extensions>
      </trkpt>
      <trkpt lat="42.51637495122849941253662109375" lon="19.89898555912077426910400390625">
        <ele>1988.4000244140625</ele>
        <time>2026-06-17T11:33:42.000Z</time>
        <extensions>
          <ns3:TrackPointExtension>
            <ns3:atemp>17.0</ns3:atemp>
          </ns3:TrackPointExtension>
        </extensions>
      </trkpt>
      <trkpt lat="42.51637914218008518218994140625" lon="19.8989839665591716766357421875">
        <ele>1988.4000244140625</ele>
        <time>2026-06-17T11:33:43.000Z</time>
        <extensions>
          <ns3:TrackPointExtension>
            <ns3:atemp>17.0</ns3:atemp>
          </ns3:TrackPointExtension>
        </extensions>
      </trkpt>
      <trkpt lat="42.5163765437901020050048828125" lon="19.8989702202379703521728515625">
        <ele>1988.4000244140625</ele>
        <time>2026-06-17T11:33:44.000Z</time>
        <extensions>
          <ns3:TrackPointExtension>
            <ns3:atemp>17.0</ns3:atemp>
          </ns3:TrackPointExtension>
        </extensions>
      </trkpt>
      <trkpt lat="42.51637495122849941253662109375" lon="19.89898555912077426910400390625">
        <ele>1988.4000244140625</ele>
        <time>2026-06-17T11:33:45.000Z</time>
        <extensions>
          <ns3:TrackPointExtension>
            <ns3:atemp>17.0</ns3:atemp>
          </ns3:TrackPointExtension>
        </extensions>
      </trkpt>
      <trkpt lat="42.51637595705687999725341796875" lon="19.898968376219272613525390625">
        <ele>1988.4000244140625</ele>
        <time>2026-06-17T11:33:46.000Z</time>
        <extensions>
          <ns3:TrackPointExtension>
            <ns3:atemp>17.0</ns3:atemp>
          </ns3:TrackPointExtension>
        </extensions>
      </trkpt>
      <trkpt lat="42.5163755379617214202880859375" lon="19.898965358734130859375">
        <ele>1988.4000244140625</ele>
        <time>2026-06-17T11:33:47.000Z</time>
        <extensions>
          <ns3:TrackPointExtension>
            <ns3:atemp>17.0</ns3:atemp>
          </ns3:TrackPointExtension>
        </extensions>
      </trkpt>
      <trkpt lat="42.5163755379617214202880859375" lon="19.898965358734130859375">
        <ele>1988.4000244140625</ele>
        <time>2026-06-17T11:33:48.000Z</time>
        <extensions>
          <ns3:TrackPointExtension>
            <ns3:atemp>17.0</ns3:atemp>
          </ns3:TrackPointExtension>
        </extensions>
      </trkpt>
      <trkpt lat="42.5163574330508708953857421875" lon="19.89896862767636775970458984375">
        <ele>1988.800048828125</ele>
        <time>2026-06-17T11:33:49.000Z</time>
        <extensions>
          <ns3:TrackPointExtension>
            <ns3:atemp>17.0</ns3:atemp>
          </ns3:TrackPointExtension>
        </extensions>
      </trkpt>
      <trkpt lat="42.51632918603718280792236328125" lon="19.898969717323780059814453125">
        <ele>1988.5999755859375</ele>
        <time>2026-06-17T11:33:50.000Z</time>
        <extensions>
          <ns3:TrackPointExtension>
            <ns3:atemp>17.0</ns3:atemp>
          </ns3:TrackPointExtension>
        </extensions>
      </trkpt>
      <trkpt lat="42.51630269922316074371337890625" lon="19.89897533319890499114990234375">
        <ele>1988.5999755859375</ele>
        <time>2026-06-17T11:33:51.000Z</time>
        <extensions>
          <ns3:TrackPointExtension>
            <ns3:atemp>17.0</ns3:atemp>
          </ns3:TrackPointExtension>
        </extensions>
      </trkpt>
      <trkpt lat="42.51627319492399692535400390625" lon="19.89898740313947200775146484375">
        <ele>1988.4000244140625</ele>
        <time>2026-06-17T11:33:52.000Z</time>
        <extensions>
          <ns3:TrackPointExtension>
            <ns3:atemp>17.0</ns3:atemp>
          </ns3:TrackPointExtension>
        </extensions>
      </trkpt>
      <trkpt lat="42.51624402590095996856689453125" lon="19.89899561740458011627197265625">
        <ele>1988.199951171875</ele>
        <time>2026-06-17T11:33:53.000Z</time>
        <extensions>
          <ns3:TrackPointExtension>
            <ns3:atemp>17.0</ns3:atemp>
          </ns3:TrackPointExtension>
        </extensions>
      </trkpt>
      <trkpt lat="42.51621938310563564300537109375" lon="19.89899796433746814727783203125">
        <ele>1988.199951171875</ele>
        <time>2026-06-17T11:33:54.000Z</time>
        <extensions>
          <ns3:TrackPointExtension>
            <ns3:atemp>17.0</ns3:atemp>
          </ns3:TrackPointExtension>
        </extensions>
      </trkpt>
      <trkpt lat="42.5161958299577236175537109375" lon="19.89899796433746814727783203125">
        <ele>1988.199951171875</ele>
        <time>2026-06-17T11:33:55.000Z</time>
        <extensions>
          <ns3:TrackPointExtension>
            <ns3:atemp>17.0</ns3:atemp>
          </ns3:TrackPointExtension>
        </extensions>
      </trkpt>
      <trkpt lat="42.516175545752048492431640625" lon="19.89899964071810245513916015625">
        <ele>1988.199951171875</ele>
        <time>2026-06-17T11:33:56.000Z</time>
        <extensions>
          <ns3:TrackPointExtension>
            <ns3:atemp>17.0</ns3:atemp>
          </ns3:TrackPointExtension>
        </extensions>
      </trkpt>
      <trkpt lat="42.51616305671632289886474609375" lon="19.89899293519556522369384765625">
        <ele>1988.199951171875</ele>
        <time>2026-06-17T11:33:57.000Z</time>
        <extensions>
          <ns3:TrackPointExtension>
            <ns3:atemp>17.0</ns3:atemp>
          </ns3:TrackPointExtension>
        </extensions>
      </trkpt>
      <trkpt lat="42.51614964567124843597412109375" lon="19.89897809922695159912109375">
        <ele>1988.4000244140625</ele>
        <time>2026-06-17T11:33:58.000Z</time>
        <extensions>
          <ns3:TrackPointExtension>
            <ns3:atemp>17.0</ns3:atemp>
          </ns3:TrackPointExtension>
        </extensions>
      </trkpt>
      <trkpt lat="42.51613439060747623443603515625" lon="19.89896980114281177520751953125">
        <ele>1988.4000244140625</ele>
        <time>2026-06-17T11:33:59.000Z</time>
        <extensions>
          <ns3:TrackPointExtension>
            <ns3:atemp>17.0</ns3:atemp>
          </ns3:TrackPointExtension>
        </extensions>
      </trkpt>
      <trkpt lat="42.51611745916306972503662109375" lon="19.8989742435514926910400390625">
        <ele>1988.5999755859375</ele>
        <time>2026-06-17T11:34:00.000Z</time>
        <extensions>
          <ns3:TrackPointExtension>
            <ns3:atemp>17.0</ns3:atemp>
          </ns3:TrackPointExtension>
        </extensions>
      </trkpt>
      <trkpt lat="42.51610019244253635406494140625" lon="19.89898589439690113067626953125">
        <ele>1988.5999755859375</ele>
        <time>2026-06-17T11:34:01.000Z</time>
        <extensions>
          <ns3:TrackPointExtension>
            <ns3:atemp>17.0</ns3:atemp>
          </ns3:TrackPointExtension>
        </extensions>
      </trkpt>
      <trkpt lat="42.516084015369415283203125" lon="19.89899159409105777740478515625">
        <ele>1988.5999755859375</ele>
        <time>2026-06-17T11:34:02.000Z</time>
        <extensions>
          <ns3:TrackPointExtension>
            <ns3:atemp>17.0</ns3:atemp>
          </ns3:TrackPointExtension>
        </extensions>
      </trkpt>
      <trkpt lat="42.51607052050530910491943359375" lon="19.8990010656416416168212890625">
        <ele>1988.800048828125</ele>
        <time>2026-06-17T11:34:03.000Z</time>
        <extensions>
          <ns3:TrackPointExtension>
            <ns3:atemp>17.0</ns3:atemp>
          </ns3:TrackPointExtension>
        </extensions>
      </trkpt>
      <trkpt lat="42.5160570256412029266357421875" lon="19.89900852553546428680419921875">
        <ele>1988.800048828125</ele>
        <time>2026-06-17T11:34:04.000Z</time>
        <extensions>
          <ns3:TrackPointExtension>
            <ns3:atemp>17.0</ns3:atemp>
          </ns3:TrackPointExtension>
        </extensions>
      </trkpt>
      <trkpt lat="42.51604713499546051025390625" lon="19.8990101180970668792724609375">
        <ele>1988.800048828125</ele>
        <time>2026-06-17T11:34:05.000Z</time>
        <extensions>
          <ns3:TrackPointExtension>
            <ns3:atemp>17.0</ns3:atemp>
          </ns3:TrackPointExtension>
        </extensions>
      </trkpt>
      <trkpt lat="42.51603732816874980926513671875" lon="19.89901405759155750274658203125">
        <ele>1988.800048828125</ele>
        <time>2026-06-17T11:34:06.000Z</time>
        <extensions>
          <ns3:TrackPointExtension>
            <ns3:atemp>17.0</ns3:atemp>
          </ns3:TrackPointExtension>
        </extensions>
      </trkpt>
      <trkpt lat="42.5160369090735912322998046875" lon="19.8990185000002384185791015625">
        <ele>1988.800048828125</ele>
        <time>2026-06-17T11:34:07.000Z</time>
        <extensions>
          <ns3:TrackPointExtension>
            <ns3:atemp>17.0</ns3:atemp>
          </ns3:TrackPointExtension>
        </extensions>
      </trkpt>
      <trkpt lat="42.5160369090735912322998046875" lon="19.8990185000002384185791015625">
        <ele>1988.800048828125</ele>
        <time>2026-06-17T11:34:08.000Z</time>
        <extensions>
          <ns3:TrackPointExtension>
            <ns3:atemp>17.0</ns3:atemp>
          </ns3:TrackPointExtension>
        </extensions>
      </trkpt>
      <trkpt lat="42.5160369090735912322998046875" lon="19.8990185000002384185791015625">
        <ele>1988.800048828125</ele>
        <time>2026-06-17T11:34:09.000Z</time>
        <extensions>
          <ns3:TrackPointExtension>
            <ns3:atemp>17.0</ns3:atemp>
          </ns3:TrackPointExtension>
        </extensions>
      </trkpt>
      <trkpt lat="42.5160369090735912322998046875" lon="19.8990185000002384185791015625">
        <ele>1988.800048828125</ele>
        <time>2026-06-17T11:34:10.000Z</time>
        <extensions>
          <ns3:TrackPointExtension>
            <ns3:atemp>17.0</ns3:atemp>
          </ns3:TrackPointExtension>
        </extensions>
      </trkpt>
      <trkpt lat="42.5160369090735912322998046875" lon="19.8990185000002384185791015625">
        <ele>1988.800048828125</ele>
        <time>2026-06-17T11:34:11.000Z</time>
        <extensions>
          <ns3:TrackPointExtension>
            <ns3:atemp>17.0</ns3:atemp>
          </ns3:TrackPointExtension>
        </extensions>
      </trkpt>
      <trkpt lat="42.5160369090735912322998046875" lon="19.8990185000002384185791015625">
        <ele>1988.800048828125</ele>
        <time>2026-06-17T11:34:12.000Z</time>
        <extensions>
          <ns3:TrackPointExtension>
            <ns3:atemp>17.0</ns3:atemp>
          </ns3:TrackPointExtension>
        </extensions>
      </trkpt>
      <trkpt lat="42.5160369090735912322998046875" lon="19.8990185000002384185791015625">
        <ele>1988.800048828125</ele>
        <time>2026-06-17T11:34:13.000Z</time>
        <extensions>
          <ns3:TrackPointExtension>
            <ns3:atemp>17.0</ns3:atemp>
          </ns3:TrackPointExtension>
        </extensions>
      </trkpt>
      <trkpt lat="42.5160369090735912322998046875" lon="19.8990185000002384185791015625">
        <ele>1988.800048828125</ele>
        <time>2026-06-17T11:34:14.000Z</time>
        <extensions>
          <ns3:TrackPointExtension>
            <ns3:atemp>17.0</ns3:atemp>
          </ns3:TrackPointExtension>
        </extensions>
      </trkpt>
      <trkpt lat="42.5160369090735912322998046875" lon="19.8990185000002384185791015625">
        <ele>1988.800048828125</ele>
        <time>2026-06-17T11:34:15.000Z</time>
        <extensions>
          <ns3:TrackPointExtension>
            <ns3:atemp>17.0</ns3:atemp>
          </ns3:TrackPointExtension>
        </extensions>
      </trkpt>
      <trkpt lat="42.5160369090735912322998046875" lon="19.8990185000002384185791015625">
        <ele>1988.800048828125</ele>
        <time>2026-06-17T11:34:16.000Z</time>
        <extensions>
          <ns3:TrackPointExtension>
            <ns3:atemp>17.0</ns3:atemp>
          </ns3:TrackPointExtension>
        </extensions>
      </trkpt>
      <trkpt lat="42.5160369090735912322998046875" lon="19.8990185000002384185791015625">
        <ele>1988.800048828125</ele>
        <time>2026-06-17T11:34:17.000Z</time>
        <extensions>
          <ns3:TrackPointExtension>
            <ns3:atemp>17.0</ns3:atemp>
          </ns3:TrackPointExtension>
        </extensions>
      </trkpt>
      <trkpt lat="42.5160369090735912322998046875" lon="19.8990185000002384185791015625">
        <ele>1988.800048828125</ele>
        <time>2026-06-17T11:34:18.000Z</time>
        <extensions>
          <ns3:TrackPointExtension>
            <ns3:atemp>17.0</ns3:atemp>
          </ns3:TrackPointExtension>
        </extensions>
      </trkpt>
      <trkpt lat="42.5160369090735912322998046875" lon="19.8990185000002384185791015625">
        <ele>1988.5999755859375</ele>
        <time>2026-06-17T11:34:19.000Z</time>
        <extensions>
          <ns3:TrackPointExtension>
            <ns3:atemp>17.0</ns3:atemp>
          </ns3:TrackPointExtension>
        </extensions>
      </trkpt>
      <trkpt lat="42.5160369090735912322998046875" lon="19.8990185000002384185791015625">
        <ele>1988.5999755859375</ele>
        <time>2026-06-17T11:34:20.000Z</time>
        <extensions>
          <ns3:TrackPointExtension>
            <ns3:atemp>17.0</ns3:atemp>
          </ns3:TrackPointExtension>
        </extensions>
      </trkpt>
      <trkpt lat="42.5160369090735912322998046875" lon="19.8990185000002384185791015625">
        <ele>1988.5999755859375</ele>
        <time>2026-06-17T11:34:21.000Z</time>
        <extensions>
          <ns3:TrackPointExtension>
            <ns3:atemp>16.0</ns3:atemp>
          </ns3:TrackPointExtension>
        </extensions>
      </trkpt>
      <trkpt lat="42.5160369090735912322998046875" lon="19.8990185000002384185791015625">
        <ele>1988.5999755859375</ele>
        <time>2026-06-17T11:34:22.000Z</time>
        <extensions>
          <ns3:TrackPointExtension>
            <ns3:atemp>16.0</ns3:atemp>
          </ns3:TrackPointExtension>
        </extensions>
      </trkpt>
      <trkpt lat="42.5160369090735912322998046875" lon="19.8990185000002384185791015625">
        <ele>1988.5999755859375</ele>
        <time>2026-06-17T11:34:23.000Z</time>
        <extensions>
          <ns3:TrackPointExtension>
            <ns3:atemp>16.0</ns3:atemp>
          </ns3:TrackPointExtension>
        </extensions>
      </trkpt>
      <trkpt lat="42.5160369090735912322998046875" lon="19.8990185000002384185791015625">
        <ele>1988.5999755859375</ele>
        <time>2026-06-17T11:34:24.000Z</time>
        <extensions>
          <ns3:TrackPointExtension>
            <ns3:atemp>17.0</ns3:atemp>
          </ns3:TrackPointExtension>
        </extensions>
      </trkpt>
      <trkpt lat="42.5160369090735912322998046875" lon="19.8990185000002384185791015625">
        <ele>1988.5999755859375</ele>
        <time>2026-06-17T11:34:25.000Z</time>
        <extensions>
          <ns3:TrackPointExtension>
            <ns3:atemp>16.0</ns3:atemp>
          </ns3:TrackPointExtension>
        </extensions>
      </trkpt>
      <trkpt lat="42.5160369090735912322998046875" lon="19.8990185000002384185791015625">
        <ele>1988.5999755859375</ele>
        <time>2026-06-17T11:34:26.000Z</time>
        <extensions>
          <ns3:TrackPointExtension>
            <ns3:atemp>16.0</ns3:atemp>
          </ns3:TrackPointExtension>
        </extensions>
      </trkpt>
      <trkpt lat="42.51603682525455951690673828125" lon="19.89901606924831867218017578125">
        <ele>1988.5999755859375</ele>
        <time>2026-06-17T11:34:27.000Z</time>
        <extensions>
          <ns3:TrackPointExtension>
            <ns3:atemp>16.0</ns3:atemp>
          </ns3:TrackPointExtension>
        </extensions>
      </trkpt>
      <trkpt lat="42.5160369090735912322998046875" lon="19.8990185000002384185791015625">
        <ele>1988.5999755859375</ele>
        <time>2026-06-17T11:34:28.000Z</time>
        <extensions>
          <ns3:TrackPointExtension>
            <ns3:atemp>17.0</ns3:atemp>
          </ns3:TrackPointExtension>
        </extensions>
      </trkpt>
      <trkpt lat="42.5160369090735912322998046875" lon="19.8990185000002384185791015625">
        <ele>1988.5999755859375</ele>
        <time>2026-06-17T11:34:29.000Z</time>
        <extensions>
          <ns3:TrackPointExtension>
            <ns3:atemp>17.0</ns3:atemp>
          </ns3:TrackPointExtension>
        </extensions>
      </trkpt>
      <trkpt lat="42.5160369090735912322998046875" lon="19.8990185000002384185791015625">
        <ele>1988.5999755859375</ele>
        <time>2026-06-17T11:34:30.000Z</time>
        <extensions>
          <ns3:TrackPointExtension>
            <ns3:atemp>17.0</ns3:atemp>
          </ns3:TrackPointExtension>
        </extensions>
      </trkpt>
      <trkpt lat="42.5160369090735912322998046875" lon="19.8990185000002384185791015625">
        <ele>1988.5999755859375</ele>
        <time>2026-06-17T11:34:31.000Z</time>
        <extensions>
          <ns3:TrackPointExtension>
            <ns3:atemp>17.0</ns3:atemp>
          </ns3:TrackPointExtension>
        </extensions>
      </trkpt>
      <trkpt lat="42.5160369090735912322998046875" lon="19.8990185000002384185791015625">
        <ele>1988.5999755859375</ele>
        <time>2026-06-17T11:34:32.000Z</time>
        <extensions>
          <ns3:TrackPointExtension>
            <ns3:atemp>17.0</ns3:atemp>
          </ns3:TrackPointExtension>
        </extensions>
      </trkpt>
      <trkpt lat="42.516035735607147216796875" lon="19.8990096151828765869140625">
        <ele>1988.5999755859375</ele>
        <time>2026-06-17T11:34:33.000Z</time>
        <extensions>
          <ns3:TrackPointExtension>
            <ns3:atemp>17.0</ns3:atemp>
          </ns3:TrackPointExtension>
        </extensions>
      </trkpt>
      <trkpt lat="42.51602492295205593109130859375" lon="19.8990040831267833709716796875">
        <ele>1988.5999755859375</ele>
        <time>2026-06-17T11:34:34.000Z</time>
        <extensions>
          <ns3:TrackPointExtension>
            <ns3:atemp>17.0</ns3:atemp>
          </ns3:TrackPointExtension>
        </extensions>
      </trkpt>
      <trkpt lat="42.5160174630582332611083984375" lon="19.89900215528905391693115234375">
        <ele>1988.4000244140625</ele>
        <time>2026-06-17T11:34:35.000Z</time>
        <extensions>
          <ns3:TrackPointExtension>
            <ns3:atemp>17.0</ns3:atemp>
          </ns3:TrackPointExtension>
        </extensions>
      </trkpt>
      <trkpt lat="42.51600824296474456787109375" lon="19.89900332875549793243408203125">
        <ele>1988.4000244140625</ele>
        <time>2026-06-17T11:34:36.000Z</time>
        <extensions>
          <ns3:TrackPointExtension>
            <ns3:atemp>16.0</ns3:atemp>
          </ns3:TrackPointExtension>
        </extensions>
      </trkpt>
      <trkpt lat="42.515997849404811859130859375" lon="19.89900626242160797119140625">
        <ele>1988.199951171875</ele>
        <time>2026-06-17T11:34:37.000Z</time>
        <extensions>
          <ns3:TrackPointExtension>
            <ns3:atemp>16.0</ns3:atemp>
          </ns3:TrackPointExtension>
        </extensions>
      </trkpt>
      <trkpt lat="42.5159973464906215667724609375" lon="19.8990047536790370941162109375">
        <ele>1988</ele>
        <time>2026-06-17T11:34:38.000Z</time>
        <extensions>
          <ns3:TrackPointExtension>
            <ns3:atemp>16.0</ns3:atemp>
          </ns3:TrackPointExtension>
        </extensions>
      </trkpt>
      <trkpt lat="42.51599726267158985137939453125" lon="19.8990047536790370941162109375">
        <ele>1987.800048828125</ele>
        <time>2026-06-17T11:34:39.000Z</time>
        <extensions>
          <ns3:TrackPointExtension>
            <ns3:atemp>16.0</ns3:atemp>
          </ns3:TrackPointExtension>
        </extensions>
      </trkpt>
      <trkpt lat="42.51599726267158985137939453125" lon="19.8990047536790370941162109375">
        <ele>1987.800048828125</ele>
        <time>2026-06-17T11:34:40.000Z</time>
        <extensions>
          <ns3:TrackPointExtension>
            <ns3:atemp>16.0</ns3:atemp>
          </ns3:TrackPointExtension>
        </extensions>
      </trkpt>
      <trkpt lat="42.51599726267158985137939453125" lon="19.8990047536790370941162109375">
        <ele>1987.5999755859375</ele>
        <time>2026-06-17T11:34:41.000Z</time>
        <extensions>
          <ns3:TrackPointExtension>
            <ns3:atemp>16.0</ns3:atemp>
          </ns3:TrackPointExtension>
        </extensions>
      </trkpt>
      <trkpt lat="42.51599726267158985137939453125" lon="19.8990047536790370941162109375">
        <ele>1987.5999755859375</ele>
        <time>2026-06-17T11:34:42.000Z</time>
        <extensions>
          <ns3:TrackPointExtension>
            <ns3:atemp>16.0</ns3:atemp>
          </ns3:TrackPointExtension>
        </extensions>
      </trkpt>
      <trkpt lat="42.515996508300304412841796875" lon="19.8990044184029102325439453125">
        <ele>1987.4000244140625</ele>
        <time>2026-06-17T11:34:43.000Z</time>
        <extensions>
          <ns3:TrackPointExtension>
            <ns3:atemp>16.0</ns3:atemp>
          </ns3:TrackPointExtension>
        </extensions>
      </trkpt>
      <trkpt lat="42.5159842707216739654541015625" lon="19.89900064654648303985595703125">
        <ele>1987.4000244140625</ele>
        <time>2026-06-17T11:34:44.000Z</time>
        <extensions>
          <ns3:TrackPointExtension>
            <ns3:atemp>16.0</ns3:atemp>
          </ns3:TrackPointExtension>
        </extensions>
      </trkpt>
      <trkpt lat="42.51599726267158985137939453125" lon="19.8990047536790370941162109375">
        <ele>1987.4000244140625</ele>
        <time>2026-06-17T11:34:45.000Z</time>
        <extensions>
          <ns3:TrackPointExtension>
            <ns3:atemp>16.0</ns3:atemp>
          </ns3:TrackPointExtension>
        </extensions>
      </trkpt>
      <trkpt lat="42.51599726267158985137939453125" lon="19.8990047536790370941162109375">
        <ele>1987.199951171875</ele>
        <time>2026-06-17T11:34:46.000Z</time>
        <extensions>
          <ns3:TrackPointExtension>
            <ns3:atemp>16.0</ns3:atemp>
          </ns3:TrackPointExtension>
        </extensions>
      </trkpt>
      <trkpt lat="42.51599726267158985137939453125" lon="19.8990047536790370941162109375">
        <ele>1987.199951171875</ele>
        <time>2026-06-17T11:34:47.000Z</time>
        <extensions>
          <ns3:TrackPointExtension>
            <ns3:atemp>16.0</ns3:atemp>
          </ns3:TrackPointExtension>
        </extensions>
      </trkpt>
      <trkpt lat="42.51599726267158985137939453125" lon="19.8990047536790370941162109375">
        <ele>1987.199951171875</ele>
        <time>2026-06-17T11:34:48.000Z</time>
        <extensions>
          <ns3:TrackPointExtension>
            <ns3:atemp>16.0</ns3:atemp>
          </ns3:TrackPointExtension>
        </extensions>
      </trkpt>
      <trkpt lat="42.51599726267158985137939453125" lon="19.8990047536790370941162109375">
        <ele>1987.199951171875</ele>
        <time>2026-06-17T11:34:49.000Z</time>
        <extensions>
          <ns3:TrackPointExtension>
            <ns3:atemp>16.0</ns3:atemp>
          </ns3:TrackPointExtension>
        </extensions>
      </trkpt>
      <trkpt lat="42.51599726267158985137939453125" lon="19.8990047536790370941162109375">
        <ele>1987.199951171875</ele>
        <time>2026-06-17T11:34:50.000Z</time>
        <extensions>
          <ns3:TrackPointExtension>
            <ns3:atemp>16.0</ns3:atemp>
          </ns3:TrackPointExtension>
        </extensions>
      </trkpt>
      <trkpt lat="42.51599726267158985137939453125" lon="19.8990047536790370941162109375">
        <ele>1987.199951171875</ele>
        <time>2026-06-17T11:34:51.000Z</time>
        <extensions>
          <ns3:TrackPointExtension>
            <ns3:atemp>16.0</ns3:atemp>
          </ns3:TrackPointExtension>
        </extensions>
      </trkpt>
      <trkpt lat="42.51599726267158985137939453125" lon="19.8990047536790370941162109375">
        <ele>1987.199951171875</ele>
        <time>2026-06-17T11:34:52.000Z</time>
        <extensions>
          <ns3:TrackPointExtension>
            <ns3:atemp>16.0</ns3:atemp>
          </ns3:TrackPointExtension>
        </extensions>
      </trkpt>
      <trkpt lat="42.51599726267158985137939453125" lon="19.8990047536790370941162109375">
        <ele>1987.199951171875</ele>
        <time>2026-06-17T11:34:53.000Z</time>
        <extensions>
          <ns3:TrackPointExtension>
            <ns3:atemp>16.0</ns3:atemp>
          </ns3:TrackPointExtension>
        </extensions>
      </trkpt>
      <trkpt lat="42.51598452217876911163330078125" lon="19.89900098182260990142822265625">
        <ele>1987.199951171875</ele>
        <time>2026-06-17T11:34:54.000Z</time>
        <extensions>
          <ns3:TrackPointExtension>
            <ns3:atemp>16.0</ns3:atemp>
          </ns3:TrackPointExtension>
        </extensions>
      </trkpt>
      <trkpt lat="42.51597295515239238739013671875" lon="19.8989953659474849700927734375">
        <ele>1987</ele>
        <time>2026-06-17T11:34:55.000Z</time>
        <extensions>
          <ns3:TrackPointExtension>
            <ns3:atemp>16.0</ns3:atemp>
          </ns3:TrackPointExtension>
        </extensions>
      </trkpt>
      <trkpt lat="42.51595987938344478607177734375" lon="19.898995198309421539306640625">
        <ele>1987</ele>
        <time>2026-06-17T11:34:56.000Z</time>
        <extensions>
          <ns3:TrackPointExtension>
            <ns3:atemp>16.0</ns3:atemp>
          </ns3:TrackPointExtension>
        </extensions>
      </trkpt>
      <trkpt lat="42.51593909226357936859130859375" lon="19.89899746142327785491943359375">
        <ele>1986.800048828125</ele>
        <time>2026-06-17T11:34:57.000Z</time>
        <extensions>
          <ns3:TrackPointExtension>
            <ns3:atemp>16.0</ns3:atemp>
          </ns3:TrackPointExtension>
        </extensions>
      </trkpt>
      <trkpt lat="42.51591998152434825897216796875" lon="19.89900894463062286376953125">
        <ele>1986.4000244140625</ele>
        <time>2026-06-17T11:34:58.000Z</time>
        <extensions>
          <ns3:TrackPointExtension>
            <ns3:atemp>16.0</ns3:atemp>
          </ns3:TrackPointExtension>
        </extensions>
      </trkpt>
      <trkpt lat="42.5159038044512271881103515625" lon="19.89902076311409473419189453125">
        <ele>1986</ele>
        <time>2026-06-17T11:34:59.000Z</time>
        <extensions>
          <ns3:TrackPointExtension>
            <ns3:atemp>16.0</ns3:atemp>
          </ns3:TrackPointExtension>
        </extensions>
      </trkpt>
      <trkpt lat="42.515887878835201263427734375" lon="19.899029396474361419677734375">
        <ele>1985.5999755859375</ele>
        <time>2026-06-17T11:35:00.000Z</time>
        <extensions>
          <ns3:TrackPointExtension>
            <ns3:atemp>16.0</ns3:atemp>
          </ns3:TrackPointExtension>
        </extensions>
      </trkpt>
      <trkpt lat="42.5158726237714290618896484375" lon="19.899033419787883758544921875">
        <ele>1985.199951171875</ele>
        <time>2026-06-17T11:35:01.000Z</time>
        <extensions>
          <ns3:TrackPointExtension>
            <ns3:atemp>16.0</ns3:atemp>
          </ns3:TrackPointExtension>
        </extensions>
      </trkpt>
      <trkpt lat="42.51585661433637142181396484375" lon="19.8990369401872158050537109375">
        <ele>1984.800048828125</ele>
        <time>2026-06-17T11:35:02.000Z</time>
        <extensions>
          <ns3:TrackPointExtension>
            <ns3:atemp>16.0</ns3:atemp>
          </ns3:TrackPointExtension>
        </extensions>
      </trkpt>
      <trkpt lat="42.51584135927259922027587890625" lon="19.89903534762561321258544921875">
        <ele>1984.4000244140625</ele>
        <time>2026-06-17T11:35:03.000Z</time>
        <extensions>
          <ns3:TrackPointExtension>
            <ns3:atemp>16.0</ns3:atemp>
          </ns3:TrackPointExtension>
        </extensions>
      </trkpt>
      <trkpt lat="42.51583197154104709625244140625" lon="19.899040125310420989990234375">
        <ele>1983.800048828125</ele>
        <time>2026-06-17T11:35:04.000Z</time>
        <extensions>
          <ns3:TrackPointExtension>
            <ns3:atemp>16.0</ns3:atemp>
          </ns3:TrackPointExtension>
        </extensions>
      </trkpt>
      <trkpt lat="42.51582057215273380279541015625" lon="19.89904574118554592132568359375">
        <ele>1983.199951171875</ele>
        <time>2026-06-17T11:35:05.000Z</time>
        <extensions>
          <ns3:TrackPointExtension>
            <ns3:atemp>16.0</ns3:atemp>
          </ns3:TrackPointExtension>
        </extensions>
      </trkpt>
      <trkpt lat="42.5158015452325344085693359375" lon="19.89905915223062038421630859375">
        <ele>1982.5999755859375</ele>
        <time>2026-06-17T11:35:06.000Z</time>
        <extensions>
          <ns3:TrackPointExtension>
            <ns3:atemp>16.0</ns3:atemp>
          </ns3:TrackPointExtension>
        </extensions>
      </trkpt>
      <trkpt lat="42.5157703645527362823486328125" lon="19.8990714736282825469970703125">
        <ele>1982.199951171875</ele>
        <time>2026-06-17T11:35:07.000Z</time>
        <extensions>
          <ns3:TrackPointExtension>
            <ns3:atemp>16.0</ns3:atemp>
          </ns3:TrackPointExtension>
        </extensions>
      </trkpt>
      <trkpt lat="42.5157304666936397552490234375" lon="19.89908480085432529449462890625">
        <ele>1981.5999755859375</ele>
        <time>2026-06-17T11:35:08.000Z</time>
        <extensions>
          <ns3:TrackPointExtension>
            <ns3:atemp>16.0</ns3:atemp>
          </ns3:TrackPointExtension>
        </extensions>
      </trkpt>
      <trkpt lat="42.51568914391100406646728515625" lon="19.899089746177196502685546875">
        <ele>1980.800048828125</ele>
        <time>2026-06-17T11:35:09.000Z</time>
        <extensions>
          <ns3:TrackPointExtension>
            <ns3:atemp>16.0</ns3:atemp>
          </ns3:TrackPointExtension>
        </extensions>
      </trkpt>
      <trkpt lat="42.51565427519381046295166015625" lon="19.89906837232410907745361328125">
        <ele>1980</ele>
        <time>2026-06-17T11:35:10.000Z</time>
        <extensions>
          <ns3:TrackPointExtension>
            <ns3:atemp>16.0</ns3:atemp>
          </ns3:TrackPointExtension>
        </extensions>
      </trkpt>
      <trkpt lat="42.51563063822686672210693359375" lon="19.89903710782527923583984375">
        <ele>1979.199951171875</ele>
        <time>2026-06-17T11:35:11.000Z</time>
        <extensions>
          <ns3:TrackPointExtension>
            <ns3:atemp>16.0</ns3:atemp>
          </ns3:TrackPointExtension>
        </extensions>
      </trkpt>
      <trkpt lat="42.5156147964298725128173828125" lon="19.89900014363229274749755859375">
        <ele>1978.199951171875</ele>
        <time>2026-06-17T11:35:12.000Z</time>
        <extensions>
          <ns3:TrackPointExtension>
            <ns3:atemp>16.0</ns3:atemp>
          </ns3:TrackPointExtension>
        </extensions>
      </trkpt>
      <trkpt lat="42.51559308730065822601318359375" lon="19.898986481130123138427734375">
        <ele>1977.4000244140625</ele>
        <time>2026-06-17T11:35:13.000Z</time>
        <extensions>
          <ns3:TrackPointExtension>
            <ns3:atemp>16.0</ns3:atemp>
          </ns3:TrackPointExtension>
        </extensions>
      </trkpt>
      <trkpt lat="42.51557330600917339324951171875" lon="19.898993186652660369873046875">
        <ele>1976.5999755859375</ele>
        <time>2026-06-17T11:35:14.000Z</time>
        <extensions>
          <ns3:TrackPointExtension>
            <ns3:atemp>16.0</ns3:atemp>
          </ns3:TrackPointExtension>
        </extensions>
      </trkpt>
      <trkpt lat="42.515557967126369476318359375" lon="19.89899343810975551605224609375">
        <ele>1976</ele>
        <time>2026-06-17T11:35:15.000Z</time>
        <extensions>
          <ns3:TrackPointExtension>
            <ns3:atemp>16.0</ns3:atemp>
          </ns3:TrackPointExtension>
        </extensions>
      </trkpt>
      <trkpt lat="42.51554296351969242095947265625" lon="19.89899125881493091583251953125">
        <ele>1975.4000244140625</ele>
        <time>2026-06-17T11:35:16.000Z</time>
        <extensions>
          <ns3:TrackPointExtension>
            <ns3:atemp>16.0</ns3:atemp>
          </ns3:TrackPointExtension>
        </extensions>
      </trkpt>
      <trkpt lat="42.515526115894317626953125" lon="19.89897734485566616058349609375">
        <ele>1974.800048828125</ele>
        <time>2026-06-17T11:35:17.000Z</time>
        <extensions>
          <ns3:TrackPointExtension>
            <ns3:atemp>17.0</ns3:atemp>
          </ns3:TrackPointExtension>
        </extensions>
      </trkpt>
      <trkpt lat="42.51551010645925998687744140625" lon="19.89896292798221111297607421875">
        <ele>1974.4000244140625</ele>
        <time>2026-06-17T11:35:18.000Z</time>
        <extensions>
          <ns3:TrackPointExtension>
            <ns3:atemp>17.0</ns3:atemp>
          </ns3:TrackPointExtension>
        </extensions>
      </trkpt>
      <trkpt lat="42.51548915170133113861083984375" lon="19.8989598266780376434326171875">
        <ele>1973.800048828125</ele>
        <time>2026-06-17T11:35:19.000Z</time>
        <extensions>
          <ns3:TrackPointExtension>
            <ns3:atemp>17.0</ns3:atemp>
          </ns3:TrackPointExtension>
        </extensions>
      </trkpt>
      <trkpt lat="42.51545847393572330474853515625" lon="19.89896074868738651275634765625">
        <ele>1973.199951171875</ele>
        <time>2026-06-17T11:35:20.000Z</time>
        <extensions>
          <ns3:TrackPointExtension>
            <ns3:atemp>16.0</ns3:atemp>
          </ns3:TrackPointExtension>
        </extensions>
      </trkpt>
      <trkpt lat="42.51542293466627597808837890625" lon="19.89896594546735286712646484375">
        <ele>1972.5999755859375</ele>
        <time>2026-06-17T11:35:21.000Z</time>
        <extensions>
          <ns3:TrackPointExtension>
            <ns3:atemp>16.0</ns3:atemp>
          </ns3:TrackPointExtension>
        </extensions>
      </trkpt>
      <trkpt lat="42.51538504846394062042236328125" lon="19.89896728657186031341552734375">
        <ele>1972</ele>
        <time>2026-06-17T11:35:22.000Z</time>
        <extensions>
          <ns3:TrackPointExtension>
            <ns3:atemp>16.0</ns3:atemp>
          </ns3:TrackPointExtension>
        </extensions>
      </trkpt>
      <trkpt lat="42.515343725681304931640625" lon="19.89898254163563251495361328125">
        <ele>1971.199951171875</ele>
        <time>2026-06-17T11:35:23.000Z</time>
        <extensions>
          <ns3:TrackPointExtension>
            <ns3:atemp>16.0</ns3:atemp>
          </ns3:TrackPointExtension>
        </extensions>
      </trkpt>
      <trkpt lat="42.5153016485273838043212890625" lon="19.8990027420222759246826171875">
        <ele>1970.5999755859375</ele>
        <time>2026-06-17T11:35:24.000Z</time>
        <extensions>
          <ns3:TrackPointExtension>
            <ns3:atemp>16.0</ns3:atemp>
          </ns3:TrackPointExtension>
        </extensions>
      </trkpt>
      <trkpt lat="42.51526166684925556182861328125" lon="19.89901908673346042633056640625">
        <ele>1970.199951171875</ele>
        <time>2026-06-17T11:35:25.000Z</time>
        <extensions>
          <ns3:TrackPointExtension>
            <ns3:atemp>16.0</ns3:atemp>
          </ns3:TrackPointExtension>
        </extensions>
      </trkpt>
      <trkpt lat="42.5152309052646160125732421875" lon="19.89903149195015430450439453125">
        <ele>1969.4000244140625</ele>
        <time>2026-06-17T11:35:26.000Z</time>
        <extensions>
          <ns3:TrackPointExtension>
            <ns3:atemp>16.0</ns3:atemp>
          </ns3:TrackPointExtension>
        </extensions>
      </trkpt>
      <trkpt lat="42.51520626246929168701171875" lon="19.899029396474361419677734375">
        <ele>1968.800048828125</ele>
        <time>2026-06-17T11:35:27.000Z</time>
        <extensions>
          <ns3:TrackPointExtension>
            <ns3:atemp>16.0</ns3:atemp>
          </ns3:TrackPointExtension>
        </extensions>
      </trkpt>
      <trkpt lat="42.515193521976470947265625" lon="19.89903199486434459686279296875">
        <ele>1968.4000244140625</ele>
        <time>2026-06-17T11:35:28.000Z</time>
        <extensions>
          <ns3:TrackPointExtension>
            <ns3:atemp>16.0</ns3:atemp>
          </ns3:TrackPointExtension>
        </extensions>
      </trkpt>
      <trkpt lat="42.5151946954429149627685546875" lon="19.89903685636818408966064453125">
        <ele>1968</ele>
        <time>2026-06-17T11:35:29.000Z</time>
        <extensions>
          <ns3:TrackPointExtension>
            <ns3:atemp>16.0</ns3:atemp>
          </ns3:TrackPointExtension>
        </extensions>
      </trkpt>
      <trkpt lat="42.51519645564258098602294921875" lon="19.89903836511075496673583984375">
        <ele>1967.5999755859375</ele>
        <time>2026-06-17T11:35:30.000Z</time>
        <extensions>
          <ns3:TrackPointExtension>
            <ns3:atemp>16.0</ns3:atemp>
          </ns3:TrackPointExtension>
        </extensions>
      </trkpt>
      <trkpt lat="42.51519628800451755523681640625" lon="19.89903802983462810516357421875">
        <ele>1967.4000244140625</ele>
        <time>2026-06-17T11:35:31.000Z</time>
        <extensions>
          <ns3:TrackPointExtension>
            <ns3:atemp>16.0</ns3:atemp>
          </ns3:TrackPointExtension>
        </extensions>
      </trkpt>
      <trkpt lat="42.51519628800451755523681640625" lon="19.89903802983462810516357421875">
        <ele>1967.199951171875</ele>
        <time>2026-06-17T11:35:32.000Z</time>
        <extensions>
          <ns3:TrackPointExtension>
            <ns3:atemp>16.0</ns3:atemp>
          </ns3:TrackPointExtension>
        </extensions>
      </trkpt>
      <trkpt lat="42.51519628800451755523681640625" lon="19.89903802983462810516357421875">
        <ele>1967</ele>
        <time>2026-06-17T11:35:33.000Z</time>
        <extensions>
          <ns3:TrackPointExtension>
            <ns3:atemp>16.0</ns3:atemp>
          </ns3:TrackPointExtension>
        </extensions>
      </trkpt>
      <trkpt lat="42.51519628800451755523681640625" lon="19.89903802983462810516357421875">
        <ele>1967</ele>
        <time>2026-06-17T11:35:34.000Z</time>
        <extensions>
          <ns3:TrackPointExtension>
            <ns3:atemp>16.0</ns3:atemp>
          </ns3:TrackPointExtension>
        </extensions>
      </trkpt>
      <trkpt lat="42.51519628800451755523681640625" lon="19.89903802983462810516357421875">
        <ele>1966.800048828125</ele>
        <time>2026-06-17T11:35:35.000Z</time>
        <extensions>
          <ns3:TrackPointExtension>
            <ns3:atemp>16.0</ns3:atemp>
          </ns3:TrackPointExtension>
        </extensions>
      </trkpt>
      <trkpt lat="42.51519628800451755523681640625" lon="19.89903802983462810516357421875">
        <ele>1966.800048828125</ele>
        <time>2026-06-17T11:35:36.000Z</time>
        <extensions>
          <ns3:TrackPointExtension>
            <ns3:atemp>16.0</ns3:atemp>
          </ns3:TrackPointExtension>
        </extensions>
      </trkpt>
      <trkpt lat="42.51519628800451755523681640625" lon="19.89903802983462810516357421875">
        <ele>1966.800048828125</ele>
        <time>2026-06-17T11:35:37.000Z</time>
        <extensions>
          <ns3:TrackPointExtension>
            <ns3:atemp>16.0</ns3:atemp>
          </ns3:TrackPointExtension>
        </extensions>
      </trkpt>
      <trkpt lat="42.51519628800451755523681640625" lon="19.89903802983462810516357421875">
        <ele>1966.5999755859375</ele>
        <time>2026-06-17T11:35:38.000Z</time>
        <extensions>
          <ns3:TrackPointExtension>
            <ns3:atemp>16.0</ns3:atemp>
          </ns3:TrackPointExtension>
        </extensions>
      </trkpt>
      <trkpt lat="42.51519628800451755523681640625" lon="19.89903802983462810516357421875">
        <ele>1966.5999755859375</ele>
        <time>2026-06-17T11:35:39.000Z</time>
        <extensions>
          <ns3:TrackPointExtension>
            <ns3:atemp>16.0</ns3:atemp>
          </ns3:TrackPointExtension>
        </extensions>
      </trkpt>
      <trkpt lat="42.51519628800451755523681640625" lon="19.89903802983462810516357421875">
        <ele>1966.5999755859375</ele>
        <time>2026-06-17T11:35:40.000Z</time>
        <extensions>
          <ns3:TrackPointExtension>
            <ns3:atemp>16.0</ns3:atemp>
          </ns3:TrackPointExtension>
        </extensions>
      </trkpt>
      <trkpt lat="42.5151953659951686859130859375" lon="19.89903685636818408966064453125">
        <ele>1966.5999755859375</ele>
        <time>2026-06-17T11:35:41.000Z</time>
        <extensions>
          <ns3:TrackPointExtension>
            <ns3:atemp>16.0</ns3:atemp>
          </ns3:TrackPointExtension>
        </extensions>
      </trkpt>
      <trkpt lat="42.5151626765727996826171875" lon="19.89902730099856853485107421875">
        <ele>1966.4000244140625</ele>
        <time>2026-06-17T11:35:42.000Z</time>
        <extensions>
          <ns3:TrackPointExtension>
            <ns3:atemp>16.0</ns3:atemp>
          </ns3:TrackPointExtension>
        </extensions>
      </trkpt>
      <trkpt lat="42.515125460922718048095703125" lon="19.89901606924831867218017578125">
        <ele>1966.199951171875</ele>
        <time>2026-06-17T11:35:43.000Z</time>
        <extensions>
          <ns3:TrackPointExtension>
            <ns3:atemp>16.0</ns3:atemp>
          </ns3:TrackPointExtension>
        </extensions>
      </trkpt>
      <trkpt lat="42.5150822103023529052734375" lon="19.89900852553546428680419921875">
        <ele>1966</ele>
        <time>2026-06-17T11:35:44.000Z</time>
        <extensions>
          <ns3:TrackPointExtension>
            <ns3:atemp>16.0</ns3:atemp>
          </ns3:TrackPointExtension>
        </extensions>
      </trkpt>
      <trkpt lat="42.5150357745587825775146484375" lon="19.8990042507648468017578125">
        <ele>1965.800048828125</ele>
        <time>2026-06-17T11:35:45.000Z</time>
        <extensions>
          <ns3:TrackPointExtension>
            <ns3:atemp>16.0</ns3:atemp>
          </ns3:TrackPointExtension>
        </extensions>
      </trkpt>
      <trkpt lat="42.514987327158451080322265625" lon="19.89900902844965457916259765625">
        <ele>1965.4000244140625</ele>
        <time>2026-06-17T11:35:46.000Z</time>
        <extensions>
          <ns3:TrackPointExtension>
            <ns3:atemp>16.0</ns3:atemp>
          </ns3:TrackPointExtension>
        </extensions>
      </trkpt>
      <trkpt lat="42.51493779011070728302001953125" lon="19.89901053719222545623779296875">
        <ele>1965</ele>
        <time>2026-06-17T11:35:47.000Z</time>
        <extensions>
          <ns3:TrackPointExtension>
            <ns3:atemp>16.0</ns3:atemp>
          </ns3:TrackPointExtension>
        </extensions>
      </trkpt>
      <trkpt lat="42.5148882530629634857177734375" lon="19.8990161530673503875732421875">
        <ele>1964.5999755859375</ele>
        <time>2026-06-17T11:35:48.000Z</time>
        <extensions>
          <ns3:TrackPointExtension>
            <ns3:atemp>16.0</ns3:atemp>
          </ns3:TrackPointExtension>
        </extensions>
      </trkpt>
      <trkpt lat="42.514832429587841033935546875" lon="19.89900718443095684051513671875">
        <ele>1964.199951171875</ele>
        <time>2026-06-17T11:35:49.000Z</time>
        <extensions>
          <ns3:TrackPointExtension>
            <ns3:atemp>16.0</ns3:atemp>
          </ns3:TrackPointExtension>
        </extensions>
      </trkpt>
      <trkpt lat="42.51478356309235095977783203125" lon="19.89900215528905391693115234375">
        <ele>1963.5999755859375</ele>
        <time>2026-06-17T11:35:50.000Z</time>
        <extensions>
          <ns3:TrackPointExtension>
            <ns3:atemp>16.0</ns3:atemp>
          </ns3:TrackPointExtension>
        </extensions>
      </trkpt>
      <trkpt lat="42.51473478041589260101318359375" lon="19.89900969900190830230712890625">
        <ele>1963.4000244140625</ele>
        <time>2026-06-17T11:35:51.000Z</time>
        <extensions>
          <ns3:TrackPointExtension>
            <ns3:atemp>16.0</ns3:atemp>
          </ns3:TrackPointExtension>
        </extensions>
      </trkpt>
      <trkpt lat="42.51469085924327373504638671875" lon="19.89900249056518077850341796875">
        <ele>1963</ele>
        <time>2026-06-17T11:35:52.000Z</time>
        <extensions>
          <ns3:TrackPointExtension>
            <ns3:atemp>16.0</ns3:atemp>
          </ns3:TrackPointExtension>
        </extensions>
      </trkpt>
      <trkpt lat="42.5146522186696529388427734375" lon="19.89899151027202606201171875">
        <ele>1962.5999755859375</ele>
        <time>2026-06-17T11:35:53.000Z</time>
        <extensions>
          <ns3:TrackPointExtension>
            <ns3:atemp>16.0</ns3:atemp>
          </ns3:TrackPointExtension>
        </extensions>
      </trkpt>
      <trkpt lat="42.5146253965795040130615234375" lon="19.89898874424397945404052734375">
        <ele>1962.4000244140625</ele>
        <time>2026-06-17T11:35:54.000Z</time>
        <extensions>
          <ns3:TrackPointExtension>
            <ns3:atemp>16.0</ns3:atemp>
          </ns3:TrackPointExtension>
        </extensions>
      </trkpt>
      <trkpt lat="42.514621876180171966552734375" lon="19.89899544976651668548583984375">
        <ele>1962.4000244140625</ele>
        <time>2026-06-17T11:35:55.000Z</time>
        <extensions>
          <ns3:TrackPointExtension>
            <ns3:atemp>16.0</ns3:atemp>
          </ns3:TrackPointExtension>
        </extensions>
      </trkpt>
      <trkpt lat="42.51462749205529689788818359375" lon="19.89899846725165843963623046875">
        <ele>1962.4000244140625</ele>
        <time>2026-06-17T11:35:56.000Z</time>
        <extensions>
          <ns3:TrackPointExtension>
            <ns3:atemp>16.0</ns3:atemp>
          </ns3:TrackPointExtension>
        </extensions>
      </trkpt>
      <trkpt lat="42.51462749205529689788818359375" lon="19.8989983834326267242431640625">
        <ele>1962.4000244140625</ele>
        <time>2026-06-17T11:35:57.000Z</time>
        <extensions>
          <ns3:TrackPointExtension>
            <ns3:atemp>16.0</ns3:atemp>
          </ns3:TrackPointExtension>
        </extensions>
      </trkpt>
      <trkpt lat="42.51462749205529689788818359375" lon="19.8989983834326267242431640625">
        <ele>1962.4000244140625</ele>
        <time>2026-06-17T11:35:58.000Z</time>
        <extensions>
          <ns3:TrackPointExtension>
            <ns3:atemp>16.0</ns3:atemp>
          </ns3:TrackPointExtension>
        </extensions>
      </trkpt>
      <trkpt lat="42.51462749205529689788818359375" lon="19.8989983834326267242431640625">
        <ele>1962.4000244140625</ele>
        <time>2026-06-17T11:35:59.000Z</time>
        <extensions>
          <ns3:TrackPointExtension>
            <ns3:atemp>16.0</ns3:atemp>
          </ns3:TrackPointExtension>
        </extensions>
      </trkpt>
      <trkpt lat="42.51462749205529689788818359375" lon="19.8989983834326267242431640625">
        <ele>1962.4000244140625</ele>
        <time>2026-06-17T11:36:00.000Z</time>
        <extensions>
          <ns3:TrackPointExtension>
            <ns3:atemp>16.0</ns3:atemp>
          </ns3:TrackPointExtension>
        </extensions>
      </trkpt>
      <trkpt lat="42.51462690532207489013671875" lon="19.89899729378521442413330078125">
        <ele>1962.4000244140625</ele>
        <time>2026-06-17T11:36:01.000Z</time>
        <extensions>
          <ns3:TrackPointExtension>
            <ns3:atemp>16.0</ns3:atemp>
          </ns3:TrackPointExtension>
        </extensions>
      </trkpt>
      <trkpt lat="42.514611147344112396240234375" lon="19.89898480474948883056640625">
        <ele>1962.4000244140625</ele>
        <time>2026-06-17T11:36:02.000Z</time>
        <extensions>
          <ns3:TrackPointExtension>
            <ns3:atemp>16.0</ns3:atemp>
          </ns3:TrackPointExtension>
        </extensions>
      </trkpt>
      <trkpt lat="42.5145913660526275634765625" lon="19.8989772610366344451904296875">
        <ele>1962.4000244140625</ele>
        <time>2026-06-17T11:36:03.000Z</time>
        <extensions>
          <ns3:TrackPointExtension>
            <ns3:atemp>16.0</ns3:atemp>
          </ns3:TrackPointExtension>
        </extensions>
      </trkpt>
      <trkpt lat="42.51456521451473236083984375" lon="19.89896326325833797454833984375">
        <ele>1962.199951171875</ele>
        <time>2026-06-17T11:36:04.000Z</time>
        <extensions>
          <ns3:TrackPointExtension>
            <ns3:atemp>16.0</ns3:atemp>
          </ns3:TrackPointExtension>
        </extensions>
      </trkpt>
      <trkpt lat="42.514544092118740081787109375" lon="19.8989397101104259490966796875">
        <ele>1962.4000244140625</ele>
        <time>2026-06-17T11:36:05.000Z</time>
        <extensions>
          <ns3:TrackPointExtension>
            <ns3:atemp>16.0</ns3:atemp>
          </ns3:TrackPointExtension>
        </extensions>
      </trkpt>
      <trkpt lat="42.514517940580844879150390625" lon="19.8989427275955677032470703125">
        <ele>1962.4000244140625</ele>
        <time>2026-06-17T11:36:06.000Z</time>
        <extensions>
          <ns3:TrackPointExtension>
            <ns3:atemp>16.0</ns3:atemp>
          </ns3:TrackPointExtension>
        </extensions>
      </trkpt>
      <trkpt lat="42.5145144201815128326416015625" lon="19.89895873703062534332275390625">
        <ele>1962.4000244140625</ele>
        <time>2026-06-17T11:36:07.000Z</time>
        <extensions>
          <ns3:TrackPointExtension>
            <ns3:atemp>16.0</ns3:atemp>
          </ns3:TrackPointExtension>
        </extensions>
      </trkpt>
      <trkpt lat="42.51451483927667140960693359375" lon="19.89897667430341243743896484375">
        <ele>1962.5999755859375</ele>
        <time>2026-06-17T11:36:08.000Z</time>
        <extensions>
          <ns3:TrackPointExtension>
            <ns3:atemp>16.0</ns3:atemp>
          </ns3:TrackPointExtension>
        </extensions>
      </trkpt>
      <trkpt lat="42.51452288590371608734130859375" lon="19.89898354746401309967041015625">
        <ele>1962.800048828125</ele>
        <time>2026-06-17T11:36:09.000Z</time>
        <extensions>
          <ns3:TrackPointExtension>
            <ns3:atemp>16.0</ns3:atemp>
          </ns3:TrackPointExtension>
        </extensions>
      </trkpt>
      <trkpt lat="42.51453730277717113494873046875" lon="19.89898455329239368438720703125">
        <ele>1962.800048828125</ele>
        <time>2026-06-17T11:36:10.000Z</time>
        <extensions>
          <ns3:TrackPointExtension>
            <ns3:atemp>16.0</ns3:atemp>
          </ns3:TrackPointExtension>
        </extensions>
      </trkpt>
      <trkpt lat="42.51455046236515045166015625" lon="19.89898639731109142303466796875">
        <ele>1963</ele>
        <time>2026-06-17T11:36:11.000Z</time>
        <extensions>
          <ns3:TrackPointExtension>
            <ns3:atemp>16.0</ns3:atemp>
          </ns3:TrackPointExtension>
        </extensions>
      </trkpt>
      <trkpt lat="42.5145677290856838226318359375" lon="19.8989856429398059844970703125">
        <ele>1963</ele>
        <time>2026-06-17T11:36:12.000Z</time>
        <extensions>
          <ns3:TrackPointExtension>
            <ns3:atemp>16.0</ns3:atemp>
          </ns3:TrackPointExtension>
        </extensions>
      </trkpt>
      <trkpt lat="42.5145905278623104095458984375" lon="19.8989812843501567840576171875">
        <ele>1963</ele>
        <time>2026-06-17T11:36:13.000Z</time>
        <extensions>
          <ns3:TrackPointExtension>
            <ns3:atemp>16.0</ns3:atemp>
          </ns3:TrackPointExtension>
        </extensions>
      </trkpt>
      <trkpt lat="42.514617182314395904541015625" lon="19.8989826254546642303466796875">
        <ele>1962.800048828125</ele>
        <time>2026-06-17T11:36:14.000Z</time>
        <extensions>
          <ns3:TrackPointExtension>
            <ns3:atemp>16.0</ns3:atemp>
          </ns3:TrackPointExtension>
        </extensions>
      </trkpt>
      <trkpt lat="42.5146478600800037384033203125" lon="19.8989881575107574462890625">
        <ele>1962.5999755859375</ele>
        <time>2026-06-17T11:36:15.000Z</time>
        <extensions>
          <ns3:TrackPointExtension>
            <ns3:atemp>16.0</ns3:atemp>
          </ns3:TrackPointExtension>
        </extensions>
      </trkpt>
      <trkpt lat="42.51467443071305751800537109375" lon="19.8989977128803730010986328125">
        <ele>1962.4000244140625</ele>
        <time>2026-06-17T11:36:16.000Z</time>
        <extensions>
          <ns3:TrackPointExtension>
            <ns3:atemp>16.0</ns3:atemp>
          </ns3:TrackPointExtension>
        </extensions>
      </trkpt>
      <trkpt lat="42.51470024697482585906982421875" lon="19.89900492131710052490234375">
        <ele>1962.4000244140625</ele>
        <time>2026-06-17T11:36:17.000Z</time>
        <extensions>
          <ns3:TrackPointExtension>
            <ns3:atemp>16.0</ns3:atemp>
          </ns3:TrackPointExtension>
        </extensions>
      </trkpt>
      <trkpt lat="42.5147201120853424072265625" lon="19.8990047536790370941162109375">
        <ele>1962.199951171875</ele>
        <time>2026-06-17T11:36:18.000Z</time>
        <extensions>
          <ns3:TrackPointExtension>
            <ns3:atemp>16.0</ns3:atemp>
          </ns3:TrackPointExtension>
        </extensions>
      </trkpt>
      <trkpt lat="42.514734528958797454833984375" lon="19.899003915488719940185546875">
        <ele>1962.199951171875</ele>
        <time>2026-06-17T11:36:19.000Z</time>
        <extensions>
          <ns3:TrackPointExtension>
            <ns3:atemp>16.0</ns3:atemp>
          </ns3:TrackPointExtension>
        </extensions>
      </trkpt>
      <trkpt lat="42.5147390551865100860595703125" lon="19.89901087246835231781005859375">
        <ele>1962.199951171875</ele>
        <time>2026-06-17T11:36:20.000Z</time>
        <extensions>
          <ns3:TrackPointExtension>
            <ns3:atemp>16.0</ns3:atemp>
          </ns3:TrackPointExtension>
        </extensions>
      </trkpt>
      <trkpt lat="42.51473779790103435516357421875" lon="19.8990149796009063720703125">
        <ele>1962.4000244140625</ele>
        <time>2026-06-17T11:36:21.000Z</time>
        <extensions>
          <ns3:TrackPointExtension>
            <ns3:atemp>16.0</ns3:atemp>
          </ns3:TrackPointExtension>
        </extensions>
      </trkpt>
      <trkpt lat="42.51473293639719486236572265625" lon="19.89901305176317691802978515625">
        <ele>1962.5999755859375</ele>
        <time>2026-06-17T11:36:22.000Z</time>
        <extensions>
          <ns3:TrackPointExtension>
            <ns3:atemp>16.0</ns3:atemp>
          </ns3:TrackPointExtension>
        </extensions>
      </trkpt>
      <trkpt lat="42.51472036354243755340576171875" lon="19.8990104533731937408447265625">
        <ele>1962.5999755859375</ele>
        <time>2026-06-17T11:36:23.000Z</time>
        <extensions>
          <ns3:TrackPointExtension>
            <ns3:atemp>16.0</ns3:atemp>
          </ns3:TrackPointExtension>
        </extensions>
      </trkpt>
      <trkpt lat="42.514713741838932037353515625" lon="19.89900534041225910186767578125">
        <ele>1962.800048828125</ele>
        <time>2026-06-17T11:36:24.000Z</time>
        <extensions>
          <ns3:TrackPointExtension>
            <ns3:atemp>16.0</ns3:atemp>
          </ns3:TrackPointExtension>
        </extensions>
      </trkpt>
      <trkpt lat="42.51469974406063556671142578125" lon="19.8990003950893878936767578125">
        <ele>1962.5999755859375</ele>
        <time>2026-06-17T11:36:25.000Z</time>
        <extensions>
          <ns3:TrackPointExtension>
            <ns3:atemp>16.0</ns3:atemp>
          </ns3:TrackPointExtension>
        </extensions>
      </trkpt>
      <trkpt lat="42.51468122005462646484375" lon="19.89899419248104095458984375">
        <ele>1962.4000244140625</ele>
        <time>2026-06-17T11:36:26.000Z</time>
        <extensions>
          <ns3:TrackPointExtension>
            <ns3:atemp>16.0</ns3:atemp>
          </ns3:TrackPointExtension>
        </extensions>
      </trkpt>
      <trkpt lat="42.51465749926865100860595703125" lon="19.89898748695850372314453125">
        <ele>1962.199951171875</ele>
        <time>2026-06-17T11:36:27.000Z</time>
        <extensions>
          <ns3:TrackPointExtension>
            <ns3:atemp>16.0</ns3:atemp>
          </ns3:TrackPointExtension>
        </extensions>
      </trkpt>
      <trkpt lat="42.51462958753108978271484375" lon="19.89898237399756908416748046875">
        <ele>1962</ele>
        <time>2026-06-17T11:36:28.000Z</time>
        <extensions>
          <ns3:TrackPointExtension>
            <ns3:atemp>16.0</ns3:atemp>
          </ns3:TrackPointExtension>
        </extensions>
      </trkpt>
      <trkpt lat="42.5146015919744968414306640625" lon="19.8989802785217761993408203125">
        <ele>1961.800048828125</ele>
        <time>2026-06-17T11:36:29.000Z</time>
        <extensions>
          <ns3:TrackPointExtension>
            <ns3:atemp>16.0</ns3:atemp>
          </ns3:TrackPointExtension>
        </extensions>
      </trkpt>
      <trkpt lat="42.51457820646464824676513671875" lon="19.898974411189556121826171875">
        <ele>1962</ele>
        <time>2026-06-17T11:36:30.000Z</time>
        <extensions>
          <ns3:TrackPointExtension>
            <ns3:atemp>16.0</ns3:atemp>
          </ns3:TrackPointExtension>
        </extensions>
      </trkpt>
      <trkpt lat="42.5145543180406093597412109375" lon="19.89896577782928943634033203125">
        <ele>1962</ele>
        <time>2026-06-17T11:36:31.000Z</time>
        <extensions>
          <ns3:TrackPointExtension>
            <ns3:atemp>16.0</ns3:atemp>
          </ns3:TrackPointExtension>
        </extensions>
      </trkpt>
      <trkpt lat="42.51453059725463390350341796875" lon="19.89895186387002468109130859375">
        <ele>1962.199951171875</ele>
        <time>2026-06-17T11:36:32.000Z</time>
        <extensions>
          <ns3:TrackPointExtension>
            <ns3:atemp>16.0</ns3:atemp>
          </ns3:TrackPointExtension>
        </extensions>
      </trkpt>
      <trkpt lat="42.5145080499351024627685546875" lon="19.898935854434967041015625">
        <ele>1962.4000244140625</ele>
        <time>2026-06-17T11:36:33.000Z</time>
        <extensions>
          <ns3:TrackPointExtension>
            <ns3:atemp>16.0</ns3:atemp>
          </ns3:TrackPointExtension>
        </extensions>
      </trkpt>
      <trkpt lat="42.514484412968158721923828125" lon="19.89892286248505115509033203125">
        <ele>1962.5999755859375</ele>
        <time>2026-06-17T11:36:34.000Z</time>
        <extensions>
          <ns3:TrackPointExtension>
            <ns3:atemp>16.0</ns3:atemp>
          </ns3:TrackPointExtension>
        </extensions>
      </trkpt>
      <trkpt lat="42.5144604407250881195068359375" lon="19.8989108763635158538818359375">
        <ele>1962.5999755859375</ele>
        <time>2026-06-17T11:36:35.000Z</time>
        <extensions>
          <ns3:TrackPointExtension>
            <ns3:atemp>16.0</ns3:atemp>
          </ns3:TrackPointExtension>
        </extensions>
      </trkpt>
      <trkpt lat="42.514433450996875762939453125" lon="19.89889553748071193695068359375">
        <ele>1962.5999755859375</ele>
        <time>2026-06-17T11:36:36.000Z</time>
        <extensions>
          <ns3:TrackPointExtension>
            <ns3:atemp>16.0</ns3:atemp>
          </ns3:TrackPointExtension>
        </extensions>
      </trkpt>
      <trkpt lat="42.51440654508769512176513671875" lon="19.8988733254373073577880859375">
        <ele>1962.5999755859375</ele>
        <time>2026-06-17T11:36:37.000Z</time>
        <extensions>
          <ns3:TrackPointExtension>
            <ns3:atemp>16.0</ns3:atemp>
          </ns3:TrackPointExtension>
        </extensions>
      </trkpt>
      <trkpt lat="42.5143752805888652801513671875" lon="19.89884826354682445526123046875">
        <ele>1962.4000244140625</ele>
        <time>2026-06-17T11:36:38.000Z</time>
        <extensions>
          <ns3:TrackPointExtension>
            <ns3:atemp>16.0</ns3:atemp>
          </ns3:TrackPointExtension>
        </extensions>
      </trkpt>
      <trkpt lat="42.51433848403394222259521484375" lon="19.89882663823664188385009765625">
        <ele>1962.199951171875</ele>
        <time>2026-06-17T11:36:39.000Z</time>
        <extensions>
          <ns3:TrackPointExtension>
            <ns3:atemp>16.0</ns3:atemp>
          </ns3:TrackPointExtension>
        </extensions>
      </trkpt>
      <trkpt lat="42.51430235803127288818359375" lon="19.89880777895450592041015625">
        <ele>1962</ele>
        <time>2026-06-17T11:36:40.000Z</time>
        <extensions>
          <ns3:TrackPointExtension>
            <ns3:atemp>16.0</ns3:atemp>
          </ns3:TrackPointExtension>
        </extensions>
      </trkpt>
      <trkpt lat="42.514278553426265716552734375" lon="19.89879478700459003448486328125">
        <ele>1962</ele>
        <time>2026-06-17T11:36:41.000Z</time>
        <extensions>
          <ns3:TrackPointExtension>
            <ns3:atemp>16.0</ns3:atemp>
          </ns3:TrackPointExtension>
        </extensions>
      </trkpt>
      <trkpt lat="42.5142689980566501617431640625" lon="19.898790679872035980224609375">
        <ele>1961.800048828125</ele>
        <time>2026-06-17T11:36:42.000Z</time>
        <extensions>
          <ns3:TrackPointExtension>
            <ns3:atemp>16.0</ns3:atemp>
          </ns3:TrackPointExtension>
        </extensions>
      </trkpt>
      <trkpt lat="42.5142649747431278228759765625" lon="19.8987864889204502105712890625">
        <ele>1961.800048828125</ele>
        <time>2026-06-17T11:36:43.000Z</time>
        <extensions>
          <ns3:TrackPointExtension>
            <ns3:atemp>16.0</ns3:atemp>
          </ns3:TrackPointExtension>
        </extensions>
      </trkpt>
      <trkpt lat="42.51425952650606632232666015625" lon="19.898786656558513641357421875">
        <ele>1962</ele>
        <time>2026-06-17T11:36:44.000Z</time>
        <extensions>
          <ns3:TrackPointExtension>
            <ns3:atemp>16.0</ns3:atemp>
          </ns3:TrackPointExtension>
        </extensions>
      </trkpt>
      <trkpt lat="42.51425466500222682952880859375" lon="19.8987895064055919647216796875">
        <ele>1962</ele>
        <time>2026-06-17T11:36:45.000Z</time>
        <extensions>
          <ns3:TrackPointExtension>
            <ns3:atemp>16.0</ns3:atemp>
          </ns3:TrackPointExtension>
        </extensions>
      </trkpt>
      <trkpt lat="42.5142545811831951141357421875" lon="19.8987895064055919647216796875">
        <ele>1962</ele>
        <time>2026-06-17T11:36:46.000Z</time>
        <extensions>
          <ns3:TrackPointExtension>
            <ns3:atemp>16.0</ns3:atemp>
          </ns3:TrackPointExtension>
        </extensions>
      </trkpt>
      <trkpt lat="42.5142545811831951141357421875" lon="19.89878942258656024932861328125">
        <ele>1962.199951171875</ele>
        <time>2026-06-17T11:36:47.000Z</time>
        <extensions>
          <ns3:TrackPointExtension>
            <ns3:atemp>16.0</ns3:atemp>
          </ns3:TrackPointExtension>
        </extensions>
      </trkpt>
      <trkpt lat="42.51425005495548248291015625" lon="19.89878632128238677978515625">
        <ele>1962</ele>
        <time>2026-06-17T11:36:48.000Z</time>
        <extensions>
          <ns3:TrackPointExtension>
            <ns3:atemp>16.0</ns3:atemp>
          </ns3:TrackPointExtension>
        </extensions>
      </trkpt>
      <trkpt lat="42.5142448581755161285400390625" lon="19.89878523163497447967529296875">
        <ele>1962</ele>
        <time>2026-06-17T11:36:49.000Z</time>
        <extensions>
          <ns3:TrackPointExtension>
            <ns3:atemp>16.0</ns3:atemp>
          </ns3:TrackPointExtension>
        </extensions>
      </trkpt>
      <trkpt lat="42.51423421315848827362060546875" lon="19.898781292140483856201171875">
        <ele>1962</ele>
        <time>2026-06-17T11:36:50.000Z</time>
        <extensions>
          <ns3:TrackPointExtension>
            <ns3:atemp>16.0</ns3:atemp>
          </ns3:TrackPointExtension>
        </extensions>
      </trkpt>
      <trkpt lat="42.51422080211341381072998046875" lon="19.8987777717411518096923828125">
        <ele>1961.800048828125</ele>
        <time>2026-06-17T11:36:51.000Z</time>
        <extensions>
          <ns3:TrackPointExtension>
            <ns3:atemp>16.0</ns3:atemp>
          </ns3:TrackPointExtension>
        </extensions>
      </trkpt>
      <trkpt lat="42.514210827648639678955078125" lon="19.89877223968505859375">
        <ele>1961.800048828125</ele>
        <time>2026-06-17T11:36:52.000Z</time>
        <extensions>
          <ns3:TrackPointExtension>
            <ns3:atemp>16.0</ns3:atemp>
          </ns3:TrackPointExtension>
        </extensions>
      </trkpt>
      <trkpt lat="42.51419775187969207763671875" lon="19.898771904408931732177734375">
        <ele>1961.5999755859375</ele>
        <time>2026-06-17T11:36:53.000Z</time>
        <extensions>
          <ns3:TrackPointExtension>
            <ns3:atemp>16.0</ns3:atemp>
          </ns3:TrackPointExtension>
        </extensions>
      </trkpt>
      <trkpt lat="42.51418559812009334564208984375" lon="19.898773916065692901611328125">
        <ele>1961.4000244140625</ele>
        <time>2026-06-17T11:36:54.000Z</time>
        <extensions>
          <ns3:TrackPointExtension>
            <ns3:atemp>16.0</ns3:atemp>
          </ns3:TrackPointExtension>
        </extensions>
      </trkpt>
      <trkpt lat="42.51417696475982666015625" lon="19.89877291023731231689453125">
        <ele>1961.199951171875</ele>
        <time>2026-06-17T11:36:55.000Z</time>
        <extensions>
          <ns3:TrackPointExtension>
            <ns3:atemp>16.0</ns3:atemp>
          </ns3:TrackPointExtension>
        </extensions>
      </trkpt>
      <trkpt lat="42.51416623592376708984375" lon="19.89876327104866504669189453125">
        <ele>1961</ele>
        <time>2026-06-17T11:36:56.000Z</time>
        <extensions>
          <ns3:TrackPointExtension>
            <ns3:atemp>16.0</ns3:atemp>
          </ns3:TrackPointExtension>
        </extensions>
      </trkpt>
      <trkpt lat="42.514151819050312042236328125" lon="19.898757152259349822998046875">
        <ele>1960.800048828125</ele>
        <time>2026-06-17T11:36:57.000Z</time>
        <extensions>
          <ns3:TrackPointExtension>
            <ns3:atemp>16.0</ns3:atemp>
          </ns3:TrackPointExtension>
        </extensions>
      </trkpt>
      <trkpt lat="42.5141368992626667022705078125" lon="19.89875413477420806884765625">
        <ele>1960.4000244140625</ele>
        <time>2026-06-17T11:36:58.000Z</time>
        <extensions>
          <ns3:TrackPointExtension>
            <ns3:atemp>16.0</ns3:atemp>
          </ns3:TrackPointExtension>
        </extensions>
      </trkpt>
      <trkpt lat="42.51412357203662395477294921875" lon="19.8987566493451595306396484375">
        <ele>1960.199951171875</ele>
        <time>2026-06-17T11:36:59.000Z</time>
        <extensions>
          <ns3:TrackPointExtension>
            <ns3:atemp>16.0</ns3:atemp>
          </ns3:TrackPointExtension>
        </extensions>
      </trkpt>
      <trkpt lat="42.51411234028637409210205078125" lon="19.8987610079348087310791015625">
        <ele>1959.800048828125</ele>
        <time>2026-06-17T11:37:00.000Z</time>
        <extensions>
          <ns3:TrackPointExtension>
            <ns3:atemp>16.0</ns3:atemp>
          </ns3:TrackPointExtension>
        </extensions>
      </trkpt>
      <trkpt lat="42.51409809105098247528076171875" lon="19.898763857781887054443359375">
        <ele>1959.5999755859375</ele>
        <time>2026-06-17T11:37:01.000Z</time>
        <extensions>
          <ns3:TrackPointExtension>
            <ns3:atemp>16.0</ns3:atemp>
          </ns3:TrackPointExtension>
        </extensions>
      </trkpt>
      <trkpt lat="42.51408032141625881195068359375" lon="19.89877433516085147857666015625">
        <ele>1959.199951171875</ele>
        <time>2026-06-17T11:37:02.000Z</time>
        <extensions>
          <ns3:TrackPointExtension>
            <ns3:atemp>16.0</ns3:atemp>
          </ns3:TrackPointExtension>
        </extensions>
      </trkpt>
      <trkpt lat="42.51406188122928142547607421875" lon="19.8987720720469951629638671875">
        <ele>1958.800048828125</ele>
        <time>2026-06-17T11:37:03.000Z</time>
        <extensions>
          <ns3:TrackPointExtension>
            <ns3:atemp>16.0</ns3:atemp>
          </ns3:TrackPointExtension>
        </extensions>
      </trkpt>
      <trkpt lat="42.514036484062671661376953125" lon="19.8987754248082637786865234375">
        <ele>1958.5999755859375</ele>
        <time>2026-06-17T11:37:04.000Z</time>
        <extensions>
          <ns3:TrackPointExtension>
            <ns3:atemp>16.0</ns3:atemp>
          </ns3:TrackPointExtension>
        </extensions>
      </trkpt>
      <trkpt lat="42.5140093266963958740234375" lon="19.8987720720469951629638671875">
        <ele>1958.199951171875</ele>
        <time>2026-06-17T11:37:05.000Z</time>
        <extensions>
          <ns3:TrackPointExtension>
            <ns3:atemp>16.0</ns3:atemp>
          </ns3:TrackPointExtension>
        </extensions>
      </trkpt>
      <trkpt lat="42.513990215957164764404296875" lon="19.8987616784870624542236328125">
        <ele>1958</ele>
        <time>2026-06-17T11:37:06.000Z</time>
        <extensions>
          <ns3:TrackPointExtension>
            <ns3:atemp>16.0</ns3:atemp>
          </ns3:TrackPointExtension>
        </extensions>
      </trkpt>
      <trkpt lat="42.51397336833178997039794921875" lon="19.89874483086168766021728515625">
        <ele>1957.800048828125</ele>
        <time>2026-06-17T11:37:07.000Z</time>
        <extensions>
          <ns3:TrackPointExtension>
            <ns3:atemp>16.0</ns3:atemp>
          </ns3:TrackPointExtension>
        </extensions>
      </trkpt>
      <trkpt lat="42.5139565207064151763916015625" lon="19.89872739650309085845947265625">
        <ele>1957.4000244140625</ele>
        <time>2026-06-17T11:37:08.000Z</time>
        <extensions>
          <ns3:TrackPointExtension>
            <ns3:atemp>16.0</ns3:atemp>
          </ns3:TrackPointExtension>
        </extensions>
      </trkpt>
      <trkpt lat="42.513944618403911590576171875" lon="19.89871524274349212646484375">
        <ele>1957.199951171875</ele>
        <time>2026-06-17T11:37:09.000Z</time>
        <extensions>
          <ns3:TrackPointExtension>
            <ns3:atemp>16.0</ns3:atemp>
          </ns3:TrackPointExtension>
        </extensions>
      </trkpt>
      <trkpt lat="42.51392961479723453521728515625" lon="19.89870451390743255615234375">
        <ele>1957</ele>
        <time>2026-06-17T11:37:10.000Z</time>
        <extensions>
          <ns3:TrackPointExtension>
            <ns3:atemp>16.0</ns3:atemp>
          </ns3:TrackPointExtension>
        </extensions>
      </trkpt>
      <trkpt lat="42.51390966586768627166748046875" lon="19.8986926116049289703369140625">
        <ele>1956.800048828125</ele>
        <time>2026-06-17T11:37:11.000Z</time>
        <extensions>
          <ns3:TrackPointExtension>
            <ns3:atemp>16.0</ns3:atemp>
          </ns3:TrackPointExtension>
        </extensions>
      </trkpt>
      <trkpt lat="42.51389390788972377777099609375" lon="19.898681379854679107666015625">
        <ele>1956.4000244140625</ele>
        <time>2026-06-17T11:37:12.000Z</time>
        <extensions>
          <ns3:TrackPointExtension>
            <ns3:atemp>16.0</ns3:atemp>
          </ns3:TrackPointExtension>
        </extensions>
      </trkpt>
      <trkpt lat="42.51387630589306354522705078125" lon="19.89866771735250949859619140625">
        <ele>1956.199951171875</ele>
        <time>2026-06-17T11:37:13.000Z</time>
        <extensions>
          <ns3:TrackPointExtension>
            <ns3:atemp>16.0</ns3:atemp>
          </ns3:TrackPointExtension>
        </extensions>
      </trkpt>
      <trkpt lat="42.51385845243930816650390625" lon="19.89865397103130817413330078125">
        <ele>1956</ele>
        <time>2026-06-17T11:37:14.000Z</time>
        <extensions>
          <ns3:TrackPointExtension>
            <ns3:atemp>16.0</ns3:atemp>
          </ns3:TrackPointExtension>
        </extensions>
      </trkpt>
      <trkpt lat="42.51384370028972625732421875" lon="19.89864508621394634246826171875">
        <ele>1955.800048828125</ele>
        <time>2026-06-17T11:37:15.000Z</time>
        <extensions>
          <ns3:TrackPointExtension>
            <ns3:atemp>16.0</ns3:atemp>
          </ns3:TrackPointExtension>
        </extensions>
      </trkpt>
      <trkpt lat="42.513834647834300994873046875" lon="19.89863854832947254180908203125">
        <ele>1955.4000244140625</ele>
        <time>2026-06-17T11:37:16.000Z</time>
        <extensions>
          <ns3:TrackPointExtension>
            <ns3:atemp>16.0</ns3:atemp>
          </ns3:TrackPointExtension>
        </extensions>
      </trkpt>
      <trkpt lat="42.513823918998241424560546875" lon="19.89863066934049129486083984375">
        <ele>1955.199951171875</ele>
        <time>2026-06-17T11:37:17.000Z</time>
        <extensions>
          <ns3:TrackPointExtension>
            <ns3:atemp>16.0</ns3:atemp>
          </ns3:TrackPointExtension>
        </extensions>
      </trkpt>
      <trkpt lat="42.51381461508572101593017578125" lon="19.89862815476953983306884765625">
        <ele>1955</ele>
        <time>2026-06-17T11:37:18.000Z</time>
        <extensions>
          <ns3:TrackPointExtension>
            <ns3:atemp>16.0</ns3:atemp>
          </ns3:TrackPointExtension>
        </extensions>
      </trkpt>
      <trkpt lat="42.51381159760057926177978515625" lon="19.89862480200827121734619140625">
        <ele>1955</ele>
        <time>2026-06-17T11:37:19.000Z</time>
        <extensions>
          <ns3:TrackPointExtension>
            <ns3:atemp>16.0</ns3:atemp>
          </ns3:TrackPointExtension>
        </extensions>
      </trkpt>
      <trkpt lat="42.51380422152578830718994140625" lon="19.8986205272376537322998046875">
        <ele>1954.800048828125</ele>
        <time>2026-06-17T11:37:20.000Z</time>
        <extensions>
          <ns3:TrackPointExtension>
            <ns3:atemp>16.0</ns3:atemp>
          </ns3:TrackPointExtension>
        </extensions>
      </trkpt>
      <trkpt lat="42.513800449669361114501953125" lon="19.89861642010509967803955078125">
        <ele>1954.800048828125</ele>
        <time>2026-06-17T11:37:21.000Z</time>
        <extensions>
          <ns3:TrackPointExtension>
            <ns3:atemp>16.0</ns3:atemp>
          </ns3:TrackPointExtension>
        </extensions>
      </trkpt>
      <trkpt lat="42.51379885710775852203369140625" lon="19.89861658774316310882568359375">
        <ele>1954.800048828125</ele>
        <time>2026-06-17T11:37:22.000Z</time>
        <extensions>
          <ns3:TrackPointExtension>
            <ns3:atemp>16.0</ns3:atemp>
          </ns3:TrackPointExtension>
        </extensions>
      </trkpt>
      <trkpt lat="42.51379885710775852203369140625" lon="19.89861658774316310882568359375">
        <ele>1954.5999755859375</ele>
        <time>2026-06-17T11:37:23.000Z</time>
        <extensions>
          <ns3:TrackPointExtension>
            <ns3:atemp>16.0</ns3:atemp>
          </ns3:TrackPointExtension>
        </extensions>
      </trkpt>
      <trkpt lat="42.51379885710775852203369140625" lon="19.89861658774316310882568359375">
        <ele>1954.5999755859375</ele>
        <time>2026-06-17T11:37:24.000Z</time>
        <extensions>
          <ns3:TrackPointExtension>
            <ns3:atemp>16.0</ns3:atemp>
          </ns3:TrackPointExtension>
        </extensions>
      </trkpt>
      <trkpt lat="42.51379885710775852203369140625" lon="19.89861658774316310882568359375">
        <ele>1954.5999755859375</ele>
        <time>2026-06-17T11:37:25.000Z</time>
        <extensions>
          <ns3:TrackPointExtension>
            <ns3:atemp>16.0</ns3:atemp>
          </ns3:TrackPointExtension>
        </extensions>
      </trkpt>
      <trkpt lat="42.51379885710775852203369140625" lon="19.89861658774316310882568359375">
        <ele>1954.4000244140625</ele>
        <time>2026-06-17T11:37:26.000Z</time>
        <extensions>
          <ns3:TrackPointExtension>
            <ns3:atemp>16.0</ns3:atemp>
          </ns3:TrackPointExtension>
        </extensions>
      </trkpt>
      <trkpt lat="42.51379885710775852203369140625" lon="19.89861658774316310882568359375">
        <ele>1954.4000244140625</ele>
        <time>2026-06-17T11:37:27.000Z</time>
        <extensions>
          <ns3:TrackPointExtension>
            <ns3:atemp>16.0</ns3:atemp>
          </ns3:TrackPointExtension>
        </extensions>
      </trkpt>
      <trkpt lat="42.51379885710775852203369140625" lon="19.89861658774316310882568359375">
        <ele>1954.4000244140625</ele>
        <time>2026-06-17T11:37:28.000Z</time>
        <extensions>
          <ns3:TrackPointExtension>
            <ns3:atemp>16.0</ns3:atemp>
          </ns3:TrackPointExtension>
        </extensions>
      </trkpt>
      <trkpt lat="42.51379885710775852203369140625" lon="19.89861658774316310882568359375">
        <ele>1954.4000244140625</ele>
        <time>2026-06-17T11:37:29.000Z</time>
        <extensions>
          <ns3:TrackPointExtension>
            <ns3:atemp>16.0</ns3:atemp>
          </ns3:TrackPointExtension>
        </extensions>
      </trkpt>
      <trkpt lat="42.51379885710775852203369140625" lon="19.89861658774316310882568359375">
        <ele>1954.4000244140625</ele>
        <time>2026-06-17T11:37:30.000Z</time>
        <extensions>
          <ns3:TrackPointExtension>
            <ns3:atemp>16.0</ns3:atemp>
          </ns3:TrackPointExtension>
        </extensions>
      </trkpt>
      <trkpt lat="42.51379885710775852203369140625" lon="19.89861658774316310882568359375">
        <ele>1954.4000244140625</ele>
        <time>2026-06-17T11:37:31.000Z</time>
        <extensions>
          <ns3:TrackPointExtension>
            <ns3:atemp>16.0</ns3:atemp>
          </ns3:TrackPointExtension>
        </extensions>
      </trkpt>
      <trkpt lat="42.51379885710775852203369140625" lon="19.89861658774316310882568359375">
        <ele>1954.4000244140625</ele>
        <time>2026-06-17T11:37:32.000Z</time>
        <extensions>
          <ns3:TrackPointExtension>
            <ns3:atemp>16.0</ns3:atemp>
          </ns3:TrackPointExtension>
        </extensions>
      </trkpt>
      <trkpt lat="42.51379785127937793731689453125" lon="19.89861608482897281646728515625">
        <ele>1954.4000244140625</ele>
        <time>2026-06-17T11:37:33.000Z</time>
        <extensions>
          <ns3:TrackPointExtension>
            <ns3:atemp>16.0</ns3:atemp>
          </ns3:TrackPointExtension>
        </extensions>
      </trkpt>
      <trkpt lat="42.513786368072032928466796875" lon="19.898610301315784454345703125">
        <ele>1954.4000244140625</ele>
        <time>2026-06-17T11:37:34.000Z</time>
        <extensions>
          <ns3:TrackPointExtension>
            <ns3:atemp>16.0</ns3:atemp>
          </ns3:TrackPointExtension>
        </extensions>
      </trkpt>
      <trkpt lat="42.51379885710775852203369140625" lon="19.89861658774316310882568359375">
        <ele>1954.199951171875</ele>
        <time>2026-06-17T11:37:35.000Z</time>
        <extensions>
          <ns3:TrackPointExtension>
            <ns3:atemp>16.0</ns3:atemp>
          </ns3:TrackPointExtension>
        </extensions>
      </trkpt>
      <trkpt lat="42.51378695480525493621826171875" lon="19.898607619106769561767578125">
        <ele>1954.199951171875</ele>
        <time>2026-06-17T11:37:36.000Z</time>
        <extensions>
          <ns3:TrackPointExtension>
            <ns3:atemp>16.0</ns3:atemp>
          </ns3:TrackPointExtension>
        </extensions>
      </trkpt>
      <trkpt lat="42.5137868709862232208251953125" lon="19.8986074514687061309814453125">
        <ele>1954.199951171875</ele>
        <time>2026-06-17T11:37:37.000Z</time>
        <extensions>
          <ns3:TrackPointExtension>
            <ns3:atemp>16.0</ns3:atemp>
          </ns3:TrackPointExtension>
        </extensions>
      </trkpt>
      <trkpt lat="42.51377664506435394287109375" lon="19.89859965629875659942626953125">
        <ele>1954.199951171875</ele>
        <time>2026-06-17T11:37:38.000Z</time>
        <extensions>
          <ns3:TrackPointExtension>
            <ns3:atemp>16.0</ns3:atemp>
          </ns3:TrackPointExtension>
        </extensions>
      </trkpt>
      <trkpt lat="42.513772286474704742431640625" lon="19.89859580062329769134521484375">
        <ele>1954.199951171875</ele>
        <time>2026-06-17T11:37:39.000Z</time>
        <extensions>
          <ns3:TrackPointExtension>
            <ns3:atemp>16.0</ns3:atemp>
          </ns3:TrackPointExtension>
        </extensions>
      </trkpt>
      <trkpt lat="42.513772286474704742431640625" lon="19.89859580062329769134521484375">
        <ele>1954.199951171875</ele>
        <time>2026-06-17T11:37:40.000Z</time>
        <extensions>
          <ns3:TrackPointExtension>
            <ns3:atemp>16.0</ns3:atemp>
          </ns3:TrackPointExtension>
        </extensions>
      </trkpt>
      <trkpt lat="42.513772286474704742431640625" lon="19.89859580062329769134521484375">
        <ele>1954</ele>
        <time>2026-06-17T11:37:41.000Z</time>
        <extensions>
          <ns3:TrackPointExtension>
            <ns3:atemp>16.0</ns3:atemp>
          </ns3:TrackPointExtension>
        </extensions>
      </trkpt>
      <trkpt lat="42.513772286474704742431640625" lon="19.89859580062329769134521484375">
        <ele>1954</ele>
        <time>2026-06-17T11:37:42.000Z</time>
        <extensions>
          <ns3:TrackPointExtension>
            <ns3:atemp>16.0</ns3:atemp>
          </ns3:TrackPointExtension>
        </extensions>
      </trkpt>
      <trkpt lat="42.513772286474704742431640625" lon="19.89859580062329769134521484375">
        <ele>1954.199951171875</ele>
        <time>2026-06-17T11:37:43.000Z</time>
        <extensions>
          <ns3:TrackPointExtension>
            <ns3:atemp>16.0</ns3:atemp>
          </ns3:TrackPointExtension>
        </extensions>
      </trkpt>
      <trkpt lat="42.513772286474704742431640625" lon="19.89859580062329769134521484375">
        <ele>1954.199951171875</ele>
        <time>2026-06-17T11:37:44.000Z</time>
        <extensions>
          <ns3:TrackPointExtension>
            <ns3:atemp>16.0</ns3:atemp>
          </ns3:TrackPointExtension>
        </extensions>
      </trkpt>
      <trkpt lat="42.513772286474704742431640625" lon="19.89859580062329769134521484375">
        <ele>1954.199951171875</ele>
        <time>2026-06-17T11:37:45.000Z</time>
        <extensions>
          <ns3:TrackPointExtension>
            <ns3:atemp>16.0</ns3:atemp>
          </ns3:TrackPointExtension>
        </extensions>
      </trkpt>
      <trkpt lat="42.513772286474704742431640625" lon="19.89859580062329769134521484375">
        <ele>1954.199951171875</ele>
        <time>2026-06-17T11:37:46.000Z</time>
        <extensions>
          <ns3:TrackPointExtension>
            <ns3:atemp>16.0</ns3:atemp>
          </ns3:TrackPointExtension>
        </extensions>
      </trkpt>
      <trkpt lat="42.513772286474704742431640625" lon="19.89859580062329769134521484375">
        <ele>1954</ele>
        <time>2026-06-17T11:37:47.000Z</time>
        <extensions>
          <ns3:TrackPointExtension>
            <ns3:atemp>16.0</ns3:atemp>
          </ns3:TrackPointExtension>
        </extensions>
      </trkpt>
      <trkpt lat="42.513772286474704742431640625" lon="19.89859580062329769134521484375">
        <ele>1954</ele>
        <time>2026-06-17T11:37:48.000Z</time>
        <extensions>
          <ns3:TrackPointExtension>
            <ns3:atemp>16.0</ns3:atemp>
          </ns3:TrackPointExtension>
        </extensions>
      </trkpt>
      <trkpt lat="42.513772286474704742431640625" lon="19.89859580062329769134521484375">
        <ele>1954</ele>
        <time>2026-06-17T11:37:49.000Z</time>
        <extensions>
          <ns3:TrackPointExtension>
            <ns3:atemp>16.0</ns3:atemp>
          </ns3:TrackPointExtension>
        </extensions>
      </trkpt>
      <trkpt lat="42.513772286474704742431640625" lon="19.89859580062329769134521484375">
        <ele>1954</ele>
        <time>2026-06-17T11:37:50.000Z</time>
        <extensions>
          <ns3:TrackPointExtension>
            <ns3:atemp>16.0</ns3:atemp>
          </ns3:TrackPointExtension>
        </extensions>
      </trkpt>
      <trkpt lat="42.513772286474704742431640625" lon="19.89859580062329769134521484375">
        <ele>1954</ele>
        <time>2026-06-17T11:37:51.000Z</time>
        <extensions>
          <ns3:TrackPointExtension>
            <ns3:atemp>16.0</ns3:atemp>
          </ns3:TrackPointExtension>
        </extensions>
      </trkpt>
      <trkpt lat="42.513772286474704742431640625" lon="19.89859580062329769134521484375">
        <ele>1954</ele>
        <time>2026-06-17T11:37:52.000Z</time>
        <extensions>
          <ns3:TrackPointExtension>
            <ns3:atemp>16.0</ns3:atemp>
          </ns3:TrackPointExtension>
        </extensions>
      </trkpt>
      <trkpt lat="42.513772286474704742431640625" lon="19.89859580062329769134521484375">
        <ele>1954</ele>
        <time>2026-06-17T11:37:53.000Z</time>
        <extensions>
          <ns3:TrackPointExtension>
            <ns3:atemp>16.0</ns3:atemp>
          </ns3:TrackPointExtension>
        </extensions>
      </trkpt>
      <trkpt lat="42.513772286474704742431640625" lon="19.89859580062329769134521484375">
        <ele>1954</ele>
        <time>2026-06-17T11:37:54.000Z</time>
        <extensions>
          <ns3:TrackPointExtension>
            <ns3:atemp>16.0</ns3:atemp>
          </ns3:TrackPointExtension>
        </extensions>
      </trkpt>
      <trkpt lat="42.513772286474704742431640625" lon="19.89859580062329769134521484375">
        <ele>1954</ele>
        <time>2026-06-17T11:37:55.000Z</time>
        <extensions>
          <ns3:TrackPointExtension>
            <ns3:atemp>16.0</ns3:atemp>
          </ns3:TrackPointExtension>
        </extensions>
      </trkpt>
      <trkpt lat="42.513772286474704742431640625" lon="19.89859580062329769134521484375">
        <ele>1954</ele>
        <time>2026-06-17T11:37:56.000Z</time>
        <extensions>
          <ns3:TrackPointExtension>
            <ns3:atemp>16.0</ns3:atemp>
          </ns3:TrackPointExtension>
        </extensions>
      </trkpt>
      <trkpt lat="42.513772286474704742431640625" lon="19.89859580062329769134521484375">
        <ele>1954</ele>
        <time>2026-06-17T11:37:57.000Z</time>
        <extensions>
          <ns3:TrackPointExtension>
            <ns3:atemp>16.0</ns3:atemp>
          </ns3:TrackPointExtension>
        </extensions>
      </trkpt>
      <trkpt lat="42.513772286474704742431640625" lon="19.89859580062329769134521484375">
        <ele>1954</ele>
        <time>2026-06-17T11:37:58.000Z</time>
        <extensions>
          <ns3:TrackPointExtension>
            <ns3:atemp>16.0</ns3:atemp>
          </ns3:TrackPointExtension>
        </extensions>
      </trkpt>
      <trkpt lat="42.513772286474704742431640625" lon="19.89859580062329769134521484375">
        <ele>1954</ele>
        <time>2026-06-17T11:37:59.000Z</time>
        <extensions>
          <ns3:TrackPointExtension>
            <ns3:atemp>16.0</ns3:atemp>
          </ns3:TrackPointExtension>
        </extensions>
      </trkpt>
      <trkpt lat="42.513772286474704742431640625" lon="19.89859580062329769134521484375">
        <ele>1954</ele>
        <time>2026-06-17T11:38:00.000Z</time>
        <extensions>
          <ns3:TrackPointExtension>
            <ns3:atemp>16.0</ns3:atemp>
          </ns3:TrackPointExtension>
        </extensions>
      </trkpt>
      <trkpt lat="42.513772286474704742431640625" lon="19.89859580062329769134521484375">
        <ele>1954</ele>
        <time>2026-06-17T11:38:01.000Z</time>
        <extensions>
          <ns3:TrackPointExtension>
            <ns3:atemp>16.0</ns3:atemp>
          </ns3:TrackPointExtension>
        </extensions>
      </trkpt>
      <trkpt lat="42.513772286474704742431640625" lon="19.89859580062329769134521484375">
        <ele>1954</ele>
        <time>2026-06-17T11:38:02.000Z</time>
        <extensions>
          <ns3:TrackPointExtension>
            <ns3:atemp>16.0</ns3:atemp>
          </ns3:TrackPointExtension>
        </extensions>
      </trkpt>
      <trkpt lat="42.513772286474704742431640625" lon="19.89859580062329769134521484375">
        <ele>1953.800048828125</ele>
        <time>2026-06-17T11:38:03.000Z</time>
        <extensions>
          <ns3:TrackPointExtension>
            <ns3:atemp>16.0</ns3:atemp>
          </ns3:TrackPointExtension>
        </extensions>
      </trkpt>
      <trkpt lat="42.513772286474704742431640625" lon="19.89859580062329769134521484375">
        <ele>1953.800048828125</ele>
        <time>2026-06-17T11:38:04.000Z</time>
        <extensions>
          <ns3:TrackPointExtension>
            <ns3:atemp>16.0</ns3:atemp>
          </ns3:TrackPointExtension>
        </extensions>
      </trkpt>
      <trkpt lat="42.513772286474704742431640625" lon="19.89859580062329769134521484375">
        <ele>1953.800048828125</ele>
        <time>2026-06-17T11:38:05.000Z</time>
        <extensions>
          <ns3:TrackPointExtension>
            <ns3:atemp>16.0</ns3:atemp>
          </ns3:TrackPointExtension>
        </extensions>
      </trkpt>
      <trkpt lat="42.513772286474704742431640625" lon="19.89859580062329769134521484375">
        <ele>1953.800048828125</ele>
        <time>2026-06-17T11:38:06.000Z</time>
        <extensions>
          <ns3:TrackPointExtension>
            <ns3:atemp>16.0</ns3:atemp>
          </ns3:TrackPointExtension>
        </extensions>
      </trkpt>
      <trkpt lat="42.513772286474704742431640625" lon="19.89859580062329769134521484375">
        <ele>1953.800048828125</ele>
        <time>2026-06-17T11:38:07.000Z</time>
        <extensions>
          <ns3:TrackPointExtension>
            <ns3:atemp>16.0</ns3:atemp>
          </ns3:TrackPointExtension>
        </extensions>
      </trkpt>
      <trkpt lat="42.513772286474704742431640625" lon="19.89859580062329769134521484375">
        <ele>1953.800048828125</ele>
        <time>2026-06-17T11:38:08.000Z</time>
        <extensions>
          <ns3:TrackPointExtension>
            <ns3:atemp>16.0</ns3:atemp>
          </ns3:TrackPointExtension>
        </extensions>
      </trkpt>
      <trkpt lat="42.513772286474704742431640625" lon="19.89859580062329769134521484375">
        <ele>1953.800048828125</ele>
        <time>2026-06-17T11:38:09.000Z</time>
        <extensions>
          <ns3:TrackPointExtension>
            <ns3:atemp>16.0</ns3:atemp>
          </ns3:TrackPointExtension>
        </extensions>
      </trkpt>
      <trkpt lat="42.513772286474704742431640625" lon="19.89859580062329769134521484375">
        <ele>1953.800048828125</ele>
        <time>2026-06-17T11:38:10.000Z</time>
        <extensions>
          <ns3:TrackPointExtension>
            <ns3:atemp>16.0</ns3:atemp>
          </ns3:TrackPointExtension>
        </extensions>
      </trkpt>
      <trkpt lat="42.513772286474704742431640625" lon="19.89859580062329769134521484375">
        <ele>1953.800048828125</ele>
        <time>2026-06-17T11:38:11.000Z</time>
        <extensions>
          <ns3:TrackPointExtension>
            <ns3:atemp>16.0</ns3:atemp>
          </ns3:TrackPointExtension>
        </extensions>
      </trkpt>
      <trkpt lat="42.513772286474704742431640625" lon="19.89859580062329769134521484375">
        <ele>1953.800048828125</ele>
        <time>2026-06-17T11:38:12.000Z</time>
        <extensions>
          <ns3:TrackPointExtension>
            <ns3:atemp>16.0</ns3:atemp>
          </ns3:TrackPointExtension>
        </extensions>
      </trkpt>
      <trkpt lat="42.513772286474704742431640625" lon="19.89859580062329769134521484375">
        <ele>1953.800048828125</ele>
        <time>2026-06-17T11:38:13.000Z</time>
        <extensions>
          <ns3:TrackPointExtension>
            <ns3:atemp>16.0</ns3:atemp>
          </ns3:TrackPointExtension>
        </extensions>
      </trkpt>
      <trkpt lat="42.513772286474704742431640625" lon="19.89859580062329769134521484375">
        <ele>1953.800048828125</ele>
        <time>2026-06-17T11:38:14.000Z</time>
        <extensions>
          <ns3:TrackPointExtension>
            <ns3:atemp>16.0</ns3:atemp>
          </ns3:TrackPointExtension>
        </extensions>
      </trkpt>
      <trkpt lat="42.513772286474704742431640625" lon="19.89859580062329769134521484375">
        <ele>1953.800048828125</ele>
        <time>2026-06-17T11:38:15.000Z</time>
        <extensions>
          <ns3:TrackPointExtension>
            <ns3:atemp>16.0</ns3:atemp>
          </ns3:TrackPointExtension>
        </extensions>
      </trkpt>
      <trkpt lat="42.513772286474704742431640625" lon="19.89859580062329769134521484375">
        <ele>1953.800048828125</ele>
        <time>2026-06-17T11:38:16.000Z</time>
        <extensions>
          <ns3:TrackPointExtension>
            <ns3:atemp>16.0</ns3:atemp>
          </ns3:TrackPointExtension>
        </extensions>
      </trkpt>
      <trkpt lat="42.513772286474704742431640625" lon="19.89859580062329769134521484375">
        <ele>1953.800048828125</ele>
        <time>2026-06-17T11:38:17.000Z</time>
        <extensions>
          <ns3:TrackPointExtension>
            <ns3:atemp>16.0</ns3:atemp>
          </ns3:TrackPointExtension>
        </extensions>
      </trkpt>
      <trkpt lat="42.513772286474704742431640625" lon="19.89859580062329769134521484375">
        <ele>1953.800048828125</ele>
        <time>2026-06-17T11:38:18.000Z</time>
        <extensions>
          <ns3:TrackPointExtension>
            <ns3:atemp>16.0</ns3:atemp>
          </ns3:TrackPointExtension>
        </extensions>
      </trkpt>
      <trkpt lat="42.513772286474704742431640625" lon="19.89859580062329769134521484375">
        <ele>1953.800048828125</ele>
        <time>2026-06-17T11:38:19.000Z</time>
        <extensions>
          <ns3:TrackPointExtension>
            <ns3:atemp>16.0</ns3:atemp>
          </ns3:TrackPointExtension>
        </extensions>
      </trkpt>
      <trkpt lat="42.513772286474704742431640625" lon="19.89859580062329769134521484375">
        <ele>1953.800048828125</ele>
        <time>2026-06-17T11:38:20.000Z</time>
        <extensions>
          <ns3:TrackPointExtension>
            <ns3:atemp>16.0</ns3:atemp>
          </ns3:TrackPointExtension>
        </extensions>
      </trkpt>
      <trkpt lat="42.513772286474704742431640625" lon="19.89859580062329769134521484375">
        <ele>1953.5999755859375</ele>
        <time>2026-06-17T11:38:21.000Z</time>
        <extensions>
          <ns3:TrackPointExtension>
            <ns3:atemp>16.0</ns3:atemp>
          </ns3:TrackPointExtension>
        </extensions>
      </trkpt>
      <trkpt lat="42.5137697719037532806396484375" lon="19.89859848283231258392333984375">
        <ele>1953.5999755859375</ele>
        <time>2026-06-17T11:38:22.000Z</time>
        <extensions>
          <ns3:TrackPointExtension>
            <ns3:atemp>16.0</ns3:atemp>
          </ns3:TrackPointExtension>
        </extensions>
      </trkpt>
      <trkpt lat="42.51376013271510601043701171875" lon="19.89859999157488346099853515625">
        <ele>1953.5999755859375</ele>
        <time>2026-06-17T11:38:23.000Z</time>
        <extensions>
          <ns3:TrackPointExtension>
            <ns3:atemp>16.0</ns3:atemp>
          </ns3:TrackPointExtension>
        </extensions>
      </trkpt>
      <trkpt lat="42.51374420709908008575439453125" lon="19.898594878613948822021484375">
        <ele>1953.5999755859375</ele>
        <time>2026-06-17T11:38:24.000Z</time>
        <extensions>
          <ns3:TrackPointExtension>
            <ns3:atemp>16.0</ns3:atemp>
          </ns3:TrackPointExtension>
        </extensions>
      </trkpt>
      <trkpt lat="42.513732053339481353759765625" lon="19.8985890112817287445068359375">
        <ele>1953.5999755859375</ele>
        <time>2026-06-17T11:38:25.000Z</time>
        <extensions>
          <ns3:TrackPointExtension>
            <ns3:atemp>16.0</ns3:atemp>
          </ns3:TrackPointExtension>
        </extensions>
      </trkpt>
      <trkpt lat="42.51371956430375576019287109375" lon="19.8985732533037662506103515625">
        <ele>1953.4000244140625</ele>
        <time>2026-06-17T11:38:26.000Z</time>
        <extensions>
          <ns3:TrackPointExtension>
            <ns3:atemp>16.0</ns3:atemp>
          </ns3:TrackPointExtension>
        </extensions>
      </trkpt>
      <trkpt lat="42.51370682381093502044677734375" lon="19.8985683917999267578125">
        <ele>1953.199951171875</ele>
        <time>2026-06-17T11:38:27.000Z</time>
        <extensions>
          <ns3:TrackPointExtension>
            <ns3:atemp>16.0</ns3:atemp>
          </ns3:TrackPointExtension>
        </extensions>
      </trkpt>
      <trkpt lat="42.5136876292526721954345703125" lon="19.89857601933181285858154296875">
        <ele>1952.800048828125</ele>
        <time>2026-06-17T11:38:28.000Z</time>
        <extensions>
          <ns3:TrackPointExtension>
            <ns3:atemp>16.0</ns3:atemp>
          </ns3:TrackPointExtension>
        </extensions>
      </trkpt>
      <trkpt lat="42.51367061398923397064208984375" lon="19.89857845008373260498046875">
        <ele>1952.4000244140625</ele>
        <time>2026-06-17T11:38:29.000Z</time>
        <extensions>
          <ns3:TrackPointExtension>
            <ns3:atemp>16.0</ns3:atemp>
          </ns3:TrackPointExtension>
        </extensions>
      </trkpt>
      <trkpt lat="42.51365594565868377685546875" lon="19.898584149777889251708984375">
        <ele>1952</ele>
        <time>2026-06-17T11:38:30.000Z</time>
        <extensions>
          <ns3:TrackPointExtension>
            <ns3:atemp>16.0</ns3:atemp>
          </ns3:TrackPointExtension>
        </extensions>
      </trkpt>
      <trkpt lat="42.5136390142142772674560546875" lon="19.89858456887304782867431640625">
        <ele>1951.800048828125</ele>
        <time>2026-06-17T11:38:31.000Z</time>
        <extensions>
          <ns3:TrackPointExtension>
            <ns3:atemp>16.0</ns3:atemp>
          </ns3:TrackPointExtension>
        </extensions>
      </trkpt>
      <trkpt lat="42.51362241804599761962890625" lon="19.8985804617404937744140625">
        <ele>1951.199951171875</ele>
        <time>2026-06-17T11:38:32.000Z</time>
        <extensions>
          <ns3:TrackPointExtension>
            <ns3:atemp>16.0</ns3:atemp>
          </ns3:TrackPointExtension>
        </extensions>
      </trkpt>
      <trkpt lat="42.51361445523798465728759765625" lon="19.8985756002366542816162109375">
        <ele>1951</ele>
        <time>2026-06-17T11:38:33.000Z</time>
        <extensions>
          <ns3:TrackPointExtension>
            <ns3:atemp>16.0</ns3:atemp>
          </ns3:TrackPointExtension>
        </extensions>
      </trkpt>
      <trkpt lat="42.513605989515781402587890625" lon="19.8985683917999267578125">
        <ele>1950.5999755859375</ele>
        <time>2026-06-17T11:38:34.000Z</time>
        <extensions>
          <ns3:TrackPointExtension>
            <ns3:atemp>16.0</ns3:atemp>
          </ns3:TrackPointExtension>
        </extensions>
      </trkpt>
      <trkpt lat="42.51360020600259304046630859375" lon="19.89855623804032802581787109375">
        <ele>1950.199951171875</ele>
        <time>2026-06-17T11:38:35.000Z</time>
        <extensions>
          <ns3:TrackPointExtension>
            <ns3:atemp>16.0</ns3:atemp>
          </ns3:TrackPointExtension>
        </extensions>
      </trkpt>
      <trkpt lat="42.5135909020900726318359375" lon="19.8985491134226322174072265625">
        <ele>1950</ele>
        <time>2026-06-17T11:38:36.000Z</time>
        <extensions>
          <ns3:TrackPointExtension>
            <ns3:atemp>16.0</ns3:atemp>
          </ns3:TrackPointExtension>
        </extensions>
      </trkpt>
      <trkpt lat="42.51358352601528167724609375" lon="19.89854467101395130157470703125">
        <ele>1949.800048828125</ele>
        <time>2026-06-17T11:38:37.000Z</time>
        <extensions>
          <ns3:TrackPointExtension>
            <ns3:atemp>16.0</ns3:atemp>
          </ns3:TrackPointExtension>
        </extensions>
      </trkpt>
      <trkpt lat="42.51357824541628360748291015625" lon="19.89854031242430210113525390625">
        <ele>1949.4000244140625</ele>
        <time>2026-06-17T11:38:38.000Z</time>
        <extensions>
          <ns3:TrackPointExtension>
            <ns3:atemp>16.0</ns3:atemp>
          </ns3:TrackPointExtension>
        </extensions>
      </trkpt>
      <trkpt lat="42.5135696120560169219970703125" lon="19.8985360376536846160888671875">
        <ele>1949.199951171875</ele>
        <time>2026-06-17T11:38:39.000Z</time>
        <extensions>
          <ns3:TrackPointExtension>
            <ns3:atemp>16.0</ns3:atemp>
          </ns3:TrackPointExtension>
        </extensions>
      </trkpt>
      <trkpt lat="42.51357145607471466064453125" lon="19.8985321819782257080078125">
        <ele>1949</ele>
        <time>2026-06-17T11:38:40.000Z</time>
        <extensions>
          <ns3:TrackPointExtension>
            <ns3:atemp>16.0</ns3:atemp>
          </ns3:TrackPointExtension>
        </extensions>
      </trkpt>
      <trkpt lat="42.51357137225568294525146484375" lon="19.8985320143401622772216796875">
        <ele>1948.800048828125</ele>
        <time>2026-06-17T11:38:41.000Z</time>
        <extensions>
          <ns3:TrackPointExtension>
            <ns3:atemp>16.0</ns3:atemp>
          </ns3:TrackPointExtension>
        </extensions>
      </trkpt>
      <trkpt lat="42.51357137225568294525146484375" lon="19.8985320143401622772216796875">
        <ele>1948.5999755859375</ele>
        <time>2026-06-17T11:38:42.000Z</time>
        <extensions>
          <ns3:TrackPointExtension>
            <ns3:atemp>16.0</ns3:atemp>
          </ns3:TrackPointExtension>
        </extensions>
      </trkpt>
      <trkpt lat="42.51357137225568294525146484375" lon="19.8985320143401622772216796875">
        <ele>1948.5999755859375</ele>
        <time>2026-06-17T11:38:43.000Z</time>
        <extensions>
          <ns3:TrackPointExtension>
            <ns3:atemp>16.0</ns3:atemp>
          </ns3:TrackPointExtension>
        </extensions>
      </trkpt>
      <trkpt lat="42.51357137225568294525146484375" lon="19.8985320143401622772216796875">
        <ele>1948.4000244140625</ele>
        <time>2026-06-17T11:38:44.000Z</time>
        <extensions>
          <ns3:TrackPointExtension>
            <ns3:atemp>16.0</ns3:atemp>
          </ns3:TrackPointExtension>
        </extensions>
      </trkpt>
      <trkpt lat="42.51357137225568294525146484375" lon="19.8985320143401622772216796875">
        <ele>1948.4000244140625</ele>
        <time>2026-06-17T11:38:45.000Z</time>
        <extensions>
          <ns3:TrackPointExtension>
            <ns3:atemp>16.0</ns3:atemp>
          </ns3:TrackPointExtension>
        </extensions>
      </trkpt>
      <trkpt lat="42.51357036642730236053466796875" lon="19.89853142760694026947021484375">
        <ele>1948.4000244140625</ele>
        <time>2026-06-17T11:38:46.000Z</time>
        <extensions>
          <ns3:TrackPointExtension>
            <ns3:atemp>16.0</ns3:atemp>
          </ns3:TrackPointExtension>
        </extensions>
      </trkpt>
      <trkpt lat="42.51356181688606739044189453125" lon="19.898522458970546722412109375">
        <ele>1948.199951171875</ele>
        <time>2026-06-17T11:38:47.000Z</time>
        <extensions>
          <ns3:TrackPointExtension>
            <ns3:atemp>16.0</ns3:atemp>
          </ns3:TrackPointExtension>
        </extensions>
      </trkpt>
      <trkpt lat="42.51356081105768680572509765625" lon="19.8985179327428340911865234375">
        <ele>1948.199951171875</ele>
        <time>2026-06-17T11:38:48.000Z</time>
        <extensions>
          <ns3:TrackPointExtension>
            <ns3:atemp>16.0</ns3:atemp>
          </ns3:TrackPointExtension>
        </extensions>
      </trkpt>
      <trkpt lat="42.51356081105768680572509765625" lon="19.8985179327428340911865234375">
        <ele>1948.199951171875</ele>
        <time>2026-06-17T11:38:49.000Z</time>
        <extensions>
          <ns3:TrackPointExtension>
            <ns3:atemp>16.0</ns3:atemp>
          </ns3:TrackPointExtension>
        </extensions>
      </trkpt>
      <trkpt lat="42.51356081105768680572509765625" lon="19.8985179327428340911865234375">
        <ele>1948.199951171875</ele>
        <time>2026-06-17T11:38:50.000Z</time>
        <extensions>
          <ns3:TrackPointExtension>
            <ns3:atemp>16.0</ns3:atemp>
          </ns3:TrackPointExtension>
        </extensions>
      </trkpt>
      <trkpt lat="42.51356081105768680572509765625" lon="19.8985179327428340911865234375">
        <ele>1948.199951171875</ele>
        <time>2026-06-17T11:38:51.000Z</time>
        <extensions>
          <ns3:TrackPointExtension>
            <ns3:atemp>16.0</ns3:atemp>
          </ns3:TrackPointExtension>
        </extensions>
      </trkpt>
      <trkpt lat="42.51356081105768680572509765625" lon="19.8985179327428340911865234375">
        <ele>1948</ele>
        <time>2026-06-17T11:38:52.000Z</time>
        <extensions>
          <ns3:TrackPointExtension>
            <ns3:atemp>16.0</ns3:atemp>
          </ns3:TrackPointExtension>
        </extensions>
      </trkpt>
      <trkpt lat="42.51356064341962337493896484375" lon="19.898517765104770660400390625">
        <ele>1948</ele>
        <time>2026-06-17T11:38:53.000Z</time>
        <extensions>
          <ns3:TrackPointExtension>
            <ns3:atemp>16.0</ns3:atemp>
          </ns3:TrackPointExtension>
        </extensions>
      </trkpt>
      <trkpt lat="42.5135448016226291656494140625" lon="19.8985008336603641510009765625">
        <ele>1947.800048828125</ele>
        <time>2026-06-17T11:38:54.000Z</time>
        <extensions>
          <ns3:TrackPointExtension>
            <ns3:atemp>16.0</ns3:atemp>
          </ns3:TrackPointExtension>
        </extensions>
      </trkpt>
      <trkpt lat="42.5135292112827301025390625" lon="19.89849052391946315765380859375">
        <ele>1947.5999755859375</ele>
        <time>2026-06-17T11:38:55.000Z</time>
        <extensions>
          <ns3:TrackPointExtension>
            <ns3:atemp>16.0</ns3:atemp>
          </ns3:TrackPointExtension>
        </extensions>
      </trkpt>
      <trkpt lat="42.5135149620473384857177734375" lon="19.89846847951412200927734375">
        <ele>1947.4000244140625</ele>
        <time>2026-06-17T11:38:56.000Z</time>
        <extensions>
          <ns3:TrackPointExtension>
            <ns3:atemp>16.0</ns3:atemp>
          </ns3:TrackPointExtension>
        </extensions>
      </trkpt>
      <trkpt lat="42.51350305974483489990234375" lon="19.898447692394256591796875">
        <ele>1947</ele>
        <time>2026-06-17T11:38:57.000Z</time>
        <extensions>
          <ns3:TrackPointExtension>
            <ns3:atemp>16.0</ns3:atemp>
          </ns3:TrackPointExtension>
        </extensions>
      </trkpt>
      <trkpt lat="42.51349191181361675262451171875" lon="19.89843620918691158294677734375">
        <ele>1946.5999755859375</ele>
        <time>2026-06-17T11:38:58.000Z</time>
        <extensions>
          <ns3:TrackPointExtension>
            <ns3:atemp>16.0</ns3:atemp>
          </ns3:TrackPointExtension>
        </extensions>
      </trkpt>
      <trkpt lat="42.51348294317722320556640625" lon="19.8984267376363277435302734375">
        <ele>1946.199951171875</ele>
        <time>2026-06-17T11:38:59.000Z</time>
        <extensions>
          <ns3:TrackPointExtension>
            <ns3:atemp>16.0</ns3:atemp>
          </ns3:TrackPointExtension>
        </extensions>
      </trkpt>
      <trkpt lat="42.51347313635051250457763671875" lon="19.898415841162204742431640625">
        <ele>1945.800048828125</ele>
        <time>2026-06-17T11:39:00.000Z</time>
        <extensions>
          <ns3:TrackPointExtension>
            <ns3:atemp>16.0</ns3:atemp>
          </ns3:TrackPointExtension>
        </extensions>
      </trkpt>
      <trkpt lat="42.51346609555184841156005859375" lon="19.8983972333371639251708984375">
        <ele>1945.4000244140625</ele>
        <time>2026-06-17T11:39:01.000Z</time>
        <extensions>
          <ns3:TrackPointExtension>
            <ns3:atemp>16.0</ns3:atemp>
          </ns3:TrackPointExtension>
        </extensions>
      </trkpt>
      <trkpt lat="42.51345721073448657989501953125" lon="19.89837116561830043792724609375">
        <ele>1945</ele>
        <time>2026-06-17T11:39:02.000Z</time>
        <extensions>
          <ns3:TrackPointExtension>
            <ns3:atemp>16.0</ns3:atemp>
          </ns3:TrackPointExtension>
        </extensions>
      </trkpt>
      <trkpt lat="42.5134418718516826629638671875" lon="19.89835641346871852874755859375">
        <ele>1944.5999755859375</ele>
        <time>2026-06-17T11:39:03.000Z</time>
        <extensions>
          <ns3:TrackPointExtension>
            <ns3:atemp>16.0</ns3:atemp>
          </ns3:TrackPointExtension>
        </extensions>
      </trkpt>
      <trkpt lat="42.51342435367405414581298828125" lon="19.89834149368107318878173828125">
        <ele>1944.199951171875</ele>
        <time>2026-06-17T11:39:04.000Z</time>
        <extensions>
          <ns3:TrackPointExtension>
            <ns3:atemp>16.0</ns3:atemp>
          </ns3:TrackPointExtension>
        </extensions>
      </trkpt>
      <trkpt lat="42.5134073384106159210205078125" lon="19.89832892082631587982177734375">
        <ele>1944</ele>
        <time>2026-06-17T11:39:05.000Z</time>
        <extensions>
          <ns3:TrackPointExtension>
            <ns3:atemp>16.0</ns3:atemp>
          </ns3:TrackPointExtension>
        </extensions>
      </trkpt>
      <trkpt lat="42.5133922509849071502685546875" lon="19.89831022918224334716796875">
        <ele>1943.4000244140625</ele>
        <time>2026-06-17T11:39:06.000Z</time>
        <extensions>
          <ns3:TrackPointExtension>
            <ns3:atemp>16.0</ns3:atemp>
          </ns3:TrackPointExtension>
        </extensions>
      </trkpt>
      <trkpt lat="42.5133791752159595489501953125" lon="19.89828567020595073699951171875">
        <ele>1943.199951171875</ele>
        <time>2026-06-17T11:39:07.000Z</time>
        <extensions>
          <ns3:TrackPointExtension>
            <ns3:atemp>16.0</ns3:atemp>
          </ns3:TrackPointExtension>
        </extensions>
      </trkpt>
      <trkpt lat="42.51337171532213687896728515625" lon="19.89827041514217853546142578125">
        <ele>1942.800048828125</ele>
        <time>2026-06-17T11:39:08.000Z</time>
        <extensions>
          <ns3:TrackPointExtension>
            <ns3:atemp>16.0</ns3:atemp>
          </ns3:TrackPointExtension>
        </extensions>
      </trkpt>
      <trkpt lat="42.5133627466857433319091796875" lon="19.89825398661196231842041015625">
        <ele>1942.4000244140625</ele>
        <time>2026-06-17T11:39:09.000Z</time>
        <extensions>
          <ns3:TrackPointExtension>
            <ns3:atemp>16.0</ns3:atemp>
          </ns3:TrackPointExtension>
        </extensions>
      </trkpt>
      <trkpt lat="42.51335092820227146148681640625" lon="19.8982416652143001556396484375">
        <ele>1942</ele>
        <time>2026-06-17T11:39:10.000Z</time>
        <extensions>
          <ns3:TrackPointExtension>
            <ns3:atemp>16.0</ns3:atemp>
          </ns3:TrackPointExtension>
        </extensions>
      </trkpt>
      <trkpt lat="42.5133414566516876220703125" lon="19.89823437295854091644287109375">
        <ele>1941.5999755859375</ele>
        <time>2026-06-17T11:39:11.000Z</time>
        <extensions>
          <ns3:TrackPointExtension>
            <ns3:atemp>16.0</ns3:atemp>
          </ns3:TrackPointExtension>
        </extensions>
      </trkpt>
      <trkpt lat="42.513337098062038421630859375" lon="19.898230768740177154541015625">
        <ele>1941.199951171875</ele>
        <time>2026-06-17T11:39:12.000Z</time>
        <extensions>
          <ns3:TrackPointExtension>
            <ns3:atemp>16.0</ns3:atemp>
          </ns3:TrackPointExtension>
        </extensions>
      </trkpt>
      <trkpt lat="42.51333315856754779815673828125" lon="19.89822682924568653106689453125">
        <ele>1941</ele>
        <time>2026-06-17T11:39:13.000Z</time>
        <extensions>
          <ns3:TrackPointExtension>
            <ns3:atemp>16.0</ns3:atemp>
          </ns3:TrackPointExtension>
        </extensions>
      </trkpt>
      <trkpt lat="42.51332645304501056671142578125" lon="19.89822029136121273040771484375">
        <ele>1940.800048828125</ele>
        <time>2026-06-17T11:39:14.000Z</time>
        <extensions>
          <ns3:TrackPointExtension>
            <ns3:atemp>16.0</ns3:atemp>
          </ns3:TrackPointExtension>
        </extensions>
      </trkpt>
      <trkpt lat="42.5133221782743930816650390625" lon="19.89821207709610462188720703125">
        <ele>1940.4000244140625</ele>
        <time>2026-06-17T11:39:15.000Z</time>
        <extensions>
          <ns3:TrackPointExtension>
            <ns3:atemp>16.0</ns3:atemp>
          </ns3:TrackPointExtension>
        </extensions>
      </trkpt>
      <trkpt lat="42.5133144669234752655029296875" lon="19.89820134826004505157470703125">
        <ele>1940.4000244140625</ele>
        <time>2026-06-17T11:39:16.000Z</time>
        <extensions>
          <ns3:TrackPointExtension>
            <ns3:atemp>16.0</ns3:atemp>
          </ns3:TrackPointExtension>
        </extensions>
      </trkpt>
      <trkpt lat="42.5133044086396694183349609375" lon="19.898189865052700042724609375">
        <ele>1940.199951171875</ele>
        <time>2026-06-17T11:39:17.000Z</time>
        <extensions>
          <ns3:TrackPointExtension>
            <ns3:atemp>16.0</ns3:atemp>
          </ns3:TrackPointExtension>
        </extensions>
      </trkpt>
      <trkpt lat="42.513293512165546417236328125" lon="19.89817234687507152557373046875">
        <ele>1940</ele>
        <time>2026-06-17T11:39:18.000Z</time>
        <extensions>
          <ns3:TrackPointExtension>
            <ns3:atemp>16.0</ns3:atemp>
          </ns3:TrackPointExtension>
        </extensions>
      </trkpt>
      <trkpt lat="42.51328387297689914703369140625" lon="19.89815742708742618560791015625">
        <ele>1939.5999755859375</ele>
        <time>2026-06-17T11:39:19.000Z</time>
        <extensions>
          <ns3:TrackPointExtension>
            <ns3:atemp>16.0</ns3:atemp>
          </ns3:TrackPointExtension>
        </extensions>
      </trkpt>
      <trkpt lat="42.51327498815953731536865234375" lon="19.8981477878987789154052734375">
        <ele>1939.4000244140625</ele>
        <time>2026-06-17T11:39:20.000Z</time>
        <extensions>
          <ns3:TrackPointExtension>
            <ns3:atemp>16.0</ns3:atemp>
          </ns3:TrackPointExtension>
        </extensions>
      </trkpt>
      <trkpt lat="42.5132655166089534759521484375" lon="19.89813663996756076812744140625">
        <ele>1939</ele>
        <time>2026-06-17T11:39:21.000Z</time>
        <extensions>
          <ns3:TrackPointExtension>
            <ns3:atemp>16.0</ns3:atemp>
          </ns3:TrackPointExtension>
        </extensions>
      </trkpt>
      <trkpt lat="42.51325897872447967529296875" lon="19.8981280066072940826416015625">
        <ele>1938.800048828125</ele>
        <time>2026-06-17T11:39:22.000Z</time>
        <extensions>
          <ns3:TrackPointExtension>
            <ns3:atemp>16.0</ns3:atemp>
          </ns3:TrackPointExtension>
        </extensions>
      </trkpt>
      <trkpt lat="42.51325101591646671295166015625" lon="19.89811937324702739715576171875">
        <ele>1938.5999755859375</ele>
        <time>2026-06-17T11:39:23.000Z</time>
        <extensions>
          <ns3:TrackPointExtension>
            <ns3:atemp>16.0</ns3:atemp>
          </ns3:TrackPointExtension>
        </extensions>
      </trkpt>
      <trkpt lat="42.51324414275586605072021484375" lon="19.8981145955622196197509765625">
        <ele>1938.4000244140625</ele>
        <time>2026-06-17T11:39:24.000Z</time>
        <extensions>
          <ns3:TrackPointExtension>
            <ns3:atemp>16.0</ns3:atemp>
          </ns3:TrackPointExtension>
        </extensions>
      </trkpt>
      <trkpt lat="42.51323626376688480377197265625" lon="19.89811015315353870391845703125">
        <ele>1938</ele>
        <time>2026-06-17T11:39:25.000Z</time>
        <extensions>
          <ns3:TrackPointExtension>
            <ns3:atemp>16.0</ns3:atemp>
          </ns3:TrackPointExtension>
        </extensions>
      </trkpt>
      <trkpt lat="42.51322821713984012603759765625" lon="19.89810914732515811920166015625">
        <ele>1937.800048828125</ele>
        <time>2026-06-17T11:39:26.000Z</time>
        <extensions>
          <ns3:TrackPointExtension>
            <ns3:atemp>16.0</ns3:atemp>
          </ns3:TrackPointExtension>
        </extensions>
      </trkpt>
      <trkpt lat="42.51322234980762004852294921875" lon="19.8981075547635555267333984375">
        <ele>1937.5999755859375</ele>
        <time>2026-06-17T11:39:27.000Z</time>
        <extensions>
          <ns3:TrackPointExtension>
            <ns3:atemp>16.0</ns3:atemp>
          </ns3:TrackPointExtension>
        </extensions>
      </trkpt>
      <trkpt lat="42.513215057551860809326171875" lon="19.8981018550693988800048828125">
        <ele>1937.4000244140625</ele>
        <time>2026-06-17T11:39:28.000Z</time>
        <extensions>
          <ns3:TrackPointExtension>
            <ns3:atemp>16.0</ns3:atemp>
          </ns3:TrackPointExtension>
        </extensions>
      </trkpt>
      <trkpt lat="42.51320692710578441619873046875" lon="19.8981025256216526031494140625">
        <ele>1937.199951171875</ele>
        <time>2026-06-17T11:39:29.000Z</time>
        <extensions>
          <ns3:TrackPointExtension>
            <ns3:atemp>16.0</ns3:atemp>
          </ns3:TrackPointExtension>
        </extensions>
      </trkpt>
      <trkpt lat="42.51319418661296367645263671875" lon="19.89810344763100147247314453125">
        <ele>1937</ele>
        <time>2026-06-17T11:39:30.000Z</time>
        <extensions>
          <ns3:TrackPointExtension>
            <ns3:atemp>16.0</ns3:atemp>
          </ns3:TrackPointExtension>
        </extensions>
      </trkpt>
      <trkpt lat="42.5131904147565364837646484375" lon="19.89809992723166942596435546875">
        <ele>1936.800048828125</ele>
        <time>2026-06-17T11:39:31.000Z</time>
        <extensions>
          <ns3:TrackPointExtension>
            <ns3:atemp>16.0</ns3:atemp>
          </ns3:TrackPointExtension>
        </extensions>
      </trkpt>
      <trkpt lat="42.5131806917488574981689453125" lon="19.89810160361230373382568359375">
        <ele>1936.5999755859375</ele>
        <time>2026-06-17T11:39:32.000Z</time>
        <extensions>
          <ns3:TrackPointExtension>
            <ns3:atemp>16.0</ns3:atemp>
          </ns3:TrackPointExtension>
        </extensions>
      </trkpt>
      <trkpt lat="42.5131702981889247894287109375" lon="19.89809942431747913360595703125">
        <ele>1936.4000244140625</ele>
        <time>2026-06-17T11:39:33.000Z</time>
        <extensions>
          <ns3:TrackPointExtension>
            <ns3:atemp>16.0</ns3:atemp>
          </ns3:TrackPointExtension>
        </extensions>
      </trkpt>
      <trkpt lat="42.5131575576961040496826171875" lon="19.898100681602954864501953125">
        <ele>1936.199951171875</ele>
        <time>2026-06-17T11:39:34.000Z</time>
        <extensions>
          <ns3:TrackPointExtension>
            <ns3:atemp>16.0</ns3:atemp>
          </ns3:TrackPointExtension>
        </extensions>
      </trkpt>
      <trkpt lat="42.5131464935839176177978515625" lon="19.89810462109744548797607421875">
        <ele>1936</ele>
        <time>2026-06-17T11:39:35.000Z</time>
        <extensions>
          <ns3:TrackPointExtension>
            <ns3:atemp>16.0</ns3:atemp>
          </ns3:TrackPointExtension>
        </extensions>
      </trkpt>
      <trkpt lat="42.5131376087665557861328125" lon="19.89810361526906490325927734375">
        <ele>1935.800048828125</ele>
        <time>2026-06-17T11:39:36.000Z</time>
        <extensions>
          <ns3:TrackPointExtension>
            <ns3:atemp>16.0</ns3:atemp>
          </ns3:TrackPointExtension>
        </extensions>
      </trkpt>
      <trkpt lat="42.5131344236433506011962890625" lon="19.8981018550693988800048828125">
        <ele>1935.800048828125</ele>
        <time>2026-06-17T11:39:37.000Z</time>
        <extensions>
          <ns3:TrackPointExtension>
            <ns3:atemp>16.0</ns3:atemp>
          </ns3:TrackPointExtension>
        </extensions>
      </trkpt>
      <trkpt lat="42.51313433982431888580322265625" lon="19.8981018550693988800048828125">
        <ele>1935.5999755859375</ele>
        <time>2026-06-17T11:39:38.000Z</time>
        <extensions>
          <ns3:TrackPointExtension>
            <ns3:atemp>16.0</ns3:atemp>
          </ns3:TrackPointExtension>
        </extensions>
      </trkpt>
      <trkpt lat="42.51312025822699069976806640625" lon="19.89810612984001636505126953125">
        <ele>1935.4000244140625</ele>
        <time>2026-06-17T11:39:39.000Z</time>
        <extensions>
          <ns3:TrackPointExtension>
            <ns3:atemp>16.0</ns3:atemp>
          </ns3:TrackPointExtension>
        </extensions>
      </trkpt>
      <trkpt lat="42.51310408115386962890625" lon="19.89811719395220279693603515625">
        <ele>1935.199951171875</ele>
        <time>2026-06-17T11:39:40.000Z</time>
        <extensions>
          <ns3:TrackPointExtension>
            <ns3:atemp>16.0</ns3:atemp>
          </ns3:TrackPointExtension>
        </extensions>
      </trkpt>
      <trkpt lat="42.51309008337557315826416015625" lon="19.8981192894279956817626953125">
        <ele>1935</ele>
        <time>2026-06-17T11:39:41.000Z</time>
        <extensions>
          <ns3:TrackPointExtension>
            <ns3:atemp>16.0</ns3:atemp>
          </ns3:TrackPointExtension>
        </extensions>
      </trkpt>
      <trkpt lat="42.513072229921817779541015625" lon="19.8981166072189807891845703125">
        <ele>1934.800048828125</ele>
        <time>2026-06-17T11:39:42.000Z</time>
        <extensions>
          <ns3:TrackPointExtension>
            <ns3:atemp>16.0</ns3:atemp>
          </ns3:TrackPointExtension>
        </extensions>
      </trkpt>
      <trkpt lat="42.51304976642131805419921875" lon="19.89810462109744548797607421875">
        <ele>1934.4000244140625</ele>
        <time>2026-06-17T11:39:43.000Z</time>
        <extensions>
          <ns3:TrackPointExtension>
            <ns3:atemp>16.0</ns3:atemp>
          </ns3:TrackPointExtension>
        </extensions>
      </trkpt>
      <trkpt lat="42.51302453689277172088623046875" lon="19.89808266051113605499267578125">
        <ele>1934.199951171875</ele>
        <time>2026-06-17T11:39:44.000Z</time>
        <extensions>
          <ns3:TrackPointExtension>
            <ns3:atemp>16.0</ns3:atemp>
          </ns3:TrackPointExtension>
        </extensions>
      </trkpt>
      <trkpt lat="42.51300056464970111846923828125" lon="19.89804645068943500518798828125">
        <ele>1933.800048828125</ele>
        <time>2026-06-17T11:39:45.000Z</time>
        <extensions>
          <ns3:TrackPointExtension>
            <ns3:atemp>16.0</ns3:atemp>
          </ns3:TrackPointExtension>
        </extensions>
      </trkpt>
      <trkpt lat="42.51296904869377613067626953125" lon="19.8980177007615566253662109375">
        <ele>1933.4000244140625</ele>
        <time>2026-06-17T11:39:46.000Z</time>
        <extensions>
          <ns3:TrackPointExtension>
            <ns3:atemp>16.0</ns3:atemp>
          </ns3:TrackPointExtension>
        </extensions>
      </trkpt>
      <trkpt lat="42.5129282288253307342529296875" lon="19.89800604991614818572998046875">
        <ele>1932.800048828125</ele>
        <time>2026-06-17T11:39:47.000Z</time>
        <extensions>
          <ns3:TrackPointExtension>
            <ns3:atemp>16.0</ns3:atemp>
          </ns3:TrackPointExtension>
        </extensions>
      </trkpt>
      <trkpt lat="42.5128853134810924530029296875" lon="19.898008815944194793701171875">
        <ele>1932.4000244140625</ele>
        <time>2026-06-17T11:39:48.000Z</time>
        <extensions>
          <ns3:TrackPointExtension>
            <ns3:atemp>16.0</ns3:atemp>
          </ns3:TrackPointExtension>
        </extensions>
      </trkpt>
      <trkpt lat="42.51284969039261341094970703125" lon="19.89802449010312557220458984375">
        <ele>1932</ele>
        <time>2026-06-17T11:39:49.000Z</time>
        <extensions>
          <ns3:TrackPointExtension>
            <ns3:atemp>16.0</ns3:atemp>
          </ns3:TrackPointExtension>
        </extensions>
      </trkpt>
      <trkpt lat="42.51282203011214733123779296875" lon="19.89803320728242397308349609375">
        <ele>1931.800048828125</ele>
        <time>2026-06-17T11:39:50.000Z</time>
        <extensions>
          <ns3:TrackPointExtension>
            <ns3:atemp>16.0</ns3:atemp>
          </ns3:TrackPointExtension>
        </extensions>
      </trkpt>
      <trkpt lat="42.51280811615288257598876953125" lon="19.89803153090178966522216796875">
        <ele>1931.5999755859375</ele>
        <time>2026-06-17T11:39:51.000Z</time>
        <extensions>
          <ns3:TrackPointExtension>
            <ns3:atemp>16.0</ns3:atemp>
          </ns3:TrackPointExtension>
        </extensions>
      </trkpt>
      <trkpt lat="42.51279990188777446746826171875" lon="19.8980250768363475799560546875">
        <ele>1931.4000244140625</ele>
        <time>2026-06-17T11:39:52.000Z</time>
        <extensions>
          <ns3:TrackPointExtension>
            <ns3:atemp>16.0</ns3:atemp>
          </ns3:TrackPointExtension>
        </extensions>
      </trkpt>
      <trkpt lat="42.5127927772700786590576171875" lon="19.89801594056189060211181640625">
        <ele>1931.4000244140625</ele>
        <time>2026-06-17T11:39:53.000Z</time>
        <extensions>
          <ns3:TrackPointExtension>
            <ns3:atemp>16.0</ns3:atemp>
          </ns3:TrackPointExtension>
        </extensions>
      </trkpt>
      <trkpt lat="42.5127854011952877044677734375" lon="19.89800755865871906280517578125">
        <ele>1931.4000244140625</ele>
        <time>2026-06-17T11:39:54.000Z</time>
        <extensions>
          <ns3:TrackPointExtension>
            <ns3:atemp>16.0</ns3:atemp>
          </ns3:TrackPointExtension>
        </extensions>
      </trkpt>
      <trkpt lat="42.51277509145438671112060546875" lon="19.8980006016790866851806640625">
        <ele>1931.4000244140625</ele>
        <time>2026-06-17T11:39:55.000Z</time>
        <extensions>
          <ns3:TrackPointExtension>
            <ns3:atemp>16.0</ns3:atemp>
          </ns3:TrackPointExtension>
        </extensions>
      </trkpt>
      <trkpt lat="42.51277157105505466461181640625" lon="19.89799506962299346923828125">
        <ele>1931.199951171875</ele>
        <time>2026-06-17T11:39:56.000Z</time>
        <extensions>
          <ns3:TrackPointExtension>
            <ns3:atemp>16.0</ns3:atemp>
          </ns3:TrackPointExtension>
        </extensions>
      </trkpt>
      <trkpt lat="42.51277207396924495697021484375" lon="19.8979928903281688690185546875">
        <ele>1931.199951171875</ele>
        <time>2026-06-17T11:39:57.000Z</time>
        <extensions>
          <ns3:TrackPointExtension>
            <ns3:atemp>16.0</ns3:atemp>
          </ns3:TrackPointExtension>
        </extensions>
      </trkpt>
      <trkpt lat="42.51277207396924495697021484375" lon="19.8979928903281688690185546875">
        <ele>1931</ele>
        <time>2026-06-17T11:39:58.000Z</time>
        <extensions>
          <ns3:TrackPointExtension>
            <ns3:atemp>16.0</ns3:atemp>
          </ns3:TrackPointExtension>
        </extensions>
      </trkpt>
      <trkpt lat="42.51277224160730838775634765625" lon="19.89799297414720058441162109375">
        <ele>1931</ele>
        <time>2026-06-17T11:39:59.000Z</time>
        <extensions>
          <ns3:TrackPointExtension>
            <ns3:atemp>16.0</ns3:atemp>
          </ns3:TrackPointExtension>
        </extensions>
      </trkpt>
      <trkpt lat="42.51276184804737567901611328125" lon="19.8979932256042957305908203125">
        <ele>1931</ele>
        <time>2026-06-17T11:40:00.000Z</time>
        <extensions>
          <ns3:TrackPointExtension>
            <ns3:atemp>16.0</ns3:atemp>
          </ns3:TrackPointExtension>
        </extensions>
      </trkpt>
      <trkpt lat="42.5127433240413665771484375" lon="19.89799330942332744598388671875">
        <ele>1930.800048828125</ele>
        <time>2026-06-17T11:40:01.000Z</time>
        <extensions>
          <ns3:TrackPointExtension>
            <ns3:atemp>16.0</ns3:atemp>
          </ns3:TrackPointExtension>
        </extensions>
      </trkpt>
      <trkpt lat="42.5127176754176616668701171875" lon="19.89799297414720058441162109375">
        <ele>1930.5999755859375</ele>
        <time>2026-06-17T11:40:02.000Z</time>
        <extensions>
          <ns3:TrackPointExtension>
            <ns3:atemp>16.0</ns3:atemp>
          </ns3:TrackPointExtension>
        </extensions>
      </trkpt>
      <trkpt lat="42.5126911886036396026611328125" lon="19.8979845084249973297119140625">
        <ele>1930.4000244140625</ele>
        <time>2026-06-17T11:40:03.000Z</time>
        <extensions>
          <ns3:TrackPointExtension>
            <ns3:atemp>16.0</ns3:atemp>
          </ns3:TrackPointExtension>
        </extensions>
      </trkpt>
      <trkpt lat="42.5126603431999683380126953125" lon="19.89797436632215976715087890625">
        <ele>1930</ele>
        <time>2026-06-17T11:40:04.000Z</time>
        <extensions>
          <ns3:TrackPointExtension>
            <ns3:atemp>16.0</ns3:atemp>
          </ns3:TrackPointExtension>
        </extensions>
      </trkpt>
      <trkpt lat="42.5126274861395359039306640625" lon="19.89797294139862060546875">
        <ele>1929.5999755859375</ele>
        <time>2026-06-17T11:40:05.000Z</time>
        <extensions>
          <ns3:TrackPointExtension>
            <ns3:atemp>16.0</ns3:atemp>
          </ns3:TrackPointExtension>
        </extensions>
      </trkpt>
      <trkpt lat="42.5126030109822750091552734375" lon="19.8979566805064678192138671875">
        <ele>1929.199951171875</ele>
        <time>2026-06-17T11:40:06.000Z</time>
        <extensions>
          <ns3:TrackPointExtension>
            <ns3:atemp>16.0</ns3:atemp>
          </ns3:TrackPointExtension>
        </extensions>
      </trkpt>
      <trkpt lat="42.5125731714069843292236328125" lon="19.89794536493718624114990234375">
        <ele>1928.5999755859375</ele>
        <time>2026-06-17T11:40:07.000Z</time>
        <extensions>
          <ns3:TrackPointExtension>
            <ns3:atemp>16.0</ns3:atemp>
          </ns3:TrackPointExtension>
        </extensions>
      </trkpt>
      <trkpt lat="42.51254609785974025726318359375" lon="19.89793798886239528656005859375">
        <ele>1928.199951171875</ele>
        <time>2026-06-17T11:40:08.000Z</time>
        <extensions>
          <ns3:TrackPointExtension>
            <ns3:atemp>16.0</ns3:atemp>
          </ns3:TrackPointExtension>
        </extensions>
      </trkpt>
      <trkpt lat="42.512516677379608154296875" lon="19.89793295972049236297607421875">
        <ele>1927.800048828125</ele>
        <time>2026-06-17T11:40:09.000Z</time>
        <extensions>
          <ns3:TrackPointExtension>
            <ns3:atemp>16.0</ns3:atemp>
          </ns3:TrackPointExtension>
        </extensions>
      </trkpt>
      <trkpt lat="42.51249723136425018310546875" lon="19.89793363027274608612060546875">
        <ele>1927.199951171875</ele>
        <time>2026-06-17T11:40:10.000Z</time>
        <extensions>
          <ns3:TrackPointExtension>
            <ns3:atemp>16.0</ns3:atemp>
          </ns3:TrackPointExtension>
        </extensions>
      </trkpt>
      <trkpt lat="42.51249630935490131378173828125" lon="19.89794134162366390228271484375">
        <ele>1927</ele>
        <time>2026-06-17T11:40:11.000Z</time>
        <extensions>
          <ns3:TrackPointExtension>
            <ns3:atemp>16.0</ns3:atemp>
          </ns3:TrackPointExtension>
        </extensions>
      </trkpt>
      <trkpt lat="42.51249253749847412109375" lon="19.89794687367975711822509765625">
        <ele>1926.5999755859375</ele>
        <time>2026-06-17T11:40:12.000Z</time>
        <extensions>
          <ns3:TrackPointExtension>
            <ns3:atemp>16.0</ns3:atemp>
          </ns3:TrackPointExtension>
        </extensions>
      </trkpt>
      <trkpt lat="42.51249262131750583648681640625" lon="19.8979469574987888336181640625">
        <ele>1926.4000244140625</ele>
        <time>2026-06-17T11:40:13.000Z</time>
        <extensions>
          <ns3:TrackPointExtension>
            <ns3:atemp>16.0</ns3:atemp>
          </ns3:TrackPointExtension>
        </extensions>
      </trkpt>
      <trkpt lat="42.51249262131750583648681640625" lon="19.8979469574987888336181640625">
        <ele>1926.4000244140625</ele>
        <time>2026-06-17T11:40:14.000Z</time>
        <extensions>
          <ns3:TrackPointExtension>
            <ns3:atemp>16.0</ns3:atemp>
          </ns3:TrackPointExtension>
        </extensions>
      </trkpt>
      <trkpt lat="42.51249262131750583648681640625" lon="19.8979469574987888336181640625">
        <ele>1926.199951171875</ele>
        <time>2026-06-17T11:40:15.000Z</time>
        <extensions>
          <ns3:TrackPointExtension>
            <ns3:atemp>16.0</ns3:atemp>
          </ns3:TrackPointExtension>
        </extensions>
      </trkpt>
      <trkpt lat="42.51249262131750583648681640625" lon="19.8979469574987888336181640625">
        <ele>1926.199951171875</ele>
        <time>2026-06-17T11:40:16.000Z</time>
        <extensions>
          <ns3:TrackPointExtension>
            <ns3:atemp>16.0</ns3:atemp>
          </ns3:TrackPointExtension>
        </extensions>
      </trkpt>
      <trkpt lat="42.51249262131750583648681640625" lon="19.8979469574987888336181640625">
        <ele>1926</ele>
        <time>2026-06-17T11:40:17.000Z</time>
        <extensions>
          <ns3:TrackPointExtension>
            <ns3:atemp>16.0</ns3:atemp>
          </ns3:TrackPointExtension>
        </extensions>
      </trkpt>
      <trkpt lat="42.51249262131750583648681640625" lon="19.8979469574987888336181640625">
        <ele>1926</ele>
        <time>2026-06-17T11:40:18.000Z</time>
        <extensions>
          <ns3:TrackPointExtension>
            <ns3:atemp>16.0</ns3:atemp>
          </ns3:TrackPointExtension>
        </extensions>
      </trkpt>
      <trkpt lat="42.51249262131750583648681640625" lon="19.8979469574987888336181640625">
        <ele>1926</ele>
        <time>2026-06-17T11:40:19.000Z</time>
        <extensions>
          <ns3:TrackPointExtension>
            <ns3:atemp>16.0</ns3:atemp>
          </ns3:TrackPointExtension>
        </extensions>
      </trkpt>
      <trkpt lat="42.51249262131750583648681640625" lon="19.8979469574987888336181640625">
        <ele>1926</ele>
        <time>2026-06-17T11:40:20.000Z</time>
        <extensions>
          <ns3:TrackPointExtension>
            <ns3:atemp>16.0</ns3:atemp>
          </ns3:TrackPointExtension>
        </extensions>
      </trkpt>
      <trkpt lat="42.51249262131750583648681640625" lon="19.8979469574987888336181640625">
        <ele>1926</ele>
        <time>2026-06-17T11:40:21.000Z</time>
        <extensions>
          <ns3:TrackPointExtension>
            <ns3:atemp>16.0</ns3:atemp>
          </ns3:TrackPointExtension>
        </extensions>
      </trkpt>
      <trkpt lat="42.51249262131750583648681640625" lon="19.8979469574987888336181640625">
        <ele>1926</ele>
        <time>2026-06-17T11:40:22.000Z</time>
        <extensions>
          <ns3:TrackPointExtension>
            <ns3:atemp>16.0</ns3:atemp>
          </ns3:TrackPointExtension>
        </extensions>
      </trkpt>
      <trkpt lat="42.51249262131750583648681640625" lon="19.8979469574987888336181640625">
        <ele>1926</ele>
        <time>2026-06-17T11:40:23.000Z</time>
        <extensions>
          <ns3:TrackPointExtension>
            <ns3:atemp>16.0</ns3:atemp>
          </ns3:TrackPointExtension>
        </extensions>
      </trkpt>
      <trkpt lat="42.51249262131750583648681640625" lon="19.8979469574987888336181640625">
        <ele>1926</ele>
        <time>2026-06-17T11:40:24.000Z</time>
        <extensions>
          <ns3:TrackPointExtension>
            <ns3:atemp>16.0</ns3:atemp>
          </ns3:TrackPointExtension>
        </extensions>
      </trkpt>
      <trkpt lat="42.51249228604137897491455078125" lon="19.8979476280510425567626953125">
        <ele>1926</ele>
        <time>2026-06-17T11:40:25.000Z</time>
        <extensions>
          <ns3:TrackPointExtension>
            <ns3:atemp>16.0</ns3:atemp>
          </ns3:TrackPointExtension>
        </extensions>
      </trkpt>
      <trkpt lat="42.5124856643378734588623046875" lon="19.89795106463134288787841796875">
        <ele>1926</ele>
        <time>2026-06-17T11:40:26.000Z</time>
        <extensions>
          <ns3:TrackPointExtension>
            <ns3:atemp>16.0</ns3:atemp>
          </ns3:TrackPointExtension>
        </extensions>
      </trkpt>
      <trkpt lat="42.5124786235392093658447265625" lon="19.89795156754553318023681640625">
        <ele>1926</ele>
        <time>2026-06-17T11:40:27.000Z</time>
        <extensions>
          <ns3:TrackPointExtension>
            <ns3:atemp>16.0</ns3:atemp>
          </ns3:TrackPointExtension>
        </extensions>
      </trkpt>
      <trkpt lat="42.51247032545506954193115234375" lon="19.89795089699327945709228515625">
        <ele>1926</ele>
        <time>2026-06-17T11:40:28.000Z</time>
        <extensions>
          <ns3:TrackPointExtension>
            <ns3:atemp>16.0</ns3:atemp>
          </ns3:TrackPointExtension>
        </extensions>
      </trkpt>
      <trkpt lat="42.51246764324605464935302734375" lon="19.897947795689105987548828125">
        <ele>1926</ele>
        <time>2026-06-17T11:40:29.000Z</time>
        <extensions>
          <ns3:TrackPointExtension>
            <ns3:atemp>16.0</ns3:atemp>
          </ns3:TrackPointExtension>
        </extensions>
      </trkpt>
      <trkpt lat="42.51246278174221515655517578125" lon="19.89794368855655193328857421875">
        <ele>1926</ele>
        <time>2026-06-17T11:40:30.000Z</time>
        <extensions>
          <ns3:TrackPointExtension>
            <ns3:atemp>16.0</ns3:atemp>
          </ns3:TrackPointExtension>
        </extensions>
      </trkpt>
      <trkpt lat="42.5124571658670902252197265625" lon="19.89794335328042507171630859375">
        <ele>1925.800048828125</ele>
        <time>2026-06-17T11:40:31.000Z</time>
        <extensions>
          <ns3:TrackPointExtension>
            <ns3:atemp>16.0</ns3:atemp>
          </ns3:TrackPointExtension>
        </extensions>
      </trkpt>
      <trkpt lat="42.5124504603445529937744140625" lon="19.897947125136852264404296875">
        <ele>1925.800048828125</ele>
        <time>2026-06-17T11:40:32.000Z</time>
        <extensions>
          <ns3:TrackPointExtension>
            <ns3:atemp>16.0</ns3:atemp>
          </ns3:TrackPointExtension>
        </extensions>
      </trkpt>
      <trkpt lat="42.51243964768946170806884765625" lon="19.897946454584598541259765625">
        <ele>1925.5999755859375</ele>
        <time>2026-06-17T11:40:33.000Z</time>
        <extensions>
          <ns3:TrackPointExtension>
            <ns3:atemp>16.0</ns3:atemp>
          </ns3:TrackPointExtension>
        </extensions>
      </trkpt>
      <trkpt lat="42.512430846691131591796875" lon="19.897943437099456787109375">
        <ele>1925.4000244140625</ele>
        <time>2026-06-17T11:40:34.000Z</time>
        <extensions>
          <ns3:TrackPointExtension>
            <ns3:atemp>16.0</ns3:atemp>
          </ns3:TrackPointExtension>
        </extensions>
      </trkpt>
      <trkpt lat="42.5124216265976428985595703125" lon="19.89793882705271244049072265625">
        <ele>1925.4000244140625</ele>
        <time>2026-06-17T11:40:35.000Z</time>
        <extensions>
          <ns3:TrackPointExtension>
            <ns3:atemp>16.0</ns3:atemp>
          </ns3:TrackPointExtension>
        </extensions>
      </trkpt>
      <trkpt lat="42.51240880228579044342041015625" lon="19.897939749062061309814453125">
        <ele>1925.199951171875</ele>
        <time>2026-06-17T11:40:36.000Z</time>
        <extensions>
          <ns3:TrackPointExtension>
            <ns3:atemp>16.0</ns3:atemp>
          </ns3:TrackPointExtension>
        </extensions>
      </trkpt>
      <trkpt lat="42.512397654354572296142578125" lon="19.89794603548943996429443359375">
        <ele>1925</ele>
        <time>2026-06-17T11:40:37.000Z</time>
        <extensions>
          <ns3:TrackPointExtension>
            <ns3:atemp>16.0</ns3:atemp>
          </ns3:TrackPointExtension>
        </extensions>
      </trkpt>
      <trkpt lat="42.51239337958395481109619140625" lon="19.89794938825070858001708984375">
        <ele>1924.800048828125</ele>
        <time>2026-06-17T11:40:38.000Z</time>
        <extensions>
          <ns3:TrackPointExtension>
            <ns3:atemp>16.0</ns3:atemp>
          </ns3:TrackPointExtension>
        </extensions>
      </trkpt>
      <trkpt lat="42.51239237375557422637939453125" lon="19.89795039407908916473388671875">
        <ele>1924.5999755859375</ele>
        <time>2026-06-17T11:40:39.000Z</time>
        <extensions>
          <ns3:TrackPointExtension>
            <ns3:atemp>16.0</ns3:atemp>
          </ns3:TrackPointExtension>
        </extensions>
      </trkpt>
      <trkpt lat="42.512392289936542510986328125" lon="19.897950477898120880126953125">
        <ele>1924.5999755859375</ele>
        <time>2026-06-17T11:40:40.000Z</time>
        <extensions>
          <ns3:TrackPointExtension>
            <ns3:atemp>16.0</ns3:atemp>
          </ns3:TrackPointExtension>
        </extensions>
      </trkpt>
      <trkpt lat="42.51239220611751079559326171875" lon="19.89795056171715259552001953125">
        <ele>1924.4000244140625</ele>
        <time>2026-06-17T11:40:41.000Z</time>
        <extensions>
          <ns3:TrackPointExtension>
            <ns3:atemp>16.0</ns3:atemp>
          </ns3:TrackPointExtension>
        </extensions>
      </trkpt>
      <trkpt lat="42.5123773701488971710205078125" lon="19.89795575849711894989013671875">
        <ele>1924.199951171875</ele>
        <time>2026-06-17T11:40:42.000Z</time>
        <extensions>
          <ns3:TrackPointExtension>
            <ns3:atemp>16.0</ns3:atemp>
          </ns3:TrackPointExtension>
        </extensions>
      </trkpt>
      <trkpt lat="42.5123651325702667236328125" lon="19.89796363748610019683837890625">
        <ele>1924</ele>
        <time>2026-06-17T11:40:43.000Z</time>
        <extensions>
          <ns3:TrackPointExtension>
            <ns3:atemp>16.0</ns3:atemp>
          </ns3:TrackPointExtension>
        </extensions>
      </trkpt>
      <trkpt lat="42.5123522244393825531005859375" lon="19.897970259189605712890625">
        <ele>1923.800048828125</ele>
        <time>2026-06-17T11:40:44.000Z</time>
        <extensions>
          <ns3:TrackPointExtension>
            <ns3:atemp>16.0</ns3:atemp>
          </ns3:TrackPointExtension>
        </extensions>
      </trkpt>
      <trkpt lat="42.51233763992786407470703125" lon="19.8979791440069675445556640625">
        <ele>1923.5999755859375</ele>
        <time>2026-06-17T11:40:45.000Z</time>
        <extensions>
          <ns3:TrackPointExtension>
            <ns3:atemp>16.0</ns3:atemp>
          </ns3:TrackPointExtension>
        </extensions>
      </trkpt>
      <trkpt lat="42.51232984475791454315185546875" lon="19.89798995666205883026123046875">
        <ele>1923.4000244140625</ele>
        <time>2026-06-17T11:40:46.000Z</time>
        <extensions>
          <ns3:TrackPointExtension>
            <ns3:atemp>16.0</ns3:atemp>
          </ns3:TrackPointExtension>
        </extensions>
      </trkpt>
      <trkpt lat="42.5123230554163455963134765625" lon="19.8979984223842620849609375">
        <ele>1923.199951171875</ele>
        <time>2026-06-17T11:40:47.000Z</time>
        <extensions>
          <ns3:TrackPointExtension>
            <ns3:atemp>16.0</ns3:atemp>
          </ns3:TrackPointExtension>
        </extensions>
      </trkpt>
      <trkpt lat="42.512315176427364349365234375" lon="19.8980039544403553009033203125">
        <ele>1923.199951171875</ele>
        <time>2026-06-17T11:40:48.000Z</time>
        <extensions>
          <ns3:TrackPointExtension>
            <ns3:atemp>16.0</ns3:atemp>
          </ns3:TrackPointExtension>
        </extensions>
      </trkpt>
      <trkpt lat="42.51230721361935138702392578125" lon="19.898008145391941070556640625">
        <ele>1923</ele>
        <time>2026-06-17T11:40:49.000Z</time>
        <extensions>
          <ns3:TrackPointExtension>
            <ns3:atemp>16.0</ns3:atemp>
          </ns3:TrackPointExtension>
        </extensions>
      </trkpt>
      <trkpt lat="42.51229740679264068603515625" lon="19.89801074378192424774169921875">
        <ele>1922.800048828125</ele>
        <time>2026-06-17T11:40:50.000Z</time>
        <extensions>
          <ns3:TrackPointExtension>
            <ns3:atemp>16.0</ns3:atemp>
          </ns3:TrackPointExtension>
        </extensions>
      </trkpt>
      <trkpt lat="42.512289695441722869873046875" lon="19.89801560528576374053955078125">
        <ele>1922.5999755859375</ele>
        <time>2026-06-17T11:40:51.000Z</time>
        <extensions>
          <ns3:TrackPointExtension>
            <ns3:atemp>16.0</ns3:atemp>
          </ns3:TrackPointExtension>
        </extensions>
      </trkpt>
      <trkpt lat="42.51227938570082187652587890625" lon="19.89801795221865177154541015625">
        <ele>1922.4000244140625</ele>
        <time>2026-06-17T11:40:52.000Z</time>
        <extensions>
          <ns3:TrackPointExtension>
            <ns3:atemp>16.0</ns3:atemp>
          </ns3:TrackPointExtension>
        </extensions>
      </trkpt>
      <trkpt lat="42.51227133907377719879150390625" lon="19.8980220593512058258056640625">
        <ele>1922.199951171875</ele>
        <time>2026-06-17T11:40:53.000Z</time>
        <extensions>
          <ns3:TrackPointExtension>
            <ns3:atemp>16.0</ns3:atemp>
          </ns3:TrackPointExtension>
        </extensions>
      </trkpt>
      <trkpt lat="42.512261867523193359375" lon="19.8980291001498699188232421875">
        <ele>1922</ele>
        <time>2026-06-17T11:40:54.000Z</time>
        <extensions>
          <ns3:TrackPointExtension>
            <ns3:atemp>16.0</ns3:atemp>
          </ns3:TrackPointExtension>
        </extensions>
      </trkpt>
      <trkpt lat="42.51225306652486324310302734375" lon="19.8980332911014556884765625">
        <ele>1921.5999755859375</ele>
        <time>2026-06-17T11:40:55.000Z</time>
        <extensions>
          <ns3:TrackPointExtension>
            <ns3:atemp>16.0</ns3:atemp>
          </ns3:TrackPointExtension>
        </extensions>
      </trkpt>
      <trkpt lat="42.5122462771832942962646484375" lon="19.89803086034953594207763671875">
        <ele>1921.4000244140625</ele>
        <time>2026-06-17T11:40:56.000Z</time>
        <extensions>
          <ns3:TrackPointExtension>
            <ns3:atemp>16.0</ns3:atemp>
          </ns3:TrackPointExtension>
        </extensions>
      </trkpt>
      <trkpt lat="42.51223864965140819549560546875" lon="19.8980384878814220428466796875">
        <ele>1921.199951171875</ele>
        <time>2026-06-17T11:40:57.000Z</time>
        <extensions>
          <ns3:TrackPointExtension>
            <ns3:atemp>16.0</ns3:atemp>
          </ns3:TrackPointExtension>
        </extensions>
      </trkpt>
      <trkpt lat="42.51222758553922176361083984375" lon="19.898045025765895843505859375">
        <ele>1921</ele>
        <time>2026-06-17T11:40:58.000Z</time>
        <extensions>
          <ns3:TrackPointExtension>
            <ns3:atemp>16.0</ns3:atemp>
          </ns3:TrackPointExtension>
        </extensions>
      </trkpt>
      <trkpt lat="42.5122167728841304779052734375" lon="19.8980520665645599365234375">
        <ele>1920.800048828125</ele>
        <time>2026-06-17T11:40:59.000Z</time>
        <extensions>
          <ns3:TrackPointExtension>
            <ns3:atemp>16.0</ns3:atemp>
          </ns3:TrackPointExtension>
        </extensions>
      </trkpt>
      <trkpt lat="42.51220780424773693084716796875" lon="19.8980555869638919830322265625">
        <ele>1920.4000244140625</ele>
        <time>2026-06-17T11:41:00.000Z</time>
        <extensions>
          <ns3:TrackPointExtension>
            <ns3:atemp>16.0</ns3:atemp>
          </ns3:TrackPointExtension>
        </extensions>
      </trkpt>
      <trkpt lat="42.51220210455358028411865234375" lon="19.89805969409644603729248046875">
        <ele>1920.199951171875</ele>
        <time>2026-06-17T11:41:01.000Z</time>
        <extensions>
          <ns3:TrackPointExtension>
            <ns3:atemp>16.0</ns3:atemp>
          </ns3:TrackPointExtension>
        </extensions>
      </trkpt>
      <trkpt lat="42.51219355501234531402587890625" lon="19.8980632983148097991943359375">
        <ele>1920</ele>
        <time>2026-06-17T11:41:02.000Z</time>
        <extensions>
          <ns3:TrackPointExtension>
            <ns3:atemp>16.0</ns3:atemp>
          </ns3:TrackPointExtension>
        </extensions>
      </trkpt>
      <trkpt lat="42.51218500547111034393310546875" lon="19.898065142333507537841796875">
        <ele>1919.5999755859375</ele>
        <time>2026-06-17T11:41:03.000Z</time>
        <extensions>
          <ns3:TrackPointExtension>
            <ns3:atemp>16.0</ns3:atemp>
          </ns3:TrackPointExtension>
        </extensions>
      </trkpt>
      <trkpt lat="42.51217980869114398956298828125" lon="19.898067824542522430419921875">
        <ele>1919.4000244140625</ele>
        <time>2026-06-17T11:41:04.000Z</time>
        <extensions>
          <ns3:TrackPointExtension>
            <ns3:atemp>16.0</ns3:atemp>
          </ns3:TrackPointExtension>
        </extensions>
      </trkpt>
      <trkpt lat="42.5121792219579219818115234375" lon="19.89806338213384151458740234375">
        <ele>1919.199951171875</ele>
        <time>2026-06-17T11:41:05.000Z</time>
        <extensions>
          <ns3:TrackPointExtension>
            <ns3:atemp>16.0</ns3:atemp>
          </ns3:TrackPointExtension>
        </extensions>
      </trkpt>
      <trkpt lat="42.5121785514056682586669921875" lon="19.898063130676746368408203125">
        <ele>1919</ele>
        <time>2026-06-17T11:41:06.000Z</time>
        <extensions>
          <ns3:TrackPointExtension>
            <ns3:atemp>16.0</ns3:atemp>
          </ns3:TrackPointExtension>
        </extensions>
      </trkpt>
      <trkpt lat="42.5121785514056682586669921875" lon="19.898063130676746368408203125">
        <ele>1919</ele>
        <time>2026-06-17T11:41:07.000Z</time>
        <extensions>
          <ns3:TrackPointExtension>
            <ns3:atemp>16.0</ns3:atemp>
          </ns3:TrackPointExtension>
        </extensions>
      </trkpt>
      <trkpt lat="42.5121785514056682586669921875" lon="19.898063130676746368408203125">
        <ele>1918.800048828125</ele>
        <time>2026-06-17T11:41:08.000Z</time>
        <extensions>
          <ns3:TrackPointExtension>
            <ns3:atemp>16.0</ns3:atemp>
          </ns3:TrackPointExtension>
        </extensions>
      </trkpt>
      <trkpt lat="42.5121785514056682586669921875" lon="19.898063130676746368408203125">
        <ele>1918.800048828125</ele>
        <time>2026-06-17T11:41:09.000Z</time>
        <extensions>
          <ns3:TrackPointExtension>
            <ns3:atemp>16.0</ns3:atemp>
          </ns3:TrackPointExtension>
        </extensions>
      </trkpt>
      <trkpt lat="42.5121785514056682586669921875" lon="19.898063130676746368408203125">
        <ele>1918.5999755859375</ele>
        <time>2026-06-17T11:41:10.000Z</time>
        <extensions>
          <ns3:TrackPointExtension>
            <ns3:atemp>16.0</ns3:atemp>
          </ns3:TrackPointExtension>
        </extensions>
      </trkpt>
      <trkpt lat="42.5121785514056682586669921875" lon="19.898063130676746368408203125">
        <ele>1918.5999755859375</ele>
        <time>2026-06-17T11:41:11.000Z</time>
        <extensions>
          <ns3:TrackPointExtension>
            <ns3:atemp>16.0</ns3:atemp>
          </ns3:TrackPointExtension>
        </extensions>
      </trkpt>
      <trkpt lat="42.5121785514056682586669921875" lon="19.898063130676746368408203125">
        <ele>1918.5999755859375</ele>
        <time>2026-06-17T11:41:12.000Z</time>
        <extensions>
          <ns3:TrackPointExtension>
            <ns3:atemp>16.0</ns3:atemp>
          </ns3:TrackPointExtension>
        </extensions>
      </trkpt>
      <trkpt lat="42.5121785514056682586669921875" lon="19.898063130676746368408203125">
        <ele>1918.5999755859375</ele>
        <time>2026-06-17T11:41:13.000Z</time>
        <extensions>
          <ns3:TrackPointExtension>
            <ns3:atemp>16.0</ns3:atemp>
          </ns3:TrackPointExtension>
        </extensions>
      </trkpt>
      <trkpt lat="42.5121785514056682586669921875" lon="19.898063130676746368408203125">
        <ele>1918.5999755859375</ele>
        <time>2026-06-17T11:41:14.000Z</time>
        <extensions>
          <ns3:TrackPointExtension>
            <ns3:atemp>16.0</ns3:atemp>
          </ns3:TrackPointExtension>
        </extensions>
      </trkpt>
      <trkpt lat="42.5121785514056682586669921875" lon="19.898063130676746368408203125">
        <ele>1918.5999755859375</ele>
        <time>2026-06-17T11:41:15.000Z</time>
        <extensions>
          <ns3:TrackPointExtension>
            <ns3:atemp>16.0</ns3:atemp>
          </ns3:TrackPointExtension>
        </extensions>
      </trkpt>
      <trkpt lat="42.5121785514056682586669921875" lon="19.898063130676746368408203125">
        <ele>1918.5999755859375</ele>
        <time>2026-06-17T11:41:16.000Z</time>
        <extensions>
          <ns3:TrackPointExtension>
            <ns3:atemp>16.0</ns3:atemp>
          </ns3:TrackPointExtension>
        </extensions>
      </trkpt>
      <trkpt lat="42.5121785514056682586669921875" lon="19.898063130676746368408203125">
        <ele>1918.5999755859375</ele>
        <time>2026-06-17T11:41:17.000Z</time>
        <extensions>
          <ns3:TrackPointExtension>
            <ns3:atemp>16.0</ns3:atemp>
          </ns3:TrackPointExtension>
        </extensions>
      </trkpt>
      <trkpt lat="42.5121773779392242431640625" lon="19.8980632983148097991943359375">
        <ele>1918.5999755859375</ele>
        <time>2026-06-17T11:41:18.000Z</time>
        <extensions>
          <ns3:TrackPointExtension>
            <ns3:atemp>16.0</ns3:atemp>
          </ns3:TrackPointExtension>
        </extensions>
      </trkpt>
      <trkpt lat="42.51216338016092777252197265625" lon="19.898077547550201416015625">
        <ele>1918.4000244140625</ele>
        <time>2026-06-17T11:41:19.000Z</time>
        <extensions>
          <ns3:TrackPointExtension>
            <ns3:atemp>16.0</ns3:atemp>
          </ns3:TrackPointExtension>
        </extensions>
      </trkpt>
      <trkpt lat="42.51215248368680477142333984375" lon="19.8980944789946079254150390625">
        <ele>1918.4000244140625</ele>
        <time>2026-06-17T11:41:20.000Z</time>
        <extensions>
          <ns3:TrackPointExtension>
            <ns3:atemp>16.0</ns3:atemp>
          </ns3:TrackPointExtension>
        </extensions>
      </trkpt>
      <trkpt lat="42.512140832841396331787109375" lon="19.89810462109744548797607421875">
        <ele>1918.4000244140625</ele>
        <time>2026-06-17T11:41:21.000Z</time>
        <extensions>
          <ns3:TrackPointExtension>
            <ns3:atemp>16.0</ns3:atemp>
          </ns3:TrackPointExtension>
        </extensions>
      </trkpt>
      <trkpt lat="42.512128762900829315185546875" lon="19.89810931496322154998779296875">
        <ele>1918.199951171875</ele>
        <time>2026-06-17T11:41:22.000Z</time>
        <extensions>
          <ns3:TrackPointExtension>
            <ns3:atemp>16.0</ns3:atemp>
          </ns3:TrackPointExtension>
        </extensions>
      </trkpt>
      <trkpt lat="42.51211912371218204498291015625" lon="19.8981095664203166961669921875">
        <ele>1918</ele>
        <time>2026-06-17T11:41:23.000Z</time>
        <extensions>
          <ns3:TrackPointExtension>
            <ns3:atemp>16.0</ns3:atemp>
          </ns3:TrackPointExtension>
        </extensions>
      </trkpt>
      <trkpt lat="42.51211778260767459869384765625" lon="19.89810696803033351898193359375">
        <ele>1917.800048828125</ele>
        <time>2026-06-17T11:41:24.000Z</time>
        <extensions>
          <ns3:TrackPointExtension>
            <ns3:atemp>16.0</ns3:atemp>
          </ns3:TrackPointExtension>
        </extensions>
      </trkpt>
      <trkpt lat="42.51212147064507007598876953125" lon="19.8981095664203166961669921875">
        <ele>1917.800048828125</ele>
        <time>2026-06-17T11:41:25.000Z</time>
        <extensions>
          <ns3:TrackPointExtension>
            <ns3:atemp>16.0</ns3:atemp>
          </ns3:TrackPointExtension>
        </extensions>
      </trkpt>
      <trkpt lat="42.51212147064507007598876953125" lon="19.89810965023934841156005859375">
        <ele>1917.5999755859375</ele>
        <time>2026-06-17T11:41:26.000Z</time>
        <extensions>
          <ns3:TrackPointExtension>
            <ns3:atemp>16.0</ns3:atemp>
          </ns3:TrackPointExtension>
        </extensions>
      </trkpt>
      <trkpt lat="42.51211124472320079803466796875" lon="19.89811233244836330413818359375">
        <ele>1917.5999755859375</ele>
        <time>2026-06-17T11:41:27.000Z</time>
        <extensions>
          <ns3:TrackPointExtension>
            <ns3:atemp>16.0</ns3:atemp>
          </ns3:TrackPointExtension>
        </extensions>
      </trkpt>
      <trkpt lat="42.51209313981235027313232421875" lon="19.898122139275074005126953125">
        <ele>1917.4000244140625</ele>
        <time>2026-06-17T11:41:28.000Z</time>
        <extensions>
          <ns3:TrackPointExtension>
            <ns3:atemp>16.0</ns3:atemp>
          </ns3:TrackPointExtension>
        </extensions>
      </trkpt>
      <trkpt lat="42.512071430683135986328125" lon="19.89813580177724361419677734375">
        <ele>1917.199951171875</ele>
        <time>2026-06-17T11:41:29.000Z</time>
        <extensions>
          <ns3:TrackPointExtension>
            <ns3:atemp>16.0</ns3:atemp>
          </ns3:TrackPointExtension>
        </extensions>
      </trkpt>
      <trkpt lat="42.51204905100166797637939453125" lon="19.89814636297523975372314453125">
        <ele>1917</ele>
        <time>2026-06-17T11:41:30.000Z</time>
        <extensions>
          <ns3:TrackPointExtension>
            <ns3:atemp>16.0</ns3:atemp>
          </ns3:TrackPointExtension>
        </extensions>
      </trkpt>
      <trkpt lat="42.512022145092487335205078125" lon="19.89815600216388702392578125">
        <ele>1916.5999755859375</ele>
        <time>2026-06-17T11:41:31.000Z</time>
        <extensions>
          <ns3:TrackPointExtension>
            <ns3:atemp>16.0</ns3:atemp>
          </ns3:TrackPointExtension>
        </extensions>
      </trkpt>
      <trkpt lat="42.51200026832520961761474609375" lon="19.898169748485088348388671875">
        <ele>1916.4000244140625</ele>
        <time>2026-06-17T11:41:32.000Z</time>
        <extensions>
          <ns3:TrackPointExtension>
            <ns3:atemp>16.0</ns3:atemp>
          </ns3:TrackPointExtension>
        </extensions>
      </trkpt>
      <trkpt lat="42.51198484562337398529052734375" lon="19.89817519672214984893798828125">
        <ele>1916.199951171875</ele>
        <time>2026-06-17T11:41:33.000Z</time>
        <extensions>
          <ns3:TrackPointExtension>
            <ns3:atemp>16.0</ns3:atemp>
          </ns3:TrackPointExtension>
        </extensions>
      </trkpt>
      <trkpt lat="42.511967830359935760498046875" lon="19.898179471492767333984375">
        <ele>1916</ele>
        <time>2026-06-17T11:41:34.000Z</time>
        <extensions>
          <ns3:TrackPointExtension>
            <ns3:atemp>16.0</ns3:atemp>
          </ns3:TrackPointExtension>
        </extensions>
      </trkpt>
      <trkpt lat="42.5119545869529247283935546875" lon="19.8981821537017822265625">
        <ele>1915.800048828125</ele>
        <time>2026-06-17T11:41:35.000Z</time>
        <extensions>
          <ns3:TrackPointExtension>
            <ns3:atemp>16.0</ns3:atemp>
          </ns3:TrackPointExtension>
        </extensions>
      </trkpt>
      <trkpt lat="42.51193572767078876495361328125" lon="19.8981923796236515045166015625">
        <ele>1915.800048828125</ele>
        <time>2026-06-17T11:41:36.000Z</time>
        <extensions>
          <ns3:TrackPointExtension>
            <ns3:atemp>16.0</ns3:atemp>
          </ns3:TrackPointExtension>
        </extensions>
      </trkpt>
      <trkpt lat="42.51192013733088970184326171875" lon="19.89819615148007869720458984375">
        <ele>1915.5999755859375</ele>
        <time>2026-06-17T11:41:37.000Z</time>
        <extensions>
          <ns3:TrackPointExtension>
            <ns3:atemp>16.0</ns3:atemp>
          </ns3:TrackPointExtension>
        </extensions>
      </trkpt>
      <trkpt lat="42.511908151209354400634765625" lon="19.8981933854520320892333984375">
        <ele>1915.5999755859375</ele>
        <time>2026-06-17T11:41:38.000Z</time>
        <extensions>
          <ns3:TrackPointExtension>
            <ns3:atemp>16.0</ns3:atemp>
          </ns3:TrackPointExtension>
        </extensions>
      </trkpt>
      <trkpt lat="42.51189147122204303741455078125" lon="19.8981900326907634735107421875">
        <ele>1915.4000244140625</ele>
        <time>2026-06-17T11:41:39.000Z</time>
        <extensions>
          <ns3:TrackPointExtension>
            <ns3:atemp>16.0</ns3:atemp>
          </ns3:TrackPointExtension>
        </extensions>
      </trkpt>
      <trkpt lat="42.51187839545309543609619140625" lon="19.898185171186923980712890625">
        <ele>1915.4000244140625</ele>
        <time>2026-06-17T11:41:40.000Z</time>
        <extensions>
          <ns3:TrackPointExtension>
            <ns3:atemp>16.0</ns3:atemp>
          </ns3:TrackPointExtension>
        </extensions>
      </trkpt>
      <trkpt lat="42.51186783425509929656982421875" lon="19.89818089641630649566650390625">
        <ele>1915.199951171875</ele>
        <time>2026-06-17T11:41:41.000Z</time>
        <extensions>
          <ns3:TrackPointExtension>
            <ns3:atemp>16.0</ns3:atemp>
          </ns3:TrackPointExtension>
        </extensions>
      </trkpt>
      <trkpt lat="42.51185576431453227996826171875" lon="19.89818290807306766510009765625">
        <ele>1915.199951171875</ele>
        <time>2026-06-17T11:41:42.000Z</time>
        <extensions>
          <ns3:TrackPointExtension>
            <ns3:atemp>16.0</ns3:atemp>
          </ns3:TrackPointExtension>
        </extensions>
      </trkpt>
      <trkpt lat="42.5118358992040157318115234375" lon="19.8981779627501964569091796875">
        <ele>1915</ele>
        <time>2026-06-17T11:41:43.000Z</time>
        <extensions>
          <ns3:TrackPointExtension>
            <ns3:atemp>16.0</ns3:atemp>
          </ns3:TrackPointExtension>
        </extensions>
      </trkpt>
      <trkpt lat="42.51181402243673801422119140625" lon="19.8981806449592113494873046875">
        <ele>1914.800048828125</ele>
        <time>2026-06-17T11:41:44.000Z</time>
        <extensions>
          <ns3:TrackPointExtension>
            <ns3:atemp>16.0</ns3:atemp>
          </ns3:TrackPointExtension>
        </extensions>
      </trkpt>
      <trkpt lat="42.5117970071732997894287109375" lon="19.8981853388249874114990234375">
        <ele>1914.4000244140625</ele>
        <time>2026-06-17T11:41:45.000Z</time>
        <extensions>
          <ns3:TrackPointExtension>
            <ns3:atemp>16.0</ns3:atemp>
          </ns3:TrackPointExtension>
        </extensions>
      </trkpt>
      <trkpt lat="42.51178820617496967315673828125" lon="19.89818994887173175811767578125">
        <ele>1914.199951171875</ele>
        <time>2026-06-17T11:41:46.000Z</time>
        <extensions>
          <ns3:TrackPointExtension>
            <ns3:atemp>16.0</ns3:atemp>
          </ns3:TrackPointExtension>
        </extensions>
      </trkpt>
      <trkpt lat="42.51178367994725704193115234375" lon="19.8981846682727336883544921875">
        <ele>1914.199951171875</ele>
        <time>2026-06-17T11:41:47.000Z</time>
        <extensions>
          <ns3:TrackPointExtension>
            <ns3:atemp>16.0</ns3:atemp>
          </ns3:TrackPointExtension>
        </extensions>
      </trkpt>
      <trkpt lat="42.51178367994725704193115234375" lon="19.8981846682727336883544921875">
        <ele>1914</ele>
        <time>2026-06-17T11:41:48.000Z</time>
        <extensions>
          <ns3:TrackPointExtension>
            <ns3:atemp>16.0</ns3:atemp>
          </ns3:TrackPointExtension>
        </extensions>
      </trkpt>
      <trkpt lat="42.51177462749183177947998046875" lon="19.8981808125972747802734375">
        <ele>1914</ele>
        <time>2026-06-17T11:41:49.000Z</time>
        <extensions>
          <ns3:TrackPointExtension>
            <ns3:atemp>16.0</ns3:atemp>
          </ns3:TrackPointExtension>
        </extensions>
      </trkpt>
      <trkpt lat="42.5117675028741359710693359375" lon="19.89817871712148189544677734375">
        <ele>1914</ele>
        <time>2026-06-17T11:41:50.000Z</time>
        <extensions>
          <ns3:TrackPointExtension>
            <ns3:atemp>16.0</ns3:atemp>
          </ns3:TrackPointExtension>
        </extensions>
      </trkpt>
      <trkpt lat="42.5117562711238861083984375" lon="19.89818072877824306488037109375">
        <ele>1913.800048828125</ele>
        <time>2026-06-17T11:41:51.000Z</time>
        <extensions>
          <ns3:TrackPointExtension>
            <ns3:atemp>16.0</ns3:atemp>
          </ns3:TrackPointExtension>
        </extensions>
      </trkpt>
      <trkpt lat="42.511743865907192230224609375" lon="19.8981781303882598876953125">
        <ele>1913.800048828125</ele>
        <time>2026-06-17T11:41:52.000Z</time>
        <extensions>
          <ns3:TrackPointExtension>
            <ns3:atemp>16.0</ns3:atemp>
          </ns3:TrackPointExtension>
        </extensions>
      </trkpt>
      <trkpt lat="42.511733807623386383056640625" lon="19.89817536436021327972412109375">
        <ele>1913.800048828125</ele>
        <time>2026-06-17T11:41:53.000Z</time>
        <extensions>
          <ns3:TrackPointExtension>
            <ns3:atemp>16.0</ns3:atemp>
          </ns3:TrackPointExtension>
        </extensions>
      </trkpt>
      <trkpt lat="42.5117229111492633819580078125" lon="19.8981695808470249176025390625">
        <ele>1913.800048828125</ele>
        <time>2026-06-17T11:41:54.000Z</time>
        <extensions>
          <ns3:TrackPointExtension>
            <ns3:atemp>16.0</ns3:atemp>
          </ns3:TrackPointExtension>
        </extensions>
      </trkpt>
      <trkpt lat="42.511710338294506072998046875" lon="19.89816597662866115570068359375">
        <ele>1913.5999755859375</ele>
        <time>2026-06-17T11:41:55.000Z</time>
        <extensions>
          <ns3:TrackPointExtension>
            <ns3:atemp>16.0</ns3:atemp>
          </ns3:TrackPointExtension>
        </extensions>
      </trkpt>
      <trkpt lat="42.5117061473429203033447265625" lon="19.8981642164289951324462890625">
        <ele>1913.5999755859375</ele>
        <time>2026-06-17T11:41:56.000Z</time>
        <extensions>
          <ns3:TrackPointExtension>
            <ns3:atemp>16.0</ns3:atemp>
          </ns3:TrackPointExtension>
        </extensions>
      </trkpt>
      <trkpt lat="42.5117061473429203033447265625" lon="19.8981642164289951324462890625">
        <ele>1913.5999755859375</ele>
        <time>2026-06-17T11:41:57.000Z</time>
        <extensions>
          <ns3:TrackPointExtension>
            <ns3:atemp>16.0</ns3:atemp>
          </ns3:TrackPointExtension>
        </extensions>
      </trkpt>
      <trkpt lat="42.5117061473429203033447265625" lon="19.8981642164289951324462890625">
        <ele>1913.5999755859375</ele>
        <time>2026-06-17T11:41:58.000Z</time>
        <extensions>
          <ns3:TrackPointExtension>
            <ns3:atemp>16.0</ns3:atemp>
          </ns3:TrackPointExtension>
        </extensions>
      </trkpt>
      <trkpt lat="42.5117061473429203033447265625" lon="19.8981642164289951324462890625">
        <ele>1913.4000244140625</ele>
        <time>2026-06-17T11:41:59.000Z</time>
        <extensions>
          <ns3:TrackPointExtension>
            <ns3:atemp>16.0</ns3:atemp>
          </ns3:TrackPointExtension>
        </extensions>
      </trkpt>
      <trkpt lat="42.51170606352388858795166015625" lon="19.89816430024802684783935546875">
        <ele>1913.4000244140625</ele>
        <time>2026-06-17T11:42:00.000Z</time>
        <extensions>
          <ns3:TrackPointExtension>
            <ns3:atemp>16.0</ns3:atemp>
          </ns3:TrackPointExtension>
        </extensions>
      </trkpt>
      <trkpt lat="42.511695921421051025390625" lon="19.89816178567707538604736328125">
        <ele>1913.4000244140625</ele>
        <time>2026-06-17T11:42:01.000Z</time>
        <extensions>
          <ns3:TrackPointExtension>
            <ns3:atemp>16.0</ns3:atemp>
          </ns3:TrackPointExtension>
        </extensions>
      </trkpt>
      <trkpt lat="42.51168318092823028564453125" lon="19.89816346205770969390869140625">
        <ele>1913.4000244140625</ele>
        <time>2026-06-17T11:42:02.000Z</time>
        <extensions>
          <ns3:TrackPointExtension>
            <ns3:atemp>16.0</ns3:atemp>
          </ns3:TrackPointExtension>
        </extensions>
      </trkpt>
      <trkpt lat="42.511672116816043853759765625" lon="19.89816270768642425537109375">
        <ele>1913.4000244140625</ele>
        <time>2026-06-17T11:42:03.000Z</time>
        <extensions>
          <ns3:TrackPointExtension>
            <ns3:atemp>16.0</ns3:atemp>
          </ns3:TrackPointExtension>
        </extensions>
      </trkpt>
      <trkpt lat="42.51165979541838169097900390625" lon="19.898163042962551116943359375">
        <ele>1913.199951171875</ele>
        <time>2026-06-17T11:42:04.000Z</time>
        <extensions>
          <ns3:TrackPointExtension>
            <ns3:atemp>16.0</ns3:atemp>
          </ns3:TrackPointExtension>
        </extensions>
      </trkpt>
      <trkpt lat="42.5116471387445926666259765625" lon="19.89816480316221714019775390625">
        <ele>1913.199951171875</ele>
        <time>2026-06-17T11:42:05.000Z</time>
        <extensions>
          <ns3:TrackPointExtension>
            <ns3:atemp>16.0</ns3:atemp>
          </ns3:TrackPointExtension>
        </extensions>
      </trkpt>
      <trkpt lat="42.511637918651103973388671875" lon="19.89816698245704174041748046875">
        <ele>1913</ele>
        <time>2026-06-17T11:42:06.000Z</time>
        <extensions>
          <ns3:TrackPointExtension>
            <ns3:atemp>16.0</ns3:atemp>
          </ns3:TrackPointExtension>
        </extensions>
      </trkpt>
      <trkpt lat="42.51163230277597904205322265625" lon="19.89816681481897830963134765625">
        <ele>1913</ele>
        <time>2026-06-17T11:42:07.000Z</time>
        <extensions>
          <ns3:TrackPointExtension>
            <ns3:atemp>16.0</ns3:atemp>
          </ns3:TrackPointExtension>
        </extensions>
      </trkpt>
      <trkpt lat="42.51162442378699779510498046875" lon="19.89816782064735889434814453125">
        <ele>1912.800048828125</ele>
        <time>2026-06-17T11:42:08.000Z</time>
        <extensions>
          <ns3:TrackPointExtension>
            <ns3:atemp>16.0</ns3:atemp>
          </ns3:TrackPointExtension>
        </extensions>
      </trkpt>
      <trkpt lat="42.51162107102572917938232421875" lon="19.89816949702799320220947265625">
        <ele>1912.800048828125</ele>
        <time>2026-06-17T11:42:09.000Z</time>
        <extensions>
          <ns3:TrackPointExtension>
            <ns3:atemp>16.0</ns3:atemp>
          </ns3:TrackPointExtension>
        </extensions>
      </trkpt>
      <trkpt lat="42.51161478459835052490234375" lon="19.8981700837612152099609375">
        <ele>1912.800048828125</ele>
        <time>2026-06-17T11:42:10.000Z</time>
        <extensions>
          <ns3:TrackPointExtension>
            <ns3:atemp>16.0</ns3:atemp>
          </ns3:TrackPointExtension>
        </extensions>
      </trkpt>
      <trkpt lat="42.5116060674190521240234375" lon="19.89817385561764240264892578125">
        <ele>1912.5999755859375</ele>
        <time>2026-06-17T11:42:11.000Z</time>
        <extensions>
          <ns3:TrackPointExtension>
            <ns3:atemp>16.0</ns3:atemp>
          </ns3:TrackPointExtension>
        </extensions>
      </trkpt>
      <trkpt lat="42.51159525476396083831787109375" lon="19.89818751811981201171875">
        <ele>1912.4000244140625</ele>
        <time>2026-06-17T11:42:12.000Z</time>
        <extensions>
          <ns3:TrackPointExtension>
            <ns3:atemp>16.0</ns3:atemp>
          </ns3:TrackPointExtension>
        </extensions>
      </trkpt>
      <trkpt lat="42.51159039326012134552001953125" lon="19.8981917090713977813720703125">
        <ele>1912.199951171875</ele>
        <time>2026-06-17T11:42:13.000Z</time>
        <extensions>
          <ns3:TrackPointExtension>
            <ns3:atemp>16.0</ns3:atemp>
          </ns3:TrackPointExtension>
        </extensions>
      </trkpt>
      <trkpt lat="42.511590309441089630126953125" lon="19.89819162525236606597900390625">
        <ele>1912</ele>
        <time>2026-06-17T11:42:14.000Z</time>
        <extensions>
          <ns3:TrackPointExtension>
            <ns3:atemp>16.0</ns3:atemp>
          </ns3:TrackPointExtension>
        </extensions>
      </trkpt>
      <trkpt lat="42.511590309441089630126953125" lon="19.89819162525236606597900390625">
        <ele>1911.800048828125</ele>
        <time>2026-06-17T11:42:15.000Z</time>
        <extensions>
          <ns3:TrackPointExtension>
            <ns3:atemp>16.0</ns3:atemp>
          </ns3:TrackPointExtension>
        </extensions>
      </trkpt>
      <trkpt lat="42.511590309441089630126953125" lon="19.89819162525236606597900390625">
        <ele>1911.800048828125</ele>
        <time>2026-06-17T11:42:16.000Z</time>
        <extensions>
          <ns3:TrackPointExtension>
            <ns3:atemp>16.0</ns3:atemp>
          </ns3:TrackPointExtension>
        </extensions>
      </trkpt>
      <trkpt lat="42.511590309441089630126953125" lon="19.89819162525236606597900390625">
        <ele>1911.800048828125</ele>
        <time>2026-06-17T11:42:17.000Z</time>
        <extensions>
          <ns3:TrackPointExtension>
            <ns3:atemp>16.0</ns3:atemp>
          </ns3:TrackPointExtension>
        </extensions>
      </trkpt>
      <trkpt lat="42.51158955506980419158935546875" lon="19.8981913737952709197998046875">
        <ele>1911.800048828125</ele>
        <time>2026-06-17T11:42:18.000Z</time>
        <extensions>
          <ns3:TrackPointExtension>
            <ns3:atemp>16.0</ns3:atemp>
          </ns3:TrackPointExtension>
        </extensions>
      </trkpt>
      <trkpt lat="42.51157589256763458251953125" lon="19.89819799549877643585205078125">
        <ele>1911.800048828125</ele>
        <time>2026-06-17T11:42:19.000Z</time>
        <extensions>
          <ns3:TrackPointExtension>
            <ns3:atemp>16.0</ns3:atemp>
          </ns3:TrackPointExtension>
        </extensions>
      </trkpt>
      <trkpt lat="42.5115613080561161041259765625" lon="19.89820755086839199066162109375">
        <ele>1911.800048828125</ele>
        <time>2026-06-17T11:42:20.000Z</time>
        <extensions>
          <ns3:TrackPointExtension>
            <ns3:atemp>16.0</ns3:atemp>
          </ns3:TrackPointExtension>
        </extensions>
      </trkpt>
      <trkpt lat="42.511550076305866241455078125" lon="19.8982091434299945831298828125">
        <ele>1911.5999755859375</ele>
        <time>2026-06-17T11:42:21.000Z</time>
        <extensions>
          <ns3:TrackPointExtension>
            <ns3:atemp>16.0</ns3:atemp>
          </ns3:TrackPointExtension>
        </extensions>
      </trkpt>
      <trkpt lat="42.51153557561337947845458984375" lon="19.898214675486087799072265625">
        <ele>1911.5999755859375</ele>
        <time>2026-06-17T11:42:22.000Z</time>
        <extensions>
          <ns3:TrackPointExtension>
            <ns3:atemp>16.0</ns3:atemp>
          </ns3:TrackPointExtension>
        </extensions>
      </trkpt>
      <trkpt lat="42.51152082346379756927490234375" lon="19.8982208780944347381591796875">
        <ele>1911.4000244140625</ele>
        <time>2026-06-17T11:42:23.000Z</time>
        <extensions>
          <ns3:TrackPointExtension>
            <ns3:atemp>16.0</ns3:atemp>
          </ns3:TrackPointExtension>
        </extensions>
      </trkpt>
      <trkpt lat="42.511511184275150299072265625" lon="19.89823403768241405487060546875">
        <ele>1911.199951171875</ele>
        <time>2026-06-17T11:42:24.000Z</time>
        <extensions>
          <ns3:TrackPointExtension>
            <ns3:atemp>16.0</ns3:atemp>
          </ns3:TrackPointExtension>
        </extensions>
      </trkpt>
      <trkpt lat="42.51149651594460010528564453125" lon="19.89824526943266391754150390625">
        <ele>1911.199951171875</ele>
        <time>2026-06-17T11:42:25.000Z</time>
        <extensions>
          <ns3:TrackPointExtension>
            <ns3:atemp>16.0</ns3:atemp>
          </ns3:TrackPointExtension>
        </extensions>
      </trkpt>
      <trkpt lat="42.51149685122072696685791015625" lon="19.89824577234685420989990234375">
        <ele>1911</ele>
        <time>2026-06-17T11:42:26.000Z</time>
        <extensions>
          <ns3:TrackPointExtension>
            <ns3:atemp>16.0</ns3:atemp>
          </ns3:TrackPointExtension>
        </extensions>
      </trkpt>
      <trkpt lat="42.51149676740169525146484375" lon="19.89824593998491764068603515625">
        <ele>1911</ele>
        <time>2026-06-17T11:42:27.000Z</time>
        <extensions>
          <ns3:TrackPointExtension>
            <ns3:atemp>16.0</ns3:atemp>
          </ns3:TrackPointExtension>
        </extensions>
      </trkpt>
      <trkpt lat="42.51149676740169525146484375" lon="19.898246191442012786865234375">
        <ele>1910.800048828125</ele>
        <time>2026-06-17T11:42:28.000Z</time>
        <extensions>
          <ns3:TrackPointExtension>
            <ns3:atemp>16.0</ns3:atemp>
          </ns3:TrackPointExtension>
        </extensions>
      </trkpt>
      <trkpt lat="42.5114912353456020355224609375" lon="19.89824996329843997955322265625">
        <ele>1910.800048828125</ele>
        <time>2026-06-17T11:42:29.000Z</time>
        <extensions>
          <ns3:TrackPointExtension>
            <ns3:atemp>16.0</ns3:atemp>
          </ns3:TrackPointExtension>
        </extensions>
      </trkpt>
      <trkpt lat="42.51148528419435024261474609375" lon="19.89825398661196231842041015625">
        <ele>1910.800048828125</ele>
        <time>2026-06-17T11:42:30.000Z</time>
        <extensions>
          <ns3:TrackPointExtension>
            <ns3:atemp>16.0</ns3:atemp>
          </ns3:TrackPointExtension>
        </extensions>
      </trkpt>
      <trkpt lat="42.5114795006811618804931640625" lon="19.89825247786939144134521484375">
        <ele>1910.800048828125</ele>
        <time>2026-06-17T11:42:31.000Z</time>
        <extensions>
          <ns3:TrackPointExtension>
            <ns3:atemp>16.0</ns3:atemp>
          </ns3:TrackPointExtension>
        </extensions>
      </trkpt>
      <trkpt lat="42.5114717893302440643310546875" lon="19.89825214259326457977294921875">
        <ele>1910.5999755859375</ele>
        <time>2026-06-17T11:42:32.000Z</time>
        <extensions>
          <ns3:TrackPointExtension>
            <ns3:atemp>16.0</ns3:atemp>
          </ns3:TrackPointExtension>
        </extensions>
      </trkpt>
      <trkpt lat="42.51146533526480197906494140625" lon="19.89825432188808917999267578125">
        <ele>1910.5999755859375</ele>
        <time>2026-06-17T11:42:33.000Z</time>
        <extensions>
          <ns3:TrackPointExtension>
            <ns3:atemp>16.0</ns3:atemp>
          </ns3:TrackPointExtension>
        </extensions>
      </trkpt>
      <trkpt lat="42.511458881199359893798828125" lon="19.89826253615319728851318359375">
        <ele>1910.4000244140625</ele>
        <time>2026-06-17T11:42:34.000Z</time>
        <extensions>
          <ns3:TrackPointExtension>
            <ns3:atemp>16.0</ns3:atemp>
          </ns3:TrackPointExtension>
        </extensions>
      </trkpt>
      <trkpt lat="42.5114513374865055084228515625" lon="19.89827091805636882781982421875">
        <ele>1910.4000244140625</ele>
        <time>2026-06-17T11:42:35.000Z</time>
        <extensions>
          <ns3:TrackPointExtension>
            <ns3:atemp>16.0</ns3:atemp>
          </ns3:TrackPointExtension>
        </extensions>
      </trkpt>
      <trkpt lat="42.51144086010754108428955078125" lon="19.89828214980661869049072265625">
        <ele>1910.199951171875</ele>
        <time>2026-06-17T11:42:36.000Z</time>
        <extensions>
          <ns3:TrackPointExtension>
            <ns3:atemp>16.0</ns3:atemp>
          </ns3:TrackPointExtension>
        </extensions>
      </trkpt>
      <trkpt lat="42.51142929308116436004638671875" lon="19.89829421974718570709228515625">
        <ele>1910.199951171875</ele>
        <time>2026-06-17T11:42:37.000Z</time>
        <extensions>
          <ns3:TrackPointExtension>
            <ns3:atemp>16.0</ns3:atemp>
          </ns3:TrackPointExtension>
        </extensions>
      </trkpt>
      <trkpt lat="42.5114181451499462127685546875" lon="19.8983087204396724700927734375">
        <ele>1910</ele>
        <time>2026-06-17T11:42:38.000Z</time>
        <extensions>
          <ns3:TrackPointExtension>
            <ns3:atemp>16.0</ns3:atemp>
          </ns3:TrackPointExtension>
        </extensions>
      </trkpt>
      <trkpt lat="42.51140825450420379638671875" lon="19.89831819199025630950927734375">
        <ele>1909.800048828125</ele>
        <time>2026-06-17T11:42:39.000Z</time>
        <extensions>
          <ns3:TrackPointExtension>
            <ns3:atemp>16.0</ns3:atemp>
          </ns3:TrackPointExtension>
        </extensions>
      </trkpt>
      <trkpt lat="42.51139828003942966461181640625" lon="19.89832590334117412567138671875">
        <ele>1909.800048828125</ele>
        <time>2026-06-17T11:42:40.000Z</time>
        <extensions>
          <ns3:TrackPointExtension>
            <ns3:atemp>16.0</ns3:atemp>
          </ns3:TrackPointExtension>
        </extensions>
      </trkpt>
      <trkpt lat="42.5113916583359241485595703125" lon="19.89833730272948741912841796875">
        <ele>1909.800048828125</ele>
        <time>2026-06-17T11:42:41.000Z</time>
        <extensions>
          <ns3:TrackPointExtension>
            <ns3:atemp>16.0</ns3:atemp>
          </ns3:TrackPointExtension>
        </extensions>
      </trkpt>
      <trkpt lat="42.51138268969953060150146484375" lon="19.89833914674818515777587890625">
        <ele>1909.5999755859375</ele>
        <time>2026-06-17T11:42:42.000Z</time>
        <extensions>
          <ns3:TrackPointExtension>
            <ns3:atemp>16.0</ns3:atemp>
          </ns3:TrackPointExtension>
        </extensions>
      </trkpt>
      <trkpt lat="42.51137749291956424713134765625" lon="19.8983462713658809661865234375">
        <ele>1909.5999755859375</ele>
        <time>2026-06-17T11:42:43.000Z</time>
        <extensions>
          <ns3:TrackPointExtension>
            <ns3:atemp>16.0</ns3:atemp>
          </ns3:TrackPointExtension>
        </extensions>
      </trkpt>
      <trkpt lat="42.51137615181505680084228515625" lon="19.89834333769977092742919921875">
        <ele>1909.5999755859375</ele>
        <time>2026-06-17T11:42:44.000Z</time>
        <extensions>
          <ns3:TrackPointExtension>
            <ns3:atemp>16.0</ns3:atemp>
          </ns3:TrackPointExtension>
        </extensions>
      </trkpt>
      <trkpt lat="42.51137598417699337005615234375" lon="19.8983432538807392120361328125">
        <ele>1909.5999755859375</ele>
        <time>2026-06-17T11:42:45.000Z</time>
        <extensions>
          <ns3:TrackPointExtension>
            <ns3:atemp>16.0</ns3:atemp>
          </ns3:TrackPointExtension>
        </extensions>
      </trkpt>
      <trkpt lat="42.5113655067980289459228515625" lon="19.89834501408040523529052734375">
        <ele>1909.5999755859375</ele>
        <time>2026-06-17T11:42:46.000Z</time>
        <extensions>
          <ns3:TrackPointExtension>
            <ns3:atemp>16.0</ns3:atemp>
          </ns3:TrackPointExtension>
        </extensions>
      </trkpt>
      <trkpt lat="42.5113648362457752227783203125" lon="19.89834451116621494293212890625">
        <ele>1909.5999755859375</ele>
        <time>2026-06-17T11:42:47.000Z</time>
        <extensions>
          <ns3:TrackPointExtension>
            <ns3:atemp>16.0</ns3:atemp>
          </ns3:TrackPointExtension>
        </extensions>
      </trkpt>
      <trkpt lat="42.5113648362457752227783203125" lon="19.89834451116621494293212890625">
        <ele>1909.5999755859375</ele>
        <time>2026-06-17T11:42:48.000Z</time>
        <extensions>
          <ns3:TrackPointExtension>
            <ns3:atemp>16.0</ns3:atemp>
          </ns3:TrackPointExtension>
        </extensions>
      </trkpt>
      <trkpt lat="42.5113648362457752227783203125" lon="19.89834451116621494293212890625">
        <ele>1909.4000244140625</ele>
        <time>2026-06-17T11:42:49.000Z</time>
        <extensions>
          <ns3:TrackPointExtension>
            <ns3:atemp>16.0</ns3:atemp>
          </ns3:TrackPointExtension>
        </extensions>
      </trkpt>
      <trkpt lat="42.5113648362457752227783203125" lon="19.89834451116621494293212890625">
        <ele>1909.4000244140625</ele>
        <time>2026-06-17T11:42:50.000Z</time>
        <extensions>
          <ns3:TrackPointExtension>
            <ns3:atemp>16.0</ns3:atemp>
          </ns3:TrackPointExtension>
        </extensions>
      </trkpt>
      <trkpt lat="42.5113648362457752227783203125" lon="19.89834451116621494293212890625">
        <ele>1909.4000244140625</ele>
        <time>2026-06-17T11:42:51.000Z</time>
        <extensions>
          <ns3:TrackPointExtension>
            <ns3:atemp>16.0</ns3:atemp>
          </ns3:TrackPointExtension>
        </extensions>
      </trkpt>
      <trkpt lat="42.5113648362457752227783203125" lon="19.89834451116621494293212890625">
        <ele>1909.4000244140625</ele>
        <time>2026-06-17T11:42:52.000Z</time>
        <extensions>
          <ns3:TrackPointExtension>
            <ns3:atemp>16.0</ns3:atemp>
          </ns3:TrackPointExtension>
        </extensions>
      </trkpt>
      <trkpt lat="42.5113648362457752227783203125" lon="19.89834451116621494293212890625">
        <ele>1909.4000244140625</ele>
        <time>2026-06-17T11:42:53.000Z</time>
        <extensions>
          <ns3:TrackPointExtension>
            <ns3:atemp>16.0</ns3:atemp>
          </ns3:TrackPointExtension>
        </extensions>
      </trkpt>
      <trkpt lat="42.5113648362457752227783203125" lon="19.89834451116621494293212890625">
        <ele>1909.4000244140625</ele>
        <time>2026-06-17T11:42:54.000Z</time>
        <extensions>
          <ns3:TrackPointExtension>
            <ns3:atemp>16.0</ns3:atemp>
          </ns3:TrackPointExtension>
        </extensions>
      </trkpt>
      <trkpt lat="42.5113648362457752227783203125" lon="19.89834451116621494293212890625">
        <ele>1909.4000244140625</ele>
        <time>2026-06-17T11:42:55.000Z</time>
        <extensions>
          <ns3:TrackPointExtension>
            <ns3:atemp>16.0</ns3:atemp>
          </ns3:TrackPointExtension>
        </extensions>
      </trkpt>
      <trkpt lat="42.5113648362457752227783203125" lon="19.89834451116621494293212890625">
        <ele>1909.4000244140625</ele>
        <time>2026-06-17T11:42:56.000Z</time>
        <extensions>
          <ns3:TrackPointExtension>
            <ns3:atemp>16.0</ns3:atemp>
          </ns3:TrackPointExtension>
        </extensions>
      </trkpt>
      <trkpt lat="42.5113648362457752227783203125" lon="19.89834451116621494293212890625">
        <ele>1909.4000244140625</ele>
        <time>2026-06-17T11:42:57.000Z</time>
        <extensions>
          <ns3:TrackPointExtension>
            <ns3:atemp>16.0</ns3:atemp>
          </ns3:TrackPointExtension>
        </extensions>
      </trkpt>
      <trkpt lat="42.5113648362457752227783203125" lon="19.89834451116621494293212890625">
        <ele>1909.4000244140625</ele>
        <time>2026-06-17T11:42:58.000Z</time>
        <extensions>
          <ns3:TrackPointExtension>
            <ns3:atemp>16.0</ns3:atemp>
          </ns3:TrackPointExtension>
        </extensions>
      </trkpt>
      <trkpt lat="42.5113648362457752227783203125" lon="19.89834451116621494293212890625">
        <ele>1909.4000244140625</ele>
        <time>2026-06-17T11:42:59.000Z</time>
        <extensions>
          <ns3:TrackPointExtension>
            <ns3:atemp>16.0</ns3:atemp>
          </ns3:TrackPointExtension>
        </extensions>
      </trkpt>
      <trkpt lat="42.5113648362457752227783203125" lon="19.89834451116621494293212890625">
        <ele>1909.199951171875</ele>
        <time>2026-06-17T11:43:00.000Z</time>
        <extensions>
          <ns3:TrackPointExtension>
            <ns3:atemp>16.0</ns3:atemp>
          </ns3:TrackPointExtension>
        </extensions>
      </trkpt>
      <trkpt lat="42.5113648362457752227783203125" lon="19.89834451116621494293212890625">
        <ele>1909.199951171875</ele>
        <time>2026-06-17T11:43:01.000Z</time>
        <extensions>
          <ns3:TrackPointExtension>
            <ns3:atemp>16.0</ns3:atemp>
          </ns3:TrackPointExtension>
        </extensions>
      </trkpt>
      <trkpt lat="42.5113648362457752227783203125" lon="19.89834451116621494293212890625">
        <ele>1909.199951171875</ele>
        <time>2026-06-17T11:43:02.000Z</time>
        <extensions>
          <ns3:TrackPointExtension>
            <ns3:atemp>16.0</ns3:atemp>
          </ns3:TrackPointExtension>
        </extensions>
      </trkpt>
      <trkpt lat="42.5113648362457752227783203125" lon="19.89834451116621494293212890625">
        <ele>1909.199951171875</ele>
        <time>2026-06-17T11:43:03.000Z</time>
        <extensions>
          <ns3:TrackPointExtension>
            <ns3:atemp>16.0</ns3:atemp>
          </ns3:TrackPointExtension>
        </extensions>
      </trkpt>
      <trkpt lat="42.5113648362457752227783203125" lon="19.89834451116621494293212890625">
        <ele>1909.199951171875</ele>
        <time>2026-06-17T11:43:04.000Z</time>
        <extensions>
          <ns3:TrackPointExtension>
            <ns3:atemp>16.0</ns3:atemp>
          </ns3:TrackPointExtension>
        </extensions>
      </trkpt>
      <trkpt lat="42.5113648362457752227783203125" lon="19.89834451116621494293212890625">
        <ele>1909.199951171875</ele>
        <time>2026-06-17T11:43:05.000Z</time>
        <extensions>
          <ns3:TrackPointExtension>
            <ns3:atemp>16.0</ns3:atemp>
          </ns3:TrackPointExtension>
        </extensions>
      </trkpt>
      <trkpt lat="42.5113648362457752227783203125" lon="19.89834451116621494293212890625">
        <ele>1909.199951171875</ele>
        <time>2026-06-17T11:43:06.000Z</time>
        <extensions>
          <ns3:TrackPointExtension>
            <ns3:atemp>16.0</ns3:atemp>
          </ns3:TrackPointExtension>
        </extensions>
      </trkpt>
      <trkpt lat="42.5113648362457752227783203125" lon="19.89834451116621494293212890625">
        <ele>1909.199951171875</ele>
        <time>2026-06-17T11:43:07.000Z</time>
        <extensions>
          <ns3:TrackPointExtension>
            <ns3:atemp>16.0</ns3:atemp>
          </ns3:TrackPointExtension>
        </extensions>
      </trkpt>
      <trkpt lat="42.5113648362457752227783203125" lon="19.89834451116621494293212890625">
        <ele>1909.199951171875</ele>
        <time>2026-06-17T11:43:08.000Z</time>
        <extensions>
          <ns3:TrackPointExtension>
            <ns3:atemp>16.0</ns3:atemp>
          </ns3:TrackPointExtension>
        </extensions>
      </trkpt>
      <trkpt lat="42.5113648362457752227783203125" lon="19.89834451116621494293212890625">
        <ele>1909</ele>
        <time>2026-06-17T11:43:09.000Z</time>
        <extensions>
          <ns3:TrackPointExtension>
            <ns3:atemp>16.0</ns3:atemp>
          </ns3:TrackPointExtension>
        </extensions>
      </trkpt>
      <trkpt lat="42.5113648362457752227783203125" lon="19.89834451116621494293212890625">
        <ele>1909</ele>
        <time>2026-06-17T11:43:10.000Z</time>
        <extensions>
          <ns3:TrackPointExtension>
            <ns3:atemp>16.0</ns3:atemp>
          </ns3:TrackPointExtension>
        </extensions>
      </trkpt>
      <trkpt lat="42.5113648362457752227783203125" lon="19.89834451116621494293212890625">
        <ele>1909</ele>
        <time>2026-06-17T11:43:11.000Z</time>
        <extensions>
          <ns3:TrackPointExtension>
            <ns3:atemp>16.0</ns3:atemp>
          </ns3:TrackPointExtension>
        </extensions>
      </trkpt>
      <trkpt lat="42.5113648362457752227783203125" lon="19.89834451116621494293212890625">
        <ele>1909</ele>
        <time>2026-06-17T11:43:12.000Z</time>
        <extensions>
          <ns3:TrackPointExtension>
            <ns3:atemp>16.0</ns3:atemp>
          </ns3:TrackPointExtension>
        </extensions>
      </trkpt>
      <trkpt lat="42.5113648362457752227783203125" lon="19.89834451116621494293212890625">
        <ele>1909</ele>
        <time>2026-06-17T11:43:13.000Z</time>
        <extensions>
          <ns3:TrackPointExtension>
            <ns3:atemp>16.0</ns3:atemp>
          </ns3:TrackPointExtension>
        </extensions>
      </trkpt>
      <trkpt lat="42.5113648362457752227783203125" lon="19.89834451116621494293212890625">
        <ele>1909</ele>
        <time>2026-06-17T11:43:14.000Z</time>
        <extensions>
          <ns3:TrackPointExtension>
            <ns3:atemp>16.0</ns3:atemp>
          </ns3:TrackPointExtension>
        </extensions>
      </trkpt>
      <trkpt lat="42.5113648362457752227783203125" lon="19.89834451116621494293212890625">
        <ele>1909</ele>
        <time>2026-06-17T11:43:15.000Z</time>
        <extensions>
          <ns3:TrackPointExtension>
            <ns3:atemp>16.0</ns3:atemp>
          </ns3:TrackPointExtension>
        </extensions>
      </trkpt>
      <trkpt lat="42.5113648362457752227783203125" lon="19.89834451116621494293212890625">
        <ele>1909</ele>
        <time>2026-06-17T11:43:16.000Z</time>
        <extensions>
          <ns3:TrackPointExtension>
            <ns3:atemp>16.0</ns3:atemp>
          </ns3:TrackPointExtension>
        </extensions>
      </trkpt>
      <trkpt lat="42.5113648362457752227783203125" lon="19.89834451116621494293212890625">
        <ele>1909</ele>
        <time>2026-06-17T11:43:17.000Z</time>
        <extensions>
          <ns3:TrackPointExtension>
            <ns3:atemp>16.0</ns3:atemp>
          </ns3:TrackPointExtension>
        </extensions>
      </trkpt>
      <trkpt lat="42.51136324368417263031005859375" lon="19.89834400825202465057373046875">
        <ele>1909</ele>
        <time>2026-06-17T11:43:18.000Z</time>
        <extensions>
          <ns3:TrackPointExtension>
            <ns3:atemp>16.0</ns3:atemp>
          </ns3:TrackPointExtension>
        </extensions>
      </trkpt>
      <trkpt lat="42.51134254038333892822265625" lon="19.89834182895720005035400390625">
        <ele>1909</ele>
        <time>2026-06-17T11:43:19.000Z</time>
        <extensions>
          <ns3:TrackPointExtension>
            <ns3:atemp>16.0</ns3:atemp>
          </ns3:TrackPointExtension>
        </extensions>
      </trkpt>
      <trkpt lat="42.51133382320404052734375" lon="19.89833663217723369598388671875">
        <ele>1908.800048828125</ele>
        <time>2026-06-17T11:43:20.000Z</time>
        <extensions>
          <ns3:TrackPointExtension>
            <ns3:atemp>16.0</ns3:atemp>
          </ns3:TrackPointExtension>
        </extensions>
      </trkpt>
      <trkpt lat="42.5113217532634735107421875" lon="19.89833763800561428070068359375">
        <ele>1908.800048828125</ele>
        <time>2026-06-17T11:43:21.000Z</time>
        <extensions>
          <ns3:TrackPointExtension>
            <ns3:atemp>16.0</ns3:atemp>
          </ns3:TrackPointExtension>
        </extensions>
      </trkpt>
      <trkpt lat="42.511308677494525909423828125" lon="19.89834065549075603485107421875">
        <ele>1908.5999755859375</ele>
        <time>2026-06-17T11:43:22.000Z</time>
        <extensions>
          <ns3:TrackPointExtension>
            <ns3:atemp>16.0</ns3:atemp>
          </ns3:TrackPointExtension>
        </extensions>
      </trkpt>
      <trkpt lat="42.51129870302975177764892578125" lon="19.89833897911012172698974609375">
        <ele>1908.5999755859375</ele>
        <time>2026-06-17T11:43:23.000Z</time>
        <extensions>
          <ns3:TrackPointExtension>
            <ns3:atemp>16.0</ns3:atemp>
          </ns3:TrackPointExtension>
        </extensions>
      </trkpt>
      <trkpt lat="42.5112900696694850921630859375" lon="19.8983472771942615509033203125">
        <ele>1908.4000244140625</ele>
        <time>2026-06-17T11:43:24.000Z</time>
        <extensions>
          <ns3:TrackPointExtension>
            <ns3:atemp>16.0</ns3:atemp>
          </ns3:TrackPointExtension>
        </extensions>
      </trkpt>
      <trkpt lat="42.511279843747615814208984375" lon="19.89835037849843502044677734375">
        <ele>1908.4000244140625</ele>
        <time>2026-06-17T11:43:25.000Z</time>
        <extensions>
          <ns3:TrackPointExtension>
            <ns3:atemp>16.0</ns3:atemp>
          </ns3:TrackPointExtension>
        </extensions>
      </trkpt>
      <trkpt lat="42.51126886345446109771728515625" lon="19.89835314452648162841796875">
        <ele>1908.4000244140625</ele>
        <time>2026-06-17T11:43:26.000Z</time>
        <extensions>
          <ns3:TrackPointExtension>
            <ns3:atemp>16.0</ns3:atemp>
          </ns3:TrackPointExtension>
        </extensions>
      </trkpt>
      <trkpt lat="42.5112518481910228729248046875" lon="19.89835985004901885986328125">
        <ele>1908.4000244140625</ele>
        <time>2026-06-17T11:43:27.000Z</time>
        <extensions>
          <ns3:TrackPointExtension>
            <ns3:atemp>16.0</ns3:atemp>
          </ns3:TrackPointExtension>
        </extensions>
      </trkpt>
      <trkpt lat="42.5112360902130603790283203125" lon="19.8983687348663806915283203125">
        <ele>1908.199951171875</ele>
        <time>2026-06-17T11:43:28.000Z</time>
        <extensions>
          <ns3:TrackPointExtension>
            <ns3:atemp>16.0</ns3:atemp>
          </ns3:TrackPointExtension>
        </extensions>
      </trkpt>
      <trkpt lat="42.5112334080040454864501953125" lon="19.89838055334985256195068359375">
        <ele>1908.199951171875</ele>
        <time>2026-06-17T11:43:29.000Z</time>
        <extensions>
          <ns3:TrackPointExtension>
            <ns3:atemp>16.0</ns3:atemp>
          </ns3:TrackPointExtension>
        </extensions>
      </trkpt>
      <trkpt lat="42.511222176253795623779296875" lon="19.89837887696921825408935546875">
        <ele>1908.199951171875</ele>
        <time>2026-06-17T11:43:30.000Z</time>
        <extensions>
          <ns3:TrackPointExtension>
            <ns3:atemp>16.0</ns3:atemp>
          </ns3:TrackPointExtension>
        </extensions>
      </trkpt>
      <trkpt lat="42.5112216733396053314208984375" lon="19.89838809706270694732666015625">
        <ele>1908.199951171875</ele>
        <time>2026-06-17T11:43:31.000Z</time>
        <extensions>
          <ns3:TrackPointExtension>
            <ns3:atemp>16.0</ns3:atemp>
          </ns3:TrackPointExtension>
        </extensions>
      </trkpt>
      <trkpt lat="42.51122158952057361602783203125" lon="19.8983881808817386627197265625">
        <ele>1908.199951171875</ele>
        <time>2026-06-17T11:43:32.000Z</time>
        <extensions>
          <ns3:TrackPointExtension>
            <ns3:atemp>16.0</ns3:atemp>
          </ns3:TrackPointExtension>
        </extensions>
      </trkpt>
      <trkpt lat="42.511221505701541900634765625" lon="19.8983881808817386627197265625">
        <ele>1908.199951171875</ele>
        <time>2026-06-17T11:43:33.000Z</time>
        <extensions>
          <ns3:TrackPointExtension>
            <ns3:atemp>16.0</ns3:atemp>
          </ns3:TrackPointExtension>
        </extensions>
      </trkpt>
      <trkpt lat="42.51121555455029010772705078125" lon="19.898383319377899169921875">
        <ele>1908.199951171875</ele>
        <time>2026-06-17T11:43:34.000Z</time>
        <extensions>
          <ns3:TrackPointExtension>
            <ns3:atemp>16.0</ns3:atemp>
          </ns3:TrackPointExtension>
        </extensions>
      </trkpt>
      <trkpt lat="42.5112079270184040069580078125" lon="19.8983814753592014312744140625">
        <ele>1908</ele>
        <time>2026-06-17T11:43:35.000Z</time>
        <extensions>
          <ns3:TrackPointExtension>
            <ns3:atemp>16.0</ns3:atemp>
          </ns3:TrackPointExtension>
        </extensions>
      </trkpt>
      <trkpt lat="42.51120046712458133697509765625" lon="19.8983811400830745697021484375">
        <ele>1908</ele>
        <time>2026-06-17T11:43:36.000Z</time>
        <extensions>
          <ns3:TrackPointExtension>
            <ns3:atemp>16.0</ns3:atemp>
          </ns3:TrackPointExtension>
        </extensions>
      </trkpt>
      <trkpt lat="42.51119409687817096710205078125" lon="19.89837368018925189971923828125">
        <ele>1908</ele>
        <time>2026-06-17T11:43:37.000Z</time>
        <extensions>
          <ns3:TrackPointExtension>
            <ns3:atemp>16.0</ns3:atemp>
          </ns3:TrackPointExtension>
        </extensions>
      </trkpt>
      <trkpt lat="42.51118789426982402801513671875" lon="19.898368231952190399169921875">
        <ele>1908</ele>
        <time>2026-06-17T11:43:38.000Z</time>
        <extensions>
          <ns3:TrackPointExtension>
            <ns3:atemp>16.0</ns3:atemp>
          </ns3:TrackPointExtension>
        </extensions>
      </trkpt>
      <trkpt lat="42.51119107939302921295166015625" lon="19.898367561399936676025390625">
        <ele>1908</ele>
        <time>2026-06-17T11:43:39.000Z</time>
        <extensions>
          <ns3:TrackPointExtension>
            <ns3:atemp>16.0</ns3:atemp>
          </ns3:TrackPointExtension>
        </extensions>
      </trkpt>
      <trkpt lat="42.51119099557399749755859375" lon="19.89836747758090496063232421875">
        <ele>1908</ele>
        <time>2026-06-17T11:43:40.000Z</time>
        <extensions>
          <ns3:TrackPointExtension>
            <ns3:atemp>16.0</ns3:atemp>
          </ns3:TrackPointExtension>
        </extensions>
      </trkpt>
      <trkpt lat="42.51119099557399749755859375" lon="19.89836747758090496063232421875">
        <ele>1908</ele>
        <time>2026-06-17T11:43:41.000Z</time>
        <extensions>
          <ns3:TrackPointExtension>
            <ns3:atemp>16.0</ns3:atemp>
          </ns3:TrackPointExtension>
        </extensions>
      </trkpt>
      <trkpt lat="42.51119099557399749755859375" lon="19.89836747758090496063232421875">
        <ele>1907.800048828125</ele>
        <time>2026-06-17T11:43:42.000Z</time>
        <extensions>
          <ns3:TrackPointExtension>
            <ns3:atemp>16.0</ns3:atemp>
          </ns3:TrackPointExtension>
        </extensions>
      </trkpt>
      <trkpt lat="42.51119099557399749755859375" lon="19.89836747758090496063232421875">
        <ele>1907.800048828125</ele>
        <time>2026-06-17T11:43:43.000Z</time>
        <extensions>
          <ns3:TrackPointExtension>
            <ns3:atemp>16.0</ns3:atemp>
          </ns3:TrackPointExtension>
        </extensions>
      </trkpt>
      <trkpt lat="42.51119099557399749755859375" lon="19.89836747758090496063232421875">
        <ele>1907.800048828125</ele>
        <time>2026-06-17T11:43:44.000Z</time>
        <extensions>
          <ns3:TrackPointExtension>
            <ns3:atemp>16.0</ns3:atemp>
          </ns3:TrackPointExtension>
        </extensions>
      </trkpt>
      <trkpt lat="42.51119099557399749755859375" lon="19.89836747758090496063232421875">
        <ele>1907.800048828125</ele>
        <time>2026-06-17T11:43:45.000Z</time>
        <extensions>
          <ns3:TrackPointExtension>
            <ns3:atemp>16.0</ns3:atemp>
          </ns3:TrackPointExtension>
        </extensions>
      </trkpt>
      <trkpt lat="42.51119099557399749755859375" lon="19.89836747758090496063232421875">
        <ele>1907.800048828125</ele>
        <time>2026-06-17T11:43:46.000Z</time>
        <extensions>
          <ns3:TrackPointExtension>
            <ns3:atemp>16.0</ns3:atemp>
          </ns3:TrackPointExtension>
        </extensions>
      </trkpt>
      <trkpt lat="42.51119099557399749755859375" lon="19.89836747758090496063232421875">
        <ele>1907.800048828125</ele>
        <time>2026-06-17T11:43:47.000Z</time>
        <extensions>
          <ns3:TrackPointExtension>
            <ns3:atemp>16.0</ns3:atemp>
          </ns3:TrackPointExtension>
        </extensions>
      </trkpt>
      <trkpt lat="42.51119099557399749755859375" lon="19.89836747758090496063232421875">
        <ele>1907.800048828125</ele>
        <time>2026-06-17T11:43:48.000Z</time>
        <extensions>
          <ns3:TrackPointExtension>
            <ns3:atemp>16.0</ns3:atemp>
          </ns3:TrackPointExtension>
        </extensions>
      </trkpt>
      <trkpt lat="42.51119099557399749755859375" lon="19.89836747758090496063232421875">
        <ele>1907.800048828125</ele>
        <time>2026-06-17T11:43:49.000Z</time>
        <extensions>
          <ns3:TrackPointExtension>
            <ns3:atemp>16.0</ns3:atemp>
          </ns3:TrackPointExtension>
        </extensions>
      </trkpt>
      <trkpt lat="42.51119099557399749755859375" lon="19.89836747758090496063232421875">
        <ele>1907.800048828125</ele>
        <time>2026-06-17T11:43:50.000Z</time>
        <extensions>
          <ns3:TrackPointExtension>
            <ns3:atemp>16.0</ns3:atemp>
          </ns3:TrackPointExtension>
        </extensions>
      </trkpt>
      <trkpt lat="42.51119099557399749755859375" lon="19.89836747758090496063232421875">
        <ele>1907.800048828125</ele>
        <time>2026-06-17T11:43:51.000Z</time>
        <extensions>
          <ns3:TrackPointExtension>
            <ns3:atemp>16.0</ns3:atemp>
          </ns3:TrackPointExtension>
        </extensions>
      </trkpt>
      <trkpt lat="42.51119099557399749755859375" lon="19.89836747758090496063232421875">
        <ele>1907.800048828125</ele>
        <time>2026-06-17T11:43:52.000Z</time>
        <extensions>
          <ns3:TrackPointExtension>
            <ns3:atemp>16.0</ns3:atemp>
          </ns3:TrackPointExtension>
        </extensions>
      </trkpt>
      <trkpt lat="42.51119099557399749755859375" lon="19.89836747758090496063232421875">
        <ele>1907.800048828125</ele>
        <time>2026-06-17T11:43:53.000Z</time>
        <extensions>
          <ns3:TrackPointExtension>
            <ns3:atemp>16.0</ns3:atemp>
          </ns3:TrackPointExtension>
        </extensions>
      </trkpt>
      <trkpt lat="42.51119099557399749755859375" lon="19.89836747758090496063232421875">
        <ele>1907.800048828125</ele>
        <time>2026-06-17T11:43:54.000Z</time>
        <extensions>
          <ns3:TrackPointExtension>
            <ns3:atemp>16.0</ns3:atemp>
          </ns3:TrackPointExtension>
        </extensions>
      </trkpt>
      <trkpt lat="42.51119099557399749755859375" lon="19.89836747758090496063232421875">
        <ele>1907.800048828125</ele>
        <time>2026-06-17T11:43:55.000Z</time>
        <extensions>
          <ns3:TrackPointExtension>
            <ns3:atemp>16.0</ns3:atemp>
          </ns3:TrackPointExtension>
        </extensions>
      </trkpt>
      <trkpt lat="42.5111903250217437744140625" lon="19.89836429245769977569580078125">
        <ele>1907.800048828125</ele>
        <time>2026-06-17T11:43:56.000Z</time>
        <extensions>
          <ns3:TrackPointExtension>
            <ns3:atemp>16.0</ns3:atemp>
          </ns3:TrackPointExtension>
        </extensions>
      </trkpt>
      <trkpt lat="42.51118269748985767364501953125" lon="19.89835322834551334381103515625">
        <ele>1907.800048828125</ele>
        <time>2026-06-17T11:43:57.000Z</time>
        <extensions>
          <ns3:TrackPointExtension>
            <ns3:atemp>16.0</ns3:atemp>
          </ns3:TrackPointExtension>
        </extensions>
      </trkpt>
      <trkpt lat="42.51116777770221233367919921875" lon="19.8983402363955974578857421875">
        <ele>1907.5999755859375</ele>
        <time>2026-06-17T11:43:58.000Z</time>
        <extensions>
          <ns3:TrackPointExtension>
            <ns3:atemp>16.0</ns3:atemp>
          </ns3:TrackPointExtension>
        </extensions>
      </trkpt>
      <trkpt lat="42.51114414073526859283447265625" lon="19.89833814091980457305908203125">
        <ele>1907.5999755859375</ele>
        <time>2026-06-17T11:43:59.000Z</time>
        <extensions>
          <ns3:TrackPointExtension>
            <ns3:atemp>16.0</ns3:atemp>
          </ns3:TrackPointExtension>
        </extensions>
      </trkpt>
      <trkpt lat="42.51111480407416820526123046875" lon="19.89834509789943695068359375">
        <ele>1907.4000244140625</ele>
        <time>2026-06-17T11:44:00.000Z</time>
        <extensions>
          <ns3:TrackPointExtension>
            <ns3:atemp>16.0</ns3:atemp>
          </ns3:TrackPointExtension>
        </extensions>
      </trkpt>
      <trkpt lat="42.51108680851757526397705078125" lon="19.8983606882393360137939453125">
        <ele>1907.199951171875</ele>
        <time>2026-06-17T11:44:01.000Z</time>
        <extensions>
          <ns3:TrackPointExtension>
            <ns3:atemp>16.0</ns3:atemp>
          </ns3:TrackPointExtension>
        </extensions>
      </trkpt>
      <trkpt lat="42.51105780713260173797607421875" lon="19.898374937474727630615234375">
        <ele>1907</ele>
        <time>2026-06-17T11:44:02.000Z</time>
        <extensions>
          <ns3:TrackPointExtension>
            <ns3:atemp>16.0</ns3:atemp>
          </ns3:TrackPointExtension>
        </extensions>
      </trkpt>
      <trkpt lat="42.51102872192859649658203125" lon="19.8983860015869140625">
        <ele>1906.5999755859375</ele>
        <time>2026-06-17T11:44:03.000Z</time>
        <extensions>
          <ns3:TrackPointExtension>
            <ns3:atemp>16.0</ns3:atemp>
          </ns3:TrackPointExtension>
        </extensions>
      </trkpt>
      <trkpt lat="42.5110052525997161865234375" lon="19.89839228801429271697998046875">
        <ele>1906.4000244140625</ele>
        <time>2026-06-17T11:44:04.000Z</time>
        <extensions>
          <ns3:TrackPointExtension>
            <ns3:atemp>16.0</ns3:atemp>
          </ns3:TrackPointExtension>
        </extensions>
      </trkpt>
      <trkpt lat="42.510983459651470184326171875" lon="19.89839731715619564056396484375">
        <ele>1906.4000244140625</ele>
        <time>2026-06-17T11:44:05.000Z</time>
        <extensions>
          <ns3:TrackPointExtension>
            <ns3:atemp>16.0</ns3:atemp>
          </ns3:TrackPointExtension>
        </extensions>
      </trkpt>
      <trkpt lat="42.51096359454095363616943359375" lon="19.89840268157422542572021484375">
        <ele>1906.199951171875</ele>
        <time>2026-06-17T11:44:06.000Z</time>
        <extensions>
          <ns3:TrackPointExtension>
            <ns3:atemp>16.0</ns3:atemp>
          </ns3:TrackPointExtension>
        </extensions>
      </trkpt>
      <trkpt lat="42.51093878410756587982177734375" lon="19.8984183557331562042236328125">
        <ele>1906.199951171875</ele>
        <time>2026-06-17T11:44:07.000Z</time>
        <extensions>
          <ns3:TrackPointExtension>
            <ns3:atemp>16.0</ns3:atemp>
          </ns3:TrackPointExtension>
        </extensions>
      </trkpt>
      <trkpt lat="42.5109128840267658233642578125" lon="19.89844157360494136810302734375">
        <ele>1906</ele>
        <time>2026-06-17T11:44:08.000Z</time>
        <extensions>
          <ns3:TrackPointExtension>
            <ns3:atemp>16.0</ns3:atemp>
          </ns3:TrackPointExtension>
        </extensions>
      </trkpt>
      <trkpt lat="42.51089000143110752105712890625" lon="19.8984611034393310546875">
        <ele>1905.800048828125</ele>
        <time>2026-06-17T11:44:09.000Z</time>
        <extensions>
          <ns3:TrackPointExtension>
            <ns3:atemp>16.0</ns3:atemp>
          </ns3:TrackPointExtension>
        </extensions>
      </trkpt>
      <trkpt lat="42.5108719803392887115478515625" lon="19.89848197437822818756103515625">
        <ele>1905.5999755859375</ele>
        <time>2026-06-17T11:44:10.000Z</time>
        <extensions>
          <ns3:TrackPointExtension>
            <ns3:atemp>16.0</ns3:atemp>
          </ns3:TrackPointExtension>
        </extensions>
      </trkpt>
      <trkpt lat="42.51086049713194370269775390625" lon="19.898494295775890350341796875">
        <ele>1905.5999755859375</ele>
        <time>2026-06-17T11:44:11.000Z</time>
        <extensions>
          <ns3:TrackPointExtension>
            <ns3:atemp>16.0</ns3:atemp>
          </ns3:TrackPointExtension>
        </extensions>
      </trkpt>
      <trkpt lat="42.51084943301975727081298828125" lon="19.89849974401295185089111328125">
        <ele>1905.4000244140625</ele>
        <time>2026-06-17T11:44:12.000Z</time>
        <extensions>
          <ns3:TrackPointExtension>
            <ns3:atemp>16.0</ns3:atemp>
          </ns3:TrackPointExtension>
        </extensions>
      </trkpt>
      <trkpt lat="42.51083618961274623870849609375" lon="19.89850209094583988189697265625">
        <ele>1905.4000244140625</ele>
        <time>2026-06-17T11:44:13.000Z</time>
        <extensions>
          <ns3:TrackPointExtension>
            <ns3:atemp>16.0</ns3:atemp>
          </ns3:TrackPointExtension>
        </extensions>
      </trkpt>
      <trkpt lat="42.51082445494830608367919921875" lon="19.8985132388770580291748046875">
        <ele>1905.4000244140625</ele>
        <time>2026-06-17T11:44:14.000Z</time>
        <extensions>
          <ns3:TrackPointExtension>
            <ns3:atemp>16.0</ns3:atemp>
          </ns3:TrackPointExtension>
        </extensions>
      </trkpt>
      <trkpt lat="42.51081473194062709808349609375" lon="19.89852488972246646881103515625">
        <ele>1905.4000244140625</ele>
        <time>2026-06-17T11:44:15.000Z</time>
        <extensions>
          <ns3:TrackPointExtension>
            <ns3:atemp>16.0</ns3:atemp>
          </ns3:TrackPointExtension>
        </extensions>
      </trkpt>
      <trkpt lat="42.5108009018003940582275390625" lon="19.89852773956954479217529296875">
        <ele>1905.4000244140625</ele>
        <time>2026-06-17T11:44:16.000Z</time>
        <extensions>
          <ns3:TrackPointExtension>
            <ns3:atemp>16.0</ns3:atemp>
          </ns3:TrackPointExtension>
        </extensions>
      </trkpt>
      <trkpt lat="42.5107864849269390106201171875" lon="19.89853017032146453857421875">
        <ele>1905.4000244140625</ele>
        <time>2026-06-17T11:44:17.000Z</time>
        <extensions>
          <ns3:TrackPointExtension>
            <ns3:atemp>16.0</ns3:atemp>
          </ns3:TrackPointExtension>
        </extensions>
      </trkpt>
      <trkpt lat="42.51076745800673961639404296875" lon="19.898539893329143524169921875">
        <ele>1905.4000244140625</ele>
        <time>2026-06-17T11:44:18.000Z</time>
        <extensions>
          <ns3:TrackPointExtension>
            <ns3:atemp>16.0</ns3:atemp>
          </ns3:TrackPointExtension>
        </extensions>
      </trkpt>
      <trkpt lat="42.510754130780696868896484375" lon="19.8985507898032665252685546875">
        <ele>1905.4000244140625</ele>
        <time>2026-06-17T11:44:19.000Z</time>
        <extensions>
          <ns3:TrackPointExtension>
            <ns3:atemp>16.0</ns3:atemp>
          </ns3:TrackPointExtension>
        </extensions>
      </trkpt>
      <trkpt lat="42.5107553042471408843994140625" lon="19.8985561542212963104248046875">
        <ele>1905.4000244140625</ele>
        <time>2026-06-17T11:44:20.000Z</time>
        <extensions>
          <ns3:TrackPointExtension>
            <ns3:atemp>16.0</ns3:atemp>
          </ns3:TrackPointExtension>
        </extensions>
      </trkpt>
      <trkpt lat="42.51075237058103084564208984375" lon="19.8985574953258037567138671875">
        <ele>1905.4000244140625</ele>
        <time>2026-06-17T11:44:21.000Z</time>
        <extensions>
          <ns3:TrackPointExtension>
            <ns3:atemp>16.0</ns3:atemp>
          </ns3:TrackPointExtension>
        </extensions>
      </trkpt>
      <trkpt lat="42.510742060840129852294921875" lon="19.898566715419292449951171875">
        <ele>1905.4000244140625</ele>
        <time>2026-06-17T11:44:22.000Z</time>
        <extensions>
          <ns3:TrackPointExtension>
            <ns3:atemp>16.0</ns3:atemp>
          </ns3:TrackPointExtension>
        </extensions>
      </trkpt>
      <trkpt lat="42.5107316672801971435546875" lon="19.89857652224600315093994140625">
        <ele>1905.4000244140625</ele>
        <time>2026-06-17T11:44:23.000Z</time>
        <extensions>
          <ns3:TrackPointExtension>
            <ns3:atemp>16.0</ns3:atemp>
          </ns3:TrackPointExtension>
        </extensions>
      </trkpt>
      <trkpt lat="42.5107157416641712188720703125" lon="19.89859093911945819854736328125">
        <ele>1905.4000244140625</ele>
        <time>2026-06-17T11:44:24.000Z</time>
        <extensions>
          <ns3:TrackPointExtension>
            <ns3:atemp>16.0</ns3:atemp>
          </ns3:TrackPointExtension>
        </extensions>
      </trkpt>
      <trkpt lat="42.5107030011713504791259765625" lon="19.89861222915351390838623046875">
        <ele>1905.4000244140625</ele>
        <time>2026-06-17T11:44:25.000Z</time>
        <extensions>
          <ns3:TrackPointExtension>
            <ns3:atemp>16.0</ns3:atemp>
          </ns3:TrackPointExtension>
        </extensions>
      </trkpt>
      <trkpt lat="42.51068942248821258544921875" lon="19.89862932823598384857177734375">
        <ele>1905.4000244140625</ele>
        <time>2026-06-17T11:44:26.000Z</time>
        <extensions>
          <ns3:TrackPointExtension>
            <ns3:atemp>16.0</ns3:atemp>
          </ns3:TrackPointExtension>
        </extensions>
      </trkpt>
      <trkpt lat="42.5106731615960597991943359375" lon="19.898639135062694549560546875">
        <ele>1905.4000244140625</ele>
        <time>2026-06-17T11:44:27.000Z</time>
        <extensions>
          <ns3:TrackPointExtension>
            <ns3:atemp>16.0</ns3:atemp>
          </ns3:TrackPointExtension>
        </extensions>
      </trkpt>
      <trkpt lat="42.5106607563793659210205078125" lon="19.89865061827003955841064453125">
        <ele>1905.4000244140625</ele>
        <time>2026-06-17T11:44:28.000Z</time>
        <extensions>
          <ns3:TrackPointExtension>
            <ns3:atemp>16.0</ns3:atemp>
          </ns3:TrackPointExtension>
        </extensions>
      </trkpt>
      <trkpt lat="42.5106493569910526275634765625" lon="19.89866134710609912872314453125">
        <ele>1905.4000244140625</ele>
        <time>2026-06-17T11:44:29.000Z</time>
        <extensions>
          <ns3:TrackPointExtension>
            <ns3:atemp>16.0</ns3:atemp>
          </ns3:TrackPointExtension>
        </extensions>
      </trkpt>
      <trkpt lat="42.51063619740307331085205078125" lon="19.89867500960826873779296875">
        <ele>1905.4000244140625</ele>
        <time>2026-06-17T11:44:30.000Z</time>
        <extensions>
          <ns3:TrackPointExtension>
            <ns3:atemp>16.0</ns3:atemp>
          </ns3:TrackPointExtension>
        </extensions>
      </trkpt>
      <trkpt lat="42.5106245465576648712158203125" lon="19.8986889235675334930419921875">
        <ele>1905.4000244140625</ele>
        <time>2026-06-17T11:44:31.000Z</time>
        <extensions>
          <ns3:TrackPointExtension>
            <ns3:atemp>16.0</ns3:atemp>
          </ns3:TrackPointExtension>
        </extensions>
      </trkpt>
      <trkpt lat="42.51061499118804931640625" lon="19.8987019993364810943603515625">
        <ele>1905.4000244140625</ele>
        <time>2026-06-17T11:44:32.000Z</time>
        <extensions>
          <ns3:TrackPointExtension>
            <ns3:atemp>16.0</ns3:atemp>
          </ns3:TrackPointExtension>
        </extensions>
      </trkpt>
      <trkpt lat="42.5106109678745269775390625" lon="19.89871733821928501129150390625">
        <ele>1905.4000244140625</ele>
        <time>2026-06-17T11:44:33.000Z</time>
        <extensions>
          <ns3:TrackPointExtension>
            <ns3:atemp>16.0</ns3:atemp>
          </ns3:TrackPointExtension>
        </extensions>
      </trkpt>
      <trkpt lat="42.51060334034264087677001953125" lon="19.8987392149865627288818359375">
        <ele>1905.4000244140625</ele>
        <time>2026-06-17T11:44:34.000Z</time>
        <extensions>
          <ns3:TrackPointExtension>
            <ns3:atemp>16.0</ns3:atemp>
          </ns3:TrackPointExtension>
        </extensions>
      </trkpt>
      <trkpt lat="42.5106010772287845611572265625" lon="19.898753464221954345703125">
        <ele>1905.4000244140625</ele>
        <time>2026-06-17T11:44:35.000Z</time>
        <extensions>
          <ns3:TrackPointExtension>
            <ns3:atemp>16.0</ns3:atemp>
          </ns3:TrackPointExtension>
        </extensions>
      </trkpt>
      <trkpt lat="42.5105953775346279144287109375" lon="19.89876511506736278533935546875">
        <ele>1905.4000244140625</ele>
        <time>2026-06-17T11:44:36.000Z</time>
        <extensions>
          <ns3:TrackPointExtension>
            <ns3:atemp>16.0</ns3:atemp>
          </ns3:TrackPointExtension>
        </extensions>
      </trkpt>
      <trkpt lat="42.51058942638337612152099609375" lon="19.89877559244632720947265625">
        <ele>1905.4000244140625</ele>
        <time>2026-06-17T11:44:37.000Z</time>
        <extensions>
          <ns3:TrackPointExtension>
            <ns3:atemp>16.0</ns3:atemp>
          </ns3:TrackPointExtension>
        </extensions>
      </trkpt>
      <trkpt lat="42.5105812959372997283935546875" lon="19.89878908731043338775634765625">
        <ele>1905.4000244140625</ele>
        <time>2026-06-17T11:44:38.000Z</time>
        <extensions>
          <ns3:TrackPointExtension>
            <ns3:atemp>16.0</ns3:atemp>
          </ns3:TrackPointExtension>
        </extensions>
      </trkpt>
      <trkpt lat="42.51057568006217479705810546875" lon="19.89880082197487354278564453125">
        <ele>1905.4000244140625</ele>
        <time>2026-06-17T11:44:39.000Z</time>
        <extensions>
          <ns3:TrackPointExtension>
            <ns3:atemp>16.0</ns3:atemp>
          </ns3:TrackPointExtension>
        </extensions>
      </trkpt>
      <trkpt lat="42.51057551242411136627197265625" lon="19.8988042585551738739013671875">
        <ele>1905.5999755859375</ele>
        <time>2026-06-17T11:44:40.000Z</time>
        <extensions>
          <ns3:TrackPointExtension>
            <ns3:atemp>16.0</ns3:atemp>
          </ns3:TrackPointExtension>
        </extensions>
      </trkpt>
      <trkpt lat="42.51057534478604793548583984375" lon="19.89880417473614215850830078125">
        <ele>1905.5999755859375</ele>
        <time>2026-06-17T11:44:41.000Z</time>
        <extensions>
          <ns3:TrackPointExtension>
            <ns3:atemp>16.0</ns3:atemp>
          </ns3:TrackPointExtension>
        </extensions>
      </trkpt>
      <trkpt lat="42.51057534478604793548583984375" lon="19.89880417473614215850830078125">
        <ele>1905.5999755859375</ele>
        <time>2026-06-17T11:44:42.000Z</time>
        <extensions>
          <ns3:TrackPointExtension>
            <ns3:atemp>16.0</ns3:atemp>
          </ns3:TrackPointExtension>
        </extensions>
      </trkpt>
      <trkpt lat="42.5105749256908893585205078125" lon="19.8988042585551738739013671875">
        <ele>1905.5999755859375</ele>
        <time>2026-06-17T11:44:43.000Z</time>
        <extensions>
          <ns3:TrackPointExtension>
            <ns3:atemp>16.0</ns3:atemp>
          </ns3:TrackPointExtension>
        </extensions>
      </trkpt>
      <trkpt lat="42.51056729815900325775146484375" lon="19.89880509674549102783203125">
        <ele>1905.5999755859375</ele>
        <time>2026-06-17T11:44:44.000Z</time>
        <extensions>
          <ns3:TrackPointExtension>
            <ns3:atemp>16.0</ns3:atemp>
          </ns3:TrackPointExtension>
        </extensions>
      </trkpt>
      <trkpt lat="42.510559670627117156982421875" lon="19.89880777895450592041015625">
        <ele>1905.5999755859375</ele>
        <time>2026-06-17T11:44:45.000Z</time>
        <extensions>
          <ns3:TrackPointExtension>
            <ns3:atemp>16.0</ns3:atemp>
          </ns3:TrackPointExtension>
        </extensions>
      </trkpt>
      <trkpt lat="42.51055489294230937957763671875" lon="19.89881138317286968231201171875">
        <ele>1905.800048828125</ele>
        <time>2026-06-17T11:44:46.000Z</time>
        <extensions>
          <ns3:TrackPointExtension>
            <ns3:atemp>16.0</ns3:atemp>
          </ns3:TrackPointExtension>
        </extensions>
      </trkpt>
      <trkpt lat="42.51054667867720127105712890625" lon="19.89881641231477260589599609375">
        <ele>1905.800048828125</ele>
        <time>2026-06-17T11:44:47.000Z</time>
        <extensions>
          <ns3:TrackPointExtension>
            <ns3:atemp>16.0</ns3:atemp>
          </ns3:TrackPointExtension>
        </extensions>
      </trkpt>
      <trkpt lat="42.510542571544647216796875" lon="19.89881926216185092926025390625">
        <ele>1905.800048828125</ele>
        <time>2026-06-17T11:44:48.000Z</time>
        <extensions>
          <ns3:TrackPointExtension>
            <ns3:atemp>16.0</ns3:atemp>
          </ns3:TrackPointExtension>
        </extensions>
      </trkpt>
      <trkpt lat="42.51053988933563232421875" lon="19.89881758578121662139892578125">
        <ele>1905.800048828125</ele>
        <time>2026-06-17T11:44:49.000Z</time>
        <extensions>
          <ns3:TrackPointExtension>
            <ns3:atemp>16.0</ns3:atemp>
          </ns3:TrackPointExtension>
        </extensions>
      </trkpt>
      <trkpt lat="42.51052890904247760772705078125" lon="19.89882051944732666015625">
        <ele>1906</ele>
        <time>2026-06-17T11:44:50.000Z</time>
        <extensions>
          <ns3:TrackPointExtension>
            <ns3:atemp>16.0</ns3:atemp>
          </ns3:TrackPointExtension>
        </extensions>
      </trkpt>
      <trkpt lat="42.51050963066518306732177734375" lon="19.89882496185600757598876953125">
        <ele>1906</ele>
        <time>2026-06-17T11:44:51.000Z</time>
        <extensions>
          <ns3:TrackPointExtension>
            <ns3:atemp>16.0</ns3:atemp>
          </ns3:TrackPointExtension>
        </extensions>
      </trkpt>
      <trkpt lat="42.5104916095733642578125" lon="19.89883284084498882293701171875">
        <ele>1906</ele>
        <time>2026-06-17T11:44:52.000Z</time>
        <extensions>
          <ns3:TrackPointExtension>
            <ns3:atemp>16.0</ns3:atemp>
          </ns3:TrackPointExtension>
        </extensions>
      </trkpt>
      <trkpt lat="42.510479204356670379638671875" lon="19.8988495208323001861572265625">
        <ele>1906</ele>
        <time>2026-06-17T11:44:53.000Z</time>
        <extensions>
          <ns3:TrackPointExtension>
            <ns3:atemp>16.0</ns3:atemp>
          </ns3:TrackPointExtension>
        </extensions>
      </trkpt>
      <trkpt lat="42.51046168617904186248779296875" lon="19.8988619260489940643310546875">
        <ele>1906</ele>
        <time>2026-06-17T11:44:54.000Z</time>
        <extensions>
          <ns3:TrackPointExtension>
            <ns3:atemp>16.0</ns3:atemp>
          </ns3:TrackPointExtension>
        </extensions>
      </trkpt>
      <trkpt lat="42.51044802367687225341796875" lon="19.89887072704732418060302734375">
        <ele>1906.199951171875</ele>
        <time>2026-06-17T11:44:55.000Z</time>
        <extensions>
          <ns3:TrackPointExtension>
            <ns3:atemp>16.0</ns3:atemp>
          </ns3:TrackPointExtension>
        </extensions>
      </trkpt>
      <trkpt lat="42.51043955795466899871826171875" lon="19.8988835513591766357421875">
        <ele>1906.4000244140625</ele>
        <time>2026-06-17T11:44:56.000Z</time>
        <extensions>
          <ns3:TrackPointExtension>
            <ns3:atemp>16.0</ns3:atemp>
          </ns3:TrackPointExtension>
        </extensions>
      </trkpt>
      <trkpt lat="42.5104284100234508514404296875" lon="19.89889788441359996795654296875">
        <ele>1906.5999755859375</ele>
        <time>2026-06-17T11:44:57.000Z</time>
        <extensions>
          <ns3:TrackPointExtension>
            <ns3:atemp>16.0</ns3:atemp>
          </ns3:TrackPointExtension>
        </extensions>
      </trkpt>
      <trkpt lat="42.51041759736835956573486328125" lon="19.89891464821994304656982421875">
        <ele>1906.800048828125</ele>
        <time>2026-06-17T11:44:58.000Z</time>
        <extensions>
          <ns3:TrackPointExtension>
            <ns3:atemp>16.0</ns3:atemp>
          </ns3:TrackPointExtension>
        </extensions>
      </trkpt>
      <trkpt lat="42.51039764843881130218505859375" lon="19.89892872981727123260498046875">
        <ele>1906.800048828125</ele>
        <time>2026-06-17T11:44:59.000Z</time>
        <extensions>
          <ns3:TrackPointExtension>
            <ns3:atemp>16.0</ns3:atemp>
          </ns3:TrackPointExtension>
        </extensions>
      </trkpt>
      <trkpt lat="42.51037300564348697662353515625" lon="19.8989353515207767486572265625">
        <ele>1906.800048828125</ele>
        <time>2026-06-17T11:45:00.000Z</time>
        <extensions>
          <ns3:TrackPointExtension>
            <ns3:atemp>16.0</ns3:atemp>
          </ns3:TrackPointExtension>
        </extensions>
      </trkpt>
      <trkpt lat="42.51035087741911411285400390625" lon="19.8989380337297916412353515625">
        <ele>1906.800048828125</ele>
        <time>2026-06-17T11:45:01.000Z</time>
        <extensions>
          <ns3:TrackPointExtension>
            <ns3:atemp>16.0</ns3:atemp>
          </ns3:TrackPointExtension>
        </extensions>
      </trkpt>
      <trkpt lat="42.5103335268795490264892578125" lon="19.89894188940525054931640625">
        <ele>1906.800048828125</ele>
        <time>2026-06-17T11:45:02.000Z</time>
        <extensions>
          <ns3:TrackPointExtension>
            <ns3:atemp>16.0</ns3:atemp>
          </ns3:TrackPointExtension>
        </extensions>
      </trkpt>
      <trkpt lat="42.51032598316669464111328125" lon="19.898946918547153472900390625">
        <ele>1906.5999755859375</ele>
        <time>2026-06-17T11:45:03.000Z</time>
        <extensions>
          <ns3:TrackPointExtension>
            <ns3:atemp>16.0</ns3:atemp>
          </ns3:TrackPointExtension>
        </extensions>
      </trkpt>
      <trkpt lat="42.51031667925417423248291015625" lon="19.89894951693713665008544921875">
        <ele>1906.5999755859375</ele>
        <time>2026-06-17T11:45:04.000Z</time>
        <extensions>
          <ns3:TrackPointExtension>
            <ns3:atemp>16.0</ns3:atemp>
          </ns3:TrackPointExtension>
        </extensions>
      </trkpt>
      <trkpt lat="42.5103167630732059478759765625" lon="19.89895521663129329681396484375">
        <ele>1906.5999755859375</ele>
        <time>2026-06-17T11:45:05.000Z</time>
        <extensions>
          <ns3:TrackPointExtension>
            <ns3:atemp>16.0</ns3:atemp>
          </ns3:TrackPointExtension>
        </extensions>
      </trkpt>
      <trkpt lat="42.51031651161611080169677734375" lon="19.8989551328122615814208984375">
        <ele>1906.5999755859375</ele>
        <time>2026-06-17T11:45:06.000Z</time>
        <extensions>
          <ns3:TrackPointExtension>
            <ns3:atemp>16.0</ns3:atemp>
          </ns3:TrackPointExtension>
        </extensions>
      </trkpt>
      <trkpt lat="42.51031651161611080169677734375" lon="19.8989551328122615814208984375">
        <ele>1906.5999755859375</ele>
        <time>2026-06-17T11:45:07.000Z</time>
        <extensions>
          <ns3:TrackPointExtension>
            <ns3:atemp>16.0</ns3:atemp>
          </ns3:TrackPointExtension>
        </extensions>
      </trkpt>
      <trkpt lat="42.51031651161611080169677734375" lon="19.8989551328122615814208984375">
        <ele>1906.800048828125</ele>
        <time>2026-06-17T11:45:08.000Z</time>
        <extensions>
          <ns3:TrackPointExtension>
            <ns3:atemp>16.0</ns3:atemp>
          </ns3:TrackPointExtension>
        </extensions>
      </trkpt>
      <trkpt lat="42.51031651161611080169677734375" lon="19.8989551328122615814208984375">
        <ele>1906.800048828125</ele>
        <time>2026-06-17T11:45:09.000Z</time>
        <extensions>
          <ns3:TrackPointExtension>
            <ns3:atemp>16.0</ns3:atemp>
          </ns3:TrackPointExtension>
        </extensions>
      </trkpt>
      <trkpt lat="42.51031651161611080169677734375" lon="19.8989551328122615814208984375">
        <ele>1906.800048828125</ele>
        <time>2026-06-17T11:45:10.000Z</time>
        <extensions>
          <ns3:TrackPointExtension>
            <ns3:atemp>16.0</ns3:atemp>
          </ns3:TrackPointExtension>
        </extensions>
      </trkpt>
      <trkpt lat="42.51031651161611080169677734375" lon="19.8989551328122615814208984375">
        <ele>1906.800048828125</ele>
        <time>2026-06-17T11:45:11.000Z</time>
        <extensions>
          <ns3:TrackPointExtension>
            <ns3:atemp>16.0</ns3:atemp>
          </ns3:TrackPointExtension>
        </extensions>
      </trkpt>
      <trkpt lat="42.51031651161611080169677734375" lon="19.8989551328122615814208984375">
        <ele>1906.5999755859375</ele>
        <time>2026-06-17T11:45:12.000Z</time>
        <extensions>
          <ns3:TrackPointExtension>
            <ns3:atemp>16.0</ns3:atemp>
          </ns3:TrackPointExtension>
        </extensions>
      </trkpt>
      <trkpt lat="42.51031651161611080169677734375" lon="19.8989551328122615814208984375">
        <ele>1906.5999755859375</ele>
        <time>2026-06-17T11:45:13.000Z</time>
        <extensions>
          <ns3:TrackPointExtension>
            <ns3:atemp>16.0</ns3:atemp>
          </ns3:TrackPointExtension>
        </extensions>
      </trkpt>
      <trkpt lat="42.51031651161611080169677734375" lon="19.8989551328122615814208984375">
        <ele>1906.5999755859375</ele>
        <time>2026-06-17T11:45:14.000Z</time>
        <extensions>
          <ns3:TrackPointExtension>
            <ns3:atemp>16.0</ns3:atemp>
          </ns3:TrackPointExtension>
        </extensions>
      </trkpt>
      <trkpt lat="42.51031651161611080169677734375" lon="19.8989551328122615814208984375">
        <ele>1906.5999755859375</ele>
        <time>2026-06-17T11:45:15.000Z</time>
        <extensions>
          <ns3:TrackPointExtension>
            <ns3:atemp>16.0</ns3:atemp>
          </ns3:TrackPointExtension>
        </extensions>
      </trkpt>
      <trkpt lat="42.51031651161611080169677734375" lon="19.8989551328122615814208984375">
        <ele>1906.5999755859375</ele>
        <time>2026-06-17T11:45:16.000Z</time>
        <extensions>
          <ns3:TrackPointExtension>
            <ns3:atemp>16.0</ns3:atemp>
          </ns3:TrackPointExtension>
        </extensions>
      </trkpt>
      <trkpt lat="42.51031651161611080169677734375" lon="19.8989551328122615814208984375">
        <ele>1906.5999755859375</ele>
        <time>2026-06-17T11:45:17.000Z</time>
        <extensions>
          <ns3:TrackPointExtension>
            <ns3:atemp>16.0</ns3:atemp>
          </ns3:TrackPointExtension>
        </extensions>
      </trkpt>
      <trkpt lat="42.5103160925209522247314453125" lon="19.89895655773580074310302734375">
        <ele>1906.5999755859375</ele>
        <time>2026-06-17T11:45:18.000Z</time>
        <extensions>
          <ns3:TrackPointExtension>
            <ns3:atemp>16.0</ns3:atemp>
          </ns3:TrackPointExtension>
        </extensions>
      </trkpt>
      <trkpt lat="42.51030343584716320037841796875" lon="19.8989611677825450897216796875">
        <ele>1906.5999755859375</ele>
        <time>2026-06-17T11:45:19.000Z</time>
        <extensions>
          <ns3:TrackPointExtension>
            <ns3:atemp>16.0</ns3:atemp>
          </ns3:TrackPointExtension>
        </extensions>
      </trkpt>
      <trkpt lat="42.51029505394399166107177734375" lon="19.8989668674767017364501953125">
        <ele>1906.5999755859375</ele>
        <time>2026-06-17T11:45:20.000Z</time>
        <extensions>
          <ns3:TrackPointExtension>
            <ns3:atemp>16.0</ns3:atemp>
          </ns3:TrackPointExtension>
        </extensions>
      </trkpt>
      <trkpt lat="42.5102825649082660675048828125" lon="19.8989765904843807220458984375">
        <ele>1906.4000244140625</ele>
        <time>2026-06-17T11:45:21.000Z</time>
        <extensions>
          <ns3:TrackPointExtension>
            <ns3:atemp>16.0</ns3:atemp>
          </ns3:TrackPointExtension>
        </extensions>
      </trkpt>
      <trkpt lat="42.51026772893965244293212890625" lon="19.8989832960069179534912109375">
        <ele>1906.199951171875</ele>
        <time>2026-06-17T11:45:22.000Z</time>
        <extensions>
          <ns3:TrackPointExtension>
            <ns3:atemp>16.0</ns3:atemp>
          </ns3:TrackPointExtension>
        </extensions>
      </trkpt>
      <trkpt lat="42.51023822464048862457275390625" lon="19.89899695850908756256103515625">
        <ele>1906</ele>
        <time>2026-06-17T11:45:23.000Z</time>
        <extensions>
          <ns3:TrackPointExtension>
            <ns3:atemp>16.0</ns3:atemp>
          </ns3:TrackPointExtension>
        </extensions>
      </trkpt>
      <trkpt lat="42.51021861098706722259521484375" lon="19.89901405759155750274658203125">
        <ele>1905.5999755859375</ele>
        <time>2026-06-17T11:45:24.000Z</time>
        <extensions>
          <ns3:TrackPointExtension>
            <ns3:atemp>16.0</ns3:atemp>
          </ns3:TrackPointExtension>
        </extensions>
      </trkpt>
      <trkpt lat="42.51020067371428012847900390625" lon="19.8990302346646785736083984375">
        <ele>1905.4000244140625</ele>
        <time>2026-06-17T11:45:25.000Z</time>
        <extensions>
          <ns3:TrackPointExtension>
            <ns3:atemp>16.0</ns3:atemp>
          </ns3:TrackPointExtension>
        </extensions>
      </trkpt>
      <trkpt lat="42.51018189825117588043212890625" lon="19.89904490299522876739501953125">
        <ele>1905</ele>
        <time>2026-06-17T11:45:26.000Z</time>
        <extensions>
          <ns3:TrackPointExtension>
            <ns3:atemp>16.0</ns3:atemp>
          </ns3:TrackPointExtension>
        </extensions>
      </trkpt>
      <trkpt lat="42.5101672299206256866455078125" lon="19.89906535483896732330322265625">
        <ele>1904.800048828125</ele>
        <time>2026-06-17T11:45:27.000Z</time>
        <extensions>
          <ns3:TrackPointExtension>
            <ns3:atemp>16.0</ns3:atemp>
          </ns3:TrackPointExtension>
        </extensions>
      </trkpt>
      <trkpt lat="42.51014803536236286163330078125" lon="19.89908781833946704864501953125">
        <ele>1904.5999755859375</ele>
        <time>2026-06-17T11:45:28.000Z</time>
        <extensions>
          <ns3:TrackPointExtension>
            <ns3:atemp>16.0</ns3:atemp>
          </ns3:TrackPointExtension>
        </extensions>
      </trkpt>
      <trkpt lat="42.51013420522212982177734375" lon="19.89911849610507488250732421875">
        <ele>1904.4000244140625</ele>
        <time>2026-06-17T11:45:29.000Z</time>
        <extensions>
          <ns3:TrackPointExtension>
            <ns3:atemp>16.0</ns3:atemp>
          </ns3:TrackPointExtension>
        </extensions>
      </trkpt>
      <trkpt lat="42.5101219676434993743896484375" lon="19.89914213307201862335205078125">
        <ele>1904.199951171875</ele>
        <time>2026-06-17T11:45:30.000Z</time>
        <extensions>
          <ns3:TrackPointExtension>
            <ns3:atemp>16.0</ns3:atemp>
          </ns3:TrackPointExtension>
        </extensions>
      </trkpt>
      <trkpt lat="42.5101112388074398040771484375" lon="19.89916107617318630218505859375">
        <ele>1904.199951171875</ele>
        <time>2026-06-17T11:45:31.000Z</time>
        <extensions>
          <ns3:TrackPointExtension>
            <ns3:atemp>16.0</ns3:atemp>
          </ns3:TrackPointExtension>
        </extensions>
      </trkpt>
      <trkpt lat="42.51010000705718994140625" lon="19.8991754092276096343994140625">
        <ele>1904</ele>
        <time>2026-06-17T11:45:32.000Z</time>
        <extensions>
          <ns3:TrackPointExtension>
            <ns3:atemp>16.0</ns3:atemp>
          </ns3:TrackPointExtension>
        </extensions>
      </trkpt>
      <trkpt lat="42.5100879371166229248046875" lon="19.89918421022593975067138671875">
        <ele>1904</ele>
        <time>2026-06-17T11:45:33.000Z</time>
        <extensions>
          <ns3:TrackPointExtension>
            <ns3:atemp>16.0</ns3:atemp>
          </ns3:TrackPointExtension>
        </extensions>
      </trkpt>
      <trkpt lat="42.510077543556690216064453125" lon="19.8992025665938854217529296875">
        <ele>1904</ele>
        <time>2026-06-17T11:45:34.000Z</time>
        <extensions>
          <ns3:TrackPointExtension>
            <ns3:atemp>16.0</ns3:atemp>
          </ns3:TrackPointExtension>
        </extensions>
      </trkpt>
      <trkpt lat="42.51006622798740863800048828125" lon="19.89922645501792430877685546875">
        <ele>1904</ele>
        <time>2026-06-17T11:45:35.000Z</time>
        <extensions>
          <ns3:TrackPointExtension>
            <ns3:atemp>16.0</ns3:atemp>
          </ns3:TrackPointExtension>
        </extensions>
      </trkpt>
      <trkpt lat="42.51004569232463836669921875" lon="19.8992391116917133331298828125">
        <ele>1904</ele>
        <time>2026-06-17T11:45:36.000Z</time>
        <extensions>
          <ns3:TrackPointExtension>
            <ns3:atemp>16.0</ns3:atemp>
          </ns3:TrackPointExtension>
        </extensions>
      </trkpt>
      <trkpt lat="42.5100304372608661651611328125" lon="19.89925696514546871185302734375">
        <ele>1904</ele>
        <time>2026-06-17T11:45:37.000Z</time>
        <extensions>
          <ns3:TrackPointExtension>
            <ns3:atemp>16.0</ns3:atemp>
          </ns3:TrackPointExtension>
        </extensions>
      </trkpt>
      <trkpt lat="42.51001778058707714080810546875" lon="19.8992676101624965667724609375">
        <ele>1904.199951171875</ele>
        <time>2026-06-17T11:45:38.000Z</time>
        <extensions>
          <ns3:TrackPointExtension>
            <ns3:atemp>16.0</ns3:atemp>
          </ns3:TrackPointExtension>
        </extensions>
      </trkpt>
      <trkpt lat="42.51001291908323764801025390625" lon="19.89927423186600208282470703125">
        <ele>1904.199951171875</ele>
        <time>2026-06-17T11:45:39.000Z</time>
        <extensions>
          <ns3:TrackPointExtension>
            <ns3:atemp>16.0</ns3:atemp>
          </ns3:TrackPointExtension>
        </extensions>
      </trkpt>
      <trkpt lat="42.51001057215034961700439453125" lon="19.899272136390209197998046875">
        <ele>1904.4000244140625</ele>
        <time>2026-06-17T11:45:40.000Z</time>
        <extensions>
          <ns3:TrackPointExtension>
            <ns3:atemp>16.0</ns3:atemp>
          </ns3:TrackPointExtension>
        </extensions>
      </trkpt>
      <trkpt lat="42.51001057215034961700439453125" lon="19.8992719687521457672119140625">
        <ele>1904.5999755859375</ele>
        <time>2026-06-17T11:45:41.000Z</time>
        <extensions>
          <ns3:TrackPointExtension>
            <ns3:atemp>16.0</ns3:atemp>
          </ns3:TrackPointExtension>
        </extensions>
      </trkpt>
      <trkpt lat="42.51001057215034961700439453125" lon="19.8992719687521457672119140625">
        <ele>1904.800048828125</ele>
        <time>2026-06-17T11:45:42.000Z</time>
        <extensions>
          <ns3:TrackPointExtension>
            <ns3:atemp>16.0</ns3:atemp>
          </ns3:TrackPointExtension>
        </extensions>
      </trkpt>
      <trkpt lat="42.51001057215034961700439453125" lon="19.8992719687521457672119140625">
        <ele>1904.800048828125</ele>
        <time>2026-06-17T11:45:43.000Z</time>
        <extensions>
          <ns3:TrackPointExtension>
            <ns3:atemp>16.0</ns3:atemp>
          </ns3:TrackPointExtension>
        </extensions>
      </trkpt>
      <trkpt lat="42.51001057215034961700439453125" lon="19.8992719687521457672119140625">
        <ele>1905</ele>
        <time>2026-06-17T11:45:44.000Z</time>
        <extensions>
          <ns3:TrackPointExtension>
            <ns3:atemp>16.0</ns3:atemp>
          </ns3:TrackPointExtension>
        </extensions>
      </trkpt>
      <trkpt lat="42.51001057215034961700439453125" lon="19.8992719687521457672119140625">
        <ele>1904.800048828125</ele>
        <time>2026-06-17T11:45:45.000Z</time>
        <extensions>
          <ns3:TrackPointExtension>
            <ns3:atemp>16.0</ns3:atemp>
          </ns3:TrackPointExtension>
        </extensions>
      </trkpt>
      <trkpt lat="42.51001057215034961700439453125" lon="19.8992719687521457672119140625">
        <ele>1904.800048828125</ele>
        <time>2026-06-17T11:45:46.000Z</time>
        <extensions>
          <ns3:TrackPointExtension>
            <ns3:atemp>16.0</ns3:atemp>
          </ns3:TrackPointExtension>
        </extensions>
      </trkpt>
      <trkpt lat="42.51001057215034961700439453125" lon="19.8992719687521457672119140625">
        <ele>1904.800048828125</ele>
        <time>2026-06-17T11:45:47.000Z</time>
        <extensions>
          <ns3:TrackPointExtension>
            <ns3:atemp>16.0</ns3:atemp>
          </ns3:TrackPointExtension>
        </extensions>
      </trkpt>
      <trkpt lat="42.51001057215034961700439453125" lon="19.8992719687521457672119140625">
        <ele>1904.800048828125</ele>
        <time>2026-06-17T11:45:48.000Z</time>
        <extensions>
          <ns3:TrackPointExtension>
            <ns3:atemp>16.0</ns3:atemp>
          </ns3:TrackPointExtension>
        </extensions>
      </trkpt>
      <trkpt lat="42.51001057215034961700439453125" lon="19.8992719687521457672119140625">
        <ele>1904.800048828125</ele>
        <time>2026-06-17T11:45:49.000Z</time>
        <extensions>
          <ns3:TrackPointExtension>
            <ns3:atemp>16.0</ns3:atemp>
          </ns3:TrackPointExtension>
        </extensions>
      </trkpt>
      <trkpt lat="42.51001057215034961700439453125" lon="19.8992719687521457672119140625">
        <ele>1904.800048828125</ele>
        <time>2026-06-17T11:45:50.000Z</time>
        <extensions>
          <ns3:TrackPointExtension>
            <ns3:atemp>16.0</ns3:atemp>
          </ns3:TrackPointExtension>
        </extensions>
      </trkpt>
      <trkpt lat="42.51001057215034961700439453125" lon="19.8992719687521457672119140625">
        <ele>1904.800048828125</ele>
        <time>2026-06-17T11:45:51.000Z</time>
        <extensions>
          <ns3:TrackPointExtension>
            <ns3:atemp>16.0</ns3:atemp>
          </ns3:TrackPointExtension>
        </extensions>
      </trkpt>
      <trkpt lat="42.51001057215034961700439453125" lon="19.8992719687521457672119140625">
        <ele>1904.800048828125</ele>
        <time>2026-06-17T11:45:52.000Z</time>
        <extensions>
          <ns3:TrackPointExtension>
            <ns3:atemp>16.0</ns3:atemp>
          </ns3:TrackPointExtension>
        </extensions>
      </trkpt>
      <trkpt lat="42.51001057215034961700439453125" lon="19.8992719687521457672119140625">
        <ele>1904.800048828125</ele>
        <time>2026-06-17T11:45:53.000Z</time>
        <extensions>
          <ns3:TrackPointExtension>
            <ns3:atemp>16.0</ns3:atemp>
          </ns3:TrackPointExtension>
        </extensions>
      </trkpt>
      <trkpt lat="42.51001057215034961700439453125" lon="19.8992719687521457672119140625">
        <ele>1904.800048828125</ele>
        <time>2026-06-17T11:45:54.000Z</time>
        <extensions>
          <ns3:TrackPointExtension>
            <ns3:atemp>16.0</ns3:atemp>
          </ns3:TrackPointExtension>
        </extensions>
      </trkpt>
      <trkpt lat="42.51001057215034961700439453125" lon="19.8992719687521457672119140625">
        <ele>1904.800048828125</ele>
        <time>2026-06-17T11:45:55.000Z</time>
        <extensions>
          <ns3:TrackPointExtension>
            <ns3:atemp>16.0</ns3:atemp>
          </ns3:TrackPointExtension>
        </extensions>
      </trkpt>
      <trkpt lat="42.51001057215034961700439453125" lon="19.8992719687521457672119140625">
        <ele>1904.800048828125</ele>
        <time>2026-06-17T11:45:56.000Z</time>
        <extensions>
          <ns3:TrackPointExtension>
            <ns3:atemp>16.0</ns3:atemp>
          </ns3:TrackPointExtension>
        </extensions>
      </trkpt>
      <trkpt lat="42.51001057215034961700439453125" lon="19.8992719687521457672119140625">
        <ele>1904.800048828125</ele>
        <time>2026-06-17T11:45:57.000Z</time>
        <extensions>
          <ns3:TrackPointExtension>
            <ns3:atemp>16.0</ns3:atemp>
          </ns3:TrackPointExtension>
        </extensions>
      </trkpt>
      <trkpt lat="42.51001057215034961700439453125" lon="19.8992719687521457672119140625">
        <ele>1904.800048828125</ele>
        <time>2026-06-17T11:45:58.000Z</time>
        <extensions>
          <ns3:TrackPointExtension>
            <ns3:atemp>16.0</ns3:atemp>
          </ns3:TrackPointExtension>
        </extensions>
      </trkpt>
      <trkpt lat="42.51001057215034961700439453125" lon="19.8992719687521457672119140625">
        <ele>1904.800048828125</ele>
        <time>2026-06-17T11:45:59.000Z</time>
        <extensions>
          <ns3:TrackPointExtension>
            <ns3:atemp>16.0</ns3:atemp>
          </ns3:TrackPointExtension>
        </extensions>
      </trkpt>
      <trkpt lat="42.51001057215034961700439453125" lon="19.8992719687521457672119140625">
        <ele>1904.800048828125</ele>
        <time>2026-06-17T11:46:00.000Z</time>
        <extensions>
          <ns3:TrackPointExtension>
            <ns3:atemp>16.0</ns3:atemp>
          </ns3:TrackPointExtension>
        </extensions>
      </trkpt>
      <trkpt lat="42.51001057215034961700439453125" lon="19.8992719687521457672119140625">
        <ele>1904.800048828125</ele>
        <time>2026-06-17T11:46:01.000Z</time>
        <extensions>
          <ns3:TrackPointExtension>
            <ns3:atemp>16.0</ns3:atemp>
          </ns3:TrackPointExtension>
        </extensions>
      </trkpt>
      <trkpt lat="42.51001040451228618621826171875" lon="19.899279177188873291015625">
        <ele>1904.800048828125</ele>
        <time>2026-06-17T11:46:02.000Z</time>
        <extensions>
          <ns3:TrackPointExtension>
            <ns3:atemp>16.0</ns3:atemp>
          </ns3:TrackPointExtension>
        </extensions>
      </trkpt>
      <trkpt lat="42.50999196432530879974365234375" lon="19.8992979526519775390625">
        <ele>1904.800048828125</ele>
        <time>2026-06-17T11:46:03.000Z</time>
        <extensions>
          <ns3:TrackPointExtension>
            <ns3:atemp>16.0</ns3:atemp>
          </ns3:TrackPointExtension>
        </extensions>
      </trkpt>
      <trkpt lat="42.50998090021312236785888671875" lon="19.89931010641157627105712890625">
        <ele>1904.800048828125</ele>
        <time>2026-06-17T11:46:04.000Z</time>
        <extensions>
          <ns3:TrackPointExtension>
            <ns3:atemp>16.0</ns3:atemp>
          </ns3:TrackPointExtension>
        </extensions>
      </trkpt>
      <trkpt lat="42.5099741108715534210205078125" lon="19.899320416152477264404296875">
        <ele>1904.800048828125</ele>
        <time>2026-06-17T11:46:05.000Z</time>
        <extensions>
          <ns3:TrackPointExtension>
            <ns3:atemp>16.0</ns3:atemp>
          </ns3:TrackPointExtension>
        </extensions>
      </trkpt>
      <trkpt lat="42.5099697522819042205810546875" lon="19.89933240227401256561279296875">
        <ele>1904.800048828125</ele>
        <time>2026-06-17T11:46:06.000Z</time>
        <extensions>
          <ns3:TrackPointExtension>
            <ns3:atemp>16.0</ns3:atemp>
          </ns3:TrackPointExtension>
        </extensions>
      </trkpt>
      <trkpt lat="42.50996254384517669677734375" lon="19.8993453942239284515380859375">
        <ele>1904.800048828125</ele>
        <time>2026-06-17T11:46:07.000Z</time>
        <extensions>
          <ns3:TrackPointExtension>
            <ns3:atemp>16.0</ns3:atemp>
          </ns3:TrackPointExtension>
        </extensions>
      </trkpt>
      <trkpt lat="42.50996229238808155059814453125" lon="19.89934983663260936737060546875">
        <ele>1904.800048828125</ele>
        <time>2026-06-17T11:46:08.000Z</time>
        <extensions>
          <ns3:TrackPointExtension>
            <ns3:atemp>16.0</ns3:atemp>
          </ns3:TrackPointExtension>
        </extensions>
      </trkpt>
      <trkpt lat="42.5099627114832401275634765625" lon="19.899350591003894805908203125">
        <ele>1905</ele>
        <time>2026-06-17T11:46:09.000Z</time>
        <extensions>
          <ns3:TrackPointExtension>
            <ns3:atemp>16.0</ns3:atemp>
          </ns3:TrackPointExtension>
        </extensions>
      </trkpt>
      <trkpt lat="42.5099627114832401275634765625" lon="19.899350591003894805908203125">
        <ele>1905</ele>
        <time>2026-06-17T11:46:10.000Z</time>
        <extensions>
          <ns3:TrackPointExtension>
            <ns3:atemp>16.0</ns3:atemp>
          </ns3:TrackPointExtension>
        </extensions>
      </trkpt>
      <trkpt lat="42.5099627114832401275634765625" lon="19.899350591003894805908203125">
        <ele>1905</ele>
        <time>2026-06-17T11:46:11.000Z</time>
        <extensions>
          <ns3:TrackPointExtension>
            <ns3:atemp>16.0</ns3:atemp>
          </ns3:TrackPointExtension>
        </extensions>
      </trkpt>
      <trkpt lat="42.5099627114832401275634765625" lon="19.899350591003894805908203125">
        <ele>1905.199951171875</ele>
        <time>2026-06-17T11:46:12.000Z</time>
        <extensions>
          <ns3:TrackPointExtension>
            <ns3:atemp>16.0</ns3:atemp>
          </ns3:TrackPointExtension>
        </extensions>
      </trkpt>
      <trkpt lat="42.5099627114832401275634765625" lon="19.899350591003894805908203125">
        <ele>1905.199951171875</ele>
        <time>2026-06-17T11:46:13.000Z</time>
        <extensions>
          <ns3:TrackPointExtension>
            <ns3:atemp>16.0</ns3:atemp>
          </ns3:TrackPointExtension>
        </extensions>
      </trkpt>
      <trkpt lat="42.5099627114832401275634765625" lon="19.899350591003894805908203125">
        <ele>1905.199951171875</ele>
        <time>2026-06-17T11:46:14.000Z</time>
        <extensions>
          <ns3:TrackPointExtension>
            <ns3:atemp>16.0</ns3:atemp>
          </ns3:TrackPointExtension>
        </extensions>
      </trkpt>
      <trkpt lat="42.5099627114832401275634765625" lon="19.899350591003894805908203125">
        <ele>1905</ele>
        <time>2026-06-17T11:46:15.000Z</time>
        <extensions>
          <ns3:TrackPointExtension>
            <ns3:atemp>16.0</ns3:atemp>
          </ns3:TrackPointExtension>
        </extensions>
      </trkpt>
      <trkpt lat="42.5099627114832401275634765625" lon="19.899350591003894805908203125">
        <ele>1905</ele>
        <time>2026-06-17T11:46:16.000Z</time>
        <extensions>
          <ns3:TrackPointExtension>
            <ns3:atemp>16.0</ns3:atemp>
          </ns3:TrackPointExtension>
        </extensions>
      </trkpt>
      <trkpt lat="42.5099627114832401275634765625" lon="19.899350591003894805908203125">
        <ele>1905</ele>
        <time>2026-06-17T11:46:17.000Z</time>
        <extensions>
          <ns3:TrackPointExtension>
            <ns3:atemp>16.0</ns3:atemp>
          </ns3:TrackPointExtension>
        </extensions>
      </trkpt>
      <trkpt lat="42.5099627114832401275634765625" lon="19.899350591003894805908203125">
        <ele>1905</ele>
        <time>2026-06-17T11:46:18.000Z</time>
        <extensions>
          <ns3:TrackPointExtension>
            <ns3:atemp>16.0</ns3:atemp>
          </ns3:TrackPointExtension>
        </extensions>
      </trkpt>
      <trkpt lat="42.5099627114832401275634765625" lon="19.899350591003894805908203125">
        <ele>1905</ele>
        <time>2026-06-17T11:46:19.000Z</time>
        <extensions>
          <ns3:TrackPointExtension>
            <ns3:atemp>16.0</ns3:atemp>
          </ns3:TrackPointExtension>
        </extensions>
      </trkpt>
      <trkpt lat="42.5099627114832401275634765625" lon="19.899350591003894805908203125">
        <ele>1905</ele>
        <time>2026-06-17T11:46:20.000Z</time>
        <extensions>
          <ns3:TrackPointExtension>
            <ns3:atemp>16.0</ns3:atemp>
          </ns3:TrackPointExtension>
        </extensions>
      </trkpt>
      <trkpt lat="42.50996229238808155059814453125" lon="19.8993507586419582366943359375">
        <ele>1905</ele>
        <time>2026-06-17T11:46:21.000Z</time>
        <extensions>
          <ns3:TrackPointExtension>
            <ns3:atemp>16.0</ns3:atemp>
          </ns3:TrackPointExtension>
        </extensions>
      </trkpt>
      <trkpt lat="42.5099593587219715118408203125" lon="19.89935536868870258331298828125">
        <ele>1905.199951171875</ele>
        <time>2026-06-17T11:46:22.000Z</time>
        <extensions>
          <ns3:TrackPointExtension>
            <ns3:atemp>16.0</ns3:atemp>
          </ns3:TrackPointExtension>
        </extensions>
      </trkpt>
      <trkpt lat="42.509954161942005157470703125" lon="19.899364002048969268798828125">
        <ele>1905.199951171875</ele>
        <time>2026-06-17T11:46:23.000Z</time>
        <extensions>
          <ns3:TrackPointExtension>
            <ns3:atemp>16.0</ns3:atemp>
          </ns3:TrackPointExtension>
        </extensions>
      </trkpt>
      <trkpt lat="42.50995173119008541107177734375" lon="19.8993695341050624847412109375">
        <ele>1905.199951171875</ele>
        <time>2026-06-17T11:46:24.000Z</time>
        <extensions>
          <ns3:TrackPointExtension>
            <ns3:atemp>16.0</ns3:atemp>
          </ns3:TrackPointExtension>
        </extensions>
      </trkpt>
      <trkpt lat="42.50994703732430934906005859375" lon="19.89938219077885150909423828125">
        <ele>1905.199951171875</ele>
        <time>2026-06-17T11:46:25.000Z</time>
        <extensions>
          <ns3:TrackPointExtension>
            <ns3:atemp>16.0</ns3:atemp>
          </ns3:TrackPointExtension>
        </extensions>
      </trkpt>
      <trkpt lat="42.5099415890872478485107421875" lon="19.89939518272876739501953125">
        <ele>1905.4000244140625</ele>
        <time>2026-06-17T11:46:26.000Z</time>
        <extensions>
          <ns3:TrackPointExtension>
            <ns3:atemp>16.0</ns3:atemp>
          </ns3:TrackPointExtension>
        </extensions>
      </trkpt>
      <trkpt lat="42.5099352188408374786376953125" lon="19.89940725266933441162109375">
        <ele>1905.4000244140625</ele>
        <time>2026-06-17T11:46:27.000Z</time>
        <extensions>
          <ns3:TrackPointExtension>
            <ns3:atemp>16.0</ns3:atemp>
          </ns3:TrackPointExtension>
        </extensions>
      </trkpt>
      <trkpt lat="42.5099301896989345550537109375" lon="19.89942007698118686676025390625">
        <ele>1905.5999755859375</ele>
        <time>2026-06-17T11:46:28.000Z</time>
        <extensions>
          <ns3:TrackPointExtension>
            <ns3:atemp>16.0</ns3:atemp>
          </ns3:TrackPointExtension>
        </extensions>
      </trkpt>
      <trkpt lat="42.50992625020444393157958984375" lon="19.8994231782853603363037109375">
        <ele>1905.5999755859375</ele>
        <time>2026-06-17T11:46:29.000Z</time>
        <extensions>
          <ns3:TrackPointExtension>
            <ns3:atemp>16.0</ns3:atemp>
          </ns3:TrackPointExtension>
        </extensions>
      </trkpt>
      <trkpt lat="42.5099224783480167388916015625" lon="19.8994228430092334747314453125">
        <ele>1905.5999755859375</ele>
        <time>2026-06-17T11:46:30.000Z</time>
        <extensions>
          <ns3:TrackPointExtension>
            <ns3:atemp>16.0</ns3:atemp>
          </ns3:TrackPointExtension>
        </extensions>
      </trkpt>
      <trkpt lat="42.5099224783480167388916015625" lon="19.8994228430092334747314453125">
        <ele>1905.800048828125</ele>
        <time>2026-06-17T11:46:31.000Z</time>
        <extensions>
          <ns3:TrackPointExtension>
            <ns3:atemp>16.0</ns3:atemp>
          </ns3:TrackPointExtension>
        </extensions>
      </trkpt>
      <trkpt lat="42.5099224783480167388916015625" lon="19.8994228430092334747314453125">
        <ele>1905.800048828125</ele>
        <time>2026-06-17T11:46:32.000Z</time>
        <extensions>
          <ns3:TrackPointExtension>
            <ns3:atemp>16.0</ns3:atemp>
          </ns3:TrackPointExtension>
        </extensions>
      </trkpt>
      <trkpt lat="42.5099224783480167388916015625" lon="19.8994228430092334747314453125">
        <ele>1905.800048828125</ele>
        <time>2026-06-17T11:46:33.000Z</time>
        <extensions>
          <ns3:TrackPointExtension>
            <ns3:atemp>16.0</ns3:atemp>
          </ns3:TrackPointExtension>
        </extensions>
      </trkpt>
      <trkpt lat="42.5099224783480167388916015625" lon="19.8994228430092334747314453125">
        <ele>1905.800048828125</ele>
        <time>2026-06-17T11:46:34.000Z</time>
        <extensions>
          <ns3:TrackPointExtension>
            <ns3:atemp>16.0</ns3:atemp>
          </ns3:TrackPointExtension>
        </extensions>
      </trkpt>
      <trkpt lat="42.5099224783480167388916015625" lon="19.8994228430092334747314453125">
        <ele>1906</ele>
        <time>2026-06-17T11:46:35.000Z</time>
        <extensions>
          <ns3:TrackPointExtension>
            <ns3:atemp>16.0</ns3:atemp>
          </ns3:TrackPointExtension>
        </extensions>
      </trkpt>
      <trkpt lat="42.5099224783480167388916015625" lon="19.8994228430092334747314453125">
        <ele>1906</ele>
        <time>2026-06-17T11:46:36.000Z</time>
        <extensions>
          <ns3:TrackPointExtension>
            <ns3:atemp>16.0</ns3:atemp>
          </ns3:TrackPointExtension>
        </extensions>
      </trkpt>
      <trkpt lat="42.5099224783480167388916015625" lon="19.8994228430092334747314453125">
        <ele>1906</ele>
        <time>2026-06-17T11:46:37.000Z</time>
        <extensions>
          <ns3:TrackPointExtension>
            <ns3:atemp>16.0</ns3:atemp>
          </ns3:TrackPointExtension>
        </extensions>
      </trkpt>
      <trkpt lat="42.5099224783480167388916015625" lon="19.8994228430092334747314453125">
        <ele>1906</ele>
        <time>2026-06-17T11:46:38.000Z</time>
        <extensions>
          <ns3:TrackPointExtension>
            <ns3:atemp>16.0</ns3:atemp>
          </ns3:TrackPointExtension>
        </extensions>
      </trkpt>
      <trkpt lat="42.5099224783480167388916015625" lon="19.8994228430092334747314453125">
        <ele>1906</ele>
        <time>2026-06-17T11:46:39.000Z</time>
        <extensions>
          <ns3:TrackPointExtension>
            <ns3:atemp>16.0</ns3:atemp>
          </ns3:TrackPointExtension>
        </extensions>
      </trkpt>
      <trkpt lat="42.50992222689092159271240234375" lon="19.89942275919020175933837890625">
        <ele>1906</ele>
        <time>2026-06-17T11:46:40.000Z</time>
        <extensions>
          <ns3:TrackPointExtension>
            <ns3:atemp>16.0</ns3:atemp>
          </ns3:TrackPointExtension>
        </extensions>
      </trkpt>
      <trkpt lat="42.5099161081016063690185546875" lon="19.8994298838078975677490234375">
        <ele>1906</ele>
        <time>2026-06-17T11:46:41.000Z</time>
        <extensions>
          <ns3:TrackPointExtension>
            <ns3:atemp>16.0</ns3:atemp>
          </ns3:TrackPointExtension>
        </extensions>
      </trkpt>
      <trkpt lat="42.50991292297840118408203125" lon="19.89943617023527622222900390625">
        <ele>1905.800048828125</ele>
        <time>2026-06-17T11:46:42.000Z</time>
        <extensions>
          <ns3:TrackPointExtension>
            <ns3:atemp>16.0</ns3:atemp>
          </ns3:TrackPointExtension>
        </extensions>
      </trkpt>
      <trkpt lat="42.5099107436835765838623046875" lon="19.89944186992943286895751953125">
        <ele>1905.800048828125</ele>
        <time>2026-06-17T11:46:43.000Z</time>
        <extensions>
          <ns3:TrackPointExtension>
            <ns3:atemp>16.0</ns3:atemp>
          </ns3:TrackPointExtension>
        </extensions>
      </trkpt>
      <trkpt lat="42.50991158187389373779296875" lon="19.89944371394813060760498046875">
        <ele>1905.800048828125</ele>
        <time>2026-06-17T11:46:44.000Z</time>
        <extensions>
          <ns3:TrackPointExtension>
            <ns3:atemp>16.0</ns3:atemp>
          </ns3:TrackPointExtension>
        </extensions>
      </trkpt>
      <trkpt lat="42.50991158187389373779296875" lon="19.89944388158619403839111328125">
        <ele>1905.800048828125</ele>
        <time>2026-06-17T11:46:45.000Z</time>
        <extensions>
          <ns3:TrackPointExtension>
            <ns3:atemp>16.0</ns3:atemp>
          </ns3:TrackPointExtension>
        </extensions>
      </trkpt>
      <trkpt lat="42.50991158187389373779296875" lon="19.89944388158619403839111328125">
        <ele>1905.800048828125</ele>
        <time>2026-06-17T11:46:46.000Z</time>
        <extensions>
          <ns3:TrackPointExtension>
            <ns3:atemp>16.0</ns3:atemp>
          </ns3:TrackPointExtension>
        </extensions>
      </trkpt>
      <trkpt lat="42.50991158187389373779296875" lon="19.89944388158619403839111328125">
        <ele>1905.800048828125</ele>
        <time>2026-06-17T11:46:47.000Z</time>
        <extensions>
          <ns3:TrackPointExtension>
            <ns3:atemp>16.0</ns3:atemp>
          </ns3:TrackPointExtension>
        </extensions>
      </trkpt>
      <trkpt lat="42.50991158187389373779296875" lon="19.89944388158619403839111328125">
        <ele>1905.800048828125</ele>
        <time>2026-06-17T11:46:48.000Z</time>
        <extensions>
          <ns3:TrackPointExtension>
            <ns3:atemp>16.0</ns3:atemp>
          </ns3:TrackPointExtension>
        </extensions>
      </trkpt>
      <trkpt lat="42.50991158187389373779296875" lon="19.89944388158619403839111328125">
        <ele>1905.800048828125</ele>
        <time>2026-06-17T11:46:49.000Z</time>
        <extensions>
          <ns3:TrackPointExtension>
            <ns3:atemp>16.0</ns3:atemp>
          </ns3:TrackPointExtension>
        </extensions>
      </trkpt>
      <trkpt lat="42.5099110789597034454345703125" lon="19.8994446359574794769287109375">
        <ele>1905.800048828125</ele>
        <time>2026-06-17T11:46:50.000Z</time>
        <extensions>
          <ns3:TrackPointExtension>
            <ns3:atemp>16.0</ns3:atemp>
          </ns3:TrackPointExtension>
        </extensions>
      </trkpt>
      <trkpt lat="42.50989858992397785186767578125" lon="19.89946131594479084014892578125">
        <ele>1905.800048828125</ele>
        <time>2026-06-17T11:46:51.000Z</time>
        <extensions>
          <ns3:TrackPointExtension>
            <ns3:atemp>16.0</ns3:atemp>
          </ns3:TrackPointExtension>
        </extensions>
      </trkpt>
      <trkpt lat="42.50989289022982120513916015625" lon="19.89947472698986530303955078125">
        <ele>1905.800048828125</ele>
        <time>2026-06-17T11:46:52.000Z</time>
        <extensions>
          <ns3:TrackPointExtension>
            <ns3:atemp>16.0</ns3:atemp>
          </ns3:TrackPointExtension>
        </extensions>
      </trkpt>
      <trkpt lat="42.5098916329443454742431640625" lon="19.8994758166372776031494140625">
        <ele>1905.800048828125</ele>
        <time>2026-06-17T11:46:53.000Z</time>
        <extensions>
          <ns3:TrackPointExtension>
            <ns3:atemp>16.0</ns3:atemp>
          </ns3:TrackPointExtension>
        </extensions>
      </trkpt>
      <trkpt lat="42.5098916329443454742431640625" lon="19.899475984275341033935546875">
        <ele>1905.800048828125</ele>
        <time>2026-06-17T11:46:54.000Z</time>
        <extensions>
          <ns3:TrackPointExtension>
            <ns3:atemp>16.0</ns3:atemp>
          </ns3:TrackPointExtension>
        </extensions>
      </trkpt>
      <trkpt lat="42.5098916329443454742431640625" lon="19.899475984275341033935546875">
        <ele>1905.800048828125</ele>
        <time>2026-06-17T11:46:55.000Z</time>
        <extensions>
          <ns3:TrackPointExtension>
            <ns3:atemp>16.0</ns3:atemp>
          </ns3:TrackPointExtension>
        </extensions>
      </trkpt>
      <trkpt lat="42.50989146530628204345703125" lon="19.8994761519134044647216796875">
        <ele>1905.800048828125</ele>
        <time>2026-06-17T11:46:56.000Z</time>
        <extensions>
          <ns3:TrackPointExtension>
            <ns3:atemp>16.0</ns3:atemp>
          </ns3:TrackPointExtension>
        </extensions>
      </trkpt>
      <trkpt lat="42.509884424507617950439453125" lon="19.89948813803493976593017578125">
        <ele>1905.800048828125</ele>
        <time>2026-06-17T11:46:57.000Z</time>
        <extensions>
          <ns3:TrackPointExtension>
            <ns3:atemp>16.0</ns3:atemp>
          </ns3:TrackPointExtension>
        </extensions>
      </trkpt>
      <trkpt lat="42.50987679697573184967041015625" lon="19.8995033092796802520751953125">
        <ele>1905.800048828125</ele>
        <time>2026-06-17T11:46:58.000Z</time>
        <extensions>
          <ns3:TrackPointExtension>
            <ns3:atemp>16.0</ns3:atemp>
          </ns3:TrackPointExtension>
        </extensions>
      </trkpt>
      <trkpt lat="42.509872019290924072265625" lon="19.899511523544788360595703125">
        <ele>1906</ele>
        <time>2026-06-17T11:46:59.000Z</time>
        <extensions>
          <ns3:TrackPointExtension>
            <ns3:atemp>16.0</ns3:atemp>
          </ns3:TrackPointExtension>
        </extensions>
      </trkpt>
      <trkpt lat="42.5098664872348308563232421875" lon="19.89951856434345245361328125">
        <ele>1906</ele>
        <time>2026-06-17T11:47:00.000Z</time>
        <extensions>
          <ns3:TrackPointExtension>
            <ns3:atemp>16.0</ns3:atemp>
          </ns3:TrackPointExtension>
        </extensions>
      </trkpt>
      <trkpt lat="42.5098587758839130401611328125" lon="19.89952258765697479248046875">
        <ele>1906</ele>
        <time>2026-06-17T11:47:01.000Z</time>
        <extensions>
          <ns3:TrackPointExtension>
            <ns3:atemp>16.0</ns3:atemp>
          </ns3:TrackPointExtension>
        </extensions>
      </trkpt>
      <trkpt lat="42.5098513998091220855712890625" lon="19.8995251022279262542724609375">
        <ele>1906.199951171875</ele>
        <time>2026-06-17T11:47:02.000Z</time>
        <extensions>
          <ns3:TrackPointExtension>
            <ns3:atemp>16.0</ns3:atemp>
          </ns3:TrackPointExtension>
        </extensions>
      </trkpt>
      <trkpt lat="42.50984318554401397705078125" lon="19.89952485077083110809326171875">
        <ele>1906.199951171875</ele>
        <time>2026-06-17T11:47:03.000Z</time>
        <extensions>
          <ns3:TrackPointExtension>
            <ns3:atemp>16.0</ns3:atemp>
          </ns3:TrackPointExtension>
        </extensions>
      </trkpt>
      <trkpt lat="42.509839497506618499755859375" lon="19.89952166564762592315673828125">
        <ele>1906.199951171875</ele>
        <time>2026-06-17T11:47:04.000Z</time>
        <extensions>
          <ns3:TrackPointExtension>
            <ns3:atemp>16.0</ns3:atemp>
          </ns3:TrackPointExtension>
        </extensions>
      </trkpt>
      <trkpt lat="42.5098379887640476226806640625" lon="19.89951982162892818450927734375">
        <ele>1906.199951171875</ele>
        <time>2026-06-17T11:47:05.000Z</time>
        <extensions>
          <ns3:TrackPointExtension>
            <ns3:atemp>16.0</ns3:atemp>
          </ns3:TrackPointExtension>
        </extensions>
      </trkpt>
      <trkpt lat="42.5098379887640476226806640625" lon="19.89951982162892818450927734375">
        <ele>1906.199951171875</ele>
        <time>2026-06-17T11:47:06.000Z</time>
        <extensions>
          <ns3:TrackPointExtension>
            <ns3:atemp>16.0</ns3:atemp>
          </ns3:TrackPointExtension>
        </extensions>
      </trkpt>
      <trkpt lat="42.5098379887640476226806640625" lon="19.89951982162892818450927734375">
        <ele>1906.199951171875</ele>
        <time>2026-06-17T11:47:07.000Z</time>
        <extensions>
          <ns3:TrackPointExtension>
            <ns3:atemp>16.0</ns3:atemp>
          </ns3:TrackPointExtension>
        </extensions>
      </trkpt>
      <trkpt lat="42.5098379887640476226806640625" lon="19.89951982162892818450927734375">
        <ele>1906.199951171875</ele>
        <time>2026-06-17T11:47:08.000Z</time>
        <extensions>
          <ns3:TrackPointExtension>
            <ns3:atemp>16.0</ns3:atemp>
          </ns3:TrackPointExtension>
        </extensions>
      </trkpt>
      <trkpt lat="42.5098379887640476226806640625" lon="19.89951982162892818450927734375">
        <ele>1906.199951171875</ele>
        <time>2026-06-17T11:47:09.000Z</time>
        <extensions>
          <ns3:TrackPointExtension>
            <ns3:atemp>16.0</ns3:atemp>
          </ns3:TrackPointExtension>
        </extensions>
      </trkpt>
      <trkpt lat="42.5098379887640476226806640625" lon="19.89951982162892818450927734375">
        <ele>1906.199951171875</ele>
        <time>2026-06-17T11:47:10.000Z</time>
        <extensions>
          <ns3:TrackPointExtension>
            <ns3:atemp>16.0</ns3:atemp>
          </ns3:TrackPointExtension>
        </extensions>
      </trkpt>
      <trkpt lat="42.5098383240401744842529296875" lon="19.8995204083621501922607421875">
        <ele>1906.199951171875</ele>
        <time>2026-06-17T11:47:11.000Z</time>
        <extensions>
          <ns3:TrackPointExtension>
            <ns3:atemp>16.0</ns3:atemp>
          </ns3:TrackPointExtension>
        </extensions>
      </trkpt>
      <trkpt lat="42.5098373182117938995361328125" lon="19.89952258765697479248046875">
        <ele>1906.199951171875</ele>
        <time>2026-06-17T11:47:12.000Z</time>
        <extensions>
          <ns3:TrackPointExtension>
            <ns3:atemp>16.0</ns3:atemp>
          </ns3:TrackPointExtension>
        </extensions>
      </trkpt>
      <trkpt lat="42.5098306126892566680908203125" lon="19.8995220847427845001220703125">
        <ele>1906</ele>
        <time>2026-06-17T11:47:13.000Z</time>
        <extensions>
          <ns3:TrackPointExtension>
            <ns3:atemp>16.0</ns3:atemp>
          </ns3:TrackPointExtension>
        </extensions>
      </trkpt>
      <trkpt lat="42.5098379887640476226806640625" lon="19.89951982162892818450927734375">
        <ele>1906</ele>
        <time>2026-06-17T11:47:14.000Z</time>
        <extensions>
          <ns3:TrackPointExtension>
            <ns3:atemp>16.0</ns3:atemp>
          </ns3:TrackPointExtension>
        </extensions>
      </trkpt>
      <trkpt lat="42.5098379887640476226806640625" lon="19.89951982162892818450927734375">
        <ele>1906</ele>
        <time>2026-06-17T11:47:15.000Z</time>
        <extensions>
          <ns3:TrackPointExtension>
            <ns3:atemp>16.0</ns3:atemp>
          </ns3:TrackPointExtension>
        </extensions>
      </trkpt>
      <trkpt lat="42.509825415909290313720703125" lon="19.899523258209228515625">
        <ele>1905.800048828125</ele>
        <time>2026-06-17T11:47:16.000Z</time>
        <extensions>
          <ns3:TrackPointExtension>
            <ns3:atemp>16.0</ns3:atemp>
          </ns3:TrackPointExtension>
        </extensions>
      </trkpt>
      <trkpt lat="42.5097930617630481719970703125" lon="19.8995073325932025909423828125">
        <ele>1905.800048828125</ele>
        <time>2026-06-17T11:47:17.000Z</time>
        <extensions>
          <ns3:TrackPointExtension>
            <ns3:atemp>16.0</ns3:atemp>
          </ns3:TrackPointExtension>
        </extensions>
      </trkpt>
      <trkpt lat="42.50977604649960994720458984375" lon="19.89949299953877925872802734375">
        <ele>1905.5999755859375</ele>
        <time>2026-06-17T11:47:18.000Z</time>
        <extensions>
          <ns3:TrackPointExtension>
            <ns3:atemp>16.0</ns3:atemp>
          </ns3:TrackPointExtension>
        </extensions>
      </trkpt>
      <trkpt lat="42.50976347364485263824462890625" lon="19.89948143251240253448486328125">
        <ele>1905.5999755859375</ele>
        <time>2026-06-17T11:47:19.000Z</time>
        <extensions>
          <ns3:TrackPointExtension>
            <ns3:atemp>16.0</ns3:atemp>
          </ns3:TrackPointExtension>
        </extensions>
      </trkpt>
      <trkpt lat="42.50975039787590503692626953125" lon="19.89947430789470672607421875">
        <ele>1905.4000244140625</ele>
        <time>2026-06-17T11:47:20.000Z</time>
        <extensions>
          <ns3:TrackPointExtension>
            <ns3:atemp>16.0</ns3:atemp>
          </ns3:TrackPointExtension>
        </extensions>
      </trkpt>
      <trkpt lat="42.5097467936575412750244140625" lon="19.899474643170833587646484375">
        <ele>1905.4000244140625</ele>
        <time>2026-06-17T11:47:21.000Z</time>
        <extensions>
          <ns3:TrackPointExtension>
            <ns3:atemp>16.0</ns3:atemp>
          </ns3:TrackPointExtension>
        </extensions>
      </trkpt>
      <trkpt lat="42.50974670983850955963134765625" lon="19.899474643170833587646484375">
        <ele>1905.199951171875</ele>
        <time>2026-06-17T11:47:22.000Z</time>
        <extensions>
          <ns3:TrackPointExtension>
            <ns3:atemp>16.0</ns3:atemp>
          </ns3:TrackPointExtension>
        </extensions>
      </trkpt>
      <trkpt lat="42.50974662601947784423828125" lon="19.899474643170833587646484375">
        <ele>1905.4000244140625</ele>
        <time>2026-06-17T11:47:23.000Z</time>
        <extensions>
          <ns3:TrackPointExtension>
            <ns3:atemp>16.0</ns3:atemp>
          </ns3:TrackPointExtension>
        </extensions>
      </trkpt>
      <trkpt lat="42.50973396934568881988525390625" lon="19.8994682729244232177734375">
        <ele>1905.199951171875</ele>
        <time>2026-06-17T11:47:24.000Z</time>
        <extensions>
          <ns3:TrackPointExtension>
            <ns3:atemp>16.0</ns3:atemp>
          </ns3:TrackPointExtension>
        </extensions>
      </trkpt>
      <trkpt lat="42.509726174175739288330078125" lon="19.8994627408683300018310546875">
        <ele>1905.199951171875</ele>
        <time>2026-06-17T11:47:25.000Z</time>
        <extensions>
          <ns3:TrackPointExtension>
            <ns3:atemp>16.0</ns3:atemp>
          </ns3:TrackPointExtension>
        </extensions>
      </trkpt>
      <trkpt lat="42.50971712172031402587890625" lon="19.89945678971707820892333984375">
        <ele>1905</ele>
        <time>2026-06-17T11:47:26.000Z</time>
        <extensions>
          <ns3:TrackPointExtension>
            <ns3:atemp>16.0</ns3:atemp>
          </ns3:TrackPointExtension>
        </extensions>
      </trkpt>
      <trkpt lat="42.50970630906522274017333984375" lon="19.8994553647935390472412109375">
        <ele>1904.800048828125</ele>
        <time>2026-06-17T11:47:27.000Z</time>
        <extensions>
          <ns3:TrackPointExtension>
            <ns3:atemp>16.0</ns3:atemp>
          </ns3:TrackPointExtension>
        </extensions>
      </trkpt>
      <trkpt lat="42.5096968375146389007568359375" lon="19.899454526603221893310546875">
        <ele>1904.5999755859375</ele>
        <time>2026-06-17T11:47:28.000Z</time>
        <extensions>
          <ns3:TrackPointExtension>
            <ns3:atemp>16.0</ns3:atemp>
          </ns3:TrackPointExtension>
        </extensions>
      </trkpt>
      <trkpt lat="42.50968837179243564605712890625" lon="19.89945410750806331634521484375">
        <ele>1904.4000244140625</ele>
        <time>2026-06-17T11:47:29.000Z</time>
        <extensions>
          <ns3:TrackPointExtension>
            <ns3:atemp>16.0</ns3:atemp>
          </ns3:TrackPointExtension>
        </extensions>
      </trkpt>
      <trkpt lat="42.50968233682215213775634765625" lon="19.89945880137383937835693359375">
        <ele>1904.199951171875</ele>
        <time>2026-06-17T11:47:30.000Z</time>
        <extensions>
          <ns3:TrackPointExtension>
            <ns3:atemp>16.0</ns3:atemp>
          </ns3:TrackPointExtension>
        </extensions>
      </trkpt>
      <trkpt lat="42.509671859443187713623046875" lon="19.899467267096042633056640625">
        <ele>1904</ele>
        <time>2026-06-17T11:47:31.000Z</time>
        <extensions>
          <ns3:TrackPointExtension>
            <ns3:atemp>16.0</ns3:atemp>
          </ns3:TrackPointExtension>
        </extensions>
      </trkpt>
      <trkpt lat="42.50965903513133525848388671875" lon="19.8994784988462924957275390625">
        <ele>1903.5999755859375</ele>
        <time>2026-06-17T11:47:32.000Z</time>
        <extensions>
          <ns3:TrackPointExtension>
            <ns3:atemp>16.0</ns3:atemp>
          </ns3:TrackPointExtension>
        </extensions>
      </trkpt>
      <trkpt lat="42.50965367071330547332763671875" lon="19.89948897622525691986083984375">
        <ele>1903.199951171875</ele>
        <time>2026-06-17T11:47:33.000Z</time>
        <extensions>
          <ns3:TrackPointExtension>
            <ns3:atemp>16.0</ns3:atemp>
          </ns3:TrackPointExtension>
        </extensions>
      </trkpt>
      <trkpt lat="42.50965098850429058074951171875" lon="19.8994882218539714813232421875">
        <ele>1903</ele>
        <time>2026-06-17T11:47:34.000Z</time>
        <extensions>
          <ns3:TrackPointExtension>
            <ns3:atemp>16.0</ns3:atemp>
          </ns3:TrackPointExtension>
        </extensions>
      </trkpt>
      <trkpt lat="42.50965082086622714996337890625" lon="19.8994882218539714813232421875">
        <ele>1902.800048828125</ele>
        <time>2026-06-17T11:47:35.000Z</time>
        <extensions>
          <ns3:TrackPointExtension>
            <ns3:atemp>16.0</ns3:atemp>
          </ns3:TrackPointExtension>
        </extensions>
      </trkpt>
      <trkpt lat="42.50965082086622714996337890625" lon="19.8994882218539714813232421875">
        <ele>1902.5999755859375</ele>
        <time>2026-06-17T11:47:36.000Z</time>
        <extensions>
          <ns3:TrackPointExtension>
            <ns3:atemp>16.0</ns3:atemp>
          </ns3:TrackPointExtension>
        </extensions>
      </trkpt>
      <trkpt lat="42.50965065322816371917724609375" lon="19.899488389492034912109375">
        <ele>1902.4000244140625</ele>
        <time>2026-06-17T11:47:37.000Z</time>
        <extensions>
          <ns3:TrackPointExtension>
            <ns3:atemp>16.0</ns3:atemp>
          </ns3:TrackPointExtension>
        </extensions>
      </trkpt>
      <trkpt lat="42.50963171012699604034423828125" lon="19.89948344416916370391845703125">
        <ele>1902.199951171875</ele>
        <time>2026-06-17T11:47:38.000Z</time>
        <extensions>
          <ns3:TrackPointExtension>
            <ns3:atemp>16.0</ns3:atemp>
          </ns3:TrackPointExtension>
        </extensions>
      </trkpt>
      <trkpt lat="42.50962131656706333160400390625" lon="19.8994774930179119110107421875">
        <ele>1902.199951171875</ele>
        <time>2026-06-17T11:47:39.000Z</time>
        <extensions>
          <ns3:TrackPointExtension>
            <ns3:atemp>16.0</ns3:atemp>
          </ns3:TrackPointExtension>
        </extensions>
      </trkpt>
      <trkpt lat="42.50961176119744777679443359375" lon="19.89946852438151836395263671875">
        <ele>1902</ele>
        <time>2026-06-17T11:47:40.000Z</time>
        <extensions>
          <ns3:TrackPointExtension>
            <ns3:atemp>16.0</ns3:atemp>
          </ns3:TrackPointExtension>
        </extensions>
      </trkpt>
      <trkpt lat="42.50960656441748142242431640625" lon="19.89946064539253711700439453125">
        <ele>1901.800048828125</ele>
        <time>2026-06-17T11:47:41.000Z</time>
        <extensions>
          <ns3:TrackPointExtension>
            <ns3:atemp>16.0</ns3:atemp>
          </ns3:TrackPointExtension>
        </extensions>
      </trkpt>
      <trkpt lat="42.50959130935370922088623046875" lon="19.89945360459387302398681640625">
        <ele>1901.5999755859375</ele>
        <time>2026-06-17T11:47:42.000Z</time>
        <extensions>
          <ns3:TrackPointExtension>
            <ns3:atemp>16.0</ns3:atemp>
          </ns3:TrackPointExtension>
        </extensions>
      </trkpt>
      <trkpt lat="42.50957689248025417327880859375" lon="19.8994483239948749542236328125">
        <ele>1901.4000244140625</ele>
        <time>2026-06-17T11:47:43.000Z</time>
        <extensions>
          <ns3:TrackPointExtension>
            <ns3:atemp>16.0</ns3:atemp>
          </ns3:TrackPointExtension>
        </extensions>
      </trkpt>
      <trkpt lat="42.509573288261890411376953125" lon="19.89944974891841411590576171875">
        <ele>1901.199951171875</ele>
        <time>2026-06-17T11:47:44.000Z</time>
        <extensions>
          <ns3:TrackPointExtension>
            <ns3:atemp>16.0</ns3:atemp>
          </ns3:TrackPointExtension>
        </extensions>
      </trkpt>
      <trkpt lat="42.50957320444285869598388671875" lon="19.8994496650993824005126953125">
        <ele>1901</ele>
        <time>2026-06-17T11:47:45.000Z</time>
        <extensions>
          <ns3:TrackPointExtension>
            <ns3:atemp>16.0</ns3:atemp>
          </ns3:TrackPointExtension>
        </extensions>
      </trkpt>
      <trkpt lat="42.50956901349127292633056640625" lon="19.89945008419454097747802734375">
        <ele>1900.800048828125</ele>
        <time>2026-06-17T11:47:46.000Z</time>
        <extensions>
          <ns3:TrackPointExtension>
            <ns3:atemp>16.0</ns3:atemp>
          </ns3:TrackPointExtension>
        </extensions>
      </trkpt>
      <trkpt lat="42.5095702707767486572265625" lon="19.89945016801357269287109375">
        <ele>1900.5999755859375</ele>
        <time>2026-06-17T11:47:47.000Z</time>
        <extensions>
          <ns3:TrackPointExtension>
            <ns3:atemp>16.0</ns3:atemp>
          </ns3:TrackPointExtension>
        </extensions>
      </trkpt>
      <trkpt lat="42.5095702707767486572265625" lon="19.89945016801357269287109375">
        <ele>1900.5999755859375</ele>
        <time>2026-06-17T11:47:48.000Z</time>
        <extensions>
          <ns3:TrackPointExtension>
            <ns3:atemp>16.0</ns3:atemp>
          </ns3:TrackPointExtension>
        </extensions>
      </trkpt>
      <trkpt lat="42.5095702707767486572265625" lon="19.89945016801357269287109375">
        <ele>1900.5999755859375</ele>
        <time>2026-06-17T11:47:49.000Z</time>
        <extensions>
          <ns3:TrackPointExtension>
            <ns3:atemp>16.0</ns3:atemp>
          </ns3:TrackPointExtension>
        </extensions>
      </trkpt>
      <trkpt lat="42.5095702707767486572265625" lon="19.89945016801357269287109375">
        <ele>1900.4000244140625</ele>
        <time>2026-06-17T11:47:50.000Z</time>
        <extensions>
          <ns3:TrackPointExtension>
            <ns3:atemp>16.0</ns3:atemp>
          </ns3:TrackPointExtension>
        </extensions>
      </trkpt>
      <trkpt lat="42.5095702707767486572265625" lon="19.89945016801357269287109375">
        <ele>1900.4000244140625</ele>
        <time>2026-06-17T11:47:51.000Z</time>
        <extensions>
          <ns3:TrackPointExtension>
            <ns3:atemp>16.0</ns3:atemp>
          </ns3:TrackPointExtension>
        </extensions>
      </trkpt>
      <trkpt lat="42.5095702707767486572265625" lon="19.89945016801357269287109375">
        <ele>1900.4000244140625</ele>
        <time>2026-06-17T11:47:52.000Z</time>
        <extensions>
          <ns3:TrackPointExtension>
            <ns3:atemp>16.0</ns3:atemp>
          </ns3:TrackPointExtension>
        </extensions>
      </trkpt>
      <trkpt lat="42.5095702707767486572265625" lon="19.89945016801357269287109375">
        <ele>1900.4000244140625</ele>
        <time>2026-06-17T11:47:53.000Z</time>
        <extensions>
          <ns3:TrackPointExtension>
            <ns3:atemp>16.0</ns3:atemp>
          </ns3:TrackPointExtension>
        </extensions>
      </trkpt>
      <trkpt lat="42.5095702707767486572265625" lon="19.89945016801357269287109375">
        <ele>1900.4000244140625</ele>
        <time>2026-06-17T11:47:54.000Z</time>
        <extensions>
          <ns3:TrackPointExtension>
            <ns3:atemp>16.0</ns3:atemp>
          </ns3:TrackPointExtension>
        </extensions>
      </trkpt>
      <trkpt lat="42.5095702707767486572265625" lon="19.89945016801357269287109375">
        <ele>1900.199951171875</ele>
        <time>2026-06-17T11:47:55.000Z</time>
        <extensions>
          <ns3:TrackPointExtension>
            <ns3:atemp>16.0</ns3:atemp>
          </ns3:TrackPointExtension>
        </extensions>
      </trkpt>
      <trkpt lat="42.5095702707767486572265625" lon="19.89945016801357269287109375">
        <ele>1900.199951171875</ele>
        <time>2026-06-17T11:47:56.000Z</time>
        <extensions>
          <ns3:TrackPointExtension>
            <ns3:atemp>16.0</ns3:atemp>
          </ns3:TrackPointExtension>
        </extensions>
      </trkpt>
      <trkpt lat="42.5095702707767486572265625" lon="19.89945016801357269287109375">
        <ele>1900.199951171875</ele>
        <time>2026-06-17T11:47:57.000Z</time>
        <extensions>
          <ns3:TrackPointExtension>
            <ns3:atemp>16.0</ns3:atemp>
          </ns3:TrackPointExtension>
        </extensions>
      </trkpt>
      <trkpt lat="42.5095702707767486572265625" lon="19.89945016801357269287109375">
        <ele>1900.199951171875</ele>
        <time>2026-06-17T11:47:58.000Z</time>
        <extensions>
          <ns3:TrackPointExtension>
            <ns3:atemp>16.0</ns3:atemp>
          </ns3:TrackPointExtension>
        </extensions>
      </trkpt>
      <trkpt lat="42.5095702707767486572265625" lon="19.89945016801357269287109375">
        <ele>1900.199951171875</ele>
        <time>2026-06-17T11:47:59.000Z</time>
        <extensions>
          <ns3:TrackPointExtension>
            <ns3:atemp>16.0</ns3:atemp>
          </ns3:TrackPointExtension>
        </extensions>
      </trkpt>
      <trkpt lat="42.5095702707767486572265625" lon="19.89945016801357269287109375">
        <ele>1900.4000244140625</ele>
        <time>2026-06-17T11:48:00.000Z</time>
        <extensions>
          <ns3:TrackPointExtension>
            <ns3:atemp>16.0</ns3:atemp>
          </ns3:TrackPointExtension>
        </extensions>
      </trkpt>
      <trkpt lat="42.5095702707767486572265625" lon="19.89945016801357269287109375">
        <ele>1900.4000244140625</ele>
        <time>2026-06-17T11:48:01.000Z</time>
        <extensions>
          <ns3:TrackPointExtension>
            <ns3:atemp>16.0</ns3:atemp>
          </ns3:TrackPointExtension>
        </extensions>
      </trkpt>
      <trkpt lat="42.5095702707767486572265625" lon="19.89945016801357269287109375">
        <ele>1900.4000244140625</ele>
        <time>2026-06-17T11:48:02.000Z</time>
        <extensions>
          <ns3:TrackPointExtension>
            <ns3:atemp>16.0</ns3:atemp>
          </ns3:TrackPointExtension>
        </extensions>
      </trkpt>
      <trkpt lat="42.5095702707767486572265625" lon="19.89945016801357269287109375">
        <ele>1900.4000244140625</ele>
        <time>2026-06-17T11:48:03.000Z</time>
        <extensions>
          <ns3:TrackPointExtension>
            <ns3:atemp>16.0</ns3:atemp>
          </ns3:TrackPointExtension>
        </extensions>
      </trkpt>
      <trkpt lat="42.5095702707767486572265625" lon="19.89945016801357269287109375">
        <ele>1900.4000244140625</ele>
        <time>2026-06-17T11:48:04.000Z</time>
        <extensions>
          <ns3:TrackPointExtension>
            <ns3:atemp>16.0</ns3:atemp>
          </ns3:TrackPointExtension>
        </extensions>
      </trkpt>
      <trkpt lat="42.50957119278609752655029296875" lon="19.8994503356516361236572265625">
        <ele>1900.4000244140625</ele>
        <time>2026-06-17T11:48:05.000Z</time>
        <extensions>
          <ns3:TrackPointExtension>
            <ns3:atemp>16.0</ns3:atemp>
          </ns3:TrackPointExtension>
        </extensions>
      </trkpt>
      <trkpt lat="42.50956599600613117218017578125" lon="19.89944438450038433074951171875">
        <ele>1900.4000244140625</ele>
        <time>2026-06-17T11:48:06.000Z</time>
        <extensions>
          <ns3:TrackPointExtension>
            <ns3:atemp>16.0</ns3:atemp>
          </ns3:TrackPointExtension>
        </extensions>
      </trkpt>
      <trkpt lat="42.5095553509891033172607421875" lon="19.8994414508342742919921875">
        <ele>1900.4000244140625</ele>
        <time>2026-06-17T11:48:07.000Z</time>
        <extensions>
          <ns3:TrackPointExtension>
            <ns3:atemp>16.0</ns3:atemp>
          </ns3:TrackPointExtension>
        </extensions>
      </trkpt>
      <trkpt lat="42.509541772305965423583984375" lon="19.89944212138652801513671875">
        <ele>1900.199951171875</ele>
        <time>2026-06-17T11:48:08.000Z</time>
        <extensions>
          <ns3:TrackPointExtension>
            <ns3:atemp>16.0</ns3:atemp>
          </ns3:TrackPointExtension>
        </extensions>
      </trkpt>
      <trkpt lat="42.5095285288989543914794921875" lon="19.89944840781390666961669921875">
        <ele>1900</ele>
        <time>2026-06-17T11:48:09.000Z</time>
        <extensions>
          <ns3:TrackPointExtension>
            <ns3:atemp>16.0</ns3:atemp>
          </ns3:TrackPointExtension>
        </extensions>
      </trkpt>
      <trkpt lat="42.509517632424831390380859375" lon="19.8994503356516361236572265625">
        <ele>1899.800048828125</ele>
        <time>2026-06-17T11:48:10.000Z</time>
        <extensions>
          <ns3:TrackPointExtension>
            <ns3:atemp>16.0</ns3:atemp>
          </ns3:TrackPointExtension>
        </extensions>
      </trkpt>
      <trkpt lat="42.50950933434069156646728515625" lon="19.89945008419454097747802734375">
        <ele>1899.5999755859375</ele>
        <time>2026-06-17T11:48:11.000Z</time>
        <extensions>
          <ns3:TrackPointExtension>
            <ns3:atemp>16.0</ns3:atemp>
          </ns3:TrackPointExtension>
        </extensions>
      </trkpt>
      <trkpt lat="42.50949759967625141143798828125" lon="19.899441786110401153564453125">
        <ele>1899.4000244140625</ele>
        <time>2026-06-17T11:48:12.000Z</time>
        <extensions>
          <ns3:TrackPointExtension>
            <ns3:atemp>16.0</ns3:atemp>
          </ns3:TrackPointExtension>
        </extensions>
      </trkpt>
      <trkpt lat="42.50949592329561710357666015625" lon="19.89943499676883220672607421875">
        <ele>1899.199951171875</ele>
        <time>2026-06-17T11:48:13.000Z</time>
        <extensions>
          <ns3:TrackPointExtension>
            <ns3:atemp>16.0</ns3:atemp>
          </ns3:TrackPointExtension>
        </extensions>
      </trkpt>
      <trkpt lat="42.50949894078075885772705078125" lon="19.899436421692371368408203125">
        <ele>1899</ele>
        <time>2026-06-17T11:48:14.000Z</time>
        <extensions>
          <ns3:TrackPointExtension>
            <ns3:atemp>16.0</ns3:atemp>
          </ns3:TrackPointExtension>
        </extensions>
      </trkpt>
      <trkpt lat="42.5094983540475368499755859375" lon="19.8994382657110691070556640625">
        <ele>1898.800048828125</ele>
        <time>2026-06-17T11:48:15.000Z</time>
        <extensions>
          <ns3:TrackPointExtension>
            <ns3:atemp>16.0</ns3:atemp>
          </ns3:TrackPointExtension>
        </extensions>
      </trkpt>
      <trkpt lat="42.50949340872466564178466796875" lon="19.8994349129498004913330078125">
        <ele>1898.5999755859375</ele>
        <time>2026-06-17T11:48:16.000Z</time>
        <extensions>
          <ns3:TrackPointExtension>
            <ns3:atemp>16.0</ns3:atemp>
          </ns3:TrackPointExtension>
        </extensions>
      </trkpt>
      <trkpt lat="42.5094830989837646484375" lon="19.8994345776736736297607421875">
        <ele>1898.5999755859375</ele>
        <time>2026-06-17T11:48:17.000Z</time>
        <extensions>
          <ns3:TrackPointExtension>
            <ns3:atemp>16.0</ns3:atemp>
          </ns3:TrackPointExtension>
        </extensions>
      </trkpt>
      <trkpt lat="42.509471364319324493408203125" lon="19.8994375951588153839111328125">
        <ele>1898.4000244140625</ele>
        <time>2026-06-17T11:48:18.000Z</time>
        <extensions>
          <ns3:TrackPointExtension>
            <ns3:atemp>16.0</ns3:atemp>
          </ns3:TrackPointExtension>
        </extensions>
      </trkpt>
      <trkpt lat="42.50946055166423320770263671875" lon="19.89944203756749629974365234375">
        <ele>1898.4000244140625</ele>
        <time>2026-06-17T11:48:19.000Z</time>
        <extensions>
          <ns3:TrackPointExtension>
            <ns3:atemp>16.0</ns3:atemp>
          </ns3:TrackPointExtension>
        </extensions>
      </trkpt>
      <trkpt lat="42.50944554805755615234375" lon="19.8994513414800167083740234375">
        <ele>1898.199951171875</ele>
        <time>2026-06-17T11:48:20.000Z</time>
        <extensions>
          <ns3:TrackPointExtension>
            <ns3:atemp>16.0</ns3:atemp>
          </ns3:TrackPointExtension>
        </extensions>
      </trkpt>
      <trkpt lat="42.50942685641348361968994140625" lon="19.89945796318352222442626953125">
        <ele>1898</ele>
        <time>2026-06-17T11:48:21.000Z</time>
        <extensions>
          <ns3:TrackPointExtension>
            <ns3:atemp>16.0</ns3:atemp>
          </ns3:TrackPointExtension>
        </extensions>
      </trkpt>
      <trkpt lat="42.5094131939113140106201171875" lon="19.89947187714278697967529296875">
        <ele>1897.800048828125</ele>
        <time>2026-06-17T11:48:22.000Z</time>
        <extensions>
          <ns3:TrackPointExtension>
            <ns3:atemp>16.0</ns3:atemp>
          </ns3:TrackPointExtension>
        </extensions>
      </trkpt>
      <trkpt lat="42.50939869321882724761962890625" lon="19.89949283190071582794189453125">
        <ele>1897.800048828125</ele>
        <time>2026-06-17T11:48:23.000Z</time>
        <extensions>
          <ns3:TrackPointExtension>
            <ns3:atemp>16.0</ns3:atemp>
          </ns3:TrackPointExtension>
        </extensions>
      </trkpt>
      <trkpt lat="42.50939031131565570831298828125" lon="19.89951311610639095306396484375">
        <ele>1897.5999755859375</ele>
        <time>2026-06-17T11:48:24.000Z</time>
        <extensions>
          <ns3:TrackPointExtension>
            <ns3:atemp>16.0</ns3:atemp>
          </ns3:TrackPointExtension>
        </extensions>
      </trkpt>
      <trkpt lat="42.50938913784921169281005859375" lon="19.89952099509537220001220703125">
        <ele>1897.5999755859375</ele>
        <time>2026-06-17T11:48:25.000Z</time>
        <extensions>
          <ns3:TrackPointExtension>
            <ns3:atemp>16.0</ns3:atemp>
          </ns3:TrackPointExtension>
        </extensions>
      </trkpt>
      <trkpt lat="42.50938964076340198516845703125" lon="19.89952317439019680023193359375">
        <ele>1897.4000244140625</ele>
        <time>2026-06-17T11:48:26.000Z</time>
        <extensions>
          <ns3:TrackPointExtension>
            <ns3:atemp>16.0</ns3:atemp>
          </ns3:TrackPointExtension>
        </extensions>
      </trkpt>
      <trkpt lat="42.509389556944370269775390625" lon="19.89952334202826023101806640625">
        <ele>1897.4000244140625</ele>
        <time>2026-06-17T11:48:27.000Z</time>
        <extensions>
          <ns3:TrackPointExtension>
            <ns3:atemp>16.0</ns3:atemp>
          </ns3:TrackPointExtension>
        </extensions>
      </trkpt>
      <trkpt lat="42.5093893893063068389892578125" lon="19.89952350966632366180419921875">
        <ele>1897.4000244140625</ele>
        <time>2026-06-17T11:48:28.000Z</time>
        <extensions>
          <ns3:TrackPointExtension>
            <ns3:atemp>16.0</ns3:atemp>
          </ns3:TrackPointExtension>
        </extensions>
      </trkpt>
      <trkpt lat="42.50937706790864467620849609375" lon="19.89953868091106414794921875">
        <ele>1897.4000244140625</ele>
        <time>2026-06-17T11:48:29.000Z</time>
        <extensions>
          <ns3:TrackPointExtension>
            <ns3:atemp>16.0</ns3:atemp>
          </ns3:TrackPointExtension>
        </extensions>
      </trkpt>
      <trkpt lat="42.50936835072934627532958984375" lon="19.89953423850238323211669921875">
        <ele>1897.4000244140625</ele>
        <time>2026-06-17T11:48:30.000Z</time>
        <extensions>
          <ns3:TrackPointExtension>
            <ns3:atemp>16.0</ns3:atemp>
          </ns3:TrackPointExtension>
        </extensions>
      </trkpt>
      <trkpt lat="42.50936172902584075927734375" lon="19.89952568896114826202392578125">
        <ele>1897.199951171875</ele>
        <time>2026-06-17T11:48:31.000Z</time>
        <extensions>
          <ns3:TrackPointExtension>
            <ns3:atemp>16.0</ns3:atemp>
          </ns3:TrackPointExtension>
        </extensions>
      </trkpt>
      <trkpt lat="42.50935368239879608154296875" lon="19.89951160736382007598876953125">
        <ele>1897.199951171875</ele>
        <time>2026-06-17T11:48:32.000Z</time>
        <extensions>
          <ns3:TrackPointExtension>
            <ns3:atemp>16.0</ns3:atemp>
          </ns3:TrackPointExtension>
        </extensions>
      </trkpt>
      <trkpt lat="42.50934789888560771942138671875" lon="19.89950020797550678253173828125">
        <ele>1897</ele>
        <time>2026-06-17T11:48:33.000Z</time>
        <extensions>
          <ns3:TrackPointExtension>
            <ns3:atemp>16.0</ns3:atemp>
          </ns3:TrackPointExtension>
        </extensions>
      </trkpt>
      <trkpt lat="42.509341947734355926513671875" lon="19.89948931150138378143310546875">
        <ele>1897</ele>
        <time>2026-06-17T11:48:34.000Z</time>
        <extensions>
          <ns3:TrackPointExtension>
            <ns3:atemp>16.0</ns3:atemp>
          </ns3:TrackPointExtension>
        </extensions>
      </trkpt>
      <trkpt lat="42.509340606629848480224609375" lon="19.8994841985404491424560546875">
        <ele>1897</ele>
        <time>2026-06-17T11:48:35.000Z</time>
        <extensions>
          <ns3:TrackPointExtension>
            <ns3:atemp>16.0</ns3:atemp>
          </ns3:TrackPointExtension>
        </extensions>
      </trkpt>
      <trkpt lat="42.50934119336307048797607421875" lon="19.89948646165430545806884765625">
        <ele>1896.800048828125</ele>
        <time>2026-06-17T11:48:36.000Z</time>
        <extensions>
          <ns3:TrackPointExtension>
            <ns3:atemp>16.0</ns3:atemp>
          </ns3:TrackPointExtension>
        </extensions>
      </trkpt>
      <trkpt lat="42.509341277182102203369140625" lon="19.8994865454733371734619140625">
        <ele>1896.800048828125</ele>
        <time>2026-06-17T11:48:37.000Z</time>
        <extensions>
          <ns3:TrackPointExtension>
            <ns3:atemp>16.0</ns3:atemp>
          </ns3:TrackPointExtension>
        </extensions>
      </trkpt>
      <trkpt lat="42.509341277182102203369140625" lon="19.8994865454733371734619140625">
        <ele>1896.800048828125</ele>
        <time>2026-06-17T11:48:38.000Z</time>
        <extensions>
          <ns3:TrackPointExtension>
            <ns3:atemp>16.0</ns3:atemp>
          </ns3:TrackPointExtension>
        </extensions>
      </trkpt>
      <trkpt lat="42.509341277182102203369140625" lon="19.8994865454733371734619140625">
        <ele>1896.800048828125</ele>
        <time>2026-06-17T11:48:39.000Z</time>
        <extensions>
          <ns3:TrackPointExtension>
            <ns3:atemp>16.0</ns3:atemp>
          </ns3:TrackPointExtension>
        </extensions>
      </trkpt>
      <trkpt lat="42.509341277182102203369140625" lon="19.8994865454733371734619140625">
        <ele>1896.800048828125</ele>
        <time>2026-06-17T11:48:40.000Z</time>
        <extensions>
          <ns3:TrackPointExtension>
            <ns3:atemp>16.0</ns3:atemp>
          </ns3:TrackPointExtension>
        </extensions>
      </trkpt>
      <trkpt lat="42.509341277182102203369140625" lon="19.8994865454733371734619140625">
        <ele>1896.800048828125</ele>
        <time>2026-06-17T11:48:41.000Z</time>
        <extensions>
          <ns3:TrackPointExtension>
            <ns3:atemp>16.0</ns3:atemp>
          </ns3:TrackPointExtension>
        </extensions>
      </trkpt>
      <trkpt lat="42.509341277182102203369140625" lon="19.8994865454733371734619140625">
        <ele>1896.800048828125</ele>
        <time>2026-06-17T11:48:42.000Z</time>
        <extensions>
          <ns3:TrackPointExtension>
            <ns3:atemp>16.0</ns3:atemp>
          </ns3:TrackPointExtension>
        </extensions>
      </trkpt>
      <trkpt lat="42.509341277182102203369140625" lon="19.8994865454733371734619140625">
        <ele>1896.800048828125</ele>
        <time>2026-06-17T11:48:43.000Z</time>
        <extensions>
          <ns3:TrackPointExtension>
            <ns3:atemp>16.0</ns3:atemp>
          </ns3:TrackPointExtension>
        </extensions>
      </trkpt>
      <trkpt lat="42.509341277182102203369140625" lon="19.8994865454733371734619140625">
        <ele>1896.800048828125</ele>
        <time>2026-06-17T11:48:44.000Z</time>
        <extensions>
          <ns3:TrackPointExtension>
            <ns3:atemp>16.0</ns3:atemp>
          </ns3:TrackPointExtension>
        </extensions>
      </trkpt>
      <trkpt lat="42.509341277182102203369140625" lon="19.8994865454733371734619140625">
        <ele>1896.800048828125</ele>
        <time>2026-06-17T11:48:45.000Z</time>
        <extensions>
          <ns3:TrackPointExtension>
            <ns3:atemp>16.0</ns3:atemp>
          </ns3:TrackPointExtension>
        </extensions>
      </trkpt>
      <trkpt lat="42.509341277182102203369140625" lon="19.8994865454733371734619140625">
        <ele>1896.800048828125</ele>
        <time>2026-06-17T11:48:46.000Z</time>
        <extensions>
          <ns3:TrackPointExtension>
            <ns3:atemp>16.0</ns3:atemp>
          </ns3:TrackPointExtension>
        </extensions>
      </trkpt>
      <trkpt lat="42.509341277182102203369140625" lon="19.8994865454733371734619140625">
        <ele>1896.800048828125</ele>
        <time>2026-06-17T11:48:47.000Z</time>
        <extensions>
          <ns3:TrackPointExtension>
            <ns3:atemp>16.0</ns3:atemp>
          </ns3:TrackPointExtension>
        </extensions>
      </trkpt>
      <trkpt lat="42.509341277182102203369140625" lon="19.8994865454733371734619140625">
        <ele>1896.800048828125</ele>
        <time>2026-06-17T11:48:48.000Z</time>
        <extensions>
          <ns3:TrackPointExtension>
            <ns3:atemp>16.0</ns3:atemp>
          </ns3:TrackPointExtension>
        </extensions>
      </trkpt>
      <trkpt lat="42.509341277182102203369140625" lon="19.8994865454733371734619140625">
        <ele>1896.800048828125</ele>
        <time>2026-06-17T11:48:49.000Z</time>
        <extensions>
          <ns3:TrackPointExtension>
            <ns3:atemp>16.0</ns3:atemp>
          </ns3:TrackPointExtension>
        </extensions>
      </trkpt>
      <trkpt lat="42.509341277182102203369140625" lon="19.8994865454733371734619140625">
        <ele>1896.800048828125</ele>
        <time>2026-06-17T11:48:50.000Z</time>
        <extensions>
          <ns3:TrackPointExtension>
            <ns3:atemp>16.0</ns3:atemp>
          </ns3:TrackPointExtension>
        </extensions>
      </trkpt>
      <trkpt lat="42.509341277182102203369140625" lon="19.8994865454733371734619140625">
        <ele>1896.800048828125</ele>
        <time>2026-06-17T11:48:51.000Z</time>
        <extensions>
          <ns3:TrackPointExtension>
            <ns3:atemp>16.0</ns3:atemp>
          </ns3:TrackPointExtension>
        </extensions>
      </trkpt>
      <trkpt lat="42.509341277182102203369140625" lon="19.8994865454733371734619140625">
        <ele>1896.800048828125</ele>
        <time>2026-06-17T11:48:52.000Z</time>
        <extensions>
          <ns3:TrackPointExtension>
            <ns3:atemp>16.0</ns3:atemp>
          </ns3:TrackPointExtension>
        </extensions>
      </trkpt>
      <trkpt lat="42.509341277182102203369140625" lon="19.8994865454733371734619140625">
        <ele>1896.800048828125</ele>
        <time>2026-06-17T11:48:53.000Z</time>
        <extensions>
          <ns3:TrackPointExtension>
            <ns3:atemp>16.0</ns3:atemp>
          </ns3:TrackPointExtension>
        </extensions>
      </trkpt>
      <trkpt lat="42.509341277182102203369140625" lon="19.8994865454733371734619140625">
        <ele>1896.800048828125</ele>
        <time>2026-06-17T11:48:54.000Z</time>
        <extensions>
          <ns3:TrackPointExtension>
            <ns3:atemp>16.0</ns3:atemp>
          </ns3:TrackPointExtension>
        </extensions>
      </trkpt>
      <trkpt lat="42.509341277182102203369140625" lon="19.8994865454733371734619140625">
        <ele>1896.800048828125</ele>
        <time>2026-06-17T11:48:55.000Z</time>
        <extensions>
          <ns3:TrackPointExtension>
            <ns3:atemp>16.0</ns3:atemp>
          </ns3:TrackPointExtension>
        </extensions>
      </trkpt>
      <trkpt lat="42.509341277182102203369140625" lon="19.8994865454733371734619140625">
        <ele>1896.800048828125</ele>
        <time>2026-06-17T11:48:56.000Z</time>
        <extensions>
          <ns3:TrackPointExtension>
            <ns3:atemp>16.0</ns3:atemp>
          </ns3:TrackPointExtension>
        </extensions>
      </trkpt>
      <trkpt lat="42.509341277182102203369140625" lon="19.8994865454733371734619140625">
        <ele>1896.800048828125</ele>
        <time>2026-06-17T11:48:57.000Z</time>
        <extensions>
          <ns3:TrackPointExtension>
            <ns3:atemp>16.0</ns3:atemp>
          </ns3:TrackPointExtension>
        </extensions>
      </trkpt>
      <trkpt lat="42.509341277182102203369140625" lon="19.8994865454733371734619140625">
        <ele>1896.800048828125</ele>
        <time>2026-06-17T11:48:58.000Z</time>
        <extensions>
          <ns3:TrackPointExtension>
            <ns3:atemp>16.0</ns3:atemp>
          </ns3:TrackPointExtension>
        </extensions>
      </trkpt>
      <trkpt lat="42.509341277182102203369140625" lon="19.8994865454733371734619140625">
        <ele>1897</ele>
        <time>2026-06-17T11:48:59.000Z</time>
        <extensions>
          <ns3:TrackPointExtension>
            <ns3:atemp>16.0</ns3:atemp>
          </ns3:TrackPointExtension>
        </extensions>
      </trkpt>
      <trkpt lat="42.5093424506485462188720703125" lon="19.89949065260589122772216796875">
        <ele>1897</ele>
        <time>2026-06-17T11:49:00.000Z</time>
        <extensions>
          <ns3:TrackPointExtension>
            <ns3:atemp>16.0</ns3:atemp>
          </ns3:TrackPointExtension>
        </extensions>
      </trkpt>
      <trkpt lat="42.50933113507926464080810546875" lon="19.89948545582592487335205078125">
        <ele>1897</ele>
        <time>2026-06-17T11:49:01.000Z</time>
        <extensions>
          <ns3:TrackPointExtension>
            <ns3:atemp>16.0</ns3:atemp>
          </ns3:TrackPointExtension>
        </extensions>
      </trkpt>
      <trkpt lat="42.50931906513869762420654296875" lon="19.89947875030338764190673828125">
        <ele>1896.800048828125</ele>
        <time>2026-06-17T11:49:02.000Z</time>
        <extensions>
          <ns3:TrackPointExtension>
            <ns3:atemp>16.0</ns3:atemp>
          </ns3:TrackPointExtension>
        </extensions>
      </trkpt>
      <trkpt lat="42.50931487418711185455322265625" lon="19.89947187714278697967529296875">
        <ele>1896.800048828125</ele>
        <time>2026-06-17T11:49:03.000Z</time>
        <extensions>
          <ns3:TrackPointExtension>
            <ns3:atemp>16.0</ns3:atemp>
          </ns3:TrackPointExtension>
        </extensions>
      </trkpt>
      <trkpt lat="42.5093045644462108612060546875" lon="19.89946223795413970947265625">
        <ele>1896.800048828125</ele>
        <time>2026-06-17T11:49:04.000Z</time>
        <extensions>
          <ns3:TrackPointExtension>
            <ns3:atemp>16.0</ns3:atemp>
          </ns3:TrackPointExtension>
        </extensions>
      </trkpt>
      <trkpt lat="42.50929811038076877593994140625" lon="19.89945628680288791656494140625">
        <ele>1896.800048828125</ele>
        <time>2026-06-17T11:49:05.000Z</time>
        <extensions>
          <ns3:TrackPointExtension>
            <ns3:atemp>16.0</ns3:atemp>
          </ns3:TrackPointExtension>
        </extensions>
      </trkpt>
      <trkpt lat="42.50929391942918300628662109375" lon="19.89945041947066783905029296875">
        <ele>1897</ele>
        <time>2026-06-17T11:49:06.000Z</time>
        <extensions>
          <ns3:TrackPointExtension>
            <ns3:atemp>16.0</ns3:atemp>
          </ns3:TrackPointExtension>
        </extensions>
      </trkpt>
      <trkpt lat="42.5092911534011363983154296875" lon="19.89944488741457462310791015625">
        <ele>1897</ele>
        <time>2026-06-17T11:49:07.000Z</time>
        <extensions>
          <ns3:TrackPointExtension>
            <ns3:atemp>16.0</ns3:atemp>
          </ns3:TrackPointExtension>
        </extensions>
      </trkpt>
      <trkpt lat="42.50928453169763088226318359375" lon="19.89943868480622768402099609375">
        <ele>1897.199951171875</ele>
        <time>2026-06-17T11:49:08.000Z</time>
        <extensions>
          <ns3:TrackPointExtension>
            <ns3:atemp>16.0</ns3:atemp>
          </ns3:TrackPointExtension>
        </extensions>
      </trkpt>
      <trkpt lat="42.50927832908928394317626953125" lon="19.89943407475948333740234375">
        <ele>1897.199951171875</ele>
        <time>2026-06-17T11:49:09.000Z</time>
        <extensions>
          <ns3:TrackPointExtension>
            <ns3:atemp>16.0</ns3:atemp>
          </ns3:TrackPointExtension>
        </extensions>
      </trkpt>
      <trkpt lat="42.50927430577576160430908203125" lon="19.89943097345530986785888671875">
        <ele>1897.4000244140625</ele>
        <time>2026-06-17T11:49:10.000Z</time>
        <extensions>
          <ns3:TrackPointExtension>
            <ns3:atemp>16.0</ns3:atemp>
          </ns3:TrackPointExtension>
        </extensions>
      </trkpt>
      <trkpt lat="42.50926776789128780364990234375" lon="19.89942896179854869842529296875">
        <ele>1897.4000244140625</ele>
        <time>2026-06-17T11:49:11.000Z</time>
        <extensions>
          <ns3:TrackPointExtension>
            <ns3:atemp>16.0</ns3:atemp>
          </ns3:TrackPointExtension>
        </extensions>
      </trkpt>
      <trkpt lat="42.509260810911655426025390625" lon="19.89942896179854869842529296875">
        <ele>1897.4000244140625</ele>
        <time>2026-06-17T11:49:12.000Z</time>
        <extensions>
          <ns3:TrackPointExtension>
            <ns3:atemp>16.0</ns3:atemp>
          </ns3:TrackPointExtension>
        </extensions>
      </trkpt>
      <trkpt lat="42.5092564523220062255859375" lon="19.89942544139921665191650390625">
        <ele>1897.5999755859375</ele>
        <time>2026-06-17T11:49:13.000Z</time>
        <extensions>
          <ns3:TrackPointExtension>
            <ns3:atemp>16.0</ns3:atemp>
          </ns3:TrackPointExtension>
        </extensions>
      </trkpt>
      <trkpt lat="42.50925041735172271728515625" lon="19.89942225627601146697998046875">
        <ele>1897.5999755859375</ele>
        <time>2026-06-17T11:49:14.000Z</time>
        <extensions>
          <ns3:TrackPointExtension>
            <ns3:atemp>16.0</ns3:atemp>
          </ns3:TrackPointExtension>
        </extensions>
      </trkpt>
      <trkpt lat="42.50924329273402690887451171875" lon="19.8994204960763454437255859375">
        <ele>1897.800048828125</ele>
        <time>2026-06-17T11:49:15.000Z</time>
        <extensions>
          <ns3:TrackPointExtension>
            <ns3:atemp>16.0</ns3:atemp>
          </ns3:TrackPointExtension>
        </extensions>
      </trkpt>
      <trkpt lat="42.5092375092208385467529296875" lon="19.89941940642893314361572265625">
        <ele>1898</ele>
        <time>2026-06-17T11:49:16.000Z</time>
        <extensions>
          <ns3:TrackPointExtension>
            <ns3:atemp>16.0</ns3:atemp>
          </ns3:TrackPointExtension>
        </extensions>
      </trkpt>
      <trkpt lat="42.50923088751733303070068359375" lon="19.899415634572505950927734375">
        <ele>1898</ele>
        <time>2026-06-17T11:49:17.000Z</time>
        <extensions>
          <ns3:TrackPointExtension>
            <ns3:atemp>16.0</ns3:atemp>
          </ns3:TrackPointExtension>
        </extensions>
      </trkpt>
      <trkpt lat="42.50922451727092266082763671875" lon="19.8994114436209201812744140625">
        <ele>1898.199951171875</ele>
        <time>2026-06-17T11:49:18.000Z</time>
        <extensions>
          <ns3:TrackPointExtension>
            <ns3:atemp>16.0</ns3:atemp>
          </ns3:TrackPointExtension>
        </extensions>
      </trkpt>
      <trkpt lat="42.50921831466257572174072265625" lon="19.89941018633544445037841796875">
        <ele>1898.199951171875</ele>
        <time>2026-06-17T11:49:19.000Z</time>
        <extensions>
          <ns3:TrackPointExtension>
            <ns3:atemp>16.0</ns3:atemp>
          </ns3:TrackPointExtension>
        </extensions>
      </trkpt>
      <trkpt lat="42.509209848940372467041015625" lon="19.8994092643260955810546875">
        <ele>1898.4000244140625</ele>
        <time>2026-06-17T11:49:20.000Z</time>
        <extensions>
          <ns3:TrackPointExtension>
            <ns3:atemp>16.0</ns3:atemp>
          </ns3:TrackPointExtension>
        </extensions>
      </trkpt>
      <trkpt lat="42.50920289196074008941650390625" lon="19.89940532483160495758056640625">
        <ele>1898.4000244140625</ele>
        <time>2026-06-17T11:49:21.000Z</time>
        <extensions>
          <ns3:TrackPointExtension>
            <ns3:atemp>16.0</ns3:atemp>
          </ns3:TrackPointExtension>
        </extensions>
      </trkpt>
      <trkpt lat="42.509199790656566619873046875" lon="19.89940281026065349578857421875">
        <ele>1898.5999755859375</ele>
        <time>2026-06-17T11:49:22.000Z</time>
        <extensions>
          <ns3:TrackPointExtension>
            <ns3:atemp>16.0</ns3:atemp>
          </ns3:TrackPointExtension>
        </extensions>
      </trkpt>
      <trkpt lat="42.50919970683753490447998046875" lon="19.8994027264416217803955078125">
        <ele>1898.5999755859375</ele>
        <time>2026-06-17T11:49:23.000Z</time>
        <extensions>
          <ns3:TrackPointExtension>
            <ns3:atemp>16.0</ns3:atemp>
          </ns3:TrackPointExtension>
        </extensions>
      </trkpt>
      <trkpt lat="42.50919970683753490447998046875" lon="19.8994027264416217803955078125">
        <ele>1898.5999755859375</ele>
        <time>2026-06-17T11:49:24.000Z</time>
        <extensions>
          <ns3:TrackPointExtension>
            <ns3:atemp>16.0</ns3:atemp>
          </ns3:TrackPointExtension>
        </extensions>
      </trkpt>
      <trkpt lat="42.50919970683753490447998046875" lon="19.8994027264416217803955078125">
        <ele>1898.800048828125</ele>
        <time>2026-06-17T11:49:25.000Z</time>
        <extensions>
          <ns3:TrackPointExtension>
            <ns3:atemp>16.0</ns3:atemp>
          </ns3:TrackPointExtension>
        </extensions>
      </trkpt>
      <trkpt lat="42.50919970683753490447998046875" lon="19.8994027264416217803955078125">
        <ele>1898.800048828125</ele>
        <time>2026-06-17T11:49:26.000Z</time>
        <extensions>
          <ns3:TrackPointExtension>
            <ns3:atemp>16.0</ns3:atemp>
          </ns3:TrackPointExtension>
        </extensions>
      </trkpt>
      <trkpt lat="42.50919970683753490447998046875" lon="19.8994027264416217803955078125">
        <ele>1898.800048828125</ele>
        <time>2026-06-17T11:49:27.000Z</time>
        <extensions>
          <ns3:TrackPointExtension>
            <ns3:atemp>16.0</ns3:atemp>
          </ns3:TrackPointExtension>
        </extensions>
      </trkpt>
      <trkpt lat="42.50919920392334461212158203125" lon="19.89940230734646320343017578125">
        <ele>1898.800048828125</ele>
        <time>2026-06-17T11:49:28.000Z</time>
        <extensions>
          <ns3:TrackPointExtension>
            <ns3:atemp>16.0</ns3:atemp>
          </ns3:TrackPointExtension>
        </extensions>
      </trkpt>
      <trkpt lat="42.509191073477268218994140625" lon="19.89939861930906772613525390625">
        <ele>1898.800048828125</ele>
        <time>2026-06-17T11:49:29.000Z</time>
        <extensions>
          <ns3:TrackPointExtension>
            <ns3:atemp>16.0</ns3:atemp>
          </ns3:TrackPointExtension>
        </extensions>
      </trkpt>
      <trkpt lat="42.50918076373636722564697265625" lon="19.89939660765230655670166015625">
        <ele>1898.800048828125</ele>
        <time>2026-06-17T11:49:30.000Z</time>
        <extensions>
          <ns3:TrackPointExtension>
            <ns3:atemp>16.0</ns3:atemp>
          </ns3:TrackPointExtension>
        </extensions>
      </trkpt>
      <trkpt lat="42.509172298014163970947265625" lon="19.8993930034339427947998046875">
        <ele>1899</ele>
        <time>2026-06-17T11:49:31.000Z</time>
        <extensions>
          <ns3:TrackPointExtension>
            <ns3:atemp>16.0</ns3:atemp>
          </ns3:TrackPointExtension>
        </extensions>
      </trkpt>
      <trkpt lat="42.5091614015400409698486328125" lon="19.8993851244449615478515625">
        <ele>1899</ele>
        <time>2026-06-17T11:49:32.000Z</time>
        <extensions>
          <ns3:TrackPointExtension>
            <ns3:atemp>16.0</ns3:atemp>
          </ns3:TrackPointExtension>
        </extensions>
      </trkpt>
      <trkpt lat="42.5091526843607425689697265625" lon="19.89937950856983661651611328125">
        <ele>1899</ele>
        <time>2026-06-17T11:49:33.000Z</time>
        <extensions>
          <ns3:TrackPointExtension>
            <ns3:atemp>16.0</ns3:atemp>
          </ns3:TrackPointExtension>
        </extensions>
      </trkpt>
      <trkpt lat="42.50914044678211212158203125" lon="19.899373389780521392822265625">
        <ele>1899</ele>
        <time>2026-06-17T11:49:34.000Z</time>
        <extensions>
          <ns3:TrackPointExtension>
            <ns3:atemp>16.0</ns3:atemp>
          </ns3:TrackPointExtension>
        </extensions>
      </trkpt>
      <trkpt lat="42.5091272033751010894775390625" lon="19.89936894737184047698974609375">
        <ele>1899.199951171875</ele>
        <time>2026-06-17T11:49:35.000Z</time>
        <extensions>
          <ns3:TrackPointExtension>
            <ns3:atemp>16.0</ns3:atemp>
          </ns3:TrackPointExtension>
        </extensions>
      </trkpt>
      <trkpt lat="42.50911706127226352691650390625" lon="19.89936559461057186126708984375">
        <ele>1899.4000244140625</ele>
        <time>2026-06-17T11:49:36.000Z</time>
        <extensions>
          <ns3:TrackPointExtension>
            <ns3:atemp>16.0</ns3:atemp>
          </ns3:TrackPointExtension>
        </extensions>
      </trkpt>
      <trkpt lat="42.50910901464521884918212890625" lon="19.89936031401157379150390625">
        <ele>1899.4000244140625</ele>
        <time>2026-06-17T11:49:37.000Z</time>
        <extensions>
          <ns3:TrackPointExtension>
            <ns3:atemp>16.0</ns3:atemp>
          </ns3:TrackPointExtension>
        </extensions>
      </trkpt>
      <trkpt lat="42.5091010518372058868408203125" lon="19.89935637451708316802978515625">
        <ele>1899.5999755859375</ele>
        <time>2026-06-17T11:49:38.000Z</time>
        <extensions>
          <ns3:TrackPointExtension>
            <ns3:atemp>16.0</ns3:atemp>
          </ns3:TrackPointExtension>
        </extensions>
      </trkpt>
      <trkpt lat="42.50909459777176380157470703125" lon="19.89934799261391162872314453125">
        <ele>1899.800048828125</ele>
        <time>2026-06-17T11:49:39.000Z</time>
        <extensions>
          <ns3:TrackPointExtension>
            <ns3:atemp>16.0</ns3:atemp>
          </ns3:TrackPointExtension>
        </extensions>
      </trkpt>
      <trkpt lat="42.50909191556274890899658203125" lon="19.8993443883955478668212890625">
        <ele>1900</ele>
        <time>2026-06-17T11:49:40.000Z</time>
        <extensions>
          <ns3:TrackPointExtension>
            <ns3:atemp>16.0</ns3:atemp>
          </ns3:TrackPointExtension>
        </extensions>
      </trkpt>
      <trkpt lat="42.5090842880308628082275390625" lon="19.89934380166232585906982421875">
        <ele>1900.199951171875</ele>
        <time>2026-06-17T11:49:41.000Z</time>
        <extensions>
          <ns3:TrackPointExtension>
            <ns3:atemp>16.0</ns3:atemp>
          </ns3:TrackPointExtension>
        </extensions>
      </trkpt>
      <trkpt lat="42.50907951034605503082275390625" lon="19.89934078417718410491943359375">
        <ele>1900.199951171875</ele>
        <time>2026-06-17T11:49:42.000Z</time>
        <extensions>
          <ns3:TrackPointExtension>
            <ns3:atemp>16.0</ns3:atemp>
          </ns3:TrackPointExtension>
        </extensions>
      </trkpt>
      <trkpt lat="42.50907414592802524566650390625" lon="19.8993319831788539886474609375">
        <ele>1900.4000244140625</ele>
        <time>2026-06-17T11:49:43.000Z</time>
        <extensions>
          <ns3:TrackPointExtension>
            <ns3:atemp>16.0</ns3:atemp>
          </ns3:TrackPointExtension>
        </extensions>
      </trkpt>
      <trkpt lat="42.50906593166291713714599609375" lon="19.89932519383728504180908203125">
        <ele>1900.4000244140625</ele>
        <time>2026-06-17T11:49:44.000Z</time>
        <extensions>
          <ns3:TrackPointExtension>
            <ns3:atemp>16.0</ns3:atemp>
          </ns3:TrackPointExtension>
        </extensions>
      </trkpt>
      <trkpt lat="42.50905905850231647491455078125" lon="19.899316728115081787109375">
        <ele>1900.5999755859375</ele>
        <time>2026-06-17T11:49:45.000Z</time>
        <extensions>
          <ns3:TrackPointExtension>
            <ns3:atemp>16.0</ns3:atemp>
          </ns3:TrackPointExtension>
        </extensions>
      </trkpt>
      <trkpt lat="42.50905436463654041290283203125" lon="19.8993118666112422943115234375">
        <ele>1900.5999755859375</ele>
        <time>2026-06-17T11:49:46.000Z</time>
        <extensions>
          <ns3:TrackPointExtension>
            <ns3:atemp>16.0</ns3:atemp>
          </ns3:TrackPointExtension>
        </extensions>
      </trkpt>
      <trkpt lat="42.509050928056240081787109375" lon="19.8993091844022274017333984375">
        <ele>1900.5999755859375</ele>
        <time>2026-06-17T11:49:47.000Z</time>
        <extensions>
          <ns3:TrackPointExtension>
            <ns3:atemp>16.0</ns3:atemp>
          </ns3:TrackPointExtension>
        </extensions>
      </trkpt>
      <trkpt lat="42.50904682092368602752685546875" lon="19.89930222742259502410888671875">
        <ele>1900.5999755859375</ele>
        <time>2026-06-17T11:49:48.000Z</time>
        <extensions>
          <ns3:TrackPointExtension>
            <ns3:atemp>16.0</ns3:atemp>
          </ns3:TrackPointExtension>
        </extensions>
      </trkpt>
      <trkpt lat="42.50904061831533908843994140625" lon="19.8992981202900409698486328125">
        <ele>1900.800048828125</ele>
        <time>2026-06-17T11:49:49.000Z</time>
        <extensions>
          <ns3:TrackPointExtension>
            <ns3:atemp>16.0</ns3:atemp>
          </ns3:TrackPointExtension>
        </extensions>
      </trkpt>
      <trkpt lat="42.5090373493731021881103515625" lon="19.8992937617003917694091796875">
        <ele>1900.800048828125</ele>
        <time>2026-06-17T11:49:50.000Z</time>
        <extensions>
          <ns3:TrackPointExtension>
            <ns3:atemp>16.0</ns3:atemp>
          </ns3:TrackPointExtension>
        </extensions>
      </trkpt>
      <trkpt lat="42.5090339966118335723876953125" lon="19.89928982220590114593505859375">
        <ele>1901</ele>
        <time>2026-06-17T11:49:51.000Z</time>
        <extensions>
          <ns3:TrackPointExtension>
            <ns3:atemp>16.0</ns3:atemp>
          </ns3:TrackPointExtension>
        </extensions>
      </trkpt>
      <trkpt lat="42.50903324224054813385009765625" lon="19.8992870561778545379638671875">
        <ele>1901</ele>
        <time>2026-06-17T11:49:52.000Z</time>
        <extensions>
          <ns3:TrackPointExtension>
            <ns3:atemp>16.0</ns3:atemp>
          </ns3:TrackPointExtension>
        </extensions>
      </trkpt>
      <trkpt lat="42.5090333260595798492431640625" lon="19.89928713999688625335693359375">
        <ele>1901</ele>
        <time>2026-06-17T11:49:53.000Z</time>
        <extensions>
          <ns3:TrackPointExtension>
            <ns3:atemp>16.0</ns3:atemp>
          </ns3:TrackPointExtension>
        </extensions>
      </trkpt>
      <trkpt lat="42.5090333260595798492431640625" lon="19.89928713999688625335693359375">
        <ele>1901</ele>
        <time>2026-06-17T11:49:54.000Z</time>
        <extensions>
          <ns3:TrackPointExtension>
            <ns3:atemp>16.0</ns3:atemp>
          </ns3:TrackPointExtension>
        </extensions>
      </trkpt>
      <trkpt lat="42.5090333260595798492431640625" lon="19.89928713999688625335693359375">
        <ele>1901</ele>
        <time>2026-06-17T11:49:55.000Z</time>
        <extensions>
          <ns3:TrackPointExtension>
            <ns3:atemp>16.0</ns3:atemp>
          </ns3:TrackPointExtension>
        </extensions>
      </trkpt>
      <trkpt lat="42.5090333260595798492431640625" lon="19.89928713999688625335693359375">
        <ele>1901</ele>
        <time>2026-06-17T11:49:56.000Z</time>
        <extensions>
          <ns3:TrackPointExtension>
            <ns3:atemp>16.0</ns3:atemp>
          </ns3:TrackPointExtension>
        </extensions>
      </trkpt>
      <trkpt lat="42.5090333260595798492431640625" lon="19.89928713999688625335693359375">
        <ele>1901</ele>
        <time>2026-06-17T11:49:57.000Z</time>
        <extensions>
          <ns3:TrackPointExtension>
            <ns3:atemp>16.0</ns3:atemp>
          </ns3:TrackPointExtension>
        </extensions>
      </trkpt>
      <trkpt lat="42.5090333260595798492431640625" lon="19.89928713999688625335693359375">
        <ele>1901</ele>
        <time>2026-06-17T11:49:58.000Z</time>
        <extensions>
          <ns3:TrackPointExtension>
            <ns3:atemp>16.0</ns3:atemp>
          </ns3:TrackPointExtension>
        </extensions>
      </trkpt>
      <trkpt lat="42.5090333260595798492431640625" lon="19.89928713999688625335693359375">
        <ele>1901</ele>
        <time>2026-06-17T11:49:59.000Z</time>
        <extensions>
          <ns3:TrackPointExtension>
            <ns3:atemp>16.0</ns3:atemp>
          </ns3:TrackPointExtension>
        </extensions>
      </trkpt>
      <trkpt lat="42.5090333260595798492431640625" lon="19.89928713999688625335693359375">
        <ele>1901</ele>
        <time>2026-06-17T11:50:00.000Z</time>
        <extensions>
          <ns3:TrackPointExtension>
            <ns3:atemp>16.0</ns3:atemp>
          </ns3:TrackPointExtension>
        </extensions>
      </trkpt>
      <trkpt lat="42.5090333260595798492431640625" lon="19.89928713999688625335693359375">
        <ele>1901</ele>
        <time>2026-06-17T11:50:01.000Z</time>
        <extensions>
          <ns3:TrackPointExtension>
            <ns3:atemp>16.0</ns3:atemp>
          </ns3:TrackPointExtension>
        </extensions>
      </trkpt>
      <trkpt lat="42.5090333260595798492431640625" lon="19.89928713999688625335693359375">
        <ele>1901</ele>
        <time>2026-06-17T11:50:02.000Z</time>
        <extensions>
          <ns3:TrackPointExtension>
            <ns3:atemp>16.0</ns3:atemp>
          </ns3:TrackPointExtension>
        </extensions>
      </trkpt>
      <trkpt lat="42.5090333260595798492431640625" lon="19.89928713999688625335693359375">
        <ele>1901</ele>
        <time>2026-06-17T11:50:03.000Z</time>
        <extensions>
          <ns3:TrackPointExtension>
            <ns3:atemp>16.0</ns3:atemp>
          </ns3:TrackPointExtension>
        </extensions>
      </trkpt>
      <trkpt lat="42.5090333260595798492431640625" lon="19.89928713999688625335693359375">
        <ele>1901</ele>
        <time>2026-06-17T11:50:04.000Z</time>
        <extensions>
          <ns3:TrackPointExtension>
            <ns3:atemp>16.0</ns3:atemp>
          </ns3:TrackPointExtension>
        </extensions>
      </trkpt>
      <trkpt lat="42.5090333260595798492431640625" lon="19.89928713999688625335693359375">
        <ele>1901</ele>
        <time>2026-06-17T11:50:05.000Z</time>
        <extensions>
          <ns3:TrackPointExtension>
            <ns3:atemp>16.0</ns3:atemp>
          </ns3:TrackPointExtension>
        </extensions>
      </trkpt>
      <trkpt lat="42.5090333260595798492431640625" lon="19.89928713999688625335693359375">
        <ele>1900.800048828125</ele>
        <time>2026-06-17T11:50:06.000Z</time>
        <extensions>
          <ns3:TrackPointExtension>
            <ns3:atemp>16.0</ns3:atemp>
          </ns3:TrackPointExtension>
        </extensions>
      </trkpt>
      <trkpt lat="42.5090333260595798492431640625" lon="19.89928713999688625335693359375">
        <ele>1900.800048828125</ele>
        <time>2026-06-17T11:50:07.000Z</time>
        <extensions>
          <ns3:TrackPointExtension>
            <ns3:atemp>16.0</ns3:atemp>
          </ns3:TrackPointExtension>
        </extensions>
      </trkpt>
      <trkpt lat="42.5090333260595798492431640625" lon="19.89928713999688625335693359375">
        <ele>1901</ele>
        <time>2026-06-17T11:50:08.000Z</time>
        <extensions>
          <ns3:TrackPointExtension>
            <ns3:atemp>16.0</ns3:atemp>
          </ns3:TrackPointExtension>
        </extensions>
      </trkpt>
      <trkpt lat="42.5090333260595798492431640625" lon="19.89928713999688625335693359375">
        <ele>1901</ele>
        <time>2026-06-17T11:50:09.000Z</time>
        <extensions>
          <ns3:TrackPointExtension>
            <ns3:atemp>16.0</ns3:atemp>
          </ns3:TrackPointExtension>
        </extensions>
      </trkpt>
      <trkpt lat="42.5090333260595798492431640625" lon="19.89928713999688625335693359375">
        <ele>1901</ele>
        <time>2026-06-17T11:50:10.000Z</time>
        <extensions>
          <ns3:TrackPointExtension>
            <ns3:atemp>16.0</ns3:atemp>
          </ns3:TrackPointExtension>
        </extensions>
      </trkpt>
      <trkpt lat="42.5090333260595798492431640625" lon="19.89928713999688625335693359375">
        <ele>1901</ele>
        <time>2026-06-17T11:50:11.000Z</time>
        <extensions>
          <ns3:TrackPointExtension>
            <ns3:atemp>16.0</ns3:atemp>
          </ns3:TrackPointExtension>
        </extensions>
      </trkpt>
      <trkpt lat="42.5090333260595798492431640625" lon="19.89928713999688625335693359375">
        <ele>1901</ele>
        <time>2026-06-17T11:50:12.000Z</time>
        <extensions>
          <ns3:TrackPointExtension>
            <ns3:atemp>16.0</ns3:atemp>
          </ns3:TrackPointExtension>
        </extensions>
      </trkpt>
      <trkpt lat="42.5090333260595798492431640625" lon="19.89928713999688625335693359375">
        <ele>1900.800048828125</ele>
        <time>2026-06-17T11:50:13.000Z</time>
        <extensions>
          <ns3:TrackPointExtension>
            <ns3:atemp>16.0</ns3:atemp>
          </ns3:TrackPointExtension>
        </extensions>
      </trkpt>
      <trkpt lat="42.5090333260595798492431640625" lon="19.89928713999688625335693359375">
        <ele>1900.800048828125</ele>
        <time>2026-06-17T11:50:14.000Z</time>
        <extensions>
          <ns3:TrackPointExtension>
            <ns3:atemp>16.0</ns3:atemp>
          </ns3:TrackPointExtension>
        </extensions>
      </trkpt>
      <trkpt lat="42.5090333260595798492431640625" lon="19.89928713999688625335693359375">
        <ele>1900.800048828125</ele>
        <time>2026-06-17T11:50:15.000Z</time>
        <extensions>
          <ns3:TrackPointExtension>
            <ns3:atemp>16.0</ns3:atemp>
          </ns3:TrackPointExtension>
        </extensions>
      </trkpt>
      <trkpt lat="42.5090333260595798492431640625" lon="19.89928713999688625335693359375">
        <ele>1900.800048828125</ele>
        <time>2026-06-17T11:50:16.000Z</time>
        <extensions>
          <ns3:TrackPointExtension>
            <ns3:atemp>16.0</ns3:atemp>
          </ns3:TrackPointExtension>
        </extensions>
      </trkpt>
      <trkpt lat="42.5090333260595798492431640625" lon="19.89928713999688625335693359375">
        <ele>1901</ele>
        <time>2026-06-17T11:50:17.000Z</time>
        <extensions>
          <ns3:TrackPointExtension>
            <ns3:atemp>16.0</ns3:atemp>
          </ns3:TrackPointExtension>
        </extensions>
      </trkpt>
      <trkpt lat="42.5090333260595798492431640625" lon="19.89928713999688625335693359375">
        <ele>1901</ele>
        <time>2026-06-17T11:50:18.000Z</time>
        <extensions>
          <ns3:TrackPointExtension>
            <ns3:atemp>16.0</ns3:atemp>
          </ns3:TrackPointExtension>
        </extensions>
      </trkpt>
      <trkpt lat="42.5090333260595798492431640625" lon="19.89928713999688625335693359375">
        <ele>1901</ele>
        <time>2026-06-17T11:50:19.000Z</time>
        <extensions>
          <ns3:TrackPointExtension>
            <ns3:atemp>16.0</ns3:atemp>
          </ns3:TrackPointExtension>
        </extensions>
      </trkpt>
      <trkpt lat="42.5090333260595798492431640625" lon="19.89928713999688625335693359375">
        <ele>1901</ele>
        <time>2026-06-17T11:50:20.000Z</time>
        <extensions>
          <ns3:TrackPointExtension>
            <ns3:atemp>16.0</ns3:atemp>
          </ns3:TrackPointExtension>
        </extensions>
      </trkpt>
      <trkpt lat="42.5090333260595798492431640625" lon="19.89928713999688625335693359375">
        <ele>1901</ele>
        <time>2026-06-17T11:50:21.000Z</time>
        <extensions>
          <ns3:TrackPointExtension>
            <ns3:atemp>16.0</ns3:atemp>
          </ns3:TrackPointExtension>
        </extensions>
      </trkpt>
      <trkpt lat="42.5090333260595798492431640625" lon="19.89928713999688625335693359375">
        <ele>1900.800048828125</ele>
        <time>2026-06-17T11:50:22.000Z</time>
        <extensions>
          <ns3:TrackPointExtension>
            <ns3:atemp>16.0</ns3:atemp>
          </ns3:TrackPointExtension>
        </extensions>
      </trkpt>
      <trkpt lat="42.5090333260595798492431640625" lon="19.89928713999688625335693359375">
        <ele>1900.800048828125</ele>
        <time>2026-06-17T11:50:23.000Z</time>
        <extensions>
          <ns3:TrackPointExtension>
            <ns3:atemp>16.0</ns3:atemp>
          </ns3:TrackPointExtension>
        </extensions>
      </trkpt>
      <trkpt lat="42.5090333260595798492431640625" lon="19.89928713999688625335693359375">
        <ele>1900.800048828125</ele>
        <time>2026-06-17T11:50:24.000Z</time>
        <extensions>
          <ns3:TrackPointExtension>
            <ns3:atemp>16.0</ns3:atemp>
          </ns3:TrackPointExtension>
        </extensions>
      </trkpt>
      <trkpt lat="42.5090333260595798492431640625" lon="19.89928713999688625335693359375">
        <ele>1900.800048828125</ele>
        <time>2026-06-17T11:50:25.000Z</time>
        <extensions>
          <ns3:TrackPointExtension>
            <ns3:atemp>16.0</ns3:atemp>
          </ns3:TrackPointExtension>
        </extensions>
      </trkpt>
      <trkpt lat="42.5090333260595798492431640625" lon="19.89928713999688625335693359375">
        <ele>1900.800048828125</ele>
        <time>2026-06-17T11:50:26.000Z</time>
        <extensions>
          <ns3:TrackPointExtension>
            <ns3:atemp>16.0</ns3:atemp>
          </ns3:TrackPointExtension>
        </extensions>
      </trkpt>
      <trkpt lat="42.5090333260595798492431640625" lon="19.89928713999688625335693359375">
        <ele>1900.800048828125</ele>
        <time>2026-06-17T11:50:27.000Z</time>
        <extensions>
          <ns3:TrackPointExtension>
            <ns3:atemp>16.0</ns3:atemp>
          </ns3:TrackPointExtension>
        </extensions>
      </trkpt>
      <trkpt lat="42.5090333260595798492431640625" lon="19.89928713999688625335693359375">
        <ele>1900.800048828125</ele>
        <time>2026-06-17T11:50:28.000Z</time>
        <extensions>
          <ns3:TrackPointExtension>
            <ns3:atemp>16.0</ns3:atemp>
          </ns3:TrackPointExtension>
        </extensions>
      </trkpt>
      <trkpt lat="42.5090333260595798492431640625" lon="19.89928713999688625335693359375">
        <ele>1900.800048828125</ele>
        <time>2026-06-17T11:50:29.000Z</time>
        <extensions>
          <ns3:TrackPointExtension>
            <ns3:atemp>16.0</ns3:atemp>
          </ns3:TrackPointExtension>
        </extensions>
      </trkpt>
      <trkpt lat="42.5090333260595798492431640625" lon="19.89928713999688625335693359375">
        <ele>1900.800048828125</ele>
        <time>2026-06-17T11:50:30.000Z</time>
        <extensions>
          <ns3:TrackPointExtension>
            <ns3:atemp>16.0</ns3:atemp>
          </ns3:TrackPointExtension>
        </extensions>
      </trkpt>
      <trkpt lat="42.5090333260595798492431640625" lon="19.89928713999688625335693359375">
        <ele>1900.800048828125</ele>
        <time>2026-06-17T11:50:31.000Z</time>
        <extensions>
          <ns3:TrackPointExtension>
            <ns3:atemp>16.0</ns3:atemp>
          </ns3:TrackPointExtension>
        </extensions>
      </trkpt>
      <trkpt lat="42.5090333260595798492431640625" lon="19.89928713999688625335693359375">
        <ele>1900.800048828125</ele>
        <time>2026-06-17T11:50:32.000Z</time>
        <extensions>
          <ns3:TrackPointExtension>
            <ns3:atemp>16.0</ns3:atemp>
          </ns3:TrackPointExtension>
        </extensions>
      </trkpt>
      <trkpt lat="42.5090333260595798492431640625" lon="19.89928713999688625335693359375">
        <ele>1900.800048828125</ele>
        <time>2026-06-17T11:50:33.000Z</time>
        <extensions>
          <ns3:TrackPointExtension>
            <ns3:atemp>16.0</ns3:atemp>
          </ns3:TrackPointExtension>
        </extensions>
      </trkpt>
      <trkpt lat="42.5090333260595798492431640625" lon="19.89928713999688625335693359375">
        <ele>1900.800048828125</ele>
        <time>2026-06-17T11:50:34.000Z</time>
        <extensions>
          <ns3:TrackPointExtension>
            <ns3:atemp>16.0</ns3:atemp>
          </ns3:TrackPointExtension>
        </extensions>
      </trkpt>
      <trkpt lat="42.5090333260595798492431640625" lon="19.89928713999688625335693359375">
        <ele>1900.800048828125</ele>
        <time>2026-06-17T11:50:35.000Z</time>
        <extensions>
          <ns3:TrackPointExtension>
            <ns3:atemp>16.0</ns3:atemp>
          </ns3:TrackPointExtension>
        </extensions>
      </trkpt>
      <trkpt lat="42.5090333260595798492431640625" lon="19.89928713999688625335693359375">
        <ele>1900.800048828125</ele>
        <time>2026-06-17T11:50:36.000Z</time>
        <extensions>
          <ns3:TrackPointExtension>
            <ns3:atemp>16.0</ns3:atemp>
          </ns3:TrackPointExtension>
        </extensions>
      </trkpt>
      <trkpt lat="42.5090333260595798492431640625" lon="19.89928713999688625335693359375">
        <ele>1900.800048828125</ele>
        <time>2026-06-17T11:50:37.000Z</time>
        <extensions>
          <ns3:TrackPointExtension>
            <ns3:atemp>16.0</ns3:atemp>
          </ns3:TrackPointExtension>
        </extensions>
      </trkpt>
      <trkpt lat="42.5090333260595798492431640625" lon="19.89928713999688625335693359375">
        <ele>1900.800048828125</ele>
        <time>2026-06-17T11:50:38.000Z</time>
        <extensions>
          <ns3:TrackPointExtension>
            <ns3:atemp>16.0</ns3:atemp>
          </ns3:TrackPointExtension>
        </extensions>
      </trkpt>
      <trkpt lat="42.5090333260595798492431640625" lon="19.89928713999688625335693359375">
        <ele>1900.800048828125</ele>
        <time>2026-06-17T11:50:39.000Z</time>
        <extensions>
          <ns3:TrackPointExtension>
            <ns3:atemp>16.0</ns3:atemp>
          </ns3:TrackPointExtension>
        </extensions>
      </trkpt>
      <trkpt lat="42.5090333260595798492431640625" lon="19.89928713999688625335693359375">
        <ele>1900.800048828125</ele>
        <time>2026-06-17T11:50:40.000Z</time>
        <extensions>
          <ns3:TrackPointExtension>
            <ns3:atemp>16.0</ns3:atemp>
          </ns3:TrackPointExtension>
        </extensions>
      </trkpt>
      <trkpt lat="42.5090333260595798492431640625" lon="19.89928713999688625335693359375">
        <ele>1900.800048828125</ele>
        <time>2026-06-17T11:50:41.000Z</time>
        <extensions>
          <ns3:TrackPointExtension>
            <ns3:atemp>16.0</ns3:atemp>
          </ns3:TrackPointExtension>
        </extensions>
      </trkpt>
      <trkpt lat="42.5090333260595798492431640625" lon="19.89928713999688625335693359375">
        <ele>1900.800048828125</ele>
        <time>2026-06-17T11:50:42.000Z</time>
        <extensions>
          <ns3:TrackPointExtension>
            <ns3:atemp>16.0</ns3:atemp>
          </ns3:TrackPointExtension>
        </extensions>
      </trkpt>
      <trkpt lat="42.5090333260595798492431640625" lon="19.89928713999688625335693359375">
        <ele>1900.800048828125</ele>
        <time>2026-06-17T11:50:43.000Z</time>
        <extensions>
          <ns3:TrackPointExtension>
            <ns3:atemp>16.0</ns3:atemp>
          </ns3:TrackPointExtension>
        </extensions>
      </trkpt>
      <trkpt lat="42.5090333260595798492431640625" lon="19.89928713999688625335693359375">
        <ele>1900.800048828125</ele>
        <time>2026-06-17T11:50:44.000Z</time>
        <extensions>
          <ns3:TrackPointExtension>
            <ns3:atemp>16.0</ns3:atemp>
          </ns3:TrackPointExtension>
        </extensions>
      </trkpt>
      <trkpt lat="42.5090311467647552490234375" lon="19.89928563125431537628173828125">
        <ele>1900.800048828125</ele>
        <time>2026-06-17T11:50:45.000Z</time>
        <extensions>
          <ns3:TrackPointExtension>
            <ns3:atemp>16.0</ns3:atemp>
          </ns3:TrackPointExtension>
        </extensions>
      </trkpt>
      <trkpt lat="42.5090333260595798492431640625" lon="19.89928713999688625335693359375">
        <ele>1900.800048828125</ele>
        <time>2026-06-17T11:50:46.000Z</time>
        <extensions>
          <ns3:TrackPointExtension>
            <ns3:atemp>16.0</ns3:atemp>
          </ns3:TrackPointExtension>
        </extensions>
      </trkpt>
      <trkpt lat="42.5090333260595798492431640625" lon="19.89928713999688625335693359375">
        <ele>1900.800048828125</ele>
        <time>2026-06-17T11:50:47.000Z</time>
        <extensions>
          <ns3:TrackPointExtension>
            <ns3:atemp>16.0</ns3:atemp>
          </ns3:TrackPointExtension>
        </extensions>
      </trkpt>
      <trkpt lat="42.5090333260595798492431640625" lon="19.89928713999688625335693359375">
        <ele>1901</ele>
        <time>2026-06-17T11:50:48.000Z</time>
        <extensions>
          <ns3:TrackPointExtension>
            <ns3:atemp>16.0</ns3:atemp>
          </ns3:TrackPointExtension>
        </extensions>
      </trkpt>
      <trkpt lat="42.5090333260595798492431640625" lon="19.89928713999688625335693359375">
        <ele>1901</ele>
        <time>2026-06-17T11:50:49.000Z</time>
        <extensions>
          <ns3:TrackPointExtension>
            <ns3:atemp>16.0</ns3:atemp>
          </ns3:TrackPointExtension>
        </extensions>
      </trkpt>
      <trkpt lat="42.5090333260595798492431640625" lon="19.89928713999688625335693359375">
        <ele>1901</ele>
        <time>2026-06-17T11:50:50.000Z</time>
        <extensions>
          <ns3:TrackPointExtension>
            <ns3:atemp>16.0</ns3:atemp>
          </ns3:TrackPointExtension>
        </extensions>
      </trkpt>
      <trkpt lat="42.5090333260595798492431640625" lon="19.89928713999688625335693359375">
        <ele>1901</ele>
        <time>2026-06-17T11:50:51.000Z</time>
        <extensions>
          <ns3:TrackPointExtension>
            <ns3:atemp>16.0</ns3:atemp>
          </ns3:TrackPointExtension>
        </extensions>
      </trkpt>
      <trkpt lat="42.5090333260595798492431640625" lon="19.89928713999688625335693359375">
        <ele>1901</ele>
        <time>2026-06-17T11:50:52.000Z</time>
        <extensions>
          <ns3:TrackPointExtension>
            <ns3:atemp>16.0</ns3:atemp>
          </ns3:TrackPointExtension>
        </extensions>
      </trkpt>
      <trkpt lat="42.5090333260595798492431640625" lon="19.89928713999688625335693359375">
        <ele>1901</ele>
        <time>2026-06-17T11:50:53.000Z</time>
        <extensions>
          <ns3:TrackPointExtension>
            <ns3:atemp>16.0</ns3:atemp>
          </ns3:TrackPointExtension>
        </extensions>
      </trkpt>
      <trkpt lat="42.50902553088963031768798828125" lon="19.89928211085498332977294921875">
        <ele>1901</ele>
        <time>2026-06-17T11:50:54.000Z</time>
        <extensions>
          <ns3:TrackPointExtension>
            <ns3:atemp>16.0</ns3:atemp>
          </ns3:TrackPointExtension>
        </extensions>
      </trkpt>
      <trkpt lat="42.5090212561190128326416015625" lon="19.89927741698920726776123046875">
        <ele>1901</ele>
        <time>2026-06-17T11:50:55.000Z</time>
        <extensions>
          <ns3:TrackPointExtension>
            <ns3:atemp>16.0</ns3:atemp>
          </ns3:TrackPointExtension>
        </extensions>
      </trkpt>
      <trkpt lat="42.50901698134839534759521484375" lon="19.8992712981998920440673828125">
        <ele>1901</ele>
        <time>2026-06-17T11:50:56.000Z</time>
        <extensions>
          <ns3:TrackPointExtension>
            <ns3:atemp>16.0</ns3:atemp>
          </ns3:TrackPointExtension>
        </extensions>
      </trkpt>
      <trkpt lat="42.50901480205357074737548828125" lon="19.89926886744797229766845703125">
        <ele>1901</ele>
        <time>2026-06-17T11:50:57.000Z</time>
        <extensions>
          <ns3:TrackPointExtension>
            <ns3:atemp>16.0</ns3:atemp>
          </ns3:TrackPointExtension>
        </extensions>
      </trkpt>
      <trkpt lat="42.5090145505964756011962890625" lon="19.89926819689571857452392578125">
        <ele>1901</ele>
        <time>2026-06-17T11:50:58.000Z</time>
        <extensions>
          <ns3:TrackPointExtension>
            <ns3:atemp>16.0</ns3:atemp>
          </ns3:TrackPointExtension>
        </extensions>
      </trkpt>
      <trkpt lat="42.5090145505964756011962890625" lon="19.89926819689571857452392578125">
        <ele>1901</ele>
        <time>2026-06-17T11:50:59.000Z</time>
        <extensions>
          <ns3:TrackPointExtension>
            <ns3:atemp>16.0</ns3:atemp>
          </ns3:TrackPointExtension>
        </extensions>
      </trkpt>
      <trkpt lat="42.5090145505964756011962890625" lon="19.89926819689571857452392578125">
        <ele>1901</ele>
        <time>2026-06-17T11:51:00.000Z</time>
        <extensions>
          <ns3:TrackPointExtension>
            <ns3:atemp>16.0</ns3:atemp>
          </ns3:TrackPointExtension>
        </extensions>
      </trkpt>
      <trkpt lat="42.5090145505964756011962890625" lon="19.89926819689571857452392578125">
        <ele>1901</ele>
        <time>2026-06-17T11:51:01.000Z</time>
        <extensions>
          <ns3:TrackPointExtension>
            <ns3:atemp>16.0</ns3:atemp>
          </ns3:TrackPointExtension>
        </extensions>
      </trkpt>
      <trkpt lat="42.5090145505964756011962890625" lon="19.89926819689571857452392578125">
        <ele>1901</ele>
        <time>2026-06-17T11:51:02.000Z</time>
        <extensions>
          <ns3:TrackPointExtension>
            <ns3:atemp>16.0</ns3:atemp>
          </ns3:TrackPointExtension>
        </extensions>
      </trkpt>
      <trkpt lat="42.5090145505964756011962890625" lon="19.89926819689571857452392578125">
        <ele>1901</ele>
        <time>2026-06-17T11:51:03.000Z</time>
        <extensions>
          <ns3:TrackPointExtension>
            <ns3:atemp>16.0</ns3:atemp>
          </ns3:TrackPointExtension>
        </extensions>
      </trkpt>
      <trkpt lat="42.5090145505964756011962890625" lon="19.89926819689571857452392578125">
        <ele>1901</ele>
        <time>2026-06-17T11:51:04.000Z</time>
        <extensions>
          <ns3:TrackPointExtension>
            <ns3:atemp>16.0</ns3:atemp>
          </ns3:TrackPointExtension>
        </extensions>
      </trkpt>
      <trkpt lat="42.5090145505964756011962890625" lon="19.89926819689571857452392578125">
        <ele>1901</ele>
        <time>2026-06-17T11:51:05.000Z</time>
        <extensions>
          <ns3:TrackPointExtension>
            <ns3:atemp>16.0</ns3:atemp>
          </ns3:TrackPointExtension>
        </extensions>
      </trkpt>
      <trkpt lat="42.5090145505964756011962890625" lon="19.89926819689571857452392578125">
        <ele>1901</ele>
        <time>2026-06-17T11:51:06.000Z</time>
        <extensions>
          <ns3:TrackPointExtension>
            <ns3:atemp>16.0</ns3:atemp>
          </ns3:TrackPointExtension>
        </extensions>
      </trkpt>
      <trkpt lat="42.5090145505964756011962890625" lon="19.89926819689571857452392578125">
        <ele>1901</ele>
        <time>2026-06-17T11:51:07.000Z</time>
        <extensions>
          <ns3:TrackPointExtension>
            <ns3:atemp>16.0</ns3:atemp>
          </ns3:TrackPointExtension>
        </extensions>
      </trkpt>
      <trkpt lat="42.50901346094906330108642578125" lon="19.89926702342927455902099609375">
        <ele>1901</ele>
        <time>2026-06-17T11:51:08.000Z</time>
        <extensions>
          <ns3:TrackPointExtension>
            <ns3:atemp>16.0</ns3:atemp>
          </ns3:TrackPointExtension>
        </extensions>
      </trkpt>
      <trkpt lat="42.50900574959814548492431640625" lon="19.89926350302994251251220703125">
        <ele>1901</ele>
        <time>2026-06-17T11:51:09.000Z</time>
        <extensions>
          <ns3:TrackPointExtension>
            <ns3:atemp>16.0</ns3:atemp>
          </ns3:TrackPointExtension>
        </extensions>
      </trkpt>
      <trkpt lat="42.50899904407560825347900390625" lon="19.8992511816322803497314453125">
        <ele>1901</ele>
        <time>2026-06-17T11:51:10.000Z</time>
        <extensions>
          <ns3:TrackPointExtension>
            <ns3:atemp>16.0</ns3:atemp>
          </ns3:TrackPointExtension>
        </extensions>
      </trkpt>
      <trkpt lat="42.50898898579180240631103515625" lon="19.8992404527962207794189453125">
        <ele>1901.4000244140625</ele>
        <time>2026-06-17T11:51:11.000Z</time>
        <extensions>
          <ns3:TrackPointExtension>
            <ns3:atemp>16.0</ns3:atemp>
          </ns3:TrackPointExtension>
        </extensions>
      </trkpt>
      <trkpt lat="42.5089729763567447662353515625" lon="19.89923936314880847930908203125">
        <ele>1901.199951171875</ele>
        <time>2026-06-17T11:51:12.000Z</time>
        <extensions>
          <ns3:TrackPointExtension>
            <ns3:atemp>16.0</ns3:atemp>
          </ns3:TrackPointExtension>
        </extensions>
      </trkpt>
      <trkpt lat="42.50895093195140361785888671875" lon="19.8992443084716796875">
        <ele>1901</ele>
        <time>2026-06-17T11:51:13.000Z</time>
        <extensions>
          <ns3:TrackPointExtension>
            <ns3:atemp>16.0</ns3:atemp>
          </ns3:TrackPointExtension>
        </extensions>
      </trkpt>
      <trkpt lat="42.5089345872402191162109375" lon="19.89924757741391658782958984375">
        <ele>1901</ele>
        <time>2026-06-17T11:51:14.000Z</time>
        <extensions>
          <ns3:TrackPointExtension>
            <ns3:atemp>16.0</ns3:atemp>
          </ns3:TrackPointExtension>
        </extensions>
      </trkpt>
      <trkpt lat="42.50892545096576213836669921875" lon="19.8992585577070713043212890625">
        <ele>1900.800048828125</ele>
        <time>2026-06-17T11:51:15.000Z</time>
        <extensions>
          <ns3:TrackPointExtension>
            <ns3:atemp>16.0</ns3:atemp>
          </ns3:TrackPointExtension>
        </extensions>
      </trkpt>
      <trkpt lat="42.50891220755875110626220703125" lon="19.899266771972179412841796875">
        <ele>1900.800048828125</ele>
        <time>2026-06-17T11:51:16.000Z</time>
        <extensions>
          <ns3:TrackPointExtension>
            <ns3:atemp>16.0</ns3:atemp>
          </ns3:TrackPointExtension>
        </extensions>
      </trkpt>
      <trkpt lat="42.5089018978178501129150390625" lon="19.89927356131374835968017578125">
        <ele>1900.800048828125</ele>
        <time>2026-06-17T11:51:17.000Z</time>
        <extensions>
          <ns3:TrackPointExtension>
            <ns3:atemp>16.0</ns3:atemp>
          </ns3:TrackPointExtension>
        </extensions>
      </trkpt>
      <trkpt lat="42.50889108516275882720947265625" lon="19.89928328432142734527587890625">
        <ele>1900.5999755859375</ele>
        <time>2026-06-17T11:51:18.000Z</time>
        <extensions>
          <ns3:TrackPointExtension>
            <ns3:atemp>16.0</ns3:atemp>
          </ns3:TrackPointExtension>
        </extensions>
      </trkpt>
      <trkpt lat="42.5088770873844623565673828125" lon="19.8992971144616603851318359375">
        <ele>1900.5999755859375</ele>
        <time>2026-06-17T11:51:19.000Z</time>
        <extensions>
          <ns3:TrackPointExtension>
            <ns3:atemp>16.0</ns3:atemp>
          </ns3:TrackPointExtension>
        </extensions>
      </trkpt>
      <trkpt lat="42.50885747373104095458984375" lon="19.89930775947868824005126953125">
        <ele>1900.5999755859375</ele>
        <time>2026-06-17T11:51:20.000Z</time>
        <extensions>
          <ns3:TrackPointExtension>
            <ns3:atemp>16.0</ns3:atemp>
          </ns3:TrackPointExtension>
        </extensions>
      </trkpt>
      <trkpt lat="42.508836686611175537109375" lon="19.89931228570640087127685546875">
        <ele>1900.4000244140625</ele>
        <time>2026-06-17T11:51:21.000Z</time>
        <extensions>
          <ns3:TrackPointExtension>
            <ns3:atemp>16.0</ns3:atemp>
          </ns3:TrackPointExtension>
        </extensions>
      </trkpt>
      <trkpt lat="42.5088153965771198272705078125" lon="19.8993225954473018646240234375">
        <ele>1900.199951171875</ele>
        <time>2026-06-17T11:51:22.000Z</time>
        <extensions>
          <ns3:TrackPointExtension>
            <ns3:atemp>16.0</ns3:atemp>
          </ns3:TrackPointExtension>
        </extensions>
      </trkpt>
      <trkpt lat="42.5087989680469036102294921875" lon="19.899331144988536834716796875">
        <ele>1900</ele>
        <time>2026-06-17T11:51:23.000Z</time>
        <extensions>
          <ns3:TrackPointExtension>
            <ns3:atemp>16.0</ns3:atemp>
          </ns3:TrackPointExtension>
        </extensions>
      </trkpt>
      <trkpt lat="42.50879553146660327911376953125" lon="19.8993427120149135589599609375">
        <ele>1900</ele>
        <time>2026-06-17T11:51:24.000Z</time>
        <extensions>
          <ns3:TrackPointExtension>
            <ns3:atemp>16.0</ns3:atemp>
          </ns3:TrackPointExtension>
        </extensions>
      </trkpt>
      <trkpt lat="42.5087952800095081329345703125" lon="19.89934396930038928985595703125">
        <ele>1900</ele>
        <time>2026-06-17T11:51:25.000Z</time>
        <extensions>
          <ns3:TrackPointExtension>
            <ns3:atemp>16.0</ns3:atemp>
          </ns3:TrackPointExtension>
        </extensions>
      </trkpt>
      <trkpt lat="42.50879519619047641754150390625" lon="19.899343885481357574462890625">
        <ele>1899.800048828125</ele>
        <time>2026-06-17T11:51:26.000Z</time>
        <extensions>
          <ns3:TrackPointExtension>
            <ns3:atemp>16.0</ns3:atemp>
          </ns3:TrackPointExtension>
        </extensions>
      </trkpt>
      <trkpt lat="42.50879502855241298675537109375" lon="19.899343885481357574462890625">
        <ele>1899.800048828125</ele>
        <time>2026-06-17T11:51:27.000Z</time>
        <extensions>
          <ns3:TrackPointExtension>
            <ns3:atemp>16.0</ns3:atemp>
          </ns3:TrackPointExtension>
        </extensions>
      </trkpt>
      <trkpt lat="42.50878228805959224700927734375" lon="19.89933525212109088897705078125">
        <ele>1899.800048828125</ele>
        <time>2026-06-17T11:51:28.000Z</time>
        <extensions>
          <ns3:TrackPointExtension>
            <ns3:atemp>16.0</ns3:atemp>
          </ns3:TrackPointExtension>
        </extensions>
      </trkpt>
      <trkpt lat="42.508769296109676361083984375" lon="19.8993212543427944183349609375">
        <ele>1899.800048828125</ele>
        <time>2026-06-17T11:51:29.000Z</time>
        <extensions>
          <ns3:TrackPointExtension>
            <ns3:atemp>16.0</ns3:atemp>
          </ns3:TrackPointExtension>
        </extensions>
      </trkpt>
      <trkpt lat="42.50876552425324916839599609375" lon="19.89931563846766948699951171875">
        <ele>1899.800048828125</ele>
        <time>2026-06-17T11:51:30.000Z</time>
        <extensions>
          <ns3:TrackPointExtension>
            <ns3:atemp>16.0</ns3:atemp>
          </ns3:TrackPointExtension>
        </extensions>
      </trkpt>
      <trkpt lat="42.5087624229490756988525390625" lon="19.89931739866733551025390625">
        <ele>1899.800048828125</ele>
        <time>2026-06-17T11:51:31.000Z</time>
        <extensions>
          <ns3:TrackPointExtension>
            <ns3:atemp>16.0</ns3:atemp>
          </ns3:TrackPointExtension>
        </extensions>
      </trkpt>
      <trkpt lat="42.50876225531101226806640625" lon="19.8993172310292720794677734375">
        <ele>1899.800048828125</ele>
        <time>2026-06-17T11:51:32.000Z</time>
        <extensions>
          <ns3:TrackPointExtension>
            <ns3:atemp>16.0</ns3:atemp>
          </ns3:TrackPointExtension>
        </extensions>
      </trkpt>
      <trkpt lat="42.508754543960094451904296875" lon="19.899308681488037109375">
        <ele>1899.5999755859375</ele>
        <time>2026-06-17T11:51:33.000Z</time>
        <extensions>
          <ns3:TrackPointExtension>
            <ns3:atemp>16.0</ns3:atemp>
          </ns3:TrackPointExtension>
        </extensions>
      </trkpt>
      <trkpt lat="42.508747167885303497314453125" lon="19.89930138923227787017822265625">
        <ele>1899.5999755859375</ele>
        <time>2026-06-17T11:51:34.000Z</time>
        <extensions>
          <ns3:TrackPointExtension>
            <ns3:atemp>16.0</ns3:atemp>
          </ns3:TrackPointExtension>
        </extensions>
      </trkpt>
      <trkpt lat="42.5087349303066730499267578125" lon="19.8992927558720111846923828125">
        <ele>1899.800048828125</ele>
        <time>2026-06-17T11:51:35.000Z</time>
        <extensions>
          <ns3:TrackPointExtension>
            <ns3:atemp>16.0</ns3:atemp>
          </ns3:TrackPointExtension>
        </extensions>
      </trkpt>
      <trkpt lat="42.50871799886226654052734375" lon="19.89928579889237880706787109375">
        <ele>1899.800048828125</ele>
        <time>2026-06-17T11:51:36.000Z</time>
        <extensions>
          <ns3:TrackPointExtension>
            <ns3:atemp>16.0</ns3:atemp>
          </ns3:TrackPointExtension>
        </extensions>
      </trkpt>
      <trkpt lat="42.50869654119014739990234375" lon="19.8992749862372875213623046875">
        <ele>1899.800048828125</ele>
        <time>2026-06-17T11:51:37.000Z</time>
        <extensions>
          <ns3:TrackPointExtension>
            <ns3:atemp>16.0</ns3:atemp>
          </ns3:TrackPointExtension>
        </extensions>
      </trkpt>
      <trkpt lat="42.50867307186126708984375" lon="19.89927255548536777496337890625">
        <ele>1899.800048828125</ele>
        <time>2026-06-17T11:51:38.000Z</time>
        <extensions>
          <ns3:TrackPointExtension>
            <ns3:atemp>16.0</ns3:atemp>
          </ns3:TrackPointExtension>
        </extensions>
      </trkpt>
      <trkpt lat="42.50865186564624309539794921875" lon="19.8992764949798583984375">
        <ele>1899.800048828125</ele>
        <time>2026-06-17T11:51:39.000Z</time>
        <extensions>
          <ns3:TrackPointExtension>
            <ns3:atemp>16.0</ns3:atemp>
          </ns3:TrackPointExtension>
        </extensions>
      </trkpt>
      <trkpt lat="42.50863912515342235565185546875" lon="19.89926987327635288238525390625">
        <ele>1900</ele>
        <time>2026-06-17T11:51:40.000Z</time>
        <extensions>
          <ns3:TrackPointExtension>
            <ns3:atemp>16.0</ns3:atemp>
          </ns3:TrackPointExtension>
        </extensions>
      </trkpt>
      <trkpt lat="42.508633844554424285888671875" lon="19.89925981499254703521728515625">
        <ele>1900</ele>
        <time>2026-06-17T11:51:41.000Z</time>
        <extensions>
          <ns3:TrackPointExtension>
            <ns3:atemp>16.0</ns3:atemp>
          </ns3:TrackPointExtension>
        </extensions>
      </trkpt>
      <trkpt lat="42.50862068496644496917724609375" lon="19.89924087189137935638427734375">
        <ele>1900.199951171875</ele>
        <time>2026-06-17T11:51:42.000Z</time>
        <extensions>
          <ns3:TrackPointExtension>
            <ns3:atemp>16.0</ns3:atemp>
          </ns3:TrackPointExtension>
        </extensions>
      </trkpt>
      <trkpt lat="42.50860492698848247528076171875" lon="19.89922192879021167755126953125">
        <ele>1900.199951171875</ele>
        <time>2026-06-17T11:51:43.000Z</time>
        <extensions>
          <ns3:TrackPointExtension>
            <ns3:atemp>16.0</ns3:atemp>
          </ns3:TrackPointExtension>
        </extensions>
      </trkpt>
      <trkpt lat="42.5086041726171970367431640625" lon="19.8992143012583255767822265625">
        <ele>1900.4000244140625</ele>
        <time>2026-06-17T11:51:44.000Z</time>
        <extensions>
          <ns3:TrackPointExtension>
            <ns3:atemp>16.0</ns3:atemp>
          </ns3:TrackPointExtension>
        </extensions>
      </trkpt>
      <trkpt lat="42.5086041726171970367431640625" lon="19.8992143012583255767822265625">
        <ele>1900.4000244140625</ele>
        <time>2026-06-17T11:51:45.000Z</time>
        <extensions>
          <ns3:TrackPointExtension>
            <ns3:atemp>16.0</ns3:atemp>
          </ns3:TrackPointExtension>
        </extensions>
      </trkpt>
      <trkpt lat="42.5086041726171970367431640625" lon="19.8992143012583255767822265625">
        <ele>1900.4000244140625</ele>
        <time>2026-06-17T11:51:46.000Z</time>
        <extensions>
          <ns3:TrackPointExtension>
            <ns3:atemp>16.0</ns3:atemp>
          </ns3:TrackPointExtension>
        </extensions>
      </trkpt>
      <trkpt lat="42.5086041726171970367431640625" lon="19.8992143012583255767822265625">
        <ele>1900.5999755859375</ele>
        <time>2026-06-17T11:51:47.000Z</time>
        <extensions>
          <ns3:TrackPointExtension>
            <ns3:atemp>16.0</ns3:atemp>
          </ns3:TrackPointExtension>
        </extensions>
      </trkpt>
      <trkpt lat="42.5086041726171970367431640625" lon="19.8992143012583255767822265625">
        <ele>1900.5999755859375</ele>
        <time>2026-06-17T11:51:48.000Z</time>
        <extensions>
          <ns3:TrackPointExtension>
            <ns3:atemp>16.0</ns3:atemp>
          </ns3:TrackPointExtension>
        </extensions>
      </trkpt>
      <trkpt lat="42.5086041726171970367431640625" lon="19.8992143012583255767822265625">
        <ele>1900.800048828125</ele>
        <time>2026-06-17T11:51:49.000Z</time>
        <extensions>
          <ns3:TrackPointExtension>
            <ns3:atemp>16.0</ns3:atemp>
          </ns3:TrackPointExtension>
        </extensions>
      </trkpt>
      <trkpt lat="42.5086041726171970367431640625" lon="19.8992143012583255767822265625">
        <ele>1900.800048828125</ele>
        <time>2026-06-17T11:51:50.000Z</time>
        <extensions>
          <ns3:TrackPointExtension>
            <ns3:atemp>16.0</ns3:atemp>
          </ns3:TrackPointExtension>
        </extensions>
      </trkpt>
      <trkpt lat="42.5086041726171970367431640625" lon="19.8992143012583255767822265625">
        <ele>1900.800048828125</ele>
        <time>2026-06-17T11:51:51.000Z</time>
        <extensions>
          <ns3:TrackPointExtension>
            <ns3:atemp>16.0</ns3:atemp>
          </ns3:TrackPointExtension>
        </extensions>
      </trkpt>
      <trkpt lat="42.5086041726171970367431640625" lon="19.8992143012583255767822265625">
        <ele>1900.800048828125</ele>
        <time>2026-06-17T11:51:52.000Z</time>
        <extensions>
          <ns3:TrackPointExtension>
            <ns3:atemp>16.0</ns3:atemp>
          </ns3:TrackPointExtension>
        </extensions>
      </trkpt>
      <trkpt lat="42.5086041726171970367431640625" lon="19.8992143012583255767822265625">
        <ele>1900.800048828125</ele>
        <time>2026-06-17T11:51:53.000Z</time>
        <extensions>
          <ns3:TrackPointExtension>
            <ns3:atemp>16.0</ns3:atemp>
          </ns3:TrackPointExtension>
        </extensions>
      </trkpt>
      <trkpt lat="42.5086041726171970367431640625" lon="19.8992143012583255767822265625">
        <ele>1900.5999755859375</ele>
        <time>2026-06-17T11:51:54.000Z</time>
        <extensions>
          <ns3:TrackPointExtension>
            <ns3:atemp>16.0</ns3:atemp>
          </ns3:TrackPointExtension>
        </extensions>
      </trkpt>
      <trkpt lat="42.508602999150753021240234375" lon="19.8992146365344524383544921875">
        <ele>1900.5999755859375</ele>
        <time>2026-06-17T11:51:55.000Z</time>
        <extensions>
          <ns3:TrackPointExtension>
            <ns3:atemp>16.0</ns3:atemp>
          </ns3:TrackPointExtension>
        </extensions>
      </trkpt>
      <trkpt lat="42.50858833082020282745361328125" lon="19.8992119543254375457763671875">
        <ele>1900.5999755859375</ele>
        <time>2026-06-17T11:51:56.000Z</time>
        <extensions>
          <ns3:TrackPointExtension>
            <ns3:atemp>16.0</ns3:atemp>
          </ns3:TrackPointExtension>
        </extensions>
      </trkpt>
      <trkpt lat="42.50857559032738208770751953125" lon="19.89920399151742458343505859375">
        <ele>1900.5999755859375</ele>
        <time>2026-06-17T11:51:57.000Z</time>
        <extensions>
          <ns3:TrackPointExtension>
            <ns3:atemp>16.0</ns3:atemp>
          </ns3:TrackPointExtension>
        </extensions>
      </trkpt>
      <trkpt lat="42.50856486149132251739501953125" lon="19.8991973698139190673828125">
        <ele>1900.800048828125</ele>
        <time>2026-06-17T11:51:58.000Z</time>
        <extensions>
          <ns3:TrackPointExtension>
            <ns3:atemp>16.0</ns3:atemp>
          </ns3:TrackPointExtension>
        </extensions>
      </trkpt>
      <trkpt lat="42.5085535459220409393310546875" lon="19.8991906642913818359375">
        <ele>1900.800048828125</ele>
        <time>2026-06-17T11:51:59.000Z</time>
        <extensions>
          <ns3:TrackPointExtension>
            <ns3:atemp>16.0</ns3:atemp>
          </ns3:TrackPointExtension>
        </extensions>
      </trkpt>
      <trkpt lat="42.50854969024658203125" lon="19.8991918377578258514404296875">
        <ele>1900.800048828125</ele>
        <time>2026-06-17T11:52:00.000Z</time>
        <extensions>
          <ns3:TrackPointExtension>
            <ns3:atemp>16.0</ns3:atemp>
          </ns3:TrackPointExtension>
        </extensions>
      </trkpt>
      <trkpt lat="42.50855044461786746978759765625" lon="19.89918990992009639739990234375">
        <ele>1901</ele>
        <time>2026-06-17T11:52:01.000Z</time>
        <extensions>
          <ns3:TrackPointExtension>
            <ns3:atemp>16.0</ns3:atemp>
          </ns3:TrackPointExtension>
        </extensions>
      </trkpt>
      <trkpt lat="42.50855044461786746978759765625" lon="19.8991898261010646820068359375">
        <ele>1901</ele>
        <time>2026-06-17T11:52:02.000Z</time>
        <extensions>
          <ns3:TrackPointExtension>
            <ns3:atemp>16.0</ns3:atemp>
          </ns3:TrackPointExtension>
        </extensions>
      </trkpt>
      <trkpt lat="42.50855044461786746978759765625" lon="19.8991898261010646820068359375">
        <ele>1901</ele>
        <time>2026-06-17T11:52:03.000Z</time>
        <extensions>
          <ns3:TrackPointExtension>
            <ns3:atemp>16.0</ns3:atemp>
          </ns3:TrackPointExtension>
        </extensions>
      </trkpt>
      <trkpt lat="42.50855044461786746978759765625" lon="19.8991898261010646820068359375">
        <ele>1901</ele>
        <time>2026-06-17T11:52:04.000Z</time>
        <extensions>
          <ns3:TrackPointExtension>
            <ns3:atemp>16.0</ns3:atemp>
          </ns3:TrackPointExtension>
        </extensions>
      </trkpt>
      <trkpt lat="42.50855044461786746978759765625" lon="19.8991898261010646820068359375">
        <ele>1901</ele>
        <time>2026-06-17T11:52:05.000Z</time>
        <extensions>
          <ns3:TrackPointExtension>
            <ns3:atemp>16.0</ns3:atemp>
          </ns3:TrackPointExtension>
        </extensions>
      </trkpt>
      <trkpt lat="42.50855044461786746978759765625" lon="19.8991898261010646820068359375">
        <ele>1901</ele>
        <time>2026-06-17T11:52:06.000Z</time>
        <extensions>
          <ns3:TrackPointExtension>
            <ns3:atemp>16.0</ns3:atemp>
          </ns3:TrackPointExtension>
        </extensions>
      </trkpt>
      <trkpt lat="42.50855044461786746978759765625" lon="19.8991898261010646820068359375">
        <ele>1901</ele>
        <time>2026-06-17T11:52:07.000Z</time>
        <extensions>
          <ns3:TrackPointExtension>
            <ns3:atemp>16.0</ns3:atemp>
          </ns3:TrackPointExtension>
        </extensions>
      </trkpt>
      <trkpt lat="42.5085501931607723236083984375" lon="19.8991893231868743896484375">
        <ele>1901</ele>
        <time>2026-06-17T11:52:08.000Z</time>
        <extensions>
          <ns3:TrackPointExtension>
            <ns3:atemp>16.0</ns3:atemp>
          </ns3:TrackPointExtension>
        </extensions>
      </trkpt>
      <trkpt lat="42.50853653065860271453857421875" lon="19.89918337203562259674072265625">
        <ele>1901</ele>
        <time>2026-06-17T11:52:09.000Z</time>
        <extensions>
          <ns3:TrackPointExtension>
            <ns3:atemp>16.0</ns3:atemp>
          </ns3:TrackPointExtension>
        </extensions>
      </trkpt>
      <trkpt lat="42.5085233710706233978271484375" lon="19.89918052218854427337646484375">
        <ele>1901</ele>
        <time>2026-06-17T11:52:10.000Z</time>
        <extensions>
          <ns3:TrackPointExtension>
            <ns3:atemp>16.0</ns3:atemp>
          </ns3:TrackPointExtension>
        </extensions>
      </trkpt>
      <trkpt lat="42.5085022486746311187744140625" lon="19.8991777561604976654052734375">
        <ele>1901</ele>
        <time>2026-06-17T11:52:11.000Z</time>
        <extensions>
          <ns3:TrackPointExtension>
            <ns3:atemp>16.0</ns3:atemp>
          </ns3:TrackPointExtension>
        </extensions>
      </trkpt>
      <trkpt lat="42.508478276431560516357421875" lon="19.89917666651308536529541015625">
        <ele>1901</ele>
        <time>2026-06-17T11:52:12.000Z</time>
        <extensions>
          <ns3:TrackPointExtension>
            <ns3:atemp>16.0</ns3:atemp>
          </ns3:TrackPointExtension>
        </extensions>
      </trkpt>
      <trkpt lat="42.5084522925317287445068359375" lon="19.89917767234146595001220703125">
        <ele>1901</ele>
        <time>2026-06-17T11:52:13.000Z</time>
        <extensions>
          <ns3:TrackPointExtension>
            <ns3:atemp>16.0</ns3:atemp>
          </ns3:TrackPointExtension>
        </extensions>
      </trkpt>
      <trkpt lat="42.5084217824041843414306640625" lon="19.8991837911307811737060546875">
        <ele>1901</ele>
        <time>2026-06-17T11:52:14.000Z</time>
        <extensions>
          <ns3:TrackPointExtension>
            <ns3:atemp>16.0</ns3:atemp>
          </ns3:TrackPointExtension>
        </extensions>
      </trkpt>
      <trkpt lat="42.50839336775243282318115234375" lon="19.89918990992009639739990234375">
        <ele>1901</ele>
        <time>2026-06-17T11:52:15.000Z</time>
        <extensions>
          <ns3:TrackPointExtension>
            <ns3:atemp>16.0</ns3:atemp>
          </ns3:TrackPointExtension>
        </extensions>
      </trkpt>
      <trkpt lat="42.50836017541587352752685546875" lon="19.89918923936784267425537109375">
        <ele>1901</ele>
        <time>2026-06-17T11:52:16.000Z</time>
        <extensions>
          <ns3:TrackPointExtension>
            <ns3:atemp>16.0</ns3:atemp>
          </ns3:TrackPointExtension>
        </extensions>
      </trkpt>
      <trkpt lat="42.5083295814692974090576171875" lon="19.899182952940464019775390625">
        <ele>1901.199951171875</ele>
        <time>2026-06-17T11:52:17.000Z</time>
        <extensions>
          <ns3:TrackPointExtension>
            <ns3:atemp>16.0</ns3:atemp>
          </ns3:TrackPointExtension>
        </extensions>
      </trkpt>
      <trkpt lat="42.5082963891327381134033203125" lon="19.899181611835956573486328125">
        <ele>1901</ele>
        <time>2026-06-17T11:52:18.000Z</time>
        <extensions>
          <ns3:TrackPointExtension>
            <ns3:atemp>16.0</ns3:atemp>
          </ns3:TrackPointExtension>
        </extensions>
      </trkpt>
      <trkpt lat="42.508269064128398895263671875" lon="19.8991878144443035125732421875">
        <ele>1901</ele>
        <time>2026-06-17T11:52:19.000Z</time>
        <extensions>
          <ns3:TrackPointExtension>
            <ns3:atemp>16.0</ns3:atemp>
          </ns3:TrackPointExtension>
        </extensions>
      </trkpt>
      <trkpt lat="42.50825070776045322418212890625" lon="19.899193346500396728515625">
        <ele>1901</ele>
        <time>2026-06-17T11:52:20.000Z</time>
        <extensions>
          <ns3:TrackPointExtension>
            <ns3:atemp>16.0</ns3:atemp>
          </ns3:TrackPointExtension>
        </extensions>
      </trkpt>
      <trkpt lat="42.50824836082756519317626953125" lon="19.89920130930840969085693359375">
        <ele>1901.199951171875</ele>
        <time>2026-06-17T11:52:21.000Z</time>
        <extensions>
          <ns3:TrackPointExtension>
            <ns3:atemp>16.0</ns3:atemp>
          </ns3:TrackPointExtension>
        </extensions>
      </trkpt>
      <trkpt lat="42.50824727118015289306640625" lon="19.8992018960416316986083984375">
        <ele>1901.199951171875</ele>
        <time>2026-06-17T11:52:22.000Z</time>
        <extensions>
          <ns3:TrackPointExtension>
            <ns3:atemp>16.0</ns3:atemp>
          </ns3:TrackPointExtension>
        </extensions>
      </trkpt>
      <trkpt lat="42.50824727118015289306640625" lon="19.8992018960416316986083984375">
        <ele>1901.4000244140625</ele>
        <time>2026-06-17T11:52:23.000Z</time>
        <extensions>
          <ns3:TrackPointExtension>
            <ns3:atemp>16.0</ns3:atemp>
          </ns3:TrackPointExtension>
        </extensions>
      </trkpt>
      <trkpt lat="42.50824735499918460845947265625" lon="19.8992018960416316986083984375">
        <ele>1901.4000244140625</ele>
        <time>2026-06-17T11:52:24.000Z</time>
        <extensions>
          <ns3:TrackPointExtension>
            <ns3:atemp>16.0</ns3:atemp>
          </ns3:TrackPointExtension>
        </extensions>
      </trkpt>
      <trkpt lat="42.50824215821921825408935546875" lon="19.89920700900256633758544921875">
        <ele>1901.4000244140625</ele>
        <time>2026-06-17T11:52:25.000Z</time>
        <extensions>
          <ns3:TrackPointExtension>
            <ns3:atemp>16.0</ns3:atemp>
          </ns3:TrackPointExtension>
        </extensions>
      </trkpt>
      <trkpt lat="42.50823796726763248443603515625" lon="19.89921287633478641510009765625">
        <ele>1901.4000244140625</ele>
        <time>2026-06-17T11:52:26.000Z</time>
        <extensions>
          <ns3:TrackPointExtension>
            <ns3:atemp>16.0</ns3:atemp>
          </ns3:TrackPointExtension>
        </extensions>
      </trkpt>
      <trkpt lat="42.508232854306697845458984375" lon="19.89921689964830875396728515625">
        <ele>1901.4000244140625</ele>
        <time>2026-06-17T11:52:27.000Z</time>
        <extensions>
          <ns3:TrackPointExtension>
            <ns3:atemp>16.0</ns3:atemp>
          </ns3:TrackPointExtension>
        </extensions>
      </trkpt>
      <trkpt lat="42.50822925008833408355712890625" lon="19.8992169834673404693603515625">
        <ele>1901.4000244140625</ele>
        <time>2026-06-17T11:52:28.000Z</time>
        <extensions>
          <ns3:TrackPointExtension>
            <ns3:atemp>16.0</ns3:atemp>
          </ns3:TrackPointExtension>
        </extensions>
      </trkpt>
      <trkpt lat="42.50822287984192371368408203125" lon="19.89921991713345050811767578125">
        <ele>1901.199951171875</ele>
        <time>2026-06-17T11:52:29.000Z</time>
        <extensions>
          <ns3:TrackPointExtension>
            <ns3:atemp>16.0</ns3:atemp>
          </ns3:TrackPointExtension>
        </extensions>
      </trkpt>
      <trkpt lat="42.508215419948101043701171875" lon="19.899223186075687408447265625">
        <ele>1901</ele>
        <time>2026-06-17T11:52:30.000Z</time>
        <extensions>
          <ns3:TrackPointExtension>
            <ns3:atemp>16.0</ns3:atemp>
          </ns3:TrackPointExtension>
        </extensions>
      </trkpt>
      <trkpt lat="42.50821198336780071258544921875" lon="19.89922461099922657012939453125">
        <ele>1900.800048828125</ele>
        <time>2026-06-17T11:52:31.000Z</time>
        <extensions>
          <ns3:TrackPointExtension>
            <ns3:atemp>16.0</ns3:atemp>
          </ns3:TrackPointExtension>
        </extensions>
      </trkpt>
      <trkpt lat="42.50821013934910297393798828125" lon="19.89922729320824146270751953125">
        <ele>1900.5999755859375</ele>
        <time>2026-06-17T11:52:32.000Z</time>
        <extensions>
          <ns3:TrackPointExtension>
            <ns3:atemp>16.0</ns3:atemp>
          </ns3:TrackPointExtension>
        </extensions>
      </trkpt>
      <trkpt lat="42.50820125453174114227294921875" lon="19.89923316054046154022216796875">
        <ele>1900.4000244140625</ele>
        <time>2026-06-17T11:52:33.000Z</time>
        <extensions>
          <ns3:TrackPointExtension>
            <ns3:atemp>16.0</ns3:atemp>
          </ns3:TrackPointExtension>
        </extensions>
      </trkpt>
      <trkpt lat="42.50819505192339420318603515625" lon="19.89923601038753986358642578125">
        <ele>1900.199951171875</ele>
        <time>2026-06-17T11:52:34.000Z</time>
        <extensions>
          <ns3:TrackPointExtension>
            <ns3:atemp>16.0</ns3:atemp>
          </ns3:TrackPointExtension>
        </extensions>
      </trkpt>
      <trkpt lat="42.508187592029571533203125" lon="19.89924254827201366424560546875">
        <ele>1900</ele>
        <time>2026-06-17T11:52:35.000Z</time>
        <extensions>
          <ns3:TrackPointExtension>
            <ns3:atemp>16.0</ns3:atemp>
          </ns3:TrackPointExtension>
        </extensions>
      </trkpt>
      <trkpt lat="42.50818298198282718658447265625" lon="19.89924925379455089569091796875">
        <ele>1899.800048828125</ele>
        <time>2026-06-17T11:52:36.000Z</time>
        <extensions>
          <ns3:TrackPointExtension>
            <ns3:atemp>16.0</ns3:atemp>
          </ns3:TrackPointExtension>
        </extensions>
      </trkpt>
      <trkpt lat="42.5081760250031948089599609375" lon="19.89925629459321498870849609375">
        <ele>1899.5999755859375</ele>
        <time>2026-06-17T11:52:37.000Z</time>
        <extensions>
          <ns3:TrackPointExtension>
            <ns3:atemp>16.0</ns3:atemp>
          </ns3:TrackPointExtension>
        </extensions>
      </trkpt>
      <trkpt lat="42.5081693194806575775146484375" lon="19.89925160072743892669677734375">
        <ele>1899.4000244140625</ele>
        <time>2026-06-17T11:52:38.000Z</time>
        <extensions>
          <ns3:TrackPointExtension>
            <ns3:atemp>16.0</ns3:atemp>
          </ns3:TrackPointExtension>
        </extensions>
      </trkpt>
      <trkpt lat="42.50816387124359607696533203125" lon="19.89924992434680461883544921875">
        <ele>1899.199951171875</ele>
        <time>2026-06-17T11:52:39.000Z</time>
        <extensions>
          <ns3:TrackPointExtension>
            <ns3:atemp>16.0</ns3:atemp>
          </ns3:TrackPointExtension>
        </extensions>
      </trkpt>
      <trkpt lat="42.50815548934042453765869140625" lon="19.89925143308937549591064453125">
        <ele>1899</ele>
        <time>2026-06-17T11:52:40.000Z</time>
        <extensions>
          <ns3:TrackPointExtension>
            <ns3:atemp>16.0</ns3:atemp>
          </ns3:TrackPointExtension>
        </extensions>
      </trkpt>
      <trkpt lat="42.50814274884760379791259765625" lon="19.8992461524903774261474609375">
        <ele>1898.800048828125</ele>
        <time>2026-06-17T11:52:41.000Z</time>
        <extensions>
          <ns3:TrackPointExtension>
            <ns3:atemp>16.0</ns3:atemp>
          </ns3:TrackPointExtension>
        </extensions>
      </trkpt>
      <trkpt lat="42.50813352875411510467529296875" lon="19.89924154244363307952880859375">
        <ele>1898.4000244140625</ele>
        <time>2026-06-17T11:52:42.000Z</time>
        <extensions>
          <ns3:TrackPointExtension>
            <ns3:atemp>16.0</ns3:atemp>
          </ns3:TrackPointExtension>
        </extensions>
      </trkpt>
      <trkpt lat="42.5081243924796581268310546875" lon="19.89923517219722270965576171875">
        <ele>1898.199951171875</ele>
        <time>2026-06-17T11:52:43.000Z</time>
        <extensions>
          <ns3:TrackPointExtension>
            <ns3:atemp>16.0</ns3:atemp>
          </ns3:TrackPointExtension>
        </extensions>
      </trkpt>
      <trkpt lat="42.50811995007097721099853515625" lon="19.89922980777919292449951171875">
        <ele>1898</ele>
        <time>2026-06-17T11:52:44.000Z</time>
        <extensions>
          <ns3:TrackPointExtension>
            <ns3:atemp>16.0</ns3:atemp>
          </ns3:TrackPointExtension>
        </extensions>
      </trkpt>
      <trkpt lat="42.50811718404293060302734375" lon="19.89922947250306606292724609375">
        <ele>1898</ele>
        <time>2026-06-17T11:52:45.000Z</time>
        <extensions>
          <ns3:TrackPointExtension>
            <ns3:atemp>16.0</ns3:atemp>
          </ns3:TrackPointExtension>
        </extensions>
      </trkpt>
      <trkpt lat="42.5081170164048671722412109375" lon="19.89922947250306606292724609375">
        <ele>1898</ele>
        <time>2026-06-17T11:52:46.000Z</time>
        <extensions>
          <ns3:TrackPointExtension>
            <ns3:atemp>16.0</ns3:atemp>
          </ns3:TrackPointExtension>
        </extensions>
      </trkpt>
      <trkpt lat="42.5081170164048671722412109375" lon="19.89922947250306606292724609375">
        <ele>1898</ele>
        <time>2026-06-17T11:52:47.000Z</time>
        <extensions>
          <ns3:TrackPointExtension>
            <ns3:atemp>16.0</ns3:atemp>
          </ns3:TrackPointExtension>
        </extensions>
      </trkpt>
      <trkpt lat="42.5081170164048671722412109375" lon="19.89922947250306606292724609375">
        <ele>1898</ele>
        <time>2026-06-17T11:52:48.000Z</time>
        <extensions>
          <ns3:TrackPointExtension>
            <ns3:atemp>16.0</ns3:atemp>
          </ns3:TrackPointExtension>
        </extensions>
      </trkpt>
      <trkpt lat="42.50811659730970859527587890625" lon="19.899229221045970916748046875">
        <ele>1898</ele>
        <time>2026-06-17T11:52:49.000Z</time>
        <extensions>
          <ns3:TrackPointExtension>
            <ns3:atemp>16.0</ns3:atemp>
          </ns3:TrackPointExtension>
        </extensions>
      </trkpt>
      <trkpt lat="42.5081170164048671722412109375" lon="19.89922947250306606292724609375">
        <ele>1898</ele>
        <time>2026-06-17T11:52:50.000Z</time>
        <extensions>
          <ns3:TrackPointExtension>
            <ns3:atemp>16.0</ns3:atemp>
          </ns3:TrackPointExtension>
        </extensions>
      </trkpt>
      <trkpt lat="42.5081170164048671722412109375" lon="19.89922947250306606292724609375">
        <ele>1898</ele>
        <time>2026-06-17T11:52:51.000Z</time>
        <extensions>
          <ns3:TrackPointExtension>
            <ns3:atemp>16.0</ns3:atemp>
          </ns3:TrackPointExtension>
        </extensions>
      </trkpt>
      <trkpt lat="42.5081170164048671722412109375" lon="19.89922947250306606292724609375">
        <ele>1898</ele>
        <time>2026-06-17T11:52:52.000Z</time>
        <extensions>
          <ns3:TrackPointExtension>
            <ns3:atemp>16.0</ns3:atemp>
          </ns3:TrackPointExtension>
        </extensions>
      </trkpt>
      <trkpt lat="42.5081170164048671722412109375" lon="19.89922947250306606292724609375">
        <ele>1898</ele>
        <time>2026-06-17T11:52:53.000Z</time>
        <extensions>
          <ns3:TrackPointExtension>
            <ns3:atemp>16.0</ns3:atemp>
          </ns3:TrackPointExtension>
        </extensions>
      </trkpt>
      <trkpt lat="42.5081170164048671722412109375" lon="19.89922947250306606292724609375">
        <ele>1897.800048828125</ele>
        <time>2026-06-17T11:52:54.000Z</time>
        <extensions>
          <ns3:TrackPointExtension>
            <ns3:atemp>16.0</ns3:atemp>
          </ns3:TrackPointExtension>
        </extensions>
      </trkpt>
      <trkpt lat="42.5081170164048671722412109375" lon="19.89922947250306606292724609375">
        <ele>1897.800048828125</ele>
        <time>2026-06-17T11:52:55.000Z</time>
        <extensions>
          <ns3:TrackPointExtension>
            <ns3:atemp>16.0</ns3:atemp>
          </ns3:TrackPointExtension>
        </extensions>
      </trkpt>
      <trkpt lat="42.5081170164048671722412109375" lon="19.89922947250306606292724609375">
        <ele>1897.800048828125</ele>
        <time>2026-06-17T11:52:56.000Z</time>
        <extensions>
          <ns3:TrackPointExtension>
            <ns3:atemp>16.0</ns3:atemp>
          </ns3:TrackPointExtension>
        </extensions>
      </trkpt>
      <trkpt lat="42.5081170164048671722412109375" lon="19.89922947250306606292724609375">
        <ele>1897.5999755859375</ele>
        <time>2026-06-17T11:52:57.000Z</time>
        <extensions>
          <ns3:TrackPointExtension>
            <ns3:atemp>16.0</ns3:atemp>
          </ns3:TrackPointExtension>
        </extensions>
      </trkpt>
      <trkpt lat="42.5081170164048671722412109375" lon="19.89922947250306606292724609375">
        <ele>1897.5999755859375</ele>
        <time>2026-06-17T11:52:58.000Z</time>
        <extensions>
          <ns3:TrackPointExtension>
            <ns3:atemp>16.0</ns3:atemp>
          </ns3:TrackPointExtension>
        </extensions>
      </trkpt>
      <trkpt lat="42.5081170164048671722412109375" lon="19.89922947250306606292724609375">
        <ele>1897.5999755859375</ele>
        <time>2026-06-17T11:52:59.000Z</time>
        <extensions>
          <ns3:TrackPointExtension>
            <ns3:atemp>16.0</ns3:atemp>
          </ns3:TrackPointExtension>
        </extensions>
      </trkpt>
      <trkpt lat="42.5081170164048671722412109375" lon="19.89922947250306606292724609375">
        <ele>1897.5999755859375</ele>
        <time>2026-06-17T11:53:00.000Z</time>
        <extensions>
          <ns3:TrackPointExtension>
            <ns3:atemp>16.0</ns3:atemp>
          </ns3:TrackPointExtension>
        </extensions>
      </trkpt>
      <trkpt lat="42.5081170164048671722412109375" lon="19.89922947250306606292724609375">
        <ele>1897.5999755859375</ele>
        <time>2026-06-17T11:53:01.000Z</time>
        <extensions>
          <ns3:TrackPointExtension>
            <ns3:atemp>16.0</ns3:atemp>
          </ns3:TrackPointExtension>
        </extensions>
      </trkpt>
      <trkpt lat="42.5081170164048671722412109375" lon="19.89922947250306606292724609375">
        <ele>1897.5999755859375</ele>
        <time>2026-06-17T11:53:02.000Z</time>
        <extensions>
          <ns3:TrackPointExtension>
            <ns3:atemp>16.0</ns3:atemp>
          </ns3:TrackPointExtension>
        </extensions>
      </trkpt>
      <trkpt lat="42.5081170164048671722412109375" lon="19.89922947250306606292724609375">
        <ele>1897.5999755859375</ele>
        <time>2026-06-17T11:53:03.000Z</time>
        <extensions>
          <ns3:TrackPointExtension>
            <ns3:atemp>16.0</ns3:atemp>
          </ns3:TrackPointExtension>
        </extensions>
      </trkpt>
      <trkpt lat="42.5081170164048671722412109375" lon="19.89922947250306606292724609375">
        <ele>1897.5999755859375</ele>
        <time>2026-06-17T11:53:04.000Z</time>
        <extensions>
          <ns3:TrackPointExtension>
            <ns3:atemp>16.0</ns3:atemp>
          </ns3:TrackPointExtension>
        </extensions>
      </trkpt>
      <trkpt lat="42.5081170164048671722412109375" lon="19.89922947250306606292724609375">
        <ele>1897.5999755859375</ele>
        <time>2026-06-17T11:53:05.000Z</time>
        <extensions>
          <ns3:TrackPointExtension>
            <ns3:atemp>16.0</ns3:atemp>
          </ns3:TrackPointExtension>
        </extensions>
      </trkpt>
      <trkpt lat="42.5081170164048671722412109375" lon="19.89922947250306606292724609375">
        <ele>1897.5999755859375</ele>
        <time>2026-06-17T11:53:06.000Z</time>
        <extensions>
          <ns3:TrackPointExtension>
            <ns3:atemp>16.0</ns3:atemp>
          </ns3:TrackPointExtension>
        </extensions>
      </trkpt>
      <trkpt lat="42.5081170164048671722412109375" lon="19.89922947250306606292724609375">
        <ele>1897.4000244140625</ele>
        <time>2026-06-17T11:53:07.000Z</time>
        <extensions>
          <ns3:TrackPointExtension>
            <ns3:atemp>16.0</ns3:atemp>
          </ns3:TrackPointExtension>
        </extensions>
      </trkpt>
      <trkpt lat="42.5081170164048671722412109375" lon="19.89922947250306606292724609375">
        <ele>1897.4000244140625</ele>
        <time>2026-06-17T11:53:08.000Z</time>
        <extensions>
          <ns3:TrackPointExtension>
            <ns3:atemp>16.0</ns3:atemp>
          </ns3:TrackPointExtension>
        </extensions>
      </trkpt>
      <trkpt lat="42.5081170164048671722412109375" lon="19.89922947250306606292724609375">
        <ele>1897.4000244140625</ele>
        <time>2026-06-17T11:53:09.000Z</time>
        <extensions>
          <ns3:TrackPointExtension>
            <ns3:atemp>16.0</ns3:atemp>
          </ns3:TrackPointExtension>
        </extensions>
      </trkpt>
      <trkpt lat="42.5081170164048671722412109375" lon="19.89922947250306606292724609375">
        <ele>1897.4000244140625</ele>
        <time>2026-06-17T11:53:10.000Z</time>
        <extensions>
          <ns3:TrackPointExtension>
            <ns3:atemp>16.0</ns3:atemp>
          </ns3:TrackPointExtension>
        </extensions>
      </trkpt>
      <trkpt lat="42.5081170164048671722412109375" lon="19.89922947250306606292724609375">
        <ele>1897.4000244140625</ele>
        <time>2026-06-17T11:53:11.000Z</time>
        <extensions>
          <ns3:TrackPointExtension>
            <ns3:atemp>16.0</ns3:atemp>
          </ns3:TrackPointExtension>
        </extensions>
      </trkpt>
      <trkpt lat="42.5081170164048671722412109375" lon="19.89922947250306606292724609375">
        <ele>1897.4000244140625</ele>
        <time>2026-06-17T11:53:12.000Z</time>
        <extensions>
          <ns3:TrackPointExtension>
            <ns3:atemp>16.0</ns3:atemp>
          </ns3:TrackPointExtension>
        </extensions>
      </trkpt>
      <trkpt lat="42.50811123289167881011962890625" lon="19.89922821521759033203125">
        <ele>1897.199951171875</ele>
        <time>2026-06-17T11:53:13.000Z</time>
        <extensions>
          <ns3:TrackPointExtension>
            <ns3:atemp>16.0</ns3:atemp>
          </ns3:TrackPointExtension>
        </extensions>
      </trkpt>
      <trkpt lat="42.5081170164048671722412109375" lon="19.89922947250306606292724609375">
        <ele>1897.199951171875</ele>
        <time>2026-06-17T11:53:14.000Z</time>
        <extensions>
          <ns3:TrackPointExtension>
            <ns3:atemp>16.0</ns3:atemp>
          </ns3:TrackPointExtension>
        </extensions>
      </trkpt>
      <trkpt lat="42.5081170164048671722412109375" lon="19.89922947250306606292724609375">
        <ele>1897.4000244140625</ele>
        <time>2026-06-17T11:53:15.000Z</time>
        <extensions>
          <ns3:TrackPointExtension>
            <ns3:atemp>16.0</ns3:atemp>
          </ns3:TrackPointExtension>
        </extensions>
      </trkpt>
      <trkpt lat="42.5081170164048671722412109375" lon="19.89922947250306606292724609375">
        <ele>1897.4000244140625</ele>
        <time>2026-06-17T11:53:16.000Z</time>
        <extensions>
          <ns3:TrackPointExtension>
            <ns3:atemp>16.0</ns3:atemp>
          </ns3:TrackPointExtension>
        </extensions>
      </trkpt>
      <trkpt lat="42.5081170164048671722412109375" lon="19.89922947250306606292724609375">
        <ele>1897.4000244140625</ele>
        <time>2026-06-17T11:53:17.000Z</time>
        <extensions>
          <ns3:TrackPointExtension>
            <ns3:atemp>16.0</ns3:atemp>
          </ns3:TrackPointExtension>
        </extensions>
      </trkpt>
      <trkpt lat="42.5081150047481060028076171875" lon="19.899223186075687408447265625">
        <ele>1897.5999755859375</ele>
        <time>2026-06-17T11:53:18.000Z</time>
        <extensions>
          <ns3:TrackPointExtension>
            <ns3:atemp>16.0</ns3:atemp>
          </ns3:TrackPointExtension>
        </extensions>
      </trkpt>
      <trkpt lat="42.5081025995314121246337890625" lon="19.89921974949538707733154296875">
        <ele>1897.5999755859375</ele>
        <time>2026-06-17T11:53:19.000Z</time>
        <extensions>
          <ns3:TrackPointExtension>
            <ns3:atemp>16.0</ns3:atemp>
          </ns3:TrackPointExtension>
        </extensions>
      </trkpt>
      <trkpt lat="42.508095391094684600830078125" lon="19.89922209642827510833740234375">
        <ele>1897.4000244140625</ele>
        <time>2026-06-17T11:53:20.000Z</time>
        <extensions>
          <ns3:TrackPointExtension>
            <ns3:atemp>16.0</ns3:atemp>
          </ns3:TrackPointExtension>
        </extensions>
      </trkpt>
      <trkpt lat="42.5080861710011959075927734375" lon="19.89922477863729000091552734375">
        <ele>1897.4000244140625</ele>
        <time>2026-06-17T11:53:21.000Z</time>
        <extensions>
          <ns3:TrackPointExtension>
            <ns3:atemp>16.0</ns3:atemp>
          </ns3:TrackPointExtension>
        </extensions>
      </trkpt>
      <trkpt lat="42.5080818124115467071533203125" lon="19.8992300592362880706787109375">
        <ele>1897.199951171875</ele>
        <time>2026-06-17T11:53:22.000Z</time>
        <extensions>
          <ns3:TrackPointExtension>
            <ns3:atemp>16.0</ns3:atemp>
          </ns3:TrackPointExtension>
        </extensions>
      </trkpt>
      <trkpt lat="42.50807133503258228302001953125" lon="19.89923265762627124786376953125">
        <ele>1897</ele>
        <time>2026-06-17T11:53:23.000Z</time>
        <extensions>
          <ns3:TrackPointExtension>
            <ns3:atemp>16.0</ns3:atemp>
          </ns3:TrackPointExtension>
        </extensions>
      </trkpt>
      <trkpt lat="42.5080647133290767669677734375" lon="19.899224527180194854736328125">
        <ele>1896.5999755859375</ele>
        <time>2026-06-17T11:53:24.000Z</time>
        <extensions>
          <ns3:TrackPointExtension>
            <ns3:atemp>16.0</ns3:atemp>
          </ns3:TrackPointExtension>
        </extensions>
      </trkpt>
      <trkpt lat="42.50805758871138095855712890625" lon="19.89921723492443561553955078125">
        <ele>1896.4000244140625</ele>
        <time>2026-06-17T11:53:25.000Z</time>
        <extensions>
          <ns3:TrackPointExtension>
            <ns3:atemp>16.0</ns3:atemp>
          </ns3:TrackPointExtension>
        </extensions>
      </trkpt>
      <trkpt lat="42.5080492906272411346435546875" lon="19.89920466206967830657958984375">
        <ele>1896.199951171875</ele>
        <time>2026-06-17T11:53:26.000Z</time>
        <extensions>
          <ns3:TrackPointExtension>
            <ns3:atemp>16.0</ns3:atemp>
          </ns3:TrackPointExtension>
        </extensions>
      </trkpt>
      <trkpt lat="42.50804032199084758758544921875" lon="19.89919393323361873626708984375">
        <ele>1896.199951171875</ele>
        <time>2026-06-17T11:53:27.000Z</time>
        <extensions>
          <ns3:TrackPointExtension>
            <ns3:atemp>16.0</ns3:atemp>
          </ns3:TrackPointExtension>
        </extensions>
      </trkpt>
      <trkpt lat="42.50802867114543914794921875" lon="19.89918689243495464324951171875">
        <ele>1896</ele>
        <time>2026-06-17T11:53:28.000Z</time>
        <extensions>
          <ns3:TrackPointExtension>
            <ns3:atemp>16.0</ns3:atemp>
          </ns3:TrackPointExtension>
        </extensions>
      </trkpt>
      <trkpt lat="42.50801400281488895416259765625" lon="19.8991891555488109588623046875">
        <ele>1895.800048828125</ele>
        <time>2026-06-17T11:53:29.000Z</time>
        <extensions>
          <ns3:TrackPointExtension>
            <ns3:atemp>16.0</ns3:atemp>
          </ns3:TrackPointExtension>
        </extensions>
      </trkpt>
      <trkpt lat="42.50800075940787792205810546875" lon="19.899189658463001251220703125">
        <ele>1895.800048828125</ele>
        <time>2026-06-17T11:53:30.000Z</time>
        <extensions>
          <ns3:TrackPointExtension>
            <ns3:atemp>16.0</ns3:atemp>
          </ns3:TrackPointExtension>
        </extensions>
      </trkpt>
      <trkpt lat="42.5080011785030364990234375" lon="19.899193346500396728515625">
        <ele>1896</ele>
        <time>2026-06-17T11:53:31.000Z</time>
        <extensions>
          <ns3:TrackPointExtension>
            <ns3:atemp>16.0</ns3:atemp>
          </ns3:TrackPointExtension>
        </extensions>
      </trkpt>
      <trkpt lat="42.5080003403127193450927734375" lon="19.8991928435862064361572265625">
        <ele>1896</ele>
        <time>2026-06-17T11:53:32.000Z</time>
        <extensions>
          <ns3:TrackPointExtension>
            <ns3:atemp>16.0</ns3:atemp>
          </ns3:TrackPointExtension>
        </extensions>
      </trkpt>
      <trkpt lat="42.5079959817230701446533203125" lon="19.89918672479689121246337890625">
        <ele>1896</ele>
        <time>2026-06-17T11:53:33.000Z</time>
        <extensions>
          <ns3:TrackPointExtension>
            <ns3:atemp>16.0</ns3:atemp>
          </ns3:TrackPointExtension>
        </extensions>
      </trkpt>
      <trkpt lat="42.50798936001956462860107421875" lon="19.8991812765598297119140625">
        <ele>1896</ele>
        <time>2026-06-17T11:53:34.000Z</time>
        <extensions>
          <ns3:TrackPointExtension>
            <ns3:atemp>16.0</ns3:atemp>
          </ns3:TrackPointExtension>
        </extensions>
      </trkpt>
      <trkpt lat="42.50798097811639308929443359375" lon="19.89917482249438762664794921875">
        <ele>1895.800048828125</ele>
        <time>2026-06-17T11:53:35.000Z</time>
        <extensions>
          <ns3:TrackPointExtension>
            <ns3:atemp>16.0</ns3:atemp>
          </ns3:TrackPointExtension>
        </extensions>
      </trkpt>
      <trkpt lat="42.50797041691839694976806640625" lon="19.89917767234146595001220703125">
        <ele>1895.800048828125</ele>
        <time>2026-06-17T11:53:36.000Z</time>
        <extensions>
          <ns3:TrackPointExtension>
            <ns3:atemp>16.0</ns3:atemp>
          </ns3:TrackPointExtension>
        </extensions>
      </trkpt>
      <trkpt lat="42.5079651363193988800048828125" lon="19.8991790972650051116943359375">
        <ele>1895.5999755859375</ele>
        <time>2026-06-17T11:53:37.000Z</time>
        <extensions>
          <ns3:TrackPointExtension>
            <ns3:atemp>16.0</ns3:atemp>
          </ns3:TrackPointExtension>
        </extensions>
      </trkpt>
      <trkpt lat="42.5079651363193988800048828125" lon="19.8991790972650051116943359375">
        <ele>1895.4000244140625</ele>
        <time>2026-06-17T11:53:38.000Z</time>
        <extensions>
          <ns3:TrackPointExtension>
            <ns3:atemp>16.0</ns3:atemp>
          </ns3:TrackPointExtension>
        </extensions>
      </trkpt>
      <trkpt lat="42.5079651363193988800048828125" lon="19.8991790972650051116943359375">
        <ele>1895.199951171875</ele>
        <time>2026-06-17T11:53:39.000Z</time>
        <extensions>
          <ns3:TrackPointExtension>
            <ns3:atemp>16.0</ns3:atemp>
          </ns3:TrackPointExtension>
        </extensions>
      </trkpt>
      <trkpt lat="42.5079651363193988800048828125" lon="19.8991790972650051116943359375">
        <ele>1895.199951171875</ele>
        <time>2026-06-17T11:53:40.000Z</time>
        <extensions>
          <ns3:TrackPointExtension>
            <ns3:atemp>16.0</ns3:atemp>
          </ns3:TrackPointExtension>
        </extensions>
      </trkpt>
      <trkpt lat="42.5079651363193988800048828125" lon="19.8991790972650051116943359375">
        <ele>1895.199951171875</ele>
        <time>2026-06-17T11:53:41.000Z</time>
        <extensions>
          <ns3:TrackPointExtension>
            <ns3:atemp>16.0</ns3:atemp>
          </ns3:TrackPointExtension>
        </extensions>
      </trkpt>
      <trkpt lat="42.5079651363193988800048828125" lon="19.8991790972650051116943359375">
        <ele>1895</ele>
        <time>2026-06-17T11:53:42.000Z</time>
        <extensions>
          <ns3:TrackPointExtension>
            <ns3:atemp>16.0</ns3:atemp>
          </ns3:TrackPointExtension>
        </extensions>
      </trkpt>
      <trkpt lat="42.5079651363193988800048828125" lon="19.8991790972650051116943359375">
        <ele>1895</ele>
        <time>2026-06-17T11:53:43.000Z</time>
        <extensions>
          <ns3:TrackPointExtension>
            <ns3:atemp>16.0</ns3:atemp>
          </ns3:TrackPointExtension>
        </extensions>
      </trkpt>
      <trkpt lat="42.5079651363193988800048828125" lon="19.8991790972650051116943359375">
        <ele>1895</ele>
        <time>2026-06-17T11:53:44.000Z</time>
        <extensions>
          <ns3:TrackPointExtension>
            <ns3:atemp>16.0</ns3:atemp>
          </ns3:TrackPointExtension>
        </extensions>
      </trkpt>
      <trkpt lat="42.5079651363193988800048828125" lon="19.8991790972650051116943359375">
        <ele>1895</ele>
        <time>2026-06-17T11:53:45.000Z</time>
        <extensions>
          <ns3:TrackPointExtension>
            <ns3:atemp>16.0</ns3:atemp>
          </ns3:TrackPointExtension>
        </extensions>
      </trkpt>
      <trkpt lat="42.5079651363193988800048828125" lon="19.8991790972650051116943359375">
        <ele>1895</ele>
        <time>2026-06-17T11:53:46.000Z</time>
        <extensions>
          <ns3:TrackPointExtension>
            <ns3:atemp>16.0</ns3:atemp>
          </ns3:TrackPointExtension>
        </extensions>
      </trkpt>
      <trkpt lat="42.5079651363193988800048828125" lon="19.8991790972650051116943359375">
        <ele>1895</ele>
        <time>2026-06-17T11:53:47.000Z</time>
        <extensions>
          <ns3:TrackPointExtension>
            <ns3:atemp>16.0</ns3:atemp>
          </ns3:TrackPointExtension>
        </extensions>
      </trkpt>
      <trkpt lat="42.5079651363193988800048828125" lon="19.8991790972650051116943359375">
        <ele>1895</ele>
        <time>2026-06-17T11:53:48.000Z</time>
        <extensions>
          <ns3:TrackPointExtension>
            <ns3:atemp>16.0</ns3:atemp>
          </ns3:TrackPointExtension>
        </extensions>
      </trkpt>
      <trkpt lat="42.5079651363193988800048828125" lon="19.8991790972650051116943359375">
        <ele>1894.800048828125</ele>
        <time>2026-06-17T11:53:49.000Z</time>
        <extensions>
          <ns3:TrackPointExtension>
            <ns3:atemp>16.0</ns3:atemp>
          </ns3:TrackPointExtension>
        </extensions>
      </trkpt>
      <trkpt lat="42.5079651363193988800048828125" lon="19.8991790972650051116943359375">
        <ele>1894.800048828125</ele>
        <time>2026-06-17T11:53:50.000Z</time>
        <extensions>
          <ns3:TrackPointExtension>
            <ns3:atemp>16.0</ns3:atemp>
          </ns3:TrackPointExtension>
        </extensions>
      </trkpt>
      <trkpt lat="42.5079651363193988800048828125" lon="19.8991790972650051116943359375">
        <ele>1894.800048828125</ele>
        <time>2026-06-17T11:53:51.000Z</time>
        <extensions>
          <ns3:TrackPointExtension>
            <ns3:atemp>16.0</ns3:atemp>
          </ns3:TrackPointExtension>
        </extensions>
      </trkpt>
      <trkpt lat="42.5079651363193988800048828125" lon="19.8991790972650051116943359375">
        <ele>1894.800048828125</ele>
        <time>2026-06-17T11:53:52.000Z</time>
        <extensions>
          <ns3:TrackPointExtension>
            <ns3:atemp>16.0</ns3:atemp>
          </ns3:TrackPointExtension>
        </extensions>
      </trkpt>
      <trkpt lat="42.5079651363193988800048828125" lon="19.8991790972650051116943359375">
        <ele>1894.800048828125</ele>
        <time>2026-06-17T11:53:53.000Z</time>
        <extensions>
          <ns3:TrackPointExtension>
            <ns3:atemp>16.0</ns3:atemp>
          </ns3:TrackPointExtension>
        </extensions>
      </trkpt>
      <trkpt lat="42.50796522013843059539794921875" lon="19.89918169565498828887939453125">
        <ele>1894.800048828125</ele>
        <time>2026-06-17T11:53:54.000Z</time>
        <extensions>
          <ns3:TrackPointExtension>
            <ns3:atemp>16.0</ns3:atemp>
          </ns3:TrackPointExtension>
        </extensions>
      </trkpt>
      <trkpt lat="42.50795750878751277923583984375" lon="19.89919058047235012054443359375">
        <ele>1894.800048828125</ele>
        <time>2026-06-17T11:53:55.000Z</time>
        <extensions>
          <ns3:TrackPointExtension>
            <ns3:atemp>16.0</ns3:atemp>
          </ns3:TrackPointExtension>
        </extensions>
      </trkpt>
      <trkpt lat="42.5079540722072124481201171875" lon="19.899197034537792205810546875">
        <ele>1894.5999755859375</ele>
        <time>2026-06-17T11:53:56.000Z</time>
        <extensions>
          <ns3:TrackPointExtension>
            <ns3:atemp>16.0</ns3:atemp>
          </ns3:TrackPointExtension>
        </extensions>
      </trkpt>
      <trkpt lat="42.5079527311027050018310546875" lon="19.89920063875615596771240234375">
        <ele>1894.5999755859375</ele>
        <time>2026-06-17T11:53:57.000Z</time>
        <extensions>
          <ns3:TrackPointExtension>
            <ns3:atemp>16.0</ns3:atemp>
          </ns3:TrackPointExtension>
        </extensions>
      </trkpt>
      <trkpt lat="42.5079453550279140472412109375" lon="19.8992086015641689300537109375">
        <ele>1894.4000244140625</ele>
        <time>2026-06-17T11:53:58.000Z</time>
        <extensions>
          <ns3:TrackPointExtension>
            <ns3:atemp>16.0</ns3:atemp>
          </ns3:TrackPointExtension>
        </extensions>
      </trkpt>
      <trkpt lat="42.50794527120888233184814453125" lon="19.89920617081224918365478515625">
        <ele>1894.4000244140625</ele>
        <time>2026-06-17T11:53:59.000Z</time>
        <extensions>
          <ns3:TrackPointExtension>
            <ns3:atemp>16.0</ns3:atemp>
          </ns3:TrackPointExtension>
        </extensions>
      </trkpt>
      <trkpt lat="42.50794527120888233184814453125" lon="19.89920617081224918365478515625">
        <ele>1894.199951171875</ele>
        <time>2026-06-17T11:54:00.000Z</time>
        <extensions>
          <ns3:TrackPointExtension>
            <ns3:atemp>16.0</ns3:atemp>
          </ns3:TrackPointExtension>
        </extensions>
      </trkpt>
      <trkpt lat="42.50794527120888233184814453125" lon="19.89920617081224918365478515625">
        <ele>1894.199951171875</ele>
        <time>2026-06-17T11:54:01.000Z</time>
        <extensions>
          <ns3:TrackPointExtension>
            <ns3:atemp>16.0</ns3:atemp>
          </ns3:TrackPointExtension>
        </extensions>
      </trkpt>
      <trkpt lat="42.50794527120888233184814453125" lon="19.89920617081224918365478515625">
        <ele>1894</ele>
        <time>2026-06-17T11:54:02.000Z</time>
        <extensions>
          <ns3:TrackPointExtension>
            <ns3:atemp>16.0</ns3:atemp>
          </ns3:TrackPointExtension>
        </extensions>
      </trkpt>
      <trkpt lat="42.50794527120888233184814453125" lon="19.89920600317418575286865234375">
        <ele>1894</ele>
        <time>2026-06-17T11:54:03.000Z</time>
        <extensions>
          <ns3:TrackPointExtension>
            <ns3:atemp>16.0</ns3:atemp>
          </ns3:TrackPointExtension>
        </extensions>
      </trkpt>
      <trkpt lat="42.5079289264976978302001953125" lon="19.89921337924897670745849609375">
        <ele>1893.800048828125</ele>
        <time>2026-06-17T11:54:04.000Z</time>
        <extensions>
          <ns3:TrackPointExtension>
            <ns3:atemp>16.0</ns3:atemp>
          </ns3:TrackPointExtension>
        </extensions>
      </trkpt>
      <trkpt lat="42.50791643746197223663330078125" lon="19.89922226406633853912353515625">
        <ele>1893.5999755859375</ele>
        <time>2026-06-17T11:54:05.000Z</time>
        <extensions>
          <ns3:TrackPointExtension>
            <ns3:atemp>16.0</ns3:atemp>
          </ns3:TrackPointExtension>
        </extensions>
      </trkpt>
      <trkpt lat="42.50789866782724857330322265625" lon="19.8992293886840343475341796875">
        <ele>1893.4000244140625</ele>
        <time>2026-06-17T11:54:06.000Z</time>
        <extensions>
          <ns3:TrackPointExtension>
            <ns3:atemp>16.0</ns3:atemp>
          </ns3:TrackPointExtension>
        </extensions>
      </trkpt>
      <trkpt lat="42.50788492150604724884033203125" lon="19.8992531932890415191650390625">
        <ele>1893</ele>
        <time>2026-06-17T11:54:07.000Z</time>
        <extensions>
          <ns3:TrackPointExtension>
            <ns3:atemp>16.0</ns3:atemp>
          </ns3:TrackPointExtension>
        </extensions>
      </trkpt>
      <trkpt lat="42.507872097194194793701171875" lon="19.89927305839955806732177734375">
        <ele>1892.4000244140625</ele>
        <time>2026-06-17T11:54:08.000Z</time>
        <extensions>
          <ns3:TrackPointExtension>
            <ns3:atemp>16.0</ns3:atemp>
          </ns3:TrackPointExtension>
        </extensions>
      </trkpt>
      <trkpt lat="42.5078548304736614227294921875" lon="19.89929334260523319244384765625">
        <ele>1892</ele>
        <time>2026-06-17T11:54:09.000Z</time>
        <extensions>
          <ns3:TrackPointExtension>
            <ns3:atemp>16.0</ns3:atemp>
          </ns3:TrackPointExtension>
        </extensions>
      </trkpt>
      <trkpt lat="42.507834546267986297607421875" lon="19.89931664429605007171630859375">
        <ele>1891.4000244140625</ele>
        <time>2026-06-17T11:54:10.000Z</time>
        <extensions>
          <ns3:TrackPointExtension>
            <ns3:atemp>16.0</ns3:atemp>
          </ns3:TrackPointExtension>
        </extensions>
      </trkpt>
      <trkpt lat="42.5078132562339305877685546875" lon="19.89932049997150897979736328125">
        <ele>1891</ele>
        <time>2026-06-17T11:54:11.000Z</time>
        <extensions>
          <ns3:TrackPointExtension>
            <ns3:atemp>16.0</ns3:atemp>
          </ns3:TrackPointExtension>
        </extensions>
      </trkpt>
      <trkpt lat="42.50779422931373119354248046875" lon="19.8993115313351154327392578125">
        <ele>1890.4000244140625</ele>
        <time>2026-06-17T11:54:12.000Z</time>
        <extensions>
          <ns3:TrackPointExtension>
            <ns3:atemp>16.0</ns3:atemp>
          </ns3:TrackPointExtension>
        </extensions>
      </trkpt>
      <trkpt lat="42.507770843803882598876953125" lon="19.8993085138499736785888671875">
        <ele>1889.800048828125</ele>
        <time>2026-06-17T11:54:13.000Z</time>
        <extensions>
          <ns3:TrackPointExtension>
            <ns3:atemp>16.0</ns3:atemp>
          </ns3:TrackPointExtension>
        </extensions>
      </trkpt>
      <trkpt lat="42.50775131396949291229248046875" lon="19.89931496791541576385498046875">
        <ele>1889.199951171875</ele>
        <time>2026-06-17T11:54:14.000Z</time>
        <extensions>
          <ns3:TrackPointExtension>
            <ns3:atemp>16.0</ns3:atemp>
          </ns3:TrackPointExtension>
        </extensions>
      </trkpt>
      <trkpt lat="42.5077302753925323486328125" lon="19.8993222601711750030517578125">
        <ele>1888.800048828125</ele>
        <time>2026-06-17T11:54:15.000Z</time>
        <extensions>
          <ns3:TrackPointExtension>
            <ns3:atemp>16.0</ns3:atemp>
          </ns3:TrackPointExtension>
        </extensions>
      </trkpt>
      <trkpt lat="42.50772558152675628662109375" lon="19.89932544529438018798828125">
        <ele>1888.5999755859375</ele>
        <time>2026-06-17T11:54:16.000Z</time>
        <extensions>
          <ns3:TrackPointExtension>
            <ns3:atemp>16.0</ns3:atemp>
          </ns3:TrackPointExtension>
        </extensions>
      </trkpt>
      <trkpt lat="42.50772566534578800201416015625" lon="19.89932720549404621124267578125">
        <ele>1888.4000244140625</ele>
        <time>2026-06-17T11:54:17.000Z</time>
        <extensions>
          <ns3:TrackPointExtension>
            <ns3:atemp>16.0</ns3:atemp>
          </ns3:TrackPointExtension>
        </extensions>
      </trkpt>
      <trkpt lat="42.5077257491648197174072265625" lon="19.8993272893130779266357421875">
        <ele>1888.4000244140625</ele>
        <time>2026-06-17T11:54:18.000Z</time>
        <extensions>
          <ns3:TrackPointExtension>
            <ns3:atemp>16.0</ns3:atemp>
          </ns3:TrackPointExtension>
        </extensions>
      </trkpt>
      <trkpt lat="42.5077257491648197174072265625" lon="19.8993272893130779266357421875">
        <ele>1888.199951171875</ele>
        <time>2026-06-17T11:54:19.000Z</time>
        <extensions>
          <ns3:TrackPointExtension>
            <ns3:atemp>16.0</ns3:atemp>
          </ns3:TrackPointExtension>
        </extensions>
      </trkpt>
      <trkpt lat="42.5077257491648197174072265625" lon="19.8993272893130779266357421875">
        <ele>1888.199951171875</ele>
        <time>2026-06-17T11:54:20.000Z</time>
        <extensions>
          <ns3:TrackPointExtension>
            <ns3:atemp>16.0</ns3:atemp>
          </ns3:TrackPointExtension>
        </extensions>
      </trkpt>
      <trkpt lat="42.5077257491648197174072265625" lon="19.8993272893130779266357421875">
        <ele>1888.199951171875</ele>
        <time>2026-06-17T11:54:21.000Z</time>
        <extensions>
          <ns3:TrackPointExtension>
            <ns3:atemp>16.0</ns3:atemp>
          </ns3:TrackPointExtension>
        </extensions>
      </trkpt>
      <trkpt lat="42.5077257491648197174072265625" lon="19.8993272893130779266357421875">
        <ele>1888.199951171875</ele>
        <time>2026-06-17T11:54:22.000Z</time>
        <extensions>
          <ns3:TrackPointExtension>
            <ns3:atemp>16.0</ns3:atemp>
          </ns3:TrackPointExtension>
        </extensions>
      </trkpt>
      <trkpt lat="42.5077257491648197174072265625" lon="19.8993272893130779266357421875">
        <ele>1888</ele>
        <time>2026-06-17T11:54:23.000Z</time>
        <extensions>
          <ns3:TrackPointExtension>
            <ns3:atemp>16.0</ns3:atemp>
          </ns3:TrackPointExtension>
        </extensions>
      </trkpt>
      <trkpt lat="42.5077257491648197174072265625" lon="19.8993272893130779266357421875">
        <ele>1888</ele>
        <time>2026-06-17T11:54:24.000Z</time>
        <extensions>
          <ns3:TrackPointExtension>
            <ns3:atemp>16.0</ns3:atemp>
          </ns3:TrackPointExtension>
        </extensions>
      </trkpt>
      <trkpt lat="42.5077257491648197174072265625" lon="19.8993272893130779266357421875">
        <ele>1888</ele>
        <time>2026-06-17T11:54:25.000Z</time>
        <extensions>
          <ns3:TrackPointExtension>
            <ns3:atemp>16.0</ns3:atemp>
          </ns3:TrackPointExtension>
        </extensions>
      </trkpt>
      <trkpt lat="42.5077257491648197174072265625" lon="19.8993272893130779266357421875">
        <ele>1888</ele>
        <time>2026-06-17T11:54:26.000Z</time>
        <extensions>
          <ns3:TrackPointExtension>
            <ns3:atemp>16.0</ns3:atemp>
          </ns3:TrackPointExtension>
        </extensions>
      </trkpt>
      <trkpt lat="42.5077257491648197174072265625" lon="19.8993272893130779266357421875">
        <ele>1888</ele>
        <time>2026-06-17T11:54:27.000Z</time>
        <extensions>
          <ns3:TrackPointExtension>
            <ns3:atemp>16.0</ns3:atemp>
          </ns3:TrackPointExtension>
        </extensions>
      </trkpt>
      <trkpt lat="42.5077257491648197174072265625" lon="19.8993272893130779266357421875">
        <ele>1888.199951171875</ele>
        <time>2026-06-17T11:54:28.000Z</time>
        <extensions>
          <ns3:TrackPointExtension>
            <ns3:atemp>16.0</ns3:atemp>
          </ns3:TrackPointExtension>
        </extensions>
      </trkpt>
      <trkpt lat="42.5077257491648197174072265625" lon="19.8993272893130779266357421875">
        <ele>1888.199951171875</ele>
        <time>2026-06-17T11:54:29.000Z</time>
        <extensions>
          <ns3:TrackPointExtension>
            <ns3:atemp>16.0</ns3:atemp>
          </ns3:TrackPointExtension>
        </extensions>
      </trkpt>
      <trkpt lat="42.5077257491648197174072265625" lon="19.8993272893130779266357421875">
        <ele>1888.199951171875</ele>
        <time>2026-06-17T11:54:30.000Z</time>
        <extensions>
          <ns3:TrackPointExtension>
            <ns3:atemp>16.0</ns3:atemp>
          </ns3:TrackPointExtension>
        </extensions>
      </trkpt>
      <trkpt lat="42.5077257491648197174072265625" lon="19.8993272893130779266357421875">
        <ele>1888.199951171875</ele>
        <time>2026-06-17T11:54:31.000Z</time>
        <extensions>
          <ns3:TrackPointExtension>
            <ns3:atemp>16.0</ns3:atemp>
          </ns3:TrackPointExtension>
        </extensions>
      </trkpt>
      <trkpt lat="42.5077257491648197174072265625" lon="19.8993272893130779266357421875">
        <ele>1888</ele>
        <time>2026-06-17T11:54:32.000Z</time>
        <extensions>
          <ns3:TrackPointExtension>
            <ns3:atemp>16.0</ns3:atemp>
          </ns3:TrackPointExtension>
        </extensions>
      </trkpt>
      <trkpt lat="42.5077257491648197174072265625" lon="19.8993272893130779266357421875">
        <ele>1888</ele>
        <time>2026-06-17T11:54:33.000Z</time>
        <extensions>
          <ns3:TrackPointExtension>
            <ns3:atemp>16.0</ns3:atemp>
          </ns3:TrackPointExtension>
        </extensions>
      </trkpt>
      <trkpt lat="42.5077257491648197174072265625" lon="19.8993272893130779266357421875">
        <ele>1888</ele>
        <time>2026-06-17T11:54:34.000Z</time>
        <extensions>
          <ns3:TrackPointExtension>
            <ns3:atemp>16.0</ns3:atemp>
          </ns3:TrackPointExtension>
        </extensions>
      </trkpt>
      <trkpt lat="42.5077257491648197174072265625" lon="19.8993272893130779266357421875">
        <ele>1888</ele>
        <time>2026-06-17T11:54:35.000Z</time>
        <extensions>
          <ns3:TrackPointExtension>
            <ns3:atemp>16.0</ns3:atemp>
          </ns3:TrackPointExtension>
        </extensions>
      </trkpt>
      <trkpt lat="42.5077257491648197174072265625" lon="19.8993272893130779266357421875">
        <ele>1888</ele>
        <time>2026-06-17T11:54:36.000Z</time>
        <extensions>
          <ns3:TrackPointExtension>
            <ns3:atemp>16.0</ns3:atemp>
          </ns3:TrackPointExtension>
        </extensions>
      </trkpt>
      <trkpt lat="42.5077257491648197174072265625" lon="19.8993272893130779266357421875">
        <ele>1888</ele>
        <time>2026-06-17T11:54:37.000Z</time>
        <extensions>
          <ns3:TrackPointExtension>
            <ns3:atemp>16.0</ns3:atemp>
          </ns3:TrackPointExtension>
        </extensions>
      </trkpt>
      <trkpt lat="42.5077257491648197174072265625" lon="19.8993272893130779266357421875">
        <ele>1888</ele>
        <time>2026-06-17T11:54:38.000Z</time>
        <extensions>
          <ns3:TrackPointExtension>
            <ns3:atemp>16.0</ns3:atemp>
          </ns3:TrackPointExtension>
        </extensions>
      </trkpt>
      <trkpt lat="42.5077257491648197174072265625" lon="19.8993272893130779266357421875">
        <ele>1888</ele>
        <time>2026-06-17T11:54:39.000Z</time>
        <extensions>
          <ns3:TrackPointExtension>
            <ns3:atemp>16.0</ns3:atemp>
          </ns3:TrackPointExtension>
        </extensions>
      </trkpt>
      <trkpt lat="42.5077257491648197174072265625" lon="19.8993272893130779266357421875">
        <ele>1887.800048828125</ele>
        <time>2026-06-17T11:54:40.000Z</time>
        <extensions>
          <ns3:TrackPointExtension>
            <ns3:atemp>16.0</ns3:atemp>
          </ns3:TrackPointExtension>
        </extensions>
      </trkpt>
      <trkpt lat="42.5077257491648197174072265625" lon="19.8993272893130779266357421875">
        <ele>1887.800048828125</ele>
        <time>2026-06-17T11:54:41.000Z</time>
        <extensions>
          <ns3:TrackPointExtension>
            <ns3:atemp>16.0</ns3:atemp>
          </ns3:TrackPointExtension>
        </extensions>
      </trkpt>
      <trkpt lat="42.5077257491648197174072265625" lon="19.8993272893130779266357421875">
        <ele>1887.800048828125</ele>
        <time>2026-06-17T11:54:42.000Z</time>
        <extensions>
          <ns3:TrackPointExtension>
            <ns3:atemp>16.0</ns3:atemp>
          </ns3:TrackPointExtension>
        </extensions>
      </trkpt>
      <trkpt lat="42.5077257491648197174072265625" lon="19.8993272893130779266357421875">
        <ele>1887.800048828125</ele>
        <time>2026-06-17T11:54:43.000Z</time>
        <extensions>
          <ns3:TrackPointExtension>
            <ns3:atemp>16.0</ns3:atemp>
          </ns3:TrackPointExtension>
        </extensions>
      </trkpt>
      <trkpt lat="42.5077257491648197174072265625" lon="19.8993272893130779266357421875">
        <ele>1887.800048828125</ele>
        <time>2026-06-17T11:54:44.000Z</time>
        <extensions>
          <ns3:TrackPointExtension>
            <ns3:atemp>16.0</ns3:atemp>
          </ns3:TrackPointExtension>
        </extensions>
      </trkpt>
      <trkpt lat="42.5077257491648197174072265625" lon="19.8993272893130779266357421875">
        <ele>1887.800048828125</ele>
        <time>2026-06-17T11:54:45.000Z</time>
        <extensions>
          <ns3:TrackPointExtension>
            <ns3:atemp>16.0</ns3:atemp>
          </ns3:TrackPointExtension>
        </extensions>
      </trkpt>
      <trkpt lat="42.5077257491648197174072265625" lon="19.8993272893130779266357421875">
        <ele>1888</ele>
        <time>2026-06-17T11:54:46.000Z</time>
        <extensions>
          <ns3:TrackPointExtension>
            <ns3:atemp>16.0</ns3:atemp>
          </ns3:TrackPointExtension>
        </extensions>
      </trkpt>
      <trkpt lat="42.5077257491648197174072265625" lon="19.8993272893130779266357421875">
        <ele>1888</ele>
        <time>2026-06-17T11:54:47.000Z</time>
        <extensions>
          <ns3:TrackPointExtension>
            <ns3:atemp>16.0</ns3:atemp>
          </ns3:TrackPointExtension>
        </extensions>
      </trkpt>
      <trkpt lat="42.50772289931774139404296875" lon="19.89932737313210964202880859375">
        <ele>1888</ele>
        <time>2026-06-17T11:54:48.000Z</time>
        <extensions>
          <ns3:TrackPointExtension>
            <ns3:atemp>16.0</ns3:atemp>
          </ns3:TrackPointExtension>
        </extensions>
      </trkpt>
      <trkpt lat="42.50769951380789279937744140625" lon="19.89933751523494720458984375">
        <ele>1888</ele>
        <time>2026-06-17T11:54:49.000Z</time>
        <extensions>
          <ns3:TrackPointExtension>
            <ns3:atemp>16.0</ns3:atemp>
          </ns3:TrackPointExtension>
        </extensions>
      </trkpt>
      <trkpt lat="42.507677972316741943359375" lon="19.89935033954679965972900390625">
        <ele>1888</ele>
        <time>2026-06-17T11:54:50.000Z</time>
        <extensions>
          <ns3:TrackPointExtension>
            <ns3:atemp>16.0</ns3:atemp>
          </ns3:TrackPointExtension>
        </extensions>
      </trkpt>
      <trkpt lat="42.5076578557491302490234375" lon="19.899364672601222991943359375">
        <ele>1888</ele>
        <time>2026-06-17T11:54:51.000Z</time>
        <extensions>
          <ns3:TrackPointExtension>
            <ns3:atemp>16.0</ns3:atemp>
          </ns3:TrackPointExtension>
        </extensions>
      </trkpt>
      <trkpt lat="42.50764871947467327117919921875" lon="19.8993785865604877471923828125">
        <ele>1888.199951171875</ele>
        <time>2026-06-17T11:54:52.000Z</time>
        <extensions>
          <ns3:TrackPointExtension>
            <ns3:atemp>16.0</ns3:atemp>
          </ns3:TrackPointExtension>
        </extensions>
      </trkpt>
      <trkpt lat="42.5076335482299327850341796875" lon="19.89938973449170589447021484375">
        <ele>1888.199951171875</ele>
        <time>2026-06-17T11:54:53.000Z</time>
        <extensions>
          <ns3:TrackPointExtension>
            <ns3:atemp>16.0</ns3:atemp>
          </ns3:TrackPointExtension>
        </extensions>
      </trkpt>
      <trkpt lat="42.507618628442287445068359375" lon="19.89940046332776546478271484375">
        <ele>1888.199951171875</ele>
        <time>2026-06-17T11:54:54.000Z</time>
        <extensions>
          <ns3:TrackPointExtension>
            <ns3:atemp>16.0</ns3:atemp>
          </ns3:TrackPointExtension>
        </extensions>
      </trkpt>
      <trkpt lat="42.5076090730726718902587890625" lon="19.8994119465351104736328125">
        <ele>1888.4000244140625</ele>
        <time>2026-06-17T11:54:55.000Z</time>
        <extensions>
          <ns3:TrackPointExtension>
            <ns3:atemp>16.0</ns3:atemp>
          </ns3:TrackPointExtension>
        </extensions>
      </trkpt>
      <trkpt lat="42.5075929798185825347900390625" lon="19.8994178138673305511474609375">
        <ele>1888.4000244140625</ele>
        <time>2026-06-17T11:54:56.000Z</time>
        <extensions>
          <ns3:TrackPointExtension>
            <ns3:atemp>16.0</ns3:atemp>
          </ns3:TrackPointExtension>
        </extensions>
      </trkpt>
      <trkpt lat="42.50757479108870029449462890625" lon="19.8994204960763454437255859375">
        <ele>1888.4000244140625</ele>
        <time>2026-06-17T11:54:57.000Z</time>
        <extensions>
          <ns3:TrackPointExtension>
            <ns3:atemp>16.0</ns3:atemp>
          </ns3:TrackPointExtension>
        </extensions>
      </trkpt>
      <trkpt lat="42.50755517743527889251708984375" lon="19.89942862652242183685302734375">
        <ele>1888.4000244140625</ele>
        <time>2026-06-17T11:54:58.000Z</time>
        <extensions>
          <ns3:TrackPointExtension>
            <ns3:atemp>16.0</ns3:atemp>
          </ns3:TrackPointExtension>
        </extensions>
      </trkpt>
      <trkpt lat="42.50753757543861865997314453125" lon="19.8994432948529720306396484375">
        <ele>1888.199951171875</ele>
        <time>2026-06-17T11:54:59.000Z</time>
        <extensions>
          <ns3:TrackPointExtension>
            <ns3:atemp>16.0</ns3:atemp>
          </ns3:TrackPointExtension>
        </extensions>
      </trkpt>
      <trkpt lat="42.50752634368836879730224609375" lon="19.89946315996348857879638671875">
        <ele>1888</ele>
        <time>2026-06-17T11:55:00.000Z</time>
        <extensions>
          <ns3:TrackPointExtension>
            <ns3:atemp>16.0</ns3:atemp>
          </ns3:TrackPointExtension>
        </extensions>
      </trkpt>
      <trkpt lat="42.507517375051975250244140625" lon="19.8994828574359416961669921875">
        <ele>1887.800048828125</ele>
        <time>2026-06-17T11:55:01.000Z</time>
        <extensions>
          <ns3:TrackPointExtension>
            <ns3:atemp>16.0</ns3:atemp>
          </ns3:TrackPointExtension>
        </extensions>
      </trkpt>
      <trkpt lat="42.50750832259654998779296875" lon="19.8995002917945384979248046875">
        <ele>1887.5999755859375</ele>
        <time>2026-06-17T11:55:02.000Z</time>
        <extensions>
          <ns3:TrackPointExtension>
            <ns3:atemp>16.0</ns3:atemp>
          </ns3:TrackPointExtension>
        </extensions>
      </trkpt>
      <trkpt lat="42.507503293454647064208984375" lon="19.899506829679012298583984375">
        <ele>1887.4000244140625</ele>
        <time>2026-06-17T11:55:03.000Z</time>
        <extensions>
          <ns3:TrackPointExtension>
            <ns3:atemp>16.0</ns3:atemp>
          </ns3:TrackPointExtension>
        </extensions>
      </trkpt>
      <trkpt lat="42.507500946521759033203125" lon="19.89950523711740970611572265625">
        <ele>1887.4000244140625</ele>
        <time>2026-06-17T11:55:04.000Z</time>
        <extensions>
          <ns3:TrackPointExtension>
            <ns3:atemp>16.0</ns3:atemp>
          </ns3:TrackPointExtension>
        </extensions>
      </trkpt>
      <trkpt lat="42.507500946521759033203125" lon="19.8995053209364414215087890625">
        <ele>1887.199951171875</ele>
        <time>2026-06-17T11:55:05.000Z</time>
        <extensions>
          <ns3:TrackPointExtension>
            <ns3:atemp>16.0</ns3:atemp>
          </ns3:TrackPointExtension>
        </extensions>
      </trkpt>
      <trkpt lat="42.507500946521759033203125" lon="19.89950540475547313690185546875">
        <ele>1887.199951171875</ele>
        <time>2026-06-17T11:55:06.000Z</time>
        <extensions>
          <ns3:TrackPointExtension>
            <ns3:atemp>16.0</ns3:atemp>
          </ns3:TrackPointExtension>
        </extensions>
      </trkpt>
      <trkpt lat="42.507500946521759033203125" lon="19.8995053209364414215087890625">
        <ele>1887</ele>
        <time>2026-06-17T11:55:07.000Z</time>
        <extensions>
          <ns3:TrackPointExtension>
            <ns3:atemp>16.0</ns3:atemp>
          </ns3:TrackPointExtension>
        </extensions>
      </trkpt>
      <trkpt lat="42.507500946521759033203125" lon="19.8995053209364414215087890625">
        <ele>1887</ele>
        <time>2026-06-17T11:55:08.000Z</time>
        <extensions>
          <ns3:TrackPointExtension>
            <ns3:atemp>16.0</ns3:atemp>
          </ns3:TrackPointExtension>
        </extensions>
      </trkpt>
      <trkpt lat="42.507500946521759033203125" lon="19.8995053209364414215087890625">
        <ele>1887</ele>
        <time>2026-06-17T11:55:09.000Z</time>
        <extensions>
          <ns3:TrackPointExtension>
            <ns3:atemp>16.0</ns3:atemp>
          </ns3:TrackPointExtension>
        </extensions>
      </trkpt>
      <trkpt lat="42.507500946521759033203125" lon="19.8995053209364414215087890625">
        <ele>1886.800048828125</ele>
        <time>2026-06-17T11:55:10.000Z</time>
        <extensions>
          <ns3:TrackPointExtension>
            <ns3:atemp>16.0</ns3:atemp>
          </ns3:TrackPointExtension>
        </extensions>
      </trkpt>
      <trkpt lat="42.507500946521759033203125" lon="19.8995053209364414215087890625">
        <ele>1886.800048828125</ele>
        <time>2026-06-17T11:55:11.000Z</time>
        <extensions>
          <ns3:TrackPointExtension>
            <ns3:atemp>16.0</ns3:atemp>
          </ns3:TrackPointExtension>
        </extensions>
      </trkpt>
      <trkpt lat="42.507500946521759033203125" lon="19.8995053209364414215087890625">
        <ele>1886.800048828125</ele>
        <time>2026-06-17T11:55:12.000Z</time>
        <extensions>
          <ns3:TrackPointExtension>
            <ns3:atemp>16.0</ns3:atemp>
          </ns3:TrackPointExtension>
        </extensions>
      </trkpt>
      <trkpt lat="42.50749935396015644073486328125" lon="19.8995086736977100372314453125">
        <ele>1886.5999755859375</ele>
        <time>2026-06-17T11:55:13.000Z</time>
        <extensions>
          <ns3:TrackPointExtension>
            <ns3:atemp>16.0</ns3:atemp>
          </ns3:TrackPointExtension>
        </extensions>
      </trkpt>
      <trkpt lat="42.5074927322566509246826171875" lon="19.8995106853544712066650390625">
        <ele>1886.5999755859375</ele>
        <time>2026-06-17T11:55:14.000Z</time>
        <extensions>
          <ns3:TrackPointExtension>
            <ns3:atemp>16.0</ns3:atemp>
          </ns3:TrackPointExtension>
        </extensions>
      </trkpt>
      <trkpt lat="42.50748393125832080841064453125" lon="19.89951646886765956878662109375">
        <ele>1886.4000244140625</ele>
        <time>2026-06-17T11:55:15.000Z</time>
        <extensions>
          <ns3:TrackPointExtension>
            <ns3:atemp>16.0</ns3:atemp>
          </ns3:TrackPointExtension>
        </extensions>
      </trkpt>
      <trkpt lat="42.507477812469005584716796875" lon="19.89952703006565570831298828125">
        <ele>1886.4000244140625</ele>
        <time>2026-06-17T11:55:16.000Z</time>
        <extensions>
          <ns3:TrackPointExtension>
            <ns3:atemp>16.0</ns3:atemp>
          </ns3:TrackPointExtension>
        </extensions>
      </trkpt>
      <trkpt lat="42.50746381469070911407470703125" lon="19.8995433747768402099609375">
        <ele>1886.199951171875</ele>
        <time>2026-06-17T11:55:17.000Z</time>
        <extensions>
          <ns3:TrackPointExtension>
            <ns3:atemp>16.0</ns3:atemp>
          </ns3:TrackPointExtension>
        </extensions>
      </trkpt>
      <trkpt lat="42.50745459459722042083740234375" lon="19.8995582945644855499267578125">
        <ele>1886</ele>
        <time>2026-06-17T11:55:18.000Z</time>
        <extensions>
          <ns3:TrackPointExtension>
            <ns3:atemp>16.0</ns3:atemp>
          </ns3:TrackPointExtension>
        </extensions>
      </trkpt>
      <trkpt lat="42.50744520686566829681396484375" lon="19.8995784111320972442626953125">
        <ele>1885.800048828125</ele>
        <time>2026-06-17T11:55:19.000Z</time>
        <extensions>
          <ns3:TrackPointExtension>
            <ns3:atemp>16.0</ns3:atemp>
          </ns3:TrackPointExtension>
        </extensions>
      </trkpt>
      <trkpt lat="42.50743548385798931121826171875" lon="19.8995948396623134613037109375">
        <ele>1885.800048828125</ele>
        <time>2026-06-17T11:55:20.000Z</time>
        <extensions>
          <ns3:TrackPointExtension>
            <ns3:atemp>16.0</ns3:atemp>
          </ns3:TrackPointExtension>
        </extensions>
      </trkpt>
      <trkpt lat="42.507430203258991241455078125" lon="19.899610094726085662841796875">
        <ele>1885.5999755859375</ele>
        <time>2026-06-17T11:55:21.000Z</time>
        <extensions>
          <ns3:TrackPointExtension>
            <ns3:atemp>16.0</ns3:atemp>
          </ns3:TrackPointExtension>
        </extensions>
      </trkpt>
      <trkpt lat="42.50743095763027667999267578125" lon="19.89961445331573486328125">
        <ele>1885.5999755859375</ele>
        <time>2026-06-17T11:55:22.000Z</time>
        <extensions>
          <ns3:TrackPointExtension>
            <ns3:atemp>16.0</ns3:atemp>
          </ns3:TrackPointExtension>
        </extensions>
      </trkpt>
      <trkpt lat="42.50743095763027667999267578125" lon="19.8996146209537982940673828125">
        <ele>1885.4000244140625</ele>
        <time>2026-06-17T11:55:23.000Z</time>
        <extensions>
          <ns3:TrackPointExtension>
            <ns3:atemp>16.0</ns3:atemp>
          </ns3:TrackPointExtension>
        </extensions>
      </trkpt>
      <trkpt lat="42.50743095763027667999267578125" lon="19.89961487241089344024658203125">
        <ele>1885.4000244140625</ele>
        <time>2026-06-17T11:55:24.000Z</time>
        <extensions>
          <ns3:TrackPointExtension>
            <ns3:atemp>16.0</ns3:atemp>
          </ns3:TrackPointExtension>
        </extensions>
      </trkpt>
      <trkpt lat="42.50742659904062747955322265625" lon="19.89962509833276271820068359375">
        <ele>1885.4000244140625</ele>
        <time>2026-06-17T11:55:25.000Z</time>
        <extensions>
          <ns3:TrackPointExtension>
            <ns3:atemp>16.0</ns3:atemp>
          </ns3:TrackPointExtension>
        </extensions>
      </trkpt>
      <trkpt lat="42.50743095763027667999267578125" lon="19.8996146209537982940673828125">
        <ele>1885.4000244140625</ele>
        <time>2026-06-17T11:55:26.000Z</time>
        <extensions>
          <ns3:TrackPointExtension>
            <ns3:atemp>16.0</ns3:atemp>
          </ns3:TrackPointExtension>
        </extensions>
      </trkpt>
      <trkpt lat="42.50743095763027667999267578125" lon="19.8996146209537982940673828125">
        <ele>1885.4000244140625</ele>
        <time>2026-06-17T11:55:27.000Z</time>
        <extensions>
          <ns3:TrackPointExtension>
            <ns3:atemp>16.0</ns3:atemp>
          </ns3:TrackPointExtension>
        </extensions>
      </trkpt>
      <trkpt lat="42.50743095763027667999267578125" lon="19.8996146209537982940673828125">
        <ele>1885.4000244140625</ele>
        <time>2026-06-17T11:55:28.000Z</time>
        <extensions>
          <ns3:TrackPointExtension>
            <ns3:atemp>16.0</ns3:atemp>
          </ns3:TrackPointExtension>
        </extensions>
      </trkpt>
      <trkpt lat="42.50743095763027667999267578125" lon="19.8996146209537982940673828125">
        <ele>1885.199951171875</ele>
        <time>2026-06-17T11:55:29.000Z</time>
        <extensions>
          <ns3:TrackPointExtension>
            <ns3:atemp>16.0</ns3:atemp>
          </ns3:TrackPointExtension>
        </extensions>
      </trkpt>
      <trkpt lat="42.50743095763027667999267578125" lon="19.8996146209537982940673828125">
        <ele>1885.199951171875</ele>
        <time>2026-06-17T11:55:30.000Z</time>
        <extensions>
          <ns3:TrackPointExtension>
            <ns3:atemp>16.0</ns3:atemp>
          </ns3:TrackPointExtension>
        </extensions>
      </trkpt>
      <trkpt lat="42.50743095763027667999267578125" lon="19.8996146209537982940673828125">
        <ele>1885.4000244140625</ele>
        <time>2026-06-17T11:55:31.000Z</time>
        <extensions>
          <ns3:TrackPointExtension>
            <ns3:atemp>16.0</ns3:atemp>
          </ns3:TrackPointExtension>
        </extensions>
      </trkpt>
      <trkpt lat="42.50743095763027667999267578125" lon="19.8996146209537982940673828125">
        <ele>1885.4000244140625</ele>
        <time>2026-06-17T11:55:32.000Z</time>
        <extensions>
          <ns3:TrackPointExtension>
            <ns3:atemp>16.0</ns3:atemp>
          </ns3:TrackPointExtension>
        </extensions>
      </trkpt>
      <trkpt lat="42.50743095763027667999267578125" lon="19.8996146209537982940673828125">
        <ele>1885.4000244140625</ele>
        <time>2026-06-17T11:55:33.000Z</time>
        <extensions>
          <ns3:TrackPointExtension>
            <ns3:atemp>16.0</ns3:atemp>
          </ns3:TrackPointExtension>
        </extensions>
      </trkpt>
      <trkpt lat="42.50743095763027667999267578125" lon="19.8996146209537982940673828125">
        <ele>1885.4000244140625</ele>
        <time>2026-06-17T11:55:34.000Z</time>
        <extensions>
          <ns3:TrackPointExtension>
            <ns3:atemp>16.0</ns3:atemp>
          </ns3:TrackPointExtension>
        </extensions>
      </trkpt>
      <trkpt lat="42.50742626376450061798095703125" lon="19.899628870189189910888671875">
        <ele>1885.199951171875</ele>
        <time>2026-06-17T11:55:35.000Z</time>
        <extensions>
          <ns3:TrackPointExtension>
            <ns3:atemp>16.0</ns3:atemp>
          </ns3:TrackPointExtension>
        </extensions>
      </trkpt>
      <trkpt lat="42.50741419382393360137939453125" lon="19.899638257920742034912109375">
        <ele>1885.199951171875</ele>
        <time>2026-06-17T11:55:36.000Z</time>
        <extensions>
          <ns3:TrackPointExtension>
            <ns3:atemp>16.0</ns3:atemp>
          </ns3:TrackPointExtension>
        </extensions>
      </trkpt>
      <trkpt lat="42.507399357855319976806640625" lon="19.8996521718800067901611328125">
        <ele>1885</ele>
        <time>2026-06-17T11:55:37.000Z</time>
        <extensions>
          <ns3:TrackPointExtension>
            <ns3:atemp>16.0</ns3:atemp>
          </ns3:TrackPointExtension>
        </extensions>
      </trkpt>
      <trkpt lat="42.50738569535315036773681640625" lon="19.89966197870671749114990234375">
        <ele>1885</ele>
        <time>2026-06-17T11:55:38.000Z</time>
        <extensions>
          <ns3:TrackPointExtension>
            <ns3:atemp>16.0</ns3:atemp>
          </ns3:TrackPointExtension>
        </extensions>
      </trkpt>
      <trkpt lat="42.50736926682293415069580078125" lon="19.89967270754277706146240234375">
        <ele>1884.800048828125</ele>
        <time>2026-06-17T11:55:39.000Z</time>
        <extensions>
          <ns3:TrackPointExtension>
            <ns3:atemp>16.0</ns3:atemp>
          </ns3:TrackPointExtension>
        </extensions>
      </trkpt>
      <trkpt lat="42.50735417939722537994384765625" lon="19.89967186935245990753173828125">
        <ele>1884.5999755859375</ele>
        <time>2026-06-17T11:55:40.000Z</time>
        <extensions>
          <ns3:TrackPointExtension>
            <ns3:atemp>16.0</ns3:atemp>
          </ns3:TrackPointExtension>
        </extensions>
      </trkpt>
      <trkpt lat="42.5073431991040706634521484375" lon="19.8996655829250812530517578125">
        <ele>1884.199951171875</ele>
        <time>2026-06-17T11:55:41.000Z</time>
        <extensions>
          <ns3:TrackPointExtension>
            <ns3:atemp>16.0</ns3:atemp>
          </ns3:TrackPointExtension>
        </extensions>
      </trkpt>
      <trkpt lat="42.50732786022126674652099609375" lon="19.8996622301638126373291015625">
        <ele>1884</ele>
        <time>2026-06-17T11:55:42.000Z</time>
        <extensions>
          <ns3:TrackPointExtension>
            <ns3:atemp>16.0</ns3:atemp>
          </ns3:TrackPointExtension>
        </extensions>
      </trkpt>
      <trkpt lat="42.5073130242526531219482421875" lon="19.899654686450958251953125">
        <ele>1883.5999755859375</ele>
        <time>2026-06-17T11:55:43.000Z</time>
        <extensions>
          <ns3:TrackPointExtension>
            <ns3:atemp>16.0</ns3:atemp>
          </ns3:TrackPointExtension>
        </extensions>
      </trkpt>
      <trkpt lat="42.507298104465007781982421875" lon="19.89964957349002361297607421875">
        <ele>1883.199951171875</ele>
        <time>2026-06-17T11:55:44.000Z</time>
        <extensions>
          <ns3:TrackPointExtension>
            <ns3:atemp>16.0</ns3:atemp>
          </ns3:TrackPointExtension>
        </extensions>
      </trkpt>
      <trkpt lat="42.507284022867679595947265625" lon="19.89964655600488185882568359375">
        <ele>1882.800048828125</ele>
        <time>2026-06-17T11:55:45.000Z</time>
        <extensions>
          <ns3:TrackPointExtension>
            <ns3:atemp>16.0</ns3:atemp>
          </ns3:TrackPointExtension>
        </extensions>
      </trkpt>
      <trkpt lat="42.50727094709873199462890625" lon="19.89965041168034076690673828125">
        <ele>1882.4000244140625</ele>
        <time>2026-06-17T11:55:46.000Z</time>
        <extensions>
          <ns3:TrackPointExtension>
            <ns3:atemp>16.0</ns3:atemp>
          </ns3:TrackPointExtension>
        </extensions>
      </trkpt>
      <trkpt lat="42.5072583742439746856689453125" lon="19.8996488191187381744384765625">
        <ele>1882</ele>
        <time>2026-06-17T11:55:47.000Z</time>
        <extensions>
          <ns3:TrackPointExtension>
            <ns3:atemp>16.0</ns3:atemp>
          </ns3:TrackPointExtension>
        </extensions>
      </trkpt>
      <trkpt lat="42.50725619494915008544921875" lon="19.89964420907199382781982421875">
        <ele>1881.5999755859375</ele>
        <time>2026-06-17T11:55:48.000Z</time>
        <extensions>
          <ns3:TrackPointExtension>
            <ns3:atemp>16.0</ns3:atemp>
          </ns3:TrackPointExtension>
        </extensions>
      </trkpt>
      <trkpt lat="42.5072560273110866546630859375" lon="19.89964420907199382781982421875">
        <ele>1881.4000244140625</ele>
        <time>2026-06-17T11:55:49.000Z</time>
        <extensions>
          <ns3:TrackPointExtension>
            <ns3:atemp>16.0</ns3:atemp>
          </ns3:TrackPointExtension>
        </extensions>
      </trkpt>
      <trkpt lat="42.5072560273110866546630859375" lon="19.89964420907199382781982421875">
        <ele>1881.199951171875</ele>
        <time>2026-06-17T11:55:50.000Z</time>
        <extensions>
          <ns3:TrackPointExtension>
            <ns3:atemp>16.0</ns3:atemp>
          </ns3:TrackPointExtension>
        </extensions>
      </trkpt>
      <trkpt lat="42.5072560273110866546630859375" lon="19.89964420907199382781982421875">
        <ele>1881</ele>
        <time>2026-06-17T11:55:51.000Z</time>
        <extensions>
          <ns3:TrackPointExtension>
            <ns3:atemp>16.0</ns3:atemp>
          </ns3:TrackPointExtension>
        </extensions>
      </trkpt>
      <trkpt lat="42.50725493766367435455322265625" lon="19.89964404143393039703369140625">
        <ele>1880.800048828125</ele>
        <time>2026-06-17T11:55:52.000Z</time>
        <extensions>
          <ns3:TrackPointExtension>
            <ns3:atemp>16.0</ns3:atemp>
          </ns3:TrackPointExtension>
        </extensions>
      </trkpt>
      <trkpt lat="42.5072261877357959747314453125" lon="19.89964085631072521209716796875">
        <ele>1880.800048828125</ele>
        <time>2026-06-17T11:55:53.000Z</time>
        <extensions>
          <ns3:TrackPointExtension>
            <ns3:atemp>16.0</ns3:atemp>
          </ns3:TrackPointExtension>
        </extensions>
      </trkpt>
      <trkpt lat="42.50720732845366001129150390625" lon="19.8996424488723278045654296875">
        <ele>1880.4000244140625</ele>
        <time>2026-06-17T11:55:54.000Z</time>
        <extensions>
          <ns3:TrackPointExtension>
            <ns3:atemp>16.0</ns3:atemp>
          </ns3:TrackPointExtension>
        </extensions>
      </trkpt>
      <trkpt lat="42.50718955881893634796142578125" lon="19.89963666535913944244384765625">
        <ele>1880.199951171875</ele>
        <time>2026-06-17T11:55:55.000Z</time>
        <extensions>
          <ns3:TrackPointExtension>
            <ns3:atemp>16.0</ns3:atemp>
          </ns3:TrackPointExtension>
        </extensions>
      </trkpt>
      <trkpt lat="42.507166005671024322509765625" lon="19.89963616244494915008544921875">
        <ele>1879.5999755859375</ele>
        <time>2026-06-17T11:55:56.000Z</time>
        <extensions>
          <ns3:TrackPointExtension>
            <ns3:atemp>16.0</ns3:atemp>
          </ns3:TrackPointExtension>
        </extensions>
      </trkpt>
      <trkpt lat="42.5071430392563343048095703125" lon="19.8996297083795070648193359375">
        <ele>1879.199951171875</ele>
        <time>2026-06-17T11:55:57.000Z</time>
        <extensions>
          <ns3:TrackPointExtension>
            <ns3:atemp>16.0</ns3:atemp>
          </ns3:TrackPointExtension>
        </extensions>
      </trkpt>
      <trkpt lat="42.50711579807102680206298828125" lon="19.899616129696369171142578125">
        <ele>1878.800048828125</ele>
        <time>2026-06-17T11:55:58.000Z</time>
        <extensions>
          <ns3:TrackPointExtension>
            <ns3:atemp>16.0</ns3:atemp>
          </ns3:TrackPointExtension>
        </extensions>
      </trkpt>
      <trkpt lat="42.50709048472344875335693359375" lon="19.899598024785518646240234375">
        <ele>1878.199951171875</ele>
        <time>2026-06-17T11:55:59.000Z</time>
        <extensions>
          <ns3:TrackPointExtension>
            <ns3:atemp>16.0</ns3:atemp>
          </ns3:TrackPointExtension>
        </extensions>
      </trkpt>
      <trkpt lat="42.5070662610232830047607421875" lon="19.8995670117437839508056640625">
        <ele>1877.5999755859375</ele>
        <time>2026-06-17T11:56:00.000Z</time>
        <extensions>
          <ns3:TrackPointExtension>
            <ns3:atemp>16.0</ns3:atemp>
          </ns3:TrackPointExtension>
        </extensions>
      </trkpt>
      <trkpt lat="42.507037930190563201904296875" lon="19.89951948635280132293701171875">
        <ele>1876.800048828125</ele>
        <time>2026-06-17T11:56:01.000Z</time>
        <extensions>
          <ns3:TrackPointExtension>
            <ns3:atemp>16.0</ns3:atemp>
          </ns3:TrackPointExtension>
        </extensions>
      </trkpt>
      <trkpt lat="42.5069938413798809051513671875" lon="19.89946047775447368621826171875">
        <ele>1875.800048828125</ele>
        <time>2026-06-17T11:56:02.000Z</time>
        <extensions>
          <ns3:TrackPointExtension>
            <ns3:atemp>16.0</ns3:atemp>
          </ns3:TrackPointExtension>
        </extensions>
      </trkpt>
      <trkpt lat="42.50695100985467433929443359375" lon="19.899412952363491058349609375">
        <ele>1874.800048828125</ele>
        <time>2026-06-17T11:56:03.000Z</time>
        <extensions>
          <ns3:TrackPointExtension>
            <ns3:atemp>16.0</ns3:atemp>
          </ns3:TrackPointExtension>
        </extensions>
      </trkpt>
      <trkpt lat="42.50692938454449176788330078125" lon="19.8993524350225925445556640625">
        <ele>1873.800048828125</ele>
        <time>2026-06-17T11:56:04.000Z</time>
        <extensions>
          <ns3:TrackPointExtension>
            <ns3:atemp>16.0</ns3:atemp>
          </ns3:TrackPointExtension>
        </extensions>
      </trkpt>
      <trkpt lat="42.506930641829967498779296875" lon="19.89928479306399822235107421875">
        <ele>1872.5999755859375</ele>
        <time>2026-06-17T11:56:05.000Z</time>
        <extensions>
          <ns3:TrackPointExtension>
            <ns3:atemp>16.0</ns3:atemp>
          </ns3:TrackPointExtension>
        </extensions>
      </trkpt>
      <trkpt lat="42.50692552886903285980224609375" lon="19.89922377280890941619873046875">
        <ele>1871.4000244140625</ele>
        <time>2026-06-17T11:56:06.000Z</time>
        <extensions>
          <ns3:TrackPointExtension>
            <ns3:atemp>16.0</ns3:atemp>
          </ns3:TrackPointExtension>
        </extensions>
      </trkpt>
      <trkpt lat="42.5069277919828891754150390625" lon="19.899168200790882110595703125">
        <ele>1870.4000244140625</ele>
        <time>2026-06-17T11:56:07.000Z</time>
        <extensions>
          <ns3:TrackPointExtension>
            <ns3:atemp>16.0</ns3:atemp>
          </ns3:TrackPointExtension>
        </extensions>
      </trkpt>
      <trkpt lat="42.506946735084056854248046875" lon="19.8991324938833713531494140625">
        <ele>1869.199951171875</ele>
        <time>2026-06-17T11:56:08.000Z</time>
        <extensions>
          <ns3:TrackPointExtension>
            <ns3:atemp>16.0</ns3:atemp>
          </ns3:TrackPointExtension>
        </extensions>
      </trkpt>
      <trkpt lat="42.506974227726459503173828125" lon="19.89910022355616092681884765625">
        <ele>1867.5999755859375</ele>
        <time>2026-06-17T11:56:09.000Z</time>
        <extensions>
          <ns3:TrackPointExtension>
            <ns3:atemp>16.0</ns3:atemp>
          </ns3:TrackPointExtension>
        </extensions>
      </trkpt>
      <trkpt lat="42.506997026503086090087890625" lon="19.89907977171242237091064453125">
        <ele>1866.5999755859375</ele>
        <time>2026-06-17T11:56:10.000Z</time>
        <extensions>
          <ns3:TrackPointExtension>
            <ns3:atemp>16.0</ns3:atemp>
          </ns3:TrackPointExtension>
        </extensions>
      </trkpt>
      <trkpt lat="42.507007084786891937255859375" lon="19.8990751616656780242919921875">
        <ele>1865.800048828125</ele>
        <time>2026-06-17T11:56:11.000Z</time>
        <extensions>
          <ns3:TrackPointExtension>
            <ns3:atemp>16.0</ns3:atemp>
          </ns3:TrackPointExtension>
        </extensions>
      </trkpt>
      <trkpt lat="42.50700783915817737579345703125" lon="19.89908404648303985595703125">
        <ele>1865</ele>
        <time>2026-06-17T11:56:12.000Z</time>
        <extensions>
          <ns3:TrackPointExtension>
            <ns3:atemp>16.0</ns3:atemp>
          </ns3:TrackPointExtension>
        </extensions>
      </trkpt>
      <trkpt lat="42.5070085935294628143310546875" lon="19.89908647723495960235595703125">
        <ele>1864.4000244140625</ele>
        <time>2026-06-17T11:56:13.000Z</time>
        <extensions>
          <ns3:TrackPointExtension>
            <ns3:atemp>16.0</ns3:atemp>
          </ns3:TrackPointExtension>
        </extensions>
      </trkpt>
      <trkpt lat="42.5070085935294628143310546875" lon="19.899086393415927886962890625">
        <ele>1863.800048828125</ele>
        <time>2026-06-17T11:56:14.000Z</time>
        <extensions>
          <ns3:TrackPointExtension>
            <ns3:atemp>16.0</ns3:atemp>
          </ns3:TrackPointExtension>
        </extensions>
      </trkpt>
      <trkpt lat="42.50700867734849452972412109375" lon="19.8990862257778644561767578125">
        <ele>1863.4000244140625</ele>
        <time>2026-06-17T11:56:15.000Z</time>
        <extensions>
          <ns3:TrackPointExtension>
            <ns3:atemp>16.0</ns3:atemp>
          </ns3:TrackPointExtension>
        </extensions>
      </trkpt>
      <trkpt lat="42.507012784481048583984375" lon="19.89908094517886638641357421875">
        <ele>1863.199951171875</ele>
        <time>2026-06-17T11:56:16.000Z</time>
        <extensions>
          <ns3:TrackPointExtension>
            <ns3:atemp>16.0</ns3:atemp>
          </ns3:TrackPointExtension>
        </extensions>
      </trkpt>
      <trkpt lat="42.50702778808772563934326171875" lon="19.89907323382794857025146484375">
        <ele>1863</ele>
        <time>2026-06-17T11:56:17.000Z</time>
        <extensions>
          <ns3:TrackPointExtension>
            <ns3:atemp>16.0</ns3:atemp>
          </ns3:TrackPointExtension>
        </extensions>
      </trkpt>
      <trkpt lat="42.5070543587207794189453125" lon="19.89907491020858287811279296875">
        <ele>1862.5999755859375</ele>
        <time>2026-06-17T11:56:18.000Z</time>
        <extensions>
          <ns3:TrackPointExtension>
            <ns3:atemp>16.0</ns3:atemp>
          </ns3:TrackPointExtension>
        </extensions>
      </trkpt>
      <trkpt lat="42.50707514584064483642578125" lon="19.89906728267669677734375">
        <ele>1862.4000244140625</ele>
        <time>2026-06-17T11:56:19.000Z</time>
        <extensions>
          <ns3:TrackPointExtension>
            <ns3:atemp>16.0</ns3:atemp>
          </ns3:TrackPointExtension>
        </extensions>
      </trkpt>
      <trkpt lat="42.5070937536656856536865234375" lon="19.899050854146480560302734375">
        <ele>1862.199951171875</ele>
        <time>2026-06-17T11:56:20.000Z</time>
        <extensions>
          <ns3:TrackPointExtension>
            <ns3:atemp>16.0</ns3:atemp>
          </ns3:TrackPointExtension>
        </extensions>
      </trkpt>
      <trkpt lat="42.50710791908204555511474609375" lon="19.89904674701392650604248046875">
        <ele>1861.800048828125</ele>
        <time>2026-06-17T11:56:21.000Z</time>
        <extensions>
          <ns3:TrackPointExtension>
            <ns3:atemp>16.0</ns3:atemp>
          </ns3:TrackPointExtension>
        </extensions>
      </trkpt>
      <trkpt lat="42.50710909254848957061767578125" lon="19.89904456771910190582275390625">
        <ele>1861.5999755859375</ele>
        <time>2026-06-17T11:56:22.000Z</time>
        <extensions>
          <ns3:TrackPointExtension>
            <ns3:atemp>16.0</ns3:atemp>
          </ns3:TrackPointExtension>
        </extensions>
      </trkpt>
      <trkpt lat="42.507109008729457855224609375" lon="19.8990444839000701904296875">
        <ele>1861.5999755859375</ele>
        <time>2026-06-17T11:56:23.000Z</time>
        <extensions>
          <ns3:TrackPointExtension>
            <ns3:atemp>16.0</ns3:atemp>
          </ns3:TrackPointExtension>
        </extensions>
      </trkpt>
      <trkpt lat="42.50710892491042613983154296875" lon="19.89904440008103847503662109375">
        <ele>1861.4000244140625</ele>
        <time>2026-06-17T11:56:24.000Z</time>
        <extensions>
          <ns3:TrackPointExtension>
            <ns3:atemp>16.0</ns3:atemp>
          </ns3:TrackPointExtension>
        </extensions>
      </trkpt>
      <trkpt lat="42.5071131996810436248779296875" lon="19.89903576672077178955078125">
        <ele>1861.199951171875</ele>
        <time>2026-06-17T11:56:25.000Z</time>
        <extensions>
          <ns3:TrackPointExtension>
            <ns3:atemp>16.0</ns3:atemp>
          </ns3:TrackPointExtension>
        </extensions>
      </trkpt>
      <trkpt lat="42.50712074339389801025390625" lon="19.89902964793145656585693359375">
        <ele>1861.199951171875</ele>
        <time>2026-06-17T11:56:26.000Z</time>
        <extensions>
          <ns3:TrackPointExtension>
            <ns3:atemp>16.0</ns3:atemp>
          </ns3:TrackPointExtension>
        </extensions>
      </trkpt>
      <trkpt lat="42.507133819162845611572265625" lon="19.8990176618099212646484375">
        <ele>1861</ele>
        <time>2026-06-17T11:56:27.000Z</time>
        <extensions>
          <ns3:TrackPointExtension>
            <ns3:atemp>16.0</ns3:atemp>
          </ns3:TrackPointExtension>
        </extensions>
      </trkpt>
      <trkpt lat="42.5071420334279537200927734375" lon="19.89900534041225910186767578125">
        <ele>1860.800048828125</ele>
        <time>2026-06-17T11:56:28.000Z</time>
        <extensions>
          <ns3:TrackPointExtension>
            <ns3:atemp>16.0</ns3:atemp>
          </ns3:TrackPointExtension>
        </extensions>
      </trkpt>
      <trkpt lat="42.507144547998905181884765625" lon="19.89899444393813610076904296875">
        <ele>1860.5999755859375</ele>
        <time>2026-06-17T11:56:29.000Z</time>
        <extensions>
          <ns3:TrackPointExtension>
            <ns3:atemp>16.0</ns3:atemp>
          </ns3:TrackPointExtension>
        </extensions>
      </trkpt>
      <trkpt lat="42.50714890658855438232421875" lon="19.89898673258721828460693359375">
        <ele>1860.4000244140625</ele>
        <time>2026-06-17T11:56:30.000Z</time>
        <extensions>
          <ns3:TrackPointExtension>
            <ns3:atemp>16.0</ns3:atemp>
          </ns3:TrackPointExtension>
        </extensions>
      </trkpt>
      <trkpt lat="42.50714932568371295928955078125" lon="19.89898606203496456146240234375">
        <ele>1860.199951171875</ele>
        <time>2026-06-17T11:56:31.000Z</time>
        <extensions>
          <ns3:TrackPointExtension>
            <ns3:atemp>16.0</ns3:atemp>
          </ns3:TrackPointExtension>
        </extensions>
      </trkpt>
      <trkpt lat="42.50714932568371295928955078125" lon="19.89898614585399627685546875">
        <ele>1860</ele>
        <time>2026-06-17T11:56:32.000Z</time>
        <extensions>
          <ns3:TrackPointExtension>
            <ns3:atemp>16.0</ns3:atemp>
          </ns3:TrackPointExtension>
        </extensions>
      </trkpt>
      <trkpt lat="42.507157623767852783203125" lon="19.8989611677825450897216796875">
        <ele>1859.800048828125</ele>
        <time>2026-06-17T11:56:33.000Z</time>
        <extensions>
          <ns3:TrackPointExtension>
            <ns3:atemp>16.0</ns3:atemp>
          </ns3:TrackPointExtension>
        </extensions>
      </trkpt>
      <trkpt lat="42.50717413611710071563720703125" lon="19.8989319987595081329345703125">
        <ele>1859.5999755859375</ele>
        <time>2026-06-17T11:56:34.000Z</time>
        <extensions>
          <ns3:TrackPointExtension>
            <ns3:atemp>15.0</ns3:atemp>
          </ns3:TrackPointExtension>
        </extensions>
      </trkpt>
      <trkpt lat="42.50717748887836933135986328125" lon="19.8988974653184413909912109375">
        <ele>1859.4000244140625</ele>
        <time>2026-06-17T11:56:35.000Z</time>
        <extensions>
          <ns3:TrackPointExtension>
            <ns3:atemp>16.0</ns3:atemp>
          </ns3:TrackPointExtension>
        </extensions>
      </trkpt>
      <trkpt lat="42.50716902315616607666015625" lon="19.898877851665019989013671875">
        <ele>1859</ele>
        <time>2026-06-17T11:56:36.000Z</time>
        <extensions>
          <ns3:TrackPointExtension>
            <ns3:atemp>16.0</ns3:atemp>
          </ns3:TrackPointExtension>
        </extensions>
      </trkpt>
      <trkpt lat="42.5071509182453155517578125" lon="19.8988505266606807708740234375">
        <ele>1858.4000244140625</ele>
        <time>2026-06-17T11:56:37.000Z</time>
        <extensions>
          <ns3:TrackPointExtension>
            <ns3:atemp>16.0</ns3:atemp>
          </ns3:TrackPointExtension>
        </extensions>
      </trkpt>
      <trkpt lat="42.50714848749339580535888671875" lon="19.89881775341928005218505859375">
        <ele>1858</ele>
        <time>2026-06-17T11:56:38.000Z</time>
        <extensions>
          <ns3:TrackPointExtension>
            <ns3:atemp>16.0</ns3:atemp>
          </ns3:TrackPointExtension>
        </extensions>
      </trkpt>
      <trkpt lat="42.507161982357501983642578125" lon="19.89880937151610851287841796875">
        <ele>1857.5999755859375</ele>
        <time>2026-06-17T11:56:39.000Z</time>
        <extensions>
          <ns3:TrackPointExtension>
            <ns3:atemp>16.0</ns3:atemp>
          </ns3:TrackPointExtension>
        </extensions>
      </trkpt>
      <trkpt lat="42.50717480666935443878173828125" lon="19.89879461936652660369873046875">
        <ele>1857.199951171875</ele>
        <time>2026-06-17T11:56:40.000Z</time>
        <extensions>
          <ns3:TrackPointExtension>
            <ns3:atemp>16.0</ns3:atemp>
          </ns3:TrackPointExtension>
        </extensions>
      </trkpt>
      <trkpt lat="42.50717950053513050079345703125" lon="19.898774586617946624755859375">
        <ele>1856.800048828125</ele>
        <time>2026-06-17T11:56:41.000Z</time>
        <extensions>
          <ns3:TrackPointExtension>
            <ns3:atemp>16.0</ns3:atemp>
          </ns3:TrackPointExtension>
        </extensions>
      </trkpt>
      <trkpt lat="42.5071723759174346923828125" lon="19.898734353482723236083984375">
        <ele>1856.4000244140625</ele>
        <time>2026-06-17T11:56:42.000Z</time>
        <extensions>
          <ns3:TrackPointExtension>
            <ns3:atemp>16.0</ns3:atemp>
          </ns3:TrackPointExtension>
        </extensions>
      </trkpt>
      <trkpt lat="42.50716994516551494598388671875" lon="19.89867777563631534576416015625">
        <ele>1855.5999755859375</ele>
        <time>2026-06-17T11:56:43.000Z</time>
        <extensions>
          <ns3:TrackPointExtension>
            <ns3:atemp>16.0</ns3:atemp>
          </ns3:TrackPointExtension>
        </extensions>
      </trkpt>
      <trkpt lat="42.5071842782199382781982421875" lon="19.8986097984015941619873046875">
        <ele>1855</ele>
        <time>2026-06-17T11:56:44.000Z</time>
        <extensions>
          <ns3:TrackPointExtension>
            <ns3:atemp>16.0</ns3:atemp>
          </ns3:TrackPointExtension>
        </extensions>
      </trkpt>
      <trkpt lat="42.5072010420262813568115234375" lon="19.89853796549141407012939453125">
        <ele>1854</ele>
        <time>2026-06-17T11:56:45.000Z</time>
        <extensions>
          <ns3:TrackPointExtension>
            <ns3:atemp>16.0</ns3:atemp>
          </ns3:TrackPointExtension>
        </extensions>
      </trkpt>
      <trkpt lat="42.50721168704330921173095703125" lon="19.89847141318023204803466796875">
        <ele>1853.199951171875</ele>
        <time>2026-06-17T11:56:46.000Z</time>
        <extensions>
          <ns3:TrackPointExtension>
            <ns3:atemp>16.0</ns3:atemp>
          </ns3:TrackPointExtension>
        </extensions>
      </trkpt>
      <trkpt lat="42.507237754762172698974609375" lon="19.89841089583933353424072265625">
        <ele>1852.199951171875</ele>
        <time>2026-06-17T11:56:47.000Z</time>
        <extensions>
          <ns3:TrackPointExtension>
            <ns3:atemp>16.0</ns3:atemp>
          </ns3:TrackPointExtension>
        </extensions>
      </trkpt>
      <trkpt lat="42.5072608888149261474609375" lon="19.898347444832324981689453125">
        <ele>1851.5999755859375</ele>
        <time>2026-06-17T11:56:48.000Z</time>
        <extensions>
          <ns3:TrackPointExtension>
            <ns3:atemp>16.0</ns3:atemp>
          </ns3:TrackPointExtension>
        </extensions>
      </trkpt>
      <trkpt lat="42.50726834870874881744384765625" lon="19.8982738517224788665771484375">
        <ele>1850.5999755859375</ele>
        <time>2026-06-17T11:56:49.000Z</time>
        <extensions>
          <ns3:TrackPointExtension>
            <ns3:atemp>16.0</ns3:atemp>
          </ns3:TrackPointExtension>
        </extensions>
      </trkpt>
      <trkpt lat="42.50728561542928218841552734375" lon="19.89820428192615509033203125">
        <ele>1849.5999755859375</ele>
        <time>2026-06-17T11:56:50.000Z</time>
        <extensions>
          <ns3:TrackPointExtension>
            <ns3:atemp>16.0</ns3:atemp>
          </ns3:TrackPointExtension>
        </extensions>
      </trkpt>
      <trkpt lat="42.50731126405298709869384765625" lon="19.89815189503133296966552734375">
        <ele>1848.5999755859375</ele>
        <time>2026-06-17T11:56:51.000Z</time>
        <extensions>
          <ns3:TrackPointExtension>
            <ns3:atemp>16.0</ns3:atemp>
          </ns3:TrackPointExtension>
        </extensions>
      </trkpt>
      <trkpt lat="42.507340013980865478515625" lon="19.89810395054519176483154296875">
        <ele>1847.800048828125</ele>
        <time>2026-06-17T11:56:52.000Z</time>
        <extensions>
          <ns3:TrackPointExtension>
            <ns3:atemp>16.0</ns3:atemp>
          </ns3:TrackPointExtension>
        </extensions>
      </trkpt>
      <trkpt lat="42.5073542632162570953369140625" lon="19.89806422032415866851806640625">
        <ele>1846.800048828125</ele>
        <time>2026-06-17T11:56:53.000Z</time>
        <extensions>
          <ns3:TrackPointExtension>
            <ns3:atemp>16.0</ns3:atemp>
          </ns3:TrackPointExtension>
        </extensions>
      </trkpt>
      <trkpt lat="42.50736608169972896575927734375" lon="19.89802658557891845703125">
        <ele>1846</ele>
        <time>2026-06-17T11:56:54.000Z</time>
        <extensions>
          <ns3:TrackPointExtension>
            <ns3:atemp>16.0</ns3:atemp>
          </ns3:TrackPointExtension>
        </extensions>
      </trkpt>
      <trkpt lat="42.50737999565899372100830078125" lon="19.89800638519227504730224609375">
        <ele>1845.5999755859375</ele>
        <time>2026-06-17T11:56:55.000Z</time>
        <extensions>
          <ns3:TrackPointExtension>
            <ns3:atemp>16.0</ns3:atemp>
          </ns3:TrackPointExtension>
        </extensions>
      </trkpt>
      <trkpt lat="42.507385946810245513916015625" lon="19.8979995958507061004638671875">
        <ele>1844.800048828125</ele>
        <time>2026-06-17T11:56:56.000Z</time>
        <extensions>
          <ns3:TrackPointExtension>
            <ns3:atemp>16.0</ns3:atemp>
          </ns3:TrackPointExtension>
        </extensions>
      </trkpt>
      <trkpt lat="42.5073869526386260986328125" lon="19.89799230359494686126708984375">
        <ele>1844.4000244140625</ele>
        <time>2026-06-17T11:56:57.000Z</time>
        <extensions>
          <ns3:TrackPointExtension>
            <ns3:atemp>16.0</ns3:atemp>
          </ns3:TrackPointExtension>
        </extensions>
      </trkpt>
      <trkpt lat="42.5073869526386260986328125" lon="19.89799230359494686126708984375">
        <ele>1844</ele>
        <time>2026-06-17T11:56:58.000Z</time>
        <extensions>
          <ns3:TrackPointExtension>
            <ns3:atemp>16.0</ns3:atemp>
          </ns3:TrackPointExtension>
        </extensions>
      </trkpt>
      <trkpt lat="42.5073869526386260986328125" lon="19.89799230359494686126708984375">
        <ele>1843.5999755859375</ele>
        <time>2026-06-17T11:56:59.000Z</time>
        <extensions>
          <ns3:TrackPointExtension>
            <ns3:atemp>16.0</ns3:atemp>
          </ns3:TrackPointExtension>
        </extensions>
      </trkpt>
      <trkpt lat="42.5073869526386260986328125" lon="19.89799230359494686126708984375">
        <ele>1843.4000244140625</ele>
        <time>2026-06-17T11:57:00.000Z</time>
        <extensions>
          <ns3:TrackPointExtension>
            <ns3:atemp>16.0</ns3:atemp>
          </ns3:TrackPointExtension>
        </extensions>
      </trkpt>
      <trkpt lat="42.5073869526386260986328125" lon="19.89799230359494686126708984375">
        <ele>1843.199951171875</ele>
        <time>2026-06-17T11:57:01.000Z</time>
        <extensions>
          <ns3:TrackPointExtension>
            <ns3:atemp>16.0</ns3:atemp>
          </ns3:TrackPointExtension>
        </extensions>
      </trkpt>
      <trkpt lat="42.5073869526386260986328125" lon="19.89799230359494686126708984375">
        <ele>1843</ele>
        <time>2026-06-17T11:57:02.000Z</time>
        <extensions>
          <ns3:TrackPointExtension>
            <ns3:atemp>16.0</ns3:atemp>
          </ns3:TrackPointExtension>
        </extensions>
      </trkpt>
      <trkpt lat="42.5073869526386260986328125" lon="19.89799230359494686126708984375">
        <ele>1843</ele>
        <time>2026-06-17T11:57:03.000Z</time>
        <extensions>
          <ns3:TrackPointExtension>
            <ns3:atemp>16.0</ns3:atemp>
          </ns3:TrackPointExtension>
        </extensions>
      </trkpt>
      <trkpt lat="42.5073869526386260986328125" lon="19.89799230359494686126708984375">
        <ele>1842.800048828125</ele>
        <time>2026-06-17T11:57:04.000Z</time>
        <extensions>
          <ns3:TrackPointExtension>
            <ns3:atemp>16.0</ns3:atemp>
          </ns3:TrackPointExtension>
        </extensions>
      </trkpt>
      <trkpt lat="42.5073869526386260986328125" lon="19.89799230359494686126708984375">
        <ele>1842.800048828125</ele>
        <time>2026-06-17T11:57:05.000Z</time>
        <extensions>
          <ns3:TrackPointExtension>
            <ns3:atemp>16.0</ns3:atemp>
          </ns3:TrackPointExtension>
        </extensions>
      </trkpt>
      <trkpt lat="42.5073869526386260986328125" lon="19.89799230359494686126708984375">
        <ele>1842.800048828125</ele>
        <time>2026-06-17T11:57:06.000Z</time>
        <extensions>
          <ns3:TrackPointExtension>
            <ns3:atemp>15.0</ns3:atemp>
          </ns3:TrackPointExtension>
        </extensions>
      </trkpt>
      <trkpt lat="42.5073869526386260986328125" lon="19.89799230359494686126708984375">
        <ele>1842.800048828125</ele>
        <time>2026-06-17T11:57:07.000Z</time>
        <extensions>
          <ns3:TrackPointExtension>
            <ns3:atemp>15.0</ns3:atemp>
          </ns3:TrackPointExtension>
        </extensions>
      </trkpt>
      <trkpt lat="42.5073869526386260986328125" lon="19.89799230359494686126708984375">
        <ele>1842.800048828125</ele>
        <time>2026-06-17T11:57:08.000Z</time>
        <extensions>
          <ns3:TrackPointExtension>
            <ns3:atemp>16.0</ns3:atemp>
          </ns3:TrackPointExtension>
        </extensions>
      </trkpt>
      <trkpt lat="42.5073869526386260986328125" lon="19.89799230359494686126708984375">
        <ele>1842.800048828125</ele>
        <time>2026-06-17T11:57:09.000Z</time>
        <extensions>
          <ns3:TrackPointExtension>
            <ns3:atemp>16.0</ns3:atemp>
          </ns3:TrackPointExtension>
        </extensions>
      </trkpt>
      <trkpt lat="42.5073869526386260986328125" lon="19.89799230359494686126708984375">
        <ele>1842.800048828125</ele>
        <time>2026-06-17T11:57:10.000Z</time>
        <extensions>
          <ns3:TrackPointExtension>
            <ns3:atemp>15.0</ns3:atemp>
          </ns3:TrackPointExtension>
        </extensions>
      </trkpt>
      <trkpt lat="42.5073869526386260986328125" lon="19.89799230359494686126708984375">
        <ele>1842.800048828125</ele>
        <time>2026-06-17T11:57:11.000Z</time>
        <extensions>
          <ns3:TrackPointExtension>
            <ns3:atemp>15.0</ns3:atemp>
          </ns3:TrackPointExtension>
        </extensions>
      </trkpt>
      <trkpt lat="42.5073869526386260986328125" lon="19.89799230359494686126708984375">
        <ele>1842.800048828125</ele>
        <time>2026-06-17T11:57:12.000Z</time>
        <extensions>
          <ns3:TrackPointExtension>
            <ns3:atemp>16.0</ns3:atemp>
          </ns3:TrackPointExtension>
        </extensions>
      </trkpt>
      <trkpt lat="42.5073869526386260986328125" lon="19.89799230359494686126708984375">
        <ele>1842.800048828125</ele>
        <time>2026-06-17T11:57:13.000Z</time>
        <extensions>
          <ns3:TrackPointExtension>
            <ns3:atemp>16.0</ns3:atemp>
          </ns3:TrackPointExtension>
        </extensions>
      </trkpt>
      <trkpt lat="42.5073869526386260986328125" lon="19.89799230359494686126708984375">
        <ele>1842.800048828125</ele>
        <time>2026-06-17T11:57:14.000Z</time>
        <extensions>
          <ns3:TrackPointExtension>
            <ns3:atemp>16.0</ns3:atemp>
          </ns3:TrackPointExtension>
        </extensions>
      </trkpt>
      <trkpt lat="42.5073869526386260986328125" lon="19.89799230359494686126708984375">
        <ele>1842.5999755859375</ele>
        <time>2026-06-17T11:57:15.000Z</time>
        <extensions>
          <ns3:TrackPointExtension>
            <ns3:atemp>16.0</ns3:atemp>
          </ns3:TrackPointExtension>
        </extensions>
      </trkpt>
      <trkpt lat="42.5073869526386260986328125" lon="19.89799230359494686126708984375">
        <ele>1842.5999755859375</ele>
        <time>2026-06-17T11:57:16.000Z</time>
        <extensions>
          <ns3:TrackPointExtension>
            <ns3:atemp>15.0</ns3:atemp>
          </ns3:TrackPointExtension>
        </extensions>
      </trkpt>
      <trkpt lat="42.5073869526386260986328125" lon="19.89799230359494686126708984375">
        <ele>1842.5999755859375</ele>
        <time>2026-06-17T11:57:17.000Z</time>
        <extensions>
          <ns3:TrackPointExtension>
            <ns3:atemp>16.0</ns3:atemp>
          </ns3:TrackPointExtension>
        </extensions>
      </trkpt>
      <trkpt lat="42.5073869526386260986328125" lon="19.89799230359494686126708984375">
        <ele>1842.5999755859375</ele>
        <time>2026-06-17T11:57:18.000Z</time>
        <extensions>
          <ns3:TrackPointExtension>
            <ns3:atemp>16.0</ns3:atemp>
          </ns3:TrackPointExtension>
        </extensions>
      </trkpt>
      <trkpt lat="42.5073869526386260986328125" lon="19.89799230359494686126708984375">
        <ele>1842.5999755859375</ele>
        <time>2026-06-17T11:57:19.000Z</time>
        <extensions>
          <ns3:TrackPointExtension>
            <ns3:atemp>16.0</ns3:atemp>
          </ns3:TrackPointExtension>
        </extensions>
      </trkpt>
      <trkpt lat="42.5073869526386260986328125" lon="19.89799230359494686126708984375">
        <ele>1842.5999755859375</ele>
        <time>2026-06-17T11:57:20.000Z</time>
        <extensions>
          <ns3:TrackPointExtension>
            <ns3:atemp>16.0</ns3:atemp>
          </ns3:TrackPointExtension>
        </extensions>
      </trkpt>
      <trkpt lat="42.5073869526386260986328125" lon="19.89799230359494686126708984375">
        <ele>1842.5999755859375</ele>
        <time>2026-06-17T11:57:21.000Z</time>
        <extensions>
          <ns3:TrackPointExtension>
            <ns3:atemp>16.0</ns3:atemp>
          </ns3:TrackPointExtension>
        </extensions>
      </trkpt>
      <trkpt lat="42.5073869526386260986328125" lon="19.89799230359494686126708984375">
        <ele>1842.5999755859375</ele>
        <time>2026-06-17T11:57:22.000Z</time>
        <extensions>
          <ns3:TrackPointExtension>
            <ns3:atemp>16.0</ns3:atemp>
          </ns3:TrackPointExtension>
        </extensions>
      </trkpt>
      <trkpt lat="42.5073869526386260986328125" lon="19.89799230359494686126708984375">
        <ele>1842.5999755859375</ele>
        <time>2026-06-17T11:57:23.000Z</time>
        <extensions>
          <ns3:TrackPointExtension>
            <ns3:atemp>16.0</ns3:atemp>
          </ns3:TrackPointExtension>
        </extensions>
      </trkpt>
      <trkpt lat="42.5073869526386260986328125" lon="19.89799230359494686126708984375">
        <ele>1842.4000244140625</ele>
        <time>2026-06-17T11:57:24.000Z</time>
        <extensions>
          <ns3:TrackPointExtension>
            <ns3:atemp>16.0</ns3:atemp>
          </ns3:TrackPointExtension>
        </extensions>
      </trkpt>
      <trkpt lat="42.5073869526386260986328125" lon="19.89799230359494686126708984375">
        <ele>1842.4000244140625</ele>
        <time>2026-06-17T11:57:25.000Z</time>
        <extensions>
          <ns3:TrackPointExtension>
            <ns3:atemp>16.0</ns3:atemp>
          </ns3:TrackPointExtension>
        </extensions>
      </trkpt>
      <trkpt lat="42.5073869526386260986328125" lon="19.89799230359494686126708984375">
        <ele>1842.4000244140625</ele>
        <time>2026-06-17T11:57:26.000Z</time>
        <extensions>
          <ns3:TrackPointExtension>
            <ns3:atemp>16.0</ns3:atemp>
          </ns3:TrackPointExtension>
        </extensions>
      </trkpt>
      <trkpt lat="42.5073869526386260986328125" lon="19.89799230359494686126708984375">
        <ele>1842.4000244140625</ele>
        <time>2026-06-17T11:57:27.000Z</time>
        <extensions>
          <ns3:TrackPointExtension>
            <ns3:atemp>16.0</ns3:atemp>
          </ns3:TrackPointExtension>
        </extensions>
      </trkpt>
      <trkpt lat="42.5073869526386260986328125" lon="19.89799230359494686126708984375">
        <ele>1842.4000244140625</ele>
        <time>2026-06-17T11:57:28.000Z</time>
        <extensions>
          <ns3:TrackPointExtension>
            <ns3:atemp>16.0</ns3:atemp>
          </ns3:TrackPointExtension>
        </extensions>
      </trkpt>
      <trkpt lat="42.5073869526386260986328125" lon="19.89799230359494686126708984375">
        <ele>1842.4000244140625</ele>
        <time>2026-06-17T11:57:29.000Z</time>
        <extensions>
          <ns3:TrackPointExtension>
            <ns3:atemp>16.0</ns3:atemp>
          </ns3:TrackPointExtension>
        </extensions>
      </trkpt>
      <trkpt lat="42.5073869526386260986328125" lon="19.89799230359494686126708984375">
        <ele>1842.4000244140625</ele>
        <time>2026-06-17T11:57:30.000Z</time>
        <extensions>
          <ns3:TrackPointExtension>
            <ns3:atemp>16.0</ns3:atemp>
          </ns3:TrackPointExtension>
        </extensions>
      </trkpt>
      <trkpt lat="42.5073861144483089447021484375" lon="19.897996746003627777099609375">
        <ele>1842.4000244140625</ele>
        <time>2026-06-17T11:57:31.000Z</time>
        <extensions>
          <ns3:TrackPointExtension>
            <ns3:atemp>16.0</ns3:atemp>
          </ns3:TrackPointExtension>
        </extensions>
      </trkpt>
      <trkpt lat="42.507398016750812530517578125" lon="19.89799263887107372283935546875">
        <ele>1842.199951171875</ele>
        <time>2026-06-17T11:57:32.000Z</time>
        <extensions>
          <ns3:TrackPointExtension>
            <ns3:atemp>16.0</ns3:atemp>
          </ns3:TrackPointExtension>
        </extensions>
      </trkpt>
      <trkpt lat="42.50741872005164623260498046875" lon="19.89797000773251056671142578125">
        <ele>1842.199951171875</ele>
        <time>2026-06-17T11:57:33.000Z</time>
        <extensions>
          <ns3:TrackPointExtension>
            <ns3:atemp>16.0</ns3:atemp>
          </ns3:TrackPointExtension>
        </extensions>
      </trkpt>
      <trkpt lat="42.50744001008570194244384765625" lon="19.897934384644031524658203125">
        <ele>1842</ele>
        <time>2026-06-17T11:57:34.000Z</time>
        <extensions>
          <ns3:TrackPointExtension>
            <ns3:atemp>15.0</ns3:atemp>
          </ns3:TrackPointExtension>
        </extensions>
      </trkpt>
      <trkpt lat="42.5074638985097408294677734375" lon="19.89790496416389942169189453125">
        <ele>1841.800048828125</ele>
        <time>2026-06-17T11:57:35.000Z</time>
        <extensions>
          <ns3:TrackPointExtension>
            <ns3:atemp>15.0</ns3:atemp>
          </ns3:TrackPointExtension>
        </extensions>
      </trkpt>
      <trkpt lat="42.5074923969805240631103515625" lon="19.897858612239360809326171875">
        <ele>1841.199951171875</ele>
        <time>2026-06-17T11:57:36.000Z</time>
        <extensions>
          <ns3:TrackPointExtension>
            <ns3:atemp>16.0</ns3:atemp>
          </ns3:TrackPointExtension>
        </extensions>
      </trkpt>
      <trkpt lat="42.5075165368616580963134765625" lon="19.89780806936323642730712890625">
        <ele>1840.5999755859375</ele>
        <time>2026-06-17T11:57:37.000Z</time>
        <extensions>
          <ns3:TrackPointExtension>
            <ns3:atemp>16.0</ns3:atemp>
          </ns3:TrackPointExtension>
        </extensions>
      </trkpt>
      <trkpt lat="42.5075333006680011749267578125" lon="19.89775769412517547607421875">
        <ele>1840</ele>
        <time>2026-06-17T11:57:38.000Z</time>
        <extensions>
          <ns3:TrackPointExtension>
            <ns3:atemp>16.0</ns3:atemp>
          </ns3:TrackPointExtension>
        </extensions>
      </trkpt>
      <trkpt lat="42.5075460411608219146728515625" lon="19.897723495960235595703125">
        <ele>1839.199951171875</ele>
        <time>2026-06-17T11:57:39.000Z</time>
        <extensions>
          <ns3:TrackPointExtension>
            <ns3:atemp>16.0</ns3:atemp>
          </ns3:TrackPointExtension>
        </extensions>
      </trkpt>
      <trkpt lat="42.5075510703027248382568359375" lon="19.89769198000431060791015625">
        <ele>1838.5999755859375</ele>
        <time>2026-06-17T11:57:40.000Z</time>
        <extensions>
          <ns3:TrackPointExtension>
            <ns3:atemp>16.0</ns3:atemp>
          </ns3:TrackPointExtension>
        </extensions>
      </trkpt>
      <trkpt lat="42.50756138004362583160400390625" lon="19.89766490645706653594970703125">
        <ele>1838</ele>
        <time>2026-06-17T11:57:41.000Z</time>
        <extensions>
          <ns3:TrackPointExtension>
            <ns3:atemp>16.0</ns3:atemp>
          </ns3:TrackPointExtension>
        </extensions>
      </trkpt>
      <trkpt lat="42.50757613219320774078369140625" lon="19.8976418562233448028564453125">
        <ele>1837.5999755859375</ele>
        <time>2026-06-17T11:57:42.000Z</time>
        <extensions>
          <ns3:TrackPointExtension>
            <ns3:atemp>16.0</ns3:atemp>
          </ns3:TrackPointExtension>
        </extensions>
      </trkpt>
      <trkpt lat="42.50759390182793140411376953125" lon="19.8976271040737628936767578125">
        <ele>1837</ele>
        <time>2026-06-17T11:57:43.000Z</time>
        <extensions>
          <ns3:TrackPointExtension>
            <ns3:atemp>16.0</ns3:atemp>
          </ns3:TrackPointExtension>
        </extensions>
      </trkpt>
      <trkpt lat="42.50761804170906543731689453125" lon="19.89760941825807094573974609375">
        <ele>1836.5999755859375</ele>
        <time>2026-06-17T11:57:44.000Z</time>
        <extensions>
          <ns3:TrackPointExtension>
            <ns3:atemp>16.0</ns3:atemp>
          </ns3:TrackPointExtension>
        </extensions>
      </trkpt>
      <trkpt lat="42.50764486379921436309814453125" lon="19.89759081043303012847900390625">
        <ele>1836</ele>
        <time>2026-06-17T11:57:45.000Z</time>
        <extensions>
          <ns3:TrackPointExtension>
            <ns3:atemp>16.0</ns3:atemp>
          </ns3:TrackPointExtension>
        </extensions>
      </trkpt>
      <trkpt lat="42.50766531564295291900634765625" lon="19.89757169969379901885986328125">
        <ele>1835.199951171875</ele>
        <time>2026-06-17T11:57:46.000Z</time>
        <extensions>
          <ns3:TrackPointExtension>
            <ns3:atemp>16.0</ns3:atemp>
          </ns3:TrackPointExtension>
        </extensions>
      </trkpt>
      <trkpt lat="42.507680989801883697509765625" lon="19.89755812101066112518310546875">
        <ele>1834.800048828125</ele>
        <time>2026-06-17T11:57:47.000Z</time>
        <extensions>
          <ns3:TrackPointExtension>
            <ns3:atemp>16.0</ns3:atemp>
          </ns3:TrackPointExtension>
        </extensions>
      </trkpt>
      <trkpt lat="42.50768073834478855133056640625" lon="19.89755426533520221710205078125">
        <ele>1834.4000244140625</ele>
        <time>2026-06-17T11:57:48.000Z</time>
        <extensions>
          <ns3:TrackPointExtension>
            <ns3:atemp>16.0</ns3:atemp>
          </ns3:TrackPointExtension>
        </extensions>
      </trkpt>
      <trkpt lat="42.5076808221638202667236328125" lon="19.89755426533520221710205078125">
        <ele>1834</ele>
        <time>2026-06-17T11:57:49.000Z</time>
        <extensions>
          <ns3:TrackPointExtension>
            <ns3:atemp>16.0</ns3:atemp>
          </ns3:TrackPointExtension>
        </extensions>
      </trkpt>
      <trkpt lat="42.5076808221638202667236328125" lon="19.89755426533520221710205078125">
        <ele>1833.800048828125</ele>
        <time>2026-06-17T11:57:50.000Z</time>
        <extensions>
          <ns3:TrackPointExtension>
            <ns3:atemp>16.0</ns3:atemp>
          </ns3:TrackPointExtension>
        </extensions>
      </trkpt>
      <trkpt lat="42.5076808221638202667236328125" lon="19.89755426533520221710205078125">
        <ele>1833.5999755859375</ele>
        <time>2026-06-17T11:57:51.000Z</time>
        <extensions>
          <ns3:TrackPointExtension>
            <ns3:atemp>16.0</ns3:atemp>
          </ns3:TrackPointExtension>
        </extensions>
      </trkpt>
      <trkpt lat="42.5076808221638202667236328125" lon="19.89755426533520221710205078125">
        <ele>1833.5999755859375</ele>
        <time>2026-06-17T11:57:52.000Z</time>
        <extensions>
          <ns3:TrackPointExtension>
            <ns3:atemp>16.0</ns3:atemp>
          </ns3:TrackPointExtension>
        </extensions>
      </trkpt>
      <trkpt lat="42.5076808221638202667236328125" lon="19.89755426533520221710205078125">
        <ele>1833.4000244140625</ele>
        <time>2026-06-17T11:57:53.000Z</time>
        <extensions>
          <ns3:TrackPointExtension>
            <ns3:atemp>16.0</ns3:atemp>
          </ns3:TrackPointExtension>
        </extensions>
      </trkpt>
      <trkpt lat="42.5076808221638202667236328125" lon="19.89755426533520221710205078125">
        <ele>1833.4000244140625</ele>
        <time>2026-06-17T11:57:54.000Z</time>
        <extensions>
          <ns3:TrackPointExtension>
            <ns3:atemp>16.0</ns3:atemp>
          </ns3:TrackPointExtension>
        </extensions>
      </trkpt>
      <trkpt lat="42.5076808221638202667236328125" lon="19.89755426533520221710205078125">
        <ele>1833.4000244140625</ele>
        <time>2026-06-17T11:57:55.000Z</time>
        <extensions>
          <ns3:TrackPointExtension>
            <ns3:atemp>16.0</ns3:atemp>
          </ns3:TrackPointExtension>
        </extensions>
      </trkpt>
      <trkpt lat="42.50768073834478855133056640625" lon="19.89755426533520221710205078125">
        <ele>1833.4000244140625</ele>
        <time>2026-06-17T11:57:56.000Z</time>
        <extensions>
          <ns3:TrackPointExtension>
            <ns3:atemp>16.0</ns3:atemp>
          </ns3:TrackPointExtension>
        </extensions>
      </trkpt>
      <trkpt lat="42.5076824985444545745849609375" lon="19.8975506611168384552001953125">
        <ele>1833.199951171875</ele>
        <time>2026-06-17T11:57:57.000Z</time>
        <extensions>
          <ns3:TrackPointExtension>
            <ns3:atemp>16.0</ns3:atemp>
          </ns3:TrackPointExtension>
        </extensions>
      </trkpt>
      <trkpt lat="42.507690377533435821533203125" lon="19.89754521287977695465087890625">
        <ele>1833.199951171875</ele>
        <time>2026-06-17T11:57:58.000Z</time>
        <extensions>
          <ns3:TrackPointExtension>
            <ns3:atemp>16.0</ns3:atemp>
          </ns3:TrackPointExtension>
        </extensions>
      </trkpt>
      <trkpt lat="42.50770772807300090789794921875" lon="19.897539429366588592529296875">
        <ele>1833</ele>
        <time>2026-06-17T11:57:59.000Z</time>
        <extensions>
          <ns3:TrackPointExtension>
            <ns3:atemp>16.0</ns3:atemp>
          </ns3:TrackPointExtension>
        </extensions>
      </trkpt>
      <trkpt lat="42.507729269564151763916015625" lon="19.8975382559001445770263671875">
        <ele>1832.800048828125</ele>
        <time>2026-06-17T11:58:00.000Z</time>
        <extensions>
          <ns3:TrackPointExtension>
            <ns3:atemp>16.0</ns3:atemp>
          </ns3:TrackPointExtension>
        </extensions>
      </trkpt>
      <trkpt lat="42.50775164924561977386474609375" lon="19.89753163419663906097412109375">
        <ele>1832.5999755859375</ele>
        <time>2026-06-17T11:58:01.000Z</time>
        <extensions>
          <ns3:TrackPointExtension>
            <ns3:atemp>16.0</ns3:atemp>
          </ns3:TrackPointExtension>
        </extensions>
      </trkpt>
      <trkpt lat="42.50776623375713825225830078125" lon="19.89751788787543773651123046875">
        <ele>1832.199951171875</ele>
        <time>2026-06-17T11:58:02.000Z</time>
        <extensions>
          <ns3:TrackPointExtension>
            <ns3:atemp>16.0</ns3:atemp>
          </ns3:TrackPointExtension>
        </extensions>
      </trkpt>
      <trkpt lat="42.5077790580689907073974609375" lon="19.89749911241233348846435546875">
        <ele>1831.800048828125</ele>
        <time>2026-06-17T11:58:03.000Z</time>
        <extensions>
          <ns3:TrackPointExtension>
            <ns3:atemp>16.0</ns3:atemp>
          </ns3:TrackPointExtension>
        </extensions>
      </trkpt>
      <trkpt lat="42.50778886489570140838623046875" lon="19.89748385734856128692626953125">
        <ele>1831.5999755859375</ele>
        <time>2026-06-17T11:58:04.000Z</time>
        <extensions>
          <ns3:TrackPointExtension>
            <ns3:atemp>16.0</ns3:atemp>
          </ns3:TrackPointExtension>
        </extensions>
      </trkpt>
      <trkpt lat="42.5077944807708263397216796875" lon="19.89748670719563961029052734375">
        <ele>1831.199951171875</ele>
        <time>2026-06-17T11:58:05.000Z</time>
        <extensions>
          <ns3:TrackPointExtension>
            <ns3:atemp>16.0</ns3:atemp>
          </ns3:TrackPointExtension>
        </extensions>
      </trkpt>
      <trkpt lat="42.507796995341777801513671875" lon="19.89748813211917877197265625">
        <ele>1831</ele>
        <time>2026-06-17T11:58:06.000Z</time>
        <extensions>
          <ns3:TrackPointExtension>
            <ns3:atemp>16.0</ns3:atemp>
          </ns3:TrackPointExtension>
        </extensions>
      </trkpt>
      <trkpt lat="42.50779707916080951690673828125" lon="19.8974882997572422027587890625">
        <ele>1830.800048828125</ele>
        <time>2026-06-17T11:58:07.000Z</time>
        <extensions>
          <ns3:TrackPointExtension>
            <ns3:atemp>16.0</ns3:atemp>
          </ns3:TrackPointExtension>
        </extensions>
      </trkpt>
      <trkpt lat="42.50779707916080951690673828125" lon="19.8974882997572422027587890625">
        <ele>1830.5999755859375</ele>
        <time>2026-06-17T11:58:08.000Z</time>
        <extensions>
          <ns3:TrackPointExtension>
            <ns3:atemp>16.0</ns3:atemp>
          </ns3:TrackPointExtension>
        </extensions>
      </trkpt>
      <trkpt lat="42.50779707916080951690673828125" lon="19.8974882997572422027587890625">
        <ele>1830.5999755859375</ele>
        <time>2026-06-17T11:58:09.000Z</time>
        <extensions>
          <ns3:TrackPointExtension>
            <ns3:atemp>16.0</ns3:atemp>
          </ns3:TrackPointExtension>
        </extensions>
      </trkpt>
      <trkpt lat="42.50779707916080951690673828125" lon="19.8974882997572422027587890625">
        <ele>1830.4000244140625</ele>
        <time>2026-06-17T11:58:10.000Z</time>
        <extensions>
          <ns3:TrackPointExtension>
            <ns3:atemp>16.0</ns3:atemp>
          </ns3:TrackPointExtension>
        </extensions>
      </trkpt>
      <trkpt lat="42.50779707916080951690673828125" lon="19.8974882997572422027587890625">
        <ele>1830.4000244140625</ele>
        <time>2026-06-17T11:58:11.000Z</time>
        <extensions>
          <ns3:TrackPointExtension>
            <ns3:atemp>16.0</ns3:atemp>
          </ns3:TrackPointExtension>
        </extensions>
      </trkpt>
      <trkpt lat="42.50779707916080951690673828125" lon="19.8974882997572422027587890625">
        <ele>1830.4000244140625</ele>
        <time>2026-06-17T11:58:12.000Z</time>
        <extensions>
          <ns3:TrackPointExtension>
            <ns3:atemp>16.0</ns3:atemp>
          </ns3:TrackPointExtension>
        </extensions>
      </trkpt>
      <trkpt lat="42.50779707916080951690673828125" lon="19.8974882997572422027587890625">
        <ele>1830.4000244140625</ele>
        <time>2026-06-17T11:58:13.000Z</time>
        <extensions>
          <ns3:TrackPointExtension>
            <ns3:atemp>16.0</ns3:atemp>
          </ns3:TrackPointExtension>
        </extensions>
      </trkpt>
      <trkpt lat="42.50779707916080951690673828125" lon="19.8974882997572422027587890625">
        <ele>1830.4000244140625</ele>
        <time>2026-06-17T11:58:14.000Z</time>
        <extensions>
          <ns3:TrackPointExtension>
            <ns3:atemp>15.0</ns3:atemp>
          </ns3:TrackPointExtension>
        </extensions>
      </trkpt>
      <trkpt lat="42.50779707916080951690673828125" lon="19.8974882997572422027587890625">
        <ele>1830.199951171875</ele>
        <time>2026-06-17T11:58:15.000Z</time>
        <extensions>
          <ns3:TrackPointExtension>
            <ns3:atemp>16.0</ns3:atemp>
          </ns3:TrackPointExtension>
        </extensions>
      </trkpt>
      <trkpt lat="42.50779707916080951690673828125" lon="19.8974882997572422027587890625">
        <ele>1830.4000244140625</ele>
        <time>2026-06-17T11:58:16.000Z</time>
        <extensions>
          <ns3:TrackPointExtension>
            <ns3:atemp>16.0</ns3:atemp>
          </ns3:TrackPointExtension>
        </extensions>
      </trkpt>
      <trkpt lat="42.50779707916080951690673828125" lon="19.8974882997572422027587890625">
        <ele>1830.4000244140625</ele>
        <time>2026-06-17T11:58:17.000Z</time>
        <extensions>
          <ns3:TrackPointExtension>
            <ns3:atemp>16.0</ns3:atemp>
          </ns3:TrackPointExtension>
        </extensions>
      </trkpt>
      <trkpt lat="42.50779707916080951690673828125" lon="19.8974882997572422027587890625">
        <ele>1830.4000244140625</ele>
        <time>2026-06-17T11:58:18.000Z</time>
        <extensions>
          <ns3:TrackPointExtension>
            <ns3:atemp>16.0</ns3:atemp>
          </ns3:TrackPointExtension>
        </extensions>
      </trkpt>
      <trkpt lat="42.50779707916080951690673828125" lon="19.8974882997572422027587890625">
        <ele>1830.4000244140625</ele>
        <time>2026-06-17T11:58:19.000Z</time>
        <extensions>
          <ns3:TrackPointExtension>
            <ns3:atemp>16.0</ns3:atemp>
          </ns3:TrackPointExtension>
        </extensions>
      </trkpt>
      <trkpt lat="42.50779707916080951690673828125" lon="19.8974882997572422027587890625">
        <ele>1830.4000244140625</ele>
        <time>2026-06-17T11:58:20.000Z</time>
        <extensions>
          <ns3:TrackPointExtension>
            <ns3:atemp>16.0</ns3:atemp>
          </ns3:TrackPointExtension>
        </extensions>
      </trkpt>
      <trkpt lat="42.50779707916080951690673828125" lon="19.8974882997572422027587890625">
        <ele>1830.4000244140625</ele>
        <time>2026-06-17T11:58:21.000Z</time>
        <extensions>
          <ns3:TrackPointExtension>
            <ns3:atemp>16.0</ns3:atemp>
          </ns3:TrackPointExtension>
        </extensions>
      </trkpt>
      <trkpt lat="42.50779707916080951690673828125" lon="19.8974882997572422027587890625">
        <ele>1830.4000244140625</ele>
        <time>2026-06-17T11:58:22.000Z</time>
        <extensions>
          <ns3:TrackPointExtension>
            <ns3:atemp>16.0</ns3:atemp>
          </ns3:TrackPointExtension>
        </extensions>
      </trkpt>
      <trkpt lat="42.50779707916080951690673828125" lon="19.8974882997572422027587890625">
        <ele>1830.4000244140625</ele>
        <time>2026-06-17T11:58:23.000Z</time>
        <extensions>
          <ns3:TrackPointExtension>
            <ns3:atemp>16.0</ns3:atemp>
          </ns3:TrackPointExtension>
        </extensions>
      </trkpt>
      <trkpt lat="42.50779707916080951690673828125" lon="19.8974882997572422027587890625">
        <ele>1830.4000244140625</ele>
        <time>2026-06-17T11:58:24.000Z</time>
        <extensions>
          <ns3:TrackPointExtension>
            <ns3:atemp>16.0</ns3:atemp>
          </ns3:TrackPointExtension>
        </extensions>
      </trkpt>
      <trkpt lat="42.50779707916080951690673828125" lon="19.8974882997572422027587890625">
        <ele>1830.4000244140625</ele>
        <time>2026-06-17T11:58:25.000Z</time>
        <extensions>
          <ns3:TrackPointExtension>
            <ns3:atemp>16.0</ns3:atemp>
          </ns3:TrackPointExtension>
        </extensions>
      </trkpt>
      <trkpt lat="42.50779707916080951690673828125" lon="19.8974882997572422027587890625">
        <ele>1830.4000244140625</ele>
        <time>2026-06-17T11:58:26.000Z</time>
        <extensions>
          <ns3:TrackPointExtension>
            <ns3:atemp>16.0</ns3:atemp>
          </ns3:TrackPointExtension>
        </extensions>
      </trkpt>
      <trkpt lat="42.50779330730438232421875" lon="19.8974822647869586944580078125">
        <ele>1830.4000244140625</ele>
        <time>2026-06-17T11:58:27.000Z</time>
        <extensions>
          <ns3:TrackPointExtension>
            <ns3:atemp>16.0</ns3:atemp>
          </ns3:TrackPointExtension>
        </extensions>
      </trkpt>
      <trkpt lat="42.50779758207499980926513671875" lon="19.8974779061973094940185546875">
        <ele>1830.4000244140625</ele>
        <time>2026-06-17T11:58:28.000Z</time>
        <extensions>
          <ns3:TrackPointExtension>
            <ns3:atemp>16.0</ns3:atemp>
          </ns3:TrackPointExtension>
        </extensions>
      </trkpt>
      <trkpt lat="42.50780604779720306396484375" lon="19.89747446961700916290283203125">
        <ele>1830.199951171875</ele>
        <time>2026-06-17T11:58:29.000Z</time>
        <extensions>
          <ns3:TrackPointExtension>
            <ns3:atemp>16.0</ns3:atemp>
          </ns3:TrackPointExtension>
        </extensions>
      </trkpt>
      <trkpt lat="42.50781836919486522674560546875" lon="19.8974755592644214630126953125">
        <ele>1830.199951171875</ele>
        <time>2026-06-17T11:58:30.000Z</time>
        <extensions>
          <ns3:TrackPointExtension>
            <ns3:atemp>16.0</ns3:atemp>
          </ns3:TrackPointExtension>
        </extensions>
      </trkpt>
      <trkpt lat="42.50783546827733516693115234375" lon="19.89747782237827777862548828125">
        <ele>1830</ele>
        <time>2026-06-17T11:58:31.000Z</time>
        <extensions>
          <ns3:TrackPointExtension>
            <ns3:atemp>16.0</ns3:atemp>
          </ns3:TrackPointExtension>
        </extensions>
      </trkpt>
      <trkpt lat="42.50784770585596561431884765625" lon="19.8974728770554065704345703125">
        <ele>1829.800048828125</ele>
        <time>2026-06-17T11:58:32.000Z</time>
        <extensions>
          <ns3:TrackPointExtension>
            <ns3:atemp>16.0</ns3:atemp>
          </ns3:TrackPointExtension>
        </extensions>
      </trkpt>
      <trkpt lat="42.50784602947533130645751953125" lon="19.8974708653986454010009765625">
        <ele>1829.5999755859375</ele>
        <time>2026-06-17T11:58:33.000Z</time>
        <extensions>
          <ns3:TrackPointExtension>
            <ns3:atemp>16.0</ns3:atemp>
          </ns3:TrackPointExtension>
        </extensions>
      </trkpt>
      <trkpt lat="42.5078461132943630218505859375" lon="19.8974708653986454010009765625">
        <ele>1829.4000244140625</ele>
        <time>2026-06-17T11:58:34.000Z</time>
        <extensions>
          <ns3:TrackPointExtension>
            <ns3:atemp>16.0</ns3:atemp>
          </ns3:TrackPointExtension>
        </extensions>
      </trkpt>
      <trkpt lat="42.50785172916948795318603515625" lon="19.89746709354221820831298828125">
        <ele>1829.4000244140625</ele>
        <time>2026-06-17T11:58:35.000Z</time>
        <extensions>
          <ns3:TrackPointExtension>
            <ns3:atemp>16.0</ns3:atemp>
          </ns3:TrackPointExtension>
        </extensions>
      </trkpt>
      <trkpt lat="42.5078578479588031768798828125" lon="19.897462315857410430908203125">
        <ele>1829.199951171875</ele>
        <time>2026-06-17T11:58:36.000Z</time>
        <extensions>
          <ns3:TrackPointExtension>
            <ns3:atemp>16.0</ns3:atemp>
          </ns3:TrackPointExtension>
        </extensions>
      </trkpt>
      <trkpt lat="42.5078655593097209930419921875" lon="19.8974539339542388916015625">
        <ele>1829</ele>
        <time>2026-06-17T11:58:37.000Z</time>
        <extensions>
          <ns3:TrackPointExtension>
            <ns3:atemp>16.0</ns3:atemp>
          </ns3:TrackPointExtension>
        </extensions>
      </trkpt>
      <trkpt lat="42.5078697502613067626953125" lon="19.89743742160499095916748046875">
        <ele>1829</ele>
        <time>2026-06-17T11:58:38.000Z</time>
        <extensions>
          <ns3:TrackPointExtension>
            <ns3:atemp>16.0</ns3:atemp>
          </ns3:TrackPointExtension>
        </extensions>
      </trkpt>
      <trkpt lat="42.5078724324703216552734375" lon="19.89742099307477474212646484375">
        <ele>1828.800048828125</ele>
        <time>2026-06-17T11:58:39.000Z</time>
        <extensions>
          <ns3:TrackPointExtension>
            <ns3:atemp>16.0</ns3:atemp>
          </ns3:TrackPointExtension>
        </extensions>
      </trkpt>
      <trkpt lat="42.50787905417382717132568359375" lon="19.8974048160016536712646484375">
        <ele>1828.5999755859375</ele>
        <time>2026-06-17T11:58:40.000Z</time>
        <extensions>
          <ns3:TrackPointExtension>
            <ns3:atemp>16.0</ns3:atemp>
          </ns3:TrackPointExtension>
        </extensions>
      </trkpt>
      <trkpt lat="42.5078885257244110107421875" lon="19.89737153984606266021728515625">
        <ele>1828.199951171875</ele>
        <time>2026-06-17T11:58:41.000Z</time>
        <extensions>
          <ns3:TrackPointExtension>
            <ns3:atemp>16.0</ns3:atemp>
          </ns3:TrackPointExtension>
        </extensions>
      </trkpt>
      <trkpt lat="42.50789347104728221893310546875" lon="19.8973359167575836181640625">
        <ele>1827.800048828125</ele>
        <time>2026-06-17T11:58:42.000Z</time>
        <extensions>
          <ns3:TrackPointExtension>
            <ns3:atemp>16.0</ns3:atemp>
          </ns3:TrackPointExtension>
        </extensions>
      </trkpt>
      <trkpt lat="42.50789850018918514251708984375" lon="19.89730264060199260711669921875">
        <ele>1827.5999755859375</ele>
        <time>2026-06-17T11:58:43.000Z</time>
        <extensions>
          <ns3:TrackPointExtension>
            <ns3:atemp>16.0</ns3:atemp>
          </ns3:TrackPointExtension>
        </extensions>
      </trkpt>
      <trkpt lat="42.50790637917816638946533203125" lon="19.89727514795958995819091796875">
        <ele>1827.199951171875</ele>
        <time>2026-06-17T11:58:44.000Z</time>
        <extensions>
          <ns3:TrackPointExtension>
            <ns3:atemp>16.0</ns3:atemp>
          </ns3:TrackPointExtension>
        </extensions>
      </trkpt>
      <trkpt lat="42.507915012538433074951171875" lon="19.89724312908947467803955078125">
        <ele>1826.800048828125</ele>
        <time>2026-06-17T11:58:45.000Z</time>
        <extensions>
          <ns3:TrackPointExtension>
            <ns3:atemp>16.0</ns3:atemp>
          </ns3:TrackPointExtension>
        </extensions>
      </trkpt>
      <trkpt lat="42.5079228915274143218994140625" lon="19.89722770638763904571533203125">
        <ele>1826.5999755859375</ele>
        <time>2026-06-17T11:58:46.000Z</time>
        <extensions>
          <ns3:TrackPointExtension>
            <ns3:atemp>16.0</ns3:atemp>
          </ns3:TrackPointExtension>
        </extensions>
      </trkpt>
      <trkpt lat="42.50793085433542728424072265625" lon="19.89721647463738918304443359375">
        <ele>1826.4000244140625</ele>
        <time>2026-06-17T11:58:47.000Z</time>
        <extensions>
          <ns3:TrackPointExtension>
            <ns3:atemp>16.0</ns3:atemp>
          </ns3:TrackPointExtension>
        </extensions>
      </trkpt>
      <trkpt lat="42.50793554820120334625244140625" lon="19.89719317294657230377197265625">
        <ele>1826</ele>
        <time>2026-06-17T11:58:48.000Z</time>
        <extensions>
          <ns3:TrackPointExtension>
            <ns3:atemp>16.0</ns3:atemp>
          </ns3:TrackPointExtension>
        </extensions>
      </trkpt>
      <trkpt lat="42.5079356320202350616455078125" lon="19.8971674405038356781005859375">
        <ele>1825.5999755859375</ele>
        <time>2026-06-17T11:58:49.000Z</time>
        <extensions>
          <ns3:TrackPointExtension>
            <ns3:atemp>16.0</ns3:atemp>
          </ns3:TrackPointExtension>
        </extensions>
      </trkpt>
      <trkpt lat="42.5079448521137237548828125" lon="19.8971523530781269073486328125">
        <ele>1825.4000244140625</ele>
        <time>2026-06-17T11:58:50.000Z</time>
        <extensions>
          <ns3:TrackPointExtension>
            <ns3:atemp>16.0</ns3:atemp>
          </ns3:TrackPointExtension>
        </extensions>
      </trkpt>
      <trkpt lat="42.50795985572040081024169921875" lon="19.89713382907211780548095703125">
        <ele>1825</ele>
        <time>2026-06-17T11:58:51.000Z</time>
        <extensions>
          <ns3:TrackPointExtension>
            <ns3:atemp>16.0</ns3:atemp>
          </ns3:TrackPointExtension>
        </extensions>
      </trkpt>
      <trkpt lat="42.50796706415712833404541015625" lon="19.8971201665699481964111328125">
        <ele>1824.800048828125</ele>
        <time>2026-06-17T11:58:52.000Z</time>
        <extensions>
          <ns3:TrackPointExtension>
            <ns3:atemp>16.0</ns3:atemp>
          </ns3:TrackPointExtension>
        </extensions>
      </trkpt>
      <trkpt lat="42.50796555541455745697021484375" lon="19.8971181549131870269775390625">
        <ele>1824.5999755859375</ele>
        <time>2026-06-17T11:58:53.000Z</time>
        <extensions>
          <ns3:TrackPointExtension>
            <ns3:atemp>16.0</ns3:atemp>
          </ns3:TrackPointExtension>
        </extensions>
      </trkpt>
      <trkpt lat="42.50796555541455745697021484375" lon="19.8971181549131870269775390625">
        <ele>1824.4000244140625</ele>
        <time>2026-06-17T11:58:54.000Z</time>
        <extensions>
          <ns3:TrackPointExtension>
            <ns3:atemp>16.0</ns3:atemp>
          </ns3:TrackPointExtension>
        </extensions>
      </trkpt>
      <trkpt lat="42.50796555541455745697021484375" lon="19.8971181549131870269775390625">
        <ele>1824.4000244140625</ele>
        <time>2026-06-17T11:58:55.000Z</time>
        <extensions>
          <ns3:TrackPointExtension>
            <ns3:atemp>16.0</ns3:atemp>
          </ns3:TrackPointExtension>
        </extensions>
      </trkpt>
      <trkpt lat="42.50796555541455745697021484375" lon="19.8971181549131870269775390625">
        <ele>1824.199951171875</ele>
        <time>2026-06-17T11:58:56.000Z</time>
        <extensions>
          <ns3:TrackPointExtension>
            <ns3:atemp>16.0</ns3:atemp>
          </ns3:TrackPointExtension>
        </extensions>
      </trkpt>
      <trkpt lat="42.50796555541455745697021484375" lon="19.8971181549131870269775390625">
        <ele>1824.199951171875</ele>
        <time>2026-06-17T11:58:57.000Z</time>
        <extensions>
          <ns3:TrackPointExtension>
            <ns3:atemp>16.0</ns3:atemp>
          </ns3:TrackPointExtension>
        </extensions>
      </trkpt>
      <trkpt lat="42.50796555541455745697021484375" lon="19.8971181549131870269775390625">
        <ele>1824.199951171875</ele>
        <time>2026-06-17T11:58:58.000Z</time>
        <extensions>
          <ns3:TrackPointExtension>
            <ns3:atemp>16.0</ns3:atemp>
          </ns3:TrackPointExtension>
        </extensions>
      </trkpt>
      <trkpt lat="42.50796555541455745697021484375" lon="19.8971181549131870269775390625">
        <ele>1824.199951171875</ele>
        <time>2026-06-17T11:58:59.000Z</time>
        <extensions>
          <ns3:TrackPointExtension>
            <ns3:atemp>16.0</ns3:atemp>
          </ns3:TrackPointExtension>
        </extensions>
      </trkpt>
      <trkpt lat="42.50796555541455745697021484375" lon="19.8971181549131870269775390625">
        <ele>1824</ele>
        <time>2026-06-17T11:59:00.000Z</time>
        <extensions>
          <ns3:TrackPointExtension>
            <ns3:atemp>16.0</ns3:atemp>
          </ns3:TrackPointExtension>
        </extensions>
      </trkpt>
      <trkpt lat="42.50796555541455745697021484375" lon="19.8971181549131870269775390625">
        <ele>1824</ele>
        <time>2026-06-17T11:59:01.000Z</time>
        <extensions>
          <ns3:TrackPointExtension>
            <ns3:atemp>16.0</ns3:atemp>
          </ns3:TrackPointExtension>
        </extensions>
      </trkpt>
      <trkpt lat="42.50796555541455745697021484375" lon="19.8971181549131870269775390625">
        <ele>1824</ele>
        <time>2026-06-17T11:59:02.000Z</time>
        <extensions>
          <ns3:TrackPointExtension>
            <ns3:atemp>16.0</ns3:atemp>
          </ns3:TrackPointExtension>
        </extensions>
      </trkpt>
      <trkpt lat="42.50796555541455745697021484375" lon="19.8971181549131870269775390625">
        <ele>1824</ele>
        <time>2026-06-17T11:59:03.000Z</time>
        <extensions>
          <ns3:TrackPointExtension>
            <ns3:atemp>16.0</ns3:atemp>
          </ns3:TrackPointExtension>
        </extensions>
      </trkpt>
      <trkpt lat="42.50796555541455745697021484375" lon="19.8971181549131870269775390625">
        <ele>1824</ele>
        <time>2026-06-17T11:59:04.000Z</time>
        <extensions>
          <ns3:TrackPointExtension>
            <ns3:atemp>16.0</ns3:atemp>
          </ns3:TrackPointExtension>
        </extensions>
      </trkpt>
      <trkpt lat="42.50796555541455745697021484375" lon="19.8971181549131870269775390625">
        <ele>1824</ele>
        <time>2026-06-17T11:59:05.000Z</time>
        <extensions>
          <ns3:TrackPointExtension>
            <ns3:atemp>16.0</ns3:atemp>
          </ns3:TrackPointExtension>
        </extensions>
      </trkpt>
      <trkpt lat="42.50796555541455745697021484375" lon="19.8971181549131870269775390625">
        <ele>1823.800048828125</ele>
        <time>2026-06-17T11:59:06.000Z</time>
        <extensions>
          <ns3:TrackPointExtension>
            <ns3:atemp>16.0</ns3:atemp>
          </ns3:TrackPointExtension>
        </extensions>
      </trkpt>
      <trkpt lat="42.50796555541455745697021484375" lon="19.8971181549131870269775390625">
        <ele>1823.800048828125</ele>
        <time>2026-06-17T11:59:07.000Z</time>
        <extensions>
          <ns3:TrackPointExtension>
            <ns3:atemp>16.0</ns3:atemp>
          </ns3:TrackPointExtension>
        </extensions>
      </trkpt>
      <trkpt lat="42.50796555541455745697021484375" lon="19.8971181549131870269775390625">
        <ele>1824</ele>
        <time>2026-06-17T11:59:08.000Z</time>
        <extensions>
          <ns3:TrackPointExtension>
            <ns3:atemp>16.0</ns3:atemp>
          </ns3:TrackPointExtension>
        </extensions>
      </trkpt>
      <trkpt lat="42.50796555541455745697021484375" lon="19.8971181549131870269775390625">
        <ele>1824</ele>
        <time>2026-06-17T11:59:09.000Z</time>
        <extensions>
          <ns3:TrackPointExtension>
            <ns3:atemp>16.0</ns3:atemp>
          </ns3:TrackPointExtension>
        </extensions>
      </trkpt>
      <trkpt lat="42.50796555541455745697021484375" lon="19.8971181549131870269775390625">
        <ele>1823.800048828125</ele>
        <time>2026-06-17T11:59:10.000Z</time>
        <extensions>
          <ns3:TrackPointExtension>
            <ns3:atemp>16.0</ns3:atemp>
          </ns3:TrackPointExtension>
        </extensions>
      </trkpt>
      <trkpt lat="42.50796555541455745697021484375" lon="19.8971181549131870269775390625">
        <ele>1823.800048828125</ele>
        <time>2026-06-17T11:59:11.000Z</time>
        <extensions>
          <ns3:TrackPointExtension>
            <ns3:atemp>16.0</ns3:atemp>
          </ns3:TrackPointExtension>
        </extensions>
      </trkpt>
      <trkpt lat="42.50796555541455745697021484375" lon="19.8971181549131870269775390625">
        <ele>1823.800048828125</ele>
        <time>2026-06-17T11:59:12.000Z</time>
        <extensions>
          <ns3:TrackPointExtension>
            <ns3:atemp>16.0</ns3:atemp>
          </ns3:TrackPointExtension>
        </extensions>
      </trkpt>
      <trkpt lat="42.50796555541455745697021484375" lon="19.8971181549131870269775390625">
        <ele>1823.800048828125</ele>
        <time>2026-06-17T11:59:13.000Z</time>
        <extensions>
          <ns3:TrackPointExtension>
            <ns3:atemp>16.0</ns3:atemp>
          </ns3:TrackPointExtension>
        </extensions>
      </trkpt>
      <trkpt lat="42.50796555541455745697021484375" lon="19.8971181549131870269775390625">
        <ele>1823.800048828125</ele>
        <time>2026-06-17T11:59:14.000Z</time>
        <extensions>
          <ns3:TrackPointExtension>
            <ns3:atemp>16.0</ns3:atemp>
          </ns3:TrackPointExtension>
        </extensions>
      </trkpt>
      <trkpt lat="42.50796555541455745697021484375" lon="19.8971181549131870269775390625">
        <ele>1823.800048828125</ele>
        <time>2026-06-17T11:59:15.000Z</time>
        <extensions>
          <ns3:TrackPointExtension>
            <ns3:atemp>16.0</ns3:atemp>
          </ns3:TrackPointExtension>
        </extensions>
      </trkpt>
      <trkpt lat="42.50796555541455745697021484375" lon="19.8971181549131870269775390625">
        <ele>1823.800048828125</ele>
        <time>2026-06-17T11:59:16.000Z</time>
        <extensions>
          <ns3:TrackPointExtension>
            <ns3:atemp>16.0</ns3:atemp>
          </ns3:TrackPointExtension>
        </extensions>
      </trkpt>
      <trkpt lat="42.50796555541455745697021484375" lon="19.8971181549131870269775390625">
        <ele>1823.800048828125</ele>
        <time>2026-06-17T11:59:17.000Z</time>
        <extensions>
          <ns3:TrackPointExtension>
            <ns3:atemp>16.0</ns3:atemp>
          </ns3:TrackPointExtension>
        </extensions>
      </trkpt>
      <trkpt lat="42.50796555541455745697021484375" lon="19.8971181549131870269775390625">
        <ele>1823.800048828125</ele>
        <time>2026-06-17T11:59:18.000Z</time>
        <extensions>
          <ns3:TrackPointExtension>
            <ns3:atemp>16.0</ns3:atemp>
          </ns3:TrackPointExtension>
        </extensions>
      </trkpt>
      <trkpt lat="42.50796555541455745697021484375" lon="19.8971181549131870269775390625">
        <ele>1823.800048828125</ele>
        <time>2026-06-17T11:59:19.000Z</time>
        <extensions>
          <ns3:TrackPointExtension>
            <ns3:atemp>16.0</ns3:atemp>
          </ns3:TrackPointExtension>
        </extensions>
      </trkpt>
      <trkpt lat="42.50796555541455745697021484375" lon="19.8971181549131870269775390625">
        <ele>1823.800048828125</ele>
        <time>2026-06-17T11:59:20.000Z</time>
        <extensions>
          <ns3:TrackPointExtension>
            <ns3:atemp>16.0</ns3:atemp>
          </ns3:TrackPointExtension>
        </extensions>
      </trkpt>
      <trkpt lat="42.50796555541455745697021484375" lon="19.8971181549131870269775390625">
        <ele>1823.800048828125</ele>
        <time>2026-06-17T11:59:21.000Z</time>
        <extensions>
          <ns3:TrackPointExtension>
            <ns3:atemp>16.0</ns3:atemp>
          </ns3:TrackPointExtension>
        </extensions>
      </trkpt>
      <trkpt lat="42.50796555541455745697021484375" lon="19.8971181549131870269775390625">
        <ele>1823.800048828125</ele>
        <time>2026-06-17T11:59:22.000Z</time>
        <extensions>
          <ns3:TrackPointExtension>
            <ns3:atemp>16.0</ns3:atemp>
          </ns3:TrackPointExtension>
        </extensions>
      </trkpt>
      <trkpt lat="42.50796555541455745697021484375" lon="19.8971181549131870269775390625">
        <ele>1823.800048828125</ele>
        <time>2026-06-17T11:59:23.000Z</time>
        <extensions>
          <ns3:TrackPointExtension>
            <ns3:atemp>16.0</ns3:atemp>
          </ns3:TrackPointExtension>
        </extensions>
      </trkpt>
      <trkpt lat="42.50796555541455745697021484375" lon="19.8971181549131870269775390625">
        <ele>1823.800048828125</ele>
        <time>2026-06-17T11:59:24.000Z</time>
        <extensions>
          <ns3:TrackPointExtension>
            <ns3:atemp>16.0</ns3:atemp>
          </ns3:TrackPointExtension>
        </extensions>
      </trkpt>
      <trkpt lat="42.50796555541455745697021484375" lon="19.8971181549131870269775390625">
        <ele>1823.800048828125</ele>
        <time>2026-06-17T11:59:25.000Z</time>
        <extensions>
          <ns3:TrackPointExtension>
            <ns3:atemp>16.0</ns3:atemp>
          </ns3:TrackPointExtension>
        </extensions>
      </trkpt>
      <trkpt lat="42.50796555541455745697021484375" lon="19.8971181549131870269775390625">
        <ele>1823.800048828125</ele>
        <time>2026-06-17T11:59:26.000Z</time>
        <extensions>
          <ns3:TrackPointExtension>
            <ns3:atemp>16.0</ns3:atemp>
          </ns3:TrackPointExtension>
        </extensions>
      </trkpt>
      <trkpt lat="42.50796555541455745697021484375" lon="19.8971181549131870269775390625">
        <ele>1823.5999755859375</ele>
        <time>2026-06-17T11:59:27.000Z</time>
        <extensions>
          <ns3:TrackPointExtension>
            <ns3:atemp>16.0</ns3:atemp>
          </ns3:TrackPointExtension>
        </extensions>
      </trkpt>
      <trkpt lat="42.50796555541455745697021484375" lon="19.8971181549131870269775390625">
        <ele>1823.5999755859375</ele>
        <time>2026-06-17T11:59:28.000Z</time>
        <extensions>
          <ns3:TrackPointExtension>
            <ns3:atemp>16.0</ns3:atemp>
          </ns3:TrackPointExtension>
        </extensions>
      </trkpt>
      <trkpt lat="42.50796555541455745697021484375" lon="19.8971181549131870269775390625">
        <ele>1823.5999755859375</ele>
        <time>2026-06-17T11:59:29.000Z</time>
        <extensions>
          <ns3:TrackPointExtension>
            <ns3:atemp>16.0</ns3:atemp>
          </ns3:TrackPointExtension>
        </extensions>
      </trkpt>
      <trkpt lat="42.50796555541455745697021484375" lon="19.8971181549131870269775390625">
        <ele>1823.5999755859375</ele>
        <time>2026-06-17T11:59:30.000Z</time>
        <extensions>
          <ns3:TrackPointExtension>
            <ns3:atemp>16.0</ns3:atemp>
          </ns3:TrackPointExtension>
        </extensions>
      </trkpt>
      <trkpt lat="42.50796555541455745697021484375" lon="19.8971181549131870269775390625">
        <ele>1823.5999755859375</ele>
        <time>2026-06-17T11:59:31.000Z</time>
        <extensions>
          <ns3:TrackPointExtension>
            <ns3:atemp>16.0</ns3:atemp>
          </ns3:TrackPointExtension>
        </extensions>
      </trkpt>
      <trkpt lat="42.50796555541455745697021484375" lon="19.8971181549131870269775390625">
        <ele>1823.5999755859375</ele>
        <time>2026-06-17T11:59:32.000Z</time>
        <extensions>
          <ns3:TrackPointExtension>
            <ns3:atemp>16.0</ns3:atemp>
          </ns3:TrackPointExtension>
        </extensions>
      </trkpt>
      <trkpt lat="42.50796555541455745697021484375" lon="19.8971181549131870269775390625">
        <ele>1823.5999755859375</ele>
        <time>2026-06-17T11:59:33.000Z</time>
        <extensions>
          <ns3:TrackPointExtension>
            <ns3:atemp>16.0</ns3:atemp>
          </ns3:TrackPointExtension>
        </extensions>
      </trkpt>
      <trkpt lat="42.50796555541455745697021484375" lon="19.8971181549131870269775390625">
        <ele>1823.5999755859375</ele>
        <time>2026-06-17T11:59:34.000Z</time>
        <extensions>
          <ns3:TrackPointExtension>
            <ns3:atemp>16.0</ns3:atemp>
          </ns3:TrackPointExtension>
        </extensions>
      </trkpt>
      <trkpt lat="42.50796555541455745697021484375" lon="19.8971181549131870269775390625">
        <ele>1823.5999755859375</ele>
        <time>2026-06-17T11:59:35.000Z</time>
        <extensions>
          <ns3:TrackPointExtension>
            <ns3:atemp>16.0</ns3:atemp>
          </ns3:TrackPointExtension>
        </extensions>
      </trkpt>
      <trkpt lat="42.50796555541455745697021484375" lon="19.8971181549131870269775390625">
        <ele>1823.5999755859375</ele>
        <time>2026-06-17T11:59:36.000Z</time>
        <extensions>
          <ns3:TrackPointExtension>
            <ns3:atemp>16.0</ns3:atemp>
          </ns3:TrackPointExtension>
        </extensions>
      </trkpt>
      <trkpt lat="42.50796706415712833404541015625" lon="19.8971168138086795806884765625">
        <ele>1823.5999755859375</ele>
        <time>2026-06-17T11:59:37.000Z</time>
        <extensions>
          <ns3:TrackPointExtension>
            <ns3:atemp>16.0</ns3:atemp>
          </ns3:TrackPointExtension>
        </extensions>
      </trkpt>
      <trkpt lat="42.50797980464994907379150390625" lon="19.897112287580966949462890625">
        <ele>1823.5999755859375</ele>
        <time>2026-06-17T11:59:38.000Z</time>
        <extensions>
          <ns3:TrackPointExtension>
            <ns3:atemp>16.0</ns3:atemp>
          </ns3:TrackPointExtension>
        </extensions>
      </trkpt>
      <trkpt lat="42.50798567198216915130615234375" lon="19.89711170084774494171142578125">
        <ele>1823.4000244140625</ele>
        <time>2026-06-17T11:59:39.000Z</time>
        <extensions>
          <ns3:TrackPointExtension>
            <ns3:atemp>16.0</ns3:atemp>
          </ns3:TrackPointExtension>
        </extensions>
      </trkpt>
      <trkpt lat="42.50799288041889667510986328125" lon="19.897106923162937164306640625">
        <ele>1823.4000244140625</ele>
        <time>2026-06-17T11:59:40.000Z</time>
        <extensions>
          <ns3:TrackPointExtension>
            <ns3:atemp>16.0</ns3:atemp>
          </ns3:TrackPointExtension>
        </extensions>
      </trkpt>
      <trkpt lat="42.508002184331417083740234375" lon="19.89709644578397274017333984375">
        <ele>1823.199951171875</ele>
        <time>2026-06-17T11:59:41.000Z</time>
        <extensions>
          <ns3:TrackPointExtension>
            <ns3:atemp>16.0</ns3:atemp>
          </ns3:TrackPointExtension>
        </extensions>
      </trkpt>
      <trkpt lat="42.50800997950136661529541015625" lon="19.89709158428013324737548828125">
        <ele>1823</ele>
        <time>2026-06-17T11:59:42.000Z</time>
        <extensions>
          <ns3:TrackPointExtension>
            <ns3:atemp>16.0</ns3:atemp>
          </ns3:TrackPointExtension>
        </extensions>
      </trkpt>
      <trkpt lat="42.5080154277384281158447265625" lon="19.897090494632720947265625">
        <ele>1822.800048828125</ele>
        <time>2026-06-17T11:59:43.000Z</time>
        <extensions>
          <ns3:TrackPointExtension>
            <ns3:atemp>16.0</ns3:atemp>
          </ns3:TrackPointExtension>
        </extensions>
      </trkpt>
      <trkpt lat="42.5080157630145549774169921875" lon="19.8970916680991649627685546875">
        <ele>1822.4000244140625</ele>
        <time>2026-06-17T11:59:44.000Z</time>
        <extensions>
          <ns3:TrackPointExtension>
            <ns3:atemp>16.0</ns3:atemp>
          </ns3:TrackPointExtension>
        </extensions>
      </trkpt>
      <trkpt lat="42.50801953487098217010498046875" lon="19.8970916680991649627685546875">
        <ele>1822.199951171875</ele>
        <time>2026-06-17T11:59:45.000Z</time>
        <extensions>
          <ns3:TrackPointExtension>
            <ns3:atemp>16.0</ns3:atemp>
          </ns3:TrackPointExtension>
        </extensions>
      </trkpt>
      <trkpt lat="42.508025653660297393798828125" lon="19.897084124386310577392578125">
        <ele>1822</ele>
        <time>2026-06-17T11:59:46.000Z</time>
        <extensions>
          <ns3:TrackPointExtension>
            <ns3:atemp>16.0</ns3:atemp>
          </ns3:TrackPointExtension>
        </extensions>
      </trkpt>
      <trkpt lat="42.50802925787866115570068359375" lon="19.89708102308213710784912109375">
        <ele>1821.800048828125</ele>
        <time>2026-06-17T11:59:47.000Z</time>
        <extensions>
          <ns3:TrackPointExtension>
            <ns3:atemp>16.0</ns3:atemp>
          </ns3:TrackPointExtension>
        </extensions>
      </trkpt>
      <trkpt lat="42.50802925787866115570068359375" lon="19.8970809392631053924560546875">
        <ele>1821.5999755859375</ele>
        <time>2026-06-17T11:59:48.000Z</time>
        <extensions>
          <ns3:TrackPointExtension>
            <ns3:atemp>16.0</ns3:atemp>
          </ns3:TrackPointExtension>
        </extensions>
      </trkpt>
      <trkpt lat="42.50802925787866115570068359375" lon="19.8970809392631053924560546875">
        <ele>1821.4000244140625</ele>
        <time>2026-06-17T11:59:49.000Z</time>
        <extensions>
          <ns3:TrackPointExtension>
            <ns3:atemp>16.0</ns3:atemp>
          </ns3:TrackPointExtension>
        </extensions>
      </trkpt>
      <trkpt lat="42.50802942551672458648681640625" lon="19.8970806039869785308837890625">
        <ele>1821.4000244140625</ele>
        <time>2026-06-17T11:59:50.000Z</time>
        <extensions>
          <ns3:TrackPointExtension>
            <ns3:atemp>16.0</ns3:atemp>
          </ns3:TrackPointExtension>
        </extensions>
      </trkpt>
      <trkpt lat="42.50803805887699127197265625" lon="19.89707238972187042236328125">
        <ele>1821.199951171875</ele>
        <time>2026-06-17T11:59:51.000Z</time>
        <extensions>
          <ns3:TrackPointExtension>
            <ns3:atemp>16.0</ns3:atemp>
          </ns3:TrackPointExtension>
        </extensions>
      </trkpt>
      <trkpt lat="42.5080467760562896728515625" lon="19.89706912077963352203369140625">
        <ele>1821.199951171875</ele>
        <time>2026-06-17T11:59:52.000Z</time>
        <extensions>
          <ns3:TrackPointExtension>
            <ns3:atemp>16.0</ns3:atemp>
          </ns3:TrackPointExtension>
        </extensions>
      </trkpt>
      <trkpt lat="42.508052475750446319580078125" lon="19.89706476218998432159423828125">
        <ele>1821</ele>
        <time>2026-06-17T11:59:53.000Z</time>
        <extensions>
          <ns3:TrackPointExtension>
            <ns3:atemp>16.0</ns3:atemp>
          </ns3:TrackPointExtension>
        </extensions>
      </trkpt>
      <trkpt lat="42.5080546550452709197998046875" lon="19.89706375636160373687744140625">
        <ele>1820.800048828125</ele>
        <time>2026-06-17T11:59:54.000Z</time>
        <extensions>
          <ns3:TrackPointExtension>
            <ns3:atemp>16.0</ns3:atemp>
          </ns3:TrackPointExtension>
        </extensions>
      </trkpt>
      <trkpt lat="42.5080546550452709197998046875" lon="19.89706375636160373687744140625">
        <ele>1820.800048828125</ele>
        <time>2026-06-17T11:59:55.000Z</time>
        <extensions>
          <ns3:TrackPointExtension>
            <ns3:atemp>16.0</ns3:atemp>
          </ns3:TrackPointExtension>
        </extensions>
      </trkpt>
      <trkpt lat="42.5080546550452709197998046875" lon="19.89706375636160373687744140625">
        <ele>1820.5999755859375</ele>
        <time>2026-06-17T11:59:56.000Z</time>
        <extensions>
          <ns3:TrackPointExtension>
            <ns3:atemp>16.0</ns3:atemp>
          </ns3:TrackPointExtension>
        </extensions>
      </trkpt>
      <trkpt lat="42.5080546550452709197998046875" lon="19.89706375636160373687744140625">
        <ele>1820.4000244140625</ele>
        <time>2026-06-17T11:59:57.000Z</time>
        <extensions>
          <ns3:TrackPointExtension>
            <ns3:atemp>16.0</ns3:atemp>
          </ns3:TrackPointExtension>
        </extensions>
      </trkpt>
      <trkpt lat="42.5080546550452709197998046875" lon="19.89706375636160373687744140625">
        <ele>1820.4000244140625</ele>
        <time>2026-06-17T11:59:58.000Z</time>
        <extensions>
          <ns3:TrackPointExtension>
            <ns3:atemp>16.0</ns3:atemp>
          </ns3:TrackPointExtension>
        </extensions>
      </trkpt>
      <trkpt lat="42.5080546550452709197998046875" lon="19.89706375636160373687744140625">
        <ele>1820.4000244140625</ele>
        <time>2026-06-17T11:59:59.000Z</time>
        <extensions>
          <ns3:TrackPointExtension>
            <ns3:atemp>16.0</ns3:atemp>
          </ns3:TrackPointExtension>
        </extensions>
      </trkpt>
      <trkpt lat="42.50805507414042949676513671875" lon="19.89706358872354030609130859375">
        <ele>1820.199951171875</ele>
        <time>2026-06-17T12:00:00.000Z</time>
        <extensions>
          <ns3:TrackPointExtension>
            <ns3:atemp>16.0</ns3:atemp>
          </ns3:TrackPointExtension>
        </extensions>
      </trkpt>
      <trkpt lat="42.50806446187198162078857421875" lon="19.8970635049045085906982421875">
        <ele>1820.199951171875</ele>
        <time>2026-06-17T12:00:01.000Z</time>
        <extensions>
          <ns3:TrackPointExtension>
            <ns3:atemp>16.0</ns3:atemp>
          </ns3:TrackPointExtension>
        </extensions>
      </trkpt>
      <trkpt lat="42.50806898809969425201416015625" lon="19.897063672542572021484375">
        <ele>1820</ele>
        <time>2026-06-17T12:00:02.000Z</time>
        <extensions>
          <ns3:TrackPointExtension>
            <ns3:atemp>16.0</ns3:atemp>
          </ns3:TrackPointExtension>
        </extensions>
      </trkpt>
      <trkpt lat="42.50807250849902629852294921875" lon="19.89706300199031829833984375">
        <ele>1820</ele>
        <time>2026-06-17T12:00:03.000Z</time>
        <extensions>
          <ns3:TrackPointExtension>
            <ns3:atemp>16.0</ns3:atemp>
          </ns3:TrackPointExtension>
        </extensions>
      </trkpt>
      <trkpt lat="42.50807804055511951446533203125" lon="19.89705923013389110565185546875">
        <ele>1819.800048828125</ele>
        <time>2026-06-17T12:00:04.000Z</time>
        <extensions>
          <ns3:TrackPointExtension>
            <ns3:atemp>16.0</ns3:atemp>
          </ns3:TrackPointExtension>
        </extensions>
      </trkpt>
      <trkpt lat="42.5080811418592929840087890625" lon="19.89705654792487621307373046875">
        <ele>1819.5999755859375</ele>
        <time>2026-06-17T12:00:05.000Z</time>
        <extensions>
          <ns3:TrackPointExtension>
            <ns3:atemp>16.0</ns3:atemp>
          </ns3:TrackPointExtension>
        </extensions>
      </trkpt>
      <trkpt lat="42.50808122567832469940185546875" lon="19.89705638028681278228759765625">
        <ele>1819.4000244140625</ele>
        <time>2026-06-17T12:00:06.000Z</time>
        <extensions>
          <ns3:TrackPointExtension>
            <ns3:atemp>16.0</ns3:atemp>
          </ns3:TrackPointExtension>
        </extensions>
      </trkpt>
      <trkpt lat="42.508081309497356414794921875" lon="19.89705621264874935150146484375">
        <ele>1819.199951171875</ele>
        <time>2026-06-17T12:00:07.000Z</time>
        <extensions>
          <ns3:TrackPointExtension>
            <ns3:atemp>16.0</ns3:atemp>
          </ns3:TrackPointExtension>
        </extensions>
      </trkpt>
      <trkpt lat="42.50808943994343280792236328125" lon="19.89705001004040241241455078125">
        <ele>1819</ele>
        <time>2026-06-17T12:00:08.000Z</time>
        <extensions>
          <ns3:TrackPointExtension>
            <ns3:atemp>16.0</ns3:atemp>
          </ns3:TrackPointExtension>
        </extensions>
      </trkpt>
      <trkpt lat="42.5081012584269046783447265625" lon="19.8970460705459117889404296875">
        <ele>1818.800048828125</ele>
        <time>2026-06-17T12:00:09.000Z</time>
        <extensions>
          <ns3:TrackPointExtension>
            <ns3:atemp>16.0</ns3:atemp>
          </ns3:TrackPointExtension>
        </extensions>
      </trkpt>
      <trkpt lat="42.5081139989197254180908203125" lon="19.89704129286110401153564453125">
        <ele>1818.5999755859375</ele>
        <time>2026-06-17T12:00:10.000Z</time>
        <extensions>
          <ns3:TrackPointExtension>
            <ns3:atemp>16.0</ns3:atemp>
          </ns3:TrackPointExtension>
        </extensions>
      </trkpt>
      <trkpt lat="42.5081190280616283416748046875" lon="19.89703693427145481109619140625">
        <ele>1818.199951171875</ele>
        <time>2026-06-17T12:00:11.000Z</time>
        <extensions>
          <ns3:TrackPointExtension>
            <ns3:atemp>16.0</ns3:atemp>
          </ns3:TrackPointExtension>
        </extensions>
      </trkpt>
      <trkpt lat="42.50812145881354808807373046875" lon="19.89703617990016937255859375">
        <ele>1818.199951171875</ele>
        <time>2026-06-17T12:00:12.000Z</time>
        <extensions>
          <ns3:TrackPointExtension>
            <ns3:atemp>16.0</ns3:atemp>
          </ns3:TrackPointExtension>
        </extensions>
      </trkpt>
      <trkpt lat="42.5081287510693073272705078125" lon="19.89703953266143798828125">
        <ele>1818</ele>
        <time>2026-06-17T12:00:13.000Z</time>
        <extensions>
          <ns3:TrackPointExtension>
            <ns3:atemp>16.0</ns3:atemp>
          </ns3:TrackPointExtension>
        </extensions>
      </trkpt>
      <trkpt lat="42.5081388093531131744384765625" lon="19.8970410414040088653564453125">
        <ele>1818</ele>
        <time>2026-06-17T12:00:14.000Z</time>
        <extensions>
          <ns3:TrackPointExtension>
            <ns3:atemp>16.0</ns3:atemp>
          </ns3:TrackPointExtension>
        </extensions>
      </trkpt>
      <trkpt lat="42.50814308412373065948486328125" lon="19.89704196341335773468017578125">
        <ele>1817.800048828125</ele>
        <time>2026-06-17T12:00:15.000Z</time>
        <extensions>
          <ns3:TrackPointExtension>
            <ns3:atemp>16.0</ns3:atemp>
          </ns3:TrackPointExtension>
        </extensions>
      </trkpt>
      <trkpt lat="42.5081505440175533294677734375" lon="19.8970326595008373260498046875">
        <ele>1817.800048828125</ele>
        <time>2026-06-17T12:00:16.000Z</time>
        <extensions>
          <ns3:TrackPointExtension>
            <ns3:atemp>16.0</ns3:atemp>
          </ns3:TrackPointExtension>
        </extensions>
      </trkpt>
      <trkpt lat="42.50816102139651775360107421875" lon="19.8970301449298858642578125">
        <ele>1817.800048828125</ele>
        <time>2026-06-17T12:00:17.000Z</time>
        <extensions>
          <ns3:TrackPointExtension>
            <ns3:atemp>16.0</ns3:atemp>
          </ns3:TrackPointExtension>
        </extensions>
      </trkpt>
      <trkpt lat="42.50816144049167633056640625" lon="19.897034168243408203125">
        <ele>1817.5999755859375</ele>
        <time>2026-06-17T12:00:18.000Z</time>
        <extensions>
          <ns3:TrackPointExtension>
            <ns3:atemp>16.0</ns3:atemp>
          </ns3:TrackPointExtension>
        </extensions>
      </trkpt>
      <trkpt lat="42.50816152431070804595947265625" lon="19.897034168243408203125">
        <ele>1817.5999755859375</ele>
        <time>2026-06-17T12:00:19.000Z</time>
        <extensions>
          <ns3:TrackPointExtension>
            <ns3:atemp>16.0</ns3:atemp>
          </ns3:TrackPointExtension>
        </extensions>
      </trkpt>
      <trkpt lat="42.50816152431070804595947265625" lon="19.897034168243408203125">
        <ele>1817.5999755859375</ele>
        <time>2026-06-17T12:00:20.000Z</time>
        <extensions>
          <ns3:TrackPointExtension>
            <ns3:atemp>16.0</ns3:atemp>
          </ns3:TrackPointExtension>
        </extensions>
      </trkpt>
      <trkpt lat="42.50816152431070804595947265625" lon="19.897034168243408203125">
        <ele>1817.4000244140625</ele>
        <time>2026-06-17T12:00:21.000Z</time>
        <extensions>
          <ns3:TrackPointExtension>
            <ns3:atemp>16.0</ns3:atemp>
          </ns3:TrackPointExtension>
        </extensions>
      </trkpt>
      <trkpt lat="42.50816152431070804595947265625" lon="19.897034168243408203125">
        <ele>1817.4000244140625</ele>
        <time>2026-06-17T12:00:22.000Z</time>
        <extensions>
          <ns3:TrackPointExtension>
            <ns3:atemp>16.0</ns3:atemp>
          </ns3:TrackPointExtension>
        </extensions>
      </trkpt>
      <trkpt lat="42.50816152431070804595947265625" lon="19.897034168243408203125">
        <ele>1817.4000244140625</ele>
        <time>2026-06-17T12:00:23.000Z</time>
        <extensions>
          <ns3:TrackPointExtension>
            <ns3:atemp>16.0</ns3:atemp>
          </ns3:TrackPointExtension>
        </extensions>
      </trkpt>
      <trkpt lat="42.50816152431070804595947265625" lon="19.897034168243408203125">
        <ele>1817.4000244140625</ele>
        <time>2026-06-17T12:00:24.000Z</time>
        <extensions>
          <ns3:TrackPointExtension>
            <ns3:atemp>16.0</ns3:atemp>
          </ns3:TrackPointExtension>
        </extensions>
      </trkpt>
      <trkpt lat="42.50816152431070804595947265625" lon="19.897034168243408203125">
        <ele>1817.4000244140625</ele>
        <time>2026-06-17T12:00:25.000Z</time>
        <extensions>
          <ns3:TrackPointExtension>
            <ns3:atemp>16.0</ns3:atemp>
          </ns3:TrackPointExtension>
        </extensions>
      </trkpt>
      <trkpt lat="42.50816152431070804595947265625" lon="19.897034168243408203125">
        <ele>1817.4000244140625</ele>
        <time>2026-06-17T12:00:26.000Z</time>
        <extensions>
          <ns3:TrackPointExtension>
            <ns3:atemp>16.0</ns3:atemp>
          </ns3:TrackPointExtension>
        </extensions>
      </trkpt>
      <trkpt lat="42.50816152431070804595947265625" lon="19.897034168243408203125">
        <ele>1817.4000244140625</ele>
        <time>2026-06-17T12:00:27.000Z</time>
        <extensions>
          <ns3:TrackPointExtension>
            <ns3:atemp>16.0</ns3:atemp>
          </ns3:TrackPointExtension>
        </extensions>
      </trkpt>
      <trkpt lat="42.50816320069134235382080078125" lon="19.89703408442437648773193359375">
        <ele>1817.4000244140625</ele>
        <time>2026-06-17T12:00:28.000Z</time>
        <extensions>
          <ns3:TrackPointExtension>
            <ns3:atemp>16.0</ns3:atemp>
          </ns3:TrackPointExtension>
        </extensions>
      </trkpt>
      <trkpt lat="42.50818558037281036376953125" lon="19.89701916463673114776611328125">
        <ele>1817.199951171875</ele>
        <time>2026-06-17T12:00:29.000Z</time>
        <extensions>
          <ns3:TrackPointExtension>
            <ns3:atemp>16.0</ns3:atemp>
          </ns3:TrackPointExtension>
        </extensions>
      </trkpt>
      <trkpt lat="42.50819941051304340362548828125" lon="19.896996282041072845458984375">
        <ele>1817</ele>
        <time>2026-06-17T12:00:30.000Z</time>
        <extensions>
          <ns3:TrackPointExtension>
            <ns3:atemp>16.0</ns3:atemp>
          </ns3:TrackPointExtension>
        </extensions>
      </trkpt>
      <trkpt lat="42.50821449793875217437744140625" lon="19.89697608165442943572998046875">
        <ele>1816.800048828125</ele>
        <time>2026-06-17T12:00:31.000Z</time>
        <extensions>
          <ns3:TrackPointExtension>
            <ns3:atemp>16.0</ns3:atemp>
          </ns3:TrackPointExtension>
        </extensions>
      </trkpt>
      <trkpt lat="42.50822321511805057525634765625" lon="19.8969538696110248565673828125">
        <ele>1816.5999755859375</ele>
        <time>2026-06-17T12:00:32.000Z</time>
        <extensions>
          <ns3:TrackPointExtension>
            <ns3:atemp>16.0</ns3:atemp>
          </ns3:TrackPointExtension>
        </extensions>
      </trkpt>
      <trkpt lat="42.5082222931087017059326171875" lon="19.89693023264408111572265625">
        <ele>1816.199951171875</ele>
        <time>2026-06-17T12:00:33.000Z</time>
        <extensions>
          <ns3:TrackPointExtension>
            <ns3:atemp>16.0</ns3:atemp>
          </ns3:TrackPointExtension>
        </extensions>
      </trkpt>
      <trkpt lat="42.50822857953608036041259765625" lon="19.89690533839166164398193359375">
        <ele>1815.800048828125</ele>
        <time>2026-06-17T12:00:34.000Z</time>
        <extensions>
          <ns3:TrackPointExtension>
            <ns3:atemp>16.0</ns3:atemp>
          </ns3:TrackPointExtension>
        </extensions>
      </trkpt>
      <trkpt lat="42.5082390569150447845458984375" lon="19.89687927067279815673828125">
        <ele>1815.199951171875</ele>
        <time>2026-06-17T12:00:35.000Z</time>
        <extensions>
          <ns3:TrackPointExtension>
            <ns3:atemp>16.0</ns3:atemp>
          </ns3:TrackPointExtension>
        </extensions>
      </trkpt>
      <trkpt lat="42.5082524679601192474365234375" lon="19.89685772918164730072021484375">
        <ele>1814.800048828125</ele>
        <time>2026-06-17T12:00:36.000Z</time>
        <extensions>
          <ns3:TrackPointExtension>
            <ns3:atemp>16.0</ns3:atemp>
          </ns3:TrackPointExtension>
        </extensions>
      </trkpt>
      <trkpt lat="42.50826244242489337921142578125" lon="19.89683995954692363739013671875">
        <ele>1814.4000244140625</ele>
        <time>2026-06-17T12:00:37.000Z</time>
        <extensions>
          <ns3:TrackPointExtension>
            <ns3:atemp>16.0</ns3:atemp>
          </ns3:TrackPointExtension>
        </extensions>
      </trkpt>
      <trkpt lat="42.5082709081470966339111328125" lon="19.896827302873134613037109375">
        <ele>1814</ele>
        <time>2026-06-17T12:00:38.000Z</time>
        <extensions>
          <ns3:TrackPointExtension>
            <ns3:atemp>16.0</ns3:atemp>
          </ns3:TrackPointExtension>
        </extensions>
      </trkpt>
      <trkpt lat="42.50826872885227203369140625" lon="19.8968251235783100128173828125">
        <ele>1813.5999755859375</ele>
        <time>2026-06-17T12:00:39.000Z</time>
        <extensions>
          <ns3:TrackPointExtension>
            <ns3:atemp>16.0</ns3:atemp>
          </ns3:TrackPointExtension>
        </extensions>
      </trkpt>
      <trkpt lat="42.50826864503324031829833984375" lon="19.89682503975927829742431640625">
        <ele>1813.4000244140625</ele>
        <time>2026-06-17T12:00:40.000Z</time>
        <extensions>
          <ns3:TrackPointExtension>
            <ns3:atemp>16.0</ns3:atemp>
          </ns3:TrackPointExtension>
        </extensions>
      </trkpt>
      <trkpt lat="42.50826864503324031829833984375" lon="19.89682503975927829742431640625">
        <ele>1813.199951171875</ele>
        <time>2026-06-17T12:00:41.000Z</time>
        <extensions>
          <ns3:TrackPointExtension>
            <ns3:atemp>16.0</ns3:atemp>
          </ns3:TrackPointExtension>
        </extensions>
      </trkpt>
      <trkpt lat="42.50826864503324031829833984375" lon="19.89682503975927829742431640625">
        <ele>1813</ele>
        <time>2026-06-17T12:00:42.000Z</time>
        <extensions>
          <ns3:TrackPointExtension>
            <ns3:atemp>16.0</ns3:atemp>
          </ns3:TrackPointExtension>
        </extensions>
      </trkpt>
      <trkpt lat="42.50826864503324031829833984375" lon="19.89682503975927829742431640625">
        <ele>1813</ele>
        <time>2026-06-17T12:00:43.000Z</time>
        <extensions>
          <ns3:TrackPointExtension>
            <ns3:atemp>16.0</ns3:atemp>
          </ns3:TrackPointExtension>
        </extensions>
      </trkpt>
      <trkpt lat="42.50826864503324031829833984375" lon="19.89682503975927829742431640625">
        <ele>1812.800048828125</ele>
        <time>2026-06-17T12:00:44.000Z</time>
        <extensions>
          <ns3:TrackPointExtension>
            <ns3:atemp>16.0</ns3:atemp>
          </ns3:TrackPointExtension>
        </extensions>
      </trkpt>
      <trkpt lat="42.50826864503324031829833984375" lon="19.89682503975927829742431640625">
        <ele>1812.800048828125</ele>
        <time>2026-06-17T12:00:45.000Z</time>
        <extensions>
          <ns3:TrackPointExtension>
            <ns3:atemp>16.0</ns3:atemp>
          </ns3:TrackPointExtension>
        </extensions>
      </trkpt>
      <trkpt lat="42.50826864503324031829833984375" lon="19.89682503975927829742431640625">
        <ele>1812.800048828125</ele>
        <time>2026-06-17T12:00:46.000Z</time>
        <extensions>
          <ns3:TrackPointExtension>
            <ns3:atemp>16.0</ns3:atemp>
          </ns3:TrackPointExtension>
        </extensions>
      </trkpt>
      <trkpt lat="42.50826864503324031829833984375" lon="19.89682503975927829742431640625">
        <ele>1812.800048828125</ele>
        <time>2026-06-17T12:00:47.000Z</time>
        <extensions>
          <ns3:TrackPointExtension>
            <ns3:atemp>16.0</ns3:atemp>
          </ns3:TrackPointExtension>
        </extensions>
      </trkpt>
      <trkpt lat="42.50826864503324031829833984375" lon="19.89682503975927829742431640625">
        <ele>1812.5999755859375</ele>
        <time>2026-06-17T12:00:48.000Z</time>
        <extensions>
          <ns3:TrackPointExtension>
            <ns3:atemp>16.0</ns3:atemp>
          </ns3:TrackPointExtension>
        </extensions>
      </trkpt>
      <trkpt lat="42.50826864503324031829833984375" lon="19.89682503975927829742431640625">
        <ele>1812.5999755859375</ele>
        <time>2026-06-17T12:00:49.000Z</time>
        <extensions>
          <ns3:TrackPointExtension>
            <ns3:atemp>16.0</ns3:atemp>
          </ns3:TrackPointExtension>
        </extensions>
      </trkpt>
      <trkpt lat="42.50826864503324031829833984375" lon="19.89682503975927829742431640625">
        <ele>1812.800048828125</ele>
        <time>2026-06-17T12:00:50.000Z</time>
        <extensions>
          <ns3:TrackPointExtension>
            <ns3:atemp>16.0</ns3:atemp>
          </ns3:TrackPointExtension>
        </extensions>
      </trkpt>
      <trkpt lat="42.50826864503324031829833984375" lon="19.89682503975927829742431640625">
        <ele>1812.800048828125</ele>
        <time>2026-06-17T12:00:51.000Z</time>
        <extensions>
          <ns3:TrackPointExtension>
            <ns3:atemp>16.0</ns3:atemp>
          </ns3:TrackPointExtension>
        </extensions>
      </trkpt>
      <trkpt lat="42.50826747156679630279541015625" lon="19.89682353101670742034912109375">
        <ele>1812.5999755859375</ele>
        <time>2026-06-17T12:00:52.000Z</time>
        <extensions>
          <ns3:TrackPointExtension>
            <ns3:atemp>16.0</ns3:atemp>
          </ns3:TrackPointExtension>
        </extensions>
      </trkpt>
      <trkpt lat="42.50826864503324031829833984375" lon="19.89682503975927829742431640625">
        <ele>1812.5999755859375</ele>
        <time>2026-06-17T12:00:53.000Z</time>
        <extensions>
          <ns3:TrackPointExtension>
            <ns3:atemp>16.0</ns3:atemp>
          </ns3:TrackPointExtension>
        </extensions>
      </trkpt>
      <trkpt lat="42.50826864503324031829833984375" lon="19.89682503975927829742431640625">
        <ele>1812.5999755859375</ele>
        <time>2026-06-17T12:00:54.000Z</time>
        <extensions>
          <ns3:TrackPointExtension>
            <ns3:atemp>16.0</ns3:atemp>
          </ns3:TrackPointExtension>
        </extensions>
      </trkpt>
      <trkpt lat="42.50826864503324031829833984375" lon="19.89682503975927829742431640625">
        <ele>1812.5999755859375</ele>
        <time>2026-06-17T12:00:55.000Z</time>
        <extensions>
          <ns3:TrackPointExtension>
            <ns3:atemp>16.0</ns3:atemp>
          </ns3:TrackPointExtension>
        </extensions>
      </trkpt>
      <trkpt lat="42.50826864503324031829833984375" lon="19.89682503975927829742431640625">
        <ele>1812.5999755859375</ele>
        <time>2026-06-17T12:00:56.000Z</time>
        <extensions>
          <ns3:TrackPointExtension>
            <ns3:atemp>16.0</ns3:atemp>
          </ns3:TrackPointExtension>
        </extensions>
      </trkpt>
      <trkpt lat="42.50826864503324031829833984375" lon="19.89682503975927829742431640625">
        <ele>1812.5999755859375</ele>
        <time>2026-06-17T12:00:57.000Z</time>
        <extensions>
          <ns3:TrackPointExtension>
            <ns3:atemp>16.0</ns3:atemp>
          </ns3:TrackPointExtension>
        </extensions>
      </trkpt>
      <trkpt lat="42.50826864503324031829833984375" lon="19.89682503975927829742431640625">
        <ele>1812.5999755859375</ele>
        <time>2026-06-17T12:00:58.000Z</time>
        <extensions>
          <ns3:TrackPointExtension>
            <ns3:atemp>16.0</ns3:atemp>
          </ns3:TrackPointExtension>
        </extensions>
      </trkpt>
      <trkpt lat="42.50826864503324031829833984375" lon="19.89682503975927829742431640625">
        <ele>1812.5999755859375</ele>
        <time>2026-06-17T12:00:59.000Z</time>
        <extensions>
          <ns3:TrackPointExtension>
            <ns3:atemp>16.0</ns3:atemp>
          </ns3:TrackPointExtension>
        </extensions>
      </trkpt>
      <trkpt lat="42.50826864503324031829833984375" lon="19.89682503975927829742431640625">
        <ele>1812.5999755859375</ele>
        <time>2026-06-17T12:01:00.000Z</time>
        <extensions>
          <ns3:TrackPointExtension>
            <ns3:atemp>16.0</ns3:atemp>
          </ns3:TrackPointExtension>
        </extensions>
      </trkpt>
      <trkpt lat="42.50826864503324031829833984375" lon="19.89682503975927829742431640625">
        <ele>1812.5999755859375</ele>
        <time>2026-06-17T12:01:01.000Z</time>
        <extensions>
          <ns3:TrackPointExtension>
            <ns3:atemp>16.0</ns3:atemp>
          </ns3:TrackPointExtension>
        </extensions>
      </trkpt>
      <trkpt lat="42.50826864503324031829833984375" lon="19.89682503975927829742431640625">
        <ele>1812.800048828125</ele>
        <time>2026-06-17T12:01:02.000Z</time>
        <extensions>
          <ns3:TrackPointExtension>
            <ns3:atemp>16.0</ns3:atemp>
          </ns3:TrackPointExtension>
        </extensions>
      </trkpt>
      <trkpt lat="42.50826864503324031829833984375" lon="19.89682503975927829742431640625">
        <ele>1812.800048828125</ele>
        <time>2026-06-17T12:01:03.000Z</time>
        <extensions>
          <ns3:TrackPointExtension>
            <ns3:atemp>16.0</ns3:atemp>
          </ns3:TrackPointExtension>
        </extensions>
      </trkpt>
      <trkpt lat="42.50826864503324031829833984375" lon="19.89682503975927829742431640625">
        <ele>1812.5999755859375</ele>
        <time>2026-06-17T12:01:04.000Z</time>
        <extensions>
          <ns3:TrackPointExtension>
            <ns3:atemp>16.0</ns3:atemp>
          </ns3:TrackPointExtension>
        </extensions>
      </trkpt>
      <trkpt lat="42.50826864503324031829833984375" lon="19.89682503975927829742431640625">
        <ele>1812.5999755859375</ele>
        <time>2026-06-17T12:01:05.000Z</time>
        <extensions>
          <ns3:TrackPointExtension>
            <ns3:atemp>16.0</ns3:atemp>
          </ns3:TrackPointExtension>
        </extensions>
      </trkpt>
      <trkpt lat="42.50826864503324031829833984375" lon="19.89682503975927829742431640625">
        <ele>1812.5999755859375</ele>
        <time>2026-06-17T12:01:06.000Z</time>
        <extensions>
          <ns3:TrackPointExtension>
            <ns3:atemp>16.0</ns3:atemp>
          </ns3:TrackPointExtension>
        </extensions>
      </trkpt>
      <trkpt lat="42.50826864503324031829833984375" lon="19.89682503975927829742431640625">
        <ele>1812.5999755859375</ele>
        <time>2026-06-17T12:01:07.000Z</time>
        <extensions>
          <ns3:TrackPointExtension>
            <ns3:atemp>16.0</ns3:atemp>
          </ns3:TrackPointExtension>
        </extensions>
      </trkpt>
      <trkpt lat="42.50826864503324031829833984375" lon="19.89682503975927829742431640625">
        <ele>1812.5999755859375</ele>
        <time>2026-06-17T12:01:08.000Z</time>
        <extensions>
          <ns3:TrackPointExtension>
            <ns3:atemp>16.0</ns3:atemp>
          </ns3:TrackPointExtension>
        </extensions>
      </trkpt>
      <trkpt lat="42.50826864503324031829833984375" lon="19.89682503975927829742431640625">
        <ele>1812.800048828125</ele>
        <time>2026-06-17T12:01:09.000Z</time>
        <extensions>
          <ns3:TrackPointExtension>
            <ns3:atemp>16.0</ns3:atemp>
          </ns3:TrackPointExtension>
        </extensions>
      </trkpt>
      <trkpt lat="42.50826864503324031829833984375" lon="19.89682503975927829742431640625">
        <ele>1812.800048828125</ele>
        <time>2026-06-17T12:01:10.000Z</time>
        <extensions>
          <ns3:TrackPointExtension>
            <ns3:atemp>16.0</ns3:atemp>
          </ns3:TrackPointExtension>
        </extensions>
      </trkpt>
      <trkpt lat="42.50826864503324031829833984375" lon="19.89682503975927829742431640625">
        <ele>1812.800048828125</ele>
        <time>2026-06-17T12:01:11.000Z</time>
        <extensions>
          <ns3:TrackPointExtension>
            <ns3:atemp>16.0</ns3:atemp>
          </ns3:TrackPointExtension>
        </extensions>
      </trkpt>
      <trkpt lat="42.50826864503324031829833984375" lon="19.89682503975927829742431640625">
        <ele>1812.800048828125</ele>
        <time>2026-06-17T12:01:12.000Z</time>
        <extensions>
          <ns3:TrackPointExtension>
            <ns3:atemp>16.0</ns3:atemp>
          </ns3:TrackPointExtension>
        </extensions>
      </trkpt>
      <trkpt lat="42.50826864503324031829833984375" lon="19.89682503975927829742431640625">
        <ele>1812.800048828125</ele>
        <time>2026-06-17T12:01:13.000Z</time>
        <extensions>
          <ns3:TrackPointExtension>
            <ns3:atemp>16.0</ns3:atemp>
          </ns3:TrackPointExtension>
        </extensions>
      </trkpt>
      <trkpt lat="42.50826864503324031829833984375" lon="19.89682503975927829742431640625">
        <ele>1812.800048828125</ele>
        <time>2026-06-17T12:01:14.000Z</time>
        <extensions>
          <ns3:TrackPointExtension>
            <ns3:atemp>16.0</ns3:atemp>
          </ns3:TrackPointExtension>
        </extensions>
      </trkpt>
      <trkpt lat="42.50826864503324031829833984375" lon="19.89682503975927829742431640625">
        <ele>1812.800048828125</ele>
        <time>2026-06-17T12:01:15.000Z</time>
        <extensions>
          <ns3:TrackPointExtension>
            <ns3:atemp>16.0</ns3:atemp>
          </ns3:TrackPointExtension>
        </extensions>
      </trkpt>
      <trkpt lat="42.50826864503324031829833984375" lon="19.89682503975927829742431640625">
        <ele>1812.800048828125</ele>
        <time>2026-06-17T12:01:16.000Z</time>
        <extensions>
          <ns3:TrackPointExtension>
            <ns3:atemp>16.0</ns3:atemp>
          </ns3:TrackPointExtension>
        </extensions>
      </trkpt>
      <trkpt lat="42.50826864503324031829833984375" lon="19.89682503975927829742431640625">
        <ele>1812.800048828125</ele>
        <time>2026-06-17T12:01:17.000Z</time>
        <extensions>
          <ns3:TrackPointExtension>
            <ns3:atemp>16.0</ns3:atemp>
          </ns3:TrackPointExtension>
        </extensions>
      </trkpt>
      <trkpt lat="42.50826864503324031829833984375" lon="19.89682503975927829742431640625">
        <ele>1812.800048828125</ele>
        <time>2026-06-17T12:01:18.000Z</time>
        <extensions>
          <ns3:TrackPointExtension>
            <ns3:atemp>16.0</ns3:atemp>
          </ns3:TrackPointExtension>
        </extensions>
      </trkpt>
      <trkpt lat="42.50826864503324031829833984375" lon="19.89682503975927829742431640625">
        <ele>1812.800048828125</ele>
        <time>2026-06-17T12:01:19.000Z</time>
        <extensions>
          <ns3:TrackPointExtension>
            <ns3:atemp>16.0</ns3:atemp>
          </ns3:TrackPointExtension>
        </extensions>
      </trkpt>
      <trkpt lat="42.50826864503324031829833984375" lon="19.89682503975927829742431640625">
        <ele>1812.800048828125</ele>
        <time>2026-06-17T12:01:20.000Z</time>
        <extensions>
          <ns3:TrackPointExtension>
            <ns3:atemp>16.0</ns3:atemp>
          </ns3:TrackPointExtension>
        </extensions>
      </trkpt>
      <trkpt lat="42.50826864503324031829833984375" lon="19.89682503975927829742431640625">
        <ele>1812.800048828125</ele>
        <time>2026-06-17T12:01:21.000Z</time>
        <extensions>
          <ns3:TrackPointExtension>
            <ns3:atemp>16.0</ns3:atemp>
          </ns3:TrackPointExtension>
        </extensions>
      </trkpt>
      <trkpt lat="42.50826864503324031829833984375" lon="19.89682503975927829742431640625">
        <ele>1812.800048828125</ele>
        <time>2026-06-17T12:01:22.000Z</time>
        <extensions>
          <ns3:TrackPointExtension>
            <ns3:atemp>16.0</ns3:atemp>
          </ns3:TrackPointExtension>
        </extensions>
      </trkpt>
      <trkpt lat="42.50826864503324031829833984375" lon="19.89682503975927829742431640625">
        <ele>1813</ele>
        <time>2026-06-17T12:01:23.000Z</time>
        <extensions>
          <ns3:TrackPointExtension>
            <ns3:atemp>16.0</ns3:atemp>
          </ns3:TrackPointExtension>
        </extensions>
      </trkpt>
      <trkpt lat="42.50826864503324031829833984375" lon="19.89682503975927829742431640625">
        <ele>1813</ele>
        <time>2026-06-17T12:01:24.000Z</time>
        <extensions>
          <ns3:TrackPointExtension>
            <ns3:atemp>16.0</ns3:atemp>
          </ns3:TrackPointExtension>
        </extensions>
      </trkpt>
      <trkpt lat="42.50826864503324031829833984375" lon="19.89682503975927829742431640625">
        <ele>1813</ele>
        <time>2026-06-17T12:01:25.000Z</time>
        <extensions>
          <ns3:TrackPointExtension>
            <ns3:atemp>16.0</ns3:atemp>
          </ns3:TrackPointExtension>
        </extensions>
      </trkpt>
      <trkpt lat="42.50826864503324031829833984375" lon="19.89682503975927829742431640625">
        <ele>1813</ele>
        <time>2026-06-17T12:01:26.000Z</time>
        <extensions>
          <ns3:TrackPointExtension>
            <ns3:atemp>16.0</ns3:atemp>
          </ns3:TrackPointExtension>
        </extensions>
      </trkpt>
      <trkpt lat="42.50826864503324031829833984375" lon="19.89682503975927829742431640625">
        <ele>1813</ele>
        <time>2026-06-17T12:01:27.000Z</time>
        <extensions>
          <ns3:TrackPointExtension>
            <ns3:atemp>16.0</ns3:atemp>
          </ns3:TrackPointExtension>
        </extensions>
      </trkpt>
      <trkpt lat="42.50826864503324031829833984375" lon="19.89682503975927829742431640625">
        <ele>1813</ele>
        <time>2026-06-17T12:01:28.000Z</time>
        <extensions>
          <ns3:TrackPointExtension>
            <ns3:atemp>16.0</ns3:atemp>
          </ns3:TrackPointExtension>
        </extensions>
      </trkpt>
      <trkpt lat="42.50826864503324031829833984375" lon="19.89682503975927829742431640625">
        <ele>1813</ele>
        <time>2026-06-17T12:01:29.000Z</time>
        <extensions>
          <ns3:TrackPointExtension>
            <ns3:atemp>16.0</ns3:atemp>
          </ns3:TrackPointExtension>
        </extensions>
      </trkpt>
      <trkpt lat="42.50826864503324031829833984375" lon="19.89682503975927829742431640625">
        <ele>1813</ele>
        <time>2026-06-17T12:01:30.000Z</time>
        <extensions>
          <ns3:TrackPointExtension>
            <ns3:atemp>16.0</ns3:atemp>
          </ns3:TrackPointExtension>
        </extensions>
      </trkpt>
      <trkpt lat="42.50826864503324031829833984375" lon="19.89682503975927829742431640625">
        <ele>1813</ele>
        <time>2026-06-17T12:01:31.000Z</time>
        <extensions>
          <ns3:TrackPointExtension>
            <ns3:atemp>16.0</ns3:atemp>
          </ns3:TrackPointExtension>
        </extensions>
      </trkpt>
      <trkpt lat="42.50826864503324031829833984375" lon="19.89682503975927829742431640625">
        <ele>1813</ele>
        <time>2026-06-17T12:01:32.000Z</time>
        <extensions>
          <ns3:TrackPointExtension>
            <ns3:atemp>16.0</ns3:atemp>
          </ns3:TrackPointExtension>
        </extensions>
      </trkpt>
      <trkpt lat="42.50826864503324031829833984375" lon="19.89682503975927829742431640625">
        <ele>1813</ele>
        <time>2026-06-17T12:01:33.000Z</time>
        <extensions>
          <ns3:TrackPointExtension>
            <ns3:atemp>16.0</ns3:atemp>
          </ns3:TrackPointExtension>
        </extensions>
      </trkpt>
      <trkpt lat="42.50826864503324031829833984375" lon="19.89682503975927829742431640625">
        <ele>1813</ele>
        <time>2026-06-17T12:01:34.000Z</time>
        <extensions>
          <ns3:TrackPointExtension>
            <ns3:atemp>16.0</ns3:atemp>
          </ns3:TrackPointExtension>
        </extensions>
      </trkpt>
      <trkpt lat="42.50826864503324031829833984375" lon="19.89682503975927829742431640625">
        <ele>1813</ele>
        <time>2026-06-17T12:01:35.000Z</time>
        <extensions>
          <ns3:TrackPointExtension>
            <ns3:atemp>16.0</ns3:atemp>
          </ns3:TrackPointExtension>
        </extensions>
      </trkpt>
      <trkpt lat="42.50826864503324031829833984375" lon="19.89682503975927829742431640625">
        <ele>1813</ele>
        <time>2026-06-17T12:01:36.000Z</time>
        <extensions>
          <ns3:TrackPointExtension>
            <ns3:atemp>16.0</ns3:atemp>
          </ns3:TrackPointExtension>
        </extensions>
      </trkpt>
      <trkpt lat="42.50826864503324031829833984375" lon="19.89682503975927829742431640625">
        <ele>1813</ele>
        <time>2026-06-17T12:01:37.000Z</time>
        <extensions>
          <ns3:TrackPointExtension>
            <ns3:atemp>16.0</ns3:atemp>
          </ns3:TrackPointExtension>
        </extensions>
      </trkpt>
      <trkpt lat="42.50826864503324031829833984375" lon="19.89682503975927829742431640625">
        <ele>1813</ele>
        <time>2026-06-17T12:01:38.000Z</time>
        <extensions>
          <ns3:TrackPointExtension>
            <ns3:atemp>16.0</ns3:atemp>
          </ns3:TrackPointExtension>
        </extensions>
      </trkpt>
      <trkpt lat="42.50826864503324031829833984375" lon="19.89682503975927829742431640625">
        <ele>1813</ele>
        <time>2026-06-17T12:01:39.000Z</time>
        <extensions>
          <ns3:TrackPointExtension>
            <ns3:atemp>16.0</ns3:atemp>
          </ns3:TrackPointExtension>
        </extensions>
      </trkpt>
      <trkpt lat="42.50826864503324031829833984375" lon="19.89682503975927829742431640625">
        <ele>1813</ele>
        <time>2026-06-17T12:01:40.000Z</time>
        <extensions>
          <ns3:TrackPointExtension>
            <ns3:atemp>16.0</ns3:atemp>
          </ns3:TrackPointExtension>
        </extensions>
      </trkpt>
      <trkpt lat="42.50826864503324031829833984375" lon="19.89682503975927829742431640625">
        <ele>1813</ele>
        <time>2026-06-17T12:01:41.000Z</time>
        <extensions>
          <ns3:TrackPointExtension>
            <ns3:atemp>16.0</ns3:atemp>
          </ns3:TrackPointExtension>
        </extensions>
      </trkpt>
      <trkpt lat="42.50826864503324031829833984375" lon="19.89682503975927829742431640625">
        <ele>1812.800048828125</ele>
        <time>2026-06-17T12:01:42.000Z</time>
        <extensions>
          <ns3:TrackPointExtension>
            <ns3:atemp>16.0</ns3:atemp>
          </ns3:TrackPointExtension>
        </extensions>
      </trkpt>
      <trkpt lat="42.50826864503324031829833984375" lon="19.89682503975927829742431640625">
        <ele>1812.800048828125</ele>
        <time>2026-06-17T12:01:43.000Z</time>
        <extensions>
          <ns3:TrackPointExtension>
            <ns3:atemp>16.0</ns3:atemp>
          </ns3:TrackPointExtension>
        </extensions>
      </trkpt>
      <trkpt lat="42.50826864503324031829833984375" lon="19.89682503975927829742431640625">
        <ele>1812.800048828125</ele>
        <time>2026-06-17T12:01:44.000Z</time>
        <extensions>
          <ns3:TrackPointExtension>
            <ns3:atemp>16.0</ns3:atemp>
          </ns3:TrackPointExtension>
        </extensions>
      </trkpt>
      <trkpt lat="42.50827275216579437255859375" lon="19.896822609007358551025390625">
        <ele>1812.800048828125</ele>
        <time>2026-06-17T12:01:45.000Z</time>
        <extensions>
          <ns3:TrackPointExtension>
            <ns3:atemp>16.0</ns3:atemp>
          </ns3:TrackPointExtension>
        </extensions>
      </trkpt>
      <trkpt lat="42.50829077325761318206787109375" lon="19.89680374972522258758544921875">
        <ele>1812.5999755859375</ele>
        <time>2026-06-17T12:01:46.000Z</time>
        <extensions>
          <ns3:TrackPointExtension>
            <ns3:atemp>16.0</ns3:atemp>
          </ns3:TrackPointExtension>
        </extensions>
      </trkpt>
      <trkpt lat="42.5083010829985141754150390625" lon="19.8967889137566089630126953125">
        <ele>1812.5999755859375</ele>
        <time>2026-06-17T12:01:47.000Z</time>
        <extensions>
          <ns3:TrackPointExtension>
            <ns3:atemp>16.0</ns3:atemp>
          </ns3:TrackPointExtension>
        </extensions>
      </trkpt>
      <trkpt lat="42.50831566751003265380859375" lon="19.89677407778799533843994140625">
        <ele>1812.4000244140625</ele>
        <time>2026-06-17T12:01:48.000Z</time>
        <extensions>
          <ns3:TrackPointExtension>
            <ns3:atemp>16.0</ns3:atemp>
          </ns3:TrackPointExtension>
        </extensions>
      </trkpt>
      <trkpt lat="42.5083309225738048553466796875" lon="19.89677491597831249237060546875">
        <ele>1812</ele>
        <time>2026-06-17T12:01:49.000Z</time>
        <extensions>
          <ns3:TrackPointExtension>
            <ns3:atemp>16.0</ns3:atemp>
          </ns3:TrackPointExtension>
        </extensions>
      </trkpt>
      <trkpt lat="42.508346848189830780029296875" lon="19.89677458070218563079833984375">
        <ele>1811.800048828125</ele>
        <time>2026-06-17T12:01:50.000Z</time>
        <extensions>
          <ns3:TrackPointExtension>
            <ns3:atemp>16.0</ns3:atemp>
          </ns3:TrackPointExtension>
        </extensions>
      </trkpt>
      <trkpt lat="42.508362270891666412353515625" lon="19.89676703698933124542236328125">
        <ele>1811.4000244140625</ele>
        <time>2026-06-17T12:01:51.000Z</time>
        <extensions>
          <ns3:TrackPointExtension>
            <ns3:atemp>16.0</ns3:atemp>
          </ns3:TrackPointExtension>
        </extensions>
      </trkpt>
      <trkpt lat="42.5083792023360729217529296875" lon="19.89674574695527553558349609375">
        <ele>1811</ele>
        <time>2026-06-17T12:01:52.000Z</time>
        <extensions>
          <ns3:TrackPointExtension>
            <ns3:atemp>16.0</ns3:atemp>
          </ns3:TrackPointExtension>
        </extensions>
      </trkpt>
      <trkpt lat="42.5083973072469234466552734375" lon="19.89673635922372341156005859375">
        <ele>1810.5999755859375</ele>
        <time>2026-06-17T12:01:53.000Z</time>
        <extensions>
          <ns3:TrackPointExtension>
            <ns3:atemp>16.0</ns3:atemp>
          </ns3:TrackPointExtension>
        </extensions>
      </trkpt>
      <trkpt lat="42.50841432251036167144775390625" lon="19.89673845469951629638671875">
        <ele>1810.4000244140625</ele>
        <time>2026-06-17T12:01:54.000Z</time>
        <extensions>
          <ns3:TrackPointExtension>
            <ns3:atemp>16.0</ns3:atemp>
          </ns3:TrackPointExtension>
        </extensions>
      </trkpt>
      <trkpt lat="42.50843443907797336578369140625" lon="19.8967345990240573883056640625">
        <ele>1810</ele>
        <time>2026-06-17T12:01:55.000Z</time>
        <extensions>
          <ns3:TrackPointExtension>
            <ns3:atemp>16.0</ns3:atemp>
          </ns3:TrackPointExtension>
        </extensions>
      </trkpt>
      <trkpt lat="42.5084532983601093292236328125" lon="19.8967230319976806640625">
        <ele>1809.5999755859375</ele>
        <time>2026-06-17T12:01:56.000Z</time>
        <extensions>
          <ns3:TrackPointExtension>
            <ns3:atemp>16.0</ns3:atemp>
          </ns3:TrackPointExtension>
        </extensions>
      </trkpt>
      <trkpt lat="42.5084760971367359161376953125" lon="19.89671154879033565521240234375">
        <ele>1809.199951171875</ele>
        <time>2026-06-17T12:01:57.000Z</time>
        <extensions>
          <ns3:TrackPointExtension>
            <ns3:atemp>16.0</ns3:atemp>
          </ns3:TrackPointExtension>
        </extensions>
      </trkpt>
      <trkpt lat="42.50849512405693531036376953125" lon="19.896709956228733062744140625">
        <ele>1809</ele>
        <time>2026-06-17T12:01:58.000Z</time>
        <extensions>
          <ns3:TrackPointExtension>
            <ns3:atemp>16.0</ns3:atemp>
          </ns3:TrackPointExtension>
        </extensions>
      </trkpt>
      <trkpt lat="42.50851658172905445098876953125" lon="19.89670132286846637725830078125">
        <ele>1808.5999755859375</ele>
        <time>2026-06-17T12:01:59.000Z</time>
        <extensions>
          <ns3:TrackPointExtension>
            <ns3:atemp>16.0</ns3:atemp>
          </ns3:TrackPointExtension>
        </extensions>
      </trkpt>
      <trkpt lat="42.50853736884891986846923828125" lon="19.89669956266880035400390625">
        <ele>1808.199951171875</ele>
        <time>2026-06-17T12:02:00.000Z</time>
        <extensions>
          <ns3:TrackPointExtension>
            <ns3:atemp>16.0</ns3:atemp>
          </ns3:TrackPointExtension>
        </extensions>
      </trkpt>
      <trkpt lat="42.50856167636811733245849609375" lon="19.89668942056596279144287109375">
        <ele>1807.800048828125</ele>
        <time>2026-06-17T12:02:01.000Z</time>
        <extensions>
          <ns3:TrackPointExtension>
            <ns3:atemp>16.0</ns3:atemp>
          </ns3:TrackPointExtension>
        </extensions>
      </trkpt>
      <trkpt lat="42.50858330167829990386962890625" lon="19.89667617715895175933837890625">
        <ele>1807.5999755859375</ele>
        <time>2026-06-17T12:02:02.000Z</time>
        <extensions>
          <ns3:TrackPointExtension>
            <ns3:atemp>16.0</ns3:atemp>
          </ns3:TrackPointExtension>
        </extensions>
      </trkpt>
      <trkpt lat="42.50860258005559444427490234375" lon="19.8966653645038604736328125">
        <ele>1807.199951171875</ele>
        <time>2026-06-17T12:02:03.000Z</time>
        <extensions>
          <ns3:TrackPointExtension>
            <ns3:atemp>16.0</ns3:atemp>
          </ns3:TrackPointExtension>
        </extensions>
      </trkpt>
      <trkpt lat="42.5086189247667789459228515625" lon="19.89665907807648181915283203125">
        <ele>1807</ele>
        <time>2026-06-17T12:02:04.000Z</time>
        <extensions>
          <ns3:TrackPointExtension>
            <ns3:atemp>16.0</ns3:atemp>
          </ns3:TrackPointExtension>
        </extensions>
      </trkpt>
      <trkpt lat="42.508624456822872161865234375" lon="19.8966638557612895965576171875">
        <ele>1806.800048828125</ele>
        <time>2026-06-17T12:02:05.000Z</time>
        <extensions>
          <ns3:TrackPointExtension>
            <ns3:atemp>16.0</ns3:atemp>
          </ns3:TrackPointExtension>
        </extensions>
      </trkpt>
      <trkpt lat="42.50862621702253818511962890625" lon="19.8966618441045284271240234375">
        <ele>1806.800048828125</ele>
        <time>2026-06-17T12:02:06.000Z</time>
        <extensions>
          <ns3:TrackPointExtension>
            <ns3:atemp>16.0</ns3:atemp>
          </ns3:TrackPointExtension>
        </extensions>
      </trkpt>
      <trkpt lat="42.50862621702253818511962890625" lon="19.896661676466464996337890625">
        <ele>1806.5999755859375</ele>
        <time>2026-06-17T12:02:07.000Z</time>
        <extensions>
          <ns3:TrackPointExtension>
            <ns3:atemp>16.0</ns3:atemp>
          </ns3:TrackPointExtension>
        </extensions>
      </trkpt>
      <trkpt lat="42.50862621702253818511962890625" lon="19.896661676466464996337890625">
        <ele>1806.5999755859375</ele>
        <time>2026-06-17T12:02:08.000Z</time>
        <extensions>
          <ns3:TrackPointExtension>
            <ns3:atemp>16.0</ns3:atemp>
          </ns3:TrackPointExtension>
        </extensions>
      </trkpt>
      <trkpt lat="42.50862621702253818511962890625" lon="19.896661676466464996337890625">
        <ele>1806.4000244140625</ele>
        <time>2026-06-17T12:02:09.000Z</time>
        <extensions>
          <ns3:TrackPointExtension>
            <ns3:atemp>16.0</ns3:atemp>
          </ns3:TrackPointExtension>
        </extensions>
      </trkpt>
      <trkpt lat="42.50862621702253818511962890625" lon="19.896661676466464996337890625">
        <ele>1806.4000244140625</ele>
        <time>2026-06-17T12:02:10.000Z</time>
        <extensions>
          <ns3:TrackPointExtension>
            <ns3:atemp>16.0</ns3:atemp>
          </ns3:TrackPointExtension>
        </extensions>
      </trkpt>
      <trkpt lat="42.50862621702253818511962890625" lon="19.896661676466464996337890625">
        <ele>1806.4000244140625</ele>
        <time>2026-06-17T12:02:11.000Z</time>
        <extensions>
          <ns3:TrackPointExtension>
            <ns3:atemp>16.0</ns3:atemp>
          </ns3:TrackPointExtension>
        </extensions>
      </trkpt>
      <trkpt lat="42.50862621702253818511962890625" lon="19.896661676466464996337890625">
        <ele>1806.199951171875</ele>
        <time>2026-06-17T12:02:12.000Z</time>
        <extensions>
          <ns3:TrackPointExtension>
            <ns3:atemp>16.0</ns3:atemp>
          </ns3:TrackPointExtension>
        </extensions>
      </trkpt>
      <trkpt lat="42.50862621702253818511962890625" lon="19.896661676466464996337890625">
        <ele>1806.199951171875</ele>
        <time>2026-06-17T12:02:13.000Z</time>
        <extensions>
          <ns3:TrackPointExtension>
            <ns3:atemp>16.0</ns3:atemp>
          </ns3:TrackPointExtension>
        </extensions>
      </trkpt>
      <trkpt lat="42.50862688757479190826416015625" lon="19.896661341190338134765625">
        <ele>1806.199951171875</ele>
        <time>2026-06-17T12:02:14.000Z</time>
        <extensions>
          <ns3:TrackPointExtension>
            <ns3:atemp>16.0</ns3:atemp>
          </ns3:TrackPointExtension>
        </extensions>
      </trkpt>
      <trkpt lat="42.5086457468569278717041015625" lon="19.896658994257450103759765625">
        <ele>1806.199951171875</ele>
        <time>2026-06-17T12:02:15.000Z</time>
        <extensions>
          <ns3:TrackPointExtension>
            <ns3:atemp>16.0</ns3:atemp>
          </ns3:TrackPointExtension>
        </extensions>
      </trkpt>
      <trkpt lat="42.5086668692529201507568359375" lon="19.8966608382761478424072265625">
        <ele>1806.199951171875</ele>
        <time>2026-06-17T12:02:16.000Z</time>
        <extensions>
          <ns3:TrackPointExtension>
            <ns3:atemp>16.0</ns3:atemp>
          </ns3:TrackPointExtension>
        </extensions>
      </trkpt>
      <trkpt lat="42.50868690200150012969970703125" lon="19.89666226319968700408935546875">
        <ele>1806</ele>
        <time>2026-06-17T12:02:17.000Z</time>
        <extensions>
          <ns3:TrackPointExtension>
            <ns3:atemp>16.0</ns3:atemp>
          </ns3:TrackPointExtension>
        </extensions>
      </trkpt>
      <trkpt lat="42.508707940578460693359375" lon="19.89666578359901905059814453125">
        <ele>1805.800048828125</ele>
        <time>2026-06-17T12:02:18.000Z</time>
        <extensions>
          <ns3:TrackPointExtension>
            <ns3:atemp>16.0</ns3:atemp>
          </ns3:TrackPointExtension>
        </extensions>
      </trkpt>
      <trkpt lat="42.50872596167027950286865234375" lon="19.89666595123708248138427734375">
        <ele>1805.5999755859375</ele>
        <time>2026-06-17T12:02:19.000Z</time>
        <extensions>
          <ns3:TrackPointExtension>
            <ns3:atemp>16.0</ns3:atemp>
          </ns3:TrackPointExtension>
        </extensions>
      </trkpt>
      <trkpt lat="42.50874674879014492034912109375" lon="19.89666259847581386566162109375">
        <ele>1805.4000244140625</ele>
        <time>2026-06-17T12:02:20.000Z</time>
        <extensions>
          <ns3:TrackPointExtension>
            <ns3:atemp>16.0</ns3:atemp>
          </ns3:TrackPointExtension>
        </extensions>
      </trkpt>
      <trkpt lat="42.50877055339515209197998046875" lon="19.8966665379703044891357421875">
        <ele>1805</ele>
        <time>2026-06-17T12:02:21.000Z</time>
        <extensions>
          <ns3:TrackPointExtension>
            <ns3:atemp>16.0</ns3:atemp>
          </ns3:TrackPointExtension>
        </extensions>
      </trkpt>
      <trkpt lat="42.50879854895174503326416015625" lon="19.89667718298733234405517578125">
        <ele>1804.800048828125</ele>
        <time>2026-06-17T12:02:22.000Z</time>
        <extensions>
          <ns3:TrackPointExtension>
            <ns3:atemp>16.0</ns3:atemp>
          </ns3:TrackPointExtension>
        </extensions>
      </trkpt>
      <trkpt lat="42.508822940289974212646484375" lon="19.8966913484036922454833984375">
        <ele>1804.4000244140625</ele>
        <time>2026-06-17T12:02:23.000Z</time>
        <extensions>
          <ns3:TrackPointExtension>
            <ns3:atemp>16.0</ns3:atemp>
          </ns3:TrackPointExtension>
        </extensions>
      </trkpt>
      <trkpt lat="42.508843056857585906982421875" lon="19.89669285714626312255859375">
        <ele>1804.199951171875</ele>
        <time>2026-06-17T12:02:24.000Z</time>
        <extensions>
          <ns3:TrackPointExtension>
            <ns3:atemp>16.0</ns3:atemp>
          </ns3:TrackPointExtension>
        </extensions>
      </trkpt>
      <trkpt lat="42.5088608264923095703125" lon="19.896681793034076690673828125">
        <ele>1804</ele>
        <time>2026-06-17T12:02:25.000Z</time>
        <extensions>
          <ns3:TrackPointExtension>
            <ns3:atemp>16.0</ns3:atemp>
          </ns3:TrackPointExtension>
        </extensions>
      </trkpt>
      <trkpt lat="42.50887759029865264892578125" lon="19.89668020047247409820556640625">
        <ele>1804</ele>
        <time>2026-06-17T12:02:26.000Z</time>
        <extensions>
          <ns3:TrackPointExtension>
            <ns3:atemp>16.0</ns3:atemp>
          </ns3:TrackPointExtension>
        </extensions>
      </trkpt>
      <trkpt lat="42.50889276154339313507080078125" lon="19.89668506197631359100341796875">
        <ele>1804</ele>
        <time>2026-06-17T12:02:27.000Z</time>
        <extensions>
          <ns3:TrackPointExtension>
            <ns3:atemp>16.0</ns3:atemp>
          </ns3:TrackPointExtension>
        </extensions>
      </trkpt>
      <trkpt lat="42.50890432856976985931396484375" lon="19.89668908528983592987060546875">
        <ele>1804</ele>
        <time>2026-06-17T12:02:28.000Z</time>
        <extensions>
          <ns3:TrackPointExtension>
            <ns3:atemp>16.0</ns3:atemp>
          </ns3:TrackPointExtension>
        </extensions>
      </trkpt>
      <trkpt lat="42.5089196674525737762451171875" lon="19.89669327624142169952392578125">
        <ele>1803.800048828125</ele>
        <time>2026-06-17T12:02:29.000Z</time>
        <extensions>
          <ns3:TrackPointExtension>
            <ns3:atemp>16.0</ns3:atemp>
          </ns3:TrackPointExtension>
        </extensions>
      </trkpt>
      <trkpt lat="42.50893400050699710845947265625" lon="19.8966943658888339996337890625">
        <ele>1803.800048828125</ele>
        <time>2026-06-17T12:02:30.000Z</time>
        <extensions>
          <ns3:TrackPointExtension>
            <ns3:atemp>16.0</ns3:atemp>
          </ns3:TrackPointExtension>
        </extensions>
      </trkpt>
      <trkpt lat="42.50895009376108646392822265625" lon="19.89669897593557834625244140625">
        <ele>1803.5999755859375</ele>
        <time>2026-06-17T12:02:31.000Z</time>
        <extensions>
          <ns3:TrackPointExtension>
            <ns3:atemp>16.0</ns3:atemp>
          </ns3:TrackPointExtension>
        </extensions>
      </trkpt>
      <trkpt lat="42.508961744606494903564453125" lon="19.8966990597546100616455078125">
        <ele>1803.5999755859375</ele>
        <time>2026-06-17T12:02:32.000Z</time>
        <extensions>
          <ns3:TrackPointExtension>
            <ns3:atemp>16.0</ns3:atemp>
          </ns3:TrackPointExtension>
        </extensions>
      </trkpt>
      <trkpt lat="42.50897121615707874298095703125" lon="19.89669646136462688446044921875">
        <ele>1803.4000244140625</ele>
        <time>2026-06-17T12:02:33.000Z</time>
        <extensions>
          <ns3:TrackPointExtension>
            <ns3:atemp>16.0</ns3:atemp>
          </ns3:TrackPointExtension>
        </extensions>
      </trkpt>
      <trkpt lat="42.5089776702225208282470703125" lon="19.8966950364410877227783203125">
        <ele>1803.4000244140625</ele>
        <time>2026-06-17T12:02:34.000Z</time>
        <extensions>
          <ns3:TrackPointExtension>
            <ns3:atemp>16.0</ns3:atemp>
          </ns3:TrackPointExtension>
        </extensions>
      </trkpt>
      <trkpt lat="42.50898362137377262115478515625" lon="19.896693527698516845703125">
        <ele>1803.199951171875</ele>
        <time>2026-06-17T12:02:35.000Z</time>
        <extensions>
          <ns3:TrackPointExtension>
            <ns3:atemp>16.0</ns3:atemp>
          </ns3:TrackPointExtension>
        </extensions>
      </trkpt>
      <trkpt lat="42.50899435020983219146728515625" lon="19.8966863192617893218994140625">
        <ele>1803</ele>
        <time>2026-06-17T12:02:36.000Z</time>
        <extensions>
          <ns3:TrackPointExtension>
            <ns3:atemp>16.0</ns3:atemp>
          </ns3:TrackPointExtension>
        </extensions>
      </trkpt>
      <trkpt lat="42.50900809653103351593017578125" lon="19.8966745845973491668701171875">
        <ele>1802.800048828125</ele>
        <time>2026-06-17T12:02:37.000Z</time>
        <extensions>
          <ns3:TrackPointExtension>
            <ns3:atemp>16.0</ns3:atemp>
          </ns3:TrackPointExtension>
        </extensions>
      </trkpt>
      <trkpt lat="42.50902284868061542510986328125" lon="19.89666461013257503509521484375">
        <ele>1802.5999755859375</ele>
        <time>2026-06-17T12:02:38.000Z</time>
        <extensions>
          <ns3:TrackPointExtension>
            <ns3:atemp>16.0</ns3:atemp>
          </ns3:TrackPointExtension>
        </extensions>
      </trkpt>
      <trkpt lat="42.5090386904776096343994140625" lon="19.89665254019200801849365234375">
        <ele>1802.4000244140625</ele>
        <time>2026-06-17T12:02:39.000Z</time>
        <extensions>
          <ns3:TrackPointExtension>
            <ns3:atemp>16.0</ns3:atemp>
          </ns3:TrackPointExtension>
        </extensions>
      </trkpt>
      <trkpt lat="42.509055621922016143798828125" lon="19.89664449356496334075927734375">
        <ele>1802</ele>
        <time>2026-06-17T12:02:40.000Z</time>
        <extensions>
          <ns3:TrackPointExtension>
            <ns3:atemp>16.0</ns3:atemp>
          </ns3:TrackPointExtension>
        </extensions>
      </trkpt>
      <trkpt lat="42.5090705417096614837646484375" lon="19.89664549939334392547607421875">
        <ele>1801.800048828125</ele>
        <time>2026-06-17T12:02:41.000Z</time>
        <extensions>
          <ns3:TrackPointExtension>
            <ns3:atemp>16.0</ns3:atemp>
          </ns3:TrackPointExtension>
        </extensions>
      </trkpt>
      <trkpt lat="42.50908571295440196990966796875" lon="19.8966491036117076873779296875">
        <ele>1801.5999755859375</ele>
        <time>2026-06-17T12:02:42.000Z</time>
        <extensions>
          <ns3:TrackPointExtension>
            <ns3:atemp>16.0</ns3:atemp>
          </ns3:TrackPointExtension>
        </extensions>
      </trkpt>
      <trkpt lat="42.5090987049043178558349609375" lon="19.89665606059134006500244140625">
        <ele>1801.199951171875</ele>
        <time>2026-06-17T12:02:43.000Z</time>
        <extensions>
          <ns3:TrackPointExtension>
            <ns3:atemp>16.0</ns3:atemp>
          </ns3:TrackPointExtension>
        </extensions>
      </trkpt>
      <trkpt lat="42.50910549424588680267333984375" lon="19.89666762761771678924560546875">
        <ele>1801</ele>
        <time>2026-06-17T12:02:44.000Z</time>
        <extensions>
          <ns3:TrackPointExtension>
            <ns3:atemp>16.0</ns3:atemp>
          </ns3:TrackPointExtension>
        </extensions>
      </trkpt>
      <trkpt lat="42.509106583893299102783203125" lon="19.89667902700603008270263671875">
        <ele>1800.800048828125</ele>
        <time>2026-06-17T12:02:45.000Z</time>
        <extensions>
          <ns3:TrackPointExtension>
            <ns3:atemp>16.0</ns3:atemp>
          </ns3:TrackPointExtension>
        </extensions>
      </trkpt>
      <trkpt lat="42.50910817645490169525146484375" lon="19.8966923542320728302001953125">
        <ele>1800.5999755859375</ele>
        <time>2026-06-17T12:02:46.000Z</time>
        <extensions>
          <ns3:TrackPointExtension>
            <ns3:atemp>16.0</ns3:atemp>
          </ns3:TrackPointExtension>
        </extensions>
      </trkpt>
      <trkpt lat="42.50911035574972629547119140625" lon="19.89670836366713047027587890625">
        <ele>1800.199951171875</ele>
        <time>2026-06-17T12:02:47.000Z</time>
        <extensions>
          <ns3:TrackPointExtension>
            <ns3:atemp>16.0</ns3:atemp>
          </ns3:TrackPointExtension>
        </extensions>
      </trkpt>
      <trkpt lat="42.509117312729358673095703125" lon="19.89673216827213764190673828125">
        <ele>1800</ele>
        <time>2026-06-17T12:02:48.000Z</time>
        <extensions>
          <ns3:TrackPointExtension>
            <ns3:atemp>16.0</ns3:atemp>
          </ns3:TrackPointExtension>
        </extensions>
      </trkpt>
      <trkpt lat="42.5091248564422130584716796875" lon="19.89675228483974933624267578125">
        <ele>1799.800048828125</ele>
        <time>2026-06-17T12:02:49.000Z</time>
        <extensions>
          <ns3:TrackPointExtension>
            <ns3:atemp>16.0</ns3:atemp>
          </ns3:TrackPointExtension>
        </extensions>
      </trkpt>
      <trkpt lat="42.50913701020181179046630859375" lon="19.89676334895193576812744140625">
        <ele>1799.4000244140625</ele>
        <time>2026-06-17T12:02:50.000Z</time>
        <extensions>
          <ns3:TrackPointExtension>
            <ns3:atemp>16.0</ns3:atemp>
          </ns3:TrackPointExtension>
        </extensions>
      </trkpt>
      <trkpt lat="42.5091513432562351226806640625" lon="19.89677290432155132293701171875">
        <ele>1799.199951171875</ele>
        <time>2026-06-17T12:02:51.000Z</time>
        <extensions>
          <ns3:TrackPointExtension>
            <ns3:atemp>16.0</ns3:atemp>
          </ns3:TrackPointExtension>
        </extensions>
      </trkpt>
      <trkpt lat="42.50916534103453159332275390625" lon="19.8967788554728031158447265625">
        <ele>1799</ele>
        <time>2026-06-17T12:02:52.000Z</time>
        <extensions>
          <ns3:TrackPointExtension>
            <ns3:atemp>16.0</ns3:atemp>
          </ns3:TrackPointExtension>
        </extensions>
      </trkpt>
      <trkpt lat="42.5091798417270183563232421875" lon="19.89677273668348789215087890625">
        <ele>1798.800048828125</ele>
        <time>2026-06-17T12:02:53.000Z</time>
        <extensions>
          <ns3:TrackPointExtension>
            <ns3:atemp>16.0</ns3:atemp>
          </ns3:TrackPointExtension>
        </extensions>
      </trkpt>
      <trkpt lat="42.50919098965823650360107421875" lon="19.89676033146679401397705078125">
        <ele>1798.4000244140625</ele>
        <time>2026-06-17T12:02:54.000Z</time>
        <extensions>
          <ns3:TrackPointExtension>
            <ns3:atemp>16.0</ns3:atemp>
          </ns3:TrackPointExtension>
        </extensions>
      </trkpt>
      <trkpt lat="42.5092016346752643585205078125" lon="19.8967530392110347747802734375">
        <ele>1798.199951171875</ele>
        <time>2026-06-17T12:02:55.000Z</time>
        <extensions>
          <ns3:TrackPointExtension>
            <ns3:atemp>16.0</ns3:atemp>
          </ns3:TrackPointExtension>
        </extensions>
      </trkpt>
      <trkpt lat="42.50921144150197505950927734375" lon="19.89675396122038364410400390625">
        <ele>1797.800048828125</ele>
        <time>2026-06-17T12:02:56.000Z</time>
        <extensions>
          <ns3:TrackPointExtension>
            <ns3:atemp>16.0</ns3:atemp>
          </ns3:TrackPointExtension>
        </extensions>
      </trkpt>
      <trkpt lat="42.50922367908060550689697265625" lon="19.8967513628304004669189453125">
        <ele>1797.5999755859375</ele>
        <time>2026-06-17T12:02:57.000Z</time>
        <extensions>
          <ns3:TrackPointExtension>
            <ns3:atemp>16.0</ns3:atemp>
          </ns3:TrackPointExtension>
        </extensions>
      </trkpt>
      <trkpt lat="42.5092323124408721923828125" lon="19.8967416398227214813232421875">
        <ele>1797.199951171875</ele>
        <time>2026-06-17T12:02:58.000Z</time>
        <extensions>
          <ns3:TrackPointExtension>
            <ns3:atemp>16.0</ns3:atemp>
          </ns3:TrackPointExtension>
        </extensions>
      </trkpt>
      <trkpt lat="42.509240694344043731689453125" lon="19.8967315815389156341552734375">
        <ele>1797</ele>
        <time>2026-06-17T12:02:59.000Z</time>
        <extensions>
          <ns3:TrackPointExtension>
            <ns3:atemp>16.0</ns3:atemp>
          </ns3:TrackPointExtension>
        </extensions>
      </trkpt>
      <trkpt lat="42.5092515908181667327880859375" lon="19.89672093652188777923583984375">
        <ele>1796.5999755859375</ele>
        <time>2026-06-17T12:03:00.000Z</time>
        <extensions>
          <ns3:TrackPointExtension>
            <ns3:atemp>16.0</ns3:atemp>
          </ns3:TrackPointExtension>
        </extensions>
      </trkpt>
      <trkpt lat="42.50926558859646320343017578125" lon="19.89672730676829814910888671875">
        <ele>1796.4000244140625</ele>
        <time>2026-06-17T12:03:01.000Z</time>
        <extensions>
          <ns3:TrackPointExtension>
            <ns3:atemp>16.0</ns3:atemp>
          </ns3:TrackPointExtension>
        </extensions>
      </trkpt>
      <trkpt lat="42.5092898122966289520263671875" lon="19.89672563038766384124755859375">
        <ele>1795.800048828125</ele>
        <time>2026-06-17T12:03:02.000Z</time>
        <extensions>
          <ns3:TrackPointExtension>
            <ns3:atemp>16.0</ns3:atemp>
          </ns3:TrackPointExtension>
        </extensions>
      </trkpt>
      <trkpt lat="42.5093089230358600616455078125" lon="19.896711297333240509033203125">
        <ele>1795.5999755859375</ele>
        <time>2026-06-17T12:03:03.000Z</time>
        <extensions>
          <ns3:TrackPointExtension>
            <ns3:atemp>16.0</ns3:atemp>
          </ns3:TrackPointExtension>
        </extensions>
      </trkpt>
      <trkpt lat="42.50932325609028339385986328125" lon="19.8967000655829906463623046875">
        <ele>1795.199951171875</ele>
        <time>2026-06-17T12:03:04.000Z</time>
        <extensions>
          <ns3:TrackPointExtension>
            <ns3:atemp>16.0</ns3:atemp>
          </ns3:TrackPointExtension>
        </extensions>
      </trkpt>
      <trkpt lat="42.50933222472667694091796875" lon="19.89668573252856731414794921875">
        <ele>1795</ele>
        <time>2026-06-17T12:03:05.000Z</time>
        <extensions>
          <ns3:TrackPointExtension>
            <ns3:atemp>16.0</ns3:atemp>
          </ns3:TrackPointExtension>
        </extensions>
      </trkpt>
      <trkpt lat="42.50933398492634296417236328125" lon="19.8966675437986850738525390625">
        <ele>1794.800048828125</ele>
        <time>2026-06-17T12:03:06.000Z</time>
        <extensions>
          <ns3:TrackPointExtension>
            <ns3:atemp>16.0</ns3:atemp>
          </ns3:TrackPointExtension>
        </extensions>
      </trkpt>
      <trkpt lat="42.50933700241148471832275390625" lon="19.89664851687848567962646484375">
        <ele>1794.5999755859375</ele>
        <time>2026-06-17T12:03:07.000Z</time>
        <extensions>
          <ns3:TrackPointExtension>
            <ns3:atemp>16.0</ns3:atemp>
          </ns3:TrackPointExtension>
        </extensions>
      </trkpt>
      <trkpt lat="42.50934018753468990325927734375" lon="19.896629154682159423828125">
        <ele>1794.4000244140625</ele>
        <time>2026-06-17T12:03:08.000Z</time>
        <extensions>
          <ns3:TrackPointExtension>
            <ns3:atemp>16.0</ns3:atemp>
          </ns3:TrackPointExtension>
        </extensions>
      </trkpt>
      <trkpt lat="42.50934756360948085784912109375" lon="19.89660090766847133636474609375">
        <ele>1794</ele>
        <time>2026-06-17T12:03:09.000Z</time>
        <extensions>
          <ns3:TrackPointExtension>
            <ns3:atemp>16.0</ns3:atemp>
          </ns3:TrackPointExtension>
        </extensions>
      </trkpt>
      <trkpt lat="42.50935963355004787445068359375" lon="19.89657224155962467193603515625">
        <ele>1793.5999755859375</ele>
        <time>2026-06-17T12:03:10.000Z</time>
        <extensions>
          <ns3:TrackPointExtension>
            <ns3:atemp>16.0</ns3:atemp>
          </ns3:TrackPointExtension>
        </extensions>
      </trkpt>
      <trkpt lat="42.50937321223318576812744140625" lon="19.896548688411712646484375">
        <ele>1793.4000244140625</ele>
        <time>2026-06-17T12:03:11.000Z</time>
        <extensions>
          <ns3:TrackPointExtension>
            <ns3:atemp>16.0</ns3:atemp>
          </ns3:TrackPointExtension>
        </extensions>
      </trkpt>
      <trkpt lat="42.509382851421833038330078125" lon="19.896533600986003875732421875">
        <ele>1793</ele>
        <time>2026-06-17T12:03:12.000Z</time>
        <extensions>
          <ns3:TrackPointExtension>
            <ns3:atemp>16.0</ns3:atemp>
          </ns3:TrackPointExtension>
        </extensions>
      </trkpt>
      <trkpt lat="42.50938477925956249237060546875" lon="19.89654055796563625335693359375">
        <ele>1792.800048828125</ele>
        <time>2026-06-17T12:03:13.000Z</time>
        <extensions>
          <ns3:TrackPointExtension>
            <ns3:atemp>16.0</ns3:atemp>
          </ns3:TrackPointExtension>
        </extensions>
      </trkpt>
      <trkpt lat="42.5093846954405307769775390625" lon="19.8965404741466045379638671875">
        <ele>1792.4000244140625</ele>
        <time>2026-06-17T12:03:14.000Z</time>
        <extensions>
          <ns3:TrackPointExtension>
            <ns3:atemp>16.0</ns3:atemp>
          </ns3:TrackPointExtension>
        </extensions>
      </trkpt>
      <trkpt lat="42.5093846954405307769775390625" lon="19.8965404741466045379638671875">
        <ele>1792.199951171875</ele>
        <time>2026-06-17T12:03:15.000Z</time>
        <extensions>
          <ns3:TrackPointExtension>
            <ns3:atemp>16.0</ns3:atemp>
          </ns3:TrackPointExtension>
        </extensions>
      </trkpt>
      <trkpt lat="42.5093846954405307769775390625" lon="19.8965404741466045379638671875">
        <ele>1792.199951171875</ele>
        <time>2026-06-17T12:03:16.000Z</time>
        <extensions>
          <ns3:TrackPointExtension>
            <ns3:atemp>16.0</ns3:atemp>
          </ns3:TrackPointExtension>
        </extensions>
      </trkpt>
      <trkpt lat="42.5093846954405307769775390625" lon="19.8965404741466045379638671875">
        <ele>1792.199951171875</ele>
        <time>2026-06-17T12:03:17.000Z</time>
        <extensions>
          <ns3:TrackPointExtension>
            <ns3:atemp>16.0</ns3:atemp>
          </ns3:TrackPointExtension>
        </extensions>
      </trkpt>
      <trkpt lat="42.5093846954405307769775390625" lon="19.8965404741466045379638671875">
        <ele>1792</ele>
        <time>2026-06-17T12:03:18.000Z</time>
        <extensions>
          <ns3:TrackPointExtension>
            <ns3:atemp>16.0</ns3:atemp>
          </ns3:TrackPointExtension>
        </extensions>
      </trkpt>
      <trkpt lat="42.5093846954405307769775390625" lon="19.8965404741466045379638671875">
        <ele>1792</ele>
        <time>2026-06-17T12:03:19.000Z</time>
        <extensions>
          <ns3:TrackPointExtension>
            <ns3:atemp>16.0</ns3:atemp>
          </ns3:TrackPointExtension>
        </extensions>
      </trkpt>
      <trkpt lat="42.5093846954405307769775390625" lon="19.8965404741466045379638671875">
        <ele>1792</ele>
        <time>2026-06-17T12:03:20.000Z</time>
        <extensions>
          <ns3:TrackPointExtension>
            <ns3:atemp>16.0</ns3:atemp>
          </ns3:TrackPointExtension>
        </extensions>
      </trkpt>
      <trkpt lat="42.5093846954405307769775390625" lon="19.8965404741466045379638671875">
        <ele>1792</ele>
        <time>2026-06-17T12:03:21.000Z</time>
        <extensions>
          <ns3:TrackPointExtension>
            <ns3:atemp>16.0</ns3:atemp>
          </ns3:TrackPointExtension>
        </extensions>
      </trkpt>
      <trkpt lat="42.5093846954405307769775390625" lon="19.8965404741466045379638671875">
        <ele>1792</ele>
        <time>2026-06-17T12:03:22.000Z</time>
        <extensions>
          <ns3:TrackPointExtension>
            <ns3:atemp>16.0</ns3:atemp>
          </ns3:TrackPointExtension>
        </extensions>
      </trkpt>
      <trkpt lat="42.5093846954405307769775390625" lon="19.8965404741466045379638671875">
        <ele>1792</ele>
        <time>2026-06-17T12:03:23.000Z</time>
        <extensions>
          <ns3:TrackPointExtension>
            <ns3:atemp>16.0</ns3:atemp>
          </ns3:TrackPointExtension>
        </extensions>
      </trkpt>
      <trkpt lat="42.5093846954405307769775390625" lon="19.8965404741466045379638671875">
        <ele>1792</ele>
        <time>2026-06-17T12:03:24.000Z</time>
        <extensions>
          <ns3:TrackPointExtension>
            <ns3:atemp>16.0</ns3:atemp>
          </ns3:TrackPointExtension>
        </extensions>
      </trkpt>
      <trkpt lat="42.5093846954405307769775390625" lon="19.8965404741466045379638671875">
        <ele>1792</ele>
        <time>2026-06-17T12:03:25.000Z</time>
        <extensions>
          <ns3:TrackPointExtension>
            <ns3:atemp>16.0</ns3:atemp>
          </ns3:TrackPointExtension>
        </extensions>
      </trkpt>
      <trkpt lat="42.5093846954405307769775390625" lon="19.8965404741466045379638671875">
        <ele>1792</ele>
        <time>2026-06-17T12:03:26.000Z</time>
        <extensions>
          <ns3:TrackPointExtension>
            <ns3:atemp>16.0</ns3:atemp>
          </ns3:TrackPointExtension>
        </extensions>
      </trkpt>
      <trkpt lat="42.5093846954405307769775390625" lon="19.8965404741466045379638671875">
        <ele>1792</ele>
        <time>2026-06-17T12:03:27.000Z</time>
        <extensions>
          <ns3:TrackPointExtension>
            <ns3:atemp>16.0</ns3:atemp>
          </ns3:TrackPointExtension>
        </extensions>
      </trkpt>
      <trkpt lat="42.5093846954405307769775390625" lon="19.8965404741466045379638671875">
        <ele>1792</ele>
        <time>2026-06-17T12:03:28.000Z</time>
        <extensions>
          <ns3:TrackPointExtension>
            <ns3:atemp>16.0</ns3:atemp>
          </ns3:TrackPointExtension>
        </extensions>
      </trkpt>
      <trkpt lat="42.5093846954405307769775390625" lon="19.8965404741466045379638671875">
        <ele>1792</ele>
        <time>2026-06-17T12:03:29.000Z</time>
        <extensions>
          <ns3:TrackPointExtension>
            <ns3:atemp>16.0</ns3:atemp>
          </ns3:TrackPointExtension>
        </extensions>
      </trkpt>
      <trkpt lat="42.5093846954405307769775390625" lon="19.8965404741466045379638671875">
        <ele>1792</ele>
        <time>2026-06-17T12:03:30.000Z</time>
        <extensions>
          <ns3:TrackPointExtension>
            <ns3:atemp>16.0</ns3:atemp>
          </ns3:TrackPointExtension>
        </extensions>
      </trkpt>
      <trkpt lat="42.5093846954405307769775390625" lon="19.8965404741466045379638671875">
        <ele>1792</ele>
        <time>2026-06-17T12:03:31.000Z</time>
        <extensions>
          <ns3:TrackPointExtension>
            <ns3:atemp>16.0</ns3:atemp>
          </ns3:TrackPointExtension>
        </extensions>
      </trkpt>
      <trkpt lat="42.5093846954405307769775390625" lon="19.8965404741466045379638671875">
        <ele>1792</ele>
        <time>2026-06-17T12:03:32.000Z</time>
        <extensions>
          <ns3:TrackPointExtension>
            <ns3:atemp>16.0</ns3:atemp>
          </ns3:TrackPointExtension>
        </extensions>
      </trkpt>
      <trkpt lat="42.5093846954405307769775390625" lon="19.8965404741466045379638671875">
        <ele>1792</ele>
        <time>2026-06-17T12:03:33.000Z</time>
        <extensions>
          <ns3:TrackPointExtension>
            <ns3:atemp>16.0</ns3:atemp>
          </ns3:TrackPointExtension>
        </extensions>
      </trkpt>
      <trkpt lat="42.5093846954405307769775390625" lon="19.8965404741466045379638671875">
        <ele>1792</ele>
        <time>2026-06-17T12:03:34.000Z</time>
        <extensions>
          <ns3:TrackPointExtension>
            <ns3:atemp>16.0</ns3:atemp>
          </ns3:TrackPointExtension>
        </extensions>
      </trkpt>
      <trkpt lat="42.5093846954405307769775390625" lon="19.8965404741466045379638671875">
        <ele>1792.199951171875</ele>
        <time>2026-06-17T12:03:35.000Z</time>
        <extensions>
          <ns3:TrackPointExtension>
            <ns3:atemp>16.0</ns3:atemp>
          </ns3:TrackPointExtension>
        </extensions>
      </trkpt>
      <trkpt lat="42.5093846954405307769775390625" lon="19.8965404741466045379638671875">
        <ele>1792.199951171875</ele>
        <time>2026-06-17T12:03:36.000Z</time>
        <extensions>
          <ns3:TrackPointExtension>
            <ns3:atemp>16.0</ns3:atemp>
          </ns3:TrackPointExtension>
        </extensions>
      </trkpt>
      <trkpt lat="42.5093846954405307769775390625" lon="19.8965404741466045379638671875">
        <ele>1792.199951171875</ele>
        <time>2026-06-17T12:03:37.000Z</time>
        <extensions>
          <ns3:TrackPointExtension>
            <ns3:atemp>16.0</ns3:atemp>
          </ns3:TrackPointExtension>
        </extensions>
      </trkpt>
      <trkpt lat="42.5093846954405307769775390625" lon="19.8965404741466045379638671875">
        <ele>1792.199951171875</ele>
        <time>2026-06-17T12:03:38.000Z</time>
        <extensions>
          <ns3:TrackPointExtension>
            <ns3:atemp>16.0</ns3:atemp>
          </ns3:TrackPointExtension>
        </extensions>
      </trkpt>
      <trkpt lat="42.5093846954405307769775390625" lon="19.8965404741466045379638671875">
        <ele>1792.199951171875</ele>
        <time>2026-06-17T12:03:39.000Z</time>
        <extensions>
          <ns3:TrackPointExtension>
            <ns3:atemp>16.0</ns3:atemp>
          </ns3:TrackPointExtension>
        </extensions>
      </trkpt>
      <trkpt lat="42.5093846954405307769775390625" lon="19.8965404741466045379638671875">
        <ele>1792.199951171875</ele>
        <time>2026-06-17T12:03:40.000Z</time>
        <extensions>
          <ns3:TrackPointExtension>
            <ns3:atemp>16.0</ns3:atemp>
          </ns3:TrackPointExtension>
        </extensions>
      </trkpt>
      <trkpt lat="42.5093846954405307769775390625" lon="19.8965404741466045379638671875">
        <ele>1792.199951171875</ele>
        <time>2026-06-17T12:03:41.000Z</time>
        <extensions>
          <ns3:TrackPointExtension>
            <ns3:atemp>16.0</ns3:atemp>
          </ns3:TrackPointExtension>
        </extensions>
      </trkpt>
      <trkpt lat="42.5093846954405307769775390625" lon="19.8965404741466045379638671875">
        <ele>1792.199951171875</ele>
        <time>2026-06-17T12:03:42.000Z</time>
        <extensions>
          <ns3:TrackPointExtension>
            <ns3:atemp>16.0</ns3:atemp>
          </ns3:TrackPointExtension>
        </extensions>
      </trkpt>
      <trkpt lat="42.5093846954405307769775390625" lon="19.8965404741466045379638671875">
        <ele>1792.199951171875</ele>
        <time>2026-06-17T12:03:43.000Z</time>
        <extensions>
          <ns3:TrackPointExtension>
            <ns3:atemp>16.0</ns3:atemp>
          </ns3:TrackPointExtension>
        </extensions>
      </trkpt>
      <trkpt lat="42.5093846954405307769775390625" lon="19.8965404741466045379638671875">
        <ele>1792.199951171875</ele>
        <time>2026-06-17T12:03:44.000Z</time>
        <extensions>
          <ns3:TrackPointExtension>
            <ns3:atemp>16.0</ns3:atemp>
          </ns3:TrackPointExtension>
        </extensions>
      </trkpt>
      <trkpt lat="42.5093846954405307769775390625" lon="19.8965404741466045379638671875">
        <ele>1792.199951171875</ele>
        <time>2026-06-17T12:03:45.000Z</time>
        <extensions>
          <ns3:TrackPointExtension>
            <ns3:atemp>16.0</ns3:atemp>
          </ns3:TrackPointExtension>
        </extensions>
      </trkpt>
      <trkpt lat="42.5093846954405307769775390625" lon="19.8965404741466045379638671875">
        <ele>1792.199951171875</ele>
        <time>2026-06-17T12:03:46.000Z</time>
        <extensions>
          <ns3:TrackPointExtension>
            <ns3:atemp>16.0</ns3:atemp>
          </ns3:TrackPointExtension>
        </extensions>
      </trkpt>
      <trkpt lat="42.5093846954405307769775390625" lon="19.8965404741466045379638671875">
        <ele>1792.199951171875</ele>
        <time>2026-06-17T12:03:47.000Z</time>
        <extensions>
          <ns3:TrackPointExtension>
            <ns3:atemp>16.0</ns3:atemp>
          </ns3:TrackPointExtension>
        </extensions>
      </trkpt>
      <trkpt lat="42.5093846954405307769775390625" lon="19.8965404741466045379638671875">
        <ele>1792.199951171875</ele>
        <time>2026-06-17T12:03:48.000Z</time>
        <extensions>
          <ns3:TrackPointExtension>
            <ns3:atemp>16.0</ns3:atemp>
          </ns3:TrackPointExtension>
        </extensions>
      </trkpt>
      <trkpt lat="42.5093846954405307769775390625" lon="19.8965404741466045379638671875">
        <ele>1792.199951171875</ele>
        <time>2026-06-17T12:03:49.000Z</time>
        <extensions>
          <ns3:TrackPointExtension>
            <ns3:atemp>16.0</ns3:atemp>
          </ns3:TrackPointExtension>
        </extensions>
      </trkpt>
      <trkpt lat="42.5093846954405307769775390625" lon="19.8965404741466045379638671875">
        <ele>1792.199951171875</ele>
        <time>2026-06-17T12:03:50.000Z</time>
        <extensions>
          <ns3:TrackPointExtension>
            <ns3:atemp>16.0</ns3:atemp>
          </ns3:TrackPointExtension>
        </extensions>
      </trkpt>
      <trkpt lat="42.5093846954405307769775390625" lon="19.8965404741466045379638671875">
        <ele>1792.199951171875</ele>
        <time>2026-06-17T12:03:51.000Z</time>
        <extensions>
          <ns3:TrackPointExtension>
            <ns3:atemp>16.0</ns3:atemp>
          </ns3:TrackPointExtension>
        </extensions>
      </trkpt>
      <trkpt lat="42.5093846954405307769775390625" lon="19.8965404741466045379638671875">
        <ele>1792.199951171875</ele>
        <time>2026-06-17T12:03:52.000Z</time>
        <extensions>
          <ns3:TrackPointExtension>
            <ns3:atemp>16.0</ns3:atemp>
          </ns3:TrackPointExtension>
        </extensions>
      </trkpt>
      <trkpt lat="42.5093846954405307769775390625" lon="19.8965404741466045379638671875">
        <ele>1792.199951171875</ele>
        <time>2026-06-17T12:03:53.000Z</time>
        <extensions>
          <ns3:TrackPointExtension>
            <ns3:atemp>16.0</ns3:atemp>
          </ns3:TrackPointExtension>
        </extensions>
      </trkpt>
      <trkpt lat="42.5093846954405307769775390625" lon="19.8965404741466045379638671875">
        <ele>1792</ele>
        <time>2026-06-17T12:03:54.000Z</time>
        <extensions>
          <ns3:TrackPointExtension>
            <ns3:atemp>16.0</ns3:atemp>
          </ns3:TrackPointExtension>
        </extensions>
      </trkpt>
      <trkpt lat="42.5093846954405307769775390625" lon="19.8965404741466045379638671875">
        <ele>1792</ele>
        <time>2026-06-17T12:03:55.000Z</time>
        <extensions>
          <ns3:TrackPointExtension>
            <ns3:atemp>16.0</ns3:atemp>
          </ns3:TrackPointExtension>
        </extensions>
      </trkpt>
      <trkpt lat="42.5093846954405307769775390625" lon="19.8965404741466045379638671875">
        <ele>1792</ele>
        <time>2026-06-17T12:03:56.000Z</time>
        <extensions>
          <ns3:TrackPointExtension>
            <ns3:atemp>16.0</ns3:atemp>
          </ns3:TrackPointExtension>
        </extensions>
      </trkpt>
      <trkpt lat="42.5093846954405307769775390625" lon="19.8965404741466045379638671875">
        <ele>1792</ele>
        <time>2026-06-17T12:03:57.000Z</time>
        <extensions>
          <ns3:TrackPointExtension>
            <ns3:atemp>16.0</ns3:atemp>
          </ns3:TrackPointExtension>
        </extensions>
      </trkpt>
      <trkpt lat="42.509382851421833038330078125" lon="19.8965381272137165069580078125">
        <ele>1792</ele>
        <time>2026-06-17T12:03:58.000Z</time>
        <extensions>
          <ns3:TrackPointExtension>
            <ns3:atemp>16.0</ns3:atemp>
          </ns3:TrackPointExtension>
        </extensions>
      </trkpt>
      <trkpt lat="42.50937472097575664520263671875" lon="19.8965151607990264892578125">
        <ele>1792</ele>
        <time>2026-06-17T12:03:59.000Z</time>
        <extensions>
          <ns3:TrackPointExtension>
            <ns3:atemp>16.0</ns3:atemp>
          </ns3:TrackPointExtension>
        </extensions>
      </trkpt>
      <trkpt lat="42.50937379896640777587890625" lon="19.8965042643249034881591796875">
        <ele>1791.800048828125</ele>
        <time>2026-06-17T12:04:00.000Z</time>
        <extensions>
          <ns3:TrackPointExtension>
            <ns3:atemp>16.0</ns3:atemp>
          </ns3:TrackPointExtension>
        </extensions>
      </trkpt>
      <trkpt lat="42.50938980840146541595458984375" lon="19.89649009890854358673095703125">
        <ele>1791.5999755859375</ele>
        <time>2026-06-17T12:04:01.000Z</time>
        <extensions>
          <ns3:TrackPointExtension>
            <ns3:atemp>16.0</ns3:atemp>
          </ns3:TrackPointExtension>
        </extensions>
      </trkpt>
      <trkpt lat="42.50940187834203243255615234375" lon="19.8964576609432697296142578125">
        <ele>1791.199951171875</ele>
        <time>2026-06-17T12:04:02.000Z</time>
        <extensions>
          <ns3:TrackPointExtension>
            <ns3:atemp>16.0</ns3:atemp>
          </ns3:TrackPointExtension>
        </extensions>
      </trkpt>
      <trkpt lat="42.509417049586772918701171875" lon="19.89641927182674407958984375">
        <ele>1791</ele>
        <time>2026-06-17T12:04:03.000Z</time>
        <extensions>
          <ns3:TrackPointExtension>
            <ns3:atemp>16.0</ns3:atemp>
          </ns3:TrackPointExtension>
        </extensions>
      </trkpt>
      <trkpt lat="42.5094336457550525665283203125" lon="19.89640058018267154693603515625">
        <ele>1790.800048828125</ele>
        <time>2026-06-17T12:04:04.000Z</time>
        <extensions>
          <ns3:TrackPointExtension>
            <ns3:atemp>16.0</ns3:atemp>
          </ns3:TrackPointExtension>
        </extensions>
      </trkpt>
      <trkpt lat="42.50944596715271472930908203125" lon="19.89638281054794788360595703125">
        <ele>1790.800048828125</ele>
        <time>2026-06-17T12:04:05.000Z</time>
        <extensions>
          <ns3:TrackPointExtension>
            <ns3:atemp>16.0</ns3:atemp>
          </ns3:TrackPointExtension>
        </extensions>
      </trkpt>
      <trkpt lat="42.509451247751712799072265625" lon="19.89638599567115306854248046875">
        <ele>1790.5999755859375</ele>
        <time>2026-06-17T12:04:06.000Z</time>
        <extensions>
          <ns3:TrackPointExtension>
            <ns3:atemp>16.0</ns3:atemp>
          </ns3:TrackPointExtension>
        </extensions>
      </trkpt>
      <trkpt lat="42.50945921055972576141357421875" lon="19.8963865824043750762939453125">
        <ele>1790.5999755859375</ele>
        <time>2026-06-17T12:04:07.000Z</time>
        <extensions>
          <ns3:TrackPointExtension>
            <ns3:atemp>16.0</ns3:atemp>
          </ns3:TrackPointExtension>
        </extensions>
      </trkpt>
      <trkpt lat="42.50945921055972576141357421875" lon="19.8963865824043750762939453125">
        <ele>1790.5999755859375</ele>
        <time>2026-06-17T12:04:08.000Z</time>
        <extensions>
          <ns3:TrackPointExtension>
            <ns3:atemp>16.0</ns3:atemp>
          </ns3:TrackPointExtension>
        </extensions>
      </trkpt>
      <trkpt lat="42.5094591267406940460205078125" lon="19.89638666622340679168701171875">
        <ele>1790.5999755859375</ele>
        <time>2026-06-17T12:04:09.000Z</time>
        <extensions>
          <ns3:TrackPointExtension>
            <ns3:atemp>16.0</ns3:atemp>
          </ns3:TrackPointExtension>
        </extensions>
      </trkpt>
      <trkpt lat="42.50946306623518466949462890625" lon="19.89637434482574462890625">
        <ele>1790.5999755859375</ele>
        <time>2026-06-17T12:04:10.000Z</time>
        <extensions>
          <ns3:TrackPointExtension>
            <ns3:atemp>16.0</ns3:atemp>
          </ns3:TrackPointExtension>
        </extensions>
      </trkpt>
      <trkpt lat="42.50946633517742156982421875" lon="19.8963634483516216278076171875">
        <ele>1790.4000244140625</ele>
        <time>2026-06-17T12:04:11.000Z</time>
        <extensions>
          <ns3:TrackPointExtension>
            <ns3:atemp>16.0</ns3:atemp>
          </ns3:TrackPointExtension>
        </extensions>
      </trkpt>
      <trkpt lat="42.50947698019444942474365234375" lon="19.8963480256497859954833984375">
        <ele>1790.4000244140625</ele>
        <time>2026-06-17T12:04:12.000Z</time>
        <extensions>
          <ns3:TrackPointExtension>
            <ns3:atemp>16.0</ns3:atemp>
          </ns3:TrackPointExtension>
        </extensions>
      </trkpt>
      <trkpt lat="42.5094844400882720947265625" lon="19.89632933400571346282958984375">
        <ele>1790.199951171875</ele>
        <time>2026-06-17T12:04:13.000Z</time>
        <extensions>
          <ns3:TrackPointExtension>
            <ns3:atemp>16.0</ns3:atemp>
          </ns3:TrackPointExtension>
        </extensions>
      </trkpt>
      <trkpt lat="42.5094919838011264801025390625" lon="19.89630837924778461456298828125">
        <ele>1789.800048828125</ele>
        <time>2026-06-17T12:04:14.000Z</time>
        <extensions>
          <ns3:TrackPointExtension>
            <ns3:atemp>16.0</ns3:atemp>
          </ns3:TrackPointExtension>
        </extensions>
      </trkpt>
      <trkpt lat="42.50950229354202747344970703125" lon="19.89628038369119167327880859375">
        <ele>1789.5999755859375</ele>
        <time>2026-06-17T12:04:15.000Z</time>
        <extensions>
          <ns3:TrackPointExtension>
            <ns3:atemp>16.0</ns3:atemp>
          </ns3:TrackPointExtension>
        </extensions>
      </trkpt>
      <trkpt lat="42.50951436348259449005126953125" lon="19.89626412279903888702392578125">
        <ele>1789.199951171875</ele>
        <time>2026-06-17T12:04:16.000Z</time>
        <extensions>
          <ns3:TrackPointExtension>
            <ns3:atemp>16.0</ns3:atemp>
          </ns3:TrackPointExtension>
        </extensions>
      </trkpt>
      <trkpt lat="42.5095268525183200836181640625" lon="19.89625431597232818603515625">
        <ele>1788.800048828125</ele>
        <time>2026-06-17T12:04:17.000Z</time>
        <extensions>
          <ns3:TrackPointExtension>
            <ns3:atemp>16.0</ns3:atemp>
          </ns3:TrackPointExtension>
        </extensions>
      </trkpt>
      <trkpt lat="42.5095354020595550537109375" lon="19.89623880945146083831787109375">
        <ele>1788.4000244140625</ele>
        <time>2026-06-17T12:04:18.000Z</time>
        <extensions>
          <ns3:TrackPointExtension>
            <ns3:atemp>16.0</ns3:atemp>
          </ns3:TrackPointExtension>
        </extensions>
      </trkpt>
      <trkpt lat="42.5095359049737453460693359375" lon="19.8962296731770038604736328125">
        <ele>1788</ele>
        <time>2026-06-17T12:04:19.000Z</time>
        <extensions>
          <ns3:TrackPointExtension>
            <ns3:atemp>16.0</ns3:atemp>
          </ns3:TrackPointExtension>
        </extensions>
      </trkpt>
      <trkpt lat="42.50953548587858676910400390625" lon="19.8962196148931980133056640625">
        <ele>1787.5999755859375</ele>
        <time>2026-06-17T12:04:20.000Z</time>
        <extensions>
          <ns3:TrackPointExtension>
            <ns3:atemp>17.0</ns3:atemp>
          </ns3:TrackPointExtension>
        </extensions>
      </trkpt>
      <trkpt lat="42.50953531824052333831787109375" lon="19.896221458911895751953125">
        <ele>1787.199951171875</ele>
        <time>2026-06-17T12:04:21.000Z</time>
        <extensions>
          <ns3:TrackPointExtension>
            <ns3:atemp>17.0</ns3:atemp>
          </ns3:TrackPointExtension>
        </extensions>
      </trkpt>
      <trkpt lat="42.50953531824052333831787109375" lon="19.896221458911895751953125">
        <ele>1787</ele>
        <time>2026-06-17T12:04:22.000Z</time>
        <extensions>
          <ns3:TrackPointExtension>
            <ns3:atemp>17.0</ns3:atemp>
          </ns3:TrackPointExtension>
        </extensions>
      </trkpt>
      <trkpt lat="42.50953531824052333831787109375" lon="19.896221458911895751953125">
        <ele>1786.800048828125</ele>
        <time>2026-06-17T12:04:23.000Z</time>
        <extensions>
          <ns3:TrackPointExtension>
            <ns3:atemp>17.0</ns3:atemp>
          </ns3:TrackPointExtension>
        </extensions>
      </trkpt>
      <trkpt lat="42.50953531824052333831787109375" lon="19.896221458911895751953125">
        <ele>1786.800048828125</ele>
        <time>2026-06-17T12:04:24.000Z</time>
        <extensions>
          <ns3:TrackPointExtension>
            <ns3:atemp>17.0</ns3:atemp>
          </ns3:TrackPointExtension>
        </extensions>
      </trkpt>
      <trkpt lat="42.50953531824052333831787109375" lon="19.89622154273092746734619140625">
        <ele>1786.5999755859375</ele>
        <time>2026-06-17T12:04:25.000Z</time>
        <extensions>
          <ns3:TrackPointExtension>
            <ns3:atemp>17.0</ns3:atemp>
          </ns3:TrackPointExtension>
        </extensions>
      </trkpt>
      <trkpt lat="42.5095369108021259307861328125" lon="19.89621249027550220489501953125">
        <ele>1786.5999755859375</ele>
        <time>2026-06-17T12:04:26.000Z</time>
        <extensions>
          <ns3:TrackPointExtension>
            <ns3:atemp>17.0</ns3:atemp>
          </ns3:TrackPointExtension>
        </extensions>
      </trkpt>
      <trkpt lat="42.50954319722950458526611328125" lon="19.89620226435363292694091796875">
        <ele>1786.4000244140625</ele>
        <time>2026-06-17T12:04:27.000Z</time>
        <extensions>
          <ns3:TrackPointExtension>
            <ns3:atemp>17.0</ns3:atemp>
          </ns3:TrackPointExtension>
        </extensions>
      </trkpt>
      <trkpt lat="42.50954772345721721649169921875" lon="19.89618482999503612518310546875">
        <ele>1786.199951171875</ele>
        <time>2026-06-17T12:04:28.000Z</time>
        <extensions>
          <ns3:TrackPointExtension>
            <ns3:atemp>17.0</ns3:atemp>
          </ns3:TrackPointExtension>
        </extensions>
      </trkpt>
      <trkpt lat="42.50955074094235897064208984375" lon="19.896165467798709869384765625">
        <ele>1785.800048828125</ele>
        <time>2026-06-17T12:04:29.000Z</time>
        <extensions>
          <ns3:TrackPointExtension>
            <ns3:atemp>17.0</ns3:atemp>
          </ns3:TrackPointExtension>
        </extensions>
      </trkpt>
      <trkpt lat="42.50954948365688323974609375" lon="19.89614493213593959808349609375">
        <ele>1785.5999755859375</ele>
        <time>2026-06-17T12:04:30.000Z</time>
        <extensions>
          <ns3:TrackPointExtension>
            <ns3:atemp>17.0</ns3:atemp>
          </ns3:TrackPointExtension>
        </extensions>
      </trkpt>
      <trkpt lat="42.50954520888626575469970703125" lon="19.8961290903389453887939453125">
        <ele>1785.199951171875</ele>
        <time>2026-06-17T12:04:31.000Z</time>
        <extensions>
          <ns3:TrackPointExtension>
            <ns3:atemp>17.0</ns3:atemp>
          </ns3:TrackPointExtension>
        </extensions>
      </trkpt>
      <trkpt lat="42.50954546034336090087890625" lon="19.89611039869487285614013671875">
        <ele>1784.800048828125</ele>
        <time>2026-06-17T12:04:32.000Z</time>
        <extensions>
          <ns3:TrackPointExtension>
            <ns3:atemp>17.0</ns3:atemp>
          </ns3:TrackPointExtension>
        </extensions>
      </trkpt>
      <trkpt lat="42.5095461308956146240234375" lon="19.89609204232692718505859375">
        <ele>1784.199951171875</ele>
        <time>2026-06-17T12:04:33.000Z</time>
        <extensions>
          <ns3:TrackPointExtension>
            <ns3:atemp>17.0</ns3:atemp>
          </ns3:TrackPointExtension>
        </extensions>
      </trkpt>
      <trkpt lat="42.509553171694278717041015625" lon="19.89607938565313816070556640625">
        <ele>1783.800048828125</ele>
        <time>2026-06-17T12:04:34.000Z</time>
        <extensions>
          <ns3:TrackPointExtension>
            <ns3:atemp>17.0</ns3:atemp>
          </ns3:TrackPointExtension>
        </extensions>
      </trkpt>
      <trkpt lat="42.50956649892032146453857421875" lon="19.89606924355030059814453125">
        <ele>1783.4000244140625</ele>
        <time>2026-06-17T12:04:35.000Z</time>
        <extensions>
          <ns3:TrackPointExtension>
            <ns3:atemp>17.0</ns3:atemp>
          </ns3:TrackPointExtension>
        </extensions>
      </trkpt>
      <trkpt lat="42.5095764733850955963134765625" lon="19.89605491049587726593017578125">
        <ele>1783</ele>
        <time>2026-06-17T12:04:36.000Z</time>
        <extensions>
          <ns3:TrackPointExtension>
            <ns3:atemp>17.0</ns3:atemp>
          </ns3:TrackPointExtension>
        </extensions>
      </trkpt>
      <trkpt lat="42.50957764685153961181640625" lon="19.89603395573794841766357421875">
        <ele>1782.4000244140625</ele>
        <time>2026-06-17T12:04:37.000Z</time>
        <extensions>
          <ns3:TrackPointExtension>
            <ns3:atemp>17.0</ns3:atemp>
          </ns3:TrackPointExtension>
        </extensions>
      </trkpt>
      <trkpt lat="42.50958192162215709686279296875" lon="19.8960221372544765472412109375">
        <ele>1782</ele>
        <time>2026-06-17T12:04:38.000Z</time>
        <extensions>
          <ns3:TrackPointExtension>
            <ns3:atemp>17.0</ns3:atemp>
          </ns3:TrackPointExtension>
        </extensions>
      </trkpt>
      <trkpt lat="42.5095831789076328277587890625" lon="19.89600176922976970672607421875">
        <ele>1781.4000244140625</ele>
        <time>2026-06-17T12:04:39.000Z</time>
        <extensions>
          <ns3:TrackPointExtension>
            <ns3:atemp>17.0</ns3:atemp>
          </ns3:TrackPointExtension>
        </extensions>
      </trkpt>
      <trkpt lat="42.50958477146923542022705078125" lon="19.895971678197383880615234375">
        <ele>1780.800048828125</ele>
        <time>2026-06-17T12:04:40.000Z</time>
        <extensions>
          <ns3:TrackPointExtension>
            <ns3:atemp>17.0</ns3:atemp>
          </ns3:TrackPointExtension>
        </extensions>
      </trkpt>
      <trkpt lat="42.509575299918651580810546875" lon="19.89595583640038967132568359375">
        <ele>1780.4000244140625</ele>
        <time>2026-06-17T12:04:41.000Z</time>
        <extensions>
          <ns3:TrackPointExtension>
            <ns3:atemp>17.0</ns3:atemp>
          </ns3:TrackPointExtension>
        </extensions>
      </trkpt>
      <trkpt lat="42.509557865560054779052734375" lon="19.89594007842242717742919921875">
        <ele>1779.800048828125</ele>
        <time>2026-06-17T12:04:42.000Z</time>
        <extensions>
          <ns3:TrackPointExtension>
            <ns3:atemp>17.0</ns3:atemp>
          </ns3:TrackPointExtension>
        </extensions>
      </trkpt>
      <trkpt lat="42.509551160037517547607421875" lon="19.89592046476900577545166015625">
        <ele>1779.199951171875</ele>
        <time>2026-06-17T12:04:43.000Z</time>
        <extensions>
          <ns3:TrackPointExtension>
            <ns3:atemp>17.0</ns3:atemp>
          </ns3:TrackPointExtension>
        </extensions>
      </trkpt>
      <trkpt lat="42.50955141149461269378662109375" lon="19.89589297212660312652587890625">
        <ele>1778.800048828125</ele>
        <time>2026-06-17T12:04:44.000Z</time>
        <extensions>
          <ns3:TrackPointExtension>
            <ns3:atemp>17.0</ns3:atemp>
          </ns3:TrackPointExtension>
        </extensions>
      </trkpt>
      <trkpt lat="42.5095506571233272552490234375" lon="19.89585575647652149200439453125">
        <ele>1778.199951171875</ele>
        <time>2026-06-17T12:04:45.000Z</time>
        <extensions>
          <ns3:TrackPointExtension>
            <ns3:atemp>17.0</ns3:atemp>
          </ns3:TrackPointExtension>
        </extensions>
      </trkpt>
      <trkpt lat="42.509544789791107177734375" lon="19.8958303593099117279052734375">
        <ele>1777.5999755859375</ele>
        <time>2026-06-17T12:04:46.000Z</time>
        <extensions>
          <ns3:TrackPointExtension>
            <ns3:atemp>17.0</ns3:atemp>
          </ns3:TrackPointExtension>
        </extensions>
      </trkpt>
      <trkpt lat="42.509525679051876068115234375" lon="19.8958122543990612030029296875">
        <ele>1777.199951171875</ele>
        <time>2026-06-17T12:04:47.000Z</time>
        <extensions>
          <ns3:TrackPointExtension>
            <ns3:atemp>17.0</ns3:atemp>
          </ns3:TrackPointExtension>
        </extensions>
      </trkpt>
      <trkpt lat="42.509508244693279266357421875" lon="19.8958072252571582794189453125">
        <ele>1776.800048828125</ele>
        <time>2026-06-17T12:04:48.000Z</time>
        <extensions>
          <ns3:TrackPointExtension>
            <ns3:atemp>17.0</ns3:atemp>
          </ns3:TrackPointExtension>
        </extensions>
      </trkpt>
      <trkpt lat="42.50949625857174396514892578125" lon="19.8957988433539867401123046875">
        <ele>1776.5999755859375</ele>
        <time>2026-06-17T12:04:49.000Z</time>
        <extensions>
          <ns3:TrackPointExtension>
            <ns3:atemp>17.0</ns3:atemp>
          </ns3:TrackPointExtension>
        </extensions>
      </trkpt>
      <trkpt lat="42.50949676148593425750732421875" lon="19.89580663852393627166748046875">
        <ele>1776.199951171875</ele>
        <time>2026-06-17T12:04:50.000Z</time>
        <extensions>
          <ns3:TrackPointExtension>
            <ns3:atemp>17.0</ns3:atemp>
          </ns3:TrackPointExtension>
        </extensions>
      </trkpt>
      <trkpt lat="42.50949910841882228851318359375" lon="19.89580613560974597930908203125">
        <ele>1776</ele>
        <time>2026-06-17T12:04:51.000Z</time>
        <extensions>
          <ns3:TrackPointExtension>
            <ns3:atemp>17.0</ns3:atemp>
          </ns3:TrackPointExtension>
        </extensions>
      </trkpt>
      <trkpt lat="42.5094990245997905731201171875" lon="19.89580613560974597930908203125">
        <ele>1775.800048828125</ele>
        <time>2026-06-17T12:04:52.000Z</time>
        <extensions>
          <ns3:TrackPointExtension>
            <ns3:atemp>17.0</ns3:atemp>
          </ns3:TrackPointExtension>
        </extensions>
      </trkpt>
      <trkpt lat="42.5094990245997905731201171875" lon="19.89580613560974597930908203125">
        <ele>1775.5999755859375</ele>
        <time>2026-06-17T12:04:53.000Z</time>
        <extensions>
          <ns3:TrackPointExtension>
            <ns3:atemp>17.0</ns3:atemp>
          </ns3:TrackPointExtension>
        </extensions>
      </trkpt>
      <trkpt lat="42.5094990245997905731201171875" lon="19.89580613560974597930908203125">
        <ele>1775.5999755859375</ele>
        <time>2026-06-17T12:04:54.000Z</time>
        <extensions>
          <ns3:TrackPointExtension>
            <ns3:atemp>17.0</ns3:atemp>
          </ns3:TrackPointExtension>
        </extensions>
      </trkpt>
      <trkpt lat="42.5094990245997905731201171875" lon="19.89580613560974597930908203125">
        <ele>1775.5999755859375</ele>
        <time>2026-06-17T12:04:55.000Z</time>
        <extensions>
          <ns3:TrackPointExtension>
            <ns3:atemp>17.0</ns3:atemp>
          </ns3:TrackPointExtension>
        </extensions>
      </trkpt>
      <trkpt lat="42.5094990245997905731201171875" lon="19.89580613560974597930908203125">
        <ele>1775.5999755859375</ele>
        <time>2026-06-17T12:04:56.000Z</time>
        <extensions>
          <ns3:TrackPointExtension>
            <ns3:atemp>17.0</ns3:atemp>
          </ns3:TrackPointExtension>
        </extensions>
      </trkpt>
      <trkpt lat="42.5094990245997905731201171875" lon="19.89580613560974597930908203125">
        <ele>1775.5999755859375</ele>
        <time>2026-06-17T12:04:57.000Z</time>
        <extensions>
          <ns3:TrackPointExtension>
            <ns3:atemp>17.0</ns3:atemp>
          </ns3:TrackPointExtension>
        </extensions>
      </trkpt>
      <trkpt lat="42.5094990245997905731201171875" lon="19.89580613560974597930908203125">
        <ele>1775.5999755859375</ele>
        <time>2026-06-17T12:04:58.000Z</time>
        <extensions>
          <ns3:TrackPointExtension>
            <ns3:atemp>17.0</ns3:atemp>
          </ns3:TrackPointExtension>
        </extensions>
      </trkpt>
      <trkpt lat="42.5094990245997905731201171875" lon="19.89580613560974597930908203125">
        <ele>1775.5999755859375</ele>
        <time>2026-06-17T12:04:59.000Z</time>
        <extensions>
          <ns3:TrackPointExtension>
            <ns3:atemp>17.0</ns3:atemp>
          </ns3:TrackPointExtension>
        </extensions>
      </trkpt>
      <trkpt lat="42.5094990245997905731201171875" lon="19.89580613560974597930908203125">
        <ele>1775.5999755859375</ele>
        <time>2026-06-17T12:05:00.000Z</time>
        <extensions>
          <ns3:TrackPointExtension>
            <ns3:atemp>17.0</ns3:atemp>
          </ns3:TrackPointExtension>
        </extensions>
      </trkpt>
      <trkpt lat="42.5094990245997905731201171875" lon="19.89580613560974597930908203125">
        <ele>1775.5999755859375</ele>
        <time>2026-06-17T12:05:01.000Z</time>
        <extensions>
          <ns3:TrackPointExtension>
            <ns3:atemp>17.0</ns3:atemp>
          </ns3:TrackPointExtension>
        </extensions>
      </trkpt>
      <trkpt lat="42.5094990245997905731201171875" lon="19.89580613560974597930908203125">
        <ele>1775.5999755859375</ele>
        <time>2026-06-17T12:05:02.000Z</time>
        <extensions>
          <ns3:TrackPointExtension>
            <ns3:atemp>17.0</ns3:atemp>
          </ns3:TrackPointExtension>
        </extensions>
      </trkpt>
      <trkpt lat="42.5094990245997905731201171875" lon="19.89580613560974597930908203125">
        <ele>1775.5999755859375</ele>
        <time>2026-06-17T12:05:03.000Z</time>
        <extensions>
          <ns3:TrackPointExtension>
            <ns3:atemp>17.0</ns3:atemp>
          </ns3:TrackPointExtension>
        </extensions>
      </trkpt>
      <trkpt lat="42.5094990245997905731201171875" lon="19.89580613560974597930908203125">
        <ele>1775.5999755859375</ele>
        <time>2026-06-17T12:05:04.000Z</time>
        <extensions>
          <ns3:TrackPointExtension>
            <ns3:atemp>17.0</ns3:atemp>
          </ns3:TrackPointExtension>
        </extensions>
      </trkpt>
      <trkpt lat="42.5094990245997905731201171875" lon="19.89580613560974597930908203125">
        <ele>1775.5999755859375</ele>
        <time>2026-06-17T12:05:05.000Z</time>
        <extensions>
          <ns3:TrackPointExtension>
            <ns3:atemp>17.0</ns3:atemp>
          </ns3:TrackPointExtension>
        </extensions>
      </trkpt>
      <trkpt lat="42.5094990245997905731201171875" lon="19.89580613560974597930908203125">
        <ele>1775.5999755859375</ele>
        <time>2026-06-17T12:05:06.000Z</time>
        <extensions>
          <ns3:TrackPointExtension>
            <ns3:atemp>17.0</ns3:atemp>
          </ns3:TrackPointExtension>
        </extensions>
      </trkpt>
      <trkpt lat="42.5094990245997905731201171875" lon="19.89580613560974597930908203125">
        <ele>1775.800048828125</ele>
        <time>2026-06-17T12:05:07.000Z</time>
        <extensions>
          <ns3:TrackPointExtension>
            <ns3:atemp>17.0</ns3:atemp>
          </ns3:TrackPointExtension>
        </extensions>
      </trkpt>
      <trkpt lat="42.5094990245997905731201171875" lon="19.89580613560974597930908203125">
        <ele>1775.800048828125</ele>
        <time>2026-06-17T12:05:08.000Z</time>
        <extensions>
          <ns3:TrackPointExtension>
            <ns3:atemp>17.0</ns3:atemp>
          </ns3:TrackPointExtension>
        </extensions>
      </trkpt>
      <trkpt lat="42.5094990245997905731201171875" lon="19.89580613560974597930908203125">
        <ele>1775.800048828125</ele>
        <time>2026-06-17T12:05:09.000Z</time>
        <extensions>
          <ns3:TrackPointExtension>
            <ns3:atemp>17.0</ns3:atemp>
          </ns3:TrackPointExtension>
        </extensions>
      </trkpt>
      <trkpt lat="42.5094990245997905731201171875" lon="19.89580613560974597930908203125">
        <ele>1775.800048828125</ele>
        <time>2026-06-17T12:05:10.000Z</time>
        <extensions>
          <ns3:TrackPointExtension>
            <ns3:atemp>17.0</ns3:atemp>
          </ns3:TrackPointExtension>
        </extensions>
      </trkpt>
      <trkpt lat="42.5094990245997905731201171875" lon="19.89580613560974597930908203125">
        <ele>1775.800048828125</ele>
        <time>2026-06-17T12:05:11.000Z</time>
        <extensions>
          <ns3:TrackPointExtension>
            <ns3:atemp>17.0</ns3:atemp>
          </ns3:TrackPointExtension>
        </extensions>
      </trkpt>
      <trkpt lat="42.5094990245997905731201171875" lon="19.89580613560974597930908203125">
        <ele>1775.5999755859375</ele>
        <time>2026-06-17T12:05:12.000Z</time>
        <extensions>
          <ns3:TrackPointExtension>
            <ns3:atemp>17.0</ns3:atemp>
          </ns3:TrackPointExtension>
        </extensions>
      </trkpt>
      <trkpt lat="42.5094990245997905731201171875" lon="19.89580613560974597930908203125">
        <ele>1775.5999755859375</ele>
        <time>2026-06-17T12:05:13.000Z</time>
        <extensions>
          <ns3:TrackPointExtension>
            <ns3:atemp>17.0</ns3:atemp>
          </ns3:TrackPointExtension>
        </extensions>
      </trkpt>
      <trkpt lat="42.5094990245997905731201171875" lon="19.89580613560974597930908203125">
        <ele>1775.5999755859375</ele>
        <time>2026-06-17T12:05:14.000Z</time>
        <extensions>
          <ns3:TrackPointExtension>
            <ns3:atemp>17.0</ns3:atemp>
          </ns3:TrackPointExtension>
        </extensions>
      </trkpt>
      <trkpt lat="42.5094990245997905731201171875" lon="19.89580613560974597930908203125">
        <ele>1775.5999755859375</ele>
        <time>2026-06-17T12:05:15.000Z</time>
        <extensions>
          <ns3:TrackPointExtension>
            <ns3:atemp>17.0</ns3:atemp>
          </ns3:TrackPointExtension>
        </extensions>
      </trkpt>
      <trkpt lat="42.5094990245997905731201171875" lon="19.89580613560974597930908203125">
        <ele>1775.5999755859375</ele>
        <time>2026-06-17T12:05:16.000Z</time>
        <extensions>
          <ns3:TrackPointExtension>
            <ns3:atemp>17.0</ns3:atemp>
          </ns3:TrackPointExtension>
        </extensions>
      </trkpt>
      <trkpt lat="42.5094990245997905731201171875" lon="19.89580613560974597930908203125">
        <ele>1775.5999755859375</ele>
        <time>2026-06-17T12:05:17.000Z</time>
        <extensions>
          <ns3:TrackPointExtension>
            <ns3:atemp>17.0</ns3:atemp>
          </ns3:TrackPointExtension>
        </extensions>
      </trkpt>
      <trkpt lat="42.5094990245997905731201171875" lon="19.89580613560974597930908203125">
        <ele>1775.5999755859375</ele>
        <time>2026-06-17T12:05:18.000Z</time>
        <extensions>
          <ns3:TrackPointExtension>
            <ns3:atemp>17.0</ns3:atemp>
          </ns3:TrackPointExtension>
        </extensions>
      </trkpt>
      <trkpt lat="42.5094990245997905731201171875" lon="19.89580613560974597930908203125">
        <ele>1775.5999755859375</ele>
        <time>2026-06-17T12:05:19.000Z</time>
        <extensions>
          <ns3:TrackPointExtension>
            <ns3:atemp>17.0</ns3:atemp>
          </ns3:TrackPointExtension>
        </extensions>
      </trkpt>
      <trkpt lat="42.5094990245997905731201171875" lon="19.89580613560974597930908203125">
        <ele>1775.5999755859375</ele>
        <time>2026-06-17T12:05:20.000Z</time>
        <extensions>
          <ns3:TrackPointExtension>
            <ns3:atemp>17.0</ns3:atemp>
          </ns3:TrackPointExtension>
        </extensions>
      </trkpt>
      <trkpt lat="42.5094990245997905731201171875" lon="19.89580613560974597930908203125">
        <ele>1775.5999755859375</ele>
        <time>2026-06-17T12:05:21.000Z</time>
        <extensions>
          <ns3:TrackPointExtension>
            <ns3:atemp>17.0</ns3:atemp>
          </ns3:TrackPointExtension>
        </extensions>
      </trkpt>
      <trkpt lat="42.5094990245997905731201171875" lon="19.89580613560974597930908203125">
        <ele>1775.5999755859375</ele>
        <time>2026-06-17T12:05:22.000Z</time>
        <extensions>
          <ns3:TrackPointExtension>
            <ns3:atemp>17.0</ns3:atemp>
          </ns3:TrackPointExtension>
        </extensions>
      </trkpt>
      <trkpt lat="42.5094990245997905731201171875" lon="19.89580613560974597930908203125">
        <ele>1775.4000244140625</ele>
        <time>2026-06-17T12:05:23.000Z</time>
        <extensions>
          <ns3:TrackPointExtension>
            <ns3:atemp>17.0</ns3:atemp>
          </ns3:TrackPointExtension>
        </extensions>
      </trkpt>
      <trkpt lat="42.5094990245997905731201171875" lon="19.89580613560974597930908203125">
        <ele>1775.4000244140625</ele>
        <time>2026-06-17T12:05:24.000Z</time>
        <extensions>
          <ns3:TrackPointExtension>
            <ns3:atemp>17.0</ns3:atemp>
          </ns3:TrackPointExtension>
        </extensions>
      </trkpt>
      <trkpt lat="42.5094990245997905731201171875" lon="19.89580613560974597930908203125">
        <ele>1775.4000244140625</ele>
        <time>2026-06-17T12:05:25.000Z</time>
        <extensions>
          <ns3:TrackPointExtension>
            <ns3:atemp>17.0</ns3:atemp>
          </ns3:TrackPointExtension>
        </extensions>
      </trkpt>
      <trkpt lat="42.5094990245997905731201171875" lon="19.89580613560974597930908203125">
        <ele>1775.4000244140625</ele>
        <time>2026-06-17T12:05:26.000Z</time>
        <extensions>
          <ns3:TrackPointExtension>
            <ns3:atemp>17.0</ns3:atemp>
          </ns3:TrackPointExtension>
        </extensions>
      </trkpt>
      <trkpt lat="42.5094990245997905731201171875" lon="19.89580613560974597930908203125">
        <ele>1775.5999755859375</ele>
        <time>2026-06-17T12:05:27.000Z</time>
        <extensions>
          <ns3:TrackPointExtension>
            <ns3:atemp>17.0</ns3:atemp>
          </ns3:TrackPointExtension>
        </extensions>
      </trkpt>
      <trkpt lat="42.5094990245997905731201171875" lon="19.89580613560974597930908203125">
        <ele>1775.5999755859375</ele>
        <time>2026-06-17T12:05:28.000Z</time>
        <extensions>
          <ns3:TrackPointExtension>
            <ns3:atemp>17.0</ns3:atemp>
          </ns3:TrackPointExtension>
        </extensions>
      </trkpt>
      <trkpt lat="42.5094990245997905731201171875" lon="19.89580613560974597930908203125">
        <ele>1775.5999755859375</ele>
        <time>2026-06-17T12:05:29.000Z</time>
        <extensions>
          <ns3:TrackPointExtension>
            <ns3:atemp>17.0</ns3:atemp>
          </ns3:TrackPointExtension>
        </extensions>
      </trkpt>
      <trkpt lat="42.5094990245997905731201171875" lon="19.89580613560974597930908203125">
        <ele>1775.5999755859375</ele>
        <time>2026-06-17T12:05:30.000Z</time>
        <extensions>
          <ns3:TrackPointExtension>
            <ns3:atemp>17.0</ns3:atemp>
          </ns3:TrackPointExtension>
        </extensions>
      </trkpt>
      <trkpt lat="42.5094990245997905731201171875" lon="19.89580613560974597930908203125">
        <ele>1775.5999755859375</ele>
        <time>2026-06-17T12:05:31.000Z</time>
        <extensions>
          <ns3:TrackPointExtension>
            <ns3:atemp>17.0</ns3:atemp>
          </ns3:TrackPointExtension>
        </extensions>
      </trkpt>
      <trkpt lat="42.5094990245997905731201171875" lon="19.89580613560974597930908203125">
        <ele>1775.5999755859375</ele>
        <time>2026-06-17T12:05:32.000Z</time>
        <extensions>
          <ns3:TrackPointExtension>
            <ns3:atemp>17.0</ns3:atemp>
          </ns3:TrackPointExtension>
        </extensions>
      </trkpt>
      <trkpt lat="42.5094990245997905731201171875" lon="19.89580613560974597930908203125">
        <ele>1775.5999755859375</ele>
        <time>2026-06-17T12:05:33.000Z</time>
        <extensions>
          <ns3:TrackPointExtension>
            <ns3:atemp>17.0</ns3:atemp>
          </ns3:TrackPointExtension>
        </extensions>
      </trkpt>
      <trkpt lat="42.5094990245997905731201171875" lon="19.89580613560974597930908203125">
        <ele>1775.5999755859375</ele>
        <time>2026-06-17T12:05:34.000Z</time>
        <extensions>
          <ns3:TrackPointExtension>
            <ns3:atemp>17.0</ns3:atemp>
          </ns3:TrackPointExtension>
        </extensions>
      </trkpt>
      <trkpt lat="42.5094990245997905731201171875" lon="19.89580613560974597930908203125">
        <ele>1775.5999755859375</ele>
        <time>2026-06-17T12:05:35.000Z</time>
        <extensions>
          <ns3:TrackPointExtension>
            <ns3:atemp>17.0</ns3:atemp>
          </ns3:TrackPointExtension>
        </extensions>
      </trkpt>
      <trkpt lat="42.5094990245997905731201171875" lon="19.89580613560974597930908203125">
        <ele>1775.5999755859375</ele>
        <time>2026-06-17T12:05:36.000Z</time>
        <extensions>
          <ns3:TrackPointExtension>
            <ns3:atemp>17.0</ns3:atemp>
          </ns3:TrackPointExtension>
        </extensions>
      </trkpt>
      <trkpt lat="42.5094990245997905731201171875" lon="19.89580613560974597930908203125">
        <ele>1775.5999755859375</ele>
        <time>2026-06-17T12:05:37.000Z</time>
        <extensions>
          <ns3:TrackPointExtension>
            <ns3:atemp>17.0</ns3:atemp>
          </ns3:TrackPointExtension>
        </extensions>
      </trkpt>
      <trkpt lat="42.5094990245997905731201171875" lon="19.89580613560974597930908203125">
        <ele>1775.4000244140625</ele>
        <time>2026-06-17T12:05:38.000Z</time>
        <extensions>
          <ns3:TrackPointExtension>
            <ns3:atemp>17.0</ns3:atemp>
          </ns3:TrackPointExtension>
        </extensions>
      </trkpt>
      <trkpt lat="42.5094990245997905731201171875" lon="19.89580613560974597930908203125">
        <ele>1775.4000244140625</ele>
        <time>2026-06-17T12:05:39.000Z</time>
        <extensions>
          <ns3:TrackPointExtension>
            <ns3:atemp>17.0</ns3:atemp>
          </ns3:TrackPointExtension>
        </extensions>
      </trkpt>
      <trkpt lat="42.5094990245997905731201171875" lon="19.89580613560974597930908203125">
        <ele>1775.4000244140625</ele>
        <time>2026-06-17T12:05:40.000Z</time>
        <extensions>
          <ns3:TrackPointExtension>
            <ns3:atemp>17.0</ns3:atemp>
          </ns3:TrackPointExtension>
        </extensions>
      </trkpt>
      <trkpt lat="42.5094990245997905731201171875" lon="19.89580613560974597930908203125">
        <ele>1775.4000244140625</ele>
        <time>2026-06-17T12:05:41.000Z</time>
        <extensions>
          <ns3:TrackPointExtension>
            <ns3:atemp>17.0</ns3:atemp>
          </ns3:TrackPointExtension>
        </extensions>
      </trkpt>
      <trkpt lat="42.5094990245997905731201171875" lon="19.89580613560974597930908203125">
        <ele>1775.4000244140625</ele>
        <time>2026-06-17T12:05:42.000Z</time>
        <extensions>
          <ns3:TrackPointExtension>
            <ns3:atemp>17.0</ns3:atemp>
          </ns3:TrackPointExtension>
        </extensions>
      </trkpt>
      <trkpt lat="42.5094990245997905731201171875" lon="19.89580613560974597930908203125">
        <ele>1775.4000244140625</ele>
        <time>2026-06-17T12:05:43.000Z</time>
        <extensions>
          <ns3:TrackPointExtension>
            <ns3:atemp>17.0</ns3:atemp>
          </ns3:TrackPointExtension>
        </extensions>
      </trkpt>
      <trkpt lat="42.5094990245997905731201171875" lon="19.89580613560974597930908203125">
        <ele>1775.4000244140625</ele>
        <time>2026-06-17T12:05:44.000Z</time>
        <extensions>
          <ns3:TrackPointExtension>
            <ns3:atemp>17.0</ns3:atemp>
          </ns3:TrackPointExtension>
        </extensions>
      </trkpt>
      <trkpt lat="42.5094990245997905731201171875" lon="19.89580613560974597930908203125">
        <ele>1775.4000244140625</ele>
        <time>2026-06-17T12:05:45.000Z</time>
        <extensions>
          <ns3:TrackPointExtension>
            <ns3:atemp>17.0</ns3:atemp>
          </ns3:TrackPointExtension>
        </extensions>
      </trkpt>
      <trkpt lat="42.5094976834952831268310546875" lon="19.8958042077720165252685546875">
        <ele>1775.4000244140625</ele>
        <time>2026-06-17T12:05:46.000Z</time>
        <extensions>
          <ns3:TrackPointExtension>
            <ns3:atemp>17.0</ns3:atemp>
          </ns3:TrackPointExtension>
        </extensions>
      </trkpt>
      <trkpt lat="42.5094990245997905731201171875" lon="19.89580613560974597930908203125">
        <ele>1775.4000244140625</ele>
        <time>2026-06-17T12:05:47.000Z</time>
        <extensions>
          <ns3:TrackPointExtension>
            <ns3:atemp>17.0</ns3:atemp>
          </ns3:TrackPointExtension>
        </extensions>
      </trkpt>
      <trkpt lat="42.5094990245997905731201171875" lon="19.89580613560974597930908203125">
        <ele>1775.4000244140625</ele>
        <time>2026-06-17T12:05:48.000Z</time>
        <extensions>
          <ns3:TrackPointExtension>
            <ns3:atemp>17.0</ns3:atemp>
          </ns3:TrackPointExtension>
        </extensions>
      </trkpt>
      <trkpt lat="42.5094990245997905731201171875" lon="19.89580613560974597930908203125">
        <ele>1775.4000244140625</ele>
        <time>2026-06-17T12:05:49.000Z</time>
        <extensions>
          <ns3:TrackPointExtension>
            <ns3:atemp>17.0</ns3:atemp>
          </ns3:TrackPointExtension>
        </extensions>
      </trkpt>
      <trkpt lat="42.5094990245997905731201171875" lon="19.89580613560974597930908203125">
        <ele>1775.4000244140625</ele>
        <time>2026-06-17T12:05:50.000Z</time>
        <extensions>
          <ns3:TrackPointExtension>
            <ns3:atemp>17.0</ns3:atemp>
          </ns3:TrackPointExtension>
        </extensions>
      </trkpt>
      <trkpt lat="42.5094990245997905731201171875" lon="19.89580613560974597930908203125">
        <ele>1775.4000244140625</ele>
        <time>2026-06-17T12:05:51.000Z</time>
        <extensions>
          <ns3:TrackPointExtension>
            <ns3:atemp>17.0</ns3:atemp>
          </ns3:TrackPointExtension>
        </extensions>
      </trkpt>
      <trkpt lat="42.5094990245997905731201171875" lon="19.89580613560974597930908203125">
        <ele>1775.4000244140625</ele>
        <time>2026-06-17T12:05:52.000Z</time>
        <extensions>
          <ns3:TrackPointExtension>
            <ns3:atemp>17.0</ns3:atemp>
          </ns3:TrackPointExtension>
        </extensions>
      </trkpt>
      <trkpt lat="42.5094990245997905731201171875" lon="19.89580613560974597930908203125">
        <ele>1775.4000244140625</ele>
        <time>2026-06-17T12:05:53.000Z</time>
        <extensions>
          <ns3:TrackPointExtension>
            <ns3:atemp>17.0</ns3:atemp>
          </ns3:TrackPointExtension>
        </extensions>
      </trkpt>
      <trkpt lat="42.5094990245997905731201171875" lon="19.89580613560974597930908203125">
        <ele>1775.4000244140625</ele>
        <time>2026-06-17T12:05:54.000Z</time>
        <extensions>
          <ns3:TrackPointExtension>
            <ns3:atemp>17.0</ns3:atemp>
          </ns3:TrackPointExtension>
        </extensions>
      </trkpt>
      <trkpt lat="42.5094990245997905731201171875" lon="19.89580613560974597930908203125">
        <ele>1775.4000244140625</ele>
        <time>2026-06-17T12:05:55.000Z</time>
        <extensions>
          <ns3:TrackPointExtension>
            <ns3:atemp>17.0</ns3:atemp>
          </ns3:TrackPointExtension>
        </extensions>
      </trkpt>
      <trkpt lat="42.5094990245997905731201171875" lon="19.89580613560974597930908203125">
        <ele>1775.4000244140625</ele>
        <time>2026-06-17T12:05:56.000Z</time>
        <extensions>
          <ns3:TrackPointExtension>
            <ns3:atemp>17.0</ns3:atemp>
          </ns3:TrackPointExtension>
        </extensions>
      </trkpt>
      <trkpt lat="42.5094990245997905731201171875" lon="19.89580613560974597930908203125">
        <ele>1775.4000244140625</ele>
        <time>2026-06-17T12:05:57.000Z</time>
        <extensions>
          <ns3:TrackPointExtension>
            <ns3:atemp>17.0</ns3:atemp>
          </ns3:TrackPointExtension>
        </extensions>
      </trkpt>
      <trkpt lat="42.5094990245997905731201171875" lon="19.89580613560974597930908203125">
        <ele>1775.4000244140625</ele>
        <time>2026-06-17T12:05:58.000Z</time>
        <extensions>
          <ns3:TrackPointExtension>
            <ns3:atemp>17.0</ns3:atemp>
          </ns3:TrackPointExtension>
        </extensions>
      </trkpt>
      <trkpt lat="42.5094990245997905731201171875" lon="19.89580613560974597930908203125">
        <ele>1775.4000244140625</ele>
        <time>2026-06-17T12:05:59.000Z</time>
        <extensions>
          <ns3:TrackPointExtension>
            <ns3:atemp>17.0</ns3:atemp>
          </ns3:TrackPointExtension>
        </extensions>
      </trkpt>
      <trkpt lat="42.5094990245997905731201171875" lon="19.89580613560974597930908203125">
        <ele>1775.5999755859375</ele>
        <time>2026-06-17T12:06:00.000Z</time>
        <extensions>
          <ns3:TrackPointExtension>
            <ns3:atemp>17.0</ns3:atemp>
          </ns3:TrackPointExtension>
        </extensions>
      </trkpt>
      <trkpt lat="42.50949458219110965728759765625" lon="19.8958021961152553558349609375">
        <ele>1775.5999755859375</ele>
        <time>2026-06-17T12:06:01.000Z</time>
        <extensions>
          <ns3:TrackPointExtension>
            <ns3:atemp>17.0</ns3:atemp>
          </ns3:TrackPointExtension>
        </extensions>
      </trkpt>
      <trkpt lat="42.50948301516473293304443359375" lon="19.8957897908985614776611328125">
        <ele>1775.5999755859375</ele>
        <time>2026-06-17T12:06:02.000Z</time>
        <extensions>
          <ns3:TrackPointExtension>
            <ns3:atemp>17.0</ns3:atemp>
          </ns3:TrackPointExtension>
        </extensions>
      </trkpt>
      <trkpt lat="42.509468682110309600830078125" lon="19.89577260799705982208251953125">
        <ele>1775.4000244140625</ele>
        <time>2026-06-17T12:06:03.000Z</time>
        <extensions>
          <ns3:TrackPointExtension>
            <ns3:atemp>17.0</ns3:atemp>
          </ns3:TrackPointExtension>
        </extensions>
      </trkpt>
      <trkpt lat="42.50944621860980987548828125" lon="19.8957587778568267822265625">
        <ele>1775.199951171875</ele>
        <time>2026-06-17T12:06:04.000Z</time>
        <extensions>
          <ns3:TrackPointExtension>
            <ns3:atemp>17.0</ns3:atemp>
          </ns3:TrackPointExtension>
        </extensions>
      </trkpt>
      <trkpt lat="42.509431131184101104736328125" lon="19.89574545063078403472900390625">
        <ele>1775</ele>
        <time>2026-06-17T12:06:05.000Z</time>
        <extensions>
          <ns3:TrackPointExtension>
            <ns3:atemp>17.0</ns3:atemp>
          </ns3:TrackPointExtension>
        </extensions>
      </trkpt>
      <trkpt lat="42.50942031852900981903076171875" lon="19.89572600461542606353759765625">
        <ele>1774.800048828125</ele>
        <time>2026-06-17T12:06:06.000Z</time>
        <extensions>
          <ns3:TrackPointExtension>
            <ns3:atemp>17.0</ns3:atemp>
          </ns3:TrackPointExtension>
        </extensions>
      </trkpt>
      <trkpt lat="42.50940657220780849456787109375" lon="19.8957036249339580535888671875">
        <ele>1774.4000244140625</ele>
        <time>2026-06-17T12:06:07.000Z</time>
        <extensions>
          <ns3:TrackPointExtension>
            <ns3:atemp>17.0</ns3:atemp>
          </ns3:TrackPointExtension>
        </extensions>
      </trkpt>
      <trkpt lat="42.50939064659178256988525390625" lon="19.8956707678735256195068359375">
        <ele>1774.199951171875</ele>
        <time>2026-06-17T12:06:08.000Z</time>
        <extensions>
          <ns3:TrackPointExtension>
            <ns3:atemp>17.0</ns3:atemp>
          </ns3:TrackPointExtension>
        </extensions>
      </trkpt>
      <trkpt lat="42.5093771517276763916015625" lon="19.8956380784511566162109375">
        <ele>1773.800048828125</ele>
        <time>2026-06-17T12:06:09.000Z</time>
        <extensions>
          <ns3:TrackPointExtension>
            <ns3:atemp>17.0</ns3:atemp>
          </ns3:TrackPointExtension>
        </extensions>
      </trkpt>
      <trkpt lat="42.5093689374625682830810546875" lon="19.89561460912227630615234375">
        <ele>1773.5999755859375</ele>
        <time>2026-06-17T12:06:10.000Z</time>
        <extensions>
          <ns3:TrackPointExtension>
            <ns3:atemp>17.0</ns3:atemp>
          </ns3:TrackPointExtension>
        </extensions>
      </trkpt>
      <trkpt lat="42.5093669258058071136474609375" lon="19.89561184309422969818115234375">
        <ele>1773.4000244140625</ele>
        <time>2026-06-17T12:06:11.000Z</time>
        <extensions>
          <ns3:TrackPointExtension>
            <ns3:atemp>17.0</ns3:atemp>
          </ns3:TrackPointExtension>
        </extensions>
      </trkpt>
      <trkpt lat="42.5093669258058071136474609375" lon="19.89561184309422969818115234375">
        <ele>1773.199951171875</ele>
        <time>2026-06-17T12:06:12.000Z</time>
        <extensions>
          <ns3:TrackPointExtension>
            <ns3:atemp>17.0</ns3:atemp>
          </ns3:TrackPointExtension>
        </extensions>
      </trkpt>
      <trkpt lat="42.50936700962483882904052734375" lon="19.8956120945513248443603515625">
        <ele>1773.199951171875</ele>
        <time>2026-06-17T12:06:13.000Z</time>
        <extensions>
          <ns3:TrackPointExtension>
            <ns3:atemp>17.0</ns3:atemp>
          </ns3:TrackPointExtension>
        </extensions>
      </trkpt>
      <trkpt lat="42.50936466269195079803466796875" lon="19.89560681395232677459716796875">
        <ele>1773.199951171875</ele>
        <time>2026-06-17T12:06:14.000Z</time>
        <extensions>
          <ns3:TrackPointExtension>
            <ns3:atemp>17.0</ns3:atemp>
          </ns3:TrackPointExtension>
        </extensions>
      </trkpt>
      <trkpt lat="42.50935879535973072052001953125" lon="19.89559113979339599609375">
        <ele>1773.199951171875</ele>
        <time>2026-06-17T12:06:15.000Z</time>
        <extensions>
          <ns3:TrackPointExtension>
            <ns3:atemp>17.0</ns3:atemp>
          </ns3:TrackPointExtension>
        </extensions>
      </trkpt>
      <trkpt lat="42.50935276038944721221923828125" lon="19.895569346845149993896484375">
        <ele>1773.199951171875</ele>
        <time>2026-06-17T12:06:16.000Z</time>
        <extensions>
          <ns3:TrackPointExtension>
            <ns3:atemp>17.0</ns3:atemp>
          </ns3:TrackPointExtension>
        </extensions>
      </trkpt>
      <trkpt lat="42.50934831798076629638671875" lon="19.89554679952561855316162109375">
        <ele>1773.199951171875</ele>
        <time>2026-06-17T12:06:17.000Z</time>
        <extensions>
          <ns3:TrackPointExtension>
            <ns3:atemp>17.0</ns3:atemp>
          </ns3:TrackPointExtension>
        </extensions>
      </trkpt>
      <trkpt lat="42.5093427859246730804443359375" lon="19.895524084568023681640625">
        <ele>1773</ele>
        <time>2026-06-17T12:06:18.000Z</time>
        <extensions>
          <ns3:TrackPointExtension>
            <ns3:atemp>17.0</ns3:atemp>
          </ns3:TrackPointExtension>
        </extensions>
      </trkpt>
      <trkpt lat="42.50933985225856304168701171875" lon="19.89550237543880939483642578125">
        <ele>1773</ele>
        <time>2026-06-17T12:06:19.000Z</time>
        <extensions>
          <ns3:TrackPointExtension>
            <ns3:atemp>17.0</ns3:atemp>
          </ns3:TrackPointExtension>
        </extensions>
      </trkpt>
      <trkpt lat="42.5093330629169940948486328125" lon="19.8954813368618488311767578125">
        <ele>1773</ele>
        <time>2026-06-17T12:06:20.000Z</time>
        <extensions>
          <ns3:TrackPointExtension>
            <ns3:atemp>17.0</ns3:atemp>
          </ns3:TrackPointExtension>
        </extensions>
      </trkpt>
      <trkpt lat="42.50932325609028339385986328125" lon="19.89545409567654132843017578125">
        <ele>1772.800048828125</ele>
        <time>2026-06-17T12:06:21.000Z</time>
        <extensions>
          <ns3:TrackPointExtension>
            <ns3:atemp>17.0</ns3:atemp>
          </ns3:TrackPointExtension>
        </extensions>
      </trkpt>
      <trkpt lat="42.5093095935881137847900390625" lon="19.89542509429156780242919921875">
        <ele>1772.4000244140625</ele>
        <time>2026-06-17T12:06:22.000Z</time>
        <extensions>
          <ns3:TrackPointExtension>
            <ns3:atemp>17.0</ns3:atemp>
          </ns3:TrackPointExtension>
        </extensions>
      </trkpt>
      <trkpt lat="42.50929534435272216796875" lon="19.89539290778338909149169921875">
        <ele>1772</ele>
        <time>2026-06-17T12:06:23.000Z</time>
        <extensions>
          <ns3:TrackPointExtension>
            <ns3:atemp>17.0</ns3:atemp>
          </ns3:TrackPointExtension>
        </extensions>
      </trkpt>
      <trkpt lat="42.509284280240535736083984375" lon="19.895362816751003265380859375">
        <ele>1771.5999755859375</ele>
        <time>2026-06-17T12:06:24.000Z</time>
        <extensions>
          <ns3:TrackPointExtension>
            <ns3:atemp>17.0</ns3:atemp>
          </ns3:TrackPointExtension>
        </extensions>
      </trkpt>
      <trkpt lat="42.50928218476474285125732421875" lon="19.89532920531928539276123046875">
        <ele>1771.199951171875</ele>
        <time>2026-06-17T12:06:25.000Z</time>
        <extensions>
          <ns3:TrackPointExtension>
            <ns3:atemp>17.0</ns3:atemp>
          </ns3:TrackPointExtension>
        </extensions>
      </trkpt>
      <trkpt lat="42.50928168185055255889892578125" lon="19.895293079316616058349609375">
        <ele>1770.5999755859375</ele>
        <time>2026-06-17T12:06:26.000Z</time>
        <extensions>
          <ns3:TrackPointExtension>
            <ns3:atemp>17.0</ns3:atemp>
          </ns3:TrackPointExtension>
        </extensions>
      </trkpt>
      <trkpt lat="42.5092864595353603363037109375" lon="19.8952570371329784393310546875">
        <ele>1770</ele>
        <time>2026-06-17T12:06:27.000Z</time>
        <extensions>
          <ns3:TrackPointExtension>
            <ns3:atemp>17.0</ns3:atemp>
          </ns3:TrackPointExtension>
        </extensions>
      </trkpt>
      <trkpt lat="42.509288974106311798095703125" lon="19.8952174745500087738037109375">
        <ele>1769.4000244140625</ele>
        <time>2026-06-17T12:06:28.000Z</time>
        <extensions>
          <ns3:TrackPointExtension>
            <ns3:atemp>17.0</ns3:atemp>
          </ns3:TrackPointExtension>
        </extensions>
      </trkpt>
      <trkpt lat="42.50928922556340694427490234375" lon="19.8951769061386585235595703125">
        <ele>1768.800048828125</ele>
        <time>2026-06-17T12:06:29.000Z</time>
        <extensions>
          <ns3:TrackPointExtension>
            <ns3:atemp>17.0</ns3:atemp>
          </ns3:TrackPointExtension>
        </extensions>
      </trkpt>
      <trkpt lat="42.50928922556340694427490234375" lon="19.895144216716289520263671875">
        <ele>1768.4000244140625</ele>
        <time>2026-06-17T12:06:30.000Z</time>
        <extensions>
          <ns3:TrackPointExtension>
            <ns3:atemp>17.0</ns3:atemp>
          </ns3:TrackPointExtension>
        </extensions>
      </trkpt>
      <trkpt lat="42.50929140485823154449462890625" lon="19.895117394626140594482421875">
        <ele>1767.800048828125</ele>
        <time>2026-06-17T12:06:31.000Z</time>
        <extensions>
          <ns3:TrackPointExtension>
            <ns3:atemp>17.0</ns3:atemp>
          </ns3:TrackPointExtension>
        </extensions>
      </trkpt>
      <trkpt lat="42.5093047320842742919921875" lon="19.89509250037372112274169921875">
        <ele>1767.4000244140625</ele>
        <time>2026-06-17T12:06:32.000Z</time>
        <extensions>
          <ns3:TrackPointExtension>
            <ns3:atemp>17.0</ns3:atemp>
          </ns3:TrackPointExtension>
        </extensions>
      </trkpt>
      <trkpt lat="42.5093226693570613861083984375" lon="19.8950759880244731903076171875">
        <ele>1767</ele>
        <time>2026-06-17T12:06:33.000Z</time>
        <extensions>
          <ns3:TrackPointExtension>
            <ns3:atemp>17.0</ns3:atemp>
          </ns3:TrackPointExtension>
        </extensions>
      </trkpt>
      <trkpt lat="42.50934387557208538055419921875" lon="19.89508076570928096771240234375">
        <ele>1766.4000244140625</ele>
        <time>2026-06-17T12:06:34.000Z</time>
        <extensions>
          <ns3:TrackPointExtension>
            <ns3:atemp>17.0</ns3:atemp>
          </ns3:TrackPointExtension>
        </extensions>
      </trkpt>
      <trkpt lat="42.50936483033001422882080078125" lon="19.89508797414600849151611328125">
        <ele>1765.800048828125</ele>
        <time>2026-06-17T12:06:35.000Z</time>
        <extensions>
          <ns3:TrackPointExtension>
            <ns3:atemp>17.0</ns3:atemp>
          </ns3:TrackPointExtension>
        </extensions>
      </trkpt>
      <trkpt lat="42.5093867070972919464111328125" lon="19.8950922489166259765625">
        <ele>1765.4000244140625</ele>
        <time>2026-06-17T12:06:36.000Z</time>
        <extensions>
          <ns3:TrackPointExtension>
            <ns3:atemp>17.0</ns3:atemp>
          </ns3:TrackPointExtension>
        </extensions>
      </trkpt>
      <trkpt lat="42.509409002959728240966796875" lon="19.895094931125640869140625">
        <ele>1765</ele>
        <time>2026-06-17T12:06:37.000Z</time>
        <extensions>
          <ns3:TrackPointExtension>
            <ns3:atemp>17.0</ns3:atemp>
          </ns3:TrackPointExtension>
        </extensions>
      </trkpt>
      <trkpt lat="42.50942886807024478912353515625" lon="19.8950984515249729156494140625">
        <ele>1764.5999755859375</ele>
        <time>2026-06-17T12:06:38.000Z</time>
        <extensions>
          <ns3:TrackPointExtension>
            <ns3:atemp>17.0</ns3:atemp>
          </ns3:TrackPointExtension>
        </extensions>
      </trkpt>
      <trkpt lat="42.50944219529628753662109375" lon="19.89509887062013149261474609375">
        <ele>1764.4000244140625</ele>
        <time>2026-06-17T12:06:39.000Z</time>
        <extensions>
          <ns3:TrackPointExtension>
            <ns3:atemp>17.0</ns3:atemp>
          </ns3:TrackPointExtension>
        </extensions>
      </trkpt>
      <trkpt lat="42.50945418141782283782958984375" lon="19.8950927518308162689208984375">
        <ele>1764.199951171875</ele>
        <time>2026-06-17T12:06:40.000Z</time>
        <extensions>
          <ns3:TrackPointExtension>
            <ns3:atemp>17.0</ns3:atemp>
          </ns3:TrackPointExtension>
        </extensions>
      </trkpt>
      <trkpt lat="42.50946524553000926971435546875" lon="19.89508747123181819915771484375">
        <ele>1763.800048828125</ele>
        <time>2026-06-17T12:06:41.000Z</time>
        <extensions>
          <ns3:TrackPointExtension>
            <ns3:atemp>17.0</ns3:atemp>
          </ns3:TrackPointExtension>
        </extensions>
      </trkpt>
      <trkpt lat="42.50947798602283000946044921875" lon="19.8950749821960926055908203125">
        <ele>1763.4000244140625</ele>
        <time>2026-06-17T12:06:42.000Z</time>
        <extensions>
          <ns3:TrackPointExtension>
            <ns3:atemp>17.0</ns3:atemp>
          </ns3:TrackPointExtension>
        </extensions>
      </trkpt>
      <trkpt lat="42.5094862841069698333740234375" lon="19.89506366662681102752685546875">
        <ele>1763.199951171875</ele>
        <time>2026-06-17T12:06:43.000Z</time>
        <extensions>
          <ns3:TrackPointExtension>
            <ns3:atemp>17.0</ns3:atemp>
          </ns3:TrackPointExtension>
        </extensions>
      </trkpt>
      <trkpt lat="42.5094879604876041412353515625" lon="19.89506341516971588134765625">
        <ele>1763</ele>
        <time>2026-06-17T12:06:44.000Z</time>
        <extensions>
          <ns3:TrackPointExtension>
            <ns3:atemp>17.0</ns3:atemp>
          </ns3:TrackPointExtension>
        </extensions>
      </trkpt>
      <trkpt lat="42.5094879604876041412353515625" lon="19.8950632475316524505615234375">
        <ele>1762.800048828125</ele>
        <time>2026-06-17T12:06:45.000Z</time>
        <extensions>
          <ns3:TrackPointExtension>
            <ns3:atemp>17.0</ns3:atemp>
          </ns3:TrackPointExtension>
        </extensions>
      </trkpt>
      <trkpt lat="42.5094879604876041412353515625" lon="19.89506316371262073516845703125">
        <ele>1762.800048828125</ele>
        <time>2026-06-17T12:06:46.000Z</time>
        <extensions>
          <ns3:TrackPointExtension>
            <ns3:atemp>17.0</ns3:atemp>
          </ns3:TrackPointExtension>
        </extensions>
      </trkpt>
      <trkpt lat="42.5094923190772533416748046875" lon="19.89505126141011714935302734375">
        <ele>1762.800048828125</ele>
        <time>2026-06-17T12:06:47.000Z</time>
        <extensions>
          <ns3:TrackPointExtension>
            <ns3:atemp>17.0</ns3:atemp>
          </ns3:TrackPointExtension>
        </extensions>
      </trkpt>
      <trkpt lat="42.50949357636272907257080078125" lon="19.89505310542881488800048828125">
        <ele>1762.5999755859375</ele>
        <time>2026-06-17T12:06:48.000Z</time>
        <extensions>
          <ns3:TrackPointExtension>
            <ns3:atemp>17.0</ns3:atemp>
          </ns3:TrackPointExtension>
        </extensions>
      </trkpt>
      <trkpt lat="42.50950078479945659637451171875" lon="19.895048327744007110595703125">
        <ele>1762.5999755859375</ele>
        <time>2026-06-17T12:06:49.000Z</time>
        <extensions>
          <ns3:TrackPointExtension>
            <ns3:atemp>17.0</ns3:atemp>
          </ns3:TrackPointExtension>
        </extensions>
      </trkpt>
      <trkpt lat="42.50951888971030712127685546875" lon="19.89503516815602779388427734375">
        <ele>1762.199951171875</ele>
        <time>2026-06-17T12:06:50.000Z</time>
        <extensions>
          <ns3:TrackPointExtension>
            <ns3:atemp>17.0</ns3:atemp>
          </ns3:TrackPointExtension>
        </extensions>
      </trkpt>
      <trkpt lat="42.50954411923885345458984375" lon="19.8950112797319889068603515625">
        <ele>1762</ele>
        <time>2026-06-17T12:06:51.000Z</time>
        <extensions>
          <ns3:TrackPointExtension>
            <ns3:atemp>17.0</ns3:atemp>
          </ns3:TrackPointExtension>
        </extensions>
      </trkpt>
      <trkpt lat="42.50956616364419460296630859375" lon="19.8949884809553623199462890625">
        <ele>1761.800048828125</ele>
        <time>2026-06-17T12:06:52.000Z</time>
        <extensions>
          <ns3:TrackPointExtension>
            <ns3:atemp>17.0</ns3:atemp>
          </ns3:TrackPointExtension>
        </extensions>
      </trkpt>
      <trkpt lat="42.5095734558999538421630859375" lon="19.894987307488918304443359375">
        <ele>1761.5999755859375</ele>
        <time>2026-06-17T12:06:53.000Z</time>
        <extensions>
          <ns3:TrackPointExtension>
            <ns3:atemp>17.0</ns3:atemp>
          </ns3:TrackPointExtension>
        </extensions>
      </trkpt>
      <trkpt lat="42.509574629366397857666015625" lon="19.894965179264545440673828125">
        <ele>1761.4000244140625</ele>
        <time>2026-06-17T12:06:54.000Z</time>
        <extensions>
          <ns3:TrackPointExtension>
            <ns3:atemp>17.0</ns3:atemp>
          </ns3:TrackPointExtension>
        </extensions>
      </trkpt>
      <trkpt lat="42.50957722775638103485107421875" lon="19.8949482478201389312744140625">
        <ele>1761.199951171875</ele>
        <time>2026-06-17T12:06:55.000Z</time>
        <extensions>
          <ns3:TrackPointExtension>
            <ns3:atemp>17.0</ns3:atemp>
          </ns3:TrackPointExtension>
        </extensions>
      </trkpt>
      <trkpt lat="42.5095808319747447967529296875" lon="19.89493089728057384490966796875">
        <ele>1761</ele>
        <time>2026-06-17T12:06:56.000Z</time>
        <extensions>
          <ns3:TrackPointExtension>
            <ns3:atemp>17.0</ns3:atemp>
          </ns3:TrackPointExtension>
        </extensions>
      </trkpt>
      <trkpt lat="42.5095939077436923980712890625" lon="19.8949174024164676666259765625">
        <ele>1761</ele>
        <time>2026-06-17T12:06:57.000Z</time>
        <extensions>
          <ns3:TrackPointExtension>
            <ns3:atemp>17.0</ns3:atemp>
          </ns3:TrackPointExtension>
        </extensions>
      </trkpt>
      <trkpt lat="42.50959801487624645233154296875" lon="19.8949200846254825592041015625">
        <ele>1760.800048828125</ele>
        <time>2026-06-17T12:06:58.000Z</time>
        <extensions>
          <ns3:TrackPointExtension>
            <ns3:atemp>17.0</ns3:atemp>
          </ns3:TrackPointExtension>
        </extensions>
      </trkpt>
      <trkpt lat="42.509599439799785614013671875" lon="19.8949137143790721893310546875">
        <ele>1760.5999755859375</ele>
        <time>2026-06-17T12:06:59.000Z</time>
        <extensions>
          <ns3:TrackPointExtension>
            <ns3:atemp>17.0</ns3:atemp>
          </ns3:TrackPointExtension>
        </extensions>
      </trkpt>
      <trkpt lat="42.50959952361881732940673828125" lon="19.8949137143790721893310546875">
        <ele>1760.4000244140625</ele>
        <time>2026-06-17T12:07:00.000Z</time>
        <extensions>
          <ns3:TrackPointExtension>
            <ns3:atemp>17.0</ns3:atemp>
          </ns3:TrackPointExtension>
        </extensions>
      </trkpt>
      <trkpt lat="42.50959952361881732940673828125" lon="19.8949137143790721893310546875">
        <ele>1760.199951171875</ele>
        <time>2026-06-17T12:07:01.000Z</time>
        <extensions>
          <ns3:TrackPointExtension>
            <ns3:atemp>17.0</ns3:atemp>
          </ns3:TrackPointExtension>
        </extensions>
      </trkpt>
      <trkpt lat="42.50959952361881732940673828125" lon="19.8949137143790721893310546875">
        <ele>1760.199951171875</ele>
        <time>2026-06-17T12:07:02.000Z</time>
        <extensions>
          <ns3:TrackPointExtension>
            <ns3:atemp>17.0</ns3:atemp>
          </ns3:TrackPointExtension>
        </extensions>
      </trkpt>
      <trkpt lat="42.50959952361881732940673828125" lon="19.8949137143790721893310546875">
        <ele>1760</ele>
        <time>2026-06-17T12:07:03.000Z</time>
        <extensions>
          <ns3:TrackPointExtension>
            <ns3:atemp>17.0</ns3:atemp>
          </ns3:TrackPointExtension>
        </extensions>
      </trkpt>
      <trkpt lat="42.50959985889494419097900390625" lon="19.89491279236972332000732421875">
        <ele>1760</ele>
        <time>2026-06-17T12:07:04.000Z</time>
        <extensions>
          <ns3:TrackPointExtension>
            <ns3:atemp>17.0</ns3:atemp>
          </ns3:TrackPointExtension>
        </extensions>
      </trkpt>
      <trkpt lat="42.50961226411163806915283203125" lon="19.89490323700010776519775390625">
        <ele>1759.800048828125</ele>
        <time>2026-06-17T12:07:05.000Z</time>
        <extensions>
          <ns3:TrackPointExtension>
            <ns3:atemp>17.0</ns3:atemp>
          </ns3:TrackPointExtension>
        </extensions>
      </trkpt>
      <trkpt lat="42.50961712561547756195068359375" lon="19.8949013091623783111572265625">
        <ele>1759.5999755859375</ele>
        <time>2026-06-17T12:07:06.000Z</time>
        <extensions>
          <ns3:TrackPointExtension>
            <ns3:atemp>17.0</ns3:atemp>
          </ns3:TrackPointExtension>
        </extensions>
      </trkpt>
      <trkpt lat="42.509618885815143585205078125" lon="19.89490114152431488037109375">
        <ele>1759.5999755859375</ele>
        <time>2026-06-17T12:07:07.000Z</time>
        <extensions>
          <ns3:TrackPointExtension>
            <ns3:atemp>17.0</ns3:atemp>
          </ns3:TrackPointExtension>
        </extensions>
      </trkpt>
      <trkpt lat="42.509618885815143585205078125" lon="19.89490114152431488037109375">
        <ele>1759.4000244140625</ele>
        <time>2026-06-17T12:07:08.000Z</time>
        <extensions>
          <ns3:TrackPointExtension>
            <ns3:atemp>17.0</ns3:atemp>
          </ns3:TrackPointExtension>
        </extensions>
      </trkpt>
      <trkpt lat="42.509618885815143585205078125" lon="19.89490114152431488037109375">
        <ele>1759.4000244140625</ele>
        <time>2026-06-17T12:07:09.000Z</time>
        <extensions>
          <ns3:TrackPointExtension>
            <ns3:atemp>17.0</ns3:atemp>
          </ns3:TrackPointExtension>
        </extensions>
      </trkpt>
      <trkpt lat="42.509618885815143585205078125" lon="19.89490114152431488037109375">
        <ele>1759.199951171875</ele>
        <time>2026-06-17T12:07:10.000Z</time>
        <extensions>
          <ns3:TrackPointExtension>
            <ns3:atemp>17.0</ns3:atemp>
          </ns3:TrackPointExtension>
        </extensions>
      </trkpt>
      <trkpt lat="42.509618885815143585205078125" lon="19.89490114152431488037109375">
        <ele>1759.199951171875</ele>
        <time>2026-06-17T12:07:11.000Z</time>
        <extensions>
          <ns3:TrackPointExtension>
            <ns3:atemp>17.0</ns3:atemp>
          </ns3:TrackPointExtension>
        </extensions>
      </trkpt>
      <trkpt lat="42.509618885815143585205078125" lon="19.89490114152431488037109375">
        <ele>1759.199951171875</ele>
        <time>2026-06-17T12:07:12.000Z</time>
        <extensions>
          <ns3:TrackPointExtension>
            <ns3:atemp>17.0</ns3:atemp>
          </ns3:TrackPointExtension>
        </extensions>
      </trkpt>
      <trkpt lat="42.509618885815143585205078125" lon="19.89490114152431488037109375">
        <ele>1759.199951171875</ele>
        <time>2026-06-17T12:07:13.000Z</time>
        <extensions>
          <ns3:TrackPointExtension>
            <ns3:atemp>17.0</ns3:atemp>
          </ns3:TrackPointExtension>
        </extensions>
      </trkpt>
      <trkpt lat="42.509618885815143585205078125" lon="19.89490114152431488037109375">
        <ele>1759.199951171875</ele>
        <time>2026-06-17T12:07:14.000Z</time>
        <extensions>
          <ns3:TrackPointExtension>
            <ns3:atemp>17.0</ns3:atemp>
          </ns3:TrackPointExtension>
        </extensions>
      </trkpt>
      <trkpt lat="42.509618885815143585205078125" lon="19.89490114152431488037109375">
        <ele>1759.199951171875</ele>
        <time>2026-06-17T12:07:15.000Z</time>
        <extensions>
          <ns3:TrackPointExtension>
            <ns3:atemp>17.0</ns3:atemp>
          </ns3:TrackPointExtension>
        </extensions>
      </trkpt>
      <trkpt lat="42.509618885815143585205078125" lon="19.89490114152431488037109375">
        <ele>1759.4000244140625</ele>
        <time>2026-06-17T12:07:16.000Z</time>
        <extensions>
          <ns3:TrackPointExtension>
            <ns3:atemp>17.0</ns3:atemp>
          </ns3:TrackPointExtension>
        </extensions>
      </trkpt>
      <trkpt lat="42.509618885815143585205078125" lon="19.89490114152431488037109375">
        <ele>1759.4000244140625</ele>
        <time>2026-06-17T12:07:17.000Z</time>
        <extensions>
          <ns3:TrackPointExtension>
            <ns3:atemp>17.0</ns3:atemp>
          </ns3:TrackPointExtension>
        </extensions>
      </trkpt>
      <trkpt lat="42.509618885815143585205078125" lon="19.89490114152431488037109375">
        <ele>1759.4000244140625</ele>
        <time>2026-06-17T12:07:18.000Z</time>
        <extensions>
          <ns3:TrackPointExtension>
            <ns3:atemp>17.0</ns3:atemp>
          </ns3:TrackPointExtension>
        </extensions>
      </trkpt>
      <trkpt lat="42.509618885815143585205078125" lon="19.89490114152431488037109375">
        <ele>1759.4000244140625</ele>
        <time>2026-06-17T12:07:19.000Z</time>
        <extensions>
          <ns3:TrackPointExtension>
            <ns3:atemp>17.0</ns3:atemp>
          </ns3:TrackPointExtension>
        </extensions>
      </trkpt>
      <trkpt lat="42.509618885815143585205078125" lon="19.89490114152431488037109375">
        <ele>1759.4000244140625</ele>
        <time>2026-06-17T12:07:20.000Z</time>
        <extensions>
          <ns3:TrackPointExtension>
            <ns3:atemp>17.0</ns3:atemp>
          </ns3:TrackPointExtension>
        </extensions>
      </trkpt>
      <trkpt lat="42.509618885815143585205078125" lon="19.89490114152431488037109375">
        <ele>1759.199951171875</ele>
        <time>2026-06-17T12:07:21.000Z</time>
        <extensions>
          <ns3:TrackPointExtension>
            <ns3:atemp>17.0</ns3:atemp>
          </ns3:TrackPointExtension>
        </extensions>
      </trkpt>
      <trkpt lat="42.509618885815143585205078125" lon="19.89490114152431488037109375">
        <ele>1759.199951171875</ele>
        <time>2026-06-17T12:07:22.000Z</time>
        <extensions>
          <ns3:TrackPointExtension>
            <ns3:atemp>17.0</ns3:atemp>
          </ns3:TrackPointExtension>
        </extensions>
      </trkpt>
      <trkpt lat="42.509618885815143585205078125" lon="19.89490114152431488037109375">
        <ele>1759.199951171875</ele>
        <time>2026-06-17T12:07:23.000Z</time>
        <extensions>
          <ns3:TrackPointExtension>
            <ns3:atemp>17.0</ns3:atemp>
          </ns3:TrackPointExtension>
        </extensions>
      </trkpt>
      <trkpt lat="42.509618885815143585205078125" lon="19.89490114152431488037109375">
        <ele>1759.199951171875</ele>
        <time>2026-06-17T12:07:24.000Z</time>
        <extensions>
          <ns3:TrackPointExtension>
            <ns3:atemp>17.0</ns3:atemp>
          </ns3:TrackPointExtension>
        </extensions>
      </trkpt>
      <trkpt lat="42.509618885815143585205078125" lon="19.89490114152431488037109375">
        <ele>1759.199951171875</ele>
        <time>2026-06-17T12:07:25.000Z</time>
        <extensions>
          <ns3:TrackPointExtension>
            <ns3:atemp>17.0</ns3:atemp>
          </ns3:TrackPointExtension>
        </extensions>
      </trkpt>
      <trkpt lat="42.509618885815143585205078125" lon="19.89490114152431488037109375">
        <ele>1759.199951171875</ele>
        <time>2026-06-17T12:07:26.000Z</time>
        <extensions>
          <ns3:TrackPointExtension>
            <ns3:atemp>17.0</ns3:atemp>
          </ns3:TrackPointExtension>
        </extensions>
      </trkpt>
      <trkpt lat="42.509618885815143585205078125" lon="19.89490114152431488037109375">
        <ele>1759.199951171875</ele>
        <time>2026-06-17T12:07:27.000Z</time>
        <extensions>
          <ns3:TrackPointExtension>
            <ns3:atemp>17.0</ns3:atemp>
          </ns3:TrackPointExtension>
        </extensions>
      </trkpt>
      <trkpt lat="42.509618885815143585205078125" lon="19.89490114152431488037109375">
        <ele>1759.199951171875</ele>
        <time>2026-06-17T12:07:28.000Z</time>
        <extensions>
          <ns3:TrackPointExtension>
            <ns3:atemp>17.0</ns3:atemp>
          </ns3:TrackPointExtension>
        </extensions>
      </trkpt>
      <trkpt lat="42.509618885815143585205078125" lon="19.89490114152431488037109375">
        <ele>1759.199951171875</ele>
        <time>2026-06-17T12:07:29.000Z</time>
        <extensions>
          <ns3:TrackPointExtension>
            <ns3:atemp>17.0</ns3:atemp>
          </ns3:TrackPointExtension>
        </extensions>
      </trkpt>
      <trkpt lat="42.509618885815143585205078125" lon="19.89490114152431488037109375">
        <ele>1759.199951171875</ele>
        <time>2026-06-17T12:07:30.000Z</time>
        <extensions>
          <ns3:TrackPointExtension>
            <ns3:atemp>17.0</ns3:atemp>
          </ns3:TrackPointExtension>
        </extensions>
      </trkpt>
      <trkpt lat="42.509618885815143585205078125" lon="19.89490114152431488037109375">
        <ele>1759.199951171875</ele>
        <time>2026-06-17T12:07:31.000Z</time>
        <extensions>
          <ns3:TrackPointExtension>
            <ns3:atemp>17.0</ns3:atemp>
          </ns3:TrackPointExtension>
        </extensions>
      </trkpt>
      <trkpt lat="42.509618885815143585205078125" lon="19.89490114152431488037109375">
        <ele>1759.199951171875</ele>
        <time>2026-06-17T12:07:32.000Z</time>
        <extensions>
          <ns3:TrackPointExtension>
            <ns3:atemp>17.0</ns3:atemp>
          </ns3:TrackPointExtension>
        </extensions>
      </trkpt>
      <trkpt lat="42.509618885815143585205078125" lon="19.89490114152431488037109375">
        <ele>1759.199951171875</ele>
        <time>2026-06-17T12:07:33.000Z</time>
        <extensions>
          <ns3:TrackPointExtension>
            <ns3:atemp>17.0</ns3:atemp>
          </ns3:TrackPointExtension>
        </extensions>
      </trkpt>
      <trkpt lat="42.509618885815143585205078125" lon="19.89490114152431488037109375">
        <ele>1759.199951171875</ele>
        <time>2026-06-17T12:07:34.000Z</time>
        <extensions>
          <ns3:TrackPointExtension>
            <ns3:atemp>17.0</ns3:atemp>
          </ns3:TrackPointExtension>
        </extensions>
      </trkpt>
      <trkpt lat="42.509618885815143585205078125" lon="19.89490114152431488037109375">
        <ele>1759.199951171875</ele>
        <time>2026-06-17T12:07:35.000Z</time>
        <extensions>
          <ns3:TrackPointExtension>
            <ns3:atemp>17.0</ns3:atemp>
          </ns3:TrackPointExtension>
        </extensions>
      </trkpt>
      <trkpt lat="42.509618885815143585205078125" lon="19.89490114152431488037109375">
        <ele>1759.199951171875</ele>
        <time>2026-06-17T12:07:36.000Z</time>
        <extensions>
          <ns3:TrackPointExtension>
            <ns3:atemp>17.0</ns3:atemp>
          </ns3:TrackPointExtension>
        </extensions>
      </trkpt>
      <trkpt lat="42.509618885815143585205078125" lon="19.89490114152431488037109375">
        <ele>1759.199951171875</ele>
        <time>2026-06-17T12:07:37.000Z</time>
        <extensions>
          <ns3:TrackPointExtension>
            <ns3:atemp>17.0</ns3:atemp>
          </ns3:TrackPointExtension>
        </extensions>
      </trkpt>
      <trkpt lat="42.509618885815143585205078125" lon="19.89490114152431488037109375">
        <ele>1759.4000244140625</ele>
        <time>2026-06-17T12:07:38.000Z</time>
        <extensions>
          <ns3:TrackPointExtension>
            <ns3:atemp>17.0</ns3:atemp>
          </ns3:TrackPointExtension>
        </extensions>
      </trkpt>
      <trkpt lat="42.509618885815143585205078125" lon="19.89490114152431488037109375">
        <ele>1759.4000244140625</ele>
        <time>2026-06-17T12:07:39.000Z</time>
        <extensions>
          <ns3:TrackPointExtension>
            <ns3:atemp>17.0</ns3:atemp>
          </ns3:TrackPointExtension>
        </extensions>
      </trkpt>
      <trkpt lat="42.509618885815143585205078125" lon="19.89490114152431488037109375">
        <ele>1759.4000244140625</ele>
        <time>2026-06-17T12:07:40.000Z</time>
        <extensions>
          <ns3:TrackPointExtension>
            <ns3:atemp>17.0</ns3:atemp>
          </ns3:TrackPointExtension>
        </extensions>
      </trkpt>
      <trkpt lat="42.509618885815143585205078125" lon="19.89490114152431488037109375">
        <ele>1759.4000244140625</ele>
        <time>2026-06-17T12:07:41.000Z</time>
        <extensions>
          <ns3:TrackPointExtension>
            <ns3:atemp>17.0</ns3:atemp>
          </ns3:TrackPointExtension>
        </extensions>
      </trkpt>
      <trkpt lat="42.509618885815143585205078125" lon="19.89490114152431488037109375">
        <ele>1759.4000244140625</ele>
        <time>2026-06-17T12:07:42.000Z</time>
        <extensions>
          <ns3:TrackPointExtension>
            <ns3:atemp>17.0</ns3:atemp>
          </ns3:TrackPointExtension>
        </extensions>
      </trkpt>
      <trkpt lat="42.509618885815143585205078125" lon="19.89490114152431488037109375">
        <ele>1759.199951171875</ele>
        <time>2026-06-17T12:07:43.000Z</time>
        <extensions>
          <ns3:TrackPointExtension>
            <ns3:atemp>17.0</ns3:atemp>
          </ns3:TrackPointExtension>
        </extensions>
      </trkpt>
      <trkpt lat="42.509618885815143585205078125" lon="19.89490114152431488037109375">
        <ele>1759.199951171875</ele>
        <time>2026-06-17T12:07:44.000Z</time>
        <extensions>
          <ns3:TrackPointExtension>
            <ns3:atemp>17.0</ns3:atemp>
          </ns3:TrackPointExtension>
        </extensions>
      </trkpt>
      <trkpt lat="42.509618885815143585205078125" lon="19.89490114152431488037109375">
        <ele>1759.199951171875</ele>
        <time>2026-06-17T12:07:45.000Z</time>
        <extensions>
          <ns3:TrackPointExtension>
            <ns3:atemp>17.0</ns3:atemp>
          </ns3:TrackPointExtension>
        </extensions>
      </trkpt>
      <trkpt lat="42.509618885815143585205078125" lon="19.89490114152431488037109375">
        <ele>1759.199951171875</ele>
        <time>2026-06-17T12:07:46.000Z</time>
        <extensions>
          <ns3:TrackPointExtension>
            <ns3:atemp>17.0</ns3:atemp>
          </ns3:TrackPointExtension>
        </extensions>
      </trkpt>
      <trkpt lat="42.509618885815143585205078125" lon="19.89490114152431488037109375">
        <ele>1759.199951171875</ele>
        <time>2026-06-17T12:07:47.000Z</time>
        <extensions>
          <ns3:TrackPointExtension>
            <ns3:atemp>17.0</ns3:atemp>
          </ns3:TrackPointExtension>
        </extensions>
      </trkpt>
      <trkpt lat="42.509618885815143585205078125" lon="19.89490114152431488037109375">
        <ele>1759.199951171875</ele>
        <time>2026-06-17T12:07:48.000Z</time>
        <extensions>
          <ns3:TrackPointExtension>
            <ns3:atemp>17.0</ns3:atemp>
          </ns3:TrackPointExtension>
        </extensions>
      </trkpt>
      <trkpt lat="42.509618885815143585205078125" lon="19.89490114152431488037109375">
        <ele>1759.199951171875</ele>
        <time>2026-06-17T12:07:49.000Z</time>
        <extensions>
          <ns3:TrackPointExtension>
            <ns3:atemp>17.0</ns3:atemp>
          </ns3:TrackPointExtension>
        </extensions>
      </trkpt>
      <trkpt lat="42.509618885815143585205078125" lon="19.89490114152431488037109375">
        <ele>1759.199951171875</ele>
        <time>2026-06-17T12:07:50.000Z</time>
        <extensions>
          <ns3:TrackPointExtension>
            <ns3:atemp>17.0</ns3:atemp>
          </ns3:TrackPointExtension>
        </extensions>
      </trkpt>
      <trkpt lat="42.509618885815143585205078125" lon="19.89490114152431488037109375">
        <ele>1759.199951171875</ele>
        <time>2026-06-17T12:07:51.000Z</time>
        <extensions>
          <ns3:TrackPointExtension>
            <ns3:atemp>17.0</ns3:atemp>
          </ns3:TrackPointExtension>
        </extensions>
      </trkpt>
      <trkpt lat="42.509618885815143585205078125" lon="19.89490114152431488037109375">
        <ele>1759.199951171875</ele>
        <time>2026-06-17T12:07:52.000Z</time>
        <extensions>
          <ns3:TrackPointExtension>
            <ns3:atemp>17.0</ns3:atemp>
          </ns3:TrackPointExtension>
        </extensions>
      </trkpt>
      <trkpt lat="42.509618885815143585205078125" lon="19.89490114152431488037109375">
        <ele>1759.199951171875</ele>
        <time>2026-06-17T12:07:53.000Z</time>
        <extensions>
          <ns3:TrackPointExtension>
            <ns3:atemp>17.0</ns3:atemp>
          </ns3:TrackPointExtension>
        </extensions>
      </trkpt>
      <trkpt lat="42.509618885815143585205078125" lon="19.89490114152431488037109375">
        <ele>1759.199951171875</ele>
        <time>2026-06-17T12:07:54.000Z</time>
        <extensions>
          <ns3:TrackPointExtension>
            <ns3:atemp>17.0</ns3:atemp>
          </ns3:TrackPointExtension>
        </extensions>
      </trkpt>
      <trkpt lat="42.509618885815143585205078125" lon="19.89490114152431488037109375">
        <ele>1759.199951171875</ele>
        <time>2026-06-17T12:07:55.000Z</time>
        <extensions>
          <ns3:TrackPointExtension>
            <ns3:atemp>17.0</ns3:atemp>
          </ns3:TrackPointExtension>
        </extensions>
      </trkpt>
      <trkpt lat="42.509618885815143585205078125" lon="19.89490114152431488037109375">
        <ele>1759.199951171875</ele>
        <time>2026-06-17T12:07:56.000Z</time>
        <extensions>
          <ns3:TrackPointExtension>
            <ns3:atemp>17.0</ns3:atemp>
          </ns3:TrackPointExtension>
        </extensions>
      </trkpt>
      <trkpt lat="42.509618885815143585205078125" lon="19.89490114152431488037109375">
        <ele>1759.199951171875</ele>
        <time>2026-06-17T12:07:57.000Z</time>
        <extensions>
          <ns3:TrackPointExtension>
            <ns3:atemp>17.0</ns3:atemp>
          </ns3:TrackPointExtension>
        </extensions>
      </trkpt>
      <trkpt lat="42.509618885815143585205078125" lon="19.89490114152431488037109375">
        <ele>1759.199951171875</ele>
        <time>2026-06-17T12:07:58.000Z</time>
        <extensions>
          <ns3:TrackPointExtension>
            <ns3:atemp>17.0</ns3:atemp>
          </ns3:TrackPointExtension>
        </extensions>
      </trkpt>
      <trkpt lat="42.509618885815143585205078125" lon="19.89490114152431488037109375">
        <ele>1759.4000244140625</ele>
        <time>2026-06-17T12:07:59.000Z</time>
        <extensions>
          <ns3:TrackPointExtension>
            <ns3:atemp>17.0</ns3:atemp>
          </ns3:TrackPointExtension>
        </extensions>
      </trkpt>
      <trkpt lat="42.509618885815143585205078125" lon="19.89490114152431488037109375">
        <ele>1759.4000244140625</ele>
        <time>2026-06-17T12:08:00.000Z</time>
        <extensions>
          <ns3:TrackPointExtension>
            <ns3:atemp>17.0</ns3:atemp>
          </ns3:TrackPointExtension>
        </extensions>
      </trkpt>
      <trkpt lat="42.509618885815143585205078125" lon="19.89490114152431488037109375">
        <ele>1759.4000244140625</ele>
        <time>2026-06-17T12:08:01.000Z</time>
        <extensions>
          <ns3:TrackPointExtension>
            <ns3:atemp>17.0</ns3:atemp>
          </ns3:TrackPointExtension>
        </extensions>
      </trkpt>
      <trkpt lat="42.509618885815143585205078125" lon="19.89490114152431488037109375">
        <ele>1759.4000244140625</ele>
        <time>2026-06-17T12:08:02.000Z</time>
        <extensions>
          <ns3:TrackPointExtension>
            <ns3:atemp>17.0</ns3:atemp>
          </ns3:TrackPointExtension>
        </extensions>
      </trkpt>
      <trkpt lat="42.509618885815143585205078125" lon="19.89490114152431488037109375">
        <ele>1759.4000244140625</ele>
        <time>2026-06-17T12:08:03.000Z</time>
        <extensions>
          <ns3:TrackPointExtension>
            <ns3:atemp>17.0</ns3:atemp>
          </ns3:TrackPointExtension>
        </extensions>
      </trkpt>
      <trkpt lat="42.509618885815143585205078125" lon="19.89490114152431488037109375">
        <ele>1759.4000244140625</ele>
        <time>2026-06-17T12:08:04.000Z</time>
        <extensions>
          <ns3:TrackPointExtension>
            <ns3:atemp>17.0</ns3:atemp>
          </ns3:TrackPointExtension>
        </extensions>
      </trkpt>
      <trkpt lat="42.509618885815143585205078125" lon="19.89490114152431488037109375">
        <ele>1759.4000244140625</ele>
        <time>2026-06-17T12:08:05.000Z</time>
        <extensions>
          <ns3:TrackPointExtension>
            <ns3:atemp>17.0</ns3:atemp>
          </ns3:TrackPointExtension>
        </extensions>
      </trkpt>
      <trkpt lat="42.509618885815143585205078125" lon="19.89490114152431488037109375">
        <ele>1759.4000244140625</ele>
        <time>2026-06-17T12:08:06.000Z</time>
        <extensions>
          <ns3:TrackPointExtension>
            <ns3:atemp>17.0</ns3:atemp>
          </ns3:TrackPointExtension>
        </extensions>
      </trkpt>
      <trkpt lat="42.509618885815143585205078125" lon="19.89490114152431488037109375">
        <ele>1759.4000244140625</ele>
        <time>2026-06-17T12:08:07.000Z</time>
        <extensions>
          <ns3:TrackPointExtension>
            <ns3:atemp>17.0</ns3:atemp>
          </ns3:TrackPointExtension>
        </extensions>
      </trkpt>
      <trkpt lat="42.509618885815143585205078125" lon="19.89490114152431488037109375">
        <ele>1759.4000244140625</ele>
        <time>2026-06-17T12:08:08.000Z</time>
        <extensions>
          <ns3:TrackPointExtension>
            <ns3:atemp>17.0</ns3:atemp>
          </ns3:TrackPointExtension>
        </extensions>
      </trkpt>
      <trkpt lat="42.509618885815143585205078125" lon="19.89490114152431488037109375">
        <ele>1759.4000244140625</ele>
        <time>2026-06-17T12:08:09.000Z</time>
        <extensions>
          <ns3:TrackPointExtension>
            <ns3:atemp>17.0</ns3:atemp>
          </ns3:TrackPointExtension>
        </extensions>
      </trkpt>
      <trkpt lat="42.509618885815143585205078125" lon="19.89490114152431488037109375">
        <ele>1759.4000244140625</ele>
        <time>2026-06-17T12:08:10.000Z</time>
        <extensions>
          <ns3:TrackPointExtension>
            <ns3:atemp>17.0</ns3:atemp>
          </ns3:TrackPointExtension>
        </extensions>
      </trkpt>
      <trkpt lat="42.509618885815143585205078125" lon="19.89490114152431488037109375">
        <ele>1759.4000244140625</ele>
        <time>2026-06-17T12:08:11.000Z</time>
        <extensions>
          <ns3:TrackPointExtension>
            <ns3:atemp>17.0</ns3:atemp>
          </ns3:TrackPointExtension>
        </extensions>
      </trkpt>
      <trkpt lat="42.509618885815143585205078125" lon="19.89490114152431488037109375">
        <ele>1759.4000244140625</ele>
        <time>2026-06-17T12:08:12.000Z</time>
        <extensions>
          <ns3:TrackPointExtension>
            <ns3:atemp>17.0</ns3:atemp>
          </ns3:TrackPointExtension>
        </extensions>
      </trkpt>
      <trkpt lat="42.509618885815143585205078125" lon="19.89490114152431488037109375">
        <ele>1759.4000244140625</ele>
        <time>2026-06-17T12:08:13.000Z</time>
        <extensions>
          <ns3:TrackPointExtension>
            <ns3:atemp>17.0</ns3:atemp>
          </ns3:TrackPointExtension>
        </extensions>
      </trkpt>
      <trkpt lat="42.509618885815143585205078125" lon="19.89490114152431488037109375">
        <ele>1759.4000244140625</ele>
        <time>2026-06-17T12:08:14.000Z</time>
        <extensions>
          <ns3:TrackPointExtension>
            <ns3:atemp>17.0</ns3:atemp>
          </ns3:TrackPointExtension>
        </extensions>
      </trkpt>
      <trkpt lat="42.509618885815143585205078125" lon="19.89490114152431488037109375">
        <ele>1759.4000244140625</ele>
        <time>2026-06-17T12:08:15.000Z</time>
        <extensions>
          <ns3:TrackPointExtension>
            <ns3:atemp>18.0</ns3:atemp>
          </ns3:TrackPointExtension>
        </extensions>
      </trkpt>
      <trkpt lat="42.509618885815143585205078125" lon="19.89490114152431488037109375">
        <ele>1759.4000244140625</ele>
        <time>2026-06-17T12:08:16.000Z</time>
        <extensions>
          <ns3:TrackPointExtension>
            <ns3:atemp>17.0</ns3:atemp>
          </ns3:TrackPointExtension>
        </extensions>
      </trkpt>
      <trkpt lat="42.509618885815143585205078125" lon="19.89490114152431488037109375">
        <ele>1759.4000244140625</ele>
        <time>2026-06-17T12:08:17.000Z</time>
        <extensions>
          <ns3:TrackPointExtension>
            <ns3:atemp>18.0</ns3:atemp>
          </ns3:TrackPointExtension>
        </extensions>
      </trkpt>
      <trkpt lat="42.509618885815143585205078125" lon="19.89490114152431488037109375">
        <ele>1759.4000244140625</ele>
        <time>2026-06-17T12:08:18.000Z</time>
        <extensions>
          <ns3:TrackPointExtension>
            <ns3:atemp>18.0</ns3:atemp>
          </ns3:TrackPointExtension>
        </extensions>
      </trkpt>
      <trkpt lat="42.509618885815143585205078125" lon="19.89490114152431488037109375">
        <ele>1759.4000244140625</ele>
        <time>2026-06-17T12:08:19.000Z</time>
        <extensions>
          <ns3:TrackPointExtension>
            <ns3:atemp>18.0</ns3:atemp>
          </ns3:TrackPointExtension>
        </extensions>
      </trkpt>
      <trkpt lat="42.509618885815143585205078125" lon="19.89490114152431488037109375">
        <ele>1759.4000244140625</ele>
        <time>2026-06-17T12:08:20.000Z</time>
        <extensions>
          <ns3:TrackPointExtension>
            <ns3:atemp>18.0</ns3:atemp>
          </ns3:TrackPointExtension>
        </extensions>
      </trkpt>
      <trkpt lat="42.509618885815143585205078125" lon="19.89490114152431488037109375">
        <ele>1759.4000244140625</ele>
        <time>2026-06-17T12:08:21.000Z</time>
        <extensions>
          <ns3:TrackPointExtension>
            <ns3:atemp>18.0</ns3:atemp>
          </ns3:TrackPointExtension>
        </extensions>
      </trkpt>
      <trkpt lat="42.509618885815143585205078125" lon="19.89490114152431488037109375">
        <ele>1759.4000244140625</ele>
        <time>2026-06-17T12:08:22.000Z</time>
        <extensions>
          <ns3:TrackPointExtension>
            <ns3:atemp>18.0</ns3:atemp>
          </ns3:TrackPointExtension>
        </extensions>
      </trkpt>
      <trkpt lat="42.509618885815143585205078125" lon="19.89490114152431488037109375">
        <ele>1759.4000244140625</ele>
        <time>2026-06-17T12:08:23.000Z</time>
        <extensions>
          <ns3:TrackPointExtension>
            <ns3:atemp>18.0</ns3:atemp>
          </ns3:TrackPointExtension>
        </extensions>
      </trkpt>
      <trkpt lat="42.509618885815143585205078125" lon="19.89490114152431488037109375">
        <ele>1759.199951171875</ele>
        <time>2026-06-17T12:08:24.000Z</time>
        <extensions>
          <ns3:TrackPointExtension>
            <ns3:atemp>18.0</ns3:atemp>
          </ns3:TrackPointExtension>
        </extensions>
      </trkpt>
      <trkpt lat="42.509618885815143585205078125" lon="19.89490114152431488037109375">
        <ele>1759.199951171875</ele>
        <time>2026-06-17T12:08:25.000Z</time>
        <extensions>
          <ns3:TrackPointExtension>
            <ns3:atemp>18.0</ns3:atemp>
          </ns3:TrackPointExtension>
        </extensions>
      </trkpt>
      <trkpt lat="42.509618885815143585205078125" lon="19.89490114152431488037109375">
        <ele>1759.199951171875</ele>
        <time>2026-06-17T12:08:26.000Z</time>
        <extensions>
          <ns3:TrackPointExtension>
            <ns3:atemp>18.0</ns3:atemp>
          </ns3:TrackPointExtension>
        </extensions>
      </trkpt>
      <trkpt lat="42.509618885815143585205078125" lon="19.89490114152431488037109375">
        <ele>1759.199951171875</ele>
        <time>2026-06-17T12:08:27.000Z</time>
        <extensions>
          <ns3:TrackPointExtension>
            <ns3:atemp>18.0</ns3:atemp>
          </ns3:TrackPointExtension>
        </extensions>
      </trkpt>
      <trkpt lat="42.509618885815143585205078125" lon="19.89490114152431488037109375">
        <ele>1759.199951171875</ele>
        <time>2026-06-17T12:08:28.000Z</time>
        <extensions>
          <ns3:TrackPointExtension>
            <ns3:atemp>18.0</ns3:atemp>
          </ns3:TrackPointExtension>
        </extensions>
      </trkpt>
      <trkpt lat="42.509618885815143585205078125" lon="19.89490114152431488037109375">
        <ele>1759.199951171875</ele>
        <time>2026-06-17T12:08:29.000Z</time>
        <extensions>
          <ns3:TrackPointExtension>
            <ns3:atemp>18.0</ns3:atemp>
          </ns3:TrackPointExtension>
        </extensions>
      </trkpt>
      <trkpt lat="42.509618885815143585205078125" lon="19.89490114152431488037109375">
        <ele>1759.199951171875</ele>
        <time>2026-06-17T12:08:30.000Z</time>
        <extensions>
          <ns3:TrackPointExtension>
            <ns3:atemp>18.0</ns3:atemp>
          </ns3:TrackPointExtension>
        </extensions>
      </trkpt>
      <trkpt lat="42.509618885815143585205078125" lon="19.89490114152431488037109375">
        <ele>1759.4000244140625</ele>
        <time>2026-06-17T12:08:31.000Z</time>
        <extensions>
          <ns3:TrackPointExtension>
            <ns3:atemp>18.0</ns3:atemp>
          </ns3:TrackPointExtension>
        </extensions>
      </trkpt>
      <trkpt lat="42.509618885815143585205078125" lon="19.89490114152431488037109375">
        <ele>1759.4000244140625</ele>
        <time>2026-06-17T12:08:32.000Z</time>
        <extensions>
          <ns3:TrackPointExtension>
            <ns3:atemp>18.0</ns3:atemp>
          </ns3:TrackPointExtension>
        </extensions>
      </trkpt>
      <trkpt lat="42.509618885815143585205078125" lon="19.89490114152431488037109375">
        <ele>1759.4000244140625</ele>
        <time>2026-06-17T12:08:33.000Z</time>
        <extensions>
          <ns3:TrackPointExtension>
            <ns3:atemp>18.0</ns3:atemp>
          </ns3:TrackPointExtension>
        </extensions>
      </trkpt>
      <trkpt lat="42.509618885815143585205078125" lon="19.89490114152431488037109375">
        <ele>1759.4000244140625</ele>
        <time>2026-06-17T12:08:34.000Z</time>
        <extensions>
          <ns3:TrackPointExtension>
            <ns3:atemp>18.0</ns3:atemp>
          </ns3:TrackPointExtension>
        </extensions>
      </trkpt>
      <trkpt lat="42.509618885815143585205078125" lon="19.89490114152431488037109375">
        <ele>1759.4000244140625</ele>
        <time>2026-06-17T12:08:35.000Z</time>
        <extensions>
          <ns3:TrackPointExtension>
            <ns3:atemp>18.0</ns3:atemp>
          </ns3:TrackPointExtension>
        </extensions>
      </trkpt>
      <trkpt lat="42.509618885815143585205078125" lon="19.89490114152431488037109375">
        <ele>1759.4000244140625</ele>
        <time>2026-06-17T12:08:36.000Z</time>
        <extensions>
          <ns3:TrackPointExtension>
            <ns3:atemp>18.0</ns3:atemp>
          </ns3:TrackPointExtension>
        </extensions>
      </trkpt>
      <trkpt lat="42.509618885815143585205078125" lon="19.89490114152431488037109375">
        <ele>1759.4000244140625</ele>
        <time>2026-06-17T12:08:37.000Z</time>
        <extensions>
          <ns3:TrackPointExtension>
            <ns3:atemp>18.0</ns3:atemp>
          </ns3:TrackPointExtension>
        </extensions>
      </trkpt>
      <trkpt lat="42.509618885815143585205078125" lon="19.89490114152431488037109375">
        <ele>1759.4000244140625</ele>
        <time>2026-06-17T12:08:38.000Z</time>
        <extensions>
          <ns3:TrackPointExtension>
            <ns3:atemp>18.0</ns3:atemp>
          </ns3:TrackPointExtension>
        </extensions>
      </trkpt>
      <trkpt lat="42.509618885815143585205078125" lon="19.89490114152431488037109375">
        <ele>1759.4000244140625</ele>
        <time>2026-06-17T12:08:39.000Z</time>
        <extensions>
          <ns3:TrackPointExtension>
            <ns3:atemp>18.0</ns3:atemp>
          </ns3:TrackPointExtension>
        </extensions>
      </trkpt>
      <trkpt lat="42.509618885815143585205078125" lon="19.89490114152431488037109375">
        <ele>1759.4000244140625</ele>
        <time>2026-06-17T12:08:40.000Z</time>
        <extensions>
          <ns3:TrackPointExtension>
            <ns3:atemp>18.0</ns3:atemp>
          </ns3:TrackPointExtension>
        </extensions>
      </trkpt>
      <trkpt lat="42.509618885815143585205078125" lon="19.89490114152431488037109375">
        <ele>1759.4000244140625</ele>
        <time>2026-06-17T12:08:41.000Z</time>
        <extensions>
          <ns3:TrackPointExtension>
            <ns3:atemp>18.0</ns3:atemp>
          </ns3:TrackPointExtension>
        </extensions>
      </trkpt>
      <trkpt lat="42.509618885815143585205078125" lon="19.89490114152431488037109375">
        <ele>1759.4000244140625</ele>
        <time>2026-06-17T12:08:42.000Z</time>
        <extensions>
          <ns3:TrackPointExtension>
            <ns3:atemp>18.0</ns3:atemp>
          </ns3:TrackPointExtension>
        </extensions>
      </trkpt>
      <trkpt lat="42.509618885815143585205078125" lon="19.89490114152431488037109375">
        <ele>1759.4000244140625</ele>
        <time>2026-06-17T12:08:43.000Z</time>
        <extensions>
          <ns3:TrackPointExtension>
            <ns3:atemp>18.0</ns3:atemp>
          </ns3:TrackPointExtension>
        </extensions>
      </trkpt>
      <trkpt lat="42.509618885815143585205078125" lon="19.89490114152431488037109375">
        <ele>1759.4000244140625</ele>
        <time>2026-06-17T12:08:44.000Z</time>
        <extensions>
          <ns3:TrackPointExtension>
            <ns3:atemp>18.0</ns3:atemp>
          </ns3:TrackPointExtension>
        </extensions>
      </trkpt>
      <trkpt lat="42.509618885815143585205078125" lon="19.89490114152431488037109375">
        <ele>1759.4000244140625</ele>
        <time>2026-06-17T12:08:45.000Z</time>
        <extensions>
          <ns3:TrackPointExtension>
            <ns3:atemp>18.0</ns3:atemp>
          </ns3:TrackPointExtension>
        </extensions>
      </trkpt>
      <trkpt lat="42.509618885815143585205078125" lon="19.89490114152431488037109375">
        <ele>1759.4000244140625</ele>
        <time>2026-06-17T12:08:46.000Z</time>
        <extensions>
          <ns3:TrackPointExtension>
            <ns3:atemp>18.0</ns3:atemp>
          </ns3:TrackPointExtension>
        </extensions>
      </trkpt>
      <trkpt lat="42.509618885815143585205078125" lon="19.89490114152431488037109375">
        <ele>1759.4000244140625</ele>
        <time>2026-06-17T12:08:47.000Z</time>
        <extensions>
          <ns3:TrackPointExtension>
            <ns3:atemp>18.0</ns3:atemp>
          </ns3:TrackPointExtension>
        </extensions>
      </trkpt>
      <trkpt lat="42.509618885815143585205078125" lon="19.89490114152431488037109375">
        <ele>1759.4000244140625</ele>
        <time>2026-06-17T12:08:48.000Z</time>
        <extensions>
          <ns3:TrackPointExtension>
            <ns3:atemp>18.0</ns3:atemp>
          </ns3:TrackPointExtension>
        </extensions>
      </trkpt>
      <trkpt lat="42.509618885815143585205078125" lon="19.89490114152431488037109375">
        <ele>1759.4000244140625</ele>
        <time>2026-06-17T12:08:49.000Z</time>
        <extensions>
          <ns3:TrackPointExtension>
            <ns3:atemp>18.0</ns3:atemp>
          </ns3:TrackPointExtension>
        </extensions>
      </trkpt>
      <trkpt lat="42.509618885815143585205078125" lon="19.89490114152431488037109375">
        <ele>1759.4000244140625</ele>
        <time>2026-06-17T12:08:50.000Z</time>
        <extensions>
          <ns3:TrackPointExtension>
            <ns3:atemp>18.0</ns3:atemp>
          </ns3:TrackPointExtension>
        </extensions>
      </trkpt>
      <trkpt lat="42.509618885815143585205078125" lon="19.89490114152431488037109375">
        <ele>1759.4000244140625</ele>
        <time>2026-06-17T12:08:51.000Z</time>
        <extensions>
          <ns3:TrackPointExtension>
            <ns3:atemp>18.0</ns3:atemp>
          </ns3:TrackPointExtension>
        </extensions>
      </trkpt>
      <trkpt lat="42.509618885815143585205078125" lon="19.89490114152431488037109375">
        <ele>1759.4000244140625</ele>
        <time>2026-06-17T12:08:52.000Z</time>
        <extensions>
          <ns3:TrackPointExtension>
            <ns3:atemp>18.0</ns3:atemp>
          </ns3:TrackPointExtension>
        </extensions>
      </trkpt>
      <trkpt lat="42.509618885815143585205078125" lon="19.89490114152431488037109375">
        <ele>1759.4000244140625</ele>
        <time>2026-06-17T12:08:53.000Z</time>
        <extensions>
          <ns3:TrackPointExtension>
            <ns3:atemp>18.0</ns3:atemp>
          </ns3:TrackPointExtension>
        </extensions>
      </trkpt>
      <trkpt lat="42.509618885815143585205078125" lon="19.89490114152431488037109375">
        <ele>1759.4000244140625</ele>
        <time>2026-06-17T12:08:54.000Z</time>
        <extensions>
          <ns3:TrackPointExtension>
            <ns3:atemp>18.0</ns3:atemp>
          </ns3:TrackPointExtension>
        </extensions>
      </trkpt>
      <trkpt lat="42.509618885815143585205078125" lon="19.89490114152431488037109375">
        <ele>1759.4000244140625</ele>
        <time>2026-06-17T12:08:55.000Z</time>
        <extensions>
          <ns3:TrackPointExtension>
            <ns3:atemp>18.0</ns3:atemp>
          </ns3:TrackPointExtension>
        </extensions>
      </trkpt>
      <trkpt lat="42.509618885815143585205078125" lon="19.89490114152431488037109375">
        <ele>1759.4000244140625</ele>
        <time>2026-06-17T12:08:56.000Z</time>
        <extensions>
          <ns3:TrackPointExtension>
            <ns3:atemp>18.0</ns3:atemp>
          </ns3:TrackPointExtension>
        </extensions>
      </trkpt>
      <trkpt lat="42.509618885815143585205078125" lon="19.89490114152431488037109375">
        <ele>1759.4000244140625</ele>
        <time>2026-06-17T12:08:57.000Z</time>
        <extensions>
          <ns3:TrackPointExtension>
            <ns3:atemp>18.0</ns3:atemp>
          </ns3:TrackPointExtension>
        </extensions>
      </trkpt>
      <trkpt lat="42.509618885815143585205078125" lon="19.89490114152431488037109375">
        <ele>1759.4000244140625</ele>
        <time>2026-06-17T12:08:58.000Z</time>
        <extensions>
          <ns3:TrackPointExtension>
            <ns3:atemp>18.0</ns3:atemp>
          </ns3:TrackPointExtension>
        </extensions>
      </trkpt>
      <trkpt lat="42.509618885815143585205078125" lon="19.89490114152431488037109375">
        <ele>1759.4000244140625</ele>
        <time>2026-06-17T12:08:59.000Z</time>
        <extensions>
          <ns3:TrackPointExtension>
            <ns3:atemp>18.0</ns3:atemp>
          </ns3:TrackPointExtension>
        </extensions>
      </trkpt>
      <trkpt lat="42.509618885815143585205078125" lon="19.89490114152431488037109375">
        <ele>1759.4000244140625</ele>
        <time>2026-06-17T12:09:00.000Z</time>
        <extensions>
          <ns3:TrackPointExtension>
            <ns3:atemp>18.0</ns3:atemp>
          </ns3:TrackPointExtension>
        </extensions>
      </trkpt>
      <trkpt lat="42.509618885815143585205078125" lon="19.89490114152431488037109375">
        <ele>1759.4000244140625</ele>
        <time>2026-06-17T12:09:01.000Z</time>
        <extensions>
          <ns3:TrackPointExtension>
            <ns3:atemp>18.0</ns3:atemp>
          </ns3:TrackPointExtension>
        </extensions>
      </trkpt>
      <trkpt lat="42.509618885815143585205078125" lon="19.89490114152431488037109375">
        <ele>1759.4000244140625</ele>
        <time>2026-06-17T12:09:02.000Z</time>
        <extensions>
          <ns3:TrackPointExtension>
            <ns3:atemp>18.0</ns3:atemp>
          </ns3:TrackPointExtension>
        </extensions>
      </trkpt>
      <trkpt lat="42.509618885815143585205078125" lon="19.89490114152431488037109375">
        <ele>1759.4000244140625</ele>
        <time>2026-06-17T12:09:03.000Z</time>
        <extensions>
          <ns3:TrackPointExtension>
            <ns3:atemp>18.0</ns3:atemp>
          </ns3:TrackPointExtension>
        </extensions>
      </trkpt>
      <trkpt lat="42.509618885815143585205078125" lon="19.89490114152431488037109375">
        <ele>1759.4000244140625</ele>
        <time>2026-06-17T12:09:04.000Z</time>
        <extensions>
          <ns3:TrackPointExtension>
            <ns3:atemp>18.0</ns3:atemp>
          </ns3:TrackPointExtension>
        </extensions>
      </trkpt>
      <trkpt lat="42.509618885815143585205078125" lon="19.89490114152431488037109375">
        <ele>1759.4000244140625</ele>
        <time>2026-06-17T12:09:05.000Z</time>
        <extensions>
          <ns3:TrackPointExtension>
            <ns3:atemp>18.0</ns3:atemp>
          </ns3:TrackPointExtension>
        </extensions>
      </trkpt>
      <trkpt lat="42.509618885815143585205078125" lon="19.89490114152431488037109375">
        <ele>1759.4000244140625</ele>
        <time>2026-06-17T12:09:06.000Z</time>
        <extensions>
          <ns3:TrackPointExtension>
            <ns3:atemp>18.0</ns3:atemp>
          </ns3:TrackPointExtension>
        </extensions>
      </trkpt>
      <trkpt lat="42.509618885815143585205078125" lon="19.89490114152431488037109375">
        <ele>1759.4000244140625</ele>
        <time>2026-06-17T12:09:07.000Z</time>
        <extensions>
          <ns3:TrackPointExtension>
            <ns3:atemp>18.0</ns3:atemp>
          </ns3:TrackPointExtension>
        </extensions>
      </trkpt>
      <trkpt lat="42.509618885815143585205078125" lon="19.89490114152431488037109375">
        <ele>1759.4000244140625</ele>
        <time>2026-06-17T12:09:08.000Z</time>
        <extensions>
          <ns3:TrackPointExtension>
            <ns3:atemp>18.0</ns3:atemp>
          </ns3:TrackPointExtension>
        </extensions>
      </trkpt>
      <trkpt lat="42.509618885815143585205078125" lon="19.89490114152431488037109375">
        <ele>1759.4000244140625</ele>
        <time>2026-06-17T12:09:09.000Z</time>
        <extensions>
          <ns3:TrackPointExtension>
            <ns3:atemp>18.0</ns3:atemp>
          </ns3:TrackPointExtension>
        </extensions>
      </trkpt>
      <trkpt lat="42.509618885815143585205078125" lon="19.89490114152431488037109375">
        <ele>1759.4000244140625</ele>
        <time>2026-06-17T12:09:10.000Z</time>
        <extensions>
          <ns3:TrackPointExtension>
            <ns3:atemp>18.0</ns3:atemp>
          </ns3:TrackPointExtension>
        </extensions>
      </trkpt>
      <trkpt lat="42.509618885815143585205078125" lon="19.89490114152431488037109375">
        <ele>1759.4000244140625</ele>
        <time>2026-06-17T12:09:11.000Z</time>
        <extensions>
          <ns3:TrackPointExtension>
            <ns3:atemp>18.0</ns3:atemp>
          </ns3:TrackPointExtension>
        </extensions>
      </trkpt>
      <trkpt lat="42.509618885815143585205078125" lon="19.89490114152431488037109375">
        <ele>1759.4000244140625</ele>
        <time>2026-06-17T12:09:12.000Z</time>
        <extensions>
          <ns3:TrackPointExtension>
            <ns3:atemp>18.0</ns3:atemp>
          </ns3:TrackPointExtension>
        </extensions>
      </trkpt>
      <trkpt lat="42.509618885815143585205078125" lon="19.89490114152431488037109375">
        <ele>1759.4000244140625</ele>
        <time>2026-06-17T12:09:13.000Z</time>
        <extensions>
          <ns3:TrackPointExtension>
            <ns3:atemp>18.0</ns3:atemp>
          </ns3:TrackPointExtension>
        </extensions>
      </trkpt>
      <trkpt lat="42.509618885815143585205078125" lon="19.89490114152431488037109375">
        <ele>1759.4000244140625</ele>
        <time>2026-06-17T12:09:14.000Z</time>
        <extensions>
          <ns3:TrackPointExtension>
            <ns3:atemp>18.0</ns3:atemp>
          </ns3:TrackPointExtension>
        </extensions>
      </trkpt>
      <trkpt lat="42.509618885815143585205078125" lon="19.89490114152431488037109375">
        <ele>1759.4000244140625</ele>
        <time>2026-06-17T12:09:15.000Z</time>
        <extensions>
          <ns3:TrackPointExtension>
            <ns3:atemp>18.0</ns3:atemp>
          </ns3:TrackPointExtension>
        </extensions>
      </trkpt>
      <trkpt lat="42.509618885815143585205078125" lon="19.89490114152431488037109375">
        <ele>1759.4000244140625</ele>
        <time>2026-06-17T12:09:16.000Z</time>
        <extensions>
          <ns3:TrackPointExtension>
            <ns3:atemp>18.0</ns3:atemp>
          </ns3:TrackPointExtension>
        </extensions>
      </trkpt>
      <trkpt lat="42.509618885815143585205078125" lon="19.89490114152431488037109375">
        <ele>1759.4000244140625</ele>
        <time>2026-06-17T12:09:17.000Z</time>
        <extensions>
          <ns3:TrackPointExtension>
            <ns3:atemp>18.0</ns3:atemp>
          </ns3:TrackPointExtension>
        </extensions>
      </trkpt>
      <trkpt lat="42.509618885815143585205078125" lon="19.89490114152431488037109375">
        <ele>1759.4000244140625</ele>
        <time>2026-06-17T12:09:18.000Z</time>
        <extensions>
          <ns3:TrackPointExtension>
            <ns3:atemp>18.0</ns3:atemp>
          </ns3:TrackPointExtension>
        </extensions>
      </trkpt>
      <trkpt lat="42.509618885815143585205078125" lon="19.89490114152431488037109375">
        <ele>1759.4000244140625</ele>
        <time>2026-06-17T12:09:19.000Z</time>
        <extensions>
          <ns3:TrackPointExtension>
            <ns3:atemp>18.0</ns3:atemp>
          </ns3:TrackPointExtension>
        </extensions>
      </trkpt>
      <trkpt lat="42.509618885815143585205078125" lon="19.89490114152431488037109375">
        <ele>1759.4000244140625</ele>
        <time>2026-06-17T12:09:20.000Z</time>
        <extensions>
          <ns3:TrackPointExtension>
            <ns3:atemp>18.0</ns3:atemp>
          </ns3:TrackPointExtension>
        </extensions>
      </trkpt>
      <trkpt lat="42.509618885815143585205078125" lon="19.89490114152431488037109375">
        <ele>1759.4000244140625</ele>
        <time>2026-06-17T12:09:21.000Z</time>
        <extensions>
          <ns3:TrackPointExtension>
            <ns3:atemp>18.0</ns3:atemp>
          </ns3:TrackPointExtension>
        </extensions>
      </trkpt>
      <trkpt lat="42.509618885815143585205078125" lon="19.89490114152431488037109375">
        <ele>1759.4000244140625</ele>
        <time>2026-06-17T12:09:22.000Z</time>
        <extensions>
          <ns3:TrackPointExtension>
            <ns3:atemp>18.0</ns3:atemp>
          </ns3:TrackPointExtension>
        </extensions>
      </trkpt>
      <trkpt lat="42.509618885815143585205078125" lon="19.89490114152431488037109375">
        <ele>1759.4000244140625</ele>
        <time>2026-06-17T12:09:23.000Z</time>
        <extensions>
          <ns3:TrackPointExtension>
            <ns3:atemp>18.0</ns3:atemp>
          </ns3:TrackPointExtension>
        </extensions>
      </trkpt>
      <trkpt lat="42.509618885815143585205078125" lon="19.89490114152431488037109375">
        <ele>1759.4000244140625</ele>
        <time>2026-06-17T12:09:24.000Z</time>
        <extensions>
          <ns3:TrackPointExtension>
            <ns3:atemp>18.0</ns3:atemp>
          </ns3:TrackPointExtension>
        </extensions>
      </trkpt>
      <trkpt lat="42.509618885815143585205078125" lon="19.89490114152431488037109375">
        <ele>1759.4000244140625</ele>
        <time>2026-06-17T12:09:25.000Z</time>
        <extensions>
          <ns3:TrackPointExtension>
            <ns3:atemp>18.0</ns3:atemp>
          </ns3:TrackPointExtension>
        </extensions>
      </trkpt>
      <trkpt lat="42.509618885815143585205078125" lon="19.89490114152431488037109375">
        <ele>1759.4000244140625</ele>
        <time>2026-06-17T12:09:26.000Z</time>
        <extensions>
          <ns3:TrackPointExtension>
            <ns3:atemp>18.0</ns3:atemp>
          </ns3:TrackPointExtension>
        </extensions>
      </trkpt>
      <trkpt lat="42.509618885815143585205078125" lon="19.89490114152431488037109375">
        <ele>1759.4000244140625</ele>
        <time>2026-06-17T12:09:27.000Z</time>
        <extensions>
          <ns3:TrackPointExtension>
            <ns3:atemp>18.0</ns3:atemp>
          </ns3:TrackPointExtension>
        </extensions>
      </trkpt>
      <trkpt lat="42.509618885815143585205078125" lon="19.89490114152431488037109375">
        <ele>1759.4000244140625</ele>
        <time>2026-06-17T12:09:28.000Z</time>
        <extensions>
          <ns3:TrackPointExtension>
            <ns3:atemp>18.0</ns3:atemp>
          </ns3:TrackPointExtension>
        </extensions>
      </trkpt>
      <trkpt lat="42.509618885815143585205078125" lon="19.89490114152431488037109375">
        <ele>1759.4000244140625</ele>
        <time>2026-06-17T12:09:29.000Z</time>
        <extensions>
          <ns3:TrackPointExtension>
            <ns3:atemp>18.0</ns3:atemp>
          </ns3:TrackPointExtension>
        </extensions>
      </trkpt>
      <trkpt lat="42.509618885815143585205078125" lon="19.89490114152431488037109375">
        <ele>1759.4000244140625</ele>
        <time>2026-06-17T12:09:30.000Z</time>
        <extensions>
          <ns3:TrackPointExtension>
            <ns3:atemp>18.0</ns3:atemp>
          </ns3:TrackPointExtension>
        </extensions>
      </trkpt>
      <trkpt lat="42.509618885815143585205078125" lon="19.89490114152431488037109375">
        <ele>1759.4000244140625</ele>
        <time>2026-06-17T12:09:31.000Z</time>
        <extensions>
          <ns3:TrackPointExtension>
            <ns3:atemp>18.0</ns3:atemp>
          </ns3:TrackPointExtension>
        </extensions>
      </trkpt>
      <trkpt lat="42.509618885815143585205078125" lon="19.89490114152431488037109375">
        <ele>1759.4000244140625</ele>
        <time>2026-06-17T12:09:32.000Z</time>
        <extensions>
          <ns3:TrackPointExtension>
            <ns3:atemp>18.0</ns3:atemp>
          </ns3:TrackPointExtension>
        </extensions>
      </trkpt>
      <trkpt lat="42.509618885815143585205078125" lon="19.89490114152431488037109375">
        <ele>1759.4000244140625</ele>
        <time>2026-06-17T12:09:33.000Z</time>
        <extensions>
          <ns3:TrackPointExtension>
            <ns3:atemp>18.0</ns3:atemp>
          </ns3:TrackPointExtension>
        </extensions>
      </trkpt>
      <trkpt lat="42.509618885815143585205078125" lon="19.89490114152431488037109375">
        <ele>1759.4000244140625</ele>
        <time>2026-06-17T12:09:34.000Z</time>
        <extensions>
          <ns3:TrackPointExtension>
            <ns3:atemp>18.0</ns3:atemp>
          </ns3:TrackPointExtension>
        </extensions>
      </trkpt>
      <trkpt lat="42.509618885815143585205078125" lon="19.89490114152431488037109375">
        <ele>1759.4000244140625</ele>
        <time>2026-06-17T12:09:35.000Z</time>
        <extensions>
          <ns3:TrackPointExtension>
            <ns3:atemp>18.0</ns3:atemp>
          </ns3:TrackPointExtension>
        </extensions>
      </trkpt>
      <trkpt lat="42.509618885815143585205078125" lon="19.89490114152431488037109375">
        <ele>1759.4000244140625</ele>
        <time>2026-06-17T12:09:36.000Z</time>
        <extensions>
          <ns3:TrackPointExtension>
            <ns3:atemp>18.0</ns3:atemp>
          </ns3:TrackPointExtension>
        </extensions>
      </trkpt>
      <trkpt lat="42.509618885815143585205078125" lon="19.89490114152431488037109375">
        <ele>1759.4000244140625</ele>
        <time>2026-06-17T12:09:37.000Z</time>
        <extensions>
          <ns3:TrackPointExtension>
            <ns3:atemp>18.0</ns3:atemp>
          </ns3:TrackPointExtension>
        </extensions>
      </trkpt>
      <trkpt lat="42.509618885815143585205078125" lon="19.89490114152431488037109375">
        <ele>1759.4000244140625</ele>
        <time>2026-06-17T12:09:38.000Z</time>
        <extensions>
          <ns3:TrackPointExtension>
            <ns3:atemp>18.0</ns3:atemp>
          </ns3:TrackPointExtension>
        </extensions>
      </trkpt>
      <trkpt lat="42.509618885815143585205078125" lon="19.89490114152431488037109375">
        <ele>1759.4000244140625</ele>
        <time>2026-06-17T12:09:39.000Z</time>
        <extensions>
          <ns3:TrackPointExtension>
            <ns3:atemp>18.0</ns3:atemp>
          </ns3:TrackPointExtension>
        </extensions>
      </trkpt>
      <trkpt lat="42.509618885815143585205078125" lon="19.89490114152431488037109375">
        <ele>1759.4000244140625</ele>
        <time>2026-06-17T12:09:40.000Z</time>
        <extensions>
          <ns3:TrackPointExtension>
            <ns3:atemp>18.0</ns3:atemp>
          </ns3:TrackPointExtension>
        </extensions>
      </trkpt>
      <trkpt lat="42.509618885815143585205078125" lon="19.89490114152431488037109375">
        <ele>1759.4000244140625</ele>
        <time>2026-06-17T12:09:41.000Z</time>
        <extensions>
          <ns3:TrackPointExtension>
            <ns3:atemp>18.0</ns3:atemp>
          </ns3:TrackPointExtension>
        </extensions>
      </trkpt>
      <trkpt lat="42.509618885815143585205078125" lon="19.89490114152431488037109375">
        <ele>1759.4000244140625</ele>
        <time>2026-06-17T12:09:42.000Z</time>
        <extensions>
          <ns3:TrackPointExtension>
            <ns3:atemp>18.0</ns3:atemp>
          </ns3:TrackPointExtension>
        </extensions>
      </trkpt>
      <trkpt lat="42.509618885815143585205078125" lon="19.89490114152431488037109375">
        <ele>1759.4000244140625</ele>
        <time>2026-06-17T12:09:43.000Z</time>
        <extensions>
          <ns3:TrackPointExtension>
            <ns3:atemp>18.0</ns3:atemp>
          </ns3:TrackPointExtension>
        </extensions>
      </trkpt>
      <trkpt lat="42.509618885815143585205078125" lon="19.89490114152431488037109375">
        <ele>1759.4000244140625</ele>
        <time>2026-06-17T12:09:44.000Z</time>
        <extensions>
          <ns3:TrackPointExtension>
            <ns3:atemp>18.0</ns3:atemp>
          </ns3:TrackPointExtension>
        </extensions>
      </trkpt>
      <trkpt lat="42.509618885815143585205078125" lon="19.89490114152431488037109375">
        <ele>1759.4000244140625</ele>
        <time>2026-06-17T12:09:45.000Z</time>
        <extensions>
          <ns3:TrackPointExtension>
            <ns3:atemp>18.0</ns3:atemp>
          </ns3:TrackPointExtension>
        </extensions>
      </trkpt>
      <trkpt lat="42.509618885815143585205078125" lon="19.89490114152431488037109375">
        <ele>1759.4000244140625</ele>
        <time>2026-06-17T12:09:46.000Z</time>
        <extensions>
          <ns3:TrackPointExtension>
            <ns3:atemp>18.0</ns3:atemp>
          </ns3:TrackPointExtension>
        </extensions>
      </trkpt>
      <trkpt lat="42.509618885815143585205078125" lon="19.89490114152431488037109375">
        <ele>1759.4000244140625</ele>
        <time>2026-06-17T12:09:47.000Z</time>
        <extensions>
          <ns3:TrackPointExtension>
            <ns3:atemp>18.0</ns3:atemp>
          </ns3:TrackPointExtension>
        </extensions>
      </trkpt>
      <trkpt lat="42.509618885815143585205078125" lon="19.89490114152431488037109375">
        <ele>1759.4000244140625</ele>
        <time>2026-06-17T12:09:48.000Z</time>
        <extensions>
          <ns3:TrackPointExtension>
            <ns3:atemp>18.0</ns3:atemp>
          </ns3:TrackPointExtension>
        </extensions>
      </trkpt>
      <trkpt lat="42.509618885815143585205078125" lon="19.89490114152431488037109375">
        <ele>1759.4000244140625</ele>
        <time>2026-06-17T12:09:49.000Z</time>
        <extensions>
          <ns3:TrackPointExtension>
            <ns3:atemp>18.0</ns3:atemp>
          </ns3:TrackPointExtension>
        </extensions>
      </trkpt>
      <trkpt lat="42.509618885815143585205078125" lon="19.89490114152431488037109375">
        <ele>1759.4000244140625</ele>
        <time>2026-06-17T12:09:50.000Z</time>
        <extensions>
          <ns3:TrackPointExtension>
            <ns3:atemp>18.0</ns3:atemp>
          </ns3:TrackPointExtension>
        </extensions>
      </trkpt>
      <trkpt lat="42.509618885815143585205078125" lon="19.89490114152431488037109375">
        <ele>1759.4000244140625</ele>
        <time>2026-06-17T12:09:51.000Z</time>
        <extensions>
          <ns3:TrackPointExtension>
            <ns3:atemp>18.0</ns3:atemp>
          </ns3:TrackPointExtension>
        </extensions>
      </trkpt>
      <trkpt lat="42.509618885815143585205078125" lon="19.89490114152431488037109375">
        <ele>1759.4000244140625</ele>
        <time>2026-06-17T12:09:52.000Z</time>
        <extensions>
          <ns3:TrackPointExtension>
            <ns3:atemp>18.0</ns3:atemp>
          </ns3:TrackPointExtension>
        </extensions>
      </trkpt>
      <trkpt lat="42.509618885815143585205078125" lon="19.89490114152431488037109375">
        <ele>1759.4000244140625</ele>
        <time>2026-06-17T12:09:53.000Z</time>
        <extensions>
          <ns3:TrackPointExtension>
            <ns3:atemp>18.0</ns3:atemp>
          </ns3:TrackPointExtension>
        </extensions>
      </trkpt>
      <trkpt lat="42.509618885815143585205078125" lon="19.89490114152431488037109375">
        <ele>1759.4000244140625</ele>
        <time>2026-06-17T12:09:54.000Z</time>
        <extensions>
          <ns3:TrackPointExtension>
            <ns3:atemp>18.0</ns3:atemp>
          </ns3:TrackPointExtension>
        </extensions>
      </trkpt>
      <trkpt lat="42.509618885815143585205078125" lon="19.89490114152431488037109375">
        <ele>1759.4000244140625</ele>
        <time>2026-06-17T12:09:55.000Z</time>
        <extensions>
          <ns3:TrackPointExtension>
            <ns3:atemp>18.0</ns3:atemp>
          </ns3:TrackPointExtension>
        </extensions>
      </trkpt>
      <trkpt lat="42.509618885815143585205078125" lon="19.89490114152431488037109375">
        <ele>1759.4000244140625</ele>
        <time>2026-06-17T12:09:56.000Z</time>
        <extensions>
          <ns3:TrackPointExtension>
            <ns3:atemp>18.0</ns3:atemp>
          </ns3:TrackPointExtension>
        </extensions>
      </trkpt>
      <trkpt lat="42.509618885815143585205078125" lon="19.89490114152431488037109375">
        <ele>1759.4000244140625</ele>
        <time>2026-06-17T12:09:57.000Z</time>
        <extensions>
          <ns3:TrackPointExtension>
            <ns3:atemp>18.0</ns3:atemp>
          </ns3:TrackPointExtension>
        </extensions>
      </trkpt>
      <trkpt lat="42.509618885815143585205078125" lon="19.89490114152431488037109375">
        <ele>1759.4000244140625</ele>
        <time>2026-06-17T12:09:58.000Z</time>
        <extensions>
          <ns3:TrackPointExtension>
            <ns3:atemp>18.0</ns3:atemp>
          </ns3:TrackPointExtension>
        </extensions>
      </trkpt>
      <trkpt lat="42.509618885815143585205078125" lon="19.89490114152431488037109375">
        <ele>1759.4000244140625</ele>
        <time>2026-06-17T12:09:59.000Z</time>
        <extensions>
          <ns3:TrackPointExtension>
            <ns3:atemp>18.0</ns3:atemp>
          </ns3:TrackPointExtension>
        </extensions>
      </trkpt>
      <trkpt lat="42.509618885815143585205078125" lon="19.89490114152431488037109375">
        <ele>1759.4000244140625</ele>
        <time>2026-06-17T12:10:00.000Z</time>
        <extensions>
          <ns3:TrackPointExtension>
            <ns3:atemp>18.0</ns3:atemp>
          </ns3:TrackPointExtension>
        </extensions>
      </trkpt>
      <trkpt lat="42.509618885815143585205078125" lon="19.89490114152431488037109375">
        <ele>1759.4000244140625</ele>
        <time>2026-06-17T12:10:01.000Z</time>
        <extensions>
          <ns3:TrackPointExtension>
            <ns3:atemp>18.0</ns3:atemp>
          </ns3:TrackPointExtension>
        </extensions>
      </trkpt>
      <trkpt lat="42.509618885815143585205078125" lon="19.89490114152431488037109375">
        <ele>1759.4000244140625</ele>
        <time>2026-06-17T12:10:02.000Z</time>
        <extensions>
          <ns3:TrackPointExtension>
            <ns3:atemp>18.0</ns3:atemp>
          </ns3:TrackPointExtension>
        </extensions>
      </trkpt>
      <trkpt lat="42.509618885815143585205078125" lon="19.89490114152431488037109375">
        <ele>1759.4000244140625</ele>
        <time>2026-06-17T12:10:03.000Z</time>
        <extensions>
          <ns3:TrackPointExtension>
            <ns3:atemp>18.0</ns3:atemp>
          </ns3:TrackPointExtension>
        </extensions>
      </trkpt>
      <trkpt lat="42.509618885815143585205078125" lon="19.89490114152431488037109375">
        <ele>1759.4000244140625</ele>
        <time>2026-06-17T12:10:04.000Z</time>
        <extensions>
          <ns3:TrackPointExtension>
            <ns3:atemp>18.0</ns3:atemp>
          </ns3:TrackPointExtension>
        </extensions>
      </trkpt>
      <trkpt lat="42.509618885815143585205078125" lon="19.89490114152431488037109375">
        <ele>1759.4000244140625</ele>
        <time>2026-06-17T12:10:05.000Z</time>
        <extensions>
          <ns3:TrackPointExtension>
            <ns3:atemp>18.0</ns3:atemp>
          </ns3:TrackPointExtension>
        </extensions>
      </trkpt>
      <trkpt lat="42.509618885815143585205078125" lon="19.89490114152431488037109375">
        <ele>1759.4000244140625</ele>
        <time>2026-06-17T12:10:06.000Z</time>
        <extensions>
          <ns3:TrackPointExtension>
            <ns3:atemp>18.0</ns3:atemp>
          </ns3:TrackPointExtension>
        </extensions>
      </trkpt>
      <trkpt lat="42.509618885815143585205078125" lon="19.89490114152431488037109375">
        <ele>1759.4000244140625</ele>
        <time>2026-06-17T12:10:07.000Z</time>
        <extensions>
          <ns3:TrackPointExtension>
            <ns3:atemp>18.0</ns3:atemp>
          </ns3:TrackPointExtension>
        </extensions>
      </trkpt>
      <trkpt lat="42.509618885815143585205078125" lon="19.89490114152431488037109375">
        <ele>1759.4000244140625</ele>
        <time>2026-06-17T12:10:08.000Z</time>
        <extensions>
          <ns3:TrackPointExtension>
            <ns3:atemp>18.0</ns3:atemp>
          </ns3:TrackPointExtension>
        </extensions>
      </trkpt>
      <trkpt lat="42.509618885815143585205078125" lon="19.89490114152431488037109375">
        <ele>1759.4000244140625</ele>
        <time>2026-06-17T12:10:09.000Z</time>
        <extensions>
          <ns3:TrackPointExtension>
            <ns3:atemp>18.0</ns3:atemp>
          </ns3:TrackPointExtension>
        </extensions>
      </trkpt>
      <trkpt lat="42.509618885815143585205078125" lon="19.89490114152431488037109375">
        <ele>1759.4000244140625</ele>
        <time>2026-06-17T12:10:10.000Z</time>
        <extensions>
          <ns3:TrackPointExtension>
            <ns3:atemp>18.0</ns3:atemp>
          </ns3:TrackPointExtension>
        </extensions>
      </trkpt>
      <trkpt lat="42.509618885815143585205078125" lon="19.89490114152431488037109375">
        <ele>1759.4000244140625</ele>
        <time>2026-06-17T12:10:11.000Z</time>
        <extensions>
          <ns3:TrackPointExtension>
            <ns3:atemp>18.0</ns3:atemp>
          </ns3:TrackPointExtension>
        </extensions>
      </trkpt>
      <trkpt lat="42.509618885815143585205078125" lon="19.89490114152431488037109375">
        <ele>1759.4000244140625</ele>
        <time>2026-06-17T12:10:12.000Z</time>
        <extensions>
          <ns3:TrackPointExtension>
            <ns3:atemp>18.0</ns3:atemp>
          </ns3:TrackPointExtension>
        </extensions>
      </trkpt>
      <trkpt lat="42.509618885815143585205078125" lon="19.89490114152431488037109375">
        <ele>1759.4000244140625</ele>
        <time>2026-06-17T12:10:13.000Z</time>
        <extensions>
          <ns3:TrackPointExtension>
            <ns3:atemp>18.0</ns3:atemp>
          </ns3:TrackPointExtension>
        </extensions>
      </trkpt>
      <trkpt lat="42.509618885815143585205078125" lon="19.89490114152431488037109375">
        <ele>1759.4000244140625</ele>
        <time>2026-06-17T12:10:14.000Z</time>
        <extensions>
          <ns3:TrackPointExtension>
            <ns3:atemp>18.0</ns3:atemp>
          </ns3:TrackPointExtension>
        </extensions>
      </trkpt>
      <trkpt lat="42.509618885815143585205078125" lon="19.89490114152431488037109375">
        <ele>1759.4000244140625</ele>
        <time>2026-06-17T12:10:15.000Z</time>
        <extensions>
          <ns3:TrackPointExtension>
            <ns3:atemp>18.0</ns3:atemp>
          </ns3:TrackPointExtension>
        </extensions>
      </trkpt>
      <trkpt lat="42.509618885815143585205078125" lon="19.89490114152431488037109375">
        <ele>1759.4000244140625</ele>
        <time>2026-06-17T12:10:16.000Z</time>
        <extensions>
          <ns3:TrackPointExtension>
            <ns3:atemp>18.0</ns3:atemp>
          </ns3:TrackPointExtension>
        </extensions>
      </trkpt>
      <trkpt lat="42.509618885815143585205078125" lon="19.89490114152431488037109375">
        <ele>1759.4000244140625</ele>
        <time>2026-06-17T12:10:17.000Z</time>
        <extensions>
          <ns3:TrackPointExtension>
            <ns3:atemp>18.0</ns3:atemp>
          </ns3:TrackPointExtension>
        </extensions>
      </trkpt>
      <trkpt lat="42.509618885815143585205078125" lon="19.89490114152431488037109375">
        <ele>1759.4000244140625</ele>
        <time>2026-06-17T12:10:18.000Z</time>
        <extensions>
          <ns3:TrackPointExtension>
            <ns3:atemp>18.0</ns3:atemp>
          </ns3:TrackPointExtension>
        </extensions>
      </trkpt>
      <trkpt lat="42.509618885815143585205078125" lon="19.89490114152431488037109375">
        <ele>1759.4000244140625</ele>
        <time>2026-06-17T12:10:19.000Z</time>
        <extensions>
          <ns3:TrackPointExtension>
            <ns3:atemp>18.0</ns3:atemp>
          </ns3:TrackPointExtension>
        </extensions>
      </trkpt>
      <trkpt lat="42.509618885815143585205078125" lon="19.89490114152431488037109375">
        <ele>1759.4000244140625</ele>
        <time>2026-06-17T12:10:20.000Z</time>
        <extensions>
          <ns3:TrackPointExtension>
            <ns3:atemp>18.0</ns3:atemp>
          </ns3:TrackPointExtension>
        </extensions>
      </trkpt>
      <trkpt lat="42.509618885815143585205078125" lon="19.89490114152431488037109375">
        <ele>1759.4000244140625</ele>
        <time>2026-06-17T12:10:21.000Z</time>
        <extensions>
          <ns3:TrackPointExtension>
            <ns3:atemp>18.0</ns3:atemp>
          </ns3:TrackPointExtension>
        </extensions>
      </trkpt>
      <trkpt lat="42.509618885815143585205078125" lon="19.89490114152431488037109375">
        <ele>1759.4000244140625</ele>
        <time>2026-06-17T12:10:22.000Z</time>
        <extensions>
          <ns3:TrackPointExtension>
            <ns3:atemp>18.0</ns3:atemp>
          </ns3:TrackPointExtension>
        </extensions>
      </trkpt>
      <trkpt lat="42.509618885815143585205078125" lon="19.89490114152431488037109375">
        <ele>1759.4000244140625</ele>
        <time>2026-06-17T12:10:23.000Z</time>
        <extensions>
          <ns3:TrackPointExtension>
            <ns3:atemp>18.0</ns3:atemp>
          </ns3:TrackPointExtension>
        </extensions>
      </trkpt>
      <trkpt lat="42.509618885815143585205078125" lon="19.89490114152431488037109375">
        <ele>1759.4000244140625</ele>
        <time>2026-06-17T12:10:24.000Z</time>
        <extensions>
          <ns3:TrackPointExtension>
            <ns3:atemp>18.0</ns3:atemp>
          </ns3:TrackPointExtension>
        </extensions>
      </trkpt>
      <trkpt lat="42.509618885815143585205078125" lon="19.89490114152431488037109375">
        <ele>1759.4000244140625</ele>
        <time>2026-06-17T12:10:25.000Z</time>
        <extensions>
          <ns3:TrackPointExtension>
            <ns3:atemp>18.0</ns3:atemp>
          </ns3:TrackPointExtension>
        </extensions>
      </trkpt>
      <trkpt lat="42.509618885815143585205078125" lon="19.89490114152431488037109375">
        <ele>1759.4000244140625</ele>
        <time>2026-06-17T12:10:26.000Z</time>
        <extensions>
          <ns3:TrackPointExtension>
            <ns3:atemp>18.0</ns3:atemp>
          </ns3:TrackPointExtension>
        </extensions>
      </trkpt>
      <trkpt lat="42.509618885815143585205078125" lon="19.89490114152431488037109375">
        <ele>1759.4000244140625</ele>
        <time>2026-06-17T12:10:27.000Z</time>
        <extensions>
          <ns3:TrackPointExtension>
            <ns3:atemp>18.0</ns3:atemp>
          </ns3:TrackPointExtension>
        </extensions>
      </trkpt>
      <trkpt lat="42.509618885815143585205078125" lon="19.89490114152431488037109375">
        <ele>1759.4000244140625</ele>
        <time>2026-06-17T12:10:28.000Z</time>
        <extensions>
          <ns3:TrackPointExtension>
            <ns3:atemp>18.0</ns3:atemp>
          </ns3:TrackPointExtension>
        </extensions>
      </trkpt>
      <trkpt lat="42.509618885815143585205078125" lon="19.89490114152431488037109375">
        <ele>1759.4000244140625</ele>
        <time>2026-06-17T12:10:29.000Z</time>
        <extensions>
          <ns3:TrackPointExtension>
            <ns3:atemp>18.0</ns3:atemp>
          </ns3:TrackPointExtension>
        </extensions>
      </trkpt>
      <trkpt lat="42.509618885815143585205078125" lon="19.89490114152431488037109375">
        <ele>1759.4000244140625</ele>
        <time>2026-06-17T12:10:30.000Z</time>
        <extensions>
          <ns3:TrackPointExtension>
            <ns3:atemp>18.0</ns3:atemp>
          </ns3:TrackPointExtension>
        </extensions>
      </trkpt>
      <trkpt lat="42.509618885815143585205078125" lon="19.89490114152431488037109375">
        <ele>1759.4000244140625</ele>
        <time>2026-06-17T12:10:31.000Z</time>
        <extensions>
          <ns3:TrackPointExtension>
            <ns3:atemp>18.0</ns3:atemp>
          </ns3:TrackPointExtension>
        </extensions>
      </trkpt>
      <trkpt lat="42.509618885815143585205078125" lon="19.89490114152431488037109375">
        <ele>1759.4000244140625</ele>
        <time>2026-06-17T12:10:32.000Z</time>
        <extensions>
          <ns3:TrackPointExtension>
            <ns3:atemp>18.0</ns3:atemp>
          </ns3:TrackPointExtension>
        </extensions>
      </trkpt>
      <trkpt lat="42.509618885815143585205078125" lon="19.89490114152431488037109375">
        <ele>1759.4000244140625</ele>
        <time>2026-06-17T12:10:33.000Z</time>
        <extensions>
          <ns3:TrackPointExtension>
            <ns3:atemp>18.0</ns3:atemp>
          </ns3:TrackPointExtension>
        </extensions>
      </trkpt>
      <trkpt lat="42.509618885815143585205078125" lon="19.89490114152431488037109375">
        <ele>1759.4000244140625</ele>
        <time>2026-06-17T12:10:34.000Z</time>
        <extensions>
          <ns3:TrackPointExtension>
            <ns3:atemp>18.0</ns3:atemp>
          </ns3:TrackPointExtension>
        </extensions>
      </trkpt>
      <trkpt lat="42.509618885815143585205078125" lon="19.89490114152431488037109375">
        <ele>1759.4000244140625</ele>
        <time>2026-06-17T12:10:35.000Z</time>
        <extensions>
          <ns3:TrackPointExtension>
            <ns3:atemp>18.0</ns3:atemp>
          </ns3:TrackPointExtension>
        </extensions>
      </trkpt>
      <trkpt lat="42.509618885815143585205078125" lon="19.89490114152431488037109375">
        <ele>1759.4000244140625</ele>
        <time>2026-06-17T12:10:36.000Z</time>
        <extensions>
          <ns3:TrackPointExtension>
            <ns3:atemp>18.0</ns3:atemp>
          </ns3:TrackPointExtension>
        </extensions>
      </trkpt>
      <trkpt lat="42.509618885815143585205078125" lon="19.89490114152431488037109375">
        <ele>1759.4000244140625</ele>
        <time>2026-06-17T12:10:37.000Z</time>
        <extensions>
          <ns3:TrackPointExtension>
            <ns3:atemp>18.0</ns3:atemp>
          </ns3:TrackPointExtension>
        </extensions>
      </trkpt>
      <trkpt lat="42.509618885815143585205078125" lon="19.89490114152431488037109375">
        <ele>1759.4000244140625</ele>
        <time>2026-06-17T12:10:38.000Z</time>
        <extensions>
          <ns3:TrackPointExtension>
            <ns3:atemp>18.0</ns3:atemp>
          </ns3:TrackPointExtension>
        </extensions>
      </trkpt>
      <trkpt lat="42.509618885815143585205078125" lon="19.89490114152431488037109375">
        <ele>1759.4000244140625</ele>
        <time>2026-06-17T12:10:39.000Z</time>
        <extensions>
          <ns3:TrackPointExtension>
            <ns3:atemp>18.0</ns3:atemp>
          </ns3:TrackPointExtension>
        </extensions>
      </trkpt>
      <trkpt lat="42.509618885815143585205078125" lon="19.89490114152431488037109375">
        <ele>1759.4000244140625</ele>
        <time>2026-06-17T12:10:40.000Z</time>
        <extensions>
          <ns3:TrackPointExtension>
            <ns3:atemp>18.0</ns3:atemp>
          </ns3:TrackPointExtension>
        </extensions>
      </trkpt>
      <trkpt lat="42.509618885815143585205078125" lon="19.89490114152431488037109375">
        <ele>1759.4000244140625</ele>
        <time>2026-06-17T12:10:41.000Z</time>
        <extensions>
          <ns3:TrackPointExtension>
            <ns3:atemp>18.0</ns3:atemp>
          </ns3:TrackPointExtension>
        </extensions>
      </trkpt>
      <trkpt lat="42.509618885815143585205078125" lon="19.89490114152431488037109375">
        <ele>1759.4000244140625</ele>
        <time>2026-06-17T12:10:42.000Z</time>
        <extensions>
          <ns3:TrackPointExtension>
            <ns3:atemp>18.0</ns3:atemp>
          </ns3:TrackPointExtension>
        </extensions>
      </trkpt>
      <trkpt lat="42.509618885815143585205078125" lon="19.89490114152431488037109375">
        <ele>1759.4000244140625</ele>
        <time>2026-06-17T12:10:43.000Z</time>
        <extensions>
          <ns3:TrackPointExtension>
            <ns3:atemp>18.0</ns3:atemp>
          </ns3:TrackPointExtension>
        </extensions>
      </trkpt>
      <trkpt lat="42.509618885815143585205078125" lon="19.89490114152431488037109375">
        <ele>1759.4000244140625</ele>
        <time>2026-06-17T12:10:44.000Z</time>
        <extensions>
          <ns3:TrackPointExtension>
            <ns3:atemp>18.0</ns3:atemp>
          </ns3:TrackPointExtension>
        </extensions>
      </trkpt>
      <trkpt lat="42.509618885815143585205078125" lon="19.89490114152431488037109375">
        <ele>1759.4000244140625</ele>
        <time>2026-06-17T12:10:45.000Z</time>
        <extensions>
          <ns3:TrackPointExtension>
            <ns3:atemp>18.0</ns3:atemp>
          </ns3:TrackPointExtension>
        </extensions>
      </trkpt>
      <trkpt lat="42.509618885815143585205078125" lon="19.89490114152431488037109375">
        <ele>1759.4000244140625</ele>
        <time>2026-06-17T12:10:46.000Z</time>
        <extensions>
          <ns3:TrackPointExtension>
            <ns3:atemp>18.0</ns3:atemp>
          </ns3:TrackPointExtension>
        </extensions>
      </trkpt>
      <trkpt lat="42.509618885815143585205078125" lon="19.89490114152431488037109375">
        <ele>1759.4000244140625</ele>
        <time>2026-06-17T12:10:47.000Z</time>
        <extensions>
          <ns3:TrackPointExtension>
            <ns3:atemp>18.0</ns3:atemp>
          </ns3:TrackPointExtension>
        </extensions>
      </trkpt>
      <trkpt lat="42.509618885815143585205078125" lon="19.89490114152431488037109375">
        <ele>1759.4000244140625</ele>
        <time>2026-06-17T12:10:48.000Z</time>
        <extensions>
          <ns3:TrackPointExtension>
            <ns3:atemp>18.0</ns3:atemp>
          </ns3:TrackPointExtension>
        </extensions>
      </trkpt>
      <trkpt lat="42.509618885815143585205078125" lon="19.89490114152431488037109375">
        <ele>1759.4000244140625</ele>
        <time>2026-06-17T12:10:49.000Z</time>
        <extensions>
          <ns3:TrackPointExtension>
            <ns3:atemp>18.0</ns3:atemp>
          </ns3:TrackPointExtension>
        </extensions>
      </trkpt>
      <trkpt lat="42.509618885815143585205078125" lon="19.89490114152431488037109375">
        <ele>1759.4000244140625</ele>
        <time>2026-06-17T12:10:50.000Z</time>
        <extensions>
          <ns3:TrackPointExtension>
            <ns3:atemp>18.0</ns3:atemp>
          </ns3:TrackPointExtension>
        </extensions>
      </trkpt>
      <trkpt lat="42.509618885815143585205078125" lon="19.89490114152431488037109375">
        <ele>1759.4000244140625</ele>
        <time>2026-06-17T12:10:51.000Z</time>
        <extensions>
          <ns3:TrackPointExtension>
            <ns3:atemp>18.0</ns3:atemp>
          </ns3:TrackPointExtension>
        </extensions>
      </trkpt>
      <trkpt lat="42.509618885815143585205078125" lon="19.89490114152431488037109375">
        <ele>1759.4000244140625</ele>
        <time>2026-06-17T12:10:52.000Z</time>
        <extensions>
          <ns3:TrackPointExtension>
            <ns3:atemp>18.0</ns3:atemp>
          </ns3:TrackPointExtension>
        </extensions>
      </trkpt>
      <trkpt lat="42.509618885815143585205078125" lon="19.89490114152431488037109375">
        <ele>1759.4000244140625</ele>
        <time>2026-06-17T12:10:53.000Z</time>
        <extensions>
          <ns3:TrackPointExtension>
            <ns3:atemp>18.0</ns3:atemp>
          </ns3:TrackPointExtension>
        </extensions>
      </trkpt>
      <trkpt lat="42.509618885815143585205078125" lon="19.89490114152431488037109375">
        <ele>1759.4000244140625</ele>
        <time>2026-06-17T12:10:54.000Z</time>
        <extensions>
          <ns3:TrackPointExtension>
            <ns3:atemp>18.0</ns3:atemp>
          </ns3:TrackPointExtension>
        </extensions>
      </trkpt>
      <trkpt lat="42.509618885815143585205078125" lon="19.89490114152431488037109375">
        <ele>1759.4000244140625</ele>
        <time>2026-06-17T12:10:55.000Z</time>
        <extensions>
          <ns3:TrackPointExtension>
            <ns3:atemp>18.0</ns3:atemp>
          </ns3:TrackPointExtension>
        </extensions>
      </trkpt>
      <trkpt lat="42.509618885815143585205078125" lon="19.89490114152431488037109375">
        <ele>1759.4000244140625</ele>
        <time>2026-06-17T12:10:56.000Z</time>
        <extensions>
          <ns3:TrackPointExtension>
            <ns3:atemp>18.0</ns3:atemp>
          </ns3:TrackPointExtension>
        </extensions>
      </trkpt>
      <trkpt lat="42.509618885815143585205078125" lon="19.89490114152431488037109375">
        <ele>1759.4000244140625</ele>
        <time>2026-06-17T12:10:57.000Z</time>
        <extensions>
          <ns3:TrackPointExtension>
            <ns3:atemp>18.0</ns3:atemp>
          </ns3:TrackPointExtension>
        </extensions>
      </trkpt>
      <trkpt lat="42.509618885815143585205078125" lon="19.89490114152431488037109375">
        <ele>1759.4000244140625</ele>
        <time>2026-06-17T12:10:58.000Z</time>
        <extensions>
          <ns3:TrackPointExtension>
            <ns3:atemp>18.0</ns3:atemp>
          </ns3:TrackPointExtension>
        </extensions>
      </trkpt>
      <trkpt lat="42.509618885815143585205078125" lon="19.89490114152431488037109375">
        <ele>1759.4000244140625</ele>
        <time>2026-06-17T12:10:59.000Z</time>
        <extensions>
          <ns3:TrackPointExtension>
            <ns3:atemp>18.0</ns3:atemp>
          </ns3:TrackPointExtension>
        </extensions>
      </trkpt>
      <trkpt lat="42.509618885815143585205078125" lon="19.89490114152431488037109375">
        <ele>1759.4000244140625</ele>
        <time>2026-06-17T12:11:00.000Z</time>
        <extensions>
          <ns3:TrackPointExtension>
            <ns3:atemp>18.0</ns3:atemp>
          </ns3:TrackPointExtension>
        </extensions>
      </trkpt>
      <trkpt lat="42.509618885815143585205078125" lon="19.89490114152431488037109375">
        <ele>1759.4000244140625</ele>
        <time>2026-06-17T12:11:01.000Z</time>
        <extensions>
          <ns3:TrackPointExtension>
            <ns3:atemp>18.0</ns3:atemp>
          </ns3:TrackPointExtension>
        </extensions>
      </trkpt>
      <trkpt lat="42.509618885815143585205078125" lon="19.89490114152431488037109375">
        <ele>1759.4000244140625</ele>
        <time>2026-06-17T12:11:02.000Z</time>
        <extensions>
          <ns3:TrackPointExtension>
            <ns3:atemp>18.0</ns3:atemp>
          </ns3:TrackPointExtension>
        </extensions>
      </trkpt>
      <trkpt lat="42.509618885815143585205078125" lon="19.89490114152431488037109375">
        <ele>1759.4000244140625</ele>
        <time>2026-06-17T12:11:03.000Z</time>
        <extensions>
          <ns3:TrackPointExtension>
            <ns3:atemp>18.0</ns3:atemp>
          </ns3:TrackPointExtension>
        </extensions>
      </trkpt>
      <trkpt lat="42.509618885815143585205078125" lon="19.89490114152431488037109375">
        <ele>1759.4000244140625</ele>
        <time>2026-06-17T12:11:04.000Z</time>
        <extensions>
          <ns3:TrackPointExtension>
            <ns3:atemp>18.0</ns3:atemp>
          </ns3:TrackPointExtension>
        </extensions>
      </trkpt>
      <trkpt lat="42.509618885815143585205078125" lon="19.89490114152431488037109375">
        <ele>1759.4000244140625</ele>
        <time>2026-06-17T12:11:05.000Z</time>
        <extensions>
          <ns3:TrackPointExtension>
            <ns3:atemp>18.0</ns3:atemp>
          </ns3:TrackPointExtension>
        </extensions>
      </trkpt>
      <trkpt lat="42.509618885815143585205078125" lon="19.89490114152431488037109375">
        <ele>1759.4000244140625</ele>
        <time>2026-06-17T12:11:06.000Z</time>
        <extensions>
          <ns3:TrackPointExtension>
            <ns3:atemp>18.0</ns3:atemp>
          </ns3:TrackPointExtension>
        </extensions>
      </trkpt>
      <trkpt lat="42.509618885815143585205078125" lon="19.89490114152431488037109375">
        <ele>1759.4000244140625</ele>
        <time>2026-06-17T12:11:07.000Z</time>
        <extensions>
          <ns3:TrackPointExtension>
            <ns3:atemp>18.0</ns3:atemp>
          </ns3:TrackPointExtension>
        </extensions>
      </trkpt>
      <trkpt lat="42.509618885815143585205078125" lon="19.89490114152431488037109375">
        <ele>1759.4000244140625</ele>
        <time>2026-06-17T12:11:08.000Z</time>
        <extensions>
          <ns3:TrackPointExtension>
            <ns3:atemp>18.0</ns3:atemp>
          </ns3:TrackPointExtension>
        </extensions>
      </trkpt>
      <trkpt lat="42.509618885815143585205078125" lon="19.89490114152431488037109375">
        <ele>1759.4000244140625</ele>
        <time>2026-06-17T12:11:09.000Z</time>
        <extensions>
          <ns3:TrackPointExtension>
            <ns3:atemp>18.0</ns3:atemp>
          </ns3:TrackPointExtension>
        </extensions>
      </trkpt>
      <trkpt lat="42.509618885815143585205078125" lon="19.89490114152431488037109375">
        <ele>1759.4000244140625</ele>
        <time>2026-06-17T12:11:10.000Z</time>
        <extensions>
          <ns3:TrackPointExtension>
            <ns3:atemp>18.0</ns3:atemp>
          </ns3:TrackPointExtension>
        </extensions>
      </trkpt>
      <trkpt lat="42.509618885815143585205078125" lon="19.89490114152431488037109375">
        <ele>1759.4000244140625</ele>
        <time>2026-06-17T12:11:11.000Z</time>
        <extensions>
          <ns3:TrackPointExtension>
            <ns3:atemp>18.0</ns3:atemp>
          </ns3:TrackPointExtension>
        </extensions>
      </trkpt>
      <trkpt lat="42.509618885815143585205078125" lon="19.89490114152431488037109375">
        <ele>1759.4000244140625</ele>
        <time>2026-06-17T12:11:12.000Z</time>
        <extensions>
          <ns3:TrackPointExtension>
            <ns3:atemp>18.0</ns3:atemp>
          </ns3:TrackPointExtension>
        </extensions>
      </trkpt>
      <trkpt lat="42.509618885815143585205078125" lon="19.89490114152431488037109375">
        <ele>1759.4000244140625</ele>
        <time>2026-06-17T12:11:13.000Z</time>
        <extensions>
          <ns3:TrackPointExtension>
            <ns3:atemp>18.0</ns3:atemp>
          </ns3:TrackPointExtension>
        </extensions>
      </trkpt>
      <trkpt lat="42.509618885815143585205078125" lon="19.89490114152431488037109375">
        <ele>1759.4000244140625</ele>
        <time>2026-06-17T12:11:14.000Z</time>
        <extensions>
          <ns3:TrackPointExtension>
            <ns3:atemp>18.0</ns3:atemp>
          </ns3:TrackPointExtension>
        </extensions>
      </trkpt>
      <trkpt lat="42.509618885815143585205078125" lon="19.89490114152431488037109375">
        <ele>1759.4000244140625</ele>
        <time>2026-06-17T12:11:15.000Z</time>
        <extensions>
          <ns3:TrackPointExtension>
            <ns3:atemp>18.0</ns3:atemp>
          </ns3:TrackPointExtension>
        </extensions>
      </trkpt>
      <trkpt lat="42.509618885815143585205078125" lon="19.89490114152431488037109375">
        <ele>1759.4000244140625</ele>
        <time>2026-06-17T12:11:16.000Z</time>
        <extensions>
          <ns3:TrackPointExtension>
            <ns3:atemp>18.0</ns3:atemp>
          </ns3:TrackPointExtension>
        </extensions>
      </trkpt>
      <trkpt lat="42.509618885815143585205078125" lon="19.89490114152431488037109375">
        <ele>1759.4000244140625</ele>
        <time>2026-06-17T12:11:17.000Z</time>
        <extensions>
          <ns3:TrackPointExtension>
            <ns3:atemp>18.0</ns3:atemp>
          </ns3:TrackPointExtension>
        </extensions>
      </trkpt>
      <trkpt lat="42.509618885815143585205078125" lon="19.89490114152431488037109375">
        <ele>1759.4000244140625</ele>
        <time>2026-06-17T12:11:18.000Z</time>
        <extensions>
          <ns3:TrackPointExtension>
            <ns3:atemp>18.0</ns3:atemp>
          </ns3:TrackPointExtension>
        </extensions>
      </trkpt>
      <trkpt lat="42.509618885815143585205078125" lon="19.89490114152431488037109375">
        <ele>1759.4000244140625</ele>
        <time>2026-06-17T12:11:19.000Z</time>
        <extensions>
          <ns3:TrackPointExtension>
            <ns3:atemp>18.0</ns3:atemp>
          </ns3:TrackPointExtension>
        </extensions>
      </trkpt>
      <trkpt lat="42.509618885815143585205078125" lon="19.89490114152431488037109375">
        <ele>1759.4000244140625</ele>
        <time>2026-06-17T12:11:20.000Z</time>
        <extensions>
          <ns3:TrackPointExtension>
            <ns3:atemp>18.0</ns3:atemp>
          </ns3:TrackPointExtension>
        </extensions>
      </trkpt>
      <trkpt lat="42.509618885815143585205078125" lon="19.89490114152431488037109375">
        <ele>1759.4000244140625</ele>
        <time>2026-06-17T12:11:21.000Z</time>
        <extensions>
          <ns3:TrackPointExtension>
            <ns3:atemp>18.0</ns3:atemp>
          </ns3:TrackPointExtension>
        </extensions>
      </trkpt>
      <trkpt lat="42.509618885815143585205078125" lon="19.89490114152431488037109375">
        <ele>1759.4000244140625</ele>
        <time>2026-06-17T12:11:22.000Z</time>
        <extensions>
          <ns3:TrackPointExtension>
            <ns3:atemp>18.0</ns3:atemp>
          </ns3:TrackPointExtension>
        </extensions>
      </trkpt>
      <trkpt lat="42.509618885815143585205078125" lon="19.89490114152431488037109375">
        <ele>1759.4000244140625</ele>
        <time>2026-06-17T12:11:23.000Z</time>
        <extensions>
          <ns3:TrackPointExtension>
            <ns3:atemp>18.0</ns3:atemp>
          </ns3:TrackPointExtension>
        </extensions>
      </trkpt>
      <trkpt lat="42.509618885815143585205078125" lon="19.89490114152431488037109375">
        <ele>1759.4000244140625</ele>
        <time>2026-06-17T12:11:24.000Z</time>
        <extensions>
          <ns3:TrackPointExtension>
            <ns3:atemp>18.0</ns3:atemp>
          </ns3:TrackPointExtension>
        </extensions>
      </trkpt>
      <trkpt lat="42.509618885815143585205078125" lon="19.89490114152431488037109375">
        <ele>1759.4000244140625</ele>
        <time>2026-06-17T12:11:25.000Z</time>
        <extensions>
          <ns3:TrackPointExtension>
            <ns3:atemp>18.0</ns3:atemp>
          </ns3:TrackPointExtension>
        </extensions>
      </trkpt>
      <trkpt lat="42.509618885815143585205078125" lon="19.89490114152431488037109375">
        <ele>1759.4000244140625</ele>
        <time>2026-06-17T12:11:26.000Z</time>
        <extensions>
          <ns3:TrackPointExtension>
            <ns3:atemp>18.0</ns3:atemp>
          </ns3:TrackPointExtension>
        </extensions>
      </trkpt>
      <trkpt lat="42.509618885815143585205078125" lon="19.89490114152431488037109375">
        <ele>1759.4000244140625</ele>
        <time>2026-06-17T12:11:27.000Z</time>
        <extensions>
          <ns3:TrackPointExtension>
            <ns3:atemp>18.0</ns3:atemp>
          </ns3:TrackPointExtension>
        </extensions>
      </trkpt>
      <trkpt lat="42.509618885815143585205078125" lon="19.89490114152431488037109375">
        <ele>1759.4000244140625</ele>
        <time>2026-06-17T12:11:28.000Z</time>
        <extensions>
          <ns3:TrackPointExtension>
            <ns3:atemp>19.0</ns3:atemp>
          </ns3:TrackPointExtension>
        </extensions>
      </trkpt>
      <trkpt lat="42.509618885815143585205078125" lon="19.89490114152431488037109375">
        <ele>1759.4000244140625</ele>
        <time>2026-06-17T12:11:29.000Z</time>
        <extensions>
          <ns3:TrackPointExtension>
            <ns3:atemp>19.0</ns3:atemp>
          </ns3:TrackPointExtension>
        </extensions>
      </trkpt>
      <trkpt lat="42.509618885815143585205078125" lon="19.89490114152431488037109375">
        <ele>1759.4000244140625</ele>
        <time>2026-06-17T12:11:30.000Z</time>
        <extensions>
          <ns3:TrackPointExtension>
            <ns3:atemp>19.0</ns3:atemp>
          </ns3:TrackPointExtension>
        </extensions>
      </trkpt>
      <trkpt lat="42.509618885815143585205078125" lon="19.89490114152431488037109375">
        <ele>1759.4000244140625</ele>
        <time>2026-06-17T12:11:31.000Z</time>
        <extensions>
          <ns3:TrackPointExtension>
            <ns3:atemp>19.0</ns3:atemp>
          </ns3:TrackPointExtension>
        </extensions>
      </trkpt>
      <trkpt lat="42.509618885815143585205078125" lon="19.89490114152431488037109375">
        <ele>1759.4000244140625</ele>
        <time>2026-06-17T12:11:32.000Z</time>
        <extensions>
          <ns3:TrackPointExtension>
            <ns3:atemp>19.0</ns3:atemp>
          </ns3:TrackPointExtension>
        </extensions>
      </trkpt>
      <trkpt lat="42.509618885815143585205078125" lon="19.89490114152431488037109375">
        <ele>1759.4000244140625</ele>
        <time>2026-06-17T12:11:33.000Z</time>
        <extensions>
          <ns3:TrackPointExtension>
            <ns3:atemp>19.0</ns3:atemp>
          </ns3:TrackPointExtension>
        </extensions>
      </trkpt>
      <trkpt lat="42.509618885815143585205078125" lon="19.89490114152431488037109375">
        <ele>1759.4000244140625</ele>
        <time>2026-06-17T12:11:34.000Z</time>
        <extensions>
          <ns3:TrackPointExtension>
            <ns3:atemp>19.0</ns3:atemp>
          </ns3:TrackPointExtension>
        </extensions>
      </trkpt>
      <trkpt lat="42.509618885815143585205078125" lon="19.89490114152431488037109375">
        <ele>1759.4000244140625</ele>
        <time>2026-06-17T12:11:35.000Z</time>
        <extensions>
          <ns3:TrackPointExtension>
            <ns3:atemp>19.0</ns3:atemp>
          </ns3:TrackPointExtension>
        </extensions>
      </trkpt>
      <trkpt lat="42.509618885815143585205078125" lon="19.89490114152431488037109375">
        <ele>1759.4000244140625</ele>
        <time>2026-06-17T12:11:36.000Z</time>
        <extensions>
          <ns3:TrackPointExtension>
            <ns3:atemp>19.0</ns3:atemp>
          </ns3:TrackPointExtension>
        </extensions>
      </trkpt>
      <trkpt lat="42.509618885815143585205078125" lon="19.89490114152431488037109375">
        <ele>1759.4000244140625</ele>
        <time>2026-06-17T12:11:37.000Z</time>
        <extensions>
          <ns3:TrackPointExtension>
            <ns3:atemp>19.0</ns3:atemp>
          </ns3:TrackPointExtension>
        </extensions>
      </trkpt>
      <trkpt lat="42.509618885815143585205078125" lon="19.89490114152431488037109375">
        <ele>1759.4000244140625</ele>
        <time>2026-06-17T12:11:38.000Z</time>
        <extensions>
          <ns3:TrackPointExtension>
            <ns3:atemp>19.0</ns3:atemp>
          </ns3:TrackPointExtension>
        </extensions>
      </trkpt>
      <trkpt lat="42.509618885815143585205078125" lon="19.89490114152431488037109375">
        <ele>1759.4000244140625</ele>
        <time>2026-06-17T12:11:39.000Z</time>
        <extensions>
          <ns3:TrackPointExtension>
            <ns3:atemp>19.0</ns3:atemp>
          </ns3:TrackPointExtension>
        </extensions>
      </trkpt>
      <trkpt lat="42.509618885815143585205078125" lon="19.89490114152431488037109375">
        <ele>1759.4000244140625</ele>
        <time>2026-06-17T12:11:40.000Z</time>
        <extensions>
          <ns3:TrackPointExtension>
            <ns3:atemp>19.0</ns3:atemp>
          </ns3:TrackPointExtension>
        </extensions>
      </trkpt>
      <trkpt lat="42.509618885815143585205078125" lon="19.89490114152431488037109375">
        <ele>1759.4000244140625</ele>
        <time>2026-06-17T12:11:41.000Z</time>
        <extensions>
          <ns3:TrackPointExtension>
            <ns3:atemp>19.0</ns3:atemp>
          </ns3:TrackPointExtension>
        </extensions>
      </trkpt>
      <trkpt lat="42.509618885815143585205078125" lon="19.89490114152431488037109375">
        <ele>1759.4000244140625</ele>
        <time>2026-06-17T12:11:42.000Z</time>
        <extensions>
          <ns3:TrackPointExtension>
            <ns3:atemp>19.0</ns3:atemp>
          </ns3:TrackPointExtension>
        </extensions>
      </trkpt>
      <trkpt lat="42.509618885815143585205078125" lon="19.89490114152431488037109375">
        <ele>1759.4000244140625</ele>
        <time>2026-06-17T12:11:43.000Z</time>
        <extensions>
          <ns3:TrackPointExtension>
            <ns3:atemp>19.0</ns3:atemp>
          </ns3:TrackPointExtension>
        </extensions>
      </trkpt>
      <trkpt lat="42.509618885815143585205078125" lon="19.89490114152431488037109375">
        <ele>1759.4000244140625</ele>
        <time>2026-06-17T12:11:44.000Z</time>
        <extensions>
          <ns3:TrackPointExtension>
            <ns3:atemp>19.0</ns3:atemp>
          </ns3:TrackPointExtension>
        </extensions>
      </trkpt>
      <trkpt lat="42.509618885815143585205078125" lon="19.89490114152431488037109375">
        <ele>1759.4000244140625</ele>
        <time>2026-06-17T12:11:45.000Z</time>
        <extensions>
          <ns3:TrackPointExtension>
            <ns3:atemp>19.0</ns3:atemp>
          </ns3:TrackPointExtension>
        </extensions>
      </trkpt>
      <trkpt lat="42.509618885815143585205078125" lon="19.89490114152431488037109375">
        <ele>1759.4000244140625</ele>
        <time>2026-06-17T12:11:46.000Z</time>
        <extensions>
          <ns3:TrackPointExtension>
            <ns3:atemp>19.0</ns3:atemp>
          </ns3:TrackPointExtension>
        </extensions>
      </trkpt>
      <trkpt lat="42.509618885815143585205078125" lon="19.89490114152431488037109375">
        <ele>1759.4000244140625</ele>
        <time>2026-06-17T12:11:47.000Z</time>
        <extensions>
          <ns3:TrackPointExtension>
            <ns3:atemp>19.0</ns3:atemp>
          </ns3:TrackPointExtension>
        </extensions>
      </trkpt>
      <trkpt lat="42.509618885815143585205078125" lon="19.89490114152431488037109375">
        <ele>1759.4000244140625</ele>
        <time>2026-06-17T12:11:48.000Z</time>
        <extensions>
          <ns3:TrackPointExtension>
            <ns3:atemp>19.0</ns3:atemp>
          </ns3:TrackPointExtension>
        </extensions>
      </trkpt>
      <trkpt lat="42.509618885815143585205078125" lon="19.89490114152431488037109375">
        <ele>1759.4000244140625</ele>
        <time>2026-06-17T12:11:49.000Z</time>
        <extensions>
          <ns3:TrackPointExtension>
            <ns3:atemp>19.0</ns3:atemp>
          </ns3:TrackPointExtension>
        </extensions>
      </trkpt>
      <trkpt lat="42.509618885815143585205078125" lon="19.89490114152431488037109375">
        <ele>1759.4000244140625</ele>
        <time>2026-06-17T12:11:50.000Z</time>
        <extensions>
          <ns3:TrackPointExtension>
            <ns3:atemp>19.0</ns3:atemp>
          </ns3:TrackPointExtension>
        </extensions>
      </trkpt>
      <trkpt lat="42.509618885815143585205078125" lon="19.89490114152431488037109375">
        <ele>1759.4000244140625</ele>
        <time>2026-06-17T12:11:51.000Z</time>
        <extensions>
          <ns3:TrackPointExtension>
            <ns3:atemp>19.0</ns3:atemp>
          </ns3:TrackPointExtension>
        </extensions>
      </trkpt>
      <trkpt lat="42.509618885815143585205078125" lon="19.89490114152431488037109375">
        <ele>1759.4000244140625</ele>
        <time>2026-06-17T12:11:52.000Z</time>
        <extensions>
          <ns3:TrackPointExtension>
            <ns3:atemp>19.0</ns3:atemp>
          </ns3:TrackPointExtension>
        </extensions>
      </trkpt>
      <trkpt lat="42.509618885815143585205078125" lon="19.89490114152431488037109375">
        <ele>1759.4000244140625</ele>
        <time>2026-06-17T12:11:53.000Z</time>
        <extensions>
          <ns3:TrackPointExtension>
            <ns3:atemp>19.0</ns3:atemp>
          </ns3:TrackPointExtension>
        </extensions>
      </trkpt>
      <trkpt lat="42.509618885815143585205078125" lon="19.89490114152431488037109375">
        <ele>1759.4000244140625</ele>
        <time>2026-06-17T12:11:54.000Z</time>
        <extensions>
          <ns3:TrackPointExtension>
            <ns3:atemp>19.0</ns3:atemp>
          </ns3:TrackPointExtension>
        </extensions>
      </trkpt>
      <trkpt lat="42.509618885815143585205078125" lon="19.89490114152431488037109375">
        <ele>1759.4000244140625</ele>
        <time>2026-06-17T12:11:55.000Z</time>
        <extensions>
          <ns3:TrackPointExtension>
            <ns3:atemp>19.0</ns3:atemp>
          </ns3:TrackPointExtension>
        </extensions>
      </trkpt>
      <trkpt lat="42.509618885815143585205078125" lon="19.89490114152431488037109375">
        <ele>1759.4000244140625</ele>
        <time>2026-06-17T12:11:56.000Z</time>
        <extensions>
          <ns3:TrackPointExtension>
            <ns3:atemp>19.0</ns3:atemp>
          </ns3:TrackPointExtension>
        </extensions>
      </trkpt>
      <trkpt lat="42.509618885815143585205078125" lon="19.89490114152431488037109375">
        <ele>1759.4000244140625</ele>
        <time>2026-06-17T12:11:57.000Z</time>
        <extensions>
          <ns3:TrackPointExtension>
            <ns3:atemp>19.0</ns3:atemp>
          </ns3:TrackPointExtension>
        </extensions>
      </trkpt>
      <trkpt lat="42.509618885815143585205078125" lon="19.89490114152431488037109375">
        <ele>1759.4000244140625</ele>
        <time>2026-06-17T12:11:58.000Z</time>
        <extensions>
          <ns3:TrackPointExtension>
            <ns3:atemp>19.0</ns3:atemp>
          </ns3:TrackPointExtension>
        </extensions>
      </trkpt>
      <trkpt lat="42.509618885815143585205078125" lon="19.89490114152431488037109375">
        <ele>1759.4000244140625</ele>
        <time>2026-06-17T12:11:59.000Z</time>
        <extensions>
          <ns3:TrackPointExtension>
            <ns3:atemp>19.0</ns3:atemp>
          </ns3:TrackPointExtension>
        </extensions>
      </trkpt>
      <trkpt lat="42.509618885815143585205078125" lon="19.89490114152431488037109375">
        <ele>1759.4000244140625</ele>
        <time>2026-06-17T12:12:00.000Z</time>
        <extensions>
          <ns3:TrackPointExtension>
            <ns3:atemp>19.0</ns3:atemp>
          </ns3:TrackPointExtension>
        </extensions>
      </trkpt>
      <trkpt lat="42.509618885815143585205078125" lon="19.89490114152431488037109375">
        <ele>1759.4000244140625</ele>
        <time>2026-06-17T12:12:01.000Z</time>
        <extensions>
          <ns3:TrackPointExtension>
            <ns3:atemp>19.0</ns3:atemp>
          </ns3:TrackPointExtension>
        </extensions>
      </trkpt>
      <trkpt lat="42.509618885815143585205078125" lon="19.89490114152431488037109375">
        <ele>1759.4000244140625</ele>
        <time>2026-06-17T12:12:02.000Z</time>
        <extensions>
          <ns3:TrackPointExtension>
            <ns3:atemp>19.0</ns3:atemp>
          </ns3:TrackPointExtension>
        </extensions>
      </trkpt>
      <trkpt lat="42.509618885815143585205078125" lon="19.89490114152431488037109375">
        <ele>1759.4000244140625</ele>
        <time>2026-06-17T12:12:03.000Z</time>
        <extensions>
          <ns3:TrackPointExtension>
            <ns3:atemp>19.0</ns3:atemp>
          </ns3:TrackPointExtension>
        </extensions>
      </trkpt>
      <trkpt lat="42.509618885815143585205078125" lon="19.89490114152431488037109375">
        <ele>1759.4000244140625</ele>
        <time>2026-06-17T12:12:04.000Z</time>
        <extensions>
          <ns3:TrackPointExtension>
            <ns3:atemp>19.0</ns3:atemp>
          </ns3:TrackPointExtension>
        </extensions>
      </trkpt>
      <trkpt lat="42.509618885815143585205078125" lon="19.89490114152431488037109375">
        <ele>1759.4000244140625</ele>
        <time>2026-06-17T12:12:05.000Z</time>
        <extensions>
          <ns3:TrackPointExtension>
            <ns3:atemp>19.0</ns3:atemp>
          </ns3:TrackPointExtension>
        </extensions>
      </trkpt>
      <trkpt lat="42.509618885815143585205078125" lon="19.89490114152431488037109375">
        <ele>1759.4000244140625</ele>
        <time>2026-06-17T12:12:06.000Z</time>
        <extensions>
          <ns3:TrackPointExtension>
            <ns3:atemp>19.0</ns3:atemp>
          </ns3:TrackPointExtension>
        </extensions>
      </trkpt>
      <trkpt lat="42.509618885815143585205078125" lon="19.89490114152431488037109375">
        <ele>1759.4000244140625</ele>
        <time>2026-06-17T12:12:07.000Z</time>
        <extensions>
          <ns3:TrackPointExtension>
            <ns3:atemp>19.0</ns3:atemp>
          </ns3:TrackPointExtension>
        </extensions>
      </trkpt>
      <trkpt lat="42.509618885815143585205078125" lon="19.89490114152431488037109375">
        <ele>1759.4000244140625</ele>
        <time>2026-06-17T12:12:08.000Z</time>
        <extensions>
          <ns3:TrackPointExtension>
            <ns3:atemp>19.0</ns3:atemp>
          </ns3:TrackPointExtension>
        </extensions>
      </trkpt>
      <trkpt lat="42.509618885815143585205078125" lon="19.89490114152431488037109375">
        <ele>1759.4000244140625</ele>
        <time>2026-06-17T12:12:09.000Z</time>
        <extensions>
          <ns3:TrackPointExtension>
            <ns3:atemp>19.0</ns3:atemp>
          </ns3:TrackPointExtension>
        </extensions>
      </trkpt>
      <trkpt lat="42.509618885815143585205078125" lon="19.89490114152431488037109375">
        <ele>1759.4000244140625</ele>
        <time>2026-06-17T12:12:10.000Z</time>
        <extensions>
          <ns3:TrackPointExtension>
            <ns3:atemp>19.0</ns3:atemp>
          </ns3:TrackPointExtension>
        </extensions>
      </trkpt>
      <trkpt lat="42.509618885815143585205078125" lon="19.89490114152431488037109375">
        <ele>1759.4000244140625</ele>
        <time>2026-06-17T12:12:11.000Z</time>
        <extensions>
          <ns3:TrackPointExtension>
            <ns3:atemp>19.0</ns3:atemp>
          </ns3:TrackPointExtension>
        </extensions>
      </trkpt>
      <trkpt lat="42.509618885815143585205078125" lon="19.89490114152431488037109375">
        <ele>1759.4000244140625</ele>
        <time>2026-06-17T12:12:12.000Z</time>
        <extensions>
          <ns3:TrackPointExtension>
            <ns3:atemp>19.0</ns3:atemp>
          </ns3:TrackPointExtension>
        </extensions>
      </trkpt>
      <trkpt lat="42.509618885815143585205078125" lon="19.89490114152431488037109375">
        <ele>1759.4000244140625</ele>
        <time>2026-06-17T12:12:13.000Z</time>
        <extensions>
          <ns3:TrackPointExtension>
            <ns3:atemp>19.0</ns3:atemp>
          </ns3:TrackPointExtension>
        </extensions>
      </trkpt>
      <trkpt lat="42.509618885815143585205078125" lon="19.89490114152431488037109375">
        <ele>1759.4000244140625</ele>
        <time>2026-06-17T12:12:14.000Z</time>
        <extensions>
          <ns3:TrackPointExtension>
            <ns3:atemp>19.0</ns3:atemp>
          </ns3:TrackPointExtension>
        </extensions>
      </trkpt>
      <trkpt lat="42.509618885815143585205078125" lon="19.89490114152431488037109375">
        <ele>1759.4000244140625</ele>
        <time>2026-06-17T12:12:15.000Z</time>
        <extensions>
          <ns3:TrackPointExtension>
            <ns3:atemp>19.0</ns3:atemp>
          </ns3:TrackPointExtension>
        </extensions>
      </trkpt>
      <trkpt lat="42.509618885815143585205078125" lon="19.89490114152431488037109375">
        <ele>1759.4000244140625</ele>
        <time>2026-06-17T12:12:16.000Z</time>
        <extensions>
          <ns3:TrackPointExtension>
            <ns3:atemp>19.0</ns3:atemp>
          </ns3:TrackPointExtension>
        </extensions>
      </trkpt>
      <trkpt lat="42.509618885815143585205078125" lon="19.89490114152431488037109375">
        <ele>1759.4000244140625</ele>
        <time>2026-06-17T12:12:17.000Z</time>
        <extensions>
          <ns3:TrackPointExtension>
            <ns3:atemp>19.0</ns3:atemp>
          </ns3:TrackPointExtension>
        </extensions>
      </trkpt>
      <trkpt lat="42.509618885815143585205078125" lon="19.89490114152431488037109375">
        <ele>1759.4000244140625</ele>
        <time>2026-06-17T12:12:18.000Z</time>
        <extensions>
          <ns3:TrackPointExtension>
            <ns3:atemp>19.0</ns3:atemp>
          </ns3:TrackPointExtension>
        </extensions>
      </trkpt>
      <trkpt lat="42.509618885815143585205078125" lon="19.89490114152431488037109375">
        <ele>1759.4000244140625</ele>
        <time>2026-06-17T12:12:19.000Z</time>
        <extensions>
          <ns3:TrackPointExtension>
            <ns3:atemp>19.0</ns3:atemp>
          </ns3:TrackPointExtension>
        </extensions>
      </trkpt>
      <trkpt lat="42.509618885815143585205078125" lon="19.89490114152431488037109375">
        <ele>1759.4000244140625</ele>
        <time>2026-06-17T12:12:20.000Z</time>
        <extensions>
          <ns3:TrackPointExtension>
            <ns3:atemp>19.0</ns3:atemp>
          </ns3:TrackPointExtension>
        </extensions>
      </trkpt>
      <trkpt lat="42.509618885815143585205078125" lon="19.89490114152431488037109375">
        <ele>1759.4000244140625</ele>
        <time>2026-06-17T12:12:21.000Z</time>
        <extensions>
          <ns3:TrackPointExtension>
            <ns3:atemp>19.0</ns3:atemp>
          </ns3:TrackPointExtension>
        </extensions>
      </trkpt>
      <trkpt lat="42.509618885815143585205078125" lon="19.89490114152431488037109375">
        <ele>1759.4000244140625</ele>
        <time>2026-06-17T12:12:22.000Z</time>
        <extensions>
          <ns3:TrackPointExtension>
            <ns3:atemp>19.0</ns3:atemp>
          </ns3:TrackPointExtension>
        </extensions>
      </trkpt>
      <trkpt lat="42.509618885815143585205078125" lon="19.89490114152431488037109375">
        <ele>1759.4000244140625</ele>
        <time>2026-06-17T12:12:23.000Z</time>
        <extensions>
          <ns3:TrackPointExtension>
            <ns3:atemp>19.0</ns3:atemp>
          </ns3:TrackPointExtension>
        </extensions>
      </trkpt>
      <trkpt lat="42.509618885815143585205078125" lon="19.89490114152431488037109375">
        <ele>1759.4000244140625</ele>
        <time>2026-06-17T12:12:24.000Z</time>
        <extensions>
          <ns3:TrackPointExtension>
            <ns3:atemp>19.0</ns3:atemp>
          </ns3:TrackPointExtension>
        </extensions>
      </trkpt>
      <trkpt lat="42.509618885815143585205078125" lon="19.89490114152431488037109375">
        <ele>1759.4000244140625</ele>
        <time>2026-06-17T12:12:25.000Z</time>
        <extensions>
          <ns3:TrackPointExtension>
            <ns3:atemp>19.0</ns3:atemp>
          </ns3:TrackPointExtension>
        </extensions>
      </trkpt>
      <trkpt lat="42.509618885815143585205078125" lon="19.89490114152431488037109375">
        <ele>1759.4000244140625</ele>
        <time>2026-06-17T12:12:26.000Z</time>
        <extensions>
          <ns3:TrackPointExtension>
            <ns3:atemp>19.0</ns3:atemp>
          </ns3:TrackPointExtension>
        </extensions>
      </trkpt>
      <trkpt lat="42.509618885815143585205078125" lon="19.89490114152431488037109375">
        <ele>1759.4000244140625</ele>
        <time>2026-06-17T12:12:27.000Z</time>
        <extensions>
          <ns3:TrackPointExtension>
            <ns3:atemp>19.0</ns3:atemp>
          </ns3:TrackPointExtension>
        </extensions>
      </trkpt>
      <trkpt lat="42.509618885815143585205078125" lon="19.89490114152431488037109375">
        <ele>1759.4000244140625</ele>
        <time>2026-06-17T12:12:28.000Z</time>
        <extensions>
          <ns3:TrackPointExtension>
            <ns3:atemp>19.0</ns3:atemp>
          </ns3:TrackPointExtension>
        </extensions>
      </trkpt>
      <trkpt lat="42.509618885815143585205078125" lon="19.89490114152431488037109375">
        <ele>1759.4000244140625</ele>
        <time>2026-06-17T12:12:29.000Z</time>
        <extensions>
          <ns3:TrackPointExtension>
            <ns3:atemp>19.0</ns3:atemp>
          </ns3:TrackPointExtension>
        </extensions>
      </trkpt>
      <trkpt lat="42.509618885815143585205078125" lon="19.89490114152431488037109375">
        <ele>1759.4000244140625</ele>
        <time>2026-06-17T12:12:30.000Z</time>
        <extensions>
          <ns3:TrackPointExtension>
            <ns3:atemp>19.0</ns3:atemp>
          </ns3:TrackPointExtension>
        </extensions>
      </trkpt>
      <trkpt lat="42.509618885815143585205078125" lon="19.89490114152431488037109375">
        <ele>1759.4000244140625</ele>
        <time>2026-06-17T12:12:31.000Z</time>
        <extensions>
          <ns3:TrackPointExtension>
            <ns3:atemp>19.0</ns3:atemp>
          </ns3:TrackPointExtension>
        </extensions>
      </trkpt>
      <trkpt lat="42.509618885815143585205078125" lon="19.89490114152431488037109375">
        <ele>1759.4000244140625</ele>
        <time>2026-06-17T12:12:32.000Z</time>
        <extensions>
          <ns3:TrackPointExtension>
            <ns3:atemp>19.0</ns3:atemp>
          </ns3:TrackPointExtension>
        </extensions>
      </trkpt>
      <trkpt lat="42.509618885815143585205078125" lon="19.89490114152431488037109375">
        <ele>1759.4000244140625</ele>
        <time>2026-06-17T12:12:33.000Z</time>
        <extensions>
          <ns3:TrackPointExtension>
            <ns3:atemp>19.0</ns3:atemp>
          </ns3:TrackPointExtension>
        </extensions>
      </trkpt>
      <trkpt lat="42.509618885815143585205078125" lon="19.89490114152431488037109375">
        <ele>1759.4000244140625</ele>
        <time>2026-06-17T12:12:34.000Z</time>
        <extensions>
          <ns3:TrackPointExtension>
            <ns3:atemp>19.0</ns3:atemp>
          </ns3:TrackPointExtension>
        </extensions>
      </trkpt>
      <trkpt lat="42.509618885815143585205078125" lon="19.89490114152431488037109375">
        <ele>1759.4000244140625</ele>
        <time>2026-06-17T12:12:35.000Z</time>
        <extensions>
          <ns3:TrackPointExtension>
            <ns3:atemp>19.0</ns3:atemp>
          </ns3:TrackPointExtension>
        </extensions>
      </trkpt>
      <trkpt lat="42.509618885815143585205078125" lon="19.89490114152431488037109375">
        <ele>1759.4000244140625</ele>
        <time>2026-06-17T12:12:36.000Z</time>
        <extensions>
          <ns3:TrackPointExtension>
            <ns3:atemp>19.0</ns3:atemp>
          </ns3:TrackPointExtension>
        </extensions>
      </trkpt>
      <trkpt lat="42.509618885815143585205078125" lon="19.89490114152431488037109375">
        <ele>1759.4000244140625</ele>
        <time>2026-06-17T12:12:37.000Z</time>
        <extensions>
          <ns3:TrackPointExtension>
            <ns3:atemp>19.0</ns3:atemp>
          </ns3:TrackPointExtension>
        </extensions>
      </trkpt>
      <trkpt lat="42.509618885815143585205078125" lon="19.89490114152431488037109375">
        <ele>1759.4000244140625</ele>
        <time>2026-06-17T12:12:38.000Z</time>
        <extensions>
          <ns3:TrackPointExtension>
            <ns3:atemp>19.0</ns3:atemp>
          </ns3:TrackPointExtension>
        </extensions>
      </trkpt>
      <trkpt lat="42.509618885815143585205078125" lon="19.89490114152431488037109375">
        <ele>1759.4000244140625</ele>
        <time>2026-06-17T12:12:39.000Z</time>
        <extensions>
          <ns3:TrackPointExtension>
            <ns3:atemp>19.0</ns3:atemp>
          </ns3:TrackPointExtension>
        </extensions>
      </trkpt>
      <trkpt lat="42.509618885815143585205078125" lon="19.89490114152431488037109375">
        <ele>1759.4000244140625</ele>
        <time>2026-06-17T12:12:40.000Z</time>
        <extensions>
          <ns3:TrackPointExtension>
            <ns3:atemp>19.0</ns3:atemp>
          </ns3:TrackPointExtension>
        </extensions>
      </trkpt>
      <trkpt lat="42.509618885815143585205078125" lon="19.89490114152431488037109375">
        <ele>1759.4000244140625</ele>
        <time>2026-06-17T12:12:41.000Z</time>
        <extensions>
          <ns3:TrackPointExtension>
            <ns3:atemp>19.0</ns3:atemp>
          </ns3:TrackPointExtension>
        </extensions>
      </trkpt>
      <trkpt lat="42.509618885815143585205078125" lon="19.89490114152431488037109375">
        <ele>1759.4000244140625</ele>
        <time>2026-06-17T12:12:42.000Z</time>
        <extensions>
          <ns3:TrackPointExtension>
            <ns3:atemp>19.0</ns3:atemp>
          </ns3:TrackPointExtension>
        </extensions>
      </trkpt>
      <trkpt lat="42.509618885815143585205078125" lon="19.89490114152431488037109375">
        <ele>1759.4000244140625</ele>
        <time>2026-06-17T12:12:43.000Z</time>
        <extensions>
          <ns3:TrackPointExtension>
            <ns3:atemp>19.0</ns3:atemp>
          </ns3:TrackPointExtension>
        </extensions>
      </trkpt>
      <trkpt lat="42.509618885815143585205078125" lon="19.89490114152431488037109375">
        <ele>1759.4000244140625</ele>
        <time>2026-06-17T12:12:44.000Z</time>
        <extensions>
          <ns3:TrackPointExtension>
            <ns3:atemp>19.0</ns3:atemp>
          </ns3:TrackPointExtension>
        </extensions>
      </trkpt>
      <trkpt lat="42.509618885815143585205078125" lon="19.89490114152431488037109375">
        <ele>1759.4000244140625</ele>
        <time>2026-06-17T12:12:45.000Z</time>
        <extensions>
          <ns3:TrackPointExtension>
            <ns3:atemp>19.0</ns3:atemp>
          </ns3:TrackPointExtension>
        </extensions>
      </trkpt>
      <trkpt lat="42.509618885815143585205078125" lon="19.89490114152431488037109375">
        <ele>1759.4000244140625</ele>
        <time>2026-06-17T12:12:46.000Z</time>
        <extensions>
          <ns3:TrackPointExtension>
            <ns3:atemp>19.0</ns3:atemp>
          </ns3:TrackPointExtension>
        </extensions>
      </trkpt>
      <trkpt lat="42.509618885815143585205078125" lon="19.89490114152431488037109375">
        <ele>1759.4000244140625</ele>
        <time>2026-06-17T12:12:47.000Z</time>
        <extensions>
          <ns3:TrackPointExtension>
            <ns3:atemp>19.0</ns3:atemp>
          </ns3:TrackPointExtension>
        </extensions>
      </trkpt>
      <trkpt lat="42.509618885815143585205078125" lon="19.89490114152431488037109375">
        <ele>1759.4000244140625</ele>
        <time>2026-06-17T12:12:48.000Z</time>
        <extensions>
          <ns3:TrackPointExtension>
            <ns3:atemp>19.0</ns3:atemp>
          </ns3:TrackPointExtension>
        </extensions>
      </trkpt>
      <trkpt lat="42.509618885815143585205078125" lon="19.89490114152431488037109375">
        <ele>1759.4000244140625</ele>
        <time>2026-06-17T12:12:49.000Z</time>
        <extensions>
          <ns3:TrackPointExtension>
            <ns3:atemp>19.0</ns3:atemp>
          </ns3:TrackPointExtension>
        </extensions>
      </trkpt>
      <trkpt lat="42.509618885815143585205078125" lon="19.89490114152431488037109375">
        <ele>1759.4000244140625</ele>
        <time>2026-06-17T12:12:50.000Z</time>
        <extensions>
          <ns3:TrackPointExtension>
            <ns3:atemp>19.0</ns3:atemp>
          </ns3:TrackPointExtension>
        </extensions>
      </trkpt>
      <trkpt lat="42.509618885815143585205078125" lon="19.89490114152431488037109375">
        <ele>1759.4000244140625</ele>
        <time>2026-06-17T12:12:51.000Z</time>
        <extensions>
          <ns3:TrackPointExtension>
            <ns3:atemp>19.0</ns3:atemp>
          </ns3:TrackPointExtension>
        </extensions>
      </trkpt>
      <trkpt lat="42.509618885815143585205078125" lon="19.89490114152431488037109375">
        <ele>1759.4000244140625</ele>
        <time>2026-06-17T12:12:52.000Z</time>
        <extensions>
          <ns3:TrackPointExtension>
            <ns3:atemp>19.0</ns3:atemp>
          </ns3:TrackPointExtension>
        </extensions>
      </trkpt>
      <trkpt lat="42.509618885815143585205078125" lon="19.89490114152431488037109375">
        <ele>1759.4000244140625</ele>
        <time>2026-06-17T12:12:53.000Z</time>
        <extensions>
          <ns3:TrackPointExtension>
            <ns3:atemp>19.0</ns3:atemp>
          </ns3:TrackPointExtension>
        </extensions>
      </trkpt>
      <trkpt lat="42.509618885815143585205078125" lon="19.89490114152431488037109375">
        <ele>1759.4000244140625</ele>
        <time>2026-06-17T12:12:54.000Z</time>
        <extensions>
          <ns3:TrackPointExtension>
            <ns3:atemp>19.0</ns3:atemp>
          </ns3:TrackPointExtension>
        </extensions>
      </trkpt>
      <trkpt lat="42.509618885815143585205078125" lon="19.89490114152431488037109375">
        <ele>1759.4000244140625</ele>
        <time>2026-06-17T12:12:55.000Z</time>
        <extensions>
          <ns3:TrackPointExtension>
            <ns3:atemp>19.0</ns3:atemp>
          </ns3:TrackPointExtension>
        </extensions>
      </trkpt>
      <trkpt lat="42.509618885815143585205078125" lon="19.89490114152431488037109375">
        <ele>1759.4000244140625</ele>
        <time>2026-06-17T12:12:56.000Z</time>
        <extensions>
          <ns3:TrackPointExtension>
            <ns3:atemp>19.0</ns3:atemp>
          </ns3:TrackPointExtension>
        </extensions>
      </trkpt>
      <trkpt lat="42.509618885815143585205078125" lon="19.89490114152431488037109375">
        <ele>1759.4000244140625</ele>
        <time>2026-06-17T12:12:57.000Z</time>
        <extensions>
          <ns3:TrackPointExtension>
            <ns3:atemp>19.0</ns3:atemp>
          </ns3:TrackPointExtension>
        </extensions>
      </trkpt>
      <trkpt lat="42.509618885815143585205078125" lon="19.89490114152431488037109375">
        <ele>1759.4000244140625</ele>
        <time>2026-06-17T12:12:58.000Z</time>
        <extensions>
          <ns3:TrackPointExtension>
            <ns3:atemp>19.0</ns3:atemp>
          </ns3:TrackPointExtension>
        </extensions>
      </trkpt>
      <trkpt lat="42.509618885815143585205078125" lon="19.89490114152431488037109375">
        <ele>1759.4000244140625</ele>
        <time>2026-06-17T12:12:59.000Z</time>
        <extensions>
          <ns3:TrackPointExtension>
            <ns3:atemp>19.0</ns3:atemp>
          </ns3:TrackPointExtension>
        </extensions>
      </trkpt>
      <trkpt lat="42.509618885815143585205078125" lon="19.89490114152431488037109375">
        <ele>1759.4000244140625</ele>
        <time>2026-06-17T12:13:00.000Z</time>
        <extensions>
          <ns3:TrackPointExtension>
            <ns3:atemp>19.0</ns3:atemp>
          </ns3:TrackPointExtension>
        </extensions>
      </trkpt>
      <trkpt lat="42.509618885815143585205078125" lon="19.89490114152431488037109375">
        <ele>1759.4000244140625</ele>
        <time>2026-06-17T12:13:01.000Z</time>
        <extensions>
          <ns3:TrackPointExtension>
            <ns3:atemp>19.0</ns3:atemp>
          </ns3:TrackPointExtension>
        </extensions>
      </trkpt>
      <trkpt lat="42.509618885815143585205078125" lon="19.89490114152431488037109375">
        <ele>1759.4000244140625</ele>
        <time>2026-06-17T12:13:02.000Z</time>
        <extensions>
          <ns3:TrackPointExtension>
            <ns3:atemp>19.0</ns3:atemp>
          </ns3:TrackPointExtension>
        </extensions>
      </trkpt>
      <trkpt lat="42.509618885815143585205078125" lon="19.89490114152431488037109375">
        <ele>1759.4000244140625</ele>
        <time>2026-06-17T12:13:03.000Z</time>
        <extensions>
          <ns3:TrackPointExtension>
            <ns3:atemp>19.0</ns3:atemp>
          </ns3:TrackPointExtension>
        </extensions>
      </trkpt>
      <trkpt lat="42.509618885815143585205078125" lon="19.89490114152431488037109375">
        <ele>1759.4000244140625</ele>
        <time>2026-06-17T12:13:04.000Z</time>
        <extensions>
          <ns3:TrackPointExtension>
            <ns3:atemp>19.0</ns3:atemp>
          </ns3:TrackPointExtension>
        </extensions>
      </trkpt>
      <trkpt lat="42.509618885815143585205078125" lon="19.89490114152431488037109375">
        <ele>1759.4000244140625</ele>
        <time>2026-06-17T12:13:05.000Z</time>
        <extensions>
          <ns3:TrackPointExtension>
            <ns3:atemp>19.0</ns3:atemp>
          </ns3:TrackPointExtension>
        </extensions>
      </trkpt>
      <trkpt lat="42.509618885815143585205078125" lon="19.89490114152431488037109375">
        <ele>1759.4000244140625</ele>
        <time>2026-06-17T12:13:06.000Z</time>
        <extensions>
          <ns3:TrackPointExtension>
            <ns3:atemp>19.0</ns3:atemp>
          </ns3:TrackPointExtension>
        </extensions>
      </trkpt>
      <trkpt lat="42.509618885815143585205078125" lon="19.89490114152431488037109375">
        <ele>1759.4000244140625</ele>
        <time>2026-06-17T12:13:07.000Z</time>
        <extensions>
          <ns3:TrackPointExtension>
            <ns3:atemp>19.0</ns3:atemp>
          </ns3:TrackPointExtension>
        </extensions>
      </trkpt>
      <trkpt lat="42.509618885815143585205078125" lon="19.89490114152431488037109375">
        <ele>1759.4000244140625</ele>
        <time>2026-06-17T12:13:08.000Z</time>
        <extensions>
          <ns3:TrackPointExtension>
            <ns3:atemp>19.0</ns3:atemp>
          </ns3:TrackPointExtension>
        </extensions>
      </trkpt>
      <trkpt lat="42.509618885815143585205078125" lon="19.89490114152431488037109375">
        <ele>1759.4000244140625</ele>
        <time>2026-06-17T12:13:09.000Z</time>
        <extensions>
          <ns3:TrackPointExtension>
            <ns3:atemp>19.0</ns3:atemp>
          </ns3:TrackPointExtension>
        </extensions>
      </trkpt>
      <trkpt lat="42.509618885815143585205078125" lon="19.89490114152431488037109375">
        <ele>1759.4000244140625</ele>
        <time>2026-06-17T12:13:10.000Z</time>
        <extensions>
          <ns3:TrackPointExtension>
            <ns3:atemp>19.0</ns3:atemp>
          </ns3:TrackPointExtension>
        </extensions>
      </trkpt>
      <trkpt lat="42.509618885815143585205078125" lon="19.89490114152431488037109375">
        <ele>1759.4000244140625</ele>
        <time>2026-06-17T12:13:11.000Z</time>
        <extensions>
          <ns3:TrackPointExtension>
            <ns3:atemp>19.0</ns3:atemp>
          </ns3:TrackPointExtension>
        </extensions>
      </trkpt>
      <trkpt lat="42.509618885815143585205078125" lon="19.89490114152431488037109375">
        <ele>1759.4000244140625</ele>
        <time>2026-06-17T12:13:12.000Z</time>
        <extensions>
          <ns3:TrackPointExtension>
            <ns3:atemp>19.0</ns3:atemp>
          </ns3:TrackPointExtension>
        </extensions>
      </trkpt>
      <trkpt lat="42.509618885815143585205078125" lon="19.89490114152431488037109375">
        <ele>1759.4000244140625</ele>
        <time>2026-06-17T12:13:13.000Z</time>
        <extensions>
          <ns3:TrackPointExtension>
            <ns3:atemp>19.0</ns3:atemp>
          </ns3:TrackPointExtension>
        </extensions>
      </trkpt>
      <trkpt lat="42.509618885815143585205078125" lon="19.89490114152431488037109375">
        <ele>1759.4000244140625</ele>
        <time>2026-06-17T12:13:14.000Z</time>
        <extensions>
          <ns3:TrackPointExtension>
            <ns3:atemp>19.0</ns3:atemp>
          </ns3:TrackPointExtension>
        </extensions>
      </trkpt>
      <trkpt lat="42.509618885815143585205078125" lon="19.89490114152431488037109375">
        <ele>1759.4000244140625</ele>
        <time>2026-06-17T12:13:15.000Z</time>
        <extensions>
          <ns3:TrackPointExtension>
            <ns3:atemp>19.0</ns3:atemp>
          </ns3:TrackPointExtension>
        </extensions>
      </trkpt>
      <trkpt lat="42.509618885815143585205078125" lon="19.89490114152431488037109375">
        <ele>1759.4000244140625</ele>
        <time>2026-06-17T12:13:16.000Z</time>
        <extensions>
          <ns3:TrackPointExtension>
            <ns3:atemp>19.0</ns3:atemp>
          </ns3:TrackPointExtension>
        </extensions>
      </trkpt>
      <trkpt lat="42.509618885815143585205078125" lon="19.89490114152431488037109375">
        <ele>1759.4000244140625</ele>
        <time>2026-06-17T12:13:17.000Z</time>
        <extensions>
          <ns3:TrackPointExtension>
            <ns3:atemp>19.0</ns3:atemp>
          </ns3:TrackPointExtension>
        </extensions>
      </trkpt>
      <trkpt lat="42.509618885815143585205078125" lon="19.89490114152431488037109375">
        <ele>1759.4000244140625</ele>
        <time>2026-06-17T12:13:18.000Z</time>
        <extensions>
          <ns3:TrackPointExtension>
            <ns3:atemp>19.0</ns3:atemp>
          </ns3:TrackPointExtension>
        </extensions>
      </trkpt>
      <trkpt lat="42.509618885815143585205078125" lon="19.89490114152431488037109375">
        <ele>1759.4000244140625</ele>
        <time>2026-06-17T12:13:19.000Z</time>
        <extensions>
          <ns3:TrackPointExtension>
            <ns3:atemp>19.0</ns3:atemp>
          </ns3:TrackPointExtension>
        </extensions>
      </trkpt>
      <trkpt lat="42.509618885815143585205078125" lon="19.89490114152431488037109375">
        <ele>1759.4000244140625</ele>
        <time>2026-06-17T12:13:20.000Z</time>
        <extensions>
          <ns3:TrackPointExtension>
            <ns3:atemp>19.0</ns3:atemp>
          </ns3:TrackPointExtension>
        </extensions>
      </trkpt>
      <trkpt lat="42.509618885815143585205078125" lon="19.89490114152431488037109375">
        <ele>1759.4000244140625</ele>
        <time>2026-06-17T12:13:21.000Z</time>
        <extensions>
          <ns3:TrackPointExtension>
            <ns3:atemp>19.0</ns3:atemp>
          </ns3:TrackPointExtension>
        </extensions>
      </trkpt>
      <trkpt lat="42.509618885815143585205078125" lon="19.89490114152431488037109375">
        <ele>1759.4000244140625</ele>
        <time>2026-06-17T12:13:22.000Z</time>
        <extensions>
          <ns3:TrackPointExtension>
            <ns3:atemp>19.0</ns3:atemp>
          </ns3:TrackPointExtension>
        </extensions>
      </trkpt>
      <trkpt lat="42.509618885815143585205078125" lon="19.89490114152431488037109375">
        <ele>1759.4000244140625</ele>
        <time>2026-06-17T12:13:23.000Z</time>
        <extensions>
          <ns3:TrackPointExtension>
            <ns3:atemp>19.0</ns3:atemp>
          </ns3:TrackPointExtension>
        </extensions>
      </trkpt>
      <trkpt lat="42.509618885815143585205078125" lon="19.89490114152431488037109375">
        <ele>1759.4000244140625</ele>
        <time>2026-06-17T12:13:24.000Z</time>
        <extensions>
          <ns3:TrackPointExtension>
            <ns3:atemp>19.0</ns3:atemp>
          </ns3:TrackPointExtension>
        </extensions>
      </trkpt>
      <trkpt lat="42.509618885815143585205078125" lon="19.89490114152431488037109375">
        <ele>1759.4000244140625</ele>
        <time>2026-06-17T12:13:25.000Z</time>
        <extensions>
          <ns3:TrackPointExtension>
            <ns3:atemp>19.0</ns3:atemp>
          </ns3:TrackPointExtension>
        </extensions>
      </trkpt>
      <trkpt lat="42.509618885815143585205078125" lon="19.89490114152431488037109375">
        <ele>1759.4000244140625</ele>
        <time>2026-06-17T12:13:26.000Z</time>
        <extensions>
          <ns3:TrackPointExtension>
            <ns3:atemp>19.0</ns3:atemp>
          </ns3:TrackPointExtension>
        </extensions>
      </trkpt>
      <trkpt lat="42.509618885815143585205078125" lon="19.89490114152431488037109375">
        <ele>1759.4000244140625</ele>
        <time>2026-06-17T12:13:27.000Z</time>
        <extensions>
          <ns3:TrackPointExtension>
            <ns3:atemp>19.0</ns3:atemp>
          </ns3:TrackPointExtension>
        </extensions>
      </trkpt>
      <trkpt lat="42.509618885815143585205078125" lon="19.89490114152431488037109375">
        <ele>1759.4000244140625</ele>
        <time>2026-06-17T12:13:28.000Z</time>
        <extensions>
          <ns3:TrackPointExtension>
            <ns3:atemp>19.0</ns3:atemp>
          </ns3:TrackPointExtension>
        </extensions>
      </trkpt>
      <trkpt lat="42.509618885815143585205078125" lon="19.89490114152431488037109375">
        <ele>1759.4000244140625</ele>
        <time>2026-06-17T12:13:29.000Z</time>
        <extensions>
          <ns3:TrackPointExtension>
            <ns3:atemp>19.0</ns3:atemp>
          </ns3:TrackPointExtension>
        </extensions>
      </trkpt>
      <trkpt lat="42.509618885815143585205078125" lon="19.89490114152431488037109375">
        <ele>1759.4000244140625</ele>
        <time>2026-06-17T12:13:30.000Z</time>
        <extensions>
          <ns3:TrackPointExtension>
            <ns3:atemp>19.0</ns3:atemp>
          </ns3:TrackPointExtension>
        </extensions>
      </trkpt>
      <trkpt lat="42.509618885815143585205078125" lon="19.89490114152431488037109375">
        <ele>1759.4000244140625</ele>
        <time>2026-06-17T12:13:31.000Z</time>
        <extensions>
          <ns3:TrackPointExtension>
            <ns3:atemp>19.0</ns3:atemp>
          </ns3:TrackPointExtension>
        </extensions>
      </trkpt>
      <trkpt lat="42.509618885815143585205078125" lon="19.89490114152431488037109375">
        <ele>1759.4000244140625</ele>
        <time>2026-06-17T12:13:32.000Z</time>
        <extensions>
          <ns3:TrackPointExtension>
            <ns3:atemp>19.0</ns3:atemp>
          </ns3:TrackPointExtension>
        </extensions>
      </trkpt>
      <trkpt lat="42.509618885815143585205078125" lon="19.89490114152431488037109375">
        <ele>1759.4000244140625</ele>
        <time>2026-06-17T12:13:33.000Z</time>
        <extensions>
          <ns3:TrackPointExtension>
            <ns3:atemp>19.0</ns3:atemp>
          </ns3:TrackPointExtension>
        </extensions>
      </trkpt>
      <trkpt lat="42.509618885815143585205078125" lon="19.89490114152431488037109375">
        <ele>1759.4000244140625</ele>
        <time>2026-06-17T12:13:34.000Z</time>
        <extensions>
          <ns3:TrackPointExtension>
            <ns3:atemp>19.0</ns3:atemp>
          </ns3:TrackPointExtension>
        </extensions>
      </trkpt>
      <trkpt lat="42.509618885815143585205078125" lon="19.89490114152431488037109375">
        <ele>1759.4000244140625</ele>
        <time>2026-06-17T12:13:35.000Z</time>
        <extensions>
          <ns3:TrackPointExtension>
            <ns3:atemp>19.0</ns3:atemp>
          </ns3:TrackPointExtension>
        </extensions>
      </trkpt>
      <trkpt lat="42.509618885815143585205078125" lon="19.89490114152431488037109375">
        <ele>1759.4000244140625</ele>
        <time>2026-06-17T12:13:36.000Z</time>
        <extensions>
          <ns3:TrackPointExtension>
            <ns3:atemp>19.0</ns3:atemp>
          </ns3:TrackPointExtension>
        </extensions>
      </trkpt>
      <trkpt lat="42.509618885815143585205078125" lon="19.89490114152431488037109375">
        <ele>1759.4000244140625</ele>
        <time>2026-06-17T12:13:37.000Z</time>
        <extensions>
          <ns3:TrackPointExtension>
            <ns3:atemp>19.0</ns3:atemp>
          </ns3:TrackPointExtension>
        </extensions>
      </trkpt>
      <trkpt lat="42.509618885815143585205078125" lon="19.89490114152431488037109375">
        <ele>1759.4000244140625</ele>
        <time>2026-06-17T12:13:38.000Z</time>
        <extensions>
          <ns3:TrackPointExtension>
            <ns3:atemp>19.0</ns3:atemp>
          </ns3:TrackPointExtension>
        </extensions>
      </trkpt>
      <trkpt lat="42.509618885815143585205078125" lon="19.89490114152431488037109375">
        <ele>1759.4000244140625</ele>
        <time>2026-06-17T12:13:39.000Z</time>
        <extensions>
          <ns3:TrackPointExtension>
            <ns3:atemp>19.0</ns3:atemp>
          </ns3:TrackPointExtension>
        </extensions>
      </trkpt>
      <trkpt lat="42.509618885815143585205078125" lon="19.89490114152431488037109375">
        <ele>1759.4000244140625</ele>
        <time>2026-06-17T12:13:40.000Z</time>
        <extensions>
          <ns3:TrackPointExtension>
            <ns3:atemp>19.0</ns3:atemp>
          </ns3:TrackPointExtension>
        </extensions>
      </trkpt>
      <trkpt lat="42.509618885815143585205078125" lon="19.89490114152431488037109375">
        <ele>1759.4000244140625</ele>
        <time>2026-06-17T12:13:41.000Z</time>
        <extensions>
          <ns3:TrackPointExtension>
            <ns3:atemp>19.0</ns3:atemp>
          </ns3:TrackPointExtension>
        </extensions>
      </trkpt>
      <trkpt lat="42.509618885815143585205078125" lon="19.89490114152431488037109375">
        <ele>1759.4000244140625</ele>
        <time>2026-06-17T12:13:42.000Z</time>
        <extensions>
          <ns3:TrackPointExtension>
            <ns3:atemp>19.0</ns3:atemp>
          </ns3:TrackPointExtension>
        </extensions>
      </trkpt>
      <trkpt lat="42.509618885815143585205078125" lon="19.89490114152431488037109375">
        <ele>1759.4000244140625</ele>
        <time>2026-06-17T12:13:43.000Z</time>
        <extensions>
          <ns3:TrackPointExtension>
            <ns3:atemp>19.0</ns3:atemp>
          </ns3:TrackPointExtension>
        </extensions>
      </trkpt>
      <trkpt lat="42.509618885815143585205078125" lon="19.89490114152431488037109375">
        <ele>1759.4000244140625</ele>
        <time>2026-06-17T12:13:44.000Z</time>
        <extensions>
          <ns3:TrackPointExtension>
            <ns3:atemp>19.0</ns3:atemp>
          </ns3:TrackPointExtension>
        </extensions>
      </trkpt>
      <trkpt lat="42.509618885815143585205078125" lon="19.89490114152431488037109375">
        <ele>1759.4000244140625</ele>
        <time>2026-06-17T12:13:45.000Z</time>
        <extensions>
          <ns3:TrackPointExtension>
            <ns3:atemp>19.0</ns3:atemp>
          </ns3:TrackPointExtension>
        </extensions>
      </trkpt>
      <trkpt lat="42.509618885815143585205078125" lon="19.89490114152431488037109375">
        <ele>1759.4000244140625</ele>
        <time>2026-06-17T12:13:46.000Z</time>
        <extensions>
          <ns3:TrackPointExtension>
            <ns3:atemp>19.0</ns3:atemp>
          </ns3:TrackPointExtension>
        </extensions>
      </trkpt>
      <trkpt lat="42.509618885815143585205078125" lon="19.89490114152431488037109375">
        <ele>1759.4000244140625</ele>
        <time>2026-06-17T12:13:47.000Z</time>
        <extensions>
          <ns3:TrackPointExtension>
            <ns3:atemp>19.0</ns3:atemp>
          </ns3:TrackPointExtension>
        </extensions>
      </trkpt>
      <trkpt lat="42.509618885815143585205078125" lon="19.89490114152431488037109375">
        <ele>1759.4000244140625</ele>
        <time>2026-06-17T12:13:48.000Z</time>
        <extensions>
          <ns3:TrackPointExtension>
            <ns3:atemp>19.0</ns3:atemp>
          </ns3:TrackPointExtension>
        </extensions>
      </trkpt>
      <trkpt lat="42.509618885815143585205078125" lon="19.89490114152431488037109375">
        <ele>1759.4000244140625</ele>
        <time>2026-06-17T12:13:49.000Z</time>
        <extensions>
          <ns3:TrackPointExtension>
            <ns3:atemp>19.0</ns3:atemp>
          </ns3:TrackPointExtension>
        </extensions>
      </trkpt>
      <trkpt lat="42.509618885815143585205078125" lon="19.89490114152431488037109375">
        <ele>1759.4000244140625</ele>
        <time>2026-06-17T12:13:50.000Z</time>
        <extensions>
          <ns3:TrackPointExtension>
            <ns3:atemp>19.0</ns3:atemp>
          </ns3:TrackPointExtension>
        </extensions>
      </trkpt>
      <trkpt lat="42.509618885815143585205078125" lon="19.89490114152431488037109375">
        <ele>1759.4000244140625</ele>
        <time>2026-06-17T12:13:51.000Z</time>
        <extensions>
          <ns3:TrackPointExtension>
            <ns3:atemp>19.0</ns3:atemp>
          </ns3:TrackPointExtension>
        </extensions>
      </trkpt>
      <trkpt lat="42.509618885815143585205078125" lon="19.89490114152431488037109375">
        <ele>1759.4000244140625</ele>
        <time>2026-06-17T12:13:52.000Z</time>
        <extensions>
          <ns3:TrackPointExtension>
            <ns3:atemp>19.0</ns3:atemp>
          </ns3:TrackPointExtension>
        </extensions>
      </trkpt>
      <trkpt lat="42.509618885815143585205078125" lon="19.89490114152431488037109375">
        <ele>1759.4000244140625</ele>
        <time>2026-06-17T12:13:53.000Z</time>
        <extensions>
          <ns3:TrackPointExtension>
            <ns3:atemp>19.0</ns3:atemp>
          </ns3:TrackPointExtension>
        </extensions>
      </trkpt>
      <trkpt lat="42.509618885815143585205078125" lon="19.89490114152431488037109375">
        <ele>1759.4000244140625</ele>
        <time>2026-06-17T12:13:54.000Z</time>
        <extensions>
          <ns3:TrackPointExtension>
            <ns3:atemp>19.0</ns3:atemp>
          </ns3:TrackPointExtension>
        </extensions>
      </trkpt>
      <trkpt lat="42.509618885815143585205078125" lon="19.89490114152431488037109375">
        <ele>1759.4000244140625</ele>
        <time>2026-06-17T12:13:55.000Z</time>
        <extensions>
          <ns3:TrackPointExtension>
            <ns3:atemp>19.0</ns3:atemp>
          </ns3:TrackPointExtension>
        </extensions>
      </trkpt>
      <trkpt lat="42.509618885815143585205078125" lon="19.89490114152431488037109375">
        <ele>1759.4000244140625</ele>
        <time>2026-06-17T12:13:56.000Z</time>
        <extensions>
          <ns3:TrackPointExtension>
            <ns3:atemp>19.0</ns3:atemp>
          </ns3:TrackPointExtension>
        </extensions>
      </trkpt>
      <trkpt lat="42.509618885815143585205078125" lon="19.89490114152431488037109375">
        <ele>1759.4000244140625</ele>
        <time>2026-06-17T12:13:57.000Z</time>
        <extensions>
          <ns3:TrackPointExtension>
            <ns3:atemp>19.0</ns3:atemp>
          </ns3:TrackPointExtension>
        </extensions>
      </trkpt>
      <trkpt lat="42.509618885815143585205078125" lon="19.89490114152431488037109375">
        <ele>1759.4000244140625</ele>
        <time>2026-06-17T12:13:58.000Z</time>
        <extensions>
          <ns3:TrackPointExtension>
            <ns3:atemp>19.0</ns3:atemp>
          </ns3:TrackPointExtension>
        </extensions>
      </trkpt>
      <trkpt lat="42.509618885815143585205078125" lon="19.89490114152431488037109375">
        <ele>1759.4000244140625</ele>
        <time>2026-06-17T12:13:59.000Z</time>
        <extensions>
          <ns3:TrackPointExtension>
            <ns3:atemp>19.0</ns3:atemp>
          </ns3:TrackPointExtension>
        </extensions>
      </trkpt>
      <trkpt lat="42.509618885815143585205078125" lon="19.89490114152431488037109375">
        <ele>1759.4000244140625</ele>
        <time>2026-06-17T12:14:00.000Z</time>
        <extensions>
          <ns3:TrackPointExtension>
            <ns3:atemp>19.0</ns3:atemp>
          </ns3:TrackPointExtension>
        </extensions>
      </trkpt>
      <trkpt lat="42.509618885815143585205078125" lon="19.89490114152431488037109375">
        <ele>1759.4000244140625</ele>
        <time>2026-06-17T12:14:01.000Z</time>
        <extensions>
          <ns3:TrackPointExtension>
            <ns3:atemp>19.0</ns3:atemp>
          </ns3:TrackPointExtension>
        </extensions>
      </trkpt>
      <trkpt lat="42.509618885815143585205078125" lon="19.89490114152431488037109375">
        <ele>1759.4000244140625</ele>
        <time>2026-06-17T12:14:02.000Z</time>
        <extensions>
          <ns3:TrackPointExtension>
            <ns3:atemp>19.0</ns3:atemp>
          </ns3:TrackPointExtension>
        </extensions>
      </trkpt>
      <trkpt lat="42.509618885815143585205078125" lon="19.89490114152431488037109375">
        <ele>1759.4000244140625</ele>
        <time>2026-06-17T12:14:03.000Z</time>
        <extensions>
          <ns3:TrackPointExtension>
            <ns3:atemp>19.0</ns3:atemp>
          </ns3:TrackPointExtension>
        </extensions>
      </trkpt>
      <trkpt lat="42.509618885815143585205078125" lon="19.89490114152431488037109375">
        <ele>1759.4000244140625</ele>
        <time>2026-06-17T12:14:04.000Z</time>
        <extensions>
          <ns3:TrackPointExtension>
            <ns3:atemp>19.0</ns3:atemp>
          </ns3:TrackPointExtension>
        </extensions>
      </trkpt>
      <trkpt lat="42.509618885815143585205078125" lon="19.89490114152431488037109375">
        <ele>1759.4000244140625</ele>
        <time>2026-06-17T12:14:05.000Z</time>
        <extensions>
          <ns3:TrackPointExtension>
            <ns3:atemp>19.0</ns3:atemp>
          </ns3:TrackPointExtension>
        </extensions>
      </trkpt>
      <trkpt lat="42.509618885815143585205078125" lon="19.89490114152431488037109375">
        <ele>1759.4000244140625</ele>
        <time>2026-06-17T12:14:06.000Z</time>
        <extensions>
          <ns3:TrackPointExtension>
            <ns3:atemp>19.0</ns3:atemp>
          </ns3:TrackPointExtension>
        </extensions>
      </trkpt>
      <trkpt lat="42.509618885815143585205078125" lon="19.89490114152431488037109375">
        <ele>1759.4000244140625</ele>
        <time>2026-06-17T12:14:07.000Z</time>
        <extensions>
          <ns3:TrackPointExtension>
            <ns3:atemp>19.0</ns3:atemp>
          </ns3:TrackPointExtension>
        </extensions>
      </trkpt>
      <trkpt lat="42.509618885815143585205078125" lon="19.89490114152431488037109375">
        <ele>1759.4000244140625</ele>
        <time>2026-06-17T12:14:08.000Z</time>
        <extensions>
          <ns3:TrackPointExtension>
            <ns3:atemp>19.0</ns3:atemp>
          </ns3:TrackPointExtension>
        </extensions>
      </trkpt>
      <trkpt lat="42.509618885815143585205078125" lon="19.89490114152431488037109375">
        <ele>1759.4000244140625</ele>
        <time>2026-06-17T12:14:09.000Z</time>
        <extensions>
          <ns3:TrackPointExtension>
            <ns3:atemp>19.0</ns3:atemp>
          </ns3:TrackPointExtension>
        </extensions>
      </trkpt>
      <trkpt lat="42.509618885815143585205078125" lon="19.89490114152431488037109375">
        <ele>1759.4000244140625</ele>
        <time>2026-06-17T12:14:10.000Z</time>
        <extensions>
          <ns3:TrackPointExtension>
            <ns3:atemp>19.0</ns3:atemp>
          </ns3:TrackPointExtension>
        </extensions>
      </trkpt>
      <trkpt lat="42.509618885815143585205078125" lon="19.89490114152431488037109375">
        <ele>1759.4000244140625</ele>
        <time>2026-06-17T12:14:11.000Z</time>
        <extensions>
          <ns3:TrackPointExtension>
            <ns3:atemp>19.0</ns3:atemp>
          </ns3:TrackPointExtension>
        </extensions>
      </trkpt>
      <trkpt lat="42.509618885815143585205078125" lon="19.89490114152431488037109375">
        <ele>1759.4000244140625</ele>
        <time>2026-06-17T12:14:12.000Z</time>
        <extensions>
          <ns3:TrackPointExtension>
            <ns3:atemp>19.0</ns3:atemp>
          </ns3:TrackPointExtension>
        </extensions>
      </trkpt>
      <trkpt lat="42.509618885815143585205078125" lon="19.89490114152431488037109375">
        <ele>1759.4000244140625</ele>
        <time>2026-06-17T12:14:13.000Z</time>
        <extensions>
          <ns3:TrackPointExtension>
            <ns3:atemp>19.0</ns3:atemp>
          </ns3:TrackPointExtension>
        </extensions>
      </trkpt>
      <trkpt lat="42.509618885815143585205078125" lon="19.89490114152431488037109375">
        <ele>1759.4000244140625</ele>
        <time>2026-06-17T12:14:14.000Z</time>
        <extensions>
          <ns3:TrackPointExtension>
            <ns3:atemp>19.0</ns3:atemp>
          </ns3:TrackPointExtension>
        </extensions>
      </trkpt>
      <trkpt lat="42.509618885815143585205078125" lon="19.89490114152431488037109375">
        <ele>1759.4000244140625</ele>
        <time>2026-06-17T12:14:15.000Z</time>
        <extensions>
          <ns3:TrackPointExtension>
            <ns3:atemp>19.0</ns3:atemp>
          </ns3:TrackPointExtension>
        </extensions>
      </trkpt>
      <trkpt lat="42.509618885815143585205078125" lon="19.89490114152431488037109375">
        <ele>1759.4000244140625</ele>
        <time>2026-06-17T12:14:16.000Z</time>
        <extensions>
          <ns3:TrackPointExtension>
            <ns3:atemp>19.0</ns3:atemp>
          </ns3:TrackPointExtension>
        </extensions>
      </trkpt>
      <trkpt lat="42.509618885815143585205078125" lon="19.89490114152431488037109375">
        <ele>1759.4000244140625</ele>
        <time>2026-06-17T12:14:17.000Z</time>
        <extensions>
          <ns3:TrackPointExtension>
            <ns3:atemp>19.0</ns3:atemp>
          </ns3:TrackPointExtension>
        </extensions>
      </trkpt>
      <trkpt lat="42.509618885815143585205078125" lon="19.89490114152431488037109375">
        <ele>1759.4000244140625</ele>
        <time>2026-06-17T12:14:18.000Z</time>
        <extensions>
          <ns3:TrackPointExtension>
            <ns3:atemp>19.0</ns3:atemp>
          </ns3:TrackPointExtension>
        </extensions>
      </trkpt>
      <trkpt lat="42.509618885815143585205078125" lon="19.89490114152431488037109375">
        <ele>1759.4000244140625</ele>
        <time>2026-06-17T12:14:19.000Z</time>
        <extensions>
          <ns3:TrackPointExtension>
            <ns3:atemp>19.0</ns3:atemp>
          </ns3:TrackPointExtension>
        </extensions>
      </trkpt>
      <trkpt lat="42.509618885815143585205078125" lon="19.89490114152431488037109375">
        <ele>1759.4000244140625</ele>
        <time>2026-06-17T12:14:20.000Z</time>
        <extensions>
          <ns3:TrackPointExtension>
            <ns3:atemp>19.0</ns3:atemp>
          </ns3:TrackPointExtension>
        </extensions>
      </trkpt>
      <trkpt lat="42.509618885815143585205078125" lon="19.89490114152431488037109375">
        <ele>1759.4000244140625</ele>
        <time>2026-06-17T12:14:21.000Z</time>
        <extensions>
          <ns3:TrackPointExtension>
            <ns3:atemp>19.0</ns3:atemp>
          </ns3:TrackPointExtension>
        </extensions>
      </trkpt>
      <trkpt lat="42.509618885815143585205078125" lon="19.89490114152431488037109375">
        <ele>1759.4000244140625</ele>
        <time>2026-06-17T12:14:22.000Z</time>
        <extensions>
          <ns3:TrackPointExtension>
            <ns3:atemp>19.0</ns3:atemp>
          </ns3:TrackPointExtension>
        </extensions>
      </trkpt>
      <trkpt lat="42.509618885815143585205078125" lon="19.89490114152431488037109375">
        <ele>1759.4000244140625</ele>
        <time>2026-06-17T12:14:23.000Z</time>
        <extensions>
          <ns3:TrackPointExtension>
            <ns3:atemp>19.0</ns3:atemp>
          </ns3:TrackPointExtension>
        </extensions>
      </trkpt>
      <trkpt lat="42.509618885815143585205078125" lon="19.89490114152431488037109375">
        <ele>1759.4000244140625</ele>
        <time>2026-06-17T12:14:24.000Z</time>
        <extensions>
          <ns3:TrackPointExtension>
            <ns3:atemp>19.0</ns3:atemp>
          </ns3:TrackPointExtension>
        </extensions>
      </trkpt>
      <trkpt lat="42.509618885815143585205078125" lon="19.89490114152431488037109375">
        <ele>1759.4000244140625</ele>
        <time>2026-06-17T12:14:25.000Z</time>
        <extensions>
          <ns3:TrackPointExtension>
            <ns3:atemp>19.0</ns3:atemp>
          </ns3:TrackPointExtension>
        </extensions>
      </trkpt>
      <trkpt lat="42.509618885815143585205078125" lon="19.89490114152431488037109375">
        <ele>1759.4000244140625</ele>
        <time>2026-06-17T12:14:26.000Z</time>
        <extensions>
          <ns3:TrackPointExtension>
            <ns3:atemp>19.0</ns3:atemp>
          </ns3:TrackPointExtension>
        </extensions>
      </trkpt>
      <trkpt lat="42.509618885815143585205078125" lon="19.89490114152431488037109375">
        <ele>1759.4000244140625</ele>
        <time>2026-06-17T12:14:27.000Z</time>
        <extensions>
          <ns3:TrackPointExtension>
            <ns3:atemp>19.0</ns3:atemp>
          </ns3:TrackPointExtension>
        </extensions>
      </trkpt>
      <trkpt lat="42.509618885815143585205078125" lon="19.89490114152431488037109375">
        <ele>1759.4000244140625</ele>
        <time>2026-06-17T12:14:28.000Z</time>
        <extensions>
          <ns3:TrackPointExtension>
            <ns3:atemp>19.0</ns3:atemp>
          </ns3:TrackPointExtension>
        </extensions>
      </trkpt>
      <trkpt lat="42.509618885815143585205078125" lon="19.89490114152431488037109375">
        <ele>1759.4000244140625</ele>
        <time>2026-06-17T12:14:29.000Z</time>
        <extensions>
          <ns3:TrackPointExtension>
            <ns3:atemp>19.0</ns3:atemp>
          </ns3:TrackPointExtension>
        </extensions>
      </trkpt>
      <trkpt lat="42.509618885815143585205078125" lon="19.89490114152431488037109375">
        <ele>1759.4000244140625</ele>
        <time>2026-06-17T12:14:30.000Z</time>
        <extensions>
          <ns3:TrackPointExtension>
            <ns3:atemp>19.0</ns3:atemp>
          </ns3:TrackPointExtension>
        </extensions>
      </trkpt>
      <trkpt lat="42.509618885815143585205078125" lon="19.89490114152431488037109375">
        <ele>1759.4000244140625</ele>
        <time>2026-06-17T12:14:31.000Z</time>
        <extensions>
          <ns3:TrackPointExtension>
            <ns3:atemp>19.0</ns3:atemp>
          </ns3:TrackPointExtension>
        </extensions>
      </trkpt>
      <trkpt lat="42.509618885815143585205078125" lon="19.89490114152431488037109375">
        <ele>1759.4000244140625</ele>
        <time>2026-06-17T12:14:32.000Z</time>
        <extensions>
          <ns3:TrackPointExtension>
            <ns3:atemp>19.0</ns3:atemp>
          </ns3:TrackPointExtension>
        </extensions>
      </trkpt>
      <trkpt lat="42.509618885815143585205078125" lon="19.89490114152431488037109375">
        <ele>1759.4000244140625</ele>
        <time>2026-06-17T12:14:33.000Z</time>
        <extensions>
          <ns3:TrackPointExtension>
            <ns3:atemp>19.0</ns3:atemp>
          </ns3:TrackPointExtension>
        </extensions>
      </trkpt>
      <trkpt lat="42.509618885815143585205078125" lon="19.89490114152431488037109375">
        <ele>1759.4000244140625</ele>
        <time>2026-06-17T12:14:34.000Z</time>
        <extensions>
          <ns3:TrackPointExtension>
            <ns3:atemp>19.0</ns3:atemp>
          </ns3:TrackPointExtension>
        </extensions>
      </trkpt>
      <trkpt lat="42.509618885815143585205078125" lon="19.89490114152431488037109375">
        <ele>1759.4000244140625</ele>
        <time>2026-06-17T12:14:35.000Z</time>
        <extensions>
          <ns3:TrackPointExtension>
            <ns3:atemp>19.0</ns3:atemp>
          </ns3:TrackPointExtension>
        </extensions>
      </trkpt>
      <trkpt lat="42.509618885815143585205078125" lon="19.89490114152431488037109375">
        <ele>1759.4000244140625</ele>
        <time>2026-06-17T12:14:36.000Z</time>
        <extensions>
          <ns3:TrackPointExtension>
            <ns3:atemp>19.0</ns3:atemp>
          </ns3:TrackPointExtension>
        </extensions>
      </trkpt>
      <trkpt lat="42.509618885815143585205078125" lon="19.89490114152431488037109375">
        <ele>1759.4000244140625</ele>
        <time>2026-06-17T12:14:37.000Z</time>
        <extensions>
          <ns3:TrackPointExtension>
            <ns3:atemp>19.0</ns3:atemp>
          </ns3:TrackPointExtension>
        </extensions>
      </trkpt>
      <trkpt lat="42.509618885815143585205078125" lon="19.89490114152431488037109375">
        <ele>1759.4000244140625</ele>
        <time>2026-06-17T12:14:38.000Z</time>
        <extensions>
          <ns3:TrackPointExtension>
            <ns3:atemp>19.0</ns3:atemp>
          </ns3:TrackPointExtension>
        </extensions>
      </trkpt>
      <trkpt lat="42.509618885815143585205078125" lon="19.89490114152431488037109375">
        <ele>1759.4000244140625</ele>
        <time>2026-06-17T12:14:39.000Z</time>
        <extensions>
          <ns3:TrackPointExtension>
            <ns3:atemp>19.0</ns3:atemp>
          </ns3:TrackPointExtension>
        </extensions>
      </trkpt>
      <trkpt lat="42.509618885815143585205078125" lon="19.89490114152431488037109375">
        <ele>1759.4000244140625</ele>
        <time>2026-06-17T12:14:40.000Z</time>
        <extensions>
          <ns3:TrackPointExtension>
            <ns3:atemp>19.0</ns3:atemp>
          </ns3:TrackPointExtension>
        </extensions>
      </trkpt>
      <trkpt lat="42.509618885815143585205078125" lon="19.89490114152431488037109375">
        <ele>1759.4000244140625</ele>
        <time>2026-06-17T12:14:41.000Z</time>
        <extensions>
          <ns3:TrackPointExtension>
            <ns3:atemp>19.0</ns3:atemp>
          </ns3:TrackPointExtension>
        </extensions>
      </trkpt>
      <trkpt lat="42.509618885815143585205078125" lon="19.89490114152431488037109375">
        <ele>1759.4000244140625</ele>
        <time>2026-06-17T12:14:42.000Z</time>
        <extensions>
          <ns3:TrackPointExtension>
            <ns3:atemp>19.0</ns3:atemp>
          </ns3:TrackPointExtension>
        </extensions>
      </trkpt>
      <trkpt lat="42.509618885815143585205078125" lon="19.89490114152431488037109375">
        <ele>1759.4000244140625</ele>
        <time>2026-06-17T12:14:43.000Z</time>
        <extensions>
          <ns3:TrackPointExtension>
            <ns3:atemp>19.0</ns3:atemp>
          </ns3:TrackPointExtension>
        </extensions>
      </trkpt>
      <trkpt lat="42.509618885815143585205078125" lon="19.89490114152431488037109375">
        <ele>1759.4000244140625</ele>
        <time>2026-06-17T12:14:44.000Z</time>
        <extensions>
          <ns3:TrackPointExtension>
            <ns3:atemp>19.0</ns3:atemp>
          </ns3:TrackPointExtension>
        </extensions>
      </trkpt>
      <trkpt lat="42.509618885815143585205078125" lon="19.89490114152431488037109375">
        <ele>1759.4000244140625</ele>
        <time>2026-06-17T12:14:45.000Z</time>
        <extensions>
          <ns3:TrackPointExtension>
            <ns3:atemp>19.0</ns3:atemp>
          </ns3:TrackPointExtension>
        </extensions>
      </trkpt>
      <trkpt lat="42.509618885815143585205078125" lon="19.89490114152431488037109375">
        <ele>1759.4000244140625</ele>
        <time>2026-06-17T12:14:46.000Z</time>
        <extensions>
          <ns3:TrackPointExtension>
            <ns3:atemp>19.0</ns3:atemp>
          </ns3:TrackPointExtension>
        </extensions>
      </trkpt>
      <trkpt lat="42.509618885815143585205078125" lon="19.89490114152431488037109375">
        <ele>1759.4000244140625</ele>
        <time>2026-06-17T12:14:47.000Z</time>
        <extensions>
          <ns3:TrackPointExtension>
            <ns3:atemp>19.0</ns3:atemp>
          </ns3:TrackPointExtension>
        </extensions>
      </trkpt>
      <trkpt lat="42.509618885815143585205078125" lon="19.89490114152431488037109375">
        <ele>1759.4000244140625</ele>
        <time>2026-06-17T12:14:48.000Z</time>
        <extensions>
          <ns3:TrackPointExtension>
            <ns3:atemp>19.0</ns3:atemp>
          </ns3:TrackPointExtension>
        </extensions>
      </trkpt>
      <trkpt lat="42.509618885815143585205078125" lon="19.89490114152431488037109375">
        <ele>1759.4000244140625</ele>
        <time>2026-06-17T12:14:49.000Z</time>
        <extensions>
          <ns3:TrackPointExtension>
            <ns3:atemp>19.0</ns3:atemp>
          </ns3:TrackPointExtension>
        </extensions>
      </trkpt>
      <trkpt lat="42.509618885815143585205078125" lon="19.89490114152431488037109375">
        <ele>1759.4000244140625</ele>
        <time>2026-06-17T12:14:50.000Z</time>
        <extensions>
          <ns3:TrackPointExtension>
            <ns3:atemp>19.0</ns3:atemp>
          </ns3:TrackPointExtension>
        </extensions>
      </trkpt>
      <trkpt lat="42.509618885815143585205078125" lon="19.89490114152431488037109375">
        <ele>1759.4000244140625</ele>
        <time>2026-06-17T12:14:51.000Z</time>
        <extensions>
          <ns3:TrackPointExtension>
            <ns3:atemp>19.0</ns3:atemp>
          </ns3:TrackPointExtension>
        </extensions>
      </trkpt>
      <trkpt lat="42.509618885815143585205078125" lon="19.89490114152431488037109375">
        <ele>1759.4000244140625</ele>
        <time>2026-06-17T12:14:52.000Z</time>
        <extensions>
          <ns3:TrackPointExtension>
            <ns3:atemp>19.0</ns3:atemp>
          </ns3:TrackPointExtension>
        </extensions>
      </trkpt>
      <trkpt lat="42.509618885815143585205078125" lon="19.89490114152431488037109375">
        <ele>1759.4000244140625</ele>
        <time>2026-06-17T12:14:53.000Z</time>
        <extensions>
          <ns3:TrackPointExtension>
            <ns3:atemp>19.0</ns3:atemp>
          </ns3:TrackPointExtension>
        </extensions>
      </trkpt>
      <trkpt lat="42.509618885815143585205078125" lon="19.89490114152431488037109375">
        <ele>1759.4000244140625</ele>
        <time>2026-06-17T12:14:54.000Z</time>
        <extensions>
          <ns3:TrackPointExtension>
            <ns3:atemp>20.0</ns3:atemp>
          </ns3:TrackPointExtension>
        </extensions>
      </trkpt>
      <trkpt lat="42.509618885815143585205078125" lon="19.89490114152431488037109375">
        <ele>1759.4000244140625</ele>
        <time>2026-06-17T12:14:55.000Z</time>
        <extensions>
          <ns3:TrackPointExtension>
            <ns3:atemp>19.0</ns3:atemp>
          </ns3:TrackPointExtension>
        </extensions>
      </trkpt>
      <trkpt lat="42.509618885815143585205078125" lon="19.89490114152431488037109375">
        <ele>1759.4000244140625</ele>
        <time>2026-06-17T12:14:56.000Z</time>
        <extensions>
          <ns3:TrackPointExtension>
            <ns3:atemp>19.0</ns3:atemp>
          </ns3:TrackPointExtension>
        </extensions>
      </trkpt>
      <trkpt lat="42.509618885815143585205078125" lon="19.89490114152431488037109375">
        <ele>1759.4000244140625</ele>
        <time>2026-06-17T12:14:57.000Z</time>
        <extensions>
          <ns3:TrackPointExtension>
            <ns3:atemp>19.0</ns3:atemp>
          </ns3:TrackPointExtension>
        </extensions>
      </trkpt>
      <trkpt lat="42.509618885815143585205078125" lon="19.89490114152431488037109375">
        <ele>1759.4000244140625</ele>
        <time>2026-06-17T12:14:58.000Z</time>
        <extensions>
          <ns3:TrackPointExtension>
            <ns3:atemp>19.0</ns3:atemp>
          </ns3:TrackPointExtension>
        </extensions>
      </trkpt>
      <trkpt lat="42.509618885815143585205078125" lon="19.89490114152431488037109375">
        <ele>1759.4000244140625</ele>
        <time>2026-06-17T12:14:59.000Z</time>
        <extensions>
          <ns3:TrackPointExtension>
            <ns3:atemp>19.0</ns3:atemp>
          </ns3:TrackPointExtension>
        </extensions>
      </trkpt>
      <trkpt lat="42.509618885815143585205078125" lon="19.89490114152431488037109375">
        <ele>1759.4000244140625</ele>
        <time>2026-06-17T12:15:00.000Z</time>
        <extensions>
          <ns3:TrackPointExtension>
            <ns3:atemp>19.0</ns3:atemp>
          </ns3:TrackPointExtension>
        </extensions>
      </trkpt>
      <trkpt lat="42.509618885815143585205078125" lon="19.89490114152431488037109375">
        <ele>1759.4000244140625</ele>
        <time>2026-06-17T12:15:01.000Z</time>
        <extensions>
          <ns3:TrackPointExtension>
            <ns3:atemp>19.0</ns3:atemp>
          </ns3:TrackPointExtension>
        </extensions>
      </trkpt>
      <trkpt lat="42.509618885815143585205078125" lon="19.89490114152431488037109375">
        <ele>1759.4000244140625</ele>
        <time>2026-06-17T12:15:02.000Z</time>
        <extensions>
          <ns3:TrackPointExtension>
            <ns3:atemp>19.0</ns3:atemp>
          </ns3:TrackPointExtension>
        </extensions>
      </trkpt>
      <trkpt lat="42.509618885815143585205078125" lon="19.89490114152431488037109375">
        <ele>1759.4000244140625</ele>
        <time>2026-06-17T12:15:03.000Z</time>
        <extensions>
          <ns3:TrackPointExtension>
            <ns3:atemp>19.0</ns3:atemp>
          </ns3:TrackPointExtension>
        </extensions>
      </trkpt>
      <trkpt lat="42.509618885815143585205078125" lon="19.89490114152431488037109375">
        <ele>1759.4000244140625</ele>
        <time>2026-06-17T12:15:04.000Z</time>
        <extensions>
          <ns3:TrackPointExtension>
            <ns3:atemp>19.0</ns3:atemp>
          </ns3:TrackPointExtension>
        </extensions>
      </trkpt>
      <trkpt lat="42.509618885815143585205078125" lon="19.89490114152431488037109375">
        <ele>1759.4000244140625</ele>
        <time>2026-06-17T12:15:05.000Z</time>
        <extensions>
          <ns3:TrackPointExtension>
            <ns3:atemp>20.0</ns3:atemp>
          </ns3:TrackPointExtension>
        </extensions>
      </trkpt>
      <trkpt lat="42.509618885815143585205078125" lon="19.89490114152431488037109375">
        <ele>1759.4000244140625</ele>
        <time>2026-06-17T12:15:06.000Z</time>
        <extensions>
          <ns3:TrackPointExtension>
            <ns3:atemp>19.0</ns3:atemp>
          </ns3:TrackPointExtension>
        </extensions>
      </trkpt>
      <trkpt lat="42.509618885815143585205078125" lon="19.89490114152431488037109375">
        <ele>1759.4000244140625</ele>
        <time>2026-06-17T12:15:07.000Z</time>
        <extensions>
          <ns3:TrackPointExtension>
            <ns3:atemp>19.0</ns3:atemp>
          </ns3:TrackPointExtension>
        </extensions>
      </trkpt>
      <trkpt lat="42.509618885815143585205078125" lon="19.89490114152431488037109375">
        <ele>1759.4000244140625</ele>
        <time>2026-06-17T12:15:08.000Z</time>
        <extensions>
          <ns3:TrackPointExtension>
            <ns3:atemp>19.0</ns3:atemp>
          </ns3:TrackPointExtension>
        </extensions>
      </trkpt>
      <trkpt lat="42.509618885815143585205078125" lon="19.89490114152431488037109375">
        <ele>1759.4000244140625</ele>
        <time>2026-06-17T12:15:09.000Z</time>
        <extensions>
          <ns3:TrackPointExtension>
            <ns3:atemp>19.0</ns3:atemp>
          </ns3:TrackPointExtension>
        </extensions>
      </trkpt>
      <trkpt lat="42.509618885815143585205078125" lon="19.89490114152431488037109375">
        <ele>1759.4000244140625</ele>
        <time>2026-06-17T12:15:10.000Z</time>
        <extensions>
          <ns3:TrackPointExtension>
            <ns3:atemp>20.0</ns3:atemp>
          </ns3:TrackPointExtension>
        </extensions>
      </trkpt>
      <trkpt lat="42.509618885815143585205078125" lon="19.89490114152431488037109375">
        <ele>1759.4000244140625</ele>
        <time>2026-06-17T12:15:11.000Z</time>
        <extensions>
          <ns3:TrackPointExtension>
            <ns3:atemp>19.0</ns3:atemp>
          </ns3:TrackPointExtension>
        </extensions>
      </trkpt>
      <trkpt lat="42.509618885815143585205078125" lon="19.89490114152431488037109375">
        <ele>1759.4000244140625</ele>
        <time>2026-06-17T12:15:12.000Z</time>
        <extensions>
          <ns3:TrackPointExtension>
            <ns3:atemp>20.0</ns3:atemp>
          </ns3:TrackPointExtension>
        </extensions>
      </trkpt>
      <trkpt lat="42.509618885815143585205078125" lon="19.89490114152431488037109375">
        <ele>1759.4000244140625</ele>
        <time>2026-06-17T12:15:13.000Z</time>
        <extensions>
          <ns3:TrackPointExtension>
            <ns3:atemp>19.0</ns3:atemp>
          </ns3:TrackPointExtension>
        </extensions>
      </trkpt>
      <trkpt lat="42.509618885815143585205078125" lon="19.89490114152431488037109375">
        <ele>1759.4000244140625</ele>
        <time>2026-06-17T12:15:14.000Z</time>
        <extensions>
          <ns3:TrackPointExtension>
            <ns3:atemp>19.0</ns3:atemp>
          </ns3:TrackPointExtension>
        </extensions>
      </trkpt>
      <trkpt lat="42.509618885815143585205078125" lon="19.89490114152431488037109375">
        <ele>1759.4000244140625</ele>
        <time>2026-06-17T12:15:15.000Z</time>
        <extensions>
          <ns3:TrackPointExtension>
            <ns3:atemp>20.0</ns3:atemp>
          </ns3:TrackPointExtension>
        </extensions>
      </trkpt>
      <trkpt lat="42.509618885815143585205078125" lon="19.89490114152431488037109375">
        <ele>1759.4000244140625</ele>
        <time>2026-06-17T12:15:16.000Z</time>
        <extensions>
          <ns3:TrackPointExtension>
            <ns3:atemp>20.0</ns3:atemp>
          </ns3:TrackPointExtension>
        </extensions>
      </trkpt>
      <trkpt lat="42.509618885815143585205078125" lon="19.89490114152431488037109375">
        <ele>1759.4000244140625</ele>
        <time>2026-06-17T12:15:17.000Z</time>
        <extensions>
          <ns3:TrackPointExtension>
            <ns3:atemp>20.0</ns3:atemp>
          </ns3:TrackPointExtension>
        </extensions>
      </trkpt>
      <trkpt lat="42.509618885815143585205078125" lon="19.89490114152431488037109375">
        <ele>1759.4000244140625</ele>
        <time>2026-06-17T12:15:18.000Z</time>
        <extensions>
          <ns3:TrackPointExtension>
            <ns3:atemp>20.0</ns3:atemp>
          </ns3:TrackPointExtension>
        </extensions>
      </trkpt>
      <trkpt lat="42.509618885815143585205078125" lon="19.89490114152431488037109375">
        <ele>1759.4000244140625</ele>
        <time>2026-06-17T12:15:19.000Z</time>
        <extensions>
          <ns3:TrackPointExtension>
            <ns3:atemp>20.0</ns3:atemp>
          </ns3:TrackPointExtension>
        </extensions>
      </trkpt>
      <trkpt lat="42.509618885815143585205078125" lon="19.89490114152431488037109375">
        <ele>1759.4000244140625</ele>
        <time>2026-06-17T12:15:20.000Z</time>
        <extensions>
          <ns3:TrackPointExtension>
            <ns3:atemp>20.0</ns3:atemp>
          </ns3:TrackPointExtension>
        </extensions>
      </trkpt>
      <trkpt lat="42.509618885815143585205078125" lon="19.89490114152431488037109375">
        <ele>1759.4000244140625</ele>
        <time>2026-06-17T12:15:21.000Z</time>
        <extensions>
          <ns3:TrackPointExtension>
            <ns3:atemp>20.0</ns3:atemp>
          </ns3:TrackPointExtension>
        </extensions>
      </trkpt>
      <trkpt lat="42.509618885815143585205078125" lon="19.89490114152431488037109375">
        <ele>1759.4000244140625</ele>
        <time>2026-06-17T12:15:22.000Z</time>
        <extensions>
          <ns3:TrackPointExtension>
            <ns3:atemp>20.0</ns3:atemp>
          </ns3:TrackPointExtension>
        </extensions>
      </trkpt>
      <trkpt lat="42.509618885815143585205078125" lon="19.89490114152431488037109375">
        <ele>1759.4000244140625</ele>
        <time>2026-06-17T12:15:23.000Z</time>
        <extensions>
          <ns3:TrackPointExtension>
            <ns3:atemp>20.0</ns3:atemp>
          </ns3:TrackPointExtension>
        </extensions>
      </trkpt>
      <trkpt lat="42.509618885815143585205078125" lon="19.89490114152431488037109375">
        <ele>1759.4000244140625</ele>
        <time>2026-06-17T12:15:24.000Z</time>
        <extensions>
          <ns3:TrackPointExtension>
            <ns3:atemp>20.0</ns3:atemp>
          </ns3:TrackPointExtension>
        </extensions>
      </trkpt>
      <trkpt lat="42.509618885815143585205078125" lon="19.89490114152431488037109375">
        <ele>1759.4000244140625</ele>
        <time>2026-06-17T12:15:25.000Z</time>
        <extensions>
          <ns3:TrackPointExtension>
            <ns3:atemp>20.0</ns3:atemp>
          </ns3:TrackPointExtension>
        </extensions>
      </trkpt>
      <trkpt lat="42.509618885815143585205078125" lon="19.89490114152431488037109375">
        <ele>1759.4000244140625</ele>
        <time>2026-06-17T12:15:26.000Z</time>
        <extensions>
          <ns3:TrackPointExtension>
            <ns3:atemp>20.0</ns3:atemp>
          </ns3:TrackPointExtension>
        </extensions>
      </trkpt>
      <trkpt lat="42.509618215262889862060546875" lon="19.8948966152966022491455078125">
        <ele>1759.4000244140625</ele>
        <time>2026-06-17T12:15:27.000Z</time>
        <extensions>
          <ns3:TrackPointExtension>
            <ns3:atemp>20.0</ns3:atemp>
          </ns3:TrackPointExtension>
        </extensions>
      </trkpt>
      <trkpt lat="42.50962232239544391632080078125" lon="19.89488161168992519378662109375">
        <ele>1759.4000244140625</ele>
        <time>2026-06-17T12:15:28.000Z</time>
        <extensions>
          <ns3:TrackPointExtension>
            <ns3:atemp>20.0</ns3:atemp>
          </ns3:TrackPointExtension>
        </extensions>
      </trkpt>
      <trkpt lat="42.5096351467072963714599609375" lon="19.894865266978740692138671875">
        <ele>1759.4000244140625</ele>
        <time>2026-06-17T12:15:29.000Z</time>
        <extensions>
          <ns3:TrackPointExtension>
            <ns3:atemp>20.0</ns3:atemp>
          </ns3:TrackPointExtension>
        </extensions>
      </trkpt>
      <trkpt lat="42.50964009203016757965087890625" lon="19.8948536999523639678955078125">
        <ele>1759.4000244140625</ele>
        <time>2026-06-17T12:15:30.000Z</time>
        <extensions>
          <ns3:TrackPointExtension>
            <ns3:atemp>20.0</ns3:atemp>
          </ns3:TrackPointExtension>
        </extensions>
      </trkpt>
      <trkpt lat="42.509645037353038787841796875" lon="19.8948553763329982757568359375">
        <ele>1759.4000244140625</ele>
        <time>2026-06-17T12:15:31.000Z</time>
        <extensions>
          <ns3:TrackPointExtension>
            <ns3:atemp>20.0</ns3:atemp>
          </ns3:TrackPointExtension>
        </extensions>
      </trkpt>
      <trkpt lat="42.50964512117207050323486328125" lon="19.8948553763329982757568359375">
        <ele>1759.4000244140625</ele>
        <time>2026-06-17T12:15:32.000Z</time>
        <extensions>
          <ns3:TrackPointExtension>
            <ns3:atemp>20.0</ns3:atemp>
          </ns3:TrackPointExtension>
        </extensions>
      </trkpt>
      <trkpt lat="42.509645037353038787841796875" lon="19.89485529251396656036376953125">
        <ele>1759.4000244140625</ele>
        <time>2026-06-17T12:15:33.000Z</time>
        <extensions>
          <ns3:TrackPointExtension>
            <ns3:atemp>20.0</ns3:atemp>
          </ns3:TrackPointExtension>
        </extensions>
      </trkpt>
      <trkpt lat="42.50964512117207050323486328125" lon="19.8948553763329982757568359375">
        <ele>1759.4000244140625</ele>
        <time>2026-06-17T12:15:34.000Z</time>
        <extensions>
          <ns3:TrackPointExtension>
            <ns3:atemp>20.0</ns3:atemp>
          </ns3:TrackPointExtension>
        </extensions>
      </trkpt>
      <trkpt lat="42.50964512117207050323486328125" lon="19.8948553763329982757568359375">
        <ele>1759.4000244140625</ele>
        <time>2026-06-17T12:15:35.000Z</time>
        <extensions>
          <ns3:TrackPointExtension>
            <ns3:atemp>20.0</ns3:atemp>
          </ns3:TrackPointExtension>
        </extensions>
      </trkpt>
      <trkpt lat="42.50964512117207050323486328125" lon="19.8948553763329982757568359375">
        <ele>1759.4000244140625</ele>
        <time>2026-06-17T12:15:36.000Z</time>
        <extensions>
          <ns3:TrackPointExtension>
            <ns3:atemp>20.0</ns3:atemp>
          </ns3:TrackPointExtension>
        </extensions>
      </trkpt>
      <trkpt lat="42.50964512117207050323486328125" lon="19.8948553763329982757568359375">
        <ele>1759.4000244140625</ele>
        <time>2026-06-17T12:15:37.000Z</time>
        <extensions>
          <ns3:TrackPointExtension>
            <ns3:atemp>20.0</ns3:atemp>
          </ns3:TrackPointExtension>
        </extensions>
      </trkpt>
      <trkpt lat="42.50964512117207050323486328125" lon="19.8948553763329982757568359375">
        <ele>1759.4000244140625</ele>
        <time>2026-06-17T12:15:38.000Z</time>
        <extensions>
          <ns3:TrackPointExtension>
            <ns3:atemp>20.0</ns3:atemp>
          </ns3:TrackPointExtension>
        </extensions>
      </trkpt>
      <trkpt lat="42.50964512117207050323486328125" lon="19.8948553763329982757568359375">
        <ele>1759.4000244140625</ele>
        <time>2026-06-17T12:15:39.000Z</time>
        <extensions>
          <ns3:TrackPointExtension>
            <ns3:atemp>20.0</ns3:atemp>
          </ns3:TrackPointExtension>
        </extensions>
      </trkpt>
      <trkpt lat="42.50964512117207050323486328125" lon="19.8948553763329982757568359375">
        <ele>1759.4000244140625</ele>
        <time>2026-06-17T12:15:40.000Z</time>
        <extensions>
          <ns3:TrackPointExtension>
            <ns3:atemp>20.0</ns3:atemp>
          </ns3:TrackPointExtension>
        </extensions>
      </trkpt>
      <trkpt lat="42.50964512117207050323486328125" lon="19.8948553763329982757568359375">
        <ele>1759.4000244140625</ele>
        <time>2026-06-17T12:15:41.000Z</time>
        <extensions>
          <ns3:TrackPointExtension>
            <ns3:atemp>20.0</ns3:atemp>
          </ns3:TrackPointExtension>
        </extensions>
      </trkpt>
      <trkpt lat="42.50964512117207050323486328125" lon="19.8948553763329982757568359375">
        <ele>1759.4000244140625</ele>
        <time>2026-06-17T12:15:42.000Z</time>
        <extensions>
          <ns3:TrackPointExtension>
            <ns3:atemp>20.0</ns3:atemp>
          </ns3:TrackPointExtension>
        </extensions>
      </trkpt>
      <trkpt lat="42.50964512117207050323486328125" lon="19.8948553763329982757568359375">
        <ele>1759.4000244140625</ele>
        <time>2026-06-17T12:15:43.000Z</time>
        <extensions>
          <ns3:TrackPointExtension>
            <ns3:atemp>20.0</ns3:atemp>
          </ns3:TrackPointExtension>
        </extensions>
      </trkpt>
      <trkpt lat="42.50964512117207050323486328125" lon="19.8948553763329982757568359375">
        <ele>1759.4000244140625</ele>
        <time>2026-06-17T12:15:44.000Z</time>
        <extensions>
          <ns3:TrackPointExtension>
            <ns3:atemp>20.0</ns3:atemp>
          </ns3:TrackPointExtension>
        </extensions>
      </trkpt>
      <trkpt lat="42.50964512117207050323486328125" lon="19.8948553763329982757568359375">
        <ele>1759.4000244140625</ele>
        <time>2026-06-17T12:15:45.000Z</time>
        <extensions>
          <ns3:TrackPointExtension>
            <ns3:atemp>20.0</ns3:atemp>
          </ns3:TrackPointExtension>
        </extensions>
      </trkpt>
      <trkpt lat="42.50964512117207050323486328125" lon="19.8948553763329982757568359375">
        <ele>1759.4000244140625</ele>
        <time>2026-06-17T12:15:46.000Z</time>
        <extensions>
          <ns3:TrackPointExtension>
            <ns3:atemp>20.0</ns3:atemp>
          </ns3:TrackPointExtension>
        </extensions>
      </trkpt>
      <trkpt lat="42.50964512117207050323486328125" lon="19.8948553763329982757568359375">
        <ele>1759.4000244140625</ele>
        <time>2026-06-17T12:15:47.000Z</time>
        <extensions>
          <ns3:TrackPointExtension>
            <ns3:atemp>20.0</ns3:atemp>
          </ns3:TrackPointExtension>
        </extensions>
      </trkpt>
      <trkpt lat="42.50964512117207050323486328125" lon="19.8948553763329982757568359375">
        <ele>1759.4000244140625</ele>
        <time>2026-06-17T12:15:48.000Z</time>
        <extensions>
          <ns3:TrackPointExtension>
            <ns3:atemp>20.0</ns3:atemp>
          </ns3:TrackPointExtension>
        </extensions>
      </trkpt>
      <trkpt lat="42.50964512117207050323486328125" lon="19.8948553763329982757568359375">
        <ele>1759.4000244140625</ele>
        <time>2026-06-17T12:15:49.000Z</time>
        <extensions>
          <ns3:TrackPointExtension>
            <ns3:atemp>20.0</ns3:atemp>
          </ns3:TrackPointExtension>
        </extensions>
      </trkpt>
      <trkpt lat="42.50964512117207050323486328125" lon="19.8948553763329982757568359375">
        <ele>1759.4000244140625</ele>
        <time>2026-06-17T12:15:50.000Z</time>
        <extensions>
          <ns3:TrackPointExtension>
            <ns3:atemp>20.0</ns3:atemp>
          </ns3:TrackPointExtension>
        </extensions>
      </trkpt>
      <trkpt lat="42.50964512117207050323486328125" lon="19.8948553763329982757568359375">
        <ele>1759.4000244140625</ele>
        <time>2026-06-17T12:15:51.000Z</time>
        <extensions>
          <ns3:TrackPointExtension>
            <ns3:atemp>20.0</ns3:atemp>
          </ns3:TrackPointExtension>
        </extensions>
      </trkpt>
      <trkpt lat="42.50964512117207050323486328125" lon="19.8948553763329982757568359375">
        <ele>1759.4000244140625</ele>
        <time>2026-06-17T12:15:52.000Z</time>
        <extensions>
          <ns3:TrackPointExtension>
            <ns3:atemp>20.0</ns3:atemp>
          </ns3:TrackPointExtension>
        </extensions>
      </trkpt>
      <trkpt lat="42.50964512117207050323486328125" lon="19.8948553763329982757568359375">
        <ele>1759.4000244140625</ele>
        <time>2026-06-17T12:15:53.000Z</time>
        <extensions>
          <ns3:TrackPointExtension>
            <ns3:atemp>20.0</ns3:atemp>
          </ns3:TrackPointExtension>
        </extensions>
      </trkpt>
      <trkpt lat="42.50964512117207050323486328125" lon="19.8948553763329982757568359375">
        <ele>1759.4000244140625</ele>
        <time>2026-06-17T12:15:54.000Z</time>
        <extensions>
          <ns3:TrackPointExtension>
            <ns3:atemp>20.0</ns3:atemp>
          </ns3:TrackPointExtension>
        </extensions>
      </trkpt>
      <trkpt lat="42.50964512117207050323486328125" lon="19.8948553763329982757568359375">
        <ele>1759.4000244140625</ele>
        <time>2026-06-17T12:15:55.000Z</time>
        <extensions>
          <ns3:TrackPointExtension>
            <ns3:atemp>20.0</ns3:atemp>
          </ns3:TrackPointExtension>
        </extensions>
      </trkpt>
      <trkpt lat="42.50964512117207050323486328125" lon="19.8948553763329982757568359375">
        <ele>1759.4000244140625</ele>
        <time>2026-06-17T12:15:56.000Z</time>
        <extensions>
          <ns3:TrackPointExtension>
            <ns3:atemp>20.0</ns3:atemp>
          </ns3:TrackPointExtension>
        </extensions>
      </trkpt>
      <trkpt lat="42.50964512117207050323486328125" lon="19.8948553763329982757568359375">
        <ele>1759.4000244140625</ele>
        <time>2026-06-17T12:15:57.000Z</time>
        <extensions>
          <ns3:TrackPointExtension>
            <ns3:atemp>20.0</ns3:atemp>
          </ns3:TrackPointExtension>
        </extensions>
      </trkpt>
      <trkpt lat="42.50964512117207050323486328125" lon="19.8948553763329982757568359375">
        <ele>1759.4000244140625</ele>
        <time>2026-06-17T12:15:58.000Z</time>
        <extensions>
          <ns3:TrackPointExtension>
            <ns3:atemp>20.0</ns3:atemp>
          </ns3:TrackPointExtension>
        </extensions>
      </trkpt>
      <trkpt lat="42.50964512117207050323486328125" lon="19.8948553763329982757568359375">
        <ele>1759.4000244140625</ele>
        <time>2026-06-17T12:15:59.000Z</time>
        <extensions>
          <ns3:TrackPointExtension>
            <ns3:atemp>20.0</ns3:atemp>
          </ns3:TrackPointExtension>
        </extensions>
      </trkpt>
      <trkpt lat="42.50964512117207050323486328125" lon="19.8948553763329982757568359375">
        <ele>1759.4000244140625</ele>
        <time>2026-06-17T12:16:00.000Z</time>
        <extensions>
          <ns3:TrackPointExtension>
            <ns3:atemp>20.0</ns3:atemp>
          </ns3:TrackPointExtension>
        </extensions>
      </trkpt>
      <trkpt lat="42.50964746810495853424072265625" lon="19.89486518315970897674560546875">
        <ele>1759.4000244140625</ele>
        <time>2026-06-17T12:16:01.000Z</time>
        <extensions>
          <ns3:TrackPointExtension>
            <ns3:atemp>20.0</ns3:atemp>
          </ns3:TrackPointExtension>
        </extensions>
      </trkpt>
      <trkpt lat="42.509650401771068572998046875" lon="19.89487825892865657806396484375">
        <ele>1759.4000244140625</ele>
        <time>2026-06-17T12:16:02.000Z</time>
        <extensions>
          <ns3:TrackPointExtension>
            <ns3:atemp>20.0</ns3:atemp>
          </ns3:TrackPointExtension>
        </extensions>
      </trkpt>
      <trkpt lat="42.50965501181781291961669921875" lon="19.8948731459677219390869140625">
        <ele>1759.4000244140625</ele>
        <time>2026-06-17T12:16:03.000Z</time>
        <extensions>
          <ns3:TrackPointExtension>
            <ns3:atemp>20.0</ns3:atemp>
          </ns3:TrackPointExtension>
        </extensions>
      </trkpt>
      <trkpt lat="42.509659118950366973876953125" lon="19.8948580585420131683349609375">
        <ele>1759.4000244140625</ele>
        <time>2026-06-17T12:16:04.000Z</time>
        <extensions>
          <ns3:TrackPointExtension>
            <ns3:atemp>20.0</ns3:atemp>
          </ns3:TrackPointExtension>
        </extensions>
      </trkpt>
      <trkpt lat="42.50966942869126796722412109375" lon="19.8948453180491924285888671875">
        <ele>1759.4000244140625</ele>
        <time>2026-06-17T12:16:05.000Z</time>
        <extensions>
          <ns3:TrackPointExtension>
            <ns3:atemp>20.0</ns3:atemp>
          </ns3:TrackPointExtension>
        </extensions>
      </trkpt>
      <trkpt lat="42.5096773914992809295654296875" lon="19.89483802579343318939208984375">
        <ele>1759.5999755859375</ele>
        <time>2026-06-17T12:16:06.000Z</time>
        <extensions>
          <ns3:TrackPointExtension>
            <ns3:atemp>20.0</ns3:atemp>
          </ns3:TrackPointExtension>
        </extensions>
      </trkpt>
      <trkpt lat="42.50968904234468936920166015625" lon="19.89483098499476909637451171875">
        <ele>1759.4000244140625</ele>
        <time>2026-06-17T12:16:07.000Z</time>
        <extensions>
          <ns3:TrackPointExtension>
            <ns3:atemp>20.0</ns3:atemp>
          </ns3:TrackPointExtension>
        </extensions>
      </trkpt>
      <trkpt lat="42.50970127992331981658935546875" lon="19.8948278836905956268310546875">
        <ele>1759.4000244140625</ele>
        <time>2026-06-17T12:16:08.000Z</time>
        <extensions>
          <ns3:TrackPointExtension>
            <ns3:atemp>20.0</ns3:atemp>
          </ns3:TrackPointExtension>
        </extensions>
      </trkpt>
      <trkpt lat="42.50970882363617420196533203125" lon="19.89482226781547069549560546875">
        <ele>1759.199951171875</ele>
        <time>2026-06-17T12:16:09.000Z</time>
        <extensions>
          <ns3:TrackPointExtension>
            <ns3:atemp>20.0</ns3:atemp>
          </ns3:TrackPointExtension>
        </extensions>
      </trkpt>
      <trkpt lat="42.5097132660448551177978515625" lon="19.89481271244585514068603515625">
        <ele>1759.199951171875</ele>
        <time>2026-06-17T12:16:10.000Z</time>
        <extensions>
          <ns3:TrackPointExtension>
            <ns3:atemp>20.0</ns3:atemp>
          </ns3:TrackPointExtension>
        </extensions>
      </trkpt>
      <trkpt lat="42.50971670262515544891357421875" lon="19.8948064260184764862060546875">
        <ele>1759.199951171875</ele>
        <time>2026-06-17T12:16:11.000Z</time>
        <extensions>
          <ns3:TrackPointExtension>
            <ns3:atemp>20.0</ns3:atemp>
          </ns3:TrackPointExtension>
        </extensions>
      </trkpt>
      <trkpt lat="42.50971687026321887969970703125" lon="19.8948027379810810089111328125">
        <ele>1759</ele>
        <time>2026-06-17T12:16:12.000Z</time>
        <extensions>
          <ns3:TrackPointExtension>
            <ns3:atemp>20.0</ns3:atemp>
          </ns3:TrackPointExtension>
        </extensions>
      </trkpt>
      <trkpt lat="42.50971703790128231048583984375" lon="19.8948027379810810089111328125">
        <ele>1758.800048828125</ele>
        <time>2026-06-17T12:16:13.000Z</time>
        <extensions>
          <ns3:TrackPointExtension>
            <ns3:atemp>20.0</ns3:atemp>
          </ns3:TrackPointExtension>
        </extensions>
      </trkpt>
      <trkpt lat="42.50971703790128231048583984375" lon="19.8948027379810810089111328125">
        <ele>1758.800048828125</ele>
        <time>2026-06-17T12:16:14.000Z</time>
        <extensions>
          <ns3:TrackPointExtension>
            <ns3:atemp>20.0</ns3:atemp>
          </ns3:TrackPointExtension>
        </extensions>
      </trkpt>
      <trkpt lat="42.50971703790128231048583984375" lon="19.89480231888592243194580078125">
        <ele>1758.5999755859375</ele>
        <time>2026-06-17T12:16:15.000Z</time>
        <extensions>
          <ns3:TrackPointExtension>
            <ns3:atemp>20.0</ns3:atemp>
          </ns3:TrackPointExtension>
        </extensions>
      </trkpt>
      <trkpt lat="42.50971703790128231048583984375" lon="19.8948027379810810089111328125">
        <ele>1758.5999755859375</ele>
        <time>2026-06-17T12:16:16.000Z</time>
        <extensions>
          <ns3:TrackPointExtension>
            <ns3:atemp>20.0</ns3:atemp>
          </ns3:TrackPointExtension>
        </extensions>
      </trkpt>
      <trkpt lat="42.50971703790128231048583984375" lon="19.8948027379810810089111328125">
        <ele>1758.4000244140625</ele>
        <time>2026-06-17T12:16:17.000Z</time>
        <extensions>
          <ns3:TrackPointExtension>
            <ns3:atemp>20.0</ns3:atemp>
          </ns3:TrackPointExtension>
        </extensions>
      </trkpt>
      <trkpt lat="42.50971703790128231048583984375" lon="19.8948027379810810089111328125">
        <ele>1758.4000244140625</ele>
        <time>2026-06-17T12:16:18.000Z</time>
        <extensions>
          <ns3:TrackPointExtension>
            <ns3:atemp>20.0</ns3:atemp>
          </ns3:TrackPointExtension>
        </extensions>
      </trkpt>
      <trkpt lat="42.5097206421196460723876953125" lon="19.89479519426822662353515625">
        <ele>1758.199951171875</ele>
        <time>2026-06-17T12:16:19.000Z</time>
        <extensions>
          <ns3:TrackPointExtension>
            <ns3:atemp>20.0</ns3:atemp>
          </ns3:TrackPointExtension>
        </extensions>
      </trkpt>
      <trkpt lat="42.509730197489261627197265625" lon="19.89478454925119876861572265625">
        <ele>1758.199951171875</ele>
        <time>2026-06-17T12:16:20.000Z</time>
        <extensions>
          <ns3:TrackPointExtension>
            <ns3:atemp>20.0</ns3:atemp>
          </ns3:TrackPointExtension>
        </extensions>
      </trkpt>
      <trkpt lat="42.50973648391664028167724609375" lon="19.89477784372866153717041015625">
        <ele>1758.199951171875</ele>
        <time>2026-06-17T12:16:21.000Z</time>
        <extensions>
          <ns3:TrackPointExtension>
            <ns3:atemp>20.0</ns3:atemp>
          </ns3:TrackPointExtension>
        </extensions>
      </trkpt>
      <trkpt lat="42.50974218361079692840576171875" lon="19.89477080292999744415283203125">
        <ele>1758</ele>
        <time>2026-06-17T12:16:22.000Z</time>
        <extensions>
          <ns3:TrackPointExtension>
            <ns3:atemp>20.0</ns3:atemp>
          </ns3:TrackPointExtension>
        </extensions>
      </trkpt>
      <trkpt lat="42.50974620692431926727294921875" lon="19.894764684140682220458984375">
        <ele>1758</ele>
        <time>2026-06-17T12:16:23.000Z</time>
        <extensions>
          <ns3:TrackPointExtension>
            <ns3:atemp>20.0</ns3:atemp>
          </ns3:TrackPointExtension>
        </extensions>
      </trkpt>
      <trkpt lat="42.50975140370428562164306640625" lon="19.89475990645587444305419921875">
        <ele>1757.800048828125</ele>
        <time>2026-06-17T12:16:24.000Z</time>
        <extensions>
          <ns3:TrackPointExtension>
            <ns3:atemp>20.0</ns3:atemp>
          </ns3:TrackPointExtension>
        </extensions>
      </trkpt>
      <trkpt lat="42.50975391827523708343505859375" lon="19.89475269801914691925048828125">
        <ele>1757.5999755859375</ele>
        <time>2026-06-17T12:16:25.000Z</time>
        <extensions>
          <ns3:TrackPointExtension>
            <ns3:atemp>20.0</ns3:atemp>
          </ns3:TrackPointExtension>
        </extensions>
      </trkpt>
      <trkpt lat="42.509759366512298583984375" lon="19.89474297501146793365478515625">
        <ele>1757.5999755859375</ele>
        <time>2026-06-17T12:16:26.000Z</time>
        <extensions>
          <ns3:TrackPointExtension>
            <ns3:atemp>19.0</ns3:atemp>
          </ns3:TrackPointExtension>
        </extensions>
      </trkpt>
      <trkpt lat="42.5097612105309963226318359375" lon="19.8947330005466938018798828125">
        <ele>1757.4000244140625</ele>
        <time>2026-06-17T12:16:27.000Z</time>
        <extensions>
          <ns3:TrackPointExtension>
            <ns3:atemp>19.0</ns3:atemp>
          </ns3:TrackPointExtension>
        </extensions>
      </trkpt>
      <trkpt lat="42.50976406037807464599609375" lon="19.8947261273860931396484375">
        <ele>1757.4000244140625</ele>
        <time>2026-06-17T12:16:28.000Z</time>
        <extensions>
          <ns3:TrackPointExtension>
            <ns3:atemp>19.0</ns3:atemp>
          </ns3:TrackPointExtension>
        </extensions>
      </trkpt>
      <trkpt lat="42.5097655691206455230712890625" lon="19.89472017623484134674072265625">
        <ele>1757.199951171875</ele>
        <time>2026-06-17T12:16:29.000Z</time>
        <extensions>
          <ns3:TrackPointExtension>
            <ns3:atemp>19.0</ns3:atemp>
          </ns3:TrackPointExtension>
        </extensions>
      </trkpt>
      <trkpt lat="42.50976741313934326171875" lon="19.89471699111163616180419921875">
        <ele>1757.199951171875</ele>
        <time>2026-06-17T12:16:30.000Z</time>
        <extensions>
          <ns3:TrackPointExtension>
            <ns3:atemp>19.0</ns3:atemp>
          </ns3:TrackPointExtension>
        </extensions>
      </trkpt>
      <trkpt lat="42.5097702629864215850830078125" lon="19.8947098664939403533935546875">
        <ele>1757</ele>
        <time>2026-06-17T12:16:31.000Z</time>
        <extensions>
          <ns3:TrackPointExtension>
            <ns3:atemp>19.0</ns3:atemp>
          </ns3:TrackPointExtension>
        </extensions>
      </trkpt>
      <trkpt lat="42.509773112833499908447265625" lon="19.89470207132399082183837890625">
        <ele>1756.800048828125</ele>
        <time>2026-06-17T12:16:32.000Z</time>
        <extensions>
          <ns3:TrackPointExtension>
            <ns3:atemp>20.0</ns3:atemp>
          </ns3:TrackPointExtension>
        </extensions>
      </trkpt>
      <trkpt lat="42.50977478921413421630859375" lon="19.89469922147691249847412109375">
        <ele>1756.5999755859375</ele>
        <time>2026-06-17T12:16:33.000Z</time>
        <extensions>
          <ns3:TrackPointExtension>
            <ns3:atemp>20.0</ns3:atemp>
          </ns3:TrackPointExtension>
        </extensions>
      </trkpt>
      <trkpt lat="42.50977487303316593170166015625" lon="19.8946991376578807830810546875">
        <ele>1756.5999755859375</ele>
        <time>2026-06-17T12:16:34.000Z</time>
        <extensions>
          <ns3:TrackPointExtension>
            <ns3:atemp>20.0</ns3:atemp>
          </ns3:TrackPointExtension>
        </extensions>
      </trkpt>
      <trkpt lat="42.509773783385753631591796875" lon="19.89468949846923351287841796875">
        <ele>1756.4000244140625</ele>
        <time>2026-06-17T12:16:35.000Z</time>
        <extensions>
          <ns3:TrackPointExtension>
            <ns3:atemp>19.0</ns3:atemp>
          </ns3:TrackPointExtension>
        </extensions>
      </trkpt>
      <trkpt lat="42.50977353192865848541259765625" lon="19.89468111656606197357177734375">
        <ele>1756.199951171875</ele>
        <time>2026-06-17T12:16:36.000Z</time>
        <extensions>
          <ns3:TrackPointExtension>
            <ns3:atemp>20.0</ns3:atemp>
          </ns3:TrackPointExtension>
        </extensions>
      </trkpt>
      <trkpt lat="42.509772777557373046875" lon="19.8946671187877655029296875">
        <ele>1756</ele>
        <time>2026-06-17T12:16:37.000Z</time>
        <extensions>
          <ns3:TrackPointExtension>
            <ns3:atemp>20.0</ns3:atemp>
          </ns3:TrackPointExtension>
        </extensions>
      </trkpt>
      <trkpt lat="42.5097741186618804931640625" lon="19.8946630954742431640625">
        <ele>1756</ele>
        <time>2026-06-17T12:16:38.000Z</time>
        <extensions>
          <ns3:TrackPointExtension>
            <ns3:atemp>20.0</ns3:atemp>
          </ns3:TrackPointExtension>
        </extensions>
      </trkpt>
      <trkpt lat="42.50977822579443454742431640625" lon="19.894655048847198486328125">
        <ele>1755.800048828125</ele>
        <time>2026-06-17T12:16:39.000Z</time>
        <extensions>
          <ns3:TrackPointExtension>
            <ns3:atemp>19.0</ns3:atemp>
          </ns3:TrackPointExtension>
        </extensions>
      </trkpt>
      <trkpt lat="42.50978241674602031707763671875" lon="19.89464289508759975433349609375">
        <ele>1755.5999755859375</ele>
        <time>2026-06-17T12:16:40.000Z</time>
        <extensions>
          <ns3:TrackPointExtension>
            <ns3:atemp>20.0</ns3:atemp>
          </ns3:TrackPointExtension>
        </extensions>
      </trkpt>
      <trkpt lat="42.509787864983081817626953125" lon="19.894633255898952484130859375">
        <ele>1755.4000244140625</ele>
        <time>2026-06-17T12:16:41.000Z</time>
        <extensions>
          <ns3:TrackPointExtension>
            <ns3:atemp>20.0</ns3:atemp>
          </ns3:TrackPointExtension>
        </extensions>
      </trkpt>
      <trkpt lat="42.5097940675914287567138671875" lon="19.894620515406131744384765625">
        <ele>1755</ele>
        <time>2026-06-17T12:16:42.000Z</time>
        <extensions>
          <ns3:TrackPointExtension>
            <ns3:atemp>20.0</ns3:atemp>
          </ns3:TrackPointExtension>
        </extensions>
      </trkpt>
      <trkpt lat="42.50980035401880741119384765625" lon="19.89461137913167476654052734375">
        <ele>1754.800048828125</ele>
        <time>2026-06-17T12:16:43.000Z</time>
        <extensions>
          <ns3:TrackPointExtension>
            <ns3:atemp>20.0</ns3:atemp>
          </ns3:TrackPointExtension>
        </extensions>
      </trkpt>
      <trkpt lat="42.5098088197410106658935546875" lon="19.8946062661707401275634765625">
        <ele>1754.4000244140625</ele>
        <time>2026-06-17T12:16:44.000Z</time>
        <extensions>
          <ns3:TrackPointExtension>
            <ns3:atemp>20.0</ns3:atemp>
          </ns3:TrackPointExtension>
        </extensions>
      </trkpt>
      <trkpt lat="42.50981544144451618194580078125" lon="19.89460065029561519622802734375">
        <ele>1754.199951171875</ele>
        <time>2026-06-17T12:16:45.000Z</time>
        <extensions>
          <ns3:TrackPointExtension>
            <ns3:atemp>20.0</ns3:atemp>
          </ns3:TrackPointExtension>
        </extensions>
      </trkpt>
      <trkpt lat="42.50981879420578479766845703125" lon="19.89459612406790256500244140625">
        <ele>1754</ele>
        <time>2026-06-17T12:16:46.000Z</time>
        <extensions>
          <ns3:TrackPointExtension>
            <ns3:atemp>19.0</ns3:atemp>
          </ns3:TrackPointExtension>
        </extensions>
      </trkpt>
      <trkpt lat="42.50982181169092655181884765625" lon="19.89459243603050708770751953125">
        <ele>1753.800048828125</ele>
        <time>2026-06-17T12:16:47.000Z</time>
        <extensions>
          <ns3:TrackPointExtension>
            <ns3:atemp>19.0</ns3:atemp>
          </ns3:TrackPointExtension>
        </extensions>
      </trkpt>
      <trkpt lat="42.5098208896815776824951171875" lon="19.89458975382149219512939453125">
        <ele>1753.5999755859375</ele>
        <time>2026-06-17T12:16:48.000Z</time>
        <extensions>
          <ns3:TrackPointExtension>
            <ns3:atemp>19.0</ns3:atemp>
          </ns3:TrackPointExtension>
        </extensions>
      </trkpt>
      <trkpt lat="42.50981829129159450531005859375" lon="19.8945831321179866790771484375">
        <ele>1753.4000244140625</ele>
        <time>2026-06-17T12:16:49.000Z</time>
        <extensions>
          <ns3:TrackPointExtension>
            <ns3:atemp>19.0</ns3:atemp>
          </ns3:TrackPointExtension>
        </extensions>
      </trkpt>
      <trkpt lat="42.5098222307860851287841796875" lon="19.89458036608994007110595703125">
        <ele>1753.199951171875</ele>
        <time>2026-06-17T12:16:50.000Z</time>
        <extensions>
          <ns3:TrackPointExtension>
            <ns3:atemp>19.0</ns3:atemp>
          </ns3:TrackPointExtension>
        </extensions>
      </trkpt>
      <trkpt lat="42.5098222307860851287841796875" lon="19.89458036608994007110595703125">
        <ele>1753</ele>
        <time>2026-06-17T12:16:51.000Z</time>
        <extensions>
          <ns3:TrackPointExtension>
            <ns3:atemp>19.0</ns3:atemp>
          </ns3:TrackPointExtension>
        </extensions>
      </trkpt>
      <trkpt lat="42.5098222307860851287841796875" lon="19.89458036608994007110595703125">
        <ele>1753</ele>
        <time>2026-06-17T12:16:52.000Z</time>
        <extensions>
          <ns3:TrackPointExtension>
            <ns3:atemp>19.0</ns3:atemp>
          </ns3:TrackPointExtension>
        </extensions>
      </trkpt>
      <trkpt lat="42.5098222307860851287841796875" lon="19.89458036608994007110595703125">
        <ele>1752.800048828125</ele>
        <time>2026-06-17T12:16:53.000Z</time>
        <extensions>
          <ns3:TrackPointExtension>
            <ns3:atemp>19.0</ns3:atemp>
          </ns3:TrackPointExtension>
        </extensions>
      </trkpt>
      <trkpt lat="42.50982306897640228271484375" lon="19.89457919262349605560302734375">
        <ele>1752.800048828125</ele>
        <time>2026-06-17T12:16:54.000Z</time>
        <extensions>
          <ns3:TrackPointExtension>
            <ns3:atemp>19.0</ns3:atemp>
          </ns3:TrackPointExtension>
        </extensions>
      </trkpt>
      <trkpt lat="42.5098222307860851287841796875" lon="19.89458036608994007110595703125">
        <ele>1752.5999755859375</ele>
        <time>2026-06-17T12:16:55.000Z</time>
        <extensions>
          <ns3:TrackPointExtension>
            <ns3:atemp>19.0</ns3:atemp>
          </ns3:TrackPointExtension>
        </extensions>
      </trkpt>
      <trkpt lat="42.5098222307860851287841796875" lon="19.89458036608994007110595703125">
        <ele>1752.5999755859375</ele>
        <time>2026-06-17T12:16:56.000Z</time>
        <extensions>
          <ns3:TrackPointExtension>
            <ns3:atemp>19.0</ns3:atemp>
          </ns3:TrackPointExtension>
        </extensions>
      </trkpt>
      <trkpt lat="42.5098316185176372528076171875" lon="19.89456720650196075439453125">
        <ele>1752.4000244140625</ele>
        <time>2026-06-17T12:16:57.000Z</time>
        <extensions>
          <ns3:TrackPointExtension>
            <ns3:atemp>19.0</ns3:atemp>
          </ns3:TrackPointExtension>
        </extensions>
      </trkpt>
      <trkpt lat="42.50983178615570068359375" lon="19.894566871225833892822265625">
        <ele>1752.4000244140625</ele>
        <time>2026-06-17T12:16:58.000Z</time>
        <extensions>
          <ns3:TrackPointExtension>
            <ns3:atemp>19.0</ns3:atemp>
          </ns3:TrackPointExtension>
        </extensions>
      </trkpt>
      <trkpt lat="42.50983178615570068359375" lon="19.894566871225833892822265625">
        <ele>1752.4000244140625</ele>
        <time>2026-06-17T12:16:59.000Z</time>
        <extensions>
          <ns3:TrackPointExtension>
            <ns3:atemp>19.0</ns3:atemp>
          </ns3:TrackPointExtension>
        </extensions>
      </trkpt>
      <trkpt lat="42.50983178615570068359375" lon="19.894566871225833892822265625">
        <ele>1752.4000244140625</ele>
        <time>2026-06-17T12:17:00.000Z</time>
        <extensions>
          <ns3:TrackPointExtension>
            <ns3:atemp>19.0</ns3:atemp>
          </ns3:TrackPointExtension>
        </extensions>
      </trkpt>
      <trkpt lat="42.50983178615570068359375" lon="19.894566871225833892822265625">
        <ele>1752.5999755859375</ele>
        <time>2026-06-17T12:17:01.000Z</time>
        <extensions>
          <ns3:TrackPointExtension>
            <ns3:atemp>19.0</ns3:atemp>
          </ns3:TrackPointExtension>
        </extensions>
      </trkpt>
      <trkpt lat="42.50983178615570068359375" lon="19.894566871225833892822265625">
        <ele>1752.5999755859375</ele>
        <time>2026-06-17T12:17:02.000Z</time>
        <extensions>
          <ns3:TrackPointExtension>
            <ns3:atemp>19.0</ns3:atemp>
          </ns3:TrackPointExtension>
        </extensions>
      </trkpt>
      <trkpt lat="42.50983337871730327606201171875" lon="19.89456444047391414642333984375">
        <ele>1752.4000244140625</ele>
        <time>2026-06-17T12:17:03.000Z</time>
        <extensions>
          <ns3:TrackPointExtension>
            <ns3:atemp>19.0</ns3:atemp>
          </ns3:TrackPointExtension>
        </extensions>
      </trkpt>
      <trkpt lat="42.5098465383052825927734375" lon="19.89454449154436588287353515625">
        <ele>1752.4000244140625</ele>
        <time>2026-06-17T12:17:04.000Z</time>
        <extensions>
          <ns3:TrackPointExtension>
            <ns3:atemp>20.0</ns3:atemp>
          </ns3:TrackPointExtension>
        </extensions>
      </trkpt>
      <trkpt lat="42.50984896905720233917236328125" lon="19.89453929476439952850341796875">
        <ele>1752.199951171875</ele>
        <time>2026-06-17T12:17:05.000Z</time>
        <extensions>
          <ns3:TrackPointExtension>
            <ns3:atemp>20.0</ns3:atemp>
          </ns3:TrackPointExtension>
        </extensions>
      </trkpt>
      <trkpt lat="42.50984896905720233917236328125" lon="19.8945392109453678131103515625">
        <ele>1752</ele>
        <time>2026-06-17T12:17:06.000Z</time>
        <extensions>
          <ns3:TrackPointExtension>
            <ns3:atemp>20.0</ns3:atemp>
          </ns3:TrackPointExtension>
        </extensions>
      </trkpt>
      <trkpt lat="42.50984896905720233917236328125" lon="19.8945392109453678131103515625">
        <ele>1752</ele>
        <time>2026-06-17T12:17:07.000Z</time>
        <extensions>
          <ns3:TrackPointExtension>
            <ns3:atemp>20.0</ns3:atemp>
          </ns3:TrackPointExtension>
        </extensions>
      </trkpt>
      <trkpt lat="42.50984896905720233917236328125" lon="19.8945392109453678131103515625">
        <ele>1751.800048828125</ele>
        <time>2026-06-17T12:17:08.000Z</time>
        <extensions>
          <ns3:TrackPointExtension>
            <ns3:atemp>20.0</ns3:atemp>
          </ns3:TrackPointExtension>
        </extensions>
      </trkpt>
      <trkpt lat="42.50984896905720233917236328125" lon="19.8945392109453678131103515625">
        <ele>1752</ele>
        <time>2026-06-17T12:17:09.000Z</time>
        <extensions>
          <ns3:TrackPointExtension>
            <ns3:atemp>20.0</ns3:atemp>
          </ns3:TrackPointExtension>
        </extensions>
      </trkpt>
      <trkpt lat="42.50984896905720233917236328125" lon="19.8945392109453678131103515625">
        <ele>1752</ele>
        <time>2026-06-17T12:17:10.000Z</time>
        <extensions>
          <ns3:TrackPointExtension>
            <ns3:atemp>20.0</ns3:atemp>
          </ns3:TrackPointExtension>
        </extensions>
      </trkpt>
      <trkpt lat="42.50984896905720233917236328125" lon="19.8945392109453678131103515625">
        <ele>1752</ele>
        <time>2026-06-17T12:17:11.000Z</time>
        <extensions>
          <ns3:TrackPointExtension>
            <ns3:atemp>20.0</ns3:atemp>
          </ns3:TrackPointExtension>
        </extensions>
      </trkpt>
      <trkpt lat="42.50984896905720233917236328125" lon="19.8945392109453678131103515625">
        <ele>1752</ele>
        <time>2026-06-17T12:17:12.000Z</time>
        <extensions>
          <ns3:TrackPointExtension>
            <ns3:atemp>20.0</ns3:atemp>
          </ns3:TrackPointExtension>
        </extensions>
      </trkpt>
      <trkpt lat="42.50984896905720233917236328125" lon="19.8945392109453678131103515625">
        <ele>1752</ele>
        <time>2026-06-17T12:17:13.000Z</time>
        <extensions>
          <ns3:TrackPointExtension>
            <ns3:atemp>20.0</ns3:atemp>
          </ns3:TrackPointExtension>
        </extensions>
      </trkpt>
      <trkpt lat="42.50984896905720233917236328125" lon="19.8945392109453678131103515625">
        <ele>1752</ele>
        <time>2026-06-17T12:17:14.000Z</time>
        <extensions>
          <ns3:TrackPointExtension>
            <ns3:atemp>20.0</ns3:atemp>
          </ns3:TrackPointExtension>
        </extensions>
      </trkpt>
      <trkpt lat="42.5098500587046146392822265625" lon="19.89453795365989208221435546875">
        <ele>1752</ele>
        <time>2026-06-17T12:17:15.000Z</time>
        <extensions>
          <ns3:TrackPointExtension>
            <ns3:atemp>20.0</ns3:atemp>
          </ns3:TrackPointExtension>
        </extensions>
      </trkpt>
      <trkpt lat="42.50986170955002307891845703125" lon="19.89452571608126163482666015625">
        <ele>1752</ele>
        <time>2026-06-17T12:17:16.000Z</time>
        <extensions>
          <ns3:TrackPointExtension>
            <ns3:atemp>20.0</ns3:atemp>
          </ns3:TrackPointExtension>
        </extensions>
      </trkpt>
      <trkpt lat="42.5098693370819091796875" lon="19.894519932568073272705078125">
        <ele>1752</ele>
        <time>2026-06-17T12:17:17.000Z</time>
        <extensions>
          <ns3:TrackPointExtension>
            <ns3:atemp>20.0</ns3:atemp>
          </ns3:TrackPointExtension>
        </extensions>
      </trkpt>
      <trkpt lat="42.50987713225185871124267578125" lon="19.89451825618743896484375">
        <ele>1751.800048828125</ele>
        <time>2026-06-17T12:17:18.000Z</time>
        <extensions>
          <ns3:TrackPointExtension>
            <ns3:atemp>20.0</ns3:atemp>
          </ns3:TrackPointExtension>
        </extensions>
      </trkpt>
      <trkpt lat="42.5098876096308231353759765625" lon="19.89451113156974315643310546875">
        <ele>1751.5999755859375</ele>
        <time>2026-06-17T12:17:19.000Z</time>
        <extensions>
          <ns3:TrackPointExtension>
            <ns3:atemp>20.0</ns3:atemp>
          </ns3:TrackPointExtension>
        </extensions>
      </trkpt>
      <trkpt lat="42.50989674590528011322021484375" lon="19.89450559951364994049072265625">
        <ele>1751.5999755859375</ele>
        <time>2026-06-17T12:17:20.000Z</time>
        <extensions>
          <ns3:TrackPointExtension>
            <ns3:atemp>20.0</ns3:atemp>
          </ns3:TrackPointExtension>
        </extensions>
      </trkpt>
      <trkpt lat="42.5098996795713901519775390625" lon="19.894506521522998809814453125">
        <ele>1751.4000244140625</ele>
        <time>2026-06-17T12:17:21.000Z</time>
        <extensions>
          <ns3:TrackPointExtension>
            <ns3:atemp>20.0</ns3:atemp>
          </ns3:TrackPointExtension>
        </extensions>
      </trkpt>
      <trkpt lat="42.50989842228591442108154296875" lon="19.89451046101748943328857421875">
        <ele>1751.199951171875</ele>
        <time>2026-06-17T12:17:22.000Z</time>
        <extensions>
          <ns3:TrackPointExtension>
            <ns3:atemp>20.0</ns3:atemp>
          </ns3:TrackPointExtension>
        </extensions>
      </trkpt>
      <trkpt lat="42.50989708118140697479248046875" lon="19.89450844936072826385498046875">
        <ele>1751.199951171875</ele>
        <time>2026-06-17T12:17:23.000Z</time>
        <extensions>
          <ns3:TrackPointExtension>
            <ns3:atemp>20.0</ns3:atemp>
          </ns3:TrackPointExtension>
        </extensions>
      </trkpt>
      <trkpt lat="42.50989708118140697479248046875" lon="19.89450844936072826385498046875">
        <ele>1751</ele>
        <time>2026-06-17T12:17:24.000Z</time>
        <extensions>
          <ns3:TrackPointExtension>
            <ns3:atemp>20.0</ns3:atemp>
          </ns3:TrackPointExtension>
        </extensions>
      </trkpt>
      <trkpt lat="42.50989708118140697479248046875" lon="19.89450844936072826385498046875">
        <ele>1751</ele>
        <time>2026-06-17T12:17:25.000Z</time>
        <extensions>
          <ns3:TrackPointExtension>
            <ns3:atemp>20.0</ns3:atemp>
          </ns3:TrackPointExtension>
        </extensions>
      </trkpt>
      <trkpt lat="42.50989708118140697479248046875" lon="19.89450844936072826385498046875">
        <ele>1750.800048828125</ele>
        <time>2026-06-17T12:17:26.000Z</time>
        <extensions>
          <ns3:TrackPointExtension>
            <ns3:atemp>20.0</ns3:atemp>
          </ns3:TrackPointExtension>
        </extensions>
      </trkpt>
      <trkpt lat="42.50989708118140697479248046875" lon="19.89450844936072826385498046875">
        <ele>1750.800048828125</ele>
        <time>2026-06-17T12:17:27.000Z</time>
        <extensions>
          <ns3:TrackPointExtension>
            <ns3:atemp>20.0</ns3:atemp>
          </ns3:TrackPointExtension>
        </extensions>
      </trkpt>
      <trkpt lat="42.50989708118140697479248046875" lon="19.89450844936072826385498046875">
        <ele>1750.800048828125</ele>
        <time>2026-06-17T12:17:28.000Z</time>
        <extensions>
          <ns3:TrackPointExtension>
            <ns3:atemp>20.0</ns3:atemp>
          </ns3:TrackPointExtension>
        </extensions>
      </trkpt>
      <trkpt lat="42.50989708118140697479248046875" lon="19.89450844936072826385498046875">
        <ele>1750.800048828125</ele>
        <time>2026-06-17T12:17:29.000Z</time>
        <extensions>
          <ns3:TrackPointExtension>
            <ns3:atemp>20.0</ns3:atemp>
          </ns3:TrackPointExtension>
        </extensions>
      </trkpt>
      <trkpt lat="42.50989708118140697479248046875" lon="19.89450844936072826385498046875">
        <ele>1750.800048828125</ele>
        <time>2026-06-17T12:17:30.000Z</time>
        <extensions>
          <ns3:TrackPointExtension>
            <ns3:atemp>20.0</ns3:atemp>
          </ns3:TrackPointExtension>
        </extensions>
      </trkpt>
      <trkpt lat="42.50989708118140697479248046875" lon="19.89450844936072826385498046875">
        <ele>1750.800048828125</ele>
        <time>2026-06-17T12:17:31.000Z</time>
        <extensions>
          <ns3:TrackPointExtension>
            <ns3:atemp>20.0</ns3:atemp>
          </ns3:TrackPointExtension>
        </extensions>
      </trkpt>
      <trkpt lat="42.50989708118140697479248046875" lon="19.89450844936072826385498046875">
        <ele>1750.800048828125</ele>
        <time>2026-06-17T12:17:32.000Z</time>
        <extensions>
          <ns3:TrackPointExtension>
            <ns3:atemp>20.0</ns3:atemp>
          </ns3:TrackPointExtension>
        </extensions>
      </trkpt>
      <trkpt lat="42.50989708118140697479248046875" lon="19.89450844936072826385498046875">
        <ele>1750.5999755859375</ele>
        <time>2026-06-17T12:17:33.000Z</time>
        <extensions>
          <ns3:TrackPointExtension>
            <ns3:atemp>20.0</ns3:atemp>
          </ns3:TrackPointExtension>
        </extensions>
      </trkpt>
      <trkpt lat="42.50989708118140697479248046875" lon="19.89450844936072826385498046875">
        <ele>1750.5999755859375</ele>
        <time>2026-06-17T12:17:34.000Z</time>
        <extensions>
          <ns3:TrackPointExtension>
            <ns3:atemp>20.0</ns3:atemp>
          </ns3:TrackPointExtension>
        </extensions>
      </trkpt>
      <trkpt lat="42.50989708118140697479248046875" lon="19.89450844936072826385498046875">
        <ele>1750.5999755859375</ele>
        <time>2026-06-17T12:17:35.000Z</time>
        <extensions>
          <ns3:TrackPointExtension>
            <ns3:atemp>20.0</ns3:atemp>
          </ns3:TrackPointExtension>
        </extensions>
      </trkpt>
      <trkpt lat="42.50989607535302639007568359375" lon="19.894506521522998809814453125">
        <ele>1750.5999755859375</ele>
        <time>2026-06-17T12:17:36.000Z</time>
        <extensions>
          <ns3:TrackPointExtension>
            <ns3:atemp>20.0</ns3:atemp>
          </ns3:TrackPointExtension>
        </extensions>
      </trkpt>
      <trkpt lat="42.50989791937172412872314453125" lon="19.8944983072578907012939453125">
        <ele>1750.5999755859375</ele>
        <time>2026-06-17T12:17:37.000Z</time>
        <extensions>
          <ns3:TrackPointExtension>
            <ns3:atemp>20.0</ns3:atemp>
          </ns3:TrackPointExtension>
        </extensions>
      </trkpt>
      <trkpt lat="42.50990093685686588287353515625" lon="19.8944895900785923004150390625">
        <ele>1750.5999755859375</ele>
        <time>2026-06-17T12:17:38.000Z</time>
        <extensions>
          <ns3:TrackPointExtension>
            <ns3:atemp>20.0</ns3:atemp>
          </ns3:TrackPointExtension>
        </extensions>
      </trkpt>
      <trkpt lat="42.5099077261984348297119140625" lon="19.89447793923318386077880859375">
        <ele>1750.4000244140625</ele>
        <time>2026-06-17T12:17:39.000Z</time>
        <extensions>
          <ns3:TrackPointExtension>
            <ns3:atemp>20.0</ns3:atemp>
          </ns3:TrackPointExtension>
        </extensions>
      </trkpt>
      <trkpt lat="42.50991334207355976104736328125" lon="19.89447022788226604461669921875">
        <ele>1750.4000244140625</ele>
        <time>2026-06-17T12:17:40.000Z</time>
        <extensions>
          <ns3:TrackPointExtension>
            <ns3:atemp>20.0</ns3:atemp>
          </ns3:TrackPointExtension>
        </extensions>
      </trkpt>
      <trkpt lat="42.509917952120304107666015625" lon="19.89446452818810939788818359375">
        <ele>1750.199951171875</ele>
        <time>2026-06-17T12:17:41.000Z</time>
        <extensions>
          <ns3:TrackPointExtension>
            <ns3:atemp>20.0</ns3:atemp>
          </ns3:TrackPointExtension>
        </extensions>
      </trkpt>
      <trkpt lat="42.5099243223667144775390625" lon="19.89446084015071392059326171875">
        <ele>1750</ele>
        <time>2026-06-17T12:17:42.000Z</time>
        <extensions>
          <ns3:TrackPointExtension>
            <ns3:atemp>20.0</ns3:atemp>
          </ns3:TrackPointExtension>
        </extensions>
      </trkpt>
      <trkpt lat="42.50992859713733196258544921875" lon="19.8944567330181598663330078125">
        <ele>1750</ele>
        <time>2026-06-17T12:17:43.000Z</time>
        <extensions>
          <ns3:TrackPointExtension>
            <ns3:atemp>20.0</ns3:atemp>
          </ns3:TrackPointExtension>
        </extensions>
      </trkpt>
      <trkpt lat="42.5099325366318225860595703125" lon="19.8944513686001300811767578125">
        <ele>1749.800048828125</ele>
        <time>2026-06-17T12:17:44.000Z</time>
        <extensions>
          <ns3:TrackPointExtension>
            <ns3:atemp>20.0</ns3:atemp>
          </ns3:TrackPointExtension>
        </extensions>
      </trkpt>
      <trkpt lat="42.50993614085018634796142578125" lon="19.8944423161447048187255859375">
        <ele>1749.5999755859375</ele>
        <time>2026-06-17T12:17:45.000Z</time>
        <extensions>
          <ns3:TrackPointExtension>
            <ns3:atemp>20.0</ns3:atemp>
          </ns3:TrackPointExtension>
        </extensions>
      </trkpt>
      <trkpt lat="42.50993815250694751739501953125" lon="19.8944366164505481719970703125">
        <ele>1749.5999755859375</ele>
        <time>2026-06-17T12:17:46.000Z</time>
        <extensions>
          <ns3:TrackPointExtension>
            <ns3:atemp>20.0</ns3:atemp>
          </ns3:TrackPointExtension>
        </extensions>
      </trkpt>
      <trkpt lat="42.50993915833532810211181640625" lon="19.89443033002316951751708984375">
        <ele>1749.4000244140625</ele>
        <time>2026-06-17T12:17:47.000Z</time>
        <extensions>
          <ns3:TrackPointExtension>
            <ns3:atemp>20.0</ns3:atemp>
          </ns3:TrackPointExtension>
        </extensions>
      </trkpt>
      <trkpt lat="42.50993949361145496368408203125" lon="19.8944305814802646636962890625">
        <ele>1749.199951171875</ele>
        <time>2026-06-17T12:17:48.000Z</time>
        <extensions>
          <ns3:TrackPointExtension>
            <ns3:atemp>20.0</ns3:atemp>
          </ns3:TrackPointExtension>
        </extensions>
      </trkpt>
      <trkpt lat="42.50993949361145496368408203125" lon="19.8944305814802646636962890625">
        <ele>1749.199951171875</ele>
        <time>2026-06-17T12:17:49.000Z</time>
        <extensions>
          <ns3:TrackPointExtension>
            <ns3:atemp>20.0</ns3:atemp>
          </ns3:TrackPointExtension>
        </extensions>
      </trkpt>
      <trkpt lat="42.50993949361145496368408203125" lon="19.8944305814802646636962890625">
        <ele>1749.199951171875</ele>
        <time>2026-06-17T12:17:50.000Z</time>
        <extensions>
          <ns3:TrackPointExtension>
            <ns3:atemp>20.0</ns3:atemp>
          </ns3:TrackPointExtension>
        </extensions>
      </trkpt>
      <trkpt lat="42.50993949361145496368408203125" lon="19.8944305814802646636962890625">
        <ele>1749</ele>
        <time>2026-06-17T12:17:51.000Z</time>
        <extensions>
          <ns3:TrackPointExtension>
            <ns3:atemp>20.0</ns3:atemp>
          </ns3:TrackPointExtension>
        </extensions>
      </trkpt>
      <trkpt lat="42.50993949361145496368408203125" lon="19.8944305814802646636962890625">
        <ele>1749</ele>
        <time>2026-06-17T12:17:52.000Z</time>
        <extensions>
          <ns3:TrackPointExtension>
            <ns3:atemp>20.0</ns3:atemp>
          </ns3:TrackPointExtension>
        </extensions>
      </trkpt>
      <trkpt lat="42.50993949361145496368408203125" lon="19.8944305814802646636962890625">
        <ele>1749.199951171875</ele>
        <time>2026-06-17T12:17:53.000Z</time>
        <extensions>
          <ns3:TrackPointExtension>
            <ns3:atemp>20.0</ns3:atemp>
          </ns3:TrackPointExtension>
        </extensions>
      </trkpt>
      <trkpt lat="42.50993949361145496368408203125" lon="19.8944305814802646636962890625">
        <ele>1749.199951171875</ele>
        <time>2026-06-17T12:17:54.000Z</time>
        <extensions>
          <ns3:TrackPointExtension>
            <ns3:atemp>20.0</ns3:atemp>
          </ns3:TrackPointExtension>
        </extensions>
      </trkpt>
      <trkpt lat="42.50993949361145496368408203125" lon="19.8944305814802646636962890625">
        <ele>1749.199951171875</ele>
        <time>2026-06-17T12:17:55.000Z</time>
        <extensions>
          <ns3:TrackPointExtension>
            <ns3:atemp>20.0</ns3:atemp>
          </ns3:TrackPointExtension>
        </extensions>
      </trkpt>
      <trkpt lat="42.50993949361145496368408203125" lon="19.8944305814802646636962890625">
        <ele>1749.199951171875</ele>
        <time>2026-06-17T12:17:56.000Z</time>
        <extensions>
          <ns3:TrackPointExtension>
            <ns3:atemp>20.0</ns3:atemp>
          </ns3:TrackPointExtension>
        </extensions>
      </trkpt>
      <trkpt lat="42.50993949361145496368408203125" lon="19.8944305814802646636962890625">
        <ele>1749</ele>
        <time>2026-06-17T12:17:57.000Z</time>
        <extensions>
          <ns3:TrackPointExtension>
            <ns3:atemp>20.0</ns3:atemp>
          </ns3:TrackPointExtension>
        </extensions>
      </trkpt>
      <trkpt lat="42.5099404156208038330078125" lon="19.89443066529929637908935546875">
        <ele>1749</ele>
        <time>2026-06-17T12:17:58.000Z</time>
        <extensions>
          <ns3:TrackPointExtension>
            <ns3:atemp>20.0</ns3:atemp>
          </ns3:TrackPointExtension>
        </extensions>
      </trkpt>
      <trkpt lat="42.5099489651620388031005859375" lon="19.89442010410130023956298828125">
        <ele>1749</ele>
        <time>2026-06-17T12:17:59.000Z</time>
        <extensions>
          <ns3:TrackPointExtension>
            <ns3:atemp>20.0</ns3:atemp>
          </ns3:TrackPointExtension>
        </extensions>
      </trkpt>
      <trkpt lat="42.50995608977973461151123046875" lon="19.8944096267223358154296875">
        <ele>1749</ele>
        <time>2026-06-17T12:18:00.000Z</time>
        <extensions>
          <ns3:TrackPointExtension>
            <ns3:atemp>20.0</ns3:atemp>
          </ns3:TrackPointExtension>
        </extensions>
      </trkpt>
      <trkpt lat="42.50996665097773075103759765625" lon="19.89439646713435649871826171875">
        <ele>1748.800048828125</ele>
        <time>2026-06-17T12:18:01.000Z</time>
        <extensions>
          <ns3:TrackPointExtension>
            <ns3:atemp>20.0</ns3:atemp>
          </ns3:TrackPointExtension>
        </extensions>
      </trkpt>
      <trkpt lat="42.50997461378574371337890625" lon="19.89438473246991634368896484375">
        <ele>1748.5999755859375</ele>
        <time>2026-06-17T12:18:02.000Z</time>
        <extensions>
          <ns3:TrackPointExtension>
            <ns3:atemp>20.0</ns3:atemp>
          </ns3:TrackPointExtension>
        </extensions>
      </trkpt>
      <trkpt lat="42.509980313479900360107421875" lon="19.89437769167125225067138671875">
        <ele>1748.4000244140625</ele>
        <time>2026-06-17T12:18:03.000Z</time>
        <extensions>
          <ns3:TrackPointExtension>
            <ns3:atemp>20.0</ns3:atemp>
          </ns3:TrackPointExtension>
        </extensions>
      </trkpt>
      <trkpt lat="42.5099821574985980987548828125" lon="19.894370399415493011474609375">
        <ele>1748.4000244140625</ele>
        <time>2026-06-17T12:18:04.000Z</time>
        <extensions>
          <ns3:TrackPointExtension>
            <ns3:atemp>20.0</ns3:atemp>
          </ns3:TrackPointExtension>
        </extensions>
      </trkpt>
      <trkpt lat="42.50998408533632755279541015625" lon="19.894365370273590087890625">
        <ele>1748.199951171875</ele>
        <time>2026-06-17T12:18:05.000Z</time>
        <extensions>
          <ns3:TrackPointExtension>
            <ns3:atemp>20.0</ns3:atemp>
          </ns3:TrackPointExtension>
        </extensions>
      </trkpt>
      <trkpt lat="42.50998391769826412200927734375" lon="19.894365034997463226318359375">
        <ele>1748.199951171875</ele>
        <time>2026-06-17T12:18:06.000Z</time>
        <extensions>
          <ns3:TrackPointExtension>
            <ns3:atemp>20.0</ns3:atemp>
          </ns3:TrackPointExtension>
        </extensions>
      </trkpt>
      <trkpt lat="42.50998391769826412200927734375" lon="19.894365034997463226318359375">
        <ele>1748.199951171875</ele>
        <time>2026-06-17T12:18:07.000Z</time>
        <extensions>
          <ns3:TrackPointExtension>
            <ns3:atemp>20.0</ns3:atemp>
          </ns3:TrackPointExtension>
        </extensions>
      </trkpt>
      <trkpt lat="42.50998391769826412200927734375" lon="19.894365034997463226318359375">
        <ele>1748.199951171875</ele>
        <time>2026-06-17T12:18:08.000Z</time>
        <extensions>
          <ns3:TrackPointExtension>
            <ns3:atemp>20.0</ns3:atemp>
          </ns3:TrackPointExtension>
        </extensions>
      </trkpt>
      <trkpt lat="42.50998391769826412200927734375" lon="19.894365034997463226318359375">
        <ele>1748.199951171875</ele>
        <time>2026-06-17T12:18:09.000Z</time>
        <extensions>
          <ns3:TrackPointExtension>
            <ns3:atemp>20.0</ns3:atemp>
          </ns3:TrackPointExtension>
        </extensions>
      </trkpt>
      <trkpt lat="42.50998391769826412200927734375" lon="19.894365034997463226318359375">
        <ele>1748.199951171875</ele>
        <time>2026-06-17T12:18:10.000Z</time>
        <extensions>
          <ns3:TrackPointExtension>
            <ns3:atemp>20.0</ns3:atemp>
          </ns3:TrackPointExtension>
        </extensions>
      </trkpt>
      <trkpt lat="42.50998391769826412200927734375" lon="19.894365034997463226318359375">
        <ele>1748.199951171875</ele>
        <time>2026-06-17T12:18:11.000Z</time>
        <extensions>
          <ns3:TrackPointExtension>
            <ns3:atemp>20.0</ns3:atemp>
          </ns3:TrackPointExtension>
        </extensions>
      </trkpt>
      <trkpt lat="42.50998391769826412200927734375" lon="19.894365034997463226318359375">
        <ele>1748.4000244140625</ele>
        <time>2026-06-17T12:18:12.000Z</time>
        <extensions>
          <ns3:TrackPointExtension>
            <ns3:atemp>20.0</ns3:atemp>
          </ns3:TrackPointExtension>
        </extensions>
      </trkpt>
      <trkpt lat="42.50998391769826412200927734375" lon="19.894365034997463226318359375">
        <ele>1748.4000244140625</ele>
        <time>2026-06-17T12:18:13.000Z</time>
        <extensions>
          <ns3:TrackPointExtension>
            <ns3:atemp>20.0</ns3:atemp>
          </ns3:TrackPointExtension>
        </extensions>
      </trkpt>
      <trkpt lat="42.50998358242213726043701171875" lon="19.89436377771198749542236328125">
        <ele>1748.4000244140625</ele>
        <time>2026-06-17T12:18:14.000Z</time>
        <extensions>
          <ns3:TrackPointExtension>
            <ns3:atemp>20.0</ns3:atemp>
          </ns3:TrackPointExtension>
        </extensions>
      </trkpt>
      <trkpt lat="42.5099918805062770843505859375" lon="19.8943506181240081787109375">
        <ele>1748.4000244140625</ele>
        <time>2026-06-17T12:18:15.000Z</time>
        <extensions>
          <ns3:TrackPointExtension>
            <ns3:atemp>20.0</ns3:atemp>
          </ns3:TrackPointExtension>
        </extensions>
      </trkpt>
      <trkpt lat="42.51000068150460720062255859375" lon="19.89434164948761463165283203125">
        <ele>1748.4000244140625</ele>
        <time>2026-06-17T12:18:16.000Z</time>
        <extensions>
          <ns3:TrackPointExtension>
            <ns3:atemp>20.0</ns3:atemp>
          </ns3:TrackPointExtension>
        </extensions>
      </trkpt>
      <trkpt lat="42.51000738702714443206787109375" lon="19.894338548183441162109375">
        <ele>1748.4000244140625</ele>
        <time>2026-06-17T12:18:17.000Z</time>
        <extensions>
          <ns3:TrackPointExtension>
            <ns3:atemp>20.0</ns3:atemp>
          </ns3:TrackPointExtension>
        </extensions>
      </trkpt>
      <trkpt lat="42.51000571064651012420654296875" lon="19.894327819347381591796875">
        <ele>1748.4000244140625</ele>
        <time>2026-06-17T12:18:18.000Z</time>
        <extensions>
          <ns3:TrackPointExtension>
            <ns3:atemp>20.0</ns3:atemp>
          </ns3:TrackPointExtension>
        </extensions>
      </trkpt>
      <trkpt lat="42.5100096501410007476806640625" lon="19.8943142406642436981201171875">
        <ele>1748.4000244140625</ele>
        <time>2026-06-17T12:18:19.000Z</time>
        <extensions>
          <ns3:TrackPointExtension>
            <ns3:atemp>20.0</ns3:atemp>
          </ns3:TrackPointExtension>
        </extensions>
      </trkpt>
      <trkpt lat="42.510019205510616302490234375" lon="19.89430326037108898162841796875">
        <ele>1748.199951171875</ele>
        <time>2026-06-17T12:18:20.000Z</time>
        <extensions>
          <ns3:TrackPointExtension>
            <ns3:atemp>20.0</ns3:atemp>
          </ns3:TrackPointExtension>
        </extensions>
      </trkpt>
      <trkpt lat="42.5100264139473438262939453125" lon="19.89429269917309284210205078125">
        <ele>1748.4000244140625</ele>
        <time>2026-06-17T12:18:21.000Z</time>
        <extensions>
          <ns3:TrackPointExtension>
            <ns3:atemp>20.0</ns3:atemp>
          </ns3:TrackPointExtension>
        </extensions>
      </trkpt>
      <trkpt lat="42.51002884469926357269287109375" lon="19.89428180269896984100341796875">
        <ele>1748.199951171875</ele>
        <time>2026-06-17T12:18:22.000Z</time>
        <extensions>
          <ns3:TrackPointExtension>
            <ns3:atemp>20.0</ns3:atemp>
          </ns3:TrackPointExtension>
        </extensions>
      </trkpt>
      <trkpt lat="42.5100317783653736114501953125" lon="19.8942652903497219085693359375">
        <ele>1748.199951171875</ele>
        <time>2026-06-17T12:18:23.000Z</time>
        <extensions>
          <ns3:TrackPointExtension>
            <ns3:atemp>20.0</ns3:atemp>
          </ns3:TrackPointExtension>
        </extensions>
      </trkpt>
      <trkpt lat="42.51003454439342021942138671875" lon="19.89425062201917171478271484375">
        <ele>1748.199951171875</ele>
        <time>2026-06-17T12:18:24.000Z</time>
        <extensions>
          <ns3:TrackPointExtension>
            <ns3:atemp>20.0</ns3:atemp>
          </ns3:TrackPointExtension>
        </extensions>
      </trkpt>
      <trkpt lat="42.51003722660243511199951171875" lon="19.89424542523920536041259765625">
        <ele>1748.199951171875</ele>
        <time>2026-06-17T12:18:25.000Z</time>
        <extensions>
          <ns3:TrackPointExtension>
            <ns3:atemp>20.0</ns3:atemp>
          </ns3:TrackPointExtension>
        </extensions>
      </trkpt>
      <trkpt lat="42.5100371427834033966064453125" lon="19.89424534142017364501953125">
        <ele>1748.199951171875</ele>
        <time>2026-06-17T12:18:26.000Z</time>
        <extensions>
          <ns3:TrackPointExtension>
            <ns3:atemp>20.0</ns3:atemp>
          </ns3:TrackPointExtension>
        </extensions>
      </trkpt>
      <trkpt lat="42.5100371427834033966064453125" lon="19.89424534142017364501953125">
        <ele>1748</ele>
        <time>2026-06-17T12:18:27.000Z</time>
        <extensions>
          <ns3:TrackPointExtension>
            <ns3:atemp>20.0</ns3:atemp>
          </ns3:TrackPointExtension>
        </extensions>
      </trkpt>
      <trkpt lat="42.5100371427834033966064453125" lon="19.89424534142017364501953125">
        <ele>1748</ele>
        <time>2026-06-17T12:18:28.000Z</time>
        <extensions>
          <ns3:TrackPointExtension>
            <ns3:atemp>20.0</ns3:atemp>
          </ns3:TrackPointExtension>
        </extensions>
      </trkpt>
      <trkpt lat="42.5100371427834033966064453125" lon="19.89424534142017364501953125">
        <ele>1748</ele>
        <time>2026-06-17T12:18:29.000Z</time>
        <extensions>
          <ns3:TrackPointExtension>
            <ns3:atemp>20.0</ns3:atemp>
          </ns3:TrackPointExtension>
        </extensions>
      </trkpt>
      <trkpt lat="42.51003722660243511199951171875" lon="19.89424458704888820648193359375">
        <ele>1748</ele>
        <time>2026-06-17T12:18:30.000Z</time>
        <extensions>
          <ns3:TrackPointExtension>
            <ns3:atemp>20.0</ns3:atemp>
          </ns3:TrackPointExtension>
        </extensions>
      </trkpt>
      <trkpt lat="42.510046698153018951416015625" lon="19.894226901233196258544921875">
        <ele>1748</ele>
        <time>2026-06-17T12:18:31.000Z</time>
        <extensions>
          <ns3:TrackPointExtension>
            <ns3:atemp>20.0</ns3:atemp>
          </ns3:TrackPointExtension>
        </extensions>
      </trkpt>
      <trkpt lat="42.51004728488624095916748046875" lon="19.894218854606151580810546875">
        <ele>1748</ele>
        <time>2026-06-17T12:18:32.000Z</time>
        <extensions>
          <ns3:TrackPointExtension>
            <ns3:atemp>20.0</ns3:atemp>
          </ns3:TrackPointExtension>
        </extensions>
      </trkpt>
      <trkpt lat="42.51005097292363643646240234375" lon="19.89421122707426548004150390625">
        <ele>1747.800048828125</ele>
        <time>2026-06-17T12:18:33.000Z</time>
        <extensions>
          <ns3:TrackPointExtension>
            <ns3:atemp>20.0</ns3:atemp>
          </ns3:TrackPointExtension>
        </extensions>
      </trkpt>
      <trkpt lat="42.51004837453365325927734375" lon="19.89422212354838848114013671875">
        <ele>1747.800048828125</ele>
        <time>2026-06-17T12:18:34.000Z</time>
        <extensions>
          <ns3:TrackPointExtension>
            <ns3:atemp>20.0</ns3:atemp>
          </ns3:TrackPointExtension>
        </extensions>
      </trkpt>
      <trkpt lat="42.510048039257526397705078125" lon="19.8942213691771030426025390625">
        <ele>1747.800048828125</ele>
        <time>2026-06-17T12:18:35.000Z</time>
        <extensions>
          <ns3:TrackPointExtension>
            <ns3:atemp>20.0</ns3:atemp>
          </ns3:TrackPointExtension>
        </extensions>
      </trkpt>
      <trkpt lat="42.510048039257526397705078125" lon="19.8942213691771030426025390625">
        <ele>1747.800048828125</ele>
        <time>2026-06-17T12:18:36.000Z</time>
        <extensions>
          <ns3:TrackPointExtension>
            <ns3:atemp>20.0</ns3:atemp>
          </ns3:TrackPointExtension>
        </extensions>
      </trkpt>
      <trkpt lat="42.510048039257526397705078125" lon="19.8942213691771030426025390625">
        <ele>1747.800048828125</ele>
        <time>2026-06-17T12:18:37.000Z</time>
        <extensions>
          <ns3:TrackPointExtension>
            <ns3:atemp>20.0</ns3:atemp>
          </ns3:TrackPointExtension>
        </extensions>
      </trkpt>
      <trkpt lat="42.510048039257526397705078125" lon="19.8942213691771030426025390625">
        <ele>1747.800048828125</ele>
        <time>2026-06-17T12:18:38.000Z</time>
        <extensions>
          <ns3:TrackPointExtension>
            <ns3:atemp>20.0</ns3:atemp>
          </ns3:TrackPointExtension>
        </extensions>
      </trkpt>
      <trkpt lat="42.510048039257526397705078125" lon="19.8942213691771030426025390625">
        <ele>1747.800048828125</ele>
        <time>2026-06-17T12:18:39.000Z</time>
        <extensions>
          <ns3:TrackPointExtension>
            <ns3:atemp>20.0</ns3:atemp>
          </ns3:TrackPointExtension>
        </extensions>
      </trkpt>
      <trkpt lat="42.510048039257526397705078125" lon="19.8942213691771030426025390625">
        <ele>1747.800048828125</ele>
        <time>2026-06-17T12:18:40.000Z</time>
        <extensions>
          <ns3:TrackPointExtension>
            <ns3:atemp>20.0</ns3:atemp>
          </ns3:TrackPointExtension>
        </extensions>
      </trkpt>
      <trkpt lat="42.510048039257526397705078125" lon="19.8942213691771030426025390625">
        <ele>1747.5999755859375</ele>
        <time>2026-06-17T12:18:41.000Z</time>
        <extensions>
          <ns3:TrackPointExtension>
            <ns3:atemp>20.0</ns3:atemp>
          </ns3:TrackPointExtension>
        </extensions>
      </trkpt>
      <trkpt lat="42.510048039257526397705078125" lon="19.8942213691771030426025390625">
        <ele>1747.5999755859375</ele>
        <time>2026-06-17T12:18:42.000Z</time>
        <extensions>
          <ns3:TrackPointExtension>
            <ns3:atemp>20.0</ns3:atemp>
          </ns3:TrackPointExtension>
        </extensions>
      </trkpt>
      <trkpt lat="42.510048039257526397705078125" lon="19.8942213691771030426025390625">
        <ele>1747.5999755859375</ele>
        <time>2026-06-17T12:18:43.000Z</time>
        <extensions>
          <ns3:TrackPointExtension>
            <ns3:atemp>20.0</ns3:atemp>
          </ns3:TrackPointExtension>
        </extensions>
      </trkpt>
      <trkpt lat="42.510048039257526397705078125" lon="19.8942213691771030426025390625">
        <ele>1747.4000244140625</ele>
        <time>2026-06-17T12:18:44.000Z</time>
        <extensions>
          <ns3:TrackPointExtension>
            <ns3:atemp>20.0</ns3:atemp>
          </ns3:TrackPointExtension>
        </extensions>
      </trkpt>
      <trkpt lat="42.510048039257526397705078125" lon="19.8942213691771030426025390625">
        <ele>1747.4000244140625</ele>
        <time>2026-06-17T12:18:45.000Z</time>
        <extensions>
          <ns3:TrackPointExtension>
            <ns3:atemp>20.0</ns3:atemp>
          </ns3:TrackPointExtension>
        </extensions>
      </trkpt>
      <trkpt lat="42.510048039257526397705078125" lon="19.8942213691771030426025390625">
        <ele>1747.4000244140625</ele>
        <time>2026-06-17T12:18:46.000Z</time>
        <extensions>
          <ns3:TrackPointExtension>
            <ns3:atemp>20.0</ns3:atemp>
          </ns3:TrackPointExtension>
        </extensions>
      </trkpt>
      <trkpt lat="42.51004979945719242095947265625" lon="19.89421851933002471923828125">
        <ele>1747.4000244140625</ele>
        <time>2026-06-17T12:18:47.000Z</time>
        <extensions>
          <ns3:TrackPointExtension>
            <ns3:atemp>20.0</ns3:atemp>
          </ns3:TrackPointExtension>
        </extensions>
      </trkpt>
      <trkpt lat="42.5100606121122837066650390625" lon="19.89420100115239620208740234375">
        <ele>1747.4000244140625</ele>
        <time>2026-06-17T12:18:48.000Z</time>
        <extensions>
          <ns3:TrackPointExtension>
            <ns3:atemp>20.0</ns3:atemp>
          </ns3:TrackPointExtension>
        </extensions>
      </trkpt>
      <trkpt lat="42.510065473616123199462890625" lon="19.894187338650226593017578125">
        <ele>1747.4000244140625</ele>
        <time>2026-06-17T12:18:49.000Z</time>
        <extensions>
          <ns3:TrackPointExtension>
            <ns3:atemp>20.0</ns3:atemp>
          </ns3:TrackPointExtension>
        </extensions>
      </trkpt>
      <trkpt lat="42.5100693292915821075439453125" lon="19.894180633127689361572265625">
        <ele>1747.4000244140625</ele>
        <time>2026-06-17T12:18:50.000Z</time>
        <extensions>
          <ns3:TrackPointExtension>
            <ns3:atemp>20.0</ns3:atemp>
          </ns3:TrackPointExtension>
        </extensions>
      </trkpt>
      <trkpt lat="42.51007494516670703887939453125" lon="19.89416755735874176025390625">
        <ele>1747.4000244140625</ele>
        <time>2026-06-17T12:18:51.000Z</time>
        <extensions>
          <ns3:TrackPointExtension>
            <ns3:atemp>20.0</ns3:atemp>
          </ns3:TrackPointExtension>
        </extensions>
      </trkpt>
      <trkpt lat="42.51008332706987857818603515625" lon="19.8941549845039844512939453125">
        <ele>1747.199951171875</ele>
        <time>2026-06-17T12:18:52.000Z</time>
        <extensions>
          <ns3:TrackPointExtension>
            <ns3:atemp>20.0</ns3:atemp>
          </ns3:TrackPointExtension>
        </extensions>
      </trkpt>
      <trkpt lat="42.5100854225456714630126953125" lon="19.8941395618021488189697265625">
        <ele>1747</ele>
        <time>2026-06-17T12:18:53.000Z</time>
        <extensions>
          <ns3:TrackPointExtension>
            <ns3:atemp>20.0</ns3:atemp>
          </ns3:TrackPointExtension>
        </extensions>
      </trkpt>
      <trkpt lat="42.51009305007755756378173828125" lon="19.89412254653871059417724609375">
        <ele>1746.800048828125</ele>
        <time>2026-06-17T12:18:54.000Z</time>
        <extensions>
          <ns3:TrackPointExtension>
            <ns3:atemp>20.0</ns3:atemp>
          </ns3:TrackPointExtension>
        </extensions>
      </trkpt>
      <trkpt lat="42.510100342333316802978515625" lon="19.89410662092268466949462890625">
        <ele>1746.5999755859375</ele>
        <time>2026-06-17T12:18:55.000Z</time>
        <extensions>
          <ns3:TrackPointExtension>
            <ns3:atemp>20.0</ns3:atemp>
          </ns3:TrackPointExtension>
        </extensions>
      </trkpt>
      <trkpt lat="42.51011140644550323486328125" lon="19.89408365450799465179443359375">
        <ele>1746.199951171875</ele>
        <time>2026-06-17T12:18:56.000Z</time>
        <extensions>
          <ns3:TrackPointExtension>
            <ns3:atemp>20.0</ns3:atemp>
          </ns3:TrackPointExtension>
        </extensions>
      </trkpt>
      <trkpt lat="42.5101286731660366058349609375" lon="19.89405381493270397186279296875">
        <ele>1745.800048828125</ele>
        <time>2026-06-17T12:18:57.000Z</time>
        <extensions>
          <ns3:TrackPointExtension>
            <ns3:atemp>20.0</ns3:atemp>
          </ns3:TrackPointExtension>
        </extensions>
      </trkpt>
      <trkpt lat="42.51014065928757190704345703125" lon="19.8940180242061614990234375">
        <ele>1745.199951171875</ele>
        <time>2026-06-17T12:18:58.000Z</time>
        <extensions>
          <ns3:TrackPointExtension>
            <ns3:atemp>20.0</ns3:atemp>
          </ns3:TrackPointExtension>
        </extensions>
      </trkpt>
      <trkpt lat="42.51014786772429943084716796875" lon="19.8939776234328746795654296875">
        <ele>1744.800048828125</ele>
        <time>2026-06-17T12:18:59.000Z</time>
        <extensions>
          <ns3:TrackPointExtension>
            <ns3:atemp>20.0</ns3:atemp>
          </ns3:TrackPointExtension>
        </extensions>
      </trkpt>
      <trkpt lat="42.51016228459775447845458984375" lon="19.8939430899918079376220703125">
        <ele>1744</ele>
        <time>2026-06-17T12:19:00.000Z</time>
        <extensions>
          <ns3:TrackPointExtension>
            <ns3:atemp>20.0</ns3:atemp>
          </ns3:TrackPointExtension>
        </extensions>
      </trkpt>
      <trkpt lat="42.51016773283481597900390625" lon="19.893909394741058349609375">
        <ele>1743.4000244140625</ele>
        <time>2026-06-17T12:19:01.000Z</time>
        <extensions>
          <ns3:TrackPointExtension>
            <ns3:atemp>20.0</ns3:atemp>
          </ns3:TrackPointExtension>
        </extensions>
      </trkpt>
      <trkpt lat="42.51017443835735321044921875" lon="19.89388458430767059326171875">
        <ele>1742.800048828125</ele>
        <time>2026-06-17T12:19:02.000Z</time>
        <extensions>
          <ns3:TrackPointExtension>
            <ns3:atemp>20.0</ns3:atemp>
          </ns3:TrackPointExtension>
        </extensions>
      </trkpt>
      <trkpt lat="42.5101769529283046722412109375" lon="19.8938565887510776519775390625">
        <ele>1742.199951171875</ele>
        <time>2026-06-17T12:19:03.000Z</time>
        <extensions>
          <ns3:TrackPointExtension>
            <ns3:atemp>20.0</ns3:atemp>
          </ns3:TrackPointExtension>
        </extensions>
      </trkpt>
      <trkpt lat="42.510182149708271026611328125" lon="19.893834628164768218994140625">
        <ele>1741.4000244140625</ele>
        <time>2026-06-17T12:19:04.000Z</time>
        <extensions>
          <ns3:TrackPointExtension>
            <ns3:atemp>20.0</ns3:atemp>
          </ns3:TrackPointExtension>
        </extensions>
      </trkpt>
      <trkpt lat="42.5101906992495059967041015625" lon="19.893819205462932586669921875">
        <ele>1740.800048828125</ele>
        <time>2026-06-17T12:19:05.000Z</time>
        <extensions>
          <ns3:TrackPointExtension>
            <ns3:atemp>20.0</ns3:atemp>
          </ns3:TrackPointExtension>
        </extensions>
      </trkpt>
      <trkpt lat="42.51019933260977268218994140625" lon="19.89380587823688983917236328125">
        <ele>1740.5999755859375</ele>
        <time>2026-06-17T12:19:06.000Z</time>
        <extensions>
          <ns3:TrackPointExtension>
            <ns3:atemp>20.0</ns3:atemp>
          </ns3:TrackPointExtension>
        </extensions>
      </trkpt>
      <trkpt lat="42.51020452938973903656005859375" lon="19.893802441656589508056640625">
        <ele>1740</ele>
        <time>2026-06-17T12:19:07.000Z</time>
        <extensions>
          <ns3:TrackPointExtension>
            <ns3:atemp>20.0</ns3:atemp>
          </ns3:TrackPointExtension>
        </extensions>
      </trkpt>
      <trkpt lat="42.51020452938973903656005859375" lon="19.893802441656589508056640625">
        <ele>1739.800048828125</ele>
        <time>2026-06-17T12:19:08.000Z</time>
        <extensions>
          <ns3:TrackPointExtension>
            <ns3:atemp>20.0</ns3:atemp>
          </ns3:TrackPointExtension>
        </extensions>
      </trkpt>
      <trkpt lat="42.51020452938973903656005859375" lon="19.893802441656589508056640625">
        <ele>1739.4000244140625</ele>
        <time>2026-06-17T12:19:09.000Z</time>
        <extensions>
          <ns3:TrackPointExtension>
            <ns3:atemp>20.0</ns3:atemp>
          </ns3:TrackPointExtension>
        </extensions>
      </trkpt>
      <trkpt lat="42.51020452938973903656005859375" lon="19.893802441656589508056640625">
        <ele>1739.199951171875</ele>
        <time>2026-06-17T12:19:10.000Z</time>
        <extensions>
          <ns3:TrackPointExtension>
            <ns3:atemp>20.0</ns3:atemp>
          </ns3:TrackPointExtension>
        </extensions>
      </trkpt>
      <trkpt lat="42.51020452938973903656005859375" lon="19.893802441656589508056640625">
        <ele>1738.800048828125</ele>
        <time>2026-06-17T12:19:11.000Z</time>
        <extensions>
          <ns3:TrackPointExtension>
            <ns3:atemp>20.0</ns3:atemp>
          </ns3:TrackPointExtension>
        </extensions>
      </trkpt>
      <trkpt lat="42.51020452938973903656005859375" lon="19.893802441656589508056640625">
        <ele>1738.800048828125</ele>
        <time>2026-06-17T12:19:12.000Z</time>
        <extensions>
          <ns3:TrackPointExtension>
            <ns3:atemp>20.0</ns3:atemp>
          </ns3:TrackPointExtension>
        </extensions>
      </trkpt>
      <trkpt lat="42.51020452938973903656005859375" lon="19.893802441656589508056640625">
        <ele>1738.5999755859375</ele>
        <time>2026-06-17T12:19:13.000Z</time>
        <extensions>
          <ns3:TrackPointExtension>
            <ns3:atemp>20.0</ns3:atemp>
          </ns3:TrackPointExtension>
        </extensions>
      </trkpt>
      <trkpt lat="42.51020452938973903656005859375" lon="19.893802441656589508056640625">
        <ele>1738.5999755859375</ele>
        <time>2026-06-17T12:19:14.000Z</time>
        <extensions>
          <ns3:TrackPointExtension>
            <ns3:atemp>20.0</ns3:atemp>
          </ns3:TrackPointExtension>
        </extensions>
      </trkpt>
      <trkpt lat="42.51020452938973903656005859375" lon="19.893802441656589508056640625">
        <ele>1738.4000244140625</ele>
        <time>2026-06-17T12:19:15.000Z</time>
        <extensions>
          <ns3:TrackPointExtension>
            <ns3:atemp>20.0</ns3:atemp>
          </ns3:TrackPointExtension>
        </extensions>
      </trkpt>
      <trkpt lat="42.51020452938973903656005859375" lon="19.893802441656589508056640625">
        <ele>1738.4000244140625</ele>
        <time>2026-06-17T12:19:16.000Z</time>
        <extensions>
          <ns3:TrackPointExtension>
            <ns3:atemp>20.0</ns3:atemp>
          </ns3:TrackPointExtension>
        </extensions>
      </trkpt>
      <trkpt lat="42.51020452938973903656005859375" lon="19.893802441656589508056640625">
        <ele>1738.4000244140625</ele>
        <time>2026-06-17T12:19:17.000Z</time>
        <extensions>
          <ns3:TrackPointExtension>
            <ns3:atemp>20.0</ns3:atemp>
          </ns3:TrackPointExtension>
        </extensions>
      </trkpt>
      <trkpt lat="42.51020452938973903656005859375" lon="19.893802441656589508056640625">
        <ele>1738.4000244140625</ele>
        <time>2026-06-17T12:19:18.000Z</time>
        <extensions>
          <ns3:TrackPointExtension>
            <ns3:atemp>20.0</ns3:atemp>
          </ns3:TrackPointExtension>
        </extensions>
      </trkpt>
      <trkpt lat="42.51020452938973903656005859375" lon="19.893802441656589508056640625">
        <ele>1738.4000244140625</ele>
        <time>2026-06-17T12:19:19.000Z</time>
        <extensions>
          <ns3:TrackPointExtension>
            <ns3:atemp>20.0</ns3:atemp>
          </ns3:TrackPointExtension>
        </extensions>
      </trkpt>
      <trkpt lat="42.51020452938973903656005859375" lon="19.893802441656589508056640625">
        <ele>1738.4000244140625</ele>
        <time>2026-06-17T12:19:20.000Z</time>
        <extensions>
          <ns3:TrackPointExtension>
            <ns3:atemp>20.0</ns3:atemp>
          </ns3:TrackPointExtension>
        </extensions>
      </trkpt>
      <trkpt lat="42.51020452938973903656005859375" lon="19.893802441656589508056640625">
        <ele>1738.4000244140625</ele>
        <time>2026-06-17T12:19:21.000Z</time>
        <extensions>
          <ns3:TrackPointExtension>
            <ns3:atemp>20.0</ns3:atemp>
          </ns3:TrackPointExtension>
        </extensions>
      </trkpt>
      <trkpt lat="42.51020452938973903656005859375" lon="19.893802441656589508056640625">
        <ele>1738.4000244140625</ele>
        <time>2026-06-17T12:19:22.000Z</time>
        <extensions>
          <ns3:TrackPointExtension>
            <ns3:atemp>20.0</ns3:atemp>
          </ns3:TrackPointExtension>
        </extensions>
      </trkpt>
      <trkpt lat="42.51020452938973903656005859375" lon="19.893802441656589508056640625">
        <ele>1738.4000244140625</ele>
        <time>2026-06-17T12:19:23.000Z</time>
        <extensions>
          <ns3:TrackPointExtension>
            <ns3:atemp>20.0</ns3:atemp>
          </ns3:TrackPointExtension>
        </extensions>
      </trkpt>
      <trkpt lat="42.51020452938973903656005859375" lon="19.893802441656589508056640625">
        <ele>1738.4000244140625</ele>
        <time>2026-06-17T12:19:24.000Z</time>
        <extensions>
          <ns3:TrackPointExtension>
            <ns3:atemp>20.0</ns3:atemp>
          </ns3:TrackPointExtension>
        </extensions>
      </trkpt>
      <trkpt lat="42.51020452938973903656005859375" lon="19.893802441656589508056640625">
        <ele>1738.4000244140625</ele>
        <time>2026-06-17T12:19:25.000Z</time>
        <extensions>
          <ns3:TrackPointExtension>
            <ns3:atemp>20.0</ns3:atemp>
          </ns3:TrackPointExtension>
        </extensions>
      </trkpt>
      <trkpt lat="42.51020452938973903656005859375" lon="19.893802441656589508056640625">
        <ele>1738.4000244140625</ele>
        <time>2026-06-17T12:19:26.000Z</time>
        <extensions>
          <ns3:TrackPointExtension>
            <ns3:atemp>20.0</ns3:atemp>
          </ns3:TrackPointExtension>
        </extensions>
      </trkpt>
      <trkpt lat="42.51020452938973903656005859375" lon="19.893802441656589508056640625">
        <ele>1738.4000244140625</ele>
        <time>2026-06-17T12:19:27.000Z</time>
        <extensions>
          <ns3:TrackPointExtension>
            <ns3:atemp>20.0</ns3:atemp>
          </ns3:TrackPointExtension>
        </extensions>
      </trkpt>
      <trkpt lat="42.51020452938973903656005859375" lon="19.893802441656589508056640625">
        <ele>1738.4000244140625</ele>
        <time>2026-06-17T12:19:28.000Z</time>
        <extensions>
          <ns3:TrackPointExtension>
            <ns3:atemp>20.0</ns3:atemp>
          </ns3:TrackPointExtension>
        </extensions>
      </trkpt>
      <trkpt lat="42.51020452938973903656005859375" lon="19.893802441656589508056640625">
        <ele>1738.4000244140625</ele>
        <time>2026-06-17T12:19:29.000Z</time>
        <extensions>
          <ns3:TrackPointExtension>
            <ns3:atemp>20.0</ns3:atemp>
          </ns3:TrackPointExtension>
        </extensions>
      </trkpt>
      <trkpt lat="42.51020452938973903656005859375" lon="19.893802441656589508056640625">
        <ele>1738.4000244140625</ele>
        <time>2026-06-17T12:19:30.000Z</time>
        <extensions>
          <ns3:TrackPointExtension>
            <ns3:atemp>20.0</ns3:atemp>
          </ns3:TrackPointExtension>
        </extensions>
      </trkpt>
      <trkpt lat="42.51020620577037334442138671875" lon="19.8938007652759552001953125">
        <ele>1738.4000244140625</ele>
        <time>2026-06-17T12:19:31.000Z</time>
        <extensions>
          <ns3:TrackPointExtension>
            <ns3:atemp>20.0</ns3:atemp>
          </ns3:TrackPointExtension>
        </extensions>
      </trkpt>
      <trkpt lat="42.51020452938973903656005859375" lon="19.893802441656589508056640625">
        <ele>1738.199951171875</ele>
        <time>2026-06-17T12:19:32.000Z</time>
        <extensions>
          <ns3:TrackPointExtension>
            <ns3:atemp>20.0</ns3:atemp>
          </ns3:TrackPointExtension>
        </extensions>
      </trkpt>
      <trkpt lat="42.51020452938973903656005859375" lon="19.893802441656589508056640625">
        <ele>1738.199951171875</ele>
        <time>2026-06-17T12:19:33.000Z</time>
        <extensions>
          <ns3:TrackPointExtension>
            <ns3:atemp>20.0</ns3:atemp>
          </ns3:TrackPointExtension>
        </extensions>
      </trkpt>
      <trkpt lat="42.51020452938973903656005859375" lon="19.893802441656589508056640625">
        <ele>1738.199951171875</ele>
        <time>2026-06-17T12:19:34.000Z</time>
        <extensions>
          <ns3:TrackPointExtension>
            <ns3:atemp>20.0</ns3:atemp>
          </ns3:TrackPointExtension>
        </extensions>
      </trkpt>
      <trkpt lat="42.51020452938973903656005859375" lon="19.893802441656589508056640625">
        <ele>1738</ele>
        <time>2026-06-17T12:19:35.000Z</time>
        <extensions>
          <ns3:TrackPointExtension>
            <ns3:atemp>20.0</ns3:atemp>
          </ns3:TrackPointExtension>
        </extensions>
      </trkpt>
      <trkpt lat="42.510211654007434844970703125" lon="19.89379364065825939178466796875">
        <ele>1738</ele>
        <time>2026-06-17T12:19:36.000Z</time>
        <extensions>
          <ns3:TrackPointExtension>
            <ns3:atemp>20.0</ns3:atemp>
          </ns3:TrackPointExtension>
        </extensions>
      </trkpt>
      <trkpt lat="42.51022246666252613067626953125" lon="19.8937767930328845977783203125">
        <ele>1738</ele>
        <time>2026-06-17T12:19:37.000Z</time>
        <extensions>
          <ns3:TrackPointExtension>
            <ns3:atemp>20.0</ns3:atemp>
          </ns3:TrackPointExtension>
        </extensions>
      </trkpt>
      <trkpt lat="42.5102346204221248626708984375" lon="19.89376279525458812713623046875">
        <ele>1738</ele>
        <time>2026-06-17T12:19:38.000Z</time>
        <extensions>
          <ns3:TrackPointExtension>
            <ns3:atemp>20.0</ns3:atemp>
          </ns3:TrackPointExtension>
        </extensions>
      </trkpt>
      <trkpt lat="42.51024576835334300994873046875" lon="19.893743097782135009765625">
        <ele>1737.800048828125</ele>
        <time>2026-06-17T12:19:39.000Z</time>
        <extensions>
          <ns3:TrackPointExtension>
            <ns3:atemp>20.0</ns3:atemp>
          </ns3:TrackPointExtension>
        </extensions>
      </trkpt>
      <trkpt lat="42.510256581008434295654296875" lon="19.89372440613806247711181640625">
        <ele>1737.5999755859375</ele>
        <time>2026-06-17T12:19:40.000Z</time>
        <extensions>
          <ns3:TrackPointExtension>
            <ns3:atemp>20.0</ns3:atemp>
          </ns3:TrackPointExtension>
        </extensions>
      </trkpt>
      <trkpt lat="42.510269992053508758544921875" lon="19.8937043733894824981689453125">
        <ele>1737.199951171875</ele>
        <time>2026-06-17T12:19:41.000Z</time>
        <extensions>
          <ns3:TrackPointExtension>
            <ns3:atemp>20.0</ns3:atemp>
          </ns3:TrackPointExtension>
        </extensions>
      </trkpt>
      <trkpt lat="42.51028583385050296783447265625" lon="19.8936812393367290496826171875">
        <ele>1736.800048828125</ele>
        <time>2026-06-17T12:19:42.000Z</time>
        <extensions>
          <ns3:TrackPointExtension>
            <ns3:atemp>20.0</ns3:atemp>
          </ns3:TrackPointExtension>
        </extensions>
      </trkpt>
      <trkpt lat="42.51030008308589458465576171875" lon="19.89365902729332447052001953125">
        <ele>1736.4000244140625</ele>
        <time>2026-06-17T12:19:43.000Z</time>
        <extensions>
          <ns3:TrackPointExtension>
            <ns3:atemp>20.0</ns3:atemp>
          </ns3:TrackPointExtension>
        </extensions>
      </trkpt>
      <trkpt lat="42.5103134103119373321533203125" lon="19.89363824017345905303955078125">
        <ele>1736</ele>
        <time>2026-06-17T12:19:44.000Z</time>
        <extensions>
          <ns3:TrackPointExtension>
            <ns3:atemp>20.0</ns3:atemp>
          </ns3:TrackPointExtension>
        </extensions>
      </trkpt>
      <trkpt lat="42.5103266537189483642578125" lon="19.89362248219549655914306640625">
        <ele>1735.5999755859375</ele>
        <time>2026-06-17T12:19:45.000Z</time>
        <extensions>
          <ns3:TrackPointExtension>
            <ns3:atemp>20.0</ns3:atemp>
          </ns3:TrackPointExtension>
        </extensions>
      </trkpt>
      <trkpt lat="42.51033729873597621917724609375" lon="19.89360253326594829559326171875">
        <ele>1735</ele>
        <time>2026-06-17T12:19:46.000Z</time>
        <extensions>
          <ns3:TrackPointExtension>
            <ns3:atemp>20.0</ns3:atemp>
          </ns3:TrackPointExtension>
        </extensions>
      </trkpt>
      <trkpt lat="42.51034031622111797332763671875" lon="19.8935897089540958404541015625">
        <ele>1734.800048828125</ele>
        <time>2026-06-17T12:19:47.000Z</time>
        <extensions>
          <ns3:TrackPointExtension>
            <ns3:atemp>20.0</ns3:atemp>
          </ns3:TrackPointExtension>
        </extensions>
      </trkpt>
      <trkpt lat="42.5103405676782131195068359375" lon="19.8935756273567676544189453125">
        <ele>1734.4000244140625</ele>
        <time>2026-06-17T12:19:48.000Z</time>
        <extensions>
          <ns3:TrackPointExtension>
            <ns3:atemp>20.0</ns3:atemp>
          </ns3:TrackPointExtension>
        </extensions>
      </trkpt>
      <trkpt lat="42.510342411696910858154296875" lon="19.8935736157000064849853515625">
        <ele>1734.199951171875</ele>
        <time>2026-06-17T12:19:49.000Z</time>
        <extensions>
          <ns3:TrackPointExtension>
            <ns3:atemp>20.0</ns3:atemp>
          </ns3:TrackPointExtension>
        </extensions>
      </trkpt>
      <trkpt lat="42.51034299843013286590576171875" lon="19.89357336424291133880615234375">
        <ele>1734</ele>
        <time>2026-06-17T12:19:50.000Z</time>
        <extensions>
          <ns3:TrackPointExtension>
            <ns3:atemp>20.0</ns3:atemp>
          </ns3:TrackPointExtension>
        </extensions>
      </trkpt>
      <trkpt lat="42.51034299843013286590576171875" lon="19.8935732804238796234130859375">
        <ele>1733.800048828125</ele>
        <time>2026-06-17T12:19:51.000Z</time>
        <extensions>
          <ns3:TrackPointExtension>
            <ns3:atemp>20.0</ns3:atemp>
          </ns3:TrackPointExtension>
        </extensions>
      </trkpt>
      <trkpt lat="42.5103549845516681671142578125" lon="19.89355224184691905975341796875">
        <ele>1733.5999755859375</ele>
        <time>2026-06-17T12:19:52.000Z</time>
        <extensions>
          <ns3:TrackPointExtension>
            <ns3:atemp>20.0</ns3:atemp>
          </ns3:TrackPointExtension>
        </extensions>
      </trkpt>
      <trkpt lat="42.510365881025791168212890625" lon="19.893528856337070465087890625">
        <ele>1733.4000244140625</ele>
        <time>2026-06-17T12:19:53.000Z</time>
        <extensions>
          <ns3:TrackPointExtension>
            <ns3:atemp>20.0</ns3:atemp>
          </ns3:TrackPointExtension>
        </extensions>
      </trkpt>
      <trkpt lat="42.51037719659507274627685546875" lon="19.8934995196759700775146484375">
        <ele>1733</ele>
        <time>2026-06-17T12:19:54.000Z</time>
        <extensions>
          <ns3:TrackPointExtension>
            <ns3:atemp>20.0</ns3:atemp>
          </ns3:TrackPointExtension>
        </extensions>
      </trkpt>
      <trkpt lat="42.51039044000208377838134765625" lon="19.89347076974809169769287109375">
        <ele>1732.5999755859375</ele>
        <time>2026-06-17T12:19:55.000Z</time>
        <extensions>
          <ns3:TrackPointExtension>
            <ns3:atemp>20.0</ns3:atemp>
          </ns3:TrackPointExtension>
        </extensions>
      </trkpt>
      <trkpt lat="42.5104062817990779876708984375" lon="19.89344160072505474090576171875">
        <ele>1732.199951171875</ele>
        <time>2026-06-17T12:19:56.000Z</time>
        <extensions>
          <ns3:TrackPointExtension>
            <ns3:atemp>20.0</ns3:atemp>
          </ns3:TrackPointExtension>
        </extensions>
      </trkpt>
      <trkpt lat="42.5104232132434844970703125" lon="19.89341444335877895355224609375">
        <ele>1731.800048828125</ele>
        <time>2026-06-17T12:19:57.000Z</time>
        <extensions>
          <ns3:TrackPointExtension>
            <ns3:atemp>20.0</ns3:atemp>
          </ns3:TrackPointExtension>
        </extensions>
      </trkpt>
      <trkpt lat="42.51043922267854213714599609375" lon="19.8933882080018520355224609375">
        <ele>1731.199951171875</ele>
        <time>2026-06-17T12:19:58.000Z</time>
        <extensions>
          <ns3:TrackPointExtension>
            <ns3:atemp>20.0</ns3:atemp>
          </ns3:TrackPointExtension>
        </extensions>
      </trkpt>
      <trkpt lat="42.510447688400745391845703125" lon="19.8933784849941730499267578125">
        <ele>1730.5999755859375</ele>
        <time>2026-06-17T12:19:59.000Z</time>
        <extensions>
          <ns3:TrackPointExtension>
            <ns3:atemp>20.0</ns3:atemp>
          </ns3:TrackPointExtension>
        </extensions>
      </trkpt>
      <trkpt lat="42.51045280136168003082275390625" lon="19.89337823353707790374755859375">
        <ele>1730.199951171875</ele>
        <time>2026-06-17T12:20:00.000Z</time>
        <extensions>
          <ns3:TrackPointExtension>
            <ns3:atemp>20.0</ns3:atemp>
          </ns3:TrackPointExtension>
        </extensions>
      </trkpt>
      <trkpt lat="42.51045280136168003082275390625" lon="19.89337823353707790374755859375">
        <ele>1730</ele>
        <time>2026-06-17T12:20:01.000Z</time>
        <extensions>
          <ns3:TrackPointExtension>
            <ns3:atemp>20.0</ns3:atemp>
          </ns3:TrackPointExtension>
        </extensions>
      </trkpt>
      <trkpt lat="42.51045280136168003082275390625" lon="19.89337823353707790374755859375">
        <ele>1729.800048828125</ele>
        <time>2026-06-17T12:20:02.000Z</time>
        <extensions>
          <ns3:TrackPointExtension>
            <ns3:atemp>20.0</ns3:atemp>
          </ns3:TrackPointExtension>
        </extensions>
      </trkpt>
      <trkpt lat="42.51045280136168003082275390625" lon="19.89337823353707790374755859375">
        <ele>1729.5999755859375</ele>
        <time>2026-06-17T12:20:03.000Z</time>
        <extensions>
          <ns3:TrackPointExtension>
            <ns3:atemp>20.0</ns3:atemp>
          </ns3:TrackPointExtension>
        </extensions>
      </trkpt>
      <trkpt lat="42.51045280136168003082275390625" lon="19.89337823353707790374755859375">
        <ele>1729.4000244140625</ele>
        <time>2026-06-17T12:20:04.000Z</time>
        <extensions>
          <ns3:TrackPointExtension>
            <ns3:atemp>20.0</ns3:atemp>
          </ns3:TrackPointExtension>
        </extensions>
      </trkpt>
      <trkpt lat="42.51045280136168003082275390625" lon="19.89337823353707790374755859375">
        <ele>1729.4000244140625</ele>
        <time>2026-06-17T12:20:05.000Z</time>
        <extensions>
          <ns3:TrackPointExtension>
            <ns3:atemp>20.0</ns3:atemp>
          </ns3:TrackPointExtension>
        </extensions>
      </trkpt>
      <trkpt lat="42.51045280136168003082275390625" lon="19.89337823353707790374755859375">
        <ele>1729.199951171875</ele>
        <time>2026-06-17T12:20:06.000Z</time>
        <extensions>
          <ns3:TrackPointExtension>
            <ns3:atemp>20.0</ns3:atemp>
          </ns3:TrackPointExtension>
        </extensions>
      </trkpt>
      <trkpt lat="42.51045280136168003082275390625" lon="19.89337823353707790374755859375">
        <ele>1729</ele>
        <time>2026-06-17T12:20:07.000Z</time>
        <extensions>
          <ns3:TrackPointExtension>
            <ns3:atemp>20.0</ns3:atemp>
          </ns3:TrackPointExtension>
        </extensions>
      </trkpt>
      <trkpt lat="42.51045280136168003082275390625" lon="19.89337823353707790374755859375">
        <ele>1729</ele>
        <time>2026-06-17T12:20:08.000Z</time>
        <extensions>
          <ns3:TrackPointExtension>
            <ns3:atemp>20.0</ns3:atemp>
          </ns3:TrackPointExtension>
        </extensions>
      </trkpt>
      <trkpt lat="42.51045363955199718475341796875" lon="19.8933771438896656036376953125">
        <ele>1729</ele>
        <time>2026-06-17T12:20:09.000Z</time>
        <extensions>
          <ns3:TrackPointExtension>
            <ns3:atemp>20.0</ns3:atemp>
          </ns3:TrackPointExtension>
        </extensions>
      </trkpt>
      <trkpt lat="42.51047073863446712493896484375" lon="19.8933583684265613555908203125">
        <ele>1729</ele>
        <time>2026-06-17T12:20:10.000Z</time>
        <extensions>
          <ns3:TrackPointExtension>
            <ns3:atemp>20.0</ns3:atemp>
          </ns3:TrackPointExtension>
        </extensions>
      </trkpt>
      <trkpt lat="42.51047995872795581817626953125" lon="19.89334386773407459259033203125">
        <ele>1728.800048828125</ele>
        <time>2026-06-17T12:20:11.000Z</time>
        <extensions>
          <ns3:TrackPointExtension>
            <ns3:atemp>20.0</ns3:atemp>
          </ns3:TrackPointExtension>
        </extensions>
      </trkpt>
      <trkpt lat="42.510480545461177825927734375" lon="19.89334269426763057708740234375">
        <ele>1728.800048828125</ele>
        <time>2026-06-17T12:20:12.000Z</time>
        <extensions>
          <ns3:TrackPointExtension>
            <ns3:atemp>20.0</ns3:atemp>
          </ns3:TrackPointExtension>
        </extensions>
      </trkpt>
      <trkpt lat="42.510480545461177825927734375" lon="19.8933426104485988616943359375">
        <ele>1728.5999755859375</ele>
        <time>2026-06-17T12:20:13.000Z</time>
        <extensions>
          <ns3:TrackPointExtension>
            <ns3:atemp>20.0</ns3:atemp>
          </ns3:TrackPointExtension>
        </extensions>
      </trkpt>
      <trkpt lat="42.510480545461177825927734375" lon="19.8933426104485988616943359375">
        <ele>1728.5999755859375</ele>
        <time>2026-06-17T12:20:14.000Z</time>
        <extensions>
          <ns3:TrackPointExtension>
            <ns3:atemp>20.0</ns3:atemp>
          </ns3:TrackPointExtension>
        </extensions>
      </trkpt>
      <trkpt lat="42.510480545461177825927734375" lon="19.8933426104485988616943359375">
        <ele>1728.4000244140625</ele>
        <time>2026-06-17T12:20:15.000Z</time>
        <extensions>
          <ns3:TrackPointExtension>
            <ns3:atemp>20.0</ns3:atemp>
          </ns3:TrackPointExtension>
        </extensions>
      </trkpt>
      <trkpt lat="42.510480545461177825927734375" lon="19.8933426104485988616943359375">
        <ele>1728.4000244140625</ele>
        <time>2026-06-17T12:20:16.000Z</time>
        <extensions>
          <ns3:TrackPointExtension>
            <ns3:atemp>20.0</ns3:atemp>
          </ns3:TrackPointExtension>
        </extensions>
      </trkpt>
      <trkpt lat="42.510480545461177825927734375" lon="19.8933426104485988616943359375">
        <ele>1728.4000244140625</ele>
        <time>2026-06-17T12:20:17.000Z</time>
        <extensions>
          <ns3:TrackPointExtension>
            <ns3:atemp>20.0</ns3:atemp>
          </ns3:TrackPointExtension>
        </extensions>
      </trkpt>
      <trkpt lat="42.510480545461177825927734375" lon="19.8933426104485988616943359375">
        <ele>1728.4000244140625</ele>
        <time>2026-06-17T12:20:18.000Z</time>
        <extensions>
          <ns3:TrackPointExtension>
            <ns3:atemp>20.0</ns3:atemp>
          </ns3:TrackPointExtension>
        </extensions>
      </trkpt>
      <trkpt lat="42.510480545461177825927734375" lon="19.8933426104485988616943359375">
        <ele>1728.4000244140625</ele>
        <time>2026-06-17T12:20:19.000Z</time>
        <extensions>
          <ns3:TrackPointExtension>
            <ns3:atemp>20.0</ns3:atemp>
          </ns3:TrackPointExtension>
        </extensions>
      </trkpt>
      <trkpt lat="42.510480545461177825927734375" lon="19.8933426104485988616943359375">
        <ele>1728.4000244140625</ele>
        <time>2026-06-17T12:20:20.000Z</time>
        <extensions>
          <ns3:TrackPointExtension>
            <ns3:atemp>20.0</ns3:atemp>
          </ns3:TrackPointExtension>
        </extensions>
      </trkpt>
      <trkpt lat="42.510480545461177825927734375" lon="19.8933426104485988616943359375">
        <ele>1728.4000244140625</ele>
        <time>2026-06-17T12:20:21.000Z</time>
        <extensions>
          <ns3:TrackPointExtension>
            <ns3:atemp>20.0</ns3:atemp>
          </ns3:TrackPointExtension>
        </extensions>
      </trkpt>
      <trkpt lat="42.510480545461177825927734375" lon="19.8933426104485988616943359375">
        <ele>1728.4000244140625</ele>
        <time>2026-06-17T12:20:22.000Z</time>
        <extensions>
          <ns3:TrackPointExtension>
            <ns3:atemp>20.0</ns3:atemp>
          </ns3:TrackPointExtension>
        </extensions>
      </trkpt>
      <trkpt lat="42.510480545461177825927734375" lon="19.8933426104485988616943359375">
        <ele>1728.4000244140625</ele>
        <time>2026-06-17T12:20:23.000Z</time>
        <extensions>
          <ns3:TrackPointExtension>
            <ns3:atemp>20.0</ns3:atemp>
          </ns3:TrackPointExtension>
        </extensions>
      </trkpt>
      <trkpt lat="42.510480545461177825927734375" lon="19.8933426104485988616943359375">
        <ele>1728.4000244140625</ele>
        <time>2026-06-17T12:20:24.000Z</time>
        <extensions>
          <ns3:TrackPointExtension>
            <ns3:atemp>20.0</ns3:atemp>
          </ns3:TrackPointExtension>
        </extensions>
      </trkpt>
      <trkpt lat="42.510480545461177825927734375" lon="19.8933426104485988616943359375">
        <ele>1728.4000244140625</ele>
        <time>2026-06-17T12:20:25.000Z</time>
        <extensions>
          <ns3:TrackPointExtension>
            <ns3:atemp>20.0</ns3:atemp>
          </ns3:TrackPointExtension>
        </extensions>
      </trkpt>
      <trkpt lat="42.510480545461177825927734375" lon="19.8933426104485988616943359375">
        <ele>1728.4000244140625</ele>
        <time>2026-06-17T12:20:26.000Z</time>
        <extensions>
          <ns3:TrackPointExtension>
            <ns3:atemp>20.0</ns3:atemp>
          </ns3:TrackPointExtension>
        </extensions>
      </trkpt>
      <trkpt lat="42.510480545461177825927734375" lon="19.8933426104485988616943359375">
        <ele>1728.4000244140625</ele>
        <time>2026-06-17T12:20:27.000Z</time>
        <extensions>
          <ns3:TrackPointExtension>
            <ns3:atemp>20.0</ns3:atemp>
          </ns3:TrackPointExtension>
        </extensions>
      </trkpt>
      <trkpt lat="42.510480545461177825927734375" lon="19.8933426104485988616943359375">
        <ele>1728.4000244140625</ele>
        <time>2026-06-17T12:20:28.000Z</time>
        <extensions>
          <ns3:TrackPointExtension>
            <ns3:atemp>20.0</ns3:atemp>
          </ns3:TrackPointExtension>
        </extensions>
      </trkpt>
      <trkpt lat="42.510480545461177825927734375" lon="19.8933426104485988616943359375">
        <ele>1728.4000244140625</ele>
        <time>2026-06-17T12:20:29.000Z</time>
        <extensions>
          <ns3:TrackPointExtension>
            <ns3:atemp>20.0</ns3:atemp>
          </ns3:TrackPointExtension>
        </extensions>
      </trkpt>
      <trkpt lat="42.510480545461177825927734375" lon="19.8933426104485988616943359375">
        <ele>1728.4000244140625</ele>
        <time>2026-06-17T12:20:30.000Z</time>
        <extensions>
          <ns3:TrackPointExtension>
            <ns3:atemp>20.0</ns3:atemp>
          </ns3:TrackPointExtension>
        </extensions>
      </trkpt>
      <trkpt lat="42.510480545461177825927734375" lon="19.8933426104485988616943359375">
        <ele>1728.4000244140625</ele>
        <time>2026-06-17T12:20:31.000Z</time>
        <extensions>
          <ns3:TrackPointExtension>
            <ns3:atemp>20.0</ns3:atemp>
          </ns3:TrackPointExtension>
        </extensions>
      </trkpt>
      <trkpt lat="42.510480545461177825927734375" lon="19.8933426104485988616943359375">
        <ele>1728.4000244140625</ele>
        <time>2026-06-17T12:20:32.000Z</time>
        <extensions>
          <ns3:TrackPointExtension>
            <ns3:atemp>20.0</ns3:atemp>
          </ns3:TrackPointExtension>
        </extensions>
      </trkpt>
      <trkpt lat="42.510480545461177825927734375" lon="19.8933426104485988616943359375">
        <ele>1728.199951171875</ele>
        <time>2026-06-17T12:20:33.000Z</time>
        <extensions>
          <ns3:TrackPointExtension>
            <ns3:atemp>20.0</ns3:atemp>
          </ns3:TrackPointExtension>
        </extensions>
      </trkpt>
      <trkpt lat="42.510480545461177825927734375" lon="19.8933426104485988616943359375">
        <ele>1728.199951171875</ele>
        <time>2026-06-17T12:20:34.000Z</time>
        <extensions>
          <ns3:TrackPointExtension>
            <ns3:atemp>20.0</ns3:atemp>
          </ns3:TrackPointExtension>
        </extensions>
      </trkpt>
      <trkpt lat="42.510480545461177825927734375" lon="19.8933426104485988616943359375">
        <ele>1728.199951171875</ele>
        <time>2026-06-17T12:20:35.000Z</time>
        <extensions>
          <ns3:TrackPointExtension>
            <ns3:atemp>20.0</ns3:atemp>
          </ns3:TrackPointExtension>
        </extensions>
      </trkpt>
      <trkpt lat="42.510480545461177825927734375" lon="19.8933426104485988616943359375">
        <ele>1728.199951171875</ele>
        <time>2026-06-17T12:20:36.000Z</time>
        <extensions>
          <ns3:TrackPointExtension>
            <ns3:atemp>20.0</ns3:atemp>
          </ns3:TrackPointExtension>
        </extensions>
      </trkpt>
      <trkpt lat="42.510480545461177825927734375" lon="19.8933426104485988616943359375">
        <ele>1728.199951171875</ele>
        <time>2026-06-17T12:20:37.000Z</time>
        <extensions>
          <ns3:TrackPointExtension>
            <ns3:atemp>20.0</ns3:atemp>
          </ns3:TrackPointExtension>
        </extensions>
      </trkpt>
      <trkpt lat="42.510480545461177825927734375" lon="19.8933426104485988616943359375">
        <ele>1728.199951171875</ele>
        <time>2026-06-17T12:20:38.000Z</time>
        <extensions>
          <ns3:TrackPointExtension>
            <ns3:atemp>20.0</ns3:atemp>
          </ns3:TrackPointExtension>
        </extensions>
      </trkpt>
      <trkpt lat="42.510480545461177825927734375" lon="19.8933426104485988616943359375">
        <ele>1728.199951171875</ele>
        <time>2026-06-17T12:20:39.000Z</time>
        <extensions>
          <ns3:TrackPointExtension>
            <ns3:atemp>20.0</ns3:atemp>
          </ns3:TrackPointExtension>
        </extensions>
      </trkpt>
      <trkpt lat="42.510480545461177825927734375" lon="19.8933426104485988616943359375">
        <ele>1728.4000244140625</ele>
        <time>2026-06-17T12:20:40.000Z</time>
        <extensions>
          <ns3:TrackPointExtension>
            <ns3:atemp>20.0</ns3:atemp>
          </ns3:TrackPointExtension>
        </extensions>
      </trkpt>
      <trkpt lat="42.510480545461177825927734375" lon="19.8933426104485988616943359375">
        <ele>1728.4000244140625</ele>
        <time>2026-06-17T12:20:41.000Z</time>
        <extensions>
          <ns3:TrackPointExtension>
            <ns3:atemp>20.0</ns3:atemp>
          </ns3:TrackPointExtension>
        </extensions>
      </trkpt>
      <trkpt lat="42.510480545461177825927734375" lon="19.8933426104485988616943359375">
        <ele>1728.199951171875</ele>
        <time>2026-06-17T12:20:42.000Z</time>
        <extensions>
          <ns3:TrackPointExtension>
            <ns3:atemp>20.0</ns3:atemp>
          </ns3:TrackPointExtension>
        </extensions>
      </trkpt>
      <trkpt lat="42.510480545461177825927734375" lon="19.8933426104485988616943359375">
        <ele>1728.199951171875</ele>
        <time>2026-06-17T12:20:43.000Z</time>
        <extensions>
          <ns3:TrackPointExtension>
            <ns3:atemp>20.0</ns3:atemp>
          </ns3:TrackPointExtension>
        </extensions>
      </trkpt>
      <trkpt lat="42.510480545461177825927734375" lon="19.8933426104485988616943359375">
        <ele>1728.199951171875</ele>
        <time>2026-06-17T12:20:44.000Z</time>
        <extensions>
          <ns3:TrackPointExtension>
            <ns3:atemp>20.0</ns3:atemp>
          </ns3:TrackPointExtension>
        </extensions>
      </trkpt>
      <trkpt lat="42.510480545461177825927734375" lon="19.8933426104485988616943359375">
        <ele>1728.199951171875</ele>
        <time>2026-06-17T12:20:45.000Z</time>
        <extensions>
          <ns3:TrackPointExtension>
            <ns3:atemp>20.0</ns3:atemp>
          </ns3:TrackPointExtension>
        </extensions>
      </trkpt>
      <trkpt lat="42.510480545461177825927734375" lon="19.8933426104485988616943359375">
        <ele>1728.199951171875</ele>
        <time>2026-06-17T12:20:46.000Z</time>
        <extensions>
          <ns3:TrackPointExtension>
            <ns3:atemp>20.0</ns3:atemp>
          </ns3:TrackPointExtension>
        </extensions>
      </trkpt>
      <trkpt lat="42.510480545461177825927734375" lon="19.8933426104485988616943359375">
        <ele>1728.199951171875</ele>
        <time>2026-06-17T12:20:47.000Z</time>
        <extensions>
          <ns3:TrackPointExtension>
            <ns3:atemp>20.0</ns3:atemp>
          </ns3:TrackPointExtension>
        </extensions>
      </trkpt>
      <trkpt lat="42.510480545461177825927734375" lon="19.8933426104485988616943359375">
        <ele>1728.199951171875</ele>
        <time>2026-06-17T12:20:48.000Z</time>
        <extensions>
          <ns3:TrackPointExtension>
            <ns3:atemp>20.0</ns3:atemp>
          </ns3:TrackPointExtension>
        </extensions>
      </trkpt>
      <trkpt lat="42.510480545461177825927734375" lon="19.8933426104485988616943359375">
        <ele>1728.199951171875</ele>
        <time>2026-06-17T12:20:49.000Z</time>
        <extensions>
          <ns3:TrackPointExtension>
            <ns3:atemp>20.0</ns3:atemp>
          </ns3:TrackPointExtension>
        </extensions>
      </trkpt>
      <trkpt lat="42.510480545461177825927734375" lon="19.8933426104485988616943359375">
        <ele>1728.199951171875</ele>
        <time>2026-06-17T12:20:50.000Z</time>
        <extensions>
          <ns3:TrackPointExtension>
            <ns3:atemp>20.0</ns3:atemp>
          </ns3:TrackPointExtension>
        </extensions>
      </trkpt>
      <trkpt lat="42.510480545461177825927734375" lon="19.8933426104485988616943359375">
        <ele>1728.199951171875</ele>
        <time>2026-06-17T12:20:51.000Z</time>
        <extensions>
          <ns3:TrackPointExtension>
            <ns3:atemp>20.0</ns3:atemp>
          </ns3:TrackPointExtension>
        </extensions>
      </trkpt>
      <trkpt lat="42.510480545461177825927734375" lon="19.8933426104485988616943359375">
        <ele>1728.199951171875</ele>
        <time>2026-06-17T12:20:52.000Z</time>
        <extensions>
          <ns3:TrackPointExtension>
            <ns3:atemp>20.0</ns3:atemp>
          </ns3:TrackPointExtension>
        </extensions>
      </trkpt>
      <trkpt lat="42.510480545461177825927734375" lon="19.8933426104485988616943359375">
        <ele>1728.199951171875</ele>
        <time>2026-06-17T12:20:53.000Z</time>
        <extensions>
          <ns3:TrackPointExtension>
            <ns3:atemp>20.0</ns3:atemp>
          </ns3:TrackPointExtension>
        </extensions>
      </trkpt>
      <trkpt lat="42.510480545461177825927734375" lon="19.8933426104485988616943359375">
        <ele>1728.199951171875</ele>
        <time>2026-06-17T12:20:54.000Z</time>
        <extensions>
          <ns3:TrackPointExtension>
            <ns3:atemp>20.0</ns3:atemp>
          </ns3:TrackPointExtension>
        </extensions>
      </trkpt>
      <trkpt lat="42.510480545461177825927734375" lon="19.8933426104485988616943359375">
        <ele>1728.199951171875</ele>
        <time>2026-06-17T12:20:55.000Z</time>
        <extensions>
          <ns3:TrackPointExtension>
            <ns3:atemp>20.0</ns3:atemp>
          </ns3:TrackPointExtension>
        </extensions>
      </trkpt>
      <trkpt lat="42.510480545461177825927734375" lon="19.8933426104485988616943359375">
        <ele>1728.199951171875</ele>
        <time>2026-06-17T12:20:56.000Z</time>
        <extensions>
          <ns3:TrackPointExtension>
            <ns3:atemp>20.0</ns3:atemp>
          </ns3:TrackPointExtension>
        </extensions>
      </trkpt>
      <trkpt lat="42.510480545461177825927734375" lon="19.8933426104485988616943359375">
        <ele>1728.199951171875</ele>
        <time>2026-06-17T12:20:57.000Z</time>
        <extensions>
          <ns3:TrackPointExtension>
            <ns3:atemp>20.0</ns3:atemp>
          </ns3:TrackPointExtension>
        </extensions>
      </trkpt>
      <trkpt lat="42.510480545461177825927734375" lon="19.8933426104485988616943359375">
        <ele>1728.199951171875</ele>
        <time>2026-06-17T12:20:58.000Z</time>
        <extensions>
          <ns3:TrackPointExtension>
            <ns3:atemp>20.0</ns3:atemp>
          </ns3:TrackPointExtension>
        </extensions>
      </trkpt>
      <trkpt lat="42.510480545461177825927734375" lon="19.8933426104485988616943359375">
        <ele>1728.199951171875</ele>
        <time>2026-06-17T12:20:59.000Z</time>
        <extensions>
          <ns3:TrackPointExtension>
            <ns3:atemp>20.0</ns3:atemp>
          </ns3:TrackPointExtension>
        </extensions>
      </trkpt>
      <trkpt lat="42.510480545461177825927734375" lon="19.8933426104485988616943359375">
        <ele>1728.199951171875</ele>
        <time>2026-06-17T12:21:00.000Z</time>
        <extensions>
          <ns3:TrackPointExtension>
            <ns3:atemp>20.0</ns3:atemp>
          </ns3:TrackPointExtension>
        </extensions>
      </trkpt>
      <trkpt lat="42.510480545461177825927734375" lon="19.8933426104485988616943359375">
        <ele>1728.199951171875</ele>
        <time>2026-06-17T12:21:01.000Z</time>
        <extensions>
          <ns3:TrackPointExtension>
            <ns3:atemp>20.0</ns3:atemp>
          </ns3:TrackPointExtension>
        </extensions>
      </trkpt>
      <trkpt lat="42.510480545461177825927734375" lon="19.8933426104485988616943359375">
        <ele>1728.199951171875</ele>
        <time>2026-06-17T12:21:02.000Z</time>
        <extensions>
          <ns3:TrackPointExtension>
            <ns3:atemp>20.0</ns3:atemp>
          </ns3:TrackPointExtension>
        </extensions>
      </trkpt>
      <trkpt lat="42.510480545461177825927734375" lon="19.8933426104485988616943359375">
        <ele>1728.199951171875</ele>
        <time>2026-06-17T12:21:03.000Z</time>
        <extensions>
          <ns3:TrackPointExtension>
            <ns3:atemp>20.0</ns3:atemp>
          </ns3:TrackPointExtension>
        </extensions>
      </trkpt>
      <trkpt lat="42.510480545461177825927734375" lon="19.8933426104485988616943359375">
        <ele>1728.199951171875</ele>
        <time>2026-06-17T12:21:04.000Z</time>
        <extensions>
          <ns3:TrackPointExtension>
            <ns3:atemp>20.0</ns3:atemp>
          </ns3:TrackPointExtension>
        </extensions>
      </trkpt>
      <trkpt lat="42.510480545461177825927734375" lon="19.8933426104485988616943359375">
        <ele>1728</ele>
        <time>2026-06-17T12:21:05.000Z</time>
        <extensions>
          <ns3:TrackPointExtension>
            <ns3:atemp>20.0</ns3:atemp>
          </ns3:TrackPointExtension>
        </extensions>
      </trkpt>
      <trkpt lat="42.510480545461177825927734375" lon="19.8933426104485988616943359375">
        <ele>1728</ele>
        <time>2026-06-17T12:21:06.000Z</time>
        <extensions>
          <ns3:TrackPointExtension>
            <ns3:atemp>20.0</ns3:atemp>
          </ns3:TrackPointExtension>
        </extensions>
      </trkpt>
      <trkpt lat="42.510480545461177825927734375" lon="19.8933426104485988616943359375">
        <ele>1728.199951171875</ele>
        <time>2026-06-17T12:21:07.000Z</time>
        <extensions>
          <ns3:TrackPointExtension>
            <ns3:atemp>20.0</ns3:atemp>
          </ns3:TrackPointExtension>
        </extensions>
      </trkpt>
      <trkpt lat="42.510480545461177825927734375" lon="19.8933426104485988616943359375">
        <ele>1728</ele>
        <time>2026-06-17T12:21:08.000Z</time>
        <extensions>
          <ns3:TrackPointExtension>
            <ns3:atemp>20.0</ns3:atemp>
          </ns3:TrackPointExtension>
        </extensions>
      </trkpt>
      <trkpt lat="42.510480545461177825927734375" lon="19.8933426104485988616943359375">
        <ele>1728</ele>
        <time>2026-06-17T12:21:09.000Z</time>
        <extensions>
          <ns3:TrackPointExtension>
            <ns3:atemp>20.0</ns3:atemp>
          </ns3:TrackPointExtension>
        </extensions>
      </trkpt>
      <trkpt lat="42.510480545461177825927734375" lon="19.8933426104485988616943359375">
        <ele>1728</ele>
        <time>2026-06-17T12:21:10.000Z</time>
        <extensions>
          <ns3:TrackPointExtension>
            <ns3:atemp>20.0</ns3:atemp>
          </ns3:TrackPointExtension>
        </extensions>
      </trkpt>
      <trkpt lat="42.510480545461177825927734375" lon="19.8933426104485988616943359375">
        <ele>1728</ele>
        <time>2026-06-17T12:21:11.000Z</time>
        <extensions>
          <ns3:TrackPointExtension>
            <ns3:atemp>20.0</ns3:atemp>
          </ns3:TrackPointExtension>
        </extensions>
      </trkpt>
      <trkpt lat="42.5104808807373046875" lon="19.89334202371537685394287109375">
        <ele>1728</ele>
        <time>2026-06-17T12:21:12.000Z</time>
        <extensions>
          <ns3:TrackPointExtension>
            <ns3:atemp>20.0</ns3:atemp>
          </ns3:TrackPointExtension>
        </extensions>
      </trkpt>
      <trkpt lat="42.51048331148922443389892578125" lon="19.893337078392505645751953125">
        <ele>1728</ele>
        <time>2026-06-17T12:21:13.000Z</time>
        <extensions>
          <ns3:TrackPointExtension>
            <ns3:atemp>20.0</ns3:atemp>
          </ns3:TrackPointExtension>
        </extensions>
      </trkpt>
      <trkpt lat="42.510480545461177825927734375" lon="19.8933426104485988616943359375">
        <ele>1728</ele>
        <time>2026-06-17T12:21:14.000Z</time>
        <extensions>
          <ns3:TrackPointExtension>
            <ns3:atemp>20.0</ns3:atemp>
          </ns3:TrackPointExtension>
        </extensions>
      </trkpt>
      <trkpt lat="42.510480545461177825927734375" lon="19.8933426104485988616943359375">
        <ele>1728</ele>
        <time>2026-06-17T12:21:15.000Z</time>
        <extensions>
          <ns3:TrackPointExtension>
            <ns3:atemp>20.0</ns3:atemp>
          </ns3:TrackPointExtension>
        </extensions>
      </trkpt>
      <trkpt lat="42.510480545461177825927734375" lon="19.8933426104485988616943359375">
        <ele>1728</ele>
        <time>2026-06-17T12:21:16.000Z</time>
        <extensions>
          <ns3:TrackPointExtension>
            <ns3:atemp>20.0</ns3:atemp>
          </ns3:TrackPointExtension>
        </extensions>
      </trkpt>
      <trkpt lat="42.510480545461177825927734375" lon="19.8933426104485988616943359375">
        <ele>1728</ele>
        <time>2026-06-17T12:21:17.000Z</time>
        <extensions>
          <ns3:TrackPointExtension>
            <ns3:atemp>20.0</ns3:atemp>
          </ns3:TrackPointExtension>
        </extensions>
      </trkpt>
      <trkpt lat="42.510480545461177825927734375" lon="19.8933426104485988616943359375">
        <ele>1727.800048828125</ele>
        <time>2026-06-17T12:21:18.000Z</time>
        <extensions>
          <ns3:TrackPointExtension>
            <ns3:atemp>20.0</ns3:atemp>
          </ns3:TrackPointExtension>
        </extensions>
      </trkpt>
      <trkpt lat="42.510480545461177825927734375" lon="19.8933426104485988616943359375">
        <ele>1728</ele>
        <time>2026-06-17T12:21:19.000Z</time>
        <extensions>
          <ns3:TrackPointExtension>
            <ns3:atemp>20.0</ns3:atemp>
          </ns3:TrackPointExtension>
        </extensions>
      </trkpt>
      <trkpt lat="42.510480545461177825927734375" lon="19.8933426104485988616943359375">
        <ele>1728</ele>
        <time>2026-06-17T12:21:20.000Z</time>
        <extensions>
          <ns3:TrackPointExtension>
            <ns3:atemp>20.0</ns3:atemp>
          </ns3:TrackPointExtension>
        </extensions>
      </trkpt>
      <trkpt lat="42.510480545461177825927734375" lon="19.8933426104485988616943359375">
        <ele>1728</ele>
        <time>2026-06-17T12:21:21.000Z</time>
        <extensions>
          <ns3:TrackPointExtension>
            <ns3:atemp>20.0</ns3:atemp>
          </ns3:TrackPointExtension>
        </extensions>
      </trkpt>
      <trkpt lat="42.510480545461177825927734375" lon="19.8933426104485988616943359375">
        <ele>1727.800048828125</ele>
        <time>2026-06-17T12:21:22.000Z</time>
        <extensions>
          <ns3:TrackPointExtension>
            <ns3:atemp>20.0</ns3:atemp>
          </ns3:TrackPointExtension>
        </extensions>
      </trkpt>
      <trkpt lat="42.510480545461177825927734375" lon="19.8933426104485988616943359375">
        <ele>1727.800048828125</ele>
        <time>2026-06-17T12:21:23.000Z</time>
        <extensions>
          <ns3:TrackPointExtension>
            <ns3:atemp>20.0</ns3:atemp>
          </ns3:TrackPointExtension>
        </extensions>
      </trkpt>
      <trkpt lat="42.510480545461177825927734375" lon="19.8933426104485988616943359375">
        <ele>1727.800048828125</ele>
        <time>2026-06-17T12:21:24.000Z</time>
        <extensions>
          <ns3:TrackPointExtension>
            <ns3:atemp>20.0</ns3:atemp>
          </ns3:TrackPointExtension>
        </extensions>
      </trkpt>
      <trkpt lat="42.510480545461177825927734375" lon="19.8933426104485988616943359375">
        <ele>1727.800048828125</ele>
        <time>2026-06-17T12:21:25.000Z</time>
        <extensions>
          <ns3:TrackPointExtension>
            <ns3:atemp>20.0</ns3:atemp>
          </ns3:TrackPointExtension>
        </extensions>
      </trkpt>
      <trkpt lat="42.510480545461177825927734375" lon="19.8933426104485988616943359375">
        <ele>1727.800048828125</ele>
        <time>2026-06-17T12:21:26.000Z</time>
        <extensions>
          <ns3:TrackPointExtension>
            <ns3:atemp>20.0</ns3:atemp>
          </ns3:TrackPointExtension>
        </extensions>
      </trkpt>
      <trkpt lat="42.5104857422411441802978515625" lon="19.89333900623023509979248046875">
        <ele>1727.800048828125</ele>
        <time>2026-06-17T12:21:27.000Z</time>
        <extensions>
          <ns3:TrackPointExtension>
            <ns3:atemp>20.0</ns3:atemp>
          </ns3:TrackPointExtension>
        </extensions>
      </trkpt>
      <trkpt lat="42.51049001701176166534423828125" lon="19.89334386773407459259033203125">
        <ele>1728</ele>
        <time>2026-06-17T12:21:28.000Z</time>
        <extensions>
          <ns3:TrackPointExtension>
            <ns3:atemp>20.0</ns3:atemp>
          </ns3:TrackPointExtension>
        </extensions>
      </trkpt>
      <trkpt lat="42.51049320213496685028076171875" lon="19.89334068261086940765380859375">
        <ele>1728</ele>
        <time>2026-06-17T12:21:29.000Z</time>
        <extensions>
          <ns3:TrackPointExtension>
            <ns3:atemp>20.0</ns3:atemp>
          </ns3:TrackPointExtension>
        </extensions>
      </trkpt>
      <trkpt lat="42.510500662028789520263671875" lon="19.89333699457347393035888671875">
        <ele>1728</ele>
        <time>2026-06-17T12:21:30.000Z</time>
        <extensions>
          <ns3:TrackPointExtension>
            <ns3:atemp>20.0</ns3:atemp>
          </ns3:TrackPointExtension>
        </extensions>
      </trkpt>
      <trkpt lat="42.510510385036468505859375" lon="19.8933318816125392913818359375">
        <ele>1728</ele>
        <time>2026-06-17T12:21:31.000Z</time>
        <extensions>
          <ns3:TrackPointExtension>
            <ns3:atemp>20.0</ns3:atemp>
          </ns3:TrackPointExtension>
        </extensions>
      </trkpt>
      <trkpt lat="42.510516084730625152587890625" lon="19.89333012141287326812744140625">
        <ele>1727.800048828125</ele>
        <time>2026-06-17T12:21:32.000Z</time>
        <extensions>
          <ns3:TrackPointExtension>
            <ns3:atemp>20.0</ns3:atemp>
          </ns3:TrackPointExtension>
        </extensions>
      </trkpt>
      <trkpt lat="42.5105246342718601226806640625" lon="19.89332140423357486724853515625">
        <ele>1727.800048828125</ele>
        <time>2026-06-17T12:21:33.000Z</time>
        <extensions>
          <ns3:TrackPointExtension>
            <ns3:atemp>20.0</ns3:atemp>
          </ns3:TrackPointExtension>
        </extensions>
      </trkpt>
      <trkpt lat="42.51053511165082454681396484375" lon="19.89331587217748165130615234375">
        <ele>1727.5999755859375</ele>
        <time>2026-06-17T12:21:34.000Z</time>
        <extensions>
          <ns3:TrackPointExtension>
            <ns3:atemp>20.0</ns3:atemp>
          </ns3:TrackPointExtension>
        </extensions>
      </trkpt>
      <trkpt lat="42.5105393864214420318603515625" lon="19.89329827018082141876220703125">
        <ele>1727.4000244140625</ele>
        <time>2026-06-17T12:21:35.000Z</time>
        <extensions>
          <ns3:TrackPointExtension>
            <ns3:atemp>20.0</ns3:atemp>
          </ns3:TrackPointExtension>
        </extensions>
      </trkpt>
      <trkpt lat="42.510547935962677001953125" lon="19.893280752003192901611328125">
        <ele>1727.199951171875</ele>
        <time>2026-06-17T12:21:36.000Z</time>
        <extensions>
          <ns3:TrackPointExtension>
            <ns3:atemp>20.0</ns3:atemp>
          </ns3:TrackPointExtension>
        </extensions>
      </trkpt>
      <trkpt lat="42.51055271364748477935791015625" lon="19.89326633512973785400390625">
        <ele>1727</ele>
        <time>2026-06-17T12:21:37.000Z</time>
        <extensions>
          <ns3:TrackPointExtension>
            <ns3:atemp>20.0</ns3:atemp>
          </ns3:TrackPointExtension>
        </extensions>
      </trkpt>
      <trkpt lat="42.510554976761341094970703125" lon="19.8932678438723087310791015625">
        <ele>1726.800048828125</ele>
        <time>2026-06-17T12:21:38.000Z</time>
        <extensions>
          <ns3:TrackPointExtension>
            <ns3:atemp>20.0</ns3:atemp>
          </ns3:TrackPointExtension>
        </extensions>
      </trkpt>
      <trkpt lat="42.510554976761341094970703125" lon="19.89326792769134044647216796875">
        <ele>1726.800048828125</ele>
        <time>2026-06-17T12:21:39.000Z</time>
        <extensions>
          <ns3:TrackPointExtension>
            <ns3:atemp>20.0</ns3:atemp>
          </ns3:TrackPointExtension>
        </extensions>
      </trkpt>
      <trkpt lat="42.510554976761341094970703125" lon="19.893268011510372161865234375">
        <ele>1726.5999755859375</ele>
        <time>2026-06-17T12:21:40.000Z</time>
        <extensions>
          <ns3:TrackPointExtension>
            <ns3:atemp>20.0</ns3:atemp>
          </ns3:TrackPointExtension>
        </extensions>
      </trkpt>
      <trkpt lat="42.510547935962677001953125" lon="19.8932594619691371917724609375">
        <ele>1726.5999755859375</ele>
        <time>2026-06-17T12:21:41.000Z</time>
        <extensions>
          <ns3:TrackPointExtension>
            <ns3:atemp>20.0</ns3:atemp>
          </ns3:TrackPointExtension>
        </extensions>
      </trkpt>
      <trkpt lat="42.510544918477535247802734375" lon="19.8932564444839954376220703125">
        <ele>1726.4000244140625</ele>
        <time>2026-06-17T12:21:42.000Z</time>
        <extensions>
          <ns3:TrackPointExtension>
            <ns3:atemp>20.0</ns3:atemp>
          </ns3:TrackPointExtension>
        </extensions>
      </trkpt>
      <trkpt lat="42.51053913496434688568115234375" lon="19.89325585775077342987060546875">
        <ele>1726.4000244140625</ele>
        <time>2026-06-17T12:21:43.000Z</time>
        <extensions>
          <ns3:TrackPointExtension>
            <ns3:atemp>20.0</ns3:atemp>
          </ns3:TrackPointExtension>
        </extensions>
      </trkpt>
      <trkpt lat="42.510530836880207061767578125" lon="19.89325552247464656829833984375">
        <ele>1726.199951171875</ele>
        <time>2026-06-17T12:21:44.000Z</time>
        <extensions>
          <ns3:TrackPointExtension>
            <ns3:atemp>20.0</ns3:atemp>
          </ns3:TrackPointExtension>
        </extensions>
      </trkpt>
      <trkpt lat="42.510523460805416107177734375" lon="19.89325602538883686065673828125">
        <ele>1726.199951171875</ele>
        <time>2026-06-17T12:21:45.000Z</time>
        <extensions>
          <ns3:TrackPointExtension>
            <ns3:atemp>20.0</ns3:atemp>
          </ns3:TrackPointExtension>
        </extensions>
      </trkpt>
      <trkpt lat="42.51052220351994037628173828125" lon="19.89325962960720062255859375">
        <ele>1726</ele>
        <time>2026-06-17T12:21:46.000Z</time>
        <extensions>
          <ns3:TrackPointExtension>
            <ns3:atemp>20.0</ns3:atemp>
          </ns3:TrackPointExtension>
        </extensions>
      </trkpt>
      <trkpt lat="42.5105222873389720916748046875" lon="19.89325988106429576873779296875">
        <ele>1726</ele>
        <time>2026-06-17T12:21:47.000Z</time>
        <extensions>
          <ns3:TrackPointExtension>
            <ns3:atemp>20.0</ns3:atemp>
          </ns3:TrackPointExtension>
        </extensions>
      </trkpt>
      <trkpt lat="42.5105222873389720916748046875" lon="19.89325988106429576873779296875">
        <ele>1726</ele>
        <time>2026-06-17T12:21:48.000Z</time>
        <extensions>
          <ns3:TrackPointExtension>
            <ns3:atemp>20.0</ns3:atemp>
          </ns3:TrackPointExtension>
        </extensions>
      </trkpt>
      <trkpt lat="42.5105222873389720916748046875" lon="19.89325988106429576873779296875">
        <ele>1725.800048828125</ele>
        <time>2026-06-17T12:21:49.000Z</time>
        <extensions>
          <ns3:TrackPointExtension>
            <ns3:atemp>20.0</ns3:atemp>
          </ns3:TrackPointExtension>
        </extensions>
      </trkpt>
      <trkpt lat="42.51052237115800380706787109375" lon="19.893260635435581207275390625">
        <ele>1725.800048828125</ele>
        <time>2026-06-17T12:21:50.000Z</time>
        <extensions>
          <ns3:TrackPointExtension>
            <ns3:atemp>20.0</ns3:atemp>
          </ns3:TrackPointExtension>
        </extensions>
      </trkpt>
      <trkpt lat="42.51050845719873905181884765625" lon="19.8932735435664653778076171875">
        <ele>1725.5999755859375</ele>
        <time>2026-06-17T12:21:51.000Z</time>
        <extensions>
          <ns3:TrackPointExtension>
            <ns3:atemp>20.0</ns3:atemp>
          </ns3:TrackPointExtension>
        </extensions>
      </trkpt>
      <trkpt lat="42.51049236394464969635009765625" lon="19.89327580668032169342041015625">
        <ele>1725.5999755859375</ele>
        <time>2026-06-17T12:21:52.000Z</time>
        <extensions>
          <ns3:TrackPointExtension>
            <ns3:atemp>20.0</ns3:atemp>
          </ns3:TrackPointExtension>
        </extensions>
      </trkpt>
      <trkpt lat="42.51047710888087749481201171875" lon="19.8932628147304058074951171875">
        <ele>1725.4000244140625</ele>
        <time>2026-06-17T12:21:53.000Z</time>
        <extensions>
          <ns3:TrackPointExtension>
            <ns3:atemp>20.0</ns3:atemp>
          </ns3:TrackPointExtension>
        </extensions>
      </trkpt>
      <trkpt lat="42.51047459430992603302001953125" lon="19.8932463862001895904541015625">
        <ele>1725.199951171875</ele>
        <time>2026-06-17T12:21:54.000Z</time>
        <extensions>
          <ns3:TrackPointExtension>
            <ns3:atemp>20.0</ns3:atemp>
          </ns3:TrackPointExtension>
        </extensions>
      </trkpt>
      <trkpt lat="42.510479204356670379638671875" lon="19.89322819747030735015869140625">
        <ele>1725</ele>
        <time>2026-06-17T12:21:55.000Z</time>
        <extensions>
          <ns3:TrackPointExtension>
            <ns3:atemp>20.0</ns3:atemp>
          </ns3:TrackPointExtension>
        </extensions>
      </trkpt>
      <trkpt lat="42.51049420796334743499755859375" lon="19.89319936372339725494384765625">
        <ele>1724.800048828125</ele>
        <time>2026-06-17T12:21:56.000Z</time>
        <extensions>
          <ns3:TrackPointExtension>
            <ns3:atemp>20.0</ns3:atemp>
          </ns3:TrackPointExtension>
        </extensions>
      </trkpt>
      <trkpt lat="42.5105192698538303375244140625" lon="19.8931843601167201995849609375">
        <ele>1724.4000244140625</ele>
        <time>2026-06-17T12:21:57.000Z</time>
        <extensions>
          <ns3:TrackPointExtension>
            <ns3:atemp>20.0</ns3:atemp>
          </ns3:TrackPointExtension>
        </extensions>
      </trkpt>
      <trkpt lat="42.51054349355399608612060546875" lon="19.8931605555117130279541015625">
        <ele>1724.199951171875</ele>
        <time>2026-06-17T12:21:58.000Z</time>
        <extensions>
          <ns3:TrackPointExtension>
            <ns3:atemp>20.0</ns3:atemp>
          </ns3:TrackPointExtension>
        </extensions>
      </trkpt>
      <trkpt lat="42.51057283021509647369384765625" lon="19.893134571611881256103515625">
        <ele>1723.800048828125</ele>
        <time>2026-06-17T12:21:59.000Z</time>
        <extensions>
          <ns3:TrackPointExtension>
            <ns3:atemp>20.0</ns3:atemp>
          </ns3:TrackPointExtension>
        </extensions>
      </trkpt>
      <trkpt lat="42.5106051005423069000244140625" lon="19.89311738871037960052490234375">
        <ele>1723.4000244140625</ele>
        <time>2026-06-17T12:22:00.000Z</time>
        <extensions>
          <ns3:TrackPointExtension>
            <ns3:atemp>20.0</ns3:atemp>
          </ns3:TrackPointExtension>
        </extensions>
      </trkpt>
      <trkpt lat="42.510635443031787872314453125" lon="19.89311076700687408447265625">
        <ele>1723</ele>
        <time>2026-06-17T12:22:01.000Z</time>
        <extensions>
          <ns3:TrackPointExtension>
            <ns3:atemp>20.0</ns3:atemp>
          </ns3:TrackPointExtension>
        </extensions>
      </trkpt>
      <trkpt lat="42.5106604211032390594482421875" lon="19.89310414530336856842041015625">
        <ele>1722.5999755859375</ele>
        <time>2026-06-17T12:22:02.000Z</time>
        <extensions>
          <ns3:TrackPointExtension>
            <ns3:atemp>20.0</ns3:atemp>
          </ns3:TrackPointExtension>
        </extensions>
      </trkpt>
      <trkpt lat="42.51068313606083393096923828125" lon="19.8930995352566242218017578125">
        <ele>1722.199951171875</ele>
        <time>2026-06-17T12:22:03.000Z</time>
        <extensions>
          <ns3:TrackPointExtension>
            <ns3:atemp>20.0</ns3:atemp>
          </ns3:TrackPointExtension>
        </extensions>
      </trkpt>
      <trkpt lat="42.5106899254024028778076171875" lon="19.89308972842991352081298828125">
        <ele>1721.800048828125</ele>
        <time>2026-06-17T12:22:04.000Z</time>
        <extensions>
          <ns3:TrackPointExtension>
            <ns3:atemp>20.0</ns3:atemp>
          </ns3:TrackPointExtension>
        </extensions>
      </trkpt>
      <trkpt lat="42.51069352962076663970947265625" lon="19.8930804245173931121826171875">
        <ele>1721.5999755859375</ele>
        <time>2026-06-17T12:22:05.000Z</time>
        <extensions>
          <ns3:TrackPointExtension>
            <ns3:atemp>20.0</ns3:atemp>
          </ns3:TrackPointExtension>
        </extensions>
      </trkpt>
      <trkpt lat="42.510695792734622955322265625" lon="19.8930673487484455108642578125">
        <ele>1721.199951171875</ele>
        <time>2026-06-17T12:22:06.000Z</time>
        <extensions>
          <ns3:TrackPointExtension>
            <ns3:atemp>20.0</ns3:atemp>
          </ns3:TrackPointExtension>
        </extensions>
      </trkpt>
      <trkpt lat="42.510693781077861785888671875" lon="19.8930512554943561553955078125">
        <ele>1720.800048828125</ele>
        <time>2026-06-17T12:22:07.000Z</time>
        <extensions>
          <ns3:TrackPointExtension>
            <ns3:atemp>20.0</ns3:atemp>
          </ns3:TrackPointExtension>
        </extensions>
      </trkpt>
      <trkpt lat="42.51068280078470706939697265625" lon="19.893034659326076507568359375">
        <ele>1720.5999755859375</ele>
        <time>2026-06-17T12:22:08.000Z</time>
        <extensions>
          <ns3:TrackPointExtension>
            <ns3:atemp>20.0</ns3:atemp>
          </ns3:TrackPointExtension>
        </extensions>
      </trkpt>
      <trkpt lat="42.51067810691893100738525390625" lon="19.893019236624240875244140625">
        <ele>1720.199951171875</ele>
        <time>2026-06-17T12:22:09.000Z</time>
        <extensions>
          <ns3:TrackPointExtension>
            <ns3:atemp>20.0</ns3:atemp>
          </ns3:TrackPointExtension>
        </extensions>
      </trkpt>
      <trkpt lat="42.5106802023947238922119140625" lon="19.89299367181956768035888671875">
        <ele>1719.800048828125</ele>
        <time>2026-06-17T12:22:10.000Z</time>
        <extensions>
          <ns3:TrackPointExtension>
            <ns3:atemp>20.0</ns3:atemp>
          </ns3:TrackPointExtension>
        </extensions>
      </trkpt>
      <trkpt lat="42.51067626290023326873779296875" lon="19.89296684972941875457763671875">
        <ele>1719.199951171875</ele>
        <time>2026-06-17T12:22:11.000Z</time>
        <extensions>
          <ns3:TrackPointExtension>
            <ns3:atemp>20.0</ns3:atemp>
          </ns3:TrackPointExtension>
        </extensions>
      </trkpt>
      <trkpt lat="42.51068045385181903839111328125" lon="19.892930723726749420166015625">
        <ele>1718.800048828125</ele>
        <time>2026-06-17T12:22:12.000Z</time>
        <extensions>
          <ns3:TrackPointExtension>
            <ns3:atemp>20.0</ns3:atemp>
          </ns3:TrackPointExtension>
        </extensions>
      </trkpt>
      <trkpt lat="42.51069000922143459320068359375" lon="19.8929154686629772186279296875">
        <ele>1718</ele>
        <time>2026-06-17T12:22:13.000Z</time>
        <extensions>
          <ns3:TrackPointExtension>
            <ns3:atemp>20.0</ns3:atemp>
          </ns3:TrackPointExtension>
        </extensions>
      </trkpt>
      <trkpt lat="42.510711215436458587646484375" lon="19.89290281198918819427490234375">
        <ele>1717.5999755859375</ele>
        <time>2026-06-17T12:22:14.000Z</time>
        <extensions>
          <ns3:TrackPointExtension>
            <ns3:atemp>20.0</ns3:atemp>
          </ns3:TrackPointExtension>
        </extensions>
      </trkpt>
      <trkpt lat="42.5107343494892120361328125" lon="19.8928829468786716461181640625">
        <ele>1717</ele>
        <time>2026-06-17T12:22:15.000Z</time>
        <extensions>
          <ns3:TrackPointExtension>
            <ns3:atemp>20.0</ns3:atemp>
          </ns3:TrackPointExtension>
        </extensions>
      </trkpt>
      <trkpt lat="42.51075320877134799957275390625" lon="19.89285327494144439697265625">
        <ele>1716.4000244140625</ele>
        <time>2026-06-17T12:22:16.000Z</time>
        <extensions>
          <ns3:TrackPointExtension>
            <ns3:atemp>20.0</ns3:atemp>
          </ns3:TrackPointExtension>
        </extensions>
      </trkpt>
      <trkpt lat="42.51075647771358489990234375" lon="19.89281295798718929290771484375">
        <ele>1715.800048828125</ele>
        <time>2026-06-17T12:22:17.000Z</time>
        <extensions>
          <ns3:TrackPointExtension>
            <ns3:atemp>20.0</ns3:atemp>
          </ns3:TrackPointExtension>
        </extensions>
      </trkpt>
      <trkpt lat="42.5107432343065738677978515625" lon="19.892794601619243621826171875">
        <ele>1715.4000244140625</ele>
        <time>2026-06-17T12:22:18.000Z</time>
        <extensions>
          <ns3:TrackPointExtension>
            <ns3:atemp>20.0</ns3:atemp>
          </ns3:TrackPointExtension>
        </extensions>
      </trkpt>
      <trkpt lat="42.51073242165148258209228515625" lon="19.8928001336753368377685546875">
        <ele>1714.5999755859375</ele>
        <time>2026-06-17T12:22:19.000Z</time>
        <extensions>
          <ns3:TrackPointExtension>
            <ns3:atemp>20.0</ns3:atemp>
          </ns3:TrackPointExtension>
        </extensions>
      </trkpt>
      <trkpt lat="42.510712556540966033935546875" lon="19.89281144924461841583251953125">
        <ele>1714</ele>
        <time>2026-06-17T12:22:20.000Z</time>
        <extensions>
          <ns3:TrackPointExtension>
            <ns3:atemp>20.0</ns3:atemp>
          </ns3:TrackPointExtension>
        </extensions>
      </trkpt>
      <trkpt lat="42.51068833284080028533935546875" lon="19.89280859939754009246826171875">
        <ele>1713.4000244140625</ele>
        <time>2026-06-17T12:22:21.000Z</time>
        <extensions>
          <ns3:TrackPointExtension>
            <ns3:atemp>20.0</ns3:atemp>
          </ns3:TrackPointExtension>
        </extensions>
      </trkpt>
      <trkpt lat="42.510665953159332275390625" lon="19.892786554992198944091796875">
        <ele>1713</ele>
        <time>2026-06-17T12:22:22.000Z</time>
        <extensions>
          <ns3:TrackPointExtension>
            <ns3:atemp>20.0</ns3:atemp>
          </ns3:TrackPointExtension>
        </extensions>
      </trkpt>
      <trkpt lat="42.5106386281549930572509765625" lon="19.892775826156139373779296875">
        <ele>1712.5999755859375</ele>
        <time>2026-06-17T12:22:23.000Z</time>
        <extensions>
          <ns3:TrackPointExtension>
            <ns3:atemp>20.0</ns3:atemp>
          </ns3:TrackPointExtension>
        </extensions>
      </trkpt>
      <trkpt lat="42.51060836948454380035400390625" lon="19.892783202230930328369140625">
        <ele>1712</ele>
        <time>2026-06-17T12:22:24.000Z</time>
        <extensions>
          <ns3:TrackPointExtension>
            <ns3:atemp>20.0</ns3:atemp>
          </ns3:TrackPointExtension>
        </extensions>
      </trkpt>
      <trkpt lat="42.51058272086083889007568359375" lon="19.89279468543827533721923828125">
        <ele>1711.5999755859375</ele>
        <time>2026-06-17T12:22:25.000Z</time>
        <extensions>
          <ns3:TrackPointExtension>
            <ns3:atemp>20.0</ns3:atemp>
          </ns3:TrackPointExtension>
        </extensions>
      </trkpt>
      <trkpt lat="42.51056612469255924224853515625" lon="19.89279820583760738372802734375">
        <ele>1711.199951171875</ele>
        <time>2026-06-17T12:22:26.000Z</time>
        <extensions>
          <ns3:TrackPointExtension>
            <ns3:atemp>20.0</ns3:atemp>
          </ns3:TrackPointExtension>
        </extensions>
      </trkpt>
      <trkpt lat="42.51056696288287639617919921875" lon="19.89280642010271549224853515625">
        <ele>1711</ele>
        <time>2026-06-17T12:22:27.000Z</time>
        <extensions>
          <ns3:TrackPointExtension>
            <ns3:atemp>20.0</ns3:atemp>
          </ns3:TrackPointExtension>
        </extensions>
      </trkpt>
      <trkpt lat="42.5105678848922252655029296875" lon="19.89281178452074527740478515625">
        <ele>1710.800048828125</ele>
        <time>2026-06-17T12:22:28.000Z</time>
        <extensions>
          <ns3:TrackPointExtension>
            <ns3:atemp>20.0</ns3:atemp>
          </ns3:TrackPointExtension>
        </extensions>
      </trkpt>
      <trkpt lat="42.5105678848922252655029296875" lon="19.89281178452074527740478515625">
        <ele>1710.5999755859375</ele>
        <time>2026-06-17T12:22:29.000Z</time>
        <extensions>
          <ns3:TrackPointExtension>
            <ns3:atemp>20.0</ns3:atemp>
          </ns3:TrackPointExtension>
        </extensions>
      </trkpt>
      <trkpt lat="42.5105678848922252655029296875" lon="19.89281178452074527740478515625">
        <ele>1710.4000244140625</ele>
        <time>2026-06-17T12:22:30.000Z</time>
        <extensions>
          <ns3:TrackPointExtension>
            <ns3:atemp>20.0</ns3:atemp>
          </ns3:TrackPointExtension>
        </extensions>
      </trkpt>
      <trkpt lat="42.5105678848922252655029296875" lon="19.89281178452074527740478515625">
        <ele>1710.4000244140625</ele>
        <time>2026-06-17T12:22:31.000Z</time>
        <extensions>
          <ns3:TrackPointExtension>
            <ns3:atemp>20.0</ns3:atemp>
          </ns3:TrackPointExtension>
        </extensions>
      </trkpt>
      <trkpt lat="42.5105678848922252655029296875" lon="19.89281178452074527740478515625">
        <ele>1710.199951171875</ele>
        <time>2026-06-17T12:22:32.000Z</time>
        <extensions>
          <ns3:TrackPointExtension>
            <ns3:atemp>20.0</ns3:atemp>
          </ns3:TrackPointExtension>
        </extensions>
      </trkpt>
      <trkpt lat="42.5105678848922252655029296875" lon="19.89281178452074527740478515625">
        <ele>1710</ele>
        <time>2026-06-17T12:22:33.000Z</time>
        <extensions>
          <ns3:TrackPointExtension>
            <ns3:atemp>20.0</ns3:atemp>
          </ns3:TrackPointExtension>
        </extensions>
      </trkpt>
      <trkpt lat="42.5105678848922252655029296875" lon="19.89281178452074527740478515625">
        <ele>1709.800048828125</ele>
        <time>2026-06-17T12:22:34.000Z</time>
        <extensions>
          <ns3:TrackPointExtension>
            <ns3:atemp>20.0</ns3:atemp>
          </ns3:TrackPointExtension>
        </extensions>
      </trkpt>
      <trkpt lat="42.5105678848922252655029296875" lon="19.89281178452074527740478515625">
        <ele>1709.5999755859375</ele>
        <time>2026-06-17T12:22:35.000Z</time>
        <extensions>
          <ns3:TrackPointExtension>
            <ns3:atemp>20.0</ns3:atemp>
          </ns3:TrackPointExtension>
        </extensions>
      </trkpt>
      <trkpt lat="42.5105678848922252655029296875" lon="19.89281178452074527740478515625">
        <ele>1709.5999755859375</ele>
        <time>2026-06-17T12:22:36.000Z</time>
        <extensions>
          <ns3:TrackPointExtension>
            <ns3:atemp>20.0</ns3:atemp>
          </ns3:TrackPointExtension>
        </extensions>
      </trkpt>
      <trkpt lat="42.5105678848922252655029296875" lon="19.89281178452074527740478515625">
        <ele>1709.4000244140625</ele>
        <time>2026-06-17T12:22:37.000Z</time>
        <extensions>
          <ns3:TrackPointExtension>
            <ns3:atemp>20.0</ns3:atemp>
          </ns3:TrackPointExtension>
        </extensions>
      </trkpt>
      <trkpt lat="42.5105678848922252655029296875" lon="19.89281178452074527740478515625">
        <ele>1709.4000244140625</ele>
        <time>2026-06-17T12:22:38.000Z</time>
        <extensions>
          <ns3:TrackPointExtension>
            <ns3:atemp>20.0</ns3:atemp>
          </ns3:TrackPointExtension>
        </extensions>
      </trkpt>
      <trkpt lat="42.5105678848922252655029296875" lon="19.89281178452074527740478515625">
        <ele>1709.4000244140625</ele>
        <time>2026-06-17T12:22:39.000Z</time>
        <extensions>
          <ns3:TrackPointExtension>
            <ns3:atemp>20.0</ns3:atemp>
          </ns3:TrackPointExtension>
        </extensions>
      </trkpt>
      <trkpt lat="42.5105678848922252655029296875" lon="19.89281178452074527740478515625">
        <ele>1709.199951171875</ele>
        <time>2026-06-17T12:22:40.000Z</time>
        <extensions>
          <ns3:TrackPointExtension>
            <ns3:atemp>20.0</ns3:atemp>
          </ns3:TrackPointExtension>
        </extensions>
      </trkpt>
      <trkpt lat="42.5105678848922252655029296875" lon="19.89281178452074527740478515625">
        <ele>1709.199951171875</ele>
        <time>2026-06-17T12:22:41.000Z</time>
        <extensions>
          <ns3:TrackPointExtension>
            <ns3:atemp>20.0</ns3:atemp>
          </ns3:TrackPointExtension>
        </extensions>
      </trkpt>
      <trkpt lat="42.5105678848922252655029296875" lon="19.89281178452074527740478515625">
        <ele>1709</ele>
        <time>2026-06-17T12:22:42.000Z</time>
        <extensions>
          <ns3:TrackPointExtension>
            <ns3:atemp>20.0</ns3:atemp>
          </ns3:TrackPointExtension>
        </extensions>
      </trkpt>
      <trkpt lat="42.5105678848922252655029296875" lon="19.89281178452074527740478515625">
        <ele>1709</ele>
        <time>2026-06-17T12:22:43.000Z</time>
        <extensions>
          <ns3:TrackPointExtension>
            <ns3:atemp>20.0</ns3:atemp>
          </ns3:TrackPointExtension>
        </extensions>
      </trkpt>
      <trkpt lat="42.5105678848922252655029296875" lon="19.89281178452074527740478515625">
        <ele>1709</ele>
        <time>2026-06-17T12:22:44.000Z</time>
        <extensions>
          <ns3:TrackPointExtension>
            <ns3:atemp>20.0</ns3:atemp>
          </ns3:TrackPointExtension>
        </extensions>
      </trkpt>
      <trkpt lat="42.5105678848922252655029296875" lon="19.89281178452074527740478515625">
        <ele>1709</ele>
        <time>2026-06-17T12:22:45.000Z</time>
        <extensions>
          <ns3:TrackPointExtension>
            <ns3:atemp>20.0</ns3:atemp>
          </ns3:TrackPointExtension>
        </extensions>
      </trkpt>
      <trkpt lat="42.5105678848922252655029296875" lon="19.89281178452074527740478515625">
        <ele>1709</ele>
        <time>2026-06-17T12:22:46.000Z</time>
        <extensions>
          <ns3:TrackPointExtension>
            <ns3:atemp>20.0</ns3:atemp>
          </ns3:TrackPointExtension>
        </extensions>
      </trkpt>
      <trkpt lat="42.5105678848922252655029296875" lon="19.89281178452074527740478515625">
        <ele>1709</ele>
        <time>2026-06-17T12:22:47.000Z</time>
        <extensions>
          <ns3:TrackPointExtension>
            <ns3:atemp>20.0</ns3:atemp>
          </ns3:TrackPointExtension>
        </extensions>
      </trkpt>
      <trkpt lat="42.5105678848922252655029296875" lon="19.89281178452074527740478515625">
        <ele>1709</ele>
        <time>2026-06-17T12:22:48.000Z</time>
        <extensions>
          <ns3:TrackPointExtension>
            <ns3:atemp>20.0</ns3:atemp>
          </ns3:TrackPointExtension>
        </extensions>
      </trkpt>
      <trkpt lat="42.5105678848922252655029296875" lon="19.89281178452074527740478515625">
        <ele>1709</ele>
        <time>2026-06-17T12:22:49.000Z</time>
        <extensions>
          <ns3:TrackPointExtension>
            <ns3:atemp>20.0</ns3:atemp>
          </ns3:TrackPointExtension>
        </extensions>
      </trkpt>
      <trkpt lat="42.5105678848922252655029296875" lon="19.89281178452074527740478515625">
        <ele>1709</ele>
        <time>2026-06-17T12:22:50.000Z</time>
        <extensions>
          <ns3:TrackPointExtension>
            <ns3:atemp>20.0</ns3:atemp>
          </ns3:TrackPointExtension>
        </extensions>
      </trkpt>
      <trkpt lat="42.5105678848922252655029296875" lon="19.89281178452074527740478515625">
        <ele>1709</ele>
        <time>2026-06-17T12:22:51.000Z</time>
        <extensions>
          <ns3:TrackPointExtension>
            <ns3:atemp>20.0</ns3:atemp>
          </ns3:TrackPointExtension>
        </extensions>
      </trkpt>
      <trkpt lat="42.5105678848922252655029296875" lon="19.89281178452074527740478515625">
        <ele>1708.800048828125</ele>
        <time>2026-06-17T12:22:52.000Z</time>
        <extensions>
          <ns3:TrackPointExtension>
            <ns3:atemp>20.0</ns3:atemp>
          </ns3:TrackPointExtension>
        </extensions>
      </trkpt>
      <trkpt lat="42.5105678848922252655029296875" lon="19.89281178452074527740478515625">
        <ele>1708.800048828125</ele>
        <time>2026-06-17T12:22:53.000Z</time>
        <extensions>
          <ns3:TrackPointExtension>
            <ns3:atemp>20.0</ns3:atemp>
          </ns3:TrackPointExtension>
        </extensions>
      </trkpt>
      <trkpt lat="42.5105678848922252655029296875" lon="19.89281178452074527740478515625">
        <ele>1708.5999755859375</ele>
        <time>2026-06-17T12:22:54.000Z</time>
        <extensions>
          <ns3:TrackPointExtension>
            <ns3:atemp>20.0</ns3:atemp>
          </ns3:TrackPointExtension>
        </extensions>
      </trkpt>
      <trkpt lat="42.5105678848922252655029296875" lon="19.89281178452074527740478515625">
        <ele>1708.5999755859375</ele>
        <time>2026-06-17T12:22:55.000Z</time>
        <extensions>
          <ns3:TrackPointExtension>
            <ns3:atemp>20.0</ns3:atemp>
          </ns3:TrackPointExtension>
        </extensions>
      </trkpt>
      <trkpt lat="42.5105678848922252655029296875" lon="19.89281178452074527740478515625">
        <ele>1708.5999755859375</ele>
        <time>2026-06-17T12:22:56.000Z</time>
        <extensions>
          <ns3:TrackPointExtension>
            <ns3:atemp>20.0</ns3:atemp>
          </ns3:TrackPointExtension>
        </extensions>
      </trkpt>
      <trkpt lat="42.5105678848922252655029296875" lon="19.89281178452074527740478515625">
        <ele>1708.5999755859375</ele>
        <time>2026-06-17T12:22:57.000Z</time>
        <extensions>
          <ns3:TrackPointExtension>
            <ns3:atemp>20.0</ns3:atemp>
          </ns3:TrackPointExtension>
        </extensions>
      </trkpt>
      <trkpt lat="42.5105678848922252655029296875" lon="19.89281178452074527740478515625">
        <ele>1708.5999755859375</ele>
        <time>2026-06-17T12:22:58.000Z</time>
        <extensions>
          <ns3:TrackPointExtension>
            <ns3:atemp>20.0</ns3:atemp>
          </ns3:TrackPointExtension>
        </extensions>
      </trkpt>
      <trkpt lat="42.5105678848922252655029296875" lon="19.89281178452074527740478515625">
        <ele>1708.5999755859375</ele>
        <time>2026-06-17T12:22:59.000Z</time>
        <extensions>
          <ns3:TrackPointExtension>
            <ns3:atemp>20.0</ns3:atemp>
          </ns3:TrackPointExtension>
        </extensions>
      </trkpt>
      <trkpt lat="42.5105678848922252655029296875" lon="19.89281178452074527740478515625">
        <ele>1708.5999755859375</ele>
        <time>2026-06-17T12:23:00.000Z</time>
        <extensions>
          <ns3:TrackPointExtension>
            <ns3:atemp>20.0</ns3:atemp>
          </ns3:TrackPointExtension>
        </extensions>
      </trkpt>
      <trkpt lat="42.5105678848922252655029296875" lon="19.89281178452074527740478515625">
        <ele>1708.800048828125</ele>
        <time>2026-06-17T12:23:01.000Z</time>
        <extensions>
          <ns3:TrackPointExtension>
            <ns3:atemp>20.0</ns3:atemp>
          </ns3:TrackPointExtension>
        </extensions>
      </trkpt>
      <trkpt lat="42.5105678848922252655029296875" lon="19.89281178452074527740478515625">
        <ele>1708.800048828125</ele>
        <time>2026-06-17T12:23:02.000Z</time>
        <extensions>
          <ns3:TrackPointExtension>
            <ns3:atemp>20.0</ns3:atemp>
          </ns3:TrackPointExtension>
        </extensions>
      </trkpt>
      <trkpt lat="42.5105678848922252655029296875" lon="19.89281178452074527740478515625">
        <ele>1708.800048828125</ele>
        <time>2026-06-17T12:23:03.000Z</time>
        <extensions>
          <ns3:TrackPointExtension>
            <ns3:atemp>20.0</ns3:atemp>
          </ns3:TrackPointExtension>
        </extensions>
      </trkpt>
      <trkpt lat="42.5105678848922252655029296875" lon="19.89281178452074527740478515625">
        <ele>1708.800048828125</ele>
        <time>2026-06-17T12:23:04.000Z</time>
        <extensions>
          <ns3:TrackPointExtension>
            <ns3:atemp>20.0</ns3:atemp>
          </ns3:TrackPointExtension>
        </extensions>
      </trkpt>
      <trkpt lat="42.5105678848922252655029296875" lon="19.89281178452074527740478515625">
        <ele>1708.800048828125</ele>
        <time>2026-06-17T12:23:05.000Z</time>
        <extensions>
          <ns3:TrackPointExtension>
            <ns3:atemp>20.0</ns3:atemp>
          </ns3:TrackPointExtension>
        </extensions>
      </trkpt>
      <trkpt lat="42.5105678848922252655029296875" lon="19.89281178452074527740478515625">
        <ele>1708.800048828125</ele>
        <time>2026-06-17T12:23:06.000Z</time>
        <extensions>
          <ns3:TrackPointExtension>
            <ns3:atemp>20.0</ns3:atemp>
          </ns3:TrackPointExtension>
        </extensions>
      </trkpt>
      <trkpt lat="42.5105678848922252655029296875" lon="19.89281178452074527740478515625">
        <ele>1708.800048828125</ele>
        <time>2026-06-17T12:23:07.000Z</time>
        <extensions>
          <ns3:TrackPointExtension>
            <ns3:atemp>20.0</ns3:atemp>
          </ns3:TrackPointExtension>
        </extensions>
      </trkpt>
      <trkpt lat="42.5105678848922252655029296875" lon="19.89281178452074527740478515625">
        <ele>1708.800048828125</ele>
        <time>2026-06-17T12:23:08.000Z</time>
        <extensions>
          <ns3:TrackPointExtension>
            <ns3:atemp>20.0</ns3:atemp>
          </ns3:TrackPointExtension>
        </extensions>
      </trkpt>
      <trkpt lat="42.5105678848922252655029296875" lon="19.89281178452074527740478515625">
        <ele>1708.5999755859375</ele>
        <time>2026-06-17T12:23:09.000Z</time>
        <extensions>
          <ns3:TrackPointExtension>
            <ns3:atemp>20.0</ns3:atemp>
          </ns3:TrackPointExtension>
        </extensions>
      </trkpt>
      <trkpt lat="42.5105678848922252655029296875" lon="19.89281178452074527740478515625">
        <ele>1708.5999755859375</ele>
        <time>2026-06-17T12:23:10.000Z</time>
        <extensions>
          <ns3:TrackPointExtension>
            <ns3:atemp>20.0</ns3:atemp>
          </ns3:TrackPointExtension>
        </extensions>
      </trkpt>
      <trkpt lat="42.5105678848922252655029296875" lon="19.89281178452074527740478515625">
        <ele>1708.5999755859375</ele>
        <time>2026-06-17T12:23:11.000Z</time>
        <extensions>
          <ns3:TrackPointExtension>
            <ns3:atemp>20.0</ns3:atemp>
          </ns3:TrackPointExtension>
        </extensions>
      </trkpt>
      <trkpt lat="42.5105678848922252655029296875" lon="19.89281178452074527740478515625">
        <ele>1708.4000244140625</ele>
        <time>2026-06-17T12:23:12.000Z</time>
        <extensions>
          <ns3:TrackPointExtension>
            <ns3:atemp>20.0</ns3:atemp>
          </ns3:TrackPointExtension>
        </extensions>
      </trkpt>
      <trkpt lat="42.5105678848922252655029296875" lon="19.89281178452074527740478515625">
        <ele>1708.4000244140625</ele>
        <time>2026-06-17T12:23:13.000Z</time>
        <extensions>
          <ns3:TrackPointExtension>
            <ns3:atemp>20.0</ns3:atemp>
          </ns3:TrackPointExtension>
        </extensions>
      </trkpt>
      <trkpt lat="42.5105678848922252655029296875" lon="19.89281178452074527740478515625">
        <ele>1708.4000244140625</ele>
        <time>2026-06-17T12:23:14.000Z</time>
        <extensions>
          <ns3:TrackPointExtension>
            <ns3:atemp>20.0</ns3:atemp>
          </ns3:TrackPointExtension>
        </extensions>
      </trkpt>
      <trkpt lat="42.5105678848922252655029296875" lon="19.89281178452074527740478515625">
        <ele>1708.4000244140625</ele>
        <time>2026-06-17T12:23:15.000Z</time>
        <extensions>
          <ns3:TrackPointExtension>
            <ns3:atemp>20.0</ns3:atemp>
          </ns3:TrackPointExtension>
        </extensions>
      </trkpt>
      <trkpt lat="42.5105678848922252655029296875" lon="19.89281178452074527740478515625">
        <ele>1708.4000244140625</ele>
        <time>2026-06-17T12:23:16.000Z</time>
        <extensions>
          <ns3:TrackPointExtension>
            <ns3:atemp>20.0</ns3:atemp>
          </ns3:TrackPointExtension>
        </extensions>
      </trkpt>
      <trkpt lat="42.5105678848922252655029296875" lon="19.89281178452074527740478515625">
        <ele>1708.4000244140625</ele>
        <time>2026-06-17T12:23:17.000Z</time>
        <extensions>
          <ns3:TrackPointExtension>
            <ns3:atemp>20.0</ns3:atemp>
          </ns3:TrackPointExtension>
        </extensions>
      </trkpt>
      <trkpt lat="42.5105678848922252655029296875" lon="19.89281178452074527740478515625">
        <ele>1708.4000244140625</ele>
        <time>2026-06-17T12:23:18.000Z</time>
        <extensions>
          <ns3:TrackPointExtension>
            <ns3:atemp>20.0</ns3:atemp>
          </ns3:TrackPointExtension>
        </extensions>
      </trkpt>
      <trkpt lat="42.5105678848922252655029296875" lon="19.89281178452074527740478515625">
        <ele>1708.4000244140625</ele>
        <time>2026-06-17T12:23:19.000Z</time>
        <extensions>
          <ns3:TrackPointExtension>
            <ns3:atemp>20.0</ns3:atemp>
          </ns3:TrackPointExtension>
        </extensions>
      </trkpt>
      <trkpt lat="42.5105678848922252655029296875" lon="19.89281178452074527740478515625">
        <ele>1708.4000244140625</ele>
        <time>2026-06-17T12:23:20.000Z</time>
        <extensions>
          <ns3:TrackPointExtension>
            <ns3:atemp>20.0</ns3:atemp>
          </ns3:TrackPointExtension>
        </extensions>
      </trkpt>
      <trkpt lat="42.5105678848922252655029296875" lon="19.89281178452074527740478515625">
        <ele>1708.4000244140625</ele>
        <time>2026-06-17T12:23:21.000Z</time>
        <extensions>
          <ns3:TrackPointExtension>
            <ns3:atemp>20.0</ns3:atemp>
          </ns3:TrackPointExtension>
        </extensions>
      </trkpt>
      <trkpt lat="42.5105678848922252655029296875" lon="19.89281178452074527740478515625">
        <ele>1708.4000244140625</ele>
        <time>2026-06-17T12:23:22.000Z</time>
        <extensions>
          <ns3:TrackPointExtension>
            <ns3:atemp>20.0</ns3:atemp>
          </ns3:TrackPointExtension>
        </extensions>
      </trkpt>
      <trkpt lat="42.5105678848922252655029296875" lon="19.89281178452074527740478515625">
        <ele>1708.199951171875</ele>
        <time>2026-06-17T12:23:23.000Z</time>
        <extensions>
          <ns3:TrackPointExtension>
            <ns3:atemp>20.0</ns3:atemp>
          </ns3:TrackPointExtension>
        </extensions>
      </trkpt>
      <trkpt lat="42.5105678848922252655029296875" lon="19.89281178452074527740478515625">
        <ele>1708.199951171875</ele>
        <time>2026-06-17T12:23:24.000Z</time>
        <extensions>
          <ns3:TrackPointExtension>
            <ns3:atemp>20.0</ns3:atemp>
          </ns3:TrackPointExtension>
        </extensions>
      </trkpt>
      <trkpt lat="42.5105678848922252655029296875" lon="19.89281178452074527740478515625">
        <ele>1708.199951171875</ele>
        <time>2026-06-17T12:23:25.000Z</time>
        <extensions>
          <ns3:TrackPointExtension>
            <ns3:atemp>20.0</ns3:atemp>
          </ns3:TrackPointExtension>
        </extensions>
      </trkpt>
      <trkpt lat="42.5105678848922252655029296875" lon="19.89281178452074527740478515625">
        <ele>1708.199951171875</ele>
        <time>2026-06-17T12:23:26.000Z</time>
        <extensions>
          <ns3:TrackPointExtension>
            <ns3:atemp>20.0</ns3:atemp>
          </ns3:TrackPointExtension>
        </extensions>
      </trkpt>
      <trkpt lat="42.5105678848922252655029296875" lon="19.89281178452074527740478515625">
        <ele>1708.199951171875</ele>
        <time>2026-06-17T12:23:27.000Z</time>
        <extensions>
          <ns3:TrackPointExtension>
            <ns3:atemp>20.0</ns3:atemp>
          </ns3:TrackPointExtension>
        </extensions>
      </trkpt>
      <trkpt lat="42.5105678848922252655029296875" lon="19.89281178452074527740478515625">
        <ele>1708.199951171875</ele>
        <time>2026-06-17T12:23:28.000Z</time>
        <extensions>
          <ns3:TrackPointExtension>
            <ns3:atemp>20.0</ns3:atemp>
          </ns3:TrackPointExtension>
        </extensions>
      </trkpt>
      <trkpt lat="42.5105678848922252655029296875" lon="19.89281178452074527740478515625">
        <ele>1708.199951171875</ele>
        <time>2026-06-17T12:23:29.000Z</time>
        <extensions>
          <ns3:TrackPointExtension>
            <ns3:atemp>20.0</ns3:atemp>
          </ns3:TrackPointExtension>
        </extensions>
      </trkpt>
      <trkpt lat="42.5105678848922252655029296875" lon="19.89281178452074527740478515625">
        <ele>1708.199951171875</ele>
        <time>2026-06-17T12:23:30.000Z</time>
        <extensions>
          <ns3:TrackPointExtension>
            <ns3:atemp>20.0</ns3:atemp>
          </ns3:TrackPointExtension>
        </extensions>
      </trkpt>
      <trkpt lat="42.5105678848922252655029296875" lon="19.89281178452074527740478515625">
        <ele>1708.199951171875</ele>
        <time>2026-06-17T12:23:31.000Z</time>
        <extensions>
          <ns3:TrackPointExtension>
            <ns3:atemp>20.0</ns3:atemp>
          </ns3:TrackPointExtension>
        </extensions>
      </trkpt>
      <trkpt lat="42.5105678848922252655029296875" lon="19.89281178452074527740478515625">
        <ele>1708</ele>
        <time>2026-06-17T12:23:32.000Z</time>
        <extensions>
          <ns3:TrackPointExtension>
            <ns3:atemp>20.0</ns3:atemp>
          </ns3:TrackPointExtension>
        </extensions>
      </trkpt>
      <trkpt lat="42.5105678848922252655029296875" lon="19.89281178452074527740478515625">
        <ele>1708</ele>
        <time>2026-06-17T12:23:33.000Z</time>
        <extensions>
          <ns3:TrackPointExtension>
            <ns3:atemp>20.0</ns3:atemp>
          </ns3:TrackPointExtension>
        </extensions>
      </trkpt>
      <trkpt lat="42.5105678848922252655029296875" lon="19.89281178452074527740478515625">
        <ele>1708</ele>
        <time>2026-06-17T12:23:34.000Z</time>
        <extensions>
          <ns3:TrackPointExtension>
            <ns3:atemp>20.0</ns3:atemp>
          </ns3:TrackPointExtension>
        </extensions>
      </trkpt>
      <trkpt lat="42.5105678848922252655029296875" lon="19.89281178452074527740478515625">
        <ele>1708</ele>
        <time>2026-06-17T12:23:35.000Z</time>
        <extensions>
          <ns3:TrackPointExtension>
            <ns3:atemp>20.0</ns3:atemp>
          </ns3:TrackPointExtension>
        </extensions>
      </trkpt>
      <trkpt lat="42.5105678848922252655029296875" lon="19.89281178452074527740478515625">
        <ele>1708</ele>
        <time>2026-06-17T12:23:36.000Z</time>
        <extensions>
          <ns3:TrackPointExtension>
            <ns3:atemp>20.0</ns3:atemp>
          </ns3:TrackPointExtension>
        </extensions>
      </trkpt>
      <trkpt lat="42.5105678848922252655029296875" lon="19.89281178452074527740478515625">
        <ele>1708</ele>
        <time>2026-06-17T12:23:37.000Z</time>
        <extensions>
          <ns3:TrackPointExtension>
            <ns3:atemp>20.0</ns3:atemp>
          </ns3:TrackPointExtension>
        </extensions>
      </trkpt>
      <trkpt lat="42.5105678848922252655029296875" lon="19.89281178452074527740478515625">
        <ele>1707.800048828125</ele>
        <time>2026-06-17T12:23:38.000Z</time>
        <extensions>
          <ns3:TrackPointExtension>
            <ns3:atemp>20.0</ns3:atemp>
          </ns3:TrackPointExtension>
        </extensions>
      </trkpt>
      <trkpt lat="42.5105678848922252655029296875" lon="19.89281178452074527740478515625">
        <ele>1707.800048828125</ele>
        <time>2026-06-17T12:23:39.000Z</time>
        <extensions>
          <ns3:TrackPointExtension>
            <ns3:atemp>20.0</ns3:atemp>
          </ns3:TrackPointExtension>
        </extensions>
      </trkpt>
      <trkpt lat="42.5105678848922252655029296875" lon="19.89281178452074527740478515625">
        <ele>1707.800048828125</ele>
        <time>2026-06-17T12:23:40.000Z</time>
        <extensions>
          <ns3:TrackPointExtension>
            <ns3:atemp>20.0</ns3:atemp>
          </ns3:TrackPointExtension>
        </extensions>
      </trkpt>
      <trkpt lat="42.5105678848922252655029296875" lon="19.89281178452074527740478515625">
        <ele>1707.800048828125</ele>
        <time>2026-06-17T12:23:41.000Z</time>
        <extensions>
          <ns3:TrackPointExtension>
            <ns3:atemp>20.0</ns3:atemp>
          </ns3:TrackPointExtension>
        </extensions>
      </trkpt>
      <trkpt lat="42.5105678848922252655029296875" lon="19.89281178452074527740478515625">
        <ele>1707.800048828125</ele>
        <time>2026-06-17T12:23:42.000Z</time>
        <extensions>
          <ns3:TrackPointExtension>
            <ns3:atemp>20.0</ns3:atemp>
          </ns3:TrackPointExtension>
        </extensions>
      </trkpt>
      <trkpt lat="42.5105678848922252655029296875" lon="19.89281178452074527740478515625">
        <ele>1707.800048828125</ele>
        <time>2026-06-17T12:23:43.000Z</time>
        <extensions>
          <ns3:TrackPointExtension>
            <ns3:atemp>20.0</ns3:atemp>
          </ns3:TrackPointExtension>
        </extensions>
      </trkpt>
      <trkpt lat="42.5105678848922252655029296875" lon="19.89281178452074527740478515625">
        <ele>1707.800048828125</ele>
        <time>2026-06-17T12:23:44.000Z</time>
        <extensions>
          <ns3:TrackPointExtension>
            <ns3:atemp>20.0</ns3:atemp>
          </ns3:TrackPointExtension>
        </extensions>
      </trkpt>
      <trkpt lat="42.5105678848922252655029296875" lon="19.89281178452074527740478515625">
        <ele>1707.800048828125</ele>
        <time>2026-06-17T12:23:45.000Z</time>
        <extensions>
          <ns3:TrackPointExtension>
            <ns3:atemp>20.0</ns3:atemp>
          </ns3:TrackPointExtension>
        </extensions>
      </trkpt>
      <trkpt lat="42.5105678848922252655029296875" lon="19.89281178452074527740478515625">
        <ele>1707.800048828125</ele>
        <time>2026-06-17T12:23:46.000Z</time>
        <extensions>
          <ns3:TrackPointExtension>
            <ns3:atemp>20.0</ns3:atemp>
          </ns3:TrackPointExtension>
        </extensions>
      </trkpt>
      <trkpt lat="42.5105678848922252655029296875" lon="19.89281178452074527740478515625">
        <ele>1707.800048828125</ele>
        <time>2026-06-17T12:23:47.000Z</time>
        <extensions>
          <ns3:TrackPointExtension>
            <ns3:atemp>20.0</ns3:atemp>
          </ns3:TrackPointExtension>
        </extensions>
      </trkpt>
      <trkpt lat="42.5105678848922252655029296875" lon="19.89281178452074527740478515625">
        <ele>1707.800048828125</ele>
        <time>2026-06-17T12:23:48.000Z</time>
        <extensions>
          <ns3:TrackPointExtension>
            <ns3:atemp>20.0</ns3:atemp>
          </ns3:TrackPointExtension>
        </extensions>
      </trkpt>
      <trkpt lat="42.5105678848922252655029296875" lon="19.89281178452074527740478515625">
        <ele>1707.800048828125</ele>
        <time>2026-06-17T12:23:49.000Z</time>
        <extensions>
          <ns3:TrackPointExtension>
            <ns3:atemp>20.0</ns3:atemp>
          </ns3:TrackPointExtension>
        </extensions>
      </trkpt>
      <trkpt lat="42.5105678848922252655029296875" lon="19.89281178452074527740478515625">
        <ele>1707.800048828125</ele>
        <time>2026-06-17T12:23:50.000Z</time>
        <extensions>
          <ns3:TrackPointExtension>
            <ns3:atemp>20.0</ns3:atemp>
          </ns3:TrackPointExtension>
        </extensions>
      </trkpt>
      <trkpt lat="42.5105678848922252655029296875" lon="19.89281178452074527740478515625">
        <ele>1707.800048828125</ele>
        <time>2026-06-17T12:23:51.000Z</time>
        <extensions>
          <ns3:TrackPointExtension>
            <ns3:atemp>20.0</ns3:atemp>
          </ns3:TrackPointExtension>
        </extensions>
      </trkpt>
      <trkpt lat="42.5105678848922252655029296875" lon="19.89281178452074527740478515625">
        <ele>1707.800048828125</ele>
        <time>2026-06-17T12:23:52.000Z</time>
        <extensions>
          <ns3:TrackPointExtension>
            <ns3:atemp>20.0</ns3:atemp>
          </ns3:TrackPointExtension>
        </extensions>
      </trkpt>
      <trkpt lat="42.5105678848922252655029296875" lon="19.89281178452074527740478515625">
        <ele>1707.800048828125</ele>
        <time>2026-06-17T12:23:53.000Z</time>
        <extensions>
          <ns3:TrackPointExtension>
            <ns3:atemp>20.0</ns3:atemp>
          </ns3:TrackPointExtension>
        </extensions>
      </trkpt>
      <trkpt lat="42.5105678848922252655029296875" lon="19.89281178452074527740478515625">
        <ele>1707.800048828125</ele>
        <time>2026-06-17T12:23:54.000Z</time>
        <extensions>
          <ns3:TrackPointExtension>
            <ns3:atemp>20.0</ns3:atemp>
          </ns3:TrackPointExtension>
        </extensions>
      </trkpt>
      <trkpt lat="42.5105678848922252655029296875" lon="19.89281178452074527740478515625">
        <ele>1707.800048828125</ele>
        <time>2026-06-17T12:23:55.000Z</time>
        <extensions>
          <ns3:TrackPointExtension>
            <ns3:atemp>20.0</ns3:atemp>
          </ns3:TrackPointExtension>
        </extensions>
      </trkpt>
      <trkpt lat="42.5105678848922252655029296875" lon="19.89281178452074527740478515625">
        <ele>1707.800048828125</ele>
        <time>2026-06-17T12:23:56.000Z</time>
        <extensions>
          <ns3:TrackPointExtension>
            <ns3:atemp>20.0</ns3:atemp>
          </ns3:TrackPointExtension>
        </extensions>
      </trkpt>
      <trkpt lat="42.5105678848922252655029296875" lon="19.89281178452074527740478515625">
        <ele>1707.800048828125</ele>
        <time>2026-06-17T12:23:57.000Z</time>
        <extensions>
          <ns3:TrackPointExtension>
            <ns3:atemp>20.0</ns3:atemp>
          </ns3:TrackPointExtension>
        </extensions>
      </trkpt>
      <trkpt lat="42.5105678848922252655029296875" lon="19.89281178452074527740478515625">
        <ele>1707.800048828125</ele>
        <time>2026-06-17T12:23:58.000Z</time>
        <extensions>
          <ns3:TrackPointExtension>
            <ns3:atemp>20.0</ns3:atemp>
          </ns3:TrackPointExtension>
        </extensions>
      </trkpt>
      <trkpt lat="42.5105678848922252655029296875" lon="19.89281178452074527740478515625">
        <ele>1707.800048828125</ele>
        <time>2026-06-17T12:23:59.000Z</time>
        <extensions>
          <ns3:TrackPointExtension>
            <ns3:atemp>20.0</ns3:atemp>
          </ns3:TrackPointExtension>
        </extensions>
      </trkpt>
      <trkpt lat="42.5105678848922252655029296875" lon="19.89281178452074527740478515625">
        <ele>1707.800048828125</ele>
        <time>2026-06-17T12:24:00.000Z</time>
        <extensions>
          <ns3:TrackPointExtension>
            <ns3:atemp>20.0</ns3:atemp>
          </ns3:TrackPointExtension>
        </extensions>
      </trkpt>
      <trkpt lat="42.5105678848922252655029296875" lon="19.89281178452074527740478515625">
        <ele>1707.800048828125</ele>
        <time>2026-06-17T12:24:01.000Z</time>
        <extensions>
          <ns3:TrackPointExtension>
            <ns3:atemp>20.0</ns3:atemp>
          </ns3:TrackPointExtension>
        </extensions>
      </trkpt>
      <trkpt lat="42.5105678848922252655029296875" lon="19.89281178452074527740478515625">
        <ele>1707.800048828125</ele>
        <time>2026-06-17T12:24:02.000Z</time>
        <extensions>
          <ns3:TrackPointExtension>
            <ns3:atemp>20.0</ns3:atemp>
          </ns3:TrackPointExtension>
        </extensions>
      </trkpt>
      <trkpt lat="42.5105678848922252655029296875" lon="19.89281178452074527740478515625">
        <ele>1707.5999755859375</ele>
        <time>2026-06-17T12:24:03.000Z</time>
        <extensions>
          <ns3:TrackPointExtension>
            <ns3:atemp>20.0</ns3:atemp>
          </ns3:TrackPointExtension>
        </extensions>
      </trkpt>
      <trkpt lat="42.5105678848922252655029296875" lon="19.89281178452074527740478515625">
        <ele>1707.5999755859375</ele>
        <time>2026-06-17T12:24:04.000Z</time>
        <extensions>
          <ns3:TrackPointExtension>
            <ns3:atemp>20.0</ns3:atemp>
          </ns3:TrackPointExtension>
        </extensions>
      </trkpt>
      <trkpt lat="42.5105678848922252655029296875" lon="19.89281178452074527740478515625">
        <ele>1707.5999755859375</ele>
        <time>2026-06-17T12:24:05.000Z</time>
        <extensions>
          <ns3:TrackPointExtension>
            <ns3:atemp>20.0</ns3:atemp>
          </ns3:TrackPointExtension>
        </extensions>
      </trkpt>
      <trkpt lat="42.5105678848922252655029296875" lon="19.89281178452074527740478515625">
        <ele>1707.5999755859375</ele>
        <time>2026-06-17T12:24:06.000Z</time>
        <extensions>
          <ns3:TrackPointExtension>
            <ns3:atemp>20.0</ns3:atemp>
          </ns3:TrackPointExtension>
        </extensions>
      </trkpt>
      <trkpt lat="42.5105678848922252655029296875" lon="19.89281178452074527740478515625">
        <ele>1707.5999755859375</ele>
        <time>2026-06-17T12:24:07.000Z</time>
        <extensions>
          <ns3:TrackPointExtension>
            <ns3:atemp>20.0</ns3:atemp>
          </ns3:TrackPointExtension>
        </extensions>
      </trkpt>
      <trkpt lat="42.5105678848922252655029296875" lon="19.89281178452074527740478515625">
        <ele>1707.5999755859375</ele>
        <time>2026-06-17T12:24:08.000Z</time>
        <extensions>
          <ns3:TrackPointExtension>
            <ns3:atemp>20.0</ns3:atemp>
          </ns3:TrackPointExtension>
        </extensions>
      </trkpt>
      <trkpt lat="42.5105678848922252655029296875" lon="19.89281178452074527740478515625">
        <ele>1707.5999755859375</ele>
        <time>2026-06-17T12:24:09.000Z</time>
        <extensions>
          <ns3:TrackPointExtension>
            <ns3:atemp>20.0</ns3:atemp>
          </ns3:TrackPointExtension>
        </extensions>
      </trkpt>
      <trkpt lat="42.5105678848922252655029296875" lon="19.89281178452074527740478515625">
        <ele>1707.5999755859375</ele>
        <time>2026-06-17T12:24:10.000Z</time>
        <extensions>
          <ns3:TrackPointExtension>
            <ns3:atemp>20.0</ns3:atemp>
          </ns3:TrackPointExtension>
        </extensions>
      </trkpt>
      <trkpt lat="42.5105678848922252655029296875" lon="19.89281178452074527740478515625">
        <ele>1707.5999755859375</ele>
        <time>2026-06-17T12:24:11.000Z</time>
        <extensions>
          <ns3:TrackPointExtension>
            <ns3:atemp>20.0</ns3:atemp>
          </ns3:TrackPointExtension>
        </extensions>
      </trkpt>
      <trkpt lat="42.5105678848922252655029296875" lon="19.89281178452074527740478515625">
        <ele>1707.5999755859375</ele>
        <time>2026-06-17T12:24:12.000Z</time>
        <extensions>
          <ns3:TrackPointExtension>
            <ns3:atemp>20.0</ns3:atemp>
          </ns3:TrackPointExtension>
        </extensions>
      </trkpt>
      <trkpt lat="42.5105678848922252655029296875" lon="19.89281178452074527740478515625">
        <ele>1707.5999755859375</ele>
        <time>2026-06-17T12:24:13.000Z</time>
        <extensions>
          <ns3:TrackPointExtension>
            <ns3:atemp>20.0</ns3:atemp>
          </ns3:TrackPointExtension>
        </extensions>
      </trkpt>
      <trkpt lat="42.5105678848922252655029296875" lon="19.89281178452074527740478515625">
        <ele>1707.5999755859375</ele>
        <time>2026-06-17T12:24:14.000Z</time>
        <extensions>
          <ns3:TrackPointExtension>
            <ns3:atemp>20.0</ns3:atemp>
          </ns3:TrackPointExtension>
        </extensions>
      </trkpt>
      <trkpt lat="42.5105678848922252655029296875" lon="19.89281178452074527740478515625">
        <ele>1707.5999755859375</ele>
        <time>2026-06-17T12:24:15.000Z</time>
        <extensions>
          <ns3:TrackPointExtension>
            <ns3:atemp>20.0</ns3:atemp>
          </ns3:TrackPointExtension>
        </extensions>
      </trkpt>
      <trkpt lat="42.5105678848922252655029296875" lon="19.89281178452074527740478515625">
        <ele>1707.5999755859375</ele>
        <time>2026-06-17T12:24:16.000Z</time>
        <extensions>
          <ns3:TrackPointExtension>
            <ns3:atemp>20.0</ns3:atemp>
          </ns3:TrackPointExtension>
        </extensions>
      </trkpt>
      <trkpt lat="42.5105678848922252655029296875" lon="19.89281178452074527740478515625">
        <ele>1707.5999755859375</ele>
        <time>2026-06-17T12:24:17.000Z</time>
        <extensions>
          <ns3:TrackPointExtension>
            <ns3:atemp>20.0</ns3:atemp>
          </ns3:TrackPointExtension>
        </extensions>
      </trkpt>
      <trkpt lat="42.5105678848922252655029296875" lon="19.89281178452074527740478515625">
        <ele>1707.5999755859375</ele>
        <time>2026-06-17T12:24:18.000Z</time>
        <extensions>
          <ns3:TrackPointExtension>
            <ns3:atemp>20.0</ns3:atemp>
          </ns3:TrackPointExtension>
        </extensions>
      </trkpt>
      <trkpt lat="42.5105678848922252655029296875" lon="19.89281178452074527740478515625">
        <ele>1707.5999755859375</ele>
        <time>2026-06-17T12:24:19.000Z</time>
        <extensions>
          <ns3:TrackPointExtension>
            <ns3:atemp>20.0</ns3:atemp>
          </ns3:TrackPointExtension>
        </extensions>
      </trkpt>
      <trkpt lat="42.5105678848922252655029296875" lon="19.89281178452074527740478515625">
        <ele>1707.5999755859375</ele>
        <time>2026-06-17T12:24:20.000Z</time>
        <extensions>
          <ns3:TrackPointExtension>
            <ns3:atemp>20.0</ns3:atemp>
          </ns3:TrackPointExtension>
        </extensions>
      </trkpt>
      <trkpt lat="42.5105678848922252655029296875" lon="19.89281178452074527740478515625">
        <ele>1707.5999755859375</ele>
        <time>2026-06-17T12:24:21.000Z</time>
        <extensions>
          <ns3:TrackPointExtension>
            <ns3:atemp>20.0</ns3:atemp>
          </ns3:TrackPointExtension>
        </extensions>
      </trkpt>
      <trkpt lat="42.5105678848922252655029296875" lon="19.89281178452074527740478515625">
        <ele>1707.5999755859375</ele>
        <time>2026-06-17T12:24:22.000Z</time>
        <extensions>
          <ns3:TrackPointExtension>
            <ns3:atemp>20.0</ns3:atemp>
          </ns3:TrackPointExtension>
        </extensions>
      </trkpt>
      <trkpt lat="42.5105678848922252655029296875" lon="19.89281178452074527740478515625">
        <ele>1707.5999755859375</ele>
        <time>2026-06-17T12:24:23.000Z</time>
        <extensions>
          <ns3:TrackPointExtension>
            <ns3:atemp>20.0</ns3:atemp>
          </ns3:TrackPointExtension>
        </extensions>
      </trkpt>
      <trkpt lat="42.5105678848922252655029296875" lon="19.89281178452074527740478515625">
        <ele>1707.5999755859375</ele>
        <time>2026-06-17T12:24:24.000Z</time>
        <extensions>
          <ns3:TrackPointExtension>
            <ns3:atemp>20.0</ns3:atemp>
          </ns3:TrackPointExtension>
        </extensions>
      </trkpt>
      <trkpt lat="42.5105678848922252655029296875" lon="19.89281178452074527740478515625">
        <ele>1707.5999755859375</ele>
        <time>2026-06-17T12:24:25.000Z</time>
        <extensions>
          <ns3:TrackPointExtension>
            <ns3:atemp>20.0</ns3:atemp>
          </ns3:TrackPointExtension>
        </extensions>
      </trkpt>
      <trkpt lat="42.5105678848922252655029296875" lon="19.89281178452074527740478515625">
        <ele>1707.5999755859375</ele>
        <time>2026-06-17T12:24:26.000Z</time>
        <extensions>
          <ns3:TrackPointExtension>
            <ns3:atemp>20.0</ns3:atemp>
          </ns3:TrackPointExtension>
        </extensions>
      </trkpt>
      <trkpt lat="42.5105678848922252655029296875" lon="19.89281178452074527740478515625">
        <ele>1707.5999755859375</ele>
        <time>2026-06-17T12:24:27.000Z</time>
        <extensions>
          <ns3:TrackPointExtension>
            <ns3:atemp>20.0</ns3:atemp>
          </ns3:TrackPointExtension>
        </extensions>
      </trkpt>
      <trkpt lat="42.5105678848922252655029296875" lon="19.89281178452074527740478515625">
        <ele>1707.800048828125</ele>
        <time>2026-06-17T12:24:28.000Z</time>
        <extensions>
          <ns3:TrackPointExtension>
            <ns3:atemp>20.0</ns3:atemp>
          </ns3:TrackPointExtension>
        </extensions>
      </trkpt>
      <trkpt lat="42.5105678848922252655029296875" lon="19.89281178452074527740478515625">
        <ele>1707.800048828125</ele>
        <time>2026-06-17T12:24:29.000Z</time>
        <extensions>
          <ns3:TrackPointExtension>
            <ns3:atemp>20.0</ns3:atemp>
          </ns3:TrackPointExtension>
        </extensions>
      </trkpt>
      <trkpt lat="42.5105678848922252655029296875" lon="19.89281178452074527740478515625">
        <ele>1707.800048828125</ele>
        <time>2026-06-17T12:24:30.000Z</time>
        <extensions>
          <ns3:TrackPointExtension>
            <ns3:atemp>20.0</ns3:atemp>
          </ns3:TrackPointExtension>
        </extensions>
      </trkpt>
      <trkpt lat="42.5105678848922252655029296875" lon="19.89281178452074527740478515625">
        <ele>1707.800048828125</ele>
        <time>2026-06-17T12:24:31.000Z</time>
        <extensions>
          <ns3:TrackPointExtension>
            <ns3:atemp>20.0</ns3:atemp>
          </ns3:TrackPointExtension>
        </extensions>
      </trkpt>
      <trkpt lat="42.5105678848922252655029296875" lon="19.89281178452074527740478515625">
        <ele>1707.800048828125</ele>
        <time>2026-06-17T12:24:32.000Z</time>
        <extensions>
          <ns3:TrackPointExtension>
            <ns3:atemp>20.0</ns3:atemp>
          </ns3:TrackPointExtension>
        </extensions>
      </trkpt>
      <trkpt lat="42.5105678848922252655029296875" lon="19.89281178452074527740478515625">
        <ele>1707.800048828125</ele>
        <time>2026-06-17T12:24:33.000Z</time>
        <extensions>
          <ns3:TrackPointExtension>
            <ns3:atemp>20.0</ns3:atemp>
          </ns3:TrackPointExtension>
        </extensions>
      </trkpt>
      <trkpt lat="42.5105678848922252655029296875" lon="19.89281178452074527740478515625">
        <ele>1707.800048828125</ele>
        <time>2026-06-17T12:24:34.000Z</time>
        <extensions>
          <ns3:TrackPointExtension>
            <ns3:atemp>20.0</ns3:atemp>
          </ns3:TrackPointExtension>
        </extensions>
      </trkpt>
      <trkpt lat="42.5105678848922252655029296875" lon="19.89281178452074527740478515625">
        <ele>1707.800048828125</ele>
        <time>2026-06-17T12:24:35.000Z</time>
        <extensions>
          <ns3:TrackPointExtension>
            <ns3:atemp>20.0</ns3:atemp>
          </ns3:TrackPointExtension>
        </extensions>
      </trkpt>
      <trkpt lat="42.5105678848922252655029296875" lon="19.89281178452074527740478515625">
        <ele>1707.800048828125</ele>
        <time>2026-06-17T12:24:36.000Z</time>
        <extensions>
          <ns3:TrackPointExtension>
            <ns3:atemp>20.0</ns3:atemp>
          </ns3:TrackPointExtension>
        </extensions>
      </trkpt>
      <trkpt lat="42.5105678848922252655029296875" lon="19.89281178452074527740478515625">
        <ele>1707.800048828125</ele>
        <time>2026-06-17T12:24:37.000Z</time>
        <extensions>
          <ns3:TrackPointExtension>
            <ns3:atemp>20.0</ns3:atemp>
          </ns3:TrackPointExtension>
        </extensions>
      </trkpt>
      <trkpt lat="42.5105678848922252655029296875" lon="19.89281178452074527740478515625">
        <ele>1707.800048828125</ele>
        <time>2026-06-17T12:24:38.000Z</time>
        <extensions>
          <ns3:TrackPointExtension>
            <ns3:atemp>20.0</ns3:atemp>
          </ns3:TrackPointExtension>
        </extensions>
      </trkpt>
      <trkpt lat="42.5105678848922252655029296875" lon="19.89281178452074527740478515625">
        <ele>1707.800048828125</ele>
        <time>2026-06-17T12:24:39.000Z</time>
        <extensions>
          <ns3:TrackPointExtension>
            <ns3:atemp>20.0</ns3:atemp>
          </ns3:TrackPointExtension>
        </extensions>
      </trkpt>
      <trkpt lat="42.5105678848922252655029296875" lon="19.89281178452074527740478515625">
        <ele>1707.800048828125</ele>
        <time>2026-06-17T12:24:40.000Z</time>
        <extensions>
          <ns3:TrackPointExtension>
            <ns3:atemp>21.0</ns3:atemp>
          </ns3:TrackPointExtension>
        </extensions>
      </trkpt>
      <trkpt lat="42.5105678848922252655029296875" lon="19.89281178452074527740478515625">
        <ele>1707.800048828125</ele>
        <time>2026-06-17T12:24:41.000Z</time>
        <extensions>
          <ns3:TrackPointExtension>
            <ns3:atemp>20.0</ns3:atemp>
          </ns3:TrackPointExtension>
        </extensions>
      </trkpt>
      <trkpt lat="42.5105678848922252655029296875" lon="19.89281178452074527740478515625">
        <ele>1707.800048828125</ele>
        <time>2026-06-17T12:24:42.000Z</time>
        <extensions>
          <ns3:TrackPointExtension>
            <ns3:atemp>20.0</ns3:atemp>
          </ns3:TrackPointExtension>
        </extensions>
      </trkpt>
      <trkpt lat="42.5105678848922252655029296875" lon="19.89281178452074527740478515625">
        <ele>1707.800048828125</ele>
        <time>2026-06-17T12:24:43.000Z</time>
        <extensions>
          <ns3:TrackPointExtension>
            <ns3:atemp>20.0</ns3:atemp>
          </ns3:TrackPointExtension>
        </extensions>
      </trkpt>
      <trkpt lat="42.5105678848922252655029296875" lon="19.89281178452074527740478515625">
        <ele>1707.800048828125</ele>
        <time>2026-06-17T12:24:44.000Z</time>
        <extensions>
          <ns3:TrackPointExtension>
            <ns3:atemp>21.0</ns3:atemp>
          </ns3:TrackPointExtension>
        </extensions>
      </trkpt>
      <trkpt lat="42.5105678848922252655029296875" lon="19.89281178452074527740478515625">
        <ele>1707.800048828125</ele>
        <time>2026-06-17T12:24:45.000Z</time>
        <extensions>
          <ns3:TrackPointExtension>
            <ns3:atemp>21.0</ns3:atemp>
          </ns3:TrackPointExtension>
        </extensions>
      </trkpt>
      <trkpt lat="42.5105678848922252655029296875" lon="19.89281178452074527740478515625">
        <ele>1707.800048828125</ele>
        <time>2026-06-17T12:24:46.000Z</time>
        <extensions>
          <ns3:TrackPointExtension>
            <ns3:atemp>21.0</ns3:atemp>
          </ns3:TrackPointExtension>
        </extensions>
      </trkpt>
      <trkpt lat="42.5105678848922252655029296875" lon="19.89281178452074527740478515625">
        <ele>1707.800048828125</ele>
        <time>2026-06-17T12:24:47.000Z</time>
        <extensions>
          <ns3:TrackPointExtension>
            <ns3:atemp>21.0</ns3:atemp>
          </ns3:TrackPointExtension>
        </extensions>
      </trkpt>
      <trkpt lat="42.5105678848922252655029296875" lon="19.89281178452074527740478515625">
        <ele>1707.800048828125</ele>
        <time>2026-06-17T12:24:48.000Z</time>
        <extensions>
          <ns3:TrackPointExtension>
            <ns3:atemp>20.0</ns3:atemp>
          </ns3:TrackPointExtension>
        </extensions>
      </trkpt>
      <trkpt lat="42.51056394539773464202880859375" lon="19.8928095214068889617919921875">
        <ele>1707.800048828125</ele>
        <time>2026-06-17T12:24:49.000Z</time>
        <extensions>
          <ns3:TrackPointExtension>
            <ns3:atemp>21.0</ns3:atemp>
          </ns3:TrackPointExtension>
        </extensions>
      </trkpt>
      <trkpt lat="42.510554976761341094970703125" lon="19.89280499517917633056640625">
        <ele>1707.800048828125</ele>
        <time>2026-06-17T12:24:50.000Z</time>
        <extensions>
          <ns3:TrackPointExtension>
            <ns3:atemp>21.0</ns3:atemp>
          </ns3:TrackPointExtension>
        </extensions>
      </trkpt>
      <trkpt lat="42.5105534680187702178955078125" lon="19.8928038217127323150634765625">
        <ele>1707.800048828125</ele>
        <time>2026-06-17T12:24:51.000Z</time>
        <extensions>
          <ns3:TrackPointExtension>
            <ns3:atemp>21.0</ns3:atemp>
          </ns3:TrackPointExtension>
        </extensions>
      </trkpt>
      <trkpt lat="42.51055338419973850250244140625" lon="19.89280365407466888427734375">
        <ele>1707.800048828125</ele>
        <time>2026-06-17T12:24:52.000Z</time>
        <extensions>
          <ns3:TrackPointExtension>
            <ns3:atemp>21.0</ns3:atemp>
          </ns3:TrackPointExtension>
        </extensions>
      </trkpt>
      <trkpt lat="42.51055338419973850250244140625" lon="19.89280365407466888427734375">
        <ele>1707.800048828125</ele>
        <time>2026-06-17T12:24:53.000Z</time>
        <extensions>
          <ns3:TrackPointExtension>
            <ns3:atemp>21.0</ns3:atemp>
          </ns3:TrackPointExtension>
        </extensions>
      </trkpt>
      <trkpt lat="42.51055338419973850250244140625" lon="19.8928031511604785919189453125">
        <ele>1707.800048828125</ele>
        <time>2026-06-17T12:24:54.000Z</time>
        <extensions>
          <ns3:TrackPointExtension>
            <ns3:atemp>21.0</ns3:atemp>
          </ns3:TrackPointExtension>
        </extensions>
      </trkpt>
      <trkpt lat="42.51055405475199222564697265625" lon="19.89279099740087985992431640625">
        <ele>1707.800048828125</ele>
        <time>2026-06-17T12:24:55.000Z</time>
        <extensions>
          <ns3:TrackPointExtension>
            <ns3:atemp>21.0</ns3:atemp>
          </ns3:TrackPointExtension>
        </extensions>
      </trkpt>
      <trkpt lat="42.51055455766618251800537109375" lon="19.89278513006865978240966796875">
        <ele>1707.800048828125</ele>
        <time>2026-06-17T12:24:56.000Z</time>
        <extensions>
          <ns3:TrackPointExtension>
            <ns3:atemp>21.0</ns3:atemp>
          </ns3:TrackPointExtension>
        </extensions>
      </trkpt>
      <trkpt lat="42.51055455766618251800537109375" lon="19.89278496243059635162353515625">
        <ele>1707.800048828125</ele>
        <time>2026-06-17T12:24:57.000Z</time>
        <extensions>
          <ns3:TrackPointExtension>
            <ns3:atemp>21.0</ns3:atemp>
          </ns3:TrackPointExtension>
        </extensions>
      </trkpt>
      <trkpt lat="42.51055455766618251800537109375" lon="19.89278496243059635162353515625">
        <ele>1707.800048828125</ele>
        <time>2026-06-17T12:24:58.000Z</time>
        <extensions>
          <ns3:TrackPointExtension>
            <ns3:atemp>21.0</ns3:atemp>
          </ns3:TrackPointExtension>
        </extensions>
      </trkpt>
      <trkpt lat="42.51055455766618251800537109375" lon="19.89278496243059635162353515625">
        <ele>1707.800048828125</ele>
        <time>2026-06-17T12:24:59.000Z</time>
        <extensions>
          <ns3:TrackPointExtension>
            <ns3:atemp>21.0</ns3:atemp>
          </ns3:TrackPointExtension>
        </extensions>
      </trkpt>
      <trkpt lat="42.51055455766618251800537109375" lon="19.89278496243059635162353515625">
        <ele>1707.800048828125</ele>
        <time>2026-06-17T12:25:00.000Z</time>
        <extensions>
          <ns3:TrackPointExtension>
            <ns3:atemp>21.0</ns3:atemp>
          </ns3:TrackPointExtension>
        </extensions>
      </trkpt>
      <trkpt lat="42.510554306209087371826171875" lon="19.89278395660221576690673828125">
        <ele>1707.800048828125</ele>
        <time>2026-06-17T12:25:01.000Z</time>
        <extensions>
          <ns3:TrackPointExtension>
            <ns3:atemp>21.0</ns3:atemp>
          </ns3:TrackPointExtension>
        </extensions>
      </trkpt>
      <trkpt lat="42.51055070199072360992431640625" lon="19.89276719279587268829345703125">
        <ele>1707.800048828125</ele>
        <time>2026-06-17T12:25:02.000Z</time>
        <extensions>
          <ns3:TrackPointExtension>
            <ns3:atemp>21.0</ns3:atemp>
          </ns3:TrackPointExtension>
        </extensions>
      </trkpt>
      <trkpt lat="42.51054986380040645599365234375" lon="19.89276048727333545684814453125">
        <ele>1707.800048828125</ele>
        <time>2026-06-17T12:25:03.000Z</time>
        <extensions>
          <ns3:TrackPointExtension>
            <ns3:atemp>21.0</ns3:atemp>
          </ns3:TrackPointExtension>
        </extensions>
      </trkpt>
      <trkpt lat="42.5105538032948970794677734375" lon="19.89275562576949596405029296875">
        <ele>1707.800048828125</ele>
        <time>2026-06-17T12:25:04.000Z</time>
        <extensions>
          <ns3:TrackPointExtension>
            <ns3:atemp>21.0</ns3:atemp>
          </ns3:TrackPointExtension>
        </extensions>
      </trkpt>
      <trkpt lat="42.51055371947586536407470703125" lon="19.8927528597414493560791015625">
        <ele>1707.800048828125</ele>
        <time>2026-06-17T12:25:05.000Z</time>
        <extensions>
          <ns3:TrackPointExtension>
            <ns3:atemp>21.0</ns3:atemp>
          </ns3:TrackPointExtension>
        </extensions>
      </trkpt>
      <trkpt lat="42.5105527974665164947509765625" lon="19.89275646395981311798095703125">
        <ele>1707.800048828125</ele>
        <time>2026-06-17T12:25:06.000Z</time>
        <extensions>
          <ns3:TrackPointExtension>
            <ns3:atemp>21.0</ns3:atemp>
          </ns3:TrackPointExtension>
        </extensions>
      </trkpt>
      <trkpt lat="42.5105527974665164947509765625" lon="19.89275646395981311798095703125">
        <ele>1707.800048828125</ele>
        <time>2026-06-17T12:25:07.000Z</time>
        <extensions>
          <ns3:TrackPointExtension>
            <ns3:atemp>21.0</ns3:atemp>
          </ns3:TrackPointExtension>
        </extensions>
      </trkpt>
      <trkpt lat="42.5105527974665164947509765625" lon="19.89275646395981311798095703125">
        <ele>1707.800048828125</ele>
        <time>2026-06-17T12:25:08.000Z</time>
        <extensions>
          <ns3:TrackPointExtension>
            <ns3:atemp>21.0</ns3:atemp>
          </ns3:TrackPointExtension>
        </extensions>
      </trkpt>
      <trkpt lat="42.5105527974665164947509765625" lon="19.89275646395981311798095703125">
        <ele>1707.800048828125</ele>
        <time>2026-06-17T12:25:09.000Z</time>
        <extensions>
          <ns3:TrackPointExtension>
            <ns3:atemp>21.0</ns3:atemp>
          </ns3:TrackPointExtension>
        </extensions>
      </trkpt>
      <trkpt lat="42.5105527974665164947509765625" lon="19.89275646395981311798095703125">
        <ele>1707.800048828125</ele>
        <time>2026-06-17T12:25:10.000Z</time>
        <extensions>
          <ns3:TrackPointExtension>
            <ns3:atemp>21.0</ns3:atemp>
          </ns3:TrackPointExtension>
        </extensions>
      </trkpt>
      <trkpt lat="42.5105527974665164947509765625" lon="19.89275646395981311798095703125">
        <ele>1707.800048828125</ele>
        <time>2026-06-17T12:25:11.000Z</time>
        <extensions>
          <ns3:TrackPointExtension>
            <ns3:atemp>21.0</ns3:atemp>
          </ns3:TrackPointExtension>
        </extensions>
      </trkpt>
      <trkpt lat="42.5105527974665164947509765625" lon="19.89275646395981311798095703125">
        <ele>1707.800048828125</ele>
        <time>2026-06-17T12:25:12.000Z</time>
        <extensions>
          <ns3:TrackPointExtension>
            <ns3:atemp>21.0</ns3:atemp>
          </ns3:TrackPointExtension>
        </extensions>
      </trkpt>
      <trkpt lat="42.5105527974665164947509765625" lon="19.89275646395981311798095703125">
        <ele>1707.800048828125</ele>
        <time>2026-06-17T12:25:13.000Z</time>
        <extensions>
          <ns3:TrackPointExtension>
            <ns3:atemp>21.0</ns3:atemp>
          </ns3:TrackPointExtension>
        </extensions>
      </trkpt>
      <trkpt lat="42.5105527974665164947509765625" lon="19.89275646395981311798095703125">
        <ele>1707.800048828125</ele>
        <time>2026-06-17T12:25:14.000Z</time>
        <extensions>
          <ns3:TrackPointExtension>
            <ns3:atemp>21.0</ns3:atemp>
          </ns3:TrackPointExtension>
        </extensions>
      </trkpt>
      <trkpt lat="42.5105527974665164947509765625" lon="19.89275646395981311798095703125">
        <ele>1707.800048828125</ele>
        <time>2026-06-17T12:25:15.000Z</time>
        <extensions>
          <ns3:TrackPointExtension>
            <ns3:atemp>21.0</ns3:atemp>
          </ns3:TrackPointExtension>
        </extensions>
      </trkpt>
      <trkpt lat="42.5105527974665164947509765625" lon="19.89275646395981311798095703125">
        <ele>1707.800048828125</ele>
        <time>2026-06-17T12:25:16.000Z</time>
        <extensions>
          <ns3:TrackPointExtension>
            <ns3:atemp>21.0</ns3:atemp>
          </ns3:TrackPointExtension>
        </extensions>
      </trkpt>
      <trkpt lat="42.5105527974665164947509765625" lon="19.89275646395981311798095703125">
        <ele>1707.800048828125</ele>
        <time>2026-06-17T12:25:17.000Z</time>
        <extensions>
          <ns3:TrackPointExtension>
            <ns3:atemp>21.0</ns3:atemp>
          </ns3:TrackPointExtension>
        </extensions>
      </trkpt>
      <trkpt lat="42.5105527974665164947509765625" lon="19.89275646395981311798095703125">
        <ele>1707.800048828125</ele>
        <time>2026-06-17T12:25:18.000Z</time>
        <extensions>
          <ns3:TrackPointExtension>
            <ns3:atemp>21.0</ns3:atemp>
          </ns3:TrackPointExtension>
        </extensions>
      </trkpt>
      <trkpt lat="42.5105527974665164947509765625" lon="19.89275646395981311798095703125">
        <ele>1707.800048828125</ele>
        <time>2026-06-17T12:25:19.000Z</time>
        <extensions>
          <ns3:TrackPointExtension>
            <ns3:atemp>21.0</ns3:atemp>
          </ns3:TrackPointExtension>
        </extensions>
      </trkpt>
      <trkpt lat="42.5105527974665164947509765625" lon="19.89275646395981311798095703125">
        <ele>1707.800048828125</ele>
        <time>2026-06-17T12:25:20.000Z</time>
        <extensions>
          <ns3:TrackPointExtension>
            <ns3:atemp>21.0</ns3:atemp>
          </ns3:TrackPointExtension>
        </extensions>
      </trkpt>
      <trkpt lat="42.5105527974665164947509765625" lon="19.89275646395981311798095703125">
        <ele>1707.800048828125</ele>
        <time>2026-06-17T12:25:21.000Z</time>
        <extensions>
          <ns3:TrackPointExtension>
            <ns3:atemp>21.0</ns3:atemp>
          </ns3:TrackPointExtension>
        </extensions>
      </trkpt>
      <trkpt lat="42.5105527974665164947509765625" lon="19.89275646395981311798095703125">
        <ele>1707.800048828125</ele>
        <time>2026-06-17T12:25:22.000Z</time>
        <extensions>
          <ns3:TrackPointExtension>
            <ns3:atemp>21.0</ns3:atemp>
          </ns3:TrackPointExtension>
        </extensions>
      </trkpt>
      <trkpt lat="42.51055262982845306396484375" lon="19.8927533626556396484375">
        <ele>1707.800048828125</ele>
        <time>2026-06-17T12:25:23.000Z</time>
        <extensions>
          <ns3:TrackPointExtension>
            <ns3:atemp>21.0</ns3:atemp>
          </ns3:TrackPointExtension>
        </extensions>
      </trkpt>
      <trkpt lat="42.510557658970355987548828125" lon="19.8927434720098972320556640625">
        <ele>1707.800048828125</ele>
        <time>2026-06-17T12:25:24.000Z</time>
        <extensions>
          <ns3:TrackPointExtension>
            <ns3:atemp>21.0</ns3:atemp>
          </ns3:TrackPointExtension>
        </extensions>
      </trkpt>
      <trkpt lat="42.51056629233062267303466796875" lon="19.89273525774478912353515625">
        <ele>1707.800048828125</ele>
        <time>2026-06-17T12:25:25.000Z</time>
        <extensions>
          <ns3:TrackPointExtension>
            <ns3:atemp>21.0</ns3:atemp>
          </ns3:TrackPointExtension>
        </extensions>
      </trkpt>
      <trkpt lat="42.5105749256908893585205078125" lon="19.89273257553577423095703125">
        <ele>1707.800048828125</ele>
        <time>2026-06-17T12:25:26.000Z</time>
        <extensions>
          <ns3:TrackPointExtension>
            <ns3:atemp>21.0</ns3:atemp>
          </ns3:TrackPointExtension>
        </extensions>
      </trkpt>
      <trkpt lat="42.51058288849890232086181640625" lon="19.8927314020693302154541015625">
        <ele>1707.800048828125</ele>
        <time>2026-06-17T12:25:27.000Z</time>
        <extensions>
          <ns3:TrackPointExtension>
            <ns3:atemp>21.0</ns3:atemp>
          </ns3:TrackPointExtension>
        </extensions>
      </trkpt>
      <trkpt lat="42.5105893425643444061279296875" lon="19.8927240259945392608642578125">
        <ele>1707.800048828125</ele>
        <time>2026-06-17T12:25:28.000Z</time>
        <extensions>
          <ns3:TrackPointExtension>
            <ns3:atemp>21.0</ns3:atemp>
          </ns3:TrackPointExtension>
        </extensions>
      </trkpt>
      <trkpt lat="42.5105977244675159454345703125" lon="19.89271941594779491424560546875">
        <ele>1707.800048828125</ele>
        <time>2026-06-17T12:25:29.000Z</time>
        <extensions>
          <ns3:TrackPointExtension>
            <ns3:atemp>21.0</ns3:atemp>
          </ns3:TrackPointExtension>
        </extensions>
      </trkpt>
      <trkpt lat="42.5105947069823741912841796875" lon="19.89272092469036579132080078125">
        <ele>1707.800048828125</ele>
        <time>2026-06-17T12:25:30.000Z</time>
        <extensions>
          <ns3:TrackPointExtension>
            <ns3:atemp>21.0</ns3:atemp>
          </ns3:TrackPointExtension>
        </extensions>
      </trkpt>
      <trkpt lat="42.51059462316334247589111328125" lon="19.89272092469036579132080078125">
        <ele>1707.800048828125</ele>
        <time>2026-06-17T12:25:31.000Z</time>
        <extensions>
          <ns3:TrackPointExtension>
            <ns3:atemp>21.0</ns3:atemp>
          </ns3:TrackPointExtension>
        </extensions>
      </trkpt>
      <trkpt lat="42.51059462316334247589111328125" lon="19.89272092469036579132080078125">
        <ele>1707.800048828125</ele>
        <time>2026-06-17T12:25:32.000Z</time>
        <extensions>
          <ns3:TrackPointExtension>
            <ns3:atemp>21.0</ns3:atemp>
          </ns3:TrackPointExtension>
        </extensions>
      </trkpt>
      <trkpt lat="42.51059462316334247589111328125" lon="19.89272092469036579132080078125">
        <ele>1707.800048828125</ele>
        <time>2026-06-17T12:25:33.000Z</time>
        <extensions>
          <ns3:TrackPointExtension>
            <ns3:atemp>21.0</ns3:atemp>
          </ns3:TrackPointExtension>
        </extensions>
      </trkpt>
      <trkpt lat="42.51059462316334247589111328125" lon="19.89272092469036579132080078125">
        <ele>1707.800048828125</ele>
        <time>2026-06-17T12:25:34.000Z</time>
        <extensions>
          <ns3:TrackPointExtension>
            <ns3:atemp>21.0</ns3:atemp>
          </ns3:TrackPointExtension>
        </extensions>
      </trkpt>
      <trkpt lat="42.51059462316334247589111328125" lon="19.89272092469036579132080078125">
        <ele>1707.800048828125</ele>
        <time>2026-06-17T12:25:35.000Z</time>
        <extensions>
          <ns3:TrackPointExtension>
            <ns3:atemp>21.0</ns3:atemp>
          </ns3:TrackPointExtension>
        </extensions>
      </trkpt>
      <trkpt lat="42.51059462316334247589111328125" lon="19.89272092469036579132080078125">
        <ele>1707.800048828125</ele>
        <time>2026-06-17T12:25:36.000Z</time>
        <extensions>
          <ns3:TrackPointExtension>
            <ns3:atemp>21.0</ns3:atemp>
          </ns3:TrackPointExtension>
        </extensions>
      </trkpt>
      <trkpt lat="42.51059462316334247589111328125" lon="19.89272092469036579132080078125">
        <ele>1707.800048828125</ele>
        <time>2026-06-17T12:25:37.000Z</time>
        <extensions>
          <ns3:TrackPointExtension>
            <ns3:atemp>21.0</ns3:atemp>
          </ns3:TrackPointExtension>
        </extensions>
      </trkpt>
      <trkpt lat="42.51059428788721561431884765625" lon="19.89272142760455608367919921875">
        <ele>1707.800048828125</ele>
        <time>2026-06-17T12:25:38.000Z</time>
        <extensions>
          <ns3:TrackPointExtension>
            <ns3:atemp>21.0</ns3:atemp>
          </ns3:TrackPointExtension>
        </extensions>
      </trkpt>
      <trkpt lat="42.51060082577168941497802734375" lon="19.8927230201661586761474609375">
        <ele>1707.800048828125</ele>
        <time>2026-06-17T12:25:39.000Z</time>
        <extensions>
          <ns3:TrackPointExtension>
            <ns3:atemp>21.0</ns3:atemp>
          </ns3:TrackPointExtension>
        </extensions>
      </trkpt>
      <trkpt lat="42.5106101296842098236083984375" lon="19.8927159793674945831298828125">
        <ele>1707.800048828125</ele>
        <time>2026-06-17T12:25:40.000Z</time>
        <extensions>
          <ns3:TrackPointExtension>
            <ns3:atemp>21.0</ns3:atemp>
          </ns3:TrackPointExtension>
        </extensions>
      </trkpt>
      <trkpt lat="42.51062362454831600189208984375" lon="19.89270516671240329742431640625">
        <ele>1707.800048828125</ele>
        <time>2026-06-17T12:25:41.000Z</time>
        <extensions>
          <ns3:TrackPointExtension>
            <ns3:atemp>21.0</ns3:atemp>
          </ns3:TrackPointExtension>
        </extensions>
      </trkpt>
      <trkpt lat="42.51063577830791473388671875" lon="19.8926908336579799652099609375">
        <ele>1705.5999755859375</ele>
        <time>2026-06-17T12:25:42.000Z</time>
        <extensions>
          <ns3:TrackPointExtension>
            <ns3:atemp>21.0</ns3:atemp>
          </ns3:TrackPointExtension>
        </extensions>
      </trkpt>
      <trkpt lat="42.5106473453342914581298828125" lon="19.8926790989935398101806640625">
        <ele>1705.4000244140625</ele>
        <time>2026-06-17T12:25:43.000Z</time>
        <extensions>
          <ns3:TrackPointExtension>
            <ns3:atemp>21.0</ns3:atemp>
          </ns3:TrackPointExtension>
        </extensions>
      </trkpt>
      <trkpt lat="42.51065983437001705169677734375" lon="19.89266158081591129302978515625">
        <ele>1705.199951171875</ele>
        <time>2026-06-17T12:25:44.000Z</time>
        <extensions>
          <ns3:TrackPointExtension>
            <ns3:atemp>21.0</ns3:atemp>
          </ns3:TrackPointExtension>
        </extensions>
      </trkpt>
      <trkpt lat="42.5106771849095821380615234375" lon="19.89264498464763164520263671875">
        <ele>1705</ele>
        <time>2026-06-17T12:25:45.000Z</time>
        <extensions>
          <ns3:TrackPointExtension>
            <ns3:atemp>21.0</ns3:atemp>
          </ns3:TrackPointExtension>
        </extensions>
      </trkpt>
      <trkpt lat="42.51069805584847927093505859375" lon="19.89262000657618045806884765625">
        <ele>1704.5999755859375</ele>
        <time>2026-06-17T12:25:46.000Z</time>
        <extensions>
          <ns3:TrackPointExtension>
            <ns3:atemp>21.0</ns3:atemp>
          </ns3:TrackPointExtension>
        </extensions>
      </trkpt>
      <trkpt lat="42.510717250406742095947265625" lon="19.8925910890102386474609375">
        <ele>1704.4000244140625</ele>
        <time>2026-06-17T12:25:47.000Z</time>
        <extensions>
          <ns3:TrackPointExtension>
            <ns3:atemp>21.0</ns3:atemp>
          </ns3:TrackPointExtension>
        </extensions>
      </trkpt>
      <trkpt lat="42.510732002556324005126953125" lon="19.8925610817968845367431640625">
        <ele>1704</ele>
        <time>2026-06-17T12:25:48.000Z</time>
        <extensions>
          <ns3:TrackPointExtension>
            <ns3:atemp>21.0</ns3:atemp>
          </ns3:TrackPointExtension>
        </extensions>
      </trkpt>
      <trkpt lat="42.5107459165155887603759765625" lon="19.8925356008112430572509765625">
        <ele>1703.5999755859375</ele>
        <time>2026-06-17T12:25:49.000Z</time>
        <extensions>
          <ns3:TrackPointExtension>
            <ns3:atemp>21.0</ns3:atemp>
          </ns3:TrackPointExtension>
        </extensions>
      </trkpt>
      <trkpt lat="42.5107646919786930084228515625" lon="19.89251087419688701629638671875">
        <ele>1703.199951171875</ele>
        <time>2026-06-17T12:25:50.000Z</time>
        <extensions>
          <ns3:TrackPointExtension>
            <ns3:atemp>21.0</ns3:atemp>
          </ns3:TrackPointExtension>
        </extensions>
      </trkpt>
      <trkpt lat="42.5107851438224315643310546875" lon="19.8925027437508106231689453125">
        <ele>1702.5999755859375</ele>
        <time>2026-06-17T12:25:51.000Z</time>
        <extensions>
          <ns3:TrackPointExtension>
            <ns3:atemp>21.0</ns3:atemp>
          </ns3:TrackPointExtension>
        </extensions>
      </trkpt>
      <trkpt lat="42.510808445513248443603515625" lon="19.89249696023762226104736328125">
        <ele>1702.199951171875</ele>
        <time>2026-06-17T12:25:52.000Z</time>
        <extensions>
          <ns3:TrackPointExtension>
            <ns3:atemp>21.0</ns3:atemp>
          </ns3:TrackPointExtension>
        </extensions>
      </trkpt>
      <trkpt lat="42.510829232633113861083984375" lon="19.89249293692409992218017578125">
        <ele>1701.800048828125</ele>
        <time>2026-06-17T12:25:53.000Z</time>
        <extensions>
          <ns3:TrackPointExtension>
            <ns3:atemp>21.0</ns3:atemp>
          </ns3:TrackPointExtension>
        </extensions>
      </trkpt>
      <trkpt lat="42.510850019752979278564453125" lon="19.89248539321124553680419921875">
        <ele>1701.199951171875</ele>
        <time>2026-06-17T12:25:54.000Z</time>
        <extensions>
          <ns3:TrackPointExtension>
            <ns3:atemp>21.0</ns3:atemp>
          </ns3:TrackPointExtension>
        </extensions>
      </trkpt>
      <trkpt lat="42.51086988486349582672119140625" lon="19.892476759850978851318359375">
        <ele>1700.800048828125</ele>
        <time>2026-06-17T12:25:55.000Z</time>
        <extensions>
          <ns3:TrackPointExtension>
            <ns3:atemp>21.0</ns3:atemp>
          </ns3:TrackPointExtension>
        </extensions>
      </trkpt>
      <trkpt lat="42.51089972443878650665283203125" lon="19.8924651928246021270751953125">
        <ele>1700.199951171875</ele>
        <time>2026-06-17T12:25:56.000Z</time>
        <extensions>
          <ns3:TrackPointExtension>
            <ns3:atemp>21.0</ns3:atemp>
          </ns3:TrackPointExtension>
        </extensions>
      </trkpt>
      <trkpt lat="42.5109355151653289794921875" lon="19.892442561686038970947265625">
        <ele>1699.5999755859375</ele>
        <time>2026-06-17T12:25:57.000Z</time>
        <extensions>
          <ns3:TrackPointExtension>
            <ns3:atemp>21.0</ns3:atemp>
          </ns3:TrackPointExtension>
        </extensions>
      </trkpt>
      <trkpt lat="42.51097734086215496063232421875" lon="19.89242437295615673065185546875">
        <ele>1699</ele>
        <time>2026-06-17T12:25:58.000Z</time>
        <extensions>
          <ns3:TrackPointExtension>
            <ns3:atemp>21.0</ns3:atemp>
          </ns3:TrackPointExtension>
        </extensions>
      </trkpt>
      <trkpt lat="42.51101723872125148773193359375" lon="19.8924001492559909820556640625">
        <ele>1698.4000244140625</ele>
        <time>2026-06-17T12:25:59.000Z</time>
        <extensions>
          <ns3:TrackPointExtension>
            <ns3:atemp>21.0</ns3:atemp>
          </ns3:TrackPointExtension>
        </extensions>
      </trkpt>
      <trkpt lat="42.5110567174851894378662109375" lon="19.89237190224230289459228515625">
        <ele>1697.800048828125</ele>
        <time>2026-06-17T12:26:00.000Z</time>
        <extensions>
          <ns3:TrackPointExtension>
            <ns3:atemp>21.0</ns3:atemp>
          </ns3:TrackPointExtension>
        </extensions>
      </trkpt>
      <trkpt lat="42.51108345575630664825439453125" lon="19.8923347704112529754638671875">
        <ele>1697.199951171875</ele>
        <time>2026-06-17T12:26:01.000Z</time>
        <extensions>
          <ns3:TrackPointExtension>
            <ns3:atemp>21.0</ns3:atemp>
          </ns3:TrackPointExtension>
        </extensions>
      </trkpt>
      <trkpt lat="42.51110273413360118865966796875" lon="19.89229897968471050262451171875">
        <ele>1696.5999755859375</ele>
        <time>2026-06-17T12:26:02.000Z</time>
        <extensions>
          <ns3:TrackPointExtension>
            <ns3:atemp>21.0</ns3:atemp>
          </ns3:TrackPointExtension>
        </extensions>
      </trkpt>
      <trkpt lat="42.51112486235797405242919921875" lon="19.89226327277719974517822265625">
        <ele>1696.199951171875</ele>
        <time>2026-06-17T12:26:03.000Z</time>
        <extensions>
          <ns3:TrackPointExtension>
            <ns3:atemp>21.0</ns3:atemp>
          </ns3:TrackPointExtension>
        </extensions>
      </trkpt>
      <trkpt lat="42.51114347018301486968994140625" lon="19.89222739823162555694580078125">
        <ele>1695.5999755859375</ele>
        <time>2026-06-17T12:26:04.000Z</time>
        <extensions>
          <ns3:TrackPointExtension>
            <ns3:atemp>21.0</ns3:atemp>
          </ns3:TrackPointExtension>
        </extensions>
      </trkpt>
      <trkpt lat="42.51115201972424983978271484375" lon="19.89218079484999179840087890625">
        <ele>1695.199951171875</ele>
        <time>2026-06-17T12:26:05.000Z</time>
        <extensions>
          <ns3:TrackPointExtension>
            <ns3:atemp>21.0</ns3:atemp>
          </ns3:TrackPointExtension>
        </extensions>
      </trkpt>
      <trkpt lat="42.51116626895964145660400390625" lon="19.89214458502829074859619140625">
        <ele>1694.800048828125</ele>
        <time>2026-06-17T12:26:06.000Z</time>
        <extensions>
          <ns3:TrackPointExtension>
            <ns3:atemp>21.0</ns3:atemp>
          </ns3:TrackPointExtension>
        </extensions>
      </trkpt>
      <trkpt lat="42.51118085347115993499755859375" lon="19.89211390726268291473388671875">
        <ele>1694.5999755859375</ele>
        <time>2026-06-17T12:26:07.000Z</time>
        <extensions>
          <ns3:TrackPointExtension>
            <ns3:atemp>21.0</ns3:atemp>
          </ns3:TrackPointExtension>
        </extensions>
      </trkpt>
      <trkpt lat="42.5112005509436130523681640625" lon="19.8920814692974090576171875">
        <ele>1694.199951171875</ele>
        <time>2026-06-17T12:26:08.000Z</time>
        <extensions>
          <ns3:TrackPointExtension>
            <ns3:atemp>21.0</ns3:atemp>
          </ns3:TrackPointExtension>
        </extensions>
      </trkpt>
      <trkpt lat="42.51121873967349529266357421875" lon="19.89205422811210155487060546875">
        <ele>1693.800048828125</ele>
        <time>2026-06-17T12:26:09.000Z</time>
        <extensions>
          <ns3:TrackPointExtension>
            <ns3:atemp>21.0</ns3:atemp>
          </ns3:TrackPointExtension>
        </extensions>
      </trkpt>
      <trkpt lat="42.51123198308050632476806640625" lon="19.8920313455164432525634765625">
        <ele>1693.5999755859375</ele>
        <time>2026-06-17T12:26:10.000Z</time>
        <extensions>
          <ns3:TrackPointExtension>
            <ns3:atemp>21.0</ns3:atemp>
          </ns3:TrackPointExtension>
        </extensions>
      </trkpt>
      <trkpt lat="42.5112421251833438873291015625" lon="19.89200326614081859588623046875">
        <ele>1693.4000244140625</ele>
        <time>2026-06-17T12:26:11.000Z</time>
        <extensions>
          <ns3:TrackPointExtension>
            <ns3:atemp>21.0</ns3:atemp>
          </ns3:TrackPointExtension>
        </extensions>
      </trkpt>
      <trkpt lat="42.5112575478851795196533203125" lon="19.89198289811611175537109375">
        <ele>1693</ele>
        <time>2026-06-17T12:26:12.000Z</time>
        <extensions>
          <ns3:TrackPointExtension>
            <ns3:atemp>21.0</ns3:atemp>
          </ns3:TrackPointExtension>
        </extensions>
      </trkpt>
      <trkpt lat="42.51127791590988636016845703125" lon="19.8919619433581829071044921875">
        <ele>1692.4000244140625</ele>
        <time>2026-06-17T12:26:13.000Z</time>
        <extensions>
          <ns3:TrackPointExtension>
            <ns3:atemp>21.0</ns3:atemp>
          </ns3:TrackPointExtension>
        </extensions>
      </trkpt>
      <trkpt lat="42.51129954122006893157958984375" lon="19.89193336106836795806884765625">
        <ele>1692</ele>
        <time>2026-06-17T12:26:14.000Z</time>
        <extensions>
          <ns3:TrackPointExtension>
            <ns3:atemp>21.0</ns3:atemp>
          </ns3:TrackPointExtension>
        </extensions>
      </trkpt>
      <trkpt lat="42.5113225914537906646728515625" lon="19.89190603606402873992919921875">
        <ele>1691.5999755859375</ele>
        <time>2026-06-17T12:26:15.000Z</time>
        <extensions>
          <ns3:TrackPointExtension>
            <ns3:atemp>21.0</ns3:atemp>
          </ns3:TrackPointExtension>
        </extensions>
      </trkpt>
      <trkpt lat="42.5113467313349246978759765625" lon="19.8918834887444972991943359375">
        <ele>1691</ele>
        <time>2026-06-17T12:26:16.000Z</time>
        <extensions>
          <ns3:TrackPointExtension>
            <ns3:atemp>21.0</ns3:atemp>
          </ns3:TrackPointExtension>
        </extensions>
      </trkpt>
      <trkpt lat="42.51136533915996551513671875" lon="19.8918814770877361297607421875">
        <ele>1690.4000244140625</ele>
        <time>2026-06-17T12:26:17.000Z</time>
        <extensions>
          <ns3:TrackPointExtension>
            <ns3:atemp>21.0</ns3:atemp>
          </ns3:TrackPointExtension>
        </extensions>
      </trkpt>
      <trkpt lat="42.51138973049819469451904296875" lon="19.8918803036212921142578125">
        <ele>1690</ele>
        <time>2026-06-17T12:26:18.000Z</time>
        <extensions>
          <ns3:TrackPointExtension>
            <ns3:atemp>21.0</ns3:atemp>
          </ns3:TrackPointExtension>
        </extensions>
      </trkpt>
      <trkpt lat="42.5114107690751552581787109375" lon="19.891874603927135467529296875">
        <ele>1689.4000244140625</ele>
        <time>2026-06-17T12:26:19.000Z</time>
        <extensions>
          <ns3:TrackPointExtension>
            <ns3:atemp>21.0</ns3:atemp>
          </ns3:TrackPointExtension>
        </extensions>
      </trkpt>
      <trkpt lat="42.51143298111855983734130859375" lon="19.89186085760593414306640625">
        <ele>1689.199951171875</ele>
        <time>2026-06-17T12:26:20.000Z</time>
        <extensions>
          <ns3:TrackPointExtension>
            <ns3:atemp>21.0</ns3:atemp>
          </ns3:TrackPointExtension>
        </extensions>
      </trkpt>
      <trkpt lat="42.5114432908594608306884765625" lon="19.89185658283531665802001953125">
        <ele>1688.800048828125</ele>
        <time>2026-06-17T12:26:21.000Z</time>
        <extensions>
          <ns3:TrackPointExtension>
            <ns3:atemp>21.0</ns3:atemp>
          </ns3:TrackPointExtension>
        </extensions>
      </trkpt>
      <trkpt lat="42.5114503316581249237060546875" lon="19.89184669218957424163818359375">
        <ele>1688.4000244140625</ele>
        <time>2026-06-17T12:26:22.000Z</time>
        <extensions>
          <ns3:TrackPointExtension>
            <ns3:atemp>21.0</ns3:atemp>
          </ns3:TrackPointExtension>
        </extensions>
      </trkpt>
      <trkpt lat="42.5114593841135501861572265625" lon="19.89183428697288036346435546875">
        <ele>1688</ele>
        <time>2026-06-17T12:26:23.000Z</time>
        <extensions>
          <ns3:TrackPointExtension>
            <ns3:atemp>21.0</ns3:atemp>
          </ns3:TrackPointExtension>
        </extensions>
      </trkpt>
      <trkpt lat="42.5114587135612964630126953125" lon="19.8918214626610279083251953125">
        <ele>1687.5999755859375</ele>
        <time>2026-06-17T12:26:24.000Z</time>
        <extensions>
          <ns3:TrackPointExtension>
            <ns3:atemp>21.0</ns3:atemp>
          </ns3:TrackPointExtension>
        </extensions>
      </trkpt>
      <trkpt lat="42.51146189868450164794921875" lon="19.8918070457875728607177734375">
        <ele>1687.199951171875</ele>
        <time>2026-06-17T12:26:25.000Z</time>
        <extensions>
          <ns3:TrackPointExtension>
            <ns3:atemp>21.0</ns3:atemp>
          </ns3:TrackPointExtension>
        </extensions>
      </trkpt>
      <trkpt lat="42.5114714540541172027587890625" lon="19.8917865939438343048095703125">
        <ele>1686.800048828125</ele>
        <time>2026-06-17T12:26:26.000Z</time>
        <extensions>
          <ns3:TrackPointExtension>
            <ns3:atemp>21.0</ns3:atemp>
          </ns3:TrackPointExtension>
        </extensions>
      </trkpt>
      <trkpt lat="42.5114800035953521728515625" lon="19.89175633527338504791259765625">
        <ele>1686.4000244140625</ele>
        <time>2026-06-17T12:26:27.000Z</time>
        <extensions>
          <ns3:TrackPointExtension>
            <ns3:atemp>21.0</ns3:atemp>
          </ns3:TrackPointExtension>
        </extensions>
      </trkpt>
      <trkpt lat="42.51147924922406673431396484375" lon="19.89172968082129955291748046875">
        <ele>1686.199951171875</ele>
        <time>2026-06-17T12:26:28.000Z</time>
        <extensions>
          <ns3:TrackPointExtension>
            <ns3:atemp>21.0</ns3:atemp>
          </ns3:TrackPointExtension>
        </extensions>
      </trkpt>
      <trkpt lat="42.5114758126437664031982421875" lon="19.89170051179826259613037109375">
        <ele>1685.800048828125</ele>
        <time>2026-06-17T12:26:29.000Z</time>
        <extensions>
          <ns3:TrackPointExtension>
            <ns3:atemp>21.0</ns3:atemp>
          </ns3:TrackPointExtension>
        </extensions>
      </trkpt>
      <trkpt lat="42.511475980281829833984375" lon="19.8916746117174625396728515625">
        <ele>1685.4000244140625</ele>
        <time>2026-06-17T12:26:30.000Z</time>
        <extensions>
          <ns3:TrackPointExtension>
            <ns3:atemp>21.0</ns3:atemp>
          </ns3:TrackPointExtension>
        </extensions>
      </trkpt>
      <trkpt lat="42.5114761479198932647705078125" lon="19.891645945608615875244140625">
        <ele>1685</ele>
        <time>2026-06-17T12:26:31.000Z</time>
        <extensions>
          <ns3:TrackPointExtension>
            <ns3:atemp>21.0</ns3:atemp>
          </ns3:TrackPointExtension>
        </extensions>
      </trkpt>
      <trkpt lat="42.51148327253758907318115234375" lon="19.89163110964000225067138671875">
        <ele>1684.5999755859375</ele>
        <time>2026-06-17T12:26:32.000Z</time>
        <extensions>
          <ns3:TrackPointExtension>
            <ns3:atemp>21.0</ns3:atemp>
          </ns3:TrackPointExtension>
        </extensions>
      </trkpt>
      <trkpt lat="42.5114952586591243743896484375" lon="19.89161543548107147216796875">
        <ele>1684.199951171875</ele>
        <time>2026-06-17T12:26:33.000Z</time>
        <extensions>
          <ns3:TrackPointExtension>
            <ns3:atemp>21.0</ns3:atemp>
          </ns3:TrackPointExtension>
        </extensions>
      </trkpt>
      <trkpt lat="42.511511854827404022216796875" lon="19.89160143770277500152587890625">
        <ele>1683.5999755859375</ele>
        <time>2026-06-17T12:26:34.000Z</time>
        <extensions>
          <ns3:TrackPointExtension>
            <ns3:atemp>21.0</ns3:atemp>
          </ns3:TrackPointExtension>
        </extensions>
      </trkpt>
      <trkpt lat="42.5115351565182209014892578125" lon="19.8915959894657135009765625">
        <ele>1683</ele>
        <time>2026-06-17T12:26:35.000Z</time>
        <extensions>
          <ns3:TrackPointExtension>
            <ns3:atemp>21.0</ns3:atemp>
          </ns3:TrackPointExtension>
        </extensions>
      </trkpt>
      <trkpt lat="42.5115539319813251495361328125" lon="19.89157327450811862945556640625">
        <ele>1682.4000244140625</ele>
        <time>2026-06-17T12:26:36.000Z</time>
        <extensions>
          <ns3:TrackPointExtension>
            <ns3:atemp>21.0</ns3:atemp>
          </ns3:TrackPointExtension>
        </extensions>
      </trkpt>
      <trkpt lat="42.51156675629317760467529296875" lon="19.891541004180908203125">
        <ele>1681.800048828125</ele>
        <time>2026-06-17T12:26:37.000Z</time>
        <extensions>
          <ns3:TrackPointExtension>
            <ns3:atemp>21.0</ns3:atemp>
          </ns3:TrackPointExtension>
        </extensions>
      </trkpt>
      <trkpt lat="42.511590979993343353271484375" lon="19.89153170026838779449462890625">
        <ele>1681</ele>
        <time>2026-06-17T12:26:38.000Z</time>
        <extensions>
          <ns3:TrackPointExtension>
            <ns3:atemp>21.0</ns3:atemp>
          </ns3:TrackPointExtension>
        </extensions>
      </trkpt>
      <trkpt lat="42.51161084510385990142822265625" lon="19.8915173672139644622802734375">
        <ele>1680.4000244140625</ele>
        <time>2026-06-17T12:26:39.000Z</time>
        <extensions>
          <ns3:TrackPointExtension>
            <ns3:atemp>21.0</ns3:atemp>
          </ns3:TrackPointExtension>
        </extensions>
      </trkpt>
      <trkpt lat="42.51163012348115444183349609375" lon="19.8914989270269870758056640625">
        <ele>1679.800048828125</ele>
        <time>2026-06-17T12:26:40.000Z</time>
        <extensions>
          <ns3:TrackPointExtension>
            <ns3:atemp>21.0</ns3:atemp>
          </ns3:TrackPointExtension>
        </extensions>
      </trkpt>
      <trkpt lat="42.5116454623639583587646484375" lon="19.8914781399071216583251953125">
        <ele>1678.800048828125</ele>
        <time>2026-06-17T12:26:41.000Z</time>
        <extensions>
          <ns3:TrackPointExtension>
            <ns3:atemp>21.0</ns3:atemp>
          </ns3:TrackPointExtension>
        </extensions>
      </trkpt>
      <trkpt lat="42.51165426336228847503662109375" lon="19.8914526589214801788330078125">
        <ele>1678.199951171875</ele>
        <time>2026-06-17T12:26:42.000Z</time>
        <extensions>
          <ns3:TrackPointExtension>
            <ns3:atemp>21.0</ns3:atemp>
          </ns3:TrackPointExtension>
        </extensions>
      </trkpt>
      <trkpt lat="42.51165728084743022918701171875" lon="19.8914392478764057159423828125">
        <ele>1677.800048828125</ele>
        <time>2026-06-17T12:26:43.000Z</time>
        <extensions>
          <ns3:TrackPointExtension>
            <ns3:atemp>21.0</ns3:atemp>
          </ns3:TrackPointExtension>
        </extensions>
      </trkpt>
      <trkpt lat="42.5116618908941745758056640625" lon="19.8914358951151371002197265625">
        <ele>1677.199951171875</ele>
        <time>2026-06-17T12:26:44.000Z</time>
        <extensions>
          <ns3:TrackPointExtension>
            <ns3:atemp>21.0</ns3:atemp>
          </ns3:TrackPointExtension>
        </extensions>
      </trkpt>
      <trkpt lat="42.5116618908941745758056640625" lon="19.89143564365804195404052734375">
        <ele>1676.800048828125</ele>
        <time>2026-06-17T12:26:45.000Z</time>
        <extensions>
          <ns3:TrackPointExtension>
            <ns3:atemp>21.0</ns3:atemp>
          </ns3:TrackPointExtension>
        </extensions>
      </trkpt>
      <trkpt lat="42.5116618908941745758056640625" lon="19.89143564365804195404052734375">
        <ele>1676.5999755859375</ele>
        <time>2026-06-17T12:26:46.000Z</time>
        <extensions>
          <ns3:TrackPointExtension>
            <ns3:atemp>21.0</ns3:atemp>
          </ns3:TrackPointExtension>
        </extensions>
      </trkpt>
      <trkpt lat="42.5116618908941745758056640625" lon="19.89143530838191509246826171875">
        <ele>1676.199951171875</ele>
        <time>2026-06-17T12:26:47.000Z</time>
        <extensions>
          <ns3:TrackPointExtension>
            <ns3:atemp>21.0</ns3:atemp>
          </ns3:TrackPointExtension>
        </extensions>
      </trkpt>
      <trkpt lat="42.51166708767414093017578125" lon="19.8914261721074581146240234375">
        <ele>1676</ele>
        <time>2026-06-17T12:26:48.000Z</time>
        <extensions>
          <ns3:TrackPointExtension>
            <ns3:atemp>21.0</ns3:atemp>
          </ns3:TrackPointExtension>
        </extensions>
      </trkpt>
      <trkpt lat="42.5116729550063610076904296875" lon="19.8914238251745700836181640625">
        <ele>1675.800048828125</ele>
        <time>2026-06-17T12:26:49.000Z</time>
        <extensions>
          <ns3:TrackPointExtension>
            <ns3:atemp>21.0</ns3:atemp>
          </ns3:TrackPointExtension>
        </extensions>
      </trkpt>
      <trkpt lat="42.51167756505310535430908203125" lon="19.89142558537423610687255859375">
        <ele>1675.800048828125</ele>
        <time>2026-06-17T12:26:50.000Z</time>
        <extensions>
          <ns3:TrackPointExtension>
            <ns3:atemp>21.0</ns3:atemp>
          </ns3:TrackPointExtension>
        </extensions>
      </trkpt>
      <trkpt lat="42.51167756505310535430908203125" lon="19.891425669193267822265625">
        <ele>1675.5999755859375</ele>
        <time>2026-06-17T12:26:51.000Z</time>
        <extensions>
          <ns3:TrackPointExtension>
            <ns3:atemp>21.0</ns3:atemp>
          </ns3:TrackPointExtension>
        </extensions>
      </trkpt>
      <trkpt lat="42.51167756505310535430908203125" lon="19.891425669193267822265625">
        <ele>1675.5999755859375</ele>
        <time>2026-06-17T12:26:52.000Z</time>
        <extensions>
          <ns3:TrackPointExtension>
            <ns3:atemp>21.0</ns3:atemp>
          </ns3:TrackPointExtension>
        </extensions>
      </trkpt>
      <trkpt lat="42.51167756505310535430908203125" lon="19.891425669193267822265625">
        <ele>1675.5999755859375</ele>
        <time>2026-06-17T12:26:53.000Z</time>
        <extensions>
          <ns3:TrackPointExtension>
            <ns3:atemp>21.0</ns3:atemp>
          </ns3:TrackPointExtension>
        </extensions>
      </trkpt>
      <trkpt lat="42.51167756505310535430908203125" lon="19.891425669193267822265625">
        <ele>1675.5999755859375</ele>
        <time>2026-06-17T12:26:54.000Z</time>
        <extensions>
          <ns3:TrackPointExtension>
            <ns3:atemp>21.0</ns3:atemp>
          </ns3:TrackPointExtension>
        </extensions>
      </trkpt>
      <trkpt lat="42.51167756505310535430908203125" lon="19.891425669193267822265625">
        <ele>1675.4000244140625</ele>
        <time>2026-06-17T12:26:55.000Z</time>
        <extensions>
          <ns3:TrackPointExtension>
            <ns3:atemp>21.0</ns3:atemp>
          </ns3:TrackPointExtension>
        </extensions>
      </trkpt>
      <trkpt lat="42.51167756505310535430908203125" lon="19.891425669193267822265625">
        <ele>1675.4000244140625</ele>
        <time>2026-06-17T12:26:56.000Z</time>
        <extensions>
          <ns3:TrackPointExtension>
            <ns3:atemp>21.0</ns3:atemp>
          </ns3:TrackPointExtension>
        </extensions>
      </trkpt>
      <trkpt lat="42.51167756505310535430908203125" lon="19.891425669193267822265625">
        <ele>1675.199951171875</ele>
        <time>2026-06-17T12:26:57.000Z</time>
        <extensions>
          <ns3:TrackPointExtension>
            <ns3:atemp>21.0</ns3:atemp>
          </ns3:TrackPointExtension>
        </extensions>
      </trkpt>
      <trkpt lat="42.51167756505310535430908203125" lon="19.891425669193267822265625">
        <ele>1675.199951171875</ele>
        <time>2026-06-17T12:26:58.000Z</time>
        <extensions>
          <ns3:TrackPointExtension>
            <ns3:atemp>21.0</ns3:atemp>
          </ns3:TrackPointExtension>
        </extensions>
      </trkpt>
      <trkpt lat="42.51167756505310535430908203125" lon="19.891425669193267822265625">
        <ele>1675.199951171875</ele>
        <time>2026-06-17T12:26:59.000Z</time>
        <extensions>
          <ns3:TrackPointExtension>
            <ns3:atemp>21.0</ns3:atemp>
          </ns3:TrackPointExtension>
        </extensions>
      </trkpt>
      <trkpt lat="42.51167756505310535430908203125" lon="19.891425669193267822265625">
        <ele>1675.199951171875</ele>
        <time>2026-06-17T12:27:00.000Z</time>
        <extensions>
          <ns3:TrackPointExtension>
            <ns3:atemp>21.0</ns3:atemp>
          </ns3:TrackPointExtension>
        </extensions>
      </trkpt>
      <trkpt lat="42.51167756505310535430908203125" lon="19.891425669193267822265625">
        <ele>1675.199951171875</ele>
        <time>2026-06-17T12:27:01.000Z</time>
        <extensions>
          <ns3:TrackPointExtension>
            <ns3:atemp>21.0</ns3:atemp>
          </ns3:TrackPointExtension>
        </extensions>
      </trkpt>
      <trkpt lat="42.51167756505310535430908203125" lon="19.891425669193267822265625">
        <ele>1675.199951171875</ele>
        <time>2026-06-17T12:27:02.000Z</time>
        <extensions>
          <ns3:TrackPointExtension>
            <ns3:atemp>21.0</ns3:atemp>
          </ns3:TrackPointExtension>
        </extensions>
      </trkpt>
      <trkpt lat="42.51167756505310535430908203125" lon="19.891425669193267822265625">
        <ele>1675.199951171875</ele>
        <time>2026-06-17T12:27:03.000Z</time>
        <extensions>
          <ns3:TrackPointExtension>
            <ns3:atemp>21.0</ns3:atemp>
          </ns3:TrackPointExtension>
        </extensions>
      </trkpt>
      <trkpt lat="42.51167756505310535430908203125" lon="19.891425669193267822265625">
        <ele>1675.199951171875</ele>
        <time>2026-06-17T12:27:04.000Z</time>
        <extensions>
          <ns3:TrackPointExtension>
            <ns3:atemp>21.0</ns3:atemp>
          </ns3:TrackPointExtension>
        </extensions>
      </trkpt>
      <trkpt lat="42.51167756505310535430908203125" lon="19.891425669193267822265625">
        <ele>1675.199951171875</ele>
        <time>2026-06-17T12:27:05.000Z</time>
        <extensions>
          <ns3:TrackPointExtension>
            <ns3:atemp>21.0</ns3:atemp>
          </ns3:TrackPointExtension>
        </extensions>
      </trkpt>
      <trkpt lat="42.51167756505310535430908203125" lon="19.891425669193267822265625">
        <ele>1675.199951171875</ele>
        <time>2026-06-17T12:27:06.000Z</time>
        <extensions>
          <ns3:TrackPointExtension>
            <ns3:atemp>21.0</ns3:atemp>
          </ns3:TrackPointExtension>
        </extensions>
      </trkpt>
      <trkpt lat="42.51167756505310535430908203125" lon="19.891425669193267822265625">
        <ele>1675.199951171875</ele>
        <time>2026-06-17T12:27:07.000Z</time>
        <extensions>
          <ns3:TrackPointExtension>
            <ns3:atemp>21.0</ns3:atemp>
          </ns3:TrackPointExtension>
        </extensions>
      </trkpt>
      <trkpt lat="42.51167756505310535430908203125" lon="19.891425669193267822265625">
        <ele>1675.199951171875</ele>
        <time>2026-06-17T12:27:08.000Z</time>
        <extensions>
          <ns3:TrackPointExtension>
            <ns3:atemp>21.0</ns3:atemp>
          </ns3:TrackPointExtension>
        </extensions>
      </trkpt>
      <trkpt lat="42.51167756505310535430908203125" lon="19.891425669193267822265625">
        <ele>1675</ele>
        <time>2026-06-17T12:27:09.000Z</time>
        <extensions>
          <ns3:TrackPointExtension>
            <ns3:atemp>21.0</ns3:atemp>
          </ns3:TrackPointExtension>
        </extensions>
      </trkpt>
      <trkpt lat="42.51167756505310535430908203125" lon="19.891425669193267822265625">
        <ele>1675</ele>
        <time>2026-06-17T12:27:10.000Z</time>
        <extensions>
          <ns3:TrackPointExtension>
            <ns3:atemp>21.0</ns3:atemp>
          </ns3:TrackPointExtension>
        </extensions>
      </trkpt>
      <trkpt lat="42.51167756505310535430908203125" lon="19.891425669193267822265625">
        <ele>1675</ele>
        <time>2026-06-17T12:27:11.000Z</time>
        <extensions>
          <ns3:TrackPointExtension>
            <ns3:atemp>21.0</ns3:atemp>
          </ns3:TrackPointExtension>
        </extensions>
      </trkpt>
      <trkpt lat="42.51167756505310535430908203125" lon="19.891425669193267822265625">
        <ele>1675</ele>
        <time>2026-06-17T12:27:12.000Z</time>
        <extensions>
          <ns3:TrackPointExtension>
            <ns3:atemp>21.0</ns3:atemp>
          </ns3:TrackPointExtension>
        </extensions>
      </trkpt>
      <trkpt lat="42.51167756505310535430908203125" lon="19.891425669193267822265625">
        <ele>1675</ele>
        <time>2026-06-17T12:27:13.000Z</time>
        <extensions>
          <ns3:TrackPointExtension>
            <ns3:atemp>21.0</ns3:atemp>
          </ns3:TrackPointExtension>
        </extensions>
      </trkpt>
      <trkpt lat="42.51167756505310535430908203125" lon="19.891425669193267822265625">
        <ele>1675</ele>
        <time>2026-06-17T12:27:14.000Z</time>
        <extensions>
          <ns3:TrackPointExtension>
            <ns3:atemp>21.0</ns3:atemp>
          </ns3:TrackPointExtension>
        </extensions>
      </trkpt>
      <trkpt lat="42.51167756505310535430908203125" lon="19.891425669193267822265625">
        <ele>1674.800048828125</ele>
        <time>2026-06-17T12:27:15.000Z</time>
        <extensions>
          <ns3:TrackPointExtension>
            <ns3:atemp>21.0</ns3:atemp>
          </ns3:TrackPointExtension>
        </extensions>
      </trkpt>
      <trkpt lat="42.51167756505310535430908203125" lon="19.891425669193267822265625">
        <ele>1674.800048828125</ele>
        <time>2026-06-17T12:27:16.000Z</time>
        <extensions>
          <ns3:TrackPointExtension>
            <ns3:atemp>21.0</ns3:atemp>
          </ns3:TrackPointExtension>
        </extensions>
      </trkpt>
      <trkpt lat="42.51167756505310535430908203125" lon="19.891425669193267822265625">
        <ele>1675</ele>
        <time>2026-06-17T12:27:17.000Z</time>
        <extensions>
          <ns3:TrackPointExtension>
            <ns3:atemp>21.0</ns3:atemp>
          </ns3:TrackPointExtension>
        </extensions>
      </trkpt>
      <trkpt lat="42.51167756505310535430908203125" lon="19.891425669193267822265625">
        <ele>1675</ele>
        <time>2026-06-17T12:27:18.000Z</time>
        <extensions>
          <ns3:TrackPointExtension>
            <ns3:atemp>21.0</ns3:atemp>
          </ns3:TrackPointExtension>
        </extensions>
      </trkpt>
      <trkpt lat="42.51167756505310535430908203125" lon="19.891425669193267822265625">
        <ele>1675</ele>
        <time>2026-06-17T12:27:19.000Z</time>
        <extensions>
          <ns3:TrackPointExtension>
            <ns3:atemp>21.0</ns3:atemp>
          </ns3:TrackPointExtension>
        </extensions>
      </trkpt>
      <trkpt lat="42.51167756505310535430908203125" lon="19.891425669193267822265625">
        <ele>1674.800048828125</ele>
        <time>2026-06-17T12:27:20.000Z</time>
        <extensions>
          <ns3:TrackPointExtension>
            <ns3:atemp>21.0</ns3:atemp>
          </ns3:TrackPointExtension>
        </extensions>
      </trkpt>
      <trkpt lat="42.51167756505310535430908203125" lon="19.891425669193267822265625">
        <ele>1674.800048828125</ele>
        <time>2026-06-17T12:27:21.000Z</time>
        <extensions>
          <ns3:TrackPointExtension>
            <ns3:atemp>21.0</ns3:atemp>
          </ns3:TrackPointExtension>
        </extensions>
      </trkpt>
      <trkpt lat="42.51167756505310535430908203125" lon="19.891425669193267822265625">
        <ele>1674.800048828125</ele>
        <time>2026-06-17T12:27:22.000Z</time>
        <extensions>
          <ns3:TrackPointExtension>
            <ns3:atemp>21.0</ns3:atemp>
          </ns3:TrackPointExtension>
        </extensions>
      </trkpt>
      <trkpt lat="42.51167756505310535430908203125" lon="19.891425669193267822265625">
        <ele>1674.800048828125</ele>
        <time>2026-06-17T12:27:23.000Z</time>
        <extensions>
          <ns3:TrackPointExtension>
            <ns3:atemp>21.0</ns3:atemp>
          </ns3:TrackPointExtension>
        </extensions>
      </trkpt>
      <trkpt lat="42.51167756505310535430908203125" lon="19.891425669193267822265625">
        <ele>1674.800048828125</ele>
        <time>2026-06-17T12:27:24.000Z</time>
        <extensions>
          <ns3:TrackPointExtension>
            <ns3:atemp>21.0</ns3:atemp>
          </ns3:TrackPointExtension>
        </extensions>
      </trkpt>
      <trkpt lat="42.51167756505310535430908203125" lon="19.891425669193267822265625">
        <ele>1674.800048828125</ele>
        <time>2026-06-17T12:27:25.000Z</time>
        <extensions>
          <ns3:TrackPointExtension>
            <ns3:atemp>21.0</ns3:atemp>
          </ns3:TrackPointExtension>
        </extensions>
      </trkpt>
      <trkpt lat="42.51167756505310535430908203125" lon="19.891425669193267822265625">
        <ele>1674.800048828125</ele>
        <time>2026-06-17T12:27:26.000Z</time>
        <extensions>
          <ns3:TrackPointExtension>
            <ns3:atemp>21.0</ns3:atemp>
          </ns3:TrackPointExtension>
        </extensions>
      </trkpt>
      <trkpt lat="42.51167756505310535430908203125" lon="19.891425669193267822265625">
        <ele>1674.800048828125</ele>
        <time>2026-06-17T12:27:27.000Z</time>
        <extensions>
          <ns3:TrackPointExtension>
            <ns3:atemp>21.0</ns3:atemp>
          </ns3:TrackPointExtension>
        </extensions>
      </trkpt>
      <trkpt lat="42.51167756505310535430908203125" lon="19.891425669193267822265625">
        <ele>1674.800048828125</ele>
        <time>2026-06-17T12:27:28.000Z</time>
        <extensions>
          <ns3:TrackPointExtension>
            <ns3:atemp>21.0</ns3:atemp>
          </ns3:TrackPointExtension>
        </extensions>
      </trkpt>
      <trkpt lat="42.51167756505310535430908203125" lon="19.891425669193267822265625">
        <ele>1674.800048828125</ele>
        <time>2026-06-17T12:27:29.000Z</time>
        <extensions>
          <ns3:TrackPointExtension>
            <ns3:atemp>21.0</ns3:atemp>
          </ns3:TrackPointExtension>
        </extensions>
      </trkpt>
      <trkpt lat="42.51167756505310535430908203125" lon="19.891425669193267822265625">
        <ele>1674.800048828125</ele>
        <time>2026-06-17T12:27:30.000Z</time>
        <extensions>
          <ns3:TrackPointExtension>
            <ns3:atemp>21.0</ns3:atemp>
          </ns3:TrackPointExtension>
        </extensions>
      </trkpt>
      <trkpt lat="42.51167756505310535430908203125" lon="19.891425669193267822265625">
        <ele>1674.800048828125</ele>
        <time>2026-06-17T12:27:31.000Z</time>
        <extensions>
          <ns3:TrackPointExtension>
            <ns3:atemp>21.0</ns3:atemp>
          </ns3:TrackPointExtension>
        </extensions>
      </trkpt>
      <trkpt lat="42.51167756505310535430908203125" lon="19.891425669193267822265625">
        <ele>1674.800048828125</ele>
        <time>2026-06-17T12:27:32.000Z</time>
        <extensions>
          <ns3:TrackPointExtension>
            <ns3:atemp>21.0</ns3:atemp>
          </ns3:TrackPointExtension>
        </extensions>
      </trkpt>
      <trkpt lat="42.51167756505310535430908203125" lon="19.891425669193267822265625">
        <ele>1674.800048828125</ele>
        <time>2026-06-17T12:27:33.000Z</time>
        <extensions>
          <ns3:TrackPointExtension>
            <ns3:atemp>21.0</ns3:atemp>
          </ns3:TrackPointExtension>
        </extensions>
      </trkpt>
      <trkpt lat="42.51167756505310535430908203125" lon="19.891425669193267822265625">
        <ele>1674.800048828125</ele>
        <time>2026-06-17T12:27:34.000Z</time>
        <extensions>
          <ns3:TrackPointExtension>
            <ns3:atemp>21.0</ns3:atemp>
          </ns3:TrackPointExtension>
        </extensions>
      </trkpt>
      <trkpt lat="42.51167756505310535430908203125" lon="19.891425669193267822265625">
        <ele>1674.800048828125</ele>
        <time>2026-06-17T12:27:35.000Z</time>
        <extensions>
          <ns3:TrackPointExtension>
            <ns3:atemp>21.0</ns3:atemp>
          </ns3:TrackPointExtension>
        </extensions>
      </trkpt>
      <trkpt lat="42.51167756505310535430908203125" lon="19.891425669193267822265625">
        <ele>1674.5999755859375</ele>
        <time>2026-06-17T12:27:36.000Z</time>
        <extensions>
          <ns3:TrackPointExtension>
            <ns3:atemp>21.0</ns3:atemp>
          </ns3:TrackPointExtension>
        </extensions>
      </trkpt>
      <trkpt lat="42.51167756505310535430908203125" lon="19.891425669193267822265625">
        <ele>1674.5999755859375</ele>
        <time>2026-06-17T12:27:37.000Z</time>
        <extensions>
          <ns3:TrackPointExtension>
            <ns3:atemp>21.0</ns3:atemp>
          </ns3:TrackPointExtension>
        </extensions>
      </trkpt>
      <trkpt lat="42.51167756505310535430908203125" lon="19.891425669193267822265625">
        <ele>1674.5999755859375</ele>
        <time>2026-06-17T12:27:38.000Z</time>
        <extensions>
          <ns3:TrackPointExtension>
            <ns3:atemp>21.0</ns3:atemp>
          </ns3:TrackPointExtension>
        </extensions>
      </trkpt>
      <trkpt lat="42.51167756505310535430908203125" lon="19.891425669193267822265625">
        <ele>1674.800048828125</ele>
        <time>2026-06-17T12:27:39.000Z</time>
        <extensions>
          <ns3:TrackPointExtension>
            <ns3:atemp>22.0</ns3:atemp>
          </ns3:TrackPointExtension>
        </extensions>
      </trkpt>
      <trkpt lat="42.51167756505310535430908203125" lon="19.891425669193267822265625">
        <ele>1674.800048828125</ele>
        <time>2026-06-17T12:27:40.000Z</time>
        <extensions>
          <ns3:TrackPointExtension>
            <ns3:atemp>22.0</ns3:atemp>
          </ns3:TrackPointExtension>
        </extensions>
      </trkpt>
      <trkpt lat="42.51167756505310535430908203125" lon="19.891425669193267822265625">
        <ele>1674.800048828125</ele>
        <time>2026-06-17T12:27:41.000Z</time>
        <extensions>
          <ns3:TrackPointExtension>
            <ns3:atemp>22.0</ns3:atemp>
          </ns3:TrackPointExtension>
        </extensions>
      </trkpt>
      <trkpt lat="42.51167756505310535430908203125" lon="19.891425669193267822265625">
        <ele>1674.800048828125</ele>
        <time>2026-06-17T12:27:42.000Z</time>
        <extensions>
          <ns3:TrackPointExtension>
            <ns3:atemp>22.0</ns3:atemp>
          </ns3:TrackPointExtension>
        </extensions>
      </trkpt>
      <trkpt lat="42.51167756505310535430908203125" lon="19.891425669193267822265625">
        <ele>1674.5999755859375</ele>
        <time>2026-06-17T12:27:43.000Z</time>
        <extensions>
          <ns3:TrackPointExtension>
            <ns3:atemp>22.0</ns3:atemp>
          </ns3:TrackPointExtension>
        </extensions>
      </trkpt>
      <trkpt lat="42.51167756505310535430908203125" lon="19.891425669193267822265625">
        <ele>1674.5999755859375</ele>
        <time>2026-06-17T12:27:44.000Z</time>
        <extensions>
          <ns3:TrackPointExtension>
            <ns3:atemp>22.0</ns3:atemp>
          </ns3:TrackPointExtension>
        </extensions>
      </trkpt>
      <trkpt lat="42.51167756505310535430908203125" lon="19.891425669193267822265625">
        <ele>1674.800048828125</ele>
        <time>2026-06-17T12:27:45.000Z</time>
        <extensions>
          <ns3:TrackPointExtension>
            <ns3:atemp>22.0</ns3:atemp>
          </ns3:TrackPointExtension>
        </extensions>
      </trkpt>
      <trkpt lat="42.51167756505310535430908203125" lon="19.891425669193267822265625">
        <ele>1674.800048828125</ele>
        <time>2026-06-17T12:27:46.000Z</time>
        <extensions>
          <ns3:TrackPointExtension>
            <ns3:atemp>22.0</ns3:atemp>
          </ns3:TrackPointExtension>
        </extensions>
      </trkpt>
      <trkpt lat="42.51167756505310535430908203125" lon="19.891425669193267822265625">
        <ele>1674.800048828125</ele>
        <time>2026-06-17T12:27:47.000Z</time>
        <extensions>
          <ns3:TrackPointExtension>
            <ns3:atemp>22.0</ns3:atemp>
          </ns3:TrackPointExtension>
        </extensions>
      </trkpt>
      <trkpt lat="42.51167756505310535430908203125" lon="19.891425669193267822265625">
        <ele>1674.5999755859375</ele>
        <time>2026-06-17T12:27:48.000Z</time>
        <extensions>
          <ns3:TrackPointExtension>
            <ns3:atemp>22.0</ns3:atemp>
          </ns3:TrackPointExtension>
        </extensions>
      </trkpt>
      <trkpt lat="42.51167756505310535430908203125" lon="19.891425669193267822265625">
        <ele>1674.5999755859375</ele>
        <time>2026-06-17T12:27:49.000Z</time>
        <extensions>
          <ns3:TrackPointExtension>
            <ns3:atemp>22.0</ns3:atemp>
          </ns3:TrackPointExtension>
        </extensions>
      </trkpt>
      <trkpt lat="42.51167756505310535430908203125" lon="19.891425669193267822265625">
        <ele>1674.5999755859375</ele>
        <time>2026-06-17T12:27:50.000Z</time>
        <extensions>
          <ns3:TrackPointExtension>
            <ns3:atemp>22.0</ns3:atemp>
          </ns3:TrackPointExtension>
        </extensions>
      </trkpt>
      <trkpt lat="42.51167756505310535430908203125" lon="19.891425669193267822265625">
        <ele>1674.5999755859375</ele>
        <time>2026-06-17T12:27:51.000Z</time>
        <extensions>
          <ns3:TrackPointExtension>
            <ns3:atemp>22.0</ns3:atemp>
          </ns3:TrackPointExtension>
        </extensions>
      </trkpt>
      <trkpt lat="42.51167756505310535430908203125" lon="19.891425669193267822265625">
        <ele>1674.5999755859375</ele>
        <time>2026-06-17T12:27:52.000Z</time>
        <extensions>
          <ns3:TrackPointExtension>
            <ns3:atemp>22.0</ns3:atemp>
          </ns3:TrackPointExtension>
        </extensions>
      </trkpt>
      <trkpt lat="42.51167756505310535430908203125" lon="19.891425669193267822265625">
        <ele>1674.5999755859375</ele>
        <time>2026-06-17T12:27:53.000Z</time>
        <extensions>
          <ns3:TrackPointExtension>
            <ns3:atemp>22.0</ns3:atemp>
          </ns3:TrackPointExtension>
        </extensions>
      </trkpt>
      <trkpt lat="42.51167756505310535430908203125" lon="19.891425669193267822265625">
        <ele>1674.5999755859375</ele>
        <time>2026-06-17T12:27:54.000Z</time>
        <extensions>
          <ns3:TrackPointExtension>
            <ns3:atemp>22.0</ns3:atemp>
          </ns3:TrackPointExtension>
        </extensions>
      </trkpt>
      <trkpt lat="42.51167756505310535430908203125" lon="19.891425669193267822265625">
        <ele>1674.5999755859375</ele>
        <time>2026-06-17T12:27:55.000Z</time>
        <extensions>
          <ns3:TrackPointExtension>
            <ns3:atemp>22.0</ns3:atemp>
          </ns3:TrackPointExtension>
        </extensions>
      </trkpt>
      <trkpt lat="42.51167756505310535430908203125" lon="19.891425669193267822265625">
        <ele>1674.5999755859375</ele>
        <time>2026-06-17T12:27:56.000Z</time>
        <extensions>
          <ns3:TrackPointExtension>
            <ns3:atemp>22.0</ns3:atemp>
          </ns3:TrackPointExtension>
        </extensions>
      </trkpt>
      <trkpt lat="42.51167756505310535430908203125" lon="19.891425669193267822265625">
        <ele>1674.5999755859375</ele>
        <time>2026-06-17T12:27:57.000Z</time>
        <extensions>
          <ns3:TrackPointExtension>
            <ns3:atemp>22.0</ns3:atemp>
          </ns3:TrackPointExtension>
        </extensions>
      </trkpt>
      <trkpt lat="42.51167756505310535430908203125" lon="19.891425669193267822265625">
        <ele>1674.5999755859375</ele>
        <time>2026-06-17T12:27:58.000Z</time>
        <extensions>
          <ns3:TrackPointExtension>
            <ns3:atemp>22.0</ns3:atemp>
          </ns3:TrackPointExtension>
        </extensions>
      </trkpt>
      <trkpt lat="42.51167756505310535430908203125" lon="19.891425669193267822265625">
        <ele>1674.5999755859375</ele>
        <time>2026-06-17T12:27:59.000Z</time>
        <extensions>
          <ns3:TrackPointExtension>
            <ns3:atemp>22.0</ns3:atemp>
          </ns3:TrackPointExtension>
        </extensions>
      </trkpt>
      <trkpt lat="42.51167756505310535430908203125" lon="19.891425669193267822265625">
        <ele>1674.5999755859375</ele>
        <time>2026-06-17T12:28:00.000Z</time>
        <extensions>
          <ns3:TrackPointExtension>
            <ns3:atemp>22.0</ns3:atemp>
          </ns3:TrackPointExtension>
        </extensions>
      </trkpt>
      <trkpt lat="42.51167756505310535430908203125" lon="19.891425669193267822265625">
        <ele>1674.5999755859375</ele>
        <time>2026-06-17T12:28:01.000Z</time>
        <extensions>
          <ns3:TrackPointExtension>
            <ns3:atemp>22.0</ns3:atemp>
          </ns3:TrackPointExtension>
        </extensions>
      </trkpt>
      <trkpt lat="42.51167756505310535430908203125" lon="19.891425669193267822265625">
        <ele>1674.5999755859375</ele>
        <time>2026-06-17T12:28:02.000Z</time>
        <extensions>
          <ns3:TrackPointExtension>
            <ns3:atemp>22.0</ns3:atemp>
          </ns3:TrackPointExtension>
        </extensions>
      </trkpt>
      <trkpt lat="42.51167756505310535430908203125" lon="19.891425669193267822265625">
        <ele>1674.5999755859375</ele>
        <time>2026-06-17T12:28:03.000Z</time>
        <extensions>
          <ns3:TrackPointExtension>
            <ns3:atemp>22.0</ns3:atemp>
          </ns3:TrackPointExtension>
        </extensions>
      </trkpt>
      <trkpt lat="42.51167756505310535430908203125" lon="19.891425669193267822265625">
        <ele>1674.5999755859375</ele>
        <time>2026-06-17T12:28:04.000Z</time>
        <extensions>
          <ns3:TrackPointExtension>
            <ns3:atemp>22.0</ns3:atemp>
          </ns3:TrackPointExtension>
        </extensions>
      </trkpt>
      <trkpt lat="42.51167756505310535430908203125" lon="19.891425669193267822265625">
        <ele>1674.4000244140625</ele>
        <time>2026-06-17T12:28:05.000Z</time>
        <extensions>
          <ns3:TrackPointExtension>
            <ns3:atemp>22.0</ns3:atemp>
          </ns3:TrackPointExtension>
        </extensions>
      </trkpt>
      <trkpt lat="42.51167756505310535430908203125" lon="19.891425669193267822265625">
        <ele>1674.4000244140625</ele>
        <time>2026-06-17T12:28:06.000Z</time>
        <extensions>
          <ns3:TrackPointExtension>
            <ns3:atemp>22.0</ns3:atemp>
          </ns3:TrackPointExtension>
        </extensions>
      </trkpt>
      <trkpt lat="42.51167756505310535430908203125" lon="19.891425669193267822265625">
        <ele>1674.4000244140625</ele>
        <time>2026-06-17T12:28:07.000Z</time>
        <extensions>
          <ns3:TrackPointExtension>
            <ns3:atemp>22.0</ns3:atemp>
          </ns3:TrackPointExtension>
        </extensions>
      </trkpt>
      <trkpt lat="42.51167756505310535430908203125" lon="19.891425669193267822265625">
        <ele>1674.4000244140625</ele>
        <time>2026-06-17T12:28:08.000Z</time>
        <extensions>
          <ns3:TrackPointExtension>
            <ns3:atemp>22.0</ns3:atemp>
          </ns3:TrackPointExtension>
        </extensions>
      </trkpt>
      <trkpt lat="42.51167756505310535430908203125" lon="19.891425669193267822265625">
        <ele>1674.4000244140625</ele>
        <time>2026-06-17T12:28:09.000Z</time>
        <extensions>
          <ns3:TrackPointExtension>
            <ns3:atemp>22.0</ns3:atemp>
          </ns3:TrackPointExtension>
        </extensions>
      </trkpt>
      <trkpt lat="42.51167756505310535430908203125" lon="19.891425669193267822265625">
        <ele>1674.4000244140625</ele>
        <time>2026-06-17T12:28:10.000Z</time>
        <extensions>
          <ns3:TrackPointExtension>
            <ns3:atemp>22.0</ns3:atemp>
          </ns3:TrackPointExtension>
        </extensions>
      </trkpt>
      <trkpt lat="42.51167756505310535430908203125" lon="19.891425669193267822265625">
        <ele>1674.4000244140625</ele>
        <time>2026-06-17T12:28:11.000Z</time>
        <extensions>
          <ns3:TrackPointExtension>
            <ns3:atemp>22.0</ns3:atemp>
          </ns3:TrackPointExtension>
        </extensions>
      </trkpt>
      <trkpt lat="42.51167756505310535430908203125" lon="19.891425669193267822265625">
        <ele>1674.4000244140625</ele>
        <time>2026-06-17T12:28:12.000Z</time>
        <extensions>
          <ns3:TrackPointExtension>
            <ns3:atemp>22.0</ns3:atemp>
          </ns3:TrackPointExtension>
        </extensions>
      </trkpt>
      <trkpt lat="42.51167756505310535430908203125" lon="19.891425669193267822265625">
        <ele>1674.4000244140625</ele>
        <time>2026-06-17T12:28:13.000Z</time>
        <extensions>
          <ns3:TrackPointExtension>
            <ns3:atemp>22.0</ns3:atemp>
          </ns3:TrackPointExtension>
        </extensions>
      </trkpt>
      <trkpt lat="42.51167756505310535430908203125" lon="19.891425669193267822265625">
        <ele>1674.4000244140625</ele>
        <time>2026-06-17T12:28:14.000Z</time>
        <extensions>
          <ns3:TrackPointExtension>
            <ns3:atemp>22.0</ns3:atemp>
          </ns3:TrackPointExtension>
        </extensions>
      </trkpt>
      <trkpt lat="42.51167756505310535430908203125" lon="19.891425669193267822265625">
        <ele>1674.4000244140625</ele>
        <time>2026-06-17T12:28:15.000Z</time>
        <extensions>
          <ns3:TrackPointExtension>
            <ns3:atemp>22.0</ns3:atemp>
          </ns3:TrackPointExtension>
        </extensions>
      </trkpt>
      <trkpt lat="42.51167756505310535430908203125" lon="19.891425669193267822265625">
        <ele>1674.4000244140625</ele>
        <time>2026-06-17T12:28:16.000Z</time>
        <extensions>
          <ns3:TrackPointExtension>
            <ns3:atemp>22.0</ns3:atemp>
          </ns3:TrackPointExtension>
        </extensions>
      </trkpt>
      <trkpt lat="42.51167756505310535430908203125" lon="19.891425669193267822265625">
        <ele>1674.4000244140625</ele>
        <time>2026-06-17T12:28:17.000Z</time>
        <extensions>
          <ns3:TrackPointExtension>
            <ns3:atemp>22.0</ns3:atemp>
          </ns3:TrackPointExtension>
        </extensions>
      </trkpt>
      <trkpt lat="42.51167756505310535430908203125" lon="19.891425669193267822265625">
        <ele>1674.4000244140625</ele>
        <time>2026-06-17T12:28:18.000Z</time>
        <extensions>
          <ns3:TrackPointExtension>
            <ns3:atemp>22.0</ns3:atemp>
          </ns3:TrackPointExtension>
        </extensions>
      </trkpt>
      <trkpt lat="42.51167756505310535430908203125" lon="19.891425669193267822265625">
        <ele>1674.4000244140625</ele>
        <time>2026-06-17T12:28:19.000Z</time>
        <extensions>
          <ns3:TrackPointExtension>
            <ns3:atemp>22.0</ns3:atemp>
          </ns3:TrackPointExtension>
        </extensions>
      </trkpt>
      <trkpt lat="42.51167756505310535430908203125" lon="19.891425669193267822265625">
        <ele>1674.4000244140625</ele>
        <time>2026-06-17T12:28:20.000Z</time>
        <extensions>
          <ns3:TrackPointExtension>
            <ns3:atemp>22.0</ns3:atemp>
          </ns3:TrackPointExtension>
        </extensions>
      </trkpt>
      <trkpt lat="42.51167756505310535430908203125" lon="19.891425669193267822265625">
        <ele>1674.4000244140625</ele>
        <time>2026-06-17T12:28:21.000Z</time>
        <extensions>
          <ns3:TrackPointExtension>
            <ns3:atemp>22.0</ns3:atemp>
          </ns3:TrackPointExtension>
        </extensions>
      </trkpt>
      <trkpt lat="42.51167756505310535430908203125" lon="19.891425669193267822265625">
        <ele>1674.4000244140625</ele>
        <time>2026-06-17T12:28:22.000Z</time>
        <extensions>
          <ns3:TrackPointExtension>
            <ns3:atemp>22.0</ns3:atemp>
          </ns3:TrackPointExtension>
        </extensions>
      </trkpt>
      <trkpt lat="42.51167756505310535430908203125" lon="19.891425669193267822265625">
        <ele>1674.4000244140625</ele>
        <time>2026-06-17T12:28:23.000Z</time>
        <extensions>
          <ns3:TrackPointExtension>
            <ns3:atemp>22.0</ns3:atemp>
          </ns3:TrackPointExtension>
        </extensions>
      </trkpt>
      <trkpt lat="42.51167756505310535430908203125" lon="19.891425669193267822265625">
        <ele>1674.4000244140625</ele>
        <time>2026-06-17T12:28:24.000Z</time>
        <extensions>
          <ns3:TrackPointExtension>
            <ns3:atemp>22.0</ns3:atemp>
          </ns3:TrackPointExtension>
        </extensions>
      </trkpt>
      <trkpt lat="42.51167756505310535430908203125" lon="19.891425669193267822265625">
        <ele>1674.4000244140625</ele>
        <time>2026-06-17T12:28:25.000Z</time>
        <extensions>
          <ns3:TrackPointExtension>
            <ns3:atemp>22.0</ns3:atemp>
          </ns3:TrackPointExtension>
        </extensions>
      </trkpt>
      <trkpt lat="42.51167756505310535430908203125" lon="19.891425669193267822265625">
        <ele>1674.4000244140625</ele>
        <time>2026-06-17T12:28:26.000Z</time>
        <extensions>
          <ns3:TrackPointExtension>
            <ns3:atemp>22.0</ns3:atemp>
          </ns3:TrackPointExtension>
        </extensions>
      </trkpt>
      <trkpt lat="42.51167756505310535430908203125" lon="19.891425669193267822265625">
        <ele>1674.4000244140625</ele>
        <time>2026-06-17T12:28:27.000Z</time>
        <extensions>
          <ns3:TrackPointExtension>
            <ns3:atemp>22.0</ns3:atemp>
          </ns3:TrackPointExtension>
        </extensions>
      </trkpt>
      <trkpt lat="42.51167756505310535430908203125" lon="19.891425669193267822265625">
        <ele>1674.4000244140625</ele>
        <time>2026-06-17T12:28:28.000Z</time>
        <extensions>
          <ns3:TrackPointExtension>
            <ns3:atemp>22.0</ns3:atemp>
          </ns3:TrackPointExtension>
        </extensions>
      </trkpt>
      <trkpt lat="42.51167756505310535430908203125" lon="19.891425669193267822265625">
        <ele>1674.4000244140625</ele>
        <time>2026-06-17T12:28:29.000Z</time>
        <extensions>
          <ns3:TrackPointExtension>
            <ns3:atemp>22.0</ns3:atemp>
          </ns3:TrackPointExtension>
        </extensions>
      </trkpt>
      <trkpt lat="42.51167756505310535430908203125" lon="19.891425669193267822265625">
        <ele>1674.4000244140625</ele>
        <time>2026-06-17T12:28:30.000Z</time>
        <extensions>
          <ns3:TrackPointExtension>
            <ns3:atemp>22.0</ns3:atemp>
          </ns3:TrackPointExtension>
        </extensions>
      </trkpt>
      <trkpt lat="42.51167756505310535430908203125" lon="19.891425669193267822265625">
        <ele>1674.4000244140625</ele>
        <time>2026-06-17T12:28:31.000Z</time>
        <extensions>
          <ns3:TrackPointExtension>
            <ns3:atemp>22.0</ns3:atemp>
          </ns3:TrackPointExtension>
        </extensions>
      </trkpt>
      <trkpt lat="42.51167756505310535430908203125" lon="19.891425669193267822265625">
        <ele>1674.4000244140625</ele>
        <time>2026-06-17T12:28:32.000Z</time>
        <extensions>
          <ns3:TrackPointExtension>
            <ns3:atemp>22.0</ns3:atemp>
          </ns3:TrackPointExtension>
        </extensions>
      </trkpt>
      <trkpt lat="42.51167756505310535430908203125" lon="19.891425669193267822265625">
        <ele>1674.4000244140625</ele>
        <time>2026-06-17T12:28:33.000Z</time>
        <extensions>
          <ns3:TrackPointExtension>
            <ns3:atemp>22.0</ns3:atemp>
          </ns3:TrackPointExtension>
        </extensions>
      </trkpt>
      <trkpt lat="42.51167756505310535430908203125" lon="19.891425669193267822265625">
        <ele>1674.199951171875</ele>
        <time>2026-06-17T12:28:34.000Z</time>
        <extensions>
          <ns3:TrackPointExtension>
            <ns3:atemp>22.0</ns3:atemp>
          </ns3:TrackPointExtension>
        </extensions>
      </trkpt>
      <trkpt lat="42.51167756505310535430908203125" lon="19.891425669193267822265625">
        <ele>1674.199951171875</ele>
        <time>2026-06-17T12:28:35.000Z</time>
        <extensions>
          <ns3:TrackPointExtension>
            <ns3:atemp>22.0</ns3:atemp>
          </ns3:TrackPointExtension>
        </extensions>
      </trkpt>
      <trkpt lat="42.51167756505310535430908203125" lon="19.891425669193267822265625">
        <ele>1674.199951171875</ele>
        <time>2026-06-17T12:28:36.000Z</time>
        <extensions>
          <ns3:TrackPointExtension>
            <ns3:atemp>22.0</ns3:atemp>
          </ns3:TrackPointExtension>
        </extensions>
      </trkpt>
      <trkpt lat="42.51167756505310535430908203125" lon="19.891425669193267822265625">
        <ele>1674.199951171875</ele>
        <time>2026-06-17T12:28:37.000Z</time>
        <extensions>
          <ns3:TrackPointExtension>
            <ns3:atemp>22.0</ns3:atemp>
          </ns3:TrackPointExtension>
        </extensions>
      </trkpt>
      <trkpt lat="42.51167756505310535430908203125" lon="19.891425669193267822265625">
        <ele>1674.199951171875</ele>
        <time>2026-06-17T12:28:38.000Z</time>
        <extensions>
          <ns3:TrackPointExtension>
            <ns3:atemp>22.0</ns3:atemp>
          </ns3:TrackPointExtension>
        </extensions>
      </trkpt>
      <trkpt lat="42.51167756505310535430908203125" lon="19.891425669193267822265625">
        <ele>1674.199951171875</ele>
        <time>2026-06-17T12:28:39.000Z</time>
        <extensions>
          <ns3:TrackPointExtension>
            <ns3:atemp>22.0</ns3:atemp>
          </ns3:TrackPointExtension>
        </extensions>
      </trkpt>
      <trkpt lat="42.51167756505310535430908203125" lon="19.891425669193267822265625">
        <ele>1674.199951171875</ele>
        <time>2026-06-17T12:28:40.000Z</time>
        <extensions>
          <ns3:TrackPointExtension>
            <ns3:atemp>22.0</ns3:atemp>
          </ns3:TrackPointExtension>
        </extensions>
      </trkpt>
      <trkpt lat="42.51167756505310535430908203125" lon="19.891425669193267822265625">
        <ele>1674.199951171875</ele>
        <time>2026-06-17T12:28:41.000Z</time>
        <extensions>
          <ns3:TrackPointExtension>
            <ns3:atemp>22.0</ns3:atemp>
          </ns3:TrackPointExtension>
        </extensions>
      </trkpt>
      <trkpt lat="42.51167756505310535430908203125" lon="19.891425669193267822265625">
        <ele>1674.199951171875</ele>
        <time>2026-06-17T12:28:42.000Z</time>
        <extensions>
          <ns3:TrackPointExtension>
            <ns3:atemp>22.0</ns3:atemp>
          </ns3:TrackPointExtension>
        </extensions>
      </trkpt>
      <trkpt lat="42.51167756505310535430908203125" lon="19.891425669193267822265625">
        <ele>1674.199951171875</ele>
        <time>2026-06-17T12:28:43.000Z</time>
        <extensions>
          <ns3:TrackPointExtension>
            <ns3:atemp>22.0</ns3:atemp>
          </ns3:TrackPointExtension>
        </extensions>
      </trkpt>
      <trkpt lat="42.51167756505310535430908203125" lon="19.891425669193267822265625">
        <ele>1674.199951171875</ele>
        <time>2026-06-17T12:28:44.000Z</time>
        <extensions>
          <ns3:TrackPointExtension>
            <ns3:atemp>22.0</ns3:atemp>
          </ns3:TrackPointExtension>
        </extensions>
      </trkpt>
      <trkpt lat="42.51167756505310535430908203125" lon="19.891425669193267822265625">
        <ele>1674.199951171875</ele>
        <time>2026-06-17T12:28:45.000Z</time>
        <extensions>
          <ns3:TrackPointExtension>
            <ns3:atemp>22.0</ns3:atemp>
          </ns3:TrackPointExtension>
        </extensions>
      </trkpt>
      <trkpt lat="42.51167756505310535430908203125" lon="19.891425669193267822265625">
        <ele>1674.199951171875</ele>
        <time>2026-06-17T12:28:46.000Z</time>
        <extensions>
          <ns3:TrackPointExtension>
            <ns3:atemp>22.0</ns3:atemp>
          </ns3:TrackPointExtension>
        </extensions>
      </trkpt>
      <trkpt lat="42.51167756505310535430908203125" lon="19.891425669193267822265625">
        <ele>1674.199951171875</ele>
        <time>2026-06-17T12:28:47.000Z</time>
        <extensions>
          <ns3:TrackPointExtension>
            <ns3:atemp>22.0</ns3:atemp>
          </ns3:TrackPointExtension>
        </extensions>
      </trkpt>
      <trkpt lat="42.51167756505310535430908203125" lon="19.891425669193267822265625">
        <ele>1674.199951171875</ele>
        <time>2026-06-17T12:28:48.000Z</time>
        <extensions>
          <ns3:TrackPointExtension>
            <ns3:atemp>22.0</ns3:atemp>
          </ns3:TrackPointExtension>
        </extensions>
      </trkpt>
      <trkpt lat="42.51167756505310535430908203125" lon="19.891425669193267822265625">
        <ele>1674.199951171875</ele>
        <time>2026-06-17T12:28:49.000Z</time>
        <extensions>
          <ns3:TrackPointExtension>
            <ns3:atemp>22.0</ns3:atemp>
          </ns3:TrackPointExtension>
        </extensions>
      </trkpt>
      <trkpt lat="42.51167756505310535430908203125" lon="19.891425669193267822265625">
        <ele>1674.199951171875</ele>
        <time>2026-06-17T12:28:50.000Z</time>
        <extensions>
          <ns3:TrackPointExtension>
            <ns3:atemp>22.0</ns3:atemp>
          </ns3:TrackPointExtension>
        </extensions>
      </trkpt>
      <trkpt lat="42.51167756505310535430908203125" lon="19.891425669193267822265625">
        <ele>1674.199951171875</ele>
        <time>2026-06-17T12:28:51.000Z</time>
        <extensions>
          <ns3:TrackPointExtension>
            <ns3:atemp>22.0</ns3:atemp>
          </ns3:TrackPointExtension>
        </extensions>
      </trkpt>
      <trkpt lat="42.51167756505310535430908203125" lon="19.891425669193267822265625">
        <ele>1674</ele>
        <time>2026-06-17T12:28:52.000Z</time>
        <extensions>
          <ns3:TrackPointExtension>
            <ns3:atemp>22.0</ns3:atemp>
          </ns3:TrackPointExtension>
        </extensions>
      </trkpt>
      <trkpt lat="42.51167756505310535430908203125" lon="19.891425669193267822265625">
        <ele>1674</ele>
        <time>2026-06-17T12:28:53.000Z</time>
        <extensions>
          <ns3:TrackPointExtension>
            <ns3:atemp>22.0</ns3:atemp>
          </ns3:TrackPointExtension>
        </extensions>
      </trkpt>
      <trkpt lat="42.51167756505310535430908203125" lon="19.891425669193267822265625">
        <ele>1674</ele>
        <time>2026-06-17T12:28:54.000Z</time>
        <extensions>
          <ns3:TrackPointExtension>
            <ns3:atemp>22.0</ns3:atemp>
          </ns3:TrackPointExtension>
        </extensions>
      </trkpt>
      <trkpt lat="42.51167756505310535430908203125" lon="19.891425669193267822265625">
        <ele>1674</ele>
        <time>2026-06-17T12:28:55.000Z</time>
        <extensions>
          <ns3:TrackPointExtension>
            <ns3:atemp>22.0</ns3:atemp>
          </ns3:TrackPointExtension>
        </extensions>
      </trkpt>
      <trkpt lat="42.51167756505310535430908203125" lon="19.891425669193267822265625">
        <ele>1674</ele>
        <time>2026-06-17T12:28:56.000Z</time>
        <extensions>
          <ns3:TrackPointExtension>
            <ns3:atemp>22.0</ns3:atemp>
          </ns3:TrackPointExtension>
        </extensions>
      </trkpt>
      <trkpt lat="42.51167756505310535430908203125" lon="19.891425669193267822265625">
        <ele>1674</ele>
        <time>2026-06-17T12:28:57.000Z</time>
        <extensions>
          <ns3:TrackPointExtension>
            <ns3:atemp>22.0</ns3:atemp>
          </ns3:TrackPointExtension>
        </extensions>
      </trkpt>
      <trkpt lat="42.51167756505310535430908203125" lon="19.891425669193267822265625">
        <ele>1674</ele>
        <time>2026-06-17T12:28:58.000Z</time>
        <extensions>
          <ns3:TrackPointExtension>
            <ns3:atemp>22.0</ns3:atemp>
          </ns3:TrackPointExtension>
        </extensions>
      </trkpt>
      <trkpt lat="42.51167756505310535430908203125" lon="19.891425669193267822265625">
        <ele>1674</ele>
        <time>2026-06-17T12:28:59.000Z</time>
        <extensions>
          <ns3:TrackPointExtension>
            <ns3:atemp>22.0</ns3:atemp>
          </ns3:TrackPointExtension>
        </extensions>
      </trkpt>
      <trkpt lat="42.51167756505310535430908203125" lon="19.891425669193267822265625">
        <ele>1674</ele>
        <time>2026-06-17T12:29:00.000Z</time>
        <extensions>
          <ns3:TrackPointExtension>
            <ns3:atemp>22.0</ns3:atemp>
          </ns3:TrackPointExtension>
        </extensions>
      </trkpt>
      <trkpt lat="42.51167756505310535430908203125" lon="19.891425669193267822265625">
        <ele>1674</ele>
        <time>2026-06-17T12:29:01.000Z</time>
        <extensions>
          <ns3:TrackPointExtension>
            <ns3:atemp>22.0</ns3:atemp>
          </ns3:TrackPointExtension>
        </extensions>
      </trkpt>
      <trkpt lat="42.51167756505310535430908203125" lon="19.891425669193267822265625">
        <ele>1674</ele>
        <time>2026-06-17T12:29:02.000Z</time>
        <extensions>
          <ns3:TrackPointExtension>
            <ns3:atemp>22.0</ns3:atemp>
          </ns3:TrackPointExtension>
        </extensions>
      </trkpt>
      <trkpt lat="42.51167756505310535430908203125" lon="19.891425669193267822265625">
        <ele>1674</ele>
        <time>2026-06-17T12:29:03.000Z</time>
        <extensions>
          <ns3:TrackPointExtension>
            <ns3:atemp>22.0</ns3:atemp>
          </ns3:TrackPointExtension>
        </extensions>
      </trkpt>
      <trkpt lat="42.51167756505310535430908203125" lon="19.891425669193267822265625">
        <ele>1674</ele>
        <time>2026-06-17T12:29:04.000Z</time>
        <extensions>
          <ns3:TrackPointExtension>
            <ns3:atemp>22.0</ns3:atemp>
          </ns3:TrackPointExtension>
        </extensions>
      </trkpt>
      <trkpt lat="42.51167756505310535430908203125" lon="19.891425669193267822265625">
        <ele>1674</ele>
        <time>2026-06-17T12:29:05.000Z</time>
        <extensions>
          <ns3:TrackPointExtension>
            <ns3:atemp>22.0</ns3:atemp>
          </ns3:TrackPointExtension>
        </extensions>
      </trkpt>
      <trkpt lat="42.51167756505310535430908203125" lon="19.891425669193267822265625">
        <ele>1674</ele>
        <time>2026-06-17T12:29:06.000Z</time>
        <extensions>
          <ns3:TrackPointExtension>
            <ns3:atemp>22.0</ns3:atemp>
          </ns3:TrackPointExtension>
        </extensions>
      </trkpt>
      <trkpt lat="42.51167756505310535430908203125" lon="19.891425669193267822265625">
        <ele>1674</ele>
        <time>2026-06-17T12:29:07.000Z</time>
        <extensions>
          <ns3:TrackPointExtension>
            <ns3:atemp>22.0</ns3:atemp>
          </ns3:TrackPointExtension>
        </extensions>
      </trkpt>
      <trkpt lat="42.51167756505310535430908203125" lon="19.891425669193267822265625">
        <ele>1674</ele>
        <time>2026-06-17T12:29:08.000Z</time>
        <extensions>
          <ns3:TrackPointExtension>
            <ns3:atemp>22.0</ns3:atemp>
          </ns3:TrackPointExtension>
        </extensions>
      </trkpt>
      <trkpt lat="42.51167756505310535430908203125" lon="19.891425669193267822265625">
        <ele>1674</ele>
        <time>2026-06-17T12:29:09.000Z</time>
        <extensions>
          <ns3:TrackPointExtension>
            <ns3:atemp>22.0</ns3:atemp>
          </ns3:TrackPointExtension>
        </extensions>
      </trkpt>
      <trkpt lat="42.51167756505310535430908203125" lon="19.891425669193267822265625">
        <ele>1674</ele>
        <time>2026-06-17T12:29:10.000Z</time>
        <extensions>
          <ns3:TrackPointExtension>
            <ns3:atemp>22.0</ns3:atemp>
          </ns3:TrackPointExtension>
        </extensions>
      </trkpt>
      <trkpt lat="42.51167756505310535430908203125" lon="19.891425669193267822265625">
        <ele>1674</ele>
        <time>2026-06-17T12:29:11.000Z</time>
        <extensions>
          <ns3:TrackPointExtension>
            <ns3:atemp>22.0</ns3:atemp>
          </ns3:TrackPointExtension>
        </extensions>
      </trkpt>
      <trkpt lat="42.51167756505310535430908203125" lon="19.891425669193267822265625">
        <ele>1674</ele>
        <time>2026-06-17T12:29:12.000Z</time>
        <extensions>
          <ns3:TrackPointExtension>
            <ns3:atemp>22.0</ns3:atemp>
          </ns3:TrackPointExtension>
        </extensions>
      </trkpt>
      <trkpt lat="42.51167756505310535430908203125" lon="19.891425669193267822265625">
        <ele>1674</ele>
        <time>2026-06-17T12:29:13.000Z</time>
        <extensions>
          <ns3:TrackPointExtension>
            <ns3:atemp>22.0</ns3:atemp>
          </ns3:TrackPointExtension>
        </extensions>
      </trkpt>
      <trkpt lat="42.51167756505310535430908203125" lon="19.891425669193267822265625">
        <ele>1674</ele>
        <time>2026-06-17T12:29:14.000Z</time>
        <extensions>
          <ns3:TrackPointExtension>
            <ns3:atemp>22.0</ns3:atemp>
          </ns3:TrackPointExtension>
        </extensions>
      </trkpt>
      <trkpt lat="42.51167756505310535430908203125" lon="19.891425669193267822265625">
        <ele>1673.800048828125</ele>
        <time>2026-06-17T12:29:15.000Z</time>
        <extensions>
          <ns3:TrackPointExtension>
            <ns3:atemp>22.0</ns3:atemp>
          </ns3:TrackPointExtension>
        </extensions>
      </trkpt>
      <trkpt lat="42.51167756505310535430908203125" lon="19.891425669193267822265625">
        <ele>1673.800048828125</ele>
        <time>2026-06-17T12:29:16.000Z</time>
        <extensions>
          <ns3:TrackPointExtension>
            <ns3:atemp>22.0</ns3:atemp>
          </ns3:TrackPointExtension>
        </extensions>
      </trkpt>
      <trkpt lat="42.51167756505310535430908203125" lon="19.891425669193267822265625">
        <ele>1673.800048828125</ele>
        <time>2026-06-17T12:29:17.000Z</time>
        <extensions>
          <ns3:TrackPointExtension>
            <ns3:atemp>22.0</ns3:atemp>
          </ns3:TrackPointExtension>
        </extensions>
      </trkpt>
      <trkpt lat="42.51167756505310535430908203125" lon="19.891425669193267822265625">
        <ele>1673.800048828125</ele>
        <time>2026-06-17T12:29:18.000Z</time>
        <extensions>
          <ns3:TrackPointExtension>
            <ns3:atemp>22.0</ns3:atemp>
          </ns3:TrackPointExtension>
        </extensions>
      </trkpt>
      <trkpt lat="42.51167756505310535430908203125" lon="19.891425669193267822265625">
        <ele>1673.800048828125</ele>
        <time>2026-06-17T12:29:19.000Z</time>
        <extensions>
          <ns3:TrackPointExtension>
            <ns3:atemp>22.0</ns3:atemp>
          </ns3:TrackPointExtension>
        </extensions>
      </trkpt>
      <trkpt lat="42.51167756505310535430908203125" lon="19.891425669193267822265625">
        <ele>1673.800048828125</ele>
        <time>2026-06-17T12:29:20.000Z</time>
        <extensions>
          <ns3:TrackPointExtension>
            <ns3:atemp>22.0</ns3:atemp>
          </ns3:TrackPointExtension>
        </extensions>
      </trkpt>
      <trkpt lat="42.51167756505310535430908203125" lon="19.891425669193267822265625">
        <ele>1673.800048828125</ele>
        <time>2026-06-17T12:29:21.000Z</time>
        <extensions>
          <ns3:TrackPointExtension>
            <ns3:atemp>22.0</ns3:atemp>
          </ns3:TrackPointExtension>
        </extensions>
      </trkpt>
      <trkpt lat="42.51167756505310535430908203125" lon="19.891425669193267822265625">
        <ele>1673.800048828125</ele>
        <time>2026-06-17T12:29:22.000Z</time>
        <extensions>
          <ns3:TrackPointExtension>
            <ns3:atemp>22.0</ns3:atemp>
          </ns3:TrackPointExtension>
        </extensions>
      </trkpt>
      <trkpt lat="42.51167756505310535430908203125" lon="19.891425669193267822265625">
        <ele>1673.800048828125</ele>
        <time>2026-06-17T12:29:23.000Z</time>
        <extensions>
          <ns3:TrackPointExtension>
            <ns3:atemp>22.0</ns3:atemp>
          </ns3:TrackPointExtension>
        </extensions>
      </trkpt>
      <trkpt lat="42.51167756505310535430908203125" lon="19.891425669193267822265625">
        <ele>1673.800048828125</ele>
        <time>2026-06-17T12:29:24.000Z</time>
        <extensions>
          <ns3:TrackPointExtension>
            <ns3:atemp>22.0</ns3:atemp>
          </ns3:TrackPointExtension>
        </extensions>
      </trkpt>
      <trkpt lat="42.51167756505310535430908203125" lon="19.891425669193267822265625">
        <ele>1673.800048828125</ele>
        <time>2026-06-17T12:29:25.000Z</time>
        <extensions>
          <ns3:TrackPointExtension>
            <ns3:atemp>22.0</ns3:atemp>
          </ns3:TrackPointExtension>
        </extensions>
      </trkpt>
      <trkpt lat="42.51167756505310535430908203125" lon="19.891425669193267822265625">
        <ele>1673.800048828125</ele>
        <time>2026-06-17T12:29:26.000Z</time>
        <extensions>
          <ns3:TrackPointExtension>
            <ns3:atemp>22.0</ns3:atemp>
          </ns3:TrackPointExtension>
        </extensions>
      </trkpt>
      <trkpt lat="42.51167756505310535430908203125" lon="19.891425669193267822265625">
        <ele>1673.800048828125</ele>
        <time>2026-06-17T12:29:27.000Z</time>
        <extensions>
          <ns3:TrackPointExtension>
            <ns3:atemp>22.0</ns3:atemp>
          </ns3:TrackPointExtension>
        </extensions>
      </trkpt>
      <trkpt lat="42.51167756505310535430908203125" lon="19.891425669193267822265625">
        <ele>1673.800048828125</ele>
        <time>2026-06-17T12:29:28.000Z</time>
        <extensions>
          <ns3:TrackPointExtension>
            <ns3:atemp>22.0</ns3:atemp>
          </ns3:TrackPointExtension>
        </extensions>
      </trkpt>
      <trkpt lat="42.51167756505310535430908203125" lon="19.891425669193267822265625">
        <ele>1673.800048828125</ele>
        <time>2026-06-17T12:29:29.000Z</time>
        <extensions>
          <ns3:TrackPointExtension>
            <ns3:atemp>22.0</ns3:atemp>
          </ns3:TrackPointExtension>
        </extensions>
      </trkpt>
      <trkpt lat="42.51167756505310535430908203125" lon="19.891425669193267822265625">
        <ele>1673.800048828125</ele>
        <time>2026-06-17T12:29:30.000Z</time>
        <extensions>
          <ns3:TrackPointExtension>
            <ns3:atemp>22.0</ns3:atemp>
          </ns3:TrackPointExtension>
        </extensions>
      </trkpt>
      <trkpt lat="42.51167756505310535430908203125" lon="19.891425669193267822265625">
        <ele>1673.800048828125</ele>
        <time>2026-06-17T12:29:31.000Z</time>
        <extensions>
          <ns3:TrackPointExtension>
            <ns3:atemp>22.0</ns3:atemp>
          </ns3:TrackPointExtension>
        </extensions>
      </trkpt>
      <trkpt lat="42.51167756505310535430908203125" lon="19.891425669193267822265625">
        <ele>1673.800048828125</ele>
        <time>2026-06-17T12:29:32.000Z</time>
        <extensions>
          <ns3:TrackPointExtension>
            <ns3:atemp>22.0</ns3:atemp>
          </ns3:TrackPointExtension>
        </extensions>
      </trkpt>
      <trkpt lat="42.51167756505310535430908203125" lon="19.891425669193267822265625">
        <ele>1673.800048828125</ele>
        <time>2026-06-17T12:29:33.000Z</time>
        <extensions>
          <ns3:TrackPointExtension>
            <ns3:atemp>22.0</ns3:atemp>
          </ns3:TrackPointExtension>
        </extensions>
      </trkpt>
      <trkpt lat="42.51167756505310535430908203125" lon="19.891425669193267822265625">
        <ele>1673.800048828125</ele>
        <time>2026-06-17T12:29:34.000Z</time>
        <extensions>
          <ns3:TrackPointExtension>
            <ns3:atemp>22.0</ns3:atemp>
          </ns3:TrackPointExtension>
        </extensions>
      </trkpt>
      <trkpt lat="42.51167756505310535430908203125" lon="19.891425669193267822265625">
        <ele>1673.800048828125</ele>
        <time>2026-06-17T12:29:35.000Z</time>
        <extensions>
          <ns3:TrackPointExtension>
            <ns3:atemp>22.0</ns3:atemp>
          </ns3:TrackPointExtension>
        </extensions>
      </trkpt>
      <trkpt lat="42.51167756505310535430908203125" lon="19.891425669193267822265625">
        <ele>1673.800048828125</ele>
        <time>2026-06-17T12:29:36.000Z</time>
        <extensions>
          <ns3:TrackPointExtension>
            <ns3:atemp>22.0</ns3:atemp>
          </ns3:TrackPointExtension>
        </extensions>
      </trkpt>
      <trkpt lat="42.51167756505310535430908203125" lon="19.891425669193267822265625">
        <ele>1673.800048828125</ele>
        <time>2026-06-17T12:29:37.000Z</time>
        <extensions>
          <ns3:TrackPointExtension>
            <ns3:atemp>22.0</ns3:atemp>
          </ns3:TrackPointExtension>
        </extensions>
      </trkpt>
      <trkpt lat="42.51167756505310535430908203125" lon="19.891425669193267822265625">
        <ele>1673.800048828125</ele>
        <time>2026-06-17T12:29:38.000Z</time>
        <extensions>
          <ns3:TrackPointExtension>
            <ns3:atemp>22.0</ns3:atemp>
          </ns3:TrackPointExtension>
        </extensions>
      </trkpt>
      <trkpt lat="42.51167756505310535430908203125" lon="19.891425669193267822265625">
        <ele>1673.800048828125</ele>
        <time>2026-06-17T12:29:39.000Z</time>
        <extensions>
          <ns3:TrackPointExtension>
            <ns3:atemp>22.0</ns3:atemp>
          </ns3:TrackPointExtension>
        </extensions>
      </trkpt>
      <trkpt lat="42.51167756505310535430908203125" lon="19.891425669193267822265625">
        <ele>1673.800048828125</ele>
        <time>2026-06-17T12:29:40.000Z</time>
        <extensions>
          <ns3:TrackPointExtension>
            <ns3:atemp>22.0</ns3:atemp>
          </ns3:TrackPointExtension>
        </extensions>
      </trkpt>
      <trkpt lat="42.51167756505310535430908203125" lon="19.891425669193267822265625">
        <ele>1673.800048828125</ele>
        <time>2026-06-17T12:29:41.000Z</time>
        <extensions>
          <ns3:TrackPointExtension>
            <ns3:atemp>22.0</ns3:atemp>
          </ns3:TrackPointExtension>
        </extensions>
      </trkpt>
      <trkpt lat="42.51167756505310535430908203125" lon="19.891425669193267822265625">
        <ele>1673.800048828125</ele>
        <time>2026-06-17T12:29:42.000Z</time>
        <extensions>
          <ns3:TrackPointExtension>
            <ns3:atemp>22.0</ns3:atemp>
          </ns3:TrackPointExtension>
        </extensions>
      </trkpt>
      <trkpt lat="42.51167756505310535430908203125" lon="19.891425669193267822265625">
        <ele>1673.800048828125</ele>
        <time>2026-06-17T12:29:43.000Z</time>
        <extensions>
          <ns3:TrackPointExtension>
            <ns3:atemp>22.0</ns3:atemp>
          </ns3:TrackPointExtension>
        </extensions>
      </trkpt>
      <trkpt lat="42.51167756505310535430908203125" lon="19.891425669193267822265625">
        <ele>1673.800048828125</ele>
        <time>2026-06-17T12:29:44.000Z</time>
        <extensions>
          <ns3:TrackPointExtension>
            <ns3:atemp>22.0</ns3:atemp>
          </ns3:TrackPointExtension>
        </extensions>
      </trkpt>
      <trkpt lat="42.51167756505310535430908203125" lon="19.891425669193267822265625">
        <ele>1673.800048828125</ele>
        <time>2026-06-17T12:29:45.000Z</time>
        <extensions>
          <ns3:TrackPointExtension>
            <ns3:atemp>22.0</ns3:atemp>
          </ns3:TrackPointExtension>
        </extensions>
      </trkpt>
      <trkpt lat="42.51167756505310535430908203125" lon="19.891425669193267822265625">
        <ele>1673.800048828125</ele>
        <time>2026-06-17T12:29:46.000Z</time>
        <extensions>
          <ns3:TrackPointExtension>
            <ns3:atemp>22.0</ns3:atemp>
          </ns3:TrackPointExtension>
        </extensions>
      </trkpt>
      <trkpt lat="42.51167756505310535430908203125" lon="19.891425669193267822265625">
        <ele>1673.800048828125</ele>
        <time>2026-06-17T12:29:47.000Z</time>
        <extensions>
          <ns3:TrackPointExtension>
            <ns3:atemp>22.0</ns3:atemp>
          </ns3:TrackPointExtension>
        </extensions>
      </trkpt>
      <trkpt lat="42.51167756505310535430908203125" lon="19.891425669193267822265625">
        <ele>1673.800048828125</ele>
        <time>2026-06-17T12:29:48.000Z</time>
        <extensions>
          <ns3:TrackPointExtension>
            <ns3:atemp>22.0</ns3:atemp>
          </ns3:TrackPointExtension>
        </extensions>
      </trkpt>
      <trkpt lat="42.51167756505310535430908203125" lon="19.891425669193267822265625">
        <ele>1673.800048828125</ele>
        <time>2026-06-17T12:29:49.000Z</time>
        <extensions>
          <ns3:TrackPointExtension>
            <ns3:atemp>22.0</ns3:atemp>
          </ns3:TrackPointExtension>
        </extensions>
      </trkpt>
      <trkpt lat="42.51167756505310535430908203125" lon="19.891425669193267822265625">
        <ele>1673.800048828125</ele>
        <time>2026-06-17T12:29:50.000Z</time>
        <extensions>
          <ns3:TrackPointExtension>
            <ns3:atemp>22.0</ns3:atemp>
          </ns3:TrackPointExtension>
        </extensions>
      </trkpt>
      <trkpt lat="42.51167756505310535430908203125" lon="19.891425669193267822265625">
        <ele>1673.800048828125</ele>
        <time>2026-06-17T12:29:51.000Z</time>
        <extensions>
          <ns3:TrackPointExtension>
            <ns3:atemp>22.0</ns3:atemp>
          </ns3:TrackPointExtension>
        </extensions>
      </trkpt>
      <trkpt lat="42.51167756505310535430908203125" lon="19.891425669193267822265625">
        <ele>1673.800048828125</ele>
        <time>2026-06-17T12:29:52.000Z</time>
        <extensions>
          <ns3:TrackPointExtension>
            <ns3:atemp>22.0</ns3:atemp>
          </ns3:TrackPointExtension>
        </extensions>
      </trkpt>
      <trkpt lat="42.51167756505310535430908203125" lon="19.891425669193267822265625">
        <ele>1673.800048828125</ele>
        <time>2026-06-17T12:29:53.000Z</time>
        <extensions>
          <ns3:TrackPointExtension>
            <ns3:atemp>22.0</ns3:atemp>
          </ns3:TrackPointExtension>
        </extensions>
      </trkpt>
      <trkpt lat="42.51167756505310535430908203125" lon="19.891425669193267822265625">
        <ele>1673.800048828125</ele>
        <time>2026-06-17T12:29:54.000Z</time>
        <extensions>
          <ns3:TrackPointExtension>
            <ns3:atemp>22.0</ns3:atemp>
          </ns3:TrackPointExtension>
        </extensions>
      </trkpt>
      <trkpt lat="42.51167756505310535430908203125" lon="19.891425669193267822265625">
        <ele>1673.800048828125</ele>
        <time>2026-06-17T12:29:55.000Z</time>
        <extensions>
          <ns3:TrackPointExtension>
            <ns3:atemp>22.0</ns3:atemp>
          </ns3:TrackPointExtension>
        </extensions>
      </trkpt>
      <trkpt lat="42.51167756505310535430908203125" lon="19.891425669193267822265625">
        <ele>1673.800048828125</ele>
        <time>2026-06-17T12:29:56.000Z</time>
        <extensions>
          <ns3:TrackPointExtension>
            <ns3:atemp>22.0</ns3:atemp>
          </ns3:TrackPointExtension>
        </extensions>
      </trkpt>
      <trkpt lat="42.51167756505310535430908203125" lon="19.891425669193267822265625">
        <ele>1673.800048828125</ele>
        <time>2026-06-17T12:29:57.000Z</time>
        <extensions>
          <ns3:TrackPointExtension>
            <ns3:atemp>22.0</ns3:atemp>
          </ns3:TrackPointExtension>
        </extensions>
      </trkpt>
      <trkpt lat="42.51167756505310535430908203125" lon="19.891425669193267822265625">
        <ele>1673.800048828125</ele>
        <time>2026-06-17T12:29:58.000Z</time>
        <extensions>
          <ns3:TrackPointExtension>
            <ns3:atemp>22.0</ns3:atemp>
          </ns3:TrackPointExtension>
        </extensions>
      </trkpt>
      <trkpt lat="42.51167756505310535430908203125" lon="19.891425669193267822265625">
        <ele>1673.800048828125</ele>
        <time>2026-06-17T12:29:59.000Z</time>
        <extensions>
          <ns3:TrackPointExtension>
            <ns3:atemp>22.0</ns3:atemp>
          </ns3:TrackPointExtension>
        </extensions>
      </trkpt>
      <trkpt lat="42.51167756505310535430908203125" lon="19.891425669193267822265625">
        <ele>1673.800048828125</ele>
        <time>2026-06-17T12:30:00.000Z</time>
        <extensions>
          <ns3:TrackPointExtension>
            <ns3:atemp>22.0</ns3:atemp>
          </ns3:TrackPointExtension>
        </extensions>
      </trkpt>
      <trkpt lat="42.51167756505310535430908203125" lon="19.891425669193267822265625">
        <ele>1673.800048828125</ele>
        <time>2026-06-17T12:30:01.000Z</time>
        <extensions>
          <ns3:TrackPointExtension>
            <ns3:atemp>22.0</ns3:atemp>
          </ns3:TrackPointExtension>
        </extensions>
      </trkpt>
      <trkpt lat="42.51167756505310535430908203125" lon="19.891425669193267822265625">
        <ele>1673.800048828125</ele>
        <time>2026-06-17T12:30:02.000Z</time>
        <extensions>
          <ns3:TrackPointExtension>
            <ns3:atemp>22.0</ns3:atemp>
          </ns3:TrackPointExtension>
        </extensions>
      </trkpt>
      <trkpt lat="42.51167756505310535430908203125" lon="19.891425669193267822265625">
        <ele>1673.800048828125</ele>
        <time>2026-06-17T12:30:03.000Z</time>
        <extensions>
          <ns3:TrackPointExtension>
            <ns3:atemp>22.0</ns3:atemp>
          </ns3:TrackPointExtension>
        </extensions>
      </trkpt>
      <trkpt lat="42.51167756505310535430908203125" lon="19.891425669193267822265625">
        <ele>1673.800048828125</ele>
        <time>2026-06-17T12:30:04.000Z</time>
        <extensions>
          <ns3:TrackPointExtension>
            <ns3:atemp>22.0</ns3:atemp>
          </ns3:TrackPointExtension>
        </extensions>
      </trkpt>
      <trkpt lat="42.51167756505310535430908203125" lon="19.891425669193267822265625">
        <ele>1673.800048828125</ele>
        <time>2026-06-17T12:30:05.000Z</time>
        <extensions>
          <ns3:TrackPointExtension>
            <ns3:atemp>22.0</ns3:atemp>
          </ns3:TrackPointExtension>
        </extensions>
      </trkpt>
      <trkpt lat="42.51167756505310535430908203125" lon="19.891425669193267822265625">
        <ele>1673.800048828125</ele>
        <time>2026-06-17T12:30:06.000Z</time>
        <extensions>
          <ns3:TrackPointExtension>
            <ns3:atemp>22.0</ns3:atemp>
          </ns3:TrackPointExtension>
        </extensions>
      </trkpt>
      <trkpt lat="42.51167756505310535430908203125" lon="19.891425669193267822265625">
        <ele>1673.800048828125</ele>
        <time>2026-06-17T12:30:07.000Z</time>
        <extensions>
          <ns3:TrackPointExtension>
            <ns3:atemp>22.0</ns3:atemp>
          </ns3:TrackPointExtension>
        </extensions>
      </trkpt>
      <trkpt lat="42.51167756505310535430908203125" lon="19.891425669193267822265625">
        <ele>1673.800048828125</ele>
        <time>2026-06-17T12:30:08.000Z</time>
        <extensions>
          <ns3:TrackPointExtension>
            <ns3:atemp>22.0</ns3:atemp>
          </ns3:TrackPointExtension>
        </extensions>
      </trkpt>
      <trkpt lat="42.51167756505310535430908203125" lon="19.891425669193267822265625">
        <ele>1673.800048828125</ele>
        <time>2026-06-17T12:30:09.000Z</time>
        <extensions>
          <ns3:TrackPointExtension>
            <ns3:atemp>22.0</ns3:atemp>
          </ns3:TrackPointExtension>
        </extensions>
      </trkpt>
      <trkpt lat="42.51167756505310535430908203125" lon="19.891425669193267822265625">
        <ele>1673.800048828125</ele>
        <time>2026-06-17T12:30:10.000Z</time>
        <extensions>
          <ns3:TrackPointExtension>
            <ns3:atemp>22.0</ns3:atemp>
          </ns3:TrackPointExtension>
        </extensions>
      </trkpt>
      <trkpt lat="42.51167756505310535430908203125" lon="19.891425669193267822265625">
        <ele>1673.800048828125</ele>
        <time>2026-06-17T12:30:11.000Z</time>
        <extensions>
          <ns3:TrackPointExtension>
            <ns3:atemp>22.0</ns3:atemp>
          </ns3:TrackPointExtension>
        </extensions>
      </trkpt>
      <trkpt lat="42.51167756505310535430908203125" lon="19.891425669193267822265625">
        <ele>1673.800048828125</ele>
        <time>2026-06-17T12:30:12.000Z</time>
        <extensions>
          <ns3:TrackPointExtension>
            <ns3:atemp>22.0</ns3:atemp>
          </ns3:TrackPointExtension>
        </extensions>
      </trkpt>
      <trkpt lat="42.51167756505310535430908203125" lon="19.891425669193267822265625">
        <ele>1673.800048828125</ele>
        <time>2026-06-17T12:30:13.000Z</time>
        <extensions>
          <ns3:TrackPointExtension>
            <ns3:atemp>22.0</ns3:atemp>
          </ns3:TrackPointExtension>
        </extensions>
      </trkpt>
      <trkpt lat="42.51167756505310535430908203125" lon="19.891425669193267822265625">
        <ele>1673.800048828125</ele>
        <time>2026-06-17T12:30:14.000Z</time>
        <extensions>
          <ns3:TrackPointExtension>
            <ns3:atemp>22.0</ns3:atemp>
          </ns3:TrackPointExtension>
        </extensions>
      </trkpt>
      <trkpt lat="42.51167756505310535430908203125" lon="19.891425669193267822265625">
        <ele>1673.800048828125</ele>
        <time>2026-06-17T12:30:15.000Z</time>
        <extensions>
          <ns3:TrackPointExtension>
            <ns3:atemp>22.0</ns3:atemp>
          </ns3:TrackPointExtension>
        </extensions>
      </trkpt>
      <trkpt lat="42.51167756505310535430908203125" lon="19.891425669193267822265625">
        <ele>1673.800048828125</ele>
        <time>2026-06-17T12:30:16.000Z</time>
        <extensions>
          <ns3:TrackPointExtension>
            <ns3:atemp>22.0</ns3:atemp>
          </ns3:TrackPointExtension>
        </extensions>
      </trkpt>
      <trkpt lat="42.51167756505310535430908203125" lon="19.891425669193267822265625">
        <ele>1673.800048828125</ele>
        <time>2026-06-17T12:30:17.000Z</time>
        <extensions>
          <ns3:TrackPointExtension>
            <ns3:atemp>22.0</ns3:atemp>
          </ns3:TrackPointExtension>
        </extensions>
      </trkpt>
      <trkpt lat="42.51167756505310535430908203125" lon="19.891425669193267822265625">
        <ele>1673.800048828125</ele>
        <time>2026-06-17T12:30:18.000Z</time>
        <extensions>
          <ns3:TrackPointExtension>
            <ns3:atemp>22.0</ns3:atemp>
          </ns3:TrackPointExtension>
        </extensions>
      </trkpt>
      <trkpt lat="42.51167756505310535430908203125" lon="19.891425669193267822265625">
        <ele>1673.800048828125</ele>
        <time>2026-06-17T12:30:19.000Z</time>
        <extensions>
          <ns3:TrackPointExtension>
            <ns3:atemp>22.0</ns3:atemp>
          </ns3:TrackPointExtension>
        </extensions>
      </trkpt>
      <trkpt lat="42.51167756505310535430908203125" lon="19.891425669193267822265625">
        <ele>1673.800048828125</ele>
        <time>2026-06-17T12:30:20.000Z</time>
        <extensions>
          <ns3:TrackPointExtension>
            <ns3:atemp>22.0</ns3:atemp>
          </ns3:TrackPointExtension>
        </extensions>
      </trkpt>
      <trkpt lat="42.51167756505310535430908203125" lon="19.891425669193267822265625">
        <ele>1673.800048828125</ele>
        <time>2026-06-17T12:30:21.000Z</time>
        <extensions>
          <ns3:TrackPointExtension>
            <ns3:atemp>22.0</ns3:atemp>
          </ns3:TrackPointExtension>
        </extensions>
      </trkpt>
      <trkpt lat="42.51167756505310535430908203125" lon="19.891425669193267822265625">
        <ele>1673.800048828125</ele>
        <time>2026-06-17T12:30:22.000Z</time>
        <extensions>
          <ns3:TrackPointExtension>
            <ns3:atemp>22.0</ns3:atemp>
          </ns3:TrackPointExtension>
        </extensions>
      </trkpt>
      <trkpt lat="42.51167756505310535430908203125" lon="19.891425669193267822265625">
        <ele>1673.800048828125</ele>
        <time>2026-06-17T12:30:23.000Z</time>
        <extensions>
          <ns3:TrackPointExtension>
            <ns3:atemp>22.0</ns3:atemp>
          </ns3:TrackPointExtension>
        </extensions>
      </trkpt>
      <trkpt lat="42.51167756505310535430908203125" lon="19.891425669193267822265625">
        <ele>1673.800048828125</ele>
        <time>2026-06-17T12:30:24.000Z</time>
        <extensions>
          <ns3:TrackPointExtension>
            <ns3:atemp>22.0</ns3:atemp>
          </ns3:TrackPointExtension>
        </extensions>
      </trkpt>
      <trkpt lat="42.51167756505310535430908203125" lon="19.891425669193267822265625">
        <ele>1673.800048828125</ele>
        <time>2026-06-17T12:30:25.000Z</time>
        <extensions>
          <ns3:TrackPointExtension>
            <ns3:atemp>22.0</ns3:atemp>
          </ns3:TrackPointExtension>
        </extensions>
      </trkpt>
      <trkpt lat="42.51167756505310535430908203125" lon="19.891425669193267822265625">
        <ele>1673.800048828125</ele>
        <time>2026-06-17T12:30:26.000Z</time>
        <extensions>
          <ns3:TrackPointExtension>
            <ns3:atemp>22.0</ns3:atemp>
          </ns3:TrackPointExtension>
        </extensions>
      </trkpt>
      <trkpt lat="42.51167756505310535430908203125" lon="19.891425669193267822265625">
        <ele>1673.800048828125</ele>
        <time>2026-06-17T12:30:27.000Z</time>
        <extensions>
          <ns3:TrackPointExtension>
            <ns3:atemp>22.0</ns3:atemp>
          </ns3:TrackPointExtension>
        </extensions>
      </trkpt>
      <trkpt lat="42.51167756505310535430908203125" lon="19.891425669193267822265625">
        <ele>1673.800048828125</ele>
        <time>2026-06-17T12:30:28.000Z</time>
        <extensions>
          <ns3:TrackPointExtension>
            <ns3:atemp>22.0</ns3:atemp>
          </ns3:TrackPointExtension>
        </extensions>
      </trkpt>
      <trkpt lat="42.51167756505310535430908203125" lon="19.891425669193267822265625">
        <ele>1673.800048828125</ele>
        <time>2026-06-17T12:30:29.000Z</time>
        <extensions>
          <ns3:TrackPointExtension>
            <ns3:atemp>22.0</ns3:atemp>
          </ns3:TrackPointExtension>
        </extensions>
      </trkpt>
      <trkpt lat="42.51167756505310535430908203125" lon="19.891425669193267822265625">
        <ele>1673.800048828125</ele>
        <time>2026-06-17T12:30:30.000Z</time>
        <extensions>
          <ns3:TrackPointExtension>
            <ns3:atemp>22.0</ns3:atemp>
          </ns3:TrackPointExtension>
        </extensions>
      </trkpt>
      <trkpt lat="42.51167756505310535430908203125" lon="19.891425669193267822265625">
        <ele>1673.800048828125</ele>
        <time>2026-06-17T12:30:31.000Z</time>
        <extensions>
          <ns3:TrackPointExtension>
            <ns3:atemp>22.0</ns3:atemp>
          </ns3:TrackPointExtension>
        </extensions>
      </trkpt>
      <trkpt lat="42.51167756505310535430908203125" lon="19.891425669193267822265625">
        <ele>1673.800048828125</ele>
        <time>2026-06-17T12:30:32.000Z</time>
        <extensions>
          <ns3:TrackPointExtension>
            <ns3:atemp>22.0</ns3:atemp>
          </ns3:TrackPointExtension>
        </extensions>
      </trkpt>
      <trkpt lat="42.51167756505310535430908203125" lon="19.891425669193267822265625">
        <ele>1673.800048828125</ele>
        <time>2026-06-17T12:30:33.000Z</time>
        <extensions>
          <ns3:TrackPointExtension>
            <ns3:atemp>22.0</ns3:atemp>
          </ns3:TrackPointExtension>
        </extensions>
      </trkpt>
      <trkpt lat="42.51167756505310535430908203125" lon="19.891425669193267822265625">
        <ele>1673.800048828125</ele>
        <time>2026-06-17T12:30:34.000Z</time>
        <extensions>
          <ns3:TrackPointExtension>
            <ns3:atemp>22.0</ns3:atemp>
          </ns3:TrackPointExtension>
        </extensions>
      </trkpt>
      <trkpt lat="42.51167756505310535430908203125" lon="19.891425669193267822265625">
        <ele>1673.800048828125</ele>
        <time>2026-06-17T12:30:35.000Z</time>
        <extensions>
          <ns3:TrackPointExtension>
            <ns3:atemp>22.0</ns3:atemp>
          </ns3:TrackPointExtension>
        </extensions>
      </trkpt>
      <trkpt lat="42.51167756505310535430908203125" lon="19.891425669193267822265625">
        <ele>1673.800048828125</ele>
        <time>2026-06-17T12:30:36.000Z</time>
        <extensions>
          <ns3:TrackPointExtension>
            <ns3:atemp>22.0</ns3:atemp>
          </ns3:TrackPointExtension>
        </extensions>
      </trkpt>
      <trkpt lat="42.51167756505310535430908203125" lon="19.891425669193267822265625">
        <ele>1673.800048828125</ele>
        <time>2026-06-17T12:30:37.000Z</time>
        <extensions>
          <ns3:TrackPointExtension>
            <ns3:atemp>22.0</ns3:atemp>
          </ns3:TrackPointExtension>
        </extensions>
      </trkpt>
      <trkpt lat="42.51167756505310535430908203125" lon="19.891425669193267822265625">
        <ele>1673.800048828125</ele>
        <time>2026-06-17T12:30:38.000Z</time>
        <extensions>
          <ns3:TrackPointExtension>
            <ns3:atemp>22.0</ns3:atemp>
          </ns3:TrackPointExtension>
        </extensions>
      </trkpt>
      <trkpt lat="42.51167756505310535430908203125" lon="19.891425669193267822265625">
        <ele>1673.800048828125</ele>
        <time>2026-06-17T12:30:39.000Z</time>
        <extensions>
          <ns3:TrackPointExtension>
            <ns3:atemp>22.0</ns3:atemp>
          </ns3:TrackPointExtension>
        </extensions>
      </trkpt>
      <trkpt lat="42.51167756505310535430908203125" lon="19.891425669193267822265625">
        <ele>1673.800048828125</ele>
        <time>2026-06-17T12:30:40.000Z</time>
        <extensions>
          <ns3:TrackPointExtension>
            <ns3:atemp>22.0</ns3:atemp>
          </ns3:TrackPointExtension>
        </extensions>
      </trkpt>
      <trkpt lat="42.51167756505310535430908203125" lon="19.891425669193267822265625">
        <ele>1673.800048828125</ele>
        <time>2026-06-17T12:30:41.000Z</time>
        <extensions>
          <ns3:TrackPointExtension>
            <ns3:atemp>22.0</ns3:atemp>
          </ns3:TrackPointExtension>
        </extensions>
      </trkpt>
      <trkpt lat="42.51167756505310535430908203125" lon="19.891425669193267822265625">
        <ele>1673.800048828125</ele>
        <time>2026-06-17T12:30:42.000Z</time>
        <extensions>
          <ns3:TrackPointExtension>
            <ns3:atemp>22.0</ns3:atemp>
          </ns3:TrackPointExtension>
        </extensions>
      </trkpt>
      <trkpt lat="42.51167756505310535430908203125" lon="19.891425669193267822265625">
        <ele>1673.800048828125</ele>
        <time>2026-06-17T12:30:43.000Z</time>
        <extensions>
          <ns3:TrackPointExtension>
            <ns3:atemp>22.0</ns3:atemp>
          </ns3:TrackPointExtension>
        </extensions>
      </trkpt>
      <trkpt lat="42.51167756505310535430908203125" lon="19.891425669193267822265625">
        <ele>1673.800048828125</ele>
        <time>2026-06-17T12:30:44.000Z</time>
        <extensions>
          <ns3:TrackPointExtension>
            <ns3:atemp>22.0</ns3:atemp>
          </ns3:TrackPointExtension>
        </extensions>
      </trkpt>
      <trkpt lat="42.51167756505310535430908203125" lon="19.891425669193267822265625">
        <ele>1673.800048828125</ele>
        <time>2026-06-17T12:30:45.000Z</time>
        <extensions>
          <ns3:TrackPointExtension>
            <ns3:atemp>22.0</ns3:atemp>
          </ns3:TrackPointExtension>
        </extensions>
      </trkpt>
      <trkpt lat="42.51167756505310535430908203125" lon="19.891425669193267822265625">
        <ele>1673.800048828125</ele>
        <time>2026-06-17T12:30:46.000Z</time>
        <extensions>
          <ns3:TrackPointExtension>
            <ns3:atemp>22.0</ns3:atemp>
          </ns3:TrackPointExtension>
        </extensions>
      </trkpt>
      <trkpt lat="42.51167756505310535430908203125" lon="19.891425669193267822265625">
        <ele>1673.800048828125</ele>
        <time>2026-06-17T12:30:47.000Z</time>
        <extensions>
          <ns3:TrackPointExtension>
            <ns3:atemp>22.0</ns3:atemp>
          </ns3:TrackPointExtension>
        </extensions>
      </trkpt>
      <trkpt lat="42.51167756505310535430908203125" lon="19.891425669193267822265625">
        <ele>1673.800048828125</ele>
        <time>2026-06-17T12:30:48.000Z</time>
        <extensions>
          <ns3:TrackPointExtension>
            <ns3:atemp>22.0</ns3:atemp>
          </ns3:TrackPointExtension>
        </extensions>
      </trkpt>
      <trkpt lat="42.51167756505310535430908203125" lon="19.891425669193267822265625">
        <ele>1673.800048828125</ele>
        <time>2026-06-17T12:30:49.000Z</time>
        <extensions>
          <ns3:TrackPointExtension>
            <ns3:atemp>22.0</ns3:atemp>
          </ns3:TrackPointExtension>
        </extensions>
      </trkpt>
      <trkpt lat="42.51167756505310535430908203125" lon="19.891425669193267822265625">
        <ele>1673.800048828125</ele>
        <time>2026-06-17T12:30:50.000Z</time>
        <extensions>
          <ns3:TrackPointExtension>
            <ns3:atemp>22.0</ns3:atemp>
          </ns3:TrackPointExtension>
        </extensions>
      </trkpt>
      <trkpt lat="42.51167756505310535430908203125" lon="19.891425669193267822265625">
        <ele>1673.800048828125</ele>
        <time>2026-06-17T12:30:51.000Z</time>
        <extensions>
          <ns3:TrackPointExtension>
            <ns3:atemp>22.0</ns3:atemp>
          </ns3:TrackPointExtension>
        </extensions>
      </trkpt>
      <trkpt lat="42.51167756505310535430908203125" lon="19.891425669193267822265625">
        <ele>1673.800048828125</ele>
        <time>2026-06-17T12:30:52.000Z</time>
        <extensions>
          <ns3:TrackPointExtension>
            <ns3:atemp>22.0</ns3:atemp>
          </ns3:TrackPointExtension>
        </extensions>
      </trkpt>
      <trkpt lat="42.51167756505310535430908203125" lon="19.891425669193267822265625">
        <ele>1673.800048828125</ele>
        <time>2026-06-17T12:30:53.000Z</time>
        <extensions>
          <ns3:TrackPointExtension>
            <ns3:atemp>22.0</ns3:atemp>
          </ns3:TrackPointExtension>
        </extensions>
      </trkpt>
      <trkpt lat="42.51167756505310535430908203125" lon="19.891425669193267822265625">
        <ele>1673.800048828125</ele>
        <time>2026-06-17T12:30:54.000Z</time>
        <extensions>
          <ns3:TrackPointExtension>
            <ns3:atemp>22.0</ns3:atemp>
          </ns3:TrackPointExtension>
        </extensions>
      </trkpt>
      <trkpt lat="42.51167756505310535430908203125" lon="19.891425669193267822265625">
        <ele>1673.800048828125</ele>
        <time>2026-06-17T12:30:55.000Z</time>
        <extensions>
          <ns3:TrackPointExtension>
            <ns3:atemp>22.0</ns3:atemp>
          </ns3:TrackPointExtension>
        </extensions>
      </trkpt>
      <trkpt lat="42.51167756505310535430908203125" lon="19.891425669193267822265625">
        <ele>1673.800048828125</ele>
        <time>2026-06-17T12:30:56.000Z</time>
        <extensions>
          <ns3:TrackPointExtension>
            <ns3:atemp>22.0</ns3:atemp>
          </ns3:TrackPointExtension>
        </extensions>
      </trkpt>
      <trkpt lat="42.51167756505310535430908203125" lon="19.891425669193267822265625">
        <ele>1673.800048828125</ele>
        <time>2026-06-17T12:30:57.000Z</time>
        <extensions>
          <ns3:TrackPointExtension>
            <ns3:atemp>22.0</ns3:atemp>
          </ns3:TrackPointExtension>
        </extensions>
      </trkpt>
      <trkpt lat="42.51167756505310535430908203125" lon="19.891425669193267822265625">
        <ele>1673.800048828125</ele>
        <time>2026-06-17T12:30:58.000Z</time>
        <extensions>
          <ns3:TrackPointExtension>
            <ns3:atemp>22.0</ns3:atemp>
          </ns3:TrackPointExtension>
        </extensions>
      </trkpt>
      <trkpt lat="42.51167756505310535430908203125" lon="19.891425669193267822265625">
        <ele>1673.800048828125</ele>
        <time>2026-06-17T12:30:59.000Z</time>
        <extensions>
          <ns3:TrackPointExtension>
            <ns3:atemp>22.0</ns3:atemp>
          </ns3:TrackPointExtension>
        </extensions>
      </trkpt>
      <trkpt lat="42.5116786547005176544189453125" lon="19.89143044687807559967041015625">
        <ele>1673.800048828125</ele>
        <time>2026-06-17T12:31:00.000Z</time>
        <extensions>
          <ns3:TrackPointExtension>
            <ns3:atemp>22.0</ns3:atemp>
          </ns3:TrackPointExtension>
        </extensions>
      </trkpt>
      <trkpt lat="42.5116769783198833465576171875" lon="19.8914295248687267303466796875">
        <ele>1673.800048828125</ele>
        <time>2026-06-17T12:31:01.000Z</time>
        <extensions>
          <ns3:TrackPointExtension>
            <ns3:atemp>22.0</ns3:atemp>
          </ns3:TrackPointExtension>
        </extensions>
      </trkpt>
      <trkpt lat="42.51168041490018367767333984375" lon="19.8914248310029506683349609375">
        <ele>1673.800048828125</ele>
        <time>2026-06-17T12:31:02.000Z</time>
        <extensions>
          <ns3:TrackPointExtension>
            <ns3:atemp>22.0</ns3:atemp>
          </ns3:TrackPointExtension>
        </extensions>
      </trkpt>
      <trkpt lat="42.51168896444141864776611328125" lon="19.891418628394603729248046875">
        <ele>1673.800048828125</ele>
        <time>2026-06-17T12:31:03.000Z</time>
        <extensions>
          <ns3:TrackPointExtension>
            <ns3:atemp>22.0</ns3:atemp>
          </ns3:TrackPointExtension>
        </extensions>
      </trkpt>
      <trkpt lat="42.51169885508716106414794921875" lon="19.8914171196520328521728515625">
        <ele>1673.800048828125</ele>
        <time>2026-06-17T12:31:04.000Z</time>
        <extensions>
          <ns3:TrackPointExtension>
            <ns3:atemp>22.0</ns3:atemp>
          </ns3:TrackPointExtension>
        </extensions>
      </trkpt>
      <trkpt lat="42.51170908100903034210205078125" lon="19.89141016267240047454833984375">
        <ele>1673.800048828125</ele>
        <time>2026-06-17T12:31:05.000Z</time>
        <extensions>
          <ns3:TrackPointExtension>
            <ns3:atemp>22.0</ns3:atemp>
          </ns3:TrackPointExtension>
        </extensions>
      </trkpt>
      <trkpt lat="42.51171712763607501983642578125" lon="19.89139574579894542694091796875">
        <ele>1673.800048828125</ele>
        <time>2026-06-17T12:31:06.000Z</time>
        <extensions>
          <ns3:TrackPointExtension>
            <ns3:atemp>22.0</ns3:atemp>
          </ns3:TrackPointExtension>
        </extensions>
      </trkpt>
      <trkpt lat="42.51173120923340320587158203125" lon="19.89138476550579071044921875">
        <ele>1673.800048828125</ele>
        <time>2026-06-17T12:31:07.000Z</time>
        <extensions>
          <ns3:TrackPointExtension>
            <ns3:atemp>22.0</ns3:atemp>
          </ns3:TrackPointExtension>
        </extensions>
      </trkpt>
      <trkpt lat="42.511746548116207122802734375" lon="19.8913711868226528167724609375">
        <ele>1674.4000244140625</ele>
        <time>2026-06-17T12:31:08.000Z</time>
        <extensions>
          <ns3:TrackPointExtension>
            <ns3:atemp>22.0</ns3:atemp>
          </ns3:TrackPointExtension>
        </extensions>
      </trkpt>
      <trkpt lat="42.51177244819700717926025390625" lon="19.89136724732816219329833984375">
        <ele>1674</ele>
        <time>2026-06-17T12:31:09.000Z</time>
        <extensions>
          <ns3:TrackPointExtension>
            <ns3:atemp>22.0</ns3:atemp>
          </ns3:TrackPointExtension>
        </extensions>
      </trkpt>
      <trkpt lat="42.5117963366210460662841796875" lon="19.89135802723467350006103515625">
        <ele>1673.4000244140625</ele>
        <time>2026-06-17T12:31:10.000Z</time>
        <extensions>
          <ns3:TrackPointExtension>
            <ns3:atemp>22.0</ns3:atemp>
          </ns3:TrackPointExtension>
        </extensions>
      </trkpt>
      <trkpt lat="42.51182424835860729217529296875" lon="19.89133522845804691314697265625">
        <ele>1672.5999755859375</ele>
        <time>2026-06-17T12:31:11.000Z</time>
        <extensions>
          <ns3:TrackPointExtension>
            <ns3:atemp>22.0</ns3:atemp>
          </ns3:TrackPointExtension>
        </extensions>
      </trkpt>
      <trkpt lat="42.51185459084808826446533203125" lon="19.89131226204335689544677734375">
        <ele>1672</ele>
        <time>2026-06-17T12:31:12.000Z</time>
        <extensions>
          <ns3:TrackPointExtension>
            <ns3:atemp>22.0</ns3:atemp>
          </ns3:TrackPointExtension>
        </extensions>
      </trkpt>
      <trkpt lat="42.51188308931887149810791015625" lon="19.89129583351314067840576171875">
        <ele>1671.4000244140625</ele>
        <time>2026-06-17T12:31:13.000Z</time>
        <extensions>
          <ns3:TrackPointExtension>
            <ns3:atemp>22.0</ns3:atemp>
          </ns3:TrackPointExtension>
        </extensions>
      </trkpt>
      <trkpt lat="42.5119009427726268768310546875" lon="19.89126783795654773712158203125">
        <ele>1671</ele>
        <time>2026-06-17T12:31:14.000Z</time>
        <extensions>
          <ns3:TrackPointExtension>
            <ns3:atemp>22.0</ns3:atemp>
          </ns3:TrackPointExtension>
        </extensions>
      </trkpt>
      <trkpt lat="42.51191695220768451690673828125" lon="19.8912394233047962188720703125">
        <ele>1670.4000244140625</ele>
        <time>2026-06-17T12:31:15.000Z</time>
        <extensions>
          <ns3:TrackPointExtension>
            <ns3:atemp>22.0</ns3:atemp>
          </ns3:TrackPointExtension>
        </extensions>
      </trkpt>
      <trkpt lat="42.51193262636661529541015625" lon="19.8912132717669010162353515625">
        <ele>1670</ele>
        <time>2026-06-17T12:31:16.000Z</time>
        <extensions>
          <ns3:TrackPointExtension>
            <ns3:atemp>22.0</ns3:atemp>
          </ns3:TrackPointExtension>
        </extensions>
      </trkpt>
      <trkpt lat="42.51195165328681468963623046875" lon="19.89118636585772037506103515625">
        <ele>1669.5999755859375</ele>
        <time>2026-06-17T12:31:17.000Z</time>
        <extensions>
          <ns3:TrackPointExtension>
            <ns3:atemp>22.0</ns3:atemp>
          </ns3:TrackPointExtension>
        </extensions>
      </trkpt>
      <trkpt lat="42.511975876986980438232421875" lon="19.89117630757391452789306640625">
        <ele>1669.199951171875</ele>
        <time>2026-06-17T12:31:18.000Z</time>
        <extensions>
          <ns3:TrackPointExtension>
            <ns3:atemp>22.0</ns3:atemp>
          </ns3:TrackPointExtension>
        </extensions>
      </trkpt>
      <trkpt lat="42.51200102269649505615234375" lon="19.89117446355521678924560546875">
        <ele>1668.5999755859375</ele>
        <time>2026-06-17T12:31:19.000Z</time>
        <extensions>
          <ns3:TrackPointExtension>
            <ns3:atemp>22.0</ns3:atemp>
          </ns3:TrackPointExtension>
        </extensions>
      </trkpt>
      <trkpt lat="42.512028515338897705078125" lon="19.89116524346172809600830078125">
        <ele>1668</ele>
        <time>2026-06-17T12:31:20.000Z</time>
        <extensions>
          <ns3:TrackPointExtension>
            <ns3:atemp>22.0</ns3:atemp>
          </ns3:TrackPointExtension>
        </extensions>
      </trkpt>
      <trkpt lat="42.512055672705173492431640625" lon="19.89115350879728794097900390625">
        <ele>1667.4000244140625</ele>
        <time>2026-06-17T12:31:21.000Z</time>
        <extensions>
          <ns3:TrackPointExtension>
            <ns3:atemp>22.0</ns3:atemp>
          </ns3:TrackPointExtension>
        </extensions>
      </trkpt>
      <trkpt lat="42.5120927207171916961669921875" lon="19.8911331407725811004638671875">
        <ele>1666.5999755859375</ele>
        <time>2026-06-17T12:31:22.000Z</time>
        <extensions>
          <ns3:TrackPointExtension>
            <ns3:atemp>22.0</ns3:atemp>
          </ns3:TrackPointExtension>
        </extensions>
      </trkpt>
      <trkpt lat="42.5121312774717807769775390625" lon="19.89110522903501987457275390625">
        <ele>1665.800048828125</ele>
        <time>2026-06-17T12:31:23.000Z</time>
        <extensions>
          <ns3:TrackPointExtension>
            <ns3:atemp>22.0</ns3:atemp>
          </ns3:TrackPointExtension>
        </extensions>
      </trkpt>
      <trkpt lat="42.5121741928160190582275390625" lon="19.89108301699161529541015625">
        <ele>1665</ele>
        <time>2026-06-17T12:31:24.000Z</time>
        <extensions>
          <ns3:TrackPointExtension>
            <ns3:atemp>22.0</ns3:atemp>
          </ns3:TrackPointExtension>
        </extensions>
      </trkpt>
      <trkpt lat="42.51221199519932270050048828125" lon="19.8910509981215000152587890625">
        <ele>1664.199951171875</ele>
        <time>2026-06-17T12:31:25.000Z</time>
        <extensions>
          <ns3:TrackPointExtension>
            <ns3:atemp>22.0</ns3:atemp>
          </ns3:TrackPointExtension>
        </extensions>
      </trkpt>
      <trkpt lat="42.51223932020366191864013671875" lon="19.89101302810013294219970703125">
        <ele>1663.199951171875</ele>
        <time>2026-06-17T12:31:26.000Z</time>
        <extensions>
          <ns3:TrackPointExtension>
            <ns3:atemp>22.0</ns3:atemp>
          </ns3:TrackPointExtension>
        </extensions>
      </trkpt>
      <trkpt lat="42.512266226112842559814453125" lon="19.89098888821899890899658203125">
        <ele>1662.4000244140625</ele>
        <time>2026-06-17T12:31:27.000Z</time>
        <extensions>
          <ns3:TrackPointExtension>
            <ns3:atemp>22.0</ns3:atemp>
          </ns3:TrackPointExtension>
        </extensions>
      </trkpt>
      <trkpt lat="42.512286007404327392578125" lon="19.8909681849181652069091796875">
        <ele>1661.4000244140625</ele>
        <time>2026-06-17T12:31:28.000Z</time>
        <extensions>
          <ns3:TrackPointExtension>
            <ns3:atemp>22.0</ns3:atemp>
          </ns3:TrackPointExtension>
        </extensions>
      </trkpt>
      <trkpt lat="42.51230302266776561737060546875" lon="19.8909413628280162811279296875">
        <ele>1660.800048828125</ele>
        <time>2026-06-17T12:31:29.000Z</time>
        <extensions>
          <ns3:TrackPointExtension>
            <ns3:atemp>22.0</ns3:atemp>
          </ns3:TrackPointExtension>
        </extensions>
      </trkpt>
      <trkpt lat="42.51231006346642971038818359375" lon="19.8909039795398712158203125">
        <ele>1660</ele>
        <time>2026-06-17T12:31:30.000Z</time>
        <extensions>
          <ns3:TrackPointExtension>
            <ns3:atemp>22.0</ns3:atemp>
          </ns3:TrackPointExtension>
        </extensions>
      </trkpt>
      <trkpt lat="42.51231609843671321868896484375" lon="19.89086047746241092681884765625">
        <ele>1659.4000244140625</ele>
        <time>2026-06-17T12:31:31.000Z</time>
        <extensions>
          <ns3:TrackPointExtension>
            <ns3:atemp>22.0</ns3:atemp>
          </ns3:TrackPointExtension>
        </extensions>
      </trkpt>
      <trkpt lat="42.512339316308498382568359375" lon="19.89083482883870601654052734375">
        <ele>1658.5999755859375</ele>
        <time>2026-06-17T12:31:32.000Z</time>
        <extensions>
          <ns3:TrackPointExtension>
            <ns3:atemp>22.0</ns3:atemp>
          </ns3:TrackPointExtension>
        </extensions>
      </trkpt>
      <trkpt lat="42.51236521638929843902587890625" lon="19.8908156342804431915283203125">
        <ele>1658</ele>
        <time>2026-06-17T12:31:33.000Z</time>
        <extensions>
          <ns3:TrackPointExtension>
            <ns3:atemp>22.0</ns3:atemp>
          </ns3:TrackPointExtension>
        </extensions>
      </trkpt>
      <trkpt lat="42.512382231652736663818359375" lon="19.89079057238996028900146484375">
        <ele>1657</ele>
        <time>2026-06-17T12:31:34.000Z</time>
        <extensions>
          <ns3:TrackPointExtension>
            <ns3:atemp>22.0</ns3:atemp>
          </ns3:TrackPointExtension>
        </extensions>
      </trkpt>
      <trkpt lat="42.51239572651684284210205078125" lon="19.89078017883002758026123046875">
        <ele>1656.4000244140625</ele>
        <time>2026-06-17T12:31:35.000Z</time>
        <extensions>
          <ns3:TrackPointExtension>
            <ns3:atemp>22.0</ns3:atemp>
          </ns3:TrackPointExtension>
        </extensions>
      </trkpt>
      <trkpt lat="42.5124129094183444976806640625" lon="19.890776574611663818359375">
        <ele>1655.800048828125</ele>
        <time>2026-06-17T12:31:36.000Z</time>
        <extensions>
          <ns3:TrackPointExtension>
            <ns3:atemp>22.0</ns3:atemp>
          </ns3:TrackPointExtension>
        </extensions>
      </trkpt>
      <trkpt lat="42.5124295055866241455078125" lon="19.8907636664807796478271484375">
        <ele>1655.4000244140625</ele>
        <time>2026-06-17T12:31:37.000Z</time>
        <extensions>
          <ns3:TrackPointExtension>
            <ns3:atemp>22.0</ns3:atemp>
          </ns3:TrackPointExtension>
        </extensions>
      </trkpt>
      <trkpt lat="42.5124430842697620391845703125" lon="19.8907510936260223388671875">
        <ele>1655</ele>
        <time>2026-06-17T12:31:38.000Z</time>
        <extensions>
          <ns3:TrackPointExtension>
            <ns3:atemp>22.0</ns3:atemp>
          </ns3:TrackPointExtension>
        </extensions>
      </trkpt>
      <trkpt lat="42.51246035099029541015625" lon="19.89072896540164947509765625">
        <ele>1654.800048828125</ele>
        <time>2026-06-17T12:31:39.000Z</time>
        <extensions>
          <ns3:TrackPointExtension>
            <ns3:atemp>22.0</ns3:atemp>
          </ns3:TrackPointExtension>
        </extensions>
      </trkpt>
      <trkpt lat="42.51247309148311614990234375" lon="19.89070692099630832672119140625">
        <ele>1654.199951171875</ele>
        <time>2026-06-17T12:31:40.000Z</time>
        <extensions>
          <ns3:TrackPointExtension>
            <ns3:atemp>22.0</ns3:atemp>
          </ns3:TrackPointExtension>
        </extensions>
      </trkpt>
      <trkpt lat="42.51247736625373363494873046875" lon="19.89068110473453998565673828125">
        <ele>1653.800048828125</ele>
        <time>2026-06-17T12:31:41.000Z</time>
        <extensions>
          <ns3:TrackPointExtension>
            <ns3:atemp>22.0</ns3:atemp>
          </ns3:TrackPointExtension>
        </extensions>
      </trkpt>
      <trkpt lat="42.51247309148311614990234375" lon="19.8906627483665943145751953125">
        <ele>1653.4000244140625</ele>
        <time>2026-06-17T12:31:42.000Z</time>
        <extensions>
          <ns3:TrackPointExtension>
            <ns3:atemp>22.0</ns3:atemp>
          </ns3:TrackPointExtension>
        </extensions>
      </trkpt>
      <trkpt lat="42.51246412284672260284423828125" lon="19.89065478555858135223388671875">
        <ele>1653</ele>
        <time>2026-06-17T12:31:43.000Z</time>
        <extensions>
          <ns3:TrackPointExtension>
            <ns3:atemp>22.0</ns3:atemp>
          </ns3:TrackPointExtension>
        </extensions>
      </trkpt>
      <trkpt lat="42.51244400627911090850830078125" lon="19.89064271561801433563232421875">
        <ele>1652.5999755859375</ele>
        <time>2026-06-17T12:31:44.000Z</time>
        <extensions>
          <ns3:TrackPointExtension>
            <ns3:atemp>22.0</ns3:atemp>
          </ns3:TrackPointExtension>
        </extensions>
      </trkpt>
      <trkpt lat="42.51242355443537235260009765625" lon="19.890633411705493927001953125">
        <ele>1652.199951171875</ele>
        <time>2026-06-17T12:31:45.000Z</time>
        <extensions>
          <ns3:TrackPointExtension>
            <ns3:atemp>22.0</ns3:atemp>
          </ns3:TrackPointExtension>
        </extensions>
      </trkpt>
      <trkpt lat="42.51240243203938007354736328125" lon="19.89062712527811527252197265625">
        <ele>1651.800048828125</ele>
        <time>2026-06-17T12:31:46.000Z</time>
        <extensions>
          <ns3:TrackPointExtension>
            <ns3:atemp>22.0</ns3:atemp>
          </ns3:TrackPointExtension>
        </extensions>
      </trkpt>
      <trkpt lat="42.51237929798662662506103515625" lon="19.890615306794643402099609375">
        <ele>1651.4000244140625</ele>
        <time>2026-06-17T12:31:47.000Z</time>
        <extensions>
          <ns3:TrackPointExtension>
            <ns3:atemp>22.0</ns3:atemp>
          </ns3:TrackPointExtension>
        </extensions>
      </trkpt>
      <trkpt lat="42.51236035488545894622802734375" lon="19.8906030692160129547119140625">
        <ele>1651</ele>
        <time>2026-06-17T12:31:48.000Z</time>
        <extensions>
          <ns3:TrackPointExtension>
            <ns3:atemp>22.0</ns3:atemp>
          </ns3:TrackPointExtension>
        </extensions>
      </trkpt>
      <trkpt lat="42.512350380420684814453125" lon="19.8905849643051624298095703125">
        <ele>1650.5999755859375</ele>
        <time>2026-06-17T12:31:49.000Z</time>
        <extensions>
          <ns3:TrackPointExtension>
            <ns3:atemp>22.0</ns3:atemp>
          </ns3:TrackPointExtension>
        </extensions>
      </trkpt>
      <trkpt lat="42.51235415227711200714111328125" lon="19.8905658535659313201904296875">
        <ele>1650.199951171875</ele>
        <time>2026-06-17T12:31:50.000Z</time>
        <extensions>
          <ns3:TrackPointExtension>
            <ns3:atemp>22.0</ns3:atemp>
          </ns3:TrackPointExtension>
        </extensions>
      </trkpt>
      <trkpt lat="42.512361109256744384765625" lon="19.89054657518863677978515625">
        <ele>1650</ele>
        <time>2026-06-17T12:31:51.000Z</time>
        <extensions>
          <ns3:TrackPointExtension>
            <ns3:atemp>22.0</ns3:atemp>
          </ns3:TrackPointExtension>
        </extensions>
      </trkpt>
      <trkpt lat="42.512370832264423370361328125" lon="19.89053676836192607879638671875">
        <ele>1649.4000244140625</ele>
        <time>2026-06-17T12:31:52.000Z</time>
        <extensions>
          <ns3:TrackPointExtension>
            <ns3:atemp>22.0</ns3:atemp>
          </ns3:TrackPointExtension>
        </extensions>
      </trkpt>
      <trkpt lat="42.5123880989849567413330078125" lon="19.8905257880687713623046875">
        <ele>1649.199951171875</ele>
        <time>2026-06-17T12:31:53.000Z</time>
        <extensions>
          <ns3:TrackPointExtension>
            <ns3:atemp>22.0</ns3:atemp>
          </ns3:TrackPointExtension>
        </extensions>
      </trkpt>
      <trkpt lat="42.5124011747539043426513671875" lon="19.89050768315792083740234375">
        <ele>1648.800048828125</ele>
        <time>2026-06-17T12:31:54.000Z</time>
        <extensions>
          <ns3:TrackPointExtension>
            <ns3:atemp>22.0</ns3:atemp>
          </ns3:TrackPointExtension>
        </extensions>
      </trkpt>
      <trkpt lat="42.51240276731550693511962890625" lon="19.890491925179958343505859375">
        <ele>1648.5999755859375</ele>
        <time>2026-06-17T12:31:55.000Z</time>
        <extensions>
          <ns3:TrackPointExtension>
            <ns3:atemp>22.0</ns3:atemp>
          </ns3:TrackPointExtension>
        </extensions>
      </trkpt>
      <trkpt lat="42.5123998336493968963623046875" lon="19.890470467507839202880859375">
        <ele>1648.199951171875</ele>
        <time>2026-06-17T12:31:56.000Z</time>
        <extensions>
          <ns3:TrackPointExtension>
            <ns3:atemp>22.0</ns3:atemp>
          </ns3:TrackPointExtension>
        </extensions>
      </trkpt>
      <trkpt lat="42.5123870931565761566162109375" lon="19.89044993184506893157958984375">
        <ele>1647.800048828125</ele>
        <time>2026-06-17T12:31:57.000Z</time>
        <extensions>
          <ns3:TrackPointExtension>
            <ns3:atemp>22.0</ns3:atemp>
          </ns3:TrackPointExtension>
        </extensions>
      </trkpt>
      <trkpt lat="42.5123676471412181854248046875" lon="19.8904485069215297698974609375">
        <ele>1647.4000244140625</ele>
        <time>2026-06-17T12:31:58.000Z</time>
        <extensions>
          <ns3:TrackPointExtension>
            <ns3:atemp>22.0</ns3:atemp>
          </ns3:TrackPointExtension>
        </extensions>
      </trkpt>
      <trkpt lat="42.5123532302677631378173828125" lon="19.89044389687478542327880859375">
        <ele>1647</ele>
        <time>2026-06-17T12:31:59.000Z</time>
        <extensions>
          <ns3:TrackPointExtension>
            <ns3:atemp>22.0</ns3:atemp>
          </ns3:TrackPointExtension>
        </extensions>
      </trkpt>
      <trkpt lat="42.5123307667672634124755859375" lon="19.89043903537094593048095703125">
        <ele>1646.5999755859375</ele>
        <time>2026-06-17T12:32:00.000Z</time>
        <extensions>
          <ns3:TrackPointExtension>
            <ns3:atemp>22.0</ns3:atemp>
          </ns3:TrackPointExtension>
        </extensions>
      </trkpt>
      <trkpt lat="42.51230570487678050994873046875" lon="19.89043735899031162261962890625">
        <ele>1646.199951171875</ele>
        <time>2026-06-17T12:32:01.000Z</time>
        <extensions>
          <ns3:TrackPointExtension>
            <ns3:atemp>22.0</ns3:atemp>
          </ns3:TrackPointExtension>
        </extensions>
      </trkpt>
      <trkpt lat="42.5122871808707714080810546875" lon="19.89044892601668834686279296875">
        <ele>1645.800048828125</ele>
        <time>2026-06-17T12:32:02.000Z</time>
        <extensions>
          <ns3:TrackPointExtension>
            <ns3:atemp>22.0</ns3:atemp>
          </ns3:TrackPointExtension>
        </extensions>
      </trkpt>
      <trkpt lat="42.5122647173702716827392578125" lon="19.89046468399465084075927734375">
        <ele>1645.4000244140625</ele>
        <time>2026-06-17T12:32:03.000Z</time>
        <extensions>
          <ns3:TrackPointExtension>
            <ns3:atemp>22.0</ns3:atemp>
          </ns3:TrackPointExtension>
        </extensions>
      </trkpt>
      <trkpt lat="42.512238733470439910888671875" lon="19.89046736620366573333740234375">
        <ele>1645</ele>
        <time>2026-06-17T12:32:04.000Z</time>
        <extensions>
          <ns3:TrackPointExtension>
            <ns3:atemp>22.0</ns3:atemp>
          </ns3:TrackPointExtension>
        </extensions>
      </trkpt>
      <trkpt lat="42.51221585087478160858154296875" lon="19.89046334289014339447021484375">
        <ele>1644.5999755859375</ele>
        <time>2026-06-17T12:32:05.000Z</time>
        <extensions>
          <ns3:TrackPointExtension>
            <ns3:atemp>22.0</ns3:atemp>
          </ns3:TrackPointExtension>
        </extensions>
      </trkpt>
      <trkpt lat="42.5121996738016605377197265625" lon="19.8904568888247013092041015625">
        <ele>1644.4000244140625</ele>
        <time>2026-06-17T12:32:06.000Z</time>
        <extensions>
          <ns3:TrackPointExtension>
            <ns3:atemp>22.0</ns3:atemp>
          </ns3:TrackPointExtension>
        </extensions>
      </trkpt>
      <trkpt lat="42.51219053752720355987548828125" lon="19.89044758491218090057373046875">
        <ele>1644</ele>
        <time>2026-06-17T12:32:07.000Z</time>
        <extensions>
          <ns3:TrackPointExtension>
            <ns3:atemp>22.0</ns3:atemp>
          </ns3:TrackPointExtension>
        </extensions>
      </trkpt>
      <trkpt lat="42.51218852587044239044189453125" lon="19.8904344253242015838623046875">
        <ele>1643.800048828125</ele>
        <time>2026-06-17T12:32:08.000Z</time>
        <extensions>
          <ns3:TrackPointExtension>
            <ns3:atemp>22.0</ns3:atemp>
          </ns3:TrackPointExtension>
        </extensions>
      </trkpt>
      <trkpt lat="42.51219372265040874481201171875" lon="19.89041087217628955841064453125">
        <ele>1643.4000244140625</ele>
        <time>2026-06-17T12:32:09.000Z</time>
        <extensions>
          <ns3:TrackPointExtension>
            <ns3:atemp>22.0</ns3:atemp>
          </ns3:TrackPointExtension>
        </extensions>
      </trkpt>
      <trkpt lat="42.51220294274389743804931640625" lon="19.8903901688754558563232421875">
        <ele>1643</ele>
        <time>2026-06-17T12:32:10.000Z</time>
        <extensions>
          <ns3:TrackPointExtension>
            <ns3:atemp>22.0</ns3:atemp>
          </ns3:TrackPointExtension>
        </extensions>
      </trkpt>
      <trkpt lat="42.5121966563165187835693359375" lon="19.8903827928006649017333984375">
        <ele>1642.5999755859375</ele>
        <time>2026-06-17T12:32:11.000Z</time>
        <extensions>
          <ns3:TrackPointExtension>
            <ns3:atemp>22.0</ns3:atemp>
          </ns3:TrackPointExtension>
        </extensions>
      </trkpt>
      <trkpt lat="42.5121869333088397979736328125" lon="19.89038052968680858612060546875">
        <ele>1642.199951171875</ele>
        <time>2026-06-17T12:32:12.000Z</time>
        <extensions>
          <ns3:TrackPointExtension>
            <ns3:atemp>22.0</ns3:atemp>
          </ns3:TrackPointExtension>
        </extensions>
      </trkpt>
      <trkpt lat="42.5121862627565860748291015625" lon="19.89038120023906230926513671875">
        <ele>1641.800048828125</ele>
        <time>2026-06-17T12:32:13.000Z</time>
        <extensions>
          <ns3:TrackPointExtension>
            <ns3:atemp>22.0</ns3:atemp>
          </ns3:TrackPointExtension>
        </extensions>
      </trkpt>
      <trkpt lat="42.5121859274804592132568359375" lon="19.8903787694871425628662109375">
        <ele>1641.5999755859375</ele>
        <time>2026-06-17T12:32:14.000Z</time>
        <extensions>
          <ns3:TrackPointExtension>
            <ns3:atemp>22.0</ns3:atemp>
          </ns3:TrackPointExtension>
        </extensions>
      </trkpt>
      <trkpt lat="42.5121859274804592132568359375" lon="19.890378601849079132080078125">
        <ele>1641.199951171875</ele>
        <time>2026-06-17T12:32:15.000Z</time>
        <extensions>
          <ns3:TrackPointExtension>
            <ns3:atemp>22.0</ns3:atemp>
          </ns3:TrackPointExtension>
        </extensions>
      </trkpt>
      <trkpt lat="42.5121859274804592132568359375" lon="19.890378601849079132080078125">
        <ele>1641</ele>
        <time>2026-06-17T12:32:16.000Z</time>
        <extensions>
          <ns3:TrackPointExtension>
            <ns3:atemp>22.0</ns3:atemp>
          </ns3:TrackPointExtension>
        </extensions>
      </trkpt>
      <trkpt lat="42.5121859274804592132568359375" lon="19.890378601849079132080078125">
        <ele>1640.800048828125</ele>
        <time>2026-06-17T12:32:17.000Z</time>
        <extensions>
          <ns3:TrackPointExtension>
            <ns3:atemp>22.0</ns3:atemp>
          </ns3:TrackPointExtension>
        </extensions>
      </trkpt>
      <trkpt lat="42.5121859274804592132568359375" lon="19.890378601849079132080078125">
        <ele>1640.5999755859375</ele>
        <time>2026-06-17T12:32:18.000Z</time>
        <extensions>
          <ns3:TrackPointExtension>
            <ns3:atemp>22.0</ns3:atemp>
          </ns3:TrackPointExtension>
        </extensions>
      </trkpt>
      <trkpt lat="42.5121859274804592132568359375" lon="19.890378601849079132080078125">
        <ele>1640.4000244140625</ele>
        <time>2026-06-17T12:32:19.000Z</time>
        <extensions>
          <ns3:TrackPointExtension>
            <ns3:atemp>22.0</ns3:atemp>
          </ns3:TrackPointExtension>
        </extensions>
      </trkpt>
      <trkpt lat="42.5121859274804592132568359375" lon="19.890378601849079132080078125">
        <ele>1640.199951171875</ele>
        <time>2026-06-17T12:32:20.000Z</time>
        <extensions>
          <ns3:TrackPointExtension>
            <ns3:atemp>21.0</ns3:atemp>
          </ns3:TrackPointExtension>
        </extensions>
      </trkpt>
      <trkpt lat="42.5121859274804592132568359375" lon="19.890378601849079132080078125">
        <ele>1640</ele>
        <time>2026-06-17T12:32:21.000Z</time>
        <extensions>
          <ns3:TrackPointExtension>
            <ns3:atemp>21.0</ns3:atemp>
          </ns3:TrackPointExtension>
        </extensions>
      </trkpt>
      <trkpt lat="42.5121859274804592132568359375" lon="19.890378601849079132080078125">
        <ele>1640</ele>
        <time>2026-06-17T12:32:22.000Z</time>
        <extensions>
          <ns3:TrackPointExtension>
            <ns3:atemp>22.0</ns3:atemp>
          </ns3:TrackPointExtension>
        </extensions>
      </trkpt>
      <trkpt lat="42.5121859274804592132568359375" lon="19.890378601849079132080078125">
        <ele>1640</ele>
        <time>2026-06-17T12:32:23.000Z</time>
        <extensions>
          <ns3:TrackPointExtension>
            <ns3:atemp>21.0</ns3:atemp>
          </ns3:TrackPointExtension>
        </extensions>
      </trkpt>
      <trkpt lat="42.5121859274804592132568359375" lon="19.890378601849079132080078125">
        <ele>1639.800048828125</ele>
        <time>2026-06-17T12:32:24.000Z</time>
        <extensions>
          <ns3:TrackPointExtension>
            <ns3:atemp>21.0</ns3:atemp>
          </ns3:TrackPointExtension>
        </extensions>
      </trkpt>
      <trkpt lat="42.5121859274804592132568359375" lon="19.890378601849079132080078125">
        <ele>1639.800048828125</ele>
        <time>2026-06-17T12:32:25.000Z</time>
        <extensions>
          <ns3:TrackPointExtension>
            <ns3:atemp>21.0</ns3:atemp>
          </ns3:TrackPointExtension>
        </extensions>
      </trkpt>
      <trkpt lat="42.5121859274804592132568359375" lon="19.890378601849079132080078125">
        <ele>1639.800048828125</ele>
        <time>2026-06-17T12:32:26.000Z</time>
        <extensions>
          <ns3:TrackPointExtension>
            <ns3:atemp>21.0</ns3:atemp>
          </ns3:TrackPointExtension>
        </extensions>
      </trkpt>
      <trkpt lat="42.5121859274804592132568359375" lon="19.890378601849079132080078125">
        <ele>1639.800048828125</ele>
        <time>2026-06-17T12:32:27.000Z</time>
        <extensions>
          <ns3:TrackPointExtension>
            <ns3:atemp>21.0</ns3:atemp>
          </ns3:TrackPointExtension>
        </extensions>
      </trkpt>
      <trkpt lat="42.5121859274804592132568359375" lon="19.890378601849079132080078125">
        <ele>1639.800048828125</ele>
        <time>2026-06-17T12:32:28.000Z</time>
        <extensions>
          <ns3:TrackPointExtension>
            <ns3:atemp>21.0</ns3:atemp>
          </ns3:TrackPointExtension>
        </extensions>
      </trkpt>
      <trkpt lat="42.5121859274804592132568359375" lon="19.890378601849079132080078125">
        <ele>1639.800048828125</ele>
        <time>2026-06-17T12:32:29.000Z</time>
        <extensions>
          <ns3:TrackPointExtension>
            <ns3:atemp>21.0</ns3:atemp>
          </ns3:TrackPointExtension>
        </extensions>
      </trkpt>
      <trkpt lat="42.5121859274804592132568359375" lon="19.890378601849079132080078125">
        <ele>1639.5999755859375</ele>
        <time>2026-06-17T12:32:30.000Z</time>
        <extensions>
          <ns3:TrackPointExtension>
            <ns3:atemp>21.0</ns3:atemp>
          </ns3:TrackPointExtension>
        </extensions>
      </trkpt>
      <trkpt lat="42.5121859274804592132568359375" lon="19.890378601849079132080078125">
        <ele>1639.5999755859375</ele>
        <time>2026-06-17T12:32:31.000Z</time>
        <extensions>
          <ns3:TrackPointExtension>
            <ns3:atemp>21.0</ns3:atemp>
          </ns3:TrackPointExtension>
        </extensions>
      </trkpt>
      <trkpt lat="42.5121859274804592132568359375" lon="19.890378601849079132080078125">
        <ele>1639.5999755859375</ele>
        <time>2026-06-17T12:32:32.000Z</time>
        <extensions>
          <ns3:TrackPointExtension>
            <ns3:atemp>21.0</ns3:atemp>
          </ns3:TrackPointExtension>
        </extensions>
      </trkpt>
      <trkpt lat="42.5121859274804592132568359375" lon="19.890378601849079132080078125">
        <ele>1639.5999755859375</ele>
        <time>2026-06-17T12:32:33.000Z</time>
        <extensions>
          <ns3:TrackPointExtension>
            <ns3:atemp>21.0</ns3:atemp>
          </ns3:TrackPointExtension>
        </extensions>
      </trkpt>
      <trkpt lat="42.5121859274804592132568359375" lon="19.890378601849079132080078125">
        <ele>1639.5999755859375</ele>
        <time>2026-06-17T12:32:34.000Z</time>
        <extensions>
          <ns3:TrackPointExtension>
            <ns3:atemp>21.0</ns3:atemp>
          </ns3:TrackPointExtension>
        </extensions>
      </trkpt>
      <trkpt lat="42.5121859274804592132568359375" lon="19.890378601849079132080078125">
        <ele>1639.5999755859375</ele>
        <time>2026-06-17T12:32:35.000Z</time>
        <extensions>
          <ns3:TrackPointExtension>
            <ns3:atemp>21.0</ns3:atemp>
          </ns3:TrackPointExtension>
        </extensions>
      </trkpt>
      <trkpt lat="42.5121859274804592132568359375" lon="19.890378601849079132080078125">
        <ele>1639.5999755859375</ele>
        <time>2026-06-17T12:32:36.000Z</time>
        <extensions>
          <ns3:TrackPointExtension>
            <ns3:atemp>21.0</ns3:atemp>
          </ns3:TrackPointExtension>
        </extensions>
      </trkpt>
      <trkpt lat="42.5121859274804592132568359375" lon="19.890378601849079132080078125">
        <ele>1639.5999755859375</ele>
        <time>2026-06-17T12:32:37.000Z</time>
        <extensions>
          <ns3:TrackPointExtension>
            <ns3:atemp>21.0</ns3:atemp>
          </ns3:TrackPointExtension>
        </extensions>
      </trkpt>
      <trkpt lat="42.5121859274804592132568359375" lon="19.890378601849079132080078125">
        <ele>1639.4000244140625</ele>
        <time>2026-06-17T12:32:38.000Z</time>
        <extensions>
          <ns3:TrackPointExtension>
            <ns3:atemp>21.0</ns3:atemp>
          </ns3:TrackPointExtension>
        </extensions>
      </trkpt>
      <trkpt lat="42.5121859274804592132568359375" lon="19.890378601849079132080078125">
        <ele>1639.4000244140625</ele>
        <time>2026-06-17T12:32:39.000Z</time>
        <extensions>
          <ns3:TrackPointExtension>
            <ns3:atemp>21.0</ns3:atemp>
          </ns3:TrackPointExtension>
        </extensions>
      </trkpt>
      <trkpt lat="42.5121859274804592132568359375" lon="19.890378601849079132080078125">
        <ele>1639.4000244140625</ele>
        <time>2026-06-17T12:32:40.000Z</time>
        <extensions>
          <ns3:TrackPointExtension>
            <ns3:atemp>21.0</ns3:atemp>
          </ns3:TrackPointExtension>
        </extensions>
      </trkpt>
      <trkpt lat="42.5121859274804592132568359375" lon="19.890378601849079132080078125">
        <ele>1639.4000244140625</ele>
        <time>2026-06-17T12:32:41.000Z</time>
        <extensions>
          <ns3:TrackPointExtension>
            <ns3:atemp>21.0</ns3:atemp>
          </ns3:TrackPointExtension>
        </extensions>
      </trkpt>
      <trkpt lat="42.5121859274804592132568359375" lon="19.890378601849079132080078125">
        <ele>1639.4000244140625</ele>
        <time>2026-06-17T12:32:42.000Z</time>
        <extensions>
          <ns3:TrackPointExtension>
            <ns3:atemp>21.0</ns3:atemp>
          </ns3:TrackPointExtension>
        </extensions>
      </trkpt>
      <trkpt lat="42.5121859274804592132568359375" lon="19.890378601849079132080078125">
        <ele>1639.4000244140625</ele>
        <time>2026-06-17T12:32:43.000Z</time>
        <extensions>
          <ns3:TrackPointExtension>
            <ns3:atemp>21.0</ns3:atemp>
          </ns3:TrackPointExtension>
        </extensions>
      </trkpt>
      <trkpt lat="42.5121859274804592132568359375" lon="19.890378601849079132080078125">
        <ele>1639.4000244140625</ele>
        <time>2026-06-17T12:32:44.000Z</time>
        <extensions>
          <ns3:TrackPointExtension>
            <ns3:atemp>21.0</ns3:atemp>
          </ns3:TrackPointExtension>
        </extensions>
      </trkpt>
      <trkpt lat="42.5121859274804592132568359375" lon="19.890378601849079132080078125">
        <ele>1639.4000244140625</ele>
        <time>2026-06-17T12:32:45.000Z</time>
        <extensions>
          <ns3:TrackPointExtension>
            <ns3:atemp>21.0</ns3:atemp>
          </ns3:TrackPointExtension>
        </extensions>
      </trkpt>
      <trkpt lat="42.5121859274804592132568359375" lon="19.890378601849079132080078125">
        <ele>1639.4000244140625</ele>
        <time>2026-06-17T12:32:46.000Z</time>
        <extensions>
          <ns3:TrackPointExtension>
            <ns3:atemp>21.0</ns3:atemp>
          </ns3:TrackPointExtension>
        </extensions>
      </trkpt>
      <trkpt lat="42.5121859274804592132568359375" lon="19.890378601849079132080078125">
        <ele>1639.4000244140625</ele>
        <time>2026-06-17T12:32:47.000Z</time>
        <extensions>
          <ns3:TrackPointExtension>
            <ns3:atemp>21.0</ns3:atemp>
          </ns3:TrackPointExtension>
        </extensions>
      </trkpt>
      <trkpt lat="42.5121859274804592132568359375" lon="19.890378601849079132080078125">
        <ele>1639.4000244140625</ele>
        <time>2026-06-17T12:32:48.000Z</time>
        <extensions>
          <ns3:TrackPointExtension>
            <ns3:atemp>21.0</ns3:atemp>
          </ns3:TrackPointExtension>
        </extensions>
      </trkpt>
      <trkpt lat="42.5121859274804592132568359375" lon="19.890378601849079132080078125">
        <ele>1639.4000244140625</ele>
        <time>2026-06-17T12:32:49.000Z</time>
        <extensions>
          <ns3:TrackPointExtension>
            <ns3:atemp>21.0</ns3:atemp>
          </ns3:TrackPointExtension>
        </extensions>
      </trkpt>
      <trkpt lat="42.5121859274804592132568359375" lon="19.890378601849079132080078125">
        <ele>1639.4000244140625</ele>
        <time>2026-06-17T12:32:50.000Z</time>
        <extensions>
          <ns3:TrackPointExtension>
            <ns3:atemp>21.0</ns3:atemp>
          </ns3:TrackPointExtension>
        </extensions>
      </trkpt>
      <trkpt lat="42.5121859274804592132568359375" lon="19.890378601849079132080078125">
        <ele>1639.4000244140625</ele>
        <time>2026-06-17T12:32:51.000Z</time>
        <extensions>
          <ns3:TrackPointExtension>
            <ns3:atemp>21.0</ns3:atemp>
          </ns3:TrackPointExtension>
        </extensions>
      </trkpt>
      <trkpt lat="42.5121859274804592132568359375" lon="19.890378601849079132080078125">
        <ele>1639.4000244140625</ele>
        <time>2026-06-17T12:32:52.000Z</time>
        <extensions>
          <ns3:TrackPointExtension>
            <ns3:atemp>21.0</ns3:atemp>
          </ns3:TrackPointExtension>
        </extensions>
      </trkpt>
      <trkpt lat="42.5121859274804592132568359375" lon="19.890378601849079132080078125">
        <ele>1639.199951171875</ele>
        <time>2026-06-17T12:32:53.000Z</time>
        <extensions>
          <ns3:TrackPointExtension>
            <ns3:atemp>21.0</ns3:atemp>
          </ns3:TrackPointExtension>
        </extensions>
      </trkpt>
      <trkpt lat="42.5121859274804592132568359375" lon="19.890378601849079132080078125">
        <ele>1639.199951171875</ele>
        <time>2026-06-17T12:32:54.000Z</time>
        <extensions>
          <ns3:TrackPointExtension>
            <ns3:atemp>21.0</ns3:atemp>
          </ns3:TrackPointExtension>
        </extensions>
      </trkpt>
      <trkpt lat="42.5121859274804592132568359375" lon="19.890378601849079132080078125">
        <ele>1639.199951171875</ele>
        <time>2026-06-17T12:32:55.000Z</time>
        <extensions>
          <ns3:TrackPointExtension>
            <ns3:atemp>21.0</ns3:atemp>
          </ns3:TrackPointExtension>
        </extensions>
      </trkpt>
      <trkpt lat="42.5121859274804592132568359375" lon="19.890378601849079132080078125">
        <ele>1639.199951171875</ele>
        <time>2026-06-17T12:32:56.000Z</time>
        <extensions>
          <ns3:TrackPointExtension>
            <ns3:atemp>21.0</ns3:atemp>
          </ns3:TrackPointExtension>
        </extensions>
      </trkpt>
      <trkpt lat="42.5121859274804592132568359375" lon="19.890378601849079132080078125">
        <ele>1639.199951171875</ele>
        <time>2026-06-17T12:32:57.000Z</time>
        <extensions>
          <ns3:TrackPointExtension>
            <ns3:atemp>21.0</ns3:atemp>
          </ns3:TrackPointExtension>
        </extensions>
      </trkpt>
      <trkpt lat="42.5121859274804592132568359375" lon="19.890378601849079132080078125">
        <ele>1639.199951171875</ele>
        <time>2026-06-17T12:32:58.000Z</time>
        <extensions>
          <ns3:TrackPointExtension>
            <ns3:atemp>21.0</ns3:atemp>
          </ns3:TrackPointExtension>
        </extensions>
      </trkpt>
      <trkpt lat="42.5121859274804592132568359375" lon="19.890378601849079132080078125">
        <ele>1639.199951171875</ele>
        <time>2026-06-17T12:32:59.000Z</time>
        <extensions>
          <ns3:TrackPointExtension>
            <ns3:atemp>21.0</ns3:atemp>
          </ns3:TrackPointExtension>
        </extensions>
      </trkpt>
      <trkpt lat="42.5121859274804592132568359375" lon="19.890378601849079132080078125">
        <ele>1639.4000244140625</ele>
        <time>2026-06-17T12:33:00.000Z</time>
        <extensions>
          <ns3:TrackPointExtension>
            <ns3:atemp>21.0</ns3:atemp>
          </ns3:TrackPointExtension>
        </extensions>
      </trkpt>
      <trkpt lat="42.5121859274804592132568359375" lon="19.890378601849079132080078125">
        <ele>1639.4000244140625</ele>
        <time>2026-06-17T12:33:01.000Z</time>
        <extensions>
          <ns3:TrackPointExtension>
            <ns3:atemp>21.0</ns3:atemp>
          </ns3:TrackPointExtension>
        </extensions>
      </trkpt>
      <trkpt lat="42.5121859274804592132568359375" lon="19.890378601849079132080078125">
        <ele>1639.4000244140625</ele>
        <time>2026-06-17T12:33:02.000Z</time>
        <extensions>
          <ns3:TrackPointExtension>
            <ns3:atemp>21.0</ns3:atemp>
          </ns3:TrackPointExtension>
        </extensions>
      </trkpt>
      <trkpt lat="42.5121859274804592132568359375" lon="19.890378601849079132080078125">
        <ele>1639.4000244140625</ele>
        <time>2026-06-17T12:33:03.000Z</time>
        <extensions>
          <ns3:TrackPointExtension>
            <ns3:atemp>21.0</ns3:atemp>
          </ns3:TrackPointExtension>
        </extensions>
      </trkpt>
      <trkpt lat="42.5121859274804592132568359375" lon="19.890378601849079132080078125">
        <ele>1639.4000244140625</ele>
        <time>2026-06-17T12:33:04.000Z</time>
        <extensions>
          <ns3:TrackPointExtension>
            <ns3:atemp>21.0</ns3:atemp>
          </ns3:TrackPointExtension>
        </extensions>
      </trkpt>
      <trkpt lat="42.5121859274804592132568359375" lon="19.890378601849079132080078125">
        <ele>1639.4000244140625</ele>
        <time>2026-06-17T12:33:05.000Z</time>
        <extensions>
          <ns3:TrackPointExtension>
            <ns3:atemp>21.0</ns3:atemp>
          </ns3:TrackPointExtension>
        </extensions>
      </trkpt>
      <trkpt lat="42.5121859274804592132568359375" lon="19.890378601849079132080078125">
        <ele>1639.4000244140625</ele>
        <time>2026-06-17T12:33:06.000Z</time>
        <extensions>
          <ns3:TrackPointExtension>
            <ns3:atemp>21.0</ns3:atemp>
          </ns3:TrackPointExtension>
        </extensions>
      </trkpt>
      <trkpt lat="42.5121859274804592132568359375" lon="19.890378601849079132080078125">
        <ele>1639.4000244140625</ele>
        <time>2026-06-17T12:33:07.000Z</time>
        <extensions>
          <ns3:TrackPointExtension>
            <ns3:atemp>21.0</ns3:atemp>
          </ns3:TrackPointExtension>
        </extensions>
      </trkpt>
      <trkpt lat="42.5121859274804592132568359375" lon="19.890378601849079132080078125">
        <ele>1639.4000244140625</ele>
        <time>2026-06-17T12:33:08.000Z</time>
        <extensions>
          <ns3:TrackPointExtension>
            <ns3:atemp>21.0</ns3:atemp>
          </ns3:TrackPointExtension>
        </extensions>
      </trkpt>
      <trkpt lat="42.5121859274804592132568359375" lon="19.890378601849079132080078125">
        <ele>1639.199951171875</ele>
        <time>2026-06-17T12:33:09.000Z</time>
        <extensions>
          <ns3:TrackPointExtension>
            <ns3:atemp>21.0</ns3:atemp>
          </ns3:TrackPointExtension>
        </extensions>
      </trkpt>
      <trkpt lat="42.5121859274804592132568359375" lon="19.890378601849079132080078125">
        <ele>1639.199951171875</ele>
        <time>2026-06-17T12:33:10.000Z</time>
        <extensions>
          <ns3:TrackPointExtension>
            <ns3:atemp>21.0</ns3:atemp>
          </ns3:TrackPointExtension>
        </extensions>
      </trkpt>
      <trkpt lat="42.5121859274804592132568359375" lon="19.890378601849079132080078125">
        <ele>1639.199951171875</ele>
        <time>2026-06-17T12:33:11.000Z</time>
        <extensions>
          <ns3:TrackPointExtension>
            <ns3:atemp>21.0</ns3:atemp>
          </ns3:TrackPointExtension>
        </extensions>
      </trkpt>
      <trkpt lat="42.5121859274804592132568359375" lon="19.890378601849079132080078125">
        <ele>1639.199951171875</ele>
        <time>2026-06-17T12:33:12.000Z</time>
        <extensions>
          <ns3:TrackPointExtension>
            <ns3:atemp>21.0</ns3:atemp>
          </ns3:TrackPointExtension>
        </extensions>
      </trkpt>
      <trkpt lat="42.5121859274804592132568359375" lon="19.890378601849079132080078125">
        <ele>1639.199951171875</ele>
        <time>2026-06-17T12:33:13.000Z</time>
        <extensions>
          <ns3:TrackPointExtension>
            <ns3:atemp>21.0</ns3:atemp>
          </ns3:TrackPointExtension>
        </extensions>
      </trkpt>
      <trkpt lat="42.5121859274804592132568359375" lon="19.890378601849079132080078125">
        <ele>1639.199951171875</ele>
        <time>2026-06-17T12:33:14.000Z</time>
        <extensions>
          <ns3:TrackPointExtension>
            <ns3:atemp>21.0</ns3:atemp>
          </ns3:TrackPointExtension>
        </extensions>
      </trkpt>
      <trkpt lat="42.5121859274804592132568359375" lon="19.890378601849079132080078125">
        <ele>1639.199951171875</ele>
        <time>2026-06-17T12:33:15.000Z</time>
        <extensions>
          <ns3:TrackPointExtension>
            <ns3:atemp>21.0</ns3:atemp>
          </ns3:TrackPointExtension>
        </extensions>
      </trkpt>
      <trkpt lat="42.5121859274804592132568359375" lon="19.890378601849079132080078125">
        <ele>1639.199951171875</ele>
        <time>2026-06-17T12:33:16.000Z</time>
        <extensions>
          <ns3:TrackPointExtension>
            <ns3:atemp>21.0</ns3:atemp>
          </ns3:TrackPointExtension>
        </extensions>
      </trkpt>
      <trkpt lat="42.5121859274804592132568359375" lon="19.890378601849079132080078125">
        <ele>1639.199951171875</ele>
        <time>2026-06-17T12:33:17.000Z</time>
        <extensions>
          <ns3:TrackPointExtension>
            <ns3:atemp>21.0</ns3:atemp>
          </ns3:TrackPointExtension>
        </extensions>
      </trkpt>
      <trkpt lat="42.5121859274804592132568359375" lon="19.890378601849079132080078125">
        <ele>1639.199951171875</ele>
        <time>2026-06-17T12:33:18.000Z</time>
        <extensions>
          <ns3:TrackPointExtension>
            <ns3:atemp>21.0</ns3:atemp>
          </ns3:TrackPointExtension>
        </extensions>
      </trkpt>
      <trkpt lat="42.5121859274804592132568359375" lon="19.890378601849079132080078125">
        <ele>1639.199951171875</ele>
        <time>2026-06-17T12:33:19.000Z</time>
        <extensions>
          <ns3:TrackPointExtension>
            <ns3:atemp>21.0</ns3:atemp>
          </ns3:TrackPointExtension>
        </extensions>
      </trkpt>
      <trkpt lat="42.5121859274804592132568359375" lon="19.890378601849079132080078125">
        <ele>1639.199951171875</ele>
        <time>2026-06-17T12:33:20.000Z</time>
        <extensions>
          <ns3:TrackPointExtension>
            <ns3:atemp>21.0</ns3:atemp>
          </ns3:TrackPointExtension>
        </extensions>
      </trkpt>
      <trkpt lat="42.5121859274804592132568359375" lon="19.890378601849079132080078125">
        <ele>1639.199951171875</ele>
        <time>2026-06-17T12:33:21.000Z</time>
        <extensions>
          <ns3:TrackPointExtension>
            <ns3:atemp>21.0</ns3:atemp>
          </ns3:TrackPointExtension>
        </extensions>
      </trkpt>
      <trkpt lat="42.5121859274804592132568359375" lon="19.890378601849079132080078125">
        <ele>1639.199951171875</ele>
        <time>2026-06-17T12:33:22.000Z</time>
        <extensions>
          <ns3:TrackPointExtension>
            <ns3:atemp>21.0</ns3:atemp>
          </ns3:TrackPointExtension>
        </extensions>
      </trkpt>
      <trkpt lat="42.5121859274804592132568359375" lon="19.890378601849079132080078125">
        <ele>1639.199951171875</ele>
        <time>2026-06-17T12:33:23.000Z</time>
        <extensions>
          <ns3:TrackPointExtension>
            <ns3:atemp>21.0</ns3:atemp>
          </ns3:TrackPointExtension>
        </extensions>
      </trkpt>
      <trkpt lat="42.5121859274804592132568359375" lon="19.890378601849079132080078125">
        <ele>1639.199951171875</ele>
        <time>2026-06-17T12:33:24.000Z</time>
        <extensions>
          <ns3:TrackPointExtension>
            <ns3:atemp>21.0</ns3:atemp>
          </ns3:TrackPointExtension>
        </extensions>
      </trkpt>
      <trkpt lat="42.5121859274804592132568359375" lon="19.890378601849079132080078125">
        <ele>1639.199951171875</ele>
        <time>2026-06-17T12:33:25.000Z</time>
        <extensions>
          <ns3:TrackPointExtension>
            <ns3:atemp>21.0</ns3:atemp>
          </ns3:TrackPointExtension>
        </extensions>
      </trkpt>
      <trkpt lat="42.5121859274804592132568359375" lon="19.890378601849079132080078125">
        <ele>1639.199951171875</ele>
        <time>2026-06-17T12:33:26.000Z</time>
        <extensions>
          <ns3:TrackPointExtension>
            <ns3:atemp>21.0</ns3:atemp>
          </ns3:TrackPointExtension>
        </extensions>
      </trkpt>
      <trkpt lat="42.5121859274804592132568359375" lon="19.890378601849079132080078125">
        <ele>1639.199951171875</ele>
        <time>2026-06-17T12:33:27.000Z</time>
        <extensions>
          <ns3:TrackPointExtension>
            <ns3:atemp>21.0</ns3:atemp>
          </ns3:TrackPointExtension>
        </extensions>
      </trkpt>
      <trkpt lat="42.5121859274804592132568359375" lon="19.890378601849079132080078125">
        <ele>1639.199951171875</ele>
        <time>2026-06-17T12:33:28.000Z</time>
        <extensions>
          <ns3:TrackPointExtension>
            <ns3:atemp>21.0</ns3:atemp>
          </ns3:TrackPointExtension>
        </extensions>
      </trkpt>
      <trkpt lat="42.5121859274804592132568359375" lon="19.890378601849079132080078125">
        <ele>1639.199951171875</ele>
        <time>2026-06-17T12:33:29.000Z</time>
        <extensions>
          <ns3:TrackPointExtension>
            <ns3:atemp>21.0</ns3:atemp>
          </ns3:TrackPointExtension>
        </extensions>
      </trkpt>
      <trkpt lat="42.5121859274804592132568359375" lon="19.890378601849079132080078125">
        <ele>1639.199951171875</ele>
        <time>2026-06-17T12:33:30.000Z</time>
        <extensions>
          <ns3:TrackPointExtension>
            <ns3:atemp>21.0</ns3:atemp>
          </ns3:TrackPointExtension>
        </extensions>
      </trkpt>
      <trkpt lat="42.5121859274804592132568359375" lon="19.890378601849079132080078125">
        <ele>1639.199951171875</ele>
        <time>2026-06-17T12:33:31.000Z</time>
        <extensions>
          <ns3:TrackPointExtension>
            <ns3:atemp>21.0</ns3:atemp>
          </ns3:TrackPointExtension>
        </extensions>
      </trkpt>
      <trkpt lat="42.5121859274804592132568359375" lon="19.890378601849079132080078125">
        <ele>1639.199951171875</ele>
        <time>2026-06-17T12:33:32.000Z</time>
        <extensions>
          <ns3:TrackPointExtension>
            <ns3:atemp>21.0</ns3:atemp>
          </ns3:TrackPointExtension>
        </extensions>
      </trkpt>
      <trkpt lat="42.5121859274804592132568359375" lon="19.890378601849079132080078125">
        <ele>1639.199951171875</ele>
        <time>2026-06-17T12:33:33.000Z</time>
        <extensions>
          <ns3:TrackPointExtension>
            <ns3:atemp>21.0</ns3:atemp>
          </ns3:TrackPointExtension>
        </extensions>
      </trkpt>
      <trkpt lat="42.5121859274804592132568359375" lon="19.890378601849079132080078125">
        <ele>1639.199951171875</ele>
        <time>2026-06-17T12:33:34.000Z</time>
        <extensions>
          <ns3:TrackPointExtension>
            <ns3:atemp>21.0</ns3:atemp>
          </ns3:TrackPointExtension>
        </extensions>
      </trkpt>
      <trkpt lat="42.5121859274804592132568359375" lon="19.890378601849079132080078125">
        <ele>1639.199951171875</ele>
        <time>2026-06-17T12:33:35.000Z</time>
        <extensions>
          <ns3:TrackPointExtension>
            <ns3:atemp>21.0</ns3:atemp>
          </ns3:TrackPointExtension>
        </extensions>
      </trkpt>
      <trkpt lat="42.5121859274804592132568359375" lon="19.890378601849079132080078125">
        <ele>1639.199951171875</ele>
        <time>2026-06-17T12:33:36.000Z</time>
        <extensions>
          <ns3:TrackPointExtension>
            <ns3:atemp>21.0</ns3:atemp>
          </ns3:TrackPointExtension>
        </extensions>
      </trkpt>
      <trkpt lat="42.5121859274804592132568359375" lon="19.890378601849079132080078125">
        <ele>1639.199951171875</ele>
        <time>2026-06-17T12:33:37.000Z</time>
        <extensions>
          <ns3:TrackPointExtension>
            <ns3:atemp>21.0</ns3:atemp>
          </ns3:TrackPointExtension>
        </extensions>
      </trkpt>
      <trkpt lat="42.5121859274804592132568359375" lon="19.890378601849079132080078125">
        <ele>1639.199951171875</ele>
        <time>2026-06-17T12:33:38.000Z</time>
        <extensions>
          <ns3:TrackPointExtension>
            <ns3:atemp>21.0</ns3:atemp>
          </ns3:TrackPointExtension>
        </extensions>
      </trkpt>
      <trkpt lat="42.5121859274804592132568359375" lon="19.890378601849079132080078125">
        <ele>1639.199951171875</ele>
        <time>2026-06-17T12:33:39.000Z</time>
        <extensions>
          <ns3:TrackPointExtension>
            <ns3:atemp>21.0</ns3:atemp>
          </ns3:TrackPointExtension>
        </extensions>
      </trkpt>
      <trkpt lat="42.5121859274804592132568359375" lon="19.890378601849079132080078125">
        <ele>1639.199951171875</ele>
        <time>2026-06-17T12:33:40.000Z</time>
        <extensions>
          <ns3:TrackPointExtension>
            <ns3:atemp>21.0</ns3:atemp>
          </ns3:TrackPointExtension>
        </extensions>
      </trkpt>
      <trkpt lat="42.5121859274804592132568359375" lon="19.890378601849079132080078125">
        <ele>1639.199951171875</ele>
        <time>2026-06-17T12:33:41.000Z</time>
        <extensions>
          <ns3:TrackPointExtension>
            <ns3:atemp>21.0</ns3:atemp>
          </ns3:TrackPointExtension>
        </extensions>
      </trkpt>
      <trkpt lat="42.5121859274804592132568359375" lon="19.890378601849079132080078125">
        <ele>1639.199951171875</ele>
        <time>2026-06-17T12:33:42.000Z</time>
        <extensions>
          <ns3:TrackPointExtension>
            <ns3:atemp>21.0</ns3:atemp>
          </ns3:TrackPointExtension>
        </extensions>
      </trkpt>
      <trkpt lat="42.5121859274804592132568359375" lon="19.890378601849079132080078125">
        <ele>1639.199951171875</ele>
        <time>2026-06-17T12:33:43.000Z</time>
        <extensions>
          <ns3:TrackPointExtension>
            <ns3:atemp>21.0</ns3:atemp>
          </ns3:TrackPointExtension>
        </extensions>
      </trkpt>
      <trkpt lat="42.5121859274804592132568359375" lon="19.890378601849079132080078125">
        <ele>1639.199951171875</ele>
        <time>2026-06-17T12:33:44.000Z</time>
        <extensions>
          <ns3:TrackPointExtension>
            <ns3:atemp>21.0</ns3:atemp>
          </ns3:TrackPointExtension>
        </extensions>
      </trkpt>
      <trkpt lat="42.5121859274804592132568359375" lon="19.890378601849079132080078125">
        <ele>1639.199951171875</ele>
        <time>2026-06-17T12:33:45.000Z</time>
        <extensions>
          <ns3:TrackPointExtension>
            <ns3:atemp>21.0</ns3:atemp>
          </ns3:TrackPointExtension>
        </extensions>
      </trkpt>
      <trkpt lat="42.5121859274804592132568359375" lon="19.890378601849079132080078125">
        <ele>1639.199951171875</ele>
        <time>2026-06-17T12:33:46.000Z</time>
        <extensions>
          <ns3:TrackPointExtension>
            <ns3:atemp>21.0</ns3:atemp>
          </ns3:TrackPointExtension>
        </extensions>
      </trkpt>
      <trkpt lat="42.5121859274804592132568359375" lon="19.890378601849079132080078125">
        <ele>1639.199951171875</ele>
        <time>2026-06-17T12:33:47.000Z</time>
        <extensions>
          <ns3:TrackPointExtension>
            <ns3:atemp>21.0</ns3:atemp>
          </ns3:TrackPointExtension>
        </extensions>
      </trkpt>
      <trkpt lat="42.5121859274804592132568359375" lon="19.890378601849079132080078125">
        <ele>1639.199951171875</ele>
        <time>2026-06-17T12:33:48.000Z</time>
        <extensions>
          <ns3:TrackPointExtension>
            <ns3:atemp>21.0</ns3:atemp>
          </ns3:TrackPointExtension>
        </extensions>
      </trkpt>
      <trkpt lat="42.5121859274804592132568359375" lon="19.890378601849079132080078125">
        <ele>1639.199951171875</ele>
        <time>2026-06-17T12:33:49.000Z</time>
        <extensions>
          <ns3:TrackPointExtension>
            <ns3:atemp>21.0</ns3:atemp>
          </ns3:TrackPointExtension>
        </extensions>
      </trkpt>
      <trkpt lat="42.5121859274804592132568359375" lon="19.890378601849079132080078125">
        <ele>1639</ele>
        <time>2026-06-17T12:33:50.000Z</time>
        <extensions>
          <ns3:TrackPointExtension>
            <ns3:atemp>21.0</ns3:atemp>
          </ns3:TrackPointExtension>
        </extensions>
      </trkpt>
      <trkpt lat="42.5121859274804592132568359375" lon="19.890378601849079132080078125">
        <ele>1639</ele>
        <time>2026-06-17T12:33:51.000Z</time>
        <extensions>
          <ns3:TrackPointExtension>
            <ns3:atemp>21.0</ns3:atemp>
          </ns3:TrackPointExtension>
        </extensions>
      </trkpt>
      <trkpt lat="42.5121859274804592132568359375" lon="19.890378601849079132080078125">
        <ele>1639</ele>
        <time>2026-06-17T12:33:52.000Z</time>
        <extensions>
          <ns3:TrackPointExtension>
            <ns3:atemp>21.0</ns3:atemp>
          </ns3:TrackPointExtension>
        </extensions>
      </trkpt>
      <trkpt lat="42.5121859274804592132568359375" lon="19.890378601849079132080078125">
        <ele>1639</ele>
        <time>2026-06-17T12:33:53.000Z</time>
        <extensions>
          <ns3:TrackPointExtension>
            <ns3:atemp>21.0</ns3:atemp>
          </ns3:TrackPointExtension>
        </extensions>
      </trkpt>
      <trkpt lat="42.5121859274804592132568359375" lon="19.890378601849079132080078125">
        <ele>1639</ele>
        <time>2026-06-17T12:33:54.000Z</time>
        <extensions>
          <ns3:TrackPointExtension>
            <ns3:atemp>21.0</ns3:atemp>
          </ns3:TrackPointExtension>
        </extensions>
      </trkpt>
      <trkpt lat="42.5121859274804592132568359375" lon="19.890378601849079132080078125">
        <ele>1639</ele>
        <time>2026-06-17T12:33:55.000Z</time>
        <extensions>
          <ns3:TrackPointExtension>
            <ns3:atemp>21.0</ns3:atemp>
          </ns3:TrackPointExtension>
        </extensions>
      </trkpt>
      <trkpt lat="42.5121859274804592132568359375" lon="19.890378601849079132080078125">
        <ele>1639</ele>
        <time>2026-06-17T12:33:56.000Z</time>
        <extensions>
          <ns3:TrackPointExtension>
            <ns3:atemp>21.0</ns3:atemp>
          </ns3:TrackPointExtension>
        </extensions>
      </trkpt>
      <trkpt lat="42.5121859274804592132568359375" lon="19.890378601849079132080078125">
        <ele>1639</ele>
        <time>2026-06-17T12:33:57.000Z</time>
        <extensions>
          <ns3:TrackPointExtension>
            <ns3:atemp>21.0</ns3:atemp>
          </ns3:TrackPointExtension>
        </extensions>
      </trkpt>
      <trkpt lat="42.5121859274804592132568359375" lon="19.890378601849079132080078125">
        <ele>1639.199951171875</ele>
        <time>2026-06-17T12:33:58.000Z</time>
        <extensions>
          <ns3:TrackPointExtension>
            <ns3:atemp>21.0</ns3:atemp>
          </ns3:TrackPointExtension>
        </extensions>
      </trkpt>
      <trkpt lat="42.5121859274804592132568359375" lon="19.890378601849079132080078125">
        <ele>1639</ele>
        <time>2026-06-17T12:33:59.000Z</time>
        <extensions>
          <ns3:TrackPointExtension>
            <ns3:atemp>21.0</ns3:atemp>
          </ns3:TrackPointExtension>
        </extensions>
      </trkpt>
      <trkpt lat="42.5121859274804592132568359375" lon="19.890378601849079132080078125">
        <ele>1639</ele>
        <time>2026-06-17T12:34:00.000Z</time>
        <extensions>
          <ns3:TrackPointExtension>
            <ns3:atemp>21.0</ns3:atemp>
          </ns3:TrackPointExtension>
        </extensions>
      </trkpt>
      <trkpt lat="42.5121859274804592132568359375" lon="19.890378601849079132080078125">
        <ele>1639</ele>
        <time>2026-06-17T12:34:01.000Z</time>
        <extensions>
          <ns3:TrackPointExtension>
            <ns3:atemp>21.0</ns3:atemp>
          </ns3:TrackPointExtension>
        </extensions>
      </trkpt>
      <trkpt lat="42.5121859274804592132568359375" lon="19.890378601849079132080078125">
        <ele>1639</ele>
        <time>2026-06-17T12:34:02.000Z</time>
        <extensions>
          <ns3:TrackPointExtension>
            <ns3:atemp>21.0</ns3:atemp>
          </ns3:TrackPointExtension>
        </extensions>
      </trkpt>
      <trkpt lat="42.5121859274804592132568359375" lon="19.890378601849079132080078125">
        <ele>1639</ele>
        <time>2026-06-17T12:34:03.000Z</time>
        <extensions>
          <ns3:TrackPointExtension>
            <ns3:atemp>21.0</ns3:atemp>
          </ns3:TrackPointExtension>
        </extensions>
      </trkpt>
      <trkpt lat="42.5121859274804592132568359375" lon="19.890378601849079132080078125">
        <ele>1639</ele>
        <time>2026-06-17T12:34:04.000Z</time>
        <extensions>
          <ns3:TrackPointExtension>
            <ns3:atemp>21.0</ns3:atemp>
          </ns3:TrackPointExtension>
        </extensions>
      </trkpt>
      <trkpt lat="42.5121859274804592132568359375" lon="19.890378601849079132080078125">
        <ele>1639</ele>
        <time>2026-06-17T12:34:05.000Z</time>
        <extensions>
          <ns3:TrackPointExtension>
            <ns3:atemp>21.0</ns3:atemp>
          </ns3:TrackPointExtension>
        </extensions>
      </trkpt>
      <trkpt lat="42.5121859274804592132568359375" lon="19.890378601849079132080078125">
        <ele>1639</ele>
        <time>2026-06-17T12:34:06.000Z</time>
        <extensions>
          <ns3:TrackPointExtension>
            <ns3:atemp>21.0</ns3:atemp>
          </ns3:TrackPointExtension>
        </extensions>
      </trkpt>
      <trkpt lat="42.5121859274804592132568359375" lon="19.890378601849079132080078125">
        <ele>1639</ele>
        <time>2026-06-17T12:34:07.000Z</time>
        <extensions>
          <ns3:TrackPointExtension>
            <ns3:atemp>21.0</ns3:atemp>
          </ns3:TrackPointExtension>
        </extensions>
      </trkpt>
      <trkpt lat="42.5121859274804592132568359375" lon="19.890378601849079132080078125">
        <ele>1639</ele>
        <time>2026-06-17T12:34:08.000Z</time>
        <extensions>
          <ns3:TrackPointExtension>
            <ns3:atemp>22.0</ns3:atemp>
          </ns3:TrackPointExtension>
        </extensions>
      </trkpt>
      <trkpt lat="42.5121859274804592132568359375" lon="19.890378601849079132080078125">
        <ele>1639</ele>
        <time>2026-06-17T12:34:09.000Z</time>
        <extensions>
          <ns3:TrackPointExtension>
            <ns3:atemp>21.0</ns3:atemp>
          </ns3:TrackPointExtension>
        </extensions>
      </trkpt>
      <trkpt lat="42.5121859274804592132568359375" lon="19.890378601849079132080078125">
        <ele>1639</ele>
        <time>2026-06-17T12:34:10.000Z</time>
        <extensions>
          <ns3:TrackPointExtension>
            <ns3:atemp>21.0</ns3:atemp>
          </ns3:TrackPointExtension>
        </extensions>
      </trkpt>
      <trkpt lat="42.5121859274804592132568359375" lon="19.890378601849079132080078125">
        <ele>1639</ele>
        <time>2026-06-17T12:34:11.000Z</time>
        <extensions>
          <ns3:TrackPointExtension>
            <ns3:atemp>21.0</ns3:atemp>
          </ns3:TrackPointExtension>
        </extensions>
      </trkpt>
      <trkpt lat="42.5121859274804592132568359375" lon="19.890378601849079132080078125">
        <ele>1639</ele>
        <time>2026-06-17T12:34:12.000Z</time>
        <extensions>
          <ns3:TrackPointExtension>
            <ns3:atemp>21.0</ns3:atemp>
          </ns3:TrackPointExtension>
        </extensions>
      </trkpt>
      <trkpt lat="42.5121859274804592132568359375" lon="19.890378601849079132080078125">
        <ele>1639</ele>
        <time>2026-06-17T12:34:13.000Z</time>
        <extensions>
          <ns3:TrackPointExtension>
            <ns3:atemp>21.0</ns3:atemp>
          </ns3:TrackPointExtension>
        </extensions>
      </trkpt>
      <trkpt lat="42.5121859274804592132568359375" lon="19.890378601849079132080078125">
        <ele>1639</ele>
        <time>2026-06-17T12:34:14.000Z</time>
        <extensions>
          <ns3:TrackPointExtension>
            <ns3:atemp>21.0</ns3:atemp>
          </ns3:TrackPointExtension>
        </extensions>
      </trkpt>
      <trkpt lat="42.5121859274804592132568359375" lon="19.890378601849079132080078125">
        <ele>1639</ele>
        <time>2026-06-17T12:34:15.000Z</time>
        <extensions>
          <ns3:TrackPointExtension>
            <ns3:atemp>21.0</ns3:atemp>
          </ns3:TrackPointExtension>
        </extensions>
      </trkpt>
      <trkpt lat="42.5121859274804592132568359375" lon="19.890378601849079132080078125">
        <ele>1639</ele>
        <time>2026-06-17T12:34:16.000Z</time>
        <extensions>
          <ns3:TrackPointExtension>
            <ns3:atemp>21.0</ns3:atemp>
          </ns3:TrackPointExtension>
        </extensions>
      </trkpt>
      <trkpt lat="42.5121859274804592132568359375" lon="19.890378601849079132080078125">
        <ele>1639</ele>
        <time>2026-06-17T12:34:17.000Z</time>
        <extensions>
          <ns3:TrackPointExtension>
            <ns3:atemp>21.0</ns3:atemp>
          </ns3:TrackPointExtension>
        </extensions>
      </trkpt>
      <trkpt lat="42.5121859274804592132568359375" lon="19.890378601849079132080078125">
        <ele>1639</ele>
        <time>2026-06-17T12:34:18.000Z</time>
        <extensions>
          <ns3:TrackPointExtension>
            <ns3:atemp>21.0</ns3:atemp>
          </ns3:TrackPointExtension>
        </extensions>
      </trkpt>
      <trkpt lat="42.5121859274804592132568359375" lon="19.890378601849079132080078125">
        <ele>1639</ele>
        <time>2026-06-17T12:34:19.000Z</time>
        <extensions>
          <ns3:TrackPointExtension>
            <ns3:atemp>21.0</ns3:atemp>
          </ns3:TrackPointExtension>
        </extensions>
      </trkpt>
      <trkpt lat="42.5121859274804592132568359375" lon="19.890378601849079132080078125">
        <ele>1639</ele>
        <time>2026-06-17T12:34:20.000Z</time>
        <extensions>
          <ns3:TrackPointExtension>
            <ns3:atemp>21.0</ns3:atemp>
          </ns3:TrackPointExtension>
        </extensions>
      </trkpt>
      <trkpt lat="42.5121859274804592132568359375" lon="19.890378601849079132080078125">
        <ele>1639</ele>
        <time>2026-06-17T12:34:21.000Z</time>
        <extensions>
          <ns3:TrackPointExtension>
            <ns3:atemp>21.0</ns3:atemp>
          </ns3:TrackPointExtension>
        </extensions>
      </trkpt>
      <trkpt lat="42.5121859274804592132568359375" lon="19.890378601849079132080078125">
        <ele>1639</ele>
        <time>2026-06-17T12:34:22.000Z</time>
        <extensions>
          <ns3:TrackPointExtension>
            <ns3:atemp>21.0</ns3:atemp>
          </ns3:TrackPointExtension>
        </extensions>
      </trkpt>
      <trkpt lat="42.5121859274804592132568359375" lon="19.890378601849079132080078125">
        <ele>1639</ele>
        <time>2026-06-17T12:34:23.000Z</time>
        <extensions>
          <ns3:TrackPointExtension>
            <ns3:atemp>21.0</ns3:atemp>
          </ns3:TrackPointExtension>
        </extensions>
      </trkpt>
      <trkpt lat="42.5121859274804592132568359375" lon="19.890378601849079132080078125">
        <ele>1639</ele>
        <time>2026-06-17T12:34:24.000Z</time>
        <extensions>
          <ns3:TrackPointExtension>
            <ns3:atemp>21.0</ns3:atemp>
          </ns3:TrackPointExtension>
        </extensions>
      </trkpt>
      <trkpt lat="42.5121859274804592132568359375" lon="19.890378601849079132080078125">
        <ele>1639</ele>
        <time>2026-06-17T12:34:25.000Z</time>
        <extensions>
          <ns3:TrackPointExtension>
            <ns3:atemp>21.0</ns3:atemp>
          </ns3:TrackPointExtension>
        </extensions>
      </trkpt>
      <trkpt lat="42.5121859274804592132568359375" lon="19.890378601849079132080078125">
        <ele>1639</ele>
        <time>2026-06-17T12:34:26.000Z</time>
        <extensions>
          <ns3:TrackPointExtension>
            <ns3:atemp>21.0</ns3:atemp>
          </ns3:TrackPointExtension>
        </extensions>
      </trkpt>
      <trkpt lat="42.5121859274804592132568359375" lon="19.890378601849079132080078125">
        <ele>1639</ele>
        <time>2026-06-17T12:34:27.000Z</time>
        <extensions>
          <ns3:TrackPointExtension>
            <ns3:atemp>21.0</ns3:atemp>
          </ns3:TrackPointExtension>
        </extensions>
      </trkpt>
      <trkpt lat="42.5121859274804592132568359375" lon="19.890378601849079132080078125">
        <ele>1639</ele>
        <time>2026-06-17T12:34:28.000Z</time>
        <extensions>
          <ns3:TrackPointExtension>
            <ns3:atemp>21.0</ns3:atemp>
          </ns3:TrackPointExtension>
        </extensions>
      </trkpt>
      <trkpt lat="42.5121859274804592132568359375" lon="19.890378601849079132080078125">
        <ele>1639</ele>
        <time>2026-06-17T12:34:29.000Z</time>
        <extensions>
          <ns3:TrackPointExtension>
            <ns3:atemp>21.0</ns3:atemp>
          </ns3:TrackPointExtension>
        </extensions>
      </trkpt>
      <trkpt lat="42.5121859274804592132568359375" lon="19.890378601849079132080078125">
        <ele>1639</ele>
        <time>2026-06-17T12:34:30.000Z</time>
        <extensions>
          <ns3:TrackPointExtension>
            <ns3:atemp>21.0</ns3:atemp>
          </ns3:TrackPointExtension>
        </extensions>
      </trkpt>
      <trkpt lat="42.5121859274804592132568359375" lon="19.890378601849079132080078125">
        <ele>1639</ele>
        <time>2026-06-17T12:34:31.000Z</time>
        <extensions>
          <ns3:TrackPointExtension>
            <ns3:atemp>21.0</ns3:atemp>
          </ns3:TrackPointExtension>
        </extensions>
      </trkpt>
      <trkpt lat="42.5121859274804592132568359375" lon="19.890378601849079132080078125">
        <ele>1639</ele>
        <time>2026-06-17T12:34:32.000Z</time>
        <extensions>
          <ns3:TrackPointExtension>
            <ns3:atemp>21.0</ns3:atemp>
          </ns3:TrackPointExtension>
        </extensions>
      </trkpt>
      <trkpt lat="42.5121859274804592132568359375" lon="19.890378601849079132080078125">
        <ele>1639</ele>
        <time>2026-06-17T12:34:33.000Z</time>
        <extensions>
          <ns3:TrackPointExtension>
            <ns3:atemp>21.0</ns3:atemp>
          </ns3:TrackPointExtension>
        </extensions>
      </trkpt>
      <trkpt lat="42.5121859274804592132568359375" lon="19.890378601849079132080078125">
        <ele>1639</ele>
        <time>2026-06-17T12:34:34.000Z</time>
        <extensions>
          <ns3:TrackPointExtension>
            <ns3:atemp>21.0</ns3:atemp>
          </ns3:TrackPointExtension>
        </extensions>
      </trkpt>
      <trkpt lat="42.5121859274804592132568359375" lon="19.890378601849079132080078125">
        <ele>1639</ele>
        <time>2026-06-17T12:34:35.000Z</time>
        <extensions>
          <ns3:TrackPointExtension>
            <ns3:atemp>21.0</ns3:atemp>
          </ns3:TrackPointExtension>
        </extensions>
      </trkpt>
      <trkpt lat="42.5121859274804592132568359375" lon="19.890378601849079132080078125">
        <ele>1639</ele>
        <time>2026-06-17T12:34:36.000Z</time>
        <extensions>
          <ns3:TrackPointExtension>
            <ns3:atemp>21.0</ns3:atemp>
          </ns3:TrackPointExtension>
        </extensions>
      </trkpt>
      <trkpt lat="42.5121859274804592132568359375" lon="19.890378601849079132080078125">
        <ele>1639</ele>
        <time>2026-06-17T12:34:37.000Z</time>
        <extensions>
          <ns3:TrackPointExtension>
            <ns3:atemp>21.0</ns3:atemp>
          </ns3:TrackPointExtension>
        </extensions>
      </trkpt>
      <trkpt lat="42.5121859274804592132568359375" lon="19.890378601849079132080078125">
        <ele>1639</ele>
        <time>2026-06-17T12:34:38.000Z</time>
        <extensions>
          <ns3:TrackPointExtension>
            <ns3:atemp>21.0</ns3:atemp>
          </ns3:TrackPointExtension>
        </extensions>
      </trkpt>
      <trkpt lat="42.5121859274804592132568359375" lon="19.890378601849079132080078125">
        <ele>1639</ele>
        <time>2026-06-17T12:34:39.000Z</time>
        <extensions>
          <ns3:TrackPointExtension>
            <ns3:atemp>21.0</ns3:atemp>
          </ns3:TrackPointExtension>
        </extensions>
      </trkpt>
      <trkpt lat="42.5121859274804592132568359375" lon="19.890378601849079132080078125">
        <ele>1639</ele>
        <time>2026-06-17T12:34:40.000Z</time>
        <extensions>
          <ns3:TrackPointExtension>
            <ns3:atemp>21.0</ns3:atemp>
          </ns3:TrackPointExtension>
        </extensions>
      </trkpt>
      <trkpt lat="42.5121859274804592132568359375" lon="19.890378601849079132080078125">
        <ele>1639</ele>
        <time>2026-06-17T12:34:41.000Z</time>
        <extensions>
          <ns3:TrackPointExtension>
            <ns3:atemp>21.0</ns3:atemp>
          </ns3:TrackPointExtension>
        </extensions>
      </trkpt>
      <trkpt lat="42.5121859274804592132568359375" lon="19.890378601849079132080078125">
        <ele>1639</ele>
        <time>2026-06-17T12:34:42.000Z</time>
        <extensions>
          <ns3:TrackPointExtension>
            <ns3:atemp>21.0</ns3:atemp>
          </ns3:TrackPointExtension>
        </extensions>
      </trkpt>
      <trkpt lat="42.5121859274804592132568359375" lon="19.890378601849079132080078125">
        <ele>1639</ele>
        <time>2026-06-17T12:34:43.000Z</time>
        <extensions>
          <ns3:TrackPointExtension>
            <ns3:atemp>21.0</ns3:atemp>
          </ns3:TrackPointExtension>
        </extensions>
      </trkpt>
      <trkpt lat="42.5121859274804592132568359375" lon="19.890378601849079132080078125">
        <ele>1639</ele>
        <time>2026-06-17T12:34:44.000Z</time>
        <extensions>
          <ns3:TrackPointExtension>
            <ns3:atemp>21.0</ns3:atemp>
          </ns3:TrackPointExtension>
        </extensions>
      </trkpt>
      <trkpt lat="42.5121859274804592132568359375" lon="19.890378601849079132080078125">
        <ele>1639</ele>
        <time>2026-06-17T12:34:45.000Z</time>
        <extensions>
          <ns3:TrackPointExtension>
            <ns3:atemp>21.0</ns3:atemp>
          </ns3:TrackPointExtension>
        </extensions>
      </trkpt>
      <trkpt lat="42.5121859274804592132568359375" lon="19.890378601849079132080078125">
        <ele>1639</ele>
        <time>2026-06-17T12:34:46.000Z</time>
        <extensions>
          <ns3:TrackPointExtension>
            <ns3:atemp>21.0</ns3:atemp>
          </ns3:TrackPointExtension>
        </extensions>
      </trkpt>
      <trkpt lat="42.5121859274804592132568359375" lon="19.890378601849079132080078125">
        <ele>1639</ele>
        <time>2026-06-17T12:34:47.000Z</time>
        <extensions>
          <ns3:TrackPointExtension>
            <ns3:atemp>21.0</ns3:atemp>
          </ns3:TrackPointExtension>
        </extensions>
      </trkpt>
      <trkpt lat="42.5121859274804592132568359375" lon="19.890378601849079132080078125">
        <ele>1639</ele>
        <time>2026-06-17T12:34:48.000Z</time>
        <extensions>
          <ns3:TrackPointExtension>
            <ns3:atemp>21.0</ns3:atemp>
          </ns3:TrackPointExtension>
        </extensions>
      </trkpt>
      <trkpt lat="42.5121859274804592132568359375" lon="19.890378601849079132080078125">
        <ele>1639</ele>
        <time>2026-06-17T12:34:49.000Z</time>
        <extensions>
          <ns3:TrackPointExtension>
            <ns3:atemp>21.0</ns3:atemp>
          </ns3:TrackPointExtension>
        </extensions>
      </trkpt>
      <trkpt lat="42.5121859274804592132568359375" lon="19.890378601849079132080078125">
        <ele>1639</ele>
        <time>2026-06-17T12:34:50.000Z</time>
        <extensions>
          <ns3:TrackPointExtension>
            <ns3:atemp>21.0</ns3:atemp>
          </ns3:TrackPointExtension>
        </extensions>
      </trkpt>
      <trkpt lat="42.5121859274804592132568359375" lon="19.890378601849079132080078125">
        <ele>1639</ele>
        <time>2026-06-17T12:34:51.000Z</time>
        <extensions>
          <ns3:TrackPointExtension>
            <ns3:atemp>21.0</ns3:atemp>
          </ns3:TrackPointExtension>
        </extensions>
      </trkpt>
      <trkpt lat="42.5121859274804592132568359375" lon="19.890378601849079132080078125">
        <ele>1639</ele>
        <time>2026-06-17T12:34:52.000Z</time>
        <extensions>
          <ns3:TrackPointExtension>
            <ns3:atemp>21.0</ns3:atemp>
          </ns3:TrackPointExtension>
        </extensions>
      </trkpt>
      <trkpt lat="42.5121859274804592132568359375" lon="19.890378601849079132080078125">
        <ele>1639</ele>
        <time>2026-06-17T12:34:53.000Z</time>
        <extensions>
          <ns3:TrackPointExtension>
            <ns3:atemp>21.0</ns3:atemp>
          </ns3:TrackPointExtension>
        </extensions>
      </trkpt>
      <trkpt lat="42.5121859274804592132568359375" lon="19.890378601849079132080078125">
        <ele>1639</ele>
        <time>2026-06-17T12:34:54.000Z</time>
        <extensions>
          <ns3:TrackPointExtension>
            <ns3:atemp>21.0</ns3:atemp>
          </ns3:TrackPointExtension>
        </extensions>
      </trkpt>
      <trkpt lat="42.5121859274804592132568359375" lon="19.890378601849079132080078125">
        <ele>1639</ele>
        <time>2026-06-17T12:34:55.000Z</time>
        <extensions>
          <ns3:TrackPointExtension>
            <ns3:atemp>21.0</ns3:atemp>
          </ns3:TrackPointExtension>
        </extensions>
      </trkpt>
      <trkpt lat="42.5121859274804592132568359375" lon="19.890378601849079132080078125">
        <ele>1639</ele>
        <time>2026-06-17T12:34:56.000Z</time>
        <extensions>
          <ns3:TrackPointExtension>
            <ns3:atemp>21.0</ns3:atemp>
          </ns3:TrackPointExtension>
        </extensions>
      </trkpt>
      <trkpt lat="42.5121859274804592132568359375" lon="19.890378601849079132080078125">
        <ele>1639</ele>
        <time>2026-06-17T12:34:57.000Z</time>
        <extensions>
          <ns3:TrackPointExtension>
            <ns3:atemp>21.0</ns3:atemp>
          </ns3:TrackPointExtension>
        </extensions>
      </trkpt>
      <trkpt lat="42.5121859274804592132568359375" lon="19.890378601849079132080078125">
        <ele>1639</ele>
        <time>2026-06-17T12:34:58.000Z</time>
        <extensions>
          <ns3:TrackPointExtension>
            <ns3:atemp>21.0</ns3:atemp>
          </ns3:TrackPointExtension>
        </extensions>
      </trkpt>
      <trkpt lat="42.5121859274804592132568359375" lon="19.890378601849079132080078125">
        <ele>1639</ele>
        <time>2026-06-17T12:34:59.000Z</time>
        <extensions>
          <ns3:TrackPointExtension>
            <ns3:atemp>21.0</ns3:atemp>
          </ns3:TrackPointExtension>
        </extensions>
      </trkpt>
      <trkpt lat="42.5121859274804592132568359375" lon="19.890378601849079132080078125">
        <ele>1639</ele>
        <time>2026-06-17T12:35:00.000Z</time>
        <extensions>
          <ns3:TrackPointExtension>
            <ns3:atemp>21.0</ns3:atemp>
          </ns3:TrackPointExtension>
        </extensions>
      </trkpt>
      <trkpt lat="42.5121859274804592132568359375" lon="19.890378601849079132080078125">
        <ele>1639</ele>
        <time>2026-06-17T12:35:01.000Z</time>
        <extensions>
          <ns3:TrackPointExtension>
            <ns3:atemp>21.0</ns3:atemp>
          </ns3:TrackPointExtension>
        </extensions>
      </trkpt>
      <trkpt lat="42.5121859274804592132568359375" lon="19.890378601849079132080078125">
        <ele>1639</ele>
        <time>2026-06-17T12:35:02.000Z</time>
        <extensions>
          <ns3:TrackPointExtension>
            <ns3:atemp>21.0</ns3:atemp>
          </ns3:TrackPointExtension>
        </extensions>
      </trkpt>
      <trkpt lat="42.5121859274804592132568359375" lon="19.890378601849079132080078125">
        <ele>1639</ele>
        <time>2026-06-17T12:35:03.000Z</time>
        <extensions>
          <ns3:TrackPointExtension>
            <ns3:atemp>21.0</ns3:atemp>
          </ns3:TrackPointExtension>
        </extensions>
      </trkpt>
      <trkpt lat="42.5121859274804592132568359375" lon="19.890378601849079132080078125">
        <ele>1639</ele>
        <time>2026-06-17T12:35:04.000Z</time>
        <extensions>
          <ns3:TrackPointExtension>
            <ns3:atemp>21.0</ns3:atemp>
          </ns3:TrackPointExtension>
        </extensions>
      </trkpt>
      <trkpt lat="42.5121859274804592132568359375" lon="19.890378601849079132080078125">
        <ele>1639</ele>
        <time>2026-06-17T12:35:05.000Z</time>
        <extensions>
          <ns3:TrackPointExtension>
            <ns3:atemp>21.0</ns3:atemp>
          </ns3:TrackPointExtension>
        </extensions>
      </trkpt>
      <trkpt lat="42.5121859274804592132568359375" lon="19.890378601849079132080078125">
        <ele>1639</ele>
        <time>2026-06-17T12:35:06.000Z</time>
        <extensions>
          <ns3:TrackPointExtension>
            <ns3:atemp>21.0</ns3:atemp>
          </ns3:TrackPointExtension>
        </extensions>
      </trkpt>
      <trkpt lat="42.5121859274804592132568359375" lon="19.890378601849079132080078125">
        <ele>1639</ele>
        <time>2026-06-17T12:35:07.000Z</time>
        <extensions>
          <ns3:TrackPointExtension>
            <ns3:atemp>21.0</ns3:atemp>
          </ns3:TrackPointExtension>
        </extensions>
      </trkpt>
      <trkpt lat="42.5121859274804592132568359375" lon="19.890378601849079132080078125">
        <ele>1639</ele>
        <time>2026-06-17T12:35:08.000Z</time>
        <extensions>
          <ns3:TrackPointExtension>
            <ns3:atemp>21.0</ns3:atemp>
          </ns3:TrackPointExtension>
        </extensions>
      </trkpt>
      <trkpt lat="42.5121859274804592132568359375" lon="19.890378601849079132080078125">
        <ele>1639</ele>
        <time>2026-06-17T12:35:09.000Z</time>
        <extensions>
          <ns3:TrackPointExtension>
            <ns3:atemp>21.0</ns3:atemp>
          </ns3:TrackPointExtension>
        </extensions>
      </trkpt>
      <trkpt lat="42.5121859274804592132568359375" lon="19.890378601849079132080078125">
        <ele>1639</ele>
        <time>2026-06-17T12:35:10.000Z</time>
        <extensions>
          <ns3:TrackPointExtension>
            <ns3:atemp>21.0</ns3:atemp>
          </ns3:TrackPointExtension>
        </extensions>
      </trkpt>
      <trkpt lat="42.5121859274804592132568359375" lon="19.890378601849079132080078125">
        <ele>1639</ele>
        <time>2026-06-17T12:35:11.000Z</time>
        <extensions>
          <ns3:TrackPointExtension>
            <ns3:atemp>21.0</ns3:atemp>
          </ns3:TrackPointExtension>
        </extensions>
      </trkpt>
      <trkpt lat="42.5121859274804592132568359375" lon="19.890378601849079132080078125">
        <ele>1639</ele>
        <time>2026-06-17T12:35:12.000Z</time>
        <extensions>
          <ns3:TrackPointExtension>
            <ns3:atemp>21.0</ns3:atemp>
          </ns3:TrackPointExtension>
        </extensions>
      </trkpt>
      <trkpt lat="42.5121859274804592132568359375" lon="19.890378601849079132080078125">
        <ele>1639</ele>
        <time>2026-06-17T12:35:13.000Z</time>
        <extensions>
          <ns3:TrackPointExtension>
            <ns3:atemp>21.0</ns3:atemp>
          </ns3:TrackPointExtension>
        </extensions>
      </trkpt>
      <trkpt lat="42.5121859274804592132568359375" lon="19.890378601849079132080078125">
        <ele>1639</ele>
        <time>2026-06-17T12:35:14.000Z</time>
        <extensions>
          <ns3:TrackPointExtension>
            <ns3:atemp>21.0</ns3:atemp>
          </ns3:TrackPointExtension>
        </extensions>
      </trkpt>
      <trkpt lat="42.5121859274804592132568359375" lon="19.890378601849079132080078125">
        <ele>1639</ele>
        <time>2026-06-17T12:35:15.000Z</time>
        <extensions>
          <ns3:TrackPointExtension>
            <ns3:atemp>21.0</ns3:atemp>
          </ns3:TrackPointExtension>
        </extensions>
      </trkpt>
      <trkpt lat="42.5121859274804592132568359375" lon="19.890378601849079132080078125">
        <ele>1639</ele>
        <time>2026-06-17T12:35:16.000Z</time>
        <extensions>
          <ns3:TrackPointExtension>
            <ns3:atemp>21.0</ns3:atemp>
          </ns3:TrackPointExtension>
        </extensions>
      </trkpt>
      <trkpt lat="42.5121859274804592132568359375" lon="19.890378601849079132080078125">
        <ele>1639</ele>
        <time>2026-06-17T12:35:17.000Z</time>
        <extensions>
          <ns3:TrackPointExtension>
            <ns3:atemp>21.0</ns3:atemp>
          </ns3:TrackPointExtension>
        </extensions>
      </trkpt>
      <trkpt lat="42.5121859274804592132568359375" lon="19.890378601849079132080078125">
        <ele>1639</ele>
        <time>2026-06-17T12:35:18.000Z</time>
        <extensions>
          <ns3:TrackPointExtension>
            <ns3:atemp>21.0</ns3:atemp>
          </ns3:TrackPointExtension>
        </extensions>
      </trkpt>
      <trkpt lat="42.5121859274804592132568359375" lon="19.890378601849079132080078125">
        <ele>1639</ele>
        <time>2026-06-17T12:35:19.000Z</time>
        <extensions>
          <ns3:TrackPointExtension>
            <ns3:atemp>21.0</ns3:atemp>
          </ns3:TrackPointExtension>
        </extensions>
      </trkpt>
      <trkpt lat="42.5121859274804592132568359375" lon="19.890378601849079132080078125">
        <ele>1639</ele>
        <time>2026-06-17T12:35:20.000Z</time>
        <extensions>
          <ns3:TrackPointExtension>
            <ns3:atemp>21.0</ns3:atemp>
          </ns3:TrackPointExtension>
        </extensions>
      </trkpt>
      <trkpt lat="42.5121859274804592132568359375" lon="19.890378601849079132080078125">
        <ele>1639</ele>
        <time>2026-06-17T12:35:21.000Z</time>
        <extensions>
          <ns3:TrackPointExtension>
            <ns3:atemp>21.0</ns3:atemp>
          </ns3:TrackPointExtension>
        </extensions>
      </trkpt>
      <trkpt lat="42.5121859274804592132568359375" lon="19.890378601849079132080078125">
        <ele>1639</ele>
        <time>2026-06-17T12:35:22.000Z</time>
        <extensions>
          <ns3:TrackPointExtension>
            <ns3:atemp>21.0</ns3:atemp>
          </ns3:TrackPointExtension>
        </extensions>
      </trkpt>
      <trkpt lat="42.5121859274804592132568359375" lon="19.890378601849079132080078125">
        <ele>1639</ele>
        <time>2026-06-17T12:35:23.000Z</time>
        <extensions>
          <ns3:TrackPointExtension>
            <ns3:atemp>21.0</ns3:atemp>
          </ns3:TrackPointExtension>
        </extensions>
      </trkpt>
      <trkpt lat="42.5121859274804592132568359375" lon="19.890378601849079132080078125">
        <ele>1639</ele>
        <time>2026-06-17T12:35:24.000Z</time>
        <extensions>
          <ns3:TrackPointExtension>
            <ns3:atemp>21.0</ns3:atemp>
          </ns3:TrackPointExtension>
        </extensions>
      </trkpt>
      <trkpt lat="42.5121859274804592132568359375" lon="19.890378601849079132080078125">
        <ele>1639</ele>
        <time>2026-06-17T12:35:25.000Z</time>
        <extensions>
          <ns3:TrackPointExtension>
            <ns3:atemp>21.0</ns3:atemp>
          </ns3:TrackPointExtension>
        </extensions>
      </trkpt>
      <trkpt lat="42.5121859274804592132568359375" lon="19.890378601849079132080078125">
        <ele>1639</ele>
        <time>2026-06-17T12:35:26.000Z</time>
        <extensions>
          <ns3:TrackPointExtension>
            <ns3:atemp>21.0</ns3:atemp>
          </ns3:TrackPointExtension>
        </extensions>
      </trkpt>
      <trkpt lat="42.5121859274804592132568359375" lon="19.890378601849079132080078125">
        <ele>1639</ele>
        <time>2026-06-17T12:35:27.000Z</time>
        <extensions>
          <ns3:TrackPointExtension>
            <ns3:atemp>21.0</ns3:atemp>
          </ns3:TrackPointExtension>
        </extensions>
      </trkpt>
      <trkpt lat="42.5121859274804592132568359375" lon="19.890378601849079132080078125">
        <ele>1639</ele>
        <time>2026-06-17T12:35:28.000Z</time>
        <extensions>
          <ns3:TrackPointExtension>
            <ns3:atemp>21.0</ns3:atemp>
          </ns3:TrackPointExtension>
        </extensions>
      </trkpt>
      <trkpt lat="42.5121859274804592132568359375" lon="19.890378601849079132080078125">
        <ele>1639</ele>
        <time>2026-06-17T12:35:29.000Z</time>
        <extensions>
          <ns3:TrackPointExtension>
            <ns3:atemp>21.0</ns3:atemp>
          </ns3:TrackPointExtension>
        </extensions>
      </trkpt>
      <trkpt lat="42.5121859274804592132568359375" lon="19.890378601849079132080078125">
        <ele>1639</ele>
        <time>2026-06-17T12:35:30.000Z</time>
        <extensions>
          <ns3:TrackPointExtension>
            <ns3:atemp>21.0</ns3:atemp>
          </ns3:TrackPointExtension>
        </extensions>
      </trkpt>
      <trkpt lat="42.5121859274804592132568359375" lon="19.890378601849079132080078125">
        <ele>1639</ele>
        <time>2026-06-17T12:35:31.000Z</time>
        <extensions>
          <ns3:TrackPointExtension>
            <ns3:atemp>21.0</ns3:atemp>
          </ns3:TrackPointExtension>
        </extensions>
      </trkpt>
      <trkpt lat="42.5121859274804592132568359375" lon="19.890378601849079132080078125">
        <ele>1639</ele>
        <time>2026-06-17T12:35:32.000Z</time>
        <extensions>
          <ns3:TrackPointExtension>
            <ns3:atemp>21.0</ns3:atemp>
          </ns3:TrackPointExtension>
        </extensions>
      </trkpt>
      <trkpt lat="42.5121859274804592132568359375" lon="19.890378601849079132080078125">
        <ele>1639</ele>
        <time>2026-06-17T12:35:33.000Z</time>
        <extensions>
          <ns3:TrackPointExtension>
            <ns3:atemp>21.0</ns3:atemp>
          </ns3:TrackPointExtension>
        </extensions>
      </trkpt>
      <trkpt lat="42.5121859274804592132568359375" lon="19.890378601849079132080078125">
        <ele>1639</ele>
        <time>2026-06-17T12:35:34.000Z</time>
        <extensions>
          <ns3:TrackPointExtension>
            <ns3:atemp>21.0</ns3:atemp>
          </ns3:TrackPointExtension>
        </extensions>
      </trkpt>
      <trkpt lat="42.5121859274804592132568359375" lon="19.890378601849079132080078125">
        <ele>1639</ele>
        <time>2026-06-17T12:35:35.000Z</time>
        <extensions>
          <ns3:TrackPointExtension>
            <ns3:atemp>21.0</ns3:atemp>
          </ns3:TrackPointExtension>
        </extensions>
      </trkpt>
      <trkpt lat="42.5121859274804592132568359375" lon="19.890378601849079132080078125">
        <ele>1639</ele>
        <time>2026-06-17T12:35:36.000Z</time>
        <extensions>
          <ns3:TrackPointExtension>
            <ns3:atemp>21.0</ns3:atemp>
          </ns3:TrackPointExtension>
        </extensions>
      </trkpt>
      <trkpt lat="42.5121859274804592132568359375" lon="19.890378601849079132080078125">
        <ele>1639</ele>
        <time>2026-06-17T12:35:37.000Z</time>
        <extensions>
          <ns3:TrackPointExtension>
            <ns3:atemp>22.0</ns3:atemp>
          </ns3:TrackPointExtension>
        </extensions>
      </trkpt>
      <trkpt lat="42.5121859274804592132568359375" lon="19.890378601849079132080078125">
        <ele>1639</ele>
        <time>2026-06-17T12:35:38.000Z</time>
        <extensions>
          <ns3:TrackPointExtension>
            <ns3:atemp>22.0</ns3:atemp>
          </ns3:TrackPointExtension>
        </extensions>
      </trkpt>
      <trkpt lat="42.5121859274804592132568359375" lon="19.890378601849079132080078125">
        <ele>1639</ele>
        <time>2026-06-17T12:35:39.000Z</time>
        <extensions>
          <ns3:TrackPointExtension>
            <ns3:atemp>22.0</ns3:atemp>
          </ns3:TrackPointExtension>
        </extensions>
      </trkpt>
      <trkpt lat="42.5121859274804592132568359375" lon="19.890378601849079132080078125">
        <ele>1639</ele>
        <time>2026-06-17T12:35:40.000Z</time>
        <extensions>
          <ns3:TrackPointExtension>
            <ns3:atemp>22.0</ns3:atemp>
          </ns3:TrackPointExtension>
        </extensions>
      </trkpt>
      <trkpt lat="42.5121859274804592132568359375" lon="19.890378601849079132080078125">
        <ele>1639</ele>
        <time>2026-06-17T12:35:41.000Z</time>
        <extensions>
          <ns3:TrackPointExtension>
            <ns3:atemp>22.0</ns3:atemp>
          </ns3:TrackPointExtension>
        </extensions>
      </trkpt>
      <trkpt lat="42.5121859274804592132568359375" lon="19.890378601849079132080078125">
        <ele>1639</ele>
        <time>2026-06-17T12:35:42.000Z</time>
        <extensions>
          <ns3:TrackPointExtension>
            <ns3:atemp>22.0</ns3:atemp>
          </ns3:TrackPointExtension>
        </extensions>
      </trkpt>
      <trkpt lat="42.5121859274804592132568359375" lon="19.890378601849079132080078125">
        <ele>1639</ele>
        <time>2026-06-17T12:35:43.000Z</time>
        <extensions>
          <ns3:TrackPointExtension>
            <ns3:atemp>22.0</ns3:atemp>
          </ns3:TrackPointExtension>
        </extensions>
      </trkpt>
      <trkpt lat="42.5121859274804592132568359375" lon="19.890378601849079132080078125">
        <ele>1639</ele>
        <time>2026-06-17T12:35:44.000Z</time>
        <extensions>
          <ns3:TrackPointExtension>
            <ns3:atemp>22.0</ns3:atemp>
          </ns3:TrackPointExtension>
        </extensions>
      </trkpt>
      <trkpt lat="42.5121859274804592132568359375" lon="19.890378601849079132080078125">
        <ele>1639</ele>
        <time>2026-06-17T12:35:45.000Z</time>
        <extensions>
          <ns3:TrackPointExtension>
            <ns3:atemp>22.0</ns3:atemp>
          </ns3:TrackPointExtension>
        </extensions>
      </trkpt>
      <trkpt lat="42.5121859274804592132568359375" lon="19.890378601849079132080078125">
        <ele>1639</ele>
        <time>2026-06-17T12:35:46.000Z</time>
        <extensions>
          <ns3:TrackPointExtension>
            <ns3:atemp>22.0</ns3:atemp>
          </ns3:TrackPointExtension>
        </extensions>
      </trkpt>
      <trkpt lat="42.5121859274804592132568359375" lon="19.890378601849079132080078125">
        <ele>1639</ele>
        <time>2026-06-17T12:35:47.000Z</time>
        <extensions>
          <ns3:TrackPointExtension>
            <ns3:atemp>22.0</ns3:atemp>
          </ns3:TrackPointExtension>
        </extensions>
      </trkpt>
      <trkpt lat="42.5121859274804592132568359375" lon="19.890378601849079132080078125">
        <ele>1639</ele>
        <time>2026-06-17T12:35:48.000Z</time>
        <extensions>
          <ns3:TrackPointExtension>
            <ns3:atemp>22.0</ns3:atemp>
          </ns3:TrackPointExtension>
        </extensions>
      </trkpt>
      <trkpt lat="42.5121859274804592132568359375" lon="19.890378601849079132080078125">
        <ele>1639</ele>
        <time>2026-06-17T12:35:49.000Z</time>
        <extensions>
          <ns3:TrackPointExtension>
            <ns3:atemp>22.0</ns3:atemp>
          </ns3:TrackPointExtension>
        </extensions>
      </trkpt>
      <trkpt lat="42.5121859274804592132568359375" lon="19.890378601849079132080078125">
        <ele>1639</ele>
        <time>2026-06-17T12:35:50.000Z</time>
        <extensions>
          <ns3:TrackPointExtension>
            <ns3:atemp>22.0</ns3:atemp>
          </ns3:TrackPointExtension>
        </extensions>
      </trkpt>
      <trkpt lat="42.5121859274804592132568359375" lon="19.890378601849079132080078125">
        <ele>1639</ele>
        <time>2026-06-17T12:35:51.000Z</time>
        <extensions>
          <ns3:TrackPointExtension>
            <ns3:atemp>22.0</ns3:atemp>
          </ns3:TrackPointExtension>
        </extensions>
      </trkpt>
      <trkpt lat="42.5121859274804592132568359375" lon="19.890378601849079132080078125">
        <ele>1639</ele>
        <time>2026-06-17T12:35:52.000Z</time>
        <extensions>
          <ns3:TrackPointExtension>
            <ns3:atemp>22.0</ns3:atemp>
          </ns3:TrackPointExtension>
        </extensions>
      </trkpt>
      <trkpt lat="42.5121859274804592132568359375" lon="19.890378601849079132080078125">
        <ele>1639</ele>
        <time>2026-06-17T12:35:53.000Z</time>
        <extensions>
          <ns3:TrackPointExtension>
            <ns3:atemp>22.0</ns3:atemp>
          </ns3:TrackPointExtension>
        </extensions>
      </trkpt>
      <trkpt lat="42.5121859274804592132568359375" lon="19.890378601849079132080078125">
        <ele>1639</ele>
        <time>2026-06-17T12:35:54.000Z</time>
        <extensions>
          <ns3:TrackPointExtension>
            <ns3:atemp>22.0</ns3:atemp>
          </ns3:TrackPointExtension>
        </extensions>
      </trkpt>
      <trkpt lat="42.5121859274804592132568359375" lon="19.890378601849079132080078125">
        <ele>1639</ele>
        <time>2026-06-17T12:35:55.000Z</time>
        <extensions>
          <ns3:TrackPointExtension>
            <ns3:atemp>21.0</ns3:atemp>
          </ns3:TrackPointExtension>
        </extensions>
      </trkpt>
      <trkpt lat="42.5121859274804592132568359375" lon="19.890378601849079132080078125">
        <ele>1639</ele>
        <time>2026-06-17T12:35:56.000Z</time>
        <extensions>
          <ns3:TrackPointExtension>
            <ns3:atemp>21.0</ns3:atemp>
          </ns3:TrackPointExtension>
        </extensions>
      </trkpt>
      <trkpt lat="42.5121859274804592132568359375" lon="19.890378601849079132080078125">
        <ele>1639</ele>
        <time>2026-06-17T12:35:57.000Z</time>
        <extensions>
          <ns3:TrackPointExtension>
            <ns3:atemp>22.0</ns3:atemp>
          </ns3:TrackPointExtension>
        </extensions>
      </trkpt>
      <trkpt lat="42.5121859274804592132568359375" lon="19.890378601849079132080078125">
        <ele>1639</ele>
        <time>2026-06-17T12:35:58.000Z</time>
        <extensions>
          <ns3:TrackPointExtension>
            <ns3:atemp>22.0</ns3:atemp>
          </ns3:TrackPointExtension>
        </extensions>
      </trkpt>
      <trkpt lat="42.5121859274804592132568359375" lon="19.890378601849079132080078125">
        <ele>1639</ele>
        <time>2026-06-17T12:35:59.000Z</time>
        <extensions>
          <ns3:TrackPointExtension>
            <ns3:atemp>22.0</ns3:atemp>
          </ns3:TrackPointExtension>
        </extensions>
      </trkpt>
      <trkpt lat="42.5121859274804592132568359375" lon="19.890378601849079132080078125">
        <ele>1639</ele>
        <time>2026-06-17T12:36:00.000Z</time>
        <extensions>
          <ns3:TrackPointExtension>
            <ns3:atemp>22.0</ns3:atemp>
          </ns3:TrackPointExtension>
        </extensions>
      </trkpt>
      <trkpt lat="42.5121859274804592132568359375" lon="19.890378601849079132080078125">
        <ele>1639</ele>
        <time>2026-06-17T12:36:01.000Z</time>
        <extensions>
          <ns3:TrackPointExtension>
            <ns3:atemp>22.0</ns3:atemp>
          </ns3:TrackPointExtension>
        </extensions>
      </trkpt>
      <trkpt lat="42.5121859274804592132568359375" lon="19.890378601849079132080078125">
        <ele>1639</ele>
        <time>2026-06-17T12:36:02.000Z</time>
        <extensions>
          <ns3:TrackPointExtension>
            <ns3:atemp>22.0</ns3:atemp>
          </ns3:TrackPointExtension>
        </extensions>
      </trkpt>
      <trkpt lat="42.5121859274804592132568359375" lon="19.890378601849079132080078125">
        <ele>1639</ele>
        <time>2026-06-17T12:36:03.000Z</time>
        <extensions>
          <ns3:TrackPointExtension>
            <ns3:atemp>22.0</ns3:atemp>
          </ns3:TrackPointExtension>
        </extensions>
      </trkpt>
      <trkpt lat="42.5121859274804592132568359375" lon="19.890378601849079132080078125">
        <ele>1639</ele>
        <time>2026-06-17T12:36:04.000Z</time>
        <extensions>
          <ns3:TrackPointExtension>
            <ns3:atemp>22.0</ns3:atemp>
          </ns3:TrackPointExtension>
        </extensions>
      </trkpt>
      <trkpt lat="42.5121859274804592132568359375" lon="19.890378601849079132080078125">
        <ele>1639</ele>
        <time>2026-06-17T12:36:05.000Z</time>
        <extensions>
          <ns3:TrackPointExtension>
            <ns3:atemp>22.0</ns3:atemp>
          </ns3:TrackPointExtension>
        </extensions>
      </trkpt>
      <trkpt lat="42.5121859274804592132568359375" lon="19.890378601849079132080078125">
        <ele>1639</ele>
        <time>2026-06-17T12:36:06.000Z</time>
        <extensions>
          <ns3:TrackPointExtension>
            <ns3:atemp>22.0</ns3:atemp>
          </ns3:TrackPointExtension>
        </extensions>
      </trkpt>
      <trkpt lat="42.5121859274804592132568359375" lon="19.890378601849079132080078125">
        <ele>1639</ele>
        <time>2026-06-17T12:36:07.000Z</time>
        <extensions>
          <ns3:TrackPointExtension>
            <ns3:atemp>22.0</ns3:atemp>
          </ns3:TrackPointExtension>
        </extensions>
      </trkpt>
      <trkpt lat="42.5121859274804592132568359375" lon="19.890378601849079132080078125">
        <ele>1639</ele>
        <time>2026-06-17T12:36:08.000Z</time>
        <extensions>
          <ns3:TrackPointExtension>
            <ns3:atemp>22.0</ns3:atemp>
          </ns3:TrackPointExtension>
        </extensions>
      </trkpt>
      <trkpt lat="42.5121859274804592132568359375" lon="19.890378601849079132080078125">
        <ele>1639</ele>
        <time>2026-06-17T12:36:09.000Z</time>
        <extensions>
          <ns3:TrackPointExtension>
            <ns3:atemp>21.0</ns3:atemp>
          </ns3:TrackPointExtension>
        </extensions>
      </trkpt>
      <trkpt lat="42.5121859274804592132568359375" lon="19.890378601849079132080078125">
        <ele>1639</ele>
        <time>2026-06-17T12:36:10.000Z</time>
        <extensions>
          <ns3:TrackPointExtension>
            <ns3:atemp>22.0</ns3:atemp>
          </ns3:TrackPointExtension>
        </extensions>
      </trkpt>
      <trkpt lat="42.5121859274804592132568359375" lon="19.890378601849079132080078125">
        <ele>1639</ele>
        <time>2026-06-17T12:36:11.000Z</time>
        <extensions>
          <ns3:TrackPointExtension>
            <ns3:atemp>22.0</ns3:atemp>
          </ns3:TrackPointExtension>
        </extensions>
      </trkpt>
      <trkpt lat="42.5121859274804592132568359375" lon="19.890378601849079132080078125">
        <ele>1639</ele>
        <time>2026-06-17T12:36:12.000Z</time>
        <extensions>
          <ns3:TrackPointExtension>
            <ns3:atemp>22.0</ns3:atemp>
          </ns3:TrackPointExtension>
        </extensions>
      </trkpt>
      <trkpt lat="42.5121859274804592132568359375" lon="19.890378601849079132080078125">
        <ele>1639</ele>
        <time>2026-06-17T12:36:13.000Z</time>
        <extensions>
          <ns3:TrackPointExtension>
            <ns3:atemp>22.0</ns3:atemp>
          </ns3:TrackPointExtension>
        </extensions>
      </trkpt>
      <trkpt lat="42.5121859274804592132568359375" lon="19.890378601849079132080078125">
        <ele>1639</ele>
        <time>2026-06-17T12:36:14.000Z</time>
        <extensions>
          <ns3:TrackPointExtension>
            <ns3:atemp>22.0</ns3:atemp>
          </ns3:TrackPointExtension>
        </extensions>
      </trkpt>
      <trkpt lat="42.5121859274804592132568359375" lon="19.890378601849079132080078125">
        <ele>1639</ele>
        <time>2026-06-17T12:36:15.000Z</time>
        <extensions>
          <ns3:TrackPointExtension>
            <ns3:atemp>22.0</ns3:atemp>
          </ns3:TrackPointExtension>
        </extensions>
      </trkpt>
      <trkpt lat="42.5121859274804592132568359375" lon="19.890378601849079132080078125">
        <ele>1639</ele>
        <time>2026-06-17T12:36:16.000Z</time>
        <extensions>
          <ns3:TrackPointExtension>
            <ns3:atemp>22.0</ns3:atemp>
          </ns3:TrackPointExtension>
        </extensions>
      </trkpt>
      <trkpt lat="42.5121859274804592132568359375" lon="19.890378601849079132080078125">
        <ele>1639</ele>
        <time>2026-06-17T12:36:17.000Z</time>
        <extensions>
          <ns3:TrackPointExtension>
            <ns3:atemp>22.0</ns3:atemp>
          </ns3:TrackPointExtension>
        </extensions>
      </trkpt>
      <trkpt lat="42.5121859274804592132568359375" lon="19.890378601849079132080078125">
        <ele>1639</ele>
        <time>2026-06-17T12:36:18.000Z</time>
        <extensions>
          <ns3:TrackPointExtension>
            <ns3:atemp>22.0</ns3:atemp>
          </ns3:TrackPointExtension>
        </extensions>
      </trkpt>
      <trkpt lat="42.5121859274804592132568359375" lon="19.890378601849079132080078125">
        <ele>1639</ele>
        <time>2026-06-17T12:36:19.000Z</time>
        <extensions>
          <ns3:TrackPointExtension>
            <ns3:atemp>22.0</ns3:atemp>
          </ns3:TrackPointExtension>
        </extensions>
      </trkpt>
      <trkpt lat="42.5121859274804592132568359375" lon="19.890378601849079132080078125">
        <ele>1639</ele>
        <time>2026-06-17T12:36:20.000Z</time>
        <extensions>
          <ns3:TrackPointExtension>
            <ns3:atemp>22.0</ns3:atemp>
          </ns3:TrackPointExtension>
        </extensions>
      </trkpt>
      <trkpt lat="42.5121859274804592132568359375" lon="19.890378601849079132080078125">
        <ele>1639</ele>
        <time>2026-06-17T12:36:21.000Z</time>
        <extensions>
          <ns3:TrackPointExtension>
            <ns3:atemp>22.0</ns3:atemp>
          </ns3:TrackPointExtension>
        </extensions>
      </trkpt>
      <trkpt lat="42.5121859274804592132568359375" lon="19.890378601849079132080078125">
        <ele>1639</ele>
        <time>2026-06-17T12:36:22.000Z</time>
        <extensions>
          <ns3:TrackPointExtension>
            <ns3:atemp>22.0</ns3:atemp>
          </ns3:TrackPointExtension>
        </extensions>
      </trkpt>
      <trkpt lat="42.5121859274804592132568359375" lon="19.890378601849079132080078125">
        <ele>1639</ele>
        <time>2026-06-17T12:36:23.000Z</time>
        <extensions>
          <ns3:TrackPointExtension>
            <ns3:atemp>22.0</ns3:atemp>
          </ns3:TrackPointExtension>
        </extensions>
      </trkpt>
      <trkpt lat="42.5121859274804592132568359375" lon="19.890378601849079132080078125">
        <ele>1639</ele>
        <time>2026-06-17T12:36:24.000Z</time>
        <extensions>
          <ns3:TrackPointExtension>
            <ns3:atemp>22.0</ns3:atemp>
          </ns3:TrackPointExtension>
        </extensions>
      </trkpt>
      <trkpt lat="42.5121859274804592132568359375" lon="19.890378601849079132080078125">
        <ele>1639</ele>
        <time>2026-06-17T12:36:25.000Z</time>
        <extensions>
          <ns3:TrackPointExtension>
            <ns3:atemp>22.0</ns3:atemp>
          </ns3:TrackPointExtension>
        </extensions>
      </trkpt>
      <trkpt lat="42.5121859274804592132568359375" lon="19.890378601849079132080078125">
        <ele>1639</ele>
        <time>2026-06-17T12:36:26.000Z</time>
        <extensions>
          <ns3:TrackPointExtension>
            <ns3:atemp>22.0</ns3:atemp>
          </ns3:TrackPointExtension>
        </extensions>
      </trkpt>
      <trkpt lat="42.5121859274804592132568359375" lon="19.890378601849079132080078125">
        <ele>1639</ele>
        <time>2026-06-17T12:36:27.000Z</time>
        <extensions>
          <ns3:TrackPointExtension>
            <ns3:atemp>22.0</ns3:atemp>
          </ns3:TrackPointExtension>
        </extensions>
      </trkpt>
      <trkpt lat="42.5121859274804592132568359375" lon="19.890378601849079132080078125">
        <ele>1639</ele>
        <time>2026-06-17T12:36:28.000Z</time>
        <extensions>
          <ns3:TrackPointExtension>
            <ns3:atemp>22.0</ns3:atemp>
          </ns3:TrackPointExtension>
        </extensions>
      </trkpt>
      <trkpt lat="42.5121859274804592132568359375" lon="19.890378601849079132080078125">
        <ele>1639</ele>
        <time>2026-06-17T12:36:29.000Z</time>
        <extensions>
          <ns3:TrackPointExtension>
            <ns3:atemp>22.0</ns3:atemp>
          </ns3:TrackPointExtension>
        </extensions>
      </trkpt>
      <trkpt lat="42.5121859274804592132568359375" lon="19.890378601849079132080078125">
        <ele>1639</ele>
        <time>2026-06-17T12:36:30.000Z</time>
        <extensions>
          <ns3:TrackPointExtension>
            <ns3:atemp>22.0</ns3:atemp>
          </ns3:TrackPointExtension>
        </extensions>
      </trkpt>
      <trkpt lat="42.5121859274804592132568359375" lon="19.890378601849079132080078125">
        <ele>1639</ele>
        <time>2026-06-17T12:36:31.000Z</time>
        <extensions>
          <ns3:TrackPointExtension>
            <ns3:atemp>22.0</ns3:atemp>
          </ns3:TrackPointExtension>
        </extensions>
      </trkpt>
      <trkpt lat="42.5121859274804592132568359375" lon="19.890378601849079132080078125">
        <ele>1639</ele>
        <time>2026-06-17T12:36:32.000Z</time>
        <extensions>
          <ns3:TrackPointExtension>
            <ns3:atemp>22.0</ns3:atemp>
          </ns3:TrackPointExtension>
        </extensions>
      </trkpt>
      <trkpt lat="42.5121859274804592132568359375" lon="19.890378601849079132080078125">
        <ele>1639</ele>
        <time>2026-06-17T12:36:33.000Z</time>
        <extensions>
          <ns3:TrackPointExtension>
            <ns3:atemp>22.0</ns3:atemp>
          </ns3:TrackPointExtension>
        </extensions>
      </trkpt>
      <trkpt lat="42.5121859274804592132568359375" lon="19.890378601849079132080078125">
        <ele>1639</ele>
        <time>2026-06-17T12:36:34.000Z</time>
        <extensions>
          <ns3:TrackPointExtension>
            <ns3:atemp>22.0</ns3:atemp>
          </ns3:TrackPointExtension>
        </extensions>
      </trkpt>
      <trkpt lat="42.5121859274804592132568359375" lon="19.890378601849079132080078125">
        <ele>1639</ele>
        <time>2026-06-17T12:36:35.000Z</time>
        <extensions>
          <ns3:TrackPointExtension>
            <ns3:atemp>22.0</ns3:atemp>
          </ns3:TrackPointExtension>
        </extensions>
      </trkpt>
      <trkpt lat="42.5121859274804592132568359375" lon="19.890378601849079132080078125">
        <ele>1639</ele>
        <time>2026-06-17T12:36:36.000Z</time>
        <extensions>
          <ns3:TrackPointExtension>
            <ns3:atemp>22.0</ns3:atemp>
          </ns3:TrackPointExtension>
        </extensions>
      </trkpt>
      <trkpt lat="42.5121859274804592132568359375" lon="19.890378601849079132080078125">
        <ele>1639</ele>
        <time>2026-06-17T12:36:37.000Z</time>
        <extensions>
          <ns3:TrackPointExtension>
            <ns3:atemp>22.0</ns3:atemp>
          </ns3:TrackPointExtension>
        </extensions>
      </trkpt>
      <trkpt lat="42.5121859274804592132568359375" lon="19.890378601849079132080078125">
        <ele>1639</ele>
        <time>2026-06-17T12:36:38.000Z</time>
        <extensions>
          <ns3:TrackPointExtension>
            <ns3:atemp>22.0</ns3:atemp>
          </ns3:TrackPointExtension>
        </extensions>
      </trkpt>
      <trkpt lat="42.5121859274804592132568359375" lon="19.890378601849079132080078125">
        <ele>1639</ele>
        <time>2026-06-17T12:36:39.000Z</time>
        <extensions>
          <ns3:TrackPointExtension>
            <ns3:atemp>22.0</ns3:atemp>
          </ns3:TrackPointExtension>
        </extensions>
      </trkpt>
      <trkpt lat="42.5121859274804592132568359375" lon="19.890378601849079132080078125">
        <ele>1639</ele>
        <time>2026-06-17T12:36:40.000Z</time>
        <extensions>
          <ns3:TrackPointExtension>
            <ns3:atemp>22.0</ns3:atemp>
          </ns3:TrackPointExtension>
        </extensions>
      </trkpt>
      <trkpt lat="42.5121859274804592132568359375" lon="19.890378601849079132080078125">
        <ele>1639</ele>
        <time>2026-06-17T12:36:41.000Z</time>
        <extensions>
          <ns3:TrackPointExtension>
            <ns3:atemp>22.0</ns3:atemp>
          </ns3:TrackPointExtension>
        </extensions>
      </trkpt>
      <trkpt lat="42.5121859274804592132568359375" lon="19.890378601849079132080078125">
        <ele>1639</ele>
        <time>2026-06-17T12:36:42.000Z</time>
        <extensions>
          <ns3:TrackPointExtension>
            <ns3:atemp>22.0</ns3:atemp>
          </ns3:TrackPointExtension>
        </extensions>
      </trkpt>
      <trkpt lat="42.5121859274804592132568359375" lon="19.890378601849079132080078125">
        <ele>1639</ele>
        <time>2026-06-17T12:36:43.000Z</time>
        <extensions>
          <ns3:TrackPointExtension>
            <ns3:atemp>22.0</ns3:atemp>
          </ns3:TrackPointExtension>
        </extensions>
      </trkpt>
      <trkpt lat="42.5121859274804592132568359375" lon="19.890378601849079132080078125">
        <ele>1639</ele>
        <time>2026-06-17T12:36:44.000Z</time>
        <extensions>
          <ns3:TrackPointExtension>
            <ns3:atemp>22.0</ns3:atemp>
          </ns3:TrackPointExtension>
        </extensions>
      </trkpt>
      <trkpt lat="42.5121859274804592132568359375" lon="19.890378601849079132080078125">
        <ele>1639</ele>
        <time>2026-06-17T12:36:45.000Z</time>
        <extensions>
          <ns3:TrackPointExtension>
            <ns3:atemp>22.0</ns3:atemp>
          </ns3:TrackPointExtension>
        </extensions>
      </trkpt>
      <trkpt lat="42.5121859274804592132568359375" lon="19.890378601849079132080078125">
        <ele>1639</ele>
        <time>2026-06-17T12:36:46.000Z</time>
        <extensions>
          <ns3:TrackPointExtension>
            <ns3:atemp>22.0</ns3:atemp>
          </ns3:TrackPointExtension>
        </extensions>
      </trkpt>
      <trkpt lat="42.5121859274804592132568359375" lon="19.890378601849079132080078125">
        <ele>1639</ele>
        <time>2026-06-17T12:36:47.000Z</time>
        <extensions>
          <ns3:TrackPointExtension>
            <ns3:atemp>22.0</ns3:atemp>
          </ns3:TrackPointExtension>
        </extensions>
      </trkpt>
      <trkpt lat="42.5121859274804592132568359375" lon="19.890378601849079132080078125">
        <ele>1639</ele>
        <time>2026-06-17T12:36:48.000Z</time>
        <extensions>
          <ns3:TrackPointExtension>
            <ns3:atemp>22.0</ns3:atemp>
          </ns3:TrackPointExtension>
        </extensions>
      </trkpt>
      <trkpt lat="42.5121859274804592132568359375" lon="19.890378601849079132080078125">
        <ele>1639</ele>
        <time>2026-06-17T12:36:49.000Z</time>
        <extensions>
          <ns3:TrackPointExtension>
            <ns3:atemp>22.0</ns3:atemp>
          </ns3:TrackPointExtension>
        </extensions>
      </trkpt>
      <trkpt lat="42.5121859274804592132568359375" lon="19.890378601849079132080078125">
        <ele>1639</ele>
        <time>2026-06-17T12:36:50.000Z</time>
        <extensions>
          <ns3:TrackPointExtension>
            <ns3:atemp>22.0</ns3:atemp>
          </ns3:TrackPointExtension>
        </extensions>
      </trkpt>
      <trkpt lat="42.5121859274804592132568359375" lon="19.890378601849079132080078125">
        <ele>1639</ele>
        <time>2026-06-17T12:36:51.000Z</time>
        <extensions>
          <ns3:TrackPointExtension>
            <ns3:atemp>22.0</ns3:atemp>
          </ns3:TrackPointExtension>
        </extensions>
      </trkpt>
      <trkpt lat="42.5121859274804592132568359375" lon="19.890378601849079132080078125">
        <ele>1639</ele>
        <time>2026-06-17T12:36:52.000Z</time>
        <extensions>
          <ns3:TrackPointExtension>
            <ns3:atemp>22.0</ns3:atemp>
          </ns3:TrackPointExtension>
        </extensions>
      </trkpt>
      <trkpt lat="42.5121859274804592132568359375" lon="19.890378601849079132080078125">
        <ele>1639</ele>
        <time>2026-06-17T12:36:53.000Z</time>
        <extensions>
          <ns3:TrackPointExtension>
            <ns3:atemp>22.0</ns3:atemp>
          </ns3:TrackPointExtension>
        </extensions>
      </trkpt>
      <trkpt lat="42.5121859274804592132568359375" lon="19.890378601849079132080078125">
        <ele>1639</ele>
        <time>2026-06-17T12:36:54.000Z</time>
        <extensions>
          <ns3:TrackPointExtension>
            <ns3:atemp>22.0</ns3:atemp>
          </ns3:TrackPointExtension>
        </extensions>
      </trkpt>
      <trkpt lat="42.5121859274804592132568359375" lon="19.890378601849079132080078125">
        <ele>1639</ele>
        <time>2026-06-17T12:36:55.000Z</time>
        <extensions>
          <ns3:TrackPointExtension>
            <ns3:atemp>22.0</ns3:atemp>
          </ns3:TrackPointExtension>
        </extensions>
      </trkpt>
      <trkpt lat="42.5121859274804592132568359375" lon="19.890378601849079132080078125">
        <ele>1639</ele>
        <time>2026-06-17T12:36:56.000Z</time>
        <extensions>
          <ns3:TrackPointExtension>
            <ns3:atemp>22.0</ns3:atemp>
          </ns3:TrackPointExtension>
        </extensions>
      </trkpt>
      <trkpt lat="42.5121859274804592132568359375" lon="19.890378601849079132080078125">
        <ele>1639</ele>
        <time>2026-06-17T12:36:57.000Z</time>
        <extensions>
          <ns3:TrackPointExtension>
            <ns3:atemp>22.0</ns3:atemp>
          </ns3:TrackPointExtension>
        </extensions>
      </trkpt>
      <trkpt lat="42.5121859274804592132568359375" lon="19.890378601849079132080078125">
        <ele>1639</ele>
        <time>2026-06-17T12:36:58.000Z</time>
        <extensions>
          <ns3:TrackPointExtension>
            <ns3:atemp>22.0</ns3:atemp>
          </ns3:TrackPointExtension>
        </extensions>
      </trkpt>
      <trkpt lat="42.5121859274804592132568359375" lon="19.890378601849079132080078125">
        <ele>1639</ele>
        <time>2026-06-17T12:36:59.000Z</time>
        <extensions>
          <ns3:TrackPointExtension>
            <ns3:atemp>22.0</ns3:atemp>
          </ns3:TrackPointExtension>
        </extensions>
      </trkpt>
      <trkpt lat="42.5121859274804592132568359375" lon="19.890378601849079132080078125">
        <ele>1639</ele>
        <time>2026-06-17T12:37:00.000Z</time>
        <extensions>
          <ns3:TrackPointExtension>
            <ns3:atemp>22.0</ns3:atemp>
          </ns3:TrackPointExtension>
        </extensions>
      </trkpt>
      <trkpt lat="42.5121859274804592132568359375" lon="19.890378601849079132080078125">
        <ele>1639</ele>
        <time>2026-06-17T12:37:01.000Z</time>
        <extensions>
          <ns3:TrackPointExtension>
            <ns3:atemp>22.0</ns3:atemp>
          </ns3:TrackPointExtension>
        </extensions>
      </trkpt>
      <trkpt lat="42.5121859274804592132568359375" lon="19.890378601849079132080078125">
        <ele>1639</ele>
        <time>2026-06-17T12:37:02.000Z</time>
        <extensions>
          <ns3:TrackPointExtension>
            <ns3:atemp>22.0</ns3:atemp>
          </ns3:TrackPointExtension>
        </extensions>
      </trkpt>
      <trkpt lat="42.5121859274804592132568359375" lon="19.890378601849079132080078125">
        <ele>1639</ele>
        <time>2026-06-17T12:37:03.000Z</time>
        <extensions>
          <ns3:TrackPointExtension>
            <ns3:atemp>22.0</ns3:atemp>
          </ns3:TrackPointExtension>
        </extensions>
      </trkpt>
      <trkpt lat="42.5121859274804592132568359375" lon="19.890378601849079132080078125">
        <ele>1639</ele>
        <time>2026-06-17T12:37:04.000Z</time>
        <extensions>
          <ns3:TrackPointExtension>
            <ns3:atemp>22.0</ns3:atemp>
          </ns3:TrackPointExtension>
        </extensions>
      </trkpt>
      <trkpt lat="42.5121859274804592132568359375" lon="19.890378601849079132080078125">
        <ele>1639</ele>
        <time>2026-06-17T12:37:05.000Z</time>
        <extensions>
          <ns3:TrackPointExtension>
            <ns3:atemp>22.0</ns3:atemp>
          </ns3:TrackPointExtension>
        </extensions>
      </trkpt>
      <trkpt lat="42.5121859274804592132568359375" lon="19.890378601849079132080078125">
        <ele>1639</ele>
        <time>2026-06-17T12:37:06.000Z</time>
        <extensions>
          <ns3:TrackPointExtension>
            <ns3:atemp>22.0</ns3:atemp>
          </ns3:TrackPointExtension>
        </extensions>
      </trkpt>
      <trkpt lat="42.5121859274804592132568359375" lon="19.890378601849079132080078125">
        <ele>1639</ele>
        <time>2026-06-17T12:37:07.000Z</time>
        <extensions>
          <ns3:TrackPointExtension>
            <ns3:atemp>22.0</ns3:atemp>
          </ns3:TrackPointExtension>
        </extensions>
      </trkpt>
      <trkpt lat="42.5121859274804592132568359375" lon="19.890378601849079132080078125">
        <ele>1639</ele>
        <time>2026-06-17T12:37:08.000Z</time>
        <extensions>
          <ns3:TrackPointExtension>
            <ns3:atemp>22.0</ns3:atemp>
          </ns3:TrackPointExtension>
        </extensions>
      </trkpt>
      <trkpt lat="42.5121859274804592132568359375" lon="19.890378601849079132080078125">
        <ele>1639</ele>
        <time>2026-06-17T12:37:09.000Z</time>
        <extensions>
          <ns3:TrackPointExtension>
            <ns3:atemp>22.0</ns3:atemp>
          </ns3:TrackPointExtension>
        </extensions>
      </trkpt>
      <trkpt lat="42.5121859274804592132568359375" lon="19.890378601849079132080078125">
        <ele>1639</ele>
        <time>2026-06-17T12:37:10.000Z</time>
        <extensions>
          <ns3:TrackPointExtension>
            <ns3:atemp>22.0</ns3:atemp>
          </ns3:TrackPointExtension>
        </extensions>
      </trkpt>
      <trkpt lat="42.5121859274804592132568359375" lon="19.890378601849079132080078125">
        <ele>1639</ele>
        <time>2026-06-17T12:37:11.000Z</time>
        <extensions>
          <ns3:TrackPointExtension>
            <ns3:atemp>22.0</ns3:atemp>
          </ns3:TrackPointExtension>
        </extensions>
      </trkpt>
      <trkpt lat="42.5121859274804592132568359375" lon="19.890378601849079132080078125">
        <ele>1639</ele>
        <time>2026-06-17T12:37:12.000Z</time>
        <extensions>
          <ns3:TrackPointExtension>
            <ns3:atemp>22.0</ns3:atemp>
          </ns3:TrackPointExtension>
        </extensions>
      </trkpt>
      <trkpt lat="42.5121859274804592132568359375" lon="19.890378601849079132080078125">
        <ele>1639</ele>
        <time>2026-06-17T12:37:13.000Z</time>
        <extensions>
          <ns3:TrackPointExtension>
            <ns3:atemp>22.0</ns3:atemp>
          </ns3:TrackPointExtension>
        </extensions>
      </trkpt>
      <trkpt lat="42.5121859274804592132568359375" lon="19.890378601849079132080078125">
        <ele>1639</ele>
        <time>2026-06-17T12:37:14.000Z</time>
        <extensions>
          <ns3:TrackPointExtension>
            <ns3:atemp>22.0</ns3:atemp>
          </ns3:TrackPointExtension>
        </extensions>
      </trkpt>
      <trkpt lat="42.5121859274804592132568359375" lon="19.890378601849079132080078125">
        <ele>1639</ele>
        <time>2026-06-17T12:37:15.000Z</time>
        <extensions>
          <ns3:TrackPointExtension>
            <ns3:atemp>22.0</ns3:atemp>
          </ns3:TrackPointExtension>
        </extensions>
      </trkpt>
      <trkpt lat="42.5121859274804592132568359375" lon="19.890378601849079132080078125">
        <ele>1639</ele>
        <time>2026-06-17T12:37:16.000Z</time>
        <extensions>
          <ns3:TrackPointExtension>
            <ns3:atemp>22.0</ns3:atemp>
          </ns3:TrackPointExtension>
        </extensions>
      </trkpt>
      <trkpt lat="42.5121859274804592132568359375" lon="19.890378601849079132080078125">
        <ele>1639</ele>
        <time>2026-06-17T12:37:17.000Z</time>
        <extensions>
          <ns3:TrackPointExtension>
            <ns3:atemp>22.0</ns3:atemp>
          </ns3:TrackPointExtension>
        </extensions>
      </trkpt>
      <trkpt lat="42.5121859274804592132568359375" lon="19.890378601849079132080078125">
        <ele>1639</ele>
        <time>2026-06-17T12:37:18.000Z</time>
        <extensions>
          <ns3:TrackPointExtension>
            <ns3:atemp>22.0</ns3:atemp>
          </ns3:TrackPointExtension>
        </extensions>
      </trkpt>
      <trkpt lat="42.5121859274804592132568359375" lon="19.890378601849079132080078125">
        <ele>1639</ele>
        <time>2026-06-17T12:37:19.000Z</time>
        <extensions>
          <ns3:TrackPointExtension>
            <ns3:atemp>22.0</ns3:atemp>
          </ns3:TrackPointExtension>
        </extensions>
      </trkpt>
      <trkpt lat="42.5121859274804592132568359375" lon="19.890378601849079132080078125">
        <ele>1639</ele>
        <time>2026-06-17T12:37:20.000Z</time>
        <extensions>
          <ns3:TrackPointExtension>
            <ns3:atemp>22.0</ns3:atemp>
          </ns3:TrackPointExtension>
        </extensions>
      </trkpt>
      <trkpt lat="42.5121859274804592132568359375" lon="19.890378601849079132080078125">
        <ele>1639</ele>
        <time>2026-06-17T12:37:21.000Z</time>
        <extensions>
          <ns3:TrackPointExtension>
            <ns3:atemp>22.0</ns3:atemp>
          </ns3:TrackPointExtension>
        </extensions>
      </trkpt>
      <trkpt lat="42.5121859274804592132568359375" lon="19.890378601849079132080078125">
        <ele>1639</ele>
        <time>2026-06-17T12:37:22.000Z</time>
        <extensions>
          <ns3:TrackPointExtension>
            <ns3:atemp>22.0</ns3:atemp>
          </ns3:TrackPointExtension>
        </extensions>
      </trkpt>
      <trkpt lat="42.5121859274804592132568359375" lon="19.890378601849079132080078125">
        <ele>1639</ele>
        <time>2026-06-17T12:37:23.000Z</time>
        <extensions>
          <ns3:TrackPointExtension>
            <ns3:atemp>22.0</ns3:atemp>
          </ns3:TrackPointExtension>
        </extensions>
      </trkpt>
      <trkpt lat="42.5121859274804592132568359375" lon="19.890378601849079132080078125">
        <ele>1639</ele>
        <time>2026-06-17T12:37:24.000Z</time>
        <extensions>
          <ns3:TrackPointExtension>
            <ns3:atemp>22.0</ns3:atemp>
          </ns3:TrackPointExtension>
        </extensions>
      </trkpt>
      <trkpt lat="42.5121859274804592132568359375" lon="19.890378601849079132080078125">
        <ele>1639</ele>
        <time>2026-06-17T12:37:25.000Z</time>
        <extensions>
          <ns3:TrackPointExtension>
            <ns3:atemp>22.0</ns3:atemp>
          </ns3:TrackPointExtension>
        </extensions>
      </trkpt>
      <trkpt lat="42.5121859274804592132568359375" lon="19.890378601849079132080078125">
        <ele>1639</ele>
        <time>2026-06-17T12:37:26.000Z</time>
        <extensions>
          <ns3:TrackPointExtension>
            <ns3:atemp>22.0</ns3:atemp>
          </ns3:TrackPointExtension>
        </extensions>
      </trkpt>
      <trkpt lat="42.5121859274804592132568359375" lon="19.890378601849079132080078125">
        <ele>1639</ele>
        <time>2026-06-17T12:37:27.000Z</time>
        <extensions>
          <ns3:TrackPointExtension>
            <ns3:atemp>22.0</ns3:atemp>
          </ns3:TrackPointExtension>
        </extensions>
      </trkpt>
      <trkpt lat="42.5121859274804592132568359375" lon="19.890378601849079132080078125">
        <ele>1639</ele>
        <time>2026-06-17T12:37:28.000Z</time>
        <extensions>
          <ns3:TrackPointExtension>
            <ns3:atemp>22.0</ns3:atemp>
          </ns3:TrackPointExtension>
        </extensions>
      </trkpt>
      <trkpt lat="42.5121859274804592132568359375" lon="19.890378601849079132080078125">
        <ele>1639</ele>
        <time>2026-06-17T12:37:29.000Z</time>
        <extensions>
          <ns3:TrackPointExtension>
            <ns3:atemp>22.0</ns3:atemp>
          </ns3:TrackPointExtension>
        </extensions>
      </trkpt>
      <trkpt lat="42.5121859274804592132568359375" lon="19.890378601849079132080078125">
        <ele>1639</ele>
        <time>2026-06-17T12:37:30.000Z</time>
        <extensions>
          <ns3:TrackPointExtension>
            <ns3:atemp>22.0</ns3:atemp>
          </ns3:TrackPointExtension>
        </extensions>
      </trkpt>
      <trkpt lat="42.5121859274804592132568359375" lon="19.890378601849079132080078125">
        <ele>1639</ele>
        <time>2026-06-17T12:37:31.000Z</time>
        <extensions>
          <ns3:TrackPointExtension>
            <ns3:atemp>22.0</ns3:atemp>
          </ns3:TrackPointExtension>
        </extensions>
      </trkpt>
      <trkpt lat="42.5121859274804592132568359375" lon="19.890378601849079132080078125">
        <ele>1639</ele>
        <time>2026-06-17T12:37:32.000Z</time>
        <extensions>
          <ns3:TrackPointExtension>
            <ns3:atemp>22.0</ns3:atemp>
          </ns3:TrackPointExtension>
        </extensions>
      </trkpt>
      <trkpt lat="42.5121859274804592132568359375" lon="19.890378601849079132080078125">
        <ele>1639</ele>
        <time>2026-06-17T12:37:33.000Z</time>
        <extensions>
          <ns3:TrackPointExtension>
            <ns3:atemp>22.0</ns3:atemp>
          </ns3:TrackPointExtension>
        </extensions>
      </trkpt>
      <trkpt lat="42.5121859274804592132568359375" lon="19.890378601849079132080078125">
        <ele>1639</ele>
        <time>2026-06-17T12:37:34.000Z</time>
        <extensions>
          <ns3:TrackPointExtension>
            <ns3:atemp>22.0</ns3:atemp>
          </ns3:TrackPointExtension>
        </extensions>
      </trkpt>
      <trkpt lat="42.5121859274804592132568359375" lon="19.890378601849079132080078125">
        <ele>1639</ele>
        <time>2026-06-17T12:37:35.000Z</time>
        <extensions>
          <ns3:TrackPointExtension>
            <ns3:atemp>22.0</ns3:atemp>
          </ns3:TrackPointExtension>
        </extensions>
      </trkpt>
      <trkpt lat="42.5121859274804592132568359375" lon="19.890378601849079132080078125">
        <ele>1639</ele>
        <time>2026-06-17T12:37:36.000Z</time>
        <extensions>
          <ns3:TrackPointExtension>
            <ns3:atemp>22.0</ns3:atemp>
          </ns3:TrackPointExtension>
        </extensions>
      </trkpt>
      <trkpt lat="42.5121859274804592132568359375" lon="19.890378601849079132080078125">
        <ele>1639</ele>
        <time>2026-06-17T12:37:37.000Z</time>
        <extensions>
          <ns3:TrackPointExtension>
            <ns3:atemp>22.0</ns3:atemp>
          </ns3:TrackPointExtension>
        </extensions>
      </trkpt>
      <trkpt lat="42.5121859274804592132568359375" lon="19.890378601849079132080078125">
        <ele>1639</ele>
        <time>2026-06-17T12:37:38.000Z</time>
        <extensions>
          <ns3:TrackPointExtension>
            <ns3:atemp>22.0</ns3:atemp>
          </ns3:TrackPointExtension>
        </extensions>
      </trkpt>
      <trkpt lat="42.5121859274804592132568359375" lon="19.890378601849079132080078125">
        <ele>1639</ele>
        <time>2026-06-17T12:37:39.000Z</time>
        <extensions>
          <ns3:TrackPointExtension>
            <ns3:atemp>22.0</ns3:atemp>
          </ns3:TrackPointExtension>
        </extensions>
      </trkpt>
      <trkpt lat="42.5121859274804592132568359375" lon="19.890378601849079132080078125">
        <ele>1639</ele>
        <time>2026-06-17T12:37:40.000Z</time>
        <extensions>
          <ns3:TrackPointExtension>
            <ns3:atemp>22.0</ns3:atemp>
          </ns3:TrackPointExtension>
        </extensions>
      </trkpt>
      <trkpt lat="42.5121859274804592132568359375" lon="19.890378601849079132080078125">
        <ele>1639</ele>
        <time>2026-06-17T12:37:41.000Z</time>
        <extensions>
          <ns3:TrackPointExtension>
            <ns3:atemp>22.0</ns3:atemp>
          </ns3:TrackPointExtension>
        </extensions>
      </trkpt>
      <trkpt lat="42.5121859274804592132568359375" lon="19.890378601849079132080078125">
        <ele>1639</ele>
        <time>2026-06-17T12:37:42.000Z</time>
        <extensions>
          <ns3:TrackPointExtension>
            <ns3:atemp>22.0</ns3:atemp>
          </ns3:TrackPointExtension>
        </extensions>
      </trkpt>
      <trkpt lat="42.5121859274804592132568359375" lon="19.890378601849079132080078125">
        <ele>1639</ele>
        <time>2026-06-17T12:37:43.000Z</time>
        <extensions>
          <ns3:TrackPointExtension>
            <ns3:atemp>22.0</ns3:atemp>
          </ns3:TrackPointExtension>
        </extensions>
      </trkpt>
      <trkpt lat="42.5121859274804592132568359375" lon="19.890378601849079132080078125">
        <ele>1639</ele>
        <time>2026-06-17T12:37:44.000Z</time>
        <extensions>
          <ns3:TrackPointExtension>
            <ns3:atemp>22.0</ns3:atemp>
          </ns3:TrackPointExtension>
        </extensions>
      </trkpt>
      <trkpt lat="42.5121859274804592132568359375" lon="19.890378601849079132080078125">
        <ele>1639</ele>
        <time>2026-06-17T12:37:45.000Z</time>
        <extensions>
          <ns3:TrackPointExtension>
            <ns3:atemp>22.0</ns3:atemp>
          </ns3:TrackPointExtension>
        </extensions>
      </trkpt>
      <trkpt lat="42.5121859274804592132568359375" lon="19.890378601849079132080078125">
        <ele>1639</ele>
        <time>2026-06-17T12:37:46.000Z</time>
        <extensions>
          <ns3:TrackPointExtension>
            <ns3:atemp>22.0</ns3:atemp>
          </ns3:TrackPointExtension>
        </extensions>
      </trkpt>
      <trkpt lat="42.5121859274804592132568359375" lon="19.890378601849079132080078125">
        <ele>1639</ele>
        <time>2026-06-17T12:37:47.000Z</time>
        <extensions>
          <ns3:TrackPointExtension>
            <ns3:atemp>22.0</ns3:atemp>
          </ns3:TrackPointExtension>
        </extensions>
      </trkpt>
      <trkpt lat="42.5121859274804592132568359375" lon="19.890378601849079132080078125">
        <ele>1639</ele>
        <time>2026-06-17T12:37:48.000Z</time>
        <extensions>
          <ns3:TrackPointExtension>
            <ns3:atemp>22.0</ns3:atemp>
          </ns3:TrackPointExtension>
        </extensions>
      </trkpt>
      <trkpt lat="42.5121859274804592132568359375" lon="19.890378601849079132080078125">
        <ele>1639</ele>
        <time>2026-06-17T12:37:49.000Z</time>
        <extensions>
          <ns3:TrackPointExtension>
            <ns3:atemp>22.0</ns3:atemp>
          </ns3:TrackPointExtension>
        </extensions>
      </trkpt>
      <trkpt lat="42.5121859274804592132568359375" lon="19.890378601849079132080078125">
        <ele>1639</ele>
        <time>2026-06-17T12:37:50.000Z</time>
        <extensions>
          <ns3:TrackPointExtension>
            <ns3:atemp>22.0</ns3:atemp>
          </ns3:TrackPointExtension>
        </extensions>
      </trkpt>
      <trkpt lat="42.5121859274804592132568359375" lon="19.890378601849079132080078125">
        <ele>1639</ele>
        <time>2026-06-17T12:37:51.000Z</time>
        <extensions>
          <ns3:TrackPointExtension>
            <ns3:atemp>22.0</ns3:atemp>
          </ns3:TrackPointExtension>
        </extensions>
      </trkpt>
      <trkpt lat="42.5121859274804592132568359375" lon="19.890378601849079132080078125">
        <ele>1639</ele>
        <time>2026-06-17T12:37:52.000Z</time>
        <extensions>
          <ns3:TrackPointExtension>
            <ns3:atemp>22.0</ns3:atemp>
          </ns3:TrackPointExtension>
        </extensions>
      </trkpt>
      <trkpt lat="42.5121859274804592132568359375" lon="19.890378601849079132080078125">
        <ele>1639</ele>
        <time>2026-06-17T12:37:53.000Z</time>
        <extensions>
          <ns3:TrackPointExtension>
            <ns3:atemp>22.0</ns3:atemp>
          </ns3:TrackPointExtension>
        </extensions>
      </trkpt>
      <trkpt lat="42.5121859274804592132568359375" lon="19.890378601849079132080078125">
        <ele>1639</ele>
        <time>2026-06-17T12:37:54.000Z</time>
        <extensions>
          <ns3:TrackPointExtension>
            <ns3:atemp>22.0</ns3:atemp>
          </ns3:TrackPointExtension>
        </extensions>
      </trkpt>
      <trkpt lat="42.5121859274804592132568359375" lon="19.890378601849079132080078125">
        <ele>1639</ele>
        <time>2026-06-17T12:37:55.000Z</time>
        <extensions>
          <ns3:TrackPointExtension>
            <ns3:atemp>22.0</ns3:atemp>
          </ns3:TrackPointExtension>
        </extensions>
      </trkpt>
      <trkpt lat="42.5121859274804592132568359375" lon="19.890378601849079132080078125">
        <ele>1639</ele>
        <time>2026-06-17T12:37:56.000Z</time>
        <extensions>
          <ns3:TrackPointExtension>
            <ns3:atemp>22.0</ns3:atemp>
          </ns3:TrackPointExtension>
        </extensions>
      </trkpt>
      <trkpt lat="42.5121859274804592132568359375" lon="19.890378601849079132080078125">
        <ele>1639</ele>
        <time>2026-06-17T12:37:57.000Z</time>
        <extensions>
          <ns3:TrackPointExtension>
            <ns3:atemp>22.0</ns3:atemp>
          </ns3:TrackPointExtension>
        </extensions>
      </trkpt>
      <trkpt lat="42.5121859274804592132568359375" lon="19.890378601849079132080078125">
        <ele>1639</ele>
        <time>2026-06-17T12:37:58.000Z</time>
        <extensions>
          <ns3:TrackPointExtension>
            <ns3:atemp>22.0</ns3:atemp>
          </ns3:TrackPointExtension>
        </extensions>
      </trkpt>
      <trkpt lat="42.5121859274804592132568359375" lon="19.890378601849079132080078125">
        <ele>1639</ele>
        <time>2026-06-17T12:37:59.000Z</time>
        <extensions>
          <ns3:TrackPointExtension>
            <ns3:atemp>22.0</ns3:atemp>
          </ns3:TrackPointExtension>
        </extensions>
      </trkpt>
      <trkpt lat="42.5121859274804592132568359375" lon="19.890378601849079132080078125">
        <ele>1639</ele>
        <time>2026-06-17T12:38:00.000Z</time>
        <extensions>
          <ns3:TrackPointExtension>
            <ns3:atemp>22.0</ns3:atemp>
          </ns3:TrackPointExtension>
        </extensions>
      </trkpt>
      <trkpt lat="42.5121859274804592132568359375" lon="19.890378601849079132080078125">
        <ele>1639</ele>
        <time>2026-06-17T12:38:01.000Z</time>
        <extensions>
          <ns3:TrackPointExtension>
            <ns3:atemp>22.0</ns3:atemp>
          </ns3:TrackPointExtension>
        </extensions>
      </trkpt>
      <trkpt lat="42.5121859274804592132568359375" lon="19.890378601849079132080078125">
        <ele>1639</ele>
        <time>2026-06-17T12:38:02.000Z</time>
        <extensions>
          <ns3:TrackPointExtension>
            <ns3:atemp>22.0</ns3:atemp>
          </ns3:TrackPointExtension>
        </extensions>
      </trkpt>
      <trkpt lat="42.5121859274804592132568359375" lon="19.890378601849079132080078125">
        <ele>1639</ele>
        <time>2026-06-17T12:38:03.000Z</time>
        <extensions>
          <ns3:TrackPointExtension>
            <ns3:atemp>22.0</ns3:atemp>
          </ns3:TrackPointExtension>
        </extensions>
      </trkpt>
      <trkpt lat="42.5121859274804592132568359375" lon="19.890378601849079132080078125">
        <ele>1639</ele>
        <time>2026-06-17T12:38:04.000Z</time>
        <extensions>
          <ns3:TrackPointExtension>
            <ns3:atemp>22.0</ns3:atemp>
          </ns3:TrackPointExtension>
        </extensions>
      </trkpt>
      <trkpt lat="42.5121859274804592132568359375" lon="19.890378601849079132080078125">
        <ele>1639</ele>
        <time>2026-06-17T12:38:05.000Z</time>
        <extensions>
          <ns3:TrackPointExtension>
            <ns3:atemp>22.0</ns3:atemp>
          </ns3:TrackPointExtension>
        </extensions>
      </trkpt>
      <trkpt lat="42.5121859274804592132568359375" lon="19.890378601849079132080078125">
        <ele>1639</ele>
        <time>2026-06-17T12:38:06.000Z</time>
        <extensions>
          <ns3:TrackPointExtension>
            <ns3:atemp>22.0</ns3:atemp>
          </ns3:TrackPointExtension>
        </extensions>
      </trkpt>
      <trkpt lat="42.5121859274804592132568359375" lon="19.890378601849079132080078125">
        <ele>1639</ele>
        <time>2026-06-17T12:38:07.000Z</time>
        <extensions>
          <ns3:TrackPointExtension>
            <ns3:atemp>22.0</ns3:atemp>
          </ns3:TrackPointExtension>
        </extensions>
      </trkpt>
      <trkpt lat="42.5121859274804592132568359375" lon="19.890378601849079132080078125">
        <ele>1639</ele>
        <time>2026-06-17T12:38:08.000Z</time>
        <extensions>
          <ns3:TrackPointExtension>
            <ns3:atemp>22.0</ns3:atemp>
          </ns3:TrackPointExtension>
        </extensions>
      </trkpt>
      <trkpt lat="42.5121859274804592132568359375" lon="19.890378601849079132080078125">
        <ele>1639</ele>
        <time>2026-06-17T12:38:09.000Z</time>
        <extensions>
          <ns3:TrackPointExtension>
            <ns3:atemp>22.0</ns3:atemp>
          </ns3:TrackPointExtension>
        </extensions>
      </trkpt>
      <trkpt lat="42.5121859274804592132568359375" lon="19.890378601849079132080078125">
        <ele>1639</ele>
        <time>2026-06-17T12:38:10.000Z</time>
        <extensions>
          <ns3:TrackPointExtension>
            <ns3:atemp>22.0</ns3:atemp>
          </ns3:TrackPointExtension>
        </extensions>
      </trkpt>
      <trkpt lat="42.5121859274804592132568359375" lon="19.890378601849079132080078125">
        <ele>1639</ele>
        <time>2026-06-17T12:38:11.000Z</time>
        <extensions>
          <ns3:TrackPointExtension>
            <ns3:atemp>22.0</ns3:atemp>
          </ns3:TrackPointExtension>
        </extensions>
      </trkpt>
      <trkpt lat="42.5121859274804592132568359375" lon="19.890378601849079132080078125">
        <ele>1639</ele>
        <time>2026-06-17T12:38:12.000Z</time>
        <extensions>
          <ns3:TrackPointExtension>
            <ns3:atemp>22.0</ns3:atemp>
          </ns3:TrackPointExtension>
        </extensions>
      </trkpt>
      <trkpt lat="42.5121859274804592132568359375" lon="19.890378601849079132080078125">
        <ele>1639</ele>
        <time>2026-06-17T12:38:13.000Z</time>
        <extensions>
          <ns3:TrackPointExtension>
            <ns3:atemp>22.0</ns3:atemp>
          </ns3:TrackPointExtension>
        </extensions>
      </trkpt>
      <trkpt lat="42.5121859274804592132568359375" lon="19.890378601849079132080078125">
        <ele>1639</ele>
        <time>2026-06-17T12:38:14.000Z</time>
        <extensions>
          <ns3:TrackPointExtension>
            <ns3:atemp>22.0</ns3:atemp>
          </ns3:TrackPointExtension>
        </extensions>
      </trkpt>
      <trkpt lat="42.5121859274804592132568359375" lon="19.890378601849079132080078125">
        <ele>1639</ele>
        <time>2026-06-17T12:38:15.000Z</time>
        <extensions>
          <ns3:TrackPointExtension>
            <ns3:atemp>22.0</ns3:atemp>
          </ns3:TrackPointExtension>
        </extensions>
      </trkpt>
      <trkpt lat="42.5121859274804592132568359375" lon="19.890378601849079132080078125">
        <ele>1639</ele>
        <time>2026-06-17T12:38:16.000Z</time>
        <extensions>
          <ns3:TrackPointExtension>
            <ns3:atemp>22.0</ns3:atemp>
          </ns3:TrackPointExtension>
        </extensions>
      </trkpt>
      <trkpt lat="42.5121859274804592132568359375" lon="19.890378601849079132080078125">
        <ele>1639</ele>
        <time>2026-06-17T12:38:17.000Z</time>
        <extensions>
          <ns3:TrackPointExtension>
            <ns3:atemp>22.0</ns3:atemp>
          </ns3:TrackPointExtension>
        </extensions>
      </trkpt>
      <trkpt lat="42.5121859274804592132568359375" lon="19.890378601849079132080078125">
        <ele>1639</ele>
        <time>2026-06-17T12:38:18.000Z</time>
        <extensions>
          <ns3:TrackPointExtension>
            <ns3:atemp>22.0</ns3:atemp>
          </ns3:TrackPointExtension>
        </extensions>
      </trkpt>
      <trkpt lat="42.5121859274804592132568359375" lon="19.890378601849079132080078125">
        <ele>1639</ele>
        <time>2026-06-17T12:38:19.000Z</time>
        <extensions>
          <ns3:TrackPointExtension>
            <ns3:atemp>22.0</ns3:atemp>
          </ns3:TrackPointExtension>
        </extensions>
      </trkpt>
      <trkpt lat="42.5121859274804592132568359375" lon="19.890378601849079132080078125">
        <ele>1639</ele>
        <time>2026-06-17T12:38:20.000Z</time>
        <extensions>
          <ns3:TrackPointExtension>
            <ns3:atemp>22.0</ns3:atemp>
          </ns3:TrackPointExtension>
        </extensions>
      </trkpt>
      <trkpt lat="42.5121859274804592132568359375" lon="19.890378601849079132080078125">
        <ele>1639</ele>
        <time>2026-06-17T12:38:21.000Z</time>
        <extensions>
          <ns3:TrackPointExtension>
            <ns3:atemp>22.0</ns3:atemp>
          </ns3:TrackPointExtension>
        </extensions>
      </trkpt>
      <trkpt lat="42.5121859274804592132568359375" lon="19.890378601849079132080078125">
        <ele>1639</ele>
        <time>2026-06-17T12:38:22.000Z</time>
        <extensions>
          <ns3:TrackPointExtension>
            <ns3:atemp>22.0</ns3:atemp>
          </ns3:TrackPointExtension>
        </extensions>
      </trkpt>
      <trkpt lat="42.5121859274804592132568359375" lon="19.890378601849079132080078125">
        <ele>1639</ele>
        <time>2026-06-17T12:38:23.000Z</time>
        <extensions>
          <ns3:TrackPointExtension>
            <ns3:atemp>22.0</ns3:atemp>
          </ns3:TrackPointExtension>
        </extensions>
      </trkpt>
      <trkpt lat="42.5121859274804592132568359375" lon="19.890378601849079132080078125">
        <ele>1639</ele>
        <time>2026-06-17T12:38:24.000Z</time>
        <extensions>
          <ns3:TrackPointExtension>
            <ns3:atemp>22.0</ns3:atemp>
          </ns3:TrackPointExtension>
        </extensions>
      </trkpt>
      <trkpt lat="42.5121859274804592132568359375" lon="19.890378601849079132080078125">
        <ele>1639</ele>
        <time>2026-06-17T12:38:25.000Z</time>
        <extensions>
          <ns3:TrackPointExtension>
            <ns3:atemp>22.0</ns3:atemp>
          </ns3:TrackPointExtension>
        </extensions>
      </trkpt>
      <trkpt lat="42.5121859274804592132568359375" lon="19.890378601849079132080078125">
        <ele>1639</ele>
        <time>2026-06-17T12:38:26.000Z</time>
        <extensions>
          <ns3:TrackPointExtension>
            <ns3:atemp>22.0</ns3:atemp>
          </ns3:TrackPointExtension>
        </extensions>
      </trkpt>
      <trkpt lat="42.5121859274804592132568359375" lon="19.890378601849079132080078125">
        <ele>1639</ele>
        <time>2026-06-17T12:38:27.000Z</time>
        <extensions>
          <ns3:TrackPointExtension>
            <ns3:atemp>22.0</ns3:atemp>
          </ns3:TrackPointExtension>
        </extensions>
      </trkpt>
      <trkpt lat="42.5121859274804592132568359375" lon="19.890378601849079132080078125">
        <ele>1639</ele>
        <time>2026-06-17T12:38:28.000Z</time>
        <extensions>
          <ns3:TrackPointExtension>
            <ns3:atemp>22.0</ns3:atemp>
          </ns3:TrackPointExtension>
        </extensions>
      </trkpt>
      <trkpt lat="42.5121859274804592132568359375" lon="19.890378601849079132080078125">
        <ele>1639</ele>
        <time>2026-06-17T12:38:29.000Z</time>
        <extensions>
          <ns3:TrackPointExtension>
            <ns3:atemp>22.0</ns3:atemp>
          </ns3:TrackPointExtension>
        </extensions>
      </trkpt>
      <trkpt lat="42.5121859274804592132568359375" lon="19.890378601849079132080078125">
        <ele>1639</ele>
        <time>2026-06-17T12:38:30.000Z</time>
        <extensions>
          <ns3:TrackPointExtension>
            <ns3:atemp>22.0</ns3:atemp>
          </ns3:TrackPointExtension>
        </extensions>
      </trkpt>
      <trkpt lat="42.5121859274804592132568359375" lon="19.890378601849079132080078125">
        <ele>1639</ele>
        <time>2026-06-17T12:38:31.000Z</time>
        <extensions>
          <ns3:TrackPointExtension>
            <ns3:atemp>22.0</ns3:atemp>
          </ns3:TrackPointExtension>
        </extensions>
      </trkpt>
      <trkpt lat="42.5121859274804592132568359375" lon="19.890378601849079132080078125">
        <ele>1639</ele>
        <time>2026-06-17T12:38:32.000Z</time>
        <extensions>
          <ns3:TrackPointExtension>
            <ns3:atemp>22.0</ns3:atemp>
          </ns3:TrackPointExtension>
        </extensions>
      </trkpt>
      <trkpt lat="42.5121859274804592132568359375" lon="19.890378601849079132080078125">
        <ele>1639</ele>
        <time>2026-06-17T12:38:33.000Z</time>
        <extensions>
          <ns3:TrackPointExtension>
            <ns3:atemp>22.0</ns3:atemp>
          </ns3:TrackPointExtension>
        </extensions>
      </trkpt>
      <trkpt lat="42.5121859274804592132568359375" lon="19.890378601849079132080078125">
        <ele>1639</ele>
        <time>2026-06-17T12:38:34.000Z</time>
        <extensions>
          <ns3:TrackPointExtension>
            <ns3:atemp>22.0</ns3:atemp>
          </ns3:TrackPointExtension>
        </extensions>
      </trkpt>
      <trkpt lat="42.5121859274804592132568359375" lon="19.890378601849079132080078125">
        <ele>1639</ele>
        <time>2026-06-17T12:38:35.000Z</time>
        <extensions>
          <ns3:TrackPointExtension>
            <ns3:atemp>22.0</ns3:atemp>
          </ns3:TrackPointExtension>
        </extensions>
      </trkpt>
      <trkpt lat="42.5121859274804592132568359375" lon="19.890378601849079132080078125">
        <ele>1639</ele>
        <time>2026-06-17T12:38:36.000Z</time>
        <extensions>
          <ns3:TrackPointExtension>
            <ns3:atemp>22.0</ns3:atemp>
          </ns3:TrackPointExtension>
        </extensions>
      </trkpt>
      <trkpt lat="42.5121859274804592132568359375" lon="19.890378601849079132080078125">
        <ele>1639</ele>
        <time>2026-06-17T12:38:37.000Z</time>
        <extensions>
          <ns3:TrackPointExtension>
            <ns3:atemp>22.0</ns3:atemp>
          </ns3:TrackPointExtension>
        </extensions>
      </trkpt>
      <trkpt lat="42.5121859274804592132568359375" lon="19.890378601849079132080078125">
        <ele>1639</ele>
        <time>2026-06-17T12:38:38.000Z</time>
        <extensions>
          <ns3:TrackPointExtension>
            <ns3:atemp>22.0</ns3:atemp>
          </ns3:TrackPointExtension>
        </extensions>
      </trkpt>
      <trkpt lat="42.5121859274804592132568359375" lon="19.890378601849079132080078125">
        <ele>1639</ele>
        <time>2026-06-17T12:38:39.000Z</time>
        <extensions>
          <ns3:TrackPointExtension>
            <ns3:atemp>22.0</ns3:atemp>
          </ns3:TrackPointExtension>
        </extensions>
      </trkpt>
      <trkpt lat="42.5121859274804592132568359375" lon="19.890378601849079132080078125">
        <ele>1639</ele>
        <time>2026-06-17T12:38:40.000Z</time>
        <extensions>
          <ns3:TrackPointExtension>
            <ns3:atemp>22.0</ns3:atemp>
          </ns3:TrackPointExtension>
        </extensions>
      </trkpt>
      <trkpt lat="42.5121859274804592132568359375" lon="19.890378601849079132080078125">
        <ele>1639</ele>
        <time>2026-06-17T12:38:41.000Z</time>
        <extensions>
          <ns3:TrackPointExtension>
            <ns3:atemp>22.0</ns3:atemp>
          </ns3:TrackPointExtension>
        </extensions>
      </trkpt>
      <trkpt lat="42.5121859274804592132568359375" lon="19.890378601849079132080078125">
        <ele>1639</ele>
        <time>2026-06-17T12:38:42.000Z</time>
        <extensions>
          <ns3:TrackPointExtension>
            <ns3:atemp>22.0</ns3:atemp>
          </ns3:TrackPointExtension>
        </extensions>
      </trkpt>
      <trkpt lat="42.5121859274804592132568359375" lon="19.890378601849079132080078125">
        <ele>1639</ele>
        <time>2026-06-17T12:38:43.000Z</time>
        <extensions>
          <ns3:TrackPointExtension>
            <ns3:atemp>22.0</ns3:atemp>
          </ns3:TrackPointExtension>
        </extensions>
      </trkpt>
      <trkpt lat="42.5121859274804592132568359375" lon="19.890378601849079132080078125">
        <ele>1639</ele>
        <time>2026-06-17T12:38:44.000Z</time>
        <extensions>
          <ns3:TrackPointExtension>
            <ns3:atemp>22.0</ns3:atemp>
          </ns3:TrackPointExtension>
        </extensions>
      </trkpt>
      <trkpt lat="42.5121859274804592132568359375" lon="19.890378601849079132080078125">
        <ele>1639</ele>
        <time>2026-06-17T12:38:45.000Z</time>
        <extensions>
          <ns3:TrackPointExtension>
            <ns3:atemp>22.0</ns3:atemp>
          </ns3:TrackPointExtension>
        </extensions>
      </trkpt>
      <trkpt lat="42.5121859274804592132568359375" lon="19.890378601849079132080078125">
        <ele>1639</ele>
        <time>2026-06-17T12:38:46.000Z</time>
        <extensions>
          <ns3:TrackPointExtension>
            <ns3:atemp>22.0</ns3:atemp>
          </ns3:TrackPointExtension>
        </extensions>
      </trkpt>
      <trkpt lat="42.5121859274804592132568359375" lon="19.890378601849079132080078125">
        <ele>1639</ele>
        <time>2026-06-17T12:38:47.000Z</time>
        <extensions>
          <ns3:TrackPointExtension>
            <ns3:atemp>22.0</ns3:atemp>
          </ns3:TrackPointExtension>
        </extensions>
      </trkpt>
      <trkpt lat="42.5121859274804592132568359375" lon="19.890378601849079132080078125">
        <ele>1639</ele>
        <time>2026-06-17T12:38:48.000Z</time>
        <extensions>
          <ns3:TrackPointExtension>
            <ns3:atemp>22.0</ns3:atemp>
          </ns3:TrackPointExtension>
        </extensions>
      </trkpt>
      <trkpt lat="42.5121859274804592132568359375" lon="19.890378601849079132080078125">
        <ele>1639</ele>
        <time>2026-06-17T12:38:49.000Z</time>
        <extensions>
          <ns3:TrackPointExtension>
            <ns3:atemp>22.0</ns3:atemp>
          </ns3:TrackPointExtension>
        </extensions>
      </trkpt>
      <trkpt lat="42.5121859274804592132568359375" lon="19.890378601849079132080078125">
        <ele>1639</ele>
        <time>2026-06-17T12:38:50.000Z</time>
        <extensions>
          <ns3:TrackPointExtension>
            <ns3:atemp>22.0</ns3:atemp>
          </ns3:TrackPointExtension>
        </extensions>
      </trkpt>
      <trkpt lat="42.5121859274804592132568359375" lon="19.890378601849079132080078125">
        <ele>1639</ele>
        <time>2026-06-17T12:38:51.000Z</time>
        <extensions>
          <ns3:TrackPointExtension>
            <ns3:atemp>22.0</ns3:atemp>
          </ns3:TrackPointExtension>
        </extensions>
      </trkpt>
      <trkpt lat="42.5121859274804592132568359375" lon="19.890378601849079132080078125">
        <ele>1639</ele>
        <time>2026-06-17T12:38:52.000Z</time>
        <extensions>
          <ns3:TrackPointExtension>
            <ns3:atemp>22.0</ns3:atemp>
          </ns3:TrackPointExtension>
        </extensions>
      </trkpt>
      <trkpt lat="42.5121859274804592132568359375" lon="19.890378601849079132080078125">
        <ele>1639</ele>
        <time>2026-06-17T12:38:53.000Z</time>
        <extensions>
          <ns3:TrackPointExtension>
            <ns3:atemp>22.0</ns3:atemp>
          </ns3:TrackPointExtension>
        </extensions>
      </trkpt>
      <trkpt lat="42.5121859274804592132568359375" lon="19.890378601849079132080078125">
        <ele>1639</ele>
        <time>2026-06-17T12:38:54.000Z</time>
        <extensions>
          <ns3:TrackPointExtension>
            <ns3:atemp>22.0</ns3:atemp>
          </ns3:TrackPointExtension>
        </extensions>
      </trkpt>
      <trkpt lat="42.5121859274804592132568359375" lon="19.890378601849079132080078125">
        <ele>1639</ele>
        <time>2026-06-17T12:38:55.000Z</time>
        <extensions>
          <ns3:TrackPointExtension>
            <ns3:atemp>22.0</ns3:atemp>
          </ns3:TrackPointExtension>
        </extensions>
      </trkpt>
      <trkpt lat="42.5121859274804592132568359375" lon="19.890378601849079132080078125">
        <ele>1639</ele>
        <time>2026-06-17T12:38:56.000Z</time>
        <extensions>
          <ns3:TrackPointExtension>
            <ns3:atemp>22.0</ns3:atemp>
          </ns3:TrackPointExtension>
        </extensions>
      </trkpt>
      <trkpt lat="42.5121859274804592132568359375" lon="19.890378601849079132080078125">
        <ele>1639</ele>
        <time>2026-06-17T12:38:57.000Z</time>
        <extensions>
          <ns3:TrackPointExtension>
            <ns3:atemp>22.0</ns3:atemp>
          </ns3:TrackPointExtension>
        </extensions>
      </trkpt>
      <trkpt lat="42.5121859274804592132568359375" lon="19.890378601849079132080078125">
        <ele>1639</ele>
        <time>2026-06-17T12:38:58.000Z</time>
        <extensions>
          <ns3:TrackPointExtension>
            <ns3:atemp>22.0</ns3:atemp>
          </ns3:TrackPointExtension>
        </extensions>
      </trkpt>
      <trkpt lat="42.5121859274804592132568359375" lon="19.890378601849079132080078125">
        <ele>1639</ele>
        <time>2026-06-17T12:38:59.000Z</time>
        <extensions>
          <ns3:TrackPointExtension>
            <ns3:atemp>22.0</ns3:atemp>
          </ns3:TrackPointExtension>
        </extensions>
      </trkpt>
      <trkpt lat="42.5121859274804592132568359375" lon="19.890378601849079132080078125">
        <ele>1639</ele>
        <time>2026-06-17T12:39:00.000Z</time>
        <extensions>
          <ns3:TrackPointExtension>
            <ns3:atemp>22.0</ns3:atemp>
          </ns3:TrackPointExtension>
        </extensions>
      </trkpt>
      <trkpt lat="42.5121859274804592132568359375" lon="19.890378601849079132080078125">
        <ele>1639</ele>
        <time>2026-06-17T12:39:01.000Z</time>
        <extensions>
          <ns3:TrackPointExtension>
            <ns3:atemp>22.0</ns3:atemp>
          </ns3:TrackPointExtension>
        </extensions>
      </trkpt>
      <trkpt lat="42.5121859274804592132568359375" lon="19.890378601849079132080078125">
        <ele>1639</ele>
        <time>2026-06-17T12:39:02.000Z</time>
        <extensions>
          <ns3:TrackPointExtension>
            <ns3:atemp>22.0</ns3:atemp>
          </ns3:TrackPointExtension>
        </extensions>
      </trkpt>
      <trkpt lat="42.5121859274804592132568359375" lon="19.890378601849079132080078125">
        <ele>1639</ele>
        <time>2026-06-17T12:39:03.000Z</time>
        <extensions>
          <ns3:TrackPointExtension>
            <ns3:atemp>22.0</ns3:atemp>
          </ns3:TrackPointExtension>
        </extensions>
      </trkpt>
      <trkpt lat="42.5121859274804592132568359375" lon="19.890378601849079132080078125">
        <ele>1639</ele>
        <time>2026-06-17T12:39:04.000Z</time>
        <extensions>
          <ns3:TrackPointExtension>
            <ns3:atemp>22.0</ns3:atemp>
          </ns3:TrackPointExtension>
        </extensions>
      </trkpt>
      <trkpt lat="42.5121859274804592132568359375" lon="19.890378601849079132080078125">
        <ele>1639</ele>
        <time>2026-06-17T12:39:05.000Z</time>
        <extensions>
          <ns3:TrackPointExtension>
            <ns3:atemp>22.0</ns3:atemp>
          </ns3:TrackPointExtension>
        </extensions>
      </trkpt>
      <trkpt lat="42.5121859274804592132568359375" lon="19.890378601849079132080078125">
        <ele>1639</ele>
        <time>2026-06-17T12:39:06.000Z</time>
        <extensions>
          <ns3:TrackPointExtension>
            <ns3:atemp>22.0</ns3:atemp>
          </ns3:TrackPointExtension>
        </extensions>
      </trkpt>
      <trkpt lat="42.5121859274804592132568359375" lon="19.890378601849079132080078125">
        <ele>1639</ele>
        <time>2026-06-17T12:39:07.000Z</time>
        <extensions>
          <ns3:TrackPointExtension>
            <ns3:atemp>22.0</ns3:atemp>
          </ns3:TrackPointExtension>
        </extensions>
      </trkpt>
      <trkpt lat="42.5121859274804592132568359375" lon="19.890378601849079132080078125">
        <ele>1639</ele>
        <time>2026-06-17T12:39:08.000Z</time>
        <extensions>
          <ns3:TrackPointExtension>
            <ns3:atemp>22.0</ns3:atemp>
          </ns3:TrackPointExtension>
        </extensions>
      </trkpt>
      <trkpt lat="42.5121859274804592132568359375" lon="19.890378601849079132080078125">
        <ele>1639</ele>
        <time>2026-06-17T12:39:09.000Z</time>
        <extensions>
          <ns3:TrackPointExtension>
            <ns3:atemp>22.0</ns3:atemp>
          </ns3:TrackPointExtension>
        </extensions>
      </trkpt>
      <trkpt lat="42.5121859274804592132568359375" lon="19.890378601849079132080078125">
        <ele>1639</ele>
        <time>2026-06-17T12:39:10.000Z</time>
        <extensions>
          <ns3:TrackPointExtension>
            <ns3:atemp>22.0</ns3:atemp>
          </ns3:TrackPointExtension>
        </extensions>
      </trkpt>
      <trkpt lat="42.5121859274804592132568359375" lon="19.890378601849079132080078125">
        <ele>1639</ele>
        <time>2026-06-17T12:39:11.000Z</time>
        <extensions>
          <ns3:TrackPointExtension>
            <ns3:atemp>22.0</ns3:atemp>
          </ns3:TrackPointExtension>
        </extensions>
      </trkpt>
      <trkpt lat="42.5121859274804592132568359375" lon="19.890378601849079132080078125">
        <ele>1639</ele>
        <time>2026-06-17T12:39:12.000Z</time>
        <extensions>
          <ns3:TrackPointExtension>
            <ns3:atemp>22.0</ns3:atemp>
          </ns3:TrackPointExtension>
        </extensions>
      </trkpt>
      <trkpt lat="42.5121859274804592132568359375" lon="19.890378601849079132080078125">
        <ele>1639</ele>
        <time>2026-06-17T12:39:13.000Z</time>
        <extensions>
          <ns3:TrackPointExtension>
            <ns3:atemp>22.0</ns3:atemp>
          </ns3:TrackPointExtension>
        </extensions>
      </trkpt>
      <trkpt lat="42.5121859274804592132568359375" lon="19.890378601849079132080078125">
        <ele>1639</ele>
        <time>2026-06-17T12:39:14.000Z</time>
        <extensions>
          <ns3:TrackPointExtension>
            <ns3:atemp>22.0</ns3:atemp>
          </ns3:TrackPointExtension>
        </extensions>
      </trkpt>
      <trkpt lat="42.5121859274804592132568359375" lon="19.890378601849079132080078125">
        <ele>1639</ele>
        <time>2026-06-17T12:39:15.000Z</time>
        <extensions>
          <ns3:TrackPointExtension>
            <ns3:atemp>22.0</ns3:atemp>
          </ns3:TrackPointExtension>
        </extensions>
      </trkpt>
      <trkpt lat="42.5121859274804592132568359375" lon="19.890378601849079132080078125">
        <ele>1639</ele>
        <time>2026-06-17T12:39:16.000Z</time>
        <extensions>
          <ns3:TrackPointExtension>
            <ns3:atemp>22.0</ns3:atemp>
          </ns3:TrackPointExtension>
        </extensions>
      </trkpt>
      <trkpt lat="42.5121859274804592132568359375" lon="19.890378601849079132080078125">
        <ele>1639</ele>
        <time>2026-06-17T12:39:17.000Z</time>
        <extensions>
          <ns3:TrackPointExtension>
            <ns3:atemp>22.0</ns3:atemp>
          </ns3:TrackPointExtension>
        </extensions>
      </trkpt>
      <trkpt lat="42.5121859274804592132568359375" lon="19.890378601849079132080078125">
        <ele>1639</ele>
        <time>2026-06-17T12:39:18.000Z</time>
        <extensions>
          <ns3:TrackPointExtension>
            <ns3:atemp>22.0</ns3:atemp>
          </ns3:TrackPointExtension>
        </extensions>
      </trkpt>
      <trkpt lat="42.5121859274804592132568359375" lon="19.890378601849079132080078125">
        <ele>1639</ele>
        <time>2026-06-17T12:39:19.000Z</time>
        <extensions>
          <ns3:TrackPointExtension>
            <ns3:atemp>22.0</ns3:atemp>
          </ns3:TrackPointExtension>
        </extensions>
      </trkpt>
      <trkpt lat="42.5121859274804592132568359375" lon="19.890378601849079132080078125">
        <ele>1639</ele>
        <time>2026-06-17T12:39:20.000Z</time>
        <extensions>
          <ns3:TrackPointExtension>
            <ns3:atemp>22.0</ns3:atemp>
          </ns3:TrackPointExtension>
        </extensions>
      </trkpt>
      <trkpt lat="42.5121859274804592132568359375" lon="19.890378601849079132080078125">
        <ele>1639</ele>
        <time>2026-06-17T12:39:21.000Z</time>
        <extensions>
          <ns3:TrackPointExtension>
            <ns3:atemp>22.0</ns3:atemp>
          </ns3:TrackPointExtension>
        </extensions>
      </trkpt>
      <trkpt lat="42.5121859274804592132568359375" lon="19.890378601849079132080078125">
        <ele>1639</ele>
        <time>2026-06-17T12:39:22.000Z</time>
        <extensions>
          <ns3:TrackPointExtension>
            <ns3:atemp>22.0</ns3:atemp>
          </ns3:TrackPointExtension>
        </extensions>
      </trkpt>
      <trkpt lat="42.5121859274804592132568359375" lon="19.890378601849079132080078125">
        <ele>1639</ele>
        <time>2026-06-17T12:39:23.000Z</time>
        <extensions>
          <ns3:TrackPointExtension>
            <ns3:atemp>22.0</ns3:atemp>
          </ns3:TrackPointExtension>
        </extensions>
      </trkpt>
      <trkpt lat="42.5121859274804592132568359375" lon="19.890378601849079132080078125">
        <ele>1639</ele>
        <time>2026-06-17T12:39:24.000Z</time>
        <extensions>
          <ns3:TrackPointExtension>
            <ns3:atemp>22.0</ns3:atemp>
          </ns3:TrackPointExtension>
        </extensions>
      </trkpt>
      <trkpt lat="42.5121859274804592132568359375" lon="19.890378601849079132080078125">
        <ele>1639</ele>
        <time>2026-06-17T12:39:25.000Z</time>
        <extensions>
          <ns3:TrackPointExtension>
            <ns3:atemp>22.0</ns3:atemp>
          </ns3:TrackPointExtension>
        </extensions>
      </trkpt>
      <trkpt lat="42.5121859274804592132568359375" lon="19.890378601849079132080078125">
        <ele>1639</ele>
        <time>2026-06-17T12:39:26.000Z</time>
        <extensions>
          <ns3:TrackPointExtension>
            <ns3:atemp>22.0</ns3:atemp>
          </ns3:TrackPointExtension>
        </extensions>
      </trkpt>
      <trkpt lat="42.5121859274804592132568359375" lon="19.890378601849079132080078125">
        <ele>1639</ele>
        <time>2026-06-17T12:39:27.000Z</time>
        <extensions>
          <ns3:TrackPointExtension>
            <ns3:atemp>22.0</ns3:atemp>
          </ns3:TrackPointExtension>
        </extensions>
      </trkpt>
      <trkpt lat="42.5121859274804592132568359375" lon="19.890378601849079132080078125">
        <ele>1639</ele>
        <time>2026-06-17T12:39:28.000Z</time>
        <extensions>
          <ns3:TrackPointExtension>
            <ns3:atemp>22.0</ns3:atemp>
          </ns3:TrackPointExtension>
        </extensions>
      </trkpt>
      <trkpt lat="42.5121859274804592132568359375" lon="19.890378601849079132080078125">
        <ele>1639</ele>
        <time>2026-06-17T12:39:29.000Z</time>
        <extensions>
          <ns3:TrackPointExtension>
            <ns3:atemp>22.0</ns3:atemp>
          </ns3:TrackPointExtension>
        </extensions>
      </trkpt>
      <trkpt lat="42.5121859274804592132568359375" lon="19.890378601849079132080078125">
        <ele>1639</ele>
        <time>2026-06-17T12:39:30.000Z</time>
        <extensions>
          <ns3:TrackPointExtension>
            <ns3:atemp>22.0</ns3:atemp>
          </ns3:TrackPointExtension>
        </extensions>
      </trkpt>
      <trkpt lat="42.5121859274804592132568359375" lon="19.890378601849079132080078125">
        <ele>1639</ele>
        <time>2026-06-17T12:39:31.000Z</time>
        <extensions>
          <ns3:TrackPointExtension>
            <ns3:atemp>22.0</ns3:atemp>
          </ns3:TrackPointExtension>
        </extensions>
      </trkpt>
      <trkpt lat="42.5121859274804592132568359375" lon="19.890378601849079132080078125">
        <ele>1639</ele>
        <time>2026-06-17T12:39:32.000Z</time>
        <extensions>
          <ns3:TrackPointExtension>
            <ns3:atemp>22.0</ns3:atemp>
          </ns3:TrackPointExtension>
        </extensions>
      </trkpt>
      <trkpt lat="42.5121859274804592132568359375" lon="19.890378601849079132080078125">
        <ele>1639</ele>
        <time>2026-06-17T12:39:33.000Z</time>
        <extensions>
          <ns3:TrackPointExtension>
            <ns3:atemp>22.0</ns3:atemp>
          </ns3:TrackPointExtension>
        </extensions>
      </trkpt>
      <trkpt lat="42.5121859274804592132568359375" lon="19.890378601849079132080078125">
        <ele>1639</ele>
        <time>2026-06-17T12:39:34.000Z</time>
        <extensions>
          <ns3:TrackPointExtension>
            <ns3:atemp>22.0</ns3:atemp>
          </ns3:TrackPointExtension>
        </extensions>
      </trkpt>
      <trkpt lat="42.5121859274804592132568359375" lon="19.890378601849079132080078125">
        <ele>1639</ele>
        <time>2026-06-17T12:39:35.000Z</time>
        <extensions>
          <ns3:TrackPointExtension>
            <ns3:atemp>22.0</ns3:atemp>
          </ns3:TrackPointExtension>
        </extensions>
      </trkpt>
      <trkpt lat="42.5121859274804592132568359375" lon="19.890378601849079132080078125">
        <ele>1639</ele>
        <time>2026-06-17T12:39:36.000Z</time>
        <extensions>
          <ns3:TrackPointExtension>
            <ns3:atemp>22.0</ns3:atemp>
          </ns3:TrackPointExtension>
        </extensions>
      </trkpt>
      <trkpt lat="42.5121859274804592132568359375" lon="19.890378601849079132080078125">
        <ele>1639</ele>
        <time>2026-06-17T12:39:37.000Z</time>
        <extensions>
          <ns3:TrackPointExtension>
            <ns3:atemp>22.0</ns3:atemp>
          </ns3:TrackPointExtension>
        </extensions>
      </trkpt>
      <trkpt lat="42.5121859274804592132568359375" lon="19.890378601849079132080078125">
        <ele>1639</ele>
        <time>2026-06-17T12:39:38.000Z</time>
        <extensions>
          <ns3:TrackPointExtension>
            <ns3:atemp>22.0</ns3:atemp>
          </ns3:TrackPointExtension>
        </extensions>
      </trkpt>
      <trkpt lat="42.5121859274804592132568359375" lon="19.890378601849079132080078125">
        <ele>1639</ele>
        <time>2026-06-17T12:39:39.000Z</time>
        <extensions>
          <ns3:TrackPointExtension>
            <ns3:atemp>22.0</ns3:atemp>
          </ns3:TrackPointExtension>
        </extensions>
      </trkpt>
      <trkpt lat="42.5121859274804592132568359375" lon="19.890378601849079132080078125">
        <ele>1639</ele>
        <time>2026-06-17T12:39:40.000Z</time>
        <extensions>
          <ns3:TrackPointExtension>
            <ns3:atemp>22.0</ns3:atemp>
          </ns3:TrackPointExtension>
        </extensions>
      </trkpt>
      <trkpt lat="42.5121859274804592132568359375" lon="19.890378601849079132080078125">
        <ele>1639</ele>
        <time>2026-06-17T12:39:41.000Z</time>
        <extensions>
          <ns3:TrackPointExtension>
            <ns3:atemp>22.0</ns3:atemp>
          </ns3:TrackPointExtension>
        </extensions>
      </trkpt>
      <trkpt lat="42.5121859274804592132568359375" lon="19.890378601849079132080078125">
        <ele>1639</ele>
        <time>2026-06-17T12:39:42.000Z</time>
        <extensions>
          <ns3:TrackPointExtension>
            <ns3:atemp>22.0</ns3:atemp>
          </ns3:TrackPointExtension>
        </extensions>
      </trkpt>
      <trkpt lat="42.5121859274804592132568359375" lon="19.890378601849079132080078125">
        <ele>1639</ele>
        <time>2026-06-17T12:39:43.000Z</time>
        <extensions>
          <ns3:TrackPointExtension>
            <ns3:atemp>22.0</ns3:atemp>
          </ns3:TrackPointExtension>
        </extensions>
      </trkpt>
      <trkpt lat="42.5121859274804592132568359375" lon="19.890378601849079132080078125">
        <ele>1639</ele>
        <time>2026-06-17T12:39:44.000Z</time>
        <extensions>
          <ns3:TrackPointExtension>
            <ns3:atemp>22.0</ns3:atemp>
          </ns3:TrackPointExtension>
        </extensions>
      </trkpt>
      <trkpt lat="42.5121859274804592132568359375" lon="19.890378601849079132080078125">
        <ele>1639</ele>
        <time>2026-06-17T12:39:45.000Z</time>
        <extensions>
          <ns3:TrackPointExtension>
            <ns3:atemp>22.0</ns3:atemp>
          </ns3:TrackPointExtension>
        </extensions>
      </trkpt>
      <trkpt lat="42.5121859274804592132568359375" lon="19.890378601849079132080078125">
        <ele>1639</ele>
        <time>2026-06-17T12:39:46.000Z</time>
        <extensions>
          <ns3:TrackPointExtension>
            <ns3:atemp>22.0</ns3:atemp>
          </ns3:TrackPointExtension>
        </extensions>
      </trkpt>
      <trkpt lat="42.5121859274804592132568359375" lon="19.890378601849079132080078125">
        <ele>1639</ele>
        <time>2026-06-17T12:39:47.000Z</time>
        <extensions>
          <ns3:TrackPointExtension>
            <ns3:atemp>22.0</ns3:atemp>
          </ns3:TrackPointExtension>
        </extensions>
      </trkpt>
      <trkpt lat="42.5121859274804592132568359375" lon="19.890378601849079132080078125">
        <ele>1639</ele>
        <time>2026-06-17T12:39:48.000Z</time>
        <extensions>
          <ns3:TrackPointExtension>
            <ns3:atemp>22.0</ns3:atemp>
          </ns3:TrackPointExtension>
        </extensions>
      </trkpt>
      <trkpt lat="42.5121859274804592132568359375" lon="19.890378601849079132080078125">
        <ele>1639</ele>
        <time>2026-06-17T12:39:49.000Z</time>
        <extensions>
          <ns3:TrackPointExtension>
            <ns3:atemp>22.0</ns3:atemp>
          </ns3:TrackPointExtension>
        </extensions>
      </trkpt>
      <trkpt lat="42.5121859274804592132568359375" lon="19.890378601849079132080078125">
        <ele>1639</ele>
        <time>2026-06-17T12:39:50.000Z</time>
        <extensions>
          <ns3:TrackPointExtension>
            <ns3:atemp>22.0</ns3:atemp>
          </ns3:TrackPointExtension>
        </extensions>
      </trkpt>
      <trkpt lat="42.5121859274804592132568359375" lon="19.890378601849079132080078125">
        <ele>1639</ele>
        <time>2026-06-17T12:39:51.000Z</time>
        <extensions>
          <ns3:TrackPointExtension>
            <ns3:atemp>22.0</ns3:atemp>
          </ns3:TrackPointExtension>
        </extensions>
      </trkpt>
      <trkpt lat="42.5121859274804592132568359375" lon="19.890378601849079132080078125">
        <ele>1639</ele>
        <time>2026-06-17T12:39:52.000Z</time>
        <extensions>
          <ns3:TrackPointExtension>
            <ns3:atemp>22.0</ns3:atemp>
          </ns3:TrackPointExtension>
        </extensions>
      </trkpt>
      <trkpt lat="42.5121859274804592132568359375" lon="19.890378601849079132080078125">
        <ele>1639</ele>
        <time>2026-06-17T12:39:53.000Z</time>
        <extensions>
          <ns3:TrackPointExtension>
            <ns3:atemp>22.0</ns3:atemp>
          </ns3:TrackPointExtension>
        </extensions>
      </trkpt>
      <trkpt lat="42.5121859274804592132568359375" lon="19.890378601849079132080078125">
        <ele>1639</ele>
        <time>2026-06-17T12:39:54.000Z</time>
        <extensions>
          <ns3:TrackPointExtension>
            <ns3:atemp>22.0</ns3:atemp>
          </ns3:TrackPointExtension>
        </extensions>
      </trkpt>
      <trkpt lat="42.5121859274804592132568359375" lon="19.890378601849079132080078125">
        <ele>1639</ele>
        <time>2026-06-17T12:39:55.000Z</time>
        <extensions>
          <ns3:TrackPointExtension>
            <ns3:atemp>22.0</ns3:atemp>
          </ns3:TrackPointExtension>
        </extensions>
      </trkpt>
      <trkpt lat="42.5121859274804592132568359375" lon="19.890378601849079132080078125">
        <ele>1639</ele>
        <time>2026-06-17T12:39:56.000Z</time>
        <extensions>
          <ns3:TrackPointExtension>
            <ns3:atemp>22.0</ns3:atemp>
          </ns3:TrackPointExtension>
        </extensions>
      </trkpt>
      <trkpt lat="42.5121859274804592132568359375" lon="19.890378601849079132080078125">
        <ele>1639</ele>
        <time>2026-06-17T12:39:57.000Z</time>
        <extensions>
          <ns3:TrackPointExtension>
            <ns3:atemp>22.0</ns3:atemp>
          </ns3:TrackPointExtension>
        </extensions>
      </trkpt>
      <trkpt lat="42.5121859274804592132568359375" lon="19.890378601849079132080078125">
        <ele>1639</ele>
        <time>2026-06-17T12:39:58.000Z</time>
        <extensions>
          <ns3:TrackPointExtension>
            <ns3:atemp>22.0</ns3:atemp>
          </ns3:TrackPointExtension>
        </extensions>
      </trkpt>
      <trkpt lat="42.5121859274804592132568359375" lon="19.890378601849079132080078125">
        <ele>1639</ele>
        <time>2026-06-17T12:39:59.000Z</time>
        <extensions>
          <ns3:TrackPointExtension>
            <ns3:atemp>22.0</ns3:atemp>
          </ns3:TrackPointExtension>
        </extensions>
      </trkpt>
      <trkpt lat="42.5121859274804592132568359375" lon="19.890378601849079132080078125">
        <ele>1639</ele>
        <time>2026-06-17T12:40:00.000Z</time>
        <extensions>
          <ns3:TrackPointExtension>
            <ns3:atemp>22.0</ns3:atemp>
          </ns3:TrackPointExtension>
        </extensions>
      </trkpt>
      <trkpt lat="42.5121859274804592132568359375" lon="19.890378601849079132080078125">
        <ele>1639</ele>
        <time>2026-06-17T12:40:01.000Z</time>
        <extensions>
          <ns3:TrackPointExtension>
            <ns3:atemp>22.0</ns3:atemp>
          </ns3:TrackPointExtension>
        </extensions>
      </trkpt>
      <trkpt lat="42.5121859274804592132568359375" lon="19.890378601849079132080078125">
        <ele>1639</ele>
        <time>2026-06-17T12:40:02.000Z</time>
        <extensions>
          <ns3:TrackPointExtension>
            <ns3:atemp>22.0</ns3:atemp>
          </ns3:TrackPointExtension>
        </extensions>
      </trkpt>
      <trkpt lat="42.5121859274804592132568359375" lon="19.890378601849079132080078125">
        <ele>1639</ele>
        <time>2026-06-17T12:40:03.000Z</time>
        <extensions>
          <ns3:TrackPointExtension>
            <ns3:atemp>22.0</ns3:atemp>
          </ns3:TrackPointExtension>
        </extensions>
      </trkpt>
      <trkpt lat="42.5121859274804592132568359375" lon="19.890378601849079132080078125">
        <ele>1639</ele>
        <time>2026-06-17T12:40:04.000Z</time>
        <extensions>
          <ns3:TrackPointExtension>
            <ns3:atemp>22.0</ns3:atemp>
          </ns3:TrackPointExtension>
        </extensions>
      </trkpt>
      <trkpt lat="42.5121859274804592132568359375" lon="19.890378601849079132080078125">
        <ele>1639</ele>
        <time>2026-06-17T12:40:05.000Z</time>
        <extensions>
          <ns3:TrackPointExtension>
            <ns3:atemp>22.0</ns3:atemp>
          </ns3:TrackPointExtension>
        </extensions>
      </trkpt>
      <trkpt lat="42.5121859274804592132568359375" lon="19.890378601849079132080078125">
        <ele>1639</ele>
        <time>2026-06-17T12:40:06.000Z</time>
        <extensions>
          <ns3:TrackPointExtension>
            <ns3:atemp>22.0</ns3:atemp>
          </ns3:TrackPointExtension>
        </extensions>
      </trkpt>
      <trkpt lat="42.5121859274804592132568359375" lon="19.890378601849079132080078125">
        <ele>1639</ele>
        <time>2026-06-17T12:40:07.000Z</time>
        <extensions>
          <ns3:TrackPointExtension>
            <ns3:atemp>22.0</ns3:atemp>
          </ns3:TrackPointExtension>
        </extensions>
      </trkpt>
      <trkpt lat="42.5121859274804592132568359375" lon="19.890378601849079132080078125">
        <ele>1639</ele>
        <time>2026-06-17T12:40:08.000Z</time>
        <extensions>
          <ns3:TrackPointExtension>
            <ns3:atemp>22.0</ns3:atemp>
          </ns3:TrackPointExtension>
        </extensions>
      </trkpt>
      <trkpt lat="42.5121859274804592132568359375" lon="19.890378601849079132080078125">
        <ele>1639</ele>
        <time>2026-06-17T12:40:09.000Z</time>
        <extensions>
          <ns3:TrackPointExtension>
            <ns3:atemp>22.0</ns3:atemp>
          </ns3:TrackPointExtension>
        </extensions>
      </trkpt>
      <trkpt lat="42.5121859274804592132568359375" lon="19.890378601849079132080078125">
        <ele>1639</ele>
        <time>2026-06-17T12:40:10.000Z</time>
        <extensions>
          <ns3:TrackPointExtension>
            <ns3:atemp>22.0</ns3:atemp>
          </ns3:TrackPointExtension>
        </extensions>
      </trkpt>
      <trkpt lat="42.5121859274804592132568359375" lon="19.890378601849079132080078125">
        <ele>1639</ele>
        <time>2026-06-17T12:40:11.000Z</time>
        <extensions>
          <ns3:TrackPointExtension>
            <ns3:atemp>22.0</ns3:atemp>
          </ns3:TrackPointExtension>
        </extensions>
      </trkpt>
      <trkpt lat="42.5121859274804592132568359375" lon="19.890378601849079132080078125">
        <ele>1639</ele>
        <time>2026-06-17T12:40:12.000Z</time>
        <extensions>
          <ns3:TrackPointExtension>
            <ns3:atemp>22.0</ns3:atemp>
          </ns3:TrackPointExtension>
        </extensions>
      </trkpt>
      <trkpt lat="42.5121859274804592132568359375" lon="19.890378601849079132080078125">
        <ele>1639</ele>
        <time>2026-06-17T12:40:13.000Z</time>
        <extensions>
          <ns3:TrackPointExtension>
            <ns3:atemp>22.0</ns3:atemp>
          </ns3:TrackPointExtension>
        </extensions>
      </trkpt>
      <trkpt lat="42.5121859274804592132568359375" lon="19.890378601849079132080078125">
        <ele>1639</ele>
        <time>2026-06-17T12:40:14.000Z</time>
        <extensions>
          <ns3:TrackPointExtension>
            <ns3:atemp>22.0</ns3:atemp>
          </ns3:TrackPointExtension>
        </extensions>
      </trkpt>
      <trkpt lat="42.5121859274804592132568359375" lon="19.890378601849079132080078125">
        <ele>1639</ele>
        <time>2026-06-17T12:40:15.000Z</time>
        <extensions>
          <ns3:TrackPointExtension>
            <ns3:atemp>22.0</ns3:atemp>
          </ns3:TrackPointExtension>
        </extensions>
      </trkpt>
      <trkpt lat="42.5121859274804592132568359375" lon="19.890378601849079132080078125">
        <ele>1639</ele>
        <time>2026-06-17T12:40:16.000Z</time>
        <extensions>
          <ns3:TrackPointExtension>
            <ns3:atemp>22.0</ns3:atemp>
          </ns3:TrackPointExtension>
        </extensions>
      </trkpt>
      <trkpt lat="42.5121859274804592132568359375" lon="19.890378601849079132080078125">
        <ele>1639</ele>
        <time>2026-06-17T12:40:17.000Z</time>
        <extensions>
          <ns3:TrackPointExtension>
            <ns3:atemp>22.0</ns3:atemp>
          </ns3:TrackPointExtension>
        </extensions>
      </trkpt>
      <trkpt lat="42.5121859274804592132568359375" lon="19.890378601849079132080078125">
        <ele>1639</ele>
        <time>2026-06-17T12:40:18.000Z</time>
        <extensions>
          <ns3:TrackPointExtension>
            <ns3:atemp>22.0</ns3:atemp>
          </ns3:TrackPointExtension>
        </extensions>
      </trkpt>
      <trkpt lat="42.5121859274804592132568359375" lon="19.890378601849079132080078125">
        <ele>1639</ele>
        <time>2026-06-17T12:40:19.000Z</time>
        <extensions>
          <ns3:TrackPointExtension>
            <ns3:atemp>22.0</ns3:atemp>
          </ns3:TrackPointExtension>
        </extensions>
      </trkpt>
      <trkpt lat="42.5121859274804592132568359375" lon="19.890378601849079132080078125">
        <ele>1639</ele>
        <time>2026-06-17T12:40:20.000Z</time>
        <extensions>
          <ns3:TrackPointExtension>
            <ns3:atemp>22.0</ns3:atemp>
          </ns3:TrackPointExtension>
        </extensions>
      </trkpt>
      <trkpt lat="42.5121859274804592132568359375" lon="19.890378601849079132080078125">
        <ele>1639</ele>
        <time>2026-06-17T12:40:21.000Z</time>
        <extensions>
          <ns3:TrackPointExtension>
            <ns3:atemp>22.0</ns3:atemp>
          </ns3:TrackPointExtension>
        </extensions>
      </trkpt>
      <trkpt lat="42.5121859274804592132568359375" lon="19.890378601849079132080078125">
        <ele>1639</ele>
        <time>2026-06-17T12:40:22.000Z</time>
        <extensions>
          <ns3:TrackPointExtension>
            <ns3:atemp>22.0</ns3:atemp>
          </ns3:TrackPointExtension>
        </extensions>
      </trkpt>
      <trkpt lat="42.5121859274804592132568359375" lon="19.890378601849079132080078125">
        <ele>1639</ele>
        <time>2026-06-17T12:40:23.000Z</time>
        <extensions>
          <ns3:TrackPointExtension>
            <ns3:atemp>22.0</ns3:atemp>
          </ns3:TrackPointExtension>
        </extensions>
      </trkpt>
      <trkpt lat="42.5121859274804592132568359375" lon="19.890378601849079132080078125">
        <ele>1639</ele>
        <time>2026-06-17T12:40:24.000Z</time>
        <extensions>
          <ns3:TrackPointExtension>
            <ns3:atemp>22.0</ns3:atemp>
          </ns3:TrackPointExtension>
        </extensions>
      </trkpt>
      <trkpt lat="42.5121859274804592132568359375" lon="19.890378601849079132080078125">
        <ele>1639</ele>
        <time>2026-06-17T12:40:25.000Z</time>
        <extensions>
          <ns3:TrackPointExtension>
            <ns3:atemp>22.0</ns3:atemp>
          </ns3:TrackPointExtension>
        </extensions>
      </trkpt>
      <trkpt lat="42.5121859274804592132568359375" lon="19.890378601849079132080078125">
        <ele>1639</ele>
        <time>2026-06-17T12:40:26.000Z</time>
        <extensions>
          <ns3:TrackPointExtension>
            <ns3:atemp>22.0</ns3:atemp>
          </ns3:TrackPointExtension>
        </extensions>
      </trkpt>
      <trkpt lat="42.5121859274804592132568359375" lon="19.890378601849079132080078125">
        <ele>1639</ele>
        <time>2026-06-17T12:40:27.000Z</time>
        <extensions>
          <ns3:TrackPointExtension>
            <ns3:atemp>22.0</ns3:atemp>
          </ns3:TrackPointExtension>
        </extensions>
      </trkpt>
      <trkpt lat="42.5121859274804592132568359375" lon="19.890378601849079132080078125">
        <ele>1639</ele>
        <time>2026-06-17T12:40:28.000Z</time>
        <extensions>
          <ns3:TrackPointExtension>
            <ns3:atemp>22.0</ns3:atemp>
          </ns3:TrackPointExtension>
        </extensions>
      </trkpt>
      <trkpt lat="42.5121859274804592132568359375" lon="19.890378601849079132080078125">
        <ele>1639</ele>
        <time>2026-06-17T12:40:29.000Z</time>
        <extensions>
          <ns3:TrackPointExtension>
            <ns3:atemp>22.0</ns3:atemp>
          </ns3:TrackPointExtension>
        </extensions>
      </trkpt>
      <trkpt lat="42.5121859274804592132568359375" lon="19.890378601849079132080078125">
        <ele>1639</ele>
        <time>2026-06-17T12:40:30.000Z</time>
        <extensions>
          <ns3:TrackPointExtension>
            <ns3:atemp>22.0</ns3:atemp>
          </ns3:TrackPointExtension>
        </extensions>
      </trkpt>
      <trkpt lat="42.5121859274804592132568359375" lon="19.890378601849079132080078125">
        <ele>1639</ele>
        <time>2026-06-17T12:40:31.000Z</time>
        <extensions>
          <ns3:TrackPointExtension>
            <ns3:atemp>22.0</ns3:atemp>
          </ns3:TrackPointExtension>
        </extensions>
      </trkpt>
      <trkpt lat="42.5121859274804592132568359375" lon="19.890378601849079132080078125">
        <ele>1639</ele>
        <time>2026-06-17T12:40:32.000Z</time>
        <extensions>
          <ns3:TrackPointExtension>
            <ns3:atemp>22.0</ns3:atemp>
          </ns3:TrackPointExtension>
        </extensions>
      </trkpt>
      <trkpt lat="42.5121859274804592132568359375" lon="19.890378601849079132080078125">
        <ele>1639</ele>
        <time>2026-06-17T12:40:33.000Z</time>
        <extensions>
          <ns3:TrackPointExtension>
            <ns3:atemp>22.0</ns3:atemp>
          </ns3:TrackPointExtension>
        </extensions>
      </trkpt>
      <trkpt lat="42.5121859274804592132568359375" lon="19.890378601849079132080078125">
        <ele>1639</ele>
        <time>2026-06-17T12:40:34.000Z</time>
        <extensions>
          <ns3:TrackPointExtension>
            <ns3:atemp>22.0</ns3:atemp>
          </ns3:TrackPointExtension>
        </extensions>
      </trkpt>
      <trkpt lat="42.5121859274804592132568359375" lon="19.890378601849079132080078125">
        <ele>1639</ele>
        <time>2026-06-17T12:40:35.000Z</time>
        <extensions>
          <ns3:TrackPointExtension>
            <ns3:atemp>22.0</ns3:atemp>
          </ns3:TrackPointExtension>
        </extensions>
      </trkpt>
      <trkpt lat="42.5121859274804592132568359375" lon="19.890378601849079132080078125">
        <ele>1639</ele>
        <time>2026-06-17T12:40:36.000Z</time>
        <extensions>
          <ns3:TrackPointExtension>
            <ns3:atemp>22.0</ns3:atemp>
          </ns3:TrackPointExtension>
        </extensions>
      </trkpt>
      <trkpt lat="42.5121859274804592132568359375" lon="19.890378601849079132080078125">
        <ele>1639</ele>
        <time>2026-06-17T12:40:37.000Z</time>
        <extensions>
          <ns3:TrackPointExtension>
            <ns3:atemp>22.0</ns3:atemp>
          </ns3:TrackPointExtension>
        </extensions>
      </trkpt>
      <trkpt lat="42.5121859274804592132568359375" lon="19.890378601849079132080078125">
        <ele>1639</ele>
        <time>2026-06-17T12:40:38.000Z</time>
        <extensions>
          <ns3:TrackPointExtension>
            <ns3:atemp>22.0</ns3:atemp>
          </ns3:TrackPointExtension>
        </extensions>
      </trkpt>
      <trkpt lat="42.5121859274804592132568359375" lon="19.890378601849079132080078125">
        <ele>1639</ele>
        <time>2026-06-17T12:40:39.000Z</time>
        <extensions>
          <ns3:TrackPointExtension>
            <ns3:atemp>22.0</ns3:atemp>
          </ns3:TrackPointExtension>
        </extensions>
      </trkpt>
      <trkpt lat="42.5121859274804592132568359375" lon="19.890378601849079132080078125">
        <ele>1639</ele>
        <time>2026-06-17T12:40:40.000Z</time>
        <extensions>
          <ns3:TrackPointExtension>
            <ns3:atemp>22.0</ns3:atemp>
          </ns3:TrackPointExtension>
        </extensions>
      </trkpt>
      <trkpt lat="42.5121859274804592132568359375" lon="19.890378601849079132080078125">
        <ele>1639</ele>
        <time>2026-06-17T12:40:41.000Z</time>
        <extensions>
          <ns3:TrackPointExtension>
            <ns3:atemp>22.0</ns3:atemp>
          </ns3:TrackPointExtension>
        </extensions>
      </trkpt>
      <trkpt lat="42.5121859274804592132568359375" lon="19.890378601849079132080078125">
        <ele>1639</ele>
        <time>2026-06-17T12:40:42.000Z</time>
        <extensions>
          <ns3:TrackPointExtension>
            <ns3:atemp>22.0</ns3:atemp>
          </ns3:TrackPointExtension>
        </extensions>
      </trkpt>
      <trkpt lat="42.5121859274804592132568359375" lon="19.890378601849079132080078125">
        <ele>1639</ele>
        <time>2026-06-17T12:40:43.000Z</time>
        <extensions>
          <ns3:TrackPointExtension>
            <ns3:atemp>22.0</ns3:atemp>
          </ns3:TrackPointExtension>
        </extensions>
      </trkpt>
      <trkpt lat="42.512185089290142059326171875" lon="19.89038237370550632476806640625">
        <ele>1639</ele>
        <time>2026-06-17T12:40:44.000Z</time>
        <extensions>
          <ns3:TrackPointExtension>
            <ns3:atemp>22.0</ns3:atemp>
          </ns3:TrackPointExtension>
        </extensions>
      </trkpt>
      <trkpt lat="42.51217427663505077362060546875" lon="19.89037013612687587738037109375">
        <ele>1639</ele>
        <time>2026-06-17T12:40:45.000Z</time>
        <extensions>
          <ns3:TrackPointExtension>
            <ns3:atemp>22.0</ns3:atemp>
          </ns3:TrackPointExtension>
        </extensions>
      </trkpt>
      <trkpt lat="42.51217260025441646575927734375" lon="19.890349097549915313720703125">
        <ele>1639.199951171875</ele>
        <time>2026-06-17T12:40:46.000Z</time>
        <extensions>
          <ns3:TrackPointExtension>
            <ns3:atemp>22.0</ns3:atemp>
          </ns3:TrackPointExtension>
        </extensions>
      </trkpt>
      <trkpt lat="42.5121721811592578887939453125" lon="19.89033023826777935028076171875">
        <ele>1639.199951171875</ele>
        <time>2026-06-17T12:40:47.000Z</time>
        <extensions>
          <ns3:TrackPointExtension>
            <ns3:atemp>22.0</ns3:atemp>
          </ns3:TrackPointExtension>
        </extensions>
      </trkpt>
      <trkpt lat="42.51217192970216274261474609375" lon="19.89031062461435794830322265625">
        <ele>1639</ele>
        <time>2026-06-17T12:40:48.000Z</time>
        <extensions>
          <ns3:TrackPointExtension>
            <ns3:atemp>22.0</ns3:atemp>
          </ns3:TrackPointExtension>
        </extensions>
      </trkpt>
      <trkpt lat="42.5121721811592578887939453125" lon="19.8902922682464122772216796875">
        <ele>1638.800048828125</ele>
        <time>2026-06-17T12:40:49.000Z</time>
        <extensions>
          <ns3:TrackPointExtension>
            <ns3:atemp>22.0</ns3:atemp>
          </ns3:TrackPointExtension>
        </extensions>
      </trkpt>
      <trkpt lat="42.5121758691966533660888671875" lon="19.8902704752981662750244140625">
        <ele>1638.5999755859375</ele>
        <time>2026-06-17T12:40:50.000Z</time>
        <extensions>
          <ns3:TrackPointExtension>
            <ns3:atemp>22.0</ns3:atemp>
          </ns3:TrackPointExtension>
        </extensions>
      </trkpt>
      <trkpt lat="42.5121792219579219818115234375" lon="19.8902584053575992584228515625">
        <ele>1638.4000244140625</ele>
        <time>2026-06-17T12:40:51.000Z</time>
        <extensions>
          <ns3:TrackPointExtension>
            <ns3:atemp>22.0</ns3:atemp>
          </ns3:TrackPointExtension>
        </extensions>
      </trkpt>
      <trkpt lat="42.51218609511852264404296875" lon="19.8902506940066814422607421875">
        <ele>1638.4000244140625</ele>
        <time>2026-06-17T12:40:52.000Z</time>
        <extensions>
          <ns3:TrackPointExtension>
            <ns3:atemp>22.0</ns3:atemp>
          </ns3:TrackPointExtension>
        </extensions>
      </trkpt>
      <trkpt lat="42.51219489611685276031494140625" lon="19.8902439884841442108154296875">
        <ele>1638.199951171875</ele>
        <time>2026-06-17T12:40:53.000Z</time>
        <extensions>
          <ns3:TrackPointExtension>
            <ns3:atemp>22.0</ns3:atemp>
          </ns3:TrackPointExtension>
        </extensions>
      </trkpt>
      <trkpt lat="42.51220126636326313018798828125" lon="19.890235103666782379150390625">
        <ele>1638</ele>
        <time>2026-06-17T12:40:54.000Z</time>
        <extensions>
          <ns3:TrackPointExtension>
            <ns3:atemp>22.0</ns3:atemp>
          </ns3:TrackPointExtension>
        </extensions>
      </trkpt>
      <trkpt lat="42.51220663078129291534423828125" lon="19.89023217000067234039306640625">
        <ele>1637.800048828125</ele>
        <time>2026-06-17T12:40:55.000Z</time>
        <extensions>
          <ns3:TrackPointExtension>
            <ns3:atemp>22.0</ns3:atemp>
          </ns3:TrackPointExtension>
        </extensions>
      </trkpt>
      <trkpt lat="42.51221115700900554656982421875" lon="19.8902289010584354400634765625">
        <ele>1637.5999755859375</ele>
        <time>2026-06-17T12:40:56.000Z</time>
        <extensions>
          <ns3:TrackPointExtension>
            <ns3:atemp>22.0</ns3:atemp>
          </ns3:TrackPointExtension>
        </extensions>
      </trkpt>
      <trkpt lat="42.51221559941768646240234375" lon="19.890221692621707916259765625">
        <ele>1637.5999755859375</ele>
        <time>2026-06-17T12:40:57.000Z</time>
        <extensions>
          <ns3:TrackPointExtension>
            <ns3:atemp>22.0</ns3:atemp>
          </ns3:TrackPointExtension>
        </extensions>
      </trkpt>
      <trkpt lat="42.51222171820700168609619140625" lon="19.890217669308185577392578125">
        <ele>1637.4000244140625</ele>
        <time>2026-06-17T12:40:58.000Z</time>
        <extensions>
          <ns3:TrackPointExtension>
            <ns3:atemp>22.0</ns3:atemp>
          </ns3:TrackPointExtension>
        </extensions>
      </trkpt>
      <trkpt lat="42.51223043538630008697509765625" lon="19.8902118019759654998779296875">
        <ele>1637.199951171875</ele>
        <time>2026-06-17T12:40:59.000Z</time>
        <extensions>
          <ns3:TrackPointExtension>
            <ns3:atemp>22.0</ns3:atemp>
          </ns3:TrackPointExtension>
        </extensions>
      </trkpt>
      <trkpt lat="42.5122395716607570648193359375" lon="19.89020266570150852203369140625">
        <ele>1637</ele>
        <time>2026-06-17T12:41:00.000Z</time>
        <extensions>
          <ns3:TrackPointExtension>
            <ns3:atemp>22.0</ns3:atemp>
          </ns3:TrackPointExtension>
        </extensions>
      </trkpt>
      <trkpt lat="42.51225088723003864288330078125" lon="19.89019093103706836700439453125">
        <ele>1636.800048828125</ele>
        <time>2026-06-17T12:41:01.000Z</time>
        <extensions>
          <ns3:TrackPointExtension>
            <ns3:atemp>22.0</ns3:atemp>
          </ns3:TrackPointExtension>
        </extensions>
      </trkpt>
      <trkpt lat="42.5122632086277008056640625" lon="19.8901799507439136505126953125">
        <ele>1636.800048828125</ele>
        <time>2026-06-17T12:41:02.000Z</time>
        <extensions>
          <ns3:TrackPointExtension>
            <ns3:atemp>22.0</ns3:atemp>
          </ns3:TrackPointExtension>
        </extensions>
      </trkpt>
      <trkpt lat="42.51227192580699920654296875" lon="19.89016863517463207244873046875">
        <ele>1636.5999755859375</ele>
        <time>2026-06-17T12:41:03.000Z</time>
        <extensions>
          <ns3:TrackPointExtension>
            <ns3:atemp>22.0</ns3:atemp>
          </ns3:TrackPointExtension>
        </extensions>
      </trkpt>
      <trkpt lat="42.51228240318596363067626953125" lon="19.89015505649149417877197265625">
        <ele>1636.199951171875</ele>
        <time>2026-06-17T12:41:04.000Z</time>
        <extensions>
          <ns3:TrackPointExtension>
            <ns3:atemp>22.0</ns3:atemp>
          </ns3:TrackPointExtension>
        </extensions>
      </trkpt>
      <trkpt lat="42.5122952274978160858154296875" lon="19.8901400528848171234130859375">
        <ele>1636</ele>
        <time>2026-06-17T12:41:05.000Z</time>
        <extensions>
          <ns3:TrackPointExtension>
            <ns3:atemp>22.0</ns3:atemp>
          </ns3:TrackPointExtension>
        </extensions>
      </trkpt>
      <trkpt lat="42.512307129800319671630859375" lon="19.890117757022380828857421875">
        <ele>1635.800048828125</ele>
        <time>2026-06-17T12:41:06.000Z</time>
        <extensions>
          <ns3:TrackPointExtension>
            <ns3:atemp>22.0</ns3:atemp>
          </ns3:TrackPointExtension>
        </extensions>
      </trkpt>
      <trkpt lat="42.512318193912506103515625" lon="19.8900951258838176727294921875">
        <ele>1635.4000244140625</ele>
        <time>2026-06-17T12:41:07.000Z</time>
        <extensions>
          <ns3:TrackPointExtension>
            <ns3:atemp>22.0</ns3:atemp>
          </ns3:TrackPointExtension>
        </extensions>
      </trkpt>
      <trkpt lat="42.5123247317969799041748046875" lon="19.890073500573635101318359375">
        <ele>1635.199951171875</ele>
        <time>2026-06-17T12:41:08.000Z</time>
        <extensions>
          <ns3:TrackPointExtension>
            <ns3:atemp>22.0</ns3:atemp>
          </ns3:TrackPointExtension>
        </extensions>
      </trkpt>
      <trkpt lat="42.51232565380632877349853515625" lon="19.89006184972822666168212890625">
        <ele>1634.800048828125</ele>
        <time>2026-06-17T12:41:09.000Z</time>
        <extensions>
          <ns3:TrackPointExtension>
            <ns3:atemp>22.0</ns3:atemp>
          </ns3:TrackPointExtension>
        </extensions>
      </trkpt>
      <trkpt lat="42.5123254023492336273193359375" lon="19.8900522105395793914794921875">
        <ele>1634.4000244140625</ele>
        <time>2026-06-17T12:41:10.000Z</time>
        <extensions>
          <ns3:TrackPointExtension>
            <ns3:atemp>22.0</ns3:atemp>
          </ns3:TrackPointExtension>
        </extensions>
      </trkpt>
      <trkpt lat="42.51232464797794818878173828125" lon="19.89004441536962985992431640625">
        <ele>1634.199951171875</ele>
        <time>2026-06-17T12:41:11.000Z</time>
        <extensions>
          <ns3:TrackPointExtension>
            <ns3:atemp>22.0</ns3:atemp>
          </ns3:TrackPointExtension>
        </extensions>
      </trkpt>
      <trkpt lat="42.5123186968266963958740234375" lon="19.8900300823152065277099609375">
        <ele>1634</ele>
        <time>2026-06-17T12:41:12.000Z</time>
        <extensions>
          <ns3:TrackPointExtension>
            <ns3:atemp>22.0</ns3:atemp>
          </ns3:TrackPointExtension>
        </extensions>
      </trkpt>
      <trkpt lat="42.51231458969414234161376953125" lon="19.89001809619367122650146484375">
        <ele>1633.800048828125</ele>
        <time>2026-06-17T12:41:13.000Z</time>
        <extensions>
          <ns3:TrackPointExtension>
            <ns3:atemp>22.0</ns3:atemp>
          </ns3:TrackPointExtension>
        </extensions>
      </trkpt>
      <trkpt lat="42.51230436377227306365966796875" lon="19.89000971429049968719482421875">
        <ele>1633.5999755859375</ele>
        <time>2026-06-17T12:41:14.000Z</time>
        <extensions>
          <ns3:TrackPointExtension>
            <ns3:atemp>22.0</ns3:atemp>
          </ns3:TrackPointExtension>
        </extensions>
      </trkpt>
      <trkpt lat="42.512291036546230316162109375" lon="19.8899999074637889862060546875">
        <ele>1633.199951171875</ele>
        <time>2026-06-17T12:41:15.000Z</time>
        <extensions>
          <ns3:TrackPointExtension>
            <ns3:atemp>22.0</ns3:atemp>
          </ns3:TrackPointExtension>
        </extensions>
      </trkpt>
      <trkpt lat="42.51227670349180698394775390625" lon="19.8899952135980129241943359375">
        <ele>1633</ele>
        <time>2026-06-17T12:41:16.000Z</time>
        <extensions>
          <ns3:TrackPointExtension>
            <ns3:atemp>22.0</ns3:atemp>
          </ns3:TrackPointExtension>
        </extensions>
      </trkpt>
      <trkpt lat="42.5122580118477344512939453125" lon="19.88998842425644397735595703125">
        <ele>1632.5999755859375</ele>
        <time>2026-06-17T12:41:17.000Z</time>
        <extensions>
          <ns3:TrackPointExtension>
            <ns3:atemp>22.0</ns3:atemp>
          </ns3:TrackPointExtension>
        </extensions>
      </trkpt>
      <trkpt lat="42.51223630271852016448974609375" lon="19.88997652195394039154052734375">
        <ele>1632.4000244140625</ele>
        <time>2026-06-17T12:41:18.000Z</time>
        <extensions>
          <ns3:TrackPointExtension>
            <ns3:atemp>22.0</ns3:atemp>
          </ns3:TrackPointExtension>
        </extensions>
      </trkpt>
      <trkpt lat="42.512214593589305877685546875" lon="19.8899643681943416595458984375">
        <ele>1632</ele>
        <time>2026-06-17T12:41:19.000Z</time>
        <extensions>
          <ns3:TrackPointExtension>
            <ns3:atemp>22.0</ns3:atemp>
          </ns3:TrackPointExtension>
        </extensions>
      </trkpt>
      <trkpt lat="42.51219254918396472930908203125" lon="19.88994835875928401947021484375">
        <ele>1631.800048828125</ele>
        <time>2026-06-17T12:41:20.000Z</time>
        <extensions>
          <ns3:TrackPointExtension>
            <ns3:atemp>22.0</ns3:atemp>
          </ns3:TrackPointExtension>
        </extensions>
      </trkpt>
      <trkpt lat="42.5121728517115116119384765625" lon="19.88992187194526195526123046875">
        <ele>1631.199951171875</ele>
        <time>2026-06-17T12:41:21.000Z</time>
        <extensions>
          <ns3:TrackPointExtension>
            <ns3:atemp>22.0</ns3:atemp>
          </ns3:TrackPointExtension>
        </extensions>
      </trkpt>
      <trkpt lat="42.51216187141835689544677734375" lon="19.88989722914993762969970703125">
        <ele>1631</ele>
        <time>2026-06-17T12:41:22.000Z</time>
        <extensions>
          <ns3:TrackPointExtension>
            <ns3:atemp>22.0</ns3:atemp>
          </ns3:TrackPointExtension>
        </extensions>
      </trkpt>
      <trkpt lat="42.51215935684740543365478515625" lon="19.8898674733936786651611328125">
        <ele>1630.5999755859375</ele>
        <time>2026-06-17T12:41:23.000Z</time>
        <extensions>
          <ns3:TrackPointExtension>
            <ns3:atemp>22.0</ns3:atemp>
          </ns3:TrackPointExtension>
        </extensions>
      </trkpt>
      <trkpt lat="42.51216136850416660308837890625" lon="19.8898336105048656463623046875">
        <ele>1630.199951171875</ele>
        <time>2026-06-17T12:41:24.000Z</time>
        <extensions>
          <ns3:TrackPointExtension>
            <ns3:atemp>22.0</ns3:atemp>
          </ns3:TrackPointExtension>
        </extensions>
      </trkpt>
      <trkpt lat="42.5121674872934818267822265625" lon="19.8898020945489406585693359375">
        <ele>1630</ele>
        <time>2026-06-17T12:41:25.000Z</time>
        <extensions>
          <ns3:TrackPointExtension>
            <ns3:atemp>22.0</ns3:atemp>
          </ns3:TrackPointExtension>
        </extensions>
      </trkpt>
      <trkpt lat="42.51217964105308055877685546875" lon="19.8897809721529483795166015625">
        <ele>1629.5999755859375</ele>
        <time>2026-06-17T12:41:26.000Z</time>
        <extensions>
          <ns3:TrackPointExtension>
            <ns3:atemp>22.0</ns3:atemp>
          </ns3:TrackPointExtension>
        </extensions>
      </trkpt>
      <trkpt lat="42.51219456084072589874267578125" lon="19.88976479507982730865478515625">
        <ele>1629.4000244140625</ele>
        <time>2026-06-17T12:41:27.000Z</time>
        <extensions>
          <ns3:TrackPointExtension>
            <ns3:atemp>22.0</ns3:atemp>
          </ns3:TrackPointExtension>
        </extensions>
      </trkpt>
      <trkpt lat="42.5122140906751155853271484375" lon="19.88975171931087970733642578125">
        <ele>1629</ele>
        <time>2026-06-17T12:41:28.000Z</time>
        <extensions>
          <ns3:TrackPointExtension>
            <ns3:atemp>22.0</ns3:atemp>
          </ns3:TrackPointExtension>
        </extensions>
      </trkpt>
      <trkpt lat="42.5122342072427272796630859375" lon="19.889737553894519805908203125">
        <ele>1628.5999755859375</ele>
        <time>2026-06-17T12:41:29.000Z</time>
        <extensions>
          <ns3:TrackPointExtension>
            <ns3:atemp>22.0</ns3:atemp>
          </ns3:TrackPointExtension>
        </extensions>
      </trkpt>
      <trkpt lat="42.51225851476192474365234375" lon="19.88972456194460391998291015625">
        <ele>1628.4000244140625</ele>
        <time>2026-06-17T12:41:30.000Z</time>
        <extensions>
          <ns3:TrackPointExtension>
            <ns3:atemp>22.0</ns3:atemp>
          </ns3:TrackPointExtension>
        </extensions>
      </trkpt>
      <trkpt lat="42.51228575594723224639892578125" lon="19.88971106708049774169921875">
        <ele>1628</ele>
        <time>2026-06-17T12:41:31.000Z</time>
        <extensions>
          <ns3:TrackPointExtension>
            <ns3:atemp>22.0</ns3:atemp>
          </ns3:TrackPointExtension>
        </extensions>
      </trkpt>
      <trkpt lat="42.51231106929481029510498046875" lon="19.88969220779836177825927734375">
        <ele>1627.5999755859375</ele>
        <time>2026-06-17T12:41:32.000Z</time>
        <extensions>
          <ns3:TrackPointExtension>
            <ns3:atemp>22.0</ns3:atemp>
          </ns3:TrackPointExtension>
        </extensions>
      </trkpt>
      <trkpt lat="42.5123369693756103515625" lon="19.88967326469719409942626953125">
        <ele>1626.800048828125</ele>
        <time>2026-06-17T12:41:33.000Z</time>
        <extensions>
          <ns3:TrackPointExtension>
            <ns3:atemp>22.0</ns3:atemp>
          </ns3:TrackPointExtension>
        </extensions>
      </trkpt>
      <trkpt lat="42.5123599357903003692626953125" lon="19.88965080119669437408447265625">
        <ele>1626.4000244140625</ele>
        <time>2026-06-17T12:41:34.000Z</time>
        <extensions>
          <ns3:TrackPointExtension>
            <ns3:atemp>22.0</ns3:atemp>
          </ns3:TrackPointExtension>
        </extensions>
      </trkpt>
      <trkpt lat="42.51237678341567516326904296875" lon="19.88962255418300628662109375">
        <ele>1625.800048828125</ele>
        <time>2026-06-17T12:41:35.000Z</time>
        <extensions>
          <ns3:TrackPointExtension>
            <ns3:atemp>22.0</ns3:atemp>
          </ns3:TrackPointExtension>
        </extensions>
      </trkpt>
      <trkpt lat="42.51238969154655933380126953125" lon="19.88959246315062046051025390625">
        <ele>1625.4000244140625</ele>
        <time>2026-06-17T12:41:36.000Z</time>
        <extensions>
          <ns3:TrackPointExtension>
            <ns3:atemp>22.0</ns3:atemp>
          </ns3:TrackPointExtension>
        </extensions>
      </trkpt>
      <trkpt lat="42.51240209676325321197509765625" lon="19.8895586840808391571044921875">
        <ele>1624.800048828125</ele>
        <time>2026-06-17T12:41:37.000Z</time>
        <extensions>
          <ns3:TrackPointExtension>
            <ns3:atemp>22.0</ns3:atemp>
          </ns3:TrackPointExtension>
        </extensions>
      </trkpt>
      <trkpt lat="42.512414418160915374755859375" lon="19.8895197920501232147216796875">
        <ele>1624.4000244140625</ele>
        <time>2026-06-17T12:41:38.000Z</time>
        <extensions>
          <ns3:TrackPointExtension>
            <ns3:atemp>22.0</ns3:atemp>
          </ns3:TrackPointExtension>
        </extensions>
      </trkpt>
      <trkpt lat="42.5124233029782772064208984375" lon="19.8894862644374370574951171875">
        <ele>1624</ele>
        <time>2026-06-17T12:41:39.000Z</time>
        <extensions>
          <ns3:TrackPointExtension>
            <ns3:atemp>22.0</ns3:atemp>
          </ns3:TrackPointExtension>
        </extensions>
      </trkpt>
      <trkpt lat="42.5124347023665904998779296875" lon="19.88944955170154571533203125">
        <ele>1623.5999755859375</ele>
        <time>2026-06-17T12:41:40.000Z</time>
        <extensions>
          <ns3:TrackPointExtension>
            <ns3:atemp>22.0</ns3:atemp>
          </ns3:TrackPointExtension>
        </extensions>
      </trkpt>
      <trkpt lat="42.51244962215423583984375" lon="19.889410994946956634521484375">
        <ele>1623</ele>
        <time>2026-06-17T12:41:41.000Z</time>
        <extensions>
          <ns3:TrackPointExtension>
            <ns3:atemp>22.0</ns3:atemp>
          </ns3:TrackPointExtension>
        </extensions>
      </trkpt>
      <trkpt lat="42.5124642066657543182373046875" lon="19.8893722705543041229248046875">
        <ele>1622.5999755859375</ele>
        <time>2026-06-17T12:41:42.000Z</time>
        <extensions>
          <ns3:TrackPointExtension>
            <ns3:atemp>22.0</ns3:atemp>
          </ns3:TrackPointExtension>
        </extensions>
      </trkpt>
      <trkpt lat="42.5124749355018138885498046875" lon="19.88933865912258625030517578125">
        <ele>1622</ele>
        <time>2026-06-17T12:41:43.000Z</time>
        <extensions>
          <ns3:TrackPointExtension>
            <ns3:atemp>22.0</ns3:atemp>
          </ns3:TrackPointExtension>
        </extensions>
      </trkpt>
      <trkpt lat="42.51248239539563655853271484375" lon="19.88929959945380687713623046875">
        <ele>1621.4000244140625</ele>
        <time>2026-06-17T12:41:44.000Z</time>
        <extensions>
          <ns3:TrackPointExtension>
            <ns3:atemp>22.0</ns3:atemp>
          </ns3:TrackPointExtension>
        </extensions>
      </trkpt>
      <trkpt lat="42.512480132281780242919921875" lon="19.889266826212406158447265625">
        <ele>1620.800048828125</ele>
        <time>2026-06-17T12:41:45.000Z</time>
        <extensions>
          <ns3:TrackPointExtension>
            <ns3:atemp>22.0</ns3:atemp>
          </ns3:TrackPointExtension>
        </extensions>
      </trkpt>
      <trkpt lat="42.51247703097760677337646484375" lon="19.88923707045614719390869140625">
        <ele>1620.199951171875</ele>
        <time>2026-06-17T12:41:46.000Z</time>
        <extensions>
          <ns3:TrackPointExtension>
            <ns3:atemp>22.0</ns3:atemp>
          </ns3:TrackPointExtension>
        </extensions>
      </trkpt>
      <trkpt lat="42.51247401349246501922607421875" lon="19.88920555450022220611572265625">
        <ele>1619.800048828125</ele>
        <time>2026-06-17T12:41:47.000Z</time>
        <extensions>
          <ns3:TrackPointExtension>
            <ns3:atemp>22.0</ns3:atemp>
          </ns3:TrackPointExtension>
        </extensions>
      </trkpt>
      <trkpt lat="42.5124732591211795806884765625" lon="19.88916615955531597137451171875">
        <ele>1619.4000244140625</ele>
        <time>2026-06-17T12:41:48.000Z</time>
        <extensions>
          <ns3:TrackPointExtension>
            <ns3:atemp>22.0</ns3:atemp>
          </ns3:TrackPointExtension>
        </extensions>
      </trkpt>
      <trkpt lat="42.51247585751116275787353515625" lon="19.88912500441074371337890625">
        <ele>1619</ele>
        <time>2026-06-17T12:41:49.000Z</time>
        <extensions>
          <ns3:TrackPointExtension>
            <ns3:atemp>22.0</ns3:atemp>
          </ns3:TrackPointExtension>
        </extensions>
      </trkpt>
      <trkpt lat="42.5124866701662540435791015625" lon="19.8890775628387928009033203125">
        <ele>1618.4000244140625</ele>
        <time>2026-06-17T12:41:50.000Z</time>
        <extensions>
          <ns3:TrackPointExtension>
            <ns3:atemp>22.0</ns3:atemp>
          </ns3:TrackPointExtension>
        </extensions>
      </trkpt>
      <trkpt lat="42.5124927051365375518798828125" lon="19.88902769051492214202880859375">
        <ele>1617.800048828125</ele>
        <time>2026-06-17T12:41:51.000Z</time>
        <extensions>
          <ns3:TrackPointExtension>
            <ns3:atemp>22.0</ns3:atemp>
          </ns3:TrackPointExtension>
        </extensions>
      </trkpt>
      <trkpt lat="42.51249966211616992950439453125" lon="19.88898410461843013763427734375">
        <ele>1617.4000244140625</ele>
        <time>2026-06-17T12:41:52.000Z</time>
        <extensions>
          <ns3:TrackPointExtension>
            <ns3:atemp>22.0</ns3:atemp>
          </ns3:TrackPointExtension>
        </extensions>
      </trkpt>
      <trkpt lat="42.51250854693353176116943359375" lon="19.888940937817096710205078125">
        <ele>1617</ele>
        <time>2026-06-17T12:41:53.000Z</time>
        <extensions>
          <ns3:TrackPointExtension>
            <ns3:atemp>22.0</ns3:atemp>
          </ns3:TrackPointExtension>
        </extensions>
      </trkpt>
      <trkpt lat="42.51252145506441593170166015625" lon="19.8889005370438098907470703125">
        <ele>1616.4000244140625</ele>
        <time>2026-06-17T12:41:54.000Z</time>
        <extensions>
          <ns3:TrackPointExtension>
            <ns3:atemp>22.0</ns3:atemp>
          </ns3:TrackPointExtension>
        </extensions>
      </trkpt>
      <trkpt lat="42.5125315971672534942626953125" lon="19.8888643272221088409423828125">
        <ele>1615.5999755859375</ele>
        <time>2026-06-17T12:41:55.000Z</time>
        <extensions>
          <ns3:TrackPointExtension>
            <ns3:atemp>22.0</ns3:atemp>
          </ns3:TrackPointExtension>
        </extensions>
      </trkpt>
      <trkpt lat="42.5125419907271862030029296875" lon="19.88882753066718578338623046875">
        <ele>1615</ele>
        <time>2026-06-17T12:41:56.000Z</time>
        <extensions>
          <ns3:TrackPointExtension>
            <ns3:atemp>22.0</ns3:atemp>
          </ns3:TrackPointExtension>
        </extensions>
      </trkpt>
      <trkpt lat="42.512548528611660003662109375" lon="19.88878830336034297943115234375">
        <ele>1614.4000244140625</ele>
        <time>2026-06-17T12:41:57.000Z</time>
        <extensions>
          <ns3:TrackPointExtension>
            <ns3:atemp>22.0</ns3:atemp>
          </ns3:TrackPointExtension>
        </extensions>
      </trkpt>
      <trkpt lat="42.51255297102034091949462890625" lon="19.88874840550124645233154296875">
        <ele>1613.800048828125</ele>
        <time>2026-06-17T12:41:58.000Z</time>
        <extensions>
          <ns3:TrackPointExtension>
            <ns3:atemp>22.0</ns3:atemp>
          </ns3:TrackPointExtension>
        </extensions>
      </trkpt>
      <trkpt lat="42.51256269402801990509033203125" lon="19.88871018402278423309326171875">
        <ele>1613</ele>
        <time>2026-06-17T12:41:59.000Z</time>
        <extensions>
          <ns3:TrackPointExtension>
            <ns3:atemp>22.0</ns3:atemp>
          </ns3:TrackPointExtension>
        </extensions>
      </trkpt>
      <trkpt lat="42.51256965100765228271484375" lon="19.88867598585784435272216796875">
        <ele>1612.4000244140625</ele>
        <time>2026-06-17T12:42:00.000Z</time>
        <extensions>
          <ns3:TrackPointExtension>
            <ns3:atemp>22.0</ns3:atemp>
          </ns3:TrackPointExtension>
        </extensions>
      </trkpt>
      <trkpt lat="42.51257560215890407562255859375" lon="19.88864354789257049560546875">
        <ele>1611.5999755859375</ele>
        <time>2026-06-17T12:42:01.000Z</time>
        <extensions>
          <ns3:TrackPointExtension>
            <ns3:atemp>22.0</ns3:atemp>
          </ns3:TrackPointExtension>
        </extensions>
      </trkpt>
      <trkpt lat="42.51257677562534809112548828125" lon="19.88860842771828174591064453125">
        <ele>1610.800048828125</ele>
        <time>2026-06-17T12:42:02.000Z</time>
        <extensions>
          <ns3:TrackPointExtension>
            <ns3:atemp>22.0</ns3:atemp>
          </ns3:TrackPointExtension>
        </extensions>
      </trkpt>
      <trkpt lat="42.51257409341633319854736328125" lon="19.88858059979975223541259765625">
        <ele>1610.199951171875</ele>
        <time>2026-06-17T12:42:03.000Z</time>
        <extensions>
          <ns3:TrackPointExtension>
            <ns3:atemp>22.0</ns3:atemp>
          </ns3:TrackPointExtension>
        </extensions>
      </trkpt>
      <trkpt lat="42.51257107593119144439697265625" lon="19.8885498382151126861572265625">
        <ele>1609.4000244140625</ele>
        <time>2026-06-17T12:42:04.000Z</time>
        <extensions>
          <ns3:TrackPointExtension>
            <ns3:atemp>22.0</ns3:atemp>
          </ns3:TrackPointExtension>
        </extensions>
      </trkpt>
      <trkpt lat="42.51256872899830341339111328125" lon="19.88851907663047313690185546875">
        <ele>1608.800048828125</ele>
        <time>2026-06-17T12:42:05.000Z</time>
        <extensions>
          <ns3:TrackPointExtension>
            <ns3:atemp>22.0</ns3:atemp>
          </ns3:TrackPointExtension>
        </extensions>
      </trkpt>
      <trkpt lat="42.5125678069889545440673828125" lon="19.8884851299226284027099609375">
        <ele>1608</ele>
        <time>2026-06-17T12:42:06.000Z</time>
        <extensions>
          <ns3:TrackPointExtension>
            <ns3:atemp>22.0</ns3:atemp>
          </ns3:TrackPointExtension>
        </extensions>
      </trkpt>
      <trkpt lat="42.512568645179271697998046875" lon="19.88845176994800567626953125">
        <ele>1607.199951171875</ele>
        <time>2026-06-17T12:42:07.000Z</time>
        <extensions>
          <ns3:TrackPointExtension>
            <ns3:atemp>22.0</ns3:atemp>
          </ns3:TrackPointExtension>
        </extensions>
      </trkpt>
      <trkpt lat="42.51257174648344516754150390625" lon="19.88841916434466838836669921875">
        <ele>1606.4000244140625</ele>
        <time>2026-06-17T12:42:08.000Z</time>
        <extensions>
          <ns3:TrackPointExtension>
            <ns3:atemp>22.0</ns3:atemp>
          </ns3:TrackPointExtension>
        </extensions>
      </trkpt>
      <trkpt lat="42.5125758536159992218017578125" lon="19.8883865587413311004638671875">
        <ele>1605.800048828125</ele>
        <time>2026-06-17T12:42:09.000Z</time>
        <extensions>
          <ns3:TrackPointExtension>
            <ns3:atemp>22.0</ns3:atemp>
          </ns3:TrackPointExtension>
        </extensions>
      </trkpt>
      <trkpt lat="42.51257711090147495269775390625" lon="19.8883523605763912200927734375">
        <ele>1605.199951171875</ele>
        <time>2026-06-17T12:42:10.000Z</time>
        <extensions>
          <ns3:TrackPointExtension>
            <ns3:atemp>22.0</ns3:atemp>
          </ns3:TrackPointExtension>
        </extensions>
      </trkpt>
      <trkpt lat="42.5125758536159992218017578125" lon="19.8883178271353244781494140625">
        <ele>1604.5999755859375</ele>
        <time>2026-06-17T12:42:11.000Z</time>
        <extensions>
          <ns3:TrackPointExtension>
            <ns3:atemp>22.0</ns3:atemp>
          </ns3:TrackPointExtension>
        </extensions>
      </trkpt>
      <trkpt lat="42.5125755183398723602294921875" lon="19.8882772587239742279052734375">
        <ele>1603.5999755859375</ele>
        <time>2026-06-17T12:42:12.000Z</time>
        <extensions>
          <ns3:TrackPointExtension>
            <ns3:atemp>22.0</ns3:atemp>
          </ns3:TrackPointExtension>
        </extensions>
      </trkpt>
      <trkpt lat="42.51257635653018951416015625" lon="19.8882403783500194549560546875">
        <ele>1603</ele>
        <time>2026-06-17T12:42:13.000Z</time>
        <extensions>
          <ns3:TrackPointExtension>
            <ns3:atemp>22.0</ns3:atemp>
          </ns3:TrackPointExtension>
        </extensions>
      </trkpt>
      <trkpt lat="42.51258373260498046875" lon="19.8882068507373332977294921875">
        <ele>1602.199951171875</ele>
        <time>2026-06-17T12:42:14.000Z</time>
        <extensions>
          <ns3:TrackPointExtension>
            <ns3:atemp>22.0</ns3:atemp>
          </ns3:TrackPointExtension>
        </extensions>
      </trkpt>
      <trkpt lat="42.5125949643552303314208984375" lon="19.88816284574568271636962890625">
        <ele>1601.5999755859375</ele>
        <time>2026-06-17T12:42:15.000Z</time>
        <extensions>
          <ns3:TrackPointExtension>
            <ns3:atemp>22.0</ns3:atemp>
          </ns3:TrackPointExtension>
        </extensions>
      </trkpt>
      <trkpt lat="42.51260946504771709442138671875" lon="19.888126216828823089599609375">
        <ele>1600.800048828125</ele>
        <time>2026-06-17T12:42:16.000Z</time>
        <extensions>
          <ns3:TrackPointExtension>
            <ns3:atemp>22.0</ns3:atemp>
          </ns3:TrackPointExtension>
        </extensions>
      </trkpt>
      <trkpt lat="42.51261818222701549530029296875" lon="19.88808791153132915496826171875">
        <ele>1600</ele>
        <time>2026-06-17T12:42:17.000Z</time>
        <extensions>
          <ns3:TrackPointExtension>
            <ns3:atemp>22.0</ns3:atemp>
          </ns3:TrackPointExtension>
        </extensions>
      </trkpt>
      <trkpt lat="42.51262455247342586517333984375" lon="19.8880420625209808349609375">
        <ele>1599.199951171875</ele>
        <time>2026-06-17T12:42:18.000Z</time>
        <extensions>
          <ns3:TrackPointExtension>
            <ns3:atemp>22.0</ns3:atemp>
          </ns3:TrackPointExtension>
        </extensions>
      </trkpt>
      <trkpt lat="42.51263226382434368133544921875" lon="19.88799219019711017608642578125">
        <ele>1598.4000244140625</ele>
        <time>2026-06-17T12:42:19.000Z</time>
        <extensions>
          <ns3:TrackPointExtension>
            <ns3:atemp>22.0</ns3:atemp>
          </ns3:TrackPointExtension>
        </extensions>
      </trkpt>
      <trkpt lat="42.51263670623302459716796875" lon="19.88794323988258838653564453125">
        <ele>1597.4000244140625</ele>
        <time>2026-06-17T12:42:20.000Z</time>
        <extensions>
          <ns3:TrackPointExtension>
            <ns3:atemp>22.0</ns3:atemp>
          </ns3:TrackPointExtension>
        </extensions>
      </trkpt>
      <trkpt lat="42.5126387178897857666015625" lon="19.88789227791130542755126953125">
        <ele>1596.5999755859375</ele>
        <time>2026-06-17T12:42:21.000Z</time>
        <extensions>
          <ns3:TrackPointExtension>
            <ns3:atemp>22.0</ns3:atemp>
          </ns3:TrackPointExtension>
        </extensions>
      </trkpt>
      <trkpt lat="42.512640394270420074462890625" lon="19.88784332759678363800048828125">
        <ele>1595.800048828125</ele>
        <time>2026-06-17T12:42:22.000Z</time>
        <extensions>
          <ns3:TrackPointExtension>
            <ns3:atemp>22.0</ns3:atemp>
          </ns3:TrackPointExtension>
        </extensions>
      </trkpt>
      <trkpt lat="42.512640058994293212890625" lon="19.887786246836185455322265625">
        <ele>1594.800048828125</ele>
        <time>2026-06-17T12:42:23.000Z</time>
        <extensions>
          <ns3:TrackPointExtension>
            <ns3:atemp>22.0</ns3:atemp>
          </ns3:TrackPointExtension>
        </extensions>
      </trkpt>
      <trkpt lat="42.51264181919395923614501953125" lon="19.88773067481815814971923828125">
        <ele>1593.5999755859375</ele>
        <time>2026-06-17T12:42:24.000Z</time>
        <extensions>
          <ns3:TrackPointExtension>
            <ns3:atemp>22.0</ns3:atemp>
          </ns3:TrackPointExtension>
        </extensions>
      </trkpt>
      <trkpt lat="42.51265439204871654510498046875" lon="19.88767552189528942108154296875">
        <ele>1592.800048828125</ele>
        <time>2026-06-17T12:42:25.000Z</time>
        <extensions>
          <ns3:TrackPointExtension>
            <ns3:atemp>22.0</ns3:atemp>
          </ns3:TrackPointExtension>
        </extensions>
      </trkpt>
      <trkpt lat="42.51267023384571075439453125" lon="19.8876264877617359161376953125">
        <ele>1592</ele>
        <time>2026-06-17T12:42:26.000Z</time>
        <extensions>
          <ns3:TrackPointExtension>
            <ns3:atemp>22.0</ns3:atemp>
          </ns3:TrackPointExtension>
        </extensions>
      </trkpt>
      <trkpt lat="42.512685991823673248291015625" lon="19.8875889368355274200439453125">
        <ele>1591.199951171875</ele>
        <time>2026-06-17T12:42:27.000Z</time>
        <extensions>
          <ns3:TrackPointExtension>
            <ns3:atemp>22.0</ns3:atemp>
          </ns3:TrackPointExtension>
        </extensions>
      </trkpt>
      <trkpt lat="42.51270242035388946533203125" lon="19.88754275254905223846435546875">
        <ele>1590.4000244140625</ele>
        <time>2026-06-17T12:42:28.000Z</time>
        <extensions>
          <ns3:TrackPointExtension>
            <ns3:atemp>22.0</ns3:atemp>
          </ns3:TrackPointExtension>
        </extensions>
      </trkpt>
      <trkpt lat="42.51271876506507396697998046875" lon="19.88749816082417964935302734375">
        <ele>1589.5999755859375</ele>
        <time>2026-06-17T12:42:29.000Z</time>
        <extensions>
          <ns3:TrackPointExtension>
            <ns3:atemp>22.0</ns3:atemp>
          </ns3:TrackPointExtension>
        </extensions>
      </trkpt>
      <trkpt lat="42.51273955218493938446044921875" lon="19.88745776005089282989501953125">
        <ele>1588.5999755859375</ele>
        <time>2026-06-17T12:42:30.000Z</time>
        <extensions>
          <ns3:TrackPointExtension>
            <ns3:atemp>22.0</ns3:atemp>
          </ns3:TrackPointExtension>
        </extensions>
      </trkpt>
      <trkpt lat="42.512758411467075347900390625" lon="19.88742180168628692626953125">
        <ele>1587.800048828125</ele>
        <time>2026-06-17T12:42:31.000Z</time>
        <extensions>
          <ns3:TrackPointExtension>
            <ns3:atemp>22.0</ns3:atemp>
          </ns3:TrackPointExtension>
        </extensions>
      </trkpt>
      <trkpt lat="42.51277492381632328033447265625" lon="19.88738114945590496063232421875">
        <ele>1587</ele>
        <time>2026-06-17T12:42:32.000Z</time>
        <extensions>
          <ns3:TrackPointExtension>
            <ns3:atemp>22.0</ns3:atemp>
          </ns3:TrackPointExtension>
        </extensions>
      </trkpt>
      <trkpt lat="42.51279361546039581298828125" lon="19.88734141923487186431884765625">
        <ele>1586.199951171875</ele>
        <time>2026-06-17T12:42:33.000Z</time>
        <extensions>
          <ns3:TrackPointExtension>
            <ns3:atemp>22.0</ns3:atemp>
          </ns3:TrackPointExtension>
        </extensions>
      </trkpt>
      <trkpt lat="42.5128125585615634918212890625" lon="19.88729766570031642913818359375">
        <ele>1585.4000244140625</ele>
        <time>2026-06-17T12:42:34.000Z</time>
        <extensions>
          <ns3:TrackPointExtension>
            <ns3:atemp>22.0</ns3:atemp>
          </ns3:TrackPointExtension>
        </extensions>
      </trkpt>
      <trkpt lat="42.51283275894820690155029296875" lon="19.887252487242221832275390625">
        <ele>1584.4000244140625</ele>
        <time>2026-06-17T12:42:35.000Z</time>
        <extensions>
          <ns3:TrackPointExtension>
            <ns3:atemp>22.0</ns3:atemp>
          </ns3:TrackPointExtension>
        </extensions>
      </trkpt>
      <trkpt lat="42.51284969039261341094970703125" lon="19.88720278255641460418701171875">
        <ele>1583.5999755859375</ele>
        <time>2026-06-17T12:42:36.000Z</time>
        <extensions>
          <ns3:TrackPointExtension>
            <ns3:atemp>22.0</ns3:atemp>
          </ns3:TrackPointExtension>
        </extensions>
      </trkpt>
      <trkpt lat="42.51287232153117656707763671875" lon="19.88715768791735172271728515625">
        <ele>1583</ele>
        <time>2026-06-17T12:42:37.000Z</time>
        <extensions>
          <ns3:TrackPointExtension>
            <ns3:atemp>22.0</ns3:atemp>
          </ns3:TrackPointExtension>
        </extensions>
      </trkpt>
      <trkpt lat="42.5128930248320102691650390625" lon="19.8871111683547496795654296875">
        <ele>1582.199951171875</ele>
        <time>2026-06-17T12:42:38.000Z</time>
        <extensions>
          <ns3:TrackPointExtension>
            <ns3:atemp>22.0</ns3:atemp>
          </ns3:TrackPointExtension>
        </extensions>
      </trkpt>
      <trkpt lat="42.51291490159928798675537109375" lon="19.8870726116001605987548828125">
        <ele>1581.4000244140625</ele>
        <time>2026-06-17T12:42:39.000Z</time>
        <extensions>
          <ns3:TrackPointExtension>
            <ns3:atemp>22.0</ns3:atemp>
          </ns3:TrackPointExtension>
        </extensions>
      </trkpt>
      <trkpt lat="42.512936778366565704345703125" lon="19.8870407603681087493896484375">
        <ele>1580.5999755859375</ele>
        <time>2026-06-17T12:42:40.000Z</time>
        <extensions>
          <ns3:TrackPointExtension>
            <ns3:atemp>22.0</ns3:atemp>
          </ns3:TrackPointExtension>
        </extensions>
      </trkpt>
      <trkpt lat="42.512964941561222076416015625" lon="19.887021817266941070556640625">
        <ele>1579.5999755859375</ele>
        <time>2026-06-17T12:42:41.000Z</time>
        <extensions>
          <ns3:TrackPointExtension>
            <ns3:atemp>22.0</ns3:atemp>
          </ns3:TrackPointExtension>
        </extensions>
      </trkpt>
      <trkpt lat="42.51299218274652957916259765625" lon="19.88699591718614101409912109375">
        <ele>1578.800048828125</ele>
        <time>2026-06-17T12:42:42.000Z</time>
        <extensions>
          <ns3:TrackPointExtension>
            <ns3:atemp>22.0</ns3:atemp>
          </ns3:TrackPointExtension>
        </extensions>
      </trkpt>
      <trkpt lat="42.5130088627338409423828125" lon="19.8869680054485797882080078125">
        <ele>1578.199951171875</ele>
        <time>2026-06-17T12:42:43.000Z</time>
        <extensions>
          <ns3:TrackPointExtension>
            <ns3:atemp>22.0</ns3:atemp>
          </ns3:TrackPointExtension>
        </extensions>
      </trkpt>
      <trkpt lat="42.51301431097090244293212890625" lon="19.88694076426327228546142578125">
        <ele>1577.5999755859375</ele>
        <time>2026-06-17T12:42:44.000Z</time>
        <extensions>
          <ns3:TrackPointExtension>
            <ns3:atemp>22.0</ns3:atemp>
          </ns3:TrackPointExtension>
        </extensions>
      </trkpt>
      <trkpt lat="42.51301900483667850494384765625" lon="19.8869083262979984283447265625">
        <ele>1577</ele>
        <time>2026-06-17T12:42:45.000Z</time>
        <extensions>
          <ns3:TrackPointExtension>
            <ns3:atemp>22.0</ns3:atemp>
          </ns3:TrackPointExtension>
        </extensions>
      </trkpt>
      <trkpt lat="42.5130204297602176666259765625" lon="19.88686658442020416259765625">
        <ele>1576.4000244140625</ele>
        <time>2026-06-17T12:42:46.000Z</time>
        <extensions>
          <ns3:TrackPointExtension>
            <ns3:atemp>22.0</ns3:atemp>
          </ns3:TrackPointExtension>
        </extensions>
      </trkpt>
      <trkpt lat="42.513025291264057159423828125" lon="19.8868211545050144195556640625">
        <ele>1575.5999755859375</ele>
        <time>2026-06-17T12:42:47.000Z</time>
        <extensions>
          <ns3:TrackPointExtension>
            <ns3:atemp>22.0</ns3:atemp>
          </ns3:TrackPointExtension>
        </extensions>
      </trkpt>
      <trkpt lat="42.51303073950111865997314453125" lon="19.886775054037570953369140625">
        <ele>1575</ele>
        <time>2026-06-17T12:42:48.000Z</time>
        <extensions>
          <ns3:TrackPointExtension>
            <ns3:atemp>22.0</ns3:atemp>
          </ns3:TrackPointExtension>
        </extensions>
      </trkpt>
      <trkpt lat="42.51303493045270442962646484375" lon="19.88672384060919284820556640625">
        <ele>1574.4000244140625</ele>
        <time>2026-06-17T12:42:49.000Z</time>
        <extensions>
          <ns3:TrackPointExtension>
            <ns3:atemp>22.0</ns3:atemp>
          </ns3:TrackPointExtension>
        </extensions>
      </trkpt>
      <trkpt lat="42.51303643919527530670166015625" lon="19.8866806738078594207763671875">
        <ele>1573.800048828125</ele>
        <time>2026-06-17T12:42:50.000Z</time>
        <extensions>
          <ns3:TrackPointExtension>
            <ns3:atemp>22.0</ns3:atemp>
          </ns3:TrackPointExtension>
        </extensions>
      </trkpt>
      <trkpt lat="42.51303610391914844512939453125" lon="19.8866411112248897552490234375">
        <ele>1573.199951171875</ele>
        <time>2026-06-17T12:42:51.000Z</time>
        <extensions>
          <ns3:TrackPointExtension>
            <ns3:atemp>22.0</ns3:atemp>
          </ns3:TrackPointExtension>
        </extensions>
      </trkpt>
      <trkpt lat="42.51304431818425655364990234375" lon="19.88660414703190326690673828125">
        <ele>1572.800048828125</ele>
        <time>2026-06-17T12:42:52.000Z</time>
        <extensions>
          <ns3:TrackPointExtension>
            <ns3:atemp>22.0</ns3:atemp>
          </ns3:TrackPointExtension>
        </extensions>
      </trkpt>
      <trkpt lat="42.513059489428997039794921875" lon="19.88656458444893360137939453125">
        <ele>1572</ele>
        <time>2026-06-17T12:42:53.000Z</time>
        <extensions>
          <ns3:TrackPointExtension>
            <ns3:atemp>22.0</ns3:atemp>
          </ns3:TrackPointExtension>
        </extensions>
      </trkpt>
      <trkpt lat="42.51307214610278606414794921875" lon="19.886522591114044189453125">
        <ele>1571.4000244140625</ele>
        <time>2026-06-17T12:42:54.000Z</time>
        <extensions>
          <ns3:TrackPointExtension>
            <ns3:atemp>22.0</ns3:atemp>
          </ns3:TrackPointExtension>
        </extensions>
      </trkpt>
      <trkpt lat="42.51307482831180095672607421875" lon="19.8864808492362499237060546875">
        <ele>1570.800048828125</ele>
        <time>2026-06-17T12:42:55.000Z</time>
        <extensions>
          <ns3:TrackPointExtension>
            <ns3:atemp>22.0</ns3:atemp>
          </ns3:TrackPointExtension>
        </extensions>
      </trkpt>
      <trkpt lat="42.51307851634919643402099609375" lon="19.88643550314009189605712890625">
        <ele>1570.4000244140625</ele>
        <time>2026-06-17T12:42:56.000Z</time>
        <extensions>
          <ns3:TrackPointExtension>
            <ns3:atemp>22.0</ns3:atemp>
          </ns3:TrackPointExtension>
        </extensions>
      </trkpt>
      <trkpt lat="42.5130866467952728271484375" lon="19.88638873212039470672607421875">
        <ele>1569.800048828125</ele>
        <time>2026-06-17T12:42:57.000Z</time>
        <extensions>
          <ns3:TrackPointExtension>
            <ns3:atemp>22.0</ns3:atemp>
          </ns3:TrackPointExtension>
        </extensions>
      </trkpt>
      <trkpt lat="42.513102404773235321044921875" lon="19.8863469064235687255859375">
        <ele>1568.800048828125</ele>
        <time>2026-06-17T12:42:58.000Z</time>
        <extensions>
          <ns3:TrackPointExtension>
            <ns3:atemp>22.0</ns3:atemp>
          </ns3:TrackPointExtension>
        </extensions>
      </trkpt>
      <trkpt lat="42.51311874948441982269287109375" lon="19.88630608655512332916259765625">
        <ele>1568.199951171875</ele>
        <time>2026-06-17T12:42:59.000Z</time>
        <extensions>
          <ns3:TrackPointExtension>
            <ns3:atemp>22.0</ns3:atemp>
          </ns3:TrackPointExtension>
        </extensions>
      </trkpt>
      <trkpt lat="42.51314104534685611724853515625" lon="19.88627457059919834136962890625">
        <ele>1567.5999755859375</ele>
        <time>2026-06-17T12:43:00.000Z</time>
        <extensions>
          <ns3:TrackPointExtension>
            <ns3:atemp>22.0</ns3:atemp>
          </ns3:TrackPointExtension>
        </extensions>
      </trkpt>
      <trkpt lat="42.51316719688475131988525390625" lon="19.88624221645295619964599609375">
        <ele>1567.199951171875</ele>
        <time>2026-06-17T12:43:01.000Z</time>
        <extensions>
          <ns3:TrackPointExtension>
            <ns3:atemp>22.0</ns3:atemp>
          </ns3:TrackPointExtension>
        </extensions>
      </trkpt>
      <trkpt lat="42.51319862902164459228515625" lon="19.88621078431606292724609375">
        <ele>1566.800048828125</ele>
        <time>2026-06-17T12:43:02.000Z</time>
        <extensions>
          <ns3:TrackPointExtension>
            <ns3:atemp>22.0</ns3:atemp>
          </ns3:TrackPointExtension>
        </extensions>
      </trkpt>
      <trkpt lat="42.51323081552982330322265625" lon="19.88617851398885250091552734375">
        <ele>1566.199951171875</ele>
        <time>2026-06-17T12:43:03.000Z</time>
        <extensions>
          <ns3:TrackPointExtension>
            <ns3:atemp>22.0</ns3:atemp>
          </ns3:TrackPointExtension>
        </extensions>
      </trkpt>
      <trkpt lat="42.51326157711446285247802734375" lon="19.8861296474933624267578125">
        <ele>1565.5999755859375</ele>
        <time>2026-06-17T12:43:04.000Z</time>
        <extensions>
          <ns3:TrackPointExtension>
            <ns3:atemp>22.0</ns3:atemp>
          </ns3:TrackPointExtension>
        </extensions>
      </trkpt>
      <trkpt lat="42.5132903270423412322998046875" lon="19.886074997484683990478515625">
        <ele>1565</ele>
        <time>2026-06-17T12:43:05.000Z</time>
        <extensions>
          <ns3:TrackPointExtension>
            <ns3:atemp>22.0</ns3:atemp>
          </ns3:TrackPointExtension>
        </extensions>
      </trkpt>
      <trkpt lat="42.5133198313415050506591796875" lon="19.88603233359754085540771484375">
        <ele>1564.4000244140625</ele>
        <time>2026-06-17T12:43:06.000Z</time>
        <extensions>
          <ns3:TrackPointExtension>
            <ns3:atemp>22.0</ns3:atemp>
          </ns3:TrackPointExtension>
        </extensions>
      </trkpt>
      <trkpt lat="42.5133446417748928070068359375" lon="19.88599712960422039031982421875">
        <ele>1563.5999755859375</ele>
        <time>2026-06-17T12:43:07.000Z</time>
        <extensions>
          <ns3:TrackPointExtension>
            <ns3:atemp>22.0</ns3:atemp>
          </ns3:TrackPointExtension>
        </extensions>
      </trkpt>
      <trkpt lat="42.51337221823632717132568359375" lon="19.8859621770679950714111328125">
        <ele>1563</ele>
        <time>2026-06-17T12:43:08.000Z</time>
        <extensions>
          <ns3:TrackPointExtension>
            <ns3:atemp>22.0</ns3:atemp>
          </ns3:TrackPointExtension>
        </extensions>
      </trkpt>
      <trkpt lat="42.51340038143098354339599609375" lon="19.885929487645626068115234375">
        <ele>1562.4000244140625</ele>
        <time>2026-06-17T12:43:09.000Z</time>
        <extensions>
          <ns3:TrackPointExtension>
            <ns3:atemp>22.0</ns3:atemp>
          </ns3:TrackPointExtension>
        </extensions>
      </trkpt>
      <trkpt lat="42.5134331546723842620849609375" lon="19.8858840577304363250732421875">
        <ele>1561.4000244140625</ele>
        <time>2026-06-17T12:43:10.000Z</time>
        <extensions>
          <ns3:TrackPointExtension>
            <ns3:atemp>22.0</ns3:atemp>
          </ns3:TrackPointExtension>
        </extensions>
      </trkpt>
      <trkpt lat="42.51346777193248271942138671875" lon="19.88582588732242584228515625">
        <ele>1560.5999755859375</ele>
        <time>2026-06-17T12:43:11.000Z</time>
        <extensions>
          <ns3:TrackPointExtension>
            <ns3:atemp>22.0</ns3:atemp>
          </ns3:TrackPointExtension>
        </extensions>
      </trkpt>
      <trkpt lat="42.513503730297088623046875" lon="19.88576360978186130523681640625">
        <ele>1559.800048828125</ele>
        <time>2026-06-17T12:43:12.000Z</time>
        <extensions>
          <ns3:TrackPointExtension>
            <ns3:atemp>22.0</ns3:atemp>
          </ns3:TrackPointExtension>
        </extensions>
      </trkpt>
      <trkpt lat="42.51354069449007511138916015625" lon="19.88569772802293300628662109375">
        <ele>1559</ele>
        <time>2026-06-17T12:43:13.000Z</time>
        <extensions>
          <ns3:TrackPointExtension>
            <ns3:atemp>22.0</ns3:atemp>
          </ns3:TrackPointExtension>
        </extensions>
      </trkpt>
      <trkpt lat="42.51357522793114185333251953125" lon="19.885617010295391082763671875">
        <ele>1558.4000244140625</ele>
        <time>2026-06-17T12:43:14.000Z</time>
        <extensions>
          <ns3:TrackPointExtension>
            <ns3:atemp>22.0</ns3:atemp>
          </ns3:TrackPointExtension>
        </extensions>
      </trkpt>
      <trkpt lat="42.51361261121928691864013671875" lon="19.88552556373178958892822265625">
        <ele>1557.5999755859375</ele>
        <time>2026-06-17T12:43:15.000Z</time>
        <extensions>
          <ns3:TrackPointExtension>
            <ns3:atemp>22.0</ns3:atemp>
          </ns3:TrackPointExtension>
        </extensions>
      </trkpt>
      <trkpt lat="42.51366390846669673919677734375" lon="19.88544459454715251922607421875">
        <ele>1556</ele>
        <time>2026-06-17T12:43:16.000Z</time>
        <extensions>
          <ns3:TrackPointExtension>
            <ns3:atemp>22.0</ns3:atemp>
          </ns3:TrackPointExtension>
        </extensions>
      </trkpt>
      <trkpt lat="42.51371487043797969818115234375" lon="19.885362200438976287841796875">
        <ele>1555.4000244140625</ele>
        <time>2026-06-17T12:43:17.000Z</time>
        <extensions>
          <ns3:TrackPointExtension>
            <ns3:atemp>22.0</ns3:atemp>
          </ns3:TrackPointExtension>
        </extensions>
      </trkpt>
      <trkpt lat="42.51375946216285228729248046875" lon="19.88526932895183563232421875">
        <ele>1554</ele>
        <time>2026-06-17T12:43:18.000Z</time>
        <extensions>
          <ns3:TrackPointExtension>
            <ns3:atemp>22.0</ns3:atemp>
          </ns3:TrackPointExtension>
        </extensions>
      </trkpt>
      <trkpt lat="42.51380070112645626068115234375" lon="19.88517419435083866119384765625">
        <ele>1553</ele>
        <time>2026-06-17T12:43:19.000Z</time>
        <extensions>
          <ns3:TrackPointExtension>
            <ns3:atemp>22.0</ns3:atemp>
          </ns3:TrackPointExtension>
        </extensions>
      </trkpt>
      <trkpt lat="42.5138395093381404876708984375" lon="19.88507629372179508209228515625">
        <ele>1551.800048828125</ele>
        <time>2026-06-17T12:43:20.000Z</time>
        <extensions>
          <ns3:TrackPointExtension>
            <ns3:atemp>22.0</ns3:atemp>
          </ns3:TrackPointExtension>
        </extensions>
      </trkpt>
      <trkpt lat="42.51387856900691986083984375" lon="19.88498928956687450408935546875">
        <ele>1550.800048828125</ele>
        <time>2026-06-17T12:43:21.000Z</time>
        <extensions>
          <ns3:TrackPointExtension>
            <ns3:atemp>22.0</ns3:atemp>
          </ns3:TrackPointExtension>
        </extensions>
      </trkpt>
      <trkpt lat="42.5139115937054157257080078125" lon="19.88491720519959926605224609375">
        <ele>1550.4000244140625</ele>
        <time>2026-06-17T12:43:22.000Z</time>
        <extensions>
          <ns3:TrackPointExtension>
            <ns3:atemp>22.0</ns3:atemp>
          </ns3:TrackPointExtension>
        </extensions>
      </trkpt>
      <trkpt lat="42.51393489539623260498046875" lon="19.88486825488507747650146484375">
        <ele>1549.800048828125</ele>
        <time>2026-06-17T12:43:23.000Z</time>
        <extensions>
          <ns3:TrackPointExtension>
            <ns3:atemp>22.0</ns3:atemp>
          </ns3:TrackPointExtension>
        </extensions>
      </trkpt>
      <trkpt lat="42.5139488093554973602294921875" lon="19.88483305089175701141357421875">
        <ele>1549.199951171875</ele>
        <time>2026-06-17T12:43:24.000Z</time>
        <extensions>
          <ns3:TrackPointExtension>
            <ns3:atemp>22.0</ns3:atemp>
          </ns3:TrackPointExtension>
        </extensions>
      </trkpt>
      <trkpt lat="42.5139622204005718231201171875" lon="19.88480388186872005462646484375">
        <ele>1548.800048828125</ele>
        <time>2026-06-17T12:43:25.000Z</time>
        <extensions>
          <ns3:TrackPointExtension>
            <ns3:atemp>22.0</ns3:atemp>
          </ns3:TrackPointExtension>
        </extensions>
      </trkpt>
      <trkpt lat="42.51397957094013690948486328125" lon="19.88476800732314586639404296875">
        <ele>1548.199951171875</ele>
        <time>2026-06-17T12:43:26.000Z</time>
        <extensions>
          <ns3:TrackPointExtension>
            <ns3:atemp>22.0</ns3:atemp>
          </ns3:TrackPointExtension>
        </extensions>
      </trkpt>
      <trkpt lat="42.51400421373546123504638671875" lon="19.88473162986338138580322265625">
        <ele>1547.4000244140625</ele>
        <time>2026-06-17T12:43:27.000Z</time>
        <extensions>
          <ns3:TrackPointExtension>
            <ns3:atemp>22.0</ns3:atemp>
          </ns3:TrackPointExtension>
        </extensions>
      </trkpt>
      <trkpt lat="42.5140232406556606292724609375" lon="19.88469240255653858184814453125">
        <ele>1546.800048828125</ele>
        <time>2026-06-17T12:43:28.000Z</time>
        <extensions>
          <ns3:TrackPointExtension>
            <ns3:atemp>22.0</ns3:atemp>
          </ns3:TrackPointExtension>
        </extensions>
      </trkpt>
      <trkpt lat="42.5140400044620037078857421875" lon="19.88465049304068088531494140625">
        <ele>1546.199951171875</ele>
        <time>2026-06-17T12:43:29.000Z</time>
        <extensions>
          <ns3:TrackPointExtension>
            <ns3:atemp>22.0</ns3:atemp>
          </ns3:TrackPointExtension>
        </extensions>
      </trkpt>
      <trkpt lat="42.51405450515449047088623046875" lon="19.88461093045771121978759765625">
        <ele>1545.4000244140625</ele>
        <time>2026-06-17T12:43:30.000Z</time>
        <extensions>
          <ns3:TrackPointExtension>
            <ns3:atemp>22.0</ns3:atemp>
          </ns3:TrackPointExtension>
        </extensions>
      </trkpt>
      <trkpt lat="42.51405986957252025604248046875" lon="19.88458000123500823974609375">
        <ele>1544.800048828125</ele>
        <time>2026-06-17T12:43:31.000Z</time>
        <extensions>
          <ns3:TrackPointExtension>
            <ns3:atemp>22.0</ns3:atemp>
          </ns3:TrackPointExtension>
        </extensions>
      </trkpt>
      <trkpt lat="42.5140681676566600799560546875" lon="19.88454253412783145904541015625">
        <ele>1544.199951171875</ele>
        <time>2026-06-17T12:43:32.000Z</time>
        <extensions>
          <ns3:TrackPointExtension>
            <ns3:atemp>22.0</ns3:atemp>
          </ns3:TrackPointExtension>
        </extensions>
      </trkpt>
      <trkpt lat="42.5140782259404659271240234375" lon="19.88451160490512847900390625">
        <ele>1543.4000244140625</ele>
        <time>2026-06-17T12:43:33.000Z</time>
        <extensions>
          <ns3:TrackPointExtension>
            <ns3:atemp>22.0</ns3:atemp>
          </ns3:TrackPointExtension>
        </extensions>
      </trkpt>
      <trkpt lat="42.514086775481700897216796875" lon="19.88447866402566432952880859375">
        <ele>1542.5999755859375</ele>
        <time>2026-06-17T12:43:34.000Z</time>
        <extensions>
          <ns3:TrackPointExtension>
            <ns3:atemp>22.0</ns3:atemp>
          </ns3:TrackPointExtension>
        </extensions>
      </trkpt>
      <trkpt lat="42.5140949897468090057373046875" lon="19.88445930182933807373046875">
        <ele>1542.199951171875</ele>
        <time>2026-06-17T12:43:35.000Z</time>
        <extensions>
          <ns3:TrackPointExtension>
            <ns3:atemp>22.0</ns3:atemp>
          </ns3:TrackPointExtension>
        </extensions>
      </trkpt>
      <trkpt lat="42.51411133445799350738525390625" lon="19.88444128073751926422119140625">
        <ele>1541.800048828125</ele>
        <time>2026-06-17T12:43:36.000Z</time>
        <extensions>
          <ns3:TrackPointExtension>
            <ns3:atemp>22.0</ns3:atemp>
          </ns3:TrackPointExtension>
        </extensions>
      </trkpt>
      <trkpt lat="42.5141288526356220245361328125" lon="19.88441714085638523101806640625">
        <ele>1541.4000244140625</ele>
        <time>2026-06-17T12:43:37.000Z</time>
        <extensions>
          <ns3:TrackPointExtension>
            <ns3:atemp>22.0</ns3:atemp>
          </ns3:TrackPointExtension>
        </extensions>
      </trkpt>
      <trkpt lat="42.5141392461955547332763671875" lon="19.88439098931849002838134765625">
        <ele>1541</ele>
        <time>2026-06-17T12:43:38.000Z</time>
        <extensions>
          <ns3:TrackPointExtension>
            <ns3:atemp>22.0</ns3:atemp>
          </ns3:TrackPointExtension>
        </extensions>
      </trkpt>
      <trkpt lat="42.51414603553712368011474609375" lon="19.88435829989612102508544921875">
        <ele>1540.5999755859375</ele>
        <time>2026-06-17T12:43:39.000Z</time>
        <extensions>
          <ns3:TrackPointExtension>
            <ns3:atemp>22.0</ns3:atemp>
          </ns3:TrackPointExtension>
        </extensions>
      </trkpt>
      <trkpt lat="42.51415274105966091156005859375" lon="19.8843163065612316131591796875">
        <ele>1540.199951171875</ele>
        <time>2026-06-17T12:43:40.000Z</time>
        <extensions>
          <ns3:TrackPointExtension>
            <ns3:atemp>22.0</ns3:atemp>
          </ns3:TrackPointExtension>
        </extensions>
      </trkpt>
      <trkpt lat="42.51416581682860851287841796875" lon="19.88428093492984771728515625">
        <ele>1539.800048828125</ele>
        <time>2026-06-17T12:43:41.000Z</time>
        <extensions>
          <ns3:TrackPointExtension>
            <ns3:atemp>22.0</ns3:atemp>
          </ns3:TrackPointExtension>
        </extensions>
      </trkpt>
      <trkpt lat="42.51417763531208038330078125" lon="19.884253442287445068359375">
        <ele>1539.199951171875</ele>
        <time>2026-06-17T12:43:42.000Z</time>
        <extensions>
          <ns3:TrackPointExtension>
            <ns3:atemp>22.0</ns3:atemp>
          </ns3:TrackPointExtension>
        </extensions>
      </trkpt>
      <trkpt lat="42.5141928903758525848388671875" lon="19.88423265516757965087890625">
        <ele>1538.800048828125</ele>
        <time>2026-06-17T12:43:43.000Z</time>
        <extensions>
          <ns3:TrackPointExtension>
            <ns3:atemp>22.0</ns3:atemp>
          </ns3:TrackPointExtension>
        </extensions>
      </trkpt>
      <trkpt lat="42.51420185901224613189697265625" lon="19.88420893438160419464111328125">
        <ele>1538.4000244140625</ele>
        <time>2026-06-17T12:43:44.000Z</time>
        <extensions>
          <ns3:TrackPointExtension>
            <ns3:atemp>22.0</ns3:atemp>
          </ns3:TrackPointExtension>
        </extensions>
      </trkpt>
      <trkpt lat="42.5142153538763523101806640625" lon="19.88418898545205593109130859375">
        <ele>1537.800048828125</ele>
        <time>2026-06-17T12:43:45.000Z</time>
        <extensions>
          <ns3:TrackPointExtension>
            <ns3:atemp>22.0</ns3:atemp>
          </ns3:TrackPointExtension>
        </extensions>
      </trkpt>
      <trkpt lat="42.51423236913979053497314453125" lon="19.88416803069412708282470703125">
        <ele>1537.4000244140625</ele>
        <time>2026-06-17T12:43:46.000Z</time>
        <extensions>
          <ns3:TrackPointExtension>
            <ns3:atemp>22.0</ns3:atemp>
          </ns3:TrackPointExtension>
        </extensions>
      </trkpt>
      <trkpt lat="42.51424913294613361358642578125" lon="19.884140789508819580078125">
        <ele>1537</ele>
        <time>2026-06-17T12:43:47.000Z</time>
        <extensions>
          <ns3:TrackPointExtension>
            <ns3:atemp>22.0</ns3:atemp>
          </ns3:TrackPointExtension>
        </extensions>
      </trkpt>
      <trkpt lat="42.5142668187618255615234375" lon="19.8841094411909580230712890625">
        <ele>1536.5999755859375</ele>
        <time>2026-06-17T12:43:48.000Z</time>
        <extensions>
          <ns3:TrackPointExtension>
            <ns3:atemp>22.0</ns3:atemp>
          </ns3:TrackPointExtension>
        </extensions>
      </trkpt>
      <trkpt lat="42.51429137773811817169189453125" lon="19.88407817669212818145751953125">
        <ele>1536</ele>
        <time>2026-06-17T12:43:49.000Z</time>
        <extensions>
          <ns3:TrackPointExtension>
            <ns3:atemp>22.0</ns3:atemp>
          </ns3:TrackPointExtension>
        </extensions>
      </trkpt>
      <trkpt lat="42.51431308686733245849609375" lon="19.88404783420264720916748046875">
        <ele>1535.5999755859375</ele>
        <time>2026-06-17T12:43:50.000Z</time>
        <extensions>
          <ns3:TrackPointExtension>
            <ns3:atemp>22.0</ns3:atemp>
          </ns3:TrackPointExtension>
        </extensions>
      </trkpt>
      <trkpt lat="42.5143333710730075836181640625" lon="19.8840142227709293365478515625">
        <ele>1535</ele>
        <time>2026-06-17T12:43:51.000Z</time>
        <extensions>
          <ns3:TrackPointExtension>
            <ns3:atemp>22.0</ns3:atemp>
          </ns3:TrackPointExtension>
        </extensions>
      </trkpt>
      <trkpt lat="42.5143538229167461395263671875" lon="19.8839850537478923797607421875">
        <ele>1534.4000244140625</ele>
        <time>2026-06-17T12:43:52.000Z</time>
        <extensions>
          <ns3:TrackPointExtension>
            <ns3:atemp>22.0</ns3:atemp>
          </ns3:TrackPointExtension>
        </extensions>
      </trkpt>
      <trkpt lat="42.5143779627978801727294921875" lon="19.88395228050649166107177734375">
        <ele>1534</ele>
        <time>2026-06-17T12:43:53.000Z</time>
        <extensions>
          <ns3:TrackPointExtension>
            <ns3:atemp>22.0</ns3:atemp>
          </ns3:TrackPointExtension>
        </extensions>
      </trkpt>
      <trkpt lat="42.514401264488697052001953125" lon="19.88391724415123462677001953125">
        <ele>1533.5999755859375</ele>
        <time>2026-06-17T12:43:54.000Z</time>
        <extensions>
          <ns3:TrackPointExtension>
            <ns3:atemp>22.0</ns3:atemp>
          </ns3:TrackPointExtension>
        </extensions>
      </trkpt>
      <trkpt lat="42.51442381180822849273681640625" lon="19.88388321362435817718505859375">
        <ele>1533</ele>
        <time>2026-06-17T12:43:55.000Z</time>
        <extensions>
          <ns3:TrackPointExtension>
            <ns3:atemp>22.0</ns3:atemp>
          </ns3:TrackPointExtension>
        </extensions>
      </trkpt>
      <trkpt lat="42.51444258727133274078369140625" lon="19.883850775659084320068359375">
        <ele>1532.4000244140625</ele>
        <time>2026-06-17T12:43:56.000Z</time>
        <extensions>
          <ns3:TrackPointExtension>
            <ns3:atemp>22.0</ns3:atemp>
          </ns3:TrackPointExtension>
        </extensions>
      </trkpt>
      <trkpt lat="42.51446329057216644287109375" lon="19.883817918598651885986328125">
        <ele>1531.800048828125</ele>
        <time>2026-06-17T12:43:57.000Z</time>
        <extensions>
          <ns3:TrackPointExtension>
            <ns3:atemp>22.0</ns3:atemp>
          </ns3:TrackPointExtension>
        </extensions>
      </trkpt>
      <trkpt lat="42.51448164694011211395263671875" lon="19.8837828822433948516845703125">
        <ele>1531.199951171875</ele>
        <time>2026-06-17T12:43:58.000Z</time>
        <extensions>
          <ns3:TrackPointExtension>
            <ns3:atemp>22.0</ns3:atemp>
          </ns3:TrackPointExtension>
        </extensions>
      </trkpt>
      <trkpt lat="42.5145108997821807861328125" lon="19.88374650478363037109375">
        <ele>1530.5999755859375</ele>
        <time>2026-06-17T12:43:59.000Z</time>
        <extensions>
          <ns3:TrackPointExtension>
            <ns3:atemp>22.0</ns3:atemp>
          </ns3:TrackPointExtension>
        </extensions>
      </trkpt>
      <trkpt lat="42.51453705132007598876953125" lon="19.883709959685802459716796875">
        <ele>1530</ele>
        <time>2026-06-17T12:44:00.000Z</time>
        <extensions>
          <ns3:TrackPointExtension>
            <ns3:atemp>22.0</ns3:atemp>
          </ns3:TrackPointExtension>
        </extensions>
      </trkpt>
      <trkpt lat="42.514566890895366668701171875" lon="19.88366679288446903228759765625">
        <ele>1529.4000244140625</ele>
        <time>2026-06-17T12:44:01.000Z</time>
        <extensions>
          <ns3:TrackPointExtension>
            <ns3:atemp>21.0</ns3:atemp>
          </ns3:TrackPointExtension>
        </extensions>
      </trkpt>
      <trkpt lat="42.51458927057683467864990234375" lon="19.8836216144263744354248046875">
        <ele>1528.4000244140625</ele>
        <time>2026-06-17T12:44:02.000Z</time>
        <extensions>
          <ns3:TrackPointExtension>
            <ns3:atemp>22.0</ns3:atemp>
          </ns3:TrackPointExtension>
        </extensions>
      </trkpt>
      <trkpt lat="42.51460888423025608062744140625" lon="19.88356017507612705230712890625">
        <ele>1527.800048828125</ele>
        <time>2026-06-17T12:44:03.000Z</time>
        <extensions>
          <ns3:TrackPointExtension>
            <ns3:atemp>22.0</ns3:atemp>
          </ns3:TrackPointExtension>
        </extensions>
      </trkpt>
      <trkpt lat="42.51463553868234157562255859375" lon="19.883495382964611053466796875">
        <ele>1527</ele>
        <time>2026-06-17T12:44:04.000Z</time>
        <extensions>
          <ns3:TrackPointExtension>
            <ns3:atemp>22.0</ns3:atemp>
          </ns3:TrackPointExtension>
        </extensions>
      </trkpt>
      <trkpt lat="42.51466822810471057891845703125" lon="19.88342857919633388519287109375">
        <ele>1526.199951171875</ele>
        <time>2026-06-17T12:44:05.000Z</time>
        <extensions>
          <ns3:TrackPointExtension>
            <ns3:atemp>22.0</ns3:atemp>
          </ns3:TrackPointExtension>
        </extensions>
      </trkpt>
      <trkpt lat="42.51471566967666149139404296875" lon="19.8833668045699596405029296875">
        <ele>1525.4000244140625</ele>
        <time>2026-06-17T12:44:06.000Z</time>
        <extensions>
          <ns3:TrackPointExtension>
            <ns3:atemp>21.0</ns3:atemp>
          </ns3:TrackPointExtension>
        </extensions>
      </trkpt>
      <trkpt lat="42.51476545818150043487548828125" lon="19.883303605020046234130859375">
        <ele>1524.800048828125</ele>
        <time>2026-06-17T12:44:07.000Z</time>
        <extensions>
          <ns3:TrackPointExtension>
            <ns3:atemp>21.0</ns3:atemp>
          </ns3:TrackPointExtension>
        </extensions>
      </trkpt>
      <trkpt lat="42.5148067809641361236572265625" lon="19.8832350410521030426025390625">
        <ele>1523.800048828125</ele>
        <time>2026-06-17T12:44:08.000Z</time>
        <extensions>
          <ns3:TrackPointExtension>
            <ns3:atemp>21.0</ns3:atemp>
          </ns3:TrackPointExtension>
        </extensions>
      </trkpt>
      <trkpt lat="42.51484282314777374267578125" lon="19.8831689916551113128662109375">
        <ele>1523.199951171875</ele>
        <time>2026-06-17T12:44:09.000Z</time>
        <extensions>
          <ns3:TrackPointExtension>
            <ns3:atemp>21.0</ns3:atemp>
          </ns3:TrackPointExtension>
        </extensions>
      </trkpt>
      <trkpt lat="42.51487324945628643035888671875" lon="19.88309749402105808258056640625">
        <ele>1522.800048828125</ele>
        <time>2026-06-17T12:44:10.000Z</time>
        <extensions>
          <ns3:TrackPointExtension>
            <ns3:atemp>21.0</ns3:atemp>
          </ns3:TrackPointExtension>
        </extensions>
      </trkpt>
      <trkpt lat="42.51490459777414798736572265625" lon="19.8830181173980236053466796875">
        <ele>1522.4000244140625</ele>
        <time>2026-06-17T12:44:11.000Z</time>
        <extensions>
          <ns3:TrackPointExtension>
            <ns3:atemp>21.0</ns3:atemp>
          </ns3:TrackPointExtension>
        </extensions>
      </trkpt>
      <trkpt lat="42.51494013704359531402587890625" lon="19.882943518459796905517578125">
        <ele>1522</ele>
        <time>2026-06-17T12:44:12.000Z</time>
        <extensions>
          <ns3:TrackPointExtension>
            <ns3:atemp>21.0</ns3:atemp>
          </ns3:TrackPointExtension>
        </extensions>
      </trkpt>
      <trkpt lat="42.51498355530202388763427734375" lon="19.88287570886313915252685546875">
        <ele>1521.4000244140625</ele>
        <time>2026-06-17T12:44:13.000Z</time>
        <extensions>
          <ns3:TrackPointExtension>
            <ns3:atemp>21.0</ns3:atemp>
          </ns3:TrackPointExtension>
        </extensions>
      </trkpt>
      <trkpt lat="42.5150340981781482696533203125" lon="19.882810413837432861328125">
        <ele>1520.800048828125</ele>
        <time>2026-06-17T12:44:14.000Z</time>
        <extensions>
          <ns3:TrackPointExtension>
            <ns3:atemp>21.0</ns3:atemp>
          </ns3:TrackPointExtension>
        </extensions>
      </trkpt>
      <trkpt lat="42.5150947831571102142333984375" lon="19.8827532492578029632568359375">
        <ele>1520.199951171875</ele>
        <time>2026-06-17T12:44:15.000Z</time>
        <extensions>
          <ns3:TrackPointExtension>
            <ns3:atemp>21.0</ns3:atemp>
          </ns3:TrackPointExtension>
        </extensions>
      </trkpt>
      <trkpt lat="42.51515488140285015106201171875" lon="19.88270237110555171966552734375">
        <ele>1519.800048828125</ele>
        <time>2026-06-17T12:44:16.000Z</time>
        <extensions>
          <ns3:TrackPointExtension>
            <ns3:atemp>21.0</ns3:atemp>
          </ns3:TrackPointExtension>
        </extensions>
      </trkpt>
      <trkpt lat="42.51521053723990917205810546875" lon="19.88266113214194774627685546875">
        <ele>1519.4000244140625</ele>
        <time>2026-06-17T12:44:17.000Z</time>
        <extensions>
          <ns3:TrackPointExtension>
            <ns3:atemp>21.0</ns3:atemp>
          </ns3:TrackPointExtension>
        </extensions>
      </trkpt>
      <trkpt lat="42.5152550451457500457763671875" lon="19.88261050544679164886474609375">
        <ele>1519</ele>
        <time>2026-06-17T12:44:18.000Z</time>
        <extensions>
          <ns3:TrackPointExtension>
            <ns3:atemp>21.0</ns3:atemp>
          </ns3:TrackPointExtension>
        </extensions>
      </trkpt>
      <trkpt lat="42.51528915949165821075439453125" lon="19.88254831172525882720947265625">
        <ele>1518.5999755859375</ele>
        <time>2026-06-17T12:44:19.000Z</time>
        <extensions>
          <ns3:TrackPointExtension>
            <ns3:atemp>21.0</ns3:atemp>
          </ns3:TrackPointExtension>
        </extensions>
      </trkpt>
      <trkpt lat="42.51532620750367641448974609375" lon="19.882478825747966766357421875">
        <ele>1518</ele>
        <time>2026-06-17T12:44:20.000Z</time>
        <extensions>
          <ns3:TrackPointExtension>
            <ns3:atemp>21.0</ns3:atemp>
          </ns3:TrackPointExtension>
        </extensions>
      </trkpt>
      <trkpt lat="42.5153718888759613037109375" lon="19.88241269253194332122802734375">
        <ele>1517.199951171875</ele>
        <time>2026-06-17T12:44:21.000Z</time>
        <extensions>
          <ns3:TrackPointExtension>
            <ns3:atemp>21.0</ns3:atemp>
          </ns3:TrackPointExtension>
        </extensions>
      </trkpt>
      <trkpt lat="42.51541874371469020843505859375" lon="19.882348068058490753173828125">
        <ele>1516.4000244140625</ele>
        <time>2026-06-17T12:44:22.000Z</time>
        <extensions>
          <ns3:TrackPointExtension>
            <ns3:atemp>21.0</ns3:atemp>
          </ns3:TrackPointExtension>
        </extensions>
      </trkpt>
      <trkpt lat="42.5154572166502475738525390625" lon="19.88227640278637409210205078125">
        <ele>1515.800048828125</ele>
        <time>2026-06-17T12:44:23.000Z</time>
        <extensions>
          <ns3:TrackPointExtension>
            <ns3:atemp>21.0</ns3:atemp>
          </ns3:TrackPointExtension>
        </extensions>
      </trkpt>
      <trkpt lat="42.51549401320517063140869140625" lon="19.88219694234430789947509765625">
        <ele>1515</ele>
        <time>2026-06-17T12:44:24.000Z</time>
        <extensions>
          <ns3:TrackPointExtension>
            <ns3:atemp>21.0</ns3:atemp>
          </ns3:TrackPointExtension>
        </extensions>
      </trkpt>
      <trkpt lat="42.5155142135918140411376953125" lon="19.88210725598037242889404296875">
        <ele>1514.199951171875</ele>
        <time>2026-06-17T12:44:25.000Z</time>
        <extensions>
          <ns3:TrackPointExtension>
            <ns3:atemp>21.0</ns3:atemp>
          </ns3:TrackPointExtension>
        </extensions>
      </trkpt>
      <trkpt lat="42.5155293010175228118896484375" lon="19.882017485797405242919921875">
        <ele>1513.4000244140625</ele>
        <time>2026-06-17T12:44:26.000Z</time>
        <extensions>
          <ns3:TrackPointExtension>
            <ns3:atemp>21.0</ns3:atemp>
          </ns3:TrackPointExtension>
        </extensions>
      </trkpt>
      <trkpt lat="42.5155393593013286590576171875" lon="19.88192352466285228729248046875">
        <ele>1512.5999755859375</ele>
        <time>2026-06-17T12:44:27.000Z</time>
        <extensions>
          <ns3:TrackPointExtension>
            <ns3:atemp>21.0</ns3:atemp>
          </ns3:TrackPointExtension>
        </extensions>
      </trkpt>
      <trkpt lat="42.51556609757244586944580078125" lon="19.88183551467955112457275390625">
        <ele>1511.5999755859375</ele>
        <time>2026-06-17T12:44:28.000Z</time>
        <extensions>
          <ns3:TrackPointExtension>
            <ns3:atemp>21.0</ns3:atemp>
          </ns3:TrackPointExtension>
        </extensions>
      </trkpt>
      <trkpt lat="42.5156074203550815582275390625" lon="19.88175295293331146240234375">
        <ele>1510.800048828125</ele>
        <time>2026-06-17T12:44:29.000Z</time>
        <extensions>
          <ns3:TrackPointExtension>
            <ns3:atemp>21.0</ns3:atemp>
          </ns3:TrackPointExtension>
        </extensions>
      </trkpt>
      <trkpt lat="42.515653856098651885986328125" lon="19.8816739954054355621337890625">
        <ele>1510</ele>
        <time>2026-06-17T12:44:30.000Z</time>
        <extensions>
          <ns3:TrackPointExtension>
            <ns3:atemp>21.0</ns3:atemp>
          </ns3:TrackPointExtension>
        </extensions>
      </trkpt>
      <trkpt lat="42.51569719053804874420166015625" lon="19.8816035874187946319580078125">
        <ele>1509</ele>
        <time>2026-06-17T12:44:31.000Z</time>
        <extensions>
          <ns3:TrackPointExtension>
            <ns3:atemp>21.0</ns3:atemp>
          </ns3:TrackPointExtension>
        </extensions>
      </trkpt>
      <trkpt lat="42.51573658548295497894287109375" lon="19.8815358616411685943603515625">
        <ele>1508.4000244140625</ele>
        <time>2026-06-17T12:44:32.000Z</time>
        <extensions>
          <ns3:TrackPointExtension>
            <ns3:atemp>21.0</ns3:atemp>
          </ns3:TrackPointExtension>
        </extensions>
      </trkpt>
      <trkpt lat="42.51577044837176799774169921875" lon="19.8814785294234752655029296875">
        <ele>1507.800048828125</ele>
        <time>2026-06-17T12:44:33.000Z</time>
        <extensions>
          <ns3:TrackPointExtension>
            <ns3:atemp>21.0</ns3:atemp>
          </ns3:TrackPointExtension>
        </extensions>
      </trkpt>
      <trkpt lat="42.51579609699547290802001953125" lon="19.8814175091683864593505859375">
        <ele>1507.199951171875</ele>
        <time>2026-06-17T12:44:34.000Z</time>
        <extensions>
          <ns3:TrackPointExtension>
            <ns3:atemp>21.0</ns3:atemp>
          </ns3:TrackPointExtension>
        </extensions>
      </trkpt>
      <trkpt lat="42.51581017859280109405517578125" lon="19.88134584389626979827880859375">
        <ele>1506.4000244140625</ele>
        <time>2026-06-17T12:44:35.000Z</time>
        <extensions>
          <ns3:TrackPointExtension>
            <ns3:atemp>21.0</ns3:atemp>
          </ns3:TrackPointExtension>
        </extensions>
      </trkpt>
      <trkpt lat="42.5158251821994781494140625" lon="19.88127543590962886810302734375">
        <ele>1505.5999755859375</ele>
        <time>2026-06-17T12:44:36.000Z</time>
        <extensions>
          <ns3:TrackPointExtension>
            <ns3:atemp>21.0</ns3:atemp>
          </ns3:TrackPointExtension>
        </extensions>
      </trkpt>
      <trkpt lat="42.515841610729694366455078125" lon="19.8811975680291652679443359375">
        <ele>1504.5999755859375</ele>
        <time>2026-06-17T12:44:37.000Z</time>
        <extensions>
          <ns3:TrackPointExtension>
            <ns3:atemp>21.0</ns3:atemp>
          </ns3:TrackPointExtension>
        </extensions>
      </trkpt>
      <trkpt lat="42.51585996709764003753662109375" lon="19.88111383281648159027099609375">
        <ele>1503.800048828125</ele>
        <time>2026-06-17T12:44:38.000Z</time>
        <extensions>
          <ns3:TrackPointExtension>
            <ns3:atemp>21.0</ns3:atemp>
          </ns3:TrackPointExtension>
        </extensions>
      </trkpt>
      <trkpt lat="42.51587907783687114715576171875" lon="19.8810212127864360809326171875">
        <ele>1502.800048828125</ele>
        <time>2026-06-17T12:44:39.000Z</time>
        <extensions>
          <ns3:TrackPointExtension>
            <ns3:atemp>21.0</ns3:atemp>
          </ns3:TrackPointExtension>
        </extensions>
      </trkpt>
      <trkpt lat="42.5158950872719287872314453125" lon="19.88093085587024688720703125">
        <ele>1502</ele>
        <time>2026-06-17T12:44:40.000Z</time>
        <extensions>
          <ns3:TrackPointExtension>
            <ns3:atemp>21.0</ns3:atemp>
          </ns3:TrackPointExtension>
        </extensions>
      </trkpt>
      <trkpt lat="42.51591570675373077392578125" lon="19.880842678248882293701171875">
        <ele>1501.199951171875</ele>
        <time>2026-06-17T12:44:41.000Z</time>
        <extensions>
          <ns3:TrackPointExtension>
            <ns3:atemp>21.0</ns3:atemp>
          </ns3:TrackPointExtension>
        </extensions>
      </trkpt>
      <trkpt lat="42.51593540422618389129638671875" lon="19.88075592555105686187744140625">
        <ele>1500.4000244140625</ele>
        <time>2026-06-17T12:44:42.000Z</time>
        <extensions>
          <ns3:TrackPointExtension>
            <ns3:atemp>21.0</ns3:atemp>
          </ns3:TrackPointExtension>
        </extensions>
      </trkpt>
      <trkpt lat="42.515971362590789794921875" lon="19.88066934049129486083984375">
        <ele>1499.4000244140625</ele>
        <time>2026-06-17T12:44:43.000Z</time>
        <extensions>
          <ns3:TrackPointExtension>
            <ns3:atemp>21.0</ns3:atemp>
          </ns3:TrackPointExtension>
        </extensions>
      </trkpt>
      <trkpt lat="42.51601670868694782257080078125" lon="19.88057990558445453643798828125">
        <ele>1498.800048828125</ele>
        <time>2026-06-17T12:44:44.000Z</time>
        <extensions>
          <ns3:TrackPointExtension>
            <ns3:atemp>21.0</ns3:atemp>
          </ns3:TrackPointExtension>
        </extensions>
      </trkpt>
      <trkpt lat="42.51606197096407413482666015625" lon="19.8804800771176815032958984375">
        <ele>1497.800048828125</ele>
        <time>2026-06-17T12:44:45.000Z</time>
        <extensions>
          <ns3:TrackPointExtension>
            <ns3:atemp>21.0</ns3:atemp>
          </ns3:TrackPointExtension>
        </extensions>
      </trkpt>
      <trkpt lat="42.51610237173736095428466796875" lon="19.8803831823170185089111328125">
        <ele>1497</ele>
        <time>2026-06-17T12:44:46.000Z</time>
        <extensions>
          <ns3:TrackPointExtension>
            <ns3:atemp>21.0</ns3:atemp>
          </ns3:TrackPointExtension>
        </extensions>
      </trkpt>
      <trkpt lat="42.51614578999578952789306640625" lon="19.8802990280091762542724609375">
        <ele>1496.199951171875</ele>
        <time>2026-06-17T12:44:47.000Z</time>
        <extensions>
          <ns3:TrackPointExtension>
            <ns3:atemp>21.0</ns3:atemp>
          </ns3:TrackPointExtension>
        </extensions>
      </trkpt>
      <trkpt lat="42.5161894597113132476806640625" lon="19.880219064652919769287109375">
        <ele>1495.199951171875</ele>
        <time>2026-06-17T12:44:48.000Z</time>
        <extensions>
          <ns3:TrackPointExtension>
            <ns3:atemp>21.0</ns3:atemp>
          </ns3:TrackPointExtension>
        </extensions>
      </trkpt>
      <trkpt lat="42.516230531036853790283203125" lon="19.8801451362669467926025390625">
        <ele>1494.5999755859375</ele>
        <time>2026-06-17T12:44:49.000Z</time>
        <extensions>
          <ns3:TrackPointExtension>
            <ns3:atemp>21.0</ns3:atemp>
          </ns3:TrackPointExtension>
        </extensions>
      </trkpt>
      <trkpt lat="42.51625995151698589324951171875" lon="19.880078919231891632080078125">
        <ele>1494</ele>
        <time>2026-06-17T12:44:50.000Z</time>
        <extensions>
          <ns3:TrackPointExtension>
            <ns3:atemp>21.0</ns3:atemp>
          </ns3:TrackPointExtension>
        </extensions>
      </trkpt>
      <trkpt lat="42.516282498836517333984375" lon="19.88002619706094264984130859375">
        <ele>1493.4000244140625</ele>
        <time>2026-06-17T12:44:51.000Z</time>
        <extensions>
          <ns3:TrackPointExtension>
            <ns3:atemp>21.0</ns3:atemp>
          </ns3:TrackPointExtension>
        </extensions>
      </trkpt>
      <trkpt lat="42.51629926264286041259765625" lon="19.87998227588832378387451171875">
        <ele>1493</ele>
        <time>2026-06-17T12:44:52.000Z</time>
        <extensions>
          <ns3:TrackPointExtension>
            <ns3:atemp>21.0</ns3:atemp>
          </ns3:TrackPointExtension>
        </extensions>
      </trkpt>
      <trkpt lat="42.51630454324185848236083984375" lon="19.8799446411430835723876953125">
        <ele>1492.4000244140625</ele>
        <time>2026-06-17T12:44:53.000Z</time>
        <extensions>
          <ns3:TrackPointExtension>
            <ns3:atemp>21.0</ns3:atemp>
          </ns3:TrackPointExtension>
        </extensions>
      </trkpt>
      <trkpt lat="42.5163078121840953826904296875" lon="19.87993215210735797882080078125">
        <ele>1491.800048828125</ele>
        <time>2026-06-17T12:44:54.000Z</time>
        <extensions>
          <ns3:TrackPointExtension>
            <ns3:atemp>21.0</ns3:atemp>
          </ns3:TrackPointExtension>
        </extensions>
      </trkpt>
      <trkpt lat="42.5163078121840953826904296875" lon="19.87993215210735797882080078125">
        <ele>1491.4000244140625</ele>
        <time>2026-06-17T12:44:55.000Z</time>
        <extensions>
          <ns3:TrackPointExtension>
            <ns3:atemp>21.0</ns3:atemp>
          </ns3:TrackPointExtension>
        </extensions>
      </trkpt>
      <trkpt lat="42.5163078121840953826904296875" lon="19.87993215210735797882080078125">
        <ele>1490.800048828125</ele>
        <time>2026-06-17T12:44:56.000Z</time>
        <extensions>
          <ns3:TrackPointExtension>
            <ns3:atemp>21.0</ns3:atemp>
          </ns3:TrackPointExtension>
        </extensions>
      </trkpt>
      <trkpt lat="42.5163078121840953826904296875" lon="19.87993215210735797882080078125">
        <ele>1490.5999755859375</ele>
        <time>2026-06-17T12:44:57.000Z</time>
        <extensions>
          <ns3:TrackPointExtension>
            <ns3:atemp>21.0</ns3:atemp>
          </ns3:TrackPointExtension>
        </extensions>
      </trkpt>
      <trkpt lat="42.5163078121840953826904296875" lon="19.87993215210735797882080078125">
        <ele>1490.4000244140625</ele>
        <time>2026-06-17T12:44:58.000Z</time>
        <extensions>
          <ns3:TrackPointExtension>
            <ns3:atemp>21.0</ns3:atemp>
          </ns3:TrackPointExtension>
        </extensions>
      </trkpt>
      <trkpt lat="42.5163078121840953826904296875" lon="19.87993215210735797882080078125">
        <ele>1490.199951171875</ele>
        <time>2026-06-17T12:44:59.000Z</time>
        <extensions>
          <ns3:TrackPointExtension>
            <ns3:atemp>21.0</ns3:atemp>
          </ns3:TrackPointExtension>
        </extensions>
      </trkpt>
      <trkpt lat="42.5163078121840953826904296875" lon="19.87993215210735797882080078125">
        <ele>1490</ele>
        <time>2026-06-17T12:45:00.000Z</time>
        <extensions>
          <ns3:TrackPointExtension>
            <ns3:atemp>21.0</ns3:atemp>
          </ns3:TrackPointExtension>
        </extensions>
      </trkpt>
      <trkpt lat="42.5163078121840953826904296875" lon="19.87993215210735797882080078125">
        <ele>1489.800048828125</ele>
        <time>2026-06-17T12:45:01.000Z</time>
        <extensions>
          <ns3:TrackPointExtension>
            <ns3:atemp>21.0</ns3:atemp>
          </ns3:TrackPointExtension>
        </extensions>
      </trkpt>
      <trkpt lat="42.5163078121840953826904296875" lon="19.87993215210735797882080078125">
        <ele>1489.5999755859375</ele>
        <time>2026-06-17T12:45:02.000Z</time>
        <extensions>
          <ns3:TrackPointExtension>
            <ns3:atemp>21.0</ns3:atemp>
          </ns3:TrackPointExtension>
        </extensions>
      </trkpt>
      <trkpt lat="42.5163078121840953826904296875" lon="19.87993215210735797882080078125">
        <ele>1489.5999755859375</ele>
        <time>2026-06-17T12:45:03.000Z</time>
        <extensions>
          <ns3:TrackPointExtension>
            <ns3:atemp>21.0</ns3:atemp>
          </ns3:TrackPointExtension>
        </extensions>
      </trkpt>
      <trkpt lat="42.5163078121840953826904296875" lon="19.87993215210735797882080078125">
        <ele>1489.4000244140625</ele>
        <time>2026-06-17T12:45:04.000Z</time>
        <extensions>
          <ns3:TrackPointExtension>
            <ns3:atemp>21.0</ns3:atemp>
          </ns3:TrackPointExtension>
        </extensions>
      </trkpt>
      <trkpt lat="42.5163078121840953826904296875" lon="19.87993215210735797882080078125">
        <ele>1489.4000244140625</ele>
        <time>2026-06-17T12:45:05.000Z</time>
        <extensions>
          <ns3:TrackPointExtension>
            <ns3:atemp>21.0</ns3:atemp>
          </ns3:TrackPointExtension>
        </extensions>
      </trkpt>
      <trkpt lat="42.5163078121840953826904296875" lon="19.87993215210735797882080078125">
        <ele>1489.199951171875</ele>
        <time>2026-06-17T12:45:06.000Z</time>
        <extensions>
          <ns3:TrackPointExtension>
            <ns3:atemp>21.0</ns3:atemp>
          </ns3:TrackPointExtension>
        </extensions>
      </trkpt>
      <trkpt lat="42.5163078121840953826904296875" lon="19.87993215210735797882080078125">
        <ele>1489.199951171875</ele>
        <time>2026-06-17T12:45:07.000Z</time>
        <extensions>
          <ns3:TrackPointExtension>
            <ns3:atemp>21.0</ns3:atemp>
          </ns3:TrackPointExtension>
        </extensions>
      </trkpt>
      <trkpt lat="42.5163078121840953826904296875" lon="19.87993215210735797882080078125">
        <ele>1489.199951171875</ele>
        <time>2026-06-17T12:45:08.000Z</time>
        <extensions>
          <ns3:TrackPointExtension>
            <ns3:atemp>21.0</ns3:atemp>
          </ns3:TrackPointExtension>
        </extensions>
      </trkpt>
      <trkpt lat="42.5163078121840953826904296875" lon="19.87993215210735797882080078125">
        <ele>1489.199951171875</ele>
        <time>2026-06-17T12:45:09.000Z</time>
        <extensions>
          <ns3:TrackPointExtension>
            <ns3:atemp>21.0</ns3:atemp>
          </ns3:TrackPointExtension>
        </extensions>
      </trkpt>
      <trkpt lat="42.5163078121840953826904296875" lon="19.87993215210735797882080078125">
        <ele>1489.199951171875</ele>
        <time>2026-06-17T12:45:10.000Z</time>
        <extensions>
          <ns3:TrackPointExtension>
            <ns3:atemp>21.0</ns3:atemp>
          </ns3:TrackPointExtension>
        </extensions>
      </trkpt>
      <trkpt lat="42.5163078121840953826904296875" lon="19.87993215210735797882080078125">
        <ele>1489.199951171875</ele>
        <time>2026-06-17T12:45:11.000Z</time>
        <extensions>
          <ns3:TrackPointExtension>
            <ns3:atemp>21.0</ns3:atemp>
          </ns3:TrackPointExtension>
        </extensions>
      </trkpt>
      <trkpt lat="42.5163078121840953826904296875" lon="19.87993215210735797882080078125">
        <ele>1489</ele>
        <time>2026-06-17T12:45:12.000Z</time>
        <extensions>
          <ns3:TrackPointExtension>
            <ns3:atemp>21.0</ns3:atemp>
          </ns3:TrackPointExtension>
        </extensions>
      </trkpt>
      <trkpt lat="42.5163078121840953826904296875" lon="19.87993215210735797882080078125">
        <ele>1489</ele>
        <time>2026-06-17T12:45:13.000Z</time>
        <extensions>
          <ns3:TrackPointExtension>
            <ns3:atemp>21.0</ns3:atemp>
          </ns3:TrackPointExtension>
        </extensions>
      </trkpt>
      <trkpt lat="42.5163078121840953826904296875" lon="19.87993215210735797882080078125">
        <ele>1489</ele>
        <time>2026-06-17T12:45:14.000Z</time>
        <extensions>
          <ns3:TrackPointExtension>
            <ns3:atemp>21.0</ns3:atemp>
          </ns3:TrackPointExtension>
        </extensions>
      </trkpt>
      <trkpt lat="42.5163078121840953826904296875" lon="19.87993215210735797882080078125">
        <ele>1489</ele>
        <time>2026-06-17T12:45:15.000Z</time>
        <extensions>
          <ns3:TrackPointExtension>
            <ns3:atemp>21.0</ns3:atemp>
          </ns3:TrackPointExtension>
        </extensions>
      </trkpt>
      <trkpt lat="42.5163078121840953826904296875" lon="19.87993215210735797882080078125">
        <ele>1489</ele>
        <time>2026-06-17T12:45:16.000Z</time>
        <extensions>
          <ns3:TrackPointExtension>
            <ns3:atemp>21.0</ns3:atemp>
          </ns3:TrackPointExtension>
        </extensions>
      </trkpt>
      <trkpt lat="42.5163078121840953826904296875" lon="19.87993215210735797882080078125">
        <ele>1489</ele>
        <time>2026-06-17T12:45:17.000Z</time>
        <extensions>
          <ns3:TrackPointExtension>
            <ns3:atemp>21.0</ns3:atemp>
          </ns3:TrackPointExtension>
        </extensions>
      </trkpt>
      <trkpt lat="42.5163078121840953826904296875" lon="19.87993215210735797882080078125">
        <ele>1488.800048828125</ele>
        <time>2026-06-17T12:45:18.000Z</time>
        <extensions>
          <ns3:TrackPointExtension>
            <ns3:atemp>21.0</ns3:atemp>
          </ns3:TrackPointExtension>
        </extensions>
      </trkpt>
      <trkpt lat="42.5163078121840953826904296875" lon="19.87993215210735797882080078125">
        <ele>1488.800048828125</ele>
        <time>2026-06-17T12:45:19.000Z</time>
        <extensions>
          <ns3:TrackPointExtension>
            <ns3:atemp>21.0</ns3:atemp>
          </ns3:TrackPointExtension>
        </extensions>
      </trkpt>
      <trkpt lat="42.5163078121840953826904296875" lon="19.87993215210735797882080078125">
        <ele>1488.800048828125</ele>
        <time>2026-06-17T12:45:20.000Z</time>
        <extensions>
          <ns3:TrackPointExtension>
            <ns3:atemp>21.0</ns3:atemp>
          </ns3:TrackPointExtension>
        </extensions>
      </trkpt>
      <trkpt lat="42.5163078121840953826904296875" lon="19.87993215210735797882080078125">
        <ele>1488.800048828125</ele>
        <time>2026-06-17T12:45:21.000Z</time>
        <extensions>
          <ns3:TrackPointExtension>
            <ns3:atemp>21.0</ns3:atemp>
          </ns3:TrackPointExtension>
        </extensions>
      </trkpt>
      <trkpt lat="42.5163078121840953826904296875" lon="19.87993215210735797882080078125">
        <ele>1488.800048828125</ele>
        <time>2026-06-17T12:45:22.000Z</time>
        <extensions>
          <ns3:TrackPointExtension>
            <ns3:atemp>21.0</ns3:atemp>
          </ns3:TrackPointExtension>
        </extensions>
      </trkpt>
      <trkpt lat="42.5163078121840953826904296875" lon="19.87993215210735797882080078125">
        <ele>1488.800048828125</ele>
        <time>2026-06-17T12:45:23.000Z</time>
        <extensions>
          <ns3:TrackPointExtension>
            <ns3:atemp>21.0</ns3:atemp>
          </ns3:TrackPointExtension>
        </extensions>
      </trkpt>
      <trkpt lat="42.5163078121840953826904296875" lon="19.87993215210735797882080078125">
        <ele>1488.800048828125</ele>
        <time>2026-06-17T12:45:24.000Z</time>
        <extensions>
          <ns3:TrackPointExtension>
            <ns3:atemp>21.0</ns3:atemp>
          </ns3:TrackPointExtension>
        </extensions>
      </trkpt>
      <trkpt lat="42.5163078121840953826904296875" lon="19.87993215210735797882080078125">
        <ele>1488.800048828125</ele>
        <time>2026-06-17T12:45:25.000Z</time>
        <extensions>
          <ns3:TrackPointExtension>
            <ns3:atemp>21.0</ns3:atemp>
          </ns3:TrackPointExtension>
        </extensions>
      </trkpt>
      <trkpt lat="42.5163078121840953826904296875" lon="19.87993215210735797882080078125">
        <ele>1488.800048828125</ele>
        <time>2026-06-17T12:45:26.000Z</time>
        <extensions>
          <ns3:TrackPointExtension>
            <ns3:atemp>21.0</ns3:atemp>
          </ns3:TrackPointExtension>
        </extensions>
      </trkpt>
      <trkpt lat="42.5163078121840953826904296875" lon="19.87993215210735797882080078125">
        <ele>1488.800048828125</ele>
        <time>2026-06-17T12:45:27.000Z</time>
        <extensions>
          <ns3:TrackPointExtension>
            <ns3:atemp>21.0</ns3:atemp>
          </ns3:TrackPointExtension>
        </extensions>
      </trkpt>
      <trkpt lat="42.5163078121840953826904296875" lon="19.87993215210735797882080078125">
        <ele>1488.800048828125</ele>
        <time>2026-06-17T12:45:28.000Z</time>
        <extensions>
          <ns3:TrackPointExtension>
            <ns3:atemp>21.0</ns3:atemp>
          </ns3:TrackPointExtension>
        </extensions>
      </trkpt>
      <trkpt lat="42.51630906946957111358642578125" lon="19.8799417912960052490234375">
        <ele>1488.5999755859375</ele>
        <time>2026-06-17T12:45:29.000Z</time>
        <extensions>
          <ns3:TrackPointExtension>
            <ns3:atemp>21.0</ns3:atemp>
          </ns3:TrackPointExtension>
        </extensions>
      </trkpt>
      <trkpt lat="42.5163078121840953826904296875" lon="19.87992896698415279388427734375">
        <ele>1488.5999755859375</ele>
        <time>2026-06-17T12:45:30.000Z</time>
        <extensions>
          <ns3:TrackPointExtension>
            <ns3:atemp>21.0</ns3:atemp>
          </ns3:TrackPointExtension>
        </extensions>
      </trkpt>
      <trkpt lat="42.51630303449928760528564453125" lon="19.8798816092312335968017578125">
        <ele>1488.5999755859375</ele>
        <time>2026-06-17T12:45:31.000Z</time>
        <extensions>
          <ns3:TrackPointExtension>
            <ns3:atemp>21.0</ns3:atemp>
          </ns3:TrackPointExtension>
        </extensions>
      </trkpt>
      <trkpt lat="42.51629917882382869720458984375" lon="19.8798189125955104827880859375">
        <ele>1488.4000244140625</ele>
        <time>2026-06-17T12:45:32.000Z</time>
        <extensions>
          <ns3:TrackPointExtension>
            <ns3:atemp>21.0</ns3:atemp>
          </ns3:TrackPointExtension>
        </extensions>
      </trkpt>
      <trkpt lat="42.51630454324185848236083984375" lon="19.87975445576012134552001953125">
        <ele>1488.199951171875</ele>
        <time>2026-06-17T12:45:33.000Z</time>
        <extensions>
          <ns3:TrackPointExtension>
            <ns3:atemp>21.0</ns3:atemp>
          </ns3:TrackPointExtension>
        </extensions>
      </trkpt>
      <trkpt lat="42.516313679516315460205078125" lon="19.8796858079731464385986328125">
        <ele>1487.5999755859375</ele>
        <time>2026-06-17T12:45:34.000Z</time>
        <extensions>
          <ns3:TrackPointExtension>
            <ns3:atemp>21.0</ns3:atemp>
          </ns3:TrackPointExtension>
        </extensions>
      </trkpt>
      <trkpt lat="42.516325414180755615234375" lon="19.87961648963391780853271484375">
        <ele>1486.800048828125</ele>
        <time>2026-06-17T12:45:35.000Z</time>
        <extensions>
          <ns3:TrackPointExtension>
            <ns3:atemp>21.0</ns3:atemp>
          </ns3:TrackPointExtension>
        </extensions>
      </trkpt>
      <trkpt lat="42.51633874140679836273193359375" lon="19.879551865160465240478515625">
        <ele>1485.800048828125</ele>
        <time>2026-06-17T12:45:36.000Z</time>
        <extensions>
          <ns3:TrackPointExtension>
            <ns3:atemp>21.0</ns3:atemp>
          </ns3:TrackPointExtension>
        </extensions>
      </trkpt>
      <trkpt lat="42.51635500229895114898681640625" lon="19.879500903189182281494140625">
        <ele>1485</ele>
        <time>2026-06-17T12:45:37.000Z</time>
        <extensions>
          <ns3:TrackPointExtension>
            <ns3:atemp>21.0</ns3:atemp>
          </ns3:TrackPointExtension>
        </extensions>
      </trkpt>
      <trkpt lat="42.5163669884204864501953125" lon="19.87945136614143848419189453125">
        <ele>1484.4000244140625</ele>
        <time>2026-06-17T12:45:38.000Z</time>
        <extensions>
          <ns3:TrackPointExtension>
            <ns3:atemp>21.0</ns3:atemp>
          </ns3:TrackPointExtension>
        </extensions>
      </trkpt>
      <trkpt lat="42.51637168228626251220703125" lon="19.87940107472240924835205078125">
        <ele>1483.5999755859375</ele>
        <time>2026-06-17T12:45:39.000Z</time>
        <extensions>
          <ns3:TrackPointExtension>
            <ns3:atemp>21.0</ns3:atemp>
          </ns3:TrackPointExtension>
        </extensions>
      </trkpt>
      <trkpt lat="42.51636489294469356536865234375" lon="19.87935103476047515869140625">
        <ele>1483</ele>
        <time>2026-06-17T12:45:40.000Z</time>
        <extensions>
          <ns3:TrackPointExtension>
            <ns3:atemp>21.0</ns3:atemp>
          </ns3:TrackPointExtension>
        </extensions>
      </trkpt>
      <trkpt lat="42.51635030843317508697509765625" lon="19.8793270625174045562744140625">
        <ele>1482</ele>
        <time>2026-06-17T12:45:41.000Z</time>
        <extensions>
          <ns3:TrackPointExtension>
            <ns3:atemp>21.0</ns3:atemp>
          </ns3:TrackPointExtension>
        </extensions>
      </trkpt>
      <trkpt lat="42.516335137188434600830078125" lon="19.8793133161962032318115234375">
        <ele>1481.199951171875</ele>
        <time>2026-06-17T12:45:42.000Z</time>
        <extensions>
          <ns3:TrackPointExtension>
            <ns3:atemp>21.0</ns3:atemp>
          </ns3:TrackPointExtension>
        </extensions>
      </trkpt>
      <trkpt lat="42.516314685344696044921875" lon="19.87929965369403362274169921875">
        <ele>1480.5999755859375</ele>
        <time>2026-06-17T12:45:43.000Z</time>
        <extensions>
          <ns3:TrackPointExtension>
            <ns3:atemp>21.0</ns3:atemp>
          </ns3:TrackPointExtension>
        </extensions>
      </trkpt>
      <trkpt lat="42.5162913836538791656494140625" lon="19.87929210998117923736572265625">
        <ele>1479.800048828125</ele>
        <time>2026-06-17T12:45:44.000Z</time>
        <extensions>
          <ns3:TrackPointExtension>
            <ns3:atemp>21.0</ns3:atemp>
          </ns3:TrackPointExtension>
        </extensions>
      </trkpt>
      <trkpt lat="42.516261041164398193359375" lon="19.8792928643524646759033203125">
        <ele>1479.4000244140625</ele>
        <time>2026-06-17T12:45:45.000Z</time>
        <extensions>
          <ns3:TrackPointExtension>
            <ns3:atemp>21.0</ns3:atemp>
          </ns3:TrackPointExtension>
        </extensions>
      </trkpt>
      <trkpt lat="42.51622952520847320556640625" lon="19.879284314811229705810546875">
        <ele>1478.800048828125</ele>
        <time>2026-06-17T12:45:46.000Z</time>
        <extensions>
          <ns3:TrackPointExtension>
            <ns3:atemp>21.0</ns3:atemp>
          </ns3:TrackPointExtension>
        </extensions>
      </trkpt>
      <trkpt lat="42.51620479859411716461181640625" lon="19.8792677186429500579833984375">
        <ele>1478.4000244140625</ele>
        <time>2026-06-17T12:45:47.000Z</time>
        <extensions>
          <ns3:TrackPointExtension>
            <ns3:atemp>21.0</ns3:atemp>
          </ns3:TrackPointExtension>
        </extensions>
      </trkpt>
      <trkpt lat="42.51618971116840839385986328125" lon="19.87923947162926197052001953125">
        <ele>1477.800048828125</ele>
        <time>2026-06-17T12:45:48.000Z</time>
        <extensions>
          <ns3:TrackPointExtension>
            <ns3:atemp>21.0</ns3:atemp>
          </ns3:TrackPointExtension>
        </extensions>
      </trkpt>
      <trkpt lat="42.51618099398910999298095703125" lon="19.8792073689401149749755859375">
        <ele>1477.4000244140625</ele>
        <time>2026-06-17T12:45:49.000Z</time>
        <extensions>
          <ns3:TrackPointExtension>
            <ns3:atemp>21.0</ns3:atemp>
          </ns3:TrackPointExtension>
        </extensions>
      </trkpt>
      <trkpt lat="42.5161820836365222930908203125" lon="19.8791775293648242950439453125">
        <ele>1476.800048828125</ele>
        <time>2026-06-17T12:45:50.000Z</time>
        <extensions>
          <ns3:TrackPointExtension>
            <ns3:atemp>21.0</ns3:atemp>
          </ns3:TrackPointExtension>
        </extensions>
      </trkpt>
      <trkpt lat="42.5161867775022983551025390625" lon="19.879145510494709014892578125">
        <ele>1476.4000244140625</ele>
        <time>2026-06-17T12:45:51.000Z</time>
        <extensions>
          <ns3:TrackPointExtension>
            <ns3:atemp>21.0</ns3:atemp>
          </ns3:TrackPointExtension>
        </extensions>
      </trkpt>
      <trkpt lat="42.516195662319660186767578125" lon="19.8791074566543102264404296875">
        <ele>1476</ele>
        <time>2026-06-17T12:45:52.000Z</time>
        <extensions>
          <ns3:TrackPointExtension>
            <ns3:atemp>21.0</ns3:atemp>
          </ns3:TrackPointExtension>
        </extensions>
      </trkpt>
      <trkpt lat="42.51621544361114501953125" lon="19.87905196845531463623046875">
        <ele>1475.4000244140625</ele>
        <time>2026-06-17T12:45:53.000Z</time>
        <extensions>
          <ns3:TrackPointExtension>
            <ns3:atemp>21.0</ns3:atemp>
          </ns3:TrackPointExtension>
        </extensions>
      </trkpt>
      <trkpt lat="42.516236566007137298583984375" lon="19.87897284328937530517578125">
        <ele>1474.5999755859375</ele>
        <time>2026-06-17T12:45:54.000Z</time>
        <extensions>
          <ns3:TrackPointExtension>
            <ns3:atemp>21.0</ns3:atemp>
          </ns3:TrackPointExtension>
        </extensions>
      </trkpt>
      <trkpt lat="42.5162623822689056396484375" lon="19.8788895271718502044677734375">
        <ele>1473.800048828125</ele>
        <time>2026-06-17T12:45:55.000Z</time>
        <extensions>
          <ns3:TrackPointExtension>
            <ns3:atemp>21.0</ns3:atemp>
          </ns3:TrackPointExtension>
        </extensions>
      </trkpt>
      <trkpt lat="42.51628325320780277252197265625" lon="19.8788254894316196441650390625">
        <ele>1473</ele>
        <time>2026-06-17T12:45:56.000Z</time>
        <extensions>
          <ns3:TrackPointExtension>
            <ns3:atemp>21.0</ns3:atemp>
          </ns3:TrackPointExtension>
        </extensions>
      </trkpt>
      <trkpt lat="42.516297586262226104736328125" lon="19.8787839151918888092041015625">
        <ele>1472.199951171875</ele>
        <time>2026-06-17T12:45:57.000Z</time>
        <extensions>
          <ns3:TrackPointExtension>
            <ns3:atemp>21.0</ns3:atemp>
          </ns3:TrackPointExtension>
        </extensions>
      </trkpt>
      <trkpt lat="42.5163161940872669219970703125" lon="19.87874812446534633636474609375">
        <ele>1471.5999755859375</ele>
        <time>2026-06-17T12:45:58.000Z</time>
        <extensions>
          <ns3:TrackPointExtension>
            <ns3:atemp>21.0</ns3:atemp>
          </ns3:TrackPointExtension>
        </extensions>
      </trkpt>
      <trkpt lat="42.51633413136005401611328125" lon="19.87870864570140838623046875">
        <ele>1471</ele>
        <time>2026-06-17T12:45:59.000Z</time>
        <extensions>
          <ns3:TrackPointExtension>
            <ns3:atemp>21.0</ns3:atemp>
          </ns3:TrackPointExtension>
        </extensions>
      </trkpt>
      <trkpt lat="42.51634846441447734832763671875" lon="19.8786623775959014892578125">
        <ele>1470.4000244140625</ele>
        <time>2026-06-17T12:46:00.000Z</time>
        <extensions>
          <ns3:TrackPointExtension>
            <ns3:atemp>21.0</ns3:atemp>
          </ns3:TrackPointExtension>
        </extensions>
      </trkpt>
      <trkpt lat="42.51637008972465991973876953125" lon="19.87861200235784053802490234375">
        <ele>1470.199951171875</ele>
        <time>2026-06-17T12:46:01.000Z</time>
        <extensions>
          <ns3:TrackPointExtension>
            <ns3:atemp>21.0</ns3:atemp>
          </ns3:TrackPointExtension>
        </extensions>
      </trkpt>
      <trkpt lat="42.51639691181480884552001953125" lon="19.87855550833046436309814453125">
        <ele>1469.800048828125</ele>
        <time>2026-06-17T12:46:02.000Z</time>
        <extensions>
          <ns3:TrackPointExtension>
            <ns3:atemp>21.0</ns3:atemp>
          </ns3:TrackPointExtension>
        </extensions>
      </trkpt>
      <trkpt lat="42.5164208002388477325439453125" lon="19.8784972541034221649169921875">
        <ele>1469.4000244140625</ele>
        <time>2026-06-17T12:46:03.000Z</time>
        <extensions>
          <ns3:TrackPointExtension>
            <ns3:atemp>21.0</ns3:atemp>
          </ns3:TrackPointExtension>
        </extensions>
      </trkpt>
      <trkpt lat="42.51645441167056560516357421875" lon="19.878451824188232421875">
        <ele>1468.800048828125</ele>
        <time>2026-06-17T12:46:04.000Z</time>
        <extensions>
          <ns3:TrackPointExtension>
            <ns3:atemp>21.0</ns3:atemp>
          </ns3:TrackPointExtension>
        </extensions>
      </trkpt>
      <trkpt lat="42.51648793928325176239013671875" lon="19.878411926329135894775390625">
        <ele>1468.4000244140625</ele>
        <time>2026-06-17T12:46:05.000Z</time>
        <extensions>
          <ns3:TrackPointExtension>
            <ns3:atemp>21.0</ns3:atemp>
          </ns3:TrackPointExtension>
        </extensions>
      </trkpt>
      <trkpt lat="42.5165223889052867889404296875" lon="19.87836959771811962127685546875">
        <ele>1467.800048828125</ele>
        <time>2026-06-17T12:46:06.000Z</time>
        <extensions>
          <ns3:TrackPointExtension>
            <ns3:atemp>21.0</ns3:atemp>
          </ns3:TrackPointExtension>
        </extensions>
      </trkpt>
      <trkpt lat="42.516565807163715362548828125" lon="19.878328107297420501708984375">
        <ele>1467.4000244140625</ele>
        <time>2026-06-17T12:46:07.000Z</time>
        <extensions>
          <ns3:TrackPointExtension>
            <ns3:atemp>21.0</ns3:atemp>
          </ns3:TrackPointExtension>
        </extensions>
      </trkpt>
      <trkpt lat="42.516618110239505767822265625" lon="19.8782863654196262359619140625">
        <ele>1466.800048828125</ele>
        <time>2026-06-17T12:46:08.000Z</time>
        <extensions>
          <ns3:TrackPointExtension>
            <ns3:atemp>21.0</ns3:atemp>
          </ns3:TrackPointExtension>
        </extensions>
      </trkpt>
      <trkpt lat="42.5166662223637104034423828125" lon="19.8782367445528507232666015625">
        <ele>1466</ele>
        <time>2026-06-17T12:46:09.000Z</time>
        <extensions>
          <ns3:TrackPointExtension>
            <ns3:atemp>21.0</ns3:atemp>
          </ns3:TrackPointExtension>
        </extensions>
      </trkpt>
      <trkpt lat="42.51669731922447681427001953125" lon="19.8781723715364933013916015625">
        <ele>1465.199951171875</ele>
        <time>2026-06-17T12:46:10.000Z</time>
        <extensions>
          <ns3:TrackPointExtension>
            <ns3:atemp>21.0</ns3:atemp>
          </ns3:TrackPointExtension>
        </extensions>
      </trkpt>
      <trkpt lat="42.51671106554567813873291015625" lon="19.87809835933148860931396484375">
        <ele>1464</ele>
        <time>2026-06-17T12:46:11.000Z</time>
        <extensions>
          <ns3:TrackPointExtension>
            <ns3:atemp>21.0</ns3:atemp>
          </ns3:TrackPointExtension>
        </extensions>
      </trkpt>
      <trkpt lat="42.5167020969092845916748046875" lon="19.87802577205002307891845703125">
        <ele>1463</ele>
        <time>2026-06-17T12:46:12.000Z</time>
        <extensions>
          <ns3:TrackPointExtension>
            <ns3:atemp>21.0</ns3:atemp>
          </ns3:TrackPointExtension>
        </extensions>
      </trkpt>
      <trkpt lat="42.51668013632297515869140625" lon="19.8779596388339996337890625">
        <ele>1462.199951171875</ele>
        <time>2026-06-17T12:46:13.000Z</time>
        <extensions>
          <ns3:TrackPointExtension>
            <ns3:atemp>21.0</ns3:atemp>
          </ns3:TrackPointExtension>
        </extensions>
      </trkpt>
      <trkpt lat="42.51663931645452976226806640625" lon="19.87790674902498722076416015625">
        <ele>1461.5999755859375</ele>
        <time>2026-06-17T12:46:14.000Z</time>
        <extensions>
          <ns3:TrackPointExtension>
            <ns3:atemp>21.0</ns3:atemp>
          </ns3:TrackPointExtension>
        </extensions>
      </trkpt>
      <trkpt lat="42.516593635082244873046875" lon="19.87787137739360332489013671875">
        <ele>1460.800048828125</ele>
        <time>2026-06-17T12:46:15.000Z</time>
        <extensions>
          <ns3:TrackPointExtension>
            <ns3:atemp>21.0</ns3:atemp>
          </ns3:TrackPointExtension>
        </extensions>
      </trkpt>
      <trkpt lat="42.5165512226521968841552734375" lon="19.87783449701964855194091796875">
        <ele>1460</ele>
        <time>2026-06-17T12:46:16.000Z</time>
        <extensions>
          <ns3:TrackPointExtension>
            <ns3:atemp>21.0</ns3:atemp>
          </ns3:TrackPointExtension>
        </extensions>
      </trkpt>
      <trkpt lat="42.51651861704885959625244140625" lon="19.87777850590646266937255859375">
        <ele>1459</ele>
        <time>2026-06-17T12:46:17.000Z</time>
        <extensions>
          <ns3:TrackPointExtension>
            <ns3:atemp>21.0</ns3:atemp>
          </ns3:TrackPointExtension>
        </extensions>
      </trkpt>
      <trkpt lat="42.516506798565387725830078125" lon="19.87771614454686641693115234375">
        <ele>1458.4000244140625</ele>
        <time>2026-06-17T12:46:18.000Z</time>
        <extensions>
          <ns3:TrackPointExtension>
            <ns3:atemp>21.0</ns3:atemp>
          </ns3:TrackPointExtension>
        </extensions>
      </trkpt>
      <trkpt lat="42.51649078913033008575439453125" lon="19.87764623947441577911376953125">
        <ele>1457.5999755859375</ele>
        <time>2026-06-17T12:46:19.000Z</time>
        <extensions>
          <ns3:TrackPointExtension>
            <ns3:atemp>21.0</ns3:atemp>
          </ns3:TrackPointExtension>
        </extensions>
      </trkpt>
      <trkpt lat="42.5164801441133022308349609375" lon="19.87756426446139812469482421875">
        <ele>1457</ele>
        <time>2026-06-17T12:46:20.000Z</time>
        <extensions>
          <ns3:TrackPointExtension>
            <ns3:atemp>21.0</ns3:atemp>
          </ns3:TrackPointExtension>
        </extensions>
      </trkpt>
      <trkpt lat="42.51647301949560642242431640625" lon="19.87748413346707820892333984375">
        <ele>1456.4000244140625</ele>
        <time>2026-06-17T12:46:21.000Z</time>
        <extensions>
          <ns3:TrackPointExtension>
            <ns3:atemp>21.0</ns3:atemp>
          </ns3:TrackPointExtension>
        </extensions>
      </trkpt>
      <trkpt lat="42.51646715216338634490966796875" lon="19.87741791643202304840087890625">
        <ele>1455.800048828125</ele>
        <time>2026-06-17T12:46:22.000Z</time>
        <extensions>
          <ns3:TrackPointExtension>
            <ns3:atemp>21.0</ns3:atemp>
          </ns3:TrackPointExtension>
        </extensions>
      </trkpt>
      <trkpt lat="42.51645944081246852874755859375" lon="19.87734985537827014923095703125">
        <ele>1455.199951171875</ele>
        <time>2026-06-17T12:46:23.000Z</time>
        <extensions>
          <ns3:TrackPointExtension>
            <ns3:atemp>21.0</ns3:atemp>
          </ns3:TrackPointExtension>
        </extensions>
      </trkpt>
      <trkpt lat="42.51645642332732677459716796875" lon="19.87727961502969264984130859375">
        <ele>1454.5999755859375</ele>
        <time>2026-06-17T12:46:24.000Z</time>
        <extensions>
          <ns3:TrackPointExtension>
            <ns3:atemp>21.0</ns3:atemp>
          </ns3:TrackPointExtension>
        </extensions>
      </trkpt>
      <trkpt lat="42.5164509750902652740478515625" lon="19.87720853649079799652099609375">
        <ele>1454.199951171875</ele>
        <time>2026-06-17T12:46:25.000Z</time>
        <extensions>
          <ns3:TrackPointExtension>
            <ns3:atemp>21.0</ns3:atemp>
          </ns3:TrackPointExtension>
        </extensions>
      </trkpt>
      <trkpt lat="42.5164365582168102264404296875" lon="19.87714164890348911285400390625">
        <ele>1453.5999755859375</ele>
        <time>2026-06-17T12:46:26.000Z</time>
        <extensions>
          <ns3:TrackPointExtension>
            <ns3:atemp>21.0</ns3:atemp>
          </ns3:TrackPointExtension>
        </extensions>
      </trkpt>
      <trkpt lat="42.51642105169594287872314453125" lon="19.87706855870783329010009765625">
        <ele>1453.199951171875</ele>
        <time>2026-06-17T12:46:27.000Z</time>
        <extensions>
          <ns3:TrackPointExtension>
            <ns3:atemp>21.0</ns3:atemp>
          </ns3:TrackPointExtension>
        </extensions>
      </trkpt>
      <trkpt lat="42.51641166396439075469970703125" lon="19.876997731626033782958984375">
        <ele>1452.5999755859375</ele>
        <time>2026-06-17T12:46:28.000Z</time>
        <extensions>
          <ns3:TrackPointExtension>
            <ns3:atemp>21.0</ns3:atemp>
          </ns3:TrackPointExtension>
        </extensions>
      </trkpt>
      <trkpt lat="42.51641652546823024749755859375" lon="19.8769243061542510986328125">
        <ele>1452</ele>
        <time>2026-06-17T12:46:29.000Z</time>
        <extensions>
          <ns3:TrackPointExtension>
            <ns3:atemp>21.0</ns3:atemp>
          </ns3:TrackPointExtension>
        </extensions>
      </trkpt>
      <trkpt lat="42.51644217409193515777587890625" lon="19.87687594257295131683349609375">
        <ele>1451.5999755859375</ele>
        <time>2026-06-17T12:46:30.000Z</time>
        <extensions>
          <ns3:TrackPointExtension>
            <ns3:atemp>21.0</ns3:atemp>
          </ns3:TrackPointExtension>
        </extensions>
      </trkpt>
      <trkpt lat="42.51647335477173328399658203125" lon="19.876851551234722137451171875">
        <ele>1451</ele>
        <time>2026-06-17T12:46:31.000Z</time>
        <extensions>
          <ns3:TrackPointExtension>
            <ns3:atemp>21.0</ns3:atemp>
          </ns3:TrackPointExtension>
        </extensions>
      </trkpt>
      <trkpt lat="42.51651476137340068817138671875" lon="19.87686236388981342315673828125">
        <ele>1450.4000244140625</ele>
        <time>2026-06-17T12:46:32.000Z</time>
        <extensions>
          <ns3:TrackPointExtension>
            <ns3:atemp>21.0</ns3:atemp>
          </ns3:TrackPointExtension>
        </extensions>
      </trkpt>
      <trkpt lat="42.5165575928986072540283203125" lon="19.87687761895358562469482421875">
        <ele>1449.800048828125</ele>
        <time>2026-06-17T12:46:33.000Z</time>
        <extensions>
          <ns3:TrackPointExtension>
            <ns3:atemp>21.0</ns3:atemp>
          </ns3:TrackPointExtension>
        </extensions>
      </trkpt>
      <trkpt lat="42.5166008435189723968505859375" lon="19.87686722539365291595458984375">
        <ele>1449.199951171875</ele>
        <time>2026-06-17T12:46:34.000Z</time>
        <extensions>
          <ns3:TrackPointExtension>
            <ns3:atemp>21.0</ns3:atemp>
          </ns3:TrackPointExtension>
        </extensions>
      </trkpt>
      <trkpt lat="42.5166192837059497833251953125" lon="19.876823723316192626953125">
        <ele>1448.5999755859375</ele>
        <time>2026-06-17T12:46:35.000Z</time>
        <extensions>
          <ns3:TrackPointExtension>
            <ns3:atemp>21.0</ns3:atemp>
          </ns3:TrackPointExtension>
        </extensions>
      </trkpt>
      <trkpt lat="42.5166300125420093536376953125" lon="19.876771755516529083251953125">
        <ele>1448</ele>
        <time>2026-06-17T12:46:36.000Z</time>
        <extensions>
          <ns3:TrackPointExtension>
            <ns3:atemp>21.0</ns3:atemp>
          </ns3:TrackPointExtension>
        </extensions>
      </trkpt>
      <trkpt lat="42.5166226364672183990478515625" lon="19.87671710550785064697265625">
        <ele>1447.199951171875</ele>
        <time>2026-06-17T12:46:37.000Z</time>
        <extensions>
          <ns3:TrackPointExtension>
            <ns3:atemp>21.0</ns3:atemp>
          </ns3:TrackPointExtension>
        </extensions>
      </trkpt>
      <trkpt lat="42.51661199145019054412841796875" lon="19.87666052766144275665283203125">
        <ele>1446.800048828125</ele>
        <time>2026-06-17T12:46:38.000Z</time>
        <extensions>
          <ns3:TrackPointExtension>
            <ns3:atemp>21.0</ns3:atemp>
          </ns3:TrackPointExtension>
        </extensions>
      </trkpt>
      <trkpt lat="42.51660193316638469696044921875" lon="19.87660001032054424285888671875">
        <ele>1446.4000244140625</ele>
        <time>2026-06-17T12:46:39.000Z</time>
        <extensions>
          <ns3:TrackPointExtension>
            <ns3:atemp>21.0</ns3:atemp>
          </ns3:TrackPointExtension>
        </extensions>
      </trkpt>
      <trkpt lat="42.51658768393099308013916015625" lon="19.87653463147580623626708984375">
        <ele>1446</ele>
        <time>2026-06-17T12:46:40.000Z</time>
        <extensions>
          <ns3:TrackPointExtension>
            <ns3:atemp>21.0</ns3:atemp>
          </ns3:TrackPointExtension>
        </extensions>
      </trkpt>
      <trkpt lat="42.5165762007236480712890625" lon="19.87646724097430706024169921875">
        <ele>1445.199951171875</ele>
        <time>2026-06-17T12:46:41.000Z</time>
        <extensions>
          <ns3:TrackPointExtension>
            <ns3:atemp>21.0</ns3:atemp>
          </ns3:TrackPointExtension>
        </extensions>
      </trkpt>
      <trkpt lat="42.516565136611461639404296875" lon="19.876386187970638275146484375">
        <ele>1444.800048828125</ele>
        <time>2026-06-17T12:46:42.000Z</time>
        <extensions>
          <ns3:TrackPointExtension>
            <ns3:atemp>21.0</ns3:atemp>
          </ns3:TrackPointExtension>
        </extensions>
      </trkpt>
      <trkpt lat="42.5165676511824131011962890625" lon="19.8763073980808258056640625">
        <ele>1444.4000244140625</ele>
        <time>2026-06-17T12:46:43.000Z</time>
        <extensions>
          <ns3:TrackPointExtension>
            <ns3:atemp>21.0</ns3:atemp>
          </ns3:TrackPointExtension>
        </extensions>
      </trkpt>
      <trkpt lat="42.51658030785620212554931640625" lon="19.876227937638759613037109375">
        <ele>1443.800048828125</ele>
        <time>2026-06-17T12:46:44.000Z</time>
        <extensions>
          <ns3:TrackPointExtension>
            <ns3:atemp>21.0</ns3:atemp>
          </ns3:TrackPointExtension>
        </extensions>
      </trkpt>
      <trkpt lat="42.51659187488257884979248046875" lon="19.8761553503572940826416015625">
        <ele>1443.4000244140625</ele>
        <time>2026-06-17T12:46:45.000Z</time>
        <extensions>
          <ns3:TrackPointExtension>
            <ns3:atemp>21.0</ns3:atemp>
          </ns3:TrackPointExtension>
        </extensions>
      </trkpt>
      <trkpt lat="42.51660830341279506683349609375" lon="19.87609374336898326873779296875">
        <ele>1442.800048828125</ele>
        <time>2026-06-17T12:46:46.000Z</time>
        <extensions>
          <ns3:TrackPointExtension>
            <ns3:atemp>21.0</ns3:atemp>
          </ns3:TrackPointExtension>
        </extensions>
      </trkpt>
      <trkpt lat="42.51663411967456340789794921875" lon="19.87603247165679931640625">
        <ele>1442.4000244140625</ele>
        <time>2026-06-17T12:46:47.000Z</time>
        <extensions>
          <ns3:TrackPointExtension>
            <ns3:atemp>21.0</ns3:atemp>
          </ns3:TrackPointExtension>
        </extensions>
      </trkpt>
      <trkpt lat="42.51666806638240814208984375" lon="19.875975139439105987548828125">
        <ele>1441.5999755859375</ele>
        <time>2026-06-17T12:46:48.000Z</time>
        <extensions>
          <ns3:TrackPointExtension>
            <ns3:atemp>21.0</ns3:atemp>
          </ns3:TrackPointExtension>
        </extensions>
      </trkpt>
      <trkpt lat="42.5167185254395008087158203125" lon="19.8759156279265880584716796875">
        <ele>1440.800048828125</ele>
        <time>2026-06-17T12:46:49.000Z</time>
        <extensions>
          <ns3:TrackPointExtension>
            <ns3:atemp>21.0</ns3:atemp>
          </ns3:TrackPointExtension>
        </extensions>
      </trkpt>
      <trkpt lat="42.5167590938508510589599609375" lon="19.87584379501640796661376953125">
        <ele>1440.199951171875</ele>
        <time>2026-06-17T12:46:50.000Z</time>
        <extensions>
          <ns3:TrackPointExtension>
            <ns3:atemp>21.0</ns3:atemp>
          </ns3:TrackPointExtension>
        </extensions>
      </trkpt>
      <trkpt lat="42.51679203473031520843505859375" lon="19.875765256583690643310546875">
        <ele>1439.4000244140625</ele>
        <time>2026-06-17T12:46:51.000Z</time>
        <extensions>
          <ns3:TrackPointExtension>
            <ns3:atemp>21.0</ns3:atemp>
          </ns3:TrackPointExtension>
        </extensions>
      </trkpt>
      <trkpt lat="42.51681156456470489501953125" lon="19.87568722106516361236572265625">
        <ele>1438.4000244140625</ele>
        <time>2026-06-17T12:46:52.000Z</time>
        <extensions>
          <ns3:TrackPointExtension>
            <ns3:atemp>21.0</ns3:atemp>
          </ns3:TrackPointExtension>
        </extensions>
      </trkpt>
      <trkpt lat="42.5168298371136188507080078125" lon="19.8756068386137485504150390625">
        <ele>1437.4000244140625</ele>
        <time>2026-06-17T12:46:53.000Z</time>
        <extensions>
          <ns3:TrackPointExtension>
            <ns3:atemp>21.0</ns3:atemp>
          </ns3:TrackPointExtension>
        </extensions>
      </trkpt>
      <trkpt lat="42.516850791871547698974609375" lon="19.8755267076194286346435546875">
        <ele>1436.800048828125</ele>
        <time>2026-06-17T12:46:54.000Z</time>
        <extensions>
          <ns3:TrackPointExtension>
            <ns3:atemp>21.0</ns3:atemp>
          </ns3:TrackPointExtension>
        </extensions>
      </trkpt>
      <trkpt lat="42.51686596311628818511962890625" lon="19.87544129602611064910888671875">
        <ele>1436</ele>
        <time>2026-06-17T12:46:55.000Z</time>
        <extensions>
          <ns3:TrackPointExtension>
            <ns3:atemp>21.0</ns3:atemp>
          </ns3:TrackPointExtension>
        </extensions>
      </trkpt>
      <trkpt lat="42.516878955066204071044921875" lon="19.8753547109663486480712890625">
        <ele>1435.199951171875</ele>
        <time>2026-06-17T12:46:56.000Z</time>
        <extensions>
          <ns3:TrackPointExtension>
            <ns3:atemp>21.0</ns3:atemp>
          </ns3:TrackPointExtension>
        </extensions>
      </trkpt>
      <trkpt lat="42.5168871693313121795654296875" lon="19.875271730124950408935546875">
        <ele>1434.5999755859375</ele>
        <time>2026-06-17T12:46:57.000Z</time>
        <extensions>
          <ns3:TrackPointExtension>
            <ns3:atemp>21.0</ns3:atemp>
          </ns3:TrackPointExtension>
        </extensions>
      </trkpt>
      <trkpt lat="42.51689697615802288055419921875" lon="19.87518933601677417755126953125">
        <ele>1433.800048828125</ele>
        <time>2026-06-17T12:46:58.000Z</time>
        <extensions>
          <ns3:TrackPointExtension>
            <ns3:atemp>21.0</ns3:atemp>
          </ns3:TrackPointExtension>
        </extensions>
      </trkpt>
      <trkpt lat="42.51691256649792194366455078125" lon="19.8751119710505008697509765625">
        <ele>1432.800048828125</ele>
        <time>2026-06-17T12:46:59.000Z</time>
        <extensions>
          <ns3:TrackPointExtension>
            <ns3:atemp>21.0</ns3:atemp>
          </ns3:TrackPointExtension>
        </extensions>
      </trkpt>
      <trkpt lat="42.516931258141994476318359375" lon="19.87503712065517902374267578125">
        <ele>1432.199951171875</ele>
        <time>2026-06-17T12:47:00.000Z</time>
        <extensions>
          <ns3:TrackPointExtension>
            <ns3:atemp>21.0</ns3:atemp>
          </ns3:TrackPointExtension>
        </extensions>
      </trkpt>
      <trkpt lat="42.5169543921947479248046875" lon="19.87495355308055877685546875">
        <ele>1431.4000244140625</ele>
        <time>2026-06-17T12:47:01.000Z</time>
        <extensions>
          <ns3:TrackPointExtension>
            <ns3:atemp>21.0</ns3:atemp>
          </ns3:TrackPointExtension>
        </extensions>
      </trkpt>
      <trkpt lat="42.51698582433164119720458984375" lon="19.87487099133431911468505859375">
        <ele>1430.5999755859375</ele>
        <time>2026-06-17T12:47:02.000Z</time>
        <extensions>
          <ns3:TrackPointExtension>
            <ns3:atemp>21.0</ns3:atemp>
          </ns3:TrackPointExtension>
        </extensions>
      </trkpt>
      <trkpt lat="42.51702882349491119384765625" lon="19.87479605711996555328369140625">
        <ele>1429.800048828125</ele>
        <time>2026-06-17T12:47:03.000Z</time>
        <extensions>
          <ns3:TrackPointExtension>
            <ns3:atemp>21.0</ns3:atemp>
          </ns3:TrackPointExtension>
        </extensions>
      </trkpt>
      <trkpt lat="42.517068386077880859375" lon="19.87471357919275760650634765625">
        <ele>1428.800048828125</ele>
        <time>2026-06-17T12:47:04.000Z</time>
        <extensions>
          <ns3:TrackPointExtension>
            <ns3:atemp>21.0</ns3:atemp>
          </ns3:TrackPointExtension>
        </extensions>
      </trkpt>
      <trkpt lat="42.51709059812128543853759765625" lon="19.87462942488491535186767578125">
        <ele>1427.5999755859375</ele>
        <time>2026-06-17T12:47:05.000Z</time>
        <extensions>
          <ns3:TrackPointExtension>
            <ns3:atemp>21.0</ns3:atemp>
          </ns3:TrackPointExtension>
        </extensions>
      </trkpt>
      <trkpt lat="42.5171034224331378936767578125" lon="19.8745352961122989654541015625">
        <ele>1426.5999755859375</ele>
        <time>2026-06-17T12:47:06.000Z</time>
        <extensions>
          <ns3:TrackPointExtension>
            <ns3:atemp>21.0</ns3:atemp>
          </ns3:TrackPointExtension>
        </extensions>
      </trkpt>
      <trkpt lat="42.5170876644551753997802734375" lon="19.87445055507123470306396484375">
        <ele>1425.5999755859375</ele>
        <time>2026-06-17T12:47:07.000Z</time>
        <extensions>
          <ns3:TrackPointExtension>
            <ns3:atemp>21.0</ns3:atemp>
          </ns3:TrackPointExtension>
        </extensions>
      </trkpt>
      <trkpt lat="42.51705673523247241973876953125" lon="19.8743773810565471649169921875">
        <ele>1425</ele>
        <time>2026-06-17T12:47:08.000Z</time>
        <extensions>
          <ns3:TrackPointExtension>
            <ns3:atemp>21.0</ns3:atemp>
          </ns3:TrackPointExtension>
        </extensions>
      </trkpt>
      <trkpt lat="42.517023123800754547119140625" lon="19.8743091523647308349609375">
        <ele>1424.4000244140625</ele>
        <time>2026-06-17T12:47:09.000Z</time>
        <extensions>
          <ns3:TrackPointExtension>
            <ns3:atemp>21.0</ns3:atemp>
          </ns3:TrackPointExtension>
        </extensions>
      </trkpt>
      <trkpt lat="42.51699236221611499786376953125" lon="19.87424972467124462127685546875">
        <ele>1423.800048828125</ele>
        <time>2026-06-17T12:47:10.000Z</time>
        <extensions>
          <ns3:TrackPointExtension>
            <ns3:atemp>21.0</ns3:atemp>
          </ns3:TrackPointExtension>
        </extensions>
      </trkpt>
      <trkpt lat="42.51697056926786899566650390625" lon="19.874203205108642578125">
        <ele>1423.4000244140625</ele>
        <time>2026-06-17T12:47:11.000Z</time>
        <extensions>
          <ns3:TrackPointExtension>
            <ns3:atemp>21.0</ns3:atemp>
          </ns3:TrackPointExtension>
        </extensions>
      </trkpt>
      <trkpt lat="42.516958080232143402099609375" lon="19.87415635026991367340087890625">
        <ele>1423.199951171875</ele>
        <time>2026-06-17T12:47:12.000Z</time>
        <extensions>
          <ns3:TrackPointExtension>
            <ns3:atemp>21.0</ns3:atemp>
          </ns3:TrackPointExtension>
        </extensions>
      </trkpt>
      <trkpt lat="42.51695229671895503997802734375" lon="19.87410991452634334564208984375">
        <ele>1423.199951171875</ele>
        <time>2026-06-17T12:47:13.000Z</time>
        <extensions>
          <ns3:TrackPointExtension>
            <ns3:atemp>21.0</ns3:atemp>
          </ns3:TrackPointExtension>
        </extensions>
      </trkpt>
      <trkpt lat="42.5169508717954158782958984375" lon="19.87405643798410892486572265625">
        <ele>1423</ele>
        <time>2026-06-17T12:47:14.000Z</time>
        <extensions>
          <ns3:TrackPointExtension>
            <ns3:atemp>21.0</ns3:atemp>
          </ns3:TrackPointExtension>
        </extensions>
      </trkpt>
      <trkpt lat="42.51696134917438030242919921875" lon="19.87401318736374378204345703125">
        <ele>1423</ele>
        <time>2026-06-17T12:47:15.000Z</time>
        <extensions>
          <ns3:TrackPointExtension>
            <ns3:atemp>21.0</ns3:atemp>
          </ns3:TrackPointExtension>
        </extensions>
      </trkpt>
      <trkpt lat="42.51697995699942111968994140625" lon="19.873971529304981231689453125">
        <ele>1422.800048828125</ele>
        <time>2026-06-17T12:47:16.000Z</time>
        <extensions>
          <ns3:TrackPointExtension>
            <ns3:atemp>21.0</ns3:atemp>
          </ns3:TrackPointExtension>
        </extensions>
      </trkpt>
      <trkpt lat="42.517009712755680084228515625" lon="19.87393221817910671234130859375">
        <ele>1422.4000244140625</ele>
        <time>2026-06-17T12:47:17.000Z</time>
        <extensions>
          <ns3:TrackPointExtension>
            <ns3:atemp>21.0</ns3:atemp>
          </ns3:TrackPointExtension>
        </extensions>
      </trkpt>
      <trkpt lat="42.5170447491109371185302734375" lon="19.8738972656428813934326171875">
        <ele>1422</ele>
        <time>2026-06-17T12:47:18.000Z</time>
        <extensions>
          <ns3:TrackPointExtension>
            <ns3:atemp>21.0</ns3:atemp>
          </ns3:TrackPointExtension>
        </extensions>
      </trkpt>
      <trkpt lat="42.51708422787487506866455078125" lon="19.8738667555153369903564453125">
        <ele>1421.4000244140625</ele>
        <time>2026-06-17T12:47:19.000Z</time>
        <extensions>
          <ns3:TrackPointExtension>
            <ns3:atemp>21.0</ns3:atemp>
          </ns3:TrackPointExtension>
        </extensions>
      </trkpt>
      <trkpt lat="42.517117671668529510498046875" lon="19.87382727675139904022216796875">
        <ele>1420.800048828125</ele>
        <time>2026-06-17T12:47:20.000Z</time>
        <extensions>
          <ns3:TrackPointExtension>
            <ns3:atemp>21.0</ns3:atemp>
          </ns3:TrackPointExtension>
        </extensions>
      </trkpt>
      <trkpt lat="42.5171510316431522369384765625" lon="19.8737899772822856903076171875">
        <ele>1420</ele>
        <time>2026-06-17T12:47:21.000Z</time>
        <extensions>
          <ns3:TrackPointExtension>
            <ns3:atemp>21.0</ns3:atemp>
          </ns3:TrackPointExtension>
        </extensions>
      </trkpt>
      <trkpt lat="42.51718766056001186370849609375" lon="19.873756282031536102294921875">
        <ele>1419.4000244140625</ele>
        <time>2026-06-17T12:47:22.000Z</time>
        <extensions>
          <ns3:TrackPointExtension>
            <ns3:atemp>21.0</ns3:atemp>
          </ns3:TrackPointExtension>
        </extensions>
      </trkpt>
      <trkpt lat="42.5172251276671886444091796875" lon="19.8737245984375476837158203125">
        <ele>1418.5999755859375</ele>
        <time>2026-06-17T12:47:23.000Z</time>
        <extensions>
          <ns3:TrackPointExtension>
            <ns3:atemp>21.0</ns3:atemp>
          </ns3:TrackPointExtension>
        </extensions>
      </trkpt>
      <trkpt lat="42.5172613374888896942138671875" lon="19.87369534559547901153564453125">
        <ele>1418.199951171875</ele>
        <time>2026-06-17T12:47:24.000Z</time>
        <extensions>
          <ns3:TrackPointExtension>
            <ns3:atemp>21.0</ns3:atemp>
          </ns3:TrackPointExtension>
        </extensions>
      </trkpt>
      <trkpt lat="42.51729528419673442840576171875" lon="19.873669445514678955078125">
        <ele>1417.5999755859375</ele>
        <time>2026-06-17T12:47:25.000Z</time>
        <extensions>
          <ns3:TrackPointExtension>
            <ns3:atemp>21.0</ns3:atemp>
          </ns3:TrackPointExtension>
        </extensions>
      </trkpt>
      <trkpt lat="42.51733384095132350921630859375" lon="19.8736464790999889373779296875">
        <ele>1417.199951171875</ele>
        <time>2026-06-17T12:47:26.000Z</time>
        <extensions>
          <ns3:TrackPointExtension>
            <ns3:atemp>21.0</ns3:atemp>
          </ns3:TrackPointExtension>
        </extensions>
      </trkpt>
      <trkpt lat="42.5173723138868808746337890625" lon="19.87362108193337917327880859375">
        <ele>1416.5999755859375</ele>
        <time>2026-06-17T12:47:27.000Z</time>
        <extensions>
          <ns3:TrackPointExtension>
            <ns3:atemp>21.0</ns3:atemp>
          </ns3:TrackPointExtension>
        </extensions>
      </trkpt>
      <trkpt lat="42.51740542240440845489501953125" lon="19.87359191291034221649169921875">
        <ele>1416.199951171875</ele>
        <time>2026-06-17T12:47:28.000Z</time>
        <extensions>
          <ns3:TrackPointExtension>
            <ns3:atemp>21.0</ns3:atemp>
          </ns3:TrackPointExtension>
        </extensions>
      </trkpt>
      <trkpt lat="42.51744397915899753570556640625" lon="19.8735633306205272674560546875">
        <ele>1415.5999755859375</ele>
        <time>2026-06-17T12:47:29.000Z</time>
        <extensions>
          <ns3:TrackPointExtension>
            <ns3:atemp>21.0</ns3:atemp>
          </ns3:TrackPointExtension>
        </extensions>
      </trkpt>
      <trkpt lat="42.51748940907418727874755859375" lon="19.87352837808430194854736328125">
        <ele>1415.199951171875</ele>
        <time>2026-06-17T12:47:30.000Z</time>
        <extensions>
          <ns3:TrackPointExtension>
            <ns3:atemp>21.0</ns3:atemp>
          </ns3:TrackPointExtension>
        </extensions>
      </trkpt>
      <trkpt lat="42.51754540018737316131591796875" lon="19.87349032424390316009521484375">
        <ele>1414.4000244140625</ele>
        <time>2026-06-17T12:47:31.000Z</time>
        <extensions>
          <ns3:TrackPointExtension>
            <ns3:atemp>21.0</ns3:atemp>
          </ns3:TrackPointExtension>
        </extensions>
      </trkpt>
      <trkpt lat="42.51760340295732021331787109375" lon="19.8734483309090137481689453125">
        <ele>1413.800048828125</ele>
        <time>2026-06-17T12:47:32.000Z</time>
        <extensions>
          <ns3:TrackPointExtension>
            <ns3:atemp>21.0</ns3:atemp>
          </ns3:TrackPointExtension>
        </extensions>
      </trkpt>
      <trkpt lat="42.51765537075698375701904296875" lon="19.87340390682220458984375">
        <ele>1413</ele>
        <time>2026-06-17T12:47:33.000Z</time>
        <extensions>
          <ns3:TrackPointExtension>
            <ns3:atemp>21.0</ns3:atemp>
          </ns3:TrackPointExtension>
        </extensions>
      </trkpt>
      <trkpt lat="42.51770113594830036163330078125" lon="19.87335906364023685455322265625">
        <ele>1412.4000244140625</ele>
        <time>2026-06-17T12:47:34.000Z</time>
        <extensions>
          <ns3:TrackPointExtension>
            <ns3:atemp>21.0</ns3:atemp>
          </ns3:TrackPointExtension>
        </extensions>
      </trkpt>
      <trkpt lat="42.517741955816745758056640625" lon="19.8733220994472503662109375">
        <ele>1411.800048828125</ele>
        <time>2026-06-17T12:47:35.000Z</time>
        <extensions>
          <ns3:TrackPointExtension>
            <ns3:atemp>21.0</ns3:atemp>
          </ns3:TrackPointExtension>
        </extensions>
      </trkpt>
      <trkpt lat="42.5177776627242565155029296875" lon="19.87327692098915576934814453125">
        <ele>1411.4000244140625</ele>
        <time>2026-06-17T12:47:36.000Z</time>
        <extensions>
          <ns3:TrackPointExtension>
            <ns3:atemp>21.0</ns3:atemp>
          </ns3:TrackPointExtension>
        </extensions>
      </trkpt>
      <trkpt lat="42.5178178958594799041748046875" lon="19.8732293955981731414794921875">
        <ele>1411.199951171875</ele>
        <time>2026-06-17T12:47:37.000Z</time>
        <extensions>
          <ns3:TrackPointExtension>
            <ns3:atemp>20.0</ns3:atemp>
          </ns3:TrackPointExtension>
        </extensions>
      </trkpt>
      <trkpt lat="42.5178601406514644622802734375" lon="19.87318673171103000640869140625">
        <ele>1410.800048828125</ele>
        <time>2026-06-17T12:47:38.000Z</time>
        <extensions>
          <ns3:TrackPointExtension>
            <ns3:atemp>20.0</ns3:atemp>
          </ns3:TrackPointExtension>
        </extensions>
      </trkpt>
      <trkpt lat="42.5178966857492923736572265625" lon="19.8731422238051891326904296875">
        <ele>1410.4000244140625</ele>
        <time>2026-06-17T12:47:39.000Z</time>
        <extensions>
          <ns3:TrackPointExtension>
            <ns3:atemp>20.0</ns3:atemp>
          </ns3:TrackPointExtension>
        </extensions>
      </trkpt>
      <trkpt lat="42.51791931688785552978515625" lon="19.87308095209300518035888671875">
        <ele>1409.800048828125</ele>
        <time>2026-06-17T12:47:40.000Z</time>
        <extensions>
          <ns3:TrackPointExtension>
            <ns3:atemp>20.0</ns3:atemp>
          </ns3:TrackPointExtension>
        </extensions>
      </trkpt>
      <trkpt lat="42.51791604794561862945556640625" lon="19.87302303314208984375">
        <ele>1408.800048828125</ele>
        <time>2026-06-17T12:47:41.000Z</time>
        <extensions>
          <ns3:TrackPointExtension>
            <ns3:atemp>20.0</ns3:atemp>
          </ns3:TrackPointExtension>
        </extensions>
      </trkpt>
      <trkpt lat="42.51789920032024383544921875" lon="19.87297852523624897003173828125">
        <ele>1408</ele>
        <time>2026-06-17T12:47:42.000Z</time>
        <extensions>
          <ns3:TrackPointExtension>
            <ns3:atemp>20.0</ns3:atemp>
          </ns3:TrackPointExtension>
        </extensions>
      </trkpt>
      <trkpt lat="42.51786843873560428619384765625" lon="19.872946254909038543701171875">
        <ele>1407.199951171875</ele>
        <time>2026-06-17T12:47:43.000Z</time>
        <extensions>
          <ns3:TrackPointExtension>
            <ns3:atemp>20.0</ns3:atemp>
          </ns3:TrackPointExtension>
        </extensions>
      </trkpt>
      <trkpt lat="42.51782854087650775909423828125" lon="19.87292789854109287261962890625">
        <ele>1406.199951171875</ele>
        <time>2026-06-17T12:47:44.000Z</time>
        <extensions>
          <ns3:TrackPointExtension>
            <ns3:atemp>20.0</ns3:atemp>
          </ns3:TrackPointExtension>
        </extensions>
      </trkpt>
      <trkpt lat="42.5177853740751743316650390625" lon="19.87291348166763782501220703125">
        <ele>1405.199951171875</ele>
        <time>2026-06-17T12:47:45.000Z</time>
        <extensions>
          <ns3:TrackPointExtension>
            <ns3:atemp>20.0</ns3:atemp>
          </ns3:TrackPointExtension>
        </extensions>
      </trkpt>
      <trkpt lat="42.5177387706935405731201171875" lon="19.87289772368967533111572265625">
        <ele>1404.4000244140625</ele>
        <time>2026-06-17T12:47:46.000Z</time>
        <extensions>
          <ns3:TrackPointExtension>
            <ns3:atemp>20.0</ns3:atemp>
          </ns3:TrackPointExtension>
        </extensions>
      </trkpt>
      <trkpt lat="42.517693340778350830078125" lon="19.87288481555879116058349609375">
        <ele>1403.199951171875</ele>
        <time>2026-06-17T12:47:47.000Z</time>
        <extensions>
          <ns3:TrackPointExtension>
            <ns3:atemp>20.0</ns3:atemp>
          </ns3:TrackPointExtension>
        </extensions>
      </trkpt>
      <trkpt lat="42.517643384635448455810546875" lon="19.87287140451371669769287109375">
        <ele>1402.199951171875</ele>
        <time>2026-06-17T12:47:48.000Z</time>
        <extensions>
          <ns3:TrackPointExtension>
            <ns3:atemp>20.0</ns3:atemp>
          </ns3:TrackPointExtension>
        </extensions>
      </trkpt>
      <trkpt lat="42.517589740455150604248046875" lon="19.8728575743734836578369140625">
        <ele>1401.4000244140625</ele>
        <time>2026-06-17T12:47:49.000Z</time>
        <extensions>
          <ns3:TrackPointExtension>
            <ns3:atemp>20.0</ns3:atemp>
          </ns3:TrackPointExtension>
        </extensions>
      </trkpt>
      <trkpt lat="42.517540790140628814697265625" lon="19.8728478513658046722412109375">
        <ele>1400.5999755859375</ele>
        <time>2026-06-17T12:47:50.000Z</time>
        <extensions>
          <ns3:TrackPointExtension>
            <ns3:atemp>20.0</ns3:atemp>
          </ns3:TrackPointExtension>
        </extensions>
      </trkpt>
      <trkpt lat="42.5175082683563232421875" lon="19.87281046807765960693359375">
        <ele>1399.5999755859375</ele>
        <time>2026-06-17T12:47:51.000Z</time>
        <extensions>
          <ns3:TrackPointExtension>
            <ns3:atemp>20.0</ns3:atemp>
          </ns3:TrackPointExtension>
        </extensions>
      </trkpt>
      <trkpt lat="42.51749376766383647918701171875" lon="19.87276914529502391815185546875">
        <ele>1398.800048828125</ele>
        <time>2026-06-17T12:47:52.000Z</time>
        <extensions>
          <ns3:TrackPointExtension>
            <ns3:atemp>20.0</ns3:atemp>
          </ns3:TrackPointExtension>
        </extensions>
      </trkpt>
      <trkpt lat="42.51748639158904552459716796875" lon="19.87271768040955066680908203125">
        <ele>1397.5999755859375</ele>
        <time>2026-06-17T12:47:53.000Z</time>
        <extensions>
          <ns3:TrackPointExtension>
            <ns3:atemp>20.0</ns3:atemp>
          </ns3:TrackPointExtension>
        </extensions>
      </trkpt>
      <trkpt lat="42.5174849666655063629150390625" lon="19.8726540617644786834716796875">
        <ele>1396.800048828125</ele>
        <time>2026-06-17T12:47:54.000Z</time>
        <extensions>
          <ns3:TrackPointExtension>
            <ns3:atemp>20.0</ns3:atemp>
          </ns3:TrackPointExtension>
        </extensions>
      </trkpt>
      <trkpt lat="42.51748605631291866302490234375" lon="19.8725836537778377532958984375">
        <ele>1395.800048828125</ele>
        <time>2026-06-17T12:47:55.000Z</time>
        <extensions>
          <ns3:TrackPointExtension>
            <ns3:atemp>20.0</ns3:atemp>
          </ns3:TrackPointExtension>
        </extensions>
      </trkpt>
      <trkpt lat="42.51749879680573940277099609375" lon="19.872515089809894561767578125">
        <ele>1394.5999755859375</ele>
        <time>2026-06-17T12:47:56.000Z</time>
        <extensions>
          <ns3:TrackPointExtension>
            <ns3:atemp>20.0</ns3:atemp>
          </ns3:TrackPointExtension>
        </extensions>
      </trkpt>
      <trkpt lat="42.51751723699271678924560546875" lon="19.8724713362753391265869140625">
        <ele>1393.5999755859375</ele>
        <time>2026-06-17T12:47:57.000Z</time>
        <extensions>
          <ns3:TrackPointExtension>
            <ns3:atemp>20.0</ns3:atemp>
          </ns3:TrackPointExtension>
        </extensions>
      </trkpt>
      <trkpt lat="42.51754489727318286895751953125" lon="19.872439987957477569580078125">
        <ele>1392.5999755859375</ele>
        <time>2026-06-17T12:47:58.000Z</time>
        <extensions>
          <ns3:TrackPointExtension>
            <ns3:atemp>20.0</ns3:atemp>
          </ns3:TrackPointExtension>
        </extensions>
      </trkpt>
      <trkpt lat="42.5175726413726806640625" lon="19.872417859733104705810546875">
        <ele>1391.5999755859375</ele>
        <time>2026-06-17T12:47:59.000Z</time>
        <extensions>
          <ns3:TrackPointExtension>
            <ns3:atemp>20.0</ns3:atemp>
          </ns3:TrackPointExtension>
        </extensions>
      </trkpt>
      <trkpt lat="42.51759971491992473602294921875" lon="19.87240436486899852752685546875">
        <ele>1390.800048828125</ele>
        <time>2026-06-17T12:48:00.000Z</time>
        <extensions>
          <ns3:TrackPointExtension>
            <ns3:atemp>20.0</ns3:atemp>
          </ns3:TrackPointExtension>
        </extensions>
      </trkpt>
      <trkpt lat="42.5176249444484710693359375" lon="19.8723900318145751953125">
        <ele>1390.199951171875</ele>
        <time>2026-06-17T12:48:01.000Z</time>
        <extensions>
          <ns3:TrackPointExtension>
            <ns3:atemp>20.0</ns3:atemp>
          </ns3:TrackPointExtension>
        </extensions>
      </trkpt>
      <trkpt lat="42.5176546163856983184814453125" lon="19.872380979359149932861328125">
        <ele>1389.5999755859375</ele>
        <time>2026-06-17T12:48:02.000Z</time>
        <extensions>
          <ns3:TrackPointExtension>
            <ns3:atemp>20.0</ns3:atemp>
          </ns3:TrackPointExtension>
        </extensions>
      </trkpt>
      <trkpt lat="42.51768671907484531402587890625" lon="19.87237972207367420196533203125">
        <ele>1389.199951171875</ele>
        <time>2026-06-17T12:48:03.000Z</time>
        <extensions>
          <ns3:TrackPointExtension>
            <ns3:atemp>20.0</ns3:atemp>
          </ns3:TrackPointExtension>
        </extensions>
      </trkpt>
      <trkpt lat="42.51771840266883373260498046875" lon="19.87237217836081981658935546875">
        <ele>1388.5999755859375</ele>
        <time>2026-06-17T12:48:04.000Z</time>
        <extensions>
          <ns3:TrackPointExtension>
            <ns3:atemp>20.0</ns3:atemp>
          </ns3:TrackPointExtension>
        </extensions>
      </trkpt>
      <trkpt lat="42.51775260083377361297607421875" lon="19.87235139124095439910888671875">
        <ele>1388.199951171875</ele>
        <time>2026-06-17T12:48:05.000Z</time>
        <extensions>
          <ns3:TrackPointExtension>
            <ns3:atemp>20.0</ns3:atemp>
          </ns3:TrackPointExtension>
        </extensions>
      </trkpt>
      <trkpt lat="42.51778545789420604705810546875" lon="19.8723234795033931732177734375">
        <ele>1387.5999755859375</ele>
        <time>2026-06-17T12:48:06.000Z</time>
        <extensions>
          <ns3:TrackPointExtension>
            <ns3:atemp>20.0</ns3:atemp>
          </ns3:TrackPointExtension>
        </extensions>
      </trkpt>
      <trkpt lat="42.5178034789860248565673828125" lon="19.87228517420589923858642578125">
        <ele>1387.199951171875</ele>
        <time>2026-06-17T12:48:07.000Z</time>
        <extensions>
          <ns3:TrackPointExtension>
            <ns3:atemp>20.0</ns3:atemp>
          </ns3:TrackPointExtension>
        </extensions>
      </trkpt>
      <trkpt lat="42.51781596802175045013427734375" lon="19.87223588861525058746337890625">
        <ele>1386.5999755859375</ele>
        <time>2026-06-17T12:48:08.000Z</time>
        <extensions>
          <ns3:TrackPointExtension>
            <ns3:atemp>20.0</ns3:atemp>
          </ns3:TrackPointExtension>
        </extensions>
      </trkpt>
      <trkpt lat="42.5178219191730022430419921875" lon="19.87217553891241550445556640625">
        <ele>1386.4000244140625</ele>
        <time>2026-06-17T12:48:09.000Z</time>
        <extensions>
          <ns3:TrackPointExtension>
            <ns3:atemp>20.0</ns3:atemp>
          </ns3:TrackPointExtension>
        </extensions>
      </trkpt>
      <trkpt lat="42.517817057669162750244140625" lon="19.87211787141859531402587890625">
        <ele>1385.4000244140625</ele>
        <time>2026-06-17T12:48:10.000Z</time>
        <extensions>
          <ns3:TrackPointExtension>
            <ns3:atemp>20.0</ns3:atemp>
          </ns3:TrackPointExtension>
        </extensions>
      </trkpt>
      <trkpt lat="42.51780155114829540252685546875" lon="19.8720572702586650848388671875">
        <ele>1384.199951171875</ele>
        <time>2026-06-17T12:48:11.000Z</time>
        <extensions>
          <ns3:TrackPointExtension>
            <ns3:atemp>20.0</ns3:atemp>
          </ns3:TrackPointExtension>
        </extensions>
      </trkpt>
      <trkpt lat="42.517776824533939361572265625" lon="19.8719932325184345245361328125">
        <ele>1383.4000244140625</ele>
        <time>2026-06-17T12:48:12.000Z</time>
        <extensions>
          <ns3:TrackPointExtension>
            <ns3:atemp>20.0</ns3:atemp>
          </ns3:TrackPointExtension>
        </extensions>
      </trkpt>
      <trkpt lat="42.51774639822542667388916015625" lon="19.87192911095917224884033203125">
        <ele>1382.199951171875</ele>
        <time>2026-06-17T12:48:13.000Z</time>
        <extensions>
          <ns3:TrackPointExtension>
            <ns3:atemp>20.0</ns3:atemp>
          </ns3:TrackPointExtension>
        </extensions>
      </trkpt>
      <trkpt lat="42.5177215039730072021484375" lon="19.8718614690005779266357421875">
        <ele>1381.5999755859375</ele>
        <time>2026-06-17T12:48:14.000Z</time>
        <extensions>
          <ns3:TrackPointExtension>
            <ns3:atemp>20.0</ns3:atemp>
          </ns3:TrackPointExtension>
        </extensions>
      </trkpt>
      <trkpt lat="42.517696358263492584228515625" lon="19.87179399468004703521728515625">
        <ele>1380.5999755859375</ele>
        <time>2026-06-17T12:48:15.000Z</time>
        <extensions>
          <ns3:TrackPointExtension>
            <ns3:atemp>20.0</ns3:atemp>
          </ns3:TrackPointExtension>
        </extensions>
      </trkpt>
      <trkpt lat="42.51768001355230808258056640625" lon="19.8717374168336391448974609375">
        <ele>1379.800048828125</ele>
        <time>2026-06-17T12:48:16.000Z</time>
        <extensions>
          <ns3:TrackPointExtension>
            <ns3:atemp>20.0</ns3:atemp>
          </ns3:TrackPointExtension>
        </extensions>
      </trkpt>
      <trkpt lat="42.51767163164913654327392578125" lon="19.87168268300592899322509765625">
        <ele>1378.4000244140625</ele>
        <time>2026-06-17T12:48:17.000Z</time>
        <extensions>
          <ns3:TrackPointExtension>
            <ns3:atemp>20.0</ns3:atemp>
          </ns3:TrackPointExtension>
        </extensions>
      </trkpt>
      <trkpt lat="42.51767263747751712799072265625" lon="19.8716415278613567352294921875">
        <ele>1377.5999755859375</ele>
        <time>2026-06-17T12:48:18.000Z</time>
        <extensions>
          <ns3:TrackPointExtension>
            <ns3:atemp>20.0</ns3:atemp>
          </ns3:TrackPointExtension>
        </extensions>
      </trkpt>
      <trkpt lat="42.5176799297332763671875" lon="19.8716217465698719024658203125">
        <ele>1376.5999755859375</ele>
        <time>2026-06-17T12:48:19.000Z</time>
        <extensions>
          <ns3:TrackPointExtension>
            <ns3:atemp>20.0</ns3:atemp>
          </ns3:TrackPointExtension>
        </extensions>
      </trkpt>
      <trkpt lat="42.517678923904895782470703125" lon="19.871615879237651824951171875">
        <ele>1376</ele>
        <time>2026-06-17T12:48:20.000Z</time>
        <extensions>
          <ns3:TrackPointExtension>
            <ns3:atemp>20.0</ns3:atemp>
          </ns3:TrackPointExtension>
        </extensions>
      </trkpt>
      <trkpt lat="42.5176767446100711822509765625" lon="19.8716126941144466400146484375">
        <ele>1375.199951171875</ele>
        <time>2026-06-17T12:48:21.000Z</time>
        <extensions>
          <ns3:TrackPointExtension>
            <ns3:atemp>20.0</ns3:atemp>
          </ns3:TrackPointExtension>
        </extensions>
      </trkpt>
      <trkpt lat="42.51767682842910289764404296875" lon="19.87161277793347835540771484375">
        <ele>1374.800048828125</ele>
        <time>2026-06-17T12:48:22.000Z</time>
        <extensions>
          <ns3:TrackPointExtension>
            <ns3:atemp>20.0</ns3:atemp>
          </ns3:TrackPointExtension>
        </extensions>
      </trkpt>
      <trkpt lat="42.51767682842910289764404296875" lon="19.87161277793347835540771484375">
        <ele>1374.4000244140625</ele>
        <time>2026-06-17T12:48:23.000Z</time>
        <extensions>
          <ns3:TrackPointExtension>
            <ns3:atemp>20.0</ns3:atemp>
          </ns3:TrackPointExtension>
        </extensions>
      </trkpt>
      <trkpt lat="42.51767682842910289764404296875" lon="19.87161277793347835540771484375">
        <ele>1374.199951171875</ele>
        <time>2026-06-17T12:48:24.000Z</time>
        <extensions>
          <ns3:TrackPointExtension>
            <ns3:atemp>20.0</ns3:atemp>
          </ns3:TrackPointExtension>
        </extensions>
      </trkpt>
      <trkpt lat="42.51767682842910289764404296875" lon="19.87161277793347835540771484375">
        <ele>1374</ele>
        <time>2026-06-17T12:48:25.000Z</time>
        <extensions>
          <ns3:TrackPointExtension>
            <ns3:atemp>20.0</ns3:atemp>
          </ns3:TrackPointExtension>
        </extensions>
      </trkpt>
      <trkpt lat="42.51767682842910289764404296875" lon="19.87161277793347835540771484375">
        <ele>1373.800048828125</ele>
        <time>2026-06-17T12:48:26.000Z</time>
        <extensions>
          <ns3:TrackPointExtension>
            <ns3:atemp>20.0</ns3:atemp>
          </ns3:TrackPointExtension>
        </extensions>
      </trkpt>
      <trkpt lat="42.51767682842910289764404296875" lon="19.87161277793347835540771484375">
        <ele>1373.5999755859375</ele>
        <time>2026-06-17T12:48:27.000Z</time>
        <extensions>
          <ns3:TrackPointExtension>
            <ns3:atemp>20.0</ns3:atemp>
          </ns3:TrackPointExtension>
        </extensions>
      </trkpt>
      <trkpt lat="42.51767682842910289764404296875" lon="19.87161277793347835540771484375">
        <ele>1373.5999755859375</ele>
        <time>2026-06-17T12:48:28.000Z</time>
        <extensions>
          <ns3:TrackPointExtension>
            <ns3:atemp>20.0</ns3:atemp>
          </ns3:TrackPointExtension>
        </extensions>
      </trkpt>
      <trkpt lat="42.51767682842910289764404296875" lon="19.87161277793347835540771484375">
        <ele>1373.5999755859375</ele>
        <time>2026-06-17T12:48:29.000Z</time>
        <extensions>
          <ns3:TrackPointExtension>
            <ns3:atemp>20.0</ns3:atemp>
          </ns3:TrackPointExtension>
        </extensions>
      </trkpt>
      <trkpt lat="42.51767682842910289764404296875" lon="19.87161277793347835540771484375">
        <ele>1373.5999755859375</ele>
        <time>2026-06-17T12:48:30.000Z</time>
        <extensions>
          <ns3:TrackPointExtension>
            <ns3:atemp>20.0</ns3:atemp>
          </ns3:TrackPointExtension>
        </extensions>
      </trkpt>
      <trkpt lat="42.51767682842910289764404296875" lon="19.87161277793347835540771484375">
        <ele>1373.4000244140625</ele>
        <time>2026-06-17T12:48:31.000Z</time>
        <extensions>
          <ns3:TrackPointExtension>
            <ns3:atemp>20.0</ns3:atemp>
          </ns3:TrackPointExtension>
        </extensions>
      </trkpt>
      <trkpt lat="42.51767682842910289764404296875" lon="19.87161277793347835540771484375">
        <ele>1373.4000244140625</ele>
        <time>2026-06-17T12:48:32.000Z</time>
        <extensions>
          <ns3:TrackPointExtension>
            <ns3:atemp>20.0</ns3:atemp>
          </ns3:TrackPointExtension>
        </extensions>
      </trkpt>
      <trkpt lat="42.51767682842910289764404296875" lon="19.87161277793347835540771484375">
        <ele>1373.4000244140625</ele>
        <time>2026-06-17T12:48:33.000Z</time>
        <extensions>
          <ns3:TrackPointExtension>
            <ns3:atemp>20.0</ns3:atemp>
          </ns3:TrackPointExtension>
        </extensions>
      </trkpt>
      <trkpt lat="42.51767682842910289764404296875" lon="19.87161277793347835540771484375">
        <ele>1373.4000244140625</ele>
        <time>2026-06-17T12:48:34.000Z</time>
        <extensions>
          <ns3:TrackPointExtension>
            <ns3:atemp>20.0</ns3:atemp>
          </ns3:TrackPointExtension>
        </extensions>
      </trkpt>
      <trkpt lat="42.51767682842910289764404296875" lon="19.87161277793347835540771484375">
        <ele>1373.4000244140625</ele>
        <time>2026-06-17T12:48:35.000Z</time>
        <extensions>
          <ns3:TrackPointExtension>
            <ns3:atemp>20.0</ns3:atemp>
          </ns3:TrackPointExtension>
        </extensions>
      </trkpt>
      <trkpt lat="42.51767682842910289764404296875" lon="19.87161277793347835540771484375">
        <ele>1373.4000244140625</ele>
        <time>2026-06-17T12:48:36.000Z</time>
        <extensions>
          <ns3:TrackPointExtension>
            <ns3:atemp>20.0</ns3:atemp>
          </ns3:TrackPointExtension>
        </extensions>
      </trkpt>
      <trkpt lat="42.51767682842910289764404296875" lon="19.87161277793347835540771484375">
        <ele>1373.199951171875</ele>
        <time>2026-06-17T12:48:37.000Z</time>
        <extensions>
          <ns3:TrackPointExtension>
            <ns3:atemp>20.0</ns3:atemp>
          </ns3:TrackPointExtension>
        </extensions>
      </trkpt>
      <trkpt lat="42.51767682842910289764404296875" lon="19.87161277793347835540771484375">
        <ele>1373.199951171875</ele>
        <time>2026-06-17T12:48:38.000Z</time>
        <extensions>
          <ns3:TrackPointExtension>
            <ns3:atemp>20.0</ns3:atemp>
          </ns3:TrackPointExtension>
        </extensions>
      </trkpt>
      <trkpt lat="42.51767682842910289764404296875" lon="19.87161277793347835540771484375">
        <ele>1373.199951171875</ele>
        <time>2026-06-17T12:48:39.000Z</time>
        <extensions>
          <ns3:TrackPointExtension>
            <ns3:atemp>20.0</ns3:atemp>
          </ns3:TrackPointExtension>
        </extensions>
      </trkpt>
      <trkpt lat="42.51767682842910289764404296875" lon="19.87161277793347835540771484375">
        <ele>1373.199951171875</ele>
        <time>2026-06-17T12:48:40.000Z</time>
        <extensions>
          <ns3:TrackPointExtension>
            <ns3:atemp>20.0</ns3:atemp>
          </ns3:TrackPointExtension>
        </extensions>
      </trkpt>
      <trkpt lat="42.51767682842910289764404296875" lon="19.87161277793347835540771484375">
        <ele>1373.199951171875</ele>
        <time>2026-06-17T12:48:41.000Z</time>
        <extensions>
          <ns3:TrackPointExtension>
            <ns3:atemp>20.0</ns3:atemp>
          </ns3:TrackPointExtension>
        </extensions>
      </trkpt>
      <trkpt lat="42.51767682842910289764404296875" lon="19.87161277793347835540771484375">
        <ele>1373.199951171875</ele>
        <time>2026-06-17T12:48:42.000Z</time>
        <extensions>
          <ns3:TrackPointExtension>
            <ns3:atemp>20.0</ns3:atemp>
          </ns3:TrackPointExtension>
        </extensions>
      </trkpt>
      <trkpt lat="42.51768118701875209808349609375" lon="19.87161277793347835540771484375">
        <ele>1373.199951171875</ele>
        <time>2026-06-17T12:48:43.000Z</time>
        <extensions>
          <ns3:TrackPointExtension>
            <ns3:atemp>20.0</ns3:atemp>
          </ns3:TrackPointExtension>
        </extensions>
      </trkpt>
      <trkpt lat="42.51770717091858386993408203125" lon="19.87159517593681812286376953125">
        <ele>1373</ele>
        <time>2026-06-17T12:48:44.000Z</time>
        <extensions>
          <ns3:TrackPointExtension>
            <ns3:atemp>20.0</ns3:atemp>
          </ns3:TrackPointExtension>
        </extensions>
      </trkpt>
      <trkpt lat="42.51772510819137096405029296875" lon="19.87158880569040775299072265625">
        <ele>1373</ele>
        <time>2026-06-17T12:48:45.000Z</time>
        <extensions>
          <ns3:TrackPointExtension>
            <ns3:atemp>20.0</ns3:atemp>
          </ns3:TrackPointExtension>
        </extensions>
      </trkpt>
      <trkpt lat="42.51773114316165447235107421875" lon="19.8715840280055999755859375">
        <ele>1372.800048828125</ele>
        <time>2026-06-17T12:48:46.000Z</time>
        <extensions>
          <ns3:TrackPointExtension>
            <ns3:atemp>20.0</ns3:atemp>
          </ns3:TrackPointExtension>
        </extensions>
      </trkpt>
      <trkpt lat="42.517730891704559326171875" lon="19.8715811781585216522216796875">
        <ele>1372.5999755859375</ele>
        <time>2026-06-17T12:48:47.000Z</time>
        <extensions>
          <ns3:TrackPointExtension>
            <ns3:atemp>20.0</ns3:atemp>
          </ns3:TrackPointExtension>
        </extensions>
      </trkpt>
      <trkpt lat="42.51773097552359104156494140625" lon="19.8715811781585216522216796875">
        <ele>1372.4000244140625</ele>
        <time>2026-06-17T12:48:48.000Z</time>
        <extensions>
          <ns3:TrackPointExtension>
            <ns3:atemp>20.0</ns3:atemp>
          </ns3:TrackPointExtension>
        </extensions>
      </trkpt>
      <trkpt lat="42.5177310593426227569580078125" lon="19.8715811781585216522216796875">
        <ele>1372.4000244140625</ele>
        <time>2026-06-17T12:48:49.000Z</time>
        <extensions>
          <ns3:TrackPointExtension>
            <ns3:atemp>20.0</ns3:atemp>
          </ns3:TrackPointExtension>
        </extensions>
      </trkpt>
      <trkpt lat="42.51775645650923252105712890625" lon="19.87157019786536693572998046875">
        <ele>1372.199951171875</ele>
        <time>2026-06-17T12:48:50.000Z</time>
        <extensions>
          <ns3:TrackPointExtension>
            <ns3:atemp>20.0</ns3:atemp>
          </ns3:TrackPointExtension>
        </extensions>
      </trkpt>
      <trkpt lat="42.5177872180938720703125" lon="19.87156164832413196563720703125">
        <ele>1372.199951171875</ele>
        <time>2026-06-17T12:48:51.000Z</time>
        <extensions>
          <ns3:TrackPointExtension>
            <ns3:atemp>20.0</ns3:atemp>
          </ns3:TrackPointExtension>
        </extensions>
      </trkpt>
      <trkpt lat="42.517815716564655303955078125" lon="19.871542118489742279052734375">
        <ele>1371.800048828125</ele>
        <time>2026-06-17T12:48:52.000Z</time>
        <extensions>
          <ns3:TrackPointExtension>
            <ns3:atemp>20.0</ns3:atemp>
          </ns3:TrackPointExtension>
        </extensions>
      </trkpt>
      <trkpt lat="42.517831139266490936279296875" lon="19.87150833941996097564697265625">
        <ele>1371.5999755859375</ele>
        <time>2026-06-17T12:48:53.000Z</time>
        <extensions>
          <ns3:TrackPointExtension>
            <ns3:atemp>20.0</ns3:atemp>
          </ns3:TrackPointExtension>
        </extensions>
      </trkpt>
      <trkpt lat="42.5178252719342708587646484375" lon="19.87146668136119842529296875">
        <ele>1371.199951171875</ele>
        <time>2026-06-17T12:48:54.000Z</time>
        <extensions>
          <ns3:TrackPointExtension>
            <ns3:atemp>20.0</ns3:atemp>
          </ns3:TrackPointExtension>
        </extensions>
      </trkpt>
      <trkpt lat="42.5178044848144054412841796875" lon="19.871436171233654022216796875">
        <ele>1370.800048828125</ele>
        <time>2026-06-17T12:48:55.000Z</time>
        <extensions>
          <ns3:TrackPointExtension>
            <ns3:atemp>20.0</ns3:atemp>
          </ns3:TrackPointExtension>
        </extensions>
      </trkpt>
      <trkpt lat="42.51777590252459049224853515625" lon="19.8714121989905834197998046875">
        <ele>1370.4000244140625</ele>
        <time>2026-06-17T12:48:56.000Z</time>
        <extensions>
          <ns3:TrackPointExtension>
            <ns3:atemp>20.0</ns3:atemp>
          </ns3:TrackPointExtension>
        </extensions>
      </trkpt>
      <trkpt lat="42.51776115037500858306884765625" lon="19.871376492083072662353515625">
        <ele>1370</ele>
        <time>2026-06-17T12:48:57.000Z</time>
        <extensions>
          <ns3:TrackPointExtension>
            <ns3:atemp>20.0</ns3:atemp>
          </ns3:TrackPointExtension>
        </extensions>
      </trkpt>
      <trkpt lat="42.5177612341940402984619140625" lon="19.87133081071078777313232421875">
        <ele>1369.4000244140625</ele>
        <time>2026-06-17T12:48:58.000Z</time>
        <extensions>
          <ns3:TrackPointExtension>
            <ns3:atemp>20.0</ns3:atemp>
          </ns3:TrackPointExtension>
        </extensions>
      </trkpt>
      <trkpt lat="42.51777120865881443023681640625" lon="19.87128454260528087615966796875">
        <ele>1368.5999755859375</ele>
        <time>2026-06-17T12:48:59.000Z</time>
        <extensions>
          <ns3:TrackPointExtension>
            <ns3:atemp>20.0</ns3:atemp>
          </ns3:TrackPointExtension>
        </extensions>
      </trkpt>
      <trkpt lat="42.5177950970828533172607421875" lon="19.87125436775386333465576171875">
        <ele>1368.199951171875</ele>
        <time>2026-06-17T12:49:00.000Z</time>
        <extensions>
          <ns3:TrackPointExtension>
            <ns3:atemp>20.0</ns3:atemp>
          </ns3:TrackPointExtension>
        </extensions>
      </trkpt>
      <trkpt lat="42.51782451756298542022705078125" lon="19.871239699423313140869140625">
        <ele>1367.5999755859375</ele>
        <time>2026-06-17T12:49:01.000Z</time>
        <extensions>
          <ns3:TrackPointExtension>
            <ns3:atemp>20.0</ns3:atemp>
          </ns3:TrackPointExtension>
        </extensions>
      </trkpt>
      <trkpt lat="42.517847903072834014892578125" lon="19.87122905440628528594970703125">
        <ele>1367</ele>
        <time>2026-06-17T12:49:02.000Z</time>
        <extensions>
          <ns3:TrackPointExtension>
            <ns3:atemp>20.0</ns3:atemp>
          </ns3:TrackPointExtension>
        </extensions>
      </trkpt>
      <trkpt lat="42.5178675167262554168701171875" lon="19.8712083511054515838623046875">
        <ele>1366.4000244140625</ele>
        <time>2026-06-17T12:49:03.000Z</time>
        <extensions>
          <ns3:TrackPointExtension>
            <ns3:atemp>20.0</ns3:atemp>
          </ns3:TrackPointExtension>
        </extensions>
      </trkpt>
      <trkpt lat="42.517888806760311126708984375" lon="19.8711835406720638275146484375">
        <ele>1365.800048828125</ele>
        <time>2026-06-17T12:49:04.000Z</time>
        <extensions>
          <ns3:TrackPointExtension>
            <ns3:atemp>20.0</ns3:atemp>
          </ns3:TrackPointExtension>
        </extensions>
      </trkpt>
      <trkpt lat="42.51790951006114482879638671875" lon="19.87115780822932720184326171875">
        <ele>1365</ele>
        <time>2026-06-17T12:49:05.000Z</time>
        <extensions>
          <ns3:TrackPointExtension>
            <ns3:atemp>20.0</ns3:atemp>
          </ns3:TrackPointExtension>
        </extensions>
      </trkpt>
      <trkpt lat="42.5179228372871875762939453125" lon="19.8711255379021167755126953125">
        <ele>1364.4000244140625</ele>
        <time>2026-06-17T12:49:06.000Z</time>
        <extensions>
          <ns3:TrackPointExtension>
            <ns3:atemp>20.0</ns3:atemp>
          </ns3:TrackPointExtension>
        </extensions>
      </trkpt>
      <trkpt lat="42.51793029718101024627685546875" lon="19.871088154613971710205078125">
        <ele>1363.5999755859375</ele>
        <time>2026-06-17T12:49:07.000Z</time>
        <extensions>
          <ns3:TrackPointExtension>
            <ns3:atemp>20.0</ns3:atemp>
          </ns3:TrackPointExtension>
        </extensions>
      </trkpt>
      <trkpt lat="42.5179282017052173614501953125" lon="19.871046580374240875244140625">
        <ele>1363</ele>
        <time>2026-06-17T12:49:08.000Z</time>
        <extensions>
          <ns3:TrackPointExtension>
            <ns3:atemp>20.0</ns3:atemp>
          </ns3:TrackPointExtension>
        </extensions>
      </trkpt>
      <trkpt lat="42.51791370101273059844970703125" lon="19.87100592814385890960693359375">
        <ele>1362.4000244140625</ele>
        <time>2026-06-17T12:49:09.000Z</time>
        <extensions>
          <ns3:TrackPointExtension>
            <ns3:atemp>20.0</ns3:atemp>
          </ns3:TrackPointExtension>
        </extensions>
      </trkpt>
      <trkpt lat="42.517896853387355804443359375" lon="19.8709599114954471588134765625">
        <ele>1361.5999755859375</ele>
        <time>2026-06-17T12:49:10.000Z</time>
        <extensions>
          <ns3:TrackPointExtension>
            <ns3:atemp>20.0</ns3:atemp>
          </ns3:TrackPointExtension>
        </extensions>
      </trkpt>
      <trkpt lat="42.5178802572190761566162109375" lon="19.87090886570513248443603515625">
        <ele>1360.5999755859375</ele>
        <time>2026-06-17T12:49:11.000Z</time>
        <extensions>
          <ns3:TrackPointExtension>
            <ns3:atemp>20.0</ns3:atemp>
          </ns3:TrackPointExtension>
        </extensions>
      </trkpt>
      <trkpt lat="42.5178718753159046173095703125" lon="19.87085237167775630950927734375">
        <ele>1360</ele>
        <time>2026-06-17T12:49:12.000Z</time>
        <extensions>
          <ns3:TrackPointExtension>
            <ns3:atemp>20.0</ns3:atemp>
          </ns3:TrackPointExtension>
        </extensions>
      </trkpt>
      <trkpt lat="42.51788436435163021087646484375" lon="19.87080090679228305816650390625">
        <ele>1359.199951171875</ele>
        <time>2026-06-17T12:49:13.000Z</time>
        <extensions>
          <ns3:TrackPointExtension>
            <ns3:atemp>20.0</ns3:atemp>
          </ns3:TrackPointExtension>
        </extensions>
      </trkpt>
      <trkpt lat="42.51791135407984256744384765625" lon="19.87077198922634124755859375">
        <ele>1358.4000244140625</ele>
        <time>2026-06-17T12:49:14.000Z</time>
        <extensions>
          <ns3:TrackPointExtension>
            <ns3:atemp>20.0</ns3:atemp>
          </ns3:TrackPointExtension>
        </extensions>
      </trkpt>
      <trkpt lat="42.51795284450054168701171875" lon="19.87075195647776126861572265625">
        <ele>1357.5999755859375</ele>
        <time>2026-06-17T12:49:15.000Z</time>
        <extensions>
          <ns3:TrackPointExtension>
            <ns3:atemp>20.0</ns3:atemp>
          </ns3:TrackPointExtension>
        </extensions>
      </trkpt>
      <trkpt lat="42.5179982744157314300537109375" lon="19.870729409158229827880859375">
        <ele>1356.800048828125</ele>
        <time>2026-06-17T12:49:16.000Z</time>
        <extensions>
          <ns3:TrackPointExtension>
            <ns3:atemp>20.0</ns3:atemp>
          </ns3:TrackPointExtension>
        </extensions>
      </trkpt>
      <trkpt lat="42.51805066131055355072021484375" lon="19.87070149742066860198974609375">
        <ele>1355.800048828125</ele>
        <time>2026-06-17T12:49:17.000Z</time>
        <extensions>
          <ns3:TrackPointExtension>
            <ns3:atemp>20.0</ns3:atemp>
          </ns3:TrackPointExtension>
        </extensions>
      </trkpt>
      <trkpt lat="42.51810170710086822509765625" lon="19.87066981382668018341064453125">
        <ele>1355</ele>
        <time>2026-06-17T12:49:18.000Z</time>
        <extensions>
          <ns3:TrackPointExtension>
            <ns3:atemp>20.0</ns3:atemp>
          </ns3:TrackPointExtension>
        </extensions>
      </trkpt>
      <trkpt lat="42.518137581646442413330078125" lon="19.8706259764730930328369140625">
        <ele>1354</ele>
        <time>2026-06-17T12:49:19.000Z</time>
        <extensions>
          <ns3:TrackPointExtension>
            <ns3:atemp>20.0</ns3:atemp>
          </ns3:TrackPointExtension>
        </extensions>
      </trkpt>
      <trkpt lat="42.51814822666347026824951171875" lon="19.87057191319763660430908203125">
        <ele>1353.199951171875</ele>
        <time>2026-06-17T12:49:20.000Z</time>
        <extensions>
          <ns3:TrackPointExtension>
            <ns3:atemp>20.0</ns3:atemp>
          </ns3:TrackPointExtension>
        </extensions>
      </trkpt>
      <trkpt lat="42.51813716255128383636474609375" lon="19.87051005475223064422607421875">
        <ele>1352.4000244140625</ele>
        <time>2026-06-17T12:49:21.000Z</time>
        <extensions>
          <ns3:TrackPointExtension>
            <ns3:atemp>20.0</ns3:atemp>
          </ns3:TrackPointExtension>
        </extensions>
      </trkpt>
      <trkpt lat="42.51811889000236988067626953125" lon="19.87045146524906158447265625">
        <ele>1351.5999755859375</ele>
        <time>2026-06-17T12:49:22.000Z</time>
        <extensions>
          <ns3:TrackPointExtension>
            <ns3:atemp>20.0</ns3:atemp>
          </ns3:TrackPointExtension>
        </extensions>
      </trkpt>
      <trkpt lat="42.51808268018066883087158203125" lon="19.870398826897144317626953125">
        <ele>1350.5999755859375</ele>
        <time>2026-06-17T12:49:23.000Z</time>
        <extensions>
          <ns3:TrackPointExtension>
            <ns3:atemp>20.0</ns3:atemp>
          </ns3:TrackPointExtension>
        </extensions>
      </trkpt>
      <trkpt lat="42.5180492363870143890380859375" lon="19.870343506336212158203125">
        <ele>1349.800048828125</ele>
        <time>2026-06-17T12:49:24.000Z</time>
        <extensions>
          <ns3:TrackPointExtension>
            <ns3:atemp>20.0</ns3:atemp>
          </ns3:TrackPointExtension>
        </extensions>
      </trkpt>
      <trkpt lat="42.51802065409719944000244140625" lon="19.870281480252742767333984375">
        <ele>1348.800048828125</ele>
        <time>2026-06-17T12:49:25.000Z</time>
        <extensions>
          <ns3:TrackPointExtension>
            <ns3:atemp>20.0</ns3:atemp>
          </ns3:TrackPointExtension>
        </extensions>
      </trkpt>
      <trkpt lat="42.5179912336170673370361328125" lon="19.87021383829414844512939453125">
        <ele>1347.800048828125</ele>
        <time>2026-06-17T12:49:26.000Z</time>
        <extensions>
          <ns3:TrackPointExtension>
            <ns3:atemp>20.0</ns3:atemp>
          </ns3:TrackPointExtension>
        </extensions>
      </trkpt>
      <trkpt lat="42.51798578538000583648681640625" lon="19.8701411671936511993408203125">
        <ele>1346.800048828125</ele>
        <time>2026-06-17T12:49:27.000Z</time>
        <extensions>
          <ns3:TrackPointExtension>
            <ns3:atemp>20.0</ns3:atemp>
          </ns3:TrackPointExtension>
        </extensions>
      </trkpt>
      <trkpt lat="42.5180031359195709228515625" lon="19.87008123658597469329833984375">
        <ele>1345.800048828125</ele>
        <time>2026-06-17T12:49:28.000Z</time>
        <extensions>
          <ns3:TrackPointExtension>
            <ns3:atemp>20.0</ns3:atemp>
          </ns3:TrackPointExtension>
        </extensions>
      </trkpt>
      <trkpt lat="42.51803456805646419525146484375" lon="19.8700288496911525726318359375">
        <ele>1344.5999755859375</ele>
        <time>2026-06-17T12:49:29.000Z</time>
        <extensions>
          <ns3:TrackPointExtension>
            <ns3:atemp>20.0</ns3:atemp>
          </ns3:TrackPointExtension>
        </extensions>
      </trkpt>
      <trkpt lat="42.5180750526487827301025390625" lon="19.8699798993766307830810546875">
        <ele>1343.5999755859375</ele>
        <time>2026-06-17T12:49:30.000Z</time>
        <extensions>
          <ns3:TrackPointExtension>
            <ns3:atemp>20.0</ns3:atemp>
          </ns3:TrackPointExtension>
        </extensions>
      </trkpt>
      <trkpt lat="42.5181077420711517333984375" lon="19.8699344694614410400390625">
        <ele>1342.5999755859375</ele>
        <time>2026-06-17T12:49:31.000Z</time>
        <extensions>
          <ns3:TrackPointExtension>
            <ns3:atemp>20.0</ns3:atemp>
          </ns3:TrackPointExtension>
        </extensions>
      </trkpt>
      <trkpt lat="42.5181345641613006591796875" lon="19.86989281140267848968505859375">
        <ele>1341.5999755859375</ele>
        <time>2026-06-17T12:49:32.000Z</time>
        <extensions>
          <ns3:TrackPointExtension>
            <ns3:atemp>20.0</ns3:atemp>
          </ns3:TrackPointExtension>
        </extensions>
      </trkpt>
      <trkpt lat="42.518142275512218475341796875" lon="19.8698431067168712615966796875">
        <ele>1340.4000244140625</ele>
        <time>2026-06-17T12:49:33.000Z</time>
        <extensions>
          <ns3:TrackPointExtension>
            <ns3:atemp>20.0</ns3:atemp>
          </ns3:TrackPointExtension>
        </extensions>
      </trkpt>
      <trkpt lat="42.518146298825740814208984375" lon="19.8697936534881591796875">
        <ele>1339.199951171875</ele>
        <time>2026-06-17T12:49:34.000Z</time>
        <extensions>
          <ns3:TrackPointExtension>
            <ns3:atemp>20.0</ns3:atemp>
          </ns3:TrackPointExtension>
        </extensions>
      </trkpt>
      <trkpt lat="42.518140263855457305908203125" lon="19.86973531544208526611328125">
        <ele>1337.800048828125</ele>
        <time>2026-06-17T12:49:35.000Z</time>
        <extensions>
          <ns3:TrackPointExtension>
            <ns3:atemp>20.0</ns3:atemp>
          </ns3:TrackPointExtension>
        </extensions>
      </trkpt>
      <trkpt lat="42.5181340612471103668212890625" lon="19.8696677573025226593017578125">
        <ele>1336.800048828125</ele>
        <time>2026-06-17T12:49:36.000Z</time>
        <extensions>
          <ns3:TrackPointExtension>
            <ns3:atemp>20.0</ns3:atemp>
          </ns3:TrackPointExtension>
        </extensions>
      </trkpt>
      <trkpt lat="42.51815224997699260711669921875" lon="19.86959860660135746002197265625">
        <ele>1335.5999755859375</ele>
        <time>2026-06-17T12:49:37.000Z</time>
        <extensions>
          <ns3:TrackPointExtension>
            <ns3:atemp>20.0</ns3:atemp>
          </ns3:TrackPointExtension>
        </extensions>
      </trkpt>
      <trkpt lat="42.5181747972965240478515625" lon="19.8695329762995243072509765625">
        <ele>1334.4000244140625</ele>
        <time>2026-06-17T12:49:38.000Z</time>
        <extensions>
          <ns3:TrackPointExtension>
            <ns3:atemp>20.0</ns3:atemp>
          </ns3:TrackPointExtension>
        </extensions>
      </trkpt>
      <trkpt lat="42.51819290220737457275390625" lon="19.8694652505218982696533203125">
        <ele>1333.4000244140625</ele>
        <time>2026-06-17T12:49:39.000Z</time>
        <extensions>
          <ns3:TrackPointExtension>
            <ns3:atemp>20.0</ns3:atemp>
          </ns3:TrackPointExtension>
        </extensions>
      </trkpt>
      <trkpt lat="42.5181997753679752349853515625" lon="19.86940163187682628631591796875">
        <ele>1332.199951171875</ele>
        <time>2026-06-17T12:49:40.000Z</time>
        <extensions>
          <ns3:TrackPointExtension>
            <ns3:atemp>20.0</ns3:atemp>
          </ns3:TrackPointExtension>
        </extensions>
      </trkpt>
      <trkpt lat="42.51820027828216552734375" lon="19.86933407373726367950439453125">
        <ele>1331</ele>
        <time>2026-06-17T12:49:41.000Z</time>
        <extensions>
          <ns3:TrackPointExtension>
            <ns3:atemp>20.0</ns3:atemp>
          </ns3:TrackPointExtension>
        </extensions>
      </trkpt>
      <trkpt lat="42.5181991048157215118408203125" lon="19.86926265992224216461181640625">
        <ele>1329.800048828125</ele>
        <time>2026-06-17T12:49:42.000Z</time>
        <extensions>
          <ns3:TrackPointExtension>
            <ns3:atemp>20.0</ns3:atemp>
          </ns3:TrackPointExtension>
        </extensions>
      </trkpt>
      <trkpt lat="42.5182078219950199127197265625" lon="19.86918621696531772613525390625">
        <ele>1328.800048828125</ele>
        <time>2026-06-17T12:49:43.000Z</time>
        <extensions>
          <ns3:TrackPointExtension>
            <ns3:atemp>20.0</ns3:atemp>
          </ns3:TrackPointExtension>
        </extensions>
      </trkpt>
      <trkpt lat="42.5182296149432659149169921875" lon="19.8691125400364398956298828125">
        <ele>1328</ele>
        <time>2026-06-17T12:49:44.000Z</time>
        <extensions>
          <ns3:TrackPointExtension>
            <ns3:atemp>20.0</ns3:atemp>
          </ns3:TrackPointExtension>
        </extensions>
      </trkpt>
      <trkpt lat="42.51826104708015918731689453125" lon="19.8690426349639892578125">
        <ele>1326.800048828125</ele>
        <time>2026-06-17T12:49:45.000Z</time>
        <extensions>
          <ns3:TrackPointExtension>
            <ns3:atemp>20.0</ns3:atemp>
          </ns3:TrackPointExtension>
        </extensions>
      </trkpt>
      <trkpt lat="42.5182943232357501983642578125" lon="19.86899225972592830657958984375">
        <ele>1325.5999755859375</ele>
        <time>2026-06-17T12:49:46.000Z</time>
        <extensions>
          <ns3:TrackPointExtension>
            <ns3:atemp>20.0</ns3:atemp>
          </ns3:TrackPointExtension>
        </extensions>
      </trkpt>
      <trkpt lat="42.51833732239902019500732421875" lon="19.8689549602568149566650390625">
        <ele>1324</ele>
        <time>2026-06-17T12:49:47.000Z</time>
        <extensions>
          <ns3:TrackPointExtension>
            <ns3:atemp>20.0</ns3:atemp>
          </ns3:TrackPointExtension>
        </extensions>
      </trkpt>
      <trkpt lat="42.51838325522840023040771484375" lon="19.8689264617860317230224609375">
        <ele>1323</ele>
        <time>2026-06-17T12:49:48.000Z</time>
        <extensions>
          <ns3:TrackPointExtension>
            <ns3:atemp>20.0</ns3:atemp>
          </ns3:TrackPointExtension>
        </extensions>
      </trkpt>
      <trkpt lat="42.51842851750552654266357421875" lon="19.86890944652259349822998046875">
        <ele>1321.800048828125</ele>
        <time>2026-06-17T12:49:49.000Z</time>
        <extensions>
          <ns3:TrackPointExtension>
            <ns3:atemp>20.0</ns3:atemp>
          </ns3:TrackPointExtension>
        </extensions>
      </trkpt>
      <trkpt lat="42.5184639729559421539306640625" lon="19.86887658946216106414794921875">
        <ele>1320.5999755859375</ele>
        <time>2026-06-17T12:49:50.000Z</time>
        <extensions>
          <ns3:TrackPointExtension>
            <ns3:atemp>20.0</ns3:atemp>
          </ns3:TrackPointExtension>
        </extensions>
      </trkpt>
      <trkpt lat="42.51849004067480564117431640625" lon="19.86882495693862438201904296875">
        <ele>1319.4000244140625</ele>
        <time>2026-06-17T12:49:51.000Z</time>
        <extensions>
          <ns3:TrackPointExtension>
            <ns3:atemp>20.0</ns3:atemp>
          </ns3:TrackPointExtension>
        </extensions>
      </trkpt>
      <trkpt lat="42.518503703176975250244140625" lon="19.86876628361642360687255859375">
        <ele>1318.4000244140625</ele>
        <time>2026-06-17T12:49:52.000Z</time>
        <extensions>
          <ns3:TrackPointExtension>
            <ns3:atemp>20.0</ns3:atemp>
          </ns3:TrackPointExtension>
        </extensions>
      </trkpt>
      <trkpt lat="42.51850864849984645843505859375" lon="19.868696630001068115234375">
        <ele>1316.800048828125</ele>
        <time>2026-06-17T12:49:53.000Z</time>
        <extensions>
          <ns3:TrackPointExtension>
            <ns3:atemp>20.0</ns3:atemp>
          </ns3:TrackPointExtension>
        </extensions>
      </trkpt>
      <trkpt lat="42.51851300708949565887451171875" lon="19.868618510663509368896484375">
        <ele>1315.800048828125</ele>
        <time>2026-06-17T12:49:54.000Z</time>
        <extensions>
          <ns3:TrackPointExtension>
            <ns3:atemp>20.0</ns3:atemp>
          </ns3:TrackPointExtension>
        </extensions>
      </trkpt>
      <trkpt lat="42.518513090908527374267578125" lon="19.86853444017469882965087890625">
        <ele>1314.5999755859375</ele>
        <time>2026-06-17T12:49:55.000Z</time>
        <extensions>
          <ns3:TrackPointExtension>
            <ns3:atemp>20.0</ns3:atemp>
          </ns3:TrackPointExtension>
        </extensions>
      </trkpt>
      <trkpt lat="42.518519796431064605712890625" lon="19.86845162697136402130126953125">
        <ele>1313.5999755859375</ele>
        <time>2026-06-17T12:49:56.000Z</time>
        <extensions>
          <ns3:TrackPointExtension>
            <ns3:atemp>20.0</ns3:atemp>
          </ns3:TrackPointExtension>
        </extensions>
      </trkpt>
      <trkpt lat="42.51853345893323421478271484375" lon="19.86837602220475673675537109375">
        <ele>1312.4000244140625</ele>
        <time>2026-06-17T12:49:57.000Z</time>
        <extensions>
          <ns3:TrackPointExtension>
            <ns3:atemp>20.0</ns3:atemp>
          </ns3:TrackPointExtension>
        </extensions>
      </trkpt>
      <trkpt lat="42.51855365931987762451171875" lon="19.8683102242648601531982421875">
        <ele>1311.4000244140625</ele>
        <time>2026-06-17T12:49:58.000Z</time>
        <extensions>
          <ns3:TrackPointExtension>
            <ns3:atemp>20.0</ns3:atemp>
          </ns3:TrackPointExtension>
        </extensions>
      </trkpt>
      <trkpt lat="42.5185749493539333343505859375" lon="19.86824492923915386199951171875">
        <ele>1310.199951171875</ele>
        <time>2026-06-17T12:49:59.000Z</time>
        <extensions>
          <ns3:TrackPointExtension>
            <ns3:atemp>20.0</ns3:atemp>
          </ns3:TrackPointExtension>
        </extensions>
      </trkpt>
      <trkpt lat="42.51858316361904144287109375" lon="19.8681828193366527557373046875">
        <ele>1309.199951171875</ele>
        <time>2026-06-17T12:50:00.000Z</time>
        <extensions>
          <ns3:TrackPointExtension>
            <ns3:atemp>20.0</ns3:atemp>
          </ns3:TrackPointExtension>
        </extensions>
      </trkpt>
      <trkpt lat="42.51859062351286411285400390625" lon="19.8681191168725490570068359375">
        <ele>1308.199951171875</ele>
        <time>2026-06-17T12:50:01.000Z</time>
        <extensions>
          <ns3:TrackPointExtension>
            <ns3:atemp>20.0</ns3:atemp>
          </ns3:TrackPointExtension>
        </extensions>
      </trkpt>
      <trkpt lat="42.51861208118498325347900390625" lon="19.86806287430226802825927734375">
        <ele>1307.199951171875</ele>
        <time>2026-06-17T12:50:02.000Z</time>
        <extensions>
          <ns3:TrackPointExtension>
            <ns3:atemp>20.0</ns3:atemp>
          </ns3:TrackPointExtension>
        </extensions>
      </trkpt>
      <trkpt lat="42.51864627934992313385009765625" lon="19.8680272512137889862060546875">
        <ele>1306.4000244140625</ele>
        <time>2026-06-17T12:50:03.000Z</time>
        <extensions>
          <ns3:TrackPointExtension>
            <ns3:atemp>20.0</ns3:atemp>
          </ns3:TrackPointExtension>
        </extensions>
      </trkpt>
      <trkpt lat="42.5186819024384021759033203125" lon="19.86799431033432483673095703125">
        <ele>1305.4000244140625</ele>
        <time>2026-06-17T12:50:04.000Z</time>
        <extensions>
          <ns3:TrackPointExtension>
            <ns3:atemp>20.0</ns3:atemp>
          </ns3:TrackPointExtension>
        </extensions>
      </trkpt>
      <trkpt lat="42.51871283166110515594482421875" lon="19.867954663932323455810546875">
        <ele>1304.199951171875</ele>
        <time>2026-06-17T12:50:05.000Z</time>
        <extensions>
          <ns3:TrackPointExtension>
            <ns3:atemp>20.0</ns3:atemp>
          </ns3:TrackPointExtension>
        </extensions>
      </trkpt>
      <trkpt lat="42.5187395699322223663330078125" lon="19.86790395341813564300537109375">
        <ele>1303</ele>
        <time>2026-06-17T12:50:06.000Z</time>
        <extensions>
          <ns3:TrackPointExtension>
            <ns3:atemp>20.0</ns3:atemp>
          </ns3:TrackPointExtension>
        </extensions>
      </trkpt>
      <trkpt lat="42.51873998902738094329833984375" lon="19.86783765256404876708984375">
        <ele>1302</ele>
        <time>2026-06-17T12:50:07.000Z</time>
        <extensions>
          <ns3:TrackPointExtension>
            <ns3:atemp>20.0</ns3:atemp>
          </ns3:TrackPointExtension>
        </extensions>
      </trkpt>
      <trkpt lat="42.5187278352677822113037109375" lon="19.86777286045253276824951171875">
        <ele>1300.800048828125</ele>
        <time>2026-06-17T12:50:08.000Z</time>
        <extensions>
          <ns3:TrackPointExtension>
            <ns3:atemp>20.0</ns3:atemp>
          </ns3:TrackPointExtension>
        </extensions>
      </trkpt>
      <trkpt lat="42.51870143227279186248779296875" lon="19.86772499978542327880859375">
        <ele>1299.800048828125</ele>
        <time>2026-06-17T12:50:09.000Z</time>
        <extensions>
          <ns3:TrackPointExtension>
            <ns3:atemp>20.0</ns3:atemp>
          </ns3:TrackPointExtension>
        </extensions>
      </trkpt>
      <trkpt lat="42.5186708383262157440185546875" lon="19.86767529509961605072021484375">
        <ele>1298.5999755859375</ele>
        <time>2026-06-17T12:50:10.000Z</time>
        <extensions>
          <ns3:TrackPointExtension>
            <ns3:atemp>20.0</ns3:atemp>
          </ns3:TrackPointExtension>
        </extensions>
      </trkpt>
      <trkpt lat="42.5186520628631114959716796875" lon="19.86762198619544506072998046875">
        <ele>1297.4000244140625</ele>
        <time>2026-06-17T12:50:11.000Z</time>
        <extensions>
          <ns3:TrackPointExtension>
            <ns3:atemp>20.0</ns3:atemp>
          </ns3:TrackPointExtension>
        </extensions>
      </trkpt>
      <trkpt lat="42.51864963211119174957275390625" lon="19.86756448633968830108642578125">
        <ele>1296.199951171875</ele>
        <time>2026-06-17T12:50:12.000Z</time>
        <extensions>
          <ns3:TrackPointExtension>
            <ns3:atemp>20.0</ns3:atemp>
          </ns3:TrackPointExtension>
        </extensions>
      </trkpt>
      <trkpt lat="42.518663294613361358642578125" lon="19.8675032146275043487548828125">
        <ele>1295.199951171875</ele>
        <time>2026-06-17T12:50:13.000Z</time>
        <extensions>
          <ns3:TrackPointExtension>
            <ns3:atemp>20.0</ns3:atemp>
          </ns3:TrackPointExtension>
        </extensions>
      </trkpt>
      <trkpt lat="42.51868969760835170745849609375" lon="19.8674381710588932037353515625">
        <ele>1294.199951171875</ele>
        <time>2026-06-17T12:50:14.000Z</time>
        <extensions>
          <ns3:TrackPointExtension>
            <ns3:atemp>20.0</ns3:atemp>
          </ns3:TrackPointExtension>
        </extensions>
      </trkpt>
      <trkpt lat="42.51871450804173946380615234375" lon="19.86736197955906391143798828125">
        <ele>1293</ele>
        <time>2026-06-17T12:50:15.000Z</time>
        <extensions>
          <ns3:TrackPointExtension>
            <ns3:atemp>20.0</ns3:atemp>
          </ns3:TrackPointExtension>
        </extensions>
      </trkpt>
      <trkpt lat="42.51873202621936798095703125" lon="19.86727698706090450286865234375">
        <ele>1292</ele>
        <time>2026-06-17T12:50:16.000Z</time>
        <extensions>
          <ns3:TrackPointExtension>
            <ns3:atemp>20.0</ns3:atemp>
          </ns3:TrackPointExtension>
        </extensions>
      </trkpt>
      <trkpt lat="42.5187459401786327362060546875" lon="19.867180176079273223876953125">
        <ele>1290.5999755859375</ele>
        <time>2026-06-17T12:50:17.000Z</time>
        <extensions>
          <ns3:TrackPointExtension>
            <ns3:atemp>20.0</ns3:atemp>
          </ns3:TrackPointExtension>
        </extensions>
      </trkpt>
      <trkpt lat="42.51876899041235446929931640625" lon="19.8670921660959720611572265625">
        <ele>1289.4000244140625</ele>
        <time>2026-06-17T12:50:18.000Z</time>
        <extensions>
          <ns3:TrackPointExtension>
            <ns3:atemp>20.0</ns3:atemp>
          </ns3:TrackPointExtension>
        </extensions>
      </trkpt>
      <trkpt lat="42.51878173090517520904541015625" lon="19.86699812114238739013671875">
        <ele>1288.4000244140625</ele>
        <time>2026-06-17T12:50:19.000Z</time>
        <extensions>
          <ns3:TrackPointExtension>
            <ns3:atemp>20.0</ns3:atemp>
          </ns3:TrackPointExtension>
        </extensions>
      </trkpt>
      <trkpt lat="42.5187945552170276641845703125" lon="19.86690516583621501922607421875">
        <ele>1287.199951171875</ele>
        <time>2026-06-17T12:50:20.000Z</time>
        <extensions>
          <ns3:TrackPointExtension>
            <ns3:atemp>20.0</ns3:atemp>
          </ns3:TrackPointExtension>
        </extensions>
      </trkpt>
      <trkpt lat="42.51881073229014873504638671875" lon="19.8668096959590911865234375">
        <ele>1286.199951171875</ele>
        <time>2026-06-17T12:50:21.000Z</time>
        <extensions>
          <ns3:TrackPointExtension>
            <ns3:atemp>20.0</ns3:atemp>
          </ns3:TrackPointExtension>
        </extensions>
      </trkpt>
      <trkpt lat="42.5188267417252063751220703125" lon="19.8667122982442378997802734375">
        <ele>1284.800048828125</ele>
        <time>2026-06-17T12:50:22.000Z</time>
        <extensions>
          <ns3:TrackPointExtension>
            <ns3:atemp>20.0</ns3:atemp>
          </ns3:TrackPointExtension>
        </extensions>
      </trkpt>
      <trkpt lat="42.518855743110179901123046875" lon="19.86661213450133800506591796875">
        <ele>1283</ele>
        <time>2026-06-17T12:50:23.000Z</time>
        <extensions>
          <ns3:TrackPointExtension>
            <ns3:atemp>20.0</ns3:atemp>
          </ns3:TrackPointExtension>
        </extensions>
      </trkpt>
      <trkpt lat="42.51888348720967769622802734375" lon="19.86651456914842128753662109375">
        <ele>1281.5999755859375</ele>
        <time>2026-06-17T12:50:24.000Z</time>
        <extensions>
          <ns3:TrackPointExtension>
            <ns3:atemp>20.0</ns3:atemp>
          </ns3:TrackPointExtension>
        </extensions>
      </trkpt>
      <trkpt lat="42.51890838146209716796875" lon="19.86641147173941135406494140625">
        <ele>1280.199951171875</ele>
        <time>2026-06-17T12:50:25.000Z</time>
        <extensions>
          <ns3:TrackPointExtension>
            <ns3:atemp>20.0</ns3:atemp>
          </ns3:TrackPointExtension>
        </extensions>
      </trkpt>
      <trkpt lat="42.51893931068480014801025390625" lon="19.86630116589367389678955078125">
        <ele>1278.5999755859375</ele>
        <time>2026-06-17T12:50:26.000Z</time>
        <extensions>
          <ns3:TrackPointExtension>
            <ns3:atemp>20.0</ns3:atemp>
          </ns3:TrackPointExtension>
        </extensions>
      </trkpt>
      <trkpt lat="42.5189658813178539276123046875" lon="19.86620485782623291015625">
        <ele>1277.199951171875</ele>
        <time>2026-06-17T12:50:27.000Z</time>
        <extensions>
          <ns3:TrackPointExtension>
            <ns3:atemp>20.0</ns3:atemp>
          </ns3:TrackPointExtension>
        </extensions>
      </trkpt>
      <trkpt lat="42.51898574642837047576904296875" lon="19.86611207015812397003173828125">
        <ele>1275.800048828125</ele>
        <time>2026-06-17T12:50:28.000Z</time>
        <extensions>
          <ns3:TrackPointExtension>
            <ns3:atemp>20.0</ns3:atemp>
          </ns3:TrackPointExtension>
        </extensions>
      </trkpt>
      <trkpt lat="42.5189973972737789154052734375" lon="19.86602154560387134552001953125">
        <ele>1274</ele>
        <time>2026-06-17T12:50:29.000Z</time>
        <extensions>
          <ns3:TrackPointExtension>
            <ns3:atemp>20.0</ns3:atemp>
          </ns3:TrackPointExtension>
        </extensions>
      </trkpt>
      <trkpt lat="42.5190143287181854248046875" lon="19.8659347929060459136962890625">
        <ele>1272.800048828125</ele>
        <time>2026-06-17T12:50:30.000Z</time>
        <extensions>
          <ns3:TrackPointExtension>
            <ns3:atemp>20.0</ns3:atemp>
          </ns3:TrackPointExtension>
        </extensions>
      </trkpt>
      <trkpt lat="42.51903302036225795745849609375" lon="19.86584007740020751953125">
        <ele>1271.5999755859375</ele>
        <time>2026-06-17T12:50:31.000Z</time>
        <extensions>
          <ns3:TrackPointExtension>
            <ns3:atemp>20.0</ns3:atemp>
          </ns3:TrackPointExtension>
        </extensions>
      </trkpt>
      <trkpt lat="42.5190537236630916595458984375" lon="19.8657456971704959869384765625">
        <ele>1270.199951171875</ele>
        <time>2026-06-17T12:50:32.000Z</time>
        <extensions>
          <ns3:TrackPointExtension>
            <ns3:atemp>20.0</ns3:atemp>
          </ns3:TrackPointExtension>
        </extensions>
      </trkpt>
      <trkpt lat="42.51908951438963413238525390625" lon="19.8656591959297657012939453125">
        <ele>1268.800048828125</ele>
        <time>2026-06-17T12:50:33.000Z</time>
        <extensions>
          <ns3:TrackPointExtension>
            <ns3:atemp>20.0</ns3:atemp>
          </ns3:TrackPointExtension>
        </extensions>
      </trkpt>
      <trkpt lat="42.5191403925418853759765625" lon="19.8655804060399532318115234375">
        <ele>1267.199951171875</ele>
        <time>2026-06-17T12:50:34.000Z</time>
        <extensions>
          <ns3:TrackPointExtension>
            <ns3:atemp>20.0</ns3:atemp>
          </ns3:TrackPointExtension>
        </extensions>
      </trkpt>
      <trkpt lat="42.51920166425406932830810546875" lon="19.8655163682997226715087890625">
        <ele>1265.5999755859375</ele>
        <time>2026-06-17T12:50:35.000Z</time>
        <extensions>
          <ns3:TrackPointExtension>
            <ns3:atemp>20.0</ns3:atemp>
          </ns3:TrackPointExtension>
        </extensions>
      </trkpt>
      <trkpt lat="42.519262768328189849853515625" lon="19.86545073799788951873779296875">
        <ele>1263.800048828125</ele>
        <time>2026-06-17T12:50:36.000Z</time>
        <extensions>
          <ns3:TrackPointExtension>
            <ns3:atemp>20.0</ns3:atemp>
          </ns3:TrackPointExtension>
        </extensions>
      </trkpt>
      <trkpt lat="42.5193095393478870391845703125" lon="19.86536775715649127960205078125">
        <ele>1262.4000244140625</ele>
        <time>2026-06-17T12:50:37.000Z</time>
        <extensions>
          <ns3:TrackPointExtension>
            <ns3:atemp>20.0</ns3:atemp>
          </ns3:TrackPointExtension>
        </extensions>
      </trkpt>
      <trkpt lat="42.5193400494754314422607421875" lon="19.86527387984097003936767578125">
        <ele>1261.199951171875</ele>
        <time>2026-06-17T12:50:38.000Z</time>
        <extensions>
          <ns3:TrackPointExtension>
            <ns3:atemp>20.0</ns3:atemp>
          </ns3:TrackPointExtension>
        </extensions>
      </trkpt>
      <trkpt lat="42.5193501077592372894287109375" lon="19.86517782323062419891357421875">
        <ele>1260.199951171875</ele>
        <time>2026-06-17T12:50:39.000Z</time>
        <extensions>
          <ns3:TrackPointExtension>
            <ns3:atemp>20.0</ns3:atemp>
          </ns3:TrackPointExtension>
        </extensions>
      </trkpt>
      <trkpt lat="42.519357316195964813232421875" lon="19.86510171554982662200927734375">
        <ele>1259.5999755859375</ele>
        <time>2026-06-17T12:50:40.000Z</time>
        <extensions>
          <ns3:TrackPointExtension>
            <ns3:atemp>20.0</ns3:atemp>
          </ns3:TrackPointExtension>
        </extensions>
      </trkpt>
      <trkpt lat="42.519378773868083953857421875" lon="19.86504203639924526214599609375">
        <ele>1259.199951171875</ele>
        <time>2026-06-17T12:50:41.000Z</time>
        <extensions>
          <ns3:TrackPointExtension>
            <ns3:atemp>20.0</ns3:atemp>
          </ns3:TrackPointExtension>
        </extensions>
      </trkpt>
      <trkpt lat="42.5193952023983001708984375" lon="19.86497866921126842498779296875">
        <ele>1258.800048828125</ele>
        <time>2026-06-17T12:50:42.000Z</time>
        <extensions>
          <ns3:TrackPointExtension>
            <ns3:atemp>20.0</ns3:atemp>
          </ns3:TrackPointExtension>
        </extensions>
      </trkpt>
      <trkpt lat="42.51941272057592868804931640625" lon="19.86491999588906764984130859375">
        <ele>1258.800048828125</ele>
        <time>2026-06-17T12:50:43.000Z</time>
        <extensions>
          <ns3:TrackPointExtension>
            <ns3:atemp>20.0</ns3:atemp>
          </ns3:TrackPointExtension>
        </extensions>
      </trkpt>
      <trkpt lat="42.5194327533245086669921875" lon="19.86486534588038921356201171875">
        <ele>1258.800048828125</ele>
        <time>2026-06-17T12:50:44.000Z</time>
        <extensions>
          <ns3:TrackPointExtension>
            <ns3:atemp>20.0</ns3:atemp>
          </ns3:TrackPointExtension>
        </extensions>
      </trkpt>
      <trkpt lat="42.51945680938661098480224609375" lon="19.8648129589855670928955078125">
        <ele>1258.800048828125</ele>
        <time>2026-06-17T12:50:45.000Z</time>
        <extensions>
          <ns3:TrackPointExtension>
            <ns3:atemp>20.0</ns3:atemp>
          </ns3:TrackPointExtension>
        </extensions>
      </trkpt>
      <trkpt lat="42.51947793178260326385498046875" lon="19.86475956626236438751220703125">
        <ele>1258.800048828125</ele>
        <time>2026-06-17T12:50:46.000Z</time>
        <extensions>
          <ns3:TrackPointExtension>
            <ns3:atemp>20.0</ns3:atemp>
          </ns3:TrackPointExtension>
        </extensions>
      </trkpt>
      <trkpt lat="42.519495785236358642578125" lon="19.86470944248139858245849609375">
        <ele>1258.800048828125</ele>
        <time>2026-06-17T12:50:47.000Z</time>
        <extensions>
          <ns3:TrackPointExtension>
            <ns3:atemp>20.0</ns3:atemp>
          </ns3:TrackPointExtension>
        </extensions>
      </trkpt>
      <trkpt lat="42.51951497979462146759033203125" lon="19.86466552130877971649169921875">
        <ele>1258.800048828125</ele>
        <time>2026-06-17T12:50:48.000Z</time>
        <extensions>
          <ns3:TrackPointExtension>
            <ns3:atemp>20.0</ns3:atemp>
          </ns3:TrackPointExtension>
        </extensions>
      </trkpt>
      <trkpt lat="42.5195321626961231231689453125" lon="19.8646205104887485504150390625">
        <ele>1258.5999755859375</ele>
        <time>2026-06-17T12:50:49.000Z</time>
        <extensions>
          <ns3:TrackPointExtension>
            <ns3:atemp>20.0</ns3:atemp>
          </ns3:TrackPointExtension>
        </extensions>
      </trkpt>
      <trkpt lat="42.51954548992216587066650390625" lon="19.86457549966871738433837890625">
        <ele>1258.5999755859375</ele>
        <time>2026-06-17T12:50:50.000Z</time>
        <extensions>
          <ns3:TrackPointExtension>
            <ns3:atemp>20.0</ns3:atemp>
          </ns3:TrackPointExtension>
        </extensions>
      </trkpt>
      <trkpt lat="42.51956753432750701904296875" lon="19.86454012803733348846435546875">
        <ele>1258.5999755859375</ele>
        <time>2026-06-17T12:50:51.000Z</time>
        <extensions>
          <ns3:TrackPointExtension>
            <ns3:atemp>20.0</ns3:atemp>
          </ns3:TrackPointExtension>
        </extensions>
      </trkpt>
      <trkpt lat="42.51958806999027729034423828125" lon="19.86450995318591594696044921875">
        <ele>1258.5999755859375</ele>
        <time>2026-06-17T12:50:52.000Z</time>
        <extensions>
          <ns3:TrackPointExtension>
            <ns3:atemp>20.0</ns3:atemp>
          </ns3:TrackPointExtension>
        </extensions>
      </trkpt>
      <trkpt lat="42.51960500143468379974365234375" lon="19.86447156406939029693603515625">
        <ele>1258.4000244140625</ele>
        <time>2026-06-17T12:50:53.000Z</time>
        <extensions>
          <ns3:TrackPointExtension>
            <ns3:atemp>20.0</ns3:atemp>
          </ns3:TrackPointExtension>
        </extensions>
      </trkpt>
      <trkpt lat="42.51961891539394855499267578125" lon="19.86443929374217987060546875">
        <ele>1258.4000244140625</ele>
        <time>2026-06-17T12:50:54.000Z</time>
        <extensions>
          <ns3:TrackPointExtension>
            <ns3:atemp>20.0</ns3:atemp>
          </ns3:TrackPointExtension>
        </extensions>
      </trkpt>
      <trkpt lat="42.51963249407708644866943359375" lon="19.8644156567752361297607421875">
        <ele>1258.199951171875</ele>
        <time>2026-06-17T12:50:55.000Z</time>
        <extensions>
          <ns3:TrackPointExtension>
            <ns3:atemp>20.0</ns3:atemp>
          </ns3:TrackPointExtension>
        </extensions>
      </trkpt>
      <trkpt lat="42.51964791677892208099365234375" lon="19.86439227126538753509521484375">
        <ele>1258.199951171875</ele>
        <time>2026-06-17T12:50:56.000Z</time>
        <extensions>
          <ns3:TrackPointExtension>
            <ns3:atemp>20.0</ns3:atemp>
          </ns3:TrackPointExtension>
        </extensions>
      </trkpt>
      <trkpt lat="42.5196619145572185516357421875" lon="19.86436544917523860931396484375">
        <ele>1258.199951171875</ele>
        <time>2026-06-17T12:50:57.000Z</time>
        <extensions>
          <ns3:TrackPointExtension>
            <ns3:atemp>20.0</ns3:atemp>
          </ns3:TrackPointExtension>
        </extensions>
      </trkpt>
      <trkpt lat="42.51967423595488071441650390625" lon="19.864337034523487091064453125">
        <ele>1258.199951171875</ele>
        <time>2026-06-17T12:50:58.000Z</time>
        <extensions>
          <ns3:TrackPointExtension>
            <ns3:atemp>20.0</ns3:atemp>
          </ns3:TrackPointExtension>
        </extensions>
      </trkpt>
      <trkpt lat="42.51968798227608203887939453125" lon="19.864314235746860504150390625">
        <ele>1258.199951171875</ele>
        <time>2026-06-17T12:50:59.000Z</time>
        <extensions>
          <ns3:TrackPointExtension>
            <ns3:atemp>20.0</ns3:atemp>
          </ns3:TrackPointExtension>
        </extensions>
      </trkpt>
      <trkpt lat="42.5197001360356807708740234375" lon="19.8642902635037899017333984375">
        <ele>1258.199951171875</ele>
        <time>2026-06-17T12:51:00.000Z</time>
        <extensions>
          <ns3:TrackPointExtension>
            <ns3:atemp>20.0</ns3:atemp>
          </ns3:TrackPointExtension>
        </extensions>
      </trkpt>
      <trkpt lat="42.519712038338184356689453125" lon="19.86426536925137042999267578125">
        <ele>1258.199951171875</ele>
        <time>2026-06-17T12:51:01.000Z</time>
        <extensions>
          <ns3:TrackPointExtension>
            <ns3:atemp>20.0</ns3:atemp>
          </ns3:TrackPointExtension>
        </extensions>
      </trkpt>
      <trkpt lat="42.5197242759168148040771484375" lon="19.86423737369477748870849609375">
        <ele>1258.199951171875</ele>
        <time>2026-06-17T12:51:02.000Z</time>
        <extensions>
          <ns3:TrackPointExtension>
            <ns3:atemp>20.0</ns3:atemp>
          </ns3:TrackPointExtension>
        </extensions>
      </trkpt>
      <trkpt lat="42.519738860428333282470703125" lon="19.8642079532146453857421875">
        <ele>1258.199951171875</ele>
        <time>2026-06-17T12:51:03.000Z</time>
        <extensions>
          <ns3:TrackPointExtension>
            <ns3:atemp>20.0</ns3:atemp>
          </ns3:TrackPointExtension>
        </extensions>
      </trkpt>
      <trkpt lat="42.5197521038353443145751953125" lon="19.8641735874116420745849609375">
        <ele>1258</ele>
        <time>2026-06-17T12:51:04.000Z</time>
        <extensions>
          <ns3:TrackPointExtension>
            <ns3:atemp>20.0</ns3:atemp>
          </ns3:TrackPointExtension>
        </extensions>
      </trkpt>
      <trkpt lat="42.51976526342332363128662109375" lon="19.8641367070376873016357421875">
        <ele>1258</ele>
        <time>2026-06-17T12:51:05.000Z</time>
        <extensions>
          <ns3:TrackPointExtension>
            <ns3:atemp>20.0</ns3:atemp>
          </ns3:TrackPointExtension>
        </extensions>
      </trkpt>
      <trkpt lat="42.51977800391614437103271484375" lon="19.86410108394920825958251953125">
        <ele>1257.800048828125</ele>
        <time>2026-06-17T12:51:06.000Z</time>
        <extensions>
          <ns3:TrackPointExtension>
            <ns3:atemp>20.0</ns3:atemp>
          </ns3:TrackPointExtension>
        </extensions>
      </trkpt>
      <trkpt lat="42.5197883136570453643798828125" lon="19.86406520940363407135009765625">
        <ele>1257.800048828125</ele>
        <time>2026-06-17T12:51:07.000Z</time>
        <extensions>
          <ns3:TrackPointExtension>
            <ns3:atemp>20.0</ns3:atemp>
          </ns3:TrackPointExtension>
        </extensions>
      </trkpt>
      <trkpt lat="42.51979912631213665008544921875" lon="19.86403428018093109130859375">
        <ele>1257.800048828125</ele>
        <time>2026-06-17T12:51:08.000Z</time>
        <extensions>
          <ns3:TrackPointExtension>
            <ns3:atemp>20.0</ns3:atemp>
          </ns3:TrackPointExtension>
        </extensions>
      </trkpt>
      <trkpt lat="42.519813291728496551513671875" lon="19.864004440605640411376953125">
        <ele>1257.800048828125</ele>
        <time>2026-06-17T12:51:09.000Z</time>
        <extensions>
          <ns3:TrackPointExtension>
            <ns3:atemp>20.0</ns3:atemp>
          </ns3:TrackPointExtension>
        </extensions>
      </trkpt>
      <trkpt lat="42.5198258645832538604736328125" lon="19.863968901336193084716796875">
        <ele>1257.800048828125</ele>
        <time>2026-06-17T12:51:10.000Z</time>
        <extensions>
          <ns3:TrackPointExtension>
            <ns3:atemp>20.0</ns3:atemp>
          </ns3:TrackPointExtension>
        </extensions>
      </trkpt>
      <trkpt lat="42.51983843743801116943359375" lon="19.863936044275760650634765625">
        <ele>1257.800048828125</ele>
        <time>2026-06-17T12:51:11.000Z</time>
        <extensions>
          <ns3:TrackPointExtension>
            <ns3:atemp>20.0</ns3:atemp>
          </ns3:TrackPointExtension>
        </extensions>
      </trkpt>
      <trkpt lat="42.51985277049243450164794921875" lon="19.86389891244471073150634765625">
        <ele>1257.5999755859375</ele>
        <time>2026-06-17T12:51:12.000Z</time>
        <extensions>
          <ns3:TrackPointExtension>
            <ns3:atemp>20.0</ns3:atemp>
          </ns3:TrackPointExtension>
        </extensions>
      </trkpt>
      <trkpt lat="42.51986525952816009521484375" lon="19.86386605538427829742431640625">
        <ele>1257.5999755859375</ele>
        <time>2026-06-17T12:51:13.000Z</time>
        <extensions>
          <ns3:TrackPointExtension>
            <ns3:atemp>20.0</ns3:atemp>
          </ns3:TrackPointExtension>
        </extensions>
      </trkpt>
      <trkpt lat="42.5198774971067905426025390625" lon="19.86382934264838695526123046875">
        <ele>1257.5999755859375</ele>
        <time>2026-06-17T12:51:14.000Z</time>
        <extensions>
          <ns3:TrackPointExtension>
            <ns3:atemp>20.0</ns3:atemp>
          </ns3:TrackPointExtension>
        </extensions>
      </trkpt>
      <trkpt lat="42.5198912434279918670654296875" lon="19.8637866787612438201904296875">
        <ele>1257.4000244140625</ele>
        <time>2026-06-17T12:51:15.000Z</time>
        <extensions>
          <ns3:TrackPointExtension>
            <ns3:atemp>20.0</ns3:atemp>
          </ns3:TrackPointExtension>
        </extensions>
      </trkpt>
      <trkpt lat="42.5199039839208126068115234375" lon="19.86373848281800746917724609375">
        <ele>1257.4000244140625</ele>
        <time>2026-06-17T12:51:16.000Z</time>
        <extensions>
          <ns3:TrackPointExtension>
            <ns3:atemp>20.0</ns3:atemp>
          </ns3:TrackPointExtension>
        </extensions>
      </trkpt>
      <trkpt lat="42.51991446129977703094482421875" lon="19.86369171179831027984619140625">
        <ele>1257.199951171875</ele>
        <time>2026-06-17T12:51:17.000Z</time>
        <extensions>
          <ns3:TrackPointExtension>
            <ns3:atemp>20.0</ns3:atemp>
          </ns3:TrackPointExtension>
        </extensions>
      </trkpt>
      <trkpt lat="42.51992762088775634765625" lon="19.863643012940883636474609375">
        <ele>1257</ele>
        <time>2026-06-17T12:51:18.000Z</time>
        <extensions>
          <ns3:TrackPointExtension>
            <ns3:atemp>20.0</ns3:atemp>
          </ns3:TrackPointExtension>
        </extensions>
      </trkpt>
      <trkpt lat="42.51994061283767223358154296875" lon="19.86359096132218837738037109375">
        <ele>1256.5999755859375</ele>
        <time>2026-06-17T12:51:19.000Z</time>
        <extensions>
          <ns3:TrackPointExtension>
            <ns3:atemp>20.0</ns3:atemp>
          </ns3:TrackPointExtension>
        </extensions>
      </trkpt>
      <trkpt lat="42.5199542753398418426513671875" lon="19.8635368980467319488525390625">
        <ele>1256.4000244140625</ele>
        <time>2026-06-17T12:51:20.000Z</time>
        <extensions>
          <ns3:TrackPointExtension>
            <ns3:atemp>20.0</ns3:atemp>
          </ns3:TrackPointExtension>
        </extensions>
      </trkpt>
      <trkpt lat="42.5199707038700580596923828125" lon="19.86348442733287811279296875">
        <ele>1256.199951171875</ele>
        <time>2026-06-17T12:51:21.000Z</time>
        <extensions>
          <ns3:TrackPointExtension>
            <ns3:atemp>20.0</ns3:atemp>
          </ns3:TrackPointExtension>
        </extensions>
      </trkpt>
      <trkpt lat="42.519989646971225738525390625" lon="19.86343002878129482269287109375">
        <ele>1256.199951171875</ele>
        <time>2026-06-17T12:51:22.000Z</time>
        <extensions>
          <ns3:TrackPointExtension>
            <ns3:atemp>20.0</ns3:atemp>
          </ns3:TrackPointExtension>
        </extensions>
      </trkpt>
      <trkpt lat="42.52001018263399600982666015625" lon="19.86337521113455295562744140625">
        <ele>1256</ele>
        <time>2026-06-17T12:51:23.000Z</time>
        <extensions>
          <ns3:TrackPointExtension>
            <ns3:atemp>20.0</ns3:atemp>
          </ns3:TrackPointExtension>
        </extensions>
      </trkpt>
      <trkpt lat="42.52002443186938762664794921875" lon="19.8633159510791301727294921875">
        <ele>1255.800048828125</ele>
        <time>2026-06-17T12:51:24.000Z</time>
        <extensions>
          <ns3:TrackPointExtension>
            <ns3:atemp>20.0</ns3:atemp>
          </ns3:TrackPointExtension>
        </extensions>
      </trkpt>
      <trkpt lat="42.520035244524478912353515625" lon="19.8632656596601009368896484375">
        <ele>1255.5999755859375</ele>
        <time>2026-06-17T12:51:25.000Z</time>
        <extensions>
          <ns3:TrackPointExtension>
            <ns3:atemp>20.0</ns3:atemp>
          </ns3:TrackPointExtension>
        </extensions>
      </trkpt>
      <trkpt lat="42.52005225978791713714599609375" lon="19.86321729607880115509033203125">
        <ele>1255.5999755859375</ele>
        <time>2026-06-17T12:51:26.000Z</time>
        <extensions>
          <ns3:TrackPointExtension>
            <ns3:atemp>20.0</ns3:atemp>
          </ns3:TrackPointExtension>
        </extensions>
      </trkpt>
      <trkpt lat="42.5200669281184673309326171875" lon="19.86316918395459651947021484375">
        <ele>1255.4000244140625</ele>
        <time>2026-06-17T12:51:27.000Z</time>
        <extensions>
          <ns3:TrackPointExtension>
            <ns3:atemp>20.0</ns3:atemp>
          </ns3:TrackPointExtension>
        </extensions>
      </trkpt>
      <trkpt lat="42.5200850330293178558349609375" lon="19.8631228320300579071044921875">
        <ele>1255.199951171875</ele>
        <time>2026-06-17T12:51:28.000Z</time>
        <extensions>
          <ns3:TrackPointExtension>
            <ns3:atemp>20.0</ns3:atemp>
          </ns3:TrackPointExtension>
        </extensions>
      </trkpt>
      <trkpt lat="42.520098276436328887939453125" lon="19.863083101809024810791015625">
        <ele>1255.199951171875</ele>
        <time>2026-06-17T12:51:29.000Z</time>
        <extensions>
          <ns3:TrackPointExtension>
            <ns3:atemp>20.0</ns3:atemp>
          </ns3:TrackPointExtension>
        </extensions>
      </trkpt>
      <trkpt lat="42.5201142020523548126220703125" lon="19.86304563470184803009033203125">
        <ele>1255.199951171875</ele>
        <time>2026-06-17T12:51:30.000Z</time>
        <extensions>
          <ns3:TrackPointExtension>
            <ns3:atemp>20.0</ns3:atemp>
          </ns3:TrackPointExtension>
        </extensions>
      </trkpt>
      <trkpt lat="42.52013004384934902191162109375" lon="19.86301043070852756500244140625">
        <ele>1255.199951171875</ele>
        <time>2026-06-17T12:51:31.000Z</time>
        <extensions>
          <ns3:TrackPointExtension>
            <ns3:atemp>20.0</ns3:atemp>
          </ns3:TrackPointExtension>
        </extensions>
      </trkpt>
      <trkpt lat="42.5201463885605335235595703125" lon="19.86297346651554107666015625">
        <ele>1255.199951171875</ele>
        <time>2026-06-17T12:51:32.000Z</time>
        <extensions>
          <ns3:TrackPointExtension>
            <ns3:atemp>20.0</ns3:atemp>
          </ns3:TrackPointExtension>
        </extensions>
      </trkpt>
      <trkpt lat="42.5201611407101154327392578125" lon="19.86293482594192028045654296875">
        <ele>1255.199951171875</ele>
        <time>2026-06-17T12:51:33.000Z</time>
        <extensions>
          <ns3:TrackPointExtension>
            <ns3:atemp>20.0</ns3:atemp>
          </ns3:TrackPointExtension>
        </extensions>
      </trkpt>
      <trkpt lat="42.52017379738390445709228515625" lon="19.8628998734056949615478515625">
        <ele>1255.4000244140625</ele>
        <time>2026-06-17T12:51:34.000Z</time>
        <extensions>
          <ns3:TrackPointExtension>
            <ns3:atemp>20.0</ns3:atemp>
          </ns3:TrackPointExtension>
        </extensions>
      </trkpt>
      <trkpt lat="42.52018712460994720458984375" lon="19.86286810599267482757568359375">
        <ele>1255.4000244140625</ele>
        <time>2026-06-17T12:51:35.000Z</time>
        <extensions>
          <ns3:TrackPointExtension>
            <ns3:atemp>20.0</ns3:atemp>
          </ns3:TrackPointExtension>
        </extensions>
      </trkpt>
      <trkpt lat="42.52019726671278476715087890625" lon="19.86283793114125728607177734375">
        <ele>1255.4000244140625</ele>
        <time>2026-06-17T12:51:36.000Z</time>
        <extensions>
          <ns3:TrackPointExtension>
            <ns3:atemp>20.0</ns3:atemp>
          </ns3:TrackPointExtension>
        </extensions>
      </trkpt>
      <trkpt lat="42.52020858228206634521484375" lon="19.86281546764075756072998046875">
        <ele>1255.5999755859375</ele>
        <time>2026-06-17T12:51:37.000Z</time>
        <extensions>
          <ns3:TrackPointExtension>
            <ns3:atemp>20.0</ns3:atemp>
          </ns3:TrackPointExtension>
        </extensions>
      </trkpt>
      <trkpt lat="42.52021788619458675384521484375" lon="19.86278864555060863494873046875">
        <ele>1255.800048828125</ele>
        <time>2026-06-17T12:51:38.000Z</time>
        <extensions>
          <ns3:TrackPointExtension>
            <ns3:atemp>20.0</ns3:atemp>
          </ns3:TrackPointExtension>
        </extensions>
      </trkpt>
      <trkpt lat="42.52023003995418548583984375" lon="19.86276023089885711669921875">
        <ele>1256</ele>
        <time>2026-06-17T12:51:39.000Z</time>
        <extensions>
          <ns3:TrackPointExtension>
            <ns3:atemp>20.0</ns3:atemp>
          </ns3:TrackPointExtension>
        </extensions>
      </trkpt>
      <trkpt lat="42.5202406011521816253662109375" lon="19.8627325706183910369873046875">
        <ele>1256.199951171875</ele>
        <time>2026-06-17T12:51:40.000Z</time>
        <extensions>
          <ns3:TrackPointExtension>
            <ns3:atemp>20.0</ns3:atemp>
          </ns3:TrackPointExtension>
        </extensions>
      </trkpt>
      <trkpt lat="42.52025292254984378814697265625" lon="19.86270650289952754974365234375">
        <ele>1256.4000244140625</ele>
        <time>2026-06-17T12:51:41.000Z</time>
        <extensions>
          <ns3:TrackPointExtension>
            <ns3:atemp>20.0</ns3:atemp>
          </ns3:TrackPointExtension>
        </extensions>
      </trkpt>
      <trkpt lat="42.52026750706136226654052734375" lon="19.8626789264380931854248046875">
        <ele>1256.4000244140625</ele>
        <time>2026-06-17T12:51:42.000Z</time>
        <extensions>
          <ns3:TrackPointExtension>
            <ns3:atemp>20.0</ns3:atemp>
          </ns3:TrackPointExtension>
        </extensions>
      </trkpt>
      <trkpt lat="42.52027924172580242156982421875" lon="19.86264883540570735931396484375">
        <ele>1256.5999755859375</ele>
        <time>2026-06-17T12:51:43.000Z</time>
        <extensions>
          <ns3:TrackPointExtension>
            <ns3:atemp>20.0</ns3:atemp>
          </ns3:TrackPointExtension>
        </extensions>
      </trkpt>
      <trkpt lat="42.5202898867428302764892578125" lon="19.86261899583041667938232421875">
        <ele>1256.800048828125</ele>
        <time>2026-06-17T12:51:44.000Z</time>
        <extensions>
          <ns3:TrackPointExtension>
            <ns3:atemp>20.0</ns3:atemp>
          </ns3:TrackPointExtension>
        </extensions>
      </trkpt>
      <trkpt lat="42.52030220814049243927001953125" lon="19.86259049735963344573974609375">
        <ele>1257</ele>
        <time>2026-06-17T12:51:45.000Z</time>
        <extensions>
          <ns3:TrackPointExtension>
            <ns3:atemp>20.0</ns3:atemp>
          </ns3:TrackPointExtension>
        </extensions>
      </trkpt>
      <trkpt lat="42.52031394280493259429931640625" lon="19.86256484873592853546142578125">
        <ele>1257.199951171875</ele>
        <time>2026-06-17T12:51:46.000Z</time>
        <extensions>
          <ns3:TrackPointExtension>
            <ns3:atemp>20.0</ns3:atemp>
          </ns3:TrackPointExtension>
        </extensions>
      </trkpt>
      <trkpt lat="42.52032458782196044921875" lon="19.86254297196865081787109375">
        <ele>1257.4000244140625</ele>
        <time>2026-06-17T12:51:47.000Z</time>
        <extensions>
          <ns3:TrackPointExtension>
            <ns3:atemp>20.0</ns3:atemp>
          </ns3:TrackPointExtension>
        </extensions>
      </trkpt>
      <trkpt lat="42.5203348137438297271728515625" lon="19.862523190677165985107421875">
        <ele>1257.800048828125</ele>
        <time>2026-06-17T12:51:48.000Z</time>
        <extensions>
          <ns3:TrackPointExtension>
            <ns3:atemp>20.0</ns3:atemp>
          </ns3:TrackPointExtension>
        </extensions>
      </trkpt>
      <trkpt lat="42.5203472189605236053466796875" lon="19.8625020682811737060546875">
        <ele>1258</ele>
        <time>2026-06-17T12:51:49.000Z</time>
        <extensions>
          <ns3:TrackPointExtension>
            <ns3:atemp>20.0</ns3:atemp>
          </ns3:TrackPointExtension>
        </extensions>
      </trkpt>
      <trkpt lat="42.52036004327237606048583984375" lon="19.86248102970421314239501953125">
        <ele>1258.199951171875</ele>
        <time>2026-06-17T12:51:50.000Z</time>
        <extensions>
          <ns3:TrackPointExtension>
            <ns3:atemp>20.0</ns3:atemp>
          </ns3:TrackPointExtension>
        </extensions>
      </trkpt>
      <trkpt lat="42.52036859281361103057861328125" lon="19.862456135451793670654296875">
        <ele>1258.4000244140625</ele>
        <time>2026-06-17T12:51:51.000Z</time>
        <extensions>
          <ns3:TrackPointExtension>
            <ns3:atemp>20.0</ns3:atemp>
          </ns3:TrackPointExtension>
        </extensions>
      </trkpt>
      <trkpt lat="42.5203770585358142852783203125" lon="19.862430654466152191162109375">
        <ele>1258.5999755859375</ele>
        <time>2026-06-17T12:51:52.000Z</time>
        <extensions>
          <ns3:TrackPointExtension>
            <ns3:atemp>20.0</ns3:atemp>
          </ns3:TrackPointExtension>
        </extensions>
      </trkpt>
      <trkpt lat="42.52038485370576381683349609375" lon="19.8624110408127307891845703125">
        <ele>1259</ele>
        <time>2026-06-17T12:51:53.000Z</time>
        <extensions>
          <ns3:TrackPointExtension>
            <ns3:atemp>20.0</ns3:atemp>
          </ns3:TrackPointExtension>
        </extensions>
      </trkpt>
      <trkpt lat="42.52039340324699878692626953125" lon="19.86239452846348285675048828125">
        <ele>1259.199951171875</ele>
        <time>2026-06-17T12:51:54.000Z</time>
        <extensions>
          <ns3:TrackPointExtension>
            <ns3:atemp>20.0</ns3:atemp>
          </ns3:TrackPointExtension>
        </extensions>
      </trkpt>
      <trkpt lat="42.5204037129878997802734375" lon="19.86238229088485240936279296875">
        <ele>1259.199951171875</ele>
        <time>2026-06-17T12:51:55.000Z</time>
        <extensions>
          <ns3:TrackPointExtension>
            <ns3:atemp>20.0</ns3:atemp>
          </ns3:TrackPointExtension>
        </extensions>
      </trkpt>
      <trkpt lat="42.5204082392156124114990234375" lon="19.86236670054495334625244140625">
        <ele>1259.4000244140625</ele>
        <time>2026-06-17T12:51:56.000Z</time>
        <extensions>
          <ns3:TrackPointExtension>
            <ns3:atemp>20.0</ns3:atemp>
          </ns3:TrackPointExtension>
        </extensions>
      </trkpt>
      <trkpt lat="42.520410753786563873291015625" lon="19.86235144548118114471435546875">
        <ele>1259.5999755859375</ele>
        <time>2026-06-17T12:51:57.000Z</time>
        <extensions>
          <ns3:TrackPointExtension>
            <ns3:atemp>20.0</ns3:atemp>
          </ns3:TrackPointExtension>
        </extensions>
      </trkpt>
      <trkpt lat="42.52041335217654705047607421875" lon="19.862354211509227752685546875">
        <ele>1259.5999755859375</ele>
        <time>2026-06-17T12:51:58.000Z</time>
        <extensions>
          <ns3:TrackPointExtension>
            <ns3:atemp>20.0</ns3:atemp>
          </ns3:TrackPointExtension>
        </extensions>
      </trkpt>
      <trkpt lat="42.520414106547832489013671875" lon="19.86235328949987888336181640625">
        <ele>1259.5999755859375</ele>
        <time>2026-06-17T12:51:59.000Z</time>
        <extensions>
          <ns3:TrackPointExtension>
            <ns3:atemp>20.0</ns3:atemp>
          </ns3:TrackPointExtension>
        </extensions>
      </trkpt>
      <trkpt lat="42.520414106547832489013671875" lon="19.86235328949987888336181640625">
        <ele>1259.5999755859375</ele>
        <time>2026-06-17T12:52:00.000Z</time>
        <extensions>
          <ns3:TrackPointExtension>
            <ns3:atemp>20.0</ns3:atemp>
          </ns3:TrackPointExtension>
        </extensions>
      </trkpt>
      <trkpt lat="42.520414106547832489013671875" lon="19.86235328949987888336181640625">
        <ele>1259.5999755859375</ele>
        <time>2026-06-17T12:52:01.000Z</time>
        <extensions>
          <ns3:TrackPointExtension>
            <ns3:atemp>20.0</ns3:atemp>
          </ns3:TrackPointExtension>
        </extensions>
      </trkpt>
      <trkpt lat="42.520414106547832489013671875" lon="19.86235328949987888336181640625">
        <ele>1259.5999755859375</ele>
        <time>2026-06-17T12:52:02.000Z</time>
        <extensions>
          <ns3:TrackPointExtension>
            <ns3:atemp>20.0</ns3:atemp>
          </ns3:TrackPointExtension>
        </extensions>
      </trkpt>
      <trkpt lat="42.520414106547832489013671875" lon="19.86235328949987888336181640625">
        <ele>1259.5999755859375</ele>
        <time>2026-06-17T12:52:03.000Z</time>
        <extensions>
          <ns3:TrackPointExtension>
            <ns3:atemp>20.0</ns3:atemp>
          </ns3:TrackPointExtension>
        </extensions>
      </trkpt>
      <trkpt lat="42.520414106547832489013671875" lon="19.86235328949987888336181640625">
        <ele>1259.5999755859375</ele>
        <time>2026-06-17T12:52:04.000Z</time>
        <extensions>
          <ns3:TrackPointExtension>
            <ns3:atemp>20.0</ns3:atemp>
          </ns3:TrackPointExtension>
        </extensions>
      </trkpt>
      <trkpt lat="42.520414106547832489013671875" lon="19.86235328949987888336181640625">
        <ele>1259.5999755859375</ele>
        <time>2026-06-17T12:52:05.000Z</time>
        <extensions>
          <ns3:TrackPointExtension>
            <ns3:atemp>20.0</ns3:atemp>
          </ns3:TrackPointExtension>
        </extensions>
      </trkpt>
      <trkpt lat="42.520414106547832489013671875" lon="19.86235328949987888336181640625">
        <ele>1259.4000244140625</ele>
        <time>2026-06-17T12:52:06.000Z</time>
        <extensions>
          <ns3:TrackPointExtension>
            <ns3:atemp>20.0</ns3:atemp>
          </ns3:TrackPointExtension>
        </extensions>
      </trkpt>
      <trkpt lat="42.520414106547832489013671875" lon="19.86235328949987888336181640625">
        <ele>1259.4000244140625</ele>
        <time>2026-06-17T12:52:07.000Z</time>
        <extensions>
          <ns3:TrackPointExtension>
            <ns3:atemp>20.0</ns3:atemp>
          </ns3:TrackPointExtension>
        </extensions>
      </trkpt>
      <trkpt lat="42.520414106547832489013671875" lon="19.86235328949987888336181640625">
        <ele>1259.199951171875</ele>
        <time>2026-06-17T12:52:08.000Z</time>
        <extensions>
          <ns3:TrackPointExtension>
            <ns3:atemp>20.0</ns3:atemp>
          </ns3:TrackPointExtension>
        </extensions>
      </trkpt>
      <trkpt lat="42.520414106547832489013671875" lon="19.86235328949987888336181640625">
        <ele>1259.199951171875</ele>
        <time>2026-06-17T12:52:09.000Z</time>
        <extensions>
          <ns3:TrackPointExtension>
            <ns3:atemp>20.0</ns3:atemp>
          </ns3:TrackPointExtension>
        </extensions>
      </trkpt>
      <trkpt lat="42.520414106547832489013671875" lon="19.86235328949987888336181640625">
        <ele>1259.199951171875</ele>
        <time>2026-06-17T12:52:10.000Z</time>
        <extensions>
          <ns3:TrackPointExtension>
            <ns3:atemp>20.0</ns3:atemp>
          </ns3:TrackPointExtension>
        </extensions>
      </trkpt>
      <trkpt lat="42.520414106547832489013671875" lon="19.86235328949987888336181640625">
        <ele>1259.199951171875</ele>
        <time>2026-06-17T12:52:11.000Z</time>
        <extensions>
          <ns3:TrackPointExtension>
            <ns3:atemp>20.0</ns3:atemp>
          </ns3:TrackPointExtension>
        </extensions>
      </trkpt>
      <trkpt lat="42.520414106547832489013671875" lon="19.86235328949987888336181640625">
        <ele>1259.199951171875</ele>
        <time>2026-06-17T12:52:12.000Z</time>
        <extensions>
          <ns3:TrackPointExtension>
            <ns3:atemp>20.0</ns3:atemp>
          </ns3:TrackPointExtension>
        </extensions>
      </trkpt>
      <trkpt lat="42.520414106547832489013671875" lon="19.86235328949987888336181640625">
        <ele>1259.199951171875</ele>
        <time>2026-06-17T12:52:13.000Z</time>
        <extensions>
          <ns3:TrackPointExtension>
            <ns3:atemp>20.0</ns3:atemp>
          </ns3:TrackPointExtension>
        </extensions>
      </trkpt>
      <trkpt lat="42.520414106547832489013671875" lon="19.86235328949987888336181640625">
        <ele>1259</ele>
        <time>2026-06-17T12:52:14.000Z</time>
        <extensions>
          <ns3:TrackPointExtension>
            <ns3:atemp>20.0</ns3:atemp>
          </ns3:TrackPointExtension>
        </extensions>
      </trkpt>
      <trkpt lat="42.520414106547832489013671875" lon="19.86235328949987888336181640625">
        <ele>1259</ele>
        <time>2026-06-17T12:52:15.000Z</time>
        <extensions>
          <ns3:TrackPointExtension>
            <ns3:atemp>20.0</ns3:atemp>
          </ns3:TrackPointExtension>
        </extensions>
      </trkpt>
      <trkpt lat="42.520414106547832489013671875" lon="19.86235328949987888336181640625">
        <ele>1259</ele>
        <time>2026-06-17T12:52:16.000Z</time>
        <extensions>
          <ns3:TrackPointExtension>
            <ns3:atemp>20.0</ns3:atemp>
          </ns3:TrackPointExtension>
        </extensions>
      </trkpt>
      <trkpt lat="42.520414106547832489013671875" lon="19.86235328949987888336181640625">
        <ele>1259</ele>
        <time>2026-06-17T12:52:17.000Z</time>
        <extensions>
          <ns3:TrackPointExtension>
            <ns3:atemp>20.0</ns3:atemp>
          </ns3:TrackPointExtension>
        </extensions>
      </trkpt>
      <trkpt lat="42.520414106547832489013671875" lon="19.86235328949987888336181640625">
        <ele>1259</ele>
        <time>2026-06-17T12:52:18.000Z</time>
        <extensions>
          <ns3:TrackPointExtension>
            <ns3:atemp>20.0</ns3:atemp>
          </ns3:TrackPointExtension>
        </extensions>
      </trkpt>
      <trkpt lat="42.520414106547832489013671875" lon="19.86235328949987888336181640625">
        <ele>1259</ele>
        <time>2026-06-17T12:52:19.000Z</time>
        <extensions>
          <ns3:TrackPointExtension>
            <ns3:atemp>20.0</ns3:atemp>
          </ns3:TrackPointExtension>
        </extensions>
      </trkpt>
      <trkpt lat="42.520414106547832489013671875" lon="19.86235328949987888336181640625">
        <ele>1258.800048828125</ele>
        <time>2026-06-17T12:52:20.000Z</time>
        <extensions>
          <ns3:TrackPointExtension>
            <ns3:atemp>20.0</ns3:atemp>
          </ns3:TrackPointExtension>
        </extensions>
      </trkpt>
      <trkpt lat="42.520414106547832489013671875" lon="19.86235328949987888336181640625">
        <ele>1258.800048828125</ele>
        <time>2026-06-17T12:52:21.000Z</time>
        <extensions>
          <ns3:TrackPointExtension>
            <ns3:atemp>20.0</ns3:atemp>
          </ns3:TrackPointExtension>
        </extensions>
      </trkpt>
      <trkpt lat="42.520414106547832489013671875" lon="19.86235328949987888336181640625">
        <ele>1258.800048828125</ele>
        <time>2026-06-17T12:52:22.000Z</time>
        <extensions>
          <ns3:TrackPointExtension>
            <ns3:atemp>20.0</ns3:atemp>
          </ns3:TrackPointExtension>
        </extensions>
      </trkpt>
      <trkpt lat="42.520414106547832489013671875" lon="19.86235328949987888336181640625">
        <ele>1258.800048828125</ele>
        <time>2026-06-17T12:52:23.000Z</time>
        <extensions>
          <ns3:TrackPointExtension>
            <ns3:atemp>20.0</ns3:atemp>
          </ns3:TrackPointExtension>
        </extensions>
      </trkpt>
      <trkpt lat="42.520414106547832489013671875" lon="19.86235328949987888336181640625">
        <ele>1258.5999755859375</ele>
        <time>2026-06-17T12:52:24.000Z</time>
        <extensions>
          <ns3:TrackPointExtension>
            <ns3:atemp>20.0</ns3:atemp>
          </ns3:TrackPointExtension>
        </extensions>
      </trkpt>
      <trkpt lat="42.520414106547832489013671875" lon="19.86235328949987888336181640625">
        <ele>1258.5999755859375</ele>
        <time>2026-06-17T12:52:25.000Z</time>
        <extensions>
          <ns3:TrackPointExtension>
            <ns3:atemp>20.0</ns3:atemp>
          </ns3:TrackPointExtension>
        </extensions>
      </trkpt>
      <trkpt lat="42.520414106547832489013671875" lon="19.86235328949987888336181640625">
        <ele>1258.5999755859375</ele>
        <time>2026-06-17T12:52:26.000Z</time>
        <extensions>
          <ns3:TrackPointExtension>
            <ns3:atemp>20.0</ns3:atemp>
          </ns3:TrackPointExtension>
        </extensions>
      </trkpt>
      <trkpt lat="42.520414106547832489013671875" lon="19.86235328949987888336181640625">
        <ele>1258.4000244140625</ele>
        <time>2026-06-17T12:52:27.000Z</time>
        <extensions>
          <ns3:TrackPointExtension>
            <ns3:atemp>20.0</ns3:atemp>
          </ns3:TrackPointExtension>
        </extensions>
      </trkpt>
      <trkpt lat="42.520414106547832489013671875" lon="19.86235328949987888336181640625">
        <ele>1258.4000244140625</ele>
        <time>2026-06-17T12:52:28.000Z</time>
        <extensions>
          <ns3:TrackPointExtension>
            <ns3:atemp>20.0</ns3:atemp>
          </ns3:TrackPointExtension>
        </extensions>
      </trkpt>
      <trkpt lat="42.520414106547832489013671875" lon="19.86235328949987888336181640625">
        <ele>1258.4000244140625</ele>
        <time>2026-06-17T12:52:29.000Z</time>
        <extensions>
          <ns3:TrackPointExtension>
            <ns3:atemp>20.0</ns3:atemp>
          </ns3:TrackPointExtension>
        </extensions>
      </trkpt>
      <trkpt lat="42.520414106547832489013671875" lon="19.86235328949987888336181640625">
        <ele>1258.4000244140625</ele>
        <time>2026-06-17T12:52:30.000Z</time>
        <extensions>
          <ns3:TrackPointExtension>
            <ns3:atemp>20.0</ns3:atemp>
          </ns3:TrackPointExtension>
        </extensions>
      </trkpt>
      <trkpt lat="42.520414106547832489013671875" lon="19.86235328949987888336181640625">
        <ele>1258.4000244140625</ele>
        <time>2026-06-17T12:52:31.000Z</time>
        <extensions>
          <ns3:TrackPointExtension>
            <ns3:atemp>20.0</ns3:atemp>
          </ns3:TrackPointExtension>
        </extensions>
      </trkpt>
      <trkpt lat="42.520414106547832489013671875" lon="19.86235328949987888336181640625">
        <ele>1258.4000244140625</ele>
        <time>2026-06-17T12:52:32.000Z</time>
        <extensions>
          <ns3:TrackPointExtension>
            <ns3:atemp>20.0</ns3:atemp>
          </ns3:TrackPointExtension>
        </extensions>
      </trkpt>
      <trkpt lat="42.520414106547832489013671875" lon="19.86235328949987888336181640625">
        <ele>1258.4000244140625</ele>
        <time>2026-06-17T12:52:33.000Z</time>
        <extensions>
          <ns3:TrackPointExtension>
            <ns3:atemp>20.0</ns3:atemp>
          </ns3:TrackPointExtension>
        </extensions>
      </trkpt>
      <trkpt lat="42.520414106547832489013671875" lon="19.86235328949987888336181640625">
        <ele>1258.4000244140625</ele>
        <time>2026-06-17T12:52:34.000Z</time>
        <extensions>
          <ns3:TrackPointExtension>
            <ns3:atemp>20.0</ns3:atemp>
          </ns3:TrackPointExtension>
        </extensions>
      </trkpt>
      <trkpt lat="42.520414106547832489013671875" lon="19.86235328949987888336181640625">
        <ele>1258.199951171875</ele>
        <time>2026-06-17T12:52:35.000Z</time>
        <extensions>
          <ns3:TrackPointExtension>
            <ns3:atemp>20.0</ns3:atemp>
          </ns3:TrackPointExtension>
        </extensions>
      </trkpt>
      <trkpt lat="42.520414106547832489013671875" lon="19.86235328949987888336181640625">
        <ele>1258.199951171875</ele>
        <time>2026-06-17T12:52:36.000Z</time>
        <extensions>
          <ns3:TrackPointExtension>
            <ns3:atemp>20.0</ns3:atemp>
          </ns3:TrackPointExtension>
        </extensions>
      </trkpt>
      <trkpt lat="42.520414106547832489013671875" lon="19.86235328949987888336181640625">
        <ele>1258.199951171875</ele>
        <time>2026-06-17T12:52:37.000Z</time>
        <extensions>
          <ns3:TrackPointExtension>
            <ns3:atemp>20.0</ns3:atemp>
          </ns3:TrackPointExtension>
        </extensions>
      </trkpt>
      <trkpt lat="42.520414106547832489013671875" lon="19.86235328949987888336181640625">
        <ele>1258</ele>
        <time>2026-06-17T12:52:38.000Z</time>
        <extensions>
          <ns3:TrackPointExtension>
            <ns3:atemp>20.0</ns3:atemp>
          </ns3:TrackPointExtension>
        </extensions>
      </trkpt>
      <trkpt lat="42.520414106547832489013671875" lon="19.86235328949987888336181640625">
        <ele>1258</ele>
        <time>2026-06-17T12:52:39.000Z</time>
        <extensions>
          <ns3:TrackPointExtension>
            <ns3:atemp>20.0</ns3:atemp>
          </ns3:TrackPointExtension>
        </extensions>
      </trkpt>
      <trkpt lat="42.520414106547832489013671875" lon="19.86235328949987888336181640625">
        <ele>1258</ele>
        <time>2026-06-17T12:52:40.000Z</time>
        <extensions>
          <ns3:TrackPointExtension>
            <ns3:atemp>20.0</ns3:atemp>
          </ns3:TrackPointExtension>
        </extensions>
      </trkpt>
      <trkpt lat="42.520414106547832489013671875" lon="19.86235328949987888336181640625">
        <ele>1258</ele>
        <time>2026-06-17T12:52:41.000Z</time>
        <extensions>
          <ns3:TrackPointExtension>
            <ns3:atemp>20.0</ns3:atemp>
          </ns3:TrackPointExtension>
        </extensions>
      </trkpt>
      <trkpt lat="42.520414106547832489013671875" lon="19.86235328949987888336181640625">
        <ele>1258</ele>
        <time>2026-06-17T12:52:42.000Z</time>
        <extensions>
          <ns3:TrackPointExtension>
            <ns3:atemp>20.0</ns3:atemp>
          </ns3:TrackPointExtension>
        </extensions>
      </trkpt>
      <trkpt lat="42.520414106547832489013671875" lon="19.86235328949987888336181640625">
        <ele>1257.800048828125</ele>
        <time>2026-06-17T12:52:43.000Z</time>
        <extensions>
          <ns3:TrackPointExtension>
            <ns3:atemp>20.0</ns3:atemp>
          </ns3:TrackPointExtension>
        </extensions>
      </trkpt>
      <trkpt lat="42.520414106547832489013671875" lon="19.86235328949987888336181640625">
        <ele>1257.800048828125</ele>
        <time>2026-06-17T12:52:44.000Z</time>
        <extensions>
          <ns3:TrackPointExtension>
            <ns3:atemp>20.0</ns3:atemp>
          </ns3:TrackPointExtension>
        </extensions>
      </trkpt>
      <trkpt lat="42.520414106547832489013671875" lon="19.86235328949987888336181640625">
        <ele>1257.800048828125</ele>
        <time>2026-06-17T12:52:45.000Z</time>
        <extensions>
          <ns3:TrackPointExtension>
            <ns3:atemp>20.0</ns3:atemp>
          </ns3:TrackPointExtension>
        </extensions>
      </trkpt>
      <trkpt lat="42.520414106547832489013671875" lon="19.86235328949987888336181640625">
        <ele>1257.800048828125</ele>
        <time>2026-06-17T12:52:46.000Z</time>
        <extensions>
          <ns3:TrackPointExtension>
            <ns3:atemp>20.0</ns3:atemp>
          </ns3:TrackPointExtension>
        </extensions>
      </trkpt>
      <trkpt lat="42.520414106547832489013671875" lon="19.86235328949987888336181640625">
        <ele>1257.800048828125</ele>
        <time>2026-06-17T12:52:47.000Z</time>
        <extensions>
          <ns3:TrackPointExtension>
            <ns3:atemp>20.0</ns3:atemp>
          </ns3:TrackPointExtension>
        </extensions>
      </trkpt>
      <trkpt lat="42.520414106547832489013671875" lon="19.86235328949987888336181640625">
        <ele>1257.5999755859375</ele>
        <time>2026-06-17T12:52:48.000Z</time>
        <extensions>
          <ns3:TrackPointExtension>
            <ns3:atemp>20.0</ns3:atemp>
          </ns3:TrackPointExtension>
        </extensions>
      </trkpt>
      <trkpt lat="42.520414106547832489013671875" lon="19.86235328949987888336181640625">
        <ele>1257.5999755859375</ele>
        <time>2026-06-17T12:52:49.000Z</time>
        <extensions>
          <ns3:TrackPointExtension>
            <ns3:atemp>20.0</ns3:atemp>
          </ns3:TrackPointExtension>
        </extensions>
      </trkpt>
      <trkpt lat="42.520414106547832489013671875" lon="19.86235328949987888336181640625">
        <ele>1257.5999755859375</ele>
        <time>2026-06-17T12:52:50.000Z</time>
        <extensions>
          <ns3:TrackPointExtension>
            <ns3:atemp>20.0</ns3:atemp>
          </ns3:TrackPointExtension>
        </extensions>
      </trkpt>
      <trkpt lat="42.520414106547832489013671875" lon="19.86235328949987888336181640625">
        <ele>1257.5999755859375</ele>
        <time>2026-06-17T12:52:51.000Z</time>
        <extensions>
          <ns3:TrackPointExtension>
            <ns3:atemp>20.0</ns3:atemp>
          </ns3:TrackPointExtension>
        </extensions>
      </trkpt>
      <trkpt lat="42.520414106547832489013671875" lon="19.86235328949987888336181640625">
        <ele>1257.5999755859375</ele>
        <time>2026-06-17T12:52:52.000Z</time>
        <extensions>
          <ns3:TrackPointExtension>
            <ns3:atemp>20.0</ns3:atemp>
          </ns3:TrackPointExtension>
        </extensions>
      </trkpt>
      <trkpt lat="42.520414106547832489013671875" lon="19.86235328949987888336181640625">
        <ele>1257.5999755859375</ele>
        <time>2026-06-17T12:52:53.000Z</time>
        <extensions>
          <ns3:TrackPointExtension>
            <ns3:atemp>20.0</ns3:atemp>
          </ns3:TrackPointExtension>
        </extensions>
      </trkpt>
      <trkpt lat="42.520414106547832489013671875" lon="19.86235328949987888336181640625">
        <ele>1257.5999755859375</ele>
        <time>2026-06-17T12:52:54.000Z</time>
        <extensions>
          <ns3:TrackPointExtension>
            <ns3:atemp>20.0</ns3:atemp>
          </ns3:TrackPointExtension>
        </extensions>
      </trkpt>
      <trkpt lat="42.520414106547832489013671875" lon="19.86235328949987888336181640625">
        <ele>1257.5999755859375</ele>
        <time>2026-06-17T12:52:55.000Z</time>
        <extensions>
          <ns3:TrackPointExtension>
            <ns3:atemp>20.0</ns3:atemp>
          </ns3:TrackPointExtension>
        </extensions>
      </trkpt>
      <trkpt lat="42.520414106547832489013671875" lon="19.86235328949987888336181640625">
        <ele>1257.4000244140625</ele>
        <time>2026-06-17T12:52:56.000Z</time>
        <extensions>
          <ns3:TrackPointExtension>
            <ns3:atemp>20.0</ns3:atemp>
          </ns3:TrackPointExtension>
        </extensions>
      </trkpt>
      <trkpt lat="42.520414106547832489013671875" lon="19.86235328949987888336181640625">
        <ele>1257.4000244140625</ele>
        <time>2026-06-17T12:52:57.000Z</time>
        <extensions>
          <ns3:TrackPointExtension>
            <ns3:atemp>20.0</ns3:atemp>
          </ns3:TrackPointExtension>
        </extensions>
      </trkpt>
      <trkpt lat="42.520414106547832489013671875" lon="19.86235328949987888336181640625">
        <ele>1257.4000244140625</ele>
        <time>2026-06-17T12:52:58.000Z</time>
        <extensions>
          <ns3:TrackPointExtension>
            <ns3:atemp>20.0</ns3:atemp>
          </ns3:TrackPointExtension>
        </extensions>
      </trkpt>
      <trkpt lat="42.520414106547832489013671875" lon="19.86235328949987888336181640625">
        <ele>1257.4000244140625</ele>
        <time>2026-06-17T12:52:59.000Z</time>
        <extensions>
          <ns3:TrackPointExtension>
            <ns3:atemp>20.0</ns3:atemp>
          </ns3:TrackPointExtension>
        </extensions>
      </trkpt>
      <trkpt lat="42.520414106547832489013671875" lon="19.86235328949987888336181640625">
        <ele>1257.4000244140625</ele>
        <time>2026-06-17T12:53:00.000Z</time>
        <extensions>
          <ns3:TrackPointExtension>
            <ns3:atemp>20.0</ns3:atemp>
          </ns3:TrackPointExtension>
        </extensions>
      </trkpt>
      <trkpt lat="42.520414106547832489013671875" lon="19.86235328949987888336181640625">
        <ele>1257.199951171875</ele>
        <time>2026-06-17T12:53:01.000Z</time>
        <extensions>
          <ns3:TrackPointExtension>
            <ns3:atemp>20.0</ns3:atemp>
          </ns3:TrackPointExtension>
        </extensions>
      </trkpt>
      <trkpt lat="42.520414106547832489013671875" lon="19.86235328949987888336181640625">
        <ele>1257.199951171875</ele>
        <time>2026-06-17T12:53:02.000Z</time>
        <extensions>
          <ns3:TrackPointExtension>
            <ns3:atemp>20.0</ns3:atemp>
          </ns3:TrackPointExtension>
        </extensions>
      </trkpt>
      <trkpt lat="42.520414106547832489013671875" lon="19.86235328949987888336181640625">
        <ele>1257.199951171875</ele>
        <time>2026-06-17T12:53:03.000Z</time>
        <extensions>
          <ns3:TrackPointExtension>
            <ns3:atemp>20.0</ns3:atemp>
          </ns3:TrackPointExtension>
        </extensions>
      </trkpt>
      <trkpt lat="42.520414106547832489013671875" lon="19.86235328949987888336181640625">
        <ele>1257.199951171875</ele>
        <time>2026-06-17T12:53:04.000Z</time>
        <extensions>
          <ns3:TrackPointExtension>
            <ns3:atemp>20.0</ns3:atemp>
          </ns3:TrackPointExtension>
        </extensions>
      </trkpt>
      <trkpt lat="42.520414106547832489013671875" lon="19.86235328949987888336181640625">
        <ele>1257.199951171875</ele>
        <time>2026-06-17T12:53:05.000Z</time>
        <extensions>
          <ns3:TrackPointExtension>
            <ns3:atemp>20.0</ns3:atemp>
          </ns3:TrackPointExtension>
        </extensions>
      </trkpt>
      <trkpt lat="42.520414106547832489013671875" lon="19.86235328949987888336181640625">
        <ele>1257.199951171875</ele>
        <time>2026-06-17T12:53:06.000Z</time>
        <extensions>
          <ns3:TrackPointExtension>
            <ns3:atemp>20.0</ns3:atemp>
          </ns3:TrackPointExtension>
        </extensions>
      </trkpt>
      <trkpt lat="42.52041620202362537384033203125" lon="19.8623510263860225677490234375">
        <ele>1257</ele>
        <time>2026-06-17T12:53:07.000Z</time>
        <extensions>
          <ns3:TrackPointExtension>
            <ns3:atemp>20.0</ns3:atemp>
          </ns3:TrackPointExtension>
        </extensions>
      </trkpt>
      <trkpt lat="42.52042743377387523651123046875" lon="19.86233778297901153564453125">
        <ele>1257</ele>
        <time>2026-06-17T12:53:08.000Z</time>
        <extensions>
          <ns3:TrackPointExtension>
            <ns3:atemp>20.0</ns3:atemp>
          </ns3:TrackPointExtension>
        </extensions>
      </trkpt>
      <trkpt lat="42.52043564803898334503173828125" lon="19.86232705414295196533203125">
        <ele>1256.800048828125</ele>
        <time>2026-06-17T12:53:09.000Z</time>
        <extensions>
          <ns3:TrackPointExtension>
            <ns3:atemp>20.0</ns3:atemp>
          </ns3:TrackPointExtension>
        </extensions>
      </trkpt>
      <trkpt lat="42.52044637687504291534423828125" lon="19.862310625612735748291015625">
        <ele>1256.800048828125</ele>
        <time>2026-06-17T12:53:10.000Z</time>
        <extensions>
          <ns3:TrackPointExtension>
            <ns3:atemp>20.0</ns3:atemp>
          </ns3:TrackPointExtension>
        </extensions>
      </trkpt>
      <trkpt lat="42.52045962028205394744873046875" lon="19.86228405497968196868896484375">
        <ele>1256.800048828125</ele>
        <time>2026-06-17T12:53:11.000Z</time>
        <extensions>
          <ns3:TrackPointExtension>
            <ns3:atemp>20.0</ns3:atemp>
          </ns3:TrackPointExtension>
        </extensions>
      </trkpt>
      <trkpt lat="42.52047948539257049560546875" lon="19.86224851571023464202880859375">
        <ele>1256.5999755859375</ele>
        <time>2026-06-17T12:53:12.000Z</time>
        <extensions>
          <ns3:TrackPointExtension>
            <ns3:atemp>20.0</ns3:atemp>
          </ns3:TrackPointExtension>
        </extensions>
      </trkpt>
      <trkpt lat="42.5205021165311336517333984375" lon="19.86219671554863452911376953125">
        <ele>1256.4000244140625</ele>
        <time>2026-06-17T12:53:13.000Z</time>
        <extensions>
          <ns3:TrackPointExtension>
            <ns3:atemp>20.0</ns3:atemp>
          </ns3:TrackPointExtension>
        </extensions>
      </trkpt>
      <trkpt lat="42.52052784897387027740478515625" lon="19.86213167198002338409423828125">
        <ele>1256</ele>
        <time>2026-06-17T12:53:14.000Z</time>
        <extensions>
          <ns3:TrackPointExtension>
            <ns3:atemp>20.0</ns3:atemp>
          </ns3:TrackPointExtension>
        </extensions>
      </trkpt>
      <trkpt lat="42.520555593073368072509765625" lon="19.86205858178436756134033203125">
        <ele>1255.800048828125</ele>
        <time>2026-06-17T12:53:15.000Z</time>
        <extensions>
          <ns3:TrackPointExtension>
            <ns3:atemp>20.0</ns3:atemp>
          </ns3:TrackPointExtension>
        </extensions>
      </trkpt>
      <trkpt lat="42.52058275043964385986328125" lon="19.861982055008411407470703125">
        <ele>1255.4000244140625</ele>
        <time>2026-06-17T12:53:16.000Z</time>
        <extensions>
          <ns3:TrackPointExtension>
            <ns3:atemp>20.0</ns3:atemp>
          </ns3:TrackPointExtension>
        </extensions>
      </trkpt>
      <trkpt lat="42.5206120871007442474365234375" lon="19.861902259290218353271484375">
        <ele>1255</ele>
        <time>2026-06-17T12:53:17.000Z</time>
        <extensions>
          <ns3:TrackPointExtension>
            <ns3:atemp>20.0</ns3:atemp>
          </ns3:TrackPointExtension>
        </extensions>
      </trkpt>
      <trkpt lat="42.520646788179874420166015625" lon="19.86182087101042270660400390625">
        <ele>1254.4000244140625</ele>
        <time>2026-06-17T12:53:18.000Z</time>
        <extensions>
          <ns3:TrackPointExtension>
            <ns3:atemp>20.0</ns3:atemp>
          </ns3:TrackPointExtension>
        </extensions>
      </trkpt>
      <trkpt lat="42.52068626694381237030029296875" lon="19.86174099147319793701171875">
        <ele>1253.800048828125</ele>
        <time>2026-06-17T12:53:19.000Z</time>
        <extensions>
          <ns3:TrackPointExtension>
            <ns3:atemp>20.0</ns3:atemp>
          </ns3:TrackPointExtension>
        </extensions>
      </trkpt>
      <trkpt lat="42.5207244046032428741455078125" lon="19.86165625043213367462158203125">
        <ele>1253.4000244140625</ele>
        <time>2026-06-17T12:53:20.000Z</time>
        <extensions>
          <ns3:TrackPointExtension>
            <ns3:atemp>20.0</ns3:atemp>
          </ns3:TrackPointExtension>
        </extensions>
      </trkpt>
      <trkpt lat="42.52076287753880023956298828125" lon="19.86157067120075225830078125">
        <ele>1253</ele>
        <time>2026-06-17T12:53:21.000Z</time>
        <extensions>
          <ns3:TrackPointExtension>
            <ns3:atemp>20.0</ns3:atemp>
          </ns3:TrackPointExtension>
        </extensions>
      </trkpt>
      <trkpt lat="42.5207991711795330047607421875" lon="19.86149380914866924285888671875">
        <ele>1252.4000244140625</ele>
        <time>2026-06-17T12:53:22.000Z</time>
        <extensions>
          <ns3:TrackPointExtension>
            <ns3:atemp>20.0</ns3:atemp>
          </ns3:TrackPointExtension>
        </extensions>
      </trkpt>
      <trkpt lat="42.520833872258663177490234375" lon="19.861418791115283966064453125">
        <ele>1252.199951171875</ele>
        <time>2026-06-17T12:53:23.000Z</time>
        <extensions>
          <ns3:TrackPointExtension>
            <ns3:atemp>20.0</ns3:atemp>
          </ns3:TrackPointExtension>
        </extensions>
      </trkpt>
      <trkpt lat="42.52086647786200046539306640625" lon="19.86134796403348445892333984375">
        <ele>1251.800048828125</ele>
        <time>2026-06-17T12:53:24.000Z</time>
        <extensions>
          <ns3:TrackPointExtension>
            <ns3:atemp>20.0</ns3:atemp>
          </ns3:TrackPointExtension>
        </extensions>
      </trkpt>
      <trkpt lat="42.52089614979922771453857421875" lon="19.86127923242747783660888671875">
        <ele>1251.800048828125</ele>
        <time>2026-06-17T12:53:25.000Z</time>
        <extensions>
          <ns3:TrackPointExtension>
            <ns3:atemp>20.0</ns3:atemp>
          </ns3:TrackPointExtension>
        </extensions>
      </trkpt>
      <trkpt lat="42.5209238938987255096435546875" lon="19.86121636815369129180908203125">
        <ele>1251.5999755859375</ele>
        <time>2026-06-17T12:53:26.000Z</time>
        <extensions>
          <ns3:TrackPointExtension>
            <ns3:atemp>20.0</ns3:atemp>
          </ns3:TrackPointExtension>
        </extensions>
      </trkpt>
      <trkpt lat="42.52094862051308155059814453125" lon="19.86115031875669956207275390625">
        <ele>1251.800048828125</ele>
        <time>2026-06-17T12:53:27.000Z</time>
        <extensions>
          <ns3:TrackPointExtension>
            <ns3:atemp>20.0</ns3:atemp>
          </ns3:TrackPointExtension>
        </extensions>
      </trkpt>
      <trkpt lat="42.52097242511808872222900390625" lon="19.86108510755002498626708984375">
        <ele>1251.800048828125</ele>
        <time>2026-06-17T12:53:28.000Z</time>
        <extensions>
          <ns3:TrackPointExtension>
            <ns3:atemp>20.0</ns3:atemp>
          </ns3:TrackPointExtension>
        </extensions>
      </trkpt>
      <trkpt lat="42.52099312841892242431640625" lon="19.8610206507146358489990234375">
        <ele>1251.800048828125</ele>
        <time>2026-06-17T12:53:29.000Z</time>
        <extensions>
          <ns3:TrackPointExtension>
            <ns3:atemp>20.0</ns3:atemp>
          </ns3:TrackPointExtension>
        </extensions>
      </trkpt>
      <trkpt lat="42.521014250814914703369140625" lon="19.86095921136438846588134765625">
        <ele>1251.800048828125</ele>
        <time>2026-06-17T12:53:30.000Z</time>
        <extensions>
          <ns3:TrackPointExtension>
            <ns3:atemp>20.0</ns3:atemp>
          </ns3:TrackPointExtension>
        </extensions>
      </trkpt>
      <trkpt lat="42.5210367143154144287109375" lon="19.86090120859444141387939453125">
        <ele>1252</ele>
        <time>2026-06-17T12:53:31.000Z</time>
        <extensions>
          <ns3:TrackPointExtension>
            <ns3:atemp>20.0</ns3:atemp>
          </ns3:TrackPointExtension>
        </extensions>
      </trkpt>
      <trkpt lat="42.5210593454539775848388671875" lon="19.86084270291030406951904296875">
        <ele>1252</ele>
        <time>2026-06-17T12:53:32.000Z</time>
        <extensions>
          <ns3:TrackPointExtension>
            <ns3:atemp>20.0</ns3:atemp>
          </ns3:TrackPointExtension>
        </extensions>
      </trkpt>
      <trkpt lat="42.5210811384022235870361328125" lon="19.86078754998743534088134765625">
        <ele>1252.199951171875</ele>
        <time>2026-06-17T12:53:33.000Z</time>
        <extensions>
          <ns3:TrackPointExtension>
            <ns3:atemp>20.0</ns3:atemp>
          </ns3:TrackPointExtension>
        </extensions>
      </trkpt>
      <trkpt lat="42.5211032666265964508056640625" lon="19.86073222942650318145751953125">
        <ele>1252.4000244140625</ele>
        <time>2026-06-17T12:53:34.000Z</time>
        <extensions>
          <ns3:TrackPointExtension>
            <ns3:atemp>20.0</ns3:atemp>
          </ns3:TrackPointExtension>
        </extensions>
      </trkpt>
      <trkpt lat="42.5211267359554767608642578125" lon="19.86067774705588817596435546875">
        <ele>1252.4000244140625</ele>
        <time>2026-06-17T12:53:35.000Z</time>
        <extensions>
          <ns3:TrackPointExtension>
            <ns3:atemp>20.0</ns3:atemp>
          </ns3:TrackPointExtension>
        </extensions>
      </trkpt>
      <trkpt lat="42.5211488641798496246337890625" lon="19.860623516142368316650390625">
        <ele>1252.5999755859375</ele>
        <time>2026-06-17T12:53:36.000Z</time>
        <extensions>
          <ns3:TrackPointExtension>
            <ns3:atemp>20.0</ns3:atemp>
          </ns3:TrackPointExtension>
        </extensions>
      </trkpt>
      <trkpt lat="42.52117124386131763458251953125" lon="19.86057146452367305755615234375">
        <ele>1252.5999755859375</ele>
        <time>2026-06-17T12:53:37.000Z</time>
        <extensions>
          <ns3:TrackPointExtension>
            <ns3:atemp>20.0</ns3:atemp>
          </ns3:TrackPointExtension>
        </extensions>
      </trkpt>
      <trkpt lat="42.521195970475673675537109375" lon="19.86052452586591243743896484375">
        <ele>1252.800048828125</ele>
        <time>2026-06-17T12:53:38.000Z</time>
        <extensions>
          <ns3:TrackPointExtension>
            <ns3:atemp>20.0</ns3:atemp>
          </ns3:TrackPointExtension>
        </extensions>
      </trkpt>
      <trkpt lat="42.521219439804553985595703125" lon="19.86047725193202495574951171875">
        <ele>1252.800048828125</ele>
        <time>2026-06-17T12:53:39.000Z</time>
        <extensions>
          <ns3:TrackPointExtension>
            <ns3:atemp>20.0</ns3:atemp>
          </ns3:TrackPointExtension>
        </extensions>
      </trkpt>
      <trkpt lat="42.52124483697116374969482421875" lon="19.86042201519012451171875">
        <ele>1253</ele>
        <time>2026-06-17T12:53:40.000Z</time>
        <extensions>
          <ns3:TrackPointExtension>
            <ns3:atemp>20.0</ns3:atemp>
          </ns3:TrackPointExtension>
        </extensions>
      </trkpt>
      <trkpt lat="42.521268390119075775146484375" lon="19.8603671975433826446533203125">
        <ele>1253</ele>
        <time>2026-06-17T12:53:41.000Z</time>
        <extensions>
          <ns3:TrackPointExtension>
            <ns3:atemp>20.0</ns3:atemp>
          </ns3:TrackPointExtension>
        </extensions>
      </trkpt>
      <trkpt lat="42.52129076980054378509521484375" lon="19.86031196080148220062255859375">
        <ele>1253</ele>
        <time>2026-06-17T12:53:42.000Z</time>
        <extensions>
          <ns3:TrackPointExtension>
            <ns3:atemp>20.0</ns3:atemp>
          </ns3:TrackPointExtension>
        </extensions>
      </trkpt>
      <trkpt lat="42.52131390385329723358154296875" lon="19.86025630496442317962646484375">
        <ele>1253</ele>
        <time>2026-06-17T12:53:43.000Z</time>
        <extensions>
          <ns3:TrackPointExtension>
            <ns3:atemp>20.0</ns3:atemp>
          </ns3:TrackPointExtension>
        </extensions>
      </trkpt>
      <trkpt lat="42.5213416479527950286865234375" lon="19.86019830219447612762451171875">
        <ele>1253</ele>
        <time>2026-06-17T12:53:44.000Z</time>
        <extensions>
          <ns3:TrackPointExtension>
            <ns3:atemp>20.0</ns3:atemp>
          </ns3:TrackPointExtension>
        </extensions>
      </trkpt>
      <trkpt lat="42.52136955969035625457763671875" lon="19.8601375333964824676513671875">
        <ele>1253</ele>
        <time>2026-06-17T12:53:45.000Z</time>
        <extensions>
          <ns3:TrackPointExtension>
            <ns3:atemp>20.0</ns3:atemp>
          </ns3:TrackPointExtension>
        </extensions>
      </trkpt>
      <trkpt lat="42.5213959626853466033935546875" lon="19.8600748367607593536376953125">
        <ele>1253</ele>
        <time>2026-06-17T12:53:46.000Z</time>
        <extensions>
          <ns3:TrackPointExtension>
            <ns3:atemp>20.0</ns3:atemp>
          </ns3:TrackPointExtension>
        </extensions>
      </trkpt>
      <trkpt lat="42.5214264728128910064697265625" lon="19.860006608068943023681640625">
        <ele>1252.800048828125</ele>
        <time>2026-06-17T12:53:47.000Z</time>
        <extensions>
          <ns3:TrackPointExtension>
            <ns3:atemp>20.0</ns3:atemp>
          </ns3:TrackPointExtension>
        </extensions>
      </trkpt>
      <trkpt lat="42.52145924605429172515869140625" lon="19.8599346913397312164306640625">
        <ele>1252.4000244140625</ele>
        <time>2026-06-17T12:53:48.000Z</time>
        <extensions>
          <ns3:TrackPointExtension>
            <ns3:atemp>20.0</ns3:atemp>
          </ns3:TrackPointExtension>
        </extensions>
      </trkpt>
      <trkpt lat="42.52149126492440700531005859375" lon="19.85986436717212200164794921875">
        <ele>1252.199951171875</ele>
        <time>2026-06-17T12:53:49.000Z</time>
        <extensions>
          <ns3:TrackPointExtension>
            <ns3:atemp>20.0</ns3:atemp>
          </ns3:TrackPointExtension>
        </extensions>
      </trkpt>
      <trkpt lat="42.521523870527744293212890625" lon="19.85980083234608173370361328125">
        <ele>1251.5999755859375</ele>
        <time>2026-06-17T12:53:50.000Z</time>
        <extensions>
          <ns3:TrackPointExtension>
            <ns3:atemp>20.0</ns3:atemp>
          </ns3:TrackPointExtension>
        </extensions>
      </trkpt>
      <trkpt lat="42.52155899070203304290771484375" lon="19.859737716615200042724609375">
        <ele>1251.199951171875</ele>
        <time>2026-06-17T12:53:51.000Z</time>
        <extensions>
          <ns3:TrackPointExtension>
            <ns3:atemp>20.0</ns3:atemp>
          </ns3:TrackPointExtension>
        </extensions>
      </trkpt>
      <trkpt lat="42.5215946137905120849609375" lon="19.8596795462071895599365234375">
        <ele>1250.5999755859375</ele>
        <time>2026-06-17T12:53:52.000Z</time>
        <extensions>
          <ns3:TrackPointExtension>
            <ns3:atemp>20.0</ns3:atemp>
          </ns3:TrackPointExtension>
        </extensions>
      </trkpt>
      <trkpt lat="42.52163811586797237396240234375" lon="19.85962045378983020782470703125">
        <ele>1249.5999755859375</ele>
        <time>2026-06-17T12:53:53.000Z</time>
        <extensions>
          <ns3:TrackPointExtension>
            <ns3:atemp>20.0</ns3:atemp>
          </ns3:TrackPointExtension>
        </extensions>
      </trkpt>
      <trkpt lat="42.52168354578316211700439453125" lon="19.85957049764692783355712890625">
        <ele>1249</ele>
        <time>2026-06-17T12:53:54.000Z</time>
        <extensions>
          <ns3:TrackPointExtension>
            <ns3:atemp>20.0</ns3:atemp>
          </ns3:TrackPointExtension>
        </extensions>
      </trkpt>
      <trkpt lat="42.521725036203861236572265625" lon="19.85952540300786495208740234375">
        <ele>1248.199951171875</ele>
        <time>2026-06-17T12:53:55.000Z</time>
        <extensions>
          <ns3:TrackPointExtension>
            <ns3:atemp>20.0</ns3:atemp>
          </ns3:TrackPointExtension>
        </extensions>
      </trkpt>
      <trkpt lat="42.5217620842158794403076171875" lon="19.85946714878082275390625">
        <ele>1247.199951171875</ele>
        <time>2026-06-17T12:53:56.000Z</time>
        <extensions>
          <ns3:TrackPointExtension>
            <ns3:atemp>20.0</ns3:atemp>
          </ns3:TrackPointExtension>
        </extensions>
      </trkpt>
      <trkpt lat="42.5217902474105358123779296875" lon="19.859395734965801239013671875">
        <ele>1246.4000244140625</ele>
        <time>2026-06-17T12:53:57.000Z</time>
        <extensions>
          <ns3:TrackPointExtension>
            <ns3:atemp>20.0</ns3:atemp>
          </ns3:TrackPointExtension>
        </extensions>
      </trkpt>
      <trkpt lat="42.52180491574108600616455078125" lon="19.8593151010572910308837890625">
        <ele>1245.5999755859375</ele>
        <time>2026-06-17T12:53:58.000Z</time>
        <extensions>
          <ns3:TrackPointExtension>
            <ns3:atemp>20.0</ns3:atemp>
          </ns3:TrackPointExtension>
        </extensions>
      </trkpt>
      <trkpt lat="42.52180407755076885223388671875" lon="19.859225414693355560302734375">
        <ele>1244.4000244140625</ele>
        <time>2026-06-17T12:53:59.000Z</time>
        <extensions>
          <ns3:TrackPointExtension>
            <ns3:atemp>20.0</ns3:atemp>
          </ns3:TrackPointExtension>
        </extensions>
      </trkpt>
      <trkpt lat="42.52180047333240509033203125" lon="19.8591340519487857818603515625">
        <ele>1243.5999755859375</ele>
        <time>2026-06-17T12:54:00.000Z</time>
        <extensions>
          <ns3:TrackPointExtension>
            <ns3:atemp>20.0</ns3:atemp>
          </ns3:TrackPointExtension>
        </extensions>
      </trkpt>
      <trkpt lat="42.52180340699851512908935546875" lon="19.8590339720249176025390625">
        <ele>1242.5999755859375</ele>
        <time>2026-06-17T12:54:01.000Z</time>
        <extensions>
          <ns3:TrackPointExtension>
            <ns3:atemp>20.0</ns3:atemp>
          </ns3:TrackPointExtension>
        </extensions>
      </trkpt>
      <trkpt lat="42.5218065083026885986328125" lon="19.85893229953944683074951171875">
        <ele>1241.5999755859375</ele>
        <time>2026-06-17T12:54:02.000Z</time>
        <extensions>
          <ns3:TrackPointExtension>
            <ns3:atemp>20.0</ns3:atemp>
          </ns3:TrackPointExtension>
        </extensions>
      </trkpt>
      <trkpt lat="42.52180625684559345245361328125" lon="19.85882517881691455841064453125">
        <ele>1240.5999755859375</ele>
        <time>2026-06-17T12:54:03.000Z</time>
        <extensions>
          <ns3:TrackPointExtension>
            <ns3:atemp>20.0</ns3:atemp>
          </ns3:TrackPointExtension>
        </extensions>
      </trkpt>
      <trkpt lat="42.52182268537580966949462890625" lon="19.8587119393050670623779296875">
        <ele>1239.4000244140625</ele>
        <time>2026-06-17T12:54:04.000Z</time>
        <extensions>
          <ns3:TrackPointExtension>
            <ns3:atemp>20.0</ns3:atemp>
          </ns3:TrackPointExtension>
        </extensions>
      </trkpt>
      <trkpt lat="42.521856464445590972900390625" lon="19.8585972748696804046630859375">
        <ele>1238</ele>
        <time>2026-06-17T12:54:05.000Z</time>
        <extensions>
          <ns3:TrackPointExtension>
            <ns3:atemp>20.0</ns3:atemp>
          </ns3:TrackPointExtension>
        </extensions>
      </trkpt>
      <trkpt lat="42.52189879305660724639892578125" lon="19.8584814369678497314453125">
        <ele>1236.5999755859375</ele>
        <time>2026-06-17T12:54:06.000Z</time>
        <extensions>
          <ns3:TrackPointExtension>
            <ns3:atemp>20.0</ns3:atemp>
          </ns3:TrackPointExtension>
        </extensions>
      </trkpt>
      <trkpt lat="42.521941959857940673828125" lon="19.85837079584598541259765625">
        <ele>1235.4000244140625</ele>
        <time>2026-06-17T12:54:07.000Z</time>
        <extensions>
          <ns3:TrackPointExtension>
            <ns3:atemp>20.0</ns3:atemp>
          </ns3:TrackPointExtension>
        </extensions>
      </trkpt>
      <trkpt lat="42.52197506837546825408935546875" lon="19.85827113501727581024169921875">
        <ele>1234.199951171875</ele>
        <time>2026-06-17T12:54:08.000Z</time>
        <extensions>
          <ns3:TrackPointExtension>
            <ns3:atemp>20.0</ns3:atemp>
          </ns3:TrackPointExtension>
        </extensions>
      </trkpt>
      <trkpt lat="42.52199350856244564056396484375" lon="19.85817222855985164642333984375">
        <ele>1233</ele>
        <time>2026-06-17T12:54:09.000Z</time>
        <extensions>
          <ns3:TrackPointExtension>
            <ns3:atemp>20.0</ns3:atemp>
          </ns3:TrackPointExtension>
        </extensions>
      </trkpt>
      <trkpt lat="42.52199753187596797943115234375" lon="19.85807030461728572845458984375">
        <ele>1232</ele>
        <time>2026-06-17T12:54:10.000Z</time>
        <extensions>
          <ns3:TrackPointExtension>
            <ns3:atemp>20.0</ns3:atemp>
          </ns3:TrackPointExtension>
        </extensions>
      </trkpt>
      <trkpt lat="42.5219991244375705718994140625" lon="19.8579704761505126953125">
        <ele>1230.800048828125</ele>
        <time>2026-06-17T12:54:11.000Z</time>
        <extensions>
          <ns3:TrackPointExtension>
            <ns3:atemp>20.0</ns3:atemp>
          </ns3:TrackPointExtension>
        </extensions>
      </trkpt>
      <trkpt lat="42.5220209173858165740966796875" lon="19.8578734137117862701416015625">
        <ele>1229.800048828125</ele>
        <time>2026-06-17T12:54:12.000Z</time>
        <extensions>
          <ns3:TrackPointExtension>
            <ns3:atemp>20.0</ns3:atemp>
          </ns3:TrackPointExtension>
        </extensions>
      </trkpt>
      <trkpt lat="42.52205637283623218536376953125" lon="19.857777021825313568115234375">
        <ele>1228.5999755859375</ele>
        <time>2026-06-17T12:54:13.000Z</time>
        <extensions>
          <ns3:TrackPointExtension>
            <ns3:atemp>20.0</ns3:atemp>
          </ns3:TrackPointExtension>
        </extensions>
      </trkpt>
      <trkpt lat="42.52210222184658050537109375" lon="19.857683144509792327880859375">
        <ele>1227.4000244140625</ele>
        <time>2026-06-17T12:54:14.000Z</time>
        <extensions>
          <ns3:TrackPointExtension>
            <ns3:atemp>20.0</ns3:atemp>
          </ns3:TrackPointExtension>
        </extensions>
      </trkpt>
      <trkpt lat="42.52215611748397350311279296875" lon="19.85759563744068145751953125">
        <ele>1226.199951171875</ele>
        <time>2026-06-17T12:54:15.000Z</time>
        <extensions>
          <ns3:TrackPointExtension>
            <ns3:atemp>20.0</ns3:atemp>
          </ns3:TrackPointExtension>
        </extensions>
      </trkpt>
      <trkpt lat="42.52220976166427135467529296875" lon="19.8575072921812534332275390625">
        <ele>1225</ele>
        <time>2026-06-17T12:54:16.000Z</time>
        <extensions>
          <ns3:TrackPointExtension>
            <ns3:atemp>20.0</ns3:atemp>
          </ns3:TrackPointExtension>
        </extensions>
      </trkpt>
      <trkpt lat="42.5222438760101795196533203125" lon="19.8574117384850978851318359375">
        <ele>1223.4000244140625</ele>
        <time>2026-06-17T12:54:17.000Z</time>
        <extensions>
          <ns3:TrackPointExtension>
            <ns3:atemp>20.0</ns3:atemp>
          </ns3:TrackPointExtension>
        </extensions>
      </trkpt>
      <trkpt lat="42.5222757272422313690185546875" lon="19.85731878317892551422119140625">
        <ele>1222.199951171875</ele>
        <time>2026-06-17T12:54:18.000Z</time>
        <extensions>
          <ns3:TrackPointExtension>
            <ns3:atemp>20.0</ns3:atemp>
          </ns3:TrackPointExtension>
        </extensions>
      </trkpt>
      <trkpt lat="42.52231151796877384185791015625" lon="19.85722742043435573577880859375">
        <ele>1221</ele>
        <time>2026-06-17T12:54:19.000Z</time>
        <extensions>
          <ns3:TrackPointExtension>
            <ns3:atemp>20.0</ns3:atemp>
          </ns3:TrackPointExtension>
        </extensions>
      </trkpt>
      <trkpt lat="42.52234336920082569122314453125" lon="19.85714376904070377349853515625">
        <ele>1220</ele>
        <time>2026-06-17T12:54:20.000Z</time>
        <extensions>
          <ns3:TrackPointExtension>
            <ns3:atemp>20.0</ns3:atemp>
          </ns3:TrackPointExtension>
        </extensions>
      </trkpt>
      <trkpt lat="42.52236499451100826263427734375" lon="19.85705944709479808807373046875">
        <ele>1219</ele>
        <time>2026-06-17T12:54:21.000Z</time>
        <extensions>
          <ns3:TrackPointExtension>
            <ns3:atemp>20.0</ns3:atemp>
          </ns3:TrackPointExtension>
        </extensions>
      </trkpt>
      <trkpt lat="42.52236767672002315521240234375" lon="19.85696925781667232513427734375">
        <ele>1218</ele>
        <time>2026-06-17T12:54:22.000Z</time>
        <extensions>
          <ns3:TrackPointExtension>
            <ns3:atemp>20.0</ns3:atemp>
          </ns3:TrackPointExtension>
        </extensions>
      </trkpt>
      <trkpt lat="42.5223823450505733489990234375" lon="19.856871105730533599853515625">
        <ele>1216.800048828125</ele>
        <time>2026-06-17T12:54:23.000Z</time>
        <extensions>
          <ns3:TrackPointExtension>
            <ns3:atemp>20.0</ns3:atemp>
          </ns3:TrackPointExtension>
        </extensions>
      </trkpt>
      <trkpt lat="42.522396929562091827392578125" lon="19.85675987787544727325439453125">
        <ele>1215.5999755859375</ele>
        <time>2026-06-17T12:54:24.000Z</time>
        <extensions>
          <ns3:TrackPointExtension>
            <ns3:atemp>20.0</ns3:atemp>
          </ns3:TrackPointExtension>
        </extensions>
      </trkpt>
      <trkpt lat="42.52241193316876888275146484375" lon="19.85665015876293182373046875">
        <ele>1214.5999755859375</ele>
        <time>2026-06-17T12:54:25.000Z</time>
        <extensions>
          <ns3:TrackPointExtension>
            <ns3:atemp>20.0</ns3:atemp>
          </ns3:TrackPointExtension>
        </extensions>
      </trkpt>
      <trkpt lat="42.5224420242011547088623046875" lon="19.856551922857761383056640625">
        <ele>1213.4000244140625</ele>
        <time>2026-06-17T12:54:26.000Z</time>
        <extensions>
          <ns3:TrackPointExtension>
            <ns3:atemp>20.0</ns3:atemp>
          </ns3:TrackPointExtension>
        </extensions>
      </trkpt>
      <trkpt lat="42.5224929861724376678466796875" lon="19.8564751446247100830078125">
        <ele>1212.4000244140625</ele>
        <time>2026-06-17T12:54:27.000Z</time>
        <extensions>
          <ns3:TrackPointExtension>
            <ns3:atemp>20.0</ns3:atemp>
          </ns3:TrackPointExtension>
        </extensions>
      </trkpt>
      <trkpt lat="42.522560544312000274658203125" lon="19.8564052395522594451904296875">
        <ele>1211.199951171875</ele>
        <time>2026-06-17T12:54:28.000Z</time>
        <extensions>
          <ns3:TrackPointExtension>
            <ns3:atemp>20.0</ns3:atemp>
          </ns3:TrackPointExtension>
        </extensions>
      </trkpt>
      <trkpt lat="42.52263589762151241302490234375" lon="19.85634514130651950836181640625">
        <ele>1209.5999755859375</ele>
        <time>2026-06-17T12:54:29.000Z</time>
        <extensions>
          <ns3:TrackPointExtension>
            <ns3:atemp>20.0</ns3:atemp>
          </ns3:TrackPointExtension>
        </extensions>
      </trkpt>
      <trkpt lat="42.52269591204822063446044921875" lon="19.8562885634601116180419921875">
        <ele>1208.4000244140625</ele>
        <time>2026-06-17T12:54:30.000Z</time>
        <extensions>
          <ns3:TrackPointExtension>
            <ns3:atemp>20.0</ns3:atemp>
          </ns3:TrackPointExtension>
        </extensions>
      </trkpt>
      <trkpt lat="42.52273195423185825347900390625" lon="19.8562087677419185638427734375">
        <ele>1207</ele>
        <time>2026-06-17T12:54:31.000Z</time>
        <extensions>
          <ns3:TrackPointExtension>
            <ns3:atemp>20.0</ns3:atemp>
          </ns3:TrackPointExtension>
        </extensions>
      </trkpt>
      <trkpt lat="42.522732876241207122802734375" lon="19.85611866228282451629638671875">
        <ele>1205.800048828125</ele>
        <time>2026-06-17T12:54:32.000Z</time>
        <extensions>
          <ns3:TrackPointExtension>
            <ns3:atemp>20.0</ns3:atemp>
          </ns3:TrackPointExtension>
        </extensions>
      </trkpt>
      <trkpt lat="42.5226981751620769500732421875" lon="19.8560367710888385772705078125">
        <ele>1204.800048828125</ele>
        <time>2026-06-17T12:54:33.000Z</time>
        <extensions>
          <ns3:TrackPointExtension>
            <ns3:atemp>20.0</ns3:atemp>
          </ns3:TrackPointExtension>
        </extensions>
      </trkpt>
      <trkpt lat="42.522650398313999176025390625" lon="19.85596795566380023956298828125">
        <ele>1203.800048828125</ele>
        <time>2026-06-17T12:54:34.000Z</time>
        <extensions>
          <ns3:TrackPointExtension>
            <ns3:atemp>20.0</ns3:atemp>
          </ns3:TrackPointExtension>
        </extensions>
      </trkpt>
      <trkpt lat="42.52260052599012851715087890625" lon="19.8558877408504486083984375">
        <ele>1202.4000244140625</ele>
        <time>2026-06-17T12:54:35.000Z</time>
        <extensions>
          <ns3:TrackPointExtension>
            <ns3:atemp>20.0</ns3:atemp>
          </ns3:TrackPointExtension>
        </extensions>
      </trkpt>
      <trkpt lat="42.522559203207492828369140625" lon="19.85580316744744777679443359375">
        <ele>1201.4000244140625</ele>
        <time>2026-06-17T12:54:36.000Z</time>
        <extensions>
          <ns3:TrackPointExtension>
            <ns3:atemp>20.0</ns3:atemp>
          </ns3:TrackPointExtension>
        </extensions>
      </trkpt>
      <trkpt lat="42.52252240665256977081298828125" lon="19.8557092063128948211669921875">
        <ele>1200.800048828125</ele>
        <time>2026-06-17T12:54:37.000Z</time>
        <extensions>
          <ns3:TrackPointExtension>
            <ns3:atemp>20.0</ns3:atemp>
          </ns3:TrackPointExtension>
        </extensions>
      </trkpt>
      <trkpt lat="42.522481419146060943603515625" lon="19.85561884939670562744140625">
        <ele>1199.5999755859375</ele>
        <time>2026-06-17T12:54:38.000Z</time>
        <extensions>
          <ns3:TrackPointExtension>
            <ns3:atemp>20.0</ns3:atemp>
          </ns3:TrackPointExtension>
        </extensions>
      </trkpt>
      <trkpt lat="42.52244277857244014739990234375" lon="19.855537712574005126953125">
        <ele>1198.5999755859375</ele>
        <time>2026-06-17T12:54:39.000Z</time>
        <extensions>
          <ns3:TrackPointExtension>
            <ns3:atemp>20.0</ns3:atemp>
          </ns3:TrackPointExtension>
        </extensions>
      </trkpt>
      <trkpt lat="42.52241143025457859039306640625" lon="19.8554550670087337493896484375">
        <ele>1197.5999755859375</ele>
        <time>2026-06-17T12:54:40.000Z</time>
        <extensions>
          <ns3:TrackPointExtension>
            <ns3:atemp>20.0</ns3:atemp>
          </ns3:TrackPointExtension>
        </extensions>
      </trkpt>
      <trkpt lat="42.522384859621524810791015625" lon="19.85537032596766948699951171875">
        <ele>1196.4000244140625</ele>
        <time>2026-06-17T12:54:41.000Z</time>
        <extensions>
          <ns3:TrackPointExtension>
            <ns3:atemp>20.0</ns3:atemp>
          </ns3:TrackPointExtension>
        </extensions>
      </trkpt>
      <trkpt lat="42.52236834727227687835693359375" lon="19.855286590754985809326171875">
        <ele>1195.800048828125</ele>
        <time>2026-06-17T12:54:42.000Z</time>
        <extensions>
          <ns3:TrackPointExtension>
            <ns3:atemp>20.0</ns3:atemp>
          </ns3:TrackPointExtension>
        </extensions>
      </trkpt>
      <trkpt lat="42.52235761843621730804443359375" lon="19.85520855523645877838134765625">
        <ele>1194.800048828125</ele>
        <time>2026-06-17T12:54:43.000Z</time>
        <extensions>
          <ns3:TrackPointExtension>
            <ns3:atemp>20.0</ns3:atemp>
          </ns3:TrackPointExtension>
        </extensions>
      </trkpt>
      <trkpt lat="42.52235426567494869232177734375" lon="19.8551335372030735015869140625">
        <ele>1194</ele>
        <time>2026-06-17T12:54:44.000Z</time>
        <extensions>
          <ns3:TrackPointExtension>
            <ns3:atemp>20.0</ns3:atemp>
          </ns3:TrackPointExtension>
        </extensions>
      </trkpt>
      <trkpt lat="42.52235342748463153839111328125" lon="19.85505935736000537872314453125">
        <ele>1193</ele>
        <time>2026-06-17T12:54:45.000Z</time>
        <extensions>
          <ns3:TrackPointExtension>
            <ns3:atemp>20.0</ns3:atemp>
          </ns3:TrackPointExtension>
        </extensions>
      </trkpt>
      <trkpt lat="42.52236030064523220062255859375" lon="19.8549806512892246246337890625">
        <ele>1191.800048828125</ele>
        <time>2026-06-17T12:54:46.000Z</time>
        <extensions>
          <ns3:TrackPointExtension>
            <ns3:atemp>20.0</ns3:atemp>
          </ns3:TrackPointExtension>
        </extensions>
      </trkpt>
      <trkpt lat="42.5223702751100063323974609375" lon="19.85490043647587299346923828125">
        <ele>1190.5999755859375</ele>
        <time>2026-06-17T12:54:47.000Z</time>
        <extensions>
          <ns3:TrackPointExtension>
            <ns3:atemp>20.0</ns3:atemp>
          </ns3:TrackPointExtension>
        </extensions>
      </trkpt>
      <trkpt lat="42.52238561399281024932861328125" lon="19.85481125302612781524658203125">
        <ele>1189.4000244140625</ele>
        <time>2026-06-17T12:54:48.000Z</time>
        <extensions>
          <ns3:TrackPointExtension>
            <ns3:atemp>20.0</ns3:atemp>
          </ns3:TrackPointExtension>
        </extensions>
      </trkpt>
      <trkpt lat="42.52239852212369441986083984375" lon="19.85472240485250949859619140625">
        <ele>1188.4000244140625</ele>
        <time>2026-06-17T12:54:49.000Z</time>
        <extensions>
          <ns3:TrackPointExtension>
            <ns3:atemp>20.0</ns3:atemp>
          </ns3:TrackPointExtension>
        </extensions>
      </trkpt>
      <trkpt lat="42.5224068202078342437744140625" lon="19.85463573597371578216552734375">
        <ele>1187.4000244140625</ele>
        <time>2026-06-17T12:54:50.000Z</time>
        <extensions>
          <ns3:TrackPointExtension>
            <ns3:atemp>20.0</ns3:atemp>
          </ns3:TrackPointExtension>
        </extensions>
      </trkpt>
      <trkpt lat="42.52240891568362712860107421875" lon="19.8545461334288120269775390625">
        <ele>1186.4000244140625</ele>
        <time>2026-06-17T12:54:51.000Z</time>
        <extensions>
          <ns3:TrackPointExtension>
            <ns3:atemp>20.0</ns3:atemp>
          </ns3:TrackPointExtension>
        </extensions>
      </trkpt>
      <trkpt lat="42.52240740694105625152587890625" lon="19.85445619560778141021728515625">
        <ele>1185.4000244140625</ele>
        <time>2026-06-17T12:54:52.000Z</time>
        <extensions>
          <ns3:TrackPointExtension>
            <ns3:atemp>20.0</ns3:atemp>
          </ns3:TrackPointExtension>
        </extensions>
      </trkpt>
      <trkpt lat="42.5224074907600879669189453125" lon="19.8543669283390045166015625">
        <ele>1184</ele>
        <time>2026-06-17T12:54:53.000Z</time>
        <extensions>
          <ns3:TrackPointExtension>
            <ns3:atemp>20.0</ns3:atemp>
          </ns3:TrackPointExtension>
        </extensions>
      </trkpt>
      <trkpt lat="42.522403635084629058837890625" lon="19.8542722128331661224365234375">
        <ele>1182.800048828125</ele>
        <time>2026-06-17T12:54:54.000Z</time>
        <extensions>
          <ns3:TrackPointExtension>
            <ns3:atemp>20.0</ns3:atemp>
          </ns3:TrackPointExtension>
        </extensions>
      </trkpt>
      <trkpt lat="42.52239860594272613525390625" lon="19.8541655950248241424560546875">
        <ele>1181.5999755859375</ele>
        <time>2026-06-17T12:54:55.000Z</time>
        <extensions>
          <ns3:TrackPointExtension>
            <ns3:atemp>20.0</ns3:atemp>
          </ns3:TrackPointExtension>
        </extensions>
      </trkpt>
      <trkpt lat="42.52239366061985492706298828125" lon="19.85404648818075656890869140625">
        <ele>1180.4000244140625</ele>
        <time>2026-06-17T12:54:56.000Z</time>
        <extensions>
          <ns3:TrackPointExtension>
            <ns3:atemp>20.0</ns3:atemp>
          </ns3:TrackPointExtension>
        </extensions>
      </trkpt>
      <trkpt lat="42.52239248715341091156005859375" lon="19.85391472466289997100830078125">
        <ele>1179</ele>
        <time>2026-06-17T12:54:57.000Z</time>
        <extensions>
          <ns3:TrackPointExtension>
            <ns3:atemp>20.0</ns3:atemp>
          </ns3:TrackPointExtension>
        </extensions>
      </trkpt>
      <trkpt lat="42.52239265479147434234619140625" lon="19.8537874035537242889404296875">
        <ele>1177.800048828125</ele>
        <time>2026-06-17T12:54:58.000Z</time>
        <extensions>
          <ns3:TrackPointExtension>
            <ns3:atemp>20.0</ns3:atemp>
          </ns3:TrackPointExtension>
        </extensions>
      </trkpt>
      <trkpt lat="42.52239600755274295806884765625" lon="19.85365672968327999114990234375">
        <ele>1176</ele>
        <time>2026-06-17T12:54:59.000Z</time>
        <extensions>
          <ns3:TrackPointExtension>
            <ns3:atemp>20.0</ns3:atemp>
          </ns3:TrackPointExtension>
        </extensions>
      </trkpt>
      <trkpt lat="42.52239885739982128143310546875" lon="19.8535228706896305084228515625">
        <ele>1174.5999755859375</ele>
        <time>2026-06-17T12:55:00.000Z</time>
        <extensions>
          <ns3:TrackPointExtension>
            <ns3:atemp>20.0</ns3:atemp>
          </ns3:TrackPointExtension>
        </extensions>
      </trkpt>
      <trkpt lat="42.52239600755274295806884765625" lon="19.85338582657277584075927734375">
        <ele>1173.199951171875</ele>
        <time>2026-06-17T12:55:01.000Z</time>
        <extensions>
          <ns3:TrackPointExtension>
            <ns3:atemp>20.0</ns3:atemp>
          </ns3:TrackPointExtension>
        </extensions>
      </trkpt>
      <trkpt lat="42.52239299006760120391845703125" lon="19.85325054265558719635009765625">
        <ele>1171.800048828125</ele>
        <time>2026-06-17T12:55:02.000Z</time>
        <extensions>
          <ns3:TrackPointExtension>
            <ns3:atemp>20.0</ns3:atemp>
          </ns3:TrackPointExtension>
        </extensions>
      </trkpt>
      <trkpt lat="42.5224027968943119049072265625" lon="19.85310159623622894287109375">
        <ele>1170.199951171875</ele>
        <time>2026-06-17T12:55:03.000Z</time>
        <extensions>
          <ns3:TrackPointExtension>
            <ns3:atemp>20.0</ns3:atemp>
          </ns3:TrackPointExtension>
        </extensions>
      </trkpt>
      <trkpt lat="42.52242869697511196136474609375" lon="19.85295248217880725860595703125">
        <ele>1168</ele>
        <time>2026-06-17T12:55:04.000Z</time>
        <extensions>
          <ns3:TrackPointExtension>
            <ns3:atemp>20.0</ns3:atemp>
          </ns3:TrackPointExtension>
        </extensions>
      </trkpt>
      <trkpt lat="42.52246842719614505767822265625" lon="19.85280764289200305938720703125">
        <ele>1166.199951171875</ele>
        <time>2026-06-17T12:55:05.000Z</time>
        <extensions>
          <ns3:TrackPointExtension>
            <ns3:atemp>20.0</ns3:atemp>
          </ns3:TrackPointExtension>
        </extensions>
      </trkpt>
      <trkpt lat="42.52251528203487396240234375" lon="19.852674789726734161376953125">
        <ele>1164.5999755859375</ele>
        <time>2026-06-17T12:55:06.000Z</time>
        <extensions>
          <ns3:TrackPointExtension>
            <ns3:atemp>20.0</ns3:atemp>
          </ns3:TrackPointExtension>
        </extensions>
      </trkpt>
      <trkpt lat="42.522562555968761444091796875" lon="19.85255316831171512603759765625">
        <ele>1163.199951171875</ele>
        <time>2026-06-17T12:55:07.000Z</time>
        <extensions>
          <ns3:TrackPointExtension>
            <ns3:atemp>20.0</ns3:atemp>
          </ns3:TrackPointExtension>
        </extensions>
      </trkpt>
      <trkpt lat="42.522598765790462493896484375" lon="19.85243330709636211395263671875">
        <ele>1162</ele>
        <time>2026-06-17T12:55:08.000Z</time>
        <extensions>
          <ns3:TrackPointExtension>
            <ns3:atemp>20.0</ns3:atemp>
          </ns3:TrackPointExtension>
        </extensions>
      </trkpt>
      <trkpt lat="42.5226381607353687286376953125" lon="19.8523175530135631561279296875">
        <ele>1160.800048828125</ele>
        <time>2026-06-17T12:55:09.000Z</time>
        <extensions>
          <ns3:TrackPointExtension>
            <ns3:atemp>20.0</ns3:atemp>
          </ns3:TrackPointExtension>
        </extensions>
      </trkpt>
      <trkpt lat="42.52268292009830474853515625" lon="19.85220481641590595245361328125">
        <ele>1159.199951171875</ele>
        <time>2026-06-17T12:55:10.000Z</time>
        <extensions>
          <ns3:TrackPointExtension>
            <ns3:atemp>20.0</ns3:atemp>
          </ns3:TrackPointExtension>
        </extensions>
      </trkpt>
      <trkpt lat="42.522735558450222015380859375" lon="19.85209333710372447967529296875">
        <ele>1158</ele>
        <time>2026-06-17T12:55:11.000Z</time>
        <extensions>
          <ns3:TrackPointExtension>
            <ns3:atemp>20.0</ns3:atemp>
          </ns3:TrackPointExtension>
        </extensions>
      </trkpt>
      <trkpt lat="42.52279196865856647491455078125" lon="19.85199744813144207000732421875">
        <ele>1156.5999755859375</ele>
        <time>2026-06-17T12:55:12.000Z</time>
        <extensions>
          <ns3:TrackPointExtension>
            <ns3:atemp>20.0</ns3:atemp>
          </ns3:TrackPointExtension>
        </extensions>
      </trkpt>
      <trkpt lat="42.52285592257976531982421875" lon="19.851909689605236053466796875">
        <ele>1155.199951171875</ele>
        <time>2026-06-17T12:55:13.000Z</time>
        <extensions>
          <ns3:TrackPointExtension>
            <ns3:atemp>20.0</ns3:atemp>
          </ns3:TrackPointExtension>
        </extensions>
      </trkpt>
      <trkpt lat="42.52293244935572147369384765625" lon="19.851849339902400970458984375">
        <ele>1153.800048828125</ele>
        <time>2026-06-17T12:55:14.000Z</time>
        <extensions>
          <ns3:TrackPointExtension>
            <ns3:atemp>20.0</ns3:atemp>
          </ns3:TrackPointExtension>
        </extensions>
      </trkpt>
      <trkpt lat="42.52301878295838832855224609375" lon="19.85180449672043323516845703125">
        <ele>1152.199951171875</ele>
        <time>2026-06-17T12:55:15.000Z</time>
        <extensions>
          <ns3:TrackPointExtension>
            <ns3:atemp>20.0</ns3:atemp>
          </ns3:TrackPointExtension>
        </extensions>
      </trkpt>
      <trkpt lat="42.52310679294168949127197265625" lon="19.8517552949488162994384765625">
        <ele>1150.4000244140625</ele>
        <time>2026-06-17T12:55:16.000Z</time>
        <extensions>
          <ns3:TrackPointExtension>
            <ns3:atemp>20.0</ns3:atemp>
          </ns3:TrackPointExtension>
        </extensions>
      </trkpt>
      <trkpt lat="42.52318675629794597625732421875" lon="19.85169787891209125518798828125">
        <ele>1149</ele>
        <time>2026-06-17T12:55:17.000Z</time>
        <extensions>
          <ns3:TrackPointExtension>
            <ns3:atemp>20.0</ns3:atemp>
          </ns3:TrackPointExtension>
        </extensions>
      </trkpt>
      <trkpt lat="42.52326806075870990753173828125" lon="19.85163954086601734161376953125">
        <ele>1147.800048828125</ele>
        <time>2026-06-17T12:55:18.000Z</time>
        <extensions>
          <ns3:TrackPointExtension>
            <ns3:atemp>20.0</ns3:atemp>
          </ns3:TrackPointExtension>
        </extensions>
      </trkpt>
      <trkpt lat="42.52335238270461559295654296875" lon="19.85157483257353305816650390625">
        <ele>1146.5999755859375</ele>
        <time>2026-06-17T12:55:19.000Z</time>
        <extensions>
          <ns3:TrackPointExtension>
            <ns3:atemp>20.0</ns3:atemp>
          </ns3:TrackPointExtension>
        </extensions>
      </trkpt>
      <trkpt lat="42.52344056032598018646240234375" lon="19.8514941148459911346435546875">
        <ele>1145.4000244140625</ele>
        <time>2026-06-17T12:55:20.000Z</time>
        <extensions>
          <ns3:TrackPointExtension>
            <ns3:atemp>20.0</ns3:atemp>
          </ns3:TrackPointExtension>
        </extensions>
      </trkpt>
      <trkpt lat="42.523518763482570648193359375" lon="19.85141373239457607269287109375">
        <ele>1144.199951171875</ele>
        <time>2026-06-17T12:55:21.000Z</time>
        <extensions>
          <ns3:TrackPointExtension>
            <ns3:atemp>20.0</ns3:atemp>
          </ns3:TrackPointExtension>
        </extensions>
      </trkpt>
      <trkpt lat="42.523599229753017425537109375" lon="19.8513274826109409332275390625">
        <ele>1142.800048828125</ele>
        <time>2026-06-17T12:55:22.000Z</time>
        <extensions>
          <ns3:TrackPointExtension>
            <ns3:atemp>20.0</ns3:atemp>
          </ns3:TrackPointExtension>
        </extensions>
      </trkpt>
      <trkpt lat="42.52368271350860595703125" lon="19.8512423224747180938720703125">
        <ele>1141.5999755859375</ele>
        <time>2026-06-17T12:55:23.000Z</time>
        <extensions>
          <ns3:TrackPointExtension>
            <ns3:atemp>20.0</ns3:atemp>
          </ns3:TrackPointExtension>
        </extensions>
      </trkpt>
      <trkpt lat="42.523771226406097412109375" lon="19.8511635325849056243896484375">
        <ele>1140.199951171875</ele>
        <time>2026-06-17T12:55:24.000Z</time>
        <extensions>
          <ns3:TrackPointExtension>
            <ns3:atemp>20.0</ns3:atemp>
          </ns3:TrackPointExtension>
        </extensions>
      </trkpt>
      <trkpt lat="42.5238629244267940521240234375" lon="19.85107828862965106964111328125">
        <ele>1138.800048828125</ele>
        <time>2026-06-17T12:55:25.000Z</time>
        <extensions>
          <ns3:TrackPointExtension>
            <ns3:atemp>20.0</ns3:atemp>
          </ns3:TrackPointExtension>
        </extensions>
      </trkpt>
      <trkpt lat="42.5239564664661884307861328125" lon="19.85099480487406253814697265625">
        <ele>1137.4000244140625</ele>
        <time>2026-06-17T12:55:26.000Z</time>
        <extensions>
          <ns3:TrackPointExtension>
            <ns3:atemp>20.0</ns3:atemp>
          </ns3:TrackPointExtension>
        </extensions>
      </trkpt>
      <trkpt lat="42.52405227161943912506103515625" lon="19.85090428031980991363525390625">
        <ele>1136</ele>
        <time>2026-06-17T12:55:27.000Z</time>
        <extensions>
          <ns3:TrackPointExtension>
            <ns3:atemp>20.0</ns3:atemp>
          </ns3:TrackPointExtension>
        </extensions>
      </trkpt>
      <trkpt lat="42.52414874732494354248046875" lon="19.85081274993717670440673828125">
        <ele>1134</ele>
        <time>2026-06-17T12:55:28.000Z</time>
        <extensions>
          <ns3:TrackPointExtension>
            <ns3:atemp>20.0</ns3:atemp>
          </ns3:TrackPointExtension>
        </extensions>
      </trkpt>
      <trkpt lat="42.5242471508681774139404296875" lon="19.85072507523000240325927734375">
        <ele>1132.4000244140625</ele>
        <time>2026-06-17T12:55:29.000Z</time>
        <extensions>
          <ns3:TrackPointExtension>
            <ns3:atemp>20.0</ns3:atemp>
          </ns3:TrackPointExtension>
        </extensions>
      </trkpt>
      <trkpt lat="42.52433708868920803070068359375" lon="19.85063723288476467132568359375">
        <ele>1130.800048828125</ele>
        <time>2026-06-17T12:55:30.000Z</time>
        <extensions>
          <ns3:TrackPointExtension>
            <ns3:atemp>20.0</ns3:atemp>
          </ns3:TrackPointExtension>
        </extensions>
      </trkpt>
      <trkpt lat="42.524411939084529876708984375" lon="19.85054813325405120849609375">
        <ele>1129.4000244140625</ele>
        <time>2026-06-17T12:55:31.000Z</time>
        <extensions>
          <ns3:TrackPointExtension>
            <ns3:atemp>20.0</ns3:atemp>
          </ns3:TrackPointExtension>
        </extensions>
      </trkpt>
      <trkpt lat="42.5244727917015552520751953125" lon="19.8504540883004665374755859375">
        <ele>1128.199951171875</ele>
        <time>2026-06-17T12:55:32.000Z</time>
        <extensions>
          <ns3:TrackPointExtension>
            <ns3:atemp>20.0</ns3:atemp>
          </ns3:TrackPointExtension>
        </extensions>
      </trkpt>
      <trkpt lat="42.5245234183967113494873046875" lon="19.8503578640520572662353515625">
        <ele>1127.199951171875</ele>
        <time>2026-06-17T12:55:33.000Z</time>
        <extensions>
          <ns3:TrackPointExtension>
            <ns3:atemp>20.0</ns3:atemp>
          </ns3:TrackPointExtension>
        </extensions>
      </trkpt>
      <trkpt lat="42.52456826157867908477783203125" lon="19.850259460508823394775390625">
        <ele>1126.199951171875</ele>
        <time>2026-06-17T12:55:34.000Z</time>
        <extensions>
          <ns3:TrackPointExtension>
            <ns3:atemp>20.0</ns3:atemp>
          </ns3:TrackPointExtension>
        </extensions>
      </trkpt>
      <trkpt lat="42.52460950054228305816650390625" lon="19.85016591846942901611328125">
        <ele>1125.5999755859375</ele>
        <time>2026-06-17T12:55:35.000Z</time>
        <extensions>
          <ns3:TrackPointExtension>
            <ns3:atemp>20.0</ns3:atemp>
          </ns3:TrackPointExtension>
        </extensions>
      </trkpt>
      <trkpt lat="42.524656020104885101318359375" lon="19.85007246024906635284423828125">
        <ele>1124.800048828125</ele>
        <time>2026-06-17T12:55:36.000Z</time>
        <extensions>
          <ns3:TrackPointExtension>
            <ns3:atemp>20.0</ns3:atemp>
          </ns3:TrackPointExtension>
        </extensions>
      </trkpt>
      <trkpt lat="42.52470706589519977569580078125" lon="19.84997682273387908935546875">
        <ele>1123.800048828125</ele>
        <time>2026-06-17T12:55:37.000Z</time>
        <extensions>
          <ns3:TrackPointExtension>
            <ns3:atemp>20.0</ns3:atemp>
          </ns3:TrackPointExtension>
        </extensions>
      </trkpt>
      <trkpt lat="42.5247607938945293426513671875" lon="19.84988068230450153350830078125">
        <ele>1122.800048828125</ele>
        <time>2026-06-17T12:55:38.000Z</time>
        <extensions>
          <ns3:TrackPointExtension>
            <ns3:atemp>20.0</ns3:atemp>
          </ns3:TrackPointExtension>
        </extensions>
      </trkpt>
      <trkpt lat="42.52482374198734760284423828125" lon="19.84979711472988128662109375">
        <ele>1121.5999755859375</ele>
        <time>2026-06-17T12:55:39.000Z</time>
        <extensions>
          <ns3:TrackPointExtension>
            <ns3:atemp>20.0</ns3:atemp>
          </ns3:TrackPointExtension>
        </extensions>
      </trkpt>
      <trkpt lat="42.52488744445145130157470703125" lon="19.8497312329709529876708984375">
        <ele>1120</ele>
        <time>2026-06-17T12:55:40.000Z</time>
        <extensions>
          <ns3:TrackPointExtension>
            <ns3:atemp>20.0</ns3:atemp>
          </ns3:TrackPointExtension>
        </extensions>
      </trkpt>
      <trkpt lat="42.5249401666224002838134765625" lon="19.8496863059699535369873046875">
        <ele>1118.5999755859375</ele>
        <time>2026-06-17T12:55:41.000Z</time>
        <extensions>
          <ns3:TrackPointExtension>
            <ns3:atemp>20.0</ns3:atemp>
          </ns3:TrackPointExtension>
        </extensions>
      </trkpt>
      <trkpt lat="42.52497226931154727935791015625" lon="19.849654622375965118408203125">
        <ele>1117.199951171875</ele>
        <time>2026-06-17T12:55:42.000Z</time>
        <extensions>
          <ns3:TrackPointExtension>
            <ns3:atemp>20.0</ns3:atemp>
          </ns3:TrackPointExtension>
        </extensions>
      </trkpt>
      <trkpt lat="42.5249820761382579803466796875" lon="19.84963894821703433990478515625">
        <ele>1116</ele>
        <time>2026-06-17T12:55:43.000Z</time>
        <extensions>
          <ns3:TrackPointExtension>
            <ns3:atemp>20.0</ns3:atemp>
          </ns3:TrackPointExtension>
        </extensions>
      </trkpt>
      <trkpt lat="42.52498383633792400360107421875" lon="19.8496390320360660552978515625">
        <ele>1115.199951171875</ele>
        <time>2026-06-17T12:55:44.000Z</time>
        <extensions>
          <ns3:TrackPointExtension>
            <ns3:atemp>20.0</ns3:atemp>
          </ns3:TrackPointExtension>
        </extensions>
      </trkpt>
      <trkpt lat="42.5249837525188922882080078125" lon="19.84963894821703433990478515625">
        <ele>1114.4000244140625</ele>
        <time>2026-06-17T12:55:45.000Z</time>
        <extensions>
          <ns3:TrackPointExtension>
            <ns3:atemp>20.0</ns3:atemp>
          </ns3:TrackPointExtension>
        </extensions>
      </trkpt>
      <trkpt lat="42.5249837525188922882080078125" lon="19.84963894821703433990478515625">
        <ele>1113.5999755859375</ele>
        <time>2026-06-17T12:55:46.000Z</time>
        <extensions>
          <ns3:TrackPointExtension>
            <ns3:atemp>20.0</ns3:atemp>
          </ns3:TrackPointExtension>
        </extensions>
      </trkpt>
      <trkpt lat="42.5249837525188922882080078125" lon="19.84963894821703433990478515625">
        <ele>1113.4000244140625</ele>
        <time>2026-06-17T12:55:47.000Z</time>
        <extensions>
          <ns3:TrackPointExtension>
            <ns3:atemp>20.0</ns3:atemp>
          </ns3:TrackPointExtension>
        </extensions>
      </trkpt>
      <trkpt lat="42.5249837525188922882080078125" lon="19.84963894821703433990478515625">
        <ele>1113</ele>
        <time>2026-06-17T12:55:48.000Z</time>
        <extensions>
          <ns3:TrackPointExtension>
            <ns3:atemp>20.0</ns3:atemp>
          </ns3:TrackPointExtension>
        </extensions>
      </trkpt>
      <trkpt lat="42.5249837525188922882080078125" lon="19.84963894821703433990478515625">
        <ele>1112.800048828125</ele>
        <time>2026-06-17T12:55:49.000Z</time>
        <extensions>
          <ns3:TrackPointExtension>
            <ns3:atemp>20.0</ns3:atemp>
          </ns3:TrackPointExtension>
        </extensions>
      </trkpt>
      <trkpt lat="42.5249837525188922882080078125" lon="19.84963894821703433990478515625">
        <ele>1112.5999755859375</ele>
        <time>2026-06-17T12:55:50.000Z</time>
        <extensions>
          <ns3:TrackPointExtension>
            <ns3:atemp>20.0</ns3:atemp>
          </ns3:TrackPointExtension>
        </extensions>
      </trkpt>
      <trkpt lat="42.5249837525188922882080078125" lon="19.84963894821703433990478515625">
        <ele>1112.5999755859375</ele>
        <time>2026-06-17T12:55:51.000Z</time>
        <extensions>
          <ns3:TrackPointExtension>
            <ns3:atemp>20.0</ns3:atemp>
          </ns3:TrackPointExtension>
        </extensions>
      </trkpt>
      <trkpt lat="42.5249837525188922882080078125" lon="19.84963894821703433990478515625">
        <ele>1112.4000244140625</ele>
        <time>2026-06-17T12:55:52.000Z</time>
        <extensions>
          <ns3:TrackPointExtension>
            <ns3:atemp>20.0</ns3:atemp>
          </ns3:TrackPointExtension>
        </extensions>
      </trkpt>
      <trkpt lat="42.5249837525188922882080078125" lon="19.84963894821703433990478515625">
        <ele>1112.4000244140625</ele>
        <time>2026-06-17T12:55:53.000Z</time>
        <extensions>
          <ns3:TrackPointExtension>
            <ns3:atemp>20.0</ns3:atemp>
          </ns3:TrackPointExtension>
        </extensions>
      </trkpt>
      <trkpt lat="42.5249837525188922882080078125" lon="19.84963894821703433990478515625">
        <ele>1112.4000244140625</ele>
        <time>2026-06-17T12:55:54.000Z</time>
        <extensions>
          <ns3:TrackPointExtension>
            <ns3:atemp>20.0</ns3:atemp>
          </ns3:TrackPointExtension>
        </extensions>
      </trkpt>
      <trkpt lat="42.5249837525188922882080078125" lon="19.84963894821703433990478515625">
        <ele>1112.4000244140625</ele>
        <time>2026-06-17T12:55:55.000Z</time>
        <extensions>
          <ns3:TrackPointExtension>
            <ns3:atemp>20.0</ns3:atemp>
          </ns3:TrackPointExtension>
        </extensions>
      </trkpt>
      <trkpt lat="42.5249837525188922882080078125" lon="19.84963894821703433990478515625">
        <ele>1112.4000244140625</ele>
        <time>2026-06-17T12:55:56.000Z</time>
        <extensions>
          <ns3:TrackPointExtension>
            <ns3:atemp>20.0</ns3:atemp>
          </ns3:TrackPointExtension>
        </extensions>
      </trkpt>
      <trkpt lat="42.5249837525188922882080078125" lon="19.84963894821703433990478515625">
        <ele>1112.4000244140625</ele>
        <time>2026-06-17T12:55:57.000Z</time>
        <extensions>
          <ns3:TrackPointExtension>
            <ns3:atemp>20.0</ns3:atemp>
          </ns3:TrackPointExtension>
        </extensions>
      </trkpt>
      <trkpt lat="42.5249837525188922882080078125" lon="19.84963894821703433990478515625">
        <ele>1112.199951171875</ele>
        <time>2026-06-17T12:55:58.000Z</time>
        <extensions>
          <ns3:TrackPointExtension>
            <ns3:atemp>20.0</ns3:atemp>
          </ns3:TrackPointExtension>
        </extensions>
      </trkpt>
      <trkpt lat="42.5249837525188922882080078125" lon="19.84963894821703433990478515625">
        <ele>1112.199951171875</ele>
        <time>2026-06-17T12:55:59.000Z</time>
        <extensions>
          <ns3:TrackPointExtension>
            <ns3:atemp>20.0</ns3:atemp>
          </ns3:TrackPointExtension>
        </extensions>
      </trkpt>
      <trkpt lat="42.52498417161405086517333984375" lon="19.84964129514992237091064453125">
        <ele>1112.199951171875</ele>
        <time>2026-06-17T12:56:00.000Z</time>
        <extensions>
          <ns3:TrackPointExtension>
            <ns3:atemp>20.0</ns3:atemp>
          </ns3:TrackPointExtension>
        </extensions>
      </trkpt>
      <trkpt lat="42.52498718909919261932373046875" lon="19.8496309854090213775634765625">
        <ele>1112.199951171875</ele>
        <time>2026-06-17T12:56:01.000Z</time>
        <extensions>
          <ns3:TrackPointExtension>
            <ns3:atemp>20.0</ns3:atemp>
          </ns3:TrackPointExtension>
        </extensions>
      </trkpt>
      <trkpt lat="42.5249901227653026580810546875" lon="19.84960692934691905975341796875">
        <ele>1112</ele>
        <time>2026-06-17T12:56:02.000Z</time>
        <extensions>
          <ns3:TrackPointExtension>
            <ns3:atemp>20.0</ns3:atemp>
          </ns3:TrackPointExtension>
        </extensions>
      </trkpt>
      <trkpt lat="42.52499322406947612762451171875" lon="19.84956300817430019378662109375">
        <ele>1112</ele>
        <time>2026-06-17T12:56:03.000Z</time>
        <extensions>
          <ns3:TrackPointExtension>
            <ns3:atemp>20.0</ns3:atemp>
          </ns3:TrackPointExtension>
        </extensions>
      </trkpt>
      <trkpt lat="42.52499674446880817413330078125" lon="19.8495156504213809967041015625">
        <ele>1111.5999755859375</ele>
        <time>2026-06-17T12:56:04.000Z</time>
        <extensions>
          <ns3:TrackPointExtension>
            <ns3:atemp>20.0</ns3:atemp>
          </ns3:TrackPointExtension>
        </extensions>
      </trkpt>
      <trkpt lat="42.52500076778233051300048828125" lon="19.8494646884500980377197265625">
        <ele>1111.199951171875</ele>
        <time>2026-06-17T12:56:05.000Z</time>
        <extensions>
          <ns3:TrackPointExtension>
            <ns3:atemp>20.0</ns3:atemp>
          </ns3:TrackPointExtension>
        </extensions>
      </trkpt>
      <trkpt lat="42.52500194124877452850341796875" lon="19.8494117148220539093017578125">
        <ele>1110.5999755859375</ele>
        <time>2026-06-17T12:56:06.000Z</time>
        <extensions>
          <ns3:TrackPointExtension>
            <ns3:atemp>20.0</ns3:atemp>
          </ns3:TrackPointExtension>
        </extensions>
      </trkpt>
      <trkpt lat="42.52500210888683795928955078125" lon="19.849352203309535980224609375">
        <ele>1110</ele>
        <time>2026-06-17T12:56:07.000Z</time>
        <extensions>
          <ns3:TrackPointExtension>
            <ns3:atemp>20.0</ns3:atemp>
          </ns3:TrackPointExtension>
        </extensions>
      </trkpt>
      <trkpt lat="42.52500210888683795928955078125" lon="19.84929294325411319732666015625">
        <ele>1109.4000244140625</ele>
        <time>2026-06-17T12:56:08.000Z</time>
        <extensions>
          <ns3:TrackPointExtension>
            <ns3:atemp>20.0</ns3:atemp>
          </ns3:TrackPointExtension>
        </extensions>
      </trkpt>
      <trkpt lat="42.52499909140169620513916015625" lon="19.8492299951612949371337890625">
        <ele>1108.800048828125</ele>
        <time>2026-06-17T12:56:09.000Z</time>
        <extensions>
          <ns3:TrackPointExtension>
            <ns3:atemp>20.0</ns3:atemp>
          </ns3:TrackPointExtension>
        </extensions>
      </trkpt>
      <trkpt lat="42.52500168979167938232421875" lon="19.84916654415428638458251953125">
        <ele>1108</ele>
        <time>2026-06-17T12:56:10.000Z</time>
        <extensions>
          <ns3:TrackPointExtension>
            <ns3:atemp>20.0</ns3:atemp>
          </ns3:TrackPointExtension>
        </extensions>
      </trkpt>
      <trkpt lat="42.52501049079000949859619140625" lon="19.84910778701305389404296875">
        <ele>1107.199951171875</ele>
        <time>2026-06-17T12:56:11.000Z</time>
        <extensions>
          <ns3:TrackPointExtension>
            <ns3:atemp>20.0</ns3:atemp>
          </ns3:TrackPointExtension>
        </extensions>
      </trkpt>
      <trkpt lat="42.52503379248082637786865234375" lon="19.84905355609953403472900390625">
        <ele>1106.5999755859375</ele>
        <time>2026-06-17T12:56:12.000Z</time>
        <extensions>
          <ns3:TrackPointExtension>
            <ns3:atemp>20.0</ns3:atemp>
          </ns3:TrackPointExtension>
        </extensions>
      </trkpt>
      <trkpt lat="42.52506203949451446533203125" lon="19.84899940900504589080810546875">
        <ele>1105.800048828125</ele>
        <time>2026-06-17T12:56:13.000Z</time>
        <extensions>
          <ns3:TrackPointExtension>
            <ns3:atemp>20.0</ns3:atemp>
          </ns3:TrackPointExtension>
        </extensions>
      </trkpt>
      <trkpt lat="42.5250933878123760223388671875" lon="19.84894526191055774688720703125">
        <ele>1105</ele>
        <time>2026-06-17T12:56:14.000Z</time>
        <extensions>
          <ns3:TrackPointExtension>
            <ns3:atemp>20.0</ns3:atemp>
          </ns3:TrackPointExtension>
        </extensions>
      </trkpt>
      <trkpt lat="42.52512582577764987945556640625" lon="19.84888776205480098724365234375">
        <ele>1104</ele>
        <time>2026-06-17T12:56:15.000Z</time>
        <extensions>
          <ns3:TrackPointExtension>
            <ns3:atemp>20.0</ns3:atemp>
          </ns3:TrackPointExtension>
        </extensions>
      </trkpt>
      <trkpt lat="42.52515952102839946746826171875" lon="19.848829172551631927490234375">
        <ele>1102.800048828125</ele>
        <time>2026-06-17T12:56:16.000Z</time>
        <extensions>
          <ns3:TrackPointExtension>
            <ns3:atemp>20.0</ns3:atemp>
          </ns3:TrackPointExtension>
        </extensions>
      </trkpt>
      <trkpt lat="42.52519749104976654052734375" lon="19.84876991249620914459228515625">
        <ele>1102</ele>
        <time>2026-06-17T12:56:17.000Z</time>
        <extensions>
          <ns3:TrackPointExtension>
            <ns3:atemp>20.0</ns3:atemp>
          </ns3:TrackPointExtension>
        </extensions>
      </trkpt>
      <trkpt lat="42.5252375565469264984130859375" lon="19.8487119935452938079833984375">
        <ele>1100.800048828125</ele>
        <time>2026-06-17T12:56:18.000Z</time>
        <extensions>
          <ns3:TrackPointExtension>
            <ns3:atemp>20.0</ns3:atemp>
          </ns3:TrackPointExtension>
        </extensions>
      </trkpt>
      <trkpt lat="42.52527720294892787933349609375" lon="19.8486549966037273406982421875">
        <ele>1099.800048828125</ele>
        <time>2026-06-17T12:56:19.000Z</time>
        <extensions>
          <ns3:TrackPointExtension>
            <ns3:atemp>20.0</ns3:atemp>
          </ns3:TrackPointExtension>
        </extensions>
      </trkpt>
      <trkpt lat="42.5253193639218807220458984375" lon="19.848600514233112335205078125">
        <ele>1098.800048828125</ele>
        <time>2026-06-17T12:56:20.000Z</time>
        <extensions>
          <ns3:TrackPointExtension>
            <ns3:atemp>20.0</ns3:atemp>
          </ns3:TrackPointExtension>
        </extensions>
      </trkpt>
      <trkpt lat="42.525364458560943603515625" lon="19.84855256974697113037109375">
        <ele>1097.5999755859375</ele>
        <time>2026-06-17T12:56:21.000Z</time>
        <extensions>
          <ns3:TrackPointExtension>
            <ns3:atemp>20.0</ns3:atemp>
          </ns3:TrackPointExtension>
        </extensions>
      </trkpt>
      <trkpt lat="42.5254122354090213775634765625" lon="19.8484982550144195556640625">
        <ele>1096</ele>
        <time>2026-06-17T12:56:22.000Z</time>
        <extensions>
          <ns3:TrackPointExtension>
            <ns3:atemp>20.0</ns3:atemp>
          </ns3:TrackPointExtension>
        </extensions>
      </trkpt>
      <trkpt lat="42.525455653667449951171875" lon="19.84844394028186798095703125">
        <ele>1095.4000244140625</ele>
        <time>2026-06-17T12:56:23.000Z</time>
        <extensions>
          <ns3:TrackPointExtension>
            <ns3:atemp>20.0</ns3:atemp>
          </ns3:TrackPointExtension>
        </extensions>
      </trkpt>
      <trkpt lat="42.52549462951719760894775390625" lon="19.84838602133095264434814453125">
        <ele>1093.5999755859375</ele>
        <time>2026-06-17T12:56:24.000Z</time>
        <extensions>
          <ns3:TrackPointExtension>
            <ns3:atemp>20.0</ns3:atemp>
          </ns3:TrackPointExtension>
        </extensions>
      </trkpt>
      <trkpt lat="42.52552346326410770416259765625" lon="19.84832198359072208404541015625">
        <ele>1092.199951171875</ele>
        <time>2026-06-17T12:56:25.000Z</time>
        <extensions>
          <ns3:TrackPointExtension>
            <ns3:atemp>20.0</ns3:atemp>
          </ns3:TrackPointExtension>
        </extensions>
      </trkpt>
      <trkpt lat="42.52554542385041713714599609375" lon="19.848253838717937469482421875">
        <ele>1091</ele>
        <time>2026-06-17T12:56:26.000Z</time>
        <extensions>
          <ns3:TrackPointExtension>
            <ns3:atemp>20.0</ns3:atemp>
          </ns3:TrackPointExtension>
        </extensions>
      </trkpt>
      <trkpt lat="42.52555917017161846160888671875" lon="19.8481825925409793853759765625">
        <ele>1089.4000244140625</ele>
        <time>2026-06-17T12:56:27.000Z</time>
        <extensions>
          <ns3:TrackPointExtension>
            <ns3:atemp>20.0</ns3:atemp>
          </ns3:TrackPointExtension>
        </extensions>
      </trkpt>
      <trkpt lat="42.5255751796066761016845703125" lon="19.84810891561210155487060546875">
        <ele>1088.4000244140625</ele>
        <time>2026-06-17T12:56:28.000Z</time>
        <extensions>
          <ns3:TrackPointExtension>
            <ns3:atemp>20.0</ns3:atemp>
          </ns3:TrackPointExtension>
        </extensions>
      </trkpt>
      <trkpt lat="42.52559848129749298095703125" lon="19.84802744351327419281005859375">
        <ele>1087.199951171875</ele>
        <time>2026-06-17T12:56:29.000Z</time>
        <extensions>
          <ns3:TrackPointExtension>
            <ns3:atemp>20.0</ns3:atemp>
          </ns3:TrackPointExtension>
        </extensions>
      </trkpt>
      <trkpt lat="42.525621950626373291015625" lon="19.84794110991060733795166015625">
        <ele>1085.800048828125</ele>
        <time>2026-06-17T12:56:30.000Z</time>
        <extensions>
          <ns3:TrackPointExtension>
            <ns3:atemp>20.0</ns3:atemp>
          </ns3:TrackPointExtension>
        </extensions>
      </trkpt>
      <trkpt lat="42.52563913352787494659423828125" lon="19.8478572070598602294921875">
        <ele>1084.4000244140625</ele>
        <time>2026-06-17T12:56:31.000Z</time>
        <extensions>
          <ns3:TrackPointExtension>
            <ns3:atemp>20.0</ns3:atemp>
          </ns3:TrackPointExtension>
        </extensions>
      </trkpt>
      <trkpt lat="42.52565807662904262542724609375" lon="19.84776844270527362823486328125">
        <ele>1083.199951171875</ele>
        <time>2026-06-17T12:56:32.000Z</time>
        <extensions>
          <ns3:TrackPointExtension>
            <ns3:atemp>20.0</ns3:atemp>
          </ns3:TrackPointExtension>
        </extensions>
      </trkpt>
      <trkpt lat="42.52567383460700511932373046875" lon="19.8476769961416721343994140625">
        <ele>1081.800048828125</ele>
        <time>2026-06-17T12:56:33.000Z</time>
        <extensions>
          <ns3:TrackPointExtension>
            <ns3:atemp>20.0</ns3:atemp>
          </ns3:TrackPointExtension>
        </extensions>
      </trkpt>
      <trkpt lat="42.52568758092820644378662109375" lon="19.84758429229259490966796875">
        <ele>1080.199951171875</ele>
        <time>2026-06-17T12:56:34.000Z</time>
        <extensions>
          <ns3:TrackPointExtension>
            <ns3:atemp>20.0</ns3:atemp>
          </ns3:TrackPointExtension>
        </extensions>
      </trkpt>
      <trkpt lat="42.52569830976426601409912109375" lon="19.84748932532966136932373046875">
        <ele>1078.800048828125</ele>
        <time>2026-06-17T12:56:35.000Z</time>
        <extensions>
          <ns3:TrackPointExtension>
            <ns3:atemp>20.0</ns3:atemp>
          </ns3:TrackPointExtension>
        </extensions>
      </trkpt>
      <trkpt lat="42.52570367418229579925537109375" lon="19.8473886586725711822509765625">
        <ele>1077.4000244140625</ele>
        <time>2026-06-17T12:56:36.000Z</time>
        <extensions>
          <ns3:TrackPointExtension>
            <ns3:atemp>20.0</ns3:atemp>
          </ns3:TrackPointExtension>
        </extensions>
      </trkpt>
      <trkpt lat="42.52570870332419872283935546875" lon="19.847279526293277740478515625">
        <ele>1076</ele>
        <time>2026-06-17T12:56:37.000Z</time>
        <extensions>
          <ns3:TrackPointExtension>
            <ns3:atemp>20.0</ns3:atemp>
          </ns3:TrackPointExtension>
        </extensions>
      </trkpt>
      <trkpt lat="42.52571222372353076934814453125" lon="19.84717165119946002960205078125">
        <ele>1074.5999755859375</ele>
        <time>2026-06-17T12:56:38.000Z</time>
        <extensions>
          <ns3:TrackPointExtension>
            <ns3:atemp>20.0</ns3:atemp>
          </ns3:TrackPointExtension>
        </extensions>
      </trkpt>
      <trkpt lat="42.52571172080934047698974609375" lon="19.847068302333354949951171875">
        <ele>1073</ele>
        <time>2026-06-17T12:56:39.000Z</time>
        <extensions>
          <ns3:TrackPointExtension>
            <ns3:atemp>20.0</ns3:atemp>
          </ns3:TrackPointExtension>
        </extensions>
      </trkpt>
      <trkpt lat="42.52572119235992431640625" lon="19.84696696512401103973388671875">
        <ele>1071.199951171875</ele>
        <time>2026-06-17T12:56:40.000Z</time>
        <extensions>
          <ns3:TrackPointExtension>
            <ns3:atemp>20.0</ns3:atemp>
          </ns3:TrackPointExtension>
        </extensions>
      </trkpt>
      <trkpt lat="42.52574189566075801849365234375" lon="19.8468626104295253753662109375">
        <ele>1069.5999755859375</ele>
        <time>2026-06-17T12:56:41.000Z</time>
        <extensions>
          <ns3:TrackPointExtension>
            <ns3:atemp>20.0</ns3:atemp>
          </ns3:TrackPointExtension>
        </extensions>
      </trkpt>
      <trkpt lat="42.52576938830316066741943359375" lon="19.84676814638078212738037109375">
        <ele>1068</ele>
        <time>2026-06-17T12:56:42.000Z</time>
        <extensions>
          <ns3:TrackPointExtension>
            <ns3:atemp>20.0</ns3:atemp>
          </ns3:TrackPointExtension>
        </extensions>
      </trkpt>
      <trkpt lat="42.52579805441200733184814453125" lon="19.84667561016976833343505859375">
        <ele>1066.4000244140625</ele>
        <time>2026-06-17T12:56:43.000Z</time>
        <extensions>
          <ns3:TrackPointExtension>
            <ns3:atemp>20.0</ns3:atemp>
          </ns3:TrackPointExtension>
        </extensions>
      </trkpt>
      <trkpt lat="42.52581842243671417236328125" lon="19.84658391214907169342041015625">
        <ele>1064.800048828125</ele>
        <time>2026-06-17T12:56:44.000Z</time>
        <extensions>
          <ns3:TrackPointExtension>
            <ns3:atemp>20.0</ns3:atemp>
          </ns3:TrackPointExtension>
        </extensions>
      </trkpt>
      <trkpt lat="42.5258242897689342498779296875" lon="19.8465045355260372161865234375">
        <ele>1063.4000244140625</ele>
        <time>2026-06-17T12:56:45.000Z</time>
        <extensions>
          <ns3:TrackPointExtension>
            <ns3:atemp>20.0</ns3:atemp>
          </ns3:TrackPointExtension>
        </extensions>
      </trkpt>
      <trkpt lat="42.52583317458629608154296875" lon="19.84642197377979755401611328125">
        <ele>1061.4000244140625</ele>
        <time>2026-06-17T12:56:46.000Z</time>
        <extensions>
          <ns3:TrackPointExtension>
            <ns3:atemp>20.0</ns3:atemp>
          </ns3:TrackPointExtension>
        </extensions>
      </trkpt>
      <trkpt lat="42.52583476714789867401123046875" lon="19.8463375680148601531982421875">
        <ele>1060</ele>
        <time>2026-06-17T12:56:47.000Z</time>
        <extensions>
          <ns3:TrackPointExtension>
            <ns3:atemp>20.0</ns3:atemp>
          </ns3:TrackPointExtension>
        </extensions>
      </trkpt>
      <trkpt lat="42.525838874280452728271484375" lon="19.846242181956768035888671875">
        <ele>1058.5999755859375</ele>
        <time>2026-06-17T12:56:48.000Z</time>
        <extensions>
          <ns3:TrackPointExtension>
            <ns3:atemp>20.0</ns3:atemp>
          </ns3:TrackPointExtension>
        </extensions>
      </trkpt>
      <trkpt lat="42.52582353539764881134033203125" lon="19.8461387492716312408447265625">
        <ele>1057.4000244140625</ele>
        <time>2026-06-17T12:56:49.000Z</time>
        <extensions>
          <ns3:TrackPointExtension>
            <ns3:atemp>20.0</ns3:atemp>
          </ns3:TrackPointExtension>
        </extensions>
      </trkpt>
      <trkpt lat="42.5258058495819568634033203125" lon="19.84603690914809703826904296875">
        <ele>1056.199951171875</ele>
        <time>2026-06-17T12:56:50.000Z</time>
        <extensions>
          <ns3:TrackPointExtension>
            <ns3:atemp>20.0</ns3:atemp>
          </ns3:TrackPointExtension>
        </extensions>
      </trkpt>
      <trkpt lat="42.52579872496426105499267578125" lon="19.84592693857848644256591796875">
        <ele>1055</ele>
        <time>2026-06-17T12:56:51.000Z</time>
        <extensions>
          <ns3:TrackPointExtension>
            <ns3:atemp>20.0</ns3:atemp>
          </ns3:TrackPointExtension>
        </extensions>
      </trkpt>
      <trkpt lat="42.52579160034656524658203125" lon="19.84581646509468555450439453125">
        <ele>1053.199951171875</ele>
        <time>2026-06-17T12:56:52.000Z</time>
        <extensions>
          <ns3:TrackPointExtension>
            <ns3:atemp>20.0</ns3:atemp>
          </ns3:TrackPointExtension>
        </extensions>
      </trkpt>
      <trkpt lat="42.525783218443393707275390625" lon="19.8457042314112186431884765625">
        <ele>1052</ele>
        <time>2026-06-17T12:56:53.000Z</time>
        <extensions>
          <ns3:TrackPointExtension>
            <ns3:atemp>20.0</ns3:atemp>
          </ns3:TrackPointExtension>
        </extensions>
      </trkpt>
      <trkpt lat="42.52577542327344417572021484375" lon="19.84558680094778537750244140625">
        <ele>1050.5999755859375</ele>
        <time>2026-06-17T12:56:54.000Z</time>
        <extensions>
          <ns3:TrackPointExtension>
            <ns3:atemp>20.0</ns3:atemp>
          </ns3:TrackPointExtension>
        </extensions>
      </trkpt>
      <trkpt lat="42.5257652811706066131591796875" lon="19.84546761028468608856201171875">
        <ele>1049.4000244140625</ele>
        <time>2026-06-17T12:56:55.000Z</time>
        <extensions>
          <ns3:TrackPointExtension>
            <ns3:atemp>20.0</ns3:atemp>
          </ns3:TrackPointExtension>
        </extensions>
      </trkpt>
      <trkpt lat="42.52575798891484737396240234375" lon="19.8453448154032230377197265625">
        <ele>1048</ele>
        <time>2026-06-17T12:56:56.000Z</time>
        <extensions>
          <ns3:TrackPointExtension>
            <ns3:atemp>20.0</ns3:atemp>
          </ns3:TrackPointExtension>
        </extensions>
      </trkpt>
      <trkpt lat="42.5257575698196887969970703125" lon="19.8452318273484706878662109375">
        <ele>1046.5999755859375</ele>
        <time>2026-06-17T12:56:57.000Z</time>
        <extensions>
          <ns3:TrackPointExtension>
            <ns3:atemp>20.0</ns3:atemp>
          </ns3:TrackPointExtension>
        </extensions>
      </trkpt>
      <trkpt lat="42.52576083876192569732666015625" lon="19.84512059949338436126708984375">
        <ele>1045.4000244140625</ele>
        <time>2026-06-17T12:56:58.000Z</time>
        <extensions>
          <ns3:TrackPointExtension>
            <ns3:atemp>20.0</ns3:atemp>
          </ns3:TrackPointExtension>
        </extensions>
      </trkpt>
      <trkpt lat="42.52576922066509723663330078125" lon="19.8450222797691822052001953125">
        <ele>1044.199951171875</ele>
        <time>2026-06-17T12:56:59.000Z</time>
        <extensions>
          <ns3:TrackPointExtension>
            <ns3:atemp>20.0</ns3:atemp>
          </ns3:TrackPointExtension>
        </extensions>
      </trkpt>
      <trkpt lat="42.525774501264095306396484375" lon="19.8449421487748622894287109375">
        <ele>1043</ele>
        <time>2026-06-17T12:57:00.000Z</time>
        <extensions>
          <ns3:TrackPointExtension>
            <ns3:atemp>20.0</ns3:atemp>
          </ns3:TrackPointExtension>
        </extensions>
      </trkpt>
      <trkpt lat="42.5257716514170169830322265625" lon="19.8448764346539974212646484375">
        <ele>1042.199951171875</ele>
        <time>2026-06-17T12:57:01.000Z</time>
        <extensions>
          <ns3:TrackPointExtension>
            <ns3:atemp>20.0</ns3:atemp>
          </ns3:TrackPointExtension>
        </extensions>
      </trkpt>
      <trkpt lat="42.52575614489614963531494140625" lon="19.84482790343463420867919921875">
        <ele>1041.199951171875</ele>
        <time>2026-06-17T12:57:02.000Z</time>
        <extensions>
          <ns3:TrackPointExtension>
            <ns3:atemp>20.0</ns3:atemp>
          </ns3:TrackPointExtension>
        </extensions>
      </trkpt>
      <trkpt lat="42.52574197947978973388671875" lon="19.844796471297740936279296875">
        <ele>1040.199951171875</ele>
        <time>2026-06-17T12:57:03.000Z</time>
        <extensions>
          <ns3:TrackPointExtension>
            <ns3:atemp>20.0</ns3:atemp>
          </ns3:TrackPointExtension>
        </extensions>
      </trkpt>
      <trkpt lat="42.5257270596921443939208984375" lon="19.8447714932262897491455078125">
        <ele>1039.4000244140625</ele>
        <time>2026-06-17T12:57:04.000Z</time>
        <extensions>
          <ns3:TrackPointExtension>
            <ns3:atemp>20.0</ns3:atemp>
          </ns3:TrackPointExtension>
        </extensions>
      </trkpt>
      <trkpt lat="42.52570970915257930755615234375" lon="19.844756908714771270751953125">
        <ele>1038.800048828125</ele>
        <time>2026-06-17T12:57:05.000Z</time>
        <extensions>
          <ns3:TrackPointExtension>
            <ns3:atemp>20.0</ns3:atemp>
          </ns3:TrackPointExtension>
        </extensions>
      </trkpt>
      <trkpt lat="42.52568942494690418243408203125" lon="19.84474794007837772369384765625">
        <ele>1038.4000244140625</ele>
        <time>2026-06-17T12:57:06.000Z</time>
        <extensions>
          <ns3:TrackPointExtension>
            <ns3:atemp>20.0</ns3:atemp>
          </ns3:TrackPointExtension>
        </extensions>
      </trkpt>
      <trkpt lat="42.5256700627505779266357421875" lon="19.84473980963230133056640625">
        <ele>1038</ele>
        <time>2026-06-17T12:57:07.000Z</time>
        <extensions>
          <ns3:TrackPointExtension>
            <ns3:atemp>20.0</ns3:atemp>
          </ns3:TrackPointExtension>
        </extensions>
      </trkpt>
      <trkpt lat="42.5256479345262050628662109375" lon="19.84472572803497314453125">
        <ele>1037.5999755859375</ele>
        <time>2026-06-17T12:57:08.000Z</time>
        <extensions>
          <ns3:TrackPointExtension>
            <ns3:atemp>20.0</ns3:atemp>
          </ns3:TrackPointExtension>
        </extensions>
      </trkpt>
      <trkpt lat="42.52562723122537136077880859375" lon="19.844697229564189910888671875">
        <ele>1037.4000244140625</ele>
        <time>2026-06-17T12:57:09.000Z</time>
        <extensions>
          <ns3:TrackPointExtension>
            <ns3:atemp>20.0</ns3:atemp>
          </ns3:TrackPointExtension>
        </extensions>
      </trkpt>
      <trkpt lat="42.52560409717261791229248046875" lon="19.84466646797955036163330078125">
        <ele>1037</ele>
        <time>2026-06-17T12:57:10.000Z</time>
        <extensions>
          <ns3:TrackPointExtension>
            <ns3:atemp>20.0</ns3:atemp>
          </ns3:TrackPointExtension>
        </extensions>
      </trkpt>
      <trkpt lat="42.52557761035859584808349609375" lon="19.84463654458522796630859375">
        <ele>1036.800048828125</ele>
        <time>2026-06-17T12:57:11.000Z</time>
        <extensions>
          <ns3:TrackPointExtension>
            <ns3:atemp>20.0</ns3:atemp>
          </ns3:TrackPointExtension>
        </extensions>
      </trkpt>
      <trkpt lat="42.52554642967879772186279296875" lon="19.84460930339992046356201171875">
        <ele>1036.5999755859375</ele>
        <time>2026-06-17T12:57:12.000Z</time>
        <extensions>
          <ns3:TrackPointExtension>
            <ns3:atemp>20.0</ns3:atemp>
          </ns3:TrackPointExtension>
        </extensions>
      </trkpt>
      <trkpt lat="42.525514662265777587890625" lon="19.84458399005234241485595703125">
        <ele>1036.199951171875</ele>
        <time>2026-06-17T12:57:13.000Z</time>
        <extensions>
          <ns3:TrackPointExtension>
            <ns3:atemp>20.0</ns3:atemp>
          </ns3:TrackPointExtension>
        </extensions>
      </trkpt>
      <trkpt lat="42.52548675052821636199951171875" lon="19.8445595987141132354736328125">
        <ele>1036</ele>
        <time>2026-06-17T12:57:14.000Z</time>
        <extensions>
          <ns3:TrackPointExtension>
            <ns3:atemp>20.0</ns3:atemp>
          </ns3:TrackPointExtension>
        </extensions>
      </trkpt>
      <trkpt lat="42.5254623591899871826171875" lon="19.84453587792813777923583984375">
        <ele>1035.5999755859375</ele>
        <time>2026-06-17T12:57:15.000Z</time>
        <extensions>
          <ns3:TrackPointExtension>
            <ns3:atemp>20.0</ns3:atemp>
          </ns3:TrackPointExtension>
        </extensions>
      </trkpt>
      <trkpt lat="42.52544014714658260345458984375" lon="19.84451358206570148468017578125">
        <ele>1035.4000244140625</ele>
        <time>2026-06-17T12:57:16.000Z</time>
        <extensions>
          <ns3:TrackPointExtension>
            <ns3:atemp>20.0</ns3:atemp>
          </ns3:TrackPointExtension>
        </extensions>
      </trkpt>
      <trkpt lat="42.52542019821703433990478515625" lon="19.8444937169551849365234375">
        <ele>1035.199951171875</ele>
        <time>2026-06-17T12:57:17.000Z</time>
        <extensions>
          <ns3:TrackPointExtension>
            <ns3:atemp>20.0</ns3:atemp>
          </ns3:TrackPointExtension>
        </extensions>
      </trkpt>
      <trkpt lat="42.52539865672588348388671875" lon="19.8444754444062709808349609375">
        <ele>1034.800048828125</ele>
        <time>2026-06-17T12:57:18.000Z</time>
        <extensions>
          <ns3:TrackPointExtension>
            <ns3:atemp>20.0</ns3:atemp>
          </ns3:TrackPointExtension>
        </extensions>
      </trkpt>
      <trkpt lat="42.5253733433783054351806640625" lon="19.84446044079959392547607421875">
        <ele>1034.5999755859375</ele>
        <time>2026-06-17T12:57:19.000Z</time>
        <extensions>
          <ns3:TrackPointExtension>
            <ns3:atemp>20.0</ns3:atemp>
          </ns3:TrackPointExtension>
        </extensions>
      </trkpt>
      <trkpt lat="42.52534811384975910186767578125" lon="19.8444459401071071624755859375">
        <ele>1034.4000244140625</ele>
        <time>2026-06-17T12:57:20.000Z</time>
        <extensions>
          <ns3:TrackPointExtension>
            <ns3:atemp>20.0</ns3:atemp>
          </ns3:TrackPointExtension>
        </extensions>
      </trkpt>
      <trkpt lat="42.525317184627056121826171875" lon="19.84442657791078090667724609375">
        <ele>1034</ele>
        <time>2026-06-17T12:57:21.000Z</time>
        <extensions>
          <ns3:TrackPointExtension>
            <ns3:atemp>20.0</ns3:atemp>
          </ns3:TrackPointExtension>
        </extensions>
      </trkpt>
      <trkpt lat="42.52528290264308452606201171875" lon="19.84440679661929607391357421875">
        <ele>1033.800048828125</ele>
        <time>2026-06-17T12:57:22.000Z</time>
        <extensions>
          <ns3:TrackPointExtension>
            <ns3:atemp>20.0</ns3:atemp>
          </ns3:TrackPointExtension>
        </extensions>
      </trkpt>
      <trkpt lat="42.5252429209649562835693359375" lon="19.84437771141529083251953125">
        <ele>1033.5999755859375</ele>
        <time>2026-06-17T12:57:23.000Z</time>
        <extensions>
          <ns3:TrackPointExtension>
            <ns3:atemp>20.0</ns3:atemp>
          </ns3:TrackPointExtension>
        </extensions>
      </trkpt>
      <trkpt lat="42.52519891597330570220947265625" lon="19.8443433456122875213623046875">
        <ele>1033.199951171875</ele>
        <time>2026-06-17T12:57:24.000Z</time>
        <extensions>
          <ns3:TrackPointExtension>
            <ns3:atemp>20.0</ns3:atemp>
          </ns3:TrackPointExtension>
        </extensions>
      </trkpt>
      <trkpt lat="42.52515817992389202117919921875" lon="19.8443047888576984405517578125">
        <ele>1032.800048828125</ele>
        <time>2026-06-17T12:57:25.000Z</time>
        <extensions>
          <ns3:TrackPointExtension>
            <ns3:atemp>20.0</ns3:atemp>
          </ns3:TrackPointExtension>
        </extensions>
      </trkpt>
      <trkpt lat="42.52511258237063884735107421875" lon="19.84426648356020450592041015625">
        <ele>1032.4000244140625</ele>
        <time>2026-06-17T12:57:26.000Z</time>
        <extensions>
          <ns3:TrackPointExtension>
            <ns3:atemp>20.0</ns3:atemp>
          </ns3:TrackPointExtension>
        </extensions>
      </trkpt>
      <trkpt lat="42.52506681717932224273681640625" lon="19.8442259989678859710693359375">
        <ele>1031.800048828125</ele>
        <time>2026-06-17T12:57:27.000Z</time>
        <extensions>
          <ns3:TrackPointExtension>
            <ns3:atemp>20.0</ns3:atemp>
          </ns3:TrackPointExtension>
        </extensions>
      </trkpt>
      <trkpt lat="42.52502071671187877655029296875" lon="19.84418517909944057464599609375">
        <ele>1031.4000244140625</ele>
        <time>2026-06-17T12:57:28.000Z</time>
        <extensions>
          <ns3:TrackPointExtension>
            <ns3:atemp>20.0</ns3:atemp>
          </ns3:TrackPointExtension>
        </extensions>
      </trkpt>
      <trkpt lat="42.5249688327312469482421875" lon="19.8441431857645511627197265625">
        <ele>1031</ele>
        <time>2026-06-17T12:57:29.000Z</time>
        <extensions>
          <ns3:TrackPointExtension>
            <ns3:atemp>20.0</ns3:atemp>
          </ns3:TrackPointExtension>
        </extensions>
      </trkpt>
      <trkpt lat="42.52491652965545654296875" lon="19.84409566037356853485107421875">
        <ele>1030.5999755859375</ele>
        <time>2026-06-17T12:57:30.000Z</time>
        <extensions>
          <ns3:TrackPointExtension>
            <ns3:atemp>20.0</ns3:atemp>
          </ns3:TrackPointExtension>
        </extensions>
      </trkpt>
      <trkpt lat="42.5248580239713191986083984375" lon="19.8440415970981121063232421875">
        <ele>1030</ele>
        <time>2026-06-17T12:57:31.000Z</time>
        <extensions>
          <ns3:TrackPointExtension>
            <ns3:atemp>20.0</ns3:atemp>
          </ns3:TrackPointExtension>
        </extensions>
      </trkpt>
      <trkpt lat="42.52479624934494495391845703125" lon="19.84398602508008480072021484375">
        <ele>1029.4000244140625</ele>
        <time>2026-06-17T12:57:32.000Z</time>
        <extensions>
          <ns3:TrackPointExtension>
            <ns3:atemp>20.0</ns3:atemp>
          </ns3:TrackPointExtension>
        </extensions>
      </trkpt>
      <trkpt lat="42.52473053522408008575439453125" lon="19.84393137507140636444091796875">
        <ele>1028.5999755859375</ele>
        <time>2026-06-17T12:57:33.000Z</time>
        <extensions>
          <ns3:TrackPointExtension>
            <ns3:atemp>20.0</ns3:atemp>
          </ns3:TrackPointExtension>
        </extensions>
      </trkpt>
      <trkpt lat="42.52465836703777313232421875" lon="19.84387814998626708984375">
        <ele>1028</ele>
        <time>2026-06-17T12:57:34.000Z</time>
        <extensions>
          <ns3:TrackPointExtension>
            <ns3:atemp>20.0</ns3:atemp>
          </ns3:TrackPointExtension>
        </extensions>
      </trkpt>
      <trkpt lat="42.52458401955664157867431640625" lon="19.8438236676156520843505859375">
        <ele>1027.4000244140625</ele>
        <time>2026-06-17T12:57:35.000Z</time>
        <extensions>
          <ns3:TrackPointExtension>
            <ns3:atemp>20.0</ns3:atemp>
          </ns3:TrackPointExtension>
        </extensions>
      </trkpt>
      <trkpt lat="42.52450682222843170166015625" lon="19.84377086162567138671875">
        <ele>1026.800048828125</ele>
        <time>2026-06-17T12:57:36.000Z</time>
        <extensions>
          <ns3:TrackPointExtension>
            <ns3:atemp>20.0</ns3:atemp>
          </ns3:TrackPointExtension>
        </extensions>
      </trkpt>
      <trkpt lat="42.52442811615765094757080078125" lon="19.843719899654388427734375">
        <ele>1026.199951171875</ele>
        <time>2026-06-17T12:57:37.000Z</time>
        <extensions>
          <ns3:TrackPointExtension>
            <ns3:atemp>20.0</ns3:atemp>
          </ns3:TrackPointExtension>
        </extensions>
      </trkpt>
      <trkpt lat="42.5243520922958850860595703125" lon="19.84366298653185367584228515625">
        <ele>1025.5999755859375</ele>
        <time>2026-06-17T12:57:38.000Z</time>
        <extensions>
          <ns3:TrackPointExtension>
            <ns3:atemp>20.0</ns3:atemp>
          </ns3:TrackPointExtension>
        </extensions>
      </trkpt>
      <trkpt lat="42.52427615225315093994140625" lon="19.84360657632350921630859375">
        <ele>1024.5999755859375</ele>
        <time>2026-06-17T12:57:39.000Z</time>
        <extensions>
          <ns3:TrackPointExtension>
            <ns3:atemp>20.0</ns3:atemp>
          </ns3:TrackPointExtension>
        </extensions>
      </trkpt>
      <trkpt lat="42.52420113421976566314697265625" lon="19.84355485998094081878662109375">
        <ele>1024</ele>
        <time>2026-06-17T12:57:40.000Z</time>
        <extensions>
          <ns3:TrackPointExtension>
            <ns3:atemp>20.0</ns3:atemp>
          </ns3:TrackPointExtension>
        </extensions>
      </trkpt>
      <trkpt lat="42.52413139678537845611572265625" lon="19.84350993297994136810302734375">
        <ele>1023.20001220703125</ele>
        <time>2026-06-17T12:57:41.000Z</time>
        <extensions>
          <ns3:TrackPointExtension>
            <ns3:atemp>20.0</ns3:atemp>
          </ns3:TrackPointExtension>
        </extensions>
      </trkpt>
      <trkpt lat="42.52406517975032329559326171875" lon="19.8434635810554027557373046875">
        <ele>1022.5999755859375</ele>
        <time>2026-06-17T12:57:42.000Z</time>
        <extensions>
          <ns3:TrackPointExtension>
            <ns3:atemp>20.0</ns3:atemp>
          </ns3:TrackPointExtension>
        </extensions>
      </trkpt>
      <trkpt lat="42.52399988472461700439453125" lon="19.8434223420917987823486328125">
        <ele>1022</ele>
        <time>2026-06-17T12:57:43.000Z</time>
        <extensions>
          <ns3:TrackPointExtension>
            <ns3:atemp>20.0</ns3:atemp>
          </ns3:TrackPointExtension>
        </extensions>
      </trkpt>
      <trkpt lat="42.523934505879878997802734375" lon="19.843382276594638824462890625">
        <ele>1021.4000244140625</ele>
        <time>2026-06-17T12:57:44.000Z</time>
        <extensions>
          <ns3:TrackPointExtension>
            <ns3:atemp>20.0</ns3:atemp>
          </ns3:TrackPointExtension>
        </extensions>
      </trkpt>
      <trkpt lat="42.52387113869190216064453125" lon="19.8433381877839565277099609375">
        <ele>1020.5999755859375</ele>
        <time>2026-06-17T12:57:45.000Z</time>
        <extensions>
          <ns3:TrackPointExtension>
            <ns3:atemp>20.0</ns3:atemp>
          </ns3:TrackPointExtension>
        </extensions>
      </trkpt>
      <trkpt lat="42.5238112919032573699951171875" lon="19.8432912491261959075927734375">
        <ele>1020</ele>
        <time>2026-06-17T12:57:46.000Z</time>
        <extensions>
          <ns3:TrackPointExtension>
            <ns3:atemp>20.0</ns3:atemp>
          </ns3:TrackPointExtension>
        </extensions>
      </trkpt>
      <trkpt lat="42.523755133152008056640625" lon="19.84324070625007152557373046875">
        <ele>1019.4000244140625</ele>
        <time>2026-06-17T12:57:47.000Z</time>
        <extensions>
          <ns3:TrackPointExtension>
            <ns3:atemp>20.0</ns3:atemp>
          </ns3:TrackPointExtension>
        </extensions>
      </trkpt>
      <trkpt lat="42.52370190806686878204345703125" lon="19.843183457851409912109375">
        <ele>1018.79998779296875</ele>
        <time>2026-06-17T12:57:48.000Z</time>
        <extensions>
          <ns3:TrackPointExtension>
            <ns3:atemp>20.0</ns3:atemp>
          </ns3:TrackPointExtension>
        </extensions>
      </trkpt>
      <trkpt lat="42.52364709042012691497802734375" lon="19.84312570653855800628662109375">
        <ele>1018.20001220703125</ele>
        <time>2026-06-17T12:57:49.000Z</time>
        <extensions>
          <ns3:TrackPointExtension>
            <ns3:atemp>20.0</ns3:atemp>
          </ns3:TrackPointExtension>
        </extensions>
      </trkpt>
      <trkpt lat="42.52359596081078052520751953125" lon="19.843067787587642669677734375">
        <ele>1017.5999755859375</ele>
        <time>2026-06-17T12:57:50.000Z</time>
        <extensions>
          <ns3:TrackPointExtension>
            <ns3:atemp>20.0</ns3:atemp>
          </ns3:TrackPointExtension>
        </extensions>
      </trkpt>
      <trkpt lat="42.5235474295914173126220703125" lon="19.84301640652120113372802734375">
        <ele>1016.5999755859375</ele>
        <time>2026-06-17T12:57:51.000Z</time>
        <extensions>
          <ns3:TrackPointExtension>
            <ns3:atemp>20.0</ns3:atemp>
          </ns3:TrackPointExtension>
        </extensions>
      </trkpt>
      <trkpt lat="42.52349562942981719970703125" lon="19.84298103488981723785400390625">
        <ele>1015.79998779296875</ele>
        <time>2026-06-17T12:57:52.000Z</time>
        <extensions>
          <ns3:TrackPointExtension>
            <ns3:atemp>20.0</ns3:atemp>
          </ns3:TrackPointExtension>
        </extensions>
      </trkpt>
      <trkpt lat="42.5234384648501873016357421875" lon="19.84296510927379131317138671875">
        <ele>1015</ele>
        <time>2026-06-17T12:57:53.000Z</time>
        <extensions>
          <ns3:TrackPointExtension>
            <ns3:atemp>20.0</ns3:atemp>
          </ns3:TrackPointExtension>
        </extensions>
      </trkpt>
      <trkpt lat="42.523373924195766448974609375" lon="19.8429730720818042755126953125">
        <ele>1014.20001220703125</ele>
        <time>2026-06-17T12:57:54.000Z</time>
        <extensions>
          <ns3:TrackPointExtension>
            <ns3:atemp>20.0</ns3:atemp>
          </ns3:TrackPointExtension>
        </extensions>
      </trkpt>
      <trkpt lat="42.52330653369426727294921875" lon="19.8430049233138561248779296875">
        <ele>1013.4000244140625</ele>
        <time>2026-06-17T12:57:55.000Z</time>
        <extensions>
          <ns3:TrackPointExtension>
            <ns3:atemp>20.0</ns3:atemp>
          </ns3:TrackPointExtension>
        </extensions>
      </trkpt>
      <trkpt lat="42.5232361257076263427734375" lon="19.843054711818695068359375">
        <ele>1012.4000244140625</ele>
        <time>2026-06-17T12:57:56.000Z</time>
        <extensions>
          <ns3:TrackPointExtension>
            <ns3:atemp>20.0</ns3:atemp>
          </ns3:TrackPointExtension>
        </extensions>
      </trkpt>
      <trkpt lat="42.5231611914932727813720703125" lon="19.843120761215686798095703125">
        <ele>1011.20001220703125</ele>
        <time>2026-06-17T12:57:57.000Z</time>
        <extensions>
          <ns3:TrackPointExtension>
            <ns3:atemp>20.0</ns3:atemp>
          </ns3:TrackPointExtension>
        </extensions>
      </trkpt>
      <trkpt lat="42.5230830721557140350341796875" lon="19.8431943543255329132080078125">
        <ele>1010.20001220703125</ele>
        <time>2026-06-17T12:57:58.000Z</time>
        <extensions>
          <ns3:TrackPointExtension>
            <ns3:atemp>20.0</ns3:atemp>
          </ns3:TrackPointExtension>
        </extensions>
      </trkpt>
      <trkpt lat="42.52300134859979152679443359375" lon="19.84326518140733242034912109375">
        <ele>1009.20001220703125</ele>
        <time>2026-06-17T12:57:59.000Z</time>
        <extensions>
          <ns3:TrackPointExtension>
            <ns3:atemp>20.0</ns3:atemp>
          </ns3:TrackPointExtension>
        </extensions>
      </trkpt>
      <trkpt lat="42.5229278393089771270751953125" lon="19.84334983862936496734619140625">
        <ele>1008.20001220703125</ele>
        <time>2026-06-17T12:58:00.000Z</time>
        <extensions>
          <ns3:TrackPointExtension>
            <ns3:atemp>20.0</ns3:atemp>
          </ns3:TrackPointExtension>
        </extensions>
      </trkpt>
      <trkpt lat="42.522868998348712921142578125" lon="19.843435585498809814453125">
        <ele>1008</ele>
        <time>2026-06-17T12:58:01.000Z</time>
        <extensions>
          <ns3:TrackPointExtension>
            <ns3:atemp>20.0</ns3:atemp>
          </ns3:TrackPointExtension>
        </extensions>
      </trkpt>
      <trkpt lat="42.52281527034938335418701171875" lon="19.84351730905473232269287109375">
        <ele>1007</ele>
        <time>2026-06-17T12:58:02.000Z</time>
        <extensions>
          <ns3:TrackPointExtension>
            <ns3:atemp>20.0</ns3:atemp>
          </ns3:TrackPointExtension>
        </extensions>
      </trkpt>
      <trkpt lat="42.52277621068060398101806640625" lon="19.84359341673552989959716796875">
        <ele>1006.20001220703125</ele>
        <time>2026-06-17T12:58:03.000Z</time>
        <extensions>
          <ns3:TrackPointExtension>
            <ns3:atemp>20.0</ns3:atemp>
          </ns3:TrackPointExtension>
        </extensions>
      </trkpt>
      <trkpt lat="42.5227345526218414306640625" lon="19.8436590470373630523681640625">
        <ele>1006</ele>
        <time>2026-06-17T12:58:04.000Z</time>
        <extensions>
          <ns3:TrackPointExtension>
            <ns3:atemp>20.0</ns3:atemp>
          </ns3:TrackPointExtension>
        </extensions>
      </trkpt>
      <trkpt lat="42.52269440330564975738525390625" lon="19.84371185302734375">
        <ele>1005.79998779296875</ele>
        <time>2026-06-17T12:58:05.000Z</time>
        <extensions>
          <ns3:TrackPointExtension>
            <ns3:atemp>20.0</ns3:atemp>
          </ns3:TrackPointExtension>
        </extensions>
      </trkpt>
      <trkpt lat="42.52265986986458301544189453125" lon="19.84376742504537105560302734375">
        <ele>1006</ele>
        <time>2026-06-17T12:58:06.000Z</time>
        <extensions>
          <ns3:TrackPointExtension>
            <ns3:atemp>20.0</ns3:atemp>
          </ns3:TrackPointExtension>
        </extensions>
      </trkpt>
      <trkpt lat="42.5226317904889583587646484375" lon="19.84381335787475109100341796875">
        <ele>1006</ele>
        <time>2026-06-17T12:58:07.000Z</time>
        <extensions>
          <ns3:TrackPointExtension>
            <ns3:atemp>21.0</ns3:atemp>
          </ns3:TrackPointExtension>
        </extensions>
      </trkpt>
      <trkpt lat="42.5226116739213466644287109375" lon="19.84384797513484954833984375">
        <ele>1006</ele>
        <time>2026-06-17T12:58:08.000Z</time>
        <extensions>
          <ns3:TrackPointExtension>
            <ns3:atemp>20.0</ns3:atemp>
          </ns3:TrackPointExtension>
        </extensions>
      </trkpt>
      <trkpt lat="42.52259708940982818603515625" lon="19.84387186355888843536376953125">
        <ele>1006</ele>
        <time>2026-06-17T12:58:09.000Z</time>
        <extensions>
          <ns3:TrackPointExtension>
            <ns3:atemp>20.0</ns3:atemp>
          </ns3:TrackPointExtension>
        </extensions>
      </trkpt>
      <trkpt lat="42.52258309163153171539306640625" lon="19.84388225711882114410400390625">
        <ele>1006</ele>
        <time>2026-06-17T12:58:10.000Z</time>
        <extensions>
          <ns3:TrackPointExtension>
            <ns3:atemp>20.0</ns3:atemp>
          </ns3:TrackPointExtension>
        </extensions>
      </trkpt>
      <trkpt lat="42.52257353626191616058349609375" lon="19.843889884650707244873046875">
        <ele>1006.20001220703125</ele>
        <time>2026-06-17T12:58:11.000Z</time>
        <extensions>
          <ns3:TrackPointExtension>
            <ns3:atemp>20.0</ns3:atemp>
          </ns3:TrackPointExtension>
        </extensions>
      </trkpt>
      <trkpt lat="42.52257001586258411407470703125" lon="19.8438991047441959381103515625">
        <ele>1006.20001220703125</ele>
        <time>2026-06-17T12:58:12.000Z</time>
        <extensions>
          <ns3:TrackPointExtension>
            <ns3:atemp>20.0</ns3:atemp>
          </ns3:TrackPointExtension>
        </extensions>
      </trkpt>
      <trkpt lat="42.52256364561617374420166015625" lon="19.8439034633338451385498046875">
        <ele>1006.20001220703125</ele>
        <time>2026-06-17T12:58:13.000Z</time>
        <extensions>
          <ns3:TrackPointExtension>
            <ns3:atemp>20.0</ns3:atemp>
          </ns3:TrackPointExtension>
        </extensions>
      </trkpt>
      <trkpt lat="42.5225627236068248748779296875" lon="19.84390958212316036224365234375">
        <ele>1006.4000244140625</ele>
        <time>2026-06-17T12:58:14.000Z</time>
        <extensions>
          <ns3:TrackPointExtension>
            <ns3:atemp>20.0</ns3:atemp>
          </ns3:TrackPointExtension>
        </extensions>
      </trkpt>
      <trkpt lat="42.52255828119814395904541015625" lon="19.8439178802073001861572265625">
        <ele>1006.20001220703125</ele>
        <time>2026-06-17T12:58:15.000Z</time>
        <extensions>
          <ns3:TrackPointExtension>
            <ns3:atemp>20.0</ns3:atemp>
          </ns3:TrackPointExtension>
        </extensions>
      </trkpt>
      <trkpt lat="42.52255476079881191253662109375" lon="19.8439336381852626800537109375">
        <ele>1006.20001220703125</ele>
        <time>2026-06-17T12:58:16.000Z</time>
        <extensions>
          <ns3:TrackPointExtension>
            <ns3:atemp>20.0</ns3:atemp>
          </ns3:TrackPointExtension>
        </extensions>
      </trkpt>
      <trkpt lat="42.52255023457109928131103515625" lon="19.84393774531781673431396484375">
        <ele>1006.20001220703125</ele>
        <time>2026-06-17T12:58:17.000Z</time>
        <extensions>
          <ns3:TrackPointExtension>
            <ns3:atemp>20.0</ns3:atemp>
          </ns3:TrackPointExtension>
        </extensions>
      </trkpt>
      <trkpt lat="42.52254704944789409637451171875" lon="19.8439430259168148040771484375">
        <ele>1006.20001220703125</ele>
        <time>2026-06-17T12:58:18.000Z</time>
        <extensions>
          <ns3:TrackPointExtension>
            <ns3:atemp>20.0</ns3:atemp>
          </ns3:TrackPointExtension>
        </extensions>
      </trkpt>
      <trkpt lat="42.52254369668662548065185546875" lon="19.8439544253051280975341796875">
        <ele>1006.20001220703125</ele>
        <time>2026-06-17T12:58:19.000Z</time>
        <extensions>
          <ns3:TrackPointExtension>
            <ns3:atemp>20.0</ns3:atemp>
          </ns3:TrackPointExtension>
        </extensions>
      </trkpt>
      <trkpt lat="42.52253933809697628021240234375" lon="19.8439715243875980377197265625">
        <ele>1006.20001220703125</ele>
        <time>2026-06-17T12:58:20.000Z</time>
        <extensions>
          <ns3:TrackPointExtension>
            <ns3:atemp>20.0</ns3:atemp>
          </ns3:TrackPointExtension>
        </extensions>
      </trkpt>
      <trkpt lat="42.522535733878612518310546875" lon="19.8439909704029560089111328125">
        <ele>1006.20001220703125</ele>
        <time>2026-06-17T12:58:21.000Z</time>
        <extensions>
          <ns3:TrackPointExtension>
            <ns3:atemp>20.0</ns3:atemp>
          </ns3:TrackPointExtension>
        </extensions>
      </trkpt>
      <trkpt lat="42.52253003418445587158203125" lon="19.84401267953217029571533203125">
        <ele>1006.20001220703125</ele>
        <time>2026-06-17T12:58:22.000Z</time>
        <extensions>
          <ns3:TrackPointExtension>
            <ns3:atemp>20.0</ns3:atemp>
          </ns3:TrackPointExtension>
        </extensions>
      </trkpt>
      <trkpt lat="42.522523663938045501708984375" lon="19.8440345562994480133056640625">
        <ele>1006.20001220703125</ele>
        <time>2026-06-17T12:58:23.000Z</time>
        <extensions>
          <ns3:TrackPointExtension>
            <ns3:atemp>20.0</ns3:atemp>
          </ns3:TrackPointExtension>
        </extensions>
      </trkpt>
      <trkpt lat="42.52251620404422283172607421875" lon="19.84405442140996456146240234375">
        <ele>1006.20001220703125</ele>
        <time>2026-06-17T12:58:24.000Z</time>
        <extensions>
          <ns3:TrackPointExtension>
            <ns3:atemp>20.0</ns3:atemp>
          </ns3:TrackPointExtension>
        </extensions>
      </trkpt>
      <trkpt lat="42.52251016907393932342529296875" lon="19.8440768010914325714111328125">
        <ele>1006.20001220703125</ele>
        <time>2026-06-17T12:58:25.000Z</time>
        <extensions>
          <ns3:TrackPointExtension>
            <ns3:atemp>20.0</ns3:atemp>
          </ns3:TrackPointExtension>
        </extensions>
      </trkpt>
      <trkpt lat="42.52250547520816326141357421875" lon="19.84409415163099765777587890625">
        <ele>1006.4000244140625</ele>
        <time>2026-06-17T12:58:26.000Z</time>
        <extensions>
          <ns3:TrackPointExtension>
            <ns3:atemp>20.0</ns3:atemp>
          </ns3:TrackPointExtension>
        </extensions>
      </trkpt>
      <trkpt lat="42.522506229579448699951171875" lon="19.8441182076930999755859375">
        <ele>1006.4000244140625</ele>
        <time>2026-06-17T12:58:27.000Z</time>
        <extensions>
          <ns3:TrackPointExtension>
            <ns3:atemp>20.0</ns3:atemp>
          </ns3:TrackPointExtension>
        </extensions>
      </trkpt>
      <trkpt lat="42.52250379882752895355224609375" lon="19.84414511360228061676025390625">
        <ele>1006.5999755859375</ele>
        <time>2026-06-17T12:58:28.000Z</time>
        <extensions>
          <ns3:TrackPointExtension>
            <ns3:atemp>20.0</ns3:atemp>
          </ns3:TrackPointExtension>
        </extensions>
      </trkpt>
      <trkpt lat="42.52249860204756259918212890625" lon="19.844172857701778411865234375">
        <ele>1006.79998779296875</ele>
        <time>2026-06-17T12:58:29.000Z</time>
        <extensions>
          <ns3:TrackPointExtension>
            <ns3:atemp>20.0</ns3:atemp>
          </ns3:TrackPointExtension>
        </extensions>
      </trkpt>
      <trkpt lat="42.52249206416308879852294921875" lon="19.84419926069676876068115234375">
        <ele>1006.79998779296875</ele>
        <time>2026-06-17T12:58:30.000Z</time>
        <extensions>
          <ns3:TrackPointExtension>
            <ns3:atemp>20.0</ns3:atemp>
          </ns3:TrackPointExtension>
        </extensions>
      </trkpt>
      <trkpt lat="42.52248586155474185943603515625" lon="19.84422759152948856353759765625">
        <ele>1007</ele>
        <time>2026-06-17T12:58:31.000Z</time>
        <extensions>
          <ns3:TrackPointExtension>
            <ns3:atemp>21.0</ns3:atemp>
          </ns3:TrackPointExtension>
        </extensions>
      </trkpt>
      <trkpt lat="42.522478736937046051025390625" lon="19.84425726346671581268310546875">
        <ele>1007</ele>
        <time>2026-06-17T12:58:32.000Z</time>
        <extensions>
          <ns3:TrackPointExtension>
            <ns3:atemp>21.0</ns3:atemp>
          </ns3:TrackPointExtension>
        </extensions>
      </trkpt>
      <trkpt lat="42.52247680909931659698486328125" lon="19.844283498823642730712890625">
        <ele>1007.20001220703125</ele>
        <time>2026-06-17T12:58:33.000Z</time>
        <extensions>
          <ns3:TrackPointExtension>
            <ns3:atemp>21.0</ns3:atemp>
          </ns3:TrackPointExtension>
        </extensions>
      </trkpt>
      <trkpt lat="42.52247379161417484283447265625" lon="19.844312332570552825927734375">
        <ele>1007.20001220703125</ele>
        <time>2026-06-17T12:58:34.000Z</time>
        <extensions>
          <ns3:TrackPointExtension>
            <ns3:atemp>21.0</ns3:atemp>
          </ns3:TrackPointExtension>
        </extensions>
      </trkpt>
      <trkpt lat="42.52247094176709651947021484375" lon="19.8443408310413360595703125">
        <ele>1007.20001220703125</ele>
        <time>2026-06-17T12:58:35.000Z</time>
        <extensions>
          <ns3:TrackPointExtension>
            <ns3:atemp>21.0</ns3:atemp>
          </ns3:TrackPointExtension>
        </extensions>
      </trkpt>
      <trkpt lat="42.5224685110151767730712890625" lon="19.844371341168880462646484375">
        <ele>1007.4000244140625</ele>
        <time>2026-06-17T12:58:36.000Z</time>
        <extensions>
          <ns3:TrackPointExtension>
            <ns3:atemp>21.0</ns3:atemp>
          </ns3:TrackPointExtension>
        </extensions>
      </trkpt>
      <trkpt lat="42.5224664993584156036376953125" lon="19.84439975582063198089599609375">
        <ele>1007.4000244140625</ele>
        <time>2026-06-17T12:58:37.000Z</time>
        <extensions>
          <ns3:TrackPointExtension>
            <ns3:atemp>21.0</ns3:atemp>
          </ns3:TrackPointExtension>
        </extensions>
      </trkpt>
      <trkpt lat="42.52246976830065250396728515625" lon="19.84443278051912784576416015625">
        <ele>1007.5999755859375</ele>
        <time>2026-06-17T12:58:38.000Z</time>
        <extensions>
          <ns3:TrackPointExtension>
            <ns3:atemp>21.0</ns3:atemp>
          </ns3:TrackPointExtension>
        </extensions>
      </trkpt>
      <trkpt lat="42.5224721990525722503662109375" lon="19.84446412883698940277099609375">
        <ele>1007.5999755859375</ele>
        <time>2026-06-17T12:58:39.000Z</time>
        <extensions>
          <ns3:TrackPointExtension>
            <ns3:atemp>21.0</ns3:atemp>
          </ns3:TrackPointExtension>
        </extensions>
      </trkpt>
      <trkpt lat="42.5224678404629230499267578125" lon="19.84449681825935840606689453125">
        <ele>1007.79998779296875</ele>
        <time>2026-06-17T12:58:40.000Z</time>
        <extensions>
          <ns3:TrackPointExtension>
            <ns3:atemp>21.0</ns3:atemp>
          </ns3:TrackPointExtension>
        </extensions>
      </trkpt>
      <trkpt lat="42.52245769836008548736572265625" lon="19.8445277474820613861083984375">
        <ele>1007.79998779296875</ele>
        <time>2026-06-17T12:58:41.000Z</time>
        <extensions>
          <ns3:TrackPointExtension>
            <ns3:atemp>21.0</ns3:atemp>
          </ns3:TrackPointExtension>
        </extensions>
      </trkpt>
      <trkpt lat="42.5224497355520725250244140625" lon="19.84456479549407958984375">
        <ele>1008</ele>
        <time>2026-06-17T12:58:42.000Z</time>
        <extensions>
          <ns3:TrackPointExtension>
            <ns3:atemp>21.0</ns3:atemp>
          </ns3:TrackPointExtension>
        </extensions>
      </trkpt>
      <trkpt lat="42.5224463827908039093017578125" lon="19.84460226260125637054443359375">
        <ele>1008.20001220703125</ele>
        <time>2026-06-17T12:58:43.000Z</time>
        <extensions>
          <ns3:TrackPointExtension>
            <ns3:atemp>21.0</ns3:atemp>
          </ns3:TrackPointExtension>
        </extensions>
      </trkpt>
      <trkpt lat="42.52244286239147186279296875" lon="19.84463914297521114349365234375">
        <ele>1008.20001220703125</ele>
        <time>2026-06-17T12:58:44.000Z</time>
        <extensions>
          <ns3:TrackPointExtension>
            <ns3:atemp>21.0</ns3:atemp>
          </ns3:TrackPointExtension>
        </extensions>
      </trkpt>
      <trkpt lat="42.52243624068796634674072265625" lon="19.844677783548831939697265625">
        <ele>1008.4000244140625</ele>
        <time>2026-06-17T12:58:45.000Z</time>
        <extensions>
          <ns3:TrackPointExtension>
            <ns3:atemp>21.0</ns3:atemp>
          </ns3:TrackPointExtension>
        </extensions>
      </trkpt>
      <trkpt lat="42.52242668531835079193115234375" lon="19.8447141610085964202880859375">
        <ele>1008.4000244140625</ele>
        <time>2026-06-17T12:58:46.000Z</time>
        <extensions>
          <ns3:TrackPointExtension>
            <ns3:atemp>21.0</ns3:atemp>
          </ns3:TrackPointExtension>
        </extensions>
      </trkpt>
      <trkpt lat="42.52241813577711582183837890625" lon="19.84474693424999713897705078125">
        <ele>1008.5999755859375</ele>
        <time>2026-06-17T12:58:47.000Z</time>
        <extensions>
          <ns3:TrackPointExtension>
            <ns3:atemp>21.0</ns3:atemp>
          </ns3:TrackPointExtension>
        </extensions>
      </trkpt>
      <trkpt lat="42.52241344191133975982666015625" lon="19.84477895312011241912841796875">
        <ele>1008.79998779296875</ele>
        <time>2026-06-17T12:58:48.000Z</time>
        <extensions>
          <ns3:TrackPointExtension>
            <ns3:atemp>21.0</ns3:atemp>
          </ns3:TrackPointExtension>
        </extensions>
      </trkpt>
      <trkpt lat="42.52240656875073909759521484375" lon="19.844815246760845184326171875">
        <ele>1008.79998779296875</ele>
        <time>2026-06-17T12:58:49.000Z</time>
        <extensions>
          <ns3:TrackPointExtension>
            <ns3:atemp>21.0</ns3:atemp>
          </ns3:TrackPointExtension>
        </extensions>
      </trkpt>
      <trkpt lat="42.52240438945591449737548828125" lon="19.8448536358773708343505859375">
        <ele>1009</ele>
        <time>2026-06-17T12:58:50.000Z</time>
        <extensions>
          <ns3:TrackPointExtension>
            <ns3:atemp>21.0</ns3:atemp>
          </ns3:TrackPointExtension>
        </extensions>
      </trkpt>
      <trkpt lat="42.52240321598947048187255859375" lon="19.8448898456990718841552734375">
        <ele>1009.20001220703125</ele>
        <time>2026-06-17T12:58:51.000Z</time>
        <extensions>
          <ns3:TrackPointExtension>
            <ns3:atemp>21.0</ns3:atemp>
          </ns3:TrackPointExtension>
        </extensions>
      </trkpt>
      <trkpt lat="42.5224004499614238739013671875" lon="19.84492781572043895721435546875">
        <ele>1009.20001220703125</ele>
        <time>2026-06-17T12:58:52.000Z</time>
        <extensions>
          <ns3:TrackPointExtension>
            <ns3:atemp>21.0</ns3:atemp>
          </ns3:TrackPointExtension>
        </extensions>
      </trkpt>
      <trkpt lat="42.52239164896309375762939453125" lon="19.84496402554214000701904296875">
        <ele>1009.20001220703125</ele>
        <time>2026-06-17T12:58:53.000Z</time>
        <extensions>
          <ns3:TrackPointExtension>
            <ns3:atemp>21.0</ns3:atemp>
          </ns3:TrackPointExtension>
        </extensions>
      </trkpt>
      <trkpt lat="42.5223836861550807952880859375" lon="19.8449993133544921875">
        <ele>1009.4000244140625</ele>
        <time>2026-06-17T12:58:54.000Z</time>
        <extensions>
          <ns3:TrackPointExtension>
            <ns3:atemp>21.0</ns3:atemp>
          </ns3:TrackPointExtension>
        </extensions>
      </trkpt>
      <trkpt lat="42.5223722867667675018310546875" lon="19.845027141273021697998046875">
        <ele>1009.4000244140625</ele>
        <time>2026-06-17T12:58:55.000Z</time>
        <extensions>
          <ns3:TrackPointExtension>
            <ns3:atemp>21.0</ns3:atemp>
          </ns3:TrackPointExtension>
        </extensions>
      </trkpt>
      <trkpt lat="42.52235912717878818511962890625" lon="19.84505496919155120849609375">
        <ele>1009.4000244140625</ele>
        <time>2026-06-17T12:58:56.000Z</time>
        <extensions>
          <ns3:TrackPointExtension>
            <ns3:atemp>21.0</ns3:atemp>
          </ns3:TrackPointExtension>
        </extensions>
      </trkpt>
      <trkpt lat="42.52234638668596744537353515625" lon="19.84508221037685871124267578125">
        <ele>1009.4000244140625</ele>
        <time>2026-06-17T12:58:57.000Z</time>
        <extensions>
          <ns3:TrackPointExtension>
            <ns3:atemp>21.0</ns3:atemp>
          </ns3:TrackPointExtension>
        </extensions>
      </trkpt>
      <trkpt lat="42.52233113162219524383544921875" lon="19.84511272050440311431884765625">
        <ele>1009.4000244140625</ele>
        <time>2026-06-17T12:58:58.000Z</time>
        <extensions>
          <ns3:TrackPointExtension>
            <ns3:atemp>21.0</ns3:atemp>
          </ns3:TrackPointExtension>
        </extensions>
      </trkpt>
      <trkpt lat="42.52232023514807224273681640625" lon="19.84514842741191387176513671875">
        <ele>1009.5999755859375</ele>
        <time>2026-06-17T12:58:59.000Z</time>
        <extensions>
          <ns3:TrackPointExtension>
            <ns3:atemp>21.0</ns3:atemp>
          </ns3:TrackPointExtension>
        </extensions>
      </trkpt>
      <trkpt lat="42.5223109312355518341064453125" lon="19.8451869003474712371826171875">
        <ele>1009.5999755859375</ele>
        <time>2026-06-17T12:59:00.000Z</time>
        <extensions>
          <ns3:TrackPointExtension>
            <ns3:atemp>21.0</ns3:atemp>
          </ns3:TrackPointExtension>
        </extensions>
      </trkpt>
      <trkpt lat="42.5223028846085071563720703125" lon="19.84522336162626743316650390625">
        <ele>1009.5999755859375</ele>
        <time>2026-06-17T12:59:01.000Z</time>
        <extensions>
          <ns3:TrackPointExtension>
            <ns3:atemp>21.0</ns3:atemp>
          </ns3:TrackPointExtension>
        </extensions>
      </trkpt>
      <trkpt lat="42.52229626290500164031982421875" lon="19.84525211155414581298828125">
        <ele>1009.79998779296875</ele>
        <time>2026-06-17T12:59:02.000Z</time>
        <extensions>
          <ns3:TrackPointExtension>
            <ns3:atemp>21.0</ns3:atemp>
          </ns3:TrackPointExtension>
        </extensions>
      </trkpt>
      <trkpt lat="42.52229391597211360931396484375" lon="19.84528169967234134674072265625">
        <ele>1010</ele>
        <time>2026-06-17T12:59:03.000Z</time>
        <extensions>
          <ns3:TrackPointExtension>
            <ns3:atemp>21.0</ns3:atemp>
          </ns3:TrackPointExtension>
        </extensions>
      </trkpt>
      <trkpt lat="42.52229240722954273223876953125" lon="19.84530935995280742645263671875">
        <ele>1010</ele>
        <time>2026-06-17T12:59:04.000Z</time>
        <extensions>
          <ns3:TrackPointExtension>
            <ns3:atemp>21.0</ns3:atemp>
          </ns3:TrackPointExtension>
        </extensions>
      </trkpt>
      <trkpt lat="42.5222894735634326934814453125" lon="19.84534037299454212188720703125">
        <ele>1010.20001220703125</ele>
        <time>2026-06-17T12:59:05.000Z</time>
        <extensions>
          <ns3:TrackPointExtension>
            <ns3:atemp>21.0</ns3:atemp>
          </ns3:TrackPointExtension>
        </extensions>
      </trkpt>
      <trkpt lat="42.5222854502499103546142578125" lon="19.84537155367434024810791015625">
        <ele>1010.4000244140625</ele>
        <time>2026-06-17T12:59:06.000Z</time>
        <extensions>
          <ns3:TrackPointExtension>
            <ns3:atemp>21.0</ns3:atemp>
          </ns3:TrackPointExtension>
        </extensions>
      </trkpt>
      <trkpt lat="42.52228067256510257720947265625" lon="19.84540357254445552825927734375">
        <ele>1010.4000244140625</ele>
        <time>2026-06-17T12:59:07.000Z</time>
        <extensions>
          <ns3:TrackPointExtension>
            <ns3:atemp>21.0</ns3:atemp>
          </ns3:TrackPointExtension>
        </extensions>
      </trkpt>
      <trkpt lat="42.5222780741751194000244140625" lon="19.84543072991073131561279296875">
        <ele>1010.5999755859375</ele>
        <time>2026-06-17T12:59:08.000Z</time>
        <extensions>
          <ns3:TrackPointExtension>
            <ns3:atemp>21.0</ns3:atemp>
          </ns3:TrackPointExtension>
        </extensions>
      </trkpt>
      <trkpt lat="42.52227748744189739227294921875" lon="19.845459647476673126220703125">
        <ele>1010.79998779296875</ele>
        <time>2026-06-17T12:59:09.000Z</time>
        <extensions>
          <ns3:TrackPointExtension>
            <ns3:atemp>21.0</ns3:atemp>
          </ns3:TrackPointExtension>
        </extensions>
      </trkpt>
      <trkpt lat="42.52227715216577053070068359375" lon="19.84548973850905895233154296875">
        <ele>1010.79998779296875</ele>
        <time>2026-06-17T12:59:10.000Z</time>
        <extensions>
          <ns3:TrackPointExtension>
            <ns3:atemp>21.0</ns3:atemp>
          </ns3:TrackPointExtension>
        </extensions>
      </trkpt>
      <trkpt lat="42.52227614633738994598388671875" lon="19.845517314970493316650390625">
        <ele>1011</ele>
        <time>2026-06-17T12:59:11.000Z</time>
        <extensions>
          <ns3:TrackPointExtension>
            <ns3:atemp>21.0</ns3:atemp>
          </ns3:TrackPointExtension>
        </extensions>
      </trkpt>
      <trkpt lat="42.52227379940450191497802734375" lon="19.8455396108329296112060546875">
        <ele>1011.20001220703125</ele>
        <time>2026-06-17T12:59:12.000Z</time>
        <extensions>
          <ns3:TrackPointExtension>
            <ns3:atemp>21.0</ns3:atemp>
          </ns3:TrackPointExtension>
        </extensions>
      </trkpt>
      <trkpt lat="42.5222767330706119537353515625" lon="19.84555863775312900543212890625">
        <ele>1011.4000244140625</ele>
        <time>2026-06-17T12:59:13.000Z</time>
        <extensions>
          <ns3:TrackPointExtension>
            <ns3:atemp>21.0</ns3:atemp>
          </ns3:TrackPointExtension>
        </extensions>
      </trkpt>
      <trkpt lat="42.52228100784122943878173828125" lon="19.84558177180588245391845703125">
        <ele>1011.5999755859375</ele>
        <time>2026-06-17T12:59:14.000Z</time>
        <extensions>
          <ns3:TrackPointExtension>
            <ns3:atemp>21.0</ns3:atemp>
          </ns3:TrackPointExtension>
        </extensions>
      </trkpt>
      <trkpt lat="42.52228871919214725494384765625" lon="19.84560457058250904083251953125">
        <ele>1011.79998779296875</ele>
        <time>2026-06-17T12:59:15.000Z</time>
        <extensions>
          <ns3:TrackPointExtension>
            <ns3:atemp>21.0</ns3:atemp>
          </ns3:TrackPointExtension>
        </extensions>
      </trkpt>
      <trkpt lat="42.52229492180049419403076171875" lon="19.8456251062452793121337890625">
        <ele>1012.20001220703125</ele>
        <time>2026-06-17T12:59:16.000Z</time>
        <extensions>
          <ns3:TrackPointExtension>
            <ns3:atemp>21.0</ns3:atemp>
          </ns3:TrackPointExtension>
        </extensions>
      </trkpt>
      <trkpt lat="42.52230280078947544097900390625" lon="19.84565050341188907623291015625">
        <ele>1012.4000244140625</ele>
        <time>2026-06-17T12:59:17.000Z</time>
        <extensions>
          <ns3:TrackPointExtension>
            <ns3:atemp>21.0</ns3:atemp>
          </ns3:TrackPointExtension>
        </extensions>
      </trkpt>
      <trkpt lat="42.52231009304523468017578125" lon="19.84567590057849884033203125">
        <ele>1012.5999755859375</ele>
        <time>2026-06-17T12:59:18.000Z</time>
        <extensions>
          <ns3:TrackPointExtension>
            <ns3:atemp>21.0</ns3:atemp>
          </ns3:TrackPointExtension>
        </extensions>
      </trkpt>
      <trkpt lat="42.52231889404356479644775390625" lon="19.84569509513676166534423828125">
        <ele>1013</ele>
        <time>2026-06-17T12:59:19.000Z</time>
        <extensions>
          <ns3:TrackPointExtension>
            <ns3:atemp>21.0</ns3:atemp>
          </ns3:TrackPointExtension>
        </extensions>
      </trkpt>
      <trkpt lat="42.5223273597657680511474609375" lon="19.84571403823792934417724609375">
        <ele>1013.4000244140625</ele>
        <time>2026-06-17T12:59:20.000Z</time>
        <extensions>
          <ns3:TrackPointExtension>
            <ns3:atemp>21.0</ns3:atemp>
          </ns3:TrackPointExtension>
        </extensions>
      </trkpt>
      <trkpt lat="42.52233917824923992156982421875" lon="19.84573088586330413818359375">
        <ele>1013.79998779296875</ele>
        <time>2026-06-17T12:59:21.000Z</time>
        <extensions>
          <ns3:TrackPointExtension>
            <ns3:atemp>21.0</ns3:atemp>
          </ns3:TrackPointExtension>
        </extensions>
      </trkpt>
      <trkpt lat="42.5223545171320438385009765625" lon="19.84574521891772747039794921875">
        <ele>1014</ele>
        <time>2026-06-17T12:59:22.000Z</time>
        <extensions>
          <ns3:TrackPointExtension>
            <ns3:atemp>21.0</ns3:atemp>
          </ns3:TrackPointExtension>
        </extensions>
      </trkpt>
      <trkpt lat="42.522372119128704071044921875" lon="19.84575376845896244049072265625">
        <ele>1014.4000244140625</ele>
        <time>2026-06-17T12:59:23.000Z</time>
        <extensions>
          <ns3:TrackPointExtension>
            <ns3:atemp>21.0</ns3:atemp>
          </ns3:TrackPointExtension>
        </extensions>
      </trkpt>
      <trkpt lat="42.5223877094686031341552734375" lon="19.84576064161956310272216796875">
        <ele>1014.5999755859375</ele>
        <time>2026-06-17T12:59:24.000Z</time>
        <extensions>
          <ns3:TrackPointExtension>
            <ns3:atemp>21.0</ns3:atemp>
          </ns3:TrackPointExtension>
        </extensions>
      </trkpt>
      <trkpt lat="42.522402293980121612548828125" lon="19.8457595519721508026123046875">
        <ele>1015</ele>
        <time>2026-06-17T12:59:25.000Z</time>
        <extensions>
          <ns3:TrackPointExtension>
            <ns3:atemp>21.0</ns3:atemp>
          </ns3:TrackPointExtension>
        </extensions>
      </trkpt>
      <trkpt lat="42.52241830341517925262451171875" lon="19.84575502574443817138671875">
        <ele>1015.4000244140625</ele>
        <time>2026-06-17T12:59:26.000Z</time>
        <extensions>
          <ns3:TrackPointExtension>
            <ns3:atemp>21.0</ns3:atemp>
          </ns3:TrackPointExtension>
        </extensions>
      </trkpt>
      <trkpt lat="42.522430121898651123046875" lon="19.8457424528896808624267578125">
        <ele>1015.5999755859375</ele>
        <time>2026-06-17T12:59:27.000Z</time>
        <extensions>
          <ns3:TrackPointExtension>
            <ns3:atemp>21.0</ns3:atemp>
          </ns3:TrackPointExtension>
        </extensions>
      </trkpt>
      <trkpt lat="42.52244177274405956268310546875" lon="19.8457233421504497528076171875">
        <ele>1015.79998779296875</ele>
        <time>2026-06-17T12:59:28.000Z</time>
        <extensions>
          <ns3:TrackPointExtension>
            <ns3:atemp>21.0</ns3:atemp>
          </ns3:TrackPointExtension>
        </extensions>
      </trkpt>
      <trkpt lat="42.52244344912469387054443359375" lon="19.84570196829736232757568359375">
        <ele>1016</ele>
        <time>2026-06-17T12:59:29.000Z</time>
        <extensions>
          <ns3:TrackPointExtension>
            <ns3:atemp>21.0</ns3:atemp>
          </ns3:TrackPointExtension>
        </extensions>
      </trkpt>
      <trkpt lat="42.52244730480015277862548828125" lon="19.8456841148436069488525390625">
        <ele>1016.20001220703125</ele>
        <time>2026-06-17T12:59:30.000Z</time>
        <extensions>
          <ns3:TrackPointExtension>
            <ns3:atemp>21.0</ns3:atemp>
          </ns3:TrackPointExtension>
        </extensions>
      </trkpt>
      <trkpt lat="42.5224524177610874176025390625" lon="19.84565955586731433868408203125">
        <ele>1016.5999755859375</ele>
        <time>2026-06-17T12:59:31.000Z</time>
        <extensions>
          <ns3:TrackPointExtension>
            <ns3:atemp>21.0</ns3:atemp>
          </ns3:TrackPointExtension>
        </extensions>
      </trkpt>
      <trkpt lat="42.52245895564556121826171875" lon="19.8456354998052120208740234375">
        <ele>1016.79998779296875</ele>
        <time>2026-06-17T12:59:32.000Z</time>
        <extensions>
          <ns3:TrackPointExtension>
            <ns3:atemp>21.0</ns3:atemp>
          </ns3:TrackPointExtension>
        </extensions>
      </trkpt>
      <trkpt lat="42.52246557734906673431396484375" lon="19.8456194065511226654052734375">
        <ele>1017</ele>
        <time>2026-06-17T12:59:33.000Z</time>
        <extensions>
          <ns3:TrackPointExtension>
            <ns3:atemp>21.0</ns3:atemp>
          </ns3:TrackPointExtension>
        </extensions>
      </trkpt>
      <trkpt lat="42.5224762223660945892333984375" lon="19.84561278484761714935302734375">
        <ele>1017.4000244140625</ele>
        <time>2026-06-17T12:59:34.000Z</time>
        <extensions>
          <ns3:TrackPointExtension>
            <ns3:atemp>21.0</ns3:atemp>
          </ns3:TrackPointExtension>
        </extensions>
      </trkpt>
      <trkpt lat="42.5224876217544078826904296875" lon="19.845598451793193817138671875">
        <ele>1017.5999755859375</ele>
        <time>2026-06-17T12:59:35.000Z</time>
        <extensions>
          <ns3:TrackPointExtension>
            <ns3:atemp>21.0</ns3:atemp>
          </ns3:TrackPointExtension>
        </extensions>
      </trkpt>
      <trkpt lat="42.52250044606626033782958984375" lon="19.84558445401489734649658203125">
        <ele>1018</ele>
        <time>2026-06-17T12:59:36.000Z</time>
        <extensions>
          <ns3:TrackPointExtension>
            <ns3:atemp>21.0</ns3:atemp>
          </ns3:TrackPointExtension>
        </extensions>
      </trkpt>
      <trkpt lat="42.52251419238746166229248046875" lon="19.84557037241756916046142578125">
        <ele>1018.20001220703125</ele>
        <time>2026-06-17T12:59:37.000Z</time>
        <extensions>
          <ns3:TrackPointExtension>
            <ns3:atemp>21.0</ns3:atemp>
          </ns3:TrackPointExtension>
        </extensions>
      </trkpt>
      <trkpt lat="42.5225265137851238250732421875" lon="19.8455533571541309356689453125">
        <ele>1018.4000244140625</ele>
        <time>2026-06-17T12:59:38.000Z</time>
        <extensions>
          <ns3:TrackPointExtension>
            <ns3:atemp>21.0</ns3:atemp>
          </ns3:TrackPointExtension>
        </extensions>
      </trkpt>
      <trkpt lat="42.52253598533570766448974609375" lon="19.845538102090358734130859375">
        <ele>1018.5999755859375</ele>
        <time>2026-06-17T12:59:39.000Z</time>
        <extensions>
          <ns3:TrackPointExtension>
            <ns3:atemp>21.0</ns3:atemp>
          </ns3:TrackPointExtension>
        </extensions>
      </trkpt>
      <trkpt lat="42.522543780505657196044921875" lon="19.8455275408923625946044921875">
        <ele>1018.79998779296875</ele>
        <time>2026-06-17T12:59:40.000Z</time>
        <extensions>
          <ns3:TrackPointExtension>
            <ns3:atemp>21.0</ns3:atemp>
          </ns3:TrackPointExtension>
        </extensions>
      </trkpt>
      <trkpt lat="42.522553838789463043212890625" lon="19.845511615276336669921875">
        <ele>1019</ele>
        <time>2026-06-17T12:59:41.000Z</time>
        <extensions>
          <ns3:TrackPointExtension>
            <ns3:atemp>21.0</ns3:atemp>
          </ns3:TrackPointExtension>
        </extensions>
      </trkpt>
      <trkpt lat="42.5225654058158397674560546875" lon="19.84548973850905895233154296875">
        <ele>1019.20001220703125</ele>
        <time>2026-06-17T12:59:42.000Z</time>
        <extensions>
          <ns3:TrackPointExtension>
            <ns3:atemp>21.0</ns3:atemp>
          </ns3:TrackPointExtension>
        </extensions>
      </trkpt>
      <trkpt lat="42.5225722789764404296875" lon="19.84547138214111328125">
        <ele>1019.4000244140625</ele>
        <time>2026-06-17T12:59:43.000Z</time>
        <extensions>
          <ns3:TrackPointExtension>
            <ns3:atemp>21.0</ns3:atemp>
          </ns3:TrackPointExtension>
        </extensions>
      </trkpt>
      <trkpt lat="42.52257965505123138427734375" lon="19.84545352868735790252685546875">
        <ele>1019.4000244140625</ele>
        <time>2026-06-17T12:59:44.000Z</time>
        <extensions>
          <ns3:TrackPointExtension>
            <ns3:atemp>21.0</ns3:atemp>
          </ns3:TrackPointExtension>
        </extensions>
      </trkpt>
      <trkpt lat="42.52258258871734142303466796875" lon="19.84543492086231708526611328125">
        <ele>1019.4000244140625</ele>
        <time>2026-06-17T12:59:45.000Z</time>
        <extensions>
          <ns3:TrackPointExtension>
            <ns3:atemp>21.0</ns3:atemp>
          </ns3:TrackPointExtension>
        </extensions>
      </trkpt>
      <trkpt lat="42.52258191816508769989013671875" lon="19.84541438519954681396484375">
        <ele>1019.4000244140625</ele>
        <time>2026-06-17T12:59:46.000Z</time>
        <extensions>
          <ns3:TrackPointExtension>
            <ns3:atemp>21.0</ns3:atemp>
          </ns3:TrackPointExtension>
        </extensions>
      </trkpt>
      <trkpt lat="42.522579319775104522705078125" lon="19.8453857190907001495361328125">
        <ele>1019.4000244140625</ele>
        <time>2026-06-17T12:59:47.000Z</time>
        <extensions>
          <ns3:TrackPointExtension>
            <ns3:atemp>21.0</ns3:atemp>
          </ns3:TrackPointExtension>
        </extensions>
      </trkpt>
      <trkpt lat="42.52256867475807666778564453125" lon="19.84534875489771366119384765625">
        <ele>1019</ele>
        <time>2026-06-17T12:59:48.000Z</time>
        <extensions>
          <ns3:TrackPointExtension>
            <ns3:atemp>21.0</ns3:atemp>
          </ns3:TrackPointExtension>
        </extensions>
      </trkpt>
      <trkpt lat="42.522550486028194427490234375" lon="19.84531204216182231903076171875">
        <ele>1018.79998779296875</ele>
        <time>2026-06-17T12:59:49.000Z</time>
        <extensions>
          <ns3:TrackPointExtension>
            <ns3:atemp>21.0</ns3:atemp>
          </ns3:TrackPointExtension>
        </extensions>
      </trkpt>
      <trkpt lat="42.52253095619380474090576171875" lon="19.845278263092041015625">
        <ele>1018.4000244140625</ele>
        <time>2026-06-17T12:59:50.000Z</time>
        <extensions>
          <ns3:TrackPointExtension>
            <ns3:atemp>21.0</ns3:atemp>
          </ns3:TrackPointExtension>
        </extensions>
      </trkpt>
      <trkpt lat="42.52251218073070049285888671875" lon="19.8452559672296047210693359375">
        <ele>1018</ele>
        <time>2026-06-17T12:59:51.000Z</time>
        <extensions>
          <ns3:TrackPointExtension>
            <ns3:atemp>21.0</ns3:atemp>
          </ns3:TrackPointExtension>
        </extensions>
      </trkpt>
      <trkpt lat="42.5225023739039897918701171875" lon="19.84525135718286037445068359375">
        <ele>1017.5999755859375</ele>
        <time>2026-06-17T12:59:52.000Z</time>
        <extensions>
          <ns3:TrackPointExtension>
            <ns3:atemp>21.0</ns3:atemp>
          </ns3:TrackPointExtension>
        </extensions>
      </trkpt>
      <trkpt lat="42.52250229008495807647705078125" lon="19.8452449031174182891845703125">
        <ele>1017.4000244140625</ele>
        <time>2026-06-17T12:59:53.000Z</time>
        <extensions>
          <ns3:TrackPointExtension>
            <ns3:atemp>21.0</ns3:atemp>
          </ns3:TrackPointExtension>
        </extensions>
      </trkpt>
      <trkpt lat="42.52250480465590953826904296875" lon="19.84524833969771862030029296875">
        <ele>1017.20001220703125</ele>
        <time>2026-06-17T12:59:54.000Z</time>
        <extensions>
          <ns3:TrackPointExtension>
            <ns3:atemp>21.0</ns3:atemp>
          </ns3:TrackPointExtension>
        </extensions>
      </trkpt>
      <trkpt lat="42.52250480465590953826904296875" lon="19.84524833969771862030029296875">
        <ele>1017</ele>
        <time>2026-06-17T12:59:55.000Z</time>
        <extensions>
          <ns3:TrackPointExtension>
            <ns3:atemp>21.0</ns3:atemp>
          </ns3:TrackPointExtension>
        </extensions>
      </trkpt>
      <trkpt lat="42.52250480465590953826904296875" lon="19.84524833969771862030029296875">
        <ele>1017</ele>
        <time>2026-06-17T12:59:56.000Z</time>
        <extensions>
          <ns3:TrackPointExtension>
            <ns3:atemp>21.0</ns3:atemp>
          </ns3:TrackPointExtension>
        </extensions>
      </trkpt>
      <trkpt lat="42.52250480465590953826904296875" lon="19.84524833969771862030029296875">
        <ele>1016.79998779296875</ele>
        <time>2026-06-17T12:59:57.000Z</time>
        <extensions>
          <ns3:TrackPointExtension>
            <ns3:atemp>21.0</ns3:atemp>
          </ns3:TrackPointExtension>
        </extensions>
      </trkpt>
      <trkpt lat="42.52250480465590953826904296875" lon="19.84524833969771862030029296875">
        <ele>1016.79998779296875</ele>
        <time>2026-06-17T12:59:58.000Z</time>
        <extensions>
          <ns3:TrackPointExtension>
            <ns3:atemp>21.0</ns3:atemp>
          </ns3:TrackPointExtension>
        </extensions>
      </trkpt>
      <trkpt lat="42.52250480465590953826904296875" lon="19.84524833969771862030029296875">
        <ele>1016.79998779296875</ele>
        <time>2026-06-17T12:59:59.000Z</time>
        <extensions>
          <ns3:TrackPointExtension>
            <ns3:atemp>21.0</ns3:atemp>
          </ns3:TrackPointExtension>
        </extensions>
      </trkpt>
      <trkpt lat="42.52250480465590953826904296875" lon="19.84524833969771862030029296875">
        <ele>1016.5999755859375</ele>
        <time>2026-06-17T13:00:00.000Z</time>
        <extensions>
          <ns3:TrackPointExtension>
            <ns3:atemp>21.0</ns3:atemp>
          </ns3:TrackPointExtension>
        </extensions>
      </trkpt>
      <trkpt lat="42.52250480465590953826904296875" lon="19.84524833969771862030029296875">
        <ele>1016.5999755859375</ele>
        <time>2026-06-17T13:00:01.000Z</time>
        <extensions>
          <ns3:TrackPointExtension>
            <ns3:atemp>21.0</ns3:atemp>
          </ns3:TrackPointExtension>
        </extensions>
      </trkpt>
      <trkpt lat="42.52250480465590953826904296875" lon="19.84524833969771862030029296875">
        <ele>1016.5999755859375</ele>
        <time>2026-06-17T13:00:02.000Z</time>
        <extensions>
          <ns3:TrackPointExtension>
            <ns3:atemp>21.0</ns3:atemp>
          </ns3:TrackPointExtension>
        </extensions>
      </trkpt>
      <trkpt lat="42.52250480465590953826904296875" lon="19.84524833969771862030029296875">
        <ele>1016.5999755859375</ele>
        <time>2026-06-17T13:00:03.000Z</time>
        <extensions>
          <ns3:TrackPointExtension>
            <ns3:atemp>21.0</ns3:atemp>
          </ns3:TrackPointExtension>
        </extensions>
      </trkpt>
      <trkpt lat="42.52250480465590953826904296875" lon="19.84524833969771862030029296875">
        <ele>1016.5999755859375</ele>
        <time>2026-06-17T13:00:04.000Z</time>
        <extensions>
          <ns3:TrackPointExtension>
            <ns3:atemp>21.0</ns3:atemp>
          </ns3:TrackPointExtension>
        </extensions>
      </trkpt>
    </trkseg>
  </trk>
</gpx>
